<?xml version="1.0" encoding="UTF-8"?>
<gpx version="1.1" creator="https://www.youtrack.es" xsi:schemaLocation="http://www.topografix.com/GPX/1/1 http://www.topografix.com/GPX/1/1/gpx.xsd http://www.garmin.com/xmlschemas/GpxExtensions/v3 http://www.garmin.com/xmlschemas/GpxExtensionsv3.xsd http://www.garmin.com/xmlschemas/TrackPointExtension/v1 http://www.garmin.com/xmlschemas/TrackPointExtensionv1.xsd" xmlns:gpxtpx="http://www.garmin.com/xmlschemas/TrackPointExtension/v1" xmlns:gpxx="http://www.garmin.com/xmlschemas/GpxExtensions/v3" xmlns:xsi="http://www.w3.org/2001/XMLSchema-instance">
  <metadata>
    <link href="https://www.youtrack.es">
      <text>YouTrack.es</text>
    </link>
    <time>2026-05-08T18:29:40Z</time>
  </metadata>
  <trk>
    <src>https://www.youtrack.es</src>
    <link href="https://www.youtrack.es/ruta/38536-trekking-campo-base-everest-por-libre">
      <text>YouTrack.es</text>
    </link>
    <trkseg>
      <trkpt lat="27.688147" lon="86.731917">
        <ele>2858</ele>
        <time>2022-10-19T03:34:23.000Z</time>
      </trkpt>
      <trkpt lat="27.688166" lon="86.731898">
        <ele>2857.6</ele>
        <time>2022-10-19T03:34:25.000Z</time>
      </trkpt>
      <trkpt lat="27.688176" lon="86.731878">
        <ele>2857.6</ele>
        <time>2022-10-19T03:34:26.000Z</time>
      </trkpt>
      <trkpt lat="27.688192" lon="86.731859">
        <ele>2856.6</ele>
        <time>2022-10-19T03:34:29.000Z</time>
      </trkpt>
      <trkpt lat="27.688195" lon="86.731827">
        <ele>2856.2</ele>
        <time>2022-10-19T03:34:32.000Z</time>
      </trkpt>
      <trkpt lat="27.688195" lon="86.731795">
        <ele>2855.8</ele>
        <time>2022-10-19T03:34:35.000Z</time>
      </trkpt>
      <trkpt lat="27.688195" lon="86.731763">
        <ele>2855</ele>
        <time>2022-10-19T03:34:40.000Z</time>
      </trkpt>
      <trkpt lat="27.688195" lon="86.731738">
        <ele>2853.8</ele>
        <time>2022-10-19T03:34:43.000Z</time>
      </trkpt>
      <trkpt lat="27.688192" lon="86.731706">
        <ele>2853.2</ele>
        <time>2022-10-19T03:34:46.000Z</time>
      </trkpt>
      <trkpt lat="27.688195" lon="86.73168">
        <ele>2852.4</ele>
        <time>2022-10-19T03:34:49.000Z</time>
      </trkpt>
      <trkpt lat="27.688186" lon="86.731654">
        <ele>2852.2</ele>
        <time>2022-10-19T03:34:52.000Z</time>
      </trkpt>
      <trkpt lat="27.688176" lon="86.731629">
        <ele>2851.8</ele>
        <time>2022-10-19T03:34:55.000Z</time>
      </trkpt>
      <trkpt lat="27.688173" lon="86.731603">
        <ele>2851.6</ele>
        <time>2022-10-19T03:34:57.000Z</time>
      </trkpt>
      <trkpt lat="27.688166" lon="86.731578">
        <ele>2850.6</ele>
        <time>2022-10-19T03:35:01.000Z</time>
      </trkpt>
      <trkpt lat="27.688166" lon="86.731552">
        <ele>2849.8</ele>
        <time>2022-10-19T03:35:04.000Z</time>
      </trkpt>
      <trkpt lat="27.688163" lon="86.731526">
        <ele>2849.4</ele>
        <time>2022-10-19T03:35:07.000Z</time>
      </trkpt>
      <trkpt lat="27.688157" lon="86.731507">
        <ele>2849.2</ele>
        <time>2022-10-19T03:35:18.000Z</time>
      </trkpt>
      <trkpt lat="27.688154" lon="86.731482">
        <ele>2848.8</ele>
        <time>2022-10-19T03:35:20.000Z</time>
      </trkpt>
      <trkpt lat="27.688144" lon="86.731462">
        <ele>2848.8</ele>
        <time>2022-10-19T03:35:22.000Z</time>
      </trkpt>
      <trkpt lat="27.688138" lon="86.73143">
        <ele>2848.4</ele>
        <time>2022-10-19T03:35:25.000Z</time>
      </trkpt>
      <trkpt lat="27.688128" lon="86.731398">
        <ele>2847.8</ele>
        <time>2022-10-19T03:35:28.000Z</time>
      </trkpt>
      <trkpt lat="27.688122" lon="86.731366">
        <ele>2847.2</ele>
        <time>2022-10-19T03:35:33.000Z</time>
      </trkpt>
      <trkpt lat="27.688115" lon="86.731341">
        <ele>2846.4</ele>
        <time>2022-10-19T03:35:37.000Z</time>
      </trkpt>
      <trkpt lat="27.688134" lon="86.731341">
        <ele>2844.8</ele>
        <time>2022-10-19T03:36:01.000Z</time>
      </trkpt>
      <trkpt lat="27.68816" lon="86.731322">
        <ele>2844.8</ele>
        <time>2022-10-19T03:36:03.000Z</time>
      </trkpt>
      <trkpt lat="27.688186" lon="86.731322">
        <ele>2844.8</ele>
        <time>2022-10-19T03:36:05.000Z</time>
      </trkpt>
      <trkpt lat="27.688208" lon="86.731315">
        <ele>2845</ele>
        <time>2022-10-19T03:36:07.000Z</time>
      </trkpt>
      <trkpt lat="27.688234" lon="86.731302">
        <ele>2845</ele>
        <time>2022-10-19T03:36:09.000Z</time>
      </trkpt>
      <trkpt lat="27.688243" lon="86.731283">
        <ele>2845</ele>
        <time>2022-10-19T03:36:11.000Z</time>
      </trkpt>
      <trkpt lat="27.688266" lon="86.731264">
        <ele>2844.8</ele>
        <time>2022-10-19T03:36:14.000Z</time>
      </trkpt>
      <trkpt lat="27.688285" lon="86.731258">
        <ele>2845.2</ele>
        <time>2022-10-19T03:36:16.000Z</time>
      </trkpt>
      <trkpt lat="27.688307" lon="86.731245">
        <ele>2845.2</ele>
        <time>2022-10-19T03:36:18.000Z</time>
      </trkpt>
      <trkpt lat="27.688326" lon="86.731238">
        <ele>2845.4</ele>
        <time>2022-10-19T03:36:20.000Z</time>
      </trkpt>
      <trkpt lat="27.688346" lon="86.731232">
        <ele>2845.4</ele>
        <time>2022-10-19T03:36:22.000Z</time>
      </trkpt>
      <trkpt lat="27.688371" lon="86.731232">
        <ele>2845.4</ele>
        <time>2022-10-19T03:36:24.000Z</time>
      </trkpt>
      <trkpt lat="27.6884" lon="86.731219">
        <ele>2845.4</ele>
        <time>2022-10-19T03:36:26.000Z</time>
      </trkpt>
      <trkpt lat="27.688403" lon="86.731194">
        <ele>2845.6</ele>
        <time>2022-10-19T03:36:28.000Z</time>
      </trkpt>
      <trkpt lat="27.688416" lon="86.731168">
        <ele>2845.6</ele>
        <time>2022-10-19T03:36:33.000Z</time>
      </trkpt>
      <trkpt lat="27.688435" lon="86.731168">
        <ele>2845.8</ele>
        <time>2022-10-19T03:36:36.000Z</time>
      </trkpt>
      <trkpt lat="27.688442" lon="86.731187">
        <ele>2845.8</ele>
        <time>2022-10-19T03:36:43.000Z</time>
      </trkpt>
      <trkpt lat="27.688442" lon="86.731162">
        <ele>2845.6</ele>
        <time>2022-10-19T03:36:55.000Z</time>
      </trkpt>
      <trkpt lat="27.688458" lon="86.731142">
        <ele>2845.8</ele>
        <time>2022-10-19T03:37:01.000Z</time>
      </trkpt>
      <trkpt lat="27.68848" lon="86.731142">
        <ele>2845.6</ele>
        <time>2022-10-19T03:37:06.000Z</time>
      </trkpt>
      <trkpt lat="27.68847" lon="86.731123">
        <ele>2845.8</ele>
        <time>2022-10-19T03:37:08.000Z</time>
      </trkpt>
      <trkpt lat="27.688461" lon="86.731072">
        <ele>2845.6</ele>
        <time>2022-10-19T03:37:21.000Z</time>
      </trkpt>
      <trkpt lat="27.688445" lon="86.731046">
        <ele>2845.4</ele>
        <time>2022-10-19T03:37:25.000Z</time>
      </trkpt>
      <trkpt lat="27.688435" lon="86.731066">
        <ele>2845.4</ele>
        <time>2022-10-19T03:37:38.000Z</time>
      </trkpt>
      <trkpt lat="27.688454" lon="86.731072">
        <ele>2845.6</ele>
        <time>2022-10-19T03:37:44.000Z</time>
      </trkpt>
      <trkpt lat="27.688461" lon="86.731046">
        <ele>2845.6</ele>
        <time>2022-10-19T03:37:51.000Z</time>
      </trkpt>
      <trkpt lat="27.688464" lon="86.731072">
        <ele>2845.4</ele>
        <time>2022-10-19T03:37:58.000Z</time>
      </trkpt>
      <trkpt lat="27.688474" lon="86.731091">
        <ele>2845.6</ele>
        <time>2022-10-19T03:38:25.000Z</time>
      </trkpt>
      <trkpt lat="27.68848" lon="86.73111">
        <ele>2845.6</ele>
        <time>2022-10-19T03:38:26.000Z</time>
      </trkpt>
      <trkpt lat="27.688486" lon="86.731091">
        <ele>2845.4</ele>
        <time>2022-10-19T03:38:33.000Z</time>
      </trkpt>
      <trkpt lat="27.688493" lon="86.731072">
        <ele>2845.6</ele>
        <time>2022-10-19T03:38:35.000Z</time>
      </trkpt>
      <trkpt lat="27.688486" lon="86.731046">
        <ele>2845.4</ele>
        <time>2022-10-19T03:38:46.000Z</time>
      </trkpt>
      <trkpt lat="27.688506" lon="86.731034">
        <ele>2845.6</ele>
        <time>2022-10-19T03:38:56.000Z</time>
      </trkpt>
      <trkpt lat="27.688522" lon="86.731021">
        <ele>2845.4</ele>
        <time>2022-10-19T03:38:58.000Z</time>
      </trkpt>
      <trkpt lat="27.688541" lon="86.731008">
        <ele>2845.6</ele>
        <time>2022-10-19T03:39:01.000Z</time>
      </trkpt>
      <trkpt lat="27.688563" lon="86.731021">
        <ele>2845.6</ele>
        <time>2022-10-19T03:39:04.000Z</time>
      </trkpt>
      <trkpt lat="27.688586" lon="86.731027">
        <ele>2845.6</ele>
        <time>2022-10-19T03:39:06.000Z</time>
      </trkpt>
      <trkpt lat="27.688605" lon="86.731021">
        <ele>2845.4</ele>
        <time>2022-10-19T03:39:08.000Z</time>
      </trkpt>
      <trkpt lat="27.688611" lon="86.731002">
        <ele>2845.2</ele>
        <time>2022-10-19T03:39:10.000Z</time>
      </trkpt>
      <trkpt lat="27.68863" lon="86.730982">
        <ele>2845.2</ele>
        <time>2022-10-19T03:39:13.000Z</time>
      </trkpt>
      <trkpt lat="27.688643" lon="86.730963">
        <ele>2845.2</ele>
        <time>2022-10-19T03:39:15.000Z</time>
      </trkpt>
      <trkpt lat="27.688656" lon="86.730944">
        <ele>2845.2</ele>
        <time>2022-10-19T03:39:18.000Z</time>
      </trkpt>
      <trkpt lat="27.688672" lon="86.730925">
        <ele>2845</ele>
        <time>2022-10-19T03:39:21.000Z</time>
      </trkpt>
      <trkpt lat="27.688688" lon="86.730906">
        <ele>2845.2</ele>
        <time>2022-10-19T03:39:24.000Z</time>
      </trkpt>
      <trkpt lat="27.688691" lon="86.73088">
        <ele>2845.2</ele>
        <time>2022-10-19T03:39:26.000Z</time>
      </trkpt>
      <trkpt lat="27.68871" lon="86.73088">
        <ele>2845.4</ele>
        <time>2022-10-19T03:39:33.000Z</time>
      </trkpt>
      <trkpt lat="27.688726" lon="86.730861">
        <ele>2845.4</ele>
        <time>2022-10-19T03:39:36.000Z</time>
      </trkpt>
      <trkpt lat="27.688736" lon="86.730842">
        <ele>2845.4</ele>
        <time>2022-10-19T03:39:37.000Z</time>
      </trkpt>
      <trkpt lat="27.688742" lon="86.730822">
        <ele>2845.2</ele>
        <time>2022-10-19T03:39:39.000Z</time>
      </trkpt>
      <trkpt lat="27.688749" lon="86.730803">
        <ele>2844.8</ele>
        <time>2022-10-19T03:39:41.000Z</time>
      </trkpt>
      <trkpt lat="27.688762" lon="86.730784">
        <ele>2844.8</ele>
        <time>2022-10-19T03:39:43.000Z</time>
      </trkpt>
      <trkpt lat="27.688765" lon="86.730758">
        <ele>2845</ele>
        <time>2022-10-19T03:39:45.000Z</time>
      </trkpt>
      <trkpt lat="27.688781" lon="86.730746">
        <ele>2845</ele>
        <time>2022-10-19T03:39:47.000Z</time>
      </trkpt>
      <trkpt lat="27.688794" lon="86.73072">
        <ele>2845.2</ele>
        <time>2022-10-19T03:39:49.000Z</time>
      </trkpt>
      <trkpt lat="27.68881" lon="86.730707">
        <ele>2845.2</ele>
        <time>2022-10-19T03:39:51.000Z</time>
      </trkpt>
      <trkpt lat="27.688832" lon="86.730701">
        <ele>2845.6</ele>
        <time>2022-10-19T03:39:53.000Z</time>
      </trkpt>
      <trkpt lat="27.688842" lon="86.730682">
        <ele>2845.6</ele>
        <time>2022-10-19T03:39:54.000Z</time>
      </trkpt>
      <trkpt lat="27.688854" lon="86.73065">
        <ele>2845.2</ele>
        <time>2022-10-19T03:39:57.000Z</time>
      </trkpt>
      <trkpt lat="27.688858" lon="86.730624">
        <ele>2845.2</ele>
        <time>2022-10-19T03:39:59.000Z</time>
      </trkpt>
      <trkpt lat="27.688874" lon="86.730611">
        <ele>2845.6</ele>
        <time>2022-10-19T03:40:01.000Z</time>
      </trkpt>
      <trkpt lat="27.688893" lon="86.730598">
        <ele>2845.6</ele>
        <time>2022-10-19T03:40:03.000Z</time>
      </trkpt>
      <trkpt lat="27.688909" lon="86.730573">
        <ele>2845.6</ele>
        <time>2022-10-19T03:40:06.000Z</time>
      </trkpt>
      <trkpt lat="27.688928" lon="86.730534">
        <ele>2845.8</ele>
        <time>2022-10-19T03:40:09.000Z</time>
      </trkpt>
      <trkpt lat="27.688934" lon="86.730515">
        <ele>2846.2</ele>
        <time>2022-10-19T03:40:11.000Z</time>
      </trkpt>
      <trkpt lat="27.688947" lon="86.73049">
        <ele>2846</ele>
        <time>2022-10-19T03:40:13.000Z</time>
      </trkpt>
      <trkpt lat="27.68896" lon="86.73047">
        <ele>2845.8</ele>
        <time>2022-10-19T03:40:16.000Z</time>
      </trkpt>
      <trkpt lat="27.68897" lon="86.730445">
        <ele>2845.8</ele>
        <time>2022-10-19T03:40:18.000Z</time>
      </trkpt>
      <trkpt lat="27.688976" lon="86.730406">
        <ele>2846</ele>
        <time>2022-10-19T03:40:21.000Z</time>
      </trkpt>
      <trkpt lat="27.688982" lon="86.730387">
        <ele>2846</ele>
        <time>2022-10-19T03:40:23.000Z</time>
      </trkpt>
      <trkpt lat="27.689002" lon="86.730368">
        <ele>2846</ele>
        <time>2022-10-19T03:40:25.000Z</time>
      </trkpt>
      <trkpt lat="27.689027" lon="86.730362">
        <ele>2846</ele>
        <time>2022-10-19T03:40:27.000Z</time>
      </trkpt>
      <trkpt lat="27.689046" lon="86.730355">
        <ele>2846</ele>
        <time>2022-10-19T03:40:28.000Z</time>
      </trkpt>
      <trkpt lat="27.689062" lon="86.73033">
        <ele>2845.8</ele>
        <time>2022-10-19T03:40:30.000Z</time>
      </trkpt>
      <trkpt lat="27.689059" lon="86.730304">
        <ele>2845.8</ele>
        <time>2022-10-19T03:40:32.000Z</time>
      </trkpt>
      <trkpt lat="27.689062" lon="86.730272">
        <ele>2845.8</ele>
        <time>2022-10-19T03:40:34.000Z</time>
      </trkpt>
      <trkpt lat="27.689066" lon="86.730246">
        <ele>2845.6</ele>
        <time>2022-10-19T03:40:36.000Z</time>
      </trkpt>
      <trkpt lat="27.689059" lon="86.730208">
        <ele>2845.6</ele>
        <time>2022-10-19T03:40:39.000Z</time>
      </trkpt>
      <trkpt lat="27.689056" lon="86.73017">
        <ele>2845</ele>
        <time>2022-10-19T03:40:41.000Z</time>
      </trkpt>
      <trkpt lat="27.689066" lon="86.73015">
        <ele>2845.2</ele>
        <time>2022-10-19T03:40:43.000Z</time>
      </trkpt>
      <trkpt lat="27.689069" lon="86.730125">
        <ele>2845.2</ele>
        <time>2022-10-19T03:40:45.000Z</time>
      </trkpt>
      <trkpt lat="27.689082" lon="86.730106">
        <ele>2845</ele>
        <time>2022-10-19T03:40:47.000Z</time>
      </trkpt>
      <trkpt lat="27.689088" lon="86.73008">
        <ele>2845.2</ele>
        <time>2022-10-19T03:40:49.000Z</time>
      </trkpt>
      <trkpt lat="27.689107" lon="86.730054">
        <ele>2845.2</ele>
        <time>2022-10-19T03:40:51.000Z</time>
      </trkpt>
      <trkpt lat="27.689117" lon="86.730016">
        <ele>2845.2</ele>
        <time>2022-10-19T03:40:54.000Z</time>
      </trkpt>
      <trkpt lat="27.689139" lon="86.730003">
        <ele>2845.2</ele>
        <time>2022-10-19T03:40:56.000Z</time>
      </trkpt>
      <trkpt lat="27.689155" lon="86.72999">
        <ele>2845.6</ele>
        <time>2022-10-19T03:40:58.000Z</time>
      </trkpt>
      <trkpt lat="27.689162" lon="86.729965">
        <ele>2845.6</ele>
        <time>2022-10-19T03:41:00.000Z</time>
      </trkpt>
      <trkpt lat="27.689168" lon="86.729939">
        <ele>2845.2</ele>
        <time>2022-10-19T03:41:02.000Z</time>
      </trkpt>
      <trkpt lat="27.689184" lon="86.729926">
        <ele>2845</ele>
        <time>2022-10-19T03:41:05.000Z</time>
      </trkpt>
      <trkpt lat="27.689181" lon="86.729888">
        <ele>2845</ele>
        <time>2022-10-19T03:41:08.000Z</time>
      </trkpt>
      <trkpt lat="27.689197" lon="86.729875">
        <ele>2845.2</ele>
        <time>2022-10-19T03:41:14.000Z</time>
      </trkpt>
      <trkpt lat="27.689206" lon="86.729856">
        <ele>2845.2</ele>
        <time>2022-10-19T03:41:18.000Z</time>
      </trkpt>
      <trkpt lat="27.689219" lon="86.729875">
        <ele>2845</ele>
        <time>2022-10-19T03:41:29.000Z</time>
      </trkpt>
      <trkpt lat="27.689226" lon="86.729856">
        <ele>2845.2</ele>
        <time>2022-10-19T03:41:30.000Z</time>
      </trkpt>
      <trkpt lat="27.689251" lon="86.729843">
        <ele>2845.2</ele>
        <time>2022-10-19T03:41:33.000Z</time>
      </trkpt>
      <trkpt lat="27.689283" lon="86.729843">
        <ele>2845.2</ele>
        <time>2022-10-19T03:41:35.000Z</time>
      </trkpt>
      <trkpt lat="27.689306" lon="86.729837">
        <ele>2845.2</ele>
        <time>2022-10-19T03:41:37.000Z</time>
      </trkpt>
      <trkpt lat="27.689331" lon="86.72983">
        <ele>2845.2</ele>
        <time>2022-10-19T03:41:39.000Z</time>
      </trkpt>
      <trkpt lat="27.689338" lon="86.729811">
        <ele>2845.6</ele>
        <time>2022-10-19T03:41:41.000Z</time>
      </trkpt>
      <trkpt lat="27.689357" lon="86.729798">
        <ele>2845.8</ele>
        <time>2022-10-19T03:41:44.000Z</time>
      </trkpt>
      <trkpt lat="27.689366" lon="86.729773">
        <ele>2846</ele>
        <time>2022-10-19T03:41:46.000Z</time>
      </trkpt>
      <trkpt lat="27.689373" lon="86.729734">
        <ele>2846.4</ele>
        <time>2022-10-19T03:41:48.000Z</time>
      </trkpt>
      <trkpt lat="27.689386" lon="86.729715">
        <ele>2846.6</ele>
        <time>2022-10-19T03:41:50.000Z</time>
      </trkpt>
      <trkpt lat="27.689395" lon="86.729696">
        <ele>2847</ele>
        <time>2022-10-19T03:41:52.000Z</time>
      </trkpt>
      <trkpt lat="27.689405" lon="86.729677">
        <ele>2847.2</ele>
        <time>2022-10-19T03:41:54.000Z</time>
      </trkpt>
      <trkpt lat="27.689421" lon="86.729658">
        <ele>2847.2</ele>
        <time>2022-10-19T03:41:56.000Z</time>
      </trkpt>
      <trkpt lat="27.68944" lon="86.729638">
        <ele>2847</ele>
        <time>2022-10-19T03:41:59.000Z</time>
      </trkpt>
      <trkpt lat="27.689453" lon="86.729619">
        <ele>2847</ele>
        <time>2022-10-19T03:42:01.000Z</time>
      </trkpt>
      <trkpt lat="27.689466" lon="86.7296">
        <ele>2847</ele>
        <time>2022-10-19T03:42:03.000Z</time>
      </trkpt>
      <trkpt lat="27.689485" lon="86.729594">
        <ele>2847</ele>
        <time>2022-10-19T03:42:05.000Z</time>
      </trkpt>
      <trkpt lat="27.689514" lon="86.729581">
        <ele>2847.2</ele>
        <time>2022-10-19T03:42:07.000Z</time>
      </trkpt>
      <trkpt lat="27.689542" lon="86.729581">
        <ele>2847</ele>
        <time>2022-10-19T03:42:09.000Z</time>
      </trkpt>
      <trkpt lat="27.689565" lon="86.729574">
        <ele>2847</ele>
        <time>2022-10-19T03:42:11.000Z</time>
      </trkpt>
      <trkpt lat="27.689574" lon="86.729542">
        <ele>2846.8</ele>
        <time>2022-10-19T03:42:14.000Z</time>
      </trkpt>
      <trkpt lat="27.689587" lon="86.729517">
        <ele>2847</ele>
        <time>2022-10-19T03:42:16.000Z</time>
      </trkpt>
      <trkpt lat="27.689597" lon="86.729491">
        <ele>2847</ele>
        <time>2022-10-19T03:42:18.000Z</time>
      </trkpt>
      <trkpt lat="27.689606" lon="86.729472">
        <ele>2846.8</ele>
        <time>2022-10-19T03:42:20.000Z</time>
      </trkpt>
      <trkpt lat="27.689613" lon="86.729453">
        <ele>2846.8</ele>
        <time>2022-10-19T03:42:21.000Z</time>
      </trkpt>
      <trkpt lat="27.689632" lon="86.729421">
        <ele>2846.8</ele>
        <time>2022-10-19T03:42:23.000Z</time>
      </trkpt>
      <trkpt lat="27.689651" lon="86.729408">
        <ele>2846.6</ele>
        <time>2022-10-19T03:42:26.000Z</time>
      </trkpt>
      <trkpt lat="27.689674" lon="86.729395">
        <ele>2846.6</ele>
        <time>2022-10-19T03:42:29.000Z</time>
      </trkpt>
      <trkpt lat="27.689686" lon="86.72937">
        <ele>2846.2</ele>
        <time>2022-10-19T03:42:32.000Z</time>
      </trkpt>
      <trkpt lat="27.689696" lon="86.72935">
        <ele>2846.2</ele>
        <time>2022-10-19T03:42:34.000Z</time>
      </trkpt>
      <trkpt lat="27.689709" lon="86.729331">
        <ele>2846.2</ele>
        <time>2022-10-19T03:42:36.000Z</time>
      </trkpt>
      <trkpt lat="27.689731" lon="86.729312">
        <ele>2846.2</ele>
        <time>2022-10-19T03:42:39.000Z</time>
      </trkpt>
      <trkpt lat="27.689744" lon="86.729293">
        <ele>2846</ele>
        <time>2022-10-19T03:42:42.000Z</time>
      </trkpt>
      <trkpt lat="27.68975" lon="86.729261">
        <ele>2846.4</ele>
        <time>2022-10-19T03:42:44.000Z</time>
      </trkpt>
      <trkpt lat="27.689766" lon="86.729242">
        <ele>2846.4</ele>
        <time>2022-10-19T03:42:46.000Z</time>
      </trkpt>
      <trkpt lat="27.689782" lon="86.729222">
        <ele>2846</ele>
        <time>2022-10-19T03:42:48.000Z</time>
      </trkpt>
      <trkpt lat="27.689805" lon="86.729216">
        <ele>2846</ele>
        <time>2022-10-19T03:42:50.000Z</time>
      </trkpt>
      <trkpt lat="27.68983" lon="86.72921">
        <ele>2846.4</ele>
        <time>2022-10-19T03:42:52.000Z</time>
      </trkpt>
      <trkpt lat="27.689856" lon="86.729197">
        <ele>2846.2</ele>
        <time>2022-10-19T03:42:54.000Z</time>
      </trkpt>
      <trkpt lat="27.689885" lon="86.729178">
        <ele>2846.2</ele>
        <time>2022-10-19T03:42:56.000Z</time>
      </trkpt>
      <trkpt lat="27.689898" lon="86.729158">
        <ele>2846</ele>
        <time>2022-10-19T03:42:58.000Z</time>
      </trkpt>
      <trkpt lat="27.689914" lon="86.729139">
        <ele>2846.4</ele>
        <time>2022-10-19T03:43:00.000Z</time>
      </trkpt>
      <trkpt lat="27.68993" lon="86.729126">
        <ele>2846.4</ele>
        <time>2022-10-19T03:43:02.000Z</time>
      </trkpt>
      <trkpt lat="27.689939" lon="86.729101">
        <ele>2846.4</ele>
        <time>2022-10-19T03:43:04.000Z</time>
      </trkpt>
      <trkpt lat="27.689962" lon="86.729101">
        <ele>2846.4</ele>
        <time>2022-10-19T03:43:06.000Z</time>
      </trkpt>
      <trkpt lat="27.689984" lon="86.729094">
        <ele>2846.2</ele>
        <time>2022-10-19T03:43:08.000Z</time>
      </trkpt>
      <trkpt lat="27.690003" lon="86.729082">
        <ele>2846.4</ele>
        <time>2022-10-19T03:43:10.000Z</time>
      </trkpt>
      <trkpt lat="27.690026" lon="86.729062">
        <ele>2846.2</ele>
        <time>2022-10-19T03:43:12.000Z</time>
      </trkpt>
      <trkpt lat="27.690042" lon="86.72905">
        <ele>2846.4</ele>
        <time>2022-10-19T03:43:14.000Z</time>
      </trkpt>
      <trkpt lat="27.690061" lon="86.729043">
        <ele>2846.4</ele>
        <time>2022-10-19T03:43:16.000Z</time>
      </trkpt>
      <trkpt lat="27.69008" lon="86.729037">
        <ele>2846.4</ele>
        <time>2022-10-19T03:43:18.000Z</time>
      </trkpt>
      <trkpt lat="27.690099" lon="86.729024">
        <ele>2846.8</ele>
        <time>2022-10-19T03:43:20.000Z</time>
      </trkpt>
      <trkpt lat="27.690118" lon="86.729011">
        <ele>2846.6</ele>
        <time>2022-10-19T03:43:22.000Z</time>
      </trkpt>
      <trkpt lat="27.690134" lon="86.728986">
        <ele>2847</ele>
        <time>2022-10-19T03:43:25.000Z</time>
      </trkpt>
      <trkpt lat="27.690163" lon="86.728973">
        <ele>2847</ele>
        <time>2022-10-19T03:43:27.000Z</time>
      </trkpt>
      <trkpt lat="27.690186" lon="86.728966">
        <ele>2847</ele>
        <time>2022-10-19T03:43:29.000Z</time>
      </trkpt>
      <trkpt lat="27.690211" lon="86.728966">
        <ele>2847</ele>
        <time>2022-10-19T03:43:31.000Z</time>
      </trkpt>
      <trkpt lat="27.69023" lon="86.72896">
        <ele>2846.8</ele>
        <time>2022-10-19T03:43:33.000Z</time>
      </trkpt>
      <trkpt lat="27.690253" lon="86.728954">
        <ele>2846.8</ele>
        <time>2022-10-19T03:43:35.000Z</time>
      </trkpt>
      <trkpt lat="27.690272" lon="86.728954">
        <ele>2846.6</ele>
        <time>2022-10-19T03:43:37.000Z</time>
      </trkpt>
      <trkpt lat="27.690291" lon="86.72896">
        <ele>2846.6</ele>
        <time>2022-10-19T03:43:39.000Z</time>
      </trkpt>
      <trkpt lat="27.69032" lon="86.72896">
        <ele>2846.4</ele>
        <time>2022-10-19T03:43:42.000Z</time>
      </trkpt>
      <trkpt lat="27.690342" lon="86.728954">
        <ele>2846.4</ele>
        <time>2022-10-19T03:43:44.000Z</time>
      </trkpt>
      <trkpt lat="27.690378" lon="86.728941">
        <ele>2846.6</ele>
        <time>2022-10-19T03:43:46.000Z</time>
      </trkpt>
      <trkpt lat="27.690403" lon="86.728934">
        <ele>2846.6</ele>
        <time>2022-10-19T03:43:48.000Z</time>
      </trkpt>
      <trkpt lat="27.690422" lon="86.728928">
        <ele>2846.4</ele>
        <time>2022-10-19T03:43:49.000Z</time>
      </trkpt>
      <trkpt lat="27.690442" lon="86.728922">
        <ele>2846.2</ele>
        <time>2022-10-19T03:43:51.000Z</time>
      </trkpt>
      <trkpt lat="27.690464" lon="86.728915">
        <ele>2846.4</ele>
        <time>2022-10-19T03:43:53.000Z</time>
      </trkpt>
      <trkpt lat="27.69049" lon="86.728902">
        <ele>2846.4</ele>
        <time>2022-10-19T03:43:55.000Z</time>
      </trkpt>
      <trkpt lat="27.690512" lon="86.728896">
        <ele>2846.2</ele>
        <time>2022-10-19T03:43:57.000Z</time>
      </trkpt>
      <trkpt lat="27.690531" lon="86.728883">
        <ele>2846</ele>
        <time>2022-10-19T03:43:59.000Z</time>
      </trkpt>
      <trkpt lat="27.69055" lon="86.728877">
        <ele>2845.8</ele>
        <time>2022-10-19T03:44:01.000Z</time>
      </trkpt>
      <trkpt lat="27.69057" lon="86.728864">
        <ele>2846</ele>
        <time>2022-10-19T03:44:03.000Z</time>
      </trkpt>
      <trkpt lat="27.690595" lon="86.728851">
        <ele>2846</ele>
        <time>2022-10-19T03:44:05.000Z</time>
      </trkpt>
      <trkpt lat="27.690614" lon="86.728845">
        <ele>2846</ele>
        <time>2022-10-19T03:44:07.000Z</time>
      </trkpt>
      <trkpt lat="27.690637" lon="86.728845">
        <ele>2845.8</ele>
        <time>2022-10-19T03:44:09.000Z</time>
      </trkpt>
      <trkpt lat="27.690662" lon="86.728838">
        <ele>2845.8</ele>
        <time>2022-10-19T03:44:11.000Z</time>
      </trkpt>
      <trkpt lat="27.690678" lon="86.728826">
        <ele>2845.8</ele>
        <time>2022-10-19T03:44:13.000Z</time>
      </trkpt>
      <trkpt lat="27.690701" lon="86.728819">
        <ele>2845.8</ele>
        <time>2022-10-19T03:44:15.000Z</time>
      </trkpt>
      <trkpt lat="27.690723" lon="86.728813">
        <ele>2845.8</ele>
        <time>2022-10-19T03:44:17.000Z</time>
      </trkpt>
      <trkpt lat="27.690749" lon="86.7288">
        <ele>2845.6</ele>
        <time>2022-10-19T03:44:19.000Z</time>
      </trkpt>
      <trkpt lat="27.690765" lon="86.728787">
        <ele>2845.6</ele>
        <time>2022-10-19T03:44:20.000Z</time>
      </trkpt>
      <trkpt lat="27.690787" lon="86.728787">
        <ele>2845.6</ele>
        <time>2022-10-19T03:44:22.000Z</time>
      </trkpt>
      <trkpt lat="27.690806" lon="86.728774">
        <ele>2845.4</ele>
        <time>2022-10-19T03:44:24.000Z</time>
      </trkpt>
      <trkpt lat="27.690829" lon="86.728768">
        <ele>2845.4</ele>
        <time>2022-10-19T03:44:26.000Z</time>
      </trkpt>
      <trkpt lat="27.690848" lon="86.728762">
        <ele>2845.6</ele>
        <time>2022-10-19T03:44:28.000Z</time>
      </trkpt>
      <trkpt lat="27.690864" lon="86.728742">
        <ele>2845.4</ele>
        <time>2022-10-19T03:44:30.000Z</time>
      </trkpt>
      <trkpt lat="27.690877" lon="86.728723">
        <ele>2845.4</ele>
        <time>2022-10-19T03:44:33.000Z</time>
      </trkpt>
      <trkpt lat="27.69089" lon="86.728704">
        <ele>2845.6</ele>
        <time>2022-10-19T03:44:35.000Z</time>
      </trkpt>
      <trkpt lat="27.690915" lon="86.728691">
        <ele>2845.6</ele>
        <time>2022-10-19T03:44:38.000Z</time>
      </trkpt>
      <trkpt lat="27.690934" lon="86.728685">
        <ele>2845.2</ele>
        <time>2022-10-19T03:44:40.000Z</time>
      </trkpt>
      <trkpt lat="27.690954" lon="86.728678">
        <ele>2844.8</ele>
        <time>2022-10-19T03:44:42.000Z</time>
      </trkpt>
      <trkpt lat="27.690979" lon="86.728666">
        <ele>2845.2</ele>
        <time>2022-10-19T03:44:44.000Z</time>
      </trkpt>
      <trkpt lat="27.691005" lon="86.728653">
        <ele>2844.8</ele>
        <time>2022-10-19T03:44:47.000Z</time>
      </trkpt>
      <trkpt lat="27.691027" lon="86.728653">
        <ele>2844.8</ele>
        <time>2022-10-19T03:44:49.000Z</time>
      </trkpt>
      <trkpt lat="27.691046" lon="86.72864">
        <ele>2844.6</ele>
        <time>2022-10-19T03:44:51.000Z</time>
      </trkpt>
      <trkpt lat="27.691072" lon="86.72864">
        <ele>2844.4</ele>
        <time>2022-10-19T03:44:53.000Z</time>
      </trkpt>
      <trkpt lat="27.691091" lon="86.728646">
        <ele>2844.4</ele>
        <time>2022-10-19T03:44:54.000Z</time>
      </trkpt>
      <trkpt lat="27.69111" lon="86.728659">
        <ele>2844.4</ele>
        <time>2022-10-19T03:44:55.000Z</time>
      </trkpt>
      <trkpt lat="27.691133" lon="86.728666">
        <ele>2844.2</ele>
        <time>2022-10-19T03:44:57.000Z</time>
      </trkpt>
      <trkpt lat="27.691152" lon="86.728653">
        <ele>2844.2</ele>
        <time>2022-10-19T03:44:59.000Z</time>
      </trkpt>
      <trkpt lat="27.691171" lon="86.728646">
        <ele>2844</ele>
        <time>2022-10-19T03:45:02.000Z</time>
      </trkpt>
      <trkpt lat="27.691203" lon="86.728627">
        <ele>2844</ele>
        <time>2022-10-19T03:45:04.000Z</time>
      </trkpt>
      <trkpt lat="27.691222" lon="86.728621">
        <ele>2843.8</ele>
        <time>2022-10-19T03:45:06.000Z</time>
      </trkpt>
      <trkpt lat="27.691242" lon="86.728614">
        <ele>2843.6</ele>
        <time>2022-10-19T03:45:08.000Z</time>
      </trkpt>
      <trkpt lat="27.691267" lon="86.728608">
        <ele>2843.6</ele>
        <time>2022-10-19T03:45:10.000Z</time>
      </trkpt>
      <trkpt lat="27.691283" lon="86.728589">
        <ele>2843.6</ele>
        <time>2022-10-19T03:45:12.000Z</time>
      </trkpt>
      <trkpt lat="27.691302" lon="86.728582">
        <ele>2843.4</ele>
        <time>2022-10-19T03:45:16.000Z</time>
      </trkpt>
      <trkpt lat="27.691325" lon="86.728582">
        <ele>2843.2</ele>
        <time>2022-10-19T03:45:19.000Z</time>
      </trkpt>
      <trkpt lat="27.69135" lon="86.728582">
        <ele>2842.8</ele>
        <time>2022-10-19T03:45:21.000Z</time>
      </trkpt>
      <trkpt lat="27.691376" lon="86.728582">
        <ele>2842.2</ele>
        <time>2022-10-19T03:45:23.000Z</time>
      </trkpt>
      <trkpt lat="27.691398" lon="86.728576">
        <ele>2842</ele>
        <time>2022-10-19T03:45:25.000Z</time>
      </trkpt>
      <trkpt lat="27.691418" lon="86.72857">
        <ele>2842</ele>
        <time>2022-10-19T03:45:27.000Z</time>
      </trkpt>
      <trkpt lat="27.691437" lon="86.72857">
        <ele>2841.8</ele>
        <time>2022-10-19T03:45:29.000Z</time>
      </trkpt>
      <trkpt lat="27.691462" lon="86.728563">
        <ele>2842</ele>
        <time>2022-10-19T03:45:31.000Z</time>
      </trkpt>
      <trkpt lat="27.691482" lon="86.728557">
        <ele>2842.2</ele>
        <time>2022-10-19T03:45:33.000Z</time>
      </trkpt>
      <trkpt lat="27.691504" lon="86.728544">
        <ele>2842.2</ele>
        <time>2022-10-19T03:45:35.000Z</time>
      </trkpt>
      <trkpt lat="27.691523" lon="86.728525">
        <ele>2842</ele>
        <time>2022-10-19T03:45:38.000Z</time>
      </trkpt>
      <trkpt lat="27.691523" lon="86.728499">
        <ele>2842</ele>
        <time>2022-10-19T03:45:40.000Z</time>
      </trkpt>
      <trkpt lat="27.691536" lon="86.72848">
        <ele>2842</ele>
        <time>2022-10-19T03:45:42.000Z</time>
      </trkpt>
      <trkpt lat="27.691549" lon="86.728454">
        <ele>2842</ele>
        <time>2022-10-19T03:45:44.000Z</time>
      </trkpt>
      <trkpt lat="27.691558" lon="86.728422">
        <ele>2842</ele>
        <time>2022-10-19T03:45:46.000Z</time>
      </trkpt>
      <trkpt lat="27.691565" lon="86.728403">
        <ele>2842.2</ele>
        <time>2022-10-19T03:45:48.000Z</time>
      </trkpt>
      <trkpt lat="27.691574" lon="86.728384">
        <ele>2842.2</ele>
        <time>2022-10-19T03:45:50.000Z</time>
      </trkpt>
      <trkpt lat="27.691587" lon="86.728365">
        <ele>2842.4</ele>
        <time>2022-10-19T03:45:52.000Z</time>
      </trkpt>
      <trkpt lat="27.6916" lon="86.728333">
        <ele>2842.4</ele>
        <time>2022-10-19T03:45:54.000Z</time>
      </trkpt>
      <trkpt lat="27.691603" lon="86.728301">
        <ele>2842.4</ele>
        <time>2022-10-19T03:45:56.000Z</time>
      </trkpt>
      <trkpt lat="27.691619" lon="86.728282">
        <ele>2842</ele>
        <time>2022-10-19T03:45:59.000Z</time>
      </trkpt>
      <trkpt lat="27.691635" lon="86.728269">
        <ele>2842.2</ele>
        <time>2022-10-19T03:46:01.000Z</time>
      </trkpt>
      <trkpt lat="27.691651" lon="86.728256">
        <ele>2842.4</ele>
        <time>2022-10-19T03:46:03.000Z</time>
      </trkpt>
      <trkpt lat="27.69168" lon="86.72825">
        <ele>2842.4</ele>
        <time>2022-10-19T03:46:06.000Z</time>
      </trkpt>
      <trkpt lat="27.691699" lon="86.728243">
        <ele>2842.2</ele>
        <time>2022-10-19T03:46:08.000Z</time>
      </trkpt>
      <trkpt lat="27.691712" lon="86.728224">
        <ele>2842</ele>
        <time>2022-10-19T03:46:10.000Z</time>
      </trkpt>
      <trkpt lat="27.691731" lon="86.728205">
        <ele>2842.4</ele>
        <time>2022-10-19T03:46:12.000Z</time>
      </trkpt>
      <trkpt lat="27.691757" lon="86.728179">
        <ele>2842.2</ele>
        <time>2022-10-19T03:46:15.000Z</time>
      </trkpt>
      <trkpt lat="27.691776" lon="86.728173">
        <ele>2842.4</ele>
        <time>2022-10-19T03:46:17.000Z</time>
      </trkpt>
      <trkpt lat="27.691792" lon="86.72816">
        <ele>2842</ele>
        <time>2022-10-19T03:46:19.000Z</time>
      </trkpt>
      <trkpt lat="27.691808" lon="86.728141">
        <ele>2841.8</ele>
        <time>2022-10-19T03:46:21.000Z</time>
      </trkpt>
      <trkpt lat="27.691827" lon="86.728134">
        <ele>2842</ele>
        <time>2022-10-19T03:46:23.000Z</time>
      </trkpt>
      <trkpt lat="27.69184" lon="86.728109">
        <ele>2842</ele>
        <time>2022-10-19T03:46:25.000Z</time>
      </trkpt>
      <trkpt lat="27.691856" lon="86.72809">
        <ele>2842</ele>
        <time>2022-10-19T03:46:27.000Z</time>
      </trkpt>
      <trkpt lat="27.691875" lon="86.728083">
        <ele>2841.8</ele>
        <time>2022-10-19T03:46:29.000Z</time>
      </trkpt>
      <trkpt lat="27.691894" lon="86.72807">
        <ele>2842</ele>
        <time>2022-10-19T03:46:31.000Z</time>
      </trkpt>
      <trkpt lat="27.691907" lon="86.728051">
        <ele>2841.8</ele>
        <time>2022-10-19T03:46:33.000Z</time>
      </trkpt>
      <trkpt lat="27.69193" lon="86.728032">
        <ele>2841.6</ele>
        <time>2022-10-19T03:46:35.000Z</time>
      </trkpt>
      <trkpt lat="27.691949" lon="86.728019">
        <ele>2841.6</ele>
        <time>2022-10-19T03:46:37.000Z</time>
      </trkpt>
      <trkpt lat="27.691968" lon="86.728006">
        <ele>2841.6</ele>
        <time>2022-10-19T03:46:39.000Z</time>
      </trkpt>
      <trkpt lat="27.69199" lon="86.728">
        <ele>2841.6</ele>
        <time>2022-10-19T03:46:41.000Z</time>
      </trkpt>
      <trkpt lat="27.692006" lon="86.727987">
        <ele>2841.6</ele>
        <time>2022-10-19T03:46:42.000Z</time>
      </trkpt>
      <trkpt lat="27.692029" lon="86.727981">
        <ele>2841.6</ele>
        <time>2022-10-19T03:46:44.000Z</time>
      </trkpt>
      <trkpt lat="27.692051" lon="86.727968">
        <ele>2841.2</ele>
        <time>2022-10-19T03:46:46.000Z</time>
      </trkpt>
      <trkpt lat="27.692074" lon="86.727962">
        <ele>2841.2</ele>
        <time>2022-10-19T03:46:48.000Z</time>
      </trkpt>
      <trkpt lat="27.692093" lon="86.727942">
        <ele>2841.2</ele>
        <time>2022-10-19T03:46:50.000Z</time>
      </trkpt>
      <trkpt lat="27.692115" lon="86.72793">
        <ele>2840.8</ele>
        <time>2022-10-19T03:46:52.000Z</time>
      </trkpt>
      <trkpt lat="27.692141" lon="86.727923">
        <ele>2840.6</ele>
        <time>2022-10-19T03:46:55.000Z</time>
      </trkpt>
      <trkpt lat="27.692157" lon="86.72791">
        <ele>2840.8</ele>
        <time>2022-10-19T03:46:57.000Z</time>
      </trkpt>
      <trkpt lat="27.692176" lon="86.72791">
        <ele>2840.8</ele>
        <time>2022-10-19T03:46:59.000Z</time>
      </trkpt>
      <trkpt lat="27.692195" lon="86.72791">
        <ele>2840.2</ele>
        <time>2022-10-19T03:47:01.000Z</time>
      </trkpt>
      <trkpt lat="27.692218" lon="86.727904">
        <ele>2840.6</ele>
        <time>2022-10-19T03:47:04.000Z</time>
      </trkpt>
      <trkpt lat="27.692224" lon="86.72793">
        <ele>2840.4</ele>
        <time>2022-10-19T03:47:08.000Z</time>
      </trkpt>
      <trkpt lat="27.692205" lon="86.727942">
        <ele>2840.2</ele>
        <time>2022-10-19T03:47:11.000Z</time>
      </trkpt>
      <trkpt lat="27.692246" lon="86.72793">
        <ele>2839</ele>
        <time>2022-10-19T03:48:02.000Z</time>
      </trkpt>
      <trkpt lat="27.692269" lon="86.727942">
        <ele>2839</ele>
        <time>2022-10-19T03:48:05.000Z</time>
      </trkpt>
      <trkpt lat="27.692288" lon="86.727962">
        <ele>2838.6</ele>
        <time>2022-10-19T03:48:07.000Z</time>
      </trkpt>
      <trkpt lat="27.692304" lon="86.727981">
        <ele>2838</ele>
        <time>2022-10-19T03:48:09.000Z</time>
      </trkpt>
      <trkpt lat="27.692323" lon="86.728">
        <ele>2837.8</ele>
        <time>2022-10-19T03:48:11.000Z</time>
      </trkpt>
      <trkpt lat="27.692342" lon="86.728019">
        <ele>2836.8</ele>
        <time>2022-10-19T03:48:15.000Z</time>
      </trkpt>
      <trkpt lat="27.692342" lon="86.728051">
        <ele>2836.2</ele>
        <time>2022-10-19T03:48:19.000Z</time>
      </trkpt>
      <trkpt lat="27.692365" lon="86.728064">
        <ele>2835.6</ele>
        <time>2022-10-19T03:48:22.000Z</time>
      </trkpt>
      <trkpt lat="27.692384" lon="86.728083">
        <ele>2834.8</ele>
        <time>2022-10-19T03:48:24.000Z</time>
      </trkpt>
      <trkpt lat="27.692403" lon="86.72807">
        <ele>2834.4</ele>
        <time>2022-10-19T03:48:26.000Z</time>
      </trkpt>
      <trkpt lat="27.692422" lon="86.728083">
        <ele>2834.2</ele>
        <time>2022-10-19T03:48:31.000Z</time>
      </trkpt>
      <trkpt lat="27.692438" lon="86.728064">
        <ele>2834.2</ele>
        <time>2022-10-19T03:48:35.000Z</time>
      </trkpt>
      <trkpt lat="27.692461" lon="86.728058">
        <ele>2834</ele>
        <time>2022-10-19T03:49:58.000Z</time>
      </trkpt>
      <trkpt lat="27.692451" lon="86.728032">
        <ele>2834.4</ele>
        <time>2022-10-19T03:50:07.000Z</time>
      </trkpt>
      <trkpt lat="27.692432" lon="86.728019">
        <ele>2834.6</ele>
        <time>2022-10-19T03:50:11.000Z</time>
      </trkpt>
      <trkpt lat="27.692397" lon="86.728">
        <ele>2834.4</ele>
        <time>2022-10-19T03:50:42.000Z</time>
      </trkpt>
      <trkpt lat="27.692406" lon="86.728019">
        <ele>2834.2</ele>
        <time>2022-10-19T03:50:55.000Z</time>
      </trkpt>
      <trkpt lat="27.692355" lon="86.728006">
        <ele>2833.6</ele>
        <time>2022-10-19T03:53:09.000Z</time>
      </trkpt>
      <trkpt lat="27.692378" lon="86.728006">
        <ele>2833.4</ele>
        <time>2022-10-19T03:53:31.000Z</time>
      </trkpt>
      <trkpt lat="27.692394" lon="86.728019">
        <ele>2833.4</ele>
        <time>2022-10-19T03:53:35.000Z</time>
      </trkpt>
      <trkpt lat="27.692406" lon="86.728045">
        <ele>2833.4</ele>
        <time>2022-10-19T03:53:38.000Z</time>
      </trkpt>
      <trkpt lat="27.692426" lon="86.728051">
        <ele>2833.4</ele>
        <time>2022-10-19T03:53:42.000Z</time>
      </trkpt>
      <trkpt lat="27.692432" lon="86.72807">
        <ele>2833.4</ele>
        <time>2022-10-19T03:54:05.000Z</time>
      </trkpt>
      <trkpt lat="27.692416" lon="86.728083">
        <ele>2833.6</ele>
        <time>2022-10-19T03:54:45.000Z</time>
      </trkpt>
      <trkpt lat="27.692426" lon="86.728102">
        <ele>2833.6</ele>
        <time>2022-10-19T03:54:48.000Z</time>
      </trkpt>
      <trkpt lat="27.69241" lon="86.728122">
        <ele>2833.2</ele>
        <time>2022-10-19T03:54:52.000Z</time>
      </trkpt>
      <trkpt lat="27.692397" lon="86.728051">
        <ele>2834.6</ele>
        <time>2022-10-19T03:58:33.000Z</time>
      </trkpt>
      <trkpt lat="27.692467" lon="86.727942">
        <ele>2834.8</ele>
        <time>2022-10-19T03:58:49.000Z</time>
      </trkpt>
      <trkpt lat="27.692464" lon="86.727968">
        <ele>2834.8</ele>
        <time>2022-10-19T03:59:01.000Z</time>
      </trkpt>
      <trkpt lat="27.692474" lon="86.727987">
        <ele>2834.6</ele>
        <time>2022-10-19T03:59:03.000Z</time>
      </trkpt>
      <trkpt lat="27.69248" lon="86.728006">
        <ele>2834.6</ele>
        <time>2022-10-19T03:59:06.000Z</time>
      </trkpt>
      <trkpt lat="27.69249" lon="86.728026">
        <ele>2834.8</ele>
        <time>2022-10-19T03:59:09.000Z</time>
      </trkpt>
      <trkpt lat="27.69248" lon="86.728051">
        <ele>2834.6</ele>
        <time>2022-10-19T03:59:13.000Z</time>
      </trkpt>
      <trkpt lat="27.692464" lon="86.72807">
        <ele>2834.8</ele>
        <time>2022-10-19T03:59:17.000Z</time>
      </trkpt>
      <trkpt lat="27.692442" lon="86.728026">
        <ele>2834.6</ele>
        <time>2022-10-19T04:00:48.000Z</time>
      </trkpt>
      <trkpt lat="27.692429" lon="86.728045">
        <ele>2834.6</ele>
        <time>2022-10-19T04:00:52.000Z</time>
      </trkpt>
      <trkpt lat="27.692432" lon="86.72807">
        <ele>2834.6</ele>
        <time>2022-10-19T04:01:00.000Z</time>
      </trkpt>
      <trkpt lat="27.692432" lon="86.728045">
        <ele>2835.2</ele>
        <time>2022-10-19T04:01:14.000Z</time>
      </trkpt>
      <trkpt lat="27.69263" lon="86.728269">
        <ele>2835.6</ele>
        <time>2022-10-19T04:01:36.000Z</time>
      </trkpt>
      <trkpt lat="27.692605" lon="86.728205">
        <ele>2835.6</ele>
        <time>2022-10-19T04:01:37.000Z</time>
      </trkpt>
      <trkpt lat="27.692534" lon="86.72816">
        <ele>2835.4</ele>
        <time>2022-10-19T04:01:38.000Z</time>
      </trkpt>
      <trkpt lat="27.692544" lon="86.728134">
        <ele>2834.8</ele>
        <time>2022-10-19T04:01:40.000Z</time>
      </trkpt>
      <trkpt lat="27.692502" lon="86.728032">
        <ele>2834.8</ele>
        <time>2022-10-19T04:02:40.000Z</time>
      </trkpt>
      <trkpt lat="27.692458" lon="86.728">
        <ele>2834.4</ele>
        <time>2022-10-19T04:02:41.000Z</time>
      </trkpt>
      <trkpt lat="27.692442" lon="86.728013">
        <ele>2835</ele>
        <time>2022-10-19T04:02:45.000Z</time>
      </trkpt>
      <trkpt lat="27.692426" lon="86.728051">
        <ele>2834.4</ele>
        <time>2022-10-19T04:02:47.000Z</time>
      </trkpt>
      <trkpt lat="27.692448" lon="86.728051">
        <ele>2834.4</ele>
        <time>2022-10-19T04:02:54.000Z</time>
      </trkpt>
      <trkpt lat="27.692458" lon="86.728019">
        <ele>2834.4</ele>
        <time>2022-10-19T04:03:00.000Z</time>
      </trkpt>
      <trkpt lat="27.692474" lon="86.728">
        <ele>2834.2</ele>
        <time>2022-10-19T04:03:03.000Z</time>
      </trkpt>
      <trkpt lat="27.692493" lon="86.727987">
        <ele>2834.2</ele>
        <time>2022-10-19T04:03:05.000Z</time>
      </trkpt>
      <trkpt lat="27.692499" lon="86.728006">
        <ele>2834.8</ele>
        <time>2022-10-19T04:03:11.000Z</time>
      </trkpt>
      <trkpt lat="27.692502" lon="86.727981">
        <ele>2834.8</ele>
        <time>2022-10-19T04:03:18.000Z</time>
      </trkpt>
      <trkpt lat="27.692502" lon="86.727949">
        <ele>2834.8</ele>
        <time>2022-10-19T04:03:28.000Z</time>
      </trkpt>
      <trkpt lat="27.692512" lon="86.727923">
        <ele>2835</ele>
        <time>2022-10-19T04:03:36.000Z</time>
      </trkpt>
      <trkpt lat="27.692518" lon="86.727904">
        <ele>2835</ele>
        <time>2022-10-19T04:03:48.000Z</time>
      </trkpt>
      <trkpt lat="27.692512" lon="86.727962">
        <ele>2834.8</ele>
        <time>2022-10-19T04:04:45.000Z</time>
      </trkpt>
      <trkpt lat="27.692506" lon="86.727942">
        <ele>2834.6</ele>
        <time>2022-10-19T04:04:47.000Z</time>
      </trkpt>
      <trkpt lat="27.692512" lon="86.727923">
        <ele>2834.8</ele>
        <time>2022-10-19T04:05:08.000Z</time>
      </trkpt>
      <trkpt lat="27.692541" lon="86.727904">
        <ele>2834.4</ele>
        <time>2022-10-19T04:05:10.000Z</time>
      </trkpt>
      <trkpt lat="27.692566" lon="86.727898">
        <ele>2834.4</ele>
        <time>2022-10-19T04:05:12.000Z</time>
      </trkpt>
      <trkpt lat="27.692595" lon="86.727898">
        <ele>2834.4</ele>
        <time>2022-10-19T04:05:14.000Z</time>
      </trkpt>
      <trkpt lat="27.692614" lon="86.727904">
        <ele>2834.2</ele>
        <time>2022-10-19T04:05:16.000Z</time>
      </trkpt>
      <trkpt lat="27.692637" lon="86.727923">
        <ele>2834.2</ele>
        <time>2022-10-19T04:05:20.000Z</time>
      </trkpt>
      <trkpt lat="27.692656" lon="86.72793">
        <ele>2833.8</ele>
        <time>2022-10-19T04:05:22.000Z</time>
      </trkpt>
      <trkpt lat="27.692685" lon="86.727942">
        <ele>2833.2</ele>
        <time>2022-10-19T04:05:25.000Z</time>
      </trkpt>
      <trkpt lat="27.692704" lon="86.727962">
        <ele>2832.8</ele>
        <time>2022-10-19T04:05:28.000Z</time>
      </trkpt>
      <trkpt lat="27.692717" lon="86.727987">
        <ele>2832.2</ele>
        <time>2022-10-19T04:05:30.000Z</time>
      </trkpt>
      <trkpt lat="27.692733" lon="86.728026">
        <ele>2831.8</ele>
        <time>2022-10-19T04:05:32.000Z</time>
      </trkpt>
      <trkpt lat="27.692746" lon="86.728051">
        <ele>2831.4</ele>
        <time>2022-10-19T04:05:33.000Z</time>
      </trkpt>
      <trkpt lat="27.692765" lon="86.728083">
        <ele>2831</ele>
        <time>2022-10-19T04:05:35.000Z</time>
      </trkpt>
      <trkpt lat="27.69279" lon="86.728102">
        <ele>2830.8</ele>
        <time>2022-10-19T04:05:37.000Z</time>
      </trkpt>
      <trkpt lat="27.692794" lon="86.728128">
        <ele>2830.4</ele>
        <time>2022-10-19T04:05:39.000Z</time>
      </trkpt>
      <trkpt lat="27.692813" lon="86.728141">
        <ele>2830.2</ele>
        <time>2022-10-19T04:05:41.000Z</time>
      </trkpt>
      <trkpt lat="27.692822" lon="86.72816">
        <ele>2830.2</ele>
        <time>2022-10-19T04:05:42.000Z</time>
      </trkpt>
      <trkpt lat="27.692835" lon="86.728179">
        <ele>2830.2</ele>
        <time>2022-10-19T04:05:44.000Z</time>
      </trkpt>
      <trkpt lat="27.692854" lon="86.728192">
        <ele>2830</ele>
        <time>2022-10-19T04:05:50.000Z</time>
      </trkpt>
      <trkpt lat="27.69288" lon="86.728179">
        <ele>2830</ele>
        <time>2022-10-19T04:05:53.000Z</time>
      </trkpt>
      <trkpt lat="27.692902" lon="86.728166">
        <ele>2829.4</ele>
        <time>2022-10-19T04:05:57.000Z</time>
      </trkpt>
      <trkpt lat="27.692922" lon="86.72816">
        <ele>2829.4</ele>
        <time>2022-10-19T04:05:59.000Z</time>
      </trkpt>
      <trkpt lat="27.692941" lon="86.728147">
        <ele>2829.2</ele>
        <time>2022-10-19T04:06:01.000Z</time>
      </trkpt>
      <trkpt lat="27.692963" lon="86.728141">
        <ele>2829</ele>
        <time>2022-10-19T04:06:03.000Z</time>
      </trkpt>
      <trkpt lat="27.692982" lon="86.728134">
        <ele>2828.8</ele>
        <time>2022-10-19T04:06:05.000Z</time>
      </trkpt>
      <trkpt lat="27.693005" lon="86.728141">
        <ele>2828.6</ele>
        <time>2022-10-19T04:06:08.000Z</time>
      </trkpt>
      <trkpt lat="27.693024" lon="86.728166">
        <ele>2828.2</ele>
        <time>2022-10-19T04:06:10.000Z</time>
      </trkpt>
      <trkpt lat="27.69304" lon="86.728179">
        <ele>2827.6</ele>
        <time>2022-10-19T04:06:12.000Z</time>
      </trkpt>
      <trkpt lat="27.693043" lon="86.728211">
        <ele>2827</ele>
        <time>2022-10-19T04:06:14.000Z</time>
      </trkpt>
      <trkpt lat="27.693056" lon="86.72823">
        <ele>2826.6</ele>
        <time>2022-10-19T04:06:17.000Z</time>
      </trkpt>
      <trkpt lat="27.693059" lon="86.728256">
        <ele>2826.6</ele>
        <time>2022-10-19T04:06:19.000Z</time>
      </trkpt>
      <trkpt lat="27.693088" lon="86.728294">
        <ele>2826.4</ele>
        <time>2022-10-19T04:06:21.000Z</time>
      </trkpt>
      <trkpt lat="27.693107" lon="86.72832">
        <ele>2826.4</ele>
        <time>2022-10-19T04:06:24.000Z</time>
      </trkpt>
      <trkpt lat="27.693117" lon="86.728346">
        <ele>2826</ele>
        <time>2022-10-19T04:06:26.000Z</time>
      </trkpt>
      <trkpt lat="27.693123" lon="86.728371">
        <ele>2825.8</ele>
        <time>2022-10-19T04:06:27.000Z</time>
      </trkpt>
      <trkpt lat="27.693139" lon="86.72841">
        <ele>2825.4</ele>
        <time>2022-10-19T04:06:29.000Z</time>
      </trkpt>
      <trkpt lat="27.693146" lon="86.728429">
        <ele>2825</ele>
        <time>2022-10-19T04:06:31.000Z</time>
      </trkpt>
      <trkpt lat="27.693165" lon="86.728429">
        <ele>2825</ele>
        <time>2022-10-19T04:06:34.000Z</time>
      </trkpt>
      <trkpt lat="27.693184" lon="86.72841">
        <ele>2824.6</ele>
        <time>2022-10-19T04:06:39.000Z</time>
      </trkpt>
      <trkpt lat="27.693194" lon="86.72839">
        <ele>2824.6</ele>
        <time>2022-10-19T04:06:41.000Z</time>
      </trkpt>
      <trkpt lat="27.69321" lon="86.728371">
        <ele>2824.4</ele>
        <time>2022-10-19T04:06:43.000Z</time>
      </trkpt>
      <trkpt lat="27.693216" lon="86.728346">
        <ele>2823.8</ele>
        <time>2022-10-19T04:06:47.000Z</time>
      </trkpt>
      <trkpt lat="27.693229" lon="86.72832">
        <ele>2823.8</ele>
        <time>2022-10-19T04:06:49.000Z</time>
      </trkpt>
      <trkpt lat="27.693238" lon="86.728301">
        <ele>2823.8</ele>
        <time>2022-10-19T04:06:51.000Z</time>
      </trkpt>
      <trkpt lat="27.693248" lon="86.728269">
        <ele>2823.8</ele>
        <time>2022-10-19T04:06:54.000Z</time>
      </trkpt>
      <trkpt lat="27.693261" lon="86.72825">
        <ele>2823.4</ele>
        <time>2022-10-19T04:06:57.000Z</time>
      </trkpt>
      <trkpt lat="27.69327" lon="86.72823">
        <ele>2822.8</ele>
        <time>2022-10-19T04:06:59.000Z</time>
      </trkpt>
      <trkpt lat="27.69329" lon="86.728218">
        <ele>2822.4</ele>
        <time>2022-10-19T04:07:01.000Z</time>
      </trkpt>
      <trkpt lat="27.693299" lon="86.728192">
        <ele>2821.8</ele>
        <time>2022-10-19T04:07:03.000Z</time>
      </trkpt>
      <trkpt lat="27.693315" lon="86.728173">
        <ele>2821.4</ele>
        <time>2022-10-19T04:07:07.000Z</time>
      </trkpt>
      <trkpt lat="27.693331" lon="86.728147">
        <ele>2820.2</ele>
        <time>2022-10-19T04:07:11.000Z</time>
      </trkpt>
      <trkpt lat="27.693338" lon="86.728128">
        <ele>2819.6</ele>
        <time>2022-10-19T04:07:13.000Z</time>
      </trkpt>
      <trkpt lat="27.69335" lon="86.728109">
        <ele>2819.6</ele>
        <time>2022-10-19T04:07:15.000Z</time>
      </trkpt>
      <trkpt lat="27.69337" lon="86.72809">
        <ele>2818.6</ele>
        <time>2022-10-19T04:07:18.000Z</time>
      </trkpt>
      <trkpt lat="27.693386" lon="86.72807">
        <ele>2818.2</ele>
        <time>2022-10-19T04:07:20.000Z</time>
      </trkpt>
      <trkpt lat="27.693405" lon="86.728058">
        <ele>2817.8</ele>
        <time>2022-10-19T04:07:23.000Z</time>
      </trkpt>
      <trkpt lat="27.693421" lon="86.728026">
        <ele>2817.8</ele>
        <time>2022-10-19T04:07:27.000Z</time>
      </trkpt>
      <trkpt lat="27.693427" lon="86.728006">
        <ele>2817.6</ele>
        <time>2022-10-19T04:07:29.000Z</time>
      </trkpt>
      <trkpt lat="27.693437" lon="86.727974">
        <ele>2817.4</ele>
        <time>2022-10-19T04:07:32.000Z</time>
      </trkpt>
      <trkpt lat="27.693456" lon="86.727962">
        <ele>2817.8</ele>
        <time>2022-10-19T04:07:36.000Z</time>
      </trkpt>
      <trkpt lat="27.693462" lon="86.727936">
        <ele>2817.6</ele>
        <time>2022-10-19T04:07:39.000Z</time>
      </trkpt>
      <trkpt lat="27.693462" lon="86.72791">
        <ele>2817.4</ele>
        <time>2022-10-19T04:07:42.000Z</time>
      </trkpt>
      <trkpt lat="27.693472" lon="86.727885">
        <ele>2817</ele>
        <time>2022-10-19T04:07:45.000Z</time>
      </trkpt>
      <trkpt lat="27.693478" lon="86.727859">
        <ele>2817</ele>
        <time>2022-10-19T04:07:47.000Z</time>
      </trkpt>
      <trkpt lat="27.693488" lon="86.727834">
        <ele>2817</ele>
        <time>2022-10-19T04:07:49.000Z</time>
      </trkpt>
      <trkpt lat="27.693498" lon="86.727808">
        <ele>2816.8</ele>
        <time>2022-10-19T04:07:52.000Z</time>
      </trkpt>
      <trkpt lat="27.693494" lon="86.727782">
        <ele>2817</ele>
        <time>2022-10-19T04:07:54.000Z</time>
      </trkpt>
      <trkpt lat="27.693501" lon="86.727763">
        <ele>2817</ele>
        <time>2022-10-19T04:07:56.000Z</time>
      </trkpt>
      <trkpt lat="27.693507" lon="86.727738">
        <ele>2816.8</ele>
        <time>2022-10-19T04:07:59.000Z</time>
      </trkpt>
      <trkpt lat="27.693517" lon="86.727712">
        <ele>2816.8</ele>
        <time>2022-10-19T04:08:01.000Z</time>
      </trkpt>
      <trkpt lat="27.69353" lon="86.727693">
        <ele>2816.6</ele>
        <time>2022-10-19T04:08:03.000Z</time>
      </trkpt>
      <trkpt lat="27.693546" lon="86.727674">
        <ele>2816.8</ele>
        <time>2022-10-19T04:08:05.000Z</time>
      </trkpt>
      <trkpt lat="27.693562" lon="86.727654">
        <ele>2817.4</ele>
        <time>2022-10-19T04:08:07.000Z</time>
      </trkpt>
      <trkpt lat="27.693574" lon="86.727635">
        <ele>2817.4</ele>
        <time>2022-10-19T04:08:09.000Z</time>
      </trkpt>
      <trkpt lat="27.693597" lon="86.727616">
        <ele>2816.6</ele>
        <time>2022-10-19T04:08:12.000Z</time>
      </trkpt>
      <trkpt lat="27.69361" lon="86.727584">
        <ele>2816.2</ele>
        <time>2022-10-19T04:08:15.000Z</time>
      </trkpt>
      <trkpt lat="27.693616" lon="86.727552">
        <ele>2815.4</ele>
        <time>2022-10-19T04:08:19.000Z</time>
      </trkpt>
      <trkpt lat="27.69361" lon="86.727526">
        <ele>2815.8</ele>
        <time>2022-10-19T04:08:22.000Z</time>
      </trkpt>
      <trkpt lat="27.69361" lon="86.727501">
        <ele>2815.8</ele>
        <time>2022-10-19T04:08:24.000Z</time>
      </trkpt>
      <trkpt lat="27.69361" lon="86.727469">
        <ele>2816.2</ele>
        <time>2022-10-19T04:08:27.000Z</time>
      </trkpt>
      <trkpt lat="27.693619" lon="86.727437">
        <ele>2816.2</ele>
        <time>2022-10-19T04:08:30.000Z</time>
      </trkpt>
      <trkpt lat="27.693626" lon="86.727418">
        <ele>2816</ele>
        <time>2022-10-19T04:08:37.000Z</time>
      </trkpt>
      <trkpt lat="27.693638" lon="86.727392">
        <ele>2815.8</ele>
        <time>2022-10-19T04:08:55.000Z</time>
      </trkpt>
      <trkpt lat="27.693658" lon="86.727373">
        <ele>2815.8</ele>
        <time>2022-10-19T04:08:57.000Z</time>
      </trkpt>
      <trkpt lat="27.693677" lon="86.727347">
        <ele>2815.8</ele>
        <time>2022-10-19T04:08:59.000Z</time>
      </trkpt>
      <trkpt lat="27.693699" lon="86.727334">
        <ele>2815.2</ele>
        <time>2022-10-19T04:09:01.000Z</time>
      </trkpt>
      <trkpt lat="27.693725" lon="86.727309">
        <ele>2815</ele>
        <time>2022-10-19T04:09:03.000Z</time>
      </trkpt>
      <trkpt lat="27.693741" lon="86.72729">
        <ele>2814.8</ele>
        <time>2022-10-19T04:09:06.000Z</time>
      </trkpt>
      <trkpt lat="27.693754" lon="86.727264">
        <ele>2814.6</ele>
        <time>2022-10-19T04:09:08.000Z</time>
      </trkpt>
      <trkpt lat="27.693763" lon="86.727238">
        <ele>2814</ele>
        <time>2022-10-19T04:09:10.000Z</time>
      </trkpt>
      <trkpt lat="27.693779" lon="86.727219">
        <ele>2814</ele>
        <time>2022-10-19T04:09:12.000Z</time>
      </trkpt>
      <trkpt lat="27.693798" lon="86.727194">
        <ele>2813.4</ele>
        <time>2022-10-19T04:09:15.000Z</time>
      </trkpt>
      <trkpt lat="27.693818" lon="86.727181">
        <ele>2813.4</ele>
        <time>2022-10-19T04:09:17.000Z</time>
      </trkpt>
      <trkpt lat="27.693834" lon="86.727168">
        <ele>2813.2</ele>
        <time>2022-10-19T04:09:19.000Z</time>
      </trkpt>
      <trkpt lat="27.693846" lon="86.727149">
        <ele>2813</ele>
        <time>2022-10-19T04:09:20.000Z</time>
      </trkpt>
      <trkpt lat="27.693866" lon="86.727136">
        <ele>2813</ele>
        <time>2022-10-19T04:09:22.000Z</time>
      </trkpt>
      <trkpt lat="27.693888" lon="86.727117">
        <ele>2812.8</ele>
        <time>2022-10-19T04:09:24.000Z</time>
      </trkpt>
      <trkpt lat="27.69391" lon="86.72711">
        <ele>2812.8</ele>
        <time>2022-10-19T04:09:26.000Z</time>
      </trkpt>
      <trkpt lat="27.693933" lon="86.727098">
        <ele>2812.8</ele>
        <time>2022-10-19T04:09:28.000Z</time>
      </trkpt>
      <trkpt lat="27.693955" lon="86.727091">
        <ele>2812.6</ele>
        <time>2022-10-19T04:09:30.000Z</time>
      </trkpt>
      <trkpt lat="27.693974" lon="86.727098">
        <ele>2812.6</ele>
        <time>2022-10-19T04:09:32.000Z</time>
      </trkpt>
      <trkpt lat="27.693994" lon="86.727091">
        <ele>2812.4</ele>
        <time>2022-10-19T04:09:35.000Z</time>
      </trkpt>
      <trkpt lat="27.694016" lon="86.727072">
        <ele>2812.4</ele>
        <time>2022-10-19T04:09:38.000Z</time>
      </trkpt>
      <trkpt lat="27.694035" lon="86.727059">
        <ele>2812.4</ele>
        <time>2022-10-19T04:09:40.000Z</time>
      </trkpt>
      <trkpt lat="27.694051" lon="86.72704">
        <ele>2812</ele>
        <time>2022-10-19T04:09:42.000Z</time>
      </trkpt>
      <trkpt lat="27.69407" lon="86.727034">
        <ele>2812</ele>
        <time>2022-10-19T04:09:44.000Z</time>
      </trkpt>
      <trkpt lat="27.694086" lon="86.727021">
        <ele>2812</ele>
        <time>2022-10-19T04:09:46.000Z</time>
      </trkpt>
      <trkpt lat="27.694109" lon="86.727008">
        <ele>2811.8</ele>
        <time>2022-10-19T04:09:48.000Z</time>
      </trkpt>
      <trkpt lat="27.694125" lon="86.726989">
        <ele>2811.8</ele>
        <time>2022-10-19T04:09:51.000Z</time>
      </trkpt>
      <trkpt lat="27.694141" lon="86.726976">
        <ele>2811.8</ele>
        <time>2022-10-19T04:09:53.000Z</time>
      </trkpt>
      <trkpt lat="27.694163" lon="86.726957">
        <ele>2811.8</ele>
        <time>2022-10-19T04:09:56.000Z</time>
      </trkpt>
      <trkpt lat="27.694186" lon="86.726944">
        <ele>2811.4</ele>
        <time>2022-10-19T04:09:59.000Z</time>
      </trkpt>
      <trkpt lat="27.694208" lon="86.726938">
        <ele>2810.4</ele>
        <time>2022-10-19T04:10:29.000Z</time>
      </trkpt>
      <trkpt lat="27.694221" lon="86.726918">
        <ele>2810</ele>
        <time>2022-10-19T04:10:31.000Z</time>
      </trkpt>
      <trkpt lat="27.694243" lon="86.726906">
        <ele>2809.8</ele>
        <time>2022-10-19T04:10:34.000Z</time>
      </trkpt>
      <trkpt lat="27.694259" lon="86.726893">
        <ele>2809.6</ele>
        <time>2022-10-19T04:10:36.000Z</time>
      </trkpt>
      <trkpt lat="27.694282" lon="86.726874">
        <ele>2809.2</ele>
        <time>2022-10-19T04:10:38.000Z</time>
      </trkpt>
      <trkpt lat="27.694301" lon="86.726867">
        <ele>2808.8</ele>
        <time>2022-10-19T04:10:40.000Z</time>
      </trkpt>
      <trkpt lat="27.694326" lon="86.726861">
        <ele>2808.6</ele>
        <time>2022-10-19T04:10:42.000Z</time>
      </trkpt>
      <trkpt lat="27.694346" lon="86.726861">
        <ele>2808</ele>
        <time>2022-10-19T04:10:45.000Z</time>
      </trkpt>
      <trkpt lat="27.694362" lon="86.726842">
        <ele>2808</ele>
        <time>2022-10-19T04:10:53.000Z</time>
      </trkpt>
      <trkpt lat="27.694381" lon="86.726822">
        <ele>2808</ele>
        <time>2022-10-19T04:10:56.000Z</time>
      </trkpt>
      <trkpt lat="27.6944" lon="86.72681">
        <ele>2807.6</ele>
        <time>2022-10-19T04:10:58.000Z</time>
      </trkpt>
      <trkpt lat="27.694416" lon="86.726797">
        <ele>2807.6</ele>
        <time>2022-10-19T04:11:00.000Z</time>
      </trkpt>
      <trkpt lat="27.694438" lon="86.72679">
        <ele>2807.2</ele>
        <time>2022-10-19T04:11:02.000Z</time>
      </trkpt>
      <trkpt lat="27.694467" lon="86.726797">
        <ele>2806.6</ele>
        <time>2022-10-19T04:11:05.000Z</time>
      </trkpt>
      <trkpt lat="27.69449" lon="86.726797">
        <ele>2805.8</ele>
        <time>2022-10-19T04:11:08.000Z</time>
      </trkpt>
      <trkpt lat="27.694502" lon="86.726816">
        <ele>2805.2</ele>
        <time>2022-10-19T04:11:10.000Z</time>
      </trkpt>
      <trkpt lat="27.694531" lon="86.726816">
        <ele>2804.8</ele>
        <time>2022-10-19T04:11:13.000Z</time>
      </trkpt>
      <trkpt lat="27.69455" lon="86.726816">
        <ele>2804.8</ele>
        <time>2022-10-19T04:11:15.000Z</time>
      </trkpt>
      <trkpt lat="27.69457" lon="86.726816">
        <ele>2804.2</ele>
        <time>2022-10-19T04:11:18.000Z</time>
      </trkpt>
      <trkpt lat="27.694582" lon="86.726797">
        <ele>2803.4</ele>
        <time>2022-10-19T04:11:21.000Z</time>
      </trkpt>
      <trkpt lat="27.694602" lon="86.726797">
        <ele>2803.4</ele>
        <time>2022-10-19T04:11:23.000Z</time>
      </trkpt>
      <trkpt lat="27.694621" lon="86.72679">
        <ele>2803</ele>
        <time>2022-10-19T04:11:25.000Z</time>
      </trkpt>
      <trkpt lat="27.69464" lon="86.726778">
        <ele>2802.4</ele>
        <time>2022-10-19T04:11:27.000Z</time>
      </trkpt>
      <trkpt lat="27.694656" lon="86.726758">
        <ele>2802</ele>
        <time>2022-10-19T04:11:29.000Z</time>
      </trkpt>
      <trkpt lat="27.694666" lon="86.726739">
        <ele>2801.6</ele>
        <time>2022-10-19T04:11:31.000Z</time>
      </trkpt>
      <trkpt lat="27.694685" lon="86.72672">
        <ele>2801.2</ele>
        <time>2022-10-19T04:11:33.000Z</time>
      </trkpt>
      <trkpt lat="27.694691" lon="86.726701">
        <ele>2801</ele>
        <time>2022-10-19T04:11:35.000Z</time>
      </trkpt>
      <trkpt lat="27.694698" lon="86.726669">
        <ele>2801</ele>
        <time>2022-10-19T04:11:37.000Z</time>
      </trkpt>
      <trkpt lat="27.69471" lon="86.72665">
        <ele>2800.4</ele>
        <time>2022-10-19T04:11:40.000Z</time>
      </trkpt>
      <trkpt lat="27.694717" lon="86.72663">
        <ele>2800.4</ele>
        <time>2022-10-19T04:11:42.000Z</time>
      </trkpt>
      <trkpt lat="27.694717" lon="86.726598">
        <ele>2799.4</ele>
        <time>2022-10-19T04:11:45.000Z</time>
      </trkpt>
      <trkpt lat="27.694726" lon="86.726573">
        <ele>2798.8</ele>
        <time>2022-10-19T04:11:48.000Z</time>
      </trkpt>
      <trkpt lat="27.694739" lon="86.726554">
        <ele>2798.6</ele>
        <time>2022-10-19T04:11:50.000Z</time>
      </trkpt>
      <trkpt lat="27.694762" lon="86.726541">
        <ele>2798</ele>
        <time>2022-10-19T04:11:53.000Z</time>
      </trkpt>
      <trkpt lat="27.694781" lon="86.726534">
        <ele>2797.2</ele>
        <time>2022-10-19T04:11:55.000Z</time>
      </trkpt>
      <trkpt lat="27.694794" lon="86.726515">
        <ele>2797</ele>
        <time>2022-10-19T04:11:57.000Z</time>
      </trkpt>
      <trkpt lat="27.69481" lon="86.726502">
        <ele>2796.2</ele>
        <time>2022-10-19T04:12:00.000Z</time>
      </trkpt>
      <trkpt lat="27.694829" lon="86.726483">
        <ele>2795.6</ele>
        <time>2022-10-19T04:12:03.000Z</time>
      </trkpt>
      <trkpt lat="27.694845" lon="86.72647">
        <ele>2794.8</ele>
        <time>2022-10-19T04:12:06.000Z</time>
      </trkpt>
      <trkpt lat="27.694867" lon="86.726458">
        <ele>2794.4</ele>
        <time>2022-10-19T04:12:09.000Z</time>
      </trkpt>
      <trkpt lat="27.694886" lon="86.726451">
        <ele>2794</ele>
        <time>2022-10-19T04:12:11.000Z</time>
      </trkpt>
      <trkpt lat="27.694906" lon="86.726438">
        <ele>2793.6</ele>
        <time>2022-10-19T04:12:14.000Z</time>
      </trkpt>
      <trkpt lat="27.694925" lon="86.726426">
        <ele>2793</ele>
        <time>2022-10-19T04:12:16.000Z</time>
      </trkpt>
      <trkpt lat="27.694947" lon="86.726419">
        <ele>2792.4</ele>
        <time>2022-10-19T04:12:19.000Z</time>
      </trkpt>
      <trkpt lat="27.694966" lon="86.726413">
        <ele>2791.8</ele>
        <time>2022-10-19T04:12:21.000Z</time>
      </trkpt>
      <trkpt lat="27.694982" lon="86.7264">
        <ele>2791.6</ele>
        <time>2022-10-19T04:12:23.000Z</time>
      </trkpt>
      <trkpt lat="27.694998" lon="86.726381">
        <ele>2791</ele>
        <time>2022-10-19T04:12:26.000Z</time>
      </trkpt>
      <trkpt lat="27.695018" lon="86.726374">
        <ele>2790.8</ele>
        <time>2022-10-19T04:12:29.000Z</time>
      </trkpt>
      <trkpt lat="27.695027" lon="86.726349">
        <ele>2790.2</ele>
        <time>2022-10-19T04:12:31.000Z</time>
      </trkpt>
      <trkpt lat="27.695037" lon="86.726323">
        <ele>2790.4</ele>
        <time>2022-10-19T04:12:35.000Z</time>
      </trkpt>
      <trkpt lat="27.69503" lon="86.726304">
        <ele>2790.2</ele>
        <time>2022-10-19T04:12:39.000Z</time>
      </trkpt>
      <trkpt lat="27.695034" lon="86.726272">
        <ele>2789.8</ele>
        <time>2022-10-19T04:12:42.000Z</time>
      </trkpt>
      <trkpt lat="27.695046" lon="86.726253">
        <ele>2789.4</ele>
        <time>2022-10-19T04:12:45.000Z</time>
      </trkpt>
      <trkpt lat="27.695059" lon="86.726234">
        <ele>2789.2</ele>
        <time>2022-10-19T04:12:48.000Z</time>
      </trkpt>
      <trkpt lat="27.695066" lon="86.726202">
        <ele>2789</ele>
        <time>2022-10-19T04:12:51.000Z</time>
      </trkpt>
      <trkpt lat="27.695075" lon="86.726182">
        <ele>2788.6</ele>
        <time>2022-10-19T04:12:55.000Z</time>
      </trkpt>
      <trkpt lat="27.695101" lon="86.726176">
        <ele>2787.8</ele>
        <time>2022-10-19T04:12:59.000Z</time>
      </trkpt>
      <trkpt lat="27.69512" lon="86.726163">
        <ele>2787.2</ele>
        <time>2022-10-19T04:13:02.000Z</time>
      </trkpt>
      <trkpt lat="27.695142" lon="86.726157">
        <ele>2786.6</ele>
        <time>2022-10-19T04:13:05.000Z</time>
      </trkpt>
      <trkpt lat="27.695168" lon="86.726157">
        <ele>2786.2</ele>
        <time>2022-10-19T04:13:07.000Z</time>
      </trkpt>
      <trkpt lat="27.695184" lon="86.726144">
        <ele>2785.6</ele>
        <time>2022-10-19T04:13:09.000Z</time>
      </trkpt>
      <trkpt lat="27.695206" lon="86.726138">
        <ele>2785.4</ele>
        <time>2022-10-19T04:13:12.000Z</time>
      </trkpt>
      <trkpt lat="27.695222" lon="86.726118">
        <ele>2784.2</ele>
        <time>2022-10-19T04:13:15.000Z</time>
      </trkpt>
      <trkpt lat="27.695242" lon="86.726099">
        <ele>2783.8</ele>
        <time>2022-10-19T04:13:18.000Z</time>
      </trkpt>
      <trkpt lat="27.695235" lon="86.726074">
        <ele>2783.4</ele>
        <time>2022-10-19T04:13:20.000Z</time>
      </trkpt>
      <trkpt lat="27.695242" lon="86.726054">
        <ele>2782.8</ele>
        <time>2022-10-19T04:13:22.000Z</time>
      </trkpt>
      <trkpt lat="27.695248" lon="86.726035">
        <ele>2782.8</ele>
        <time>2022-10-19T04:13:23.000Z</time>
      </trkpt>
      <trkpt lat="27.69527" lon="86.726016">
        <ele>2782.6</ele>
        <time>2022-10-19T04:13:26.000Z</time>
      </trkpt>
      <trkpt lat="27.695283" lon="86.725997">
        <ele>2782</ele>
        <time>2022-10-19T04:13:28.000Z</time>
      </trkpt>
      <trkpt lat="27.695306" lon="86.72599">
        <ele>2781.4</ele>
        <time>2022-10-19T04:13:31.000Z</time>
      </trkpt>
      <trkpt lat="27.695328" lon="86.72599">
        <ele>2781</ele>
        <time>2022-10-19T04:13:33.000Z</time>
      </trkpt>
      <trkpt lat="27.69535" lon="86.72599">
        <ele>2780.4</ele>
        <time>2022-10-19T04:13:36.000Z</time>
      </trkpt>
      <trkpt lat="27.69537" lon="86.725984">
        <ele>2780</ele>
        <time>2022-10-19T04:13:38.000Z</time>
      </trkpt>
      <trkpt lat="27.695389" lon="86.725984">
        <ele>2779.6</ele>
        <time>2022-10-19T04:13:40.000Z</time>
      </trkpt>
      <trkpt lat="27.695421" lon="86.725984">
        <ele>2778.8</ele>
        <time>2022-10-19T04:13:43.000Z</time>
      </trkpt>
      <trkpt lat="27.695443" lon="86.725978">
        <ele>2778.2</ele>
        <time>2022-10-19T04:13:46.000Z</time>
      </trkpt>
      <trkpt lat="27.695459" lon="86.725965">
        <ele>2777.8</ele>
        <time>2022-10-19T04:13:48.000Z</time>
      </trkpt>
      <trkpt lat="27.695485" lon="86.725958">
        <ele>2777.2</ele>
        <time>2022-10-19T04:13:52.000Z</time>
      </trkpt>
      <trkpt lat="27.695504" lon="86.725952">
        <ele>2776.8</ele>
        <time>2022-10-19T04:13:55.000Z</time>
      </trkpt>
      <trkpt lat="27.69552" lon="86.725939">
        <ele>2776.6</ele>
        <time>2022-10-19T04:13:57.000Z</time>
      </trkpt>
      <trkpt lat="27.695536" lon="86.72592">
        <ele>2776</ele>
        <time>2022-10-19T04:14:00.000Z</time>
      </trkpt>
      <trkpt lat="27.695555" lon="86.725914">
        <ele>2775.4</ele>
        <time>2022-10-19T04:14:02.000Z</time>
      </trkpt>
      <trkpt lat="27.695574" lon="86.725907">
        <ele>2774.8</ele>
        <time>2022-10-19T04:14:05.000Z</time>
      </trkpt>
      <trkpt lat="27.695594" lon="86.725901">
        <ele>2774.2</ele>
        <time>2022-10-19T04:14:08.000Z</time>
      </trkpt>
      <trkpt lat="27.695613" lon="86.725901">
        <ele>2774</ele>
        <time>2022-10-19T04:14:11.000Z</time>
      </trkpt>
      <trkpt lat="27.695635" lon="86.725907">
        <ele>2773.4</ele>
        <time>2022-10-19T04:14:14.000Z</time>
      </trkpt>
      <trkpt lat="27.695654" lon="86.725901">
        <ele>2772.8</ele>
        <time>2022-10-19T04:14:17.000Z</time>
      </trkpt>
      <trkpt lat="27.69568" lon="86.725901">
        <ele>2772</ele>
        <time>2022-10-19T04:14:21.000Z</time>
      </trkpt>
      <trkpt lat="27.69569" lon="86.725882">
        <ele>2771.8</ele>
        <time>2022-10-19T04:14:23.000Z</time>
      </trkpt>
      <trkpt lat="27.695709" lon="86.725869">
        <ele>2771</ele>
        <time>2022-10-19T04:14:26.000Z</time>
      </trkpt>
      <trkpt lat="27.695725" lon="86.725856">
        <ele>2769.8</ele>
        <time>2022-10-19T04:14:31.000Z</time>
      </trkpt>
      <trkpt lat="27.695738" lon="86.72583">
        <ele>2769.4</ele>
        <time>2022-10-19T04:14:34.000Z</time>
      </trkpt>
      <trkpt lat="27.695744" lon="86.725798">
        <ele>2768.8</ele>
        <time>2022-10-19T04:14:37.000Z</time>
      </trkpt>
      <trkpt lat="27.69575" lon="86.725779">
        <ele>2767.8</ele>
        <time>2022-10-19T04:14:40.000Z</time>
      </trkpt>
      <trkpt lat="27.695757" lon="86.72576">
        <ele>2767.2</ele>
        <time>2022-10-19T04:14:42.000Z</time>
      </trkpt>
      <trkpt lat="27.695773" lon="86.725747">
        <ele>2766.6</ele>
        <time>2022-10-19T04:14:45.000Z</time>
      </trkpt>
      <trkpt lat="27.695789" lon="86.725728">
        <ele>2766.4</ele>
        <time>2022-10-19T04:14:48.000Z</time>
      </trkpt>
      <trkpt lat="27.695811" lon="86.725709">
        <ele>2765.2</ele>
        <time>2022-10-19T04:14:51.000Z</time>
      </trkpt>
      <trkpt lat="27.695827" lon="86.72569">
        <ele>2765</ele>
        <time>2022-10-19T04:14:54.000Z</time>
      </trkpt>
      <trkpt lat="27.69584" lon="86.72567">
        <ele>2764.4</ele>
        <time>2022-10-19T04:14:56.000Z</time>
      </trkpt>
      <trkpt lat="27.695856" lon="86.725658">
        <ele>2764</ele>
        <time>2022-10-19T04:14:59.000Z</time>
      </trkpt>
      <trkpt lat="27.695872" lon="86.725645">
        <ele>2763.6</ele>
        <time>2022-10-19T04:15:02.000Z</time>
      </trkpt>
      <trkpt lat="27.695894" lon="86.725632">
        <ele>2763.2</ele>
        <time>2022-10-19T04:15:05.000Z</time>
      </trkpt>
      <trkpt lat="27.695914" lon="86.7256">
        <ele>2762.8</ele>
        <time>2022-10-19T04:15:08.000Z</time>
      </trkpt>
      <trkpt lat="27.69593" lon="86.725587">
        <ele>2761.6</ele>
        <time>2022-10-19T04:15:11.000Z</time>
      </trkpt>
      <trkpt lat="27.695942" lon="86.725562">
        <ele>2761.4</ele>
        <time>2022-10-19T04:15:13.000Z</time>
      </trkpt>
      <trkpt lat="27.695958" lon="86.725549">
        <ele>2761.2</ele>
        <time>2022-10-19T04:15:15.000Z</time>
      </trkpt>
      <trkpt lat="27.695981" lon="86.725542">
        <ele>2761</ele>
        <time>2022-10-19T04:15:18.000Z</time>
      </trkpt>
      <trkpt lat="27.695997" lon="86.72553">
        <ele>2760.8</ele>
        <time>2022-10-19T04:15:20.000Z</time>
      </trkpt>
      <trkpt lat="27.696019" lon="86.725523">
        <ele>2760.8</ele>
        <time>2022-10-19T04:15:23.000Z</time>
      </trkpt>
      <trkpt lat="27.696042" lon="86.725523">
        <ele>2760</ele>
        <time>2022-10-19T04:15:26.000Z</time>
      </trkpt>
      <trkpt lat="27.696061" lon="86.72553">
        <ele>2759.8</ele>
        <time>2022-10-19T04:15:28.000Z</time>
      </trkpt>
      <trkpt lat="27.69608" lon="86.725542">
        <ele>2759.8</ele>
        <time>2022-10-19T04:15:30.000Z</time>
      </trkpt>
      <trkpt lat="27.696099" lon="86.725542">
        <ele>2759.8</ele>
        <time>2022-10-19T04:15:32.000Z</time>
      </trkpt>
      <trkpt lat="27.696128" lon="86.725542">
        <ele>2759.6</ele>
        <time>2022-10-19T04:15:35.000Z</time>
      </trkpt>
      <trkpt lat="27.696154" lon="86.725542">
        <ele>2759.8</ele>
        <time>2022-10-19T04:15:37.000Z</time>
      </trkpt>
      <trkpt lat="27.696173" lon="86.725542">
        <ele>2759.8</ele>
        <time>2022-10-19T04:15:39.000Z</time>
      </trkpt>
      <trkpt lat="27.696189" lon="86.72553">
        <ele>2759.8</ele>
        <time>2022-10-19T04:15:41.000Z</time>
      </trkpt>
      <trkpt lat="27.696211" lon="86.725523">
        <ele>2759.8</ele>
        <time>2022-10-19T04:15:44.000Z</time>
      </trkpt>
      <trkpt lat="27.696227" lon="86.72551">
        <ele>2760.2</ele>
        <time>2022-10-19T04:15:47.000Z</time>
      </trkpt>
      <trkpt lat="27.696237" lon="86.725491">
        <ele>2760.4</ele>
        <time>2022-10-19T04:15:49.000Z</time>
      </trkpt>
      <trkpt lat="27.696246" lon="86.725472">
        <ele>2761.2</ele>
        <time>2022-10-19T04:15:52.000Z</time>
      </trkpt>
      <trkpt lat="27.696246" lon="86.725446">
        <ele>2761.4</ele>
        <time>2022-10-19T04:15:55.000Z</time>
      </trkpt>
      <trkpt lat="27.696237" lon="86.725427">
        <ele>2761.8</ele>
        <time>2022-10-19T04:16:00.000Z</time>
      </trkpt>
      <trkpt lat="27.69624" lon="86.725402">
        <ele>2761.6</ele>
        <time>2022-10-19T04:16:02.000Z</time>
      </trkpt>
      <trkpt lat="27.696256" lon="86.725382">
        <ele>2761.8</ele>
        <time>2022-10-19T04:16:05.000Z</time>
      </trkpt>
      <trkpt lat="27.69625" lon="86.725357">
        <ele>2762</ele>
        <time>2022-10-19T04:16:08.000Z</time>
      </trkpt>
      <trkpt lat="27.696246" lon="86.725325">
        <ele>2761.6</ele>
        <time>2022-10-19T04:16:11.000Z</time>
      </trkpt>
      <trkpt lat="27.69625" lon="86.725299">
        <ele>2758.8</ele>
        <time>2022-10-19T04:16:41.000Z</time>
      </trkpt>
      <trkpt lat="27.696259" lon="86.72528">
        <ele>2758.6</ele>
        <time>2022-10-19T04:16:42.000Z</time>
      </trkpt>
      <trkpt lat="27.696275" lon="86.725261">
        <ele>2758.6</ele>
        <time>2022-10-19T04:16:44.000Z</time>
      </trkpt>
      <trkpt lat="27.696285" lon="86.725242">
        <ele>2758.6</ele>
        <time>2022-10-19T04:16:46.000Z</time>
      </trkpt>
      <trkpt lat="27.696301" lon="86.725229">
        <ele>2758.6</ele>
        <time>2022-10-19T04:16:48.000Z</time>
      </trkpt>
      <trkpt lat="27.69631" lon="86.72521">
        <ele>2758.6</ele>
        <time>2022-10-19T04:16:51.000Z</time>
      </trkpt>
      <trkpt lat="27.696285" lon="86.725203">
        <ele>2757.2</ele>
        <time>2022-10-19T04:16:58.000Z</time>
      </trkpt>
      <trkpt lat="27.696269" lon="86.72519">
        <ele>2757</ele>
        <time>2022-10-19T04:17:01.000Z</time>
      </trkpt>
      <trkpt lat="27.69625" lon="86.725184">
        <ele>2756</ele>
        <time>2022-10-19T04:17:05.000Z</time>
      </trkpt>
      <trkpt lat="27.696237" lon="86.725165">
        <ele>2755.4</ele>
        <time>2022-10-19T04:17:08.000Z</time>
      </trkpt>
      <trkpt lat="27.696237" lon="86.725133">
        <ele>2754.4</ele>
        <time>2022-10-19T04:17:14.000Z</time>
      </trkpt>
      <trkpt lat="27.69625" lon="86.725114">
        <ele>2754.2</ele>
        <time>2022-10-19T04:17:16.000Z</time>
      </trkpt>
      <trkpt lat="27.696272" lon="86.725101">
        <ele>2753.2</ele>
        <time>2022-10-19T04:17:19.000Z</time>
      </trkpt>
      <trkpt lat="27.696288" lon="86.725082">
        <ele>2753</ele>
        <time>2022-10-19T04:17:21.000Z</time>
      </trkpt>
      <trkpt lat="27.696307" lon="86.725069">
        <ele>2753.2</ele>
        <time>2022-10-19T04:17:26.000Z</time>
      </trkpt>
      <trkpt lat="27.696323" lon="86.72505">
        <ele>2752.4</ele>
        <time>2022-10-19T04:17:32.000Z</time>
      </trkpt>
      <trkpt lat="27.696339" lon="86.725037">
        <ele>2752.4</ele>
        <time>2022-10-19T04:17:34.000Z</time>
      </trkpt>
      <trkpt lat="27.696358" lon="86.72503">
        <ele>2752.4</ele>
        <time>2022-10-19T04:17:36.000Z</time>
      </trkpt>
      <trkpt lat="27.696368" lon="86.725011">
        <ele>2751.6</ele>
        <time>2022-10-19T04:17:49.000Z</time>
      </trkpt>
      <trkpt lat="27.696381" lon="86.724992">
        <ele>2751.6</ele>
        <time>2022-10-19T04:17:52.000Z</time>
      </trkpt>
      <trkpt lat="27.696397" lon="86.724973">
        <ele>2751.4</ele>
        <time>2022-10-19T04:17:54.000Z</time>
      </trkpt>
      <trkpt lat="27.696416" lon="86.72496">
        <ele>2751.2</ele>
        <time>2022-10-19T04:17:57.000Z</time>
      </trkpt>
      <trkpt lat="27.696435" lon="86.724966">
        <ele>2750.8</ele>
        <time>2022-10-19T04:18:01.000Z</time>
      </trkpt>
      <trkpt lat="27.696458" lon="86.724966">
        <ele>2750.2</ele>
        <time>2022-10-19T04:18:03.000Z</time>
      </trkpt>
      <trkpt lat="27.69648" lon="86.72496">
        <ele>2749.4</ele>
        <time>2022-10-19T04:18:05.000Z</time>
      </trkpt>
      <trkpt lat="27.696499" lon="86.724947">
        <ele>2749</ele>
        <time>2022-10-19T04:18:07.000Z</time>
      </trkpt>
      <trkpt lat="27.696515" lon="86.724934">
        <ele>2749</ele>
        <time>2022-10-19T04:18:08.000Z</time>
      </trkpt>
      <trkpt lat="27.696541" lon="86.724915">
        <ele>2748.6</ele>
        <time>2022-10-19T04:18:11.000Z</time>
      </trkpt>
      <trkpt lat="27.69656" lon="86.72489">
        <ele>2748.4</ele>
        <time>2022-10-19T04:18:14.000Z</time>
      </trkpt>
      <trkpt lat="27.696573" lon="86.72487">
        <ele>2748.4</ele>
        <time>2022-10-19T04:18:17.000Z</time>
      </trkpt>
      <trkpt lat="27.696582" lon="86.724851">
        <ele>2748.2</ele>
        <time>2022-10-19T04:18:21.000Z</time>
      </trkpt>
      <trkpt lat="27.696592" lon="86.724826">
        <ele>2748</ele>
        <time>2022-10-19T04:18:24.000Z</time>
      </trkpt>
      <trkpt lat="27.696608" lon="86.724806">
        <ele>2747.4</ele>
        <time>2022-10-19T04:18:26.000Z</time>
      </trkpt>
      <trkpt lat="27.696624" lon="86.724794">
        <ele>2746.6</ele>
        <time>2022-10-19T04:18:30.000Z</time>
      </trkpt>
      <trkpt lat="27.696634" lon="86.724774">
        <ele>2746.2</ele>
        <time>2022-10-19T04:18:33.000Z</time>
      </trkpt>
      <trkpt lat="27.696646" lon="86.724755">
        <ele>2745.8</ele>
        <time>2022-10-19T04:18:40.000Z</time>
      </trkpt>
      <trkpt lat="27.696662" lon="86.724736">
        <ele>2745.8</ele>
        <time>2022-10-19T04:18:43.000Z</time>
      </trkpt>
      <trkpt lat="27.696672" lon="86.724717">
        <ele>2745</ele>
        <time>2022-10-19T04:18:47.000Z</time>
      </trkpt>
      <trkpt lat="27.696685" lon="86.724691">
        <ele>2744.8</ele>
        <time>2022-10-19T04:18:51.000Z</time>
      </trkpt>
      <trkpt lat="27.696701" lon="86.724672">
        <ele>2744.2</ele>
        <time>2022-10-19T04:18:55.000Z</time>
      </trkpt>
      <trkpt lat="27.696707" lon="86.724653">
        <ele>2744.2</ele>
        <time>2022-10-19T04:18:56.000Z</time>
      </trkpt>
      <trkpt lat="27.69672" lon="86.724634">
        <ele>2743.8</ele>
        <time>2022-10-19T04:18:59.000Z</time>
      </trkpt>
      <trkpt lat="27.696733" lon="86.724614">
        <ele>2743.8</ele>
        <time>2022-10-19T04:19:02.000Z</time>
      </trkpt>
      <trkpt lat="27.696742" lon="86.724595">
        <ele>2743.2</ele>
        <time>2022-10-19T04:19:05.000Z</time>
      </trkpt>
      <trkpt lat="27.696758" lon="86.724576">
        <ele>2743.2</ele>
        <time>2022-10-19T04:19:07.000Z</time>
      </trkpt>
      <trkpt lat="27.696768" lon="86.724557">
        <ele>2743.2</ele>
        <time>2022-10-19T04:19:09.000Z</time>
      </trkpt>
      <trkpt lat="27.696784" lon="86.724538">
        <ele>2742.4</ele>
        <time>2022-10-19T04:19:11.000Z</time>
      </trkpt>
      <trkpt lat="27.6968" lon="86.724518">
        <ele>2742.2</ele>
        <time>2022-10-19T04:19:14.000Z</time>
      </trkpt>
      <trkpt lat="27.696813" lon="86.724493">
        <ele>2742</ele>
        <time>2022-10-19T04:19:16.000Z</time>
      </trkpt>
      <trkpt lat="27.696822" lon="86.724474">
        <ele>2741.8</ele>
        <time>2022-10-19T04:19:18.000Z</time>
      </trkpt>
      <trkpt lat="27.696829" lon="86.724454">
        <ele>2741.8</ele>
        <time>2022-10-19T04:19:19.000Z</time>
      </trkpt>
      <trkpt lat="27.696851" lon="86.724429">
        <ele>2741.2</ele>
        <time>2022-10-19T04:19:22.000Z</time>
      </trkpt>
      <trkpt lat="27.696877" lon="86.724403">
        <ele>2740.6</ele>
        <time>2022-10-19T04:19:25.000Z</time>
      </trkpt>
      <trkpt lat="27.696896" lon="86.724397">
        <ele>2740</ele>
        <time>2022-10-19T04:19:28.000Z</time>
      </trkpt>
      <trkpt lat="27.696909" lon="86.724378">
        <ele>2740.4</ele>
        <time>2022-10-19T04:19:30.000Z</time>
      </trkpt>
      <trkpt lat="27.696922" lon="86.724358">
        <ele>2739.6</ele>
        <time>2022-10-19T04:19:33.000Z</time>
      </trkpt>
      <trkpt lat="27.696934" lon="86.724333">
        <ele>2739</ele>
        <time>2022-10-19T04:19:36.000Z</time>
      </trkpt>
      <trkpt lat="27.696954" lon="86.724326">
        <ele>2738.8</ele>
        <time>2022-10-19T04:19:40.000Z</time>
      </trkpt>
      <trkpt lat="27.696973" lon="86.724314">
        <ele>2738.8</ele>
        <time>2022-10-19T04:19:44.000Z</time>
      </trkpt>
      <trkpt lat="27.696986" lon="86.724294">
        <ele>2738.4</ele>
        <time>2022-10-19T04:19:48.000Z</time>
      </trkpt>
      <trkpt lat="27.696992" lon="86.724275">
        <ele>2738</ele>
        <time>2022-10-19T04:19:51.000Z</time>
      </trkpt>
      <trkpt lat="27.696998" lon="86.72425">
        <ele>2737.8</ele>
        <time>2022-10-19T04:19:53.000Z</time>
      </trkpt>
      <trkpt lat="27.697011" lon="86.72423">
        <ele>2737</ele>
        <time>2022-10-19T04:19:56.000Z</time>
      </trkpt>
      <trkpt lat="27.697024" lon="86.724211">
        <ele>2736.8</ele>
        <time>2022-10-19T04:19:58.000Z</time>
      </trkpt>
      <trkpt lat="27.697043" lon="86.724198">
        <ele>2736.4</ele>
        <time>2022-10-19T04:20:01.000Z</time>
      </trkpt>
      <trkpt lat="27.697053" lon="86.724179">
        <ele>2736.2</ele>
        <time>2022-10-19T04:20:03.000Z</time>
      </trkpt>
      <trkpt lat="27.697069" lon="86.724166">
        <ele>2735.8</ele>
        <time>2022-10-19T04:20:06.000Z</time>
      </trkpt>
      <trkpt lat="27.697082" lon="86.724141">
        <ele>2735.6</ele>
        <time>2022-10-19T04:20:09.000Z</time>
      </trkpt>
      <trkpt lat="27.697094" lon="86.724122">
        <ele>2734.6</ele>
        <time>2022-10-19T04:20:13.000Z</time>
      </trkpt>
      <trkpt lat="27.69711" lon="86.724109">
        <ele>2734.4</ele>
        <time>2022-10-19T04:20:15.000Z</time>
      </trkpt>
      <trkpt lat="27.69712" lon="86.724083">
        <ele>2733.8</ele>
        <time>2022-10-19T04:20:18.000Z</time>
      </trkpt>
      <trkpt lat="27.697126" lon="86.724058">
        <ele>2733.4</ele>
        <time>2022-10-19T04:20:21.000Z</time>
      </trkpt>
      <trkpt lat="27.697149" lon="86.724045">
        <ele>2733</ele>
        <time>2022-10-19T04:20:24.000Z</time>
      </trkpt>
      <trkpt lat="27.697171" lon="86.724032">
        <ele>2732.2</ele>
        <time>2022-10-19T04:20:26.000Z</time>
      </trkpt>
      <trkpt lat="27.697187" lon="86.724013">
        <ele>2732.2</ele>
        <time>2022-10-19T04:20:28.000Z</time>
      </trkpt>
      <trkpt lat="27.697203" lon="86.724">
        <ele>2731.6</ele>
        <time>2022-10-19T04:20:30.000Z</time>
      </trkpt>
      <trkpt lat="27.697216" lon="86.723981">
        <ele>2731.6</ele>
        <time>2022-10-19T04:20:32.000Z</time>
      </trkpt>
      <trkpt lat="27.697238" lon="86.723955">
        <ele>2731.2</ele>
        <time>2022-10-19T04:20:35.000Z</time>
      </trkpt>
      <trkpt lat="27.697245" lon="86.723936">
        <ele>2731</ele>
        <time>2022-10-19T04:20:37.000Z</time>
      </trkpt>
      <trkpt lat="27.697261" lon="86.723923">
        <ele>2731</ele>
        <time>2022-10-19T04:20:42.000Z</time>
      </trkpt>
      <trkpt lat="27.69728" lon="86.723898">
        <ele>2730.8</ele>
        <time>2022-10-19T04:21:10.000Z</time>
      </trkpt>
      <trkpt lat="27.697299" lon="86.723878">
        <ele>2730.8</ele>
        <time>2022-10-19T04:21:12.000Z</time>
      </trkpt>
      <trkpt lat="27.697318" lon="86.723853">
        <ele>2730.4</ele>
        <time>2022-10-19T04:21:14.000Z</time>
      </trkpt>
      <trkpt lat="27.697338" lon="86.723834">
        <ele>2730.4</ele>
        <time>2022-10-19T04:21:16.000Z</time>
      </trkpt>
      <trkpt lat="27.69736" lon="86.723814">
        <ele>2729.8</ele>
        <time>2022-10-19T04:21:19.000Z</time>
      </trkpt>
      <trkpt lat="27.697373" lon="86.723795">
        <ele>2729.4</ele>
        <time>2022-10-19T04:21:21.000Z</time>
      </trkpt>
      <trkpt lat="27.697389" lon="86.723776">
        <ele>2729.4</ele>
        <time>2022-10-19T04:21:23.000Z</time>
      </trkpt>
      <trkpt lat="27.697408" lon="86.723757">
        <ele>2729</ele>
        <time>2022-10-19T04:21:26.000Z</time>
      </trkpt>
      <trkpt lat="27.697418" lon="86.723731">
        <ele>2728.8</ele>
        <time>2022-10-19T04:21:28.000Z</time>
      </trkpt>
      <trkpt lat="27.697437" lon="86.723699">
        <ele>2728.6</ele>
        <time>2022-10-19T04:21:31.000Z</time>
      </trkpt>
      <trkpt lat="27.697443" lon="86.72368">
        <ele>2728.4</ele>
        <time>2022-10-19T04:21:34.000Z</time>
      </trkpt>
      <trkpt lat="27.697446" lon="86.723654">
        <ele>2728.2</ele>
        <time>2022-10-19T04:21:36.000Z</time>
      </trkpt>
      <trkpt lat="27.697453" lon="86.723635">
        <ele>2728</ele>
        <time>2022-10-19T04:21:38.000Z</time>
      </trkpt>
      <trkpt lat="27.697459" lon="86.72361">
        <ele>2728</ele>
        <time>2022-10-19T04:21:40.000Z</time>
      </trkpt>
      <trkpt lat="27.697472" lon="86.723578">
        <ele>2727.8</ele>
        <time>2022-10-19T04:21:43.000Z</time>
      </trkpt>
      <trkpt lat="27.697482" lon="86.723552">
        <ele>2727.2</ele>
        <time>2022-10-19T04:21:46.000Z</time>
      </trkpt>
      <trkpt lat="27.697488" lon="86.723533">
        <ele>2727.2</ele>
        <time>2022-10-19T04:21:48.000Z</time>
      </trkpt>
      <trkpt lat="27.697501" lon="86.723501">
        <ele>2726.8</ele>
        <time>2022-10-19T04:21:51.000Z</time>
      </trkpt>
      <trkpt lat="27.697517" lon="86.723488">
        <ele>2726.6</ele>
        <time>2022-10-19T04:21:54.000Z</time>
      </trkpt>
      <trkpt lat="27.697536" lon="86.723482">
        <ele>2726.4</ele>
        <time>2022-10-19T04:21:57.000Z</time>
      </trkpt>
      <trkpt lat="27.697546" lon="86.723462">
        <ele>2726</ele>
        <time>2022-10-19T04:22:00.000Z</time>
      </trkpt>
      <trkpt lat="27.697558" lon="86.723443">
        <ele>2725</ele>
        <time>2022-10-19T04:22:03.000Z</time>
      </trkpt>
      <trkpt lat="27.697584" lon="86.723424">
        <ele>2724.2</ele>
        <time>2022-10-19T04:22:06.000Z</time>
      </trkpt>
      <trkpt lat="27.6976" lon="86.723411">
        <ele>2724.2</ele>
        <time>2022-10-19T04:22:09.000Z</time>
      </trkpt>
      <trkpt lat="27.697616" lon="86.723386">
        <ele>2723.8</ele>
        <time>2022-10-19T04:22:12.000Z</time>
      </trkpt>
      <trkpt lat="27.697622" lon="86.72336">
        <ele>2723.8</ele>
        <time>2022-10-19T04:22:15.000Z</time>
      </trkpt>
      <trkpt lat="27.697622" lon="86.723328">
        <ele>2723.2</ele>
        <time>2022-10-19T04:22:18.000Z</time>
      </trkpt>
      <trkpt lat="27.697626" lon="86.723302">
        <ele>2722.4</ele>
        <time>2022-10-19T04:22:20.000Z</time>
      </trkpt>
      <trkpt lat="27.697635" lon="86.723283">
        <ele>2722.4</ele>
        <time>2022-10-19T04:22:22.000Z</time>
      </trkpt>
      <trkpt lat="27.697645" lon="86.723258">
        <ele>2722.4</ele>
        <time>2022-10-19T04:22:24.000Z</time>
      </trkpt>
      <trkpt lat="27.697661" lon="86.723238">
        <ele>2722.4</ele>
        <time>2022-10-19T04:22:27.000Z</time>
      </trkpt>
      <trkpt lat="27.697677" lon="86.723219">
        <ele>2722.4</ele>
        <time>2022-10-19T04:22:29.000Z</time>
      </trkpt>
      <trkpt lat="27.697696" lon="86.723206">
        <ele>2722.4</ele>
        <time>2022-10-19T04:22:31.000Z</time>
      </trkpt>
      <trkpt lat="27.697715" lon="86.7232">
        <ele>2722.4</ele>
        <time>2022-10-19T04:22:34.000Z</time>
      </trkpt>
      <trkpt lat="27.697734" lon="86.723181">
        <ele>2722.4</ele>
        <time>2022-10-19T04:22:36.000Z</time>
      </trkpt>
      <trkpt lat="27.69776" lon="86.723174">
        <ele>2721.8</ele>
        <time>2022-10-19T04:22:39.000Z</time>
      </trkpt>
      <trkpt lat="27.697776" lon="86.723162">
        <ele>2721.6</ele>
        <time>2022-10-19T04:22:41.000Z</time>
      </trkpt>
      <trkpt lat="27.697798" lon="86.723142">
        <ele>2721</ele>
        <time>2022-10-19T04:22:45.000Z</time>
      </trkpt>
      <trkpt lat="27.697824" lon="86.723136">
        <ele>2721</ele>
        <time>2022-10-19T04:22:48.000Z</time>
      </trkpt>
      <trkpt lat="27.697843" lon="86.723136">
        <ele>2720.2</ele>
        <time>2022-10-19T04:22:51.000Z</time>
      </trkpt>
      <trkpt lat="27.697862" lon="86.72313">
        <ele>2719.6</ele>
        <time>2022-10-19T04:22:54.000Z</time>
      </trkpt>
      <trkpt lat="27.697882" lon="86.723123">
        <ele>2719.4</ele>
        <time>2022-10-19T04:22:56.000Z</time>
      </trkpt>
      <trkpt lat="27.697901" lon="86.723123">
        <ele>2719.4</ele>
        <time>2022-10-19T04:22:58.000Z</time>
      </trkpt>
      <trkpt lat="27.697926" lon="86.723117">
        <ele>2719</ele>
        <time>2022-10-19T04:23:00.000Z</time>
      </trkpt>
      <trkpt lat="27.697946" lon="86.723104">
        <ele>2718.6</ele>
        <time>2022-10-19T04:23:02.000Z</time>
      </trkpt>
      <trkpt lat="27.697968" lon="86.723104">
        <ele>2717.8</ele>
        <time>2022-10-19T04:23:04.000Z</time>
      </trkpt>
      <trkpt lat="27.69799" lon="86.723091">
        <ele>2717.8</ele>
        <time>2022-10-19T04:23:06.000Z</time>
      </trkpt>
      <trkpt lat="27.698016" lon="86.723078">
        <ele>2717.2</ele>
        <time>2022-10-19T04:23:08.000Z</time>
      </trkpt>
      <trkpt lat="27.698032" lon="86.723066">
        <ele>2717.2</ele>
        <time>2022-10-19T04:23:10.000Z</time>
      </trkpt>
      <trkpt lat="27.698048" lon="86.723053">
        <ele>2717.2</ele>
        <time>2022-10-19T04:23:12.000Z</time>
      </trkpt>
      <trkpt lat="27.698067" lon="86.72304">
        <ele>2717.2</ele>
        <time>2022-10-19T04:23:14.000Z</time>
      </trkpt>
      <trkpt lat="27.698086" lon="86.723027">
        <ele>2717.4</ele>
        <time>2022-10-19T04:23:16.000Z</time>
      </trkpt>
      <trkpt lat="27.698106" lon="86.723008">
        <ele>2717.4</ele>
        <time>2022-10-19T04:23:19.000Z</time>
      </trkpt>
      <trkpt lat="27.698122" lon="86.722989">
        <ele>2717.8</ele>
        <time>2022-10-19T04:23:21.000Z</time>
      </trkpt>
      <trkpt lat="27.698138" lon="86.72297">
        <ele>2718</ele>
        <time>2022-10-19T04:23:24.000Z</time>
      </trkpt>
      <trkpt lat="27.698154" lon="86.722944">
        <ele>2718</ele>
        <time>2022-10-19T04:23:26.000Z</time>
      </trkpt>
      <trkpt lat="27.698176" lon="86.722931">
        <ele>2717.8</ele>
        <time>2022-10-19T04:23:29.000Z</time>
      </trkpt>
      <trkpt lat="27.698192" lon="86.722906">
        <ele>2717.8</ele>
        <time>2022-10-19T04:23:31.000Z</time>
      </trkpt>
      <trkpt lat="27.698211" lon="86.72288">
        <ele>2717.2</ele>
        <time>2022-10-19T04:23:34.000Z</time>
      </trkpt>
      <trkpt lat="27.698221" lon="86.722861">
        <ele>2717</ele>
        <time>2022-10-19T04:23:35.000Z</time>
      </trkpt>
      <trkpt lat="27.69823" lon="86.722842">
        <ele>2716.8</ele>
        <time>2022-10-19T04:23:37.000Z</time>
      </trkpt>
      <trkpt lat="27.698237" lon="86.722816">
        <ele>2716.4</ele>
        <time>2022-10-19T04:23:39.000Z</time>
      </trkpt>
      <trkpt lat="27.698246" lon="86.72279">
        <ele>2716.2</ele>
        <time>2022-10-19T04:23:41.000Z</time>
      </trkpt>
      <trkpt lat="27.698266" lon="86.722771">
        <ele>2716</ele>
        <time>2022-10-19T04:23:44.000Z</time>
      </trkpt>
      <trkpt lat="27.698285" lon="86.722739">
        <ele>2715.4</ele>
        <time>2022-10-19T04:23:47.000Z</time>
      </trkpt>
      <trkpt lat="27.698291" lon="86.72272">
        <ele>2715.2</ele>
        <time>2022-10-19T04:23:49.000Z</time>
      </trkpt>
      <trkpt lat="27.698301" lon="86.722701">
        <ele>2715.2</ele>
        <time>2022-10-19T04:23:51.000Z</time>
      </trkpt>
      <trkpt lat="27.69831" lon="86.722682">
        <ele>2715.2</ele>
        <time>2022-10-19T04:23:53.000Z</time>
      </trkpt>
      <trkpt lat="27.69833" lon="86.722662">
        <ele>2715.4</ele>
        <time>2022-10-19T04:23:56.000Z</time>
      </trkpt>
      <trkpt lat="27.698346" lon="86.722643">
        <ele>2715.8</ele>
        <time>2022-10-19T04:23:59.000Z</time>
      </trkpt>
      <trkpt lat="27.698352" lon="86.722618">
        <ele>2716</ele>
        <time>2022-10-19T04:24:01.000Z</time>
      </trkpt>
      <trkpt lat="27.698374" lon="86.722598">
        <ele>2716.4</ele>
        <time>2022-10-19T04:24:04.000Z</time>
      </trkpt>
      <trkpt lat="27.698394" lon="86.722579">
        <ele>2716.4</ele>
        <time>2022-10-19T04:24:06.000Z</time>
      </trkpt>
      <trkpt lat="27.698413" lon="86.722566">
        <ele>2716.6</ele>
        <time>2022-10-19T04:24:08.000Z</time>
      </trkpt>
      <trkpt lat="27.698429" lon="86.722541">
        <ele>2716.4</ele>
        <time>2022-10-19T04:24:10.000Z</time>
      </trkpt>
      <trkpt lat="27.698454" lon="86.722534">
        <ele>2716.2</ele>
        <time>2022-10-19T04:24:12.000Z</time>
      </trkpt>
      <trkpt lat="27.698474" lon="86.722528">
        <ele>2716.2</ele>
        <time>2022-10-19T04:24:14.000Z</time>
      </trkpt>
      <trkpt lat="27.698486" lon="86.722502">
        <ele>2716.2</ele>
        <time>2022-10-19T04:24:16.000Z</time>
      </trkpt>
      <trkpt lat="27.698502" lon="86.722483">
        <ele>2715.8</ele>
        <time>2022-10-19T04:24:18.000Z</time>
      </trkpt>
      <trkpt lat="27.698525" lon="86.722464">
        <ele>2715.8</ele>
        <time>2022-10-19T04:24:20.000Z</time>
      </trkpt>
      <trkpt lat="27.698544" lon="86.722451">
        <ele>2715.6</ele>
        <time>2022-10-19T04:24:23.000Z</time>
      </trkpt>
      <trkpt lat="27.698563" lon="86.722432">
        <ele>2715.6</ele>
        <time>2022-10-19T04:24:25.000Z</time>
      </trkpt>
      <trkpt lat="27.698589" lon="86.722419">
        <ele>2715.6</ele>
        <time>2022-10-19T04:24:27.000Z</time>
      </trkpt>
      <trkpt lat="27.698614" lon="86.7224">
        <ele>2715.8</ele>
        <time>2022-10-19T04:24:30.000Z</time>
      </trkpt>
      <trkpt lat="27.698627" lon="86.722374">
        <ele>2715.6</ele>
        <time>2022-10-19T04:24:32.000Z</time>
      </trkpt>
      <trkpt lat="27.69865" lon="86.722342">
        <ele>2715.6</ele>
        <time>2022-10-19T04:24:35.000Z</time>
      </trkpt>
      <trkpt lat="27.698672" lon="86.72233">
        <ele>2715.8</ele>
        <time>2022-10-19T04:24:38.000Z</time>
      </trkpt>
      <trkpt lat="27.698682" lon="86.72231">
        <ele>2715.8</ele>
        <time>2022-10-19T04:24:39.000Z</time>
      </trkpt>
      <trkpt lat="27.698701" lon="86.722285">
        <ele>2716</ele>
        <time>2022-10-19T04:24:42.000Z</time>
      </trkpt>
      <trkpt lat="27.69872" lon="86.722272">
        <ele>2715.8</ele>
        <time>2022-10-19T04:24:44.000Z</time>
      </trkpt>
      <trkpt lat="27.698739" lon="86.722253">
        <ele>2715.8</ele>
        <time>2022-10-19T04:24:46.000Z</time>
      </trkpt>
      <trkpt lat="27.698755" lon="86.722234">
        <ele>2715.8</ele>
        <time>2022-10-19T04:24:48.000Z</time>
      </trkpt>
      <trkpt lat="27.698774" lon="86.722234">
        <ele>2715.8</ele>
        <time>2022-10-19T04:24:50.000Z</time>
      </trkpt>
      <trkpt lat="27.69879" lon="86.722214">
        <ele>2716.2</ele>
        <time>2022-10-19T04:24:52.000Z</time>
      </trkpt>
      <trkpt lat="27.6988" lon="86.722189">
        <ele>2716.8</ele>
        <time>2022-10-19T04:24:54.000Z</time>
      </trkpt>
      <trkpt lat="27.69881" lon="86.72217">
        <ele>2717</ele>
        <time>2022-10-19T04:24:56.000Z</time>
      </trkpt>
      <trkpt lat="27.698819" lon="86.72215">
        <ele>2717</ele>
        <time>2022-10-19T04:24:58.000Z</time>
      </trkpt>
      <trkpt lat="27.698864" lon="86.722099">
        <ele>2716.8</ele>
        <time>2022-10-19T04:25:04.000Z</time>
      </trkpt>
      <trkpt lat="27.698877" lon="86.722074">
        <ele>2716.8</ele>
        <time>2022-10-19T04:25:06.000Z</time>
      </trkpt>
      <trkpt lat="27.698896" lon="86.722061">
        <ele>2716.8</ele>
        <time>2022-10-19T04:25:08.000Z</time>
      </trkpt>
      <trkpt lat="27.698918" lon="86.722035">
        <ele>2716.4</ele>
        <time>2022-10-19T04:25:11.000Z</time>
      </trkpt>
      <trkpt lat="27.698941" lon="86.722035">
        <ele>2716.2</ele>
        <time>2022-10-19T04:25:13.000Z</time>
      </trkpt>
      <trkpt lat="27.69896" lon="86.722022">
        <ele>2716.2</ele>
        <time>2022-10-19T04:25:15.000Z</time>
      </trkpt>
      <trkpt lat="27.698979" lon="86.722016">
        <ele>2716.2</ele>
        <time>2022-10-19T04:25:17.000Z</time>
      </trkpt>
      <trkpt lat="27.698998" lon="86.722003">
        <ele>2716.2</ele>
        <time>2022-10-19T04:25:19.000Z</time>
      </trkpt>
      <trkpt lat="27.699018" lon="86.721984">
        <ele>2716.2</ele>
        <time>2022-10-19T04:25:21.000Z</time>
      </trkpt>
      <trkpt lat="27.69904" lon="86.721971">
        <ele>2716</ele>
        <time>2022-10-19T04:25:24.000Z</time>
      </trkpt>
      <trkpt lat="27.699056" lon="86.721952">
        <ele>2716</ele>
        <time>2022-10-19T04:25:26.000Z</time>
      </trkpt>
      <trkpt lat="27.699075" lon="86.721933">
        <ele>2716.2</ele>
        <time>2022-10-19T04:25:29.000Z</time>
      </trkpt>
      <trkpt lat="27.699085" lon="86.721907">
        <ele>2716.2</ele>
        <time>2022-10-19T04:25:31.000Z</time>
      </trkpt>
      <trkpt lat="27.699104" lon="86.721888">
        <ele>2716.2</ele>
        <time>2022-10-19T04:25:34.000Z</time>
      </trkpt>
      <trkpt lat="27.699117" lon="86.721869">
        <ele>2716</ele>
        <time>2022-10-19T04:25:36.000Z</time>
      </trkpt>
      <trkpt lat="27.699126" lon="86.72185">
        <ele>2715.8</ele>
        <time>2022-10-19T04:25:38.000Z</time>
      </trkpt>
      <trkpt lat="27.699139" lon="86.72183">
        <ele>2715.6</ele>
        <time>2022-10-19T04:25:40.000Z</time>
      </trkpt>
      <trkpt lat="27.699155" lon="86.721818">
        <ele>2715.6</ele>
        <time>2022-10-19T04:25:42.000Z</time>
      </trkpt>
      <trkpt lat="27.699171" lon="86.721792">
        <ele>2715.4</ele>
        <time>2022-10-19T04:25:45.000Z</time>
      </trkpt>
      <trkpt lat="27.69919" lon="86.721779">
        <ele>2716.2</ele>
        <time>2022-10-19T04:25:49.000Z</time>
      </trkpt>
      <trkpt lat="27.699206" lon="86.721766">
        <ele>2717</ele>
        <time>2022-10-19T04:25:52.000Z</time>
      </trkpt>
      <trkpt lat="27.699216" lon="86.721747">
        <ele>2717.2</ele>
        <time>2022-10-19T04:25:54.000Z</time>
      </trkpt>
      <trkpt lat="27.699232" lon="86.721715">
        <ele>2717.2</ele>
        <time>2022-10-19T04:25:57.000Z</time>
      </trkpt>
      <trkpt lat="27.699248" lon="86.721696">
        <ele>2717.6</ele>
        <time>2022-10-19T04:26:00.000Z</time>
      </trkpt>
      <trkpt lat="27.699258" lon="86.72167">
        <ele>2717.2</ele>
        <time>2022-10-19T04:26:02.000Z</time>
      </trkpt>
      <trkpt lat="27.699267" lon="86.721651">
        <ele>2717.2</ele>
        <time>2022-10-19T04:26:04.000Z</time>
      </trkpt>
      <trkpt lat="27.699274" lon="86.721626">
        <ele>2717.2</ele>
        <time>2022-10-19T04:26:05.000Z</time>
      </trkpt>
      <trkpt lat="27.699286" lon="86.721606">
        <ele>2717.2</ele>
        <time>2022-10-19T04:26:08.000Z</time>
      </trkpt>
      <trkpt lat="27.699299" lon="86.721581">
        <ele>2717.2</ele>
        <time>2022-10-19T04:26:11.000Z</time>
      </trkpt>
      <trkpt lat="27.699309" lon="86.721549">
        <ele>2717.2</ele>
        <time>2022-10-19T04:26:14.000Z</time>
      </trkpt>
      <trkpt lat="27.699315" lon="86.72153">
        <ele>2717</ele>
        <time>2022-10-19T04:26:16.000Z</time>
      </trkpt>
      <trkpt lat="27.699325" lon="86.72151">
        <ele>2717</ele>
        <time>2022-10-19T04:26:17.000Z</time>
      </trkpt>
      <trkpt lat="27.699331" lon="86.721478">
        <ele>2717.2</ele>
        <time>2022-10-19T04:26:20.000Z</time>
      </trkpt>
      <trkpt lat="27.699341" lon="86.721459">
        <ele>2717.2</ele>
        <time>2022-10-19T04:26:22.000Z</time>
      </trkpt>
      <trkpt lat="27.699354" lon="86.721434">
        <ele>2717.4</ele>
        <time>2022-10-19T04:26:24.000Z</time>
      </trkpt>
      <trkpt lat="27.699366" lon="86.721414">
        <ele>2717.8</ele>
        <time>2022-10-19T04:26:27.000Z</time>
      </trkpt>
      <trkpt lat="27.699382" lon="86.721395">
        <ele>2717.8</ele>
        <time>2022-10-19T04:26:29.000Z</time>
      </trkpt>
      <trkpt lat="27.699395" lon="86.721376">
        <ele>2718.2</ele>
        <time>2022-10-19T04:26:33.000Z</time>
      </trkpt>
      <trkpt lat="27.699418" lon="86.72137">
        <ele>2718.2</ele>
        <time>2022-10-19T04:26:36.000Z</time>
      </trkpt>
      <trkpt lat="27.699437" lon="86.72135">
        <ele>2718.2</ele>
        <time>2022-10-19T04:26:38.000Z</time>
      </trkpt>
      <trkpt lat="27.699456" lon="86.721338">
        <ele>2718.8</ele>
        <time>2022-10-19T04:26:40.000Z</time>
      </trkpt>
      <trkpt lat="27.699485" lon="86.721331">
        <ele>2718.8</ele>
        <time>2022-10-19T04:26:42.000Z</time>
      </trkpt>
      <trkpt lat="27.699507" lon="86.721331">
        <ele>2718.6</ele>
        <time>2022-10-19T04:26:45.000Z</time>
      </trkpt>
      <trkpt lat="27.699526" lon="86.72135">
        <ele>2718.2</ele>
        <time>2022-10-19T04:26:55.000Z</time>
      </trkpt>
      <trkpt lat="27.699504" lon="86.721344">
        <ele>2715</ele>
        <time>2022-10-19T04:31:24.000Z</time>
      </trkpt>
      <trkpt lat="27.69952" lon="86.721318">
        <ele>2715.8</ele>
        <time>2022-10-19T04:31:26.000Z</time>
      </trkpt>
      <trkpt lat="27.699542" lon="86.721293">
        <ele>2715.4</ele>
        <time>2022-10-19T04:31:28.000Z</time>
      </trkpt>
      <trkpt lat="27.699562" lon="86.721274">
        <ele>2715.2</ele>
        <time>2022-10-19T04:31:30.000Z</time>
      </trkpt>
      <trkpt lat="27.699587" lon="86.721254">
        <ele>2715.2</ele>
        <time>2022-10-19T04:31:32.000Z</time>
      </trkpt>
      <trkpt lat="27.699606" lon="86.721248">
        <ele>2714.6</ele>
        <time>2022-10-19T04:31:34.000Z</time>
      </trkpt>
      <trkpt lat="27.699616" lon="86.721229">
        <ele>2714.4</ele>
        <time>2022-10-19T04:31:35.000Z</time>
      </trkpt>
      <trkpt lat="27.699629" lon="86.72121">
        <ele>2714.2</ele>
        <time>2022-10-19T04:31:42.000Z</time>
      </trkpt>
      <trkpt lat="27.699642" lon="86.72119">
        <ele>2714.4</ele>
        <time>2022-10-19T04:31:59.000Z</time>
      </trkpt>
      <trkpt lat="27.699664" lon="86.721171">
        <ele>2714.2</ele>
        <time>2022-10-19T04:32:01.000Z</time>
      </trkpt>
      <trkpt lat="27.69969" lon="86.721152">
        <ele>2714</ele>
        <time>2022-10-19T04:32:03.000Z</time>
      </trkpt>
      <trkpt lat="27.699712" lon="86.721133">
        <ele>2714</ele>
        <time>2022-10-19T04:32:05.000Z</time>
      </trkpt>
      <trkpt lat="27.699725" lon="86.721114">
        <ele>2714</ele>
        <time>2022-10-19T04:32:07.000Z</time>
      </trkpt>
      <trkpt lat="27.699741" lon="86.721094">
        <ele>2714</ele>
        <time>2022-10-19T04:32:09.000Z</time>
      </trkpt>
      <trkpt lat="27.699763" lon="86.721069">
        <ele>2713.6</ele>
        <time>2022-10-19T04:32:12.000Z</time>
      </trkpt>
      <trkpt lat="27.699782" lon="86.721056">
        <ele>2713.6</ele>
        <time>2022-10-19T04:32:14.000Z</time>
      </trkpt>
      <trkpt lat="27.699802" lon="86.72105">
        <ele>2713.6</ele>
        <time>2022-10-19T04:32:16.000Z</time>
      </trkpt>
      <trkpt lat="27.699821" lon="86.72103">
        <ele>2713.6</ele>
        <time>2022-10-19T04:32:18.000Z</time>
      </trkpt>
      <trkpt lat="27.69984" lon="86.721024">
        <ele>2713.4</ele>
        <time>2022-10-19T04:32:20.000Z</time>
      </trkpt>
      <trkpt lat="27.699856" lon="86.721011">
        <ele>2713</ele>
        <time>2022-10-19T04:32:22.000Z</time>
      </trkpt>
      <trkpt lat="27.699869" lon="86.720992">
        <ele>2712.8</ele>
        <time>2022-10-19T04:32:24.000Z</time>
      </trkpt>
      <trkpt lat="27.699885" lon="86.720973">
        <ele>2712.6</ele>
        <time>2022-10-19T04:32:26.000Z</time>
      </trkpt>
      <trkpt lat="27.699901" lon="86.720954">
        <ele>2712.6</ele>
        <time>2022-10-19T04:32:28.000Z</time>
      </trkpt>
      <trkpt lat="27.699923" lon="86.720941">
        <ele>2712.4</ele>
        <time>2022-10-19T04:32:30.000Z</time>
      </trkpt>
      <trkpt lat="27.699933" lon="86.720922">
        <ele>2712.4</ele>
        <time>2022-10-19T04:32:31.000Z</time>
      </trkpt>
      <trkpt lat="27.699949" lon="86.720902">
        <ele>2712.6</ele>
        <time>2022-10-19T04:32:34.000Z</time>
      </trkpt>
      <trkpt lat="27.699958" lon="86.720883">
        <ele>2712.6</ele>
        <time>2022-10-19T04:32:35.000Z</time>
      </trkpt>
      <trkpt lat="27.699974" lon="86.72087">
        <ele>2712.6</ele>
        <time>2022-10-19T04:32:38.000Z</time>
      </trkpt>
      <trkpt lat="27.69999" lon="86.720858">
        <ele>2712.4</ele>
        <time>2022-10-19T04:32:41.000Z</time>
      </trkpt>
      <trkpt lat="27.700003" lon="86.720838">
        <ele>2712.4</ele>
        <time>2022-10-19T04:32:43.000Z</time>
      </trkpt>
      <trkpt lat="27.700019" lon="86.720826">
        <ele>2712</ele>
        <time>2022-10-19T04:32:47.000Z</time>
      </trkpt>
      <trkpt lat="27.700038" lon="86.7208">
        <ele>2711.8</ele>
        <time>2022-10-19T04:32:50.000Z</time>
      </trkpt>
      <trkpt lat="27.700051" lon="86.720781">
        <ele>2711</ele>
        <time>2022-10-19T04:32:54.000Z</time>
      </trkpt>
      <trkpt lat="27.700054" lon="86.720755">
        <ele>2710.6</ele>
        <time>2022-10-19T04:32:57.000Z</time>
      </trkpt>
      <trkpt lat="27.70007" lon="86.720742">
        <ele>2710.4</ele>
        <time>2022-10-19T04:32:59.000Z</time>
      </trkpt>
      <trkpt lat="27.70009" lon="86.720736">
        <ele>2710</ele>
        <time>2022-10-19T04:33:01.000Z</time>
      </trkpt>
      <trkpt lat="27.700112" lon="86.720717">
        <ele>2710</ele>
        <time>2022-10-19T04:33:03.000Z</time>
      </trkpt>
      <trkpt lat="27.700128" lon="86.720704">
        <ele>2709.8</ele>
        <time>2022-10-19T04:33:05.000Z</time>
      </trkpt>
      <trkpt lat="27.700147" lon="86.720704">
        <ele>2709.6</ele>
        <time>2022-10-19T04:33:07.000Z</time>
      </trkpt>
      <trkpt lat="27.700163" lon="86.720685">
        <ele>2709.8</ele>
        <time>2022-10-19T04:33:10.000Z</time>
      </trkpt>
      <trkpt lat="27.700176" lon="86.720666">
        <ele>2709.8</ele>
        <time>2022-10-19T04:33:12.000Z</time>
      </trkpt>
      <trkpt lat="27.700192" lon="86.720653">
        <ele>2709.8</ele>
        <time>2022-10-19T04:33:14.000Z</time>
      </trkpt>
      <trkpt lat="27.700208" lon="86.720634">
        <ele>2709.6</ele>
        <time>2022-10-19T04:33:16.000Z</time>
      </trkpt>
      <trkpt lat="27.70023" lon="86.720621">
        <ele>2709.4</ele>
        <time>2022-10-19T04:33:18.000Z</time>
      </trkpt>
      <trkpt lat="27.700253" lon="86.720602">
        <ele>2709.4</ele>
        <time>2022-10-19T04:33:20.000Z</time>
      </trkpt>
      <trkpt lat="27.700272" lon="86.720589">
        <ele>2709.4</ele>
        <time>2022-10-19T04:33:22.000Z</time>
      </trkpt>
      <trkpt lat="27.700294" lon="86.720576">
        <ele>2709.4</ele>
        <time>2022-10-19T04:33:25.000Z</time>
      </trkpt>
      <trkpt lat="27.700314" lon="86.720557">
        <ele>2709.6</ele>
        <time>2022-10-19T04:33:27.000Z</time>
      </trkpt>
      <trkpt lat="27.700336" lon="86.720544">
        <ele>2709.6</ele>
        <time>2022-10-19T04:33:29.000Z</time>
      </trkpt>
      <trkpt lat="27.700362" lon="86.720544">
        <ele>2709.6</ele>
        <time>2022-10-19T04:33:32.000Z</time>
      </trkpt>
      <trkpt lat="27.700368" lon="86.720525">
        <ele>2709.6</ele>
        <time>2022-10-19T04:33:33.000Z</time>
      </trkpt>
      <trkpt lat="27.70039" lon="86.720512">
        <ele>2709.8</ele>
        <time>2022-10-19T04:33:35.000Z</time>
      </trkpt>
      <trkpt lat="27.70041" lon="86.720512">
        <ele>2709.6</ele>
        <time>2022-10-19T04:33:38.000Z</time>
      </trkpt>
      <trkpt lat="27.700429" lon="86.720506">
        <ele>2709.6</ele>
        <time>2022-10-19T04:33:40.000Z</time>
      </trkpt>
      <trkpt lat="27.700438" lon="86.720486">
        <ele>2709.8</ele>
        <time>2022-10-19T04:33:42.000Z</time>
      </trkpt>
      <trkpt lat="27.700445" lon="86.720467">
        <ele>2709.8</ele>
        <time>2022-10-19T04:33:48.000Z</time>
      </trkpt>
      <trkpt lat="27.700448" lon="86.720442">
        <ele>2709.8</ele>
        <time>2022-10-19T04:33:51.000Z</time>
      </trkpt>
      <trkpt lat="27.700467" lon="86.720435">
        <ele>2710.4</ele>
        <time>2022-10-19T04:33:57.000Z</time>
      </trkpt>
      <trkpt lat="27.700483" lon="86.720422">
        <ele>2710.4</ele>
        <time>2022-10-19T04:34:01.000Z</time>
      </trkpt>
      <trkpt lat="27.70049" lon="86.720403">
        <ele>2710.4</ele>
        <time>2022-10-19T04:34:03.000Z</time>
      </trkpt>
      <trkpt lat="27.700515" lon="86.720397">
        <ele>2710.4</ele>
        <time>2022-10-19T04:34:06.000Z</time>
      </trkpt>
      <trkpt lat="27.700534" lon="86.720384">
        <ele>2710.4</ele>
        <time>2022-10-19T04:34:09.000Z</time>
      </trkpt>
      <trkpt lat="27.700541" lon="86.720365">
        <ele>2710.4</ele>
        <time>2022-10-19T04:34:10.000Z</time>
      </trkpt>
      <trkpt lat="27.700547" lon="86.720346">
        <ele>2710.4</ele>
        <time>2022-10-19T04:34:13.000Z</time>
      </trkpt>
      <trkpt lat="27.700544" lon="86.72032">
        <ele>2711</ele>
        <time>2022-10-19T04:34:16.000Z</time>
      </trkpt>
      <trkpt lat="27.700554" lon="86.720301">
        <ele>2711.2</ele>
        <time>2022-10-19T04:34:18.000Z</time>
      </trkpt>
      <trkpt lat="27.70056" lon="86.720282">
        <ele>2711.6</ele>
        <time>2022-10-19T04:34:20.000Z</time>
      </trkpt>
      <trkpt lat="27.700566" lon="86.720262">
        <ele>2711.2</ele>
        <time>2022-10-19T04:34:22.000Z</time>
      </trkpt>
      <trkpt lat="27.70057" lon="86.720237">
        <ele>2711</ele>
        <time>2022-10-19T04:34:24.000Z</time>
      </trkpt>
      <trkpt lat="27.700586" lon="86.720224">
        <ele>2711.2</ele>
        <time>2022-10-19T04:34:26.000Z</time>
      </trkpt>
      <trkpt lat="27.700595" lon="86.720205">
        <ele>2711.2</ele>
        <time>2022-10-19T04:34:28.000Z</time>
      </trkpt>
      <trkpt lat="27.700614" lon="86.720192">
        <ele>2711.2</ele>
        <time>2022-10-19T04:34:31.000Z</time>
      </trkpt>
      <trkpt lat="27.700637" lon="86.720179">
        <ele>2711.2</ele>
        <time>2022-10-19T04:34:34.000Z</time>
      </trkpt>
      <trkpt lat="27.70065" lon="86.720154">
        <ele>2711.6</ele>
        <time>2022-10-19T04:34:37.000Z</time>
      </trkpt>
      <trkpt lat="27.700669" lon="86.720122">
        <ele>2712.2</ele>
        <time>2022-10-19T04:34:40.000Z</time>
      </trkpt>
      <trkpt lat="27.700688" lon="86.720109">
        <ele>2712.2</ele>
        <time>2022-10-19T04:34:42.000Z</time>
      </trkpt>
      <trkpt lat="27.700701" lon="86.72009">
        <ele>2712.2</ele>
        <time>2022-10-19T04:34:44.000Z</time>
      </trkpt>
      <trkpt lat="27.700723" lon="86.720077">
        <ele>2712.2</ele>
        <time>2022-10-19T04:34:46.000Z</time>
      </trkpt>
      <trkpt lat="27.700742" lon="86.720058">
        <ele>2712.6</ele>
        <time>2022-10-19T04:34:49.000Z</time>
      </trkpt>
      <trkpt lat="27.700765" lon="86.720032">
        <ele>2712.6</ele>
        <time>2022-10-19T04:34:52.000Z</time>
      </trkpt>
      <trkpt lat="27.700781" lon="86.720006">
        <ele>2713</ele>
        <time>2022-10-19T04:34:55.000Z</time>
      </trkpt>
      <trkpt lat="27.700803" lon="86.72">
        <ele>2713.2</ele>
        <time>2022-10-19T04:35:04.000Z</time>
      </trkpt>
      <trkpt lat="27.700819" lon="86.719987">
        <ele>2713</ele>
        <time>2022-10-19T04:35:07.000Z</time>
      </trkpt>
      <trkpt lat="27.700832" lon="86.719968">
        <ele>2713</ele>
        <time>2022-10-19T04:35:09.000Z</time>
      </trkpt>
      <trkpt lat="27.700854" lon="86.719955">
        <ele>2713</ele>
        <time>2022-10-19T04:35:12.000Z</time>
      </trkpt>
      <trkpt lat="27.70087" lon="86.719942">
        <ele>2712.4</ele>
        <time>2022-10-19T04:35:14.000Z</time>
      </trkpt>
      <trkpt lat="27.700886" lon="86.71993">
        <ele>2712.2</ele>
        <time>2022-10-19T04:35:16.000Z</time>
      </trkpt>
      <trkpt lat="27.700912" lon="86.719923">
        <ele>2712</ele>
        <time>2022-10-19T04:35:18.000Z</time>
      </trkpt>
      <trkpt lat="27.700931" lon="86.719917">
        <ele>2712</ele>
        <time>2022-10-19T04:35:20.000Z</time>
      </trkpt>
      <trkpt lat="27.700954" lon="86.719904">
        <ele>2712</ele>
        <time>2022-10-19T04:35:23.000Z</time>
      </trkpt>
      <trkpt lat="27.700976" lon="86.719885">
        <ele>2712</ele>
        <time>2022-10-19T04:35:26.000Z</time>
      </trkpt>
      <trkpt lat="27.700995" lon="86.719866">
        <ele>2712</ele>
        <time>2022-10-19T04:35:29.000Z</time>
      </trkpt>
      <trkpt lat="27.701011" lon="86.719846">
        <ele>2711.6</ele>
        <time>2022-10-19T04:35:32.000Z</time>
      </trkpt>
      <trkpt lat="27.701034" lon="86.719827">
        <ele>2711.4</ele>
        <time>2022-10-19T04:35:35.000Z</time>
      </trkpt>
      <trkpt lat="27.701053" lon="86.719808">
        <ele>2711.2</ele>
        <time>2022-10-19T04:35:37.000Z</time>
      </trkpt>
      <trkpt lat="27.701072" lon="86.719795">
        <ele>2711</ele>
        <time>2022-10-19T04:35:39.000Z</time>
      </trkpt>
      <trkpt lat="27.701091" lon="86.719789">
        <ele>2710.6</ele>
        <time>2022-10-19T04:35:41.000Z</time>
      </trkpt>
      <trkpt lat="27.70111" lon="86.719782">
        <ele>2710.6</ele>
        <time>2022-10-19T04:35:43.000Z</time>
      </trkpt>
      <trkpt lat="27.701123" lon="86.719763">
        <ele>2710.8</ele>
        <time>2022-10-19T04:35:45.000Z</time>
      </trkpt>
      <trkpt lat="27.701146" lon="86.71975">
        <ele>2710.4</ele>
        <time>2022-10-19T04:35:48.000Z</time>
      </trkpt>
      <trkpt lat="27.701162" lon="86.719731">
        <ele>2709.6</ele>
        <time>2022-10-19T04:35:51.000Z</time>
      </trkpt>
      <trkpt lat="27.701171" lon="86.719706">
        <ele>2709</ele>
        <time>2022-10-19T04:35:55.000Z</time>
      </trkpt>
      <trkpt lat="27.701184" lon="86.71968">
        <ele>2709.2</ele>
        <time>2022-10-19T04:35:57.000Z</time>
      </trkpt>
      <trkpt lat="27.70119" lon="86.719661">
        <ele>2709</ele>
        <time>2022-10-19T04:35:59.000Z</time>
      </trkpt>
      <trkpt lat="27.701203" lon="86.719635">
        <ele>2708.8</ele>
        <time>2022-10-19T04:36:01.000Z</time>
      </trkpt>
      <trkpt lat="27.701226" lon="86.719629">
        <ele>2708.6</ele>
        <time>2022-10-19T04:36:03.000Z</time>
      </trkpt>
      <trkpt lat="27.701242" lon="86.71961">
        <ele>2708.2</ele>
        <time>2022-10-19T04:36:05.000Z</time>
      </trkpt>
      <trkpt lat="27.70127" lon="86.71959">
        <ele>2708.2</ele>
        <time>2022-10-19T04:36:08.000Z</time>
      </trkpt>
      <trkpt lat="27.701293" lon="86.719571">
        <ele>2707.8</ele>
        <time>2022-10-19T04:36:11.000Z</time>
      </trkpt>
      <trkpt lat="27.701312" lon="86.719558">
        <ele>2708</ele>
        <time>2022-10-19T04:36:14.000Z</time>
      </trkpt>
      <trkpt lat="27.701328" lon="86.719546">
        <ele>2708.4</ele>
        <time>2022-10-19T04:36:16.000Z</time>
      </trkpt>
      <trkpt lat="27.701344" lon="86.719526">
        <ele>2708.2</ele>
        <time>2022-10-19T04:36:18.000Z</time>
      </trkpt>
      <trkpt lat="27.70136" lon="86.719514">
        <ele>2707.8</ele>
        <time>2022-10-19T04:36:21.000Z</time>
      </trkpt>
      <trkpt lat="27.701373" lon="86.719488">
        <ele>2707.2</ele>
        <time>2022-10-19T04:36:23.000Z</time>
      </trkpt>
      <trkpt lat="27.701392" lon="86.719475">
        <ele>2706.8</ele>
        <time>2022-10-19T04:36:25.000Z</time>
      </trkpt>
      <trkpt lat="27.701408" lon="86.719462">
        <ele>2706.8</ele>
        <time>2022-10-19T04:36:27.000Z</time>
      </trkpt>
      <trkpt lat="27.701424" lon="86.71945">
        <ele>2706.6</ele>
        <time>2022-10-19T04:36:29.000Z</time>
      </trkpt>
      <trkpt lat="27.70144" lon="86.719437">
        <ele>2706.4</ele>
        <time>2022-10-19T04:36:31.000Z</time>
      </trkpt>
      <trkpt lat="27.701453" lon="86.719411">
        <ele>2706</ele>
        <time>2022-10-19T04:36:33.000Z</time>
      </trkpt>
      <trkpt lat="27.701469" lon="86.719386">
        <ele>2705.4</ele>
        <time>2022-10-19T04:36:36.000Z</time>
      </trkpt>
      <trkpt lat="27.701482" lon="86.71936">
        <ele>2705.4</ele>
        <time>2022-10-19T04:36:38.000Z</time>
      </trkpt>
      <trkpt lat="27.701498" lon="86.719328">
        <ele>2705.2</ele>
        <time>2022-10-19T04:36:41.000Z</time>
      </trkpt>
      <trkpt lat="27.70152" lon="86.719309">
        <ele>2704.8</ele>
        <time>2022-10-19T04:36:44.000Z</time>
      </trkpt>
      <trkpt lat="27.701533" lon="86.71929">
        <ele>2705</ele>
        <time>2022-10-19T04:36:46.000Z</time>
      </trkpt>
      <trkpt lat="27.701552" lon="86.71927">
        <ele>2704.4</ele>
        <time>2022-10-19T04:36:49.000Z</time>
      </trkpt>
      <trkpt lat="27.701574" lon="86.719245">
        <ele>2704.2</ele>
        <time>2022-10-19T04:36:52.000Z</time>
      </trkpt>
      <trkpt lat="27.7016" lon="86.719232">
        <ele>2703.8</ele>
        <time>2022-10-19T04:36:55.000Z</time>
      </trkpt>
      <trkpt lat="27.701619" lon="86.719213">
        <ele>2703.4</ele>
        <time>2022-10-19T04:36:57.000Z</time>
      </trkpt>
      <trkpt lat="27.701642" lon="86.719194">
        <ele>2703.2</ele>
        <time>2022-10-19T04:37:00.000Z</time>
      </trkpt>
      <trkpt lat="27.701658" lon="86.719174">
        <ele>2703</ele>
        <time>2022-10-19T04:37:02.000Z</time>
      </trkpt>
      <trkpt lat="27.701667" lon="86.719155">
        <ele>2702.8</ele>
        <time>2022-10-19T04:37:04.000Z</time>
      </trkpt>
      <trkpt lat="27.701683" lon="86.719136">
        <ele>2702.6</ele>
        <time>2022-10-19T04:37:07.000Z</time>
      </trkpt>
      <trkpt lat="27.701686" lon="86.71911">
        <ele>2702.2</ele>
        <time>2022-10-19T04:37:19.000Z</time>
      </trkpt>
      <trkpt lat="27.701693" lon="86.719091">
        <ele>2702.4</ele>
        <time>2022-10-19T04:37:21.000Z</time>
      </trkpt>
      <trkpt lat="27.701712" lon="86.719078">
        <ele>2702.2</ele>
        <time>2022-10-19T04:37:24.000Z</time>
      </trkpt>
      <trkpt lat="27.701728" lon="86.719066">
        <ele>2702.2</ele>
        <time>2022-10-19T04:37:26.000Z</time>
      </trkpt>
      <trkpt lat="27.701738" lon="86.719046">
        <ele>2702</ele>
        <time>2022-10-19T04:37:27.000Z</time>
      </trkpt>
      <trkpt lat="27.70175" lon="86.719027">
        <ele>2702</ele>
        <time>2022-10-19T04:37:29.000Z</time>
      </trkpt>
      <trkpt lat="27.70177" lon="86.719008">
        <ele>2702</ele>
        <time>2022-10-19T04:37:31.000Z</time>
      </trkpt>
      <trkpt lat="27.701789" lon="86.718995">
        <ele>2702</ele>
        <time>2022-10-19T04:37:34.000Z</time>
      </trkpt>
      <trkpt lat="27.701805" lon="86.71897">
        <ele>2702.2</ele>
        <time>2022-10-19T04:37:36.000Z</time>
      </trkpt>
      <trkpt lat="27.701821" lon="86.718957">
        <ele>2702.2</ele>
        <time>2022-10-19T04:37:38.000Z</time>
      </trkpt>
      <trkpt lat="27.701837" lon="86.718938">
        <ele>2702</ele>
        <time>2022-10-19T04:37:40.000Z</time>
      </trkpt>
      <trkpt lat="27.70185" lon="86.718918">
        <ele>2701.8</ele>
        <time>2022-10-19T04:37:42.000Z</time>
      </trkpt>
      <trkpt lat="27.701866" lon="86.718906">
        <ele>2701.8</ele>
        <time>2022-10-19T04:37:44.000Z</time>
      </trkpt>
      <trkpt lat="27.701878" lon="86.71888">
        <ele>2701.8</ele>
        <time>2022-10-19T04:37:46.000Z</time>
      </trkpt>
      <trkpt lat="27.701894" lon="86.718848">
        <ele>2701.8</ele>
        <time>2022-10-19T04:37:49.000Z</time>
      </trkpt>
      <trkpt lat="27.701901" lon="86.718829">
        <ele>2701.8</ele>
        <time>2022-10-19T04:37:51.000Z</time>
      </trkpt>
      <trkpt lat="27.70191" lon="86.718803">
        <ele>2701.6</ele>
        <time>2022-10-19T04:37:53.000Z</time>
      </trkpt>
      <trkpt lat="27.70192" lon="86.718778">
        <ele>2701.6</ele>
        <time>2022-10-19T04:37:55.000Z</time>
      </trkpt>
      <trkpt lat="27.70193" lon="86.718758">
        <ele>2701.6</ele>
        <time>2022-10-19T04:37:57.000Z</time>
      </trkpt>
      <trkpt lat="27.701939" lon="86.718739">
        <ele>2701.6</ele>
        <time>2022-10-19T04:37:58.000Z</time>
      </trkpt>
      <trkpt lat="27.701949" lon="86.71872">
        <ele>2701.4</ele>
        <time>2022-10-19T04:38:00.000Z</time>
      </trkpt>
      <trkpt lat="27.701955" lon="86.718694">
        <ele>2701.6</ele>
        <time>2022-10-19T04:38:02.000Z</time>
      </trkpt>
      <trkpt lat="27.701968" lon="86.718669">
        <ele>2701.6</ele>
        <time>2022-10-19T04:38:05.000Z</time>
      </trkpt>
      <trkpt lat="27.701978" lon="86.718643">
        <ele>2701.6</ele>
        <time>2022-10-19T04:38:07.000Z</time>
      </trkpt>
      <trkpt lat="27.701984" lon="86.718618">
        <ele>2701.8</ele>
        <time>2022-10-19T04:38:09.000Z</time>
      </trkpt>
      <trkpt lat="27.701987" lon="86.718579">
        <ele>2701.4</ele>
        <time>2022-10-19T04:38:12.000Z</time>
      </trkpt>
      <trkpt lat="27.701994" lon="86.71856">
        <ele>2701.6</ele>
        <time>2022-10-19T04:38:14.000Z</time>
      </trkpt>
      <trkpt lat="27.701997" lon="86.718534">
        <ele>2701.8</ele>
        <time>2022-10-19T04:38:15.000Z</time>
      </trkpt>
      <trkpt lat="27.702003" lon="86.718515">
        <ele>2701.6</ele>
        <time>2022-10-19T04:38:17.000Z</time>
      </trkpt>
      <trkpt lat="27.70201" lon="86.718496">
        <ele>2701.6</ele>
        <time>2022-10-19T04:38:19.000Z</time>
      </trkpt>
      <trkpt lat="27.702019" lon="86.71847">
        <ele>2701.8</ele>
        <time>2022-10-19T04:38:22.000Z</time>
      </trkpt>
      <trkpt lat="27.702013" lon="86.718438">
        <ele>2701.8</ele>
        <time>2022-10-19T04:38:24.000Z</time>
      </trkpt>
      <trkpt lat="27.702016" lon="86.718406">
        <ele>2701.4</ele>
        <time>2022-10-19T04:38:26.000Z</time>
      </trkpt>
      <trkpt lat="27.702013" lon="86.718381">
        <ele>2701.4</ele>
        <time>2022-10-19T04:38:28.000Z</time>
      </trkpt>
      <trkpt lat="27.702006" lon="86.718355">
        <ele>2700.8</ele>
        <time>2022-10-19T04:38:31.000Z</time>
      </trkpt>
      <trkpt lat="27.702016" lon="86.71833">
        <ele>2700.8</ele>
        <time>2022-10-19T04:38:33.000Z</time>
      </trkpt>
      <trkpt lat="27.702026" lon="86.718298">
        <ele>2700.8</ele>
        <time>2022-10-19T04:38:36.000Z</time>
      </trkpt>
      <trkpt lat="27.702029" lon="86.718272">
        <ele>2700.6</ele>
        <time>2022-10-19T04:38:39.000Z</time>
      </trkpt>
      <trkpt lat="27.702026" lon="86.718246">
        <ele>2700.4</ele>
        <time>2022-10-19T04:38:41.000Z</time>
      </trkpt>
      <trkpt lat="27.702029" lon="86.718221">
        <ele>2700.4</ele>
        <time>2022-10-19T04:38:43.000Z</time>
      </trkpt>
      <trkpt lat="27.702035" lon="86.718202">
        <ele>2700.4</ele>
        <time>2022-10-19T04:38:45.000Z</time>
      </trkpt>
      <trkpt lat="27.702035" lon="86.71817">
        <ele>2700.4</ele>
        <time>2022-10-19T04:38:47.000Z</time>
      </trkpt>
      <trkpt lat="27.702038" lon="86.718131">
        <ele>2700.4</ele>
        <time>2022-10-19T04:38:50.000Z</time>
      </trkpt>
      <trkpt lat="27.702035" lon="86.718099">
        <ele>2700.4</ele>
        <time>2022-10-19T04:38:53.000Z</time>
      </trkpt>
      <trkpt lat="27.702038" lon="86.718074">
        <ele>2700.6</ele>
        <time>2022-10-19T04:38:56.000Z</time>
      </trkpt>
      <trkpt lat="27.702045" lon="86.718048">
        <ele>2700.6</ele>
        <time>2022-10-19T04:38:59.000Z</time>
      </trkpt>
      <trkpt lat="27.702045" lon="86.718022">
        <ele>2700.6</ele>
        <time>2022-10-19T04:39:01.000Z</time>
      </trkpt>
      <trkpt lat="27.702048" lon="86.717984">
        <ele>2700.2</ele>
        <time>2022-10-19T04:39:04.000Z</time>
      </trkpt>
      <trkpt lat="27.702054" lon="86.717958">
        <ele>2700.2</ele>
        <time>2022-10-19T04:39:06.000Z</time>
      </trkpt>
      <trkpt lat="27.702048" lon="86.717933">
        <ele>2700</ele>
        <time>2022-10-19T04:39:08.000Z</time>
      </trkpt>
      <trkpt lat="27.702051" lon="86.717901">
        <ele>2700</ele>
        <time>2022-10-19T04:39:10.000Z</time>
      </trkpt>
      <trkpt lat="27.702058" lon="86.717875">
        <ele>2699.8</ele>
        <time>2022-10-19T04:39:12.000Z</time>
      </trkpt>
      <trkpt lat="27.702061" lon="86.71785">
        <ele>2699.8</ele>
        <time>2022-10-19T04:39:13.000Z</time>
      </trkpt>
      <trkpt lat="27.702058" lon="86.717824">
        <ele>2699.6</ele>
        <time>2022-10-19T04:39:15.000Z</time>
      </trkpt>
      <trkpt lat="27.702048" lon="86.717805">
        <ele>2699.6</ele>
        <time>2022-10-19T04:39:17.000Z</time>
      </trkpt>
      <trkpt lat="27.702042" lon="86.717773">
        <ele>2699.4</ele>
        <time>2022-10-19T04:39:19.000Z</time>
      </trkpt>
      <trkpt lat="27.702035" lon="86.717754">
        <ele>2699.2</ele>
        <time>2022-10-19T04:39:21.000Z</time>
      </trkpt>
      <trkpt lat="27.702035" lon="86.717728">
        <ele>2699.2</ele>
        <time>2022-10-19T04:39:23.000Z</time>
      </trkpt>
      <trkpt lat="27.702038" lon="86.717702">
        <ele>2699.4</ele>
        <time>2022-10-19T04:39:24.000Z</time>
      </trkpt>
      <trkpt lat="27.702054" lon="86.717683">
        <ele>2699.2</ele>
        <time>2022-10-19T04:39:26.000Z</time>
      </trkpt>
      <trkpt lat="27.70207" lon="86.717664">
        <ele>2699.2</ele>
        <time>2022-10-19T04:39:29.000Z</time>
      </trkpt>
      <trkpt lat="27.702074" lon="86.717638">
        <ele>2699.2</ele>
        <time>2022-10-19T04:39:31.000Z</time>
      </trkpt>
      <trkpt lat="27.702083" lon="86.717613">
        <ele>2699.6</ele>
        <time>2022-10-19T04:39:33.000Z</time>
      </trkpt>
      <trkpt lat="27.702083" lon="86.717587">
        <ele>2699.6</ele>
        <time>2022-10-19T04:39:35.000Z</time>
      </trkpt>
      <trkpt lat="27.702096" lon="86.717562">
        <ele>2699.8</ele>
        <time>2022-10-19T04:39:37.000Z</time>
      </trkpt>
      <trkpt lat="27.702102" lon="86.717542">
        <ele>2700</ele>
        <time>2022-10-19T04:39:39.000Z</time>
      </trkpt>
      <trkpt lat="27.702122" lon="86.717536">
        <ele>2700.6</ele>
        <time>2022-10-19T04:39:49.000Z</time>
      </trkpt>
      <trkpt lat="27.702134" lon="86.717504">
        <ele>2700</ele>
        <time>2022-10-19T04:39:59.000Z</time>
      </trkpt>
      <trkpt lat="27.70215" lon="86.717478">
        <ele>2700.4</ele>
        <time>2022-10-19T04:40:01.000Z</time>
      </trkpt>
      <trkpt lat="27.702157" lon="86.717459">
        <ele>2700.4</ele>
        <time>2022-10-19T04:40:02.000Z</time>
      </trkpt>
      <trkpt lat="27.702173" lon="86.717421">
        <ele>2700.2</ele>
        <time>2022-10-19T04:40:04.000Z</time>
      </trkpt>
      <trkpt lat="27.702186" lon="86.717402">
        <ele>2700.2</ele>
        <time>2022-10-19T04:40:06.000Z</time>
      </trkpt>
      <trkpt lat="27.702198" lon="86.717376">
        <ele>2700.2</ele>
        <time>2022-10-19T04:40:09.000Z</time>
      </trkpt>
      <trkpt lat="27.702208" lon="86.717344">
        <ele>2700.4</ele>
        <time>2022-10-19T04:40:12.000Z</time>
      </trkpt>
      <trkpt lat="27.702224" lon="86.717325">
        <ele>2700.6</ele>
        <time>2022-10-19T04:40:15.000Z</time>
      </trkpt>
      <trkpt lat="27.70223" lon="86.717299">
        <ele>2700.8</ele>
        <time>2022-10-19T04:40:18.000Z</time>
      </trkpt>
      <trkpt lat="27.70225" lon="86.71728">
        <ele>2700.8</ele>
        <time>2022-10-19T04:40:22.000Z</time>
      </trkpt>
      <trkpt lat="27.702266" lon="86.717267">
        <ele>2701.2</ele>
        <time>2022-10-19T04:40:24.000Z</time>
      </trkpt>
      <trkpt lat="27.702278" lon="86.717248">
        <ele>2700.8</ele>
        <time>2022-10-19T04:40:27.000Z</time>
      </trkpt>
      <trkpt lat="27.702285" lon="86.717229">
        <ele>2700.4</ele>
        <time>2022-10-19T04:40:34.000Z</time>
      </trkpt>
      <trkpt lat="27.702304" lon="86.71721">
        <ele>2700.2</ele>
        <time>2022-10-19T04:41:10.000Z</time>
      </trkpt>
      <trkpt lat="27.702323" lon="86.717203">
        <ele>2700.2</ele>
        <time>2022-10-19T04:41:11.000Z</time>
      </trkpt>
      <trkpt lat="27.702352" lon="86.717197">
        <ele>2700.2</ele>
        <time>2022-10-19T04:41:13.000Z</time>
      </trkpt>
      <trkpt lat="27.702374" lon="86.717178">
        <ele>2700.4</ele>
        <time>2022-10-19T04:41:16.000Z</time>
      </trkpt>
      <trkpt lat="27.702394" lon="86.717171">
        <ele>2700.4</ele>
        <time>2022-10-19T04:41:18.000Z</time>
      </trkpt>
      <trkpt lat="27.702413" lon="86.717158">
        <ele>2700.4</ele>
        <time>2022-10-19T04:41:23.000Z</time>
      </trkpt>
      <trkpt lat="27.702442" lon="86.717165">
        <ele>2700.4</ele>
        <time>2022-10-19T04:41:26.000Z</time>
      </trkpt>
      <trkpt lat="27.702461" lon="86.717165">
        <ele>2700.4</ele>
        <time>2022-10-19T04:41:28.000Z</time>
      </trkpt>
      <trkpt lat="27.70248" lon="86.717165">
        <ele>2700.4</ele>
        <time>2022-10-19T04:41:30.000Z</time>
      </trkpt>
      <trkpt lat="27.702499" lon="86.717171">
        <ele>2700.2</ele>
        <time>2022-10-19T04:41:32.000Z</time>
      </trkpt>
      <trkpt lat="27.702522" lon="86.717171">
        <ele>2700</ele>
        <time>2022-10-19T04:41:34.000Z</time>
      </trkpt>
      <trkpt lat="27.702547" lon="86.717178">
        <ele>2699.4</ele>
        <time>2022-10-19T04:41:37.000Z</time>
      </trkpt>
      <trkpt lat="27.702566" lon="86.717178">
        <ele>2699.4</ele>
        <time>2022-10-19T04:41:39.000Z</time>
      </trkpt>
      <trkpt lat="27.702586" lon="86.717178">
        <ele>2699.8</ele>
        <time>2022-10-19T04:41:41.000Z</time>
      </trkpt>
      <trkpt lat="27.702605" lon="86.717178">
        <ele>2699.8</ele>
        <time>2022-10-19T04:41:43.000Z</time>
      </trkpt>
      <trkpt lat="27.702624" lon="86.717178">
        <ele>2699.2</ele>
        <time>2022-10-19T04:41:45.000Z</time>
      </trkpt>
      <trkpt lat="27.702643" lon="86.717178">
        <ele>2699</ele>
        <time>2022-10-19T04:41:47.000Z</time>
      </trkpt>
      <trkpt lat="27.702666" lon="86.717178">
        <ele>2698.4</ele>
        <time>2022-10-19T04:41:50.000Z</time>
      </trkpt>
      <trkpt lat="27.702694" lon="86.717197">
        <ele>2698.6</ele>
        <time>2022-10-19T04:41:53.000Z</time>
      </trkpt>
      <trkpt lat="27.702717" lon="86.717203">
        <ele>2698</ele>
        <time>2022-10-19T04:41:55.000Z</time>
      </trkpt>
      <trkpt lat="27.702739" lon="86.71721">
        <ele>2697.8</ele>
        <time>2022-10-19T04:41:57.000Z</time>
      </trkpt>
      <trkpt lat="27.702758" lon="86.717222">
        <ele>2697.6</ele>
        <time>2022-10-19T04:42:00.000Z</time>
      </trkpt>
      <trkpt lat="27.702771" lon="86.717242">
        <ele>2697.4</ele>
        <time>2022-10-19T04:42:02.000Z</time>
      </trkpt>
      <trkpt lat="27.70279" lon="86.717248">
        <ele>2697.4</ele>
        <time>2022-10-19T04:42:05.000Z</time>
      </trkpt>
      <trkpt lat="27.70281" lon="86.717261">
        <ele>2696.2</ele>
        <time>2022-10-19T04:42:11.000Z</time>
      </trkpt>
      <trkpt lat="27.702829" lon="86.717261">
        <ele>2695.4</ele>
        <time>2022-10-19T04:42:15.000Z</time>
      </trkpt>
      <trkpt lat="27.702848" lon="86.717261">
        <ele>2694.8</ele>
        <time>2022-10-19T04:42:17.000Z</time>
      </trkpt>
      <trkpt lat="27.702867" lon="86.71728">
        <ele>2694</ele>
        <time>2022-10-19T04:42:19.000Z</time>
      </trkpt>
      <trkpt lat="27.70289" lon="86.717299">
        <ele>2693.4</ele>
        <time>2022-10-19T04:42:22.000Z</time>
      </trkpt>
      <trkpt lat="27.702912" lon="86.717318">
        <ele>2693.6</ele>
        <time>2022-10-19T04:42:25.000Z</time>
      </trkpt>
      <trkpt lat="27.702941" lon="86.717318">
        <ele>2694</ele>
        <time>2022-10-19T04:42:27.000Z</time>
      </trkpt>
      <trkpt lat="27.70296" lon="86.717318">
        <ele>2693.8</ele>
        <time>2022-10-19T04:42:29.000Z</time>
      </trkpt>
      <trkpt lat="27.702982" lon="86.717318">
        <ele>2694</ele>
        <time>2022-10-19T04:42:31.000Z</time>
      </trkpt>
      <trkpt lat="27.703002" lon="86.717306">
        <ele>2693.8</ele>
        <time>2022-10-19T04:42:33.000Z</time>
      </trkpt>
      <trkpt lat="27.703021" lon="86.717318">
        <ele>2694</ele>
        <time>2022-10-19T04:42:35.000Z</time>
      </trkpt>
      <trkpt lat="27.70304" lon="86.717318">
        <ele>2694.2</ele>
        <time>2022-10-19T04:42:38.000Z</time>
      </trkpt>
      <trkpt lat="27.703059" lon="86.717306">
        <ele>2694.8</ele>
        <time>2022-10-19T04:42:40.000Z</time>
      </trkpt>
      <trkpt lat="27.703078" lon="86.717318">
        <ele>2694.8</ele>
        <time>2022-10-19T04:42:42.000Z</time>
      </trkpt>
      <trkpt lat="27.703101" lon="86.717331">
        <ele>2695</ele>
        <time>2022-10-19T04:42:45.000Z</time>
      </trkpt>
      <trkpt lat="27.703126" lon="86.717344">
        <ele>2694.8</ele>
        <time>2022-10-19T04:42:49.000Z</time>
      </trkpt>
      <trkpt lat="27.703146" lon="86.717357">
        <ele>2694.4</ele>
        <time>2022-10-19T04:42:52.000Z</time>
      </trkpt>
      <trkpt lat="27.703168" lon="86.717357">
        <ele>2693.6</ele>
        <time>2022-10-19T04:42:57.000Z</time>
      </trkpt>
      <trkpt lat="27.703194" lon="86.717357">
        <ele>2693.6</ele>
        <time>2022-10-19T04:43:00.000Z</time>
      </trkpt>
      <trkpt lat="27.703216" lon="86.717363">
        <ele>2693</ele>
        <time>2022-10-19T04:43:02.000Z</time>
      </trkpt>
      <trkpt lat="27.703238" lon="86.71737">
        <ele>2692.8</ele>
        <time>2022-10-19T04:43:04.000Z</time>
      </trkpt>
      <trkpt lat="27.703261" lon="86.717376">
        <ele>2692.6</ele>
        <time>2022-10-19T04:43:06.000Z</time>
      </trkpt>
      <trkpt lat="27.703286" lon="86.717389">
        <ele>2692.4</ele>
        <time>2022-10-19T04:43:09.000Z</time>
      </trkpt>
      <trkpt lat="27.703306" lon="86.717408">
        <ele>2692.6</ele>
        <time>2022-10-19T04:43:11.000Z</time>
      </trkpt>
      <trkpt lat="27.703328" lon="86.717414">
        <ele>2692.6</ele>
        <time>2022-10-19T04:43:13.000Z</time>
      </trkpt>
      <trkpt lat="27.70335" lon="86.717414">
        <ele>2692.8</ele>
        <time>2022-10-19T04:43:15.000Z</time>
      </trkpt>
      <trkpt lat="27.703376" lon="86.717427">
        <ele>2692.4</ele>
        <time>2022-10-19T04:43:18.000Z</time>
      </trkpt>
      <trkpt lat="27.703392" lon="86.717446">
        <ele>2692.2</ele>
        <time>2022-10-19T04:43:20.000Z</time>
      </trkpt>
      <trkpt lat="27.703414" lon="86.717459">
        <ele>2692</ele>
        <time>2022-10-19T04:43:24.000Z</time>
      </trkpt>
      <trkpt lat="27.703434" lon="86.717459">
        <ele>2692.2</ele>
        <time>2022-10-19T04:43:28.000Z</time>
      </trkpt>
      <trkpt lat="27.70345" lon="86.717446">
        <ele>2691.6</ele>
        <time>2022-10-19T04:43:30.000Z</time>
      </trkpt>
      <trkpt lat="27.703475" lon="86.717446">
        <ele>2691.4</ele>
        <time>2022-10-19T04:43:32.000Z</time>
      </trkpt>
      <trkpt lat="27.703501" lon="86.717453">
        <ele>2691.4</ele>
        <time>2022-10-19T04:43:34.000Z</time>
      </trkpt>
      <trkpt lat="27.70352" lon="86.717466">
        <ele>2691.6</ele>
        <time>2022-10-19T04:43:36.000Z</time>
      </trkpt>
      <trkpt lat="27.703542" lon="86.717491">
        <ele>2691.4</ele>
        <time>2022-10-19T04:43:38.000Z</time>
      </trkpt>
      <trkpt lat="27.703549" lon="86.717517">
        <ele>2691.2</ele>
        <time>2022-10-19T04:43:41.000Z</time>
      </trkpt>
      <trkpt lat="27.703552" lon="86.717542">
        <ele>2691.4</ele>
        <time>2022-10-19T04:43:44.000Z</time>
      </trkpt>
      <trkpt lat="27.703558" lon="86.717562">
        <ele>2691.4</ele>
        <time>2022-10-19T04:43:46.000Z</time>
      </trkpt>
      <trkpt lat="27.703565" lon="86.717581">
        <ele>2691.4</ele>
        <time>2022-10-19T04:43:48.000Z</time>
      </trkpt>
      <trkpt lat="27.703578" lon="86.7176">
        <ele>2691.4</ele>
        <time>2022-10-19T04:43:51.000Z</time>
      </trkpt>
      <trkpt lat="27.703594" lon="86.717613">
        <ele>2691.6</ele>
        <time>2022-10-19T04:43:53.000Z</time>
      </trkpt>
      <trkpt lat="27.70361" lon="86.717626">
        <ele>2691.2</ele>
        <time>2022-10-19T04:43:56.000Z</time>
      </trkpt>
      <trkpt lat="27.703626" lon="86.717645">
        <ele>2691.2</ele>
        <time>2022-10-19T04:43:58.000Z</time>
      </trkpt>
      <trkpt lat="27.703648" lon="86.717658">
        <ele>2691.4</ele>
        <time>2022-10-19T04:44:01.000Z</time>
      </trkpt>
      <trkpt lat="27.703664" lon="86.717677">
        <ele>2691.4</ele>
        <time>2022-10-19T04:44:03.000Z</time>
      </trkpt>
      <trkpt lat="27.70369" lon="86.71769">
        <ele>2691.2</ele>
        <time>2022-10-19T04:44:06.000Z</time>
      </trkpt>
      <trkpt lat="27.703712" lon="86.717702">
        <ele>2690.8</ele>
        <time>2022-10-19T04:44:10.000Z</time>
      </trkpt>
      <trkpt lat="27.703731" lon="86.717715">
        <ele>2690.6</ele>
        <time>2022-10-19T04:44:13.000Z</time>
      </trkpt>
      <trkpt lat="27.703757" lon="86.717722">
        <ele>2690.2</ele>
        <time>2022-10-19T04:44:16.000Z</time>
      </trkpt>
      <trkpt lat="27.703776" lon="86.717741">
        <ele>2689.6</ele>
        <time>2022-10-19T04:44:19.000Z</time>
      </trkpt>
      <trkpt lat="27.703792" lon="86.717754">
        <ele>2689.4</ele>
        <time>2022-10-19T04:44:25.000Z</time>
      </trkpt>
      <trkpt lat="27.703805" lon="86.717773">
        <ele>2689.2</ele>
        <time>2022-10-19T04:44:28.000Z</time>
      </trkpt>
      <trkpt lat="27.703827" lon="86.717779">
        <ele>2689.8</ele>
        <time>2022-10-19T04:44:31.000Z</time>
      </trkpt>
      <trkpt lat="27.703846" lon="86.717786">
        <ele>2690.2</ele>
        <time>2022-10-19T04:44:34.000Z</time>
      </trkpt>
      <trkpt lat="27.703862" lon="86.717798">
        <ele>2690.4</ele>
        <time>2022-10-19T04:44:36.000Z</time>
      </trkpt>
      <trkpt lat="27.703885" lon="86.717811">
        <ele>2690.6</ele>
        <time>2022-10-19T04:44:39.000Z</time>
      </trkpt>
      <trkpt lat="27.703901" lon="86.717824">
        <ele>2690.8</ele>
        <time>2022-10-19T04:44:42.000Z</time>
      </trkpt>
      <trkpt lat="27.70391" lon="86.717843">
        <ele>2690.8</ele>
        <time>2022-10-19T04:44:43.000Z</time>
      </trkpt>
      <trkpt lat="27.703923" lon="86.717862">
        <ele>2690.8</ele>
        <time>2022-10-19T04:44:46.000Z</time>
      </trkpt>
      <trkpt lat="27.70393" lon="86.717882">
        <ele>2690.8</ele>
        <time>2022-10-19T04:44:48.000Z</time>
      </trkpt>
      <trkpt lat="27.703939" lon="86.717901">
        <ele>2691.2</ele>
        <time>2022-10-19T04:44:51.000Z</time>
      </trkpt>
      <trkpt lat="27.703946" lon="86.71792">
        <ele>2691.6</ele>
        <time>2022-10-19T04:44:53.000Z</time>
      </trkpt>
      <trkpt lat="27.703965" lon="86.717939">
        <ele>2691.6</ele>
        <time>2022-10-19T04:44:56.000Z</time>
      </trkpt>
      <trkpt lat="27.703978" lon="86.717958">
        <ele>2691.6</ele>
        <time>2022-10-19T04:44:58.000Z</time>
      </trkpt>
      <trkpt lat="27.70401" lon="86.717997">
        <ele>2691.8</ele>
        <time>2022-10-19T04:45:03.000Z</time>
      </trkpt>
      <trkpt lat="27.704019" lon="86.718016">
        <ele>2692</ele>
        <time>2022-10-19T04:45:06.000Z</time>
      </trkpt>
      <trkpt lat="27.704029" lon="86.718035">
        <ele>2692</ele>
        <time>2022-10-19T04:45:08.000Z</time>
      </trkpt>
      <trkpt lat="27.704051" lon="86.718048">
        <ele>2692.4</ele>
        <time>2022-10-19T04:45:11.000Z</time>
      </trkpt>
      <trkpt lat="27.704061" lon="86.718074">
        <ele>2692.4</ele>
        <time>2022-10-19T04:45:14.000Z</time>
      </trkpt>
      <trkpt lat="27.704083" lon="86.718099">
        <ele>2692.4</ele>
        <time>2022-10-19T04:45:17.000Z</time>
      </trkpt>
      <trkpt lat="27.704099" lon="86.718112">
        <ele>2692.4</ele>
        <time>2022-10-19T04:45:19.000Z</time>
      </trkpt>
      <trkpt lat="27.704118" lon="86.718118">
        <ele>2692.4</ele>
        <time>2022-10-19T04:45:21.000Z</time>
      </trkpt>
      <trkpt lat="27.704138" lon="86.718138">
        <ele>2692.8</ele>
        <time>2022-10-19T04:45:24.000Z</time>
      </trkpt>
      <trkpt lat="27.704154" lon="86.718157">
        <ele>2692.8</ele>
        <time>2022-10-19T04:45:26.000Z</time>
      </trkpt>
      <trkpt lat="27.704173" lon="86.718176">
        <ele>2693</ele>
        <time>2022-10-19T04:45:30.000Z</time>
      </trkpt>
      <trkpt lat="27.704179" lon="86.718195">
        <ele>2693</ele>
        <time>2022-10-19T04:45:32.000Z</time>
      </trkpt>
      <trkpt lat="27.704198" lon="86.718214">
        <ele>2693</ele>
        <time>2022-10-19T04:45:35.000Z</time>
      </trkpt>
      <trkpt lat="27.704214" lon="86.718234">
        <ele>2692.8</ele>
        <time>2022-10-19T04:45:38.000Z</time>
      </trkpt>
      <trkpt lat="27.70423" lon="86.718246">
        <ele>2692.8</ele>
        <time>2022-10-19T04:45:41.000Z</time>
      </trkpt>
      <trkpt lat="27.704246" lon="86.718272">
        <ele>2692.8</ele>
        <time>2022-10-19T04:45:43.000Z</time>
      </trkpt>
      <trkpt lat="27.704256" lon="86.718291">
        <ele>2693.2</ele>
        <time>2022-10-19T04:45:45.000Z</time>
      </trkpt>
      <trkpt lat="27.704262" lon="86.718317">
        <ele>2693.2</ele>
        <time>2022-10-19T04:45:47.000Z</time>
      </trkpt>
      <trkpt lat="27.704272" lon="86.718336">
        <ele>2693.4</ele>
        <time>2022-10-19T04:45:50.000Z</time>
      </trkpt>
      <trkpt lat="27.704269" lon="86.718362">
        <ele>2694</ele>
        <time>2022-10-19T04:45:58.000Z</time>
      </trkpt>
      <trkpt lat="27.704262" lon="86.718381">
        <ele>2694.2</ele>
        <time>2022-10-19T04:46:00.000Z</time>
      </trkpt>
      <trkpt lat="27.704253" lon="86.718406">
        <ele>2694.4</ele>
        <time>2022-10-19T04:46:03.000Z</time>
      </trkpt>
      <trkpt lat="27.70425" lon="86.718432">
        <ele>2694.2</ele>
        <time>2022-10-19T04:46:06.000Z</time>
      </trkpt>
      <trkpt lat="27.70425" lon="86.718458">
        <ele>2694.2</ele>
        <time>2022-10-19T04:46:09.000Z</time>
      </trkpt>
      <trkpt lat="27.704253" lon="86.71849">
        <ele>2694</ele>
        <time>2022-10-19T04:46:12.000Z</time>
      </trkpt>
      <trkpt lat="27.704253" lon="86.718515">
        <ele>2694.4</ele>
        <time>2022-10-19T04:46:15.000Z</time>
      </trkpt>
      <trkpt lat="27.70425" lon="86.718547">
        <ele>2693.8</ele>
        <time>2022-10-19T04:46:19.000Z</time>
      </trkpt>
      <trkpt lat="27.70425" lon="86.718573">
        <ele>2693.4</ele>
        <time>2022-10-19T04:46:23.000Z</time>
      </trkpt>
      <trkpt lat="27.704253" lon="86.718598">
        <ele>2692.6</ele>
        <time>2022-10-19T04:46:26.000Z</time>
      </trkpt>
      <trkpt lat="27.704259" lon="86.718618">
        <ele>2692</ele>
        <time>2022-10-19T04:46:29.000Z</time>
      </trkpt>
      <trkpt lat="27.704262" lon="86.71865">
        <ele>2691.8</ele>
        <time>2022-10-19T04:46:32.000Z</time>
      </trkpt>
      <trkpt lat="27.704266" lon="86.718682">
        <ele>2691.4</ele>
        <time>2022-10-19T04:46:35.000Z</time>
      </trkpt>
      <trkpt lat="27.704259" lon="86.718714">
        <ele>2691</ele>
        <time>2022-10-19T04:46:38.000Z</time>
      </trkpt>
      <trkpt lat="27.704253" lon="86.718739">
        <ele>2690.2</ele>
        <time>2022-10-19T04:46:41.000Z</time>
      </trkpt>
      <trkpt lat="27.704259" lon="86.718758">
        <ele>2690</ele>
        <time>2022-10-19T04:46:42.000Z</time>
      </trkpt>
      <trkpt lat="27.704259" lon="86.718797">
        <ele>2690</ele>
        <time>2022-10-19T04:46:45.000Z</time>
      </trkpt>
      <trkpt lat="27.704282" lon="86.718816">
        <ele>2689.8</ele>
        <time>2022-10-19T04:46:48.000Z</time>
      </trkpt>
      <trkpt lat="27.704275" lon="86.718842">
        <ele>2689.8</ele>
        <time>2022-10-19T04:46:50.000Z</time>
      </trkpt>
      <trkpt lat="27.704282" lon="86.718874">
        <ele>2690</ele>
        <time>2022-10-19T04:46:53.000Z</time>
      </trkpt>
      <trkpt lat="27.704288" lon="86.718893">
        <ele>2689.8</ele>
        <time>2022-10-19T04:46:55.000Z</time>
      </trkpt>
      <trkpt lat="27.704288" lon="86.718918">
        <ele>2689.6</ele>
        <time>2022-10-19T04:46:58.000Z</time>
      </trkpt>
      <trkpt lat="27.704304" lon="86.718931">
        <ele>2689.6</ele>
        <time>2022-10-19T04:47:00.000Z</time>
      </trkpt>
      <trkpt lat="27.70432" lon="86.71895">
        <ele>2689.6</ele>
        <time>2022-10-19T04:47:02.000Z</time>
      </trkpt>
      <trkpt lat="27.704326" lon="86.71897">
        <ele>2689</ele>
        <time>2022-10-19T04:47:06.000Z</time>
      </trkpt>
      <trkpt lat="27.704346" lon="86.718976">
        <ele>2688.6</ele>
        <time>2022-10-19T04:47:10.000Z</time>
      </trkpt>
      <trkpt lat="27.704368" lon="86.718976">
        <ele>2689</ele>
        <time>2022-10-19T04:47:15.000Z</time>
      </trkpt>
      <trkpt lat="27.704387" lon="86.718963">
        <ele>2688.6</ele>
        <time>2022-10-19T04:47:17.000Z</time>
      </trkpt>
      <trkpt lat="27.704403" lon="86.71895">
        <ele>2688.4</ele>
        <time>2022-10-19T04:47:19.000Z</time>
      </trkpt>
      <trkpt lat="27.704419" lon="86.718925">
        <ele>2688</ele>
        <time>2022-10-19T04:47:21.000Z</time>
      </trkpt>
      <trkpt lat="27.704435" lon="86.718912">
        <ele>2687.8</ele>
        <time>2022-10-19T04:47:24.000Z</time>
      </trkpt>
      <trkpt lat="27.704442" lon="86.718893">
        <ele>2688</ele>
        <time>2022-10-19T04:47:26.000Z</time>
      </trkpt>
      <trkpt lat="27.704451" lon="86.718874">
        <ele>2688</ele>
        <time>2022-10-19T04:47:28.000Z</time>
      </trkpt>
      <trkpt lat="27.704464" lon="86.718854">
        <ele>2688.4</ele>
        <time>2022-10-19T04:47:30.000Z</time>
      </trkpt>
      <trkpt lat="27.70448" lon="86.718842">
        <ele>2688.4</ele>
        <time>2022-10-19T04:47:32.000Z</time>
      </trkpt>
      <trkpt lat="27.704493" lon="86.718816">
        <ele>2688.4</ele>
        <time>2022-10-19T04:47:34.000Z</time>
      </trkpt>
      <trkpt lat="27.704512" lon="86.718803">
        <ele>2688.6</ele>
        <time>2022-10-19T04:47:37.000Z</time>
      </trkpt>
      <trkpt lat="27.704528" lon="86.71879">
        <ele>2688.8</ele>
        <time>2022-10-19T04:47:39.000Z</time>
      </trkpt>
      <trkpt lat="27.704531" lon="86.718765">
        <ele>2689</ele>
        <time>2022-10-19T04:47:42.000Z</time>
      </trkpt>
      <trkpt lat="27.704531" lon="86.718733">
        <ele>2687.8</ele>
        <time>2022-10-19T04:47:47.000Z</time>
      </trkpt>
      <trkpt lat="27.70455" lon="86.718726">
        <ele>2687.4</ele>
        <time>2022-10-19T04:47:49.000Z</time>
      </trkpt>
      <trkpt lat="27.704566" lon="86.718707">
        <ele>2687.2</ele>
        <time>2022-10-19T04:47:51.000Z</time>
      </trkpt>
      <trkpt lat="27.704595" lon="86.718694">
        <ele>2687.2</ele>
        <time>2022-10-19T04:47:53.000Z</time>
      </trkpt>
      <trkpt lat="27.704618" lon="86.718682">
        <ele>2687.2</ele>
        <time>2022-10-19T04:47:55.000Z</time>
      </trkpt>
      <trkpt lat="27.704643" lon="86.718669">
        <ele>2687.4</ele>
        <time>2022-10-19T04:47:57.000Z</time>
      </trkpt>
      <trkpt lat="27.704659" lon="86.718643">
        <ele>2687.4</ele>
        <time>2022-10-19T04:47:59.000Z</time>
      </trkpt>
      <trkpt lat="27.704675" lon="86.71863">
        <ele>2687.4</ele>
        <time>2022-10-19T04:48:01.000Z</time>
      </trkpt>
      <trkpt lat="27.704691" lon="86.718618">
        <ele>2687.2</ele>
        <time>2022-10-19T04:48:03.000Z</time>
      </trkpt>
      <trkpt lat="27.704717" lon="86.718605">
        <ele>2687.2</ele>
        <time>2022-10-19T04:48:06.000Z</time>
      </trkpt>
      <trkpt lat="27.704736" lon="86.718592">
        <ele>2687.6</ele>
        <time>2022-10-19T04:48:09.000Z</time>
      </trkpt>
      <trkpt lat="27.704749" lon="86.718573">
        <ele>2687.8</ele>
        <time>2022-10-19T04:48:11.000Z</time>
      </trkpt>
      <trkpt lat="27.704765" lon="86.71856">
        <ele>2687.8</ele>
        <time>2022-10-19T04:48:13.000Z</time>
      </trkpt>
      <trkpt lat="27.704781" lon="86.718547">
        <ele>2687.8</ele>
        <time>2022-10-19T04:48:15.000Z</time>
      </trkpt>
      <trkpt lat="27.704797" lon="86.718534">
        <ele>2688.2</ele>
        <time>2022-10-19T04:48:17.000Z</time>
      </trkpt>
      <trkpt lat="27.704819" lon="86.718515">
        <ele>2687.6</ele>
        <time>2022-10-19T04:48:20.000Z</time>
      </trkpt>
      <trkpt lat="27.704835" lon="86.718496">
        <ele>2687.6</ele>
        <time>2022-10-19T04:48:22.000Z</time>
      </trkpt>
      <trkpt lat="27.704851" lon="86.718477">
        <ele>2687.2</ele>
        <time>2022-10-19T04:48:24.000Z</time>
      </trkpt>
      <trkpt lat="27.704874" lon="86.718458">
        <ele>2687</ele>
        <time>2022-10-19T04:48:27.000Z</time>
      </trkpt>
      <trkpt lat="27.704896" lon="86.718438">
        <ele>2687</ele>
        <time>2022-10-19T04:48:30.000Z</time>
      </trkpt>
      <trkpt lat="27.704915" lon="86.718419">
        <ele>2687.2</ele>
        <time>2022-10-19T04:48:32.000Z</time>
      </trkpt>
      <trkpt lat="27.704934" lon="86.718413">
        <ele>2687.2</ele>
        <time>2022-10-19T04:48:34.000Z</time>
      </trkpt>
      <trkpt lat="27.704954" lon="86.7184">
        <ele>2687.4</ele>
        <time>2022-10-19T04:48:36.000Z</time>
      </trkpt>
      <trkpt lat="27.704966" lon="86.718381">
        <ele>2687.4</ele>
        <time>2022-10-19T04:48:38.000Z</time>
      </trkpt>
      <trkpt lat="27.704982" lon="86.718368">
        <ele>2687.4</ele>
        <time>2022-10-19T04:48:40.000Z</time>
      </trkpt>
      <trkpt lat="27.705002" lon="86.718355">
        <ele>2687.8</ele>
        <time>2022-10-19T04:48:43.000Z</time>
      </trkpt>
      <trkpt lat="27.705018" lon="86.718336">
        <ele>2687.8</ele>
        <time>2022-10-19T04:48:45.000Z</time>
      </trkpt>
      <trkpt lat="27.705037" lon="86.71833">
        <ele>2687.8</ele>
        <time>2022-10-19T04:48:47.000Z</time>
      </trkpt>
      <trkpt lat="27.705056" lon="86.718317">
        <ele>2687.4</ele>
        <time>2022-10-19T04:48:49.000Z</time>
      </trkpt>
      <trkpt lat="27.705059" lon="86.718291">
        <ele>2687</ele>
        <time>2022-10-19T04:48:51.000Z</time>
      </trkpt>
      <trkpt lat="27.705072" lon="86.718272">
        <ele>2686.8</ele>
        <time>2022-10-19T04:48:53.000Z</time>
      </trkpt>
      <trkpt lat="27.705075" lon="86.718246">
        <ele>2686.8</ele>
        <time>2022-10-19T04:48:55.000Z</time>
      </trkpt>
      <trkpt lat="27.705085" lon="86.718221">
        <ele>2687</ele>
        <time>2022-10-19T04:48:58.000Z</time>
      </trkpt>
      <trkpt lat="27.705085" lon="86.718195">
        <ele>2687.2</ele>
        <time>2022-10-19T04:49:02.000Z</time>
      </trkpt>
      <trkpt lat="27.705098" lon="86.71817">
        <ele>2687.6</ele>
        <time>2022-10-19T04:49:04.000Z</time>
      </trkpt>
      <trkpt lat="27.705114" lon="86.718157">
        <ele>2687.8</ele>
        <time>2022-10-19T04:49:07.000Z</time>
      </trkpt>
      <trkpt lat="27.705136" lon="86.718138">
        <ele>2688.2</ele>
        <time>2022-10-19T04:49:10.000Z</time>
      </trkpt>
      <trkpt lat="27.705155" lon="86.718131">
        <ele>2688.2</ele>
        <time>2022-10-19T04:49:12.000Z</time>
      </trkpt>
      <trkpt lat="27.705181" lon="86.718112">
        <ele>2689.2</ele>
        <time>2022-10-19T04:49:16.000Z</time>
      </trkpt>
      <trkpt lat="27.705194" lon="86.718093">
        <ele>2689.4</ele>
        <time>2022-10-19T04:49:18.000Z</time>
      </trkpt>
      <trkpt lat="27.705216" lon="86.718074">
        <ele>2689.6</ele>
        <time>2022-10-19T04:49:21.000Z</time>
      </trkpt>
      <trkpt lat="27.705222" lon="86.718054">
        <ele>2689.4</ele>
        <time>2022-10-19T04:49:22.000Z</time>
      </trkpt>
      <trkpt lat="27.705235" lon="86.718035">
        <ele>2689</ele>
        <time>2022-10-19T04:49:24.000Z</time>
      </trkpt>
      <trkpt lat="27.705245" lon="86.71801">
        <ele>2689.4</ele>
        <time>2022-10-19T04:49:26.000Z</time>
      </trkpt>
      <trkpt lat="27.705258" lon="86.717984">
        <ele>2689.4</ele>
        <time>2022-10-19T04:49:29.000Z</time>
      </trkpt>
      <trkpt lat="27.705283" lon="86.717965">
        <ele>2689.2</ele>
        <time>2022-10-19T04:49:53.000Z</time>
      </trkpt>
      <trkpt lat="27.705302" lon="86.717958">
        <ele>2689.2</ele>
        <time>2022-10-19T04:49:57.000Z</time>
      </trkpt>
      <trkpt lat="27.705306" lon="86.717933">
        <ele>2689.8</ele>
        <time>2022-10-19T04:50:03.000Z</time>
      </trkpt>
      <trkpt lat="27.705318" lon="86.717901">
        <ele>2689.2</ele>
        <time>2022-10-19T04:50:06.000Z</time>
      </trkpt>
      <trkpt lat="27.705331" lon="86.717875">
        <ele>2689</ele>
        <time>2022-10-19T04:50:09.000Z</time>
      </trkpt>
      <trkpt lat="27.705338" lon="86.717843">
        <ele>2689</ele>
        <time>2022-10-19T04:50:11.000Z</time>
      </trkpt>
      <trkpt lat="27.705347" lon="86.717811">
        <ele>2689</ele>
        <time>2022-10-19T04:50:13.000Z</time>
      </trkpt>
      <trkpt lat="27.70536" lon="86.717786">
        <ele>2688.8</ele>
        <time>2022-10-19T04:50:15.000Z</time>
      </trkpt>
      <trkpt lat="27.70537" lon="86.71776">
        <ele>2689.2</ele>
        <time>2022-10-19T04:50:18.000Z</time>
      </trkpt>
      <trkpt lat="27.705376" lon="86.717734">
        <ele>2688.8</ele>
        <time>2022-10-19T04:50:20.000Z</time>
      </trkpt>
      <trkpt lat="27.705389" lon="86.717702">
        <ele>2688.8</ele>
        <time>2022-10-19T04:50:22.000Z</time>
      </trkpt>
      <trkpt lat="27.705398" lon="86.717683">
        <ele>2689.2</ele>
        <time>2022-10-19T04:50:24.000Z</time>
      </trkpt>
      <trkpt lat="27.705405" lon="86.717664">
        <ele>2689</ele>
        <time>2022-10-19T04:50:25.000Z</time>
      </trkpt>
      <trkpt lat="27.705418" lon="86.717645">
        <ele>2688.8</ele>
        <time>2022-10-19T04:50:27.000Z</time>
      </trkpt>
      <trkpt lat="27.705427" lon="86.717613">
        <ele>2688.6</ele>
        <time>2022-10-19T04:50:29.000Z</time>
      </trkpt>
      <trkpt lat="27.705437" lon="86.717587">
        <ele>2689.2</ele>
        <time>2022-10-19T04:50:33.000Z</time>
      </trkpt>
      <trkpt lat="27.705453" lon="86.717568">
        <ele>2688.8</ele>
        <time>2022-10-19T04:50:35.000Z</time>
      </trkpt>
      <trkpt lat="27.705459" lon="86.717536">
        <ele>2689.2</ele>
        <time>2022-10-19T04:50:37.000Z</time>
      </trkpt>
      <trkpt lat="27.705472" lon="86.717504">
        <ele>2689</ele>
        <time>2022-10-19T04:50:39.000Z</time>
      </trkpt>
      <trkpt lat="27.705478" lon="86.717478">
        <ele>2688.8</ele>
        <time>2022-10-19T04:50:42.000Z</time>
      </trkpt>
      <trkpt lat="27.705488" lon="86.717459">
        <ele>2689</ele>
        <time>2022-10-19T04:50:44.000Z</time>
      </trkpt>
      <trkpt lat="27.705494" lon="86.717427">
        <ele>2688.8</ele>
        <time>2022-10-19T04:50:47.000Z</time>
      </trkpt>
      <trkpt lat="27.70551" lon="86.717402">
        <ele>2688.8</ele>
        <time>2022-10-19T04:50:49.000Z</time>
      </trkpt>
      <trkpt lat="27.705523" lon="86.717376">
        <ele>2688.8</ele>
        <time>2022-10-19T04:50:51.000Z</time>
      </trkpt>
      <trkpt lat="27.705539" lon="86.717357">
        <ele>2689</ele>
        <time>2022-10-19T04:50:54.000Z</time>
      </trkpt>
      <trkpt lat="27.705552" lon="86.717331">
        <ele>2689</ele>
        <time>2022-10-19T04:50:56.000Z</time>
      </trkpt>
      <trkpt lat="27.705568" lon="86.717318">
        <ele>2689.2</ele>
        <time>2022-10-19T04:50:58.000Z</time>
      </trkpt>
      <trkpt lat="27.705581" lon="86.717299">
        <ele>2689.2</ele>
        <time>2022-10-19T04:51:00.000Z</time>
      </trkpt>
      <trkpt lat="27.70559" lon="86.71728">
        <ele>2689</ele>
        <time>2022-10-19T04:51:02.000Z</time>
      </trkpt>
      <trkpt lat="27.705603" lon="86.717254">
        <ele>2689</ele>
        <time>2022-10-19T04:51:04.000Z</time>
      </trkpt>
      <trkpt lat="27.705616" lon="86.717229">
        <ele>2689</ele>
        <time>2022-10-19T04:51:06.000Z</time>
      </trkpt>
      <trkpt lat="27.705629" lon="86.71721">
        <ele>2688.4</ele>
        <time>2022-10-19T04:51:08.000Z</time>
      </trkpt>
      <trkpt lat="27.705645" lon="86.717184">
        <ele>2688.6</ele>
        <time>2022-10-19T04:51:10.000Z</time>
      </trkpt>
      <trkpt lat="27.705661" lon="86.717165">
        <ele>2688.6</ele>
        <time>2022-10-19T04:51:12.000Z</time>
      </trkpt>
      <trkpt lat="27.70567" lon="86.717146">
        <ele>2688.6</ele>
        <time>2022-10-19T04:51:14.000Z</time>
      </trkpt>
      <trkpt lat="27.70569" lon="86.717133">
        <ele>2688.6</ele>
        <time>2022-10-19T04:51:16.000Z</time>
      </trkpt>
      <trkpt lat="27.705702" lon="86.717107">
        <ele>2688.6</ele>
        <time>2022-10-19T04:51:18.000Z</time>
      </trkpt>
      <trkpt lat="27.705718" lon="86.717094">
        <ele>2688.6</ele>
        <time>2022-10-19T04:51:20.000Z</time>
      </trkpt>
      <trkpt lat="27.705734" lon="86.717069">
        <ele>2688.8</ele>
        <time>2022-10-19T04:51:22.000Z</time>
      </trkpt>
      <trkpt lat="27.705747" lon="86.71705">
        <ele>2688.8</ele>
        <time>2022-10-19T04:51:26.000Z</time>
      </trkpt>
      <trkpt lat="27.705763" lon="86.71703">
        <ele>2689.2</ele>
        <time>2022-10-19T04:51:47.000Z</time>
      </trkpt>
      <trkpt lat="27.705786" lon="86.717011">
        <ele>2689.6</ele>
        <time>2022-10-19T04:51:49.000Z</time>
      </trkpt>
      <trkpt lat="27.705808" lon="86.716986">
        <ele>2689.6</ele>
        <time>2022-10-19T04:51:51.000Z</time>
      </trkpt>
      <trkpt lat="27.705834" lon="86.716966">
        <ele>2689.6</ele>
        <time>2022-10-19T04:51:53.000Z</time>
      </trkpt>
      <trkpt lat="27.705859" lon="86.716941">
        <ele>2689.6</ele>
        <time>2022-10-19T04:51:55.000Z</time>
      </trkpt>
      <trkpt lat="27.705875" lon="86.716928">
        <ele>2689.8</ele>
        <time>2022-10-19T04:51:57.000Z</time>
      </trkpt>
      <trkpt lat="27.705894" lon="86.716909">
        <ele>2689.8</ele>
        <time>2022-10-19T04:51:59.000Z</time>
      </trkpt>
      <trkpt lat="27.705917" lon="86.716902">
        <ele>2690.2</ele>
        <time>2022-10-19T04:52:01.000Z</time>
      </trkpt>
      <trkpt lat="27.705936" lon="86.71689">
        <ele>2690.2</ele>
        <time>2022-10-19T04:52:03.000Z</time>
      </trkpt>
      <trkpt lat="27.705952" lon="86.71687">
        <ele>2690.2</ele>
        <time>2022-10-19T04:52:05.000Z</time>
      </trkpt>
      <trkpt lat="27.705971" lon="86.716858">
        <ele>2690.2</ele>
        <time>2022-10-19T04:52:07.000Z</time>
      </trkpt>
      <trkpt lat="27.70599" lon="86.716845">
        <ele>2690</ele>
        <time>2022-10-19T04:52:09.000Z</time>
      </trkpt>
      <trkpt lat="27.70601" lon="86.716819">
        <ele>2689.8</ele>
        <time>2022-10-19T04:52:11.000Z</time>
      </trkpt>
      <trkpt lat="27.706026" lon="86.716806">
        <ele>2690</ele>
        <time>2022-10-19T04:52:13.000Z</time>
      </trkpt>
      <trkpt lat="27.706038" lon="86.716787">
        <ele>2690.2</ele>
        <time>2022-10-19T04:52:15.000Z</time>
      </trkpt>
      <trkpt lat="27.706061" lon="86.716768">
        <ele>2689.8</ele>
        <time>2022-10-19T04:52:17.000Z</time>
      </trkpt>
      <trkpt lat="27.70608" lon="86.716749">
        <ele>2690</ele>
        <time>2022-10-19T04:52:19.000Z</time>
      </trkpt>
      <trkpt lat="27.706102" lon="86.716736">
        <ele>2690</ele>
        <time>2022-10-19T04:52:21.000Z</time>
      </trkpt>
      <trkpt lat="27.706118" lon="86.716723">
        <ele>2690</ele>
        <time>2022-10-19T04:52:23.000Z</time>
      </trkpt>
      <trkpt lat="27.706138" lon="86.716704">
        <ele>2690.2</ele>
        <time>2022-10-19T04:52:25.000Z</time>
      </trkpt>
      <trkpt lat="27.706157" lon="86.716685">
        <ele>2690.2</ele>
        <time>2022-10-19T04:52:27.000Z</time>
      </trkpt>
      <trkpt lat="27.70617" lon="86.716666">
        <ele>2690.2</ele>
        <time>2022-10-19T04:52:29.000Z</time>
      </trkpt>
      <trkpt lat="27.706186" lon="86.716653">
        <ele>2690</ele>
        <time>2022-10-19T04:52:31.000Z</time>
      </trkpt>
      <trkpt lat="27.706202" lon="86.716634">
        <ele>2689.8</ele>
        <time>2022-10-19T04:52:33.000Z</time>
      </trkpt>
      <trkpt lat="27.706218" lon="86.716614">
        <ele>2689.8</ele>
        <time>2022-10-19T04:52:35.000Z</time>
      </trkpt>
      <trkpt lat="27.70623" lon="86.716589">
        <ele>2690</ele>
        <time>2022-10-19T04:52:37.000Z</time>
      </trkpt>
      <trkpt lat="27.706246" lon="86.71657">
        <ele>2690</ele>
        <time>2022-10-19T04:52:39.000Z</time>
      </trkpt>
      <trkpt lat="27.706262" lon="86.71655">
        <ele>2690.2</ele>
        <time>2022-10-19T04:52:41.000Z</time>
      </trkpt>
      <trkpt lat="27.706278" lon="86.716531">
        <ele>2690.4</ele>
        <time>2022-10-19T04:52:43.000Z</time>
      </trkpt>
      <trkpt lat="27.706307" lon="86.716512">
        <ele>2690.4</ele>
        <time>2022-10-19T04:52:46.000Z</time>
      </trkpt>
      <trkpt lat="27.706323" lon="86.716499">
        <ele>2690.6</ele>
        <time>2022-10-19T04:52:48.000Z</time>
      </trkpt>
      <trkpt lat="27.706336" lon="86.716474">
        <ele>2690.8</ele>
        <time>2022-10-19T04:52:50.000Z</time>
      </trkpt>
      <trkpt lat="27.706355" lon="86.716461">
        <ele>2690.8</ele>
        <time>2022-10-19T04:52:52.000Z</time>
      </trkpt>
      <trkpt lat="27.706374" lon="86.716448">
        <ele>2691.2</ele>
        <time>2022-10-19T04:52:55.000Z</time>
      </trkpt>
      <trkpt lat="27.706384" lon="86.716422">
        <ele>2691.8</ele>
        <time>2022-10-19T04:52:57.000Z</time>
      </trkpt>
      <trkpt lat="27.7064" lon="86.716403">
        <ele>2690.8</ele>
        <time>2022-10-19T04:53:00.000Z</time>
      </trkpt>
      <trkpt lat="27.706406" lon="86.716384">
        <ele>2690.6</ele>
        <time>2022-10-19T04:53:02.000Z</time>
      </trkpt>
      <trkpt lat="27.706416" lon="86.716365">
        <ele>2690.4</ele>
        <time>2022-10-19T04:53:05.000Z</time>
      </trkpt>
      <trkpt lat="27.706422" lon="86.716346">
        <ele>2690.2</ele>
        <time>2022-10-19T04:53:07.000Z</time>
      </trkpt>
      <trkpt lat="27.706435" lon="86.716314">
        <ele>2689.8</ele>
        <time>2022-10-19T04:53:10.000Z</time>
      </trkpt>
      <trkpt lat="27.706458" lon="86.716294">
        <ele>2688.8</ele>
        <time>2022-10-19T04:53:13.000Z</time>
      </trkpt>
      <trkpt lat="27.706483" lon="86.716288">
        <ele>2688.4</ele>
        <time>2022-10-19T04:53:16.000Z</time>
      </trkpt>
      <trkpt lat="27.706506" lon="86.716288">
        <ele>2688.2</ele>
        <time>2022-10-19T04:53:18.000Z</time>
      </trkpt>
      <trkpt lat="27.706528" lon="86.716294">
        <ele>2687.2</ele>
        <time>2022-10-19T04:53:21.000Z</time>
      </trkpt>
      <trkpt lat="27.706538" lon="86.716314">
        <ele>2686.6</ele>
        <time>2022-10-19T04:53:24.000Z</time>
      </trkpt>
      <trkpt lat="27.70655" lon="86.716333">
        <ele>2686.4</ele>
        <time>2022-10-19T04:53:26.000Z</time>
      </trkpt>
      <trkpt lat="27.70657" lon="86.716346">
        <ele>2686.2</ele>
        <time>2022-10-19T04:53:28.000Z</time>
      </trkpt>
      <trkpt lat="27.706592" lon="86.716365">
        <ele>2686</ele>
        <time>2022-10-19T04:53:30.000Z</time>
      </trkpt>
      <trkpt lat="27.706618" lon="86.716371">
        <ele>2685.6</ele>
        <time>2022-10-19T04:53:32.000Z</time>
      </trkpt>
      <trkpt lat="27.706643" lon="86.716384">
        <ele>2685</ele>
        <time>2022-10-19T04:53:34.000Z</time>
      </trkpt>
      <trkpt lat="27.706659" lon="86.716403">
        <ele>2685</ele>
        <time>2022-10-19T04:53:36.000Z</time>
      </trkpt>
      <trkpt lat="27.706688" lon="86.716403">
        <ele>2684.8</ele>
        <time>2022-10-19T04:53:38.000Z</time>
      </trkpt>
      <trkpt lat="27.706714" lon="86.716403">
        <ele>2684.4</ele>
        <time>2022-10-19T04:53:40.000Z</time>
      </trkpt>
      <trkpt lat="27.706742" lon="86.71639">
        <ele>2684.4</ele>
        <time>2022-10-19T04:53:42.000Z</time>
      </trkpt>
      <trkpt lat="27.706774" lon="86.716346">
        <ele>2684.4</ele>
        <time>2022-10-19T04:53:44.000Z</time>
      </trkpt>
      <trkpt lat="27.706781" lon="86.716326">
        <ele>2684.6</ele>
        <time>2022-10-19T04:53:52.000Z</time>
      </trkpt>
      <trkpt lat="27.70679" lon="86.716307">
        <ele>2684.2</ele>
        <time>2022-10-19T04:53:56.000Z</time>
      </trkpt>
      <trkpt lat="27.70681" lon="86.716275">
        <ele>2684.4</ele>
        <time>2022-10-19T04:54:00.000Z</time>
      </trkpt>
      <trkpt lat="27.706832" lon="86.716269">
        <ele>2683.8</ele>
        <time>2022-10-19T04:54:03.000Z</time>
      </trkpt>
      <trkpt lat="27.706848" lon="86.716256">
        <ele>2683.8</ele>
        <time>2022-10-19T04:54:05.000Z</time>
      </trkpt>
      <trkpt lat="27.706874" lon="86.716237">
        <ele>2683.6</ele>
        <time>2022-10-19T04:54:07.000Z</time>
      </trkpt>
      <trkpt lat="27.706899" lon="86.716237">
        <ele>2683.2</ele>
        <time>2022-10-19T04:54:09.000Z</time>
      </trkpt>
      <trkpt lat="27.706922" lon="86.71625">
        <ele>2683.2</ele>
        <time>2022-10-19T04:54:11.000Z</time>
      </trkpt>
      <trkpt lat="27.706941" lon="86.716256">
        <ele>2683.4</ele>
        <time>2022-10-19T04:54:13.000Z</time>
      </trkpt>
      <trkpt lat="27.706963" lon="86.716262">
        <ele>2683.2</ele>
        <time>2022-10-19T04:54:15.000Z</time>
      </trkpt>
      <trkpt lat="27.706982" lon="86.716275">
        <ele>2683.2</ele>
        <time>2022-10-19T04:54:17.000Z</time>
      </trkpt>
      <trkpt lat="27.707005" lon="86.716275">
        <ele>2683.2</ele>
        <time>2022-10-19T04:54:19.000Z</time>
      </trkpt>
      <trkpt lat="27.707024" lon="86.716275">
        <ele>2683.2</ele>
        <time>2022-10-19T04:54:21.000Z</time>
      </trkpt>
      <trkpt lat="27.70705" lon="86.716275">
        <ele>2683.4</ele>
        <time>2022-10-19T04:54:23.000Z</time>
      </trkpt>
      <trkpt lat="27.707075" lon="86.716288">
        <ele>2683.6</ele>
        <time>2022-10-19T04:54:26.000Z</time>
      </trkpt>
      <trkpt lat="27.707094" lon="86.716288">
        <ele>2683.6</ele>
        <time>2022-10-19T04:54:28.000Z</time>
      </trkpt>
      <trkpt lat="27.70712" lon="86.716288">
        <ele>2683.4</ele>
        <time>2022-10-19T04:54:30.000Z</time>
      </trkpt>
      <trkpt lat="27.707139" lon="86.716294">
        <ele>2683.2</ele>
        <time>2022-10-19T04:54:32.000Z</time>
      </trkpt>
      <trkpt lat="27.707158" lon="86.716307">
        <ele>2682.8</ele>
        <time>2022-10-19T04:54:35.000Z</time>
      </trkpt>
      <trkpt lat="27.707171" lon="86.716326">
        <ele>2682.4</ele>
        <time>2022-10-19T04:54:37.000Z</time>
      </trkpt>
      <trkpt lat="27.707197" lon="86.716346">
        <ele>2682</ele>
        <time>2022-10-19T04:54:39.000Z</time>
      </trkpt>
      <trkpt lat="27.707219" lon="86.716352">
        <ele>2681.6</ele>
        <time>2022-10-19T04:54:41.000Z</time>
      </trkpt>
      <trkpt lat="27.707238" lon="86.716352">
        <ele>2681.6</ele>
        <time>2022-10-19T04:54:43.000Z</time>
      </trkpt>
      <trkpt lat="27.707258" lon="86.716371">
        <ele>2681.2</ele>
        <time>2022-10-19T04:54:46.000Z</time>
      </trkpt>
      <trkpt lat="27.707277" lon="86.716371">
        <ele>2681</ele>
        <time>2022-10-19T04:54:48.000Z</time>
      </trkpt>
      <trkpt lat="27.707299" lon="86.716384">
        <ele>2680.2</ele>
        <time>2022-10-19T04:54:50.000Z</time>
      </trkpt>
      <trkpt lat="27.707328" lon="86.716384">
        <ele>2680.8</ele>
        <time>2022-10-19T04:54:52.000Z</time>
      </trkpt>
      <trkpt lat="27.707338" lon="86.716422">
        <ele>2680.4</ele>
        <time>2022-10-19T04:54:54.000Z</time>
      </trkpt>
      <trkpt lat="27.70736" lon="86.716429">
        <ele>2680.2</ele>
        <time>2022-10-19T04:54:56.000Z</time>
      </trkpt>
      <trkpt lat="27.707386" lon="86.716435">
        <ele>2680.2</ele>
        <time>2022-10-19T04:54:58.000Z</time>
      </trkpt>
      <trkpt lat="27.707421" lon="86.716474">
        <ele>2679.8</ele>
        <time>2022-10-19T04:55:02.000Z</time>
      </trkpt>
      <trkpt lat="27.707443" lon="86.716493">
        <ele>2679.8</ele>
        <time>2022-10-19T04:55:04.000Z</time>
      </trkpt>
      <trkpt lat="27.707466" lon="86.716506">
        <ele>2679.8</ele>
        <time>2022-10-19T04:55:07.000Z</time>
      </trkpt>
      <trkpt lat="27.707491" lon="86.716525">
        <ele>2679.8</ele>
        <time>2022-10-19T04:55:10.000Z</time>
      </trkpt>
      <trkpt lat="27.70751" lon="86.716531">
        <ele>2679.8</ele>
        <time>2022-10-19T04:55:12.000Z</time>
      </trkpt>
      <trkpt lat="27.70753" lon="86.716538">
        <ele>2680.2</ele>
        <time>2022-10-19T04:55:14.000Z</time>
      </trkpt>
      <trkpt lat="27.707549" lon="86.716531">
        <ele>2680.6</ele>
        <time>2022-10-19T04:55:16.000Z</time>
      </trkpt>
      <trkpt lat="27.707568" lon="86.716531">
        <ele>2680.4</ele>
        <time>2022-10-19T04:55:18.000Z</time>
      </trkpt>
      <trkpt lat="27.707587" lon="86.716538">
        <ele>2680.2</ele>
        <time>2022-10-19T04:55:23.000Z</time>
      </trkpt>
      <trkpt lat="27.707584" lon="86.716506">
        <ele>2680.2</ele>
        <time>2022-10-19T04:55:50.000Z</time>
      </trkpt>
      <trkpt lat="27.707574" lon="86.716467">
        <ele>2680.2</ele>
        <time>2022-10-19T04:55:52.000Z</time>
      </trkpt>
      <trkpt lat="27.707558" lon="86.716448">
        <ele>2680.2</ele>
        <time>2022-10-19T04:55:55.000Z</time>
      </trkpt>
      <trkpt lat="27.707555" lon="86.716422">
        <ele>2680.6</ele>
        <time>2022-10-19T04:55:57.000Z</time>
      </trkpt>
      <trkpt lat="27.707546" lon="86.71639">
        <ele>2681.4</ele>
        <time>2022-10-19T04:55:59.000Z</time>
      </trkpt>
      <trkpt lat="27.707514" lon="86.716365">
        <ele>2682.2</ele>
        <time>2022-10-19T04:56:09.000Z</time>
      </trkpt>
      <trkpt lat="27.70751" lon="86.716339">
        <ele>2682.2</ele>
        <time>2022-10-19T04:56:12.000Z</time>
      </trkpt>
      <trkpt lat="27.707533" lon="86.716333">
        <ele>2682.6</ele>
        <time>2022-10-19T04:56:14.000Z</time>
      </trkpt>
      <trkpt lat="27.707546" lon="86.716314">
        <ele>2683.4</ele>
        <time>2022-10-19T04:56:16.000Z</time>
      </trkpt>
      <trkpt lat="27.707552" lon="86.716294">
        <ele>2684.4</ele>
        <time>2022-10-19T04:56:20.000Z</time>
      </trkpt>
      <trkpt lat="27.707565" lon="86.716275">
        <ele>2684.4</ele>
        <time>2022-10-19T04:56:23.000Z</time>
      </trkpt>
      <trkpt lat="27.707587" lon="86.716269">
        <ele>2684.8</ele>
        <time>2022-10-19T04:56:25.000Z</time>
      </trkpt>
      <trkpt lat="27.707597" lon="86.71625">
        <ele>2685.4</ele>
        <time>2022-10-19T04:56:28.000Z</time>
      </trkpt>
      <trkpt lat="27.707603" lon="86.71623">
        <ele>2685.6</ele>
        <time>2022-10-19T04:56:30.000Z</time>
      </trkpt>
      <trkpt lat="27.70761" lon="86.716211">
        <ele>2685.8</ele>
        <time>2022-10-19T04:56:33.000Z</time>
      </trkpt>
      <trkpt lat="27.707619" lon="86.716192">
        <ele>2686.4</ele>
        <time>2022-10-19T04:56:35.000Z</time>
      </trkpt>
      <trkpt lat="27.707626" lon="86.716173">
        <ele>2687</ele>
        <time>2022-10-19T04:56:38.000Z</time>
      </trkpt>
      <trkpt lat="27.707635" lon="86.716147">
        <ele>2687.6</ele>
        <time>2022-10-19T04:56:42.000Z</time>
      </trkpt>
      <trkpt lat="27.707654" lon="86.716134">
        <ele>2687.6</ele>
        <time>2022-10-19T04:56:46.000Z</time>
      </trkpt>
      <trkpt lat="27.707674" lon="86.716134">
        <ele>2687.8</ele>
        <time>2022-10-19T04:56:56.000Z</time>
      </trkpt>
      <trkpt lat="27.707683" lon="86.716115">
        <ele>2687.8</ele>
        <time>2022-10-19T04:57:00.000Z</time>
      </trkpt>
      <trkpt lat="27.70769" lon="86.716096">
        <ele>2687.8</ele>
        <time>2022-10-19T04:57:02.000Z</time>
      </trkpt>
      <trkpt lat="27.707696" lon="86.71607">
        <ele>2688</ele>
        <time>2022-10-19T04:57:04.000Z</time>
      </trkpt>
      <trkpt lat="27.707699" lon="86.716038">
        <ele>2688.4</ele>
        <time>2022-10-19T04:57:07.000Z</time>
      </trkpt>
      <trkpt lat="27.707706" lon="86.716013">
        <ele>2689</ele>
        <time>2022-10-19T04:57:11.000Z</time>
      </trkpt>
      <trkpt lat="27.707718" lon="86.715994">
        <ele>2689</ele>
        <time>2022-10-19T04:57:13.000Z</time>
      </trkpt>
      <trkpt lat="27.707738" lon="86.715987">
        <ele>2689.8</ele>
        <time>2022-10-19T04:57:16.000Z</time>
      </trkpt>
      <trkpt lat="27.707747" lon="86.715968">
        <ele>2690.4</ele>
        <time>2022-10-19T04:57:19.000Z</time>
      </trkpt>
      <trkpt lat="27.707754" lon="86.715949">
        <ele>2690.6</ele>
        <time>2022-10-19T04:57:21.000Z</time>
      </trkpt>
      <trkpt lat="27.707763" lon="86.71593">
        <ele>2690.8</ele>
        <time>2022-10-19T04:57:24.000Z</time>
      </trkpt>
      <trkpt lat="27.707773" lon="86.71591">
        <ele>2691.6</ele>
        <time>2022-10-19T04:57:26.000Z</time>
      </trkpt>
      <trkpt lat="27.707795" lon="86.715898">
        <ele>2691.8</ele>
        <time>2022-10-19T04:57:29.000Z</time>
      </trkpt>
      <trkpt lat="27.707808" lon="86.715878">
        <ele>2691.8</ele>
        <time>2022-10-19T04:57:31.000Z</time>
      </trkpt>
      <trkpt lat="27.707824" lon="86.715866">
        <ele>2691.8</ele>
        <time>2022-10-19T04:57:33.000Z</time>
      </trkpt>
      <trkpt lat="27.707846" lon="86.715859">
        <ele>2691.8</ele>
        <time>2022-10-19T04:57:35.000Z</time>
      </trkpt>
      <trkpt lat="27.707866" lon="86.715853">
        <ele>2691.8</ele>
        <time>2022-10-19T04:57:37.000Z</time>
      </trkpt>
      <trkpt lat="27.707888" lon="86.715846">
        <ele>2692</ele>
        <time>2022-10-19T04:57:39.000Z</time>
      </trkpt>
      <trkpt lat="27.707914" lon="86.715834">
        <ele>2692.2</ele>
        <time>2022-10-19T04:57:41.000Z</time>
      </trkpt>
      <trkpt lat="27.707936" lon="86.715834">
        <ele>2692</ele>
        <time>2022-10-19T04:57:43.000Z</time>
      </trkpt>
      <trkpt lat="27.707955" lon="86.715827">
        <ele>2692</ele>
        <time>2022-10-19T04:57:45.000Z</time>
      </trkpt>
      <trkpt lat="27.707974" lon="86.715821">
        <ele>2692</ele>
        <time>2022-10-19T04:57:47.000Z</time>
      </trkpt>
      <trkpt lat="27.707994" lon="86.715808">
        <ele>2692.2</ele>
        <time>2022-10-19T04:57:49.000Z</time>
      </trkpt>
      <trkpt lat="27.708016" lon="86.715808">
        <ele>2692.4</ele>
        <time>2022-10-19T04:57:51.000Z</time>
      </trkpt>
      <trkpt lat="27.708038" lon="86.715814">
        <ele>2692.4</ele>
        <time>2022-10-19T04:57:53.000Z</time>
      </trkpt>
      <trkpt lat="27.708058" lon="86.715821">
        <ele>2692.6</ele>
        <time>2022-10-19T04:57:55.000Z</time>
      </trkpt>
      <trkpt lat="27.708074" lon="86.715846">
        <ele>2692.6</ele>
        <time>2022-10-19T04:57:57.000Z</time>
      </trkpt>
      <trkpt lat="27.70809" lon="86.715872">
        <ele>2692.6</ele>
        <time>2022-10-19T04:58:00.000Z</time>
      </trkpt>
      <trkpt lat="27.708106" lon="86.715891">
        <ele>2692.4</ele>
        <time>2022-10-19T04:58:02.000Z</time>
      </trkpt>
      <trkpt lat="27.708128" lon="86.715898">
        <ele>2692.4</ele>
        <time>2022-10-19T04:58:04.000Z</time>
      </trkpt>
      <trkpt lat="27.708154" lon="86.715898">
        <ele>2692.6</ele>
        <time>2022-10-19T04:58:06.000Z</time>
      </trkpt>
      <trkpt lat="27.708176" lon="86.715891">
        <ele>2692.2</ele>
        <time>2022-10-19T04:58:08.000Z</time>
      </trkpt>
      <trkpt lat="27.708186" lon="86.715872">
        <ele>2692.2</ele>
        <time>2022-10-19T04:58:10.000Z</time>
      </trkpt>
      <trkpt lat="27.708202" lon="86.715853">
        <ele>2692.4</ele>
        <time>2022-10-19T04:58:13.000Z</time>
      </trkpt>
      <trkpt lat="27.708211" lon="86.715827">
        <ele>2692.4</ele>
        <time>2022-10-19T04:58:15.000Z</time>
      </trkpt>
      <trkpt lat="27.708234" lon="86.715814">
        <ele>2692.8</ele>
        <time>2022-10-19T04:58:18.000Z</time>
      </trkpt>
      <trkpt lat="27.708256" lon="86.715808">
        <ele>2692.8</ele>
        <time>2022-10-19T04:58:20.000Z</time>
      </trkpt>
      <trkpt lat="27.708269" lon="86.715789">
        <ele>2693.2</ele>
        <time>2022-10-19T04:58:22.000Z</time>
      </trkpt>
      <trkpt lat="27.708291" lon="86.715789">
        <ele>2693.2</ele>
        <time>2022-10-19T04:58:24.000Z</time>
      </trkpt>
      <trkpt lat="27.70831" lon="86.715776">
        <ele>2693</ele>
        <time>2022-10-19T04:58:26.000Z</time>
      </trkpt>
      <trkpt lat="27.708333" lon="86.71577">
        <ele>2692.8</ele>
        <time>2022-10-19T04:58:28.000Z</time>
      </trkpt>
      <trkpt lat="27.708349" lon="86.715757">
        <ele>2692.8</ele>
        <time>2022-10-19T04:58:30.000Z</time>
      </trkpt>
      <trkpt lat="27.708371" lon="86.71575">
        <ele>2692.8</ele>
        <time>2022-10-19T04:58:32.000Z</time>
      </trkpt>
      <trkpt lat="27.70839" lon="86.715744">
        <ele>2692.8</ele>
        <time>2022-10-19T04:58:34.000Z</time>
      </trkpt>
      <trkpt lat="27.708413" lon="86.715738">
        <ele>2692.8</ele>
        <time>2022-10-19T04:58:36.000Z</time>
      </trkpt>
      <trkpt lat="27.708435" lon="86.715731">
        <ele>2692.8</ele>
        <time>2022-10-19T04:58:38.000Z</time>
      </trkpt>
      <trkpt lat="27.708454" lon="86.715712">
        <ele>2693</ele>
        <time>2022-10-19T04:58:40.000Z</time>
      </trkpt>
      <trkpt lat="27.708474" lon="86.715706">
        <ele>2692.6</ele>
        <time>2022-10-19T04:58:42.000Z</time>
      </trkpt>
      <trkpt lat="27.708496" lon="86.715699">
        <ele>2692.8</ele>
        <time>2022-10-19T04:58:44.000Z</time>
      </trkpt>
      <trkpt lat="27.708522" lon="86.715693">
        <ele>2693</ele>
        <time>2022-10-19T04:58:46.000Z</time>
      </trkpt>
      <trkpt lat="27.708538" lon="86.715674">
        <ele>2692.6</ele>
        <time>2022-10-19T04:58:48.000Z</time>
      </trkpt>
      <trkpt lat="27.70856" lon="86.715667">
        <ele>2692.4</ele>
        <time>2022-10-19T04:58:50.000Z</time>
      </trkpt>
      <trkpt lat="27.708579" lon="86.715661">
        <ele>2693</ele>
        <time>2022-10-19T04:58:52.000Z</time>
      </trkpt>
      <trkpt lat="27.708598" lon="86.715654">
        <ele>2693</ele>
        <time>2022-10-19T04:58:54.000Z</time>
      </trkpt>
      <trkpt lat="27.708618" lon="86.715648">
        <ele>2692.8</ele>
        <time>2022-10-19T04:58:56.000Z</time>
      </trkpt>
      <trkpt lat="27.70864" lon="86.715629">
        <ele>2692.8</ele>
        <time>2022-10-19T04:59:00.000Z</time>
      </trkpt>
      <trkpt lat="27.708666" lon="86.715616">
        <ele>2692.8</ele>
        <time>2022-10-19T04:59:03.000Z</time>
      </trkpt>
      <trkpt lat="27.708691" lon="86.71561">
        <ele>2692.2</ele>
        <time>2022-10-19T04:59:05.000Z</time>
      </trkpt>
      <trkpt lat="27.708707" lon="86.715597">
        <ele>2692.2</ele>
        <time>2022-10-19T04:59:06.000Z</time>
      </trkpt>
      <trkpt lat="27.70873" lon="86.715584">
        <ele>2692.4</ele>
        <time>2022-10-19T04:59:08.000Z</time>
      </trkpt>
      <trkpt lat="27.708752" lon="86.715571">
        <ele>2691.8</ele>
        <time>2022-10-19T04:59:10.000Z</time>
      </trkpt>
      <trkpt lat="27.708771" lon="86.715558">
        <ele>2691.4</ele>
        <time>2022-10-19T04:59:12.000Z</time>
      </trkpt>
      <trkpt lat="27.708797" lon="86.715552">
        <ele>2691.2</ele>
        <time>2022-10-19T04:59:14.000Z</time>
      </trkpt>
      <trkpt lat="27.708816" lon="86.715546">
        <ele>2690.8</ele>
        <time>2022-10-19T04:59:16.000Z</time>
      </trkpt>
      <trkpt lat="27.708835" lon="86.715533">
        <ele>2691</ele>
        <time>2022-10-19T04:59:18.000Z</time>
      </trkpt>
      <trkpt lat="27.708851" lon="86.715514">
        <ele>2691</ele>
        <time>2022-10-19T04:59:20.000Z</time>
      </trkpt>
      <trkpt lat="27.70887" lon="86.715501">
        <ele>2691</ele>
        <time>2022-10-19T04:59:22.000Z</time>
      </trkpt>
      <trkpt lat="27.70889" lon="86.715482">
        <ele>2691</ele>
        <time>2022-10-19T04:59:24.000Z</time>
      </trkpt>
      <trkpt lat="27.708912" lon="86.715469">
        <ele>2691.4</ele>
        <time>2022-10-19T04:59:26.000Z</time>
      </trkpt>
      <trkpt lat="27.708928" lon="86.71545">
        <ele>2691.2</ele>
        <time>2022-10-19T04:59:28.000Z</time>
      </trkpt>
      <trkpt lat="27.708944" lon="86.715437">
        <ele>2691.4</ele>
        <time>2022-10-19T04:59:30.000Z</time>
      </trkpt>
      <trkpt lat="27.708963" lon="86.715418">
        <ele>2691.6</ele>
        <time>2022-10-19T04:59:32.000Z</time>
      </trkpt>
      <trkpt lat="27.708979" lon="86.715398">
        <ele>2691.6</ele>
        <time>2022-10-19T04:59:34.000Z</time>
      </trkpt>
      <trkpt lat="27.708995" lon="86.715386">
        <ele>2691.6</ele>
        <time>2022-10-19T04:59:36.000Z</time>
      </trkpt>
      <trkpt lat="27.709014" lon="86.71536">
        <ele>2691.6</ele>
        <time>2022-10-19T04:59:39.000Z</time>
      </trkpt>
      <trkpt lat="27.709027" lon="86.715341">
        <ele>2691.6</ele>
        <time>2022-10-19T04:59:41.000Z</time>
      </trkpt>
      <trkpt lat="27.70905" lon="86.715315">
        <ele>2691.4</ele>
        <time>2022-10-19T04:59:44.000Z</time>
      </trkpt>
      <trkpt lat="27.709056" lon="86.715296">
        <ele>2691.4</ele>
        <time>2022-10-19T04:59:46.000Z</time>
      </trkpt>
      <trkpt lat="27.709075" lon="86.715283">
        <ele>2691.4</ele>
        <time>2022-10-19T05:00:14.000Z</time>
      </trkpt>
      <trkpt lat="27.709088" lon="86.715264">
        <ele>2691.4</ele>
        <time>2022-10-19T05:00:16.000Z</time>
      </trkpt>
      <trkpt lat="27.709104" lon="86.715238">
        <ele>2691.6</ele>
        <time>2022-10-19T05:00:18.000Z</time>
      </trkpt>
      <trkpt lat="27.709126" lon="86.715213">
        <ele>2691.4</ele>
        <time>2022-10-19T05:00:20.000Z</time>
      </trkpt>
      <trkpt lat="27.709139" lon="86.715194">
        <ele>2691.2</ele>
        <time>2022-10-19T05:00:21.000Z</time>
      </trkpt>
      <trkpt lat="27.709155" lon="86.715174">
        <ele>2691</ele>
        <time>2022-10-19T05:00:23.000Z</time>
      </trkpt>
      <trkpt lat="27.709165" lon="86.715155">
        <ele>2690.8</ele>
        <time>2022-10-19T05:00:25.000Z</time>
      </trkpt>
      <trkpt lat="27.709171" lon="86.715136">
        <ele>2690.8</ele>
        <time>2022-10-19T05:00:27.000Z</time>
      </trkpt>
      <trkpt lat="27.709178" lon="86.715117">
        <ele>2690.8</ele>
        <time>2022-10-19T05:00:28.000Z</time>
      </trkpt>
      <trkpt lat="27.709194" lon="86.715098">
        <ele>2691.2</ele>
        <time>2022-10-19T05:00:31.000Z</time>
      </trkpt>
      <trkpt lat="27.70921" lon="86.715078">
        <ele>2691.2</ele>
        <time>2022-10-19T05:00:33.000Z</time>
      </trkpt>
      <trkpt lat="27.709229" lon="86.715066">
        <ele>2691.2</ele>
        <time>2022-10-19T05:00:36.000Z</time>
      </trkpt>
      <trkpt lat="27.709248" lon="86.71504">
        <ele>2691.4</ele>
        <time>2022-10-19T05:00:39.000Z</time>
      </trkpt>
      <trkpt lat="27.709267" lon="86.715027">
        <ele>2690.8</ele>
        <time>2022-10-19T05:00:41.000Z</time>
      </trkpt>
      <trkpt lat="27.709283" lon="86.715014">
        <ele>2690.8</ele>
        <time>2022-10-19T05:00:43.000Z</time>
      </trkpt>
      <trkpt lat="27.709299" lon="86.715002">
        <ele>2691</ele>
        <time>2022-10-19T05:00:45.000Z</time>
      </trkpt>
      <trkpt lat="27.709325" lon="86.714989">
        <ele>2691</ele>
        <time>2022-10-19T05:00:48.000Z</time>
      </trkpt>
      <trkpt lat="27.709334" lon="86.714963">
        <ele>2690.8</ele>
        <time>2022-10-19T05:00:51.000Z</time>
      </trkpt>
      <trkpt lat="27.709354" lon="86.714938">
        <ele>2690.8</ele>
        <time>2022-10-19T05:00:54.000Z</time>
      </trkpt>
      <trkpt lat="27.709366" lon="86.714918">
        <ele>2690.8</ele>
        <time>2022-10-19T05:00:56.000Z</time>
      </trkpt>
      <trkpt lat="27.709386" lon="86.714899">
        <ele>2690.6</ele>
        <time>2022-10-19T05:00:58.000Z</time>
      </trkpt>
      <trkpt lat="27.709402" lon="86.714886">
        <ele>2690.6</ele>
        <time>2022-10-19T05:00:59.000Z</time>
      </trkpt>
      <trkpt lat="27.709421" lon="86.71488">
        <ele>2691</ele>
        <time>2022-10-19T05:01:01.000Z</time>
      </trkpt>
      <trkpt lat="27.70944" lon="86.714874">
        <ele>2691</ele>
        <time>2022-10-19T05:01:03.000Z</time>
      </trkpt>
      <trkpt lat="27.709459" lon="86.714854">
        <ele>2690.4</ele>
        <time>2022-10-19T05:01:06.000Z</time>
      </trkpt>
      <trkpt lat="27.709472" lon="86.714835">
        <ele>2690.6</ele>
        <time>2022-10-19T05:01:07.000Z</time>
      </trkpt>
      <trkpt lat="27.709491" lon="86.714822">
        <ele>2690.6</ele>
        <time>2022-10-19T05:01:09.000Z</time>
      </trkpt>
      <trkpt lat="27.70951" lon="86.714816">
        <ele>2690.6</ele>
        <time>2022-10-19T05:01:11.000Z</time>
      </trkpt>
      <trkpt lat="27.709533" lon="86.714816">
        <ele>2690.2</ele>
        <time>2022-10-19T05:01:13.000Z</time>
      </trkpt>
      <trkpt lat="27.709552" lon="86.714797">
        <ele>2690.4</ele>
        <time>2022-10-19T05:01:15.000Z</time>
      </trkpt>
      <trkpt lat="27.709574" lon="86.714784">
        <ele>2690.4</ele>
        <time>2022-10-19T05:01:17.000Z</time>
      </trkpt>
      <trkpt lat="27.70959" lon="86.714765">
        <ele>2690.2</ele>
        <time>2022-10-19T05:01:19.000Z</time>
      </trkpt>
      <trkpt lat="27.709613" lon="86.714758">
        <ele>2690.2</ele>
        <time>2022-10-19T05:01:22.000Z</time>
      </trkpt>
      <trkpt lat="27.709635" lon="86.714746">
        <ele>2690.2</ele>
        <time>2022-10-19T05:01:24.000Z</time>
      </trkpt>
      <trkpt lat="27.709661" lon="86.714739">
        <ele>2690</ele>
        <time>2022-10-19T05:01:27.000Z</time>
      </trkpt>
      <trkpt lat="27.709683" lon="86.714739">
        <ele>2690</ele>
        <time>2022-10-19T05:01:29.000Z</time>
      </trkpt>
      <trkpt lat="27.709699" lon="86.714726">
        <ele>2689.8</ele>
        <time>2022-10-19T05:01:30.000Z</time>
      </trkpt>
      <trkpt lat="27.709722" lon="86.714726">
        <ele>2689.6</ele>
        <time>2022-10-19T05:01:32.000Z</time>
      </trkpt>
      <trkpt lat="27.70975" lon="86.714726">
        <ele>2689.4</ele>
        <time>2022-10-19T05:01:35.000Z</time>
      </trkpt>
      <trkpt lat="27.709773" lon="86.714726">
        <ele>2689.6</ele>
        <time>2022-10-19T05:01:37.000Z</time>
      </trkpt>
      <trkpt lat="27.709789" lon="86.714739">
        <ele>2689.4</ele>
        <time>2022-10-19T05:01:39.000Z</time>
      </trkpt>
      <trkpt lat="27.709808" lon="86.714739">
        <ele>2689.2</ele>
        <time>2022-10-19T05:01:41.000Z</time>
      </trkpt>
      <trkpt lat="27.70984" lon="86.714739">
        <ele>2689.2</ele>
        <time>2022-10-19T05:01:43.000Z</time>
      </trkpt>
      <trkpt lat="27.709869" lon="86.714739">
        <ele>2689</ele>
        <time>2022-10-19T05:01:46.000Z</time>
      </trkpt>
      <trkpt lat="27.709891" lon="86.714739">
        <ele>2688.8</ele>
        <time>2022-10-19T05:01:48.000Z</time>
      </trkpt>
      <trkpt lat="27.70991" lon="86.714726">
        <ele>2688.6</ele>
        <time>2022-10-19T05:01:50.000Z</time>
      </trkpt>
      <trkpt lat="27.709933" lon="86.714726">
        <ele>2688.6</ele>
        <time>2022-10-19T05:01:52.000Z</time>
      </trkpt>
      <trkpt lat="27.709952" lon="86.714726">
        <ele>2688.8</ele>
        <time>2022-10-19T05:01:55.000Z</time>
      </trkpt>
      <trkpt lat="27.709978" lon="86.71472">
        <ele>2688.6</ele>
        <time>2022-10-19T05:01:58.000Z</time>
      </trkpt>
      <trkpt lat="27.709997" lon="86.714714">
        <ele>2688.6</ele>
        <time>2022-10-19T05:02:00.000Z</time>
      </trkpt>
      <trkpt lat="27.710026" lon="86.714701">
        <ele>2688.6</ele>
        <time>2022-10-19T05:02:03.000Z</time>
      </trkpt>
      <trkpt lat="27.710048" lon="86.714688">
        <ele>2688.4</ele>
        <time>2022-10-19T05:02:05.000Z</time>
      </trkpt>
      <trkpt lat="27.710067" lon="86.714682">
        <ele>2688.6</ele>
        <time>2022-10-19T05:02:07.000Z</time>
      </trkpt>
      <trkpt lat="27.71009" lon="86.714675">
        <ele>2688.6</ele>
        <time>2022-10-19T05:02:09.000Z</time>
      </trkpt>
      <trkpt lat="27.710106" lon="86.714662">
        <ele>2688.6</ele>
        <time>2022-10-19T05:02:12.000Z</time>
      </trkpt>
      <trkpt lat="27.710118" lon="86.714643">
        <ele>2688.8</ele>
        <time>2022-10-19T05:02:14.000Z</time>
      </trkpt>
      <trkpt lat="27.710131" lon="86.714624">
        <ele>2688.4</ele>
        <time>2022-10-19T05:02:18.000Z</time>
      </trkpt>
      <trkpt lat="27.710144" lon="86.714605">
        <ele>2688</ele>
        <time>2022-10-19T05:02:20.000Z</time>
      </trkpt>
      <trkpt lat="27.71016" lon="86.714592">
        <ele>2687.4</ele>
        <time>2022-10-19T05:02:22.000Z</time>
      </trkpt>
      <trkpt lat="27.710182" lon="86.714579">
        <ele>2687.6</ele>
        <time>2022-10-19T05:02:24.000Z</time>
      </trkpt>
      <trkpt lat="27.710205" lon="86.714566">
        <ele>2687.6</ele>
        <time>2022-10-19T05:02:27.000Z</time>
      </trkpt>
      <trkpt lat="27.710221" lon="86.714554">
        <ele>2687.8</ele>
        <time>2022-10-19T05:02:31.000Z</time>
      </trkpt>
      <trkpt lat="27.710246" lon="86.714554">
        <ele>2687</ele>
        <time>2022-10-19T05:05:53.000Z</time>
      </trkpt>
      <trkpt lat="27.710266" lon="86.714547">
        <ele>2687.2</ele>
        <time>2022-10-19T05:05:54.000Z</time>
      </trkpt>
      <trkpt lat="27.710291" lon="86.714528">
        <ele>2687</ele>
        <time>2022-10-19T05:05:56.000Z</time>
      </trkpt>
      <trkpt lat="27.710317" lon="86.714522">
        <ele>2687</ele>
        <time>2022-10-19T05:05:59.000Z</time>
      </trkpt>
      <trkpt lat="27.710339" lon="86.714515">
        <ele>2686.6</ele>
        <time>2022-10-19T05:06:01.000Z</time>
      </trkpt>
      <trkpt lat="27.710339" lon="86.714483">
        <ele>2685.8</ele>
        <time>2022-10-19T05:06:05.000Z</time>
      </trkpt>
      <trkpt lat="27.710346" lon="86.714458">
        <ele>2685.2</ele>
        <time>2022-10-19T05:06:08.000Z</time>
      </trkpt>
      <trkpt lat="27.710365" lon="86.714438">
        <ele>2684.8</ele>
        <time>2022-10-19T05:06:11.000Z</time>
      </trkpt>
      <trkpt lat="27.71039" lon="86.714438">
        <ele>2684.6</ele>
        <time>2022-10-19T05:06:13.000Z</time>
      </trkpt>
      <trkpt lat="27.71041" lon="86.714445">
        <ele>2684.2</ele>
        <time>2022-10-19T05:06:15.000Z</time>
      </trkpt>
      <trkpt lat="27.710419" lon="86.71447">
        <ele>2684.2</ele>
        <time>2022-10-19T05:06:17.000Z</time>
      </trkpt>
      <trkpt lat="27.710426" lon="86.71449">
        <ele>2684.2</ele>
        <time>2022-10-19T05:06:23.000Z</time>
      </trkpt>
      <trkpt lat="27.710448" lon="86.714502">
        <ele>2683.8</ele>
        <time>2022-10-19T05:06:26.000Z</time>
      </trkpt>
      <trkpt lat="27.710467" lon="86.714509">
        <ele>2682.8</ele>
        <time>2022-10-19T05:06:29.000Z</time>
      </trkpt>
      <trkpt lat="27.710483" lon="86.714522">
        <ele>2682.6</ele>
        <time>2022-10-19T05:06:31.000Z</time>
      </trkpt>
      <trkpt lat="27.710486" lon="86.714547">
        <ele>2682.8</ele>
        <time>2022-10-19T05:06:35.000Z</time>
      </trkpt>
      <trkpt lat="27.710502" lon="86.71456">
        <ele>2682</ele>
        <time>2022-10-19T05:06:39.000Z</time>
      </trkpt>
      <trkpt lat="27.710525" lon="86.714566">
        <ele>2681.6</ele>
        <time>2022-10-19T05:06:42.000Z</time>
      </trkpt>
      <trkpt lat="27.710554" lon="86.714566">
        <ele>2680.6</ele>
        <time>2022-10-19T05:06:45.000Z</time>
      </trkpt>
      <trkpt lat="27.710582" lon="86.71456">
        <ele>2679.6</ele>
        <time>2022-10-19T05:06:48.000Z</time>
      </trkpt>
      <trkpt lat="27.710602" lon="86.71456">
        <ele>2679.4</ele>
        <time>2022-10-19T05:06:51.000Z</time>
      </trkpt>
      <trkpt lat="27.710621" lon="86.71456">
        <ele>2678.6</ele>
        <time>2022-10-19T05:06:54.000Z</time>
      </trkpt>
      <trkpt lat="27.710646" lon="86.714547">
        <ele>2678</ele>
        <time>2022-10-19T05:06:57.000Z</time>
      </trkpt>
      <trkpt lat="27.710672" lon="86.714528">
        <ele>2677.2</ele>
        <time>2022-10-19T05:07:00.000Z</time>
      </trkpt>
      <trkpt lat="27.710694" lon="86.714528">
        <ele>2676.8</ele>
        <time>2022-10-19T05:07:03.000Z</time>
      </trkpt>
      <trkpt lat="27.710717" lon="86.714509">
        <ele>2676</ele>
        <time>2022-10-19T05:07:08.000Z</time>
      </trkpt>
      <trkpt lat="27.710726" lon="86.71449">
        <ele>2675.8</ele>
        <time>2022-10-19T05:07:10.000Z</time>
      </trkpt>
      <trkpt lat="27.710749" lon="86.714477">
        <ele>2675.2</ele>
        <time>2022-10-19T05:07:12.000Z</time>
      </trkpt>
      <trkpt lat="27.710774" lon="86.714477">
        <ele>2674.6</ele>
        <time>2022-10-19T05:07:14.000Z</time>
      </trkpt>
      <trkpt lat="27.710794" lon="86.714483">
        <ele>2674.6</ele>
        <time>2022-10-19T05:07:16.000Z</time>
      </trkpt>
      <trkpt lat="27.710813" lon="86.714483">
        <ele>2674.2</ele>
        <time>2022-10-19T05:07:18.000Z</time>
      </trkpt>
      <trkpt lat="27.710832" lon="86.714483">
        <ele>2674.2</ele>
        <time>2022-10-19T05:07:20.000Z</time>
      </trkpt>
      <trkpt lat="27.710858" lon="86.714483">
        <ele>2674.2</ele>
        <time>2022-10-19T05:07:24.000Z</time>
      </trkpt>
      <trkpt lat="27.710867" lon="86.714464">
        <ele>2673.8</ele>
        <time>2022-10-19T05:07:28.000Z</time>
      </trkpt>
      <trkpt lat="27.71089" lon="86.714458">
        <ele>2673</ele>
        <time>2022-10-19T05:07:32.000Z</time>
      </trkpt>
      <trkpt lat="27.710909" lon="86.714445">
        <ele>2672.4</ele>
        <time>2022-10-19T05:07:36.000Z</time>
      </trkpt>
      <trkpt lat="27.710931" lon="86.714438">
        <ele>2671.2</ele>
        <time>2022-10-19T05:07:40.000Z</time>
      </trkpt>
      <trkpt lat="27.710954" lon="86.714432">
        <ele>2670.8</ele>
        <time>2022-10-19T05:07:42.000Z</time>
      </trkpt>
      <trkpt lat="27.710979" lon="86.714419">
        <ele>2670.2</ele>
        <time>2022-10-19T05:07:44.000Z</time>
      </trkpt>
      <trkpt lat="27.710998" lon="86.714406">
        <ele>2670</ele>
        <time>2022-10-19T05:07:46.000Z</time>
      </trkpt>
      <trkpt lat="27.711024" lon="86.714406">
        <ele>2669.6</ele>
        <time>2022-10-19T05:07:50.000Z</time>
      </trkpt>
      <trkpt lat="27.71105" lon="86.7144">
        <ele>2669.6</ele>
        <time>2022-10-19T05:07:53.000Z</time>
      </trkpt>
      <trkpt lat="27.711072" lon="86.7144">
        <ele>2669.4</ele>
        <time>2022-10-19T05:07:55.000Z</time>
      </trkpt>
      <trkpt lat="27.711094" lon="86.7144">
        <ele>2668.4</ele>
        <time>2022-10-19T05:07:57.000Z</time>
      </trkpt>
      <trkpt lat="27.711123" lon="86.714394">
        <ele>2668.4</ele>
        <time>2022-10-19T05:07:59.000Z</time>
      </trkpt>
      <trkpt lat="27.711142" lon="86.714394">
        <ele>2668</ele>
        <time>2022-10-19T05:08:01.000Z</time>
      </trkpt>
      <trkpt lat="27.711162" lon="86.7144">
        <ele>2668.2</ele>
        <time>2022-10-19T05:08:03.000Z</time>
      </trkpt>
      <trkpt lat="27.71119" lon="86.714394">
        <ele>2668.4</ele>
        <time>2022-10-19T05:08:07.000Z</time>
      </trkpt>
      <trkpt lat="27.71121" lon="86.714387">
        <ele>2667.4</ele>
        <time>2022-10-19T05:08:09.000Z</time>
      </trkpt>
      <trkpt lat="27.711229" lon="86.714368">
        <ele>2667.2</ele>
        <time>2022-10-19T05:08:11.000Z</time>
      </trkpt>
      <trkpt lat="27.711248" lon="86.714362">
        <ele>2667.2</ele>
        <time>2022-10-19T05:08:13.000Z</time>
      </trkpt>
      <trkpt lat="27.71127" lon="86.714355">
        <ele>2667.2</ele>
        <time>2022-10-19T05:08:15.000Z</time>
      </trkpt>
      <trkpt lat="27.711293" lon="86.714342">
        <ele>2667</ele>
        <time>2022-10-19T05:08:18.000Z</time>
      </trkpt>
      <trkpt lat="27.711302" lon="86.714323">
        <ele>2666.8</ele>
        <time>2022-10-19T05:08:21.000Z</time>
      </trkpt>
      <trkpt lat="27.711325" lon="86.71431">
        <ele>2666.4</ele>
        <time>2022-10-19T05:08:25.000Z</time>
      </trkpt>
      <trkpt lat="27.711341" lon="86.714285">
        <ele>2665.8</ele>
        <time>2022-10-19T05:08:28.000Z</time>
      </trkpt>
      <trkpt lat="27.71136" lon="86.714278">
        <ele>2665.4</ele>
        <time>2022-10-19T05:08:30.000Z</time>
      </trkpt>
      <trkpt lat="27.711386" lon="86.714266">
        <ele>2664.6</ele>
        <time>2022-10-19T05:08:33.000Z</time>
      </trkpt>
      <trkpt lat="27.711408" lon="86.714266">
        <ele>2664.2</ele>
        <time>2022-10-19T05:08:35.000Z</time>
      </trkpt>
      <trkpt lat="27.711427" lon="86.714266">
        <ele>2664</ele>
        <time>2022-10-19T05:08:37.000Z</time>
      </trkpt>
      <trkpt lat="27.71145" lon="86.714259">
        <ele>2663.8</ele>
        <time>2022-10-19T05:08:39.000Z</time>
      </trkpt>
      <trkpt lat="27.711472" lon="86.714246">
        <ele>2663.2</ele>
        <time>2022-10-19T05:08:42.000Z</time>
      </trkpt>
      <trkpt lat="27.711491" lon="86.71424">
        <ele>2662.8</ele>
        <time>2022-10-19T05:08:44.000Z</time>
      </trkpt>
      <trkpt lat="27.711514" lon="86.714234">
        <ele>2662.4</ele>
        <time>2022-10-19T05:08:47.000Z</time>
      </trkpt>
      <trkpt lat="27.711533" lon="86.714208">
        <ele>2661.8</ele>
        <time>2022-10-19T05:08:50.000Z</time>
      </trkpt>
      <trkpt lat="27.711558" lon="86.714195">
        <ele>2660.8</ele>
        <time>2022-10-19T05:08:56.000Z</time>
      </trkpt>
      <trkpt lat="27.711581" lon="86.714182">
        <ele>2660</ele>
        <time>2022-10-19T05:09:00.000Z</time>
      </trkpt>
      <trkpt lat="27.711603" lon="86.714163">
        <ele>2660</ele>
        <time>2022-10-19T05:09:03.000Z</time>
      </trkpt>
      <trkpt lat="27.711629" lon="86.71415">
        <ele>2659.4</ele>
        <time>2022-10-19T05:09:06.000Z</time>
      </trkpt>
      <trkpt lat="27.711642" lon="86.714131">
        <ele>2659</ele>
        <time>2022-10-19T05:09:08.000Z</time>
      </trkpt>
      <trkpt lat="27.711661" lon="86.714125">
        <ele>2658.8</ele>
        <time>2022-10-19T05:09:10.000Z</time>
      </trkpt>
      <trkpt lat="27.711677" lon="86.714112">
        <ele>2658.2</ele>
        <time>2022-10-19T05:09:13.000Z</time>
      </trkpt>
      <trkpt lat="27.71169" lon="86.714086">
        <ele>2658</ele>
        <time>2022-10-19T05:09:15.000Z</time>
      </trkpt>
      <trkpt lat="27.711706" lon="86.714067">
        <ele>2657.4</ele>
        <time>2022-10-19T05:09:18.000Z</time>
      </trkpt>
      <trkpt lat="27.711715" lon="86.714042">
        <ele>2656.8</ele>
        <time>2022-10-19T05:09:21.000Z</time>
      </trkpt>
      <trkpt lat="27.711734" lon="86.714022">
        <ele>2656.4</ele>
        <time>2022-10-19T05:09:24.000Z</time>
      </trkpt>
      <trkpt lat="27.711757" lon="86.71401">
        <ele>2656.2</ele>
        <time>2022-10-19T05:09:27.000Z</time>
      </trkpt>
      <trkpt lat="27.711776" lon="86.71401">
        <ele>2655.8</ele>
        <time>2022-10-19T05:09:30.000Z</time>
      </trkpt>
      <trkpt lat="27.711795" lon="86.714003">
        <ele>2655.6</ele>
        <time>2022-10-19T05:09:32.000Z</time>
      </trkpt>
      <trkpt lat="27.711821" lon="86.714003">
        <ele>2655.4</ele>
        <time>2022-10-19T05:09:34.000Z</time>
      </trkpt>
      <trkpt lat="27.711843" lon="86.714003">
        <ele>2655.4</ele>
        <time>2022-10-19T05:09:37.000Z</time>
      </trkpt>
      <trkpt lat="27.711859" lon="86.71399">
        <ele>2655.2</ele>
        <time>2022-10-19T05:09:40.000Z</time>
      </trkpt>
      <trkpt lat="27.711878" lon="86.71399">
        <ele>2654.8</ele>
        <time>2022-10-19T05:09:43.000Z</time>
      </trkpt>
      <trkpt lat="27.711898" lon="86.713984">
        <ele>2654.2</ele>
        <time>2022-10-19T05:09:45.000Z</time>
      </trkpt>
      <trkpt lat="27.711917" lon="86.713984">
        <ele>2654</ele>
        <time>2022-10-19T05:09:47.000Z</time>
      </trkpt>
      <trkpt lat="27.711936" lon="86.713984">
        <ele>2653.4</ele>
        <time>2022-10-19T05:09:49.000Z</time>
      </trkpt>
      <trkpt lat="27.711955" lon="86.713984">
        <ele>2653</ele>
        <time>2022-10-19T05:09:51.000Z</time>
      </trkpt>
      <trkpt lat="27.711974" lon="86.713984">
        <ele>2652.6</ele>
        <time>2022-10-19T05:09:54.000Z</time>
      </trkpt>
      <trkpt lat="27.711981" lon="86.713965">
        <ele>2652.4</ele>
        <time>2022-10-19T05:09:56.000Z</time>
      </trkpt>
      <trkpt lat="27.712003" lon="86.713952">
        <ele>2652.4</ele>
        <time>2022-10-19T05:09:59.000Z</time>
      </trkpt>
      <trkpt lat="27.712029" lon="86.713946">
        <ele>2651.4</ele>
        <time>2022-10-19T05:10:03.000Z</time>
      </trkpt>
      <trkpt lat="27.712045" lon="86.713933">
        <ele>2651</ele>
        <time>2022-10-19T05:10:05.000Z</time>
      </trkpt>
      <trkpt lat="27.712064" lon="86.71392">
        <ele>2650</ele>
        <time>2022-10-19T05:10:09.000Z</time>
      </trkpt>
      <trkpt lat="27.712083" lon="86.713901">
        <ele>2649.2</ele>
        <time>2022-10-19T05:10:14.000Z</time>
      </trkpt>
      <trkpt lat="27.712093" lon="86.713882">
        <ele>2648.6</ele>
        <time>2022-10-19T05:10:17.000Z</time>
      </trkpt>
      <trkpt lat="27.712112" lon="86.713869">
        <ele>2648</ele>
        <time>2022-10-19T05:10:19.000Z</time>
      </trkpt>
      <trkpt lat="27.712131" lon="86.713862">
        <ele>2647.6</ele>
        <time>2022-10-19T05:10:21.000Z</time>
      </trkpt>
      <trkpt lat="27.712154" lon="86.713862">
        <ele>2647.4</ele>
        <time>2022-10-19T05:10:24.000Z</time>
      </trkpt>
      <trkpt lat="27.71217" lon="86.71385">
        <ele>2647.2</ele>
        <time>2022-10-19T05:10:26.000Z</time>
      </trkpt>
      <trkpt lat="27.712195" lon="86.713843">
        <ele>2646.8</ele>
        <time>2022-10-19T05:10:29.000Z</time>
      </trkpt>
      <trkpt lat="27.712221" lon="86.713837">
        <ele>2646.4</ele>
        <time>2022-10-19T05:10:32.000Z</time>
      </trkpt>
      <trkpt lat="27.712243" lon="86.71383">
        <ele>2646.2</ele>
        <time>2022-10-19T05:10:34.000Z</time>
      </trkpt>
      <trkpt lat="27.712269" lon="86.713824">
        <ele>2645.6</ele>
        <time>2022-10-19T05:10:37.000Z</time>
      </trkpt>
      <trkpt lat="27.712285" lon="86.713798">
        <ele>2645.2</ele>
        <time>2022-10-19T05:10:39.000Z</time>
      </trkpt>
      <trkpt lat="27.712307" lon="86.713786">
        <ele>2644.6</ele>
        <time>2022-10-19T05:10:41.000Z</time>
      </trkpt>
      <trkpt lat="27.712323" lon="86.713773">
        <ele>2644.2</ele>
        <time>2022-10-19T05:10:43.000Z</time>
      </trkpt>
      <trkpt lat="27.712342" lon="86.713766">
        <ele>2643.8</ele>
        <time>2022-10-19T05:10:45.000Z</time>
      </trkpt>
      <trkpt lat="27.712365" lon="86.71376">
        <ele>2643.6</ele>
        <time>2022-10-19T05:10:48.000Z</time>
      </trkpt>
      <trkpt lat="27.712384" lon="86.713747">
        <ele>2642.6</ele>
        <time>2022-10-19T05:10:51.000Z</time>
      </trkpt>
      <trkpt lat="27.7124" lon="86.713734">
        <ele>2642.2</ele>
        <time>2022-10-19T05:10:54.000Z</time>
      </trkpt>
      <trkpt lat="27.712419" lon="86.713722">
        <ele>2641.4</ele>
        <time>2022-10-19T05:10:59.000Z</time>
      </trkpt>
      <trkpt lat="27.712438" lon="86.713722">
        <ele>2641</ele>
        <time>2022-10-19T05:11:01.000Z</time>
      </trkpt>
      <trkpt lat="27.712458" lon="86.713722">
        <ele>2641</ele>
        <time>2022-10-19T05:11:03.000Z</time>
      </trkpt>
      <trkpt lat="27.712474" lon="86.713702">
        <ele>2639.8</ele>
        <time>2022-10-19T05:11:07.000Z</time>
      </trkpt>
      <trkpt lat="27.712483" lon="86.713683">
        <ele>2639.6</ele>
        <time>2022-10-19T05:11:10.000Z</time>
      </trkpt>
      <trkpt lat="27.712496" lon="86.713664">
        <ele>2639.6</ele>
        <time>2022-10-19T05:11:14.000Z</time>
      </trkpt>
      <trkpt lat="27.712512" lon="86.713651">
        <ele>2639</ele>
        <time>2022-10-19T05:11:17.000Z</time>
      </trkpt>
      <trkpt lat="27.712541" lon="86.713626">
        <ele>2637.6</ele>
        <time>2022-10-19T05:12:23.000Z</time>
      </trkpt>
      <trkpt lat="27.71256" lon="86.713613">
        <ele>2637.4</ele>
        <time>2022-10-19T05:12:25.000Z</time>
      </trkpt>
      <trkpt lat="27.712579" lon="86.7136">
        <ele>2636.8</ele>
        <time>2022-10-19T05:12:27.000Z</time>
      </trkpt>
      <trkpt lat="27.712598" lon="86.713574">
        <ele>2636.8</ele>
        <time>2022-10-19T05:12:29.000Z</time>
      </trkpt>
      <trkpt lat="27.712614" lon="86.713562">
        <ele>2636.6</ele>
        <time>2022-10-19T05:12:31.000Z</time>
      </trkpt>
      <trkpt lat="27.712634" lon="86.713562">
        <ele>2635.6</ele>
        <time>2022-10-19T05:12:33.000Z</time>
      </trkpt>
      <trkpt lat="27.71265" lon="86.713549">
        <ele>2635.2</ele>
        <time>2022-10-19T05:12:36.000Z</time>
      </trkpt>
      <trkpt lat="27.712669" lon="86.713549">
        <ele>2634.4</ele>
        <time>2022-10-19T05:12:47.000Z</time>
      </trkpt>
      <trkpt lat="27.712685" lon="86.713568">
        <ele>2633.8</ele>
        <time>2022-10-19T05:12:52.000Z</time>
      </trkpt>
      <trkpt lat="27.712707" lon="86.713587">
        <ele>2633.2</ele>
        <time>2022-10-19T05:12:56.000Z</time>
      </trkpt>
      <trkpt lat="27.71273" lon="86.713587">
        <ele>2632.8</ele>
        <time>2022-10-19T05:12:59.000Z</time>
      </trkpt>
      <trkpt lat="27.712749" lon="86.7136">
        <ele>2632.2</ele>
        <time>2022-10-19T05:13:02.000Z</time>
      </trkpt>
      <trkpt lat="27.712771" lon="86.713626">
        <ele>2631.6</ele>
        <time>2022-10-19T05:13:06.000Z</time>
      </trkpt>
      <trkpt lat="27.712787" lon="86.713638">
        <ele>2631.4</ele>
        <time>2022-10-19T05:13:08.000Z</time>
      </trkpt>
      <trkpt lat="27.7128" lon="86.713664">
        <ele>2630.8</ele>
        <time>2022-10-19T05:13:10.000Z</time>
      </trkpt>
      <trkpt lat="27.712819" lon="86.713677">
        <ele>2630.4</ele>
        <time>2022-10-19T05:13:13.000Z</time>
      </trkpt>
      <trkpt lat="27.712838" lon="86.713683">
        <ele>2630.2</ele>
        <time>2022-10-19T05:13:15.000Z</time>
      </trkpt>
      <trkpt lat="27.712845" lon="86.713702">
        <ele>2630</ele>
        <time>2022-10-19T05:13:17.000Z</time>
      </trkpt>
      <trkpt lat="27.712864" lon="86.713702">
        <ele>2629.8</ele>
        <time>2022-10-19T05:13:19.000Z</time>
      </trkpt>
      <trkpt lat="27.712883" lon="86.713709">
        <ele>2629.6</ele>
        <time>2022-10-19T05:13:22.000Z</time>
      </trkpt>
      <trkpt lat="27.712902" lon="86.713702">
        <ele>2629.4</ele>
        <time>2022-10-19T05:13:24.000Z</time>
      </trkpt>
      <trkpt lat="27.712925" lon="86.713702">
        <ele>2628.2</ele>
        <time>2022-10-19T05:13:27.000Z</time>
      </trkpt>
      <trkpt lat="27.712954" lon="86.713715">
        <ele>2627.6</ele>
        <time>2022-10-19T05:13:30.000Z</time>
      </trkpt>
      <trkpt lat="27.712976" lon="86.713728">
        <ele>2627.4</ele>
        <time>2022-10-19T05:13:32.000Z</time>
      </trkpt>
      <trkpt lat="27.712998" lon="86.713747">
        <ele>2626.8</ele>
        <time>2022-10-19T05:13:34.000Z</time>
      </trkpt>
      <trkpt lat="27.71303" lon="86.713754">
        <ele>2626.8</ele>
        <time>2022-10-19T05:13:36.000Z</time>
      </trkpt>
      <trkpt lat="27.713056" lon="86.713754">
        <ele>2626.4</ele>
        <time>2022-10-19T05:13:38.000Z</time>
      </trkpt>
      <trkpt lat="27.713075" lon="86.713766">
        <ele>2626.4</ele>
        <time>2022-10-19T05:13:41.000Z</time>
      </trkpt>
      <trkpt lat="27.713088" lon="86.713798">
        <ele>2626.8</ele>
        <time>2022-10-19T05:13:43.000Z</time>
      </trkpt>
      <trkpt lat="27.713104" lon="86.713811">
        <ele>2626.8</ele>
        <time>2022-10-19T05:13:45.000Z</time>
      </trkpt>
      <trkpt lat="27.713114" lon="86.71383">
        <ele>2627</ele>
        <time>2022-10-19T05:13:46.000Z</time>
      </trkpt>
      <trkpt lat="27.713123" lon="86.713869">
        <ele>2627</ele>
        <time>2022-10-19T05:13:49.000Z</time>
      </trkpt>
      <trkpt lat="27.713126" lon="86.713901">
        <ele>2626.8</ele>
        <time>2022-10-19T05:13:51.000Z</time>
      </trkpt>
      <trkpt lat="27.713146" lon="86.713907">
        <ele>2627</ele>
        <time>2022-10-19T05:13:53.000Z</time>
      </trkpt>
      <trkpt lat="27.713168" lon="86.713926">
        <ele>2627</ele>
        <time>2022-10-19T05:13:56.000Z</time>
      </trkpt>
      <trkpt lat="27.713197" lon="86.713933">
        <ele>2626.6</ele>
        <time>2022-10-19T05:13:59.000Z</time>
      </trkpt>
      <trkpt lat="27.713216" lon="86.713933">
        <ele>2626.4</ele>
        <time>2022-10-19T05:14:01.000Z</time>
      </trkpt>
      <trkpt lat="27.713235" lon="86.713933">
        <ele>2626.4</ele>
        <time>2022-10-19T05:14:02.000Z</time>
      </trkpt>
      <trkpt lat="27.713235" lon="86.713965">
        <ele>2626.4</ele>
        <time>2022-10-19T05:14:05.000Z</time>
      </trkpt>
      <trkpt lat="27.713245" lon="86.713984">
        <ele>2625.6</ele>
        <time>2022-10-19T05:14:07.000Z</time>
      </trkpt>
      <trkpt lat="27.713264" lon="86.713997">
        <ele>2625.2</ele>
        <time>2022-10-19T05:14:09.000Z</time>
      </trkpt>
      <trkpt lat="27.713286" lon="86.714003">
        <ele>2624.8</ele>
        <time>2022-10-19T05:14:12.000Z</time>
      </trkpt>
      <trkpt lat="27.713309" lon="86.714022">
        <ele>2623.8</ele>
        <time>2022-10-19T05:14:15.000Z</time>
      </trkpt>
      <trkpt lat="27.713325" lon="86.71401">
        <ele>2623.8</ele>
        <time>2022-10-19T05:14:17.000Z</time>
      </trkpt>
      <trkpt lat="27.713354" lon="86.714003">
        <ele>2623.6</ele>
        <time>2022-10-19T05:14:19.000Z</time>
      </trkpt>
      <trkpt lat="27.713376" lon="86.714003">
        <ele>2623</ele>
        <time>2022-10-19T05:14:22.000Z</time>
      </trkpt>
      <trkpt lat="27.713395" lon="86.713997">
        <ele>2622.8</ele>
        <time>2022-10-19T05:14:24.000Z</time>
      </trkpt>
      <trkpt lat="27.713424" lon="86.71399">
        <ele>2622.2</ele>
        <time>2022-10-19T05:14:26.000Z</time>
      </trkpt>
      <trkpt lat="27.713446" lon="86.71399">
        <ele>2621.6</ele>
        <time>2022-10-19T05:14:28.000Z</time>
      </trkpt>
      <trkpt lat="27.713475" lon="86.714003">
        <ele>2620.8</ele>
        <time>2022-10-19T05:14:31.000Z</time>
      </trkpt>
      <trkpt lat="27.713491" lon="86.714022">
        <ele>2620.6</ele>
        <time>2022-10-19T05:14:33.000Z</time>
      </trkpt>
      <trkpt lat="27.713514" lon="86.714029">
        <ele>2620</ele>
        <time>2022-10-19T05:14:35.000Z</time>
      </trkpt>
      <trkpt lat="27.713539" lon="86.714042">
        <ele>2619.8</ele>
        <time>2022-10-19T05:14:37.000Z</time>
      </trkpt>
      <trkpt lat="27.713549" lon="86.714061">
        <ele>2619.2</ele>
        <time>2022-10-19T05:14:39.000Z</time>
      </trkpt>
      <trkpt lat="27.713552" lon="86.714086">
        <ele>2618.8</ele>
        <time>2022-10-19T05:14:42.000Z</time>
      </trkpt>
      <trkpt lat="27.713565" lon="86.714112">
        <ele>2618.6</ele>
        <time>2022-10-19T05:14:44.000Z</time>
      </trkpt>
      <trkpt lat="27.713578" lon="86.714131">
        <ele>2618.2</ele>
        <time>2022-10-19T05:14:46.000Z</time>
      </trkpt>
      <trkpt lat="27.71359" lon="86.71415">
        <ele>2618</ele>
        <time>2022-10-19T05:14:48.000Z</time>
      </trkpt>
      <trkpt lat="27.713606" lon="86.714163">
        <ele>2617.6</ele>
        <time>2022-10-19T05:14:50.000Z</time>
      </trkpt>
      <trkpt lat="27.713619" lon="86.714182">
        <ele>2617.6</ele>
        <time>2022-10-19T05:14:52.000Z</time>
      </trkpt>
      <trkpt lat="27.713642" lon="86.714189">
        <ele>2617.2</ele>
        <time>2022-10-19T05:14:55.000Z</time>
      </trkpt>
      <trkpt lat="27.713667" lon="86.714195">
        <ele>2617.2</ele>
        <time>2022-10-19T05:14:57.000Z</time>
      </trkpt>
      <trkpt lat="27.713696" lon="86.714182">
        <ele>2617.2</ele>
        <time>2022-10-19T05:14:59.000Z</time>
      </trkpt>
      <trkpt lat="27.713734" lon="86.71415">
        <ele>2616</ele>
        <time>2022-10-19T05:15:04.000Z</time>
      </trkpt>
      <trkpt lat="27.71376" lon="86.714144">
        <ele>2616</ele>
        <time>2022-10-19T05:15:07.000Z</time>
      </trkpt>
      <trkpt lat="27.713776" lon="86.714131">
        <ele>2615</ele>
        <time>2022-10-19T05:15:11.000Z</time>
      </trkpt>
      <trkpt lat="27.713798" lon="86.714125">
        <ele>2614.6</ele>
        <time>2022-10-19T05:15:13.000Z</time>
      </trkpt>
      <trkpt lat="27.713818" lon="86.714125">
        <ele>2613.6</ele>
        <time>2022-10-19T05:15:24.000Z</time>
      </trkpt>
      <trkpt lat="27.713862" lon="86.714157">
        <ele>2609.8</ele>
        <time>2022-10-19T05:17:27.000Z</time>
      </trkpt>
      <trkpt lat="27.713882" lon="86.714157">
        <ele>2609.6</ele>
        <time>2022-10-19T05:17:28.000Z</time>
      </trkpt>
      <trkpt lat="27.713901" lon="86.714157">
        <ele>2609.4</ele>
        <time>2022-10-19T05:17:29.000Z</time>
      </trkpt>
      <trkpt lat="27.71393" lon="86.71417">
        <ele>2609</ele>
        <time>2022-10-19T05:17:31.000Z</time>
      </trkpt>
      <trkpt lat="27.713962" lon="86.714182">
        <ele>2608.8</ele>
        <time>2022-10-19T05:17:33.000Z</time>
      </trkpt>
      <trkpt lat="27.713981" lon="86.714182">
        <ele>2608.8</ele>
        <time>2022-10-19T05:17:34.000Z</time>
      </trkpt>
      <trkpt lat="27.71401" lon="86.714195">
        <ele>2608.2</ele>
        <time>2022-10-19T05:17:36.000Z</time>
      </trkpt>
      <trkpt lat="27.714029" lon="86.714202">
        <ele>2608</ele>
        <time>2022-10-19T05:17:39.000Z</time>
      </trkpt>
      <trkpt lat="27.714058" lon="86.714208">
        <ele>2607.4</ele>
        <time>2022-10-19T05:17:43.000Z</time>
      </trkpt>
      <trkpt lat="27.71408" lon="86.714208">
        <ele>2606.8</ele>
        <time>2022-10-19T05:17:46.000Z</time>
      </trkpt>
      <trkpt lat="27.714096" lon="86.714227">
        <ele>2607</ele>
        <time>2022-10-19T05:17:57.000Z</time>
      </trkpt>
      <trkpt lat="27.714118" lon="86.714234">
        <ele>2606.8</ele>
        <time>2022-10-19T05:18:02.000Z</time>
      </trkpt>
      <trkpt lat="27.714141" lon="86.71424">
        <ele>2606.2</ele>
        <time>2022-10-19T05:18:06.000Z</time>
      </trkpt>
      <trkpt lat="27.71416" lon="86.714246">
        <ele>2605.6</ele>
        <time>2022-10-19T05:18:10.000Z</time>
      </trkpt>
      <trkpt lat="27.714179" lon="86.714259">
        <ele>2605.8</ele>
        <time>2022-10-19T05:18:13.000Z</time>
      </trkpt>
      <trkpt lat="27.714198" lon="86.714266">
        <ele>2605.2</ele>
        <time>2022-10-19T05:18:15.000Z</time>
      </trkpt>
      <trkpt lat="27.714214" lon="86.714278">
        <ele>2605.2</ele>
        <time>2022-10-19T05:18:20.000Z</time>
      </trkpt>
      <trkpt lat="27.714237" lon="86.714278">
        <ele>2604.8</ele>
        <time>2022-10-19T05:18:31.000Z</time>
      </trkpt>
      <trkpt lat="27.714259" lon="86.714285">
        <ele>2604.6</ele>
        <time>2022-10-19T05:18:34.000Z</time>
      </trkpt>
      <trkpt lat="27.714278" lon="86.714298">
        <ele>2604.8</ele>
        <time>2022-10-19T05:18:37.000Z</time>
      </trkpt>
      <trkpt lat="27.714301" lon="86.714304">
        <ele>2604.6</ele>
        <time>2022-10-19T05:18:39.000Z</time>
      </trkpt>
      <trkpt lat="27.714326" lon="86.71431">
        <ele>2603.8</ele>
        <time>2022-10-19T05:18:42.000Z</time>
      </trkpt>
      <trkpt lat="27.714342" lon="86.714323">
        <ele>2603.8</ele>
        <time>2022-10-19T05:18:44.000Z</time>
      </trkpt>
      <trkpt lat="27.714362" lon="86.714323">
        <ele>2603.8</ele>
        <time>2022-10-19T05:18:46.000Z</time>
      </trkpt>
      <trkpt lat="27.714384" lon="86.71433">
        <ele>2603.8</ele>
        <time>2022-10-19T05:18:48.000Z</time>
      </trkpt>
      <trkpt lat="27.7144" lon="86.714342">
        <ele>2603.6</ele>
        <time>2022-10-19T05:18:50.000Z</time>
      </trkpt>
      <trkpt lat="27.714419" lon="86.714355">
        <ele>2603.4</ele>
        <time>2022-10-19T05:18:52.000Z</time>
      </trkpt>
      <trkpt lat="27.714438" lon="86.714355">
        <ele>2603.2</ele>
        <time>2022-10-19T05:18:54.000Z</time>
      </trkpt>
      <trkpt lat="27.714458" lon="86.714368">
        <ele>2602.8</ele>
        <time>2022-10-19T05:18:58.000Z</time>
      </trkpt>
      <trkpt lat="27.714474" lon="86.714381">
        <ele>2602.4</ele>
        <time>2022-10-19T05:19:00.000Z</time>
      </trkpt>
      <trkpt lat="27.714493" lon="86.714387">
        <ele>2601.8</ele>
        <time>2022-10-19T05:19:02.000Z</time>
      </trkpt>
      <trkpt lat="27.714515" lon="86.714394">
        <ele>2601.8</ele>
        <time>2022-10-19T05:19:05.000Z</time>
      </trkpt>
      <trkpt lat="27.714541" lon="86.714406">
        <ele>2602</ele>
        <time>2022-10-19T05:19:08.000Z</time>
      </trkpt>
      <trkpt lat="27.71456" lon="86.714419">
        <ele>2602</ele>
        <time>2022-10-19T05:19:10.000Z</time>
      </trkpt>
      <trkpt lat="27.714579" lon="86.714426">
        <ele>2602</ele>
        <time>2022-10-19T05:19:12.000Z</time>
      </trkpt>
      <trkpt lat="27.714605" lon="86.714426">
        <ele>2602</ele>
        <time>2022-10-19T05:19:14.000Z</time>
      </trkpt>
      <trkpt lat="27.714634" lon="86.714426">
        <ele>2602</ele>
        <time>2022-10-19T05:19:17.000Z</time>
      </trkpt>
      <trkpt lat="27.714659" lon="86.714432">
        <ele>2602</ele>
        <time>2022-10-19T05:19:20.000Z</time>
      </trkpt>
      <trkpt lat="27.714678" lon="86.714438">
        <ele>2602.2</ele>
        <time>2022-10-19T05:19:22.000Z</time>
      </trkpt>
      <trkpt lat="27.714698" lon="86.714438">
        <ele>2602.4</ele>
        <time>2022-10-19T05:19:24.000Z</time>
      </trkpt>
      <trkpt lat="27.714717" lon="86.714438">
        <ele>2602.8</ele>
        <time>2022-10-19T05:19:27.000Z</time>
      </trkpt>
      <trkpt lat="27.714726" lon="86.714419">
        <ele>2603.2</ele>
        <time>2022-10-19T05:19:32.000Z</time>
      </trkpt>
      <trkpt lat="27.714704" lon="86.714419">
        <ele>2601.6</ele>
        <time>2022-10-19T05:19:51.000Z</time>
      </trkpt>
      <trkpt lat="27.714685" lon="86.714419">
        <ele>2601.2</ele>
        <time>2022-10-19T05:19:53.000Z</time>
      </trkpt>
      <trkpt lat="27.714662" lon="86.714406">
        <ele>2601.4</ele>
        <time>2022-10-19T05:19:55.000Z</time>
      </trkpt>
      <trkpt lat="27.71464" lon="86.714406">
        <ele>2601.4</ele>
        <time>2022-10-19T05:19:58.000Z</time>
      </trkpt>
      <trkpt lat="27.714634" lon="86.714381">
        <ele>2600.8</ele>
        <time>2022-10-19T05:20:24.000Z</time>
      </trkpt>
      <trkpt lat="27.71463" lon="86.714355">
        <ele>2600</ele>
        <time>2022-10-19T05:20:26.000Z</time>
      </trkpt>
      <trkpt lat="27.714637" lon="86.71433">
        <ele>2599.2</ele>
        <time>2022-10-19T05:20:29.000Z</time>
      </trkpt>
      <trkpt lat="27.714659" lon="86.714323">
        <ele>2598.8</ele>
        <time>2022-10-19T05:20:33.000Z</time>
      </trkpt>
      <trkpt lat="27.714678" lon="86.714317">
        <ele>2598.2</ele>
        <time>2022-10-19T05:20:36.000Z</time>
      </trkpt>
      <trkpt lat="27.714698" lon="86.71431">
        <ele>2597.4</ele>
        <time>2022-10-19T05:20:39.000Z</time>
      </trkpt>
      <trkpt lat="27.71472" lon="86.714304">
        <ele>2596.6</ele>
        <time>2022-10-19T05:20:42.000Z</time>
      </trkpt>
      <trkpt lat="27.714739" lon="86.714285">
        <ele>2595.6</ele>
        <time>2022-10-19T05:20:45.000Z</time>
      </trkpt>
      <trkpt lat="27.714758" lon="86.714285">
        <ele>2595.2</ele>
        <time>2022-10-19T05:20:47.000Z</time>
      </trkpt>
      <trkpt lat="27.714781" lon="86.714278">
        <ele>2594.8</ele>
        <time>2022-10-19T05:20:49.000Z</time>
      </trkpt>
      <trkpt lat="27.714797" lon="86.714266">
        <ele>2594.8</ele>
        <time>2022-10-19T05:20:51.000Z</time>
      </trkpt>
      <trkpt lat="27.714822" lon="86.714259">
        <ele>2594</ele>
        <time>2022-10-19T05:20:54.000Z</time>
      </trkpt>
      <trkpt lat="27.714842" lon="86.714246">
        <ele>2593.8</ele>
        <time>2022-10-19T05:20:56.000Z</time>
      </trkpt>
      <trkpt lat="27.714864" lon="86.71424">
        <ele>2593.6</ele>
        <time>2022-10-19T05:20:58.000Z</time>
      </trkpt>
      <trkpt lat="27.714886" lon="86.71424">
        <ele>2592.6</ele>
        <time>2022-10-19T05:21:00.000Z</time>
      </trkpt>
      <trkpt lat="27.714912" lon="86.71424">
        <ele>2592</ele>
        <time>2022-10-19T05:21:02.000Z</time>
      </trkpt>
      <trkpt lat="27.714941" lon="86.714246">
        <ele>2591.8</ele>
        <time>2022-10-19T05:21:04.000Z</time>
      </trkpt>
      <trkpt lat="27.714966" lon="86.714246">
        <ele>2591.6</ele>
        <time>2022-10-19T05:21:06.000Z</time>
      </trkpt>
      <trkpt lat="27.714995" lon="86.71424">
        <ele>2591</ele>
        <time>2022-10-19T05:21:08.000Z</time>
      </trkpt>
      <trkpt lat="27.715021" lon="86.71424">
        <ele>2590.6</ele>
        <time>2022-10-19T05:21:10.000Z</time>
      </trkpt>
      <trkpt lat="27.71505" lon="86.714246">
        <ele>2590.6</ele>
        <time>2022-10-19T05:21:13.000Z</time>
      </trkpt>
      <trkpt lat="27.715075" lon="86.71424">
        <ele>2589.8</ele>
        <time>2022-10-19T05:21:15.000Z</time>
      </trkpt>
      <trkpt lat="27.715101" lon="86.71424">
        <ele>2589.6</ele>
        <time>2022-10-19T05:21:18.000Z</time>
      </trkpt>
      <trkpt lat="27.715123" lon="86.71424">
        <ele>2589.6</ele>
        <time>2022-10-19T05:21:20.000Z</time>
      </trkpt>
      <trkpt lat="27.715146" lon="86.714234">
        <ele>2589.4</ele>
        <time>2022-10-19T05:21:22.000Z</time>
      </trkpt>
      <trkpt lat="27.715165" lon="86.714227">
        <ele>2588.8</ele>
        <time>2022-10-19T05:21:24.000Z</time>
      </trkpt>
      <trkpt lat="27.715184" lon="86.714227">
        <ele>2588.4</ele>
        <time>2022-10-19T05:21:25.000Z</time>
      </trkpt>
      <trkpt lat="27.715213" lon="86.714221">
        <ele>2588.6</ele>
        <time>2022-10-19T05:21:27.000Z</time>
      </trkpt>
      <trkpt lat="27.715238" lon="86.714221">
        <ele>2588.8</ele>
        <time>2022-10-19T05:21:29.000Z</time>
      </trkpt>
      <trkpt lat="27.715261" lon="86.714208">
        <ele>2588.6</ele>
        <time>2022-10-19T05:21:31.000Z</time>
      </trkpt>
      <trkpt lat="27.715283" lon="86.714202">
        <ele>2588.6</ele>
        <time>2022-10-19T05:21:33.000Z</time>
      </trkpt>
      <trkpt lat="27.715312" lon="86.714202">
        <ele>2588.6</ele>
        <time>2022-10-19T05:21:35.000Z</time>
      </trkpt>
      <trkpt lat="27.715341" lon="86.714208">
        <ele>2588.4</ele>
        <time>2022-10-19T05:21:37.000Z</time>
      </trkpt>
      <trkpt lat="27.715363" lon="86.714208">
        <ele>2588.2</ele>
        <time>2022-10-19T05:21:39.000Z</time>
      </trkpt>
      <trkpt lat="27.715389" lon="86.714202">
        <ele>2588.2</ele>
        <time>2022-10-19T05:21:41.000Z</time>
      </trkpt>
      <trkpt lat="27.715414" lon="86.714202">
        <ele>2588</ele>
        <time>2022-10-19T05:21:43.000Z</time>
      </trkpt>
      <trkpt lat="27.71544" lon="86.714195">
        <ele>2588</ele>
        <time>2022-10-19T05:21:45.000Z</time>
      </trkpt>
      <trkpt lat="27.715466" lon="86.714189">
        <ele>2587.8</ele>
        <time>2022-10-19T05:21:47.000Z</time>
      </trkpt>
      <trkpt lat="27.715485" lon="86.714182">
        <ele>2587.6</ele>
        <time>2022-10-19T05:21:49.000Z</time>
      </trkpt>
      <trkpt lat="27.71551" lon="86.714182">
        <ele>2587.2</ele>
        <time>2022-10-19T05:21:51.000Z</time>
      </trkpt>
      <trkpt lat="27.71553" lon="86.714182">
        <ele>2586.8</ele>
        <time>2022-10-19T05:21:53.000Z</time>
      </trkpt>
      <trkpt lat="27.715552" lon="86.71417">
        <ele>2586.6</ele>
        <time>2022-10-19T05:21:55.000Z</time>
      </trkpt>
      <trkpt lat="27.715571" lon="86.71417">
        <ele>2586.6</ele>
        <time>2022-10-19T05:21:57.000Z</time>
      </trkpt>
      <trkpt lat="27.715597" lon="86.714163">
        <ele>2586.2</ele>
        <time>2022-10-19T05:22:00.000Z</time>
      </trkpt>
      <trkpt lat="27.715619" lon="86.714157">
        <ele>2586.6</ele>
        <time>2022-10-19T05:22:03.000Z</time>
      </trkpt>
      <trkpt lat="27.715632" lon="86.714182">
        <ele>2585.6</ele>
        <time>2022-10-19T05:22:07.000Z</time>
      </trkpt>
      <trkpt lat="27.715651" lon="86.714182">
        <ele>2585.6</ele>
        <time>2022-10-19T05:22:09.000Z</time>
      </trkpt>
      <trkpt lat="27.71567" lon="86.714189">
        <ele>2585</ele>
        <time>2022-10-19T05:22:11.000Z</time>
      </trkpt>
      <trkpt lat="27.715693" lon="86.714202">
        <ele>2584.6</ele>
        <time>2022-10-19T05:22:13.000Z</time>
      </trkpt>
      <trkpt lat="27.715702" lon="86.714221">
        <ele>2584.6</ele>
        <time>2022-10-19T05:22:15.000Z</time>
      </trkpt>
      <trkpt lat="27.715718" lon="86.71424">
        <ele>2584.8</ele>
        <time>2022-10-19T05:22:17.000Z</time>
      </trkpt>
      <trkpt lat="27.715731" lon="86.714266">
        <ele>2584.8</ele>
        <time>2022-10-19T05:22:20.000Z</time>
      </trkpt>
      <trkpt lat="27.715744" lon="86.714285">
        <ele>2585</ele>
        <time>2022-10-19T05:22:23.000Z</time>
      </trkpt>
      <trkpt lat="27.71576" lon="86.714304">
        <ele>2584.6</ele>
        <time>2022-10-19T05:22:25.000Z</time>
      </trkpt>
      <trkpt lat="27.71577" lon="86.714323">
        <ele>2584.2</ele>
        <time>2022-10-19T05:22:27.000Z</time>
      </trkpt>
      <trkpt lat="27.715779" lon="86.714349">
        <ele>2583.6</ele>
        <time>2022-10-19T05:22:29.000Z</time>
      </trkpt>
      <trkpt lat="27.715798" lon="86.714362">
        <ele>2583.4</ele>
        <time>2022-10-19T05:22:31.000Z</time>
      </trkpt>
      <trkpt lat="27.715811" lon="86.714381">
        <ele>2583</ele>
        <time>2022-10-19T05:22:33.000Z</time>
      </trkpt>
      <trkpt lat="27.71583" lon="86.714394">
        <ele>2582.6</ele>
        <time>2022-10-19T05:22:36.000Z</time>
      </trkpt>
      <trkpt lat="27.71584" lon="86.714419">
        <ele>2582.4</ele>
        <time>2022-10-19T05:22:38.000Z</time>
      </trkpt>
      <trkpt lat="27.715859" lon="86.714445">
        <ele>2581.8</ele>
        <time>2022-10-19T05:22:41.000Z</time>
      </trkpt>
      <trkpt lat="27.715882" lon="86.714464">
        <ele>2581.6</ele>
        <time>2022-10-19T05:22:44.000Z</time>
      </trkpt>
      <trkpt lat="27.715904" lon="86.714458">
        <ele>2581.8</ele>
        <time>2022-10-19T05:22:46.000Z</time>
      </trkpt>
      <trkpt lat="27.715933" lon="86.714464">
        <ele>2581.8</ele>
        <time>2022-10-19T05:22:49.000Z</time>
      </trkpt>
      <trkpt lat="27.715952" lon="86.71447">
        <ele>2581.8</ele>
        <time>2022-10-19T05:22:51.000Z</time>
      </trkpt>
      <trkpt lat="27.715978" lon="86.714477">
        <ele>2581.6</ele>
        <time>2022-10-19T05:22:53.000Z</time>
      </trkpt>
      <trkpt lat="27.715997" lon="86.714477">
        <ele>2581.6</ele>
        <time>2022-10-19T05:22:55.000Z</time>
      </trkpt>
      <trkpt lat="27.716022" lon="86.714477">
        <ele>2581.6</ele>
        <time>2022-10-19T05:22:57.000Z</time>
      </trkpt>
      <trkpt lat="27.716038" lon="86.71449">
        <ele>2581.8</ele>
        <time>2022-10-19T05:22:59.000Z</time>
      </trkpt>
      <trkpt lat="27.716061" lon="86.714502">
        <ele>2582</ele>
        <time>2022-10-19T05:23:01.000Z</time>
      </trkpt>
      <trkpt lat="27.71609" lon="86.714502">
        <ele>2582.2</ele>
        <time>2022-10-19T05:23:04.000Z</time>
      </trkpt>
      <trkpt lat="27.716109" lon="86.714502">
        <ele>2582</ele>
        <time>2022-10-19T05:23:06.000Z</time>
      </trkpt>
      <trkpt lat="27.716131" lon="86.714502">
        <ele>2582</ele>
        <time>2022-10-19T05:23:08.000Z</time>
      </trkpt>
      <trkpt lat="27.716154" lon="86.714509">
        <ele>2581.8</ele>
        <time>2022-10-19T05:23:10.000Z</time>
      </trkpt>
      <trkpt lat="27.716173" lon="86.714515">
        <ele>2581.8</ele>
        <time>2022-10-19T05:23:12.000Z</time>
      </trkpt>
      <trkpt lat="27.716192" lon="86.714522">
        <ele>2582</ele>
        <time>2022-10-19T05:23:14.000Z</time>
      </trkpt>
      <trkpt lat="27.716214" lon="86.714522">
        <ele>2581.8</ele>
        <time>2022-10-19T05:23:16.000Z</time>
      </trkpt>
      <trkpt lat="27.716237" lon="86.714522">
        <ele>2581.8</ele>
        <time>2022-10-19T05:23:18.000Z</time>
      </trkpt>
      <trkpt lat="27.716259" lon="86.714541">
        <ele>2581.6</ele>
        <time>2022-10-19T05:23:20.000Z</time>
      </trkpt>
      <trkpt lat="27.716285" lon="86.714547">
        <ele>2581.6</ele>
        <time>2022-10-19T05:23:23.000Z</time>
      </trkpt>
      <trkpt lat="27.716307" lon="86.714554">
        <ele>2581</ele>
        <time>2022-10-19T05:23:26.000Z</time>
      </trkpt>
      <trkpt lat="27.716323" lon="86.714566">
        <ele>2581</ele>
        <time>2022-10-19T05:23:30.000Z</time>
      </trkpt>
      <trkpt lat="27.716336" lon="86.714586">
        <ele>2580.6</ele>
        <time>2022-10-19T05:23:32.000Z</time>
      </trkpt>
      <trkpt lat="27.716352" lon="86.714598">
        <ele>2579.8</ele>
        <time>2022-10-19T05:23:34.000Z</time>
      </trkpt>
      <trkpt lat="27.716362" lon="86.714618">
        <ele>2579.6</ele>
        <time>2022-10-19T05:23:35.000Z</time>
      </trkpt>
      <trkpt lat="27.716378" lon="86.71463">
        <ele>2579.4</ele>
        <time>2022-10-19T05:23:37.000Z</time>
      </trkpt>
      <trkpt lat="27.716394" lon="86.714656">
        <ele>2579.4</ele>
        <time>2022-10-19T05:23:39.000Z</time>
      </trkpt>
      <trkpt lat="27.716406" lon="86.714682">
        <ele>2579.6</ele>
        <time>2022-10-19T05:23:42.000Z</time>
      </trkpt>
      <trkpt lat="27.716429" lon="86.714707">
        <ele>2579.6</ele>
        <time>2022-10-19T05:23:45.000Z</time>
      </trkpt>
      <trkpt lat="27.716458" lon="86.71472">
        <ele>2579.4</ele>
        <time>2022-10-19T05:23:48.000Z</time>
      </trkpt>
      <trkpt lat="27.716464" lon="86.714739">
        <ele>2579.4</ele>
        <time>2022-10-19T05:23:49.000Z</time>
      </trkpt>
      <trkpt lat="27.716483" lon="86.714746">
        <ele>2579.4</ele>
        <time>2022-10-19T05:23:51.000Z</time>
      </trkpt>
      <trkpt lat="27.716509" lon="86.714752">
        <ele>2579.4</ele>
        <time>2022-10-19T05:23:53.000Z</time>
      </trkpt>
      <trkpt lat="27.716531" lon="86.714746">
        <ele>2579.2</ele>
        <time>2022-10-19T05:23:56.000Z</time>
      </trkpt>
      <trkpt lat="27.716557" lon="86.714739">
        <ele>2579.2</ele>
        <time>2022-10-19T05:23:58.000Z</time>
      </trkpt>
      <trkpt lat="27.716576" lon="86.714726">
        <ele>2579</ele>
        <time>2022-10-19T05:24:00.000Z</time>
      </trkpt>
      <trkpt lat="27.716592" lon="86.714739">
        <ele>2579</ele>
        <time>2022-10-19T05:24:01.000Z</time>
      </trkpt>
      <trkpt lat="27.716618" lon="86.714746">
        <ele>2579</ele>
        <time>2022-10-19T05:24:04.000Z</time>
      </trkpt>
      <trkpt lat="27.71664" lon="86.714758">
        <ele>2579</ele>
        <time>2022-10-19T05:24:06.000Z</time>
      </trkpt>
      <trkpt lat="27.716662" lon="86.714765">
        <ele>2579.2</ele>
        <time>2022-10-19T05:24:08.000Z</time>
      </trkpt>
      <trkpt lat="27.716678" lon="86.714778">
        <ele>2579.4</ele>
        <time>2022-10-19T05:24:10.000Z</time>
      </trkpt>
      <trkpt lat="27.716704" lon="86.71479">
        <ele>2580</ele>
        <time>2022-10-19T05:24:13.000Z</time>
      </trkpt>
      <trkpt lat="27.716723" lon="86.71479">
        <ele>2579.8</ele>
        <time>2022-10-19T05:24:15.000Z</time>
      </trkpt>
      <trkpt lat="27.716749" lon="86.714797">
        <ele>2579.6</ele>
        <time>2022-10-19T05:24:17.000Z</time>
      </trkpt>
      <trkpt lat="27.716774" lon="86.71479">
        <ele>2579.4</ele>
        <time>2022-10-19T05:24:19.000Z</time>
      </trkpt>
      <trkpt lat="27.7168" lon="86.71479">
        <ele>2579.2</ele>
        <time>2022-10-19T05:24:21.000Z</time>
      </trkpt>
      <trkpt lat="27.716838" lon="86.714784">
        <ele>2578.4</ele>
        <time>2022-10-19T05:24:24.000Z</time>
      </trkpt>
      <trkpt lat="27.71687" lon="86.714778">
        <ele>2578.4</ele>
        <time>2022-10-19T05:24:26.000Z</time>
      </trkpt>
      <trkpt lat="27.716893" lon="86.714778">
        <ele>2578</ele>
        <time>2022-10-19T05:24:28.000Z</time>
      </trkpt>
      <trkpt lat="27.716912" lon="86.714778">
        <ele>2578</ele>
        <time>2022-10-19T05:24:30.000Z</time>
      </trkpt>
      <trkpt lat="27.716931" lon="86.714778">
        <ele>2577.8</ele>
        <time>2022-10-19T05:24:31.000Z</time>
      </trkpt>
      <trkpt lat="27.716944" lon="86.714797">
        <ele>2578</ele>
        <time>2022-10-19T05:24:33.000Z</time>
      </trkpt>
      <trkpt lat="27.71695" lon="86.714822">
        <ele>2577.8</ele>
        <time>2022-10-19T05:24:35.000Z</time>
      </trkpt>
      <trkpt lat="27.71696" lon="86.714842">
        <ele>2577.8</ele>
        <time>2022-10-19T05:24:37.000Z</time>
      </trkpt>
      <trkpt lat="27.716966" lon="86.714867">
        <ele>2577.4</ele>
        <time>2022-10-19T05:24:39.000Z</time>
      </trkpt>
      <trkpt lat="27.716973" lon="86.714906">
        <ele>2577.6</ele>
        <time>2022-10-19T05:24:41.000Z</time>
      </trkpt>
      <trkpt lat="27.71696" lon="86.714938">
        <ele>2578</ele>
        <time>2022-10-19T05:24:43.000Z</time>
      </trkpt>
      <trkpt lat="27.71696" lon="86.714963">
        <ele>2578.8</ele>
        <time>2022-10-19T05:24:45.000Z</time>
      </trkpt>
      <trkpt lat="27.71695" lon="86.714982">
        <ele>2579</ele>
        <time>2022-10-19T05:24:47.000Z</time>
      </trkpt>
      <trkpt lat="27.716947" lon="86.715021">
        <ele>2580</ele>
        <time>2022-10-19T05:24:52.000Z</time>
      </trkpt>
      <trkpt lat="27.716947" lon="86.715059">
        <ele>2580.4</ele>
        <time>2022-10-19T05:24:55.000Z</time>
      </trkpt>
      <trkpt lat="27.716954" lon="86.715085">
        <ele>2580.4</ele>
        <time>2022-10-19T05:24:58.000Z</time>
      </trkpt>
      <trkpt lat="27.716982" lon="86.715123">
        <ele>2580.4</ele>
        <time>2022-10-19T05:25:02.000Z</time>
      </trkpt>
      <trkpt lat="27.716998" lon="86.715142">
        <ele>2580.2</ele>
        <time>2022-10-19T05:25:04.000Z</time>
      </trkpt>
      <trkpt lat="27.717024" lon="86.715142">
        <ele>2579.8</ele>
        <time>2022-10-19T05:25:06.000Z</time>
      </trkpt>
      <trkpt lat="27.71705" lon="86.715136">
        <ele>2579.8</ele>
        <time>2022-10-19T05:25:08.000Z</time>
      </trkpt>
      <trkpt lat="27.717078" lon="86.715142">
        <ele>2579.8</ele>
        <time>2022-10-19T05:25:10.000Z</time>
      </trkpt>
      <trkpt lat="27.717098" lon="86.715155">
        <ele>2579.4</ele>
        <time>2022-10-19T05:25:12.000Z</time>
      </trkpt>
      <trkpt lat="27.717107" lon="86.715174">
        <ele>2579</ele>
        <time>2022-10-19T05:25:13.000Z</time>
      </trkpt>
      <trkpt lat="27.717126" lon="86.715187">
        <ele>2578.6</ele>
        <time>2022-10-19T05:25:15.000Z</time>
      </trkpt>
      <trkpt lat="27.717149" lon="86.715194">
        <ele>2578.4</ele>
        <time>2022-10-19T05:25:17.000Z</time>
      </trkpt>
      <trkpt lat="27.717168" lon="86.7152">
        <ele>2578.2</ele>
        <time>2022-10-19T05:25:19.000Z</time>
      </trkpt>
      <trkpt lat="27.717187" lon="86.7152">
        <ele>2578</ele>
        <time>2022-10-19T05:25:22.000Z</time>
      </trkpt>
      <trkpt lat="27.717206" lon="86.715213">
        <ele>2577.8</ele>
        <time>2022-10-19T05:25:24.000Z</time>
      </trkpt>
      <trkpt lat="27.717232" lon="86.715226">
        <ele>2577</ele>
        <time>2022-10-19T05:25:27.000Z</time>
      </trkpt>
      <trkpt lat="27.717248" lon="86.715251">
        <ele>2576.2</ele>
        <time>2022-10-19T05:25:29.000Z</time>
      </trkpt>
      <trkpt lat="27.717264" lon="86.715264">
        <ele>2576</ele>
        <time>2022-10-19T05:25:31.000Z</time>
      </trkpt>
      <trkpt lat="27.71727" lon="86.715283">
        <ele>2576</ele>
        <time>2022-10-19T05:25:33.000Z</time>
      </trkpt>
      <trkpt lat="27.717283" lon="86.715302">
        <ele>2576</ele>
        <time>2022-10-19T05:25:35.000Z</time>
      </trkpt>
      <trkpt lat="27.717283" lon="86.715334">
        <ele>2575.8</ele>
        <time>2022-10-19T05:25:37.000Z</time>
      </trkpt>
      <trkpt lat="27.71729" lon="86.71536">
        <ele>2575.8</ele>
        <time>2022-10-19T05:25:40.000Z</time>
      </trkpt>
      <trkpt lat="27.717299" lon="86.715386">
        <ele>2575.6</ele>
        <time>2022-10-19T05:25:42.000Z</time>
      </trkpt>
      <trkpt lat="27.717309" lon="86.715411">
        <ele>2575.4</ele>
        <time>2022-10-19T05:25:45.000Z</time>
      </trkpt>
      <trkpt lat="27.717331" lon="86.715424">
        <ele>2575.4</ele>
        <time>2022-10-19T05:25:48.000Z</time>
      </trkpt>
      <trkpt lat="27.71735" lon="86.715456">
        <ele>2574</ele>
        <time>2022-10-19T05:26:56.000Z</time>
      </trkpt>
      <trkpt lat="27.717366" lon="86.715475">
        <ele>2574</ele>
        <time>2022-10-19T05:26:58.000Z</time>
      </trkpt>
      <trkpt lat="27.717376" lon="86.715501">
        <ele>2573.6</ele>
        <time>2022-10-19T05:27:00.000Z</time>
      </trkpt>
      <trkpt lat="27.717382" lon="86.71552">
        <ele>2573</ele>
        <time>2022-10-19T05:27:02.000Z</time>
      </trkpt>
      <trkpt lat="27.717386" lon="86.715546">
        <ele>2572.4</ele>
        <time>2022-10-19T05:27:04.000Z</time>
      </trkpt>
      <trkpt lat="27.717398" lon="86.715571">
        <ele>2571.8</ele>
        <time>2022-10-19T05:27:08.000Z</time>
      </trkpt>
      <trkpt lat="27.717414" lon="86.71559">
        <ele>2571</ele>
        <time>2022-10-19T05:27:12.000Z</time>
      </trkpt>
      <trkpt lat="27.717434" lon="86.71561">
        <ele>2570.4</ele>
        <time>2022-10-19T05:27:16.000Z</time>
      </trkpt>
      <trkpt lat="27.71745" lon="86.715622">
        <ele>2570</ele>
        <time>2022-10-19T05:27:19.000Z</time>
      </trkpt>
      <trkpt lat="27.717466" lon="86.715635">
        <ele>2569.6</ele>
        <time>2022-10-19T05:27:21.000Z</time>
      </trkpt>
      <trkpt lat="27.717485" lon="86.715654">
        <ele>2569.2</ele>
        <time>2022-10-19T05:27:23.000Z</time>
      </trkpt>
      <trkpt lat="27.717501" lon="86.715667">
        <ele>2568.8</ele>
        <time>2022-10-19T05:27:25.000Z</time>
      </trkpt>
      <trkpt lat="27.717517" lon="86.715693">
        <ele>2568.6</ele>
        <time>2022-10-19T05:27:27.000Z</time>
      </trkpt>
      <trkpt lat="27.717536" lon="86.715712">
        <ele>2567.4</ele>
        <time>2022-10-19T05:27:30.000Z</time>
      </trkpt>
      <trkpt lat="27.717549" lon="86.715731">
        <ele>2567.2</ele>
        <time>2022-10-19T05:27:32.000Z</time>
      </trkpt>
      <trkpt lat="27.717574" lon="86.715744">
        <ele>2566.8</ele>
        <time>2022-10-19T05:27:35.000Z</time>
      </trkpt>
      <trkpt lat="27.717594" lon="86.715757">
        <ele>2566.4</ele>
        <time>2022-10-19T05:27:37.000Z</time>
      </trkpt>
      <trkpt lat="27.717603" lon="86.715776">
        <ele>2566</ele>
        <time>2022-10-19T05:27:39.000Z</time>
      </trkpt>
      <trkpt lat="27.717629" lon="86.715789">
        <ele>2565.8</ele>
        <time>2022-10-19T05:27:42.000Z</time>
      </trkpt>
      <trkpt lat="27.717645" lon="86.715808">
        <ele>2565.6</ele>
        <time>2022-10-19T05:27:44.000Z</time>
      </trkpt>
      <trkpt lat="27.717667" lon="86.715821">
        <ele>2565.2</ele>
        <time>2022-10-19T05:27:47.000Z</time>
      </trkpt>
      <trkpt lat="27.71768" lon="86.715846">
        <ele>2564.2</ele>
        <time>2022-10-19T05:27:51.000Z</time>
      </trkpt>
      <trkpt lat="27.717696" lon="86.715866">
        <ele>2562.8</ele>
        <time>2022-10-19T05:27:55.000Z</time>
      </trkpt>
      <trkpt lat="27.717718" lon="86.715866">
        <ele>2562.2</ele>
        <time>2022-10-19T05:27:58.000Z</time>
      </trkpt>
      <trkpt lat="27.717738" lon="86.715853">
        <ele>2561.8</ele>
        <time>2022-10-19T05:28:02.000Z</time>
      </trkpt>
      <trkpt lat="27.717766" lon="86.715834">
        <ele>2561.4</ele>
        <time>2022-10-19T05:28:04.000Z</time>
      </trkpt>
      <trkpt lat="27.717786" lon="86.715821">
        <ele>2561.4</ele>
        <time>2022-10-19T05:28:05.000Z</time>
      </trkpt>
      <trkpt lat="27.717808" lon="86.715821">
        <ele>2560.4</ele>
        <time>2022-10-19T05:28:07.000Z</time>
      </trkpt>
      <trkpt lat="27.717827" lon="86.715827">
        <ele>2559.4</ele>
        <time>2022-10-19T05:28:12.000Z</time>
      </trkpt>
      <trkpt lat="27.717846" lon="86.715827">
        <ele>2558.8</ele>
        <time>2022-10-19T05:28:15.000Z</time>
      </trkpt>
      <trkpt lat="27.717866" lon="86.715827">
        <ele>2557.6</ele>
        <time>2022-10-19T05:28:18.000Z</time>
      </trkpt>
      <trkpt lat="27.717885" lon="86.715827">
        <ele>2557.2</ele>
        <time>2022-10-19T05:28:21.000Z</time>
      </trkpt>
      <trkpt lat="27.71791" lon="86.715827">
        <ele>2555.8</ele>
        <time>2022-10-19T05:28:25.000Z</time>
      </trkpt>
      <trkpt lat="27.717923" lon="86.715846">
        <ele>2555</ele>
        <time>2022-10-19T05:28:28.000Z</time>
      </trkpt>
      <trkpt lat="27.717942" lon="86.715853">
        <ele>2554.4</ele>
        <time>2022-10-19T05:28:31.000Z</time>
      </trkpt>
      <trkpt lat="27.717965" lon="86.715866">
        <ele>2554</ele>
        <time>2022-10-19T05:28:34.000Z</time>
      </trkpt>
      <trkpt lat="27.71799" lon="86.715878">
        <ele>2553.4</ele>
        <time>2022-10-19T05:28:37.000Z</time>
      </trkpt>
      <trkpt lat="27.718013" lon="86.715898">
        <ele>2553</ele>
        <time>2022-10-19T05:28:39.000Z</time>
      </trkpt>
      <trkpt lat="27.718026" lon="86.715917">
        <ele>2552.4</ele>
        <time>2022-10-19T05:28:41.000Z</time>
      </trkpt>
      <trkpt lat="27.718038" lon="86.715936">
        <ele>2551.8</ele>
        <time>2022-10-19T05:28:44.000Z</time>
      </trkpt>
      <trkpt lat="27.718064" lon="86.715949">
        <ele>2551.6</ele>
        <time>2022-10-19T05:28:47.000Z</time>
      </trkpt>
      <trkpt lat="27.718083" lon="86.715949">
        <ele>2551.2</ele>
        <time>2022-10-19T05:28:49.000Z</time>
      </trkpt>
      <trkpt lat="27.718109" lon="86.715955">
        <ele>2550.8</ele>
        <time>2022-10-19T05:28:51.000Z</time>
      </trkpt>
      <trkpt lat="27.718131" lon="86.715955">
        <ele>2550.4</ele>
        <time>2022-10-19T05:28:53.000Z</time>
      </trkpt>
      <trkpt lat="27.718154" lon="86.715955">
        <ele>2550</ele>
        <time>2022-10-19T05:28:55.000Z</time>
      </trkpt>
      <trkpt lat="27.718179" lon="86.715968">
        <ele>2550</ele>
        <time>2022-10-19T05:28:57.000Z</time>
      </trkpt>
      <trkpt lat="27.718198" lon="86.715968">
        <ele>2549.8</ele>
        <time>2022-10-19T05:28:59.000Z</time>
      </trkpt>
      <trkpt lat="27.718221" lon="86.715981">
        <ele>2549.8</ele>
        <time>2022-10-19T05:29:01.000Z</time>
      </trkpt>
      <trkpt lat="27.718243" lon="86.715987">
        <ele>2549.6</ele>
        <time>2022-10-19T05:29:02.000Z</time>
      </trkpt>
      <trkpt lat="27.718262" lon="86.715987">
        <ele>2549.4</ele>
        <time>2022-10-19T05:29:04.000Z</time>
      </trkpt>
      <trkpt lat="27.718285" lon="86.715987">
        <ele>2549.2</ele>
        <time>2022-10-19T05:29:06.000Z</time>
      </trkpt>
      <trkpt lat="27.718304" lon="86.716006">
        <ele>2549.2</ele>
        <time>2022-10-19T05:29:08.000Z</time>
      </trkpt>
      <trkpt lat="27.71832" lon="86.716019">
        <ele>2549</ele>
        <time>2022-10-19T05:29:10.000Z</time>
      </trkpt>
      <trkpt lat="27.718339" lon="86.716026">
        <ele>2549</ele>
        <time>2022-10-19T05:29:12.000Z</time>
      </trkpt>
      <trkpt lat="27.718358" lon="86.716032">
        <ele>2549</ele>
        <time>2022-10-19T05:29:14.000Z</time>
      </trkpt>
      <trkpt lat="27.718374" lon="86.716058">
        <ele>2548.8</ele>
        <time>2022-10-19T05:29:16.000Z</time>
      </trkpt>
      <trkpt lat="27.718394" lon="86.716064">
        <ele>2548.8</ele>
        <time>2022-10-19T05:29:20.000Z</time>
      </trkpt>
      <trkpt lat="27.71841" lon="86.716038">
        <ele>2550.2</ele>
        <time>2022-10-19T05:29:30.000Z</time>
      </trkpt>
      <trkpt lat="27.718422" lon="86.716019">
        <ele>2550.6</ele>
        <time>2022-10-19T05:29:37.000Z</time>
      </trkpt>
      <trkpt lat="27.718429" lon="86.715994">
        <ele>2550.6</ele>
        <time>2022-10-19T05:29:40.000Z</time>
      </trkpt>
      <trkpt lat="27.718442" lon="86.715974">
        <ele>2550.8</ele>
        <time>2022-10-19T05:29:44.000Z</time>
      </trkpt>
      <trkpt lat="27.718451" lon="86.715955">
        <ele>2551</ele>
        <time>2022-10-19T05:29:48.000Z</time>
      </trkpt>
      <trkpt lat="27.718467" lon="86.715936">
        <ele>2550.8</ele>
        <time>2022-10-19T05:29:51.000Z</time>
      </trkpt>
      <trkpt lat="27.718486" lon="86.71593">
        <ele>2550</ele>
        <time>2022-10-19T05:29:53.000Z</time>
      </trkpt>
      <trkpt lat="27.718499" lon="86.71591">
        <ele>2550</ele>
        <time>2022-10-19T05:29:55.000Z</time>
      </trkpt>
      <trkpt lat="27.718522" lon="86.715878">
        <ele>2550</ele>
        <time>2022-10-19T05:29:58.000Z</time>
      </trkpt>
      <trkpt lat="27.718528" lon="86.715859">
        <ele>2550</ele>
        <time>2022-10-19T05:30:00.000Z</time>
      </trkpt>
      <trkpt lat="27.718531" lon="86.715834">
        <ele>2550.4</ele>
        <time>2022-10-19T05:30:05.000Z</time>
      </trkpt>
      <trkpt lat="27.718544" lon="86.715808">
        <ele>2550.6</ele>
        <time>2022-10-19T05:30:29.000Z</time>
      </trkpt>
      <trkpt lat="27.718547" lon="86.715782">
        <ele>2550.8</ele>
        <time>2022-10-19T05:30:30.000Z</time>
      </trkpt>
      <trkpt lat="27.71857" lon="86.715757">
        <ele>2551.2</ele>
        <time>2022-10-19T05:30:32.000Z</time>
      </trkpt>
      <trkpt lat="27.718586" lon="86.715744">
        <ele>2551.4</ele>
        <time>2022-10-19T05:30:33.000Z</time>
      </trkpt>
      <trkpt lat="27.718598" lon="86.715718">
        <ele>2551.8</ele>
        <time>2022-10-19T05:30:35.000Z</time>
      </trkpt>
      <trkpt lat="27.718602" lon="86.715693">
        <ele>2551.8</ele>
        <time>2022-10-19T05:30:37.000Z</time>
      </trkpt>
      <trkpt lat="27.718602" lon="86.715667">
        <ele>2552.6</ele>
        <time>2022-10-19T05:30:40.000Z</time>
      </trkpt>
      <trkpt lat="27.718592" lon="86.715635">
        <ele>2553.2</ele>
        <time>2022-10-19T05:30:45.000Z</time>
      </trkpt>
      <trkpt lat="27.718592" lon="86.71561">
        <ele>2554.6</ele>
        <time>2022-10-19T05:30:51.000Z</time>
      </trkpt>
      <trkpt lat="27.718598" lon="86.715584">
        <ele>2555.4</ele>
        <time>2022-10-19T05:30:56.000Z</time>
      </trkpt>
      <trkpt lat="27.718598" lon="86.715552">
        <ele>2555.6</ele>
        <time>2022-10-19T05:30:59.000Z</time>
      </trkpt>
      <trkpt lat="27.718598" lon="86.71552">
        <ele>2555.8</ele>
        <time>2022-10-19T05:31:03.000Z</time>
      </trkpt>
      <trkpt lat="27.718602" lon="86.715482">
        <ele>2555.8</ele>
        <time>2022-10-19T05:31:06.000Z</time>
      </trkpt>
      <trkpt lat="27.718598" lon="86.71545">
        <ele>2556</ele>
        <time>2022-10-19T05:31:10.000Z</time>
      </trkpt>
      <trkpt lat="27.718602" lon="86.715424">
        <ele>2556</ele>
        <time>2022-10-19T05:31:12.000Z</time>
      </trkpt>
      <trkpt lat="27.718605" lon="86.715398">
        <ele>2556.6</ele>
        <time>2022-10-19T05:31:15.000Z</time>
      </trkpt>
      <trkpt lat="27.718598" lon="86.715379">
        <ele>2557.6</ele>
        <time>2022-10-19T05:31:20.000Z</time>
      </trkpt>
      <trkpt lat="27.718592" lon="86.71536">
        <ele>2557.8</ele>
        <time>2022-10-19T05:31:23.000Z</time>
      </trkpt>
      <trkpt lat="27.718589" lon="86.715322">
        <ele>2558.8</ele>
        <time>2022-10-19T05:31:27.000Z</time>
      </trkpt>
      <trkpt lat="27.718582" lon="86.715296">
        <ele>2559</ele>
        <time>2022-10-19T05:31:31.000Z</time>
      </trkpt>
      <trkpt lat="27.718566" lon="86.71527">
        <ele>2559</ele>
        <time>2022-10-19T05:31:34.000Z</time>
      </trkpt>
      <trkpt lat="27.718557" lon="86.715251">
        <ele>2559.2</ele>
        <time>2022-10-19T05:31:37.000Z</time>
      </trkpt>
      <trkpt lat="27.718547" lon="86.715226">
        <ele>2559.4</ele>
        <time>2022-10-19T05:31:39.000Z</time>
      </trkpt>
      <trkpt lat="27.718538" lon="86.7152">
        <ele>2559.4</ele>
        <time>2022-10-19T05:31:42.000Z</time>
      </trkpt>
      <trkpt lat="27.718531" lon="86.715181">
        <ele>2559.6</ele>
        <time>2022-10-19T05:31:45.000Z</time>
      </trkpt>
      <trkpt lat="27.718528" lon="86.715155">
        <ele>2559.8</ele>
        <time>2022-10-19T05:31:47.000Z</time>
      </trkpt>
      <trkpt lat="27.718522" lon="86.715136">
        <ele>2560</ele>
        <time>2022-10-19T05:31:50.000Z</time>
      </trkpt>
      <trkpt lat="27.718518" lon="86.71511">
        <ele>2560.2</ele>
        <time>2022-10-19T05:31:52.000Z</time>
      </trkpt>
      <trkpt lat="27.718509" lon="86.715085">
        <ele>2561</ele>
        <time>2022-10-19T05:31:56.000Z</time>
      </trkpt>
      <trkpt lat="27.718499" lon="86.715066">
        <ele>2561.2</ele>
        <time>2022-10-19T05:32:00.000Z</time>
      </trkpt>
      <trkpt lat="27.718493" lon="86.71504">
        <ele>2561.8</ele>
        <time>2022-10-19T05:32:05.000Z</time>
      </trkpt>
      <trkpt lat="27.718499" lon="86.715014">
        <ele>2562.4</ele>
        <time>2022-10-19T05:32:09.000Z</time>
      </trkpt>
      <trkpt lat="27.718506" lon="86.714995">
        <ele>2562.4</ele>
        <time>2022-10-19T05:32:13.000Z</time>
      </trkpt>
      <trkpt lat="27.718499" lon="86.714976">
        <ele>2563.2</ele>
        <time>2022-10-19T05:32:20.000Z</time>
      </trkpt>
      <trkpt lat="27.718493" lon="86.71495">
        <ele>2564.8</ele>
        <time>2022-10-19T05:32:25.000Z</time>
      </trkpt>
      <trkpt lat="27.718493" lon="86.714925">
        <ele>2566.4</ele>
        <time>2022-10-19T05:32:32.000Z</time>
      </trkpt>
      <trkpt lat="27.718493" lon="86.714899">
        <ele>2567</ele>
        <time>2022-10-19T05:32:38.000Z</time>
      </trkpt>
      <trkpt lat="27.71849" lon="86.714874">
        <ele>2567.6</ele>
        <time>2022-10-19T05:32:45.000Z</time>
      </trkpt>
      <trkpt lat="27.718474" lon="86.714854">
        <ele>2569</ele>
        <time>2022-10-19T05:32:51.000Z</time>
      </trkpt>
      <trkpt lat="27.718467" lon="86.714835">
        <ele>2569.6</ele>
        <time>2022-10-19T05:32:56.000Z</time>
      </trkpt>
      <trkpt lat="27.718458" lon="86.714816">
        <ele>2570</ele>
        <time>2022-10-19T05:33:01.000Z</time>
      </trkpt>
      <trkpt lat="27.718451" lon="86.714797">
        <ele>2570.8</ele>
        <time>2022-10-19T05:33:05.000Z</time>
      </trkpt>
      <trkpt lat="27.718438" lon="86.714778">
        <ele>2571.6</ele>
        <time>2022-10-19T05:33:11.000Z</time>
      </trkpt>
      <trkpt lat="27.718426" lon="86.714758">
        <ele>2572</ele>
        <time>2022-10-19T05:33:16.000Z</time>
      </trkpt>
      <trkpt lat="27.718419" lon="86.714739">
        <ele>2573.2</ele>
        <time>2022-10-19T05:33:23.000Z</time>
      </trkpt>
      <trkpt lat="27.718413" lon="86.71472">
        <ele>2573.6</ele>
        <time>2022-10-19T05:33:27.000Z</time>
      </trkpt>
      <trkpt lat="27.718394" lon="86.714707">
        <ele>2574.6</ele>
        <time>2022-10-19T05:33:33.000Z</time>
      </trkpt>
      <trkpt lat="27.718374" lon="86.714682">
        <ele>2574.8</ele>
        <time>2022-10-19T05:33:36.000Z</time>
      </trkpt>
      <trkpt lat="27.718362" lon="86.714662">
        <ele>2575.8</ele>
        <time>2022-10-19T05:33:39.000Z</time>
      </trkpt>
      <trkpt lat="27.718355" lon="86.714643">
        <ele>2575.8</ele>
        <time>2022-10-19T05:33:41.000Z</time>
      </trkpt>
      <trkpt lat="27.718339" lon="86.714624">
        <ele>2576.2</ele>
        <time>2022-10-19T05:33:46.000Z</time>
      </trkpt>
      <trkpt lat="27.71833" lon="86.714605">
        <ele>2577.8</ele>
        <time>2022-10-19T05:33:53.000Z</time>
      </trkpt>
      <trkpt lat="27.718314" lon="86.714618">
        <ele>2577.8</ele>
        <time>2022-10-19T05:34:00.000Z</time>
      </trkpt>
      <trkpt lat="27.718307" lon="86.714598">
        <ele>2580.2</ele>
        <time>2022-10-19T05:34:26.000Z</time>
      </trkpt>
      <trkpt lat="27.718298" lon="86.714579">
        <ele>2580.4</ele>
        <time>2022-10-19T05:34:28.000Z</time>
      </trkpt>
      <trkpt lat="27.718288" lon="86.714554">
        <ele>2581.2</ele>
        <time>2022-10-19T05:34:30.000Z</time>
      </trkpt>
      <trkpt lat="27.718282" lon="86.714522">
        <ele>2582</ele>
        <time>2022-10-19T05:34:32.000Z</time>
      </trkpt>
      <trkpt lat="27.718275" lon="86.714502">
        <ele>2582.4</ele>
        <time>2022-10-19T05:34:34.000Z</time>
      </trkpt>
      <trkpt lat="27.718278" lon="86.714477">
        <ele>2583.2</ele>
        <time>2022-10-19T05:34:36.000Z</time>
      </trkpt>
      <trkpt lat="27.718288" lon="86.714458">
        <ele>2583.4</ele>
        <time>2022-10-19T05:34:39.000Z</time>
      </trkpt>
      <trkpt lat="27.718294" lon="86.714438">
        <ele>2583.4</ele>
        <time>2022-10-19T05:34:41.000Z</time>
      </trkpt>
      <trkpt lat="27.718301" lon="86.714419">
        <ele>2583.4</ele>
        <time>2022-10-19T05:34:43.000Z</time>
      </trkpt>
      <trkpt lat="27.718307" lon="86.7144">
        <ele>2583.6</ele>
        <time>2022-10-19T05:34:45.000Z</time>
      </trkpt>
      <trkpt lat="27.71832" lon="86.714381">
        <ele>2583.8</ele>
        <time>2022-10-19T05:34:47.000Z</time>
      </trkpt>
      <trkpt lat="27.718339" lon="86.714362">
        <ele>2583.6</ele>
        <time>2022-10-19T05:34:49.000Z</time>
      </trkpt>
      <trkpt lat="27.718342" lon="86.714323">
        <ele>2583.8</ele>
        <time>2022-10-19T05:34:52.000Z</time>
      </trkpt>
      <trkpt lat="27.718349" lon="86.714304">
        <ele>2583.8</ele>
        <time>2022-10-19T05:34:55.000Z</time>
      </trkpt>
      <trkpt lat="27.718355" lon="86.714285">
        <ele>2584</ele>
        <time>2022-10-19T05:34:57.000Z</time>
      </trkpt>
      <trkpt lat="27.718365" lon="86.714266">
        <ele>2584</ele>
        <time>2022-10-19T05:34:59.000Z</time>
      </trkpt>
      <trkpt lat="27.718371" lon="86.714246">
        <ele>2584.6</ele>
        <time>2022-10-19T05:35:05.000Z</time>
      </trkpt>
      <trkpt lat="27.718352" lon="86.71424">
        <ele>2585</ele>
        <time>2022-10-19T05:35:20.000Z</time>
      </trkpt>
      <trkpt lat="27.718387" lon="86.714246">
        <ele>2586.6</ele>
        <time>2022-10-19T05:37:17.000Z</time>
      </trkpt>
      <trkpt lat="27.718406" lon="86.714246">
        <ele>2586.4</ele>
        <time>2022-10-19T05:37:19.000Z</time>
      </trkpt>
      <trkpt lat="27.718429" lon="86.71424">
        <ele>2586.2</ele>
        <time>2022-10-19T05:37:21.000Z</time>
      </trkpt>
      <trkpt lat="27.718448" lon="86.714227">
        <ele>2586.4</ele>
        <time>2022-10-19T05:37:24.000Z</time>
      </trkpt>
      <trkpt lat="27.718438" lon="86.714208">
        <ele>2586.8</ele>
        <time>2022-10-19T05:37:27.000Z</time>
      </trkpt>
      <trkpt lat="27.718438" lon="86.714182">
        <ele>2588</ele>
        <time>2022-10-19T05:37:32.000Z</time>
      </trkpt>
      <trkpt lat="27.718442" lon="86.714157">
        <ele>2588.6</ele>
        <time>2022-10-19T05:37:35.000Z</time>
      </trkpt>
      <trkpt lat="27.718451" lon="86.714131">
        <ele>2589</ele>
        <time>2022-10-19T05:37:37.000Z</time>
      </trkpt>
      <trkpt lat="27.718461" lon="86.714112">
        <ele>2589</ele>
        <time>2022-10-19T05:37:39.000Z</time>
      </trkpt>
      <trkpt lat="27.71847" lon="86.714086">
        <ele>2590</ele>
        <time>2022-10-19T05:37:42.000Z</time>
      </trkpt>
      <trkpt lat="27.71847" lon="86.714061">
        <ele>2590.6</ele>
        <time>2022-10-19T05:37:45.000Z</time>
      </trkpt>
      <trkpt lat="27.718477" lon="86.714042">
        <ele>2591</ele>
        <time>2022-10-19T05:37:47.000Z</time>
      </trkpt>
      <trkpt lat="27.718477" lon="86.71401">
        <ele>2591</ele>
        <time>2022-10-19T05:37:50.000Z</time>
      </trkpt>
      <trkpt lat="27.718467" lon="86.71399">
        <ele>2591.4</ele>
        <time>2022-10-19T05:37:53.000Z</time>
      </trkpt>
      <trkpt lat="27.71847" lon="86.713965">
        <ele>2591.4</ele>
        <time>2022-10-19T05:37:55.000Z</time>
      </trkpt>
      <trkpt lat="27.718477" lon="86.713946">
        <ele>2591.4</ele>
        <time>2022-10-19T05:37:57.000Z</time>
      </trkpt>
      <trkpt lat="27.718486" lon="86.713926">
        <ele>2591.4</ele>
        <time>2022-10-19T05:37:59.000Z</time>
      </trkpt>
      <trkpt lat="27.718493" lon="86.713907">
        <ele>2591.8</ele>
        <time>2022-10-19T05:38:03.000Z</time>
      </trkpt>
      <trkpt lat="27.718493" lon="86.713875">
        <ele>2592.2</ele>
        <time>2022-10-19T05:38:06.000Z</time>
      </trkpt>
      <trkpt lat="27.718506" lon="86.71385">
        <ele>2592.8</ele>
        <time>2022-10-19T05:38:10.000Z</time>
      </trkpt>
      <trkpt lat="27.718522" lon="86.713837">
        <ele>2593.2</ele>
        <time>2022-10-19T05:38:12.000Z</time>
      </trkpt>
      <trkpt lat="27.718544" lon="86.713824">
        <ele>2593.8</ele>
        <time>2022-10-19T05:38:15.000Z</time>
      </trkpt>
      <trkpt lat="27.71856" lon="86.713811">
        <ele>2593.8</ele>
        <time>2022-10-19T05:38:17.000Z</time>
      </trkpt>
      <trkpt lat="27.718586" lon="86.713811">
        <ele>2594</ele>
        <time>2022-10-19T05:38:19.000Z</time>
      </trkpt>
      <trkpt lat="27.718611" lon="86.713824">
        <ele>2593.8</ele>
        <time>2022-10-19T05:38:21.000Z</time>
      </trkpt>
      <trkpt lat="27.71863" lon="86.713824">
        <ele>2593.8</ele>
        <time>2022-10-19T05:38:23.000Z</time>
      </trkpt>
      <trkpt lat="27.71865" lon="86.71383">
        <ele>2593.4</ele>
        <time>2022-10-19T05:38:25.000Z</time>
      </trkpt>
      <trkpt lat="27.718675" lon="86.71383">
        <ele>2593.4</ele>
        <time>2022-10-19T05:38:27.000Z</time>
      </trkpt>
      <trkpt lat="27.718701" lon="86.713837">
        <ele>2593.6</ele>
        <time>2022-10-19T05:38:30.000Z</time>
      </trkpt>
      <trkpt lat="27.718717" lon="86.71385">
        <ele>2593.6</ele>
        <time>2022-10-19T05:38:33.000Z</time>
      </trkpt>
      <trkpt lat="27.718739" lon="86.713862">
        <ele>2593.8</ele>
        <time>2022-10-19T05:38:36.000Z</time>
      </trkpt>
      <trkpt lat="27.718765" lon="86.713875">
        <ele>2593.8</ele>
        <time>2022-10-19T05:38:39.000Z</time>
      </trkpt>
      <trkpt lat="27.718784" lon="86.713888">
        <ele>2594.2</ele>
        <time>2022-10-19T05:38:41.000Z</time>
      </trkpt>
      <trkpt lat="27.71881" lon="86.713907">
        <ele>2594.6</ele>
        <time>2022-10-19T05:38:44.000Z</time>
      </trkpt>
      <trkpt lat="27.718835" lon="86.713907">
        <ele>2594.6</ele>
        <time>2022-10-19T05:38:46.000Z</time>
      </trkpt>
      <trkpt lat="27.718864" lon="86.71392">
        <ele>2595</ele>
        <time>2022-10-19T05:38:49.000Z</time>
      </trkpt>
      <trkpt lat="27.718886" lon="86.713933">
        <ele>2595</ele>
        <time>2022-10-19T05:38:51.000Z</time>
      </trkpt>
      <trkpt lat="27.718906" lon="86.713952">
        <ele>2595.4</ele>
        <time>2022-10-19T05:38:53.000Z</time>
      </trkpt>
      <trkpt lat="27.718928" lon="86.713958">
        <ele>2595</ele>
        <time>2022-10-19T05:38:55.000Z</time>
      </trkpt>
      <trkpt lat="27.718954" lon="86.713971">
        <ele>2595.4</ele>
        <time>2022-10-19T05:38:57.000Z</time>
      </trkpt>
      <trkpt lat="27.71897" lon="86.71399">
        <ele>2595.2</ele>
        <time>2022-10-19T05:38:59.000Z</time>
      </trkpt>
      <trkpt lat="27.718992" lon="86.714003">
        <ele>2595.2</ele>
        <time>2022-10-19T05:39:01.000Z</time>
      </trkpt>
      <trkpt lat="27.719014" lon="86.71401">
        <ele>2595.4</ele>
        <time>2022-10-19T05:39:03.000Z</time>
      </trkpt>
      <trkpt lat="27.719034" lon="86.714029">
        <ele>2595.4</ele>
        <time>2022-10-19T05:39:05.000Z</time>
      </trkpt>
      <trkpt lat="27.719056" lon="86.714035">
        <ele>2595.6</ele>
        <time>2022-10-19T05:39:07.000Z</time>
      </trkpt>
      <trkpt lat="27.719075" lon="86.714035">
        <ele>2595.6</ele>
        <time>2022-10-19T05:39:09.000Z</time>
      </trkpt>
      <trkpt lat="27.719098" lon="86.714061">
        <ele>2595.4</ele>
        <time>2022-10-19T05:39:12.000Z</time>
      </trkpt>
      <trkpt lat="27.719114" lon="86.714074">
        <ele>2595.8</ele>
        <time>2022-10-19T05:39:14.000Z</time>
      </trkpt>
      <trkpt lat="27.719139" lon="86.71408">
        <ele>2595.8</ele>
        <time>2022-10-19T05:39:16.000Z</time>
      </trkpt>
      <trkpt lat="27.719165" lon="86.714086">
        <ele>2595.6</ele>
        <time>2022-10-19T05:39:19.000Z</time>
      </trkpt>
      <trkpt lat="27.719184" lon="86.71408">
        <ele>2595.6</ele>
        <time>2022-10-19T05:39:21.000Z</time>
      </trkpt>
      <trkpt lat="27.719206" lon="86.71408">
        <ele>2595.8</ele>
        <time>2022-10-19T05:39:24.000Z</time>
      </trkpt>
      <trkpt lat="27.719232" lon="86.714074">
        <ele>2596.6</ele>
        <time>2022-10-19T05:39:27.000Z</time>
      </trkpt>
      <trkpt lat="27.719254" lon="86.71408">
        <ele>2597.2</ele>
        <time>2022-10-19T05:39:30.000Z</time>
      </trkpt>
      <trkpt lat="27.719274" lon="86.71408">
        <ele>2597</ele>
        <time>2022-10-19T05:39:32.000Z</time>
      </trkpt>
      <trkpt lat="27.719299" lon="86.714086">
        <ele>2597.4</ele>
        <time>2022-10-19T05:39:35.000Z</time>
      </trkpt>
      <trkpt lat="27.719315" lon="86.714099">
        <ele>2597.6</ele>
        <time>2022-10-19T05:39:37.000Z</time>
      </trkpt>
      <trkpt lat="27.719344" lon="86.714099">
        <ele>2597.6</ele>
        <time>2022-10-19T05:39:40.000Z</time>
      </trkpt>
      <trkpt lat="27.719363" lon="86.714106">
        <ele>2597.6</ele>
        <time>2022-10-19T05:39:42.000Z</time>
      </trkpt>
      <trkpt lat="27.719382" lon="86.714106">
        <ele>2598.2</ele>
        <time>2022-10-19T05:39:45.000Z</time>
      </trkpt>
      <trkpt lat="27.719402" lon="86.714112">
        <ele>2598.6</ele>
        <time>2022-10-19T05:39:48.000Z</time>
      </trkpt>
      <trkpt lat="27.719421" lon="86.714125">
        <ele>2599</ele>
        <time>2022-10-19T05:39:52.000Z</time>
      </trkpt>
      <trkpt lat="27.719446" lon="86.714125">
        <ele>2599.4</ele>
        <time>2022-10-19T05:39:55.000Z</time>
      </trkpt>
      <trkpt lat="27.719466" lon="86.714144">
        <ele>2599.6</ele>
        <time>2022-10-19T05:39:58.000Z</time>
      </trkpt>
      <trkpt lat="27.719485" lon="86.714157">
        <ele>2600.2</ele>
        <time>2022-10-19T05:40:01.000Z</time>
      </trkpt>
      <trkpt lat="27.71951" lon="86.714163">
        <ele>2600.8</ele>
        <time>2022-10-19T05:40:04.000Z</time>
      </trkpt>
      <trkpt lat="27.71953" lon="86.714163">
        <ele>2600.8</ele>
        <time>2022-10-19T05:40:06.000Z</time>
      </trkpt>
      <trkpt lat="27.719549" lon="86.71417">
        <ele>2600.8</ele>
        <time>2022-10-19T05:40:08.000Z</time>
      </trkpt>
      <trkpt lat="27.719565" lon="86.714189">
        <ele>2601</ele>
        <time>2022-10-19T05:40:10.000Z</time>
      </trkpt>
      <trkpt lat="27.719584" lon="86.714195">
        <ele>2601</ele>
        <time>2022-10-19T05:40:12.000Z</time>
      </trkpt>
      <trkpt lat="27.719606" lon="86.714202">
        <ele>2600.8</ele>
        <time>2022-10-19T05:40:14.000Z</time>
      </trkpt>
      <trkpt lat="27.719629" lon="86.714202">
        <ele>2601</ele>
        <time>2022-10-19T05:40:16.000Z</time>
      </trkpt>
      <trkpt lat="27.719654" lon="86.714202">
        <ele>2601.2</ele>
        <time>2022-10-19T05:40:18.000Z</time>
      </trkpt>
      <trkpt lat="27.71968" lon="86.714221">
        <ele>2601.2</ele>
        <time>2022-10-19T05:40:21.000Z</time>
      </trkpt>
      <trkpt lat="27.719696" lon="86.714234">
        <ele>2601.2</ele>
        <time>2022-10-19T05:40:23.000Z</time>
      </trkpt>
      <trkpt lat="27.719715" lon="86.714234">
        <ele>2601.2</ele>
        <time>2022-10-19T05:40:26.000Z</time>
      </trkpt>
      <trkpt lat="27.719734" lon="86.71424">
        <ele>2601.2</ele>
        <time>2022-10-19T05:40:28.000Z</time>
      </trkpt>
      <trkpt lat="27.719754" lon="86.714246">
        <ele>2601.2</ele>
        <time>2022-10-19T05:40:30.000Z</time>
      </trkpt>
      <trkpt lat="27.719773" lon="86.71424">
        <ele>2601.2</ele>
        <time>2022-10-19T05:40:32.000Z</time>
      </trkpt>
      <trkpt lat="27.719798" lon="86.71424">
        <ele>2601.2</ele>
        <time>2022-10-19T05:40:34.000Z</time>
      </trkpt>
      <trkpt lat="27.719814" lon="86.714259">
        <ele>2600.4</ele>
        <time>2022-10-19T05:40:36.000Z</time>
      </trkpt>
      <trkpt lat="27.719846" lon="86.714266">
        <ele>2600.4</ele>
        <time>2022-10-19T05:40:39.000Z</time>
      </trkpt>
      <trkpt lat="27.719866" lon="86.714272">
        <ele>2600</ele>
        <time>2022-10-19T05:40:41.000Z</time>
      </trkpt>
      <trkpt lat="27.719888" lon="86.714285">
        <ele>2600</ele>
        <time>2022-10-19T05:40:43.000Z</time>
      </trkpt>
      <trkpt lat="27.719907" lon="86.714304">
        <ele>2599.8</ele>
        <time>2022-10-19T05:40:45.000Z</time>
      </trkpt>
      <trkpt lat="27.719926" lon="86.71431">
        <ele>2599.8</ele>
        <time>2022-10-19T05:40:47.000Z</time>
      </trkpt>
      <trkpt lat="27.719946" lon="86.714317">
        <ele>2599.8</ele>
        <time>2022-10-19T05:40:49.000Z</time>
      </trkpt>
      <trkpt lat="27.719965" lon="86.714323">
        <ele>2599.8</ele>
        <time>2022-10-19T05:40:51.000Z</time>
      </trkpt>
      <trkpt lat="27.719974" lon="86.714342">
        <ele>2599.6</ele>
        <time>2022-10-19T05:40:53.000Z</time>
      </trkpt>
      <trkpt lat="27.71999" lon="86.714355">
        <ele>2599.8</ele>
        <time>2022-10-19T05:40:55.000Z</time>
      </trkpt>
      <trkpt lat="27.720006" lon="86.714381">
        <ele>2600</ele>
        <time>2022-10-19T05:40:58.000Z</time>
      </trkpt>
      <trkpt lat="27.720026" lon="86.714368">
        <ele>2600.2</ele>
        <time>2022-10-19T05:41:00.000Z</time>
      </trkpt>
      <trkpt lat="27.720051" lon="86.714362">
        <ele>2600.4</ele>
        <time>2022-10-19T05:41:02.000Z</time>
      </trkpt>
      <trkpt lat="27.72007" lon="86.714362">
        <ele>2600.4</ele>
        <time>2022-10-19T05:41:04.000Z</time>
      </trkpt>
      <trkpt lat="27.72009" lon="86.714368">
        <ele>2600.4</ele>
        <time>2022-10-19T05:41:06.000Z</time>
      </trkpt>
      <trkpt lat="27.720099" lon="86.714387">
        <ele>2600.4</ele>
        <time>2022-10-19T05:41:08.000Z</time>
      </trkpt>
      <trkpt lat="27.720118" lon="86.714394">
        <ele>2600.4</ele>
        <time>2022-10-19T05:41:10.000Z</time>
      </trkpt>
      <trkpt lat="27.720138" lon="86.714406">
        <ele>2600.2</ele>
        <time>2022-10-19T05:41:12.000Z</time>
      </trkpt>
      <trkpt lat="27.720157" lon="86.714426">
        <ele>2600.4</ele>
        <time>2022-10-19T05:41:14.000Z</time>
      </trkpt>
      <trkpt lat="27.720179" lon="86.714432">
        <ele>2600.2</ele>
        <time>2022-10-19T05:41:16.000Z</time>
      </trkpt>
      <trkpt lat="27.720198" lon="86.714432">
        <ele>2600.4</ele>
        <time>2022-10-19T05:41:18.000Z</time>
      </trkpt>
      <trkpt lat="27.720218" lon="86.714432">
        <ele>2600.4</ele>
        <time>2022-10-19T05:41:19.000Z</time>
      </trkpt>
      <trkpt lat="27.720237" lon="86.714438">
        <ele>2600.2</ele>
        <time>2022-10-19T05:41:20.000Z</time>
      </trkpt>
      <trkpt lat="27.720262" lon="86.714445">
        <ele>2600.2</ele>
        <time>2022-10-19T05:41:22.000Z</time>
      </trkpt>
      <trkpt lat="27.720285" lon="86.714445">
        <ele>2600.4</ele>
        <time>2022-10-19T05:41:25.000Z</time>
      </trkpt>
      <trkpt lat="27.720304" lon="86.714445">
        <ele>2600.2</ele>
        <time>2022-10-19T05:41:28.000Z</time>
      </trkpt>
      <trkpt lat="27.720326" lon="86.714464">
        <ele>2600.4</ele>
        <time>2022-10-19T05:41:31.000Z</time>
      </trkpt>
      <trkpt lat="27.720346" lon="86.714464">
        <ele>2600.2</ele>
        <time>2022-10-19T05:41:33.000Z</time>
      </trkpt>
      <trkpt lat="27.720365" lon="86.714464">
        <ele>2600.4</ele>
        <time>2022-10-19T05:41:35.000Z</time>
      </trkpt>
      <trkpt lat="27.720387" lon="86.714458">
        <ele>2600.4</ele>
        <time>2022-10-19T05:41:38.000Z</time>
      </trkpt>
      <trkpt lat="27.72041" lon="86.714445">
        <ele>2599.8</ele>
        <time>2022-10-19T05:41:41.000Z</time>
      </trkpt>
      <trkpt lat="27.720429" lon="86.714445">
        <ele>2599.6</ele>
        <time>2022-10-19T05:41:43.000Z</time>
      </trkpt>
      <trkpt lat="27.720448" lon="86.714438">
        <ele>2599.2</ele>
        <time>2022-10-19T05:41:45.000Z</time>
      </trkpt>
      <trkpt lat="27.72047" lon="86.714438">
        <ele>2598.8</ele>
        <time>2022-10-19T05:41:48.000Z</time>
      </trkpt>
      <trkpt lat="27.720493" lon="86.714438">
        <ele>2598.4</ele>
        <time>2022-10-19T05:41:50.000Z</time>
      </trkpt>
      <trkpt lat="27.720512" lon="86.714445">
        <ele>2598.2</ele>
        <time>2022-10-19T05:41:53.000Z</time>
      </trkpt>
      <trkpt lat="27.720528" lon="86.714458">
        <ele>2597.6</ele>
        <time>2022-10-19T05:41:55.000Z</time>
      </trkpt>
      <trkpt lat="27.720547" lon="86.714458">
        <ele>2597.6</ele>
        <time>2022-10-19T05:41:57.000Z</time>
      </trkpt>
      <trkpt lat="27.72057" lon="86.714464">
        <ele>2597.2</ele>
        <time>2022-10-19T05:41:59.000Z</time>
      </trkpt>
      <trkpt lat="27.720592" lon="86.714483">
        <ele>2596.6</ele>
        <time>2022-10-19T05:42:03.000Z</time>
      </trkpt>
      <trkpt lat="27.720614" lon="86.71449">
        <ele>2596.4</ele>
        <time>2022-10-19T05:42:06.000Z</time>
      </trkpt>
      <trkpt lat="27.72063" lon="86.714502">
        <ele>2596.6</ele>
        <time>2022-10-19T05:42:08.000Z</time>
      </trkpt>
      <trkpt lat="27.720646" lon="86.714515">
        <ele>2596.6</ele>
        <time>2022-10-19T05:42:10.000Z</time>
      </trkpt>
      <trkpt lat="27.720666" lon="86.714522">
        <ele>2596.6</ele>
        <time>2022-10-19T05:42:13.000Z</time>
      </trkpt>
      <trkpt lat="27.720682" lon="86.714541">
        <ele>2596.6</ele>
        <time>2022-10-19T05:42:15.000Z</time>
      </trkpt>
      <trkpt lat="27.720701" lon="86.714554">
        <ele>2596.8</ele>
        <time>2022-10-19T05:42:17.000Z</time>
      </trkpt>
      <trkpt lat="27.720723" lon="86.71456">
        <ele>2597</ele>
        <time>2022-10-19T05:42:20.000Z</time>
      </trkpt>
      <trkpt lat="27.720749" lon="86.71456">
        <ele>2596.8</ele>
        <time>2022-10-19T05:42:22.000Z</time>
      </trkpt>
      <trkpt lat="27.720774" lon="86.714566">
        <ele>2596.6</ele>
        <time>2022-10-19T05:42:25.000Z</time>
      </trkpt>
      <trkpt lat="27.7208" lon="86.714566">
        <ele>2596.4</ele>
        <time>2022-10-19T05:42:27.000Z</time>
      </trkpt>
      <trkpt lat="27.720822" lon="86.714554">
        <ele>2596.8</ele>
        <time>2022-10-19T05:42:30.000Z</time>
      </trkpt>
      <trkpt lat="27.720842" lon="86.714554">
        <ele>2596.6</ele>
        <time>2022-10-19T05:42:32.000Z</time>
      </trkpt>
      <trkpt lat="27.720861" lon="86.714547">
        <ele>2595.8</ele>
        <time>2022-10-19T05:42:35.000Z</time>
      </trkpt>
      <trkpt lat="27.720883" lon="86.714541">
        <ele>2595.6</ele>
        <time>2022-10-19T05:42:38.000Z</time>
      </trkpt>
      <trkpt lat="27.720902" lon="86.714528">
        <ele>2595.2</ele>
        <time>2022-10-19T05:42:42.000Z</time>
      </trkpt>
      <trkpt lat="27.720925" lon="86.714528">
        <ele>2594.4</ele>
        <time>2022-10-19T05:42:45.000Z</time>
      </trkpt>
      <trkpt lat="27.720944" lon="86.714528">
        <ele>2594.4</ele>
        <time>2022-10-19T05:42:48.000Z</time>
      </trkpt>
      <trkpt lat="27.720963" lon="86.714522">
        <ele>2594</ele>
        <time>2022-10-19T05:42:52.000Z</time>
      </trkpt>
      <trkpt lat="27.720986" lon="86.714515">
        <ele>2593.6</ele>
        <time>2022-10-19T05:42:55.000Z</time>
      </trkpt>
      <trkpt lat="27.721002" lon="86.714502">
        <ele>2593.4</ele>
        <time>2022-10-19T05:42:57.000Z</time>
      </trkpt>
      <trkpt lat="27.721024" lon="86.714502">
        <ele>2592.6</ele>
        <time>2022-10-19T05:43:00.000Z</time>
      </trkpt>
      <trkpt lat="27.721034" lon="86.714483">
        <ele>2592.4</ele>
        <time>2022-10-19T05:43:02.000Z</time>
      </trkpt>
      <trkpt lat="27.721056" lon="86.71447">
        <ele>2591.8</ele>
        <time>2022-10-19T05:43:05.000Z</time>
      </trkpt>
      <trkpt lat="27.721072" lon="86.714458">
        <ele>2590.6</ele>
        <time>2022-10-19T05:43:08.000Z</time>
      </trkpt>
      <trkpt lat="27.721085" lon="86.714438">
        <ele>2590.2</ele>
        <time>2022-10-19T05:43:11.000Z</time>
      </trkpt>
      <trkpt lat="27.721101" lon="86.714426">
        <ele>2589.6</ele>
        <time>2022-10-19T05:43:14.000Z</time>
      </trkpt>
      <trkpt lat="27.72112" lon="86.714419">
        <ele>2589.4</ele>
        <time>2022-10-19T05:43:18.000Z</time>
      </trkpt>
      <trkpt lat="27.72113" lon="86.7144">
        <ele>2589</ele>
        <time>2022-10-19T05:43:20.000Z</time>
      </trkpt>
      <trkpt lat="27.721149" lon="86.7144">
        <ele>2588.8</ele>
        <time>2022-10-19T05:43:23.000Z</time>
      </trkpt>
      <trkpt lat="27.721171" lon="86.714406">
        <ele>2588.2</ele>
        <time>2022-10-19T05:43:26.000Z</time>
      </trkpt>
      <trkpt lat="27.721197" lon="86.714406">
        <ele>2587.8</ele>
        <time>2022-10-19T05:43:29.000Z</time>
      </trkpt>
      <trkpt lat="27.721222" lon="86.7144">
        <ele>2587.4</ele>
        <time>2022-10-19T05:43:33.000Z</time>
      </trkpt>
      <trkpt lat="27.721242" lon="86.714406">
        <ele>2587</ele>
        <time>2022-10-19T05:43:35.000Z</time>
      </trkpt>
      <trkpt lat="27.721264" lon="86.714406">
        <ele>2587</ele>
        <time>2022-10-19T05:43:37.000Z</time>
      </trkpt>
      <trkpt lat="27.721286" lon="86.714419">
        <ele>2586.6</ele>
        <time>2022-10-19T05:43:39.000Z</time>
      </trkpt>
      <trkpt lat="27.721306" lon="86.714419">
        <ele>2586.2</ele>
        <time>2022-10-19T05:43:41.000Z</time>
      </trkpt>
      <trkpt lat="27.721328" lon="86.714419">
        <ele>2585.4</ele>
        <time>2022-10-19T05:43:43.000Z</time>
      </trkpt>
      <trkpt lat="27.721347" lon="86.714419">
        <ele>2585.8</ele>
        <time>2022-10-19T05:43:45.000Z</time>
      </trkpt>
      <trkpt lat="27.721366" lon="86.714419">
        <ele>2585.4</ele>
        <time>2022-10-19T05:43:48.000Z</time>
      </trkpt>
      <trkpt lat="27.721386" lon="86.714406">
        <ele>2585</ele>
        <time>2022-10-19T05:43:50.000Z</time>
      </trkpt>
      <trkpt lat="27.721408" lon="86.714394">
        <ele>2584.4</ele>
        <time>2022-10-19T05:43:53.000Z</time>
      </trkpt>
      <trkpt lat="27.721427" lon="86.714387">
        <ele>2584.2</ele>
        <time>2022-10-19T05:43:55.000Z</time>
      </trkpt>
      <trkpt lat="27.72145" lon="86.714381">
        <ele>2584</ele>
        <time>2022-10-19T05:43:58.000Z</time>
      </trkpt>
      <trkpt lat="27.721469" lon="86.714381">
        <ele>2583.8</ele>
        <time>2022-10-19T05:44:00.000Z</time>
      </trkpt>
      <trkpt lat="27.721488" lon="86.714368">
        <ele>2583.6</ele>
        <time>2022-10-19T05:44:03.000Z</time>
      </trkpt>
      <trkpt lat="27.721498" lon="86.714342">
        <ele>2583</ele>
        <time>2022-10-19T05:44:07.000Z</time>
      </trkpt>
      <trkpt lat="27.721514" lon="86.71433">
        <ele>2582.2</ele>
        <time>2022-10-19T05:44:10.000Z</time>
      </trkpt>
      <trkpt lat="27.721542" lon="86.71433">
        <ele>2582.2</ele>
        <time>2022-10-19T05:44:13.000Z</time>
      </trkpt>
      <trkpt lat="27.721558" lon="86.714342">
        <ele>2582</ele>
        <time>2022-10-19T05:44:14.000Z</time>
      </trkpt>
      <trkpt lat="27.721578" lon="86.714342">
        <ele>2581.8</ele>
        <time>2022-10-19T05:44:16.000Z</time>
      </trkpt>
      <trkpt lat="27.721603" lon="86.714349">
        <ele>2581.6</ele>
        <time>2022-10-19T05:44:18.000Z</time>
      </trkpt>
      <trkpt lat="27.721622" lon="86.714355">
        <ele>2581.8</ele>
        <time>2022-10-19T05:44:20.000Z</time>
      </trkpt>
      <trkpt lat="27.721645" lon="86.714349">
        <ele>2581.6</ele>
        <time>2022-10-19T05:44:23.000Z</time>
      </trkpt>
      <trkpt lat="27.721664" lon="86.714349">
        <ele>2581.4</ele>
        <time>2022-10-19T05:44:25.000Z</time>
      </trkpt>
      <trkpt lat="27.721699" lon="86.714349">
        <ele>2581.6</ele>
        <time>2022-10-19T05:44:28.000Z</time>
      </trkpt>
      <trkpt lat="27.721722" lon="86.714342">
        <ele>2581.2</ele>
        <time>2022-10-19T05:44:30.000Z</time>
      </trkpt>
      <trkpt lat="27.721744" lon="86.714323">
        <ele>2581</ele>
        <time>2022-10-19T05:44:32.000Z</time>
      </trkpt>
      <trkpt lat="27.721773" lon="86.714317">
        <ele>2580.8</ele>
        <time>2022-10-19T05:44:35.000Z</time>
      </trkpt>
      <trkpt lat="27.721798" lon="86.71431">
        <ele>2580.8</ele>
        <time>2022-10-19T05:44:38.000Z</time>
      </trkpt>
      <trkpt lat="27.721818" lon="86.714304">
        <ele>2581.2</ele>
        <time>2022-10-19T05:44:40.000Z</time>
      </trkpt>
      <trkpt lat="27.721837" lon="86.71431">
        <ele>2581.2</ele>
        <time>2022-10-19T05:44:43.000Z</time>
      </trkpt>
      <trkpt lat="27.721856" lon="86.71431">
        <ele>2581.2</ele>
        <time>2022-10-19T05:44:46.000Z</time>
      </trkpt>
      <trkpt lat="27.721875" lon="86.714317">
        <ele>2581.8</ele>
        <time>2022-10-19T05:44:50.000Z</time>
      </trkpt>
      <trkpt lat="27.721898" lon="86.71431">
        <ele>2582.2</ele>
        <time>2022-10-19T05:44:53.000Z</time>
      </trkpt>
      <trkpt lat="27.721917" lon="86.71431">
        <ele>2582.6</ele>
        <time>2022-10-19T05:44:56.000Z</time>
      </trkpt>
      <trkpt lat="27.721939" lon="86.71431">
        <ele>2583</ele>
        <time>2022-10-19T05:44:59.000Z</time>
      </trkpt>
      <trkpt lat="27.721978" lon="86.714304">
        <ele>2583</ele>
        <time>2022-10-19T05:45:04.000Z</time>
      </trkpt>
      <trkpt lat="27.721997" lon="86.714317">
        <ele>2583</ele>
        <time>2022-10-19T05:45:07.000Z</time>
      </trkpt>
      <trkpt lat="27.722016" lon="86.714317">
        <ele>2583.2</ele>
        <time>2022-10-19T05:45:09.000Z</time>
      </trkpt>
      <trkpt lat="27.722042" lon="86.71431">
        <ele>2583.2</ele>
        <time>2022-10-19T05:45:13.000Z</time>
      </trkpt>
      <trkpt lat="27.722083" lon="86.714298">
        <ele>2583.4</ele>
        <time>2022-10-19T05:45:18.000Z</time>
      </trkpt>
      <trkpt lat="27.722106" lon="86.714285">
        <ele>2584</ele>
        <time>2022-10-19T05:45:20.000Z</time>
      </trkpt>
      <trkpt lat="27.722122" lon="86.714298">
        <ele>2584</ele>
        <time>2022-10-19T05:45:22.000Z</time>
      </trkpt>
      <trkpt lat="27.722141" lon="86.714304">
        <ele>2583.4</ele>
        <time>2022-10-19T05:45:26.000Z</time>
      </trkpt>
      <trkpt lat="27.722163" lon="86.71431">
        <ele>2583.2</ele>
        <time>2022-10-19T05:45:30.000Z</time>
      </trkpt>
      <trkpt lat="27.722182" lon="86.71431">
        <ele>2582.6</ele>
        <time>2022-10-19T05:45:32.000Z</time>
      </trkpt>
      <trkpt lat="27.722205" lon="86.71433">
        <ele>2582</ele>
        <time>2022-10-19T05:45:35.000Z</time>
      </trkpt>
      <trkpt lat="27.722227" lon="86.71433">
        <ele>2581.8</ele>
        <time>2022-10-19T05:45:37.000Z</time>
      </trkpt>
      <trkpt lat="27.722253" lon="86.71433">
        <ele>2582</ele>
        <time>2022-10-19T05:45:39.000Z</time>
      </trkpt>
      <trkpt lat="27.722272" lon="86.714342">
        <ele>2581.6</ele>
        <time>2022-10-19T05:45:41.000Z</time>
      </trkpt>
      <trkpt lat="27.722294" lon="86.714342">
        <ele>2581.6</ele>
        <time>2022-10-19T05:45:43.000Z</time>
      </trkpt>
      <trkpt lat="27.722314" lon="86.714342">
        <ele>2581.6</ele>
        <time>2022-10-19T05:45:46.000Z</time>
      </trkpt>
      <trkpt lat="27.722333" lon="86.714342">
        <ele>2581.4</ele>
        <time>2022-10-19T05:45:48.000Z</time>
      </trkpt>
      <trkpt lat="27.722349" lon="86.71433">
        <ele>2581.4</ele>
        <time>2022-10-19T05:45:51.000Z</time>
      </trkpt>
      <trkpt lat="27.722374" lon="86.714323">
        <ele>2581</ele>
        <time>2022-10-19T05:45:57.000Z</time>
      </trkpt>
      <trkpt lat="27.722397" lon="86.714323">
        <ele>2581</ele>
        <time>2022-10-19T05:46:00.000Z</time>
      </trkpt>
      <trkpt lat="27.722419" lon="86.71433">
        <ele>2580.2</ele>
        <time>2022-10-19T05:46:03.000Z</time>
      </trkpt>
      <trkpt lat="27.722438" lon="86.714342">
        <ele>2579.8</ele>
        <time>2022-10-19T05:46:05.000Z</time>
      </trkpt>
      <trkpt lat="27.722454" lon="86.71433">
        <ele>2579.4</ele>
        <time>2022-10-19T05:46:09.000Z</time>
      </trkpt>
      <trkpt lat="27.722474" lon="86.714317">
        <ele>2579</ele>
        <time>2022-10-19T05:46:14.000Z</time>
      </trkpt>
      <trkpt lat="27.722496" lon="86.71431">
        <ele>2577.8</ele>
        <time>2022-10-19T05:46:18.000Z</time>
      </trkpt>
      <trkpt lat="27.722522" lon="86.71431">
        <ele>2577.8</ele>
        <time>2022-10-19T05:46:21.000Z</time>
      </trkpt>
      <trkpt lat="27.722541" lon="86.714304">
        <ele>2578</ele>
        <time>2022-10-19T05:46:23.000Z</time>
      </trkpt>
      <trkpt lat="27.72256" lon="86.714304">
        <ele>2577.8</ele>
        <time>2022-10-19T05:46:25.000Z</time>
      </trkpt>
      <trkpt lat="27.722582" lon="86.714304">
        <ele>2577.6</ele>
        <time>2022-10-19T05:46:29.000Z</time>
      </trkpt>
      <trkpt lat="27.722608" lon="86.714285">
        <ele>2577.4</ele>
        <time>2022-10-19T05:46:32.000Z</time>
      </trkpt>
      <trkpt lat="27.722627" lon="86.714278">
        <ele>2577.6</ele>
        <time>2022-10-19T05:46:36.000Z</time>
      </trkpt>
      <trkpt lat="27.722646" lon="86.714285">
        <ele>2576.8</ele>
        <time>2022-10-19T05:46:43.000Z</time>
      </trkpt>
      <trkpt lat="27.722656" lon="86.714317">
        <ele>2574.8</ele>
        <time>2022-10-19T05:47:44.000Z</time>
      </trkpt>
      <trkpt lat="27.722678" lon="86.71431">
        <ele>2574.2</ele>
        <time>2022-10-19T05:47:46.000Z</time>
      </trkpt>
      <trkpt lat="27.722701" lon="86.71431">
        <ele>2573.8</ele>
        <time>2022-10-19T05:47:48.000Z</time>
      </trkpt>
      <trkpt lat="27.722726" lon="86.71431">
        <ele>2573.4</ele>
        <time>2022-10-19T05:47:50.000Z</time>
      </trkpt>
      <trkpt lat="27.722752" lon="86.714304">
        <ele>2573.2</ele>
        <time>2022-10-19T05:47:52.000Z</time>
      </trkpt>
      <trkpt lat="27.722771" lon="86.71431">
        <ele>2572.4</ele>
        <time>2022-10-19T05:47:55.000Z</time>
      </trkpt>
      <trkpt lat="27.722794" lon="86.714304">
        <ele>2572</ele>
        <time>2022-10-19T05:47:58.000Z</time>
      </trkpt>
      <trkpt lat="27.722819" lon="86.714304">
        <ele>2571.6</ele>
        <time>2022-10-19T05:48:01.000Z</time>
      </trkpt>
      <trkpt lat="27.722842" lon="86.714298">
        <ele>2570.6</ele>
        <time>2022-10-19T05:48:03.000Z</time>
      </trkpt>
      <trkpt lat="27.722864" lon="86.714285">
        <ele>2570</ele>
        <time>2022-10-19T05:48:05.000Z</time>
      </trkpt>
      <trkpt lat="27.722886" lon="86.714298">
        <ele>2570.2</ele>
        <time>2022-10-19T05:48:07.000Z</time>
      </trkpt>
      <trkpt lat="27.722906" lon="86.714298">
        <ele>2570.6</ele>
        <time>2022-10-19T05:48:09.000Z</time>
      </trkpt>
      <trkpt lat="27.722922" lon="86.714285">
        <ele>2570.6</ele>
        <time>2022-10-19T05:48:11.000Z</time>
      </trkpt>
      <trkpt lat="27.722941" lon="86.714285">
        <ele>2571</ele>
        <time>2022-10-19T05:48:25.000Z</time>
      </trkpt>
      <trkpt lat="27.722963" lon="86.714304">
        <ele>2570.8</ele>
        <time>2022-10-19T05:48:27.000Z</time>
      </trkpt>
      <trkpt lat="27.722986" lon="86.71431">
        <ele>2570.8</ele>
        <time>2022-10-19T05:48:29.000Z</time>
      </trkpt>
      <trkpt lat="27.723005" lon="86.714323">
        <ele>2570.8</ele>
        <time>2022-10-19T05:48:31.000Z</time>
      </trkpt>
      <trkpt lat="27.723024" lon="86.71433">
        <ele>2570.4</ele>
        <time>2022-10-19T05:48:33.000Z</time>
      </trkpt>
      <trkpt lat="27.72305" lon="86.71433">
        <ele>2570.4</ele>
        <time>2022-10-19T05:48:35.000Z</time>
      </trkpt>
      <trkpt lat="27.723072" lon="86.71433">
        <ele>2570.8</ele>
        <time>2022-10-19T05:48:37.000Z</time>
      </trkpt>
      <trkpt lat="27.723098" lon="86.714342">
        <ele>2570.8</ele>
        <time>2022-10-19T05:48:39.000Z</time>
      </trkpt>
      <trkpt lat="27.723117" lon="86.714349">
        <ele>2570.2</ele>
        <time>2022-10-19T05:48:41.000Z</time>
      </trkpt>
      <trkpt lat="27.723139" lon="86.714355">
        <ele>2570.4</ele>
        <time>2022-10-19T05:48:43.000Z</time>
      </trkpt>
      <trkpt lat="27.723165" lon="86.714362">
        <ele>2570.4</ele>
        <time>2022-10-19T05:48:45.000Z</time>
      </trkpt>
      <trkpt lat="27.723187" lon="86.714368">
        <ele>2570.2</ele>
        <time>2022-10-19T05:48:47.000Z</time>
      </trkpt>
      <trkpt lat="27.723206" lon="86.714387">
        <ele>2570.2</ele>
        <time>2022-10-19T05:48:49.000Z</time>
      </trkpt>
      <trkpt lat="27.723235" lon="86.714394">
        <ele>2570.4</ele>
        <time>2022-10-19T05:48:51.000Z</time>
      </trkpt>
      <trkpt lat="27.723258" lon="86.7144">
        <ele>2570.6</ele>
        <time>2022-10-19T05:48:53.000Z</time>
      </trkpt>
      <trkpt lat="27.723274" lon="86.714419">
        <ele>2570.4</ele>
        <time>2022-10-19T05:48:55.000Z</time>
      </trkpt>
      <trkpt lat="27.723293" lon="86.714432">
        <ele>2570.4</ele>
        <time>2022-10-19T05:48:57.000Z</time>
      </trkpt>
      <trkpt lat="27.723312" lon="86.714438">
        <ele>2570.4</ele>
        <time>2022-10-19T05:48:59.000Z</time>
      </trkpt>
      <trkpt lat="27.723334" lon="86.714445">
        <ele>2570.2</ele>
        <time>2022-10-19T05:49:01.000Z</time>
      </trkpt>
      <trkpt lat="27.723357" lon="86.714464">
        <ele>2570.2</ele>
        <time>2022-10-19T05:49:03.000Z</time>
      </trkpt>
      <trkpt lat="27.723379" lon="86.714477">
        <ele>2570</ele>
        <time>2022-10-19T05:49:05.000Z</time>
      </trkpt>
      <trkpt lat="27.723408" lon="86.71449">
        <ele>2570</ele>
        <time>2022-10-19T05:49:08.000Z</time>
      </trkpt>
      <trkpt lat="27.723437" lon="86.71449">
        <ele>2570</ele>
        <time>2022-10-19T05:49:10.000Z</time>
      </trkpt>
      <trkpt lat="27.723459" lon="86.71449">
        <ele>2570.4</ele>
        <time>2022-10-19T05:49:12.000Z</time>
      </trkpt>
      <trkpt lat="27.723482" lon="86.714509">
        <ele>2570.6</ele>
        <time>2022-10-19T05:49:14.000Z</time>
      </trkpt>
      <trkpt lat="27.723501" lon="86.714515">
        <ele>2570.4</ele>
        <time>2022-10-19T05:49:16.000Z</time>
      </trkpt>
      <trkpt lat="27.723523" lon="86.714522">
        <ele>2570</ele>
        <time>2022-10-19T05:49:18.000Z</time>
      </trkpt>
      <trkpt lat="27.723542" lon="86.714528">
        <ele>2570</ele>
        <time>2022-10-19T05:49:20.000Z</time>
      </trkpt>
      <trkpt lat="27.723565" lon="86.714528">
        <ele>2570.2</ele>
        <time>2022-10-19T05:49:22.000Z</time>
      </trkpt>
      <trkpt lat="27.72359" lon="86.714541">
        <ele>2570.4</ele>
        <time>2022-10-19T05:49:24.000Z</time>
      </trkpt>
      <trkpt lat="27.723616" lon="86.714547">
        <ele>2570.6</ele>
        <time>2022-10-19T05:49:27.000Z</time>
      </trkpt>
      <trkpt lat="27.723632" lon="86.71456">
        <ele>2570.8</ele>
        <time>2022-10-19T05:49:29.000Z</time>
      </trkpt>
      <trkpt lat="27.723651" lon="86.714566">
        <ele>2570.6</ele>
        <time>2022-10-19T05:49:31.000Z</time>
      </trkpt>
      <trkpt lat="27.72367" lon="86.714579">
        <ele>2570.6</ele>
        <time>2022-10-19T05:49:33.000Z</time>
      </trkpt>
      <trkpt lat="27.723693" lon="86.714586">
        <ele>2570.8</ele>
        <time>2022-10-19T05:49:36.000Z</time>
      </trkpt>
      <trkpt lat="27.723722" lon="86.714592">
        <ele>2571.2</ele>
        <time>2022-10-19T05:49:39.000Z</time>
      </trkpt>
      <trkpt lat="27.723744" lon="86.714592">
        <ele>2570.8</ele>
        <time>2022-10-19T05:49:41.000Z</time>
      </trkpt>
      <trkpt lat="27.72375" lon="86.714618">
        <ele>2571.6</ele>
        <time>2022-10-19T05:50:22.000Z</time>
      </trkpt>
      <trkpt lat="27.723731" lon="86.714618">
        <ele>2570.2</ele>
        <time>2022-10-19T05:55:07.000Z</time>
      </trkpt>
      <trkpt lat="27.723744" lon="86.714579">
        <ele>2571.4</ele>
        <time>2022-10-19T05:57:08.000Z</time>
      </trkpt>
      <trkpt lat="27.723776" lon="86.714579">
        <ele>2571.4</ele>
        <time>2022-10-19T05:57:10.000Z</time>
      </trkpt>
      <trkpt lat="27.723811" lon="86.714579">
        <ele>2571.4</ele>
        <time>2022-10-19T05:57:12.000Z</time>
      </trkpt>
      <trkpt lat="27.723843" lon="86.714586">
        <ele>2571.6</ele>
        <time>2022-10-19T05:57:14.000Z</time>
      </trkpt>
      <trkpt lat="27.723875" lon="86.714579">
        <ele>2571.6</ele>
        <time>2022-10-19T05:57:16.000Z</time>
      </trkpt>
      <trkpt lat="27.723894" lon="86.714579">
        <ele>2571.6</ele>
        <time>2022-10-19T05:57:17.000Z</time>
      </trkpt>
      <trkpt lat="27.72392" lon="86.714586">
        <ele>2571.6</ele>
        <time>2022-10-19T05:57:20.000Z</time>
      </trkpt>
      <trkpt lat="27.723939" lon="86.714586">
        <ele>2571.8</ele>
        <time>2022-10-19T05:57:22.000Z</time>
      </trkpt>
      <trkpt lat="27.723958" lon="86.714586">
        <ele>2571.8</ele>
        <time>2022-10-19T05:57:24.000Z</time>
      </trkpt>
      <trkpt lat="27.723984" lon="86.714592">
        <ele>2572</ele>
        <time>2022-10-19T05:57:27.000Z</time>
      </trkpt>
      <trkpt lat="27.724003" lon="86.714586">
        <ele>2572.6</ele>
        <time>2022-10-19T05:57:29.000Z</time>
      </trkpt>
      <trkpt lat="27.724026" lon="86.714592">
        <ele>2572.6</ele>
        <time>2022-10-19T05:57:32.000Z</time>
      </trkpt>
      <trkpt lat="27.724051" lon="86.714598">
        <ele>2572.8</ele>
        <time>2022-10-19T05:57:35.000Z</time>
      </trkpt>
      <trkpt lat="27.72407" lon="86.714605">
        <ele>2573.4</ele>
        <time>2022-10-19T05:57:37.000Z</time>
      </trkpt>
      <trkpt lat="27.72409" lon="86.714605">
        <ele>2573.2</ele>
        <time>2022-10-19T05:57:39.000Z</time>
      </trkpt>
      <trkpt lat="27.724109" lon="86.714618">
        <ele>2573.4</ele>
        <time>2022-10-19T05:57:42.000Z</time>
      </trkpt>
      <trkpt lat="27.724131" lon="86.714624">
        <ele>2574</ele>
        <time>2022-10-19T05:57:44.000Z</time>
      </trkpt>
      <trkpt lat="27.72415" lon="86.71463">
        <ele>2573.8</ele>
        <time>2022-10-19T05:57:46.000Z</time>
      </trkpt>
      <trkpt lat="27.72417" lon="86.71463">
        <ele>2573.8</ele>
        <time>2022-10-19T05:57:48.000Z</time>
      </trkpt>
      <trkpt lat="27.724189" lon="86.714637">
        <ele>2574</ele>
        <time>2022-10-19T05:57:50.000Z</time>
      </trkpt>
      <trkpt lat="27.724211" lon="86.714656">
        <ele>2574.4</ele>
        <time>2022-10-19T05:57:53.000Z</time>
      </trkpt>
      <trkpt lat="27.724237" lon="86.714656">
        <ele>2574.8</ele>
        <time>2022-10-19T05:57:57.000Z</time>
      </trkpt>
      <trkpt lat="27.724256" lon="86.714662">
        <ele>2575.2</ele>
        <time>2022-10-19T05:58:01.000Z</time>
      </trkpt>
      <trkpt lat="27.724269" lon="86.714682">
        <ele>2575.6</ele>
        <time>2022-10-19T05:58:04.000Z</time>
      </trkpt>
      <trkpt lat="27.724275" lon="86.714701">
        <ele>2575.6</ele>
        <time>2022-10-19T05:58:06.000Z</time>
      </trkpt>
      <trkpt lat="27.724291" lon="86.714714">
        <ele>2576</ele>
        <time>2022-10-19T05:58:09.000Z</time>
      </trkpt>
      <trkpt lat="27.72431" lon="86.71472">
        <ele>2577</ele>
        <time>2022-10-19T05:58:13.000Z</time>
      </trkpt>
      <trkpt lat="27.72432" lon="86.714739">
        <ele>2577.4</ele>
        <time>2022-10-19T05:58:15.000Z</time>
      </trkpt>
      <trkpt lat="27.724346" lon="86.714726">
        <ele>2577.4</ele>
        <time>2022-10-19T05:58:18.000Z</time>
      </trkpt>
      <trkpt lat="27.724368" lon="86.71472">
        <ele>2577.2</ele>
        <time>2022-10-19T05:58:21.000Z</time>
      </trkpt>
      <trkpt lat="27.724387" lon="86.71472">
        <ele>2577.6</ele>
        <time>2022-10-19T05:58:23.000Z</time>
      </trkpt>
      <trkpt lat="27.72441" lon="86.714707">
        <ele>2577.4</ele>
        <time>2022-10-19T05:58:26.000Z</time>
      </trkpt>
      <trkpt lat="27.724429" lon="86.714701">
        <ele>2577.8</ele>
        <time>2022-10-19T05:58:29.000Z</time>
      </trkpt>
      <trkpt lat="27.724445" lon="86.714688">
        <ele>2578.4</ele>
        <time>2022-10-19T05:58:31.000Z</time>
      </trkpt>
      <trkpt lat="27.724464" lon="86.714701">
        <ele>2578.2</ele>
        <time>2022-10-19T05:58:34.000Z</time>
      </trkpt>
      <trkpt lat="27.72448" lon="86.714688">
        <ele>2578.2</ele>
        <time>2022-10-19T05:58:36.000Z</time>
      </trkpt>
      <trkpt lat="27.724502" lon="86.714688">
        <ele>2578.4</ele>
        <time>2022-10-19T05:58:38.000Z</time>
      </trkpt>
      <trkpt lat="27.724525" lon="86.714682">
        <ele>2579</ele>
        <time>2022-10-19T05:58:42.000Z</time>
      </trkpt>
      <trkpt lat="27.724547" lon="86.714675">
        <ele>2579.6</ele>
        <time>2022-10-19T05:58:45.000Z</time>
      </trkpt>
      <trkpt lat="27.724566" lon="86.714669">
        <ele>2579.2</ele>
        <time>2022-10-19T05:58:47.000Z</time>
      </trkpt>
      <trkpt lat="27.724589" lon="86.714662">
        <ele>2580</ele>
        <time>2022-10-19T05:58:50.000Z</time>
      </trkpt>
      <trkpt lat="27.724608" lon="86.714662">
        <ele>2580.2</ele>
        <time>2022-10-19T05:58:54.000Z</time>
      </trkpt>
      <trkpt lat="27.724627" lon="86.714662">
        <ele>2580.6</ele>
        <time>2022-10-19T05:58:57.000Z</time>
      </trkpt>
      <trkpt lat="27.724653" lon="86.714662">
        <ele>2581</ele>
        <time>2022-10-19T05:59:00.000Z</time>
      </trkpt>
      <trkpt lat="27.724675" lon="86.714669">
        <ele>2582</ele>
        <time>2022-10-19T05:59:02.000Z</time>
      </trkpt>
      <trkpt lat="27.724698" lon="86.714669">
        <ele>2582</ele>
        <time>2022-10-19T05:59:04.000Z</time>
      </trkpt>
      <trkpt lat="27.724733" lon="86.714669">
        <ele>2581.6</ele>
        <time>2022-10-19T05:59:07.000Z</time>
      </trkpt>
      <trkpt lat="27.724755" lon="86.714682">
        <ele>2581.6</ele>
        <time>2022-10-19T05:59:09.000Z</time>
      </trkpt>
      <trkpt lat="27.724781" lon="86.714682">
        <ele>2582</ele>
        <time>2022-10-19T05:59:12.000Z</time>
      </trkpt>
      <trkpt lat="27.724803" lon="86.714682">
        <ele>2582.4</ele>
        <time>2022-10-19T05:59:14.000Z</time>
      </trkpt>
      <trkpt lat="27.724822" lon="86.714675">
        <ele>2582.6</ele>
        <time>2022-10-19T05:59:16.000Z</time>
      </trkpt>
      <trkpt lat="27.724842" lon="86.714675">
        <ele>2582.6</ele>
        <time>2022-10-19T05:59:18.000Z</time>
      </trkpt>
      <trkpt lat="27.724861" lon="86.714662">
        <ele>2583</ele>
        <time>2022-10-19T05:59:20.000Z</time>
      </trkpt>
      <trkpt lat="27.724886" lon="86.714643">
        <ele>2583.2</ele>
        <time>2022-10-19T05:59:23.000Z</time>
      </trkpt>
      <trkpt lat="27.724912" lon="86.71463">
        <ele>2583.2</ele>
        <time>2022-10-19T05:59:26.000Z</time>
      </trkpt>
      <trkpt lat="27.724934" lon="86.714624">
        <ele>2584</ele>
        <time>2022-10-19T05:59:30.000Z</time>
      </trkpt>
      <trkpt lat="27.724954" lon="86.714618">
        <ele>2584.2</ele>
        <time>2022-10-19T05:59:33.000Z</time>
      </trkpt>
      <trkpt lat="27.724976" lon="86.714618">
        <ele>2584.2</ele>
        <time>2022-10-19T05:59:36.000Z</time>
      </trkpt>
      <trkpt lat="27.724995" lon="86.714605">
        <ele>2584.6</ele>
        <time>2022-10-19T05:59:38.000Z</time>
      </trkpt>
      <trkpt lat="27.725014" lon="86.714598">
        <ele>2584.8</ele>
        <time>2022-10-19T05:59:40.000Z</time>
      </trkpt>
      <trkpt lat="27.72504" lon="86.714586">
        <ele>2584.6</ele>
        <time>2022-10-19T05:59:43.000Z</time>
      </trkpt>
      <trkpt lat="27.725059" lon="86.714586">
        <ele>2584.8</ele>
        <time>2022-10-19T05:59:46.000Z</time>
      </trkpt>
      <trkpt lat="27.725082" lon="86.714586">
        <ele>2584.8</ele>
        <time>2022-10-19T05:59:49.000Z</time>
      </trkpt>
      <trkpt lat="27.725104" lon="86.714579">
        <ele>2584.8</ele>
        <time>2022-10-19T05:59:52.000Z</time>
      </trkpt>
      <trkpt lat="27.72512" lon="86.714566">
        <ele>2585</ele>
        <time>2022-10-19T05:59:54.000Z</time>
      </trkpt>
      <trkpt lat="27.725142" lon="86.71456">
        <ele>2585.6</ele>
        <time>2022-10-19T06:00:11.000Z</time>
      </trkpt>
      <trkpt lat="27.725162" lon="86.714554">
        <ele>2585.8</ele>
        <time>2022-10-19T06:00:15.000Z</time>
      </trkpt>
      <trkpt lat="27.725187" lon="86.714547">
        <ele>2586</ele>
        <time>2022-10-19T06:00:18.000Z</time>
      </trkpt>
      <trkpt lat="27.725213" lon="86.714547">
        <ele>2586.4</ele>
        <time>2022-10-19T06:00:21.000Z</time>
      </trkpt>
      <trkpt lat="27.725238" lon="86.714541">
        <ele>2586.4</ele>
        <time>2022-10-19T06:00:24.000Z</time>
      </trkpt>
      <trkpt lat="27.725264" lon="86.714528">
        <ele>2586.8</ele>
        <time>2022-10-19T06:00:27.000Z</time>
      </trkpt>
      <trkpt lat="27.725286" lon="86.714528">
        <ele>2587.2</ele>
        <time>2022-10-19T06:00:30.000Z</time>
      </trkpt>
      <trkpt lat="27.725309" lon="86.714528">
        <ele>2587.4</ele>
        <time>2022-10-19T06:00:34.000Z</time>
      </trkpt>
      <trkpt lat="27.725331" lon="86.714528">
        <ele>2588.2</ele>
        <time>2022-10-19T06:00:38.000Z</time>
      </trkpt>
      <trkpt lat="27.72535" lon="86.714528">
        <ele>2589</ele>
        <time>2022-10-19T06:00:41.000Z</time>
      </trkpt>
      <trkpt lat="27.72537" lon="86.714528">
        <ele>2589</ele>
        <time>2022-10-19T06:00:43.000Z</time>
      </trkpt>
      <trkpt lat="27.725389" lon="86.714541">
        <ele>2589.2</ele>
        <time>2022-10-19T06:00:46.000Z</time>
      </trkpt>
      <trkpt lat="27.725408" lon="86.714547">
        <ele>2589.6</ele>
        <time>2022-10-19T06:00:48.000Z</time>
      </trkpt>
      <trkpt lat="27.725427" lon="86.714547">
        <ele>2589.6</ele>
        <time>2022-10-19T06:00:50.000Z</time>
      </trkpt>
      <trkpt lat="27.725446" lon="86.714554">
        <ele>2589.8</ele>
        <time>2022-10-19T06:00:53.000Z</time>
      </trkpt>
      <trkpt lat="27.725466" lon="86.714554">
        <ele>2590.2</ele>
        <time>2022-10-19T06:00:56.000Z</time>
      </trkpt>
      <trkpt lat="27.725488" lon="86.714554">
        <ele>2590.4</ele>
        <time>2022-10-19T06:01:01.000Z</time>
      </trkpt>
      <trkpt lat="27.725507" lon="86.714547">
        <ele>2590.8</ele>
        <time>2022-10-19T06:01:05.000Z</time>
      </trkpt>
      <trkpt lat="27.725526" lon="86.714547">
        <ele>2591.8</ele>
        <time>2022-10-19T06:01:09.000Z</time>
      </trkpt>
      <trkpt lat="27.725546" lon="86.714541">
        <ele>2592.2</ele>
        <time>2022-10-19T06:01:12.000Z</time>
      </trkpt>
      <trkpt lat="27.725558" lon="86.714522">
        <ele>2592.4</ele>
        <time>2022-10-19T06:01:14.000Z</time>
      </trkpt>
      <trkpt lat="27.725578" lon="86.714509">
        <ele>2593</ele>
        <time>2022-10-19T06:01:17.000Z</time>
      </trkpt>
      <trkpt lat="27.725597" lon="86.714502">
        <ele>2593.2</ele>
        <time>2022-10-19T06:01:19.000Z</time>
      </trkpt>
      <trkpt lat="27.725619" lon="86.71449">
        <ele>2593.6</ele>
        <time>2022-10-19T06:01:23.000Z</time>
      </trkpt>
      <trkpt lat="27.725638" lon="86.714483">
        <ele>2594.4</ele>
        <time>2022-10-19T06:01:27.000Z</time>
      </trkpt>
      <trkpt lat="27.725654" lon="86.71447">
        <ele>2595.2</ele>
        <time>2022-10-19T06:01:30.000Z</time>
      </trkpt>
      <trkpt lat="27.72567" lon="86.714458">
        <ele>2595.4</ele>
        <time>2022-10-19T06:01:34.000Z</time>
      </trkpt>
      <trkpt lat="27.72569" lon="86.714445">
        <ele>2596.2</ele>
        <time>2022-10-19T06:01:37.000Z</time>
      </trkpt>
      <trkpt lat="27.725712" lon="86.714445">
        <ele>2596.8</ele>
        <time>2022-10-19T06:01:41.000Z</time>
      </trkpt>
      <trkpt lat="27.725734" lon="86.714445">
        <ele>2597.6</ele>
        <time>2022-10-19T06:01:46.000Z</time>
      </trkpt>
      <trkpt lat="27.72575" lon="86.714458">
        <ele>2598</ele>
        <time>2022-10-19T06:01:49.000Z</time>
      </trkpt>
      <trkpt lat="27.72577" lon="86.714458">
        <ele>2599.2</ele>
        <time>2022-10-19T06:01:54.000Z</time>
      </trkpt>
      <trkpt lat="27.725789" lon="86.714458">
        <ele>2599.6</ele>
        <time>2022-10-19T06:01:58.000Z</time>
      </trkpt>
      <trkpt lat="27.725808" lon="86.714458">
        <ele>2600</ele>
        <time>2022-10-19T06:02:01.000Z</time>
      </trkpt>
      <trkpt lat="27.72583" lon="86.714464">
        <ele>2600.2</ele>
        <time>2022-10-19T06:02:05.000Z</time>
      </trkpt>
      <trkpt lat="27.72585" lon="86.714458">
        <ele>2601.8</ele>
        <time>2022-10-19T06:02:08.000Z</time>
      </trkpt>
      <trkpt lat="27.725866" lon="86.71447">
        <ele>2602.2</ele>
        <time>2022-10-19T06:02:10.000Z</time>
      </trkpt>
      <trkpt lat="27.725885" lon="86.71447">
        <ele>2602.4</ele>
        <time>2022-10-19T06:02:13.000Z</time>
      </trkpt>
      <trkpt lat="27.725904" lon="86.71447">
        <ele>2603</ele>
        <time>2022-10-19T06:02:17.000Z</time>
      </trkpt>
      <trkpt lat="27.725923" lon="86.714464">
        <ele>2603.8</ele>
        <time>2022-10-19T06:02:20.000Z</time>
      </trkpt>
      <trkpt lat="27.725946" lon="86.714458">
        <ele>2604</ele>
        <time>2022-10-19T06:02:23.000Z</time>
      </trkpt>
      <trkpt lat="27.725962" lon="86.714445">
        <ele>2604.2</ele>
        <time>2022-10-19T06:02:27.000Z</time>
      </trkpt>
      <trkpt lat="27.725968" lon="86.714464">
        <ele>2604.6</ele>
        <time>2022-10-19T06:02:29.000Z</time>
      </trkpt>
      <trkpt lat="27.72599" lon="86.71447">
        <ele>2604.8</ele>
        <time>2022-10-19T06:02:32.000Z</time>
      </trkpt>
      <trkpt lat="27.72601" lon="86.71447">
        <ele>2604.8</ele>
        <time>2022-10-19T06:02:35.000Z</time>
      </trkpt>
      <trkpt lat="27.726035" lon="86.71447">
        <ele>2605</ele>
        <time>2022-10-19T06:02:38.000Z</time>
      </trkpt>
      <trkpt lat="27.726054" lon="86.71447">
        <ele>2605.2</ele>
        <time>2022-10-19T06:02:42.000Z</time>
      </trkpt>
      <trkpt lat="27.726074" lon="86.71447">
        <ele>2606</ele>
        <time>2022-10-19T06:02:46.000Z</time>
      </trkpt>
      <trkpt lat="27.726096" lon="86.71447">
        <ele>2606.2</ele>
        <time>2022-10-19T06:02:48.000Z</time>
      </trkpt>
      <trkpt lat="27.726112" lon="86.714458">
        <ele>2606.4</ele>
        <time>2022-10-19T06:02:50.000Z</time>
      </trkpt>
      <trkpt lat="27.726118" lon="86.714438">
        <ele>2607</ele>
        <time>2022-10-19T06:02:52.000Z</time>
      </trkpt>
      <trkpt lat="27.726128" lon="86.714419">
        <ele>2607.2</ele>
        <time>2022-10-19T06:02:54.000Z</time>
      </trkpt>
      <trkpt lat="27.726134" lon="86.714394">
        <ele>2607.4</ele>
        <time>2022-10-19T06:02:57.000Z</time>
      </trkpt>
      <trkpt lat="27.726157" lon="86.714387">
        <ele>2607.8</ele>
        <time>2022-10-19T06:03:00.000Z</time>
      </trkpt>
      <trkpt lat="27.726176" lon="86.714394">
        <ele>2608.6</ele>
        <time>2022-10-19T06:03:04.000Z</time>
      </trkpt>
      <trkpt lat="27.726195" lon="86.7144">
        <ele>2609</ele>
        <time>2022-10-19T06:03:08.000Z</time>
      </trkpt>
      <trkpt lat="27.726214" lon="86.7144">
        <ele>2610</ele>
        <time>2022-10-19T06:03:11.000Z</time>
      </trkpt>
      <trkpt lat="27.726234" lon="86.7144">
        <ele>2610</ele>
        <time>2022-10-19T06:03:16.000Z</time>
      </trkpt>
      <trkpt lat="27.726253" lon="86.714419">
        <ele>2611</ele>
        <time>2022-10-19T06:03:21.000Z</time>
      </trkpt>
      <trkpt lat="27.726272" lon="86.714406">
        <ele>2612.4</ele>
        <time>2022-10-19T06:03:25.000Z</time>
      </trkpt>
      <trkpt lat="27.726285" lon="86.714387">
        <ele>2612.8</ele>
        <time>2022-10-19T06:03:28.000Z</time>
      </trkpt>
      <trkpt lat="27.726291" lon="86.714368">
        <ele>2613.2</ele>
        <time>2022-10-19T06:03:31.000Z</time>
      </trkpt>
      <trkpt lat="27.72631" lon="86.714355">
        <ele>2614.2</ele>
        <time>2022-10-19T06:03:36.000Z</time>
      </trkpt>
      <trkpt lat="27.726333" lon="86.714362">
        <ele>2615</ele>
        <time>2022-10-19T06:03:41.000Z</time>
      </trkpt>
      <trkpt lat="27.726352" lon="86.714362">
        <ele>2616</ele>
        <time>2022-10-19T06:03:45.000Z</time>
      </trkpt>
      <trkpt lat="27.726371" lon="86.714355">
        <ele>2616</ele>
        <time>2022-10-19T06:03:48.000Z</time>
      </trkpt>
      <trkpt lat="27.72639" lon="86.714355">
        <ele>2617</ele>
        <time>2022-10-19T06:03:50.000Z</time>
      </trkpt>
      <trkpt lat="27.726413" lon="86.714355">
        <ele>2617</ele>
        <time>2022-10-19T06:03:53.000Z</time>
      </trkpt>
      <trkpt lat="27.726432" lon="86.714349">
        <ele>2617.4</ele>
        <time>2022-10-19T06:03:56.000Z</time>
      </trkpt>
      <trkpt lat="27.726454" lon="86.71433">
        <ele>2616.8</ele>
        <time>2022-10-19T06:03:59.000Z</time>
      </trkpt>
      <trkpt lat="27.72647" lon="86.714317">
        <ele>2616.4</ele>
        <time>2022-10-19T06:04:01.000Z</time>
      </trkpt>
      <trkpt lat="27.72649" lon="86.71431">
        <ele>2616.4</ele>
        <time>2022-10-19T06:04:03.000Z</time>
      </trkpt>
      <trkpt lat="27.726509" lon="86.71431">
        <ele>2616.4</ele>
        <time>2022-10-19T06:04:07.000Z</time>
      </trkpt>
      <trkpt lat="27.726531" lon="86.714304">
        <ele>2616.6</ele>
        <time>2022-10-19T06:04:12.000Z</time>
      </trkpt>
      <trkpt lat="27.72655" lon="86.714317">
        <ele>2616.4</ele>
        <time>2022-10-19T06:04:15.000Z</time>
      </trkpt>
      <trkpt lat="27.72656" lon="86.714342">
        <ele>2616.4</ele>
        <time>2022-10-19T06:04:17.000Z</time>
      </trkpt>
      <trkpt lat="27.72657" lon="86.714362">
        <ele>2616.6</ele>
        <time>2022-10-19T06:04:19.000Z</time>
      </trkpt>
      <trkpt lat="27.726576" lon="86.714381">
        <ele>2616.4</ele>
        <time>2022-10-19T06:04:21.000Z</time>
      </trkpt>
      <trkpt lat="27.726592" lon="86.714394">
        <ele>2616.4</ele>
        <time>2022-10-19T06:04:23.000Z</time>
      </trkpt>
      <trkpt lat="27.726614" lon="86.714419">
        <ele>2616.4</ele>
        <time>2022-10-19T06:04:26.000Z</time>
      </trkpt>
      <trkpt lat="27.726637" lon="86.7144">
        <ele>2616.6</ele>
        <time>2022-10-19T06:04:29.000Z</time>
      </trkpt>
      <trkpt lat="27.726653" lon="86.714387">
        <ele>2616.6</ele>
        <time>2022-10-19T06:04:35.000Z</time>
      </trkpt>
      <trkpt lat="27.726659" lon="86.714368">
        <ele>2616.8</ele>
        <time>2022-10-19T06:04:40.000Z</time>
      </trkpt>
      <trkpt lat="27.726669" lon="86.714387">
        <ele>2617.2</ele>
        <time>2022-10-19T06:05:06.000Z</time>
      </trkpt>
      <trkpt lat="27.726691" lon="86.714394">
        <ele>2617.4</ele>
        <time>2022-10-19T06:05:10.000Z</time>
      </trkpt>
      <trkpt lat="27.726717" lon="86.714394">
        <ele>2617.8</ele>
        <time>2022-10-19T06:05:14.000Z</time>
      </trkpt>
      <trkpt lat="27.726733" lon="86.714368">
        <ele>2618.4</ele>
        <time>2022-10-19T06:05:19.000Z</time>
      </trkpt>
      <trkpt lat="27.726752" lon="86.714362">
        <ele>2618.6</ele>
        <time>2022-10-19T06:05:22.000Z</time>
      </trkpt>
      <trkpt lat="27.726771" lon="86.714349">
        <ele>2618.6</ele>
        <time>2022-10-19T06:05:25.000Z</time>
      </trkpt>
      <trkpt lat="27.726778" lon="86.71433">
        <ele>2618.4</ele>
        <time>2022-10-19T06:05:27.000Z</time>
      </trkpt>
      <trkpt lat="27.72681" lon="86.714298">
        <ele>2618.4</ele>
        <time>2022-10-19T06:05:35.000Z</time>
      </trkpt>
      <trkpt lat="27.72679" lon="86.71431">
        <ele>2618</ele>
        <time>2022-10-19T06:05:39.000Z</time>
      </trkpt>
      <trkpt lat="27.726803" lon="86.714278">
        <ele>2618.4</ele>
        <time>2022-10-19T06:05:45.000Z</time>
      </trkpt>
      <trkpt lat="27.726822" lon="86.714272">
        <ele>2618</ele>
        <time>2022-10-19T06:05:47.000Z</time>
      </trkpt>
      <trkpt lat="27.726829" lon="86.714246">
        <ele>2618.2</ele>
        <time>2022-10-19T06:05:52.000Z</time>
      </trkpt>
      <trkpt lat="27.726832" lon="86.714221">
        <ele>2618.6</ele>
        <time>2022-10-19T06:05:58.000Z</time>
      </trkpt>
      <trkpt lat="27.726851" lon="86.714221">
        <ele>2618.8</ele>
        <time>2022-10-19T06:06:01.000Z</time>
      </trkpt>
      <trkpt lat="27.72687" lon="86.714227">
        <ele>2619.4</ele>
        <time>2022-10-19T06:06:04.000Z</time>
      </trkpt>
      <trkpt lat="27.72689" lon="86.714227">
        <ele>2619.6</ele>
        <time>2022-10-19T06:06:06.000Z</time>
      </trkpt>
      <trkpt lat="27.726912" lon="86.714221">
        <ele>2619.6</ele>
        <time>2022-10-19T06:06:09.000Z</time>
      </trkpt>
      <trkpt lat="27.726931" lon="86.714208">
        <ele>2619.6</ele>
        <time>2022-10-19T06:06:12.000Z</time>
      </trkpt>
      <trkpt lat="27.726954" lon="86.714208">
        <ele>2619.8</ele>
        <time>2022-10-19T06:06:14.000Z</time>
      </trkpt>
      <trkpt lat="27.726973" lon="86.714202">
        <ele>2620.4</ele>
        <time>2022-10-19T06:06:17.000Z</time>
      </trkpt>
      <trkpt lat="27.726986" lon="86.714182">
        <ele>2621</ele>
        <time>2022-10-19T06:06:27.000Z</time>
      </trkpt>
      <trkpt lat="27.726992" lon="86.714157">
        <ele>2621.2</ele>
        <time>2022-10-19T06:06:31.000Z</time>
      </trkpt>
      <trkpt lat="27.727008" lon="86.714125">
        <ele>2621.2</ele>
        <time>2022-10-19T06:06:33.000Z</time>
      </trkpt>
      <trkpt lat="27.727018" lon="86.714106">
        <ele>2621.8</ele>
        <time>2022-10-19T06:06:46.000Z</time>
      </trkpt>
      <trkpt lat="27.727027" lon="86.71408">
        <ele>2621.6</ele>
        <time>2022-10-19T06:06:49.000Z</time>
      </trkpt>
      <trkpt lat="27.727046" lon="86.714061">
        <ele>2621.8</ele>
        <time>2022-10-19T06:06:53.000Z</time>
      </trkpt>
      <trkpt lat="27.727056" lon="86.714042">
        <ele>2622</ele>
        <time>2022-10-19T06:06:55.000Z</time>
      </trkpt>
      <trkpt lat="27.727072" lon="86.714022">
        <ele>2622.4</ele>
        <time>2022-10-19T06:06:58.000Z</time>
      </trkpt>
      <trkpt lat="27.727088" lon="86.714003">
        <ele>2622.8</ele>
        <time>2022-10-19T06:07:00.000Z</time>
      </trkpt>
      <trkpt lat="27.727091" lon="86.713965">
        <ele>2623</ele>
        <time>2022-10-19T06:07:04.000Z</time>
      </trkpt>
      <trkpt lat="27.727098" lon="86.713946">
        <ele>2623.4</ele>
        <time>2022-10-19T06:07:07.000Z</time>
      </trkpt>
      <trkpt lat="27.727101" lon="86.71392">
        <ele>2623.8</ele>
        <time>2022-10-19T06:07:10.000Z</time>
      </trkpt>
      <trkpt lat="27.727107" lon="86.713901">
        <ele>2624.2</ele>
        <time>2022-10-19T06:07:13.000Z</time>
      </trkpt>
      <trkpt lat="27.727114" lon="86.713882">
        <ele>2625</ele>
        <time>2022-10-19T06:07:15.000Z</time>
      </trkpt>
      <trkpt lat="27.727133" lon="86.713875">
        <ele>2625.4</ele>
        <time>2022-10-19T06:07:18.000Z</time>
      </trkpt>
      <trkpt lat="27.727152" lon="86.713875">
        <ele>2625.4</ele>
        <time>2022-10-19T06:07:20.000Z</time>
      </trkpt>
      <trkpt lat="27.727174" lon="86.713888">
        <ele>2625.8</ele>
        <time>2022-10-19T06:07:23.000Z</time>
      </trkpt>
      <trkpt lat="27.727187" lon="86.713907">
        <ele>2626.4</ele>
        <time>2022-10-19T06:07:25.000Z</time>
      </trkpt>
      <trkpt lat="27.727197" lon="86.713926">
        <ele>2626.8</ele>
        <time>2022-10-19T06:07:27.000Z</time>
      </trkpt>
      <trkpt lat="27.72721" lon="86.713946">
        <ele>2627.6</ele>
        <time>2022-10-19T06:07:31.000Z</time>
      </trkpt>
      <trkpt lat="27.727216" lon="86.713965">
        <ele>2627.6</ele>
        <time>2022-10-19T06:07:34.000Z</time>
      </trkpt>
      <trkpt lat="27.727235" lon="86.713965">
        <ele>2628</ele>
        <time>2022-10-19T06:07:37.000Z</time>
      </trkpt>
      <trkpt lat="27.727254" lon="86.713958">
        <ele>2628.2</ele>
        <time>2022-10-19T06:07:39.000Z</time>
      </trkpt>
      <trkpt lat="27.727277" lon="86.713958">
        <ele>2628.2</ele>
        <time>2022-10-19T06:07:42.000Z</time>
      </trkpt>
      <trkpt lat="27.727296" lon="86.713946">
        <ele>2628.6</ele>
        <time>2022-10-19T06:07:45.000Z</time>
      </trkpt>
      <trkpt lat="27.727312" lon="86.713933">
        <ele>2629</ele>
        <time>2022-10-19T06:07:48.000Z</time>
      </trkpt>
      <trkpt lat="27.727328" lon="86.71392">
        <ele>2630.2</ele>
        <time>2022-10-19T06:07:54.000Z</time>
      </trkpt>
      <trkpt lat="27.727347" lon="86.713914">
        <ele>2631.2</ele>
        <time>2022-10-19T06:08:00.000Z</time>
      </trkpt>
      <trkpt lat="27.727363" lon="86.713901">
        <ele>2632.6</ele>
        <time>2022-10-19T06:08:08.000Z</time>
      </trkpt>
      <trkpt lat="27.727386" lon="86.713914">
        <ele>2634.4</ele>
        <time>2022-10-19T06:09:04.000Z</time>
      </trkpt>
      <trkpt lat="27.727408" lon="86.713926">
        <ele>2634.4</ele>
        <time>2022-10-19T06:09:06.000Z</time>
      </trkpt>
      <trkpt lat="27.727434" lon="86.713933">
        <ele>2634.2</ele>
        <time>2022-10-19T06:09:08.000Z</time>
      </trkpt>
      <trkpt lat="27.727462" lon="86.713926">
        <ele>2633.8</ele>
        <time>2022-10-19T06:09:10.000Z</time>
      </trkpt>
      <trkpt lat="27.727485" lon="86.713926">
        <ele>2633.8</ele>
        <time>2022-10-19T06:09:12.000Z</time>
      </trkpt>
      <trkpt lat="27.727504" lon="86.713926">
        <ele>2634.2</ele>
        <time>2022-10-19T06:09:14.000Z</time>
      </trkpt>
      <trkpt lat="27.727526" lon="86.713926">
        <ele>2633.6</ele>
        <time>2022-10-19T06:09:16.000Z</time>
      </trkpt>
      <trkpt lat="27.727552" lon="86.713933">
        <ele>2633.6</ele>
        <time>2022-10-19T06:09:19.000Z</time>
      </trkpt>
      <trkpt lat="27.727574" lon="86.713952">
        <ele>2634.2</ele>
        <time>2022-10-19T06:09:23.000Z</time>
      </trkpt>
      <trkpt lat="27.727597" lon="86.713958">
        <ele>2634</ele>
        <time>2022-10-19T06:09:27.000Z</time>
      </trkpt>
      <trkpt lat="27.727619" lon="86.713958">
        <ele>2634.6</ele>
        <time>2022-10-19T06:09:30.000Z</time>
      </trkpt>
      <trkpt lat="27.727635" lon="86.713971">
        <ele>2635.4</ele>
        <time>2022-10-19T06:09:32.000Z</time>
      </trkpt>
      <trkpt lat="27.727642" lon="86.71399">
        <ele>2635.4</ele>
        <time>2022-10-19T06:09:34.000Z</time>
      </trkpt>
      <trkpt lat="27.727661" lon="86.71401">
        <ele>2636</ele>
        <time>2022-10-19T06:09:38.000Z</time>
      </trkpt>
      <trkpt lat="27.727683" lon="86.714022">
        <ele>2636.2</ele>
        <time>2022-10-19T06:09:41.000Z</time>
      </trkpt>
      <trkpt lat="27.727706" lon="86.71401">
        <ele>2636.6</ele>
        <time>2022-10-19T06:09:43.000Z</time>
      </trkpt>
      <trkpt lat="27.727725" lon="86.714003">
        <ele>2636.6</ele>
        <time>2022-10-19T06:09:45.000Z</time>
      </trkpt>
      <trkpt lat="27.727747" lon="86.713997">
        <ele>2637</ele>
        <time>2022-10-19T06:09:48.000Z</time>
      </trkpt>
      <trkpt lat="27.727763" lon="86.713984">
        <ele>2637.4</ele>
        <time>2022-10-19T06:09:51.000Z</time>
      </trkpt>
      <trkpt lat="27.727786" lon="86.713984">
        <ele>2637.6</ele>
        <time>2022-10-19T06:09:53.000Z</time>
      </trkpt>
      <trkpt lat="27.727805" lon="86.713971">
        <ele>2636.8</ele>
        <time>2022-10-19T06:09:55.000Z</time>
      </trkpt>
      <trkpt lat="27.727827" lon="86.713958">
        <ele>2636.4</ele>
        <time>2022-10-19T06:09:57.000Z</time>
      </trkpt>
      <trkpt lat="27.727843" lon="86.713946">
        <ele>2636.2</ele>
        <time>2022-10-19T06:09:59.000Z</time>
      </trkpt>
      <trkpt lat="27.727875" lon="86.713933">
        <ele>2636.2</ele>
        <time>2022-10-19T06:10:01.000Z</time>
      </trkpt>
      <trkpt lat="27.727901" lon="86.713926">
        <ele>2635.4</ele>
        <time>2022-10-19T06:10:03.000Z</time>
      </trkpt>
      <trkpt lat="27.727923" lon="86.713914">
        <ele>2635.2</ele>
        <time>2022-10-19T06:10:05.000Z</time>
      </trkpt>
      <trkpt lat="27.727942" lon="86.713907">
        <ele>2635.2</ele>
        <time>2022-10-19T06:10:08.000Z</time>
      </trkpt>
      <trkpt lat="27.727965" lon="86.713888">
        <ele>2634.6</ele>
        <time>2022-10-19T06:10:11.000Z</time>
      </trkpt>
      <trkpt lat="27.727978" lon="86.713869">
        <ele>2634.8</ele>
        <time>2022-10-19T06:10:14.000Z</time>
      </trkpt>
      <trkpt lat="27.727994" lon="86.71385">
        <ele>2635</ele>
        <time>2022-10-19T06:10:16.000Z</time>
      </trkpt>
      <trkpt lat="27.72801" lon="86.71383">
        <ele>2634.8</ele>
        <time>2022-10-19T06:10:19.000Z</time>
      </trkpt>
      <trkpt lat="27.728013" lon="86.713805">
        <ele>2634.8</ele>
        <time>2022-10-19T06:10:22.000Z</time>
      </trkpt>
      <trkpt lat="27.728019" lon="86.713773">
        <ele>2634.2</ele>
        <time>2022-10-19T06:10:26.000Z</time>
      </trkpt>
      <trkpt lat="27.728042" lon="86.713754">
        <ele>2634</ele>
        <time>2022-10-19T06:10:29.000Z</time>
      </trkpt>
      <trkpt lat="27.728067" lon="86.713747">
        <ele>2633.4</ele>
        <time>2022-10-19T06:10:32.000Z</time>
      </trkpt>
      <trkpt lat="27.72809" lon="86.713728">
        <ele>2633.2</ele>
        <time>2022-10-19T06:10:34.000Z</time>
      </trkpt>
      <trkpt lat="27.728112" lon="86.713728">
        <ele>2633.4</ele>
        <time>2022-10-19T06:10:37.000Z</time>
      </trkpt>
      <trkpt lat="27.728134" lon="86.713734">
        <ele>2633.2</ele>
        <time>2022-10-19T06:10:39.000Z</time>
      </trkpt>
      <trkpt lat="27.728147" lon="86.713754">
        <ele>2633.8</ele>
        <time>2022-10-19T06:10:42.000Z</time>
      </trkpt>
      <trkpt lat="27.72816" lon="86.713773">
        <ele>2633.6</ele>
        <time>2022-10-19T06:10:46.000Z</time>
      </trkpt>
      <trkpt lat="27.728173" lon="86.713792">
        <ele>2633.2</ele>
        <time>2022-10-19T06:10:50.000Z</time>
      </trkpt>
      <trkpt lat="27.728192" lon="86.713798">
        <ele>2632.4</ele>
        <time>2022-10-19T06:10:53.000Z</time>
      </trkpt>
      <trkpt lat="27.728208" lon="86.713786">
        <ele>2632.2</ele>
        <time>2022-10-19T06:10:56.000Z</time>
      </trkpt>
      <trkpt lat="27.728227" lon="86.713773">
        <ele>2631.8</ele>
        <time>2022-10-19T06:11:00.000Z</time>
      </trkpt>
      <trkpt lat="27.728237" lon="86.713754">
        <ele>2631</ele>
        <time>2022-10-19T06:11:03.000Z</time>
      </trkpt>
      <trkpt lat="27.728243" lon="86.713728">
        <ele>2630.6</ele>
        <time>2022-10-19T06:11:05.000Z</time>
      </trkpt>
      <trkpt lat="27.728266" lon="86.713715">
        <ele>2630.2</ele>
        <time>2022-10-19T06:11:08.000Z</time>
      </trkpt>
      <trkpt lat="27.728288" lon="86.713709">
        <ele>2629.6</ele>
        <time>2022-10-19T06:11:10.000Z</time>
      </trkpt>
      <trkpt lat="27.728307" lon="86.713715">
        <ele>2629.6</ele>
        <time>2022-10-19T06:11:12.000Z</time>
      </trkpt>
      <trkpt lat="27.728326" lon="86.713715">
        <ele>2629</ele>
        <time>2022-10-19T06:11:14.000Z</time>
      </trkpt>
      <trkpt lat="27.728349" lon="86.713715">
        <ele>2628.8</ele>
        <time>2022-10-19T06:11:16.000Z</time>
      </trkpt>
      <trkpt lat="27.728371" lon="86.713728">
        <ele>2628.6</ele>
        <time>2022-10-19T06:11:18.000Z</time>
      </trkpt>
      <trkpt lat="27.728397" lon="86.713734">
        <ele>2628.2</ele>
        <time>2022-10-19T06:11:21.000Z</time>
      </trkpt>
      <trkpt lat="27.728413" lon="86.713747">
        <ele>2628.2</ele>
        <time>2022-10-19T06:11:24.000Z</time>
      </trkpt>
      <trkpt lat="27.728435" lon="86.713747">
        <ele>2627.6</ele>
        <time>2022-10-19T06:11:28.000Z</time>
      </trkpt>
      <trkpt lat="27.728451" lon="86.713734">
        <ele>2626.2</ele>
        <time>2022-10-19T06:11:38.000Z</time>
      </trkpt>
      <trkpt lat="27.728467" lon="86.713715">
        <ele>2624.4</ele>
        <time>2022-10-19T06:12:10.000Z</time>
      </trkpt>
      <trkpt lat="27.728486" lon="86.71369">
        <ele>2624</ele>
        <time>2022-10-19T06:12:12.000Z</time>
      </trkpt>
      <trkpt lat="27.728506" lon="86.71367">
        <ele>2623.4</ele>
        <time>2022-10-19T06:12:14.000Z</time>
      </trkpt>
      <trkpt lat="27.728525" lon="86.713645">
        <ele>2623.4</ele>
        <time>2022-10-19T06:12:16.000Z</time>
      </trkpt>
      <trkpt lat="27.728541" lon="86.713626">
        <ele>2623.4</ele>
        <time>2022-10-19T06:12:18.000Z</time>
      </trkpt>
      <trkpt lat="27.728566" lon="86.713632">
        <ele>2622.8</ele>
        <time>2022-10-19T06:12:23.000Z</time>
      </trkpt>
      <trkpt lat="27.728586" lon="86.713638">
        <ele>2621.6</ele>
        <time>2022-10-19T06:12:27.000Z</time>
      </trkpt>
      <trkpt lat="27.728605" lon="86.713638">
        <ele>2621.2</ele>
        <time>2022-10-19T06:12:29.000Z</time>
      </trkpt>
      <trkpt lat="27.728627" lon="86.713645">
        <ele>2620.4</ele>
        <time>2022-10-19T06:12:32.000Z</time>
      </trkpt>
      <trkpt lat="27.72865" lon="86.713651">
        <ele>2620.2</ele>
        <time>2022-10-19T06:12:35.000Z</time>
      </trkpt>
      <trkpt lat="27.728669" lon="86.713651">
        <ele>2619.6</ele>
        <time>2022-10-19T06:12:38.000Z</time>
      </trkpt>
      <trkpt lat="27.728688" lon="86.713664">
        <ele>2619</ele>
        <time>2022-10-19T06:12:42.000Z</time>
      </trkpt>
      <trkpt lat="27.728704" lon="86.713645">
        <ele>2619</ele>
        <time>2022-10-19T06:12:44.000Z</time>
      </trkpt>
      <trkpt lat="27.728723" lon="86.713626">
        <ele>2618</ele>
        <time>2022-10-19T06:12:47.000Z</time>
      </trkpt>
      <trkpt lat="27.728742" lon="86.713626">
        <ele>2617.6</ele>
        <time>2022-10-19T06:12:49.000Z</time>
      </trkpt>
      <trkpt lat="27.728765" lon="86.713626">
        <ele>2617.4</ele>
        <time>2022-10-19T06:12:51.000Z</time>
      </trkpt>
      <trkpt lat="27.728794" lon="86.713632">
        <ele>2616.6</ele>
        <time>2022-10-19T06:12:54.000Z</time>
      </trkpt>
      <trkpt lat="27.728813" lon="86.713645">
        <ele>2616.6</ele>
        <time>2022-10-19T06:12:57.000Z</time>
      </trkpt>
      <trkpt lat="27.728832" lon="86.713638">
        <ele>2616.4</ele>
        <time>2022-10-19T06:13:00.000Z</time>
      </trkpt>
      <trkpt lat="27.728848" lon="86.713626">
        <ele>2616.2</ele>
        <time>2022-10-19T06:13:05.000Z</time>
      </trkpt>
      <trkpt lat="27.728851" lon="86.713594">
        <ele>2615.2</ele>
        <time>2022-10-19T06:13:10.000Z</time>
      </trkpt>
      <trkpt lat="27.728861" lon="86.713568">
        <ele>2614.8</ele>
        <time>2022-10-19T06:13:12.000Z</time>
      </trkpt>
      <trkpt lat="27.728861" lon="86.713536">
        <ele>2613.8</ele>
        <time>2022-10-19T06:13:18.000Z</time>
      </trkpt>
      <trkpt lat="27.728867" lon="86.713517">
        <ele>2613</ele>
        <time>2022-10-19T06:13:21.000Z</time>
      </trkpt>
      <trkpt lat="27.728874" lon="86.713491">
        <ele>2612.4</ele>
        <time>2022-10-19T06:13:25.000Z</time>
      </trkpt>
      <trkpt lat="27.728896" lon="86.713478">
        <ele>2612</ele>
        <time>2022-10-19T06:13:29.000Z</time>
      </trkpt>
      <trkpt lat="27.728918" lon="86.713472">
        <ele>2609.8</ele>
        <time>2022-10-19T06:13:34.000Z</time>
      </trkpt>
      <trkpt lat="27.728954" lon="86.713472">
        <ele>2609.2</ele>
        <time>2022-10-19T06:13:37.000Z</time>
      </trkpt>
      <trkpt lat="27.728976" lon="86.713472">
        <ele>2608.8</ele>
        <time>2022-10-19T06:13:39.000Z</time>
      </trkpt>
      <trkpt lat="27.728995" lon="86.713472">
        <ele>2608.6</ele>
        <time>2022-10-19T06:13:41.000Z</time>
      </trkpt>
      <trkpt lat="27.729018" lon="86.713472">
        <ele>2608.4</ele>
        <time>2022-10-19T06:13:43.000Z</time>
      </trkpt>
      <trkpt lat="27.729043" lon="86.713472">
        <ele>2608.4</ele>
        <time>2022-10-19T06:13:45.000Z</time>
      </trkpt>
      <trkpt lat="27.729072" lon="86.713478">
        <ele>2608.2</ele>
        <time>2022-10-19T06:13:48.000Z</time>
      </trkpt>
      <trkpt lat="27.729094" lon="86.713472">
        <ele>2607.8</ele>
        <time>2022-10-19T06:13:51.000Z</time>
      </trkpt>
      <trkpt lat="27.729117" lon="86.713466">
        <ele>2607.8</ele>
        <time>2022-10-19T06:13:54.000Z</time>
      </trkpt>
      <trkpt lat="27.729136" lon="86.713472">
        <ele>2607.2</ele>
        <time>2022-10-19T06:13:56.000Z</time>
      </trkpt>
      <trkpt lat="27.729155" lon="86.713472">
        <ele>2607</ele>
        <time>2022-10-19T06:13:59.000Z</time>
      </trkpt>
      <trkpt lat="27.729174" lon="86.713472">
        <ele>2607</ele>
        <time>2022-10-19T06:14:03.000Z</time>
      </trkpt>
      <trkpt lat="27.729197" lon="86.713466">
        <ele>2606.8</ele>
        <time>2022-10-19T06:14:06.000Z</time>
      </trkpt>
      <trkpt lat="27.729216" lon="86.713453">
        <ele>2606.4</ele>
        <time>2022-10-19T06:14:08.000Z</time>
      </trkpt>
      <trkpt lat="27.729242" lon="86.713453">
        <ele>2606.4</ele>
        <time>2022-10-19T06:14:11.000Z</time>
      </trkpt>
      <trkpt lat="27.729261" lon="86.713453">
        <ele>2606.4</ele>
        <time>2022-10-19T06:14:14.000Z</time>
      </trkpt>
      <trkpt lat="27.729277" lon="86.71344">
        <ele>2605.8</ele>
        <time>2022-10-19T06:14:18.000Z</time>
      </trkpt>
      <trkpt lat="27.729299" lon="86.713434">
        <ele>2605.6</ele>
        <time>2022-10-19T06:14:22.000Z</time>
      </trkpt>
      <trkpt lat="27.729322" lon="86.713434">
        <ele>2605.2</ele>
        <time>2022-10-19T06:14:27.000Z</time>
      </trkpt>
      <trkpt lat="27.729341" lon="86.713434">
        <ele>2605.2</ele>
        <time>2022-10-19T06:14:30.000Z</time>
      </trkpt>
      <trkpt lat="27.72936" lon="86.71344">
        <ele>2604.4</ele>
        <time>2022-10-19T06:14:32.000Z</time>
      </trkpt>
      <trkpt lat="27.729379" lon="86.713446">
        <ele>2603.8</ele>
        <time>2022-10-19T06:14:34.000Z</time>
      </trkpt>
      <trkpt lat="27.729402" lon="86.713453">
        <ele>2603.4</ele>
        <time>2022-10-19T06:14:37.000Z</time>
      </trkpt>
      <trkpt lat="27.729414" lon="86.713472">
        <ele>2603.4</ele>
        <time>2022-10-19T06:14:39.000Z</time>
      </trkpt>
      <trkpt lat="27.729434" lon="86.713472">
        <ele>2603</ele>
        <time>2022-10-19T06:14:42.000Z</time>
      </trkpt>
      <trkpt lat="27.72945" lon="86.713504">
        <ele>2602.4</ele>
        <time>2022-10-19T06:14:47.000Z</time>
      </trkpt>
      <trkpt lat="27.729469" lon="86.71351">
        <ele>2602.4</ele>
        <time>2022-10-19T06:14:49.000Z</time>
      </trkpt>
      <trkpt lat="27.729488" lon="86.713523">
        <ele>2602.4</ele>
        <time>2022-10-19T06:14:51.000Z</time>
      </trkpt>
      <trkpt lat="27.729507" lon="86.71353">
        <ele>2602.4</ele>
        <time>2022-10-19T06:14:53.000Z</time>
      </trkpt>
      <trkpt lat="27.729514" lon="86.713549">
        <ele>2602.2</ele>
        <time>2022-10-19T06:14:54.000Z</time>
      </trkpt>
      <trkpt lat="27.729526" lon="86.713568">
        <ele>2602</ele>
        <time>2022-10-19T06:14:56.000Z</time>
      </trkpt>
      <trkpt lat="27.729539" lon="86.713587">
        <ele>2602.2</ele>
        <time>2022-10-19T06:14:58.000Z</time>
      </trkpt>
      <trkpt lat="27.729574" lon="86.713626">
        <ele>2601.8</ele>
        <time>2022-10-19T06:15:03.000Z</time>
      </trkpt>
      <trkpt lat="27.72959" lon="86.713638">
        <ele>2602.2</ele>
        <time>2022-10-19T06:15:05.000Z</time>
      </trkpt>
      <trkpt lat="27.72961" lon="86.713651">
        <ele>2601.8</ele>
        <time>2022-10-19T06:15:07.000Z</time>
      </trkpt>
      <trkpt lat="27.729632" lon="86.713664">
        <ele>2602</ele>
        <time>2022-10-19T06:15:09.000Z</time>
      </trkpt>
      <trkpt lat="27.729651" lon="86.71367">
        <ele>2602</ele>
        <time>2022-10-19T06:15:11.000Z</time>
      </trkpt>
      <trkpt lat="27.72967" lon="86.713677">
        <ele>2601.8</ele>
        <time>2022-10-19T06:15:13.000Z</time>
      </trkpt>
      <trkpt lat="27.729693" lon="86.71369">
        <ele>2601.6</ele>
        <time>2022-10-19T06:15:15.000Z</time>
      </trkpt>
      <trkpt lat="27.729712" lon="86.713702">
        <ele>2601.6</ele>
        <time>2022-10-19T06:15:17.000Z</time>
      </trkpt>
      <trkpt lat="27.729738" lon="86.713709">
        <ele>2601.6</ele>
        <time>2022-10-19T06:15:19.000Z</time>
      </trkpt>
      <trkpt lat="27.729776" lon="86.713728">
        <ele>2601.4</ele>
        <time>2022-10-19T06:15:24.000Z</time>
      </trkpt>
      <trkpt lat="27.729802" lon="86.713747">
        <ele>2601.6</ele>
        <time>2022-10-19T06:15:27.000Z</time>
      </trkpt>
      <trkpt lat="27.729821" lon="86.713747">
        <ele>2601.4</ele>
        <time>2022-10-19T06:15:29.000Z</time>
      </trkpt>
      <trkpt lat="27.72984" lon="86.713754">
        <ele>2601.6</ele>
        <time>2022-10-19T06:15:31.000Z</time>
      </trkpt>
      <trkpt lat="27.729859" lon="86.71376">
        <ele>2601.4</ele>
        <time>2022-10-19T06:15:33.000Z</time>
      </trkpt>
      <trkpt lat="27.729878" lon="86.713754">
        <ele>2601.6</ele>
        <time>2022-10-19T06:15:35.000Z</time>
      </trkpt>
      <trkpt lat="27.729898" lon="86.71376">
        <ele>2601.8</ele>
        <time>2022-10-19T06:15:37.000Z</time>
      </trkpt>
      <trkpt lat="27.729917" lon="86.71376">
        <ele>2602</ele>
        <time>2022-10-19T06:15:39.000Z</time>
      </trkpt>
      <trkpt lat="27.729936" lon="86.713754">
        <ele>2602</ele>
        <time>2022-10-19T06:15:41.000Z</time>
      </trkpt>
      <trkpt lat="27.729958" lon="86.713754">
        <ele>2602.4</ele>
        <time>2022-10-19T06:15:44.000Z</time>
      </trkpt>
      <trkpt lat="27.729981" lon="86.713734">
        <ele>2602.4</ele>
        <time>2022-10-19T06:15:47.000Z</time>
      </trkpt>
      <trkpt lat="27.730003" lon="86.713734">
        <ele>2603.2</ele>
        <time>2022-10-19T06:15:50.000Z</time>
      </trkpt>
      <trkpt lat="27.730026" lon="86.713734">
        <ele>2602.6</ele>
        <time>2022-10-19T06:15:52.000Z</time>
      </trkpt>
      <trkpt lat="27.730051" lon="86.713734">
        <ele>2603.4</ele>
        <time>2022-10-19T06:15:55.000Z</time>
      </trkpt>
      <trkpt lat="27.730077" lon="86.713728">
        <ele>2603.4</ele>
        <time>2022-10-19T06:15:58.000Z</time>
      </trkpt>
      <trkpt lat="27.730102" lon="86.713728">
        <ele>2603.2</ele>
        <time>2022-10-19T06:16:01.000Z</time>
      </trkpt>
      <trkpt lat="27.730122" lon="86.713715">
        <ele>2603.6</ele>
        <time>2022-10-19T06:16:03.000Z</time>
      </trkpt>
      <trkpt lat="27.730141" lon="86.713715">
        <ele>2603.6</ele>
        <time>2022-10-19T06:16:05.000Z</time>
      </trkpt>
      <trkpt lat="27.730166" lon="86.713722">
        <ele>2604</ele>
        <time>2022-10-19T06:16:08.000Z</time>
      </trkpt>
      <trkpt lat="27.730189" lon="86.713728">
        <ele>2604.2</ele>
        <time>2022-10-19T06:16:11.000Z</time>
      </trkpt>
      <trkpt lat="27.730208" lon="86.713728">
        <ele>2604.4</ele>
        <time>2022-10-19T06:16:13.000Z</time>
      </trkpt>
      <trkpt lat="27.730227" lon="86.713728">
        <ele>2604.4</ele>
        <time>2022-10-19T06:16:15.000Z</time>
      </trkpt>
      <trkpt lat="27.730246" lon="86.713728">
        <ele>2605</ele>
        <time>2022-10-19T06:16:18.000Z</time>
      </trkpt>
      <trkpt lat="27.730266" lon="86.713734">
        <ele>2604.8</ele>
        <time>2022-10-19T06:16:20.000Z</time>
      </trkpt>
      <trkpt lat="27.730285" lon="86.713734">
        <ele>2605.2</ele>
        <time>2022-10-19T06:16:23.000Z</time>
      </trkpt>
      <trkpt lat="27.730301" lon="86.713747">
        <ele>2605.6</ele>
        <time>2022-10-19T06:16:26.000Z</time>
      </trkpt>
      <trkpt lat="27.730323" lon="86.713754">
        <ele>2605.6</ele>
        <time>2022-10-19T06:16:29.000Z</time>
      </trkpt>
      <trkpt lat="27.730346" lon="86.713747">
        <ele>2605.6</ele>
        <time>2022-10-19T06:16:32.000Z</time>
      </trkpt>
      <trkpt lat="27.730365" lon="86.713747">
        <ele>2605.6</ele>
        <time>2022-10-19T06:16:34.000Z</time>
      </trkpt>
      <trkpt lat="27.730387" lon="86.71376">
        <ele>2605.8</ele>
        <time>2022-10-19T06:16:37.000Z</time>
      </trkpt>
      <trkpt lat="27.730406" lon="86.713747">
        <ele>2605.8</ele>
        <time>2022-10-19T06:16:40.000Z</time>
      </trkpt>
      <trkpt lat="27.730422" lon="86.713734">
        <ele>2606.2</ele>
        <time>2022-10-19T06:16:42.000Z</time>
      </trkpt>
      <trkpt lat="27.730451" lon="86.713728">
        <ele>2606.2</ele>
        <time>2022-10-19T06:16:45.000Z</time>
      </trkpt>
      <trkpt lat="27.730477" lon="86.713722">
        <ele>2606.2</ele>
        <time>2022-10-19T06:16:48.000Z</time>
      </trkpt>
      <trkpt lat="27.730496" lon="86.713722">
        <ele>2606.4</ele>
        <time>2022-10-19T06:16:50.000Z</time>
      </trkpt>
      <trkpt lat="27.730518" lon="86.713715">
        <ele>2606.4</ele>
        <time>2022-10-19T06:16:52.000Z</time>
      </trkpt>
      <trkpt lat="27.730538" lon="86.713715">
        <ele>2606.4</ele>
        <time>2022-10-19T06:16:54.000Z</time>
      </trkpt>
      <trkpt lat="27.730563" lon="86.713715">
        <ele>2606.4</ele>
        <time>2022-10-19T06:16:56.000Z</time>
      </trkpt>
      <trkpt lat="27.730592" lon="86.713715">
        <ele>2606.4</ele>
        <time>2022-10-19T06:16:58.000Z</time>
      </trkpt>
      <trkpt lat="27.730621" lon="86.713722">
        <ele>2606.4</ele>
        <time>2022-10-19T06:17:01.000Z</time>
      </trkpt>
      <trkpt lat="27.73064" lon="86.713722">
        <ele>2606.2</ele>
        <time>2022-10-19T06:17:03.000Z</time>
      </trkpt>
      <trkpt lat="27.730662" lon="86.713722">
        <ele>2606.4</ele>
        <time>2022-10-19T06:17:05.000Z</time>
      </trkpt>
      <trkpt lat="27.730682" lon="86.713722">
        <ele>2606.4</ele>
        <time>2022-10-19T06:17:07.000Z</time>
      </trkpt>
      <trkpt lat="27.730704" lon="86.713702">
        <ele>2606.4</ele>
        <time>2022-10-19T06:17:10.000Z</time>
      </trkpt>
      <trkpt lat="27.730717" lon="86.713683">
        <ele>2606.4</ele>
        <time>2022-10-19T06:17:12.000Z</time>
      </trkpt>
      <trkpt lat="27.730733" lon="86.71367">
        <ele>2606.6</ele>
        <time>2022-10-19T06:17:14.000Z</time>
      </trkpt>
      <trkpt lat="27.730758" lon="86.713664">
        <ele>2606.8</ele>
        <time>2022-10-19T06:17:18.000Z</time>
      </trkpt>
      <trkpt lat="27.730774" lon="86.713645">
        <ele>2607</ele>
        <time>2022-10-19T06:17:21.000Z</time>
      </trkpt>
      <trkpt lat="27.730794" lon="86.713632">
        <ele>2607.6</ele>
        <time>2022-10-19T06:17:23.000Z</time>
      </trkpt>
      <trkpt lat="27.730819" lon="86.713626">
        <ele>2607</ele>
        <time>2022-10-19T06:17:26.000Z</time>
      </trkpt>
      <trkpt lat="27.730842" lon="86.713626">
        <ele>2606.8</ele>
        <time>2022-10-19T06:17:29.000Z</time>
      </trkpt>
      <trkpt lat="27.730867" lon="86.713626">
        <ele>2606.4</ele>
        <time>2022-10-19T06:17:32.000Z</time>
      </trkpt>
      <trkpt lat="27.730886" lon="86.713613">
        <ele>2606.4</ele>
        <time>2022-10-19T06:17:36.000Z</time>
      </trkpt>
      <trkpt lat="27.730902" lon="86.7136">
        <ele>2605.8</ele>
        <time>2022-10-19T06:17:39.000Z</time>
      </trkpt>
      <trkpt lat="27.730928" lon="86.713594">
        <ele>2605.2</ele>
        <time>2022-10-19T06:17:42.000Z</time>
      </trkpt>
      <trkpt lat="27.730947" lon="86.713587">
        <ele>2605</ele>
        <time>2022-10-19T06:17:44.000Z</time>
      </trkpt>
      <trkpt lat="27.73097" lon="86.713587">
        <ele>2604.6</ele>
        <time>2022-10-19T06:17:46.000Z</time>
      </trkpt>
      <trkpt lat="27.730989" lon="86.713587">
        <ele>2604.6</ele>
        <time>2022-10-19T06:17:48.000Z</time>
      </trkpt>
      <trkpt lat="27.731014" lon="86.713587">
        <ele>2604.8</ele>
        <time>2022-10-19T06:17:50.000Z</time>
      </trkpt>
      <trkpt lat="27.731034" lon="86.713587">
        <ele>2604.6</ele>
        <time>2022-10-19T06:17:52.000Z</time>
      </trkpt>
      <trkpt lat="27.731053" lon="86.713574">
        <ele>2604</ele>
        <time>2022-10-19T06:17:55.000Z</time>
      </trkpt>
      <trkpt lat="27.731078" lon="86.713568">
        <ele>2604</ele>
        <time>2022-10-19T06:17:58.000Z</time>
      </trkpt>
      <trkpt lat="27.731098" lon="86.713562">
        <ele>2603.8</ele>
        <time>2022-10-19T06:18:00.000Z</time>
      </trkpt>
      <trkpt lat="27.731114" lon="86.713536">
        <ele>2603.8</ele>
        <time>2022-10-19T06:18:02.000Z</time>
      </trkpt>
      <trkpt lat="27.731136" lon="86.713523">
        <ele>2603.6</ele>
        <time>2022-10-19T06:18:04.000Z</time>
      </trkpt>
      <trkpt lat="27.731155" lon="86.71351">
        <ele>2603.6</ele>
        <time>2022-10-19T06:18:06.000Z</time>
      </trkpt>
      <trkpt lat="27.731178" lon="86.713504">
        <ele>2603.4</ele>
        <time>2022-10-19T06:18:08.000Z</time>
      </trkpt>
      <trkpt lat="27.731206" lon="86.713504">
        <ele>2603.6</ele>
        <time>2022-10-19T06:18:10.000Z</time>
      </trkpt>
      <trkpt lat="27.731229" lon="86.713491">
        <ele>2603.4</ele>
        <time>2022-10-19T06:18:12.000Z</time>
      </trkpt>
      <trkpt lat="27.731254" lon="86.713485">
        <ele>2603.6</ele>
        <time>2022-10-19T06:18:14.000Z</time>
      </trkpt>
      <trkpt lat="27.73128" lon="86.713472">
        <ele>2603.6</ele>
        <time>2022-10-19T06:18:16.000Z</time>
      </trkpt>
      <trkpt lat="27.731302" lon="86.713485">
        <ele>2604</ele>
        <time>2022-10-19T06:18:18.000Z</time>
      </trkpt>
      <trkpt lat="27.731318" lon="86.713472">
        <ele>2604</ele>
        <time>2022-10-19T06:18:20.000Z</time>
      </trkpt>
      <trkpt lat="27.731341" lon="86.713466">
        <ele>2604</ele>
        <time>2022-10-19T06:18:22.000Z</time>
      </trkpt>
      <trkpt lat="27.731357" lon="86.713453">
        <ele>2604.2</ele>
        <time>2022-10-19T06:18:24.000Z</time>
      </trkpt>
      <trkpt lat="27.731379" lon="86.713453">
        <ele>2604.6</ele>
        <time>2022-10-19T06:18:27.000Z</time>
      </trkpt>
      <trkpt lat="27.731398" lon="86.713453">
        <ele>2605</ele>
        <time>2022-10-19T06:18:29.000Z</time>
      </trkpt>
      <trkpt lat="27.731424" lon="86.71344">
        <ele>2605.2</ele>
        <time>2022-10-19T06:18:32.000Z</time>
      </trkpt>
      <trkpt lat="27.73144" lon="86.713427">
        <ele>2605.4</ele>
        <time>2022-10-19T06:18:35.000Z</time>
      </trkpt>
      <trkpt lat="27.731462" lon="86.713414">
        <ele>2605.4</ele>
        <time>2022-10-19T06:18:37.000Z</time>
      </trkpt>
      <trkpt lat="27.731485" lon="86.713408">
        <ele>2605.6</ele>
        <time>2022-10-19T06:18:39.000Z</time>
      </trkpt>
      <trkpt lat="27.731504" lon="86.713402">
        <ele>2605.6</ele>
        <time>2022-10-19T06:18:41.000Z</time>
      </trkpt>
      <trkpt lat="27.731523" lon="86.713402">
        <ele>2605.4</ele>
        <time>2022-10-19T06:18:43.000Z</time>
      </trkpt>
      <trkpt lat="27.731549" lon="86.713402">
        <ele>2605.6</ele>
        <time>2022-10-19T06:18:46.000Z</time>
      </trkpt>
      <trkpt lat="27.731568" lon="86.713402">
        <ele>2605.8</ele>
        <time>2022-10-19T06:18:48.000Z</time>
      </trkpt>
      <trkpt lat="27.731594" lon="86.713395">
        <ele>2605.8</ele>
        <time>2022-10-19T06:18:50.000Z</time>
      </trkpt>
      <trkpt lat="27.731616" lon="86.713376">
        <ele>2605.8</ele>
        <time>2022-10-19T06:18:53.000Z</time>
      </trkpt>
      <trkpt lat="27.731635" lon="86.713363">
        <ele>2605.8</ele>
        <time>2022-10-19T06:18:56.000Z</time>
      </trkpt>
      <trkpt lat="27.731658" lon="86.713338">
        <ele>2605.8</ele>
        <time>2022-10-19T06:18:59.000Z</time>
      </trkpt>
      <trkpt lat="27.731674" lon="86.713325">
        <ele>2605.6</ele>
        <time>2022-10-19T06:19:01.000Z</time>
      </trkpt>
      <trkpt lat="27.731696" lon="86.713318">
        <ele>2605.6</ele>
        <time>2022-10-19T06:19:04.000Z</time>
      </trkpt>
      <trkpt lat="27.731718" lon="86.713318">
        <ele>2605.8</ele>
        <time>2022-10-19T06:19:07.000Z</time>
      </trkpt>
      <trkpt lat="27.731738" lon="86.713306">
        <ele>2605.8</ele>
        <time>2022-10-19T06:19:09.000Z</time>
      </trkpt>
      <trkpt lat="27.731754" lon="86.71328">
        <ele>2605.8</ele>
        <time>2022-10-19T06:19:11.000Z</time>
      </trkpt>
      <trkpt lat="27.731776" lon="86.713286">
        <ele>2605.6</ele>
        <time>2022-10-19T06:19:13.000Z</time>
      </trkpt>
      <trkpt lat="27.731805" lon="86.71328">
        <ele>2605.6</ele>
        <time>2022-10-19T06:19:16.000Z</time>
      </trkpt>
      <trkpt lat="27.731824" lon="86.713274">
        <ele>2605.8</ele>
        <time>2022-10-19T06:19:18.000Z</time>
      </trkpt>
      <trkpt lat="27.731846" lon="86.713254">
        <ele>2606.2</ele>
        <time>2022-10-19T06:19:21.000Z</time>
      </trkpt>
      <trkpt lat="27.731866" lon="86.713248">
        <ele>2606.2</ele>
        <time>2022-10-19T06:19:23.000Z</time>
      </trkpt>
      <trkpt lat="27.731885" lon="86.713248">
        <ele>2606.4</ele>
        <time>2022-10-19T06:19:25.000Z</time>
      </trkpt>
      <trkpt lat="27.73191" lon="86.713248">
        <ele>2606.6</ele>
        <time>2022-10-19T06:19:28.000Z</time>
      </trkpt>
      <trkpt lat="27.731933" lon="86.713254">
        <ele>2607.2</ele>
        <time>2022-10-19T06:19:30.000Z</time>
      </trkpt>
      <trkpt lat="27.731955" lon="86.713248">
        <ele>2607.4</ele>
        <time>2022-10-19T06:19:32.000Z</time>
      </trkpt>
      <trkpt lat="27.731978" lon="86.713242">
        <ele>2607.6</ele>
        <time>2022-10-19T06:19:35.000Z</time>
      </trkpt>
      <trkpt lat="27.732" lon="86.713229">
        <ele>2607.4</ele>
        <time>2022-10-19T06:19:38.000Z</time>
      </trkpt>
      <trkpt lat="27.732022" lon="86.713216">
        <ele>2607.2</ele>
        <time>2022-10-19T06:19:40.000Z</time>
      </trkpt>
      <trkpt lat="27.732045" lon="86.713197">
        <ele>2607</ele>
        <time>2022-10-19T06:19:43.000Z</time>
      </trkpt>
      <trkpt lat="27.732067" lon="86.71319">
        <ele>2606.8</ele>
        <time>2022-10-19T06:19:46.000Z</time>
      </trkpt>
      <trkpt lat="27.732083" lon="86.713178">
        <ele>2606.4</ele>
        <time>2022-10-19T06:19:48.000Z</time>
      </trkpt>
      <trkpt lat="27.732102" lon="86.71319">
        <ele>2606.2</ele>
        <time>2022-10-19T06:19:50.000Z</time>
      </trkpt>
      <trkpt lat="27.732122" lon="86.713203">
        <ele>2606</ele>
        <time>2022-10-19T06:19:53.000Z</time>
      </trkpt>
      <trkpt lat="27.732138" lon="86.713216">
        <ele>2605.6</ele>
        <time>2022-10-19T06:19:56.000Z</time>
      </trkpt>
      <trkpt lat="27.73216" lon="86.713229">
        <ele>2605.4</ele>
        <time>2022-10-19T06:19:58.000Z</time>
      </trkpt>
      <trkpt lat="27.732186" lon="86.713242">
        <ele>2604.8</ele>
        <time>2022-10-19T06:20:01.000Z</time>
      </trkpt>
      <trkpt lat="27.732208" lon="86.713242">
        <ele>2604.6</ele>
        <time>2022-10-19T06:20:05.000Z</time>
      </trkpt>
      <trkpt lat="27.73223" lon="86.713229">
        <ele>2604.6</ele>
        <time>2022-10-19T06:20:08.000Z</time>
      </trkpt>
      <trkpt lat="27.73225" lon="86.713229">
        <ele>2604.6</ele>
        <time>2022-10-19T06:20:11.000Z</time>
      </trkpt>
      <trkpt lat="27.732262" lon="86.71321">
        <ele>2604.8</ele>
        <time>2022-10-19T06:20:17.000Z</time>
      </trkpt>
      <trkpt lat="27.732253" lon="86.713229">
        <ele>2604.8</ele>
        <time>2022-10-19T06:21:46.000Z</time>
      </trkpt>
      <trkpt lat="27.732243" lon="86.71321">
        <ele>2605</ele>
        <time>2022-10-19T06:22:02.000Z</time>
      </trkpt>
      <trkpt lat="27.732259" lon="86.713171">
        <ele>2605.6</ele>
        <time>2022-10-19T06:22:56.000Z</time>
      </trkpt>
      <trkpt lat="27.732269" lon="86.713152">
        <ele>2605.4</ele>
        <time>2022-10-19T06:23:00.000Z</time>
      </trkpt>
      <trkpt lat="27.732278" lon="86.713133">
        <ele>2605.8</ele>
        <time>2022-10-19T06:23:04.000Z</time>
      </trkpt>
      <trkpt lat="27.732288" lon="86.713114">
        <ele>2606</ele>
        <time>2022-10-19T06:23:07.000Z</time>
      </trkpt>
      <trkpt lat="27.732294" lon="86.713094">
        <ele>2606</ele>
        <time>2022-10-19T06:23:09.000Z</time>
      </trkpt>
      <trkpt lat="27.732314" lon="86.713082">
        <ele>2606.4</ele>
        <time>2022-10-19T06:23:12.000Z</time>
      </trkpt>
      <trkpt lat="27.73233" lon="86.713056">
        <ele>2606.8</ele>
        <time>2022-10-19T06:23:15.000Z</time>
      </trkpt>
      <trkpt lat="27.732349" lon="86.713043">
        <ele>2607.2</ele>
        <time>2022-10-19T06:23:18.000Z</time>
      </trkpt>
      <trkpt lat="27.732368" lon="86.713018">
        <ele>2608.2</ele>
        <time>2022-10-19T06:23:22.000Z</time>
      </trkpt>
      <trkpt lat="27.732387" lon="86.713018">
        <ele>2608</ele>
        <time>2022-10-19T06:23:24.000Z</time>
      </trkpt>
      <trkpt lat="27.732406" lon="86.713011">
        <ele>2608.2</ele>
        <time>2022-10-19T06:23:27.000Z</time>
      </trkpt>
      <trkpt lat="27.732426" lon="86.713005">
        <ele>2608.2</ele>
        <time>2022-10-19T06:23:29.000Z</time>
      </trkpt>
      <trkpt lat="27.732445" lon="86.712998">
        <ele>2608.6</ele>
        <time>2022-10-19T06:23:32.000Z</time>
      </trkpt>
      <trkpt lat="27.732464" lon="86.712998">
        <ele>2608.8</ele>
        <time>2022-10-19T06:23:34.000Z</time>
      </trkpt>
      <trkpt lat="27.732493" lon="86.712979">
        <ele>2608.8</ele>
        <time>2022-10-19T06:23:37.000Z</time>
      </trkpt>
      <trkpt lat="27.732512" lon="86.712973">
        <ele>2608.8</ele>
        <time>2022-10-19T06:23:39.000Z</time>
      </trkpt>
      <trkpt lat="27.732538" lon="86.712973">
        <ele>2609.4</ele>
        <time>2022-10-19T06:23:41.000Z</time>
      </trkpt>
      <trkpt lat="27.73256" lon="86.712973">
        <ele>2608.8</ele>
        <time>2022-10-19T06:23:43.000Z</time>
      </trkpt>
      <trkpt lat="27.732586" lon="86.712966">
        <ele>2608.4</ele>
        <time>2022-10-19T06:23:46.000Z</time>
      </trkpt>
      <trkpt lat="27.732608" lon="86.712966">
        <ele>2608.6</ele>
        <time>2022-10-19T06:23:48.000Z</time>
      </trkpt>
      <trkpt lat="27.73263" lon="86.71296">
        <ele>2609</ele>
        <time>2022-10-19T06:23:51.000Z</time>
      </trkpt>
      <trkpt lat="27.73265" lon="86.712947">
        <ele>2608.6</ele>
        <time>2022-10-19T06:23:54.000Z</time>
      </trkpt>
      <trkpt lat="27.732669" lon="86.712934">
        <ele>2608.6</ele>
        <time>2022-10-19T06:23:56.000Z</time>
      </trkpt>
      <trkpt lat="27.732688" lon="86.712928">
        <ele>2609</ele>
        <time>2022-10-19T06:23:59.000Z</time>
      </trkpt>
      <trkpt lat="27.732714" lon="86.712922">
        <ele>2609.4</ele>
        <time>2022-10-19T06:24:02.000Z</time>
      </trkpt>
      <trkpt lat="27.732736" lon="86.712928">
        <ele>2609.8</ele>
        <time>2022-10-19T06:24:06.000Z</time>
      </trkpt>
      <trkpt lat="27.732755" lon="86.712934">
        <ele>2610.6</ele>
        <time>2022-10-19T06:24:10.000Z</time>
      </trkpt>
      <trkpt lat="27.732771" lon="86.712947">
        <ele>2610.8</ele>
        <time>2022-10-19T06:24:13.000Z</time>
      </trkpt>
      <trkpt lat="27.73279" lon="86.71296">
        <ele>2612</ele>
        <time>2022-10-19T06:24:18.000Z</time>
      </trkpt>
      <trkpt lat="27.732813" lon="86.712966">
        <ele>2612.4</ele>
        <time>2022-10-19T06:24:21.000Z</time>
      </trkpt>
      <trkpt lat="27.732832" lon="86.712973">
        <ele>2612.8</ele>
        <time>2022-10-19T06:24:24.000Z</time>
      </trkpt>
      <trkpt lat="27.732851" lon="86.712979">
        <ele>2613.2</ele>
        <time>2022-10-19T06:24:28.000Z</time>
      </trkpt>
      <trkpt lat="27.73287" lon="86.712973">
        <ele>2613.6</ele>
        <time>2022-10-19T06:24:32.000Z</time>
      </trkpt>
      <trkpt lat="27.732896" lon="86.712992">
        <ele>2614.8</ele>
        <time>2022-10-19T06:24:36.000Z</time>
      </trkpt>
      <trkpt lat="27.732915" lon="86.713005">
        <ele>2615.4</ele>
        <time>2022-10-19T06:24:39.000Z</time>
      </trkpt>
      <trkpt lat="27.732938" lon="86.713005">
        <ele>2615</ele>
        <time>2022-10-19T06:24:41.000Z</time>
      </trkpt>
      <trkpt lat="27.732957" lon="86.71303">
        <ele>2615.2</ele>
        <time>2022-10-19T06:24:49.000Z</time>
      </trkpt>
      <trkpt lat="27.732976" lon="86.713018">
        <ele>2614.8</ele>
        <time>2022-10-19T06:24:51.000Z</time>
      </trkpt>
      <trkpt lat="27.733002" lon="86.713018">
        <ele>2614</ele>
        <time>2022-10-19T06:24:54.000Z</time>
      </trkpt>
      <trkpt lat="27.733021" lon="86.713005">
        <ele>2614.2</ele>
        <time>2022-10-19T06:24:56.000Z</time>
      </trkpt>
      <trkpt lat="27.733043" lon="86.712992">
        <ele>2613.8</ele>
        <time>2022-10-19T06:24:59.000Z</time>
      </trkpt>
      <trkpt lat="27.733062" lon="86.712973">
        <ele>2613.8</ele>
        <time>2022-10-19T06:25:02.000Z</time>
      </trkpt>
      <trkpt lat="27.733085" lon="86.712966">
        <ele>2613.8</ele>
        <time>2022-10-19T06:25:06.000Z</time>
      </trkpt>
      <trkpt lat="27.733107" lon="86.712973">
        <ele>2613.8</ele>
        <time>2022-10-19T06:25:08.000Z</time>
      </trkpt>
      <trkpt lat="27.733146" lon="86.712947">
        <ele>2615.8</ele>
        <time>2022-10-19T06:25:20.000Z</time>
      </trkpt>
      <trkpt lat="27.733165" lon="86.712934">
        <ele>2616.2</ele>
        <time>2022-10-19T06:25:24.000Z</time>
      </trkpt>
      <trkpt lat="27.733181" lon="86.712915">
        <ele>2616.8</ele>
        <time>2022-10-19T06:25:27.000Z</time>
      </trkpt>
      <trkpt lat="27.733194" lon="86.712896">
        <ele>2617</ele>
        <time>2022-10-19T06:25:31.000Z</time>
      </trkpt>
      <trkpt lat="27.733206" lon="86.712877">
        <ele>2617.8</ele>
        <time>2022-10-19T06:25:35.000Z</time>
      </trkpt>
      <trkpt lat="27.733216" lon="86.712858">
        <ele>2617.8</ele>
        <time>2022-10-19T06:25:37.000Z</time>
      </trkpt>
      <trkpt lat="27.733235" lon="86.712845">
        <ele>2618</ele>
        <time>2022-10-19T06:25:40.000Z</time>
      </trkpt>
      <trkpt lat="27.733254" lon="86.712845">
        <ele>2619</ele>
        <time>2022-10-19T06:25:42.000Z</time>
      </trkpt>
      <trkpt lat="27.733267" lon="86.712819">
        <ele>2619.8</ele>
        <time>2022-10-19T06:25:47.000Z</time>
      </trkpt>
      <trkpt lat="27.73328" lon="86.7128">
        <ele>2620.2</ele>
        <time>2022-10-19T06:25:52.000Z</time>
      </trkpt>
      <trkpt lat="27.733283" lon="86.712774">
        <ele>2620.6</ele>
        <time>2022-10-19T06:25:55.000Z</time>
      </trkpt>
      <trkpt lat="27.733296" lon="86.712749">
        <ele>2621</ele>
        <time>2022-10-19T06:25:59.000Z</time>
      </trkpt>
      <trkpt lat="27.733309" lon="86.71273">
        <ele>2621</ele>
        <time>2022-10-19T06:26:01.000Z</time>
      </trkpt>
      <trkpt lat="27.733328" lon="86.712723">
        <ele>2621</ele>
        <time>2022-10-19T06:26:05.000Z</time>
      </trkpt>
      <trkpt lat="27.733344" lon="86.71271">
        <ele>2621.2</ele>
        <time>2022-10-19T06:26:07.000Z</time>
      </trkpt>
      <trkpt lat="27.733357" lon="86.712685">
        <ele>2621.2</ele>
        <time>2022-10-19T06:26:09.000Z</time>
      </trkpt>
      <trkpt lat="27.733376" lon="86.712678">
        <ele>2621.6</ele>
        <time>2022-10-19T06:26:11.000Z</time>
      </trkpt>
      <trkpt lat="27.733405" lon="86.712659">
        <ele>2622.4</ele>
        <time>2022-10-19T06:26:16.000Z</time>
      </trkpt>
      <trkpt lat="27.73343" lon="86.712672">
        <ele>2623</ele>
        <time>2022-10-19T06:26:18.000Z</time>
      </trkpt>
      <trkpt lat="27.73345" lon="86.712653">
        <ele>2623.4</ele>
        <time>2022-10-19T06:26:21.000Z</time>
      </trkpt>
      <trkpt lat="27.733462" lon="86.712621">
        <ele>2623.4</ele>
        <time>2022-10-19T06:26:23.000Z</time>
      </trkpt>
      <trkpt lat="27.733482" lon="86.712634">
        <ele>2624.2</ele>
        <time>2022-10-19T06:26:28.000Z</time>
      </trkpt>
      <trkpt lat="27.733491" lon="86.712608">
        <ele>2624.4</ele>
        <time>2022-10-19T06:26:30.000Z</time>
      </trkpt>
      <trkpt lat="27.733504" lon="86.712582">
        <ele>2624.6</ele>
        <time>2022-10-19T06:26:33.000Z</time>
      </trkpt>
      <trkpt lat="27.73353" lon="86.71257">
        <ele>2625.6</ele>
        <time>2022-10-19T06:26:37.000Z</time>
      </trkpt>
      <trkpt lat="27.733549" lon="86.712557">
        <ele>2626</ele>
        <time>2022-10-19T06:26:40.000Z</time>
      </trkpt>
      <trkpt lat="27.733574" lon="86.71255">
        <ele>2626.2</ele>
        <time>2022-10-19T06:26:43.000Z</time>
      </trkpt>
      <trkpt lat="27.7336" lon="86.712538">
        <ele>2626.4</ele>
        <time>2022-10-19T06:26:46.000Z</time>
      </trkpt>
      <trkpt lat="27.733626" lon="86.712525">
        <ele>2626.4</ele>
        <time>2022-10-19T06:26:48.000Z</time>
      </trkpt>
      <trkpt lat="27.733642" lon="86.712538">
        <ele>2627</ele>
        <time>2022-10-19T06:26:50.000Z</time>
      </trkpt>
      <trkpt lat="27.733664" lon="86.71255">
        <ele>2627.2</ele>
        <time>2022-10-19T06:26:52.000Z</time>
      </trkpt>
      <trkpt lat="27.733686" lon="86.71255">
        <ele>2627.2</ele>
        <time>2022-10-19T06:26:54.000Z</time>
      </trkpt>
      <trkpt lat="27.733709" lon="86.71255">
        <ele>2627.2</ele>
        <time>2022-10-19T06:26:56.000Z</time>
      </trkpt>
      <trkpt lat="27.733731" lon="86.71255">
        <ele>2627.2</ele>
        <time>2022-10-19T06:26:58.000Z</time>
      </trkpt>
      <trkpt lat="27.73375" lon="86.71255">
        <ele>2626.8</ele>
        <time>2022-10-19T06:27:00.000Z</time>
      </trkpt>
      <trkpt lat="27.73377" lon="86.712531">
        <ele>2626.4</ele>
        <time>2022-10-19T06:27:02.000Z</time>
      </trkpt>
      <trkpt lat="27.733789" lon="86.712525">
        <ele>2626.4</ele>
        <time>2022-10-19T06:27:04.000Z</time>
      </trkpt>
      <trkpt lat="27.733808" lon="86.712525">
        <ele>2626.4</ele>
        <time>2022-10-19T06:27:06.000Z</time>
      </trkpt>
      <trkpt lat="27.733827" lon="86.712525">
        <ele>2625.8</ele>
        <time>2022-10-19T06:27:08.000Z</time>
      </trkpt>
      <trkpt lat="27.73385" lon="86.712518">
        <ele>2625.8</ele>
        <time>2022-10-19T06:27:11.000Z</time>
      </trkpt>
      <trkpt lat="27.733872" lon="86.712518">
        <ele>2626</ele>
        <time>2022-10-19T06:27:13.000Z</time>
      </trkpt>
      <trkpt lat="27.733891" lon="86.712512">
        <ele>2625.8</ele>
        <time>2022-10-19T06:27:15.000Z</time>
      </trkpt>
      <trkpt lat="27.73391" lon="86.712499">
        <ele>2625.6</ele>
        <time>2022-10-19T06:27:19.000Z</time>
      </trkpt>
      <trkpt lat="27.73393" lon="86.712499">
        <ele>2625.2</ele>
        <time>2022-10-19T06:27:21.000Z</time>
      </trkpt>
      <trkpt lat="27.733952" lon="86.712499">
        <ele>2624.8</ele>
        <time>2022-10-19T06:27:24.000Z</time>
      </trkpt>
      <trkpt lat="27.733971" lon="86.712499">
        <ele>2624.4</ele>
        <time>2022-10-19T06:27:26.000Z</time>
      </trkpt>
      <trkpt lat="27.73399" lon="86.712493">
        <ele>2624.2</ele>
        <time>2022-10-19T06:27:28.000Z</time>
      </trkpt>
      <trkpt lat="27.73401" lon="86.712486">
        <ele>2624</ele>
        <time>2022-10-19T06:27:30.000Z</time>
      </trkpt>
      <trkpt lat="27.734026" lon="86.712474">
        <ele>2623.8</ele>
        <time>2022-10-19T06:27:32.000Z</time>
      </trkpt>
      <trkpt lat="27.734042" lon="86.712454">
        <ele>2623.6</ele>
        <time>2022-10-19T06:27:34.000Z</time>
      </trkpt>
      <trkpt lat="27.734061" lon="86.712454">
        <ele>2623.4</ele>
        <time>2022-10-19T06:27:36.000Z</time>
      </trkpt>
      <trkpt lat="27.734083" lon="86.712454">
        <ele>2623.8</ele>
        <time>2022-10-19T06:27:38.000Z</time>
      </trkpt>
      <trkpt lat="27.734096" lon="86.712435">
        <ele>2623.6</ele>
        <time>2022-10-19T06:27:40.000Z</time>
      </trkpt>
      <trkpt lat="27.734115" lon="86.712422">
        <ele>2623.4</ele>
        <time>2022-10-19T06:27:42.000Z</time>
      </trkpt>
      <trkpt lat="27.734122" lon="86.712403">
        <ele>2623</ele>
        <time>2022-10-19T06:27:45.000Z</time>
      </trkpt>
      <trkpt lat="27.734147" lon="86.712397">
        <ele>2622.8</ele>
        <time>2022-10-19T06:27:48.000Z</time>
      </trkpt>
      <trkpt lat="27.73417" lon="86.712378">
        <ele>2622.4</ele>
        <time>2022-10-19T06:27:50.000Z</time>
      </trkpt>
      <trkpt lat="27.734189" lon="86.712371">
        <ele>2622.4</ele>
        <time>2022-10-19T06:27:52.000Z</time>
      </trkpt>
      <trkpt lat="27.734211" lon="86.712365">
        <ele>2622.4</ele>
        <time>2022-10-19T06:27:54.000Z</time>
      </trkpt>
      <trkpt lat="27.734234" lon="86.712358">
        <ele>2622.4</ele>
        <time>2022-10-19T06:27:56.000Z</time>
      </trkpt>
      <trkpt lat="27.73425" lon="86.712339">
        <ele>2621.8</ele>
        <time>2022-10-19T06:27:57.000Z</time>
      </trkpt>
      <trkpt lat="27.734269" lon="86.712333">
        <ele>2621.6</ele>
        <time>2022-10-19T06:27:59.000Z</time>
      </trkpt>
      <trkpt lat="27.734288" lon="86.712339">
        <ele>2621.6</ele>
        <time>2022-10-19T06:28:01.000Z</time>
      </trkpt>
      <trkpt lat="27.734314" lon="86.712333">
        <ele>2621.6</ele>
        <time>2022-10-19T06:28:03.000Z</time>
      </trkpt>
      <trkpt lat="27.734326" lon="86.712301">
        <ele>2622</ele>
        <time>2022-10-19T06:28:07.000Z</time>
      </trkpt>
      <trkpt lat="27.73433" lon="86.712275">
        <ele>2622.4</ele>
        <time>2022-10-19T06:28:10.000Z</time>
      </trkpt>
      <trkpt lat="27.734342" lon="86.712256">
        <ele>2621.8</ele>
        <time>2022-10-19T06:28:12.000Z</time>
      </trkpt>
      <trkpt lat="27.734368" lon="86.71225">
        <ele>2621.4</ele>
        <time>2022-10-19T06:28:14.000Z</time>
      </trkpt>
      <trkpt lat="27.734394" lon="86.71225">
        <ele>2621.2</ele>
        <time>2022-10-19T06:28:17.000Z</time>
      </trkpt>
      <trkpt lat="27.73441" lon="86.712237">
        <ele>2621</ele>
        <time>2022-10-19T06:28:21.000Z</time>
      </trkpt>
      <trkpt lat="27.734435" lon="86.712218">
        <ele>2620.8</ele>
        <time>2022-10-19T06:28:23.000Z</time>
      </trkpt>
      <trkpt lat="27.734458" lon="86.712211">
        <ele>2621</ele>
        <time>2022-10-19T06:28:25.000Z</time>
      </trkpt>
      <trkpt lat="27.734483" lon="86.712211">
        <ele>2620.4</ele>
        <time>2022-10-19T06:28:30.000Z</time>
      </trkpt>
      <trkpt lat="27.734506" lon="86.712198">
        <ele>2620</ele>
        <time>2022-10-19T06:28:34.000Z</time>
      </trkpt>
      <trkpt lat="27.734525" lon="86.712198">
        <ele>2619.6</ele>
        <time>2022-10-19T06:28:36.000Z</time>
      </trkpt>
      <trkpt lat="27.734544" lon="86.712205">
        <ele>2619.4</ele>
        <time>2022-10-19T06:28:41.000Z</time>
      </trkpt>
      <trkpt lat="27.734557" lon="86.712186">
        <ele>2619.6</ele>
        <time>2022-10-19T06:28:43.000Z</time>
      </trkpt>
      <trkpt lat="27.734563" lon="86.71216">
        <ele>2619</ele>
        <time>2022-10-19T06:28:46.000Z</time>
      </trkpt>
      <trkpt lat="27.734579" lon="86.712141">
        <ele>2618</ele>
        <time>2022-10-19T06:28:49.000Z</time>
      </trkpt>
      <trkpt lat="27.734595" lon="86.712128">
        <ele>2617.6</ele>
        <time>2022-10-19T06:28:52.000Z</time>
      </trkpt>
      <trkpt lat="27.734611" lon="86.712102">
        <ele>2617.2</ele>
        <time>2022-10-19T06:28:54.000Z</time>
      </trkpt>
      <trkpt lat="27.734624" lon="86.712083">
        <ele>2617.2</ele>
        <time>2022-10-19T06:28:57.000Z</time>
      </trkpt>
      <trkpt lat="27.734634" lon="86.712064">
        <ele>2617.4</ele>
        <time>2022-10-19T06:28:59.000Z</time>
      </trkpt>
      <trkpt lat="27.73465" lon="86.712051">
        <ele>2617</ele>
        <time>2022-10-19T06:29:01.000Z</time>
      </trkpt>
      <trkpt lat="27.734675" lon="86.712045">
        <ele>2616.8</ele>
        <time>2022-10-19T06:29:03.000Z</time>
      </trkpt>
      <trkpt lat="27.734694" lon="86.712045">
        <ele>2616.6</ele>
        <time>2022-10-19T06:29:06.000Z</time>
      </trkpt>
      <trkpt lat="27.734714" lon="86.712038">
        <ele>2615.8</ele>
        <time>2022-10-19T06:29:10.000Z</time>
      </trkpt>
      <trkpt lat="27.73473" lon="86.712026">
        <ele>2615.4</ele>
        <time>2022-10-19T06:29:12.000Z</time>
      </trkpt>
      <trkpt lat="27.734752" lon="86.712013">
        <ele>2614.6</ele>
        <time>2022-10-19T06:29:15.000Z</time>
      </trkpt>
      <trkpt lat="27.734768" lon="86.712">
        <ele>2614.6</ele>
        <time>2022-10-19T06:29:19.000Z</time>
      </trkpt>
      <trkpt lat="27.734787" lon="86.711987">
        <ele>2614</ele>
        <time>2022-10-19T06:29:23.000Z</time>
      </trkpt>
      <trkpt lat="27.734803" lon="86.712">
        <ele>2614</ele>
        <time>2022-10-19T06:29:26.000Z</time>
      </trkpt>
      <trkpt lat="27.734813" lon="86.711981">
        <ele>2613.6</ele>
        <time>2022-10-19T06:29:28.000Z</time>
      </trkpt>
      <trkpt lat="27.734832" lon="86.711974">
        <ele>2613.4</ele>
        <time>2022-10-19T06:29:32.000Z</time>
      </trkpt>
      <trkpt lat="27.734845" lon="86.711942">
        <ele>2612.4</ele>
        <time>2022-10-19T06:29:43.000Z</time>
      </trkpt>
      <trkpt lat="27.734854" lon="86.711962">
        <ele>2612.4</ele>
        <time>2022-10-19T06:29:46.000Z</time>
      </trkpt>
      <trkpt lat="27.734874" lon="86.711962">
        <ele>2611.8</ele>
        <time>2022-10-19T06:29:51.000Z</time>
      </trkpt>
      <trkpt lat="27.734899" lon="86.711962">
        <ele>2611.4</ele>
        <time>2022-10-19T06:29:54.000Z</time>
      </trkpt>
      <trkpt lat="27.734918" lon="86.711962">
        <ele>2611.2</ele>
        <time>2022-10-19T06:29:55.000Z</time>
      </trkpt>
      <trkpt lat="27.73495" lon="86.711962">
        <ele>2611.2</ele>
        <time>2022-10-19T06:29:58.000Z</time>
      </trkpt>
      <trkpt lat="27.73497" lon="86.711968">
        <ele>2610.8</ele>
        <time>2022-10-19T06:30:01.000Z</time>
      </trkpt>
      <trkpt lat="27.734986" lon="86.711981">
        <ele>2611</ele>
        <time>2022-10-19T06:30:03.000Z</time>
      </trkpt>
      <trkpt lat="27.735002" lon="86.712">
        <ele>2610.6</ele>
        <time>2022-10-19T06:30:06.000Z</time>
      </trkpt>
      <trkpt lat="27.735021" lon="86.712006">
        <ele>2609.8</ele>
        <time>2022-10-19T06:30:10.000Z</time>
      </trkpt>
      <trkpt lat="27.735043" lon="86.712013">
        <ele>2609.4</ele>
        <time>2022-10-19T06:30:14.000Z</time>
      </trkpt>
      <trkpt lat="27.735062" lon="86.712006">
        <ele>2608.6</ele>
        <time>2022-10-19T06:30:18.000Z</time>
      </trkpt>
      <trkpt lat="27.735088" lon="86.712006">
        <ele>2608.4</ele>
        <time>2022-10-19T06:30:21.000Z</time>
      </trkpt>
      <trkpt lat="27.735107" lon="86.711987">
        <ele>2608</ele>
        <time>2022-10-19T06:30:24.000Z</time>
      </trkpt>
      <trkpt lat="27.735133" lon="86.711981">
        <ele>2607.4</ele>
        <time>2022-10-19T06:30:27.000Z</time>
      </trkpt>
      <trkpt lat="27.735155" lon="86.711974">
        <ele>2607</ele>
        <time>2022-10-19T06:30:30.000Z</time>
      </trkpt>
      <trkpt lat="27.735181" lon="86.711968">
        <ele>2606.8</ele>
        <time>2022-10-19T06:30:33.000Z</time>
      </trkpt>
      <trkpt lat="27.735203" lon="86.711942">
        <ele>2606.6</ele>
        <time>2022-10-19T06:30:35.000Z</time>
      </trkpt>
      <trkpt lat="27.735222" lon="86.711936">
        <ele>2606.6</ele>
        <time>2022-10-19T06:30:37.000Z</time>
      </trkpt>
      <trkpt lat="27.735248" lon="86.711923">
        <ele>2606.6</ele>
        <time>2022-10-19T06:30:40.000Z</time>
      </trkpt>
      <trkpt lat="27.735267" lon="86.711923">
        <ele>2606.8</ele>
        <time>2022-10-19T06:30:42.000Z</time>
      </trkpt>
      <trkpt lat="27.735286" lon="86.711917">
        <ele>2606.8</ele>
        <time>2022-10-19T06:30:44.000Z</time>
      </trkpt>
      <trkpt lat="27.735302" lon="86.711904">
        <ele>2606.4</ele>
        <time>2022-10-19T06:30:46.000Z</time>
      </trkpt>
      <trkpt lat="27.735328" lon="86.711898">
        <ele>2606.6</ele>
        <time>2022-10-19T06:30:49.000Z</time>
      </trkpt>
      <trkpt lat="27.73535" lon="86.711885">
        <ele>2606.6</ele>
        <time>2022-10-19T06:30:52.000Z</time>
      </trkpt>
      <trkpt lat="27.735373" lon="86.711866">
        <ele>2606.6</ele>
        <time>2022-10-19T06:30:55.000Z</time>
      </trkpt>
      <trkpt lat="27.735392" lon="86.711866">
        <ele>2606.6</ele>
        <time>2022-10-19T06:30:58.000Z</time>
      </trkpt>
      <trkpt lat="27.735411" lon="86.711859">
        <ele>2606.8</ele>
        <time>2022-10-19T06:31:01.000Z</time>
      </trkpt>
      <trkpt lat="27.73543" lon="86.711859">
        <ele>2607</ele>
        <time>2022-10-19T06:31:04.000Z</time>
      </trkpt>
      <trkpt lat="27.735443" lon="86.71184">
        <ele>2607</ele>
        <time>2022-10-19T06:31:08.000Z</time>
      </trkpt>
      <trkpt lat="27.73545" lon="86.711814">
        <ele>2606.8</ele>
        <time>2022-10-19T06:31:13.000Z</time>
      </trkpt>
      <trkpt lat="27.735459" lon="86.711789">
        <ele>2607.2</ele>
        <time>2022-10-19T06:31:20.000Z</time>
      </trkpt>
      <trkpt lat="27.735482" lon="86.711802">
        <ele>2607.2</ele>
        <time>2022-10-19T06:31:28.000Z</time>
      </trkpt>
      <trkpt lat="27.735507" lon="86.711789">
        <ele>2607.4</ele>
        <time>2022-10-19T06:31:31.000Z</time>
      </trkpt>
      <trkpt lat="27.735526" lon="86.711789">
        <ele>2607.4</ele>
        <time>2022-10-19T06:31:33.000Z</time>
      </trkpt>
      <trkpt lat="27.735542" lon="86.711802">
        <ele>2607.4</ele>
        <time>2022-10-19T06:31:35.000Z</time>
      </trkpt>
      <trkpt lat="27.735565" lon="86.711802">
        <ele>2607.2</ele>
        <time>2022-10-19T06:31:38.000Z</time>
      </trkpt>
      <trkpt lat="27.735581" lon="86.711789">
        <ele>2607.6</ele>
        <time>2022-10-19T06:31:40.000Z</time>
      </trkpt>
      <trkpt lat="27.735606" lon="86.711789">
        <ele>2607.8</ele>
        <time>2022-10-19T06:31:43.000Z</time>
      </trkpt>
      <trkpt lat="27.735626" lon="86.711789">
        <ele>2607.8</ele>
        <time>2022-10-19T06:31:45.000Z</time>
      </trkpt>
      <trkpt lat="27.735645" lon="86.711782">
        <ele>2608</ele>
        <time>2022-10-19T06:31:47.000Z</time>
      </trkpt>
      <trkpt lat="27.735664" lon="86.711789">
        <ele>2608.4</ele>
        <time>2022-10-19T06:31:49.000Z</time>
      </trkpt>
      <trkpt lat="27.73569" lon="86.711776">
        <ele>2608</ele>
        <time>2022-10-19T06:31:52.000Z</time>
      </trkpt>
      <trkpt lat="27.735715" lon="86.711776">
        <ele>2608</ele>
        <time>2022-10-19T06:31:55.000Z</time>
      </trkpt>
      <trkpt lat="27.735734" lon="86.711789">
        <ele>2608</ele>
        <time>2022-10-19T06:31:58.000Z</time>
      </trkpt>
      <trkpt lat="27.735747" lon="86.711808">
        <ele>2607.8</ele>
        <time>2022-10-19T06:32:00.000Z</time>
      </trkpt>
      <trkpt lat="27.735766" lon="86.711808">
        <ele>2608.2</ele>
        <time>2022-10-19T06:32:03.000Z</time>
      </trkpt>
      <trkpt lat="27.735789" lon="86.711789">
        <ele>2608.2</ele>
        <time>2022-10-19T06:32:05.000Z</time>
      </trkpt>
      <trkpt lat="27.735808" lon="86.711782">
        <ele>2608.2</ele>
        <time>2022-10-19T06:32:08.000Z</time>
      </trkpt>
      <trkpt lat="27.73583" lon="86.711782">
        <ele>2609</ele>
        <time>2022-10-19T06:32:11.000Z</time>
      </trkpt>
      <trkpt lat="27.73585" lon="86.711776">
        <ele>2609</ele>
        <time>2022-10-19T06:32:14.000Z</time>
      </trkpt>
      <trkpt lat="27.735875" lon="86.711776">
        <ele>2611.4</ele>
        <time>2022-10-19T06:33:01.000Z</time>
      </trkpt>
      <trkpt lat="27.735904" lon="86.711776">
        <ele>2612.4</ele>
        <time>2022-10-19T06:33:04.000Z</time>
      </trkpt>
      <trkpt lat="27.735923" lon="86.711776">
        <ele>2612.8</ele>
        <time>2022-10-19T06:33:06.000Z</time>
      </trkpt>
      <trkpt lat="27.735942" lon="86.711776">
        <ele>2613.2</ele>
        <time>2022-10-19T06:33:08.000Z</time>
      </trkpt>
      <trkpt lat="27.735958" lon="86.711789">
        <ele>2614.4</ele>
        <time>2022-10-19T06:33:11.000Z</time>
      </trkpt>
      <trkpt lat="27.735968" lon="86.711808">
        <ele>2615.4</ele>
        <time>2022-10-19T06:33:15.000Z</time>
      </trkpt>
      <trkpt lat="27.735974" lon="86.711827">
        <ele>2616</ele>
        <time>2022-10-19T06:33:20.000Z</time>
      </trkpt>
      <trkpt lat="27.735994" lon="86.71184">
        <ele>2616</ele>
        <time>2022-10-19T06:33:23.000Z</time>
      </trkpt>
      <trkpt lat="27.736016" lon="86.711853">
        <ele>2617.2</ele>
        <time>2022-10-19T06:33:26.000Z</time>
      </trkpt>
      <trkpt lat="27.736038" lon="86.711866">
        <ele>2618</ele>
        <time>2022-10-19T06:33:29.000Z</time>
      </trkpt>
      <trkpt lat="27.736058" lon="86.711859">
        <ele>2618</ele>
        <time>2022-10-19T06:33:32.000Z</time>
      </trkpt>
      <trkpt lat="27.736077" lon="86.711846">
        <ele>2618</ele>
        <time>2022-10-19T06:33:36.000Z</time>
      </trkpt>
      <trkpt lat="27.73609" lon="86.711827">
        <ele>2619</ele>
        <time>2022-10-19T06:33:40.000Z</time>
      </trkpt>
      <trkpt lat="27.736112" lon="86.71184">
        <ele>2619.6</ele>
        <time>2022-10-19T06:33:44.000Z</time>
      </trkpt>
      <trkpt lat="27.736134" lon="86.711853">
        <ele>2620.4</ele>
        <time>2022-10-19T06:33:49.000Z</time>
      </trkpt>
      <trkpt lat="27.736154" lon="86.711853">
        <ele>2620.6</ele>
        <time>2022-10-19T06:33:52.000Z</time>
      </trkpt>
      <trkpt lat="27.736176" lon="86.711853">
        <ele>2621.2</ele>
        <time>2022-10-19T06:33:56.000Z</time>
      </trkpt>
      <trkpt lat="27.736195" lon="86.711846">
        <ele>2622.2</ele>
        <time>2022-10-19T06:33:59.000Z</time>
      </trkpt>
      <trkpt lat="27.736214" lon="86.711846">
        <ele>2622.4</ele>
        <time>2022-10-19T06:34:01.000Z</time>
      </trkpt>
      <trkpt lat="27.736234" lon="86.711853">
        <ele>2622.2</ele>
        <time>2022-10-19T06:34:04.000Z</time>
      </trkpt>
      <trkpt lat="27.736253" lon="86.711846">
        <ele>2622.4</ele>
        <time>2022-10-19T06:34:06.000Z</time>
      </trkpt>
      <trkpt lat="27.736272" lon="86.71184">
        <ele>2622.2</ele>
        <time>2022-10-19T06:34:09.000Z</time>
      </trkpt>
      <trkpt lat="27.736291" lon="86.71184">
        <ele>2622.6</ele>
        <time>2022-10-19T06:34:15.000Z</time>
      </trkpt>
      <trkpt lat="27.73631" lon="86.71184">
        <ele>2622.4</ele>
        <time>2022-10-19T06:34:19.000Z</time>
      </trkpt>
      <trkpt lat="27.73633" lon="86.71184">
        <ele>2622.8</ele>
        <time>2022-10-19T06:34:24.000Z</time>
      </trkpt>
      <trkpt lat="27.736349" lon="86.711846">
        <ele>2622.6</ele>
        <time>2022-10-19T06:34:30.000Z</time>
      </trkpt>
      <trkpt lat="27.736371" lon="86.711853">
        <ele>2622.4</ele>
        <time>2022-10-19T06:34:33.000Z</time>
      </trkpt>
      <trkpt lat="27.73639" lon="86.711859">
        <ele>2622</ele>
        <time>2022-10-19T06:34:36.000Z</time>
      </trkpt>
      <trkpt lat="27.736403" lon="86.711878">
        <ele>2621.6</ele>
        <time>2022-10-19T06:34:40.000Z</time>
      </trkpt>
      <trkpt lat="27.736413" lon="86.711898">
        <ele>2621.2</ele>
        <time>2022-10-19T06:34:42.000Z</time>
      </trkpt>
      <trkpt lat="27.736435" lon="86.711904">
        <ele>2621</ele>
        <time>2022-10-19T06:34:44.000Z</time>
      </trkpt>
      <trkpt lat="27.736454" lon="86.711923">
        <ele>2620.6</ele>
        <time>2022-10-19T06:34:47.000Z</time>
      </trkpt>
      <trkpt lat="27.73648" lon="86.711917">
        <ele>2620.6</ele>
        <time>2022-10-19T06:34:49.000Z</time>
      </trkpt>
      <trkpt lat="27.736499" lon="86.711923">
        <ele>2620.6</ele>
        <time>2022-10-19T06:34:51.000Z</time>
      </trkpt>
      <trkpt lat="27.736518" lon="86.711904">
        <ele>2620.6</ele>
        <time>2022-10-19T06:34:55.000Z</time>
      </trkpt>
      <trkpt lat="27.736534" lon="86.711917">
        <ele>2621</ele>
        <time>2022-10-19T06:34:59.000Z</time>
      </trkpt>
      <trkpt lat="27.73656" lon="86.711923">
        <ele>2621.4</ele>
        <time>2022-10-19T06:35:03.000Z</time>
      </trkpt>
      <trkpt lat="27.736579" lon="86.711923">
        <ele>2620.6</ele>
        <time>2022-10-19T06:35:32.000Z</time>
      </trkpt>
      <trkpt lat="27.736602" lon="86.711923">
        <ele>2620.6</ele>
        <time>2022-10-19T06:35:34.000Z</time>
      </trkpt>
      <trkpt lat="27.736627" lon="86.71193">
        <ele>2620.6</ele>
        <time>2022-10-19T06:35:36.000Z</time>
      </trkpt>
      <trkpt lat="27.73665" lon="86.711942">
        <ele>2620.6</ele>
        <time>2022-10-19T06:35:38.000Z</time>
      </trkpt>
      <trkpt lat="27.736669" lon="86.711942">
        <ele>2620.4</ele>
        <time>2022-10-19T06:35:39.000Z</time>
      </trkpt>
      <trkpt lat="27.736688" lon="86.711942">
        <ele>2620.4</ele>
        <time>2022-10-19T06:35:41.000Z</time>
      </trkpt>
      <trkpt lat="27.736707" lon="86.711955">
        <ele>2620.8</ele>
        <time>2022-10-19T06:35:43.000Z</time>
      </trkpt>
      <trkpt lat="27.736726" lon="86.711962">
        <ele>2621</ele>
        <time>2022-10-19T06:35:45.000Z</time>
      </trkpt>
      <trkpt lat="27.736749" lon="86.711955">
        <ele>2620.8</ele>
        <time>2022-10-19T06:35:48.000Z</time>
      </trkpt>
      <trkpt lat="27.736768" lon="86.711968">
        <ele>2620.8</ele>
        <time>2022-10-19T06:35:51.000Z</time>
      </trkpt>
      <trkpt lat="27.736787" lon="86.711974">
        <ele>2621.6</ele>
        <time>2022-10-19T06:35:56.000Z</time>
      </trkpt>
      <trkpt lat="27.73681" lon="86.711981">
        <ele>2622</ele>
        <time>2022-10-19T06:35:58.000Z</time>
      </trkpt>
      <trkpt lat="27.736829" lon="86.711987">
        <ele>2622.8</ele>
        <time>2022-10-19T06:36:01.000Z</time>
      </trkpt>
      <trkpt lat="27.736851" lon="86.712">
        <ele>2622.8</ele>
        <time>2022-10-19T06:36:04.000Z</time>
      </trkpt>
      <trkpt lat="27.73687" lon="86.712006">
        <ele>2622.8</ele>
        <time>2022-10-19T06:36:07.000Z</time>
      </trkpt>
      <trkpt lat="27.736893" lon="86.712013">
        <ele>2623.6</ele>
        <time>2022-10-19T06:36:10.000Z</time>
      </trkpt>
      <trkpt lat="27.736912" lon="86.712019">
        <ele>2624</ele>
        <time>2022-10-19T06:36:13.000Z</time>
      </trkpt>
      <trkpt lat="27.736931" lon="86.712026">
        <ele>2624</ele>
        <time>2022-10-19T06:36:16.000Z</time>
      </trkpt>
      <trkpt lat="27.73695" lon="86.712038">
        <ele>2624.4</ele>
        <time>2022-10-19T06:36:19.000Z</time>
      </trkpt>
      <trkpt lat="27.736966" lon="86.712051">
        <ele>2624.4</ele>
        <time>2022-10-19T06:36:21.000Z</time>
      </trkpt>
      <trkpt lat="27.736986" lon="86.712064">
        <ele>2624.6</ele>
        <time>2022-10-19T06:36:23.000Z</time>
      </trkpt>
      <trkpt lat="27.737008" lon="86.712064">
        <ele>2624.6</ele>
        <time>2022-10-19T06:36:26.000Z</time>
      </trkpt>
      <trkpt lat="27.73703" lon="86.712064">
        <ele>2624.6</ele>
        <time>2022-10-19T06:36:28.000Z</time>
      </trkpt>
      <trkpt lat="27.737053" lon="86.712077">
        <ele>2624.4</ele>
        <time>2022-10-19T06:36:30.000Z</time>
      </trkpt>
      <trkpt lat="27.737072" lon="86.712058">
        <ele>2624.6</ele>
        <time>2022-10-19T06:36:32.000Z</time>
      </trkpt>
      <trkpt lat="27.737091" lon="86.712064">
        <ele>2624.6</ele>
        <time>2022-10-19T06:36:34.000Z</time>
      </trkpt>
      <trkpt lat="27.737117" lon="86.712058">
        <ele>2624.4</ele>
        <time>2022-10-19T06:36:37.000Z</time>
      </trkpt>
      <trkpt lat="27.737142" lon="86.712058">
        <ele>2624.8</ele>
        <time>2022-10-19T06:36:40.000Z</time>
      </trkpt>
      <trkpt lat="27.737165" lon="86.712058">
        <ele>2624.4</ele>
        <time>2022-10-19T06:36:42.000Z</time>
      </trkpt>
      <trkpt lat="27.737184" lon="86.712058">
        <ele>2624.8</ele>
        <time>2022-10-19T06:36:44.000Z</time>
      </trkpt>
      <trkpt lat="27.737206" lon="86.712051">
        <ele>2625.2</ele>
        <time>2022-10-19T06:36:46.000Z</time>
      </trkpt>
      <trkpt lat="27.737226" lon="86.712051">
        <ele>2625.8</ele>
        <time>2022-10-19T06:36:48.000Z</time>
      </trkpt>
      <trkpt lat="27.737219" lon="86.712077">
        <ele>2625.8</ele>
        <time>2022-10-19T06:36:50.000Z</time>
      </trkpt>
      <trkpt lat="27.737229" lon="86.712096">
        <ele>2626.2</ele>
        <time>2022-10-19T06:36:53.000Z</time>
      </trkpt>
      <trkpt lat="27.737254" lon="86.712096">
        <ele>2625.8</ele>
        <time>2022-10-19T06:36:59.000Z</time>
      </trkpt>
      <trkpt lat="27.737274" lon="86.712096">
        <ele>2625.8</ele>
        <time>2022-10-19T06:37:01.000Z</time>
      </trkpt>
      <trkpt lat="27.737302" lon="86.712102">
        <ele>2626</ele>
        <time>2022-10-19T06:37:04.000Z</time>
      </trkpt>
      <trkpt lat="27.737325" lon="86.712115">
        <ele>2626</ele>
        <time>2022-10-19T06:37:07.000Z</time>
      </trkpt>
      <trkpt lat="27.737338" lon="86.712134">
        <ele>2625.6</ele>
        <time>2022-10-19T06:37:10.000Z</time>
      </trkpt>
      <trkpt lat="27.737357" lon="86.712154">
        <ele>2624.8</ele>
        <time>2022-10-19T06:37:31.000Z</time>
      </trkpt>
      <trkpt lat="27.737373" lon="86.712166">
        <ele>2624.4</ele>
        <time>2022-10-19T06:37:33.000Z</time>
      </trkpt>
      <trkpt lat="27.737389" lon="86.712179">
        <ele>2624.4</ele>
        <time>2022-10-19T06:37:35.000Z</time>
      </trkpt>
      <trkpt lat="27.737395" lon="86.712198">
        <ele>2624.4</ele>
        <time>2022-10-19T06:37:36.000Z</time>
      </trkpt>
      <trkpt lat="27.737405" lon="86.712218">
        <ele>2624.4</ele>
        <time>2022-10-19T06:37:39.000Z</time>
      </trkpt>
      <trkpt lat="27.737424" lon="86.712218">
        <ele>2624.8</ele>
        <time>2022-10-19T06:37:42.000Z</time>
      </trkpt>
      <trkpt lat="27.737446" lon="86.712218">
        <ele>2624.8</ele>
        <time>2022-10-19T06:37:45.000Z</time>
      </trkpt>
      <trkpt lat="27.737462" lon="86.712237">
        <ele>2625.6</ele>
        <time>2022-10-19T06:37:50.000Z</time>
      </trkpt>
      <trkpt lat="27.737485" lon="86.71225">
        <ele>2625.6</ele>
        <time>2022-10-19T06:37:53.000Z</time>
      </trkpt>
      <trkpt lat="27.737504" lon="86.712262">
        <ele>2625.4</ele>
        <time>2022-10-19T06:37:55.000Z</time>
      </trkpt>
      <trkpt lat="27.737523" lon="86.712262">
        <ele>2625</ele>
        <time>2022-10-19T06:37:57.000Z</time>
      </trkpt>
      <trkpt lat="27.737546" lon="86.712275">
        <ele>2624.6</ele>
        <time>2022-10-19T06:37:59.000Z</time>
      </trkpt>
      <trkpt lat="27.737574" lon="86.712282">
        <ele>2624.4</ele>
        <time>2022-10-19T06:38:01.000Z</time>
      </trkpt>
      <trkpt lat="27.737594" lon="86.712288">
        <ele>2624.2</ele>
        <time>2022-10-19T06:38:03.000Z</time>
      </trkpt>
      <trkpt lat="27.737616" lon="86.712294">
        <ele>2624.4</ele>
        <time>2022-10-19T06:38:05.000Z</time>
      </trkpt>
      <trkpt lat="27.737638" lon="86.712301">
        <ele>2623.4</ele>
        <time>2022-10-19T06:38:07.000Z</time>
      </trkpt>
      <trkpt lat="27.737658" lon="86.712301">
        <ele>2623.2</ele>
        <time>2022-10-19T06:38:09.000Z</time>
      </trkpt>
      <trkpt lat="27.73768" lon="86.712288">
        <ele>2623</ele>
        <time>2022-10-19T06:38:12.000Z</time>
      </trkpt>
      <trkpt lat="27.737686" lon="86.71225">
        <ele>2623</ele>
        <time>2022-10-19T06:38:14.000Z</time>
      </trkpt>
      <trkpt lat="27.737699" lon="86.712211">
        <ele>2622.8</ele>
        <time>2022-10-19T06:38:16.000Z</time>
      </trkpt>
      <trkpt lat="27.737709" lon="86.712186">
        <ele>2623</ele>
        <time>2022-10-19T06:38:18.000Z</time>
      </trkpt>
      <trkpt lat="27.737728" lon="86.712173">
        <ele>2623</ele>
        <time>2022-10-19T06:38:20.000Z</time>
      </trkpt>
      <trkpt lat="27.73775" lon="86.71216">
        <ele>2623.2</ele>
        <time>2022-10-19T06:38:22.000Z</time>
      </trkpt>
      <trkpt lat="27.73777" lon="86.712141">
        <ele>2622.8</ele>
        <time>2022-10-19T06:38:25.000Z</time>
      </trkpt>
      <trkpt lat="27.737789" lon="86.712141">
        <ele>2623.2</ele>
        <time>2022-10-19T06:38:27.000Z</time>
      </trkpt>
      <trkpt lat="27.737814" lon="86.712134">
        <ele>2623.8</ele>
        <time>2022-10-19T06:38:29.000Z</time>
      </trkpt>
      <trkpt lat="27.737824" lon="86.712115">
        <ele>2623.8</ele>
        <time>2022-10-19T06:38:31.000Z</time>
      </trkpt>
      <trkpt lat="27.737834" lon="86.712096">
        <ele>2623.8</ele>
        <time>2022-10-19T06:38:32.000Z</time>
      </trkpt>
      <trkpt lat="27.73785" lon="86.712077">
        <ele>2623.4</ele>
        <time>2022-10-19T06:38:34.000Z</time>
      </trkpt>
      <trkpt lat="27.737869" lon="86.712058">
        <ele>2623.2</ele>
        <time>2022-10-19T06:38:36.000Z</time>
      </trkpt>
      <trkpt lat="27.737894" lon="86.712051">
        <ele>2623.2</ele>
        <time>2022-10-19T06:38:39.000Z</time>
      </trkpt>
      <trkpt lat="27.737914" lon="86.712038">
        <ele>2623</ele>
        <time>2022-10-19T06:38:42.000Z</time>
      </trkpt>
      <trkpt lat="27.737933" lon="86.712038">
        <ele>2624</ele>
        <time>2022-10-19T06:38:44.000Z</time>
      </trkpt>
      <trkpt lat="27.737949" lon="86.712019">
        <ele>2624</ele>
        <time>2022-10-19T06:38:46.000Z</time>
      </trkpt>
      <trkpt lat="27.737958" lon="86.711981">
        <ele>2623.6</ele>
        <time>2022-10-19T06:38:50.000Z</time>
      </trkpt>
      <trkpt lat="27.737974" lon="86.711955">
        <ele>2624.2</ele>
        <time>2022-10-19T06:38:52.000Z</time>
      </trkpt>
      <trkpt lat="27.737981" lon="86.711936">
        <ele>2624.6</ele>
        <time>2022-10-19T06:38:54.000Z</time>
      </trkpt>
      <trkpt lat="27.737987" lon="86.711917">
        <ele>2624.6</ele>
        <time>2022-10-19T06:38:55.000Z</time>
      </trkpt>
      <trkpt lat="27.737994" lon="86.711898">
        <ele>2624.8</ele>
        <time>2022-10-19T06:38:56.000Z</time>
      </trkpt>
      <trkpt lat="27.738013" lon="86.711885">
        <ele>2625.2</ele>
        <time>2022-10-19T06:38:58.000Z</time>
      </trkpt>
      <trkpt lat="27.738032" lon="86.711878">
        <ele>2625.8</ele>
        <time>2022-10-19T06:39:01.000Z</time>
      </trkpt>
      <trkpt lat="27.738051" lon="86.711878">
        <ele>2626</ele>
        <time>2022-10-19T06:39:03.000Z</time>
      </trkpt>
      <trkpt lat="27.738074" lon="86.711885">
        <ele>2625.8</ele>
        <time>2022-10-19T06:39:05.000Z</time>
      </trkpt>
      <trkpt lat="27.738093" lon="86.711891">
        <ele>2625.8</ele>
        <time>2022-10-19T06:39:07.000Z</time>
      </trkpt>
      <trkpt lat="27.738122" lon="86.711898">
        <ele>2625.8</ele>
        <time>2022-10-19T06:39:10.000Z</time>
      </trkpt>
      <trkpt lat="27.738141" lon="86.711904">
        <ele>2626</ele>
        <time>2022-10-19T06:39:13.000Z</time>
      </trkpt>
      <trkpt lat="27.73816" lon="86.711904">
        <ele>2625.8</ele>
        <time>2022-10-19T06:39:15.000Z</time>
      </trkpt>
      <trkpt lat="27.738179" lon="86.711904">
        <ele>2626.4</ele>
        <time>2022-10-19T06:39:18.000Z</time>
      </trkpt>
      <trkpt lat="27.738198" lon="86.711898">
        <ele>2626.4</ele>
        <time>2022-10-19T06:39:20.000Z</time>
      </trkpt>
      <trkpt lat="27.738218" lon="86.711898">
        <ele>2626.2</ele>
        <time>2022-10-19T06:39:22.000Z</time>
      </trkpt>
      <trkpt lat="27.738237" lon="86.711898">
        <ele>2626</ele>
        <time>2022-10-19T06:39:24.000Z</time>
      </trkpt>
      <trkpt lat="27.738256" lon="86.711898">
        <ele>2626.2</ele>
        <time>2022-10-19T06:39:26.000Z</time>
      </trkpt>
      <trkpt lat="27.738278" lon="86.711904">
        <ele>2626.4</ele>
        <time>2022-10-19T06:39:28.000Z</time>
      </trkpt>
      <trkpt lat="27.738301" lon="86.711898">
        <ele>2626.4</ele>
        <time>2022-10-19T06:39:31.000Z</time>
      </trkpt>
      <trkpt lat="27.738323" lon="86.711898">
        <ele>2626.2</ele>
        <time>2022-10-19T06:39:36.000Z</time>
      </trkpt>
      <trkpt lat="27.738342" lon="86.711891">
        <ele>2626.4</ele>
        <time>2022-10-19T06:39:38.000Z</time>
      </trkpt>
      <trkpt lat="27.738358" lon="86.711878">
        <ele>2626.8</ele>
        <time>2022-10-19T06:39:44.000Z</time>
      </trkpt>
      <trkpt lat="27.738384" lon="86.711878">
        <ele>2627</ele>
        <time>2022-10-19T06:39:52.000Z</time>
      </trkpt>
      <trkpt lat="27.738403" lon="86.711866">
        <ele>2627.2</ele>
        <time>2022-10-19T06:39:54.000Z</time>
      </trkpt>
      <trkpt lat="27.738422" lon="86.711866">
        <ele>2627.6</ele>
        <time>2022-10-19T06:39:56.000Z</time>
      </trkpt>
      <trkpt lat="27.738448" lon="86.711866">
        <ele>2627.8</ele>
        <time>2022-10-19T06:39:59.000Z</time>
      </trkpt>
      <trkpt lat="27.738467" lon="86.711866">
        <ele>2627.6</ele>
        <time>2022-10-19T06:40:01.000Z</time>
      </trkpt>
      <trkpt lat="27.738493" lon="86.711866">
        <ele>2627.6</ele>
        <time>2022-10-19T06:40:04.000Z</time>
      </trkpt>
      <trkpt lat="27.738515" lon="86.711878">
        <ele>2627.6</ele>
        <time>2022-10-19T06:40:07.000Z</time>
      </trkpt>
      <trkpt lat="27.738538" lon="86.711885">
        <ele>2628</ele>
        <time>2022-10-19T06:40:11.000Z</time>
      </trkpt>
      <trkpt lat="27.738557" lon="86.711891">
        <ele>2627.8</ele>
        <time>2022-10-19T06:40:15.000Z</time>
      </trkpt>
      <trkpt lat="27.738576" lon="86.711898">
        <ele>2628.2</ele>
        <time>2022-10-19T06:40:28.000Z</time>
      </trkpt>
      <trkpt lat="27.738598" lon="86.711898">
        <ele>2628.6</ele>
        <time>2022-10-19T06:40:33.000Z</time>
      </trkpt>
      <trkpt lat="27.738618" lon="86.711904">
        <ele>2629.2</ele>
        <time>2022-10-19T06:40:38.000Z</time>
      </trkpt>
      <trkpt lat="27.738627" lon="86.711923">
        <ele>2629.4</ele>
        <time>2022-10-19T06:40:41.000Z</time>
      </trkpt>
      <trkpt lat="27.738646" lon="86.711942">
        <ele>2630</ele>
        <time>2022-10-19T06:40:45.000Z</time>
      </trkpt>
      <trkpt lat="27.738666" lon="86.711955">
        <ele>2630.8</ele>
        <time>2022-10-19T06:40:48.000Z</time>
      </trkpt>
      <trkpt lat="27.738688" lon="86.711962">
        <ele>2630.6</ele>
        <time>2022-10-19T06:40:51.000Z</time>
      </trkpt>
      <trkpt lat="27.738714" lon="86.711968">
        <ele>2631</ele>
        <time>2022-10-19T06:40:56.000Z</time>
      </trkpt>
      <trkpt lat="27.738733" lon="86.711974">
        <ele>2630.6</ele>
        <time>2022-10-19T06:41:00.000Z</time>
      </trkpt>
      <trkpt lat="27.738749" lon="86.711987">
        <ele>2630.6</ele>
        <time>2022-10-19T06:41:03.000Z</time>
      </trkpt>
      <trkpt lat="27.738768" lon="86.712">
        <ele>2632</ele>
        <time>2022-10-19T06:41:06.000Z</time>
      </trkpt>
      <trkpt lat="27.738794" lon="86.712006">
        <ele>2632.2</ele>
        <time>2022-10-19T06:41:09.000Z</time>
      </trkpt>
      <trkpt lat="27.738806" lon="86.712026">
        <ele>2632.8</ele>
        <time>2022-10-19T06:41:13.000Z</time>
      </trkpt>
      <trkpt lat="27.738813" lon="86.712045">
        <ele>2633.2</ele>
        <time>2022-10-19T06:41:14.000Z</time>
      </trkpt>
      <trkpt lat="27.738832" lon="86.712064">
        <ele>2633.4</ele>
        <time>2022-10-19T06:41:43.000Z</time>
      </trkpt>
      <trkpt lat="27.738842" lon="86.712083">
        <ele>2633.4</ele>
        <time>2022-10-19T06:41:44.000Z</time>
      </trkpt>
      <trkpt lat="27.738858" lon="86.712096">
        <ele>2633.2</ele>
        <time>2022-10-19T06:41:46.000Z</time>
      </trkpt>
      <trkpt lat="27.738883" lon="86.712102">
        <ele>2633.4</ele>
        <time>2022-10-19T06:41:48.000Z</time>
      </trkpt>
      <trkpt lat="27.738899" lon="86.712122">
        <ele>2633.8</ele>
        <time>2022-10-19T06:41:50.000Z</time>
      </trkpt>
      <trkpt lat="27.738906" lon="86.712141">
        <ele>2634.2</ele>
        <time>2022-10-19T06:41:52.000Z</time>
      </trkpt>
      <trkpt lat="27.738912" lon="86.71216">
        <ele>2635</ele>
        <time>2022-10-19T06:41:55.000Z</time>
      </trkpt>
      <trkpt lat="27.738934" lon="86.712166">
        <ele>2635.8</ele>
        <time>2022-10-19T06:42:00.000Z</time>
      </trkpt>
      <trkpt lat="27.738954" lon="86.712179">
        <ele>2636.4</ele>
        <time>2022-10-19T06:42:03.000Z</time>
      </trkpt>
      <trkpt lat="27.738973" lon="86.712198">
        <ele>2636.2</ele>
        <time>2022-10-19T06:42:06.000Z</time>
      </trkpt>
      <trkpt lat="27.738989" lon="86.712211">
        <ele>2636.8</ele>
        <time>2022-10-19T06:42:13.000Z</time>
      </trkpt>
      <trkpt lat="27.739005" lon="86.712224">
        <ele>2637.4</ele>
        <time>2022-10-19T06:42:21.000Z</time>
      </trkpt>
      <trkpt lat="27.739014" lon="86.712243">
        <ele>2638.2</ele>
        <time>2022-10-19T06:42:25.000Z</time>
      </trkpt>
      <trkpt lat="27.739034" lon="86.712256">
        <ele>2639.4</ele>
        <time>2022-10-19T06:42:30.000Z</time>
      </trkpt>
      <trkpt lat="27.739056" lon="86.712275">
        <ele>2640</ele>
        <time>2022-10-19T06:42:33.000Z</time>
      </trkpt>
      <trkpt lat="27.739082" lon="86.712288">
        <ele>2639.6</ele>
        <time>2022-10-19T06:42:36.000Z</time>
      </trkpt>
      <trkpt lat="27.739104" lon="86.712294">
        <ele>2639.8</ele>
        <time>2022-10-19T06:42:40.000Z</time>
      </trkpt>
      <trkpt lat="27.739123" lon="86.712301">
        <ele>2639.8</ele>
        <time>2022-10-19T06:42:42.000Z</time>
      </trkpt>
      <trkpt lat="27.739139" lon="86.712314">
        <ele>2640</ele>
        <time>2022-10-19T06:42:45.000Z</time>
      </trkpt>
      <trkpt lat="27.739162" lon="86.71232">
        <ele>2640.2</ele>
        <time>2022-10-19T06:42:48.000Z</time>
      </trkpt>
      <trkpt lat="27.739181" lon="86.712314">
        <ele>2640.2</ele>
        <time>2022-10-19T06:42:51.000Z</time>
      </trkpt>
      <trkpt lat="27.7392" lon="86.71232">
        <ele>2640.6</ele>
        <time>2022-10-19T06:42:54.000Z</time>
      </trkpt>
      <trkpt lat="27.739229" lon="86.71232">
        <ele>2640.4</ele>
        <time>2022-10-19T06:42:57.000Z</time>
      </trkpt>
      <trkpt lat="27.739248" lon="86.712326">
        <ele>2640.8</ele>
        <time>2022-10-19T06:43:00.000Z</time>
      </trkpt>
      <trkpt lat="27.739267" lon="86.712333">
        <ele>2640.8</ele>
        <time>2022-10-19T06:43:02.000Z</time>
      </trkpt>
      <trkpt lat="27.73929" lon="86.712339">
        <ele>2640.4</ele>
        <time>2022-10-19T06:43:06.000Z</time>
      </trkpt>
      <trkpt lat="27.739309" lon="86.712339">
        <ele>2641.4</ele>
        <time>2022-10-19T06:43:10.000Z</time>
      </trkpt>
      <trkpt lat="27.739328" lon="86.712333">
        <ele>2641.6</ele>
        <time>2022-10-19T06:43:14.000Z</time>
      </trkpt>
      <trkpt lat="27.739354" lon="86.712352">
        <ele>2642.2</ele>
        <time>2022-10-19T06:43:20.000Z</time>
      </trkpt>
      <trkpt lat="27.739373" lon="86.712352">
        <ele>2642.2</ele>
        <time>2022-10-19T06:43:23.000Z</time>
      </trkpt>
      <trkpt lat="27.73937" lon="86.712378">
        <ele>2642.2</ele>
        <time>2022-10-19T06:43:40.000Z</time>
      </trkpt>
      <trkpt lat="27.739379" lon="86.712397">
        <ele>2642</ele>
        <time>2022-10-19T06:43:43.000Z</time>
      </trkpt>
      <trkpt lat="27.739395" lon="86.712384">
        <ele>2641.8</ele>
        <time>2022-10-19T06:43:48.000Z</time>
      </trkpt>
      <trkpt lat="27.739392" lon="86.712358">
        <ele>2642</ele>
        <time>2022-10-19T06:44:00.000Z</time>
      </trkpt>
      <trkpt lat="27.739414" lon="86.712384">
        <ele>2640.8</ele>
        <time>2022-10-19T06:45:46.000Z</time>
      </trkpt>
      <trkpt lat="27.73943" lon="86.712397">
        <ele>2640.6</ele>
        <time>2022-10-19T06:45:47.000Z</time>
      </trkpt>
      <trkpt lat="27.73945" lon="86.71241">
        <ele>2641.2</ele>
        <time>2022-10-19T06:45:49.000Z</time>
      </trkpt>
      <trkpt lat="27.739469" lon="86.712416">
        <ele>2641.6</ele>
        <time>2022-10-19T06:45:54.000Z</time>
      </trkpt>
      <trkpt lat="27.739459" lon="86.712397">
        <ele>2642</ele>
        <time>2022-10-19T06:46:05.000Z</time>
      </trkpt>
      <trkpt lat="27.739469" lon="86.712378">
        <ele>2641.2</ele>
        <time>2022-10-19T06:46:44.000Z</time>
      </trkpt>
      <trkpt lat="27.739453" lon="86.712365">
        <ele>2641.2</ele>
        <time>2022-10-19T06:46:50.000Z</time>
      </trkpt>
      <trkpt lat="27.739363" lon="86.712358">
        <ele>2647</ele>
        <time>2022-10-19T06:52:30.000Z</time>
      </trkpt>
      <trkpt lat="27.739354" lon="86.712397">
        <ele>2647.2</ele>
        <time>2022-10-19T06:53:33.000Z</time>
      </trkpt>
      <trkpt lat="27.739344" lon="86.712416">
        <ele>2647.6</ele>
        <time>2022-10-19T06:53:37.000Z</time>
      </trkpt>
      <trkpt lat="27.739338" lon="86.712435">
        <ele>2647.8</ele>
        <time>2022-10-19T06:53:39.000Z</time>
      </trkpt>
      <trkpt lat="27.739328" lon="86.712454">
        <ele>2648.2</ele>
        <time>2022-10-19T06:53:43.000Z</time>
      </trkpt>
      <trkpt lat="27.739322" lon="86.712422">
        <ele>2649.8</ele>
        <time>2022-10-19T06:53:48.000Z</time>
      </trkpt>
      <trkpt lat="27.739322" lon="86.712397">
        <ele>2650.2</ele>
        <time>2022-10-19T06:53:50.000Z</time>
      </trkpt>
      <trkpt lat="27.739306" lon="86.712384">
        <ele>2648.8</ele>
        <time>2022-10-19T06:53:59.000Z</time>
      </trkpt>
      <trkpt lat="27.739299" lon="86.712365">
        <ele>2648.8</ele>
        <time>2022-10-19T06:54:03.000Z</time>
      </trkpt>
      <trkpt lat="27.739318" lon="86.712371">
        <ele>2649.4</ele>
        <time>2022-10-19T06:54:06.000Z</time>
      </trkpt>
      <trkpt lat="27.739338" lon="86.712371">
        <ele>2649.2</ele>
        <time>2022-10-19T06:54:09.000Z</time>
      </trkpt>
      <trkpt lat="27.73935" lon="86.712352">
        <ele>2647.4</ele>
        <time>2022-10-19T06:54:29.000Z</time>
      </trkpt>
      <trkpt lat="27.739357" lon="86.712333">
        <ele>2647.4</ele>
        <time>2022-10-19T06:54:30.000Z</time>
      </trkpt>
      <trkpt lat="27.739373" lon="86.712314">
        <ele>2646.8</ele>
        <time>2022-10-19T06:54:32.000Z</time>
      </trkpt>
      <trkpt lat="27.739395" lon="86.712294">
        <ele>2646</ele>
        <time>2022-10-19T06:54:34.000Z</time>
      </trkpt>
      <trkpt lat="27.739408" lon="86.712262">
        <ele>2646</ele>
        <time>2022-10-19T06:54:36.000Z</time>
      </trkpt>
      <trkpt lat="27.739418" lon="86.712237">
        <ele>2646.6</ele>
        <time>2022-10-19T07:00:52.000Z</time>
      </trkpt>
      <trkpt lat="27.739427" lon="86.712218">
        <ele>2646.4</ele>
        <time>2022-10-19T07:00:56.000Z</time>
      </trkpt>
      <trkpt lat="27.739408" lon="86.712339">
        <ele>2647.2</ele>
        <time>2022-10-19T07:02:32.000Z</time>
      </trkpt>
      <trkpt lat="27.739392" lon="86.712352">
        <ele>2647</ele>
        <time>2022-10-19T07:05:36.000Z</time>
      </trkpt>
      <trkpt lat="27.739411" lon="86.712352">
        <ele>2646.4</ele>
        <time>2022-10-19T07:05:45.000Z</time>
      </trkpt>
      <trkpt lat="27.739418" lon="86.712371">
        <ele>2646.4</ele>
        <time>2022-10-19T07:05:46.000Z</time>
      </trkpt>
      <trkpt lat="27.739414" lon="86.712339">
        <ele>2646.6</ele>
        <time>2022-10-19T07:05:51.000Z</time>
      </trkpt>
      <trkpt lat="27.739427" lon="86.712358">
        <ele>2646.2</ele>
        <time>2022-10-19T07:06:12.000Z</time>
      </trkpt>
      <trkpt lat="27.73944" lon="86.712378">
        <ele>2647.2</ele>
        <time>2022-10-19T07:06:27.000Z</time>
      </trkpt>
      <trkpt lat="27.739427" lon="86.712397">
        <ele>2646.2</ele>
        <time>2022-10-19T07:06:52.000Z</time>
      </trkpt>
      <trkpt lat="27.739418" lon="86.712378">
        <ele>2646.8</ele>
        <time>2022-10-19T07:07:06.000Z</time>
      </trkpt>
      <trkpt lat="27.739382" lon="86.712371">
        <ele>2647.6</ele>
        <time>2022-10-19T07:07:27.000Z</time>
      </trkpt>
      <trkpt lat="27.73935" lon="86.712365">
        <ele>2647.2</ele>
        <time>2022-10-19T07:07:29.000Z</time>
      </trkpt>
      <trkpt lat="27.739347" lon="86.712339">
        <ele>2645.8</ele>
        <time>2022-10-19T07:07:34.000Z</time>
      </trkpt>
      <trkpt lat="27.73937" lon="86.712358">
        <ele>2647.6</ele>
        <time>2022-10-19T07:07:44.000Z</time>
      </trkpt>
      <trkpt lat="27.739389" lon="86.712358">
        <ele>2647.8</ele>
        <time>2022-10-19T07:07:49.000Z</time>
      </trkpt>
      <trkpt lat="27.739408" lon="86.712358">
        <ele>2647.6</ele>
        <time>2022-10-19T07:08:03.000Z</time>
      </trkpt>
      <trkpt lat="27.739418" lon="86.712378">
        <ele>2647.4</ele>
        <time>2022-10-19T07:08:22.000Z</time>
      </trkpt>
      <trkpt lat="27.739408" lon="86.712397">
        <ele>2649.8</ele>
        <time>2022-10-19T07:10:35.000Z</time>
      </trkpt>
      <trkpt lat="27.739414" lon="86.712378">
        <ele>2649</ele>
        <time>2022-10-19T07:10:38.000Z</time>
      </trkpt>
      <trkpt lat="27.739427" lon="86.712397">
        <ele>2648.8</ele>
        <time>2022-10-19T07:10:43.000Z</time>
      </trkpt>
      <trkpt lat="27.739411" lon="86.712384">
        <ele>2649</ele>
        <time>2022-10-19T07:11:02.000Z</time>
      </trkpt>
      <trkpt lat="27.739392" lon="86.712371">
        <ele>2649</ele>
        <time>2022-10-19T07:11:08.000Z</time>
      </trkpt>
      <trkpt lat="27.739408" lon="86.712384">
        <ele>2648.8</ele>
        <time>2022-10-19T07:11:14.000Z</time>
      </trkpt>
      <trkpt lat="27.73943" lon="86.712397">
        <ele>2648.4</ele>
        <time>2022-10-19T07:11:46.000Z</time>
      </trkpt>
      <trkpt lat="27.73945" lon="86.712397">
        <ele>2647.2</ele>
        <time>2022-10-19T07:12:16.000Z</time>
      </trkpt>
      <trkpt lat="27.739462" lon="86.712416">
        <ele>2646.8</ele>
        <time>2022-10-19T07:12:19.000Z</time>
      </trkpt>
      <trkpt lat="27.739466" lon="86.712442">
        <ele>2646.6</ele>
        <time>2022-10-19T07:12:21.000Z</time>
      </trkpt>
      <trkpt lat="27.739459" lon="86.712422">
        <ele>2646.6</ele>
        <time>2022-10-19T07:12:23.000Z</time>
      </trkpt>
      <trkpt lat="27.739475" lon="86.712435">
        <ele>2647.2</ele>
        <time>2022-10-19T07:12:33.000Z</time>
      </trkpt>
      <trkpt lat="27.739453" lon="86.712442">
        <ele>2647.8</ele>
        <time>2022-10-19T07:12:38.000Z</time>
      </trkpt>
      <trkpt lat="27.739434" lon="86.712435">
        <ele>2647.8</ele>
        <time>2022-10-19T07:12:40.000Z</time>
      </trkpt>
      <trkpt lat="27.739331" lon="86.712371">
        <ele>2647.8</ele>
        <time>2022-10-19T07:15:36.000Z</time>
      </trkpt>
      <trkpt lat="27.739312" lon="86.712352">
        <ele>2647.4</ele>
        <time>2022-10-19T07:16:43.000Z</time>
      </trkpt>
      <trkpt lat="27.739338" lon="86.712365">
        <ele>2648</ele>
        <time>2022-10-19T07:16:45.000Z</time>
      </trkpt>
      <trkpt lat="27.739357" lon="86.712358">
        <ele>2648</ele>
        <time>2022-10-19T07:16:47.000Z</time>
      </trkpt>
      <trkpt lat="27.73936" lon="86.712326">
        <ele>2648</ele>
        <time>2022-10-19T07:16:49.000Z</time>
      </trkpt>
      <trkpt lat="27.739366" lon="86.712301">
        <ele>2648.2</ele>
        <time>2022-10-19T07:16:53.000Z</time>
      </trkpt>
      <trkpt lat="27.739373" lon="86.71232">
        <ele>2647</ele>
        <time>2022-10-19T07:17:01.000Z</time>
      </trkpt>
      <trkpt lat="27.73935" lon="86.712326">
        <ele>2647.2</ele>
        <time>2022-10-19T07:17:03.000Z</time>
      </trkpt>
      <trkpt lat="27.739347" lon="86.712301">
        <ele>2647.8</ele>
        <time>2022-10-19T07:17:10.000Z</time>
      </trkpt>
      <trkpt lat="27.739366" lon="86.712301">
        <ele>2647.4</ele>
        <time>2022-10-19T07:17:12.000Z</time>
      </trkpt>
      <trkpt lat="27.739389" lon="86.712301">
        <ele>2646.8</ele>
        <time>2022-10-19T07:17:14.000Z</time>
      </trkpt>
      <trkpt lat="27.739405" lon="86.712314">
        <ele>2646.6</ele>
        <time>2022-10-19T07:17:16.000Z</time>
      </trkpt>
      <trkpt lat="27.739434" lon="86.712301">
        <ele>2647.2</ele>
        <time>2022-10-19T07:17:19.000Z</time>
      </trkpt>
      <trkpt lat="27.739453" lon="86.712288">
        <ele>2647</ele>
        <time>2022-10-19T07:17:20.000Z</time>
      </trkpt>
      <trkpt lat="27.739462" lon="86.712314">
        <ele>2646.8</ele>
        <time>2022-10-19T07:17:22.000Z</time>
      </trkpt>
      <trkpt lat="27.739491" lon="86.712314">
        <ele>2647.4</ele>
        <time>2022-10-19T07:17:25.000Z</time>
      </trkpt>
      <trkpt lat="27.739517" lon="86.712326">
        <ele>2648.2</ele>
        <time>2022-10-19T07:17:27.000Z</time>
      </trkpt>
      <trkpt lat="27.739533" lon="86.712339">
        <ele>2648.2</ele>
        <time>2022-10-19T07:17:29.000Z</time>
      </trkpt>
      <trkpt lat="27.739533" lon="86.712365">
        <ele>2648.4</ele>
        <time>2022-10-19T07:17:32.000Z</time>
      </trkpt>
      <trkpt lat="27.739539" lon="86.712384">
        <ele>2648.8</ele>
        <time>2022-10-19T07:17:35.000Z</time>
      </trkpt>
      <trkpt lat="27.739565" lon="86.712378">
        <ele>2649.2</ele>
        <time>2022-10-19T07:17:37.000Z</time>
      </trkpt>
      <trkpt lat="27.739574" lon="86.712397">
        <ele>2649.4</ele>
        <time>2022-10-19T07:17:38.000Z</time>
      </trkpt>
      <trkpt lat="27.73959" lon="86.71241">
        <ele>2649.6</ele>
        <time>2022-10-19T07:17:40.000Z</time>
      </trkpt>
      <trkpt lat="27.73961" lon="86.71241">
        <ele>2649.6</ele>
        <time>2022-10-19T07:17:43.000Z</time>
      </trkpt>
      <trkpt lat="27.739629" lon="86.712416">
        <ele>2649.6</ele>
        <time>2022-10-19T07:17:45.000Z</time>
      </trkpt>
      <trkpt lat="27.739648" lon="86.712422">
        <ele>2649.4</ele>
        <time>2022-10-19T07:17:47.000Z</time>
      </trkpt>
      <trkpt lat="27.739664" lon="86.712435">
        <ele>2649.8</ele>
        <time>2022-10-19T07:17:51.000Z</time>
      </trkpt>
      <trkpt lat="27.73969" lon="86.712442">
        <ele>2650.2</ele>
        <time>2022-10-19T07:17:54.000Z</time>
      </trkpt>
      <trkpt lat="27.739712" lon="86.712454">
        <ele>2650.6</ele>
        <time>2022-10-19T07:17:57.000Z</time>
      </trkpt>
      <trkpt lat="27.739731" lon="86.712454">
        <ele>2650.4</ele>
        <time>2022-10-19T07:17:59.000Z</time>
      </trkpt>
      <trkpt lat="27.73975" lon="86.712474">
        <ele>2650.6</ele>
        <time>2022-10-19T07:18:02.000Z</time>
      </trkpt>
      <trkpt lat="27.73977" lon="86.712486">
        <ele>2650.4</ele>
        <time>2022-10-19T07:18:06.000Z</time>
      </trkpt>
      <trkpt lat="27.739789" lon="86.712499">
        <ele>2650.2</ele>
        <time>2022-10-19T07:18:10.000Z</time>
      </trkpt>
      <trkpt lat="27.739802" lon="86.712518">
        <ele>2648.8</ele>
        <time>2022-10-19T07:18:13.000Z</time>
      </trkpt>
      <trkpt lat="27.739821" lon="86.712531">
        <ele>2647.6</ele>
        <time>2022-10-19T07:18:16.000Z</time>
      </trkpt>
      <trkpt lat="27.73984" lon="86.71255">
        <ele>2647.6</ele>
        <time>2022-10-19T07:18:18.000Z</time>
      </trkpt>
      <trkpt lat="27.739859" lon="86.712563">
        <ele>2647.6</ele>
        <time>2022-10-19T07:18:20.000Z</time>
      </trkpt>
      <trkpt lat="27.739885" lon="86.71257">
        <ele>2647</ele>
        <time>2022-10-19T07:18:23.000Z</time>
      </trkpt>
      <trkpt lat="27.739901" lon="86.712582">
        <ele>2647</ele>
        <time>2022-10-19T07:18:25.000Z</time>
      </trkpt>
      <trkpt lat="27.73992" lon="86.712582">
        <ele>2647.2</ele>
        <time>2022-10-19T07:18:27.000Z</time>
      </trkpt>
      <trkpt lat="27.739939" lon="86.712602">
        <ele>2647.6</ele>
        <time>2022-10-19T07:18:30.000Z</time>
      </trkpt>
      <trkpt lat="27.739958" lon="86.712614">
        <ele>2648</ele>
        <time>2022-10-19T07:18:33.000Z</time>
      </trkpt>
      <trkpt lat="27.739968" lon="86.712634">
        <ele>2648</ele>
        <time>2022-10-19T07:18:34.000Z</time>
      </trkpt>
      <trkpt lat="27.739994" lon="86.71264">
        <ele>2648.2</ele>
        <time>2022-10-19T07:18:36.000Z</time>
      </trkpt>
      <trkpt lat="27.740013" lon="86.712659">
        <ele>2648.2</ele>
        <time>2022-10-19T07:18:39.000Z</time>
      </trkpt>
      <trkpt lat="27.740026" lon="86.712678">
        <ele>2648.6</ele>
        <time>2022-10-19T07:18:40.000Z</time>
      </trkpt>
      <trkpt lat="27.740045" lon="86.712685">
        <ele>2648.6</ele>
        <time>2022-10-19T07:18:45.000Z</time>
      </trkpt>
      <trkpt lat="27.740048" lon="86.712659">
        <ele>2648.6</ele>
        <time>2022-10-19T07:18:49.000Z</time>
      </trkpt>
      <trkpt lat="27.740061" lon="86.71264">
        <ele>2649.2</ele>
        <time>2022-10-19T07:18:52.000Z</time>
      </trkpt>
      <trkpt lat="27.74007" lon="86.712608">
        <ele>2649.2</ele>
        <time>2022-10-19T07:18:54.000Z</time>
      </trkpt>
      <trkpt lat="27.740093" lon="86.712602">
        <ele>2649</ele>
        <time>2022-10-19T07:18:56.000Z</time>
      </trkpt>
      <trkpt lat="27.740112" lon="86.712582">
        <ele>2648.8</ele>
        <time>2022-10-19T07:18:58.000Z</time>
      </trkpt>
      <trkpt lat="27.740138" lon="86.71257">
        <ele>2648.8</ele>
        <time>2022-10-19T07:19:01.000Z</time>
      </trkpt>
      <trkpt lat="27.740144" lon="86.71255">
        <ele>2649</ele>
        <time>2022-10-19T07:19:03.000Z</time>
      </trkpt>
      <trkpt lat="27.740147" lon="86.712499">
        <ele>2649</ele>
        <time>2022-10-19T07:19:05.000Z</time>
      </trkpt>
      <trkpt lat="27.740166" lon="86.712486">
        <ele>2648.8</ele>
        <time>2022-10-19T07:19:08.000Z</time>
      </trkpt>
      <trkpt lat="27.740182" lon="86.712474">
        <ele>2648.8</ele>
        <time>2022-10-19T07:19:12.000Z</time>
      </trkpt>
      <trkpt lat="27.740192" lon="86.712448">
        <ele>2650.4</ele>
        <time>2022-10-19T07:19:16.000Z</time>
      </trkpt>
      <trkpt lat="27.740214" lon="86.712422">
        <ele>2650.6</ele>
        <time>2022-10-19T07:19:19.000Z</time>
      </trkpt>
      <trkpt lat="27.74023" lon="86.71241">
        <ele>2650.6</ele>
        <time>2022-10-19T07:19:21.000Z</time>
      </trkpt>
      <trkpt lat="27.740246" lon="86.712397">
        <ele>2650.4</ele>
        <time>2022-10-19T07:19:23.000Z</time>
      </trkpt>
      <trkpt lat="27.740262" lon="86.712384">
        <ele>2650.6</ele>
        <time>2022-10-19T07:19:25.000Z</time>
      </trkpt>
      <trkpt lat="27.740285" lon="86.712384">
        <ele>2650.8</ele>
        <time>2022-10-19T07:19:27.000Z</time>
      </trkpt>
      <trkpt lat="27.740314" lon="86.712397">
        <ele>2651</ele>
        <time>2022-10-19T07:19:30.000Z</time>
      </trkpt>
      <trkpt lat="27.740336" lon="86.712397">
        <ele>2651.2</ele>
        <time>2022-10-19T07:19:32.000Z</time>
      </trkpt>
      <trkpt lat="27.740355" lon="86.712397">
        <ele>2651.2</ele>
        <time>2022-10-19T07:19:34.000Z</time>
      </trkpt>
      <trkpt lat="27.740381" lon="86.712403">
        <ele>2650.8</ele>
        <time>2022-10-19T07:19:37.000Z</time>
      </trkpt>
      <trkpt lat="27.740403" lon="86.71241">
        <ele>2650.8</ele>
        <time>2022-10-19T07:19:39.000Z</time>
      </trkpt>
      <trkpt lat="27.740429" lon="86.712416">
        <ele>2650.8</ele>
        <time>2022-10-19T07:19:42.000Z</time>
      </trkpt>
      <trkpt lat="27.740448" lon="86.712422">
        <ele>2652</ele>
        <time>2022-10-19T07:19:45.000Z</time>
      </trkpt>
      <trkpt lat="27.740454" lon="86.712442">
        <ele>2652</ele>
        <time>2022-10-19T07:19:47.000Z</time>
      </trkpt>
      <trkpt lat="27.74047" lon="86.712461">
        <ele>2652.2</ele>
        <time>2022-10-19T07:19:50.000Z</time>
      </trkpt>
      <trkpt lat="27.74047" lon="86.712486">
        <ele>2651.2</ele>
        <time>2022-10-19T07:20:01.000Z</time>
      </trkpt>
      <trkpt lat="27.740474" lon="86.712512">
        <ele>2651.6</ele>
        <time>2022-10-19T07:20:03.000Z</time>
      </trkpt>
      <trkpt lat="27.740486" lon="86.712531">
        <ele>2652.2</ele>
        <time>2022-10-19T07:20:10.000Z</time>
      </trkpt>
      <trkpt lat="27.740499" lon="86.71255">
        <ele>2652.4</ele>
        <time>2022-10-19T07:20:12.000Z</time>
      </trkpt>
      <trkpt lat="27.740522" lon="86.712563">
        <ele>2651.8</ele>
        <time>2022-10-19T07:20:15.000Z</time>
      </trkpt>
      <trkpt lat="27.740534" lon="86.712595">
        <ele>2652</ele>
        <time>2022-10-19T07:20:18.000Z</time>
      </trkpt>
      <trkpt lat="27.740544" lon="86.712614">
        <ele>2652.2</ele>
        <time>2022-10-19T07:20:20.000Z</time>
      </trkpt>
      <trkpt lat="27.740554" lon="86.712634">
        <ele>2652.6</ele>
        <time>2022-10-19T07:20:23.000Z</time>
      </trkpt>
      <trkpt lat="27.740563" lon="86.712659">
        <ele>2653.6</ele>
        <time>2022-10-19T07:20:29.000Z</time>
      </trkpt>
      <trkpt lat="27.74057" lon="86.712678">
        <ele>2653.8</ele>
        <time>2022-10-19T07:20:31.000Z</time>
      </trkpt>
      <trkpt lat="27.740576" lon="86.712698">
        <ele>2654</ele>
        <time>2022-10-19T07:20:34.000Z</time>
      </trkpt>
      <trkpt lat="27.740602" lon="86.712698">
        <ele>2654.4</ele>
        <time>2022-10-19T07:20:37.000Z</time>
      </trkpt>
      <trkpt lat="27.740614" lon="86.712723">
        <ele>2654.4</ele>
        <time>2022-10-19T07:20:39.000Z</time>
      </trkpt>
      <trkpt lat="27.740634" lon="86.712723">
        <ele>2654.4</ele>
        <time>2022-10-19T07:20:41.000Z</time>
      </trkpt>
      <trkpt lat="27.74065" lon="86.712736">
        <ele>2654.2</ele>
        <time>2022-10-19T07:20:43.000Z</time>
      </trkpt>
      <trkpt lat="27.740662" lon="86.712755">
        <ele>2654</ele>
        <time>2022-10-19T07:20:45.000Z</time>
      </trkpt>
      <trkpt lat="27.740688" lon="86.712762">
        <ele>2653.6</ele>
        <time>2022-10-19T07:20:47.000Z</time>
      </trkpt>
      <trkpt lat="27.74071" lon="86.712768">
        <ele>2653.6</ele>
        <time>2022-10-19T07:20:49.000Z</time>
      </trkpt>
      <trkpt lat="27.74073" lon="86.712781">
        <ele>2653.6</ele>
        <time>2022-10-19T07:20:51.000Z</time>
      </trkpt>
      <trkpt lat="27.740758" lon="86.712794">
        <ele>2653</ele>
        <time>2022-10-19T07:20:54.000Z</time>
      </trkpt>
      <trkpt lat="27.740774" lon="86.712813">
        <ele>2653</ele>
        <time>2022-10-19T07:20:56.000Z</time>
      </trkpt>
      <trkpt lat="27.74079" lon="86.712832">
        <ele>2652.8</ele>
        <time>2022-10-19T07:20:58.000Z</time>
      </trkpt>
      <trkpt lat="27.740816" lon="86.712845">
        <ele>2652.2</ele>
        <time>2022-10-19T07:21:01.000Z</time>
      </trkpt>
      <trkpt lat="27.740832" lon="86.712858">
        <ele>2651.8</ele>
        <time>2022-10-19T07:21:03.000Z</time>
      </trkpt>
      <trkpt lat="27.740851" lon="86.712877">
        <ele>2651.8</ele>
        <time>2022-10-19T07:21:05.000Z</time>
      </trkpt>
      <trkpt lat="27.74087" lon="86.712883">
        <ele>2651.4</ele>
        <time>2022-10-19T07:21:07.000Z</time>
      </trkpt>
      <trkpt lat="27.740893" lon="86.712896">
        <ele>2651.4</ele>
        <time>2022-10-19T07:21:10.000Z</time>
      </trkpt>
      <trkpt lat="27.740909" lon="86.712909">
        <ele>2651.6</ele>
        <time>2022-10-19T07:21:13.000Z</time>
      </trkpt>
      <trkpt lat="27.740928" lon="86.712922">
        <ele>2651.6</ele>
        <time>2022-10-19T07:21:16.000Z</time>
      </trkpt>
      <trkpt lat="27.740947" lon="86.712947">
        <ele>2651.2</ele>
        <time>2022-10-19T07:21:19.000Z</time>
      </trkpt>
      <trkpt lat="27.740966" lon="86.712947">
        <ele>2650.8</ele>
        <time>2022-10-19T07:21:22.000Z</time>
      </trkpt>
      <trkpt lat="27.740986" lon="86.712954">
        <ele>2650.8</ele>
        <time>2022-10-19T07:21:24.000Z</time>
      </trkpt>
      <trkpt lat="27.741011" lon="86.712954">
        <ele>2650.8</ele>
        <time>2022-10-19T07:21:27.000Z</time>
      </trkpt>
      <trkpt lat="27.74104" lon="86.712947">
        <ele>2650.6</ele>
        <time>2022-10-19T07:21:29.000Z</time>
      </trkpt>
      <trkpt lat="27.741062" lon="86.712947">
        <ele>2650.6</ele>
        <time>2022-10-19T07:21:31.000Z</time>
      </trkpt>
      <trkpt lat="27.741082" lon="86.712947">
        <ele>2650.6</ele>
        <time>2022-10-19T07:21:33.000Z</time>
      </trkpt>
      <trkpt lat="27.741104" lon="86.712947">
        <ele>2650.8</ele>
        <time>2022-10-19T07:21:35.000Z</time>
      </trkpt>
      <trkpt lat="27.741126" lon="86.712934">
        <ele>2650.6</ele>
        <time>2022-10-19T07:21:37.000Z</time>
      </trkpt>
      <trkpt lat="27.741146" lon="86.712947">
        <ele>2650.6</ele>
        <time>2022-10-19T07:21:39.000Z</time>
      </trkpt>
      <trkpt lat="27.741168" lon="86.712947">
        <ele>2650.4</ele>
        <time>2022-10-19T07:21:42.000Z</time>
      </trkpt>
      <trkpt lat="27.741187" lon="86.712947">
        <ele>2650.4</ele>
        <time>2022-10-19T07:21:44.000Z</time>
      </trkpt>
      <trkpt lat="27.74121" lon="86.712947">
        <ele>2650.6</ele>
        <time>2022-10-19T07:21:46.000Z</time>
      </trkpt>
      <trkpt lat="27.741232" lon="86.712934">
        <ele>2650.6</ele>
        <time>2022-10-19T07:21:48.000Z</time>
      </trkpt>
      <trkpt lat="27.741264" lon="86.712928">
        <ele>2650.8</ele>
        <time>2022-10-19T07:21:51.000Z</time>
      </trkpt>
      <trkpt lat="27.74129" lon="86.712934">
        <ele>2650.4</ele>
        <time>2022-10-19T07:21:54.000Z</time>
      </trkpt>
      <trkpt lat="27.741306" lon="86.712947">
        <ele>2650.6</ele>
        <time>2022-10-19T07:21:56.000Z</time>
      </trkpt>
      <trkpt lat="27.741322" lon="86.712966">
        <ele>2650.6</ele>
        <time>2022-10-19T07:21:58.000Z</time>
      </trkpt>
      <trkpt lat="27.741341" lon="86.712992">
        <ele>2650</ele>
        <time>2022-10-19T07:22:00.000Z</time>
      </trkpt>
      <trkpt lat="27.74135" lon="86.713011">
        <ele>2650</ele>
        <time>2022-10-19T07:22:02.000Z</time>
      </trkpt>
      <trkpt lat="27.741357" lon="86.71303">
        <ele>2649.8</ele>
        <time>2022-10-19T07:22:03.000Z</time>
      </trkpt>
      <trkpt lat="27.741382" lon="86.713037">
        <ele>2649.8</ele>
        <time>2022-10-19T07:22:05.000Z</time>
      </trkpt>
      <trkpt lat="27.741408" lon="86.713043">
        <ele>2649.8</ele>
        <time>2022-10-19T07:22:07.000Z</time>
      </trkpt>
      <trkpt lat="27.741437" lon="86.713037">
        <ele>2649.6</ele>
        <time>2022-10-19T07:22:09.000Z</time>
      </trkpt>
      <trkpt lat="27.741456" lon="86.713043">
        <ele>2649</ele>
        <time>2022-10-19T07:22:11.000Z</time>
      </trkpt>
      <trkpt lat="27.741475" lon="86.713037">
        <ele>2649.4</ele>
        <time>2022-10-19T07:22:14.000Z</time>
      </trkpt>
      <trkpt lat="27.741501" lon="86.713037">
        <ele>2649.6</ele>
        <time>2022-10-19T07:22:17.000Z</time>
      </trkpt>
      <trkpt lat="27.741523" lon="86.71303">
        <ele>2650.2</ele>
        <time>2022-10-19T07:22:20.000Z</time>
      </trkpt>
      <trkpt lat="27.741552" lon="86.71303">
        <ele>2650</ele>
        <time>2022-10-19T07:22:23.000Z</time>
      </trkpt>
      <trkpt lat="27.741568" lon="86.713018">
        <ele>2650.2</ele>
        <time>2022-10-19T07:22:25.000Z</time>
      </trkpt>
      <trkpt lat="27.741587" lon="86.713018">
        <ele>2650.2</ele>
        <time>2022-10-19T07:22:27.000Z</time>
      </trkpt>
      <trkpt lat="27.741613" lon="86.713018">
        <ele>2650</ele>
        <time>2022-10-19T07:22:29.000Z</time>
      </trkpt>
      <trkpt lat="27.741629" lon="86.713037">
        <ele>2649.8</ele>
        <time>2022-10-19T07:22:31.000Z</time>
      </trkpt>
      <trkpt lat="27.741651" lon="86.713037">
        <ele>2649.8</ele>
        <time>2022-10-19T07:22:34.000Z</time>
      </trkpt>
      <trkpt lat="27.74167" lon="86.71303">
        <ele>2649.8</ele>
        <time>2022-10-19T07:22:37.000Z</time>
      </trkpt>
      <trkpt lat="27.741683" lon="86.713005">
        <ele>2651</ele>
        <time>2022-10-19T07:22:40.000Z</time>
      </trkpt>
      <trkpt lat="27.741706" lon="86.712979">
        <ele>2650.8</ele>
        <time>2022-10-19T07:22:44.000Z</time>
      </trkpt>
      <trkpt lat="27.741722" lon="86.712966">
        <ele>2651.8</ele>
        <time>2022-10-19T07:22:49.000Z</time>
      </trkpt>
      <trkpt lat="27.741725" lon="86.712934">
        <ele>2652.2</ele>
        <time>2022-10-19T07:23:02.000Z</time>
      </trkpt>
      <trkpt lat="27.741731" lon="86.712909">
        <ele>2652.4</ele>
        <time>2022-10-19T07:23:05.000Z</time>
      </trkpt>
      <trkpt lat="27.74175" lon="86.712896">
        <ele>2652.2</ele>
        <time>2022-10-19T07:23:06.000Z</time>
      </trkpt>
      <trkpt lat="27.741763" lon="86.712915">
        <ele>2652.6</ele>
        <time>2022-10-19T07:23:09.000Z</time>
      </trkpt>
      <trkpt lat="27.74175" lon="86.712934">
        <ele>2652.8</ele>
        <time>2022-10-19T07:23:15.000Z</time>
      </trkpt>
      <trkpt lat="27.741734" lon="86.712947">
        <ele>2653</ele>
        <time>2022-10-19T07:23:19.000Z</time>
      </trkpt>
      <trkpt lat="27.741725" lon="86.712928">
        <ele>2653</ele>
        <time>2022-10-19T07:23:47.000Z</time>
      </trkpt>
      <trkpt lat="27.74175" lon="86.712915">
        <ele>2654</ele>
        <time>2022-10-19T07:23:51.000Z</time>
      </trkpt>
      <trkpt lat="27.74177" lon="86.712915">
        <ele>2653.8</ele>
        <time>2022-10-19T07:23:53.000Z</time>
      </trkpt>
      <trkpt lat="27.741792" lon="86.712928">
        <ele>2654</ele>
        <time>2022-10-19T07:23:55.000Z</time>
      </trkpt>
      <trkpt lat="27.741821" lon="86.712954">
        <ele>2654</ele>
        <time>2022-10-19T07:23:57.000Z</time>
      </trkpt>
      <trkpt lat="27.74184" lon="86.712954">
        <ele>2654.2</ele>
        <time>2022-10-19T07:23:58.000Z</time>
      </trkpt>
      <trkpt lat="27.741862" lon="86.712947">
        <ele>2654.6</ele>
        <time>2022-10-19T07:24:00.000Z</time>
      </trkpt>
      <trkpt lat="27.741891" lon="86.71296">
        <ele>2655.4</ele>
        <time>2022-10-19T07:24:03.000Z</time>
      </trkpt>
      <trkpt lat="27.741914" lon="86.712973">
        <ele>2656.2</ele>
        <time>2022-10-19T07:24:06.000Z</time>
      </trkpt>
      <trkpt lat="27.741933" lon="86.712979">
        <ele>2656.6</ele>
        <time>2022-10-19T07:24:08.000Z</time>
      </trkpt>
      <trkpt lat="27.741936" lon="86.713005">
        <ele>2656.8</ele>
        <time>2022-10-19T07:24:11.000Z</time>
      </trkpt>
      <trkpt lat="27.741949" lon="86.71303">
        <ele>2656.6</ele>
        <time>2022-10-19T07:24:14.000Z</time>
      </trkpt>
      <trkpt lat="27.741994" lon="86.71303">
        <ele>2656.6</ele>
        <time>2022-10-19T07:24:18.000Z</time>
      </trkpt>
      <trkpt lat="27.742029" lon="86.713043">
        <ele>2656.6</ele>
        <time>2022-10-19T07:24:19.000Z</time>
      </trkpt>
      <trkpt lat="27.742054" lon="86.713043">
        <ele>2656.6</ele>
        <time>2022-10-19T07:24:21.000Z</time>
      </trkpt>
      <trkpt lat="27.742074" lon="86.713043">
        <ele>2655.8</ele>
        <time>2022-10-19T07:24:28.000Z</time>
      </trkpt>
      <trkpt lat="27.742035" lon="86.713088">
        <ele>2655.4</ele>
        <time>2022-10-19T07:25:04.000Z</time>
      </trkpt>
      <trkpt lat="27.742042" lon="86.713114">
        <ele>2655.2</ele>
        <time>2022-10-19T07:25:07.000Z</time>
      </trkpt>
      <trkpt lat="27.742051" lon="86.713133">
        <ele>2654.4</ele>
        <time>2022-10-19T07:25:11.000Z</time>
      </trkpt>
      <trkpt lat="27.742064" lon="86.713158">
        <ele>2654.2</ele>
        <time>2022-10-19T07:25:13.000Z</time>
      </trkpt>
      <trkpt lat="27.74207" lon="86.71319">
        <ele>2654</ele>
        <time>2022-10-19T07:25:15.000Z</time>
      </trkpt>
      <trkpt lat="27.74208" lon="86.71321">
        <ele>2653.4</ele>
        <time>2022-10-19T07:25:17.000Z</time>
      </trkpt>
      <trkpt lat="27.742086" lon="86.713229">
        <ele>2653.2</ele>
        <time>2022-10-19T07:25:18.000Z</time>
      </trkpt>
      <trkpt lat="27.742102" lon="86.713242">
        <ele>2653.2</ele>
        <time>2022-10-19T07:25:20.000Z</time>
      </trkpt>
      <trkpt lat="27.742122" lon="86.713267">
        <ele>2653.2</ele>
        <time>2022-10-19T07:25:23.000Z</time>
      </trkpt>
      <trkpt lat="27.742154" lon="86.71328">
        <ele>2652.8</ele>
        <time>2022-10-19T07:25:25.000Z</time>
      </trkpt>
      <trkpt lat="27.742173" lon="86.71328">
        <ele>2652.8</ele>
        <time>2022-10-19T07:25:26.000Z</time>
      </trkpt>
      <trkpt lat="27.742195" lon="86.713293">
        <ele>2652.6</ele>
        <time>2022-10-19T07:25:28.000Z</time>
      </trkpt>
      <trkpt lat="27.742202" lon="86.713312">
        <ele>2652.4</ele>
        <time>2022-10-19T07:25:30.000Z</time>
      </trkpt>
      <trkpt lat="27.742214" lon="86.713331">
        <ele>2652.4</ele>
        <time>2022-10-19T07:25:32.000Z</time>
      </trkpt>
      <trkpt lat="27.742243" lon="86.713338">
        <ele>2652.4</ele>
        <time>2022-10-19T07:25:34.000Z</time>
      </trkpt>
      <trkpt lat="27.742266" lon="86.71335">
        <ele>2652.4</ele>
        <time>2022-10-19T07:25:36.000Z</time>
      </trkpt>
      <trkpt lat="27.742278" lon="86.713331">
        <ele>2651.6</ele>
        <time>2022-10-19T07:25:45.000Z</time>
      </trkpt>
      <trkpt lat="27.742285" lon="86.713306">
        <ele>2651.4</ele>
        <time>2022-10-19T07:25:48.000Z</time>
      </trkpt>
      <trkpt lat="27.742294" lon="86.713286">
        <ele>2650.8</ele>
        <time>2022-10-19T07:25:50.000Z</time>
      </trkpt>
      <trkpt lat="27.742307" lon="86.713267">
        <ele>2650.6</ele>
        <time>2022-10-19T07:25:52.000Z</time>
      </trkpt>
      <trkpt lat="27.742298" lon="86.713229">
        <ele>2650.4</ele>
        <time>2022-10-19T07:25:53.000Z</time>
      </trkpt>
      <trkpt lat="27.742307" lon="86.713178">
        <ele>2650.4</ele>
        <time>2022-10-19T07:25:54.000Z</time>
      </trkpt>
      <trkpt lat="27.742307" lon="86.713133">
        <ele>2650</ele>
        <time>2022-10-19T07:25:55.000Z</time>
      </trkpt>
      <trkpt lat="27.74233" lon="86.713088">
        <ele>2649.6</ele>
        <time>2022-10-19T07:25:57.000Z</time>
      </trkpt>
      <trkpt lat="27.742342" lon="86.71305">
        <ele>2649</ele>
        <time>2022-10-19T07:25:59.000Z</time>
      </trkpt>
      <trkpt lat="27.742368" lon="86.71303">
        <ele>2648.8</ele>
        <time>2022-10-19T07:26:00.000Z</time>
      </trkpt>
      <trkpt lat="27.742381" lon="86.713011">
        <ele>2648.8</ele>
        <time>2022-10-19T07:26:01.000Z</time>
      </trkpt>
      <trkpt lat="27.74239" lon="86.712979">
        <ele>2648.6</ele>
        <time>2022-10-19T07:26:03.000Z</time>
      </trkpt>
      <trkpt lat="27.742374" lon="86.712992">
        <ele>2648.6</ele>
        <time>2022-10-19T07:26:13.000Z</time>
      </trkpt>
      <trkpt lat="27.742378" lon="86.713043">
        <ele>2648.8</ele>
        <time>2022-10-19T07:26:15.000Z</time>
      </trkpt>
      <trkpt lat="27.742397" lon="86.713069">
        <ele>2648.8</ele>
        <time>2022-10-19T07:26:17.000Z</time>
      </trkpt>
      <trkpt lat="27.742413" lon="86.713082">
        <ele>2648.6</ele>
        <time>2022-10-19T07:26:19.000Z</time>
      </trkpt>
      <trkpt lat="27.742419" lon="86.713107">
        <ele>2648.2</ele>
        <time>2022-10-19T07:26:29.000Z</time>
      </trkpt>
      <trkpt lat="27.742406" lon="86.713133">
        <ele>2648.4</ele>
        <time>2022-10-19T07:26:55.000Z</time>
      </trkpt>
      <trkpt lat="27.742397" lon="86.713171">
        <ele>2648.4</ele>
        <time>2022-10-19T07:26:58.000Z</time>
      </trkpt>
      <trkpt lat="27.74239" lon="86.71319">
        <ele>2648.2</ele>
        <time>2022-10-19T07:27:15.000Z</time>
      </trkpt>
      <trkpt lat="27.742416" lon="86.713216">
        <ele>2648.2</ele>
        <time>2022-10-19T07:27:28.000Z</time>
      </trkpt>
      <trkpt lat="27.742435" lon="86.713235">
        <ele>2648.2</ele>
        <time>2022-10-19T07:27:29.000Z</time>
      </trkpt>
      <trkpt lat="27.742461" lon="86.713274">
        <ele>2648</ele>
        <time>2022-10-19T07:27:31.000Z</time>
      </trkpt>
      <trkpt lat="27.742483" lon="86.713312">
        <ele>2647.8</ele>
        <time>2022-10-19T07:27:33.000Z</time>
      </trkpt>
      <trkpt lat="27.742509" lon="86.713338">
        <ele>2647.2</ele>
        <time>2022-10-19T07:27:35.000Z</time>
      </trkpt>
      <trkpt lat="27.742522" lon="86.713363">
        <ele>2647.2</ele>
        <time>2022-10-19T07:27:36.000Z</time>
      </trkpt>
      <trkpt lat="27.742534" lon="86.713389">
        <ele>2647</ele>
        <time>2022-10-19T07:27:38.000Z</time>
      </trkpt>
      <trkpt lat="27.74255" lon="86.713402">
        <ele>2647</ele>
        <time>2022-10-19T07:27:40.000Z</time>
      </trkpt>
      <trkpt lat="27.742566" lon="86.713414">
        <ele>2646.2</ele>
        <time>2022-10-19T07:27:43.000Z</time>
      </trkpt>
      <trkpt lat="27.742598" lon="86.713427">
        <ele>2646.2</ele>
        <time>2022-10-19T07:27:45.000Z</time>
      </trkpt>
      <trkpt lat="27.742621" lon="86.713434">
        <ele>2646.2</ele>
        <time>2022-10-19T07:27:47.000Z</time>
      </trkpt>
      <trkpt lat="27.74264" lon="86.713446">
        <ele>2646.4</ele>
        <time>2022-10-19T07:27:49.000Z</time>
      </trkpt>
      <trkpt lat="27.742662" lon="86.713453">
        <ele>2646.4</ele>
        <time>2022-10-19T07:27:51.000Z</time>
      </trkpt>
      <trkpt lat="27.742694" lon="86.71344">
        <ele>2646.4</ele>
        <time>2022-10-19T07:27:53.000Z</time>
      </trkpt>
      <trkpt lat="27.742685" lon="86.713472">
        <ele>2646.6</ele>
        <time>2022-10-19T07:27:56.000Z</time>
      </trkpt>
      <trkpt lat="27.742691" lon="86.71351">
        <ele>2646.4</ele>
        <time>2022-10-19T07:28:01.000Z</time>
      </trkpt>
      <trkpt lat="27.742707" lon="86.713523">
        <ele>2646.2</ele>
        <time>2022-10-19T07:28:04.000Z</time>
      </trkpt>
      <trkpt lat="27.74273" lon="86.71353">
        <ele>2645.8</ele>
        <time>2022-10-19T07:28:07.000Z</time>
      </trkpt>
      <trkpt lat="27.742755" lon="86.713536">
        <ele>2645.6</ele>
        <time>2022-10-19T07:28:09.000Z</time>
      </trkpt>
      <trkpt lat="27.742778" lon="86.713562">
        <ele>2645.6</ele>
        <time>2022-10-19T07:28:10.000Z</time>
      </trkpt>
      <trkpt lat="27.742797" lon="86.713587">
        <ele>2645.6</ele>
        <time>2022-10-19T07:28:11.000Z</time>
      </trkpt>
      <trkpt lat="27.742816" lon="86.713606">
        <ele>2645.2</ele>
        <time>2022-10-19T07:28:13.000Z</time>
      </trkpt>
      <trkpt lat="27.742829" lon="86.713638">
        <ele>2644.4</ele>
        <time>2022-10-19T07:28:15.000Z</time>
      </trkpt>
      <trkpt lat="27.742835" lon="86.713664">
        <ele>2644.2</ele>
        <time>2022-10-19T07:28:17.000Z</time>
      </trkpt>
      <trkpt lat="27.742858" lon="86.713677">
        <ele>2643.8</ele>
        <time>2022-10-19T07:28:19.000Z</time>
      </trkpt>
      <trkpt lat="27.742874" lon="86.71369">
        <ele>2643</ele>
        <time>2022-10-19T07:28:26.000Z</time>
      </trkpt>
      <trkpt lat="27.742896" lon="86.713702">
        <ele>2642.6</ele>
        <time>2022-10-19T07:28:28.000Z</time>
      </trkpt>
      <trkpt lat="27.742915" lon="86.713709">
        <ele>2642</ele>
        <time>2022-10-19T07:28:30.000Z</time>
      </trkpt>
      <trkpt lat="27.742944" lon="86.713715">
        <ele>2642</ele>
        <time>2022-10-19T07:28:33.000Z</time>
      </trkpt>
      <trkpt lat="27.742976" lon="86.713715">
        <ele>2642</ele>
        <time>2022-10-19T07:28:36.000Z</time>
      </trkpt>
      <trkpt lat="27.742998" lon="86.713728">
        <ele>2642.6</ele>
        <time>2022-10-19T07:28:39.000Z</time>
      </trkpt>
      <trkpt lat="27.743018" lon="86.713728">
        <ele>2642.2</ele>
        <time>2022-10-19T07:28:41.000Z</time>
      </trkpt>
      <trkpt lat="27.743037" lon="86.713734">
        <ele>2642.2</ele>
        <time>2022-10-19T07:28:43.000Z</time>
      </trkpt>
      <trkpt lat="27.743059" lon="86.713728">
        <ele>2642</ele>
        <time>2022-10-19T07:28:45.000Z</time>
      </trkpt>
      <trkpt lat="27.743085" lon="86.713728">
        <ele>2642</ele>
        <time>2022-10-19T07:28:47.000Z</time>
      </trkpt>
      <trkpt lat="27.743114" lon="86.713734">
        <ele>2642.6</ele>
        <time>2022-10-19T07:28:49.000Z</time>
      </trkpt>
      <trkpt lat="27.74313" lon="86.713747">
        <ele>2642.6</ele>
        <time>2022-10-19T07:28:51.000Z</time>
      </trkpt>
      <trkpt lat="27.743155" lon="86.71376">
        <ele>2643</ele>
        <time>2022-10-19T07:28:54.000Z</time>
      </trkpt>
      <trkpt lat="27.743181" lon="86.713766">
        <ele>2642.6</ele>
        <time>2022-10-19T07:28:57.000Z</time>
      </trkpt>
      <trkpt lat="27.743203" lon="86.71376">
        <ele>2642.6</ele>
        <time>2022-10-19T07:28:59.000Z</time>
      </trkpt>
      <trkpt lat="27.743222" lon="86.713754">
        <ele>2642.2</ele>
        <time>2022-10-19T07:29:02.000Z</time>
      </trkpt>
      <trkpt lat="27.743245" lon="86.713766">
        <ele>2642</ele>
        <time>2022-10-19T07:29:04.000Z</time>
      </trkpt>
      <trkpt lat="27.743267" lon="86.71376">
        <ele>2641.4</ele>
        <time>2022-10-19T07:29:09.000Z</time>
      </trkpt>
      <trkpt lat="27.743296" lon="86.71376">
        <ele>2640.8</ele>
        <time>2022-10-19T07:29:12.000Z</time>
      </trkpt>
      <trkpt lat="27.743325" lon="86.71376">
        <ele>2640.6</ele>
        <time>2022-10-19T07:29:14.000Z</time>
      </trkpt>
      <trkpt lat="27.743354" lon="86.713766">
        <ele>2640.4</ele>
        <time>2022-10-19T07:29:16.000Z</time>
      </trkpt>
      <trkpt lat="27.743379" lon="86.713786">
        <ele>2640.4</ele>
        <time>2022-10-19T07:29:18.000Z</time>
      </trkpt>
      <trkpt lat="27.743402" lon="86.713792">
        <ele>2640.4</ele>
        <time>2022-10-19T07:29:20.000Z</time>
      </trkpt>
      <trkpt lat="27.743421" lon="86.713798">
        <ele>2640.4</ele>
        <time>2022-10-19T07:29:22.000Z</time>
      </trkpt>
      <trkpt lat="27.743446" lon="86.713798">
        <ele>2640.6</ele>
        <time>2022-10-19T07:29:25.000Z</time>
      </trkpt>
      <trkpt lat="27.743434" lon="86.713773">
        <ele>2641</ele>
        <time>2022-10-19T07:29:35.000Z</time>
      </trkpt>
      <trkpt lat="27.74344" lon="86.713754">
        <ele>2640.8</ele>
        <time>2022-10-19T07:29:41.000Z</time>
      </trkpt>
      <trkpt lat="27.743434" lon="86.713786">
        <ele>2641.2</ele>
        <time>2022-10-19T07:29:59.000Z</time>
      </trkpt>
      <trkpt lat="27.74345" lon="86.713773">
        <ele>2640.6</ele>
        <time>2022-10-19T07:30:42.000Z</time>
      </trkpt>
      <trkpt lat="27.743469" lon="86.71376">
        <ele>2640.4</ele>
        <time>2022-10-19T07:30:46.000Z</time>
      </trkpt>
      <trkpt lat="27.743459" lon="86.713734">
        <ele>2640.4</ele>
        <time>2022-10-19T07:30:49.000Z</time>
      </trkpt>
      <trkpt lat="27.743469" lon="86.713715">
        <ele>2640.2</ele>
        <time>2022-10-19T07:30:52.000Z</time>
      </trkpt>
      <trkpt lat="27.743478" lon="86.71369">
        <ele>2639.4</ele>
        <time>2022-10-19T07:30:54.000Z</time>
      </trkpt>
      <trkpt lat="27.743485" lon="86.71367">
        <ele>2639.4</ele>
        <time>2022-10-19T07:31:00.000Z</time>
      </trkpt>
      <trkpt lat="27.743478" lon="86.713645">
        <ele>2639</ele>
        <time>2022-10-19T07:31:03.000Z</time>
      </trkpt>
      <trkpt lat="27.743459" lon="86.713626">
        <ele>2638.6</ele>
        <time>2022-10-19T07:31:06.000Z</time>
      </trkpt>
      <trkpt lat="27.743469" lon="86.713606">
        <ele>2638.4</ele>
        <time>2022-10-19T07:31:09.000Z</time>
      </trkpt>
      <trkpt lat="27.743462" lon="86.713587">
        <ele>2638.2</ele>
        <time>2022-10-19T07:31:13.000Z</time>
      </trkpt>
      <trkpt lat="27.743466" lon="86.713562">
        <ele>2635.8</ele>
        <time>2022-10-19T07:31:42.000Z</time>
      </trkpt>
      <trkpt lat="27.743475" lon="86.713536">
        <ele>2636.2</ele>
        <time>2022-10-19T07:31:43.000Z</time>
      </trkpt>
      <trkpt lat="27.743478" lon="86.713491">
        <ele>2635.8</ele>
        <time>2022-10-19T07:31:45.000Z</time>
      </trkpt>
      <trkpt lat="27.743482" lon="86.713453">
        <ele>2635.8</ele>
        <time>2022-10-19T07:31:47.000Z</time>
      </trkpt>
      <trkpt lat="27.743491" lon="86.713427">
        <ele>2636</ele>
        <time>2022-10-19T07:31:49.000Z</time>
      </trkpt>
      <trkpt lat="27.743501" lon="86.713402">
        <ele>2636.4</ele>
        <time>2022-10-19T07:31:51.000Z</time>
      </trkpt>
      <trkpt lat="27.743517" lon="86.713376">
        <ele>2636</ele>
        <time>2022-10-19T07:31:57.000Z</time>
      </trkpt>
      <trkpt lat="27.743533" lon="86.713363">
        <ele>2636</ele>
        <time>2022-10-19T07:32:00.000Z</time>
      </trkpt>
      <trkpt lat="27.743542" lon="86.713338">
        <ele>2636</ele>
        <time>2022-10-19T07:32:02.000Z</time>
      </trkpt>
      <trkpt lat="27.743549" lon="86.713318">
        <ele>2635.8</ele>
        <time>2022-10-19T07:32:04.000Z</time>
      </trkpt>
      <trkpt lat="27.743549" lon="86.713286">
        <ele>2636</ele>
        <time>2022-10-19T07:32:06.000Z</time>
      </trkpt>
      <trkpt lat="27.743562" lon="86.713254">
        <ele>2635.2</ele>
        <time>2022-10-19T07:32:09.000Z</time>
      </trkpt>
      <trkpt lat="27.743562" lon="86.71328">
        <ele>2636.4</ele>
        <time>2022-10-19T07:32:22.000Z</time>
      </trkpt>
      <trkpt lat="27.743555" lon="86.713306">
        <ele>2635.8</ele>
        <time>2022-10-19T07:32:25.000Z</time>
      </trkpt>
      <trkpt lat="27.743549" lon="86.71328">
        <ele>2635.4</ele>
        <time>2022-10-19T07:32:41.000Z</time>
      </trkpt>
      <trkpt lat="27.743555" lon="86.713248">
        <ele>2636</ele>
        <time>2022-10-19T07:32:46.000Z</time>
      </trkpt>
      <trkpt lat="27.743549" lon="86.713229">
        <ele>2635.4</ele>
        <time>2022-10-19T07:32:54.000Z</time>
      </trkpt>
      <trkpt lat="27.743558" lon="86.713203">
        <ele>2635.4</ele>
        <time>2022-10-19T07:32:57.000Z</time>
      </trkpt>
      <trkpt lat="27.743562" lon="86.713171">
        <ele>2635.6</ele>
        <time>2022-10-19T07:32:59.000Z</time>
      </trkpt>
      <trkpt lat="27.743578" lon="86.713152">
        <ele>2635.4</ele>
        <time>2022-10-19T07:33:02.000Z</time>
      </trkpt>
      <trkpt lat="27.743587" lon="86.713126">
        <ele>2635.6</ele>
        <time>2022-10-19T07:33:04.000Z</time>
      </trkpt>
      <trkpt lat="27.7436" lon="86.713107">
        <ele>2635.2</ele>
        <time>2022-10-19T07:33:06.000Z</time>
      </trkpt>
      <trkpt lat="27.7436" lon="86.713082">
        <ele>2635.2</ele>
        <time>2022-10-19T07:33:08.000Z</time>
      </trkpt>
      <trkpt lat="27.743603" lon="86.713056">
        <ele>2635.4</ele>
        <time>2022-10-19T07:33:10.000Z</time>
      </trkpt>
      <trkpt lat="27.74361" lon="86.713018">
        <ele>2637</ele>
        <time>2022-10-19T07:34:26.000Z</time>
      </trkpt>
      <trkpt lat="27.743622" lon="86.712992">
        <ele>2637</ele>
        <time>2022-10-19T07:34:28.000Z</time>
      </trkpt>
      <trkpt lat="27.743629" lon="86.712973">
        <ele>2636.8</ele>
        <time>2022-10-19T07:34:29.000Z</time>
      </trkpt>
      <trkpt lat="27.743648" lon="86.712947">
        <ele>2637</ele>
        <time>2022-10-19T07:34:31.000Z</time>
      </trkpt>
      <trkpt lat="27.743654" lon="86.712928">
        <ele>2637</ele>
        <time>2022-10-19T07:34:32.000Z</time>
      </trkpt>
      <trkpt lat="27.743664" lon="86.712896">
        <ele>2637</ele>
        <time>2022-10-19T07:34:34.000Z</time>
      </trkpt>
      <trkpt lat="27.74368" lon="86.712877">
        <ele>2637</ele>
        <time>2022-10-19T07:34:37.000Z</time>
      </trkpt>
      <trkpt lat="27.743683" lon="86.712851">
        <ele>2637.4</ele>
        <time>2022-10-19T07:34:39.000Z</time>
      </trkpt>
      <trkpt lat="27.743683" lon="86.712819">
        <ele>2638</ele>
        <time>2022-10-19T07:34:43.000Z</time>
      </trkpt>
      <trkpt lat="27.743664" lon="86.712813">
        <ele>2638.4</ele>
        <time>2022-10-19T07:34:49.000Z</time>
      </trkpt>
      <trkpt lat="27.743642" lon="86.712813">
        <ele>2638.2</ele>
        <time>2022-10-19T07:34:52.000Z</time>
      </trkpt>
      <trkpt lat="27.743626" lon="86.7128">
        <ele>2638</ele>
        <time>2022-10-19T07:34:56.000Z</time>
      </trkpt>
      <trkpt lat="27.74359" lon="86.712762">
        <ele>2638</ele>
        <time>2022-10-19T07:35:03.000Z</time>
      </trkpt>
      <trkpt lat="27.743597" lon="86.712736">
        <ele>2638</ele>
        <time>2022-10-19T07:35:05.000Z</time>
      </trkpt>
      <trkpt lat="27.74361" lon="86.712717">
        <ele>2638</ele>
        <time>2022-10-19T07:35:08.000Z</time>
      </trkpt>
      <trkpt lat="27.743619" lon="86.712698">
        <ele>2637.6</ele>
        <time>2022-10-19T07:35:10.000Z</time>
      </trkpt>
      <trkpt lat="27.743629" lon="86.712672">
        <ele>2638</ele>
        <time>2022-10-19T07:35:12.000Z</time>
      </trkpt>
      <trkpt lat="27.743638" lon="86.712646">
        <ele>2637.6</ele>
        <time>2022-10-19T07:35:15.000Z</time>
      </trkpt>
      <trkpt lat="27.743654" lon="86.712614">
        <ele>2637.6</ele>
        <time>2022-10-19T07:35:18.000Z</time>
      </trkpt>
      <trkpt lat="27.743677" lon="86.712602">
        <ele>2637.8</ele>
        <time>2022-10-19T07:35:21.000Z</time>
      </trkpt>
      <trkpt lat="27.743686" lon="86.712582">
        <ele>2637.8</ele>
        <time>2022-10-19T07:35:24.000Z</time>
      </trkpt>
      <trkpt lat="27.743699" lon="86.712557">
        <ele>2637.6</ele>
        <time>2022-10-19T07:35:33.000Z</time>
      </trkpt>
      <trkpt lat="27.743706" lon="86.712538">
        <ele>2637.6</ele>
        <time>2022-10-19T07:35:35.000Z</time>
      </trkpt>
      <trkpt lat="27.743712" lon="86.712518">
        <ele>2637.6</ele>
        <time>2022-10-19T07:35:37.000Z</time>
      </trkpt>
      <trkpt lat="27.743728" lon="86.712499">
        <ele>2638</ele>
        <time>2022-10-19T07:35:39.000Z</time>
      </trkpt>
      <trkpt lat="27.743741" lon="86.71248">
        <ele>2638</ele>
        <time>2022-10-19T07:35:41.000Z</time>
      </trkpt>
      <trkpt lat="27.743747" lon="86.712454">
        <ele>2638.2</ele>
        <time>2022-10-19T07:35:43.000Z</time>
      </trkpt>
      <trkpt lat="27.743757" lon="86.712435">
        <ele>2637.8</ele>
        <time>2022-10-19T07:35:46.000Z</time>
      </trkpt>
      <trkpt lat="27.743766" lon="86.71241">
        <ele>2638.2</ele>
        <time>2022-10-19T07:35:48.000Z</time>
      </trkpt>
      <trkpt lat="27.743786" lon="86.712397">
        <ele>2638</ele>
        <time>2022-10-19T07:35:51.000Z</time>
      </trkpt>
      <trkpt lat="27.743792" lon="86.712378">
        <ele>2637.8</ele>
        <time>2022-10-19T07:35:53.000Z</time>
      </trkpt>
      <trkpt lat="27.743811" lon="86.712365">
        <ele>2637.8</ele>
        <time>2022-10-19T07:35:58.000Z</time>
      </trkpt>
      <trkpt lat="27.743834" lon="86.712378">
        <ele>2638.4</ele>
        <time>2022-10-19T07:36:02.000Z</time>
      </trkpt>
      <trkpt lat="27.743859" lon="86.712384">
        <ele>2638.6</ele>
        <time>2022-10-19T07:36:05.000Z</time>
      </trkpt>
      <trkpt lat="27.743878" lon="86.712384">
        <ele>2639.8</ele>
        <time>2022-10-19T07:36:10.000Z</time>
      </trkpt>
      <trkpt lat="27.743898" lon="86.712397">
        <ele>2640</ele>
        <time>2022-10-19T07:36:12.000Z</time>
      </trkpt>
      <trkpt lat="27.74392" lon="86.712403">
        <ele>2640.2</ele>
        <time>2022-10-19T07:36:15.000Z</time>
      </trkpt>
      <trkpt lat="27.743939" lon="86.712416">
        <ele>2640.4</ele>
        <time>2022-10-19T07:36:17.000Z</time>
      </trkpt>
      <trkpt lat="27.743958" lon="86.712435">
        <ele>2640.6</ele>
        <time>2022-10-19T07:36:19.000Z</time>
      </trkpt>
      <trkpt lat="27.743981" lon="86.712435">
        <ele>2640.6</ele>
        <time>2022-10-19T07:36:22.000Z</time>
      </trkpt>
      <trkpt lat="27.743997" lon="86.712448">
        <ele>2640.6</ele>
        <time>2022-10-19T07:36:24.000Z</time>
      </trkpt>
      <trkpt lat="27.744016" lon="86.712474">
        <ele>2641.2</ele>
        <time>2022-10-19T07:36:28.000Z</time>
      </trkpt>
      <trkpt lat="27.744032" lon="86.712486">
        <ele>2642.2</ele>
        <time>2022-10-19T07:36:31.000Z</time>
      </trkpt>
      <trkpt lat="27.744048" lon="86.712499">
        <ele>2642</ele>
        <time>2022-10-19T07:36:34.000Z</time>
      </trkpt>
      <trkpt lat="27.744058" lon="86.712518">
        <ele>2642.6</ele>
        <time>2022-10-19T07:36:37.000Z</time>
      </trkpt>
      <trkpt lat="27.744077" lon="86.712525">
        <ele>2643.4</ele>
        <time>2022-10-19T07:36:41.000Z</time>
      </trkpt>
      <trkpt lat="27.744096" lon="86.712531">
        <ele>2643.6</ele>
        <time>2022-10-19T07:36:44.000Z</time>
      </trkpt>
      <trkpt lat="27.744115" lon="86.712538">
        <ele>2644.6</ele>
        <time>2022-10-19T07:36:48.000Z</time>
      </trkpt>
      <trkpt lat="27.744138" lon="86.712538">
        <ele>2645.4</ele>
        <time>2022-10-19T07:36:52.000Z</time>
      </trkpt>
      <trkpt lat="27.744157" lon="86.712531">
        <ele>2645.6</ele>
        <time>2022-10-19T07:36:55.000Z</time>
      </trkpt>
      <trkpt lat="27.744176" lon="86.712531">
        <ele>2646.8</ele>
        <time>2022-10-19T07:36:58.000Z</time>
      </trkpt>
      <trkpt lat="27.744195" lon="86.712525">
        <ele>2647.4</ele>
        <time>2022-10-19T07:37:01.000Z</time>
      </trkpt>
      <trkpt lat="27.744214" lon="86.712525">
        <ele>2647.6</ele>
        <time>2022-10-19T07:37:04.000Z</time>
      </trkpt>
      <trkpt lat="27.744234" lon="86.712518">
        <ele>2647.8</ele>
        <time>2022-10-19T07:37:07.000Z</time>
      </trkpt>
      <trkpt lat="27.744256" lon="86.712512">
        <ele>2648.4</ele>
        <time>2022-10-19T07:37:10.000Z</time>
      </trkpt>
      <trkpt lat="27.744275" lon="86.712518">
        <ele>2649</ele>
        <time>2022-10-19T07:37:13.000Z</time>
      </trkpt>
      <trkpt lat="27.744294" lon="86.712525">
        <ele>2649.6</ele>
        <time>2022-10-19T07:37:16.000Z</time>
      </trkpt>
      <trkpt lat="27.744275" lon="86.712525">
        <ele>2648.4</ele>
        <time>2022-10-19T07:37:26.000Z</time>
      </trkpt>
      <trkpt lat="27.744253" lon="86.712531">
        <ele>2648</ele>
        <time>2022-10-19T07:37:29.000Z</time>
      </trkpt>
      <trkpt lat="27.744234" lon="86.712531">
        <ele>2647.6</ele>
        <time>2022-10-19T07:37:32.000Z</time>
      </trkpt>
      <trkpt lat="27.744218" lon="86.712518">
        <ele>2648.8</ele>
        <time>2022-10-19T07:37:47.000Z</time>
      </trkpt>
      <trkpt lat="27.74424" lon="86.712518">
        <ele>2648.2</ele>
        <time>2022-10-19T07:38:06.000Z</time>
      </trkpt>
      <trkpt lat="27.744262" lon="86.712525">
        <ele>2648.4</ele>
        <time>2022-10-19T07:38:08.000Z</time>
      </trkpt>
      <trkpt lat="27.744291" lon="86.712538">
        <ele>2648.8</ele>
        <time>2022-10-19T07:38:10.000Z</time>
      </trkpt>
      <trkpt lat="27.744317" lon="86.71255">
        <ele>2648.6</ele>
        <time>2022-10-19T07:38:12.000Z</time>
      </trkpt>
      <trkpt lat="27.744346" lon="86.71255">
        <ele>2648.8</ele>
        <time>2022-10-19T07:38:14.000Z</time>
      </trkpt>
      <trkpt lat="27.744368" lon="86.712557">
        <ele>2649</ele>
        <time>2022-10-19T07:38:17.000Z</time>
      </trkpt>
      <trkpt lat="27.744394" lon="86.712563">
        <ele>2649.8</ele>
        <time>2022-10-19T07:38:20.000Z</time>
      </trkpt>
      <trkpt lat="27.744419" lon="86.712563">
        <ele>2650.6</ele>
        <time>2022-10-19T07:38:22.000Z</time>
      </trkpt>
      <trkpt lat="27.744445" lon="86.712563">
        <ele>2649.8</ele>
        <time>2022-10-19T07:38:25.000Z</time>
      </trkpt>
      <trkpt lat="27.744474" lon="86.712563">
        <ele>2649.8</ele>
        <time>2022-10-19T07:38:28.000Z</time>
      </trkpt>
      <trkpt lat="27.744493" lon="86.712563">
        <ele>2650.2</ele>
        <time>2022-10-19T07:38:30.000Z</time>
      </trkpt>
      <trkpt lat="27.744518" lon="86.71257">
        <ele>2650.4</ele>
        <time>2022-10-19T07:38:32.000Z</time>
      </trkpt>
      <trkpt lat="27.744544" lon="86.712557">
        <ele>2650.2</ele>
        <time>2022-10-19T07:38:35.000Z</time>
      </trkpt>
      <trkpt lat="27.744566" lon="86.712538">
        <ele>2650.6</ele>
        <time>2022-10-19T07:38:37.000Z</time>
      </trkpt>
      <trkpt lat="27.744592" lon="86.712538">
        <ele>2651.2</ele>
        <time>2022-10-19T07:38:40.000Z</time>
      </trkpt>
      <trkpt lat="27.744618" lon="86.712538">
        <ele>2651.2</ele>
        <time>2022-10-19T07:38:42.000Z</time>
      </trkpt>
      <trkpt lat="27.74463" lon="86.712557">
        <ele>2651.4</ele>
        <time>2022-10-19T07:38:48.000Z</time>
      </trkpt>
      <trkpt lat="27.744656" lon="86.712557">
        <ele>2651.8</ele>
        <time>2022-10-19T07:38:59.000Z</time>
      </trkpt>
      <trkpt lat="27.744678" lon="86.71255">
        <ele>2651.6</ele>
        <time>2022-10-19T07:39:01.000Z</time>
      </trkpt>
      <trkpt lat="27.744701" lon="86.712538">
        <ele>2651.6</ele>
        <time>2022-10-19T07:39:03.000Z</time>
      </trkpt>
      <trkpt lat="27.74472" lon="86.712538">
        <ele>2651.8</ele>
        <time>2022-10-19T07:39:05.000Z</time>
      </trkpt>
      <trkpt lat="27.744746" lon="86.712531">
        <ele>2651.6</ele>
        <time>2022-10-19T07:39:07.000Z</time>
      </trkpt>
      <trkpt lat="27.744768" lon="86.712518">
        <ele>2651.6</ele>
        <time>2022-10-19T07:39:09.000Z</time>
      </trkpt>
      <trkpt lat="27.744794" lon="86.712499">
        <ele>2652</ele>
        <time>2022-10-19T07:39:12.000Z</time>
      </trkpt>
      <trkpt lat="27.744813" lon="86.712493">
        <ele>2652.2</ele>
        <time>2022-10-19T07:39:14.000Z</time>
      </trkpt>
      <trkpt lat="27.744829" lon="86.71248">
        <ele>2651.8</ele>
        <time>2022-10-19T07:39:16.000Z</time>
      </trkpt>
      <trkpt lat="27.744854" lon="86.712474">
        <ele>2652.2</ele>
        <time>2022-10-19T07:39:19.000Z</time>
      </trkpt>
      <trkpt lat="27.74487" lon="86.712461">
        <ele>2652.2</ele>
        <time>2022-10-19T07:39:21.000Z</time>
      </trkpt>
      <trkpt lat="27.744899" lon="86.712454">
        <ele>2652.4</ele>
        <time>2022-10-19T07:39:24.000Z</time>
      </trkpt>
      <trkpt lat="27.744922" lon="86.712461">
        <ele>2652.2</ele>
        <time>2022-10-19T07:39:27.000Z</time>
      </trkpt>
      <trkpt lat="27.744941" lon="86.712461">
        <ele>2652.4</ele>
        <time>2022-10-19T07:39:29.000Z</time>
      </trkpt>
      <trkpt lat="27.74496" lon="86.712461">
        <ele>2652.8</ele>
        <time>2022-10-19T07:39:32.000Z</time>
      </trkpt>
      <trkpt lat="27.744979" lon="86.71248">
        <ele>2653.2</ele>
        <time>2022-10-19T07:39:35.000Z</time>
      </trkpt>
      <trkpt lat="27.744998" lon="86.712486">
        <ele>2653.4</ele>
        <time>2022-10-19T07:39:38.000Z</time>
      </trkpt>
      <trkpt lat="27.745014" lon="86.712499">
        <ele>2653.8</ele>
        <time>2022-10-19T07:39:42.000Z</time>
      </trkpt>
      <trkpt lat="27.745027" lon="86.712518">
        <ele>2655</ele>
        <time>2022-10-19T07:39:45.000Z</time>
      </trkpt>
      <trkpt lat="27.745043" lon="86.712531">
        <ele>2655</ele>
        <time>2022-10-19T07:39:48.000Z</time>
      </trkpt>
      <trkpt lat="27.745053" lon="86.71255">
        <ele>2655.2</ele>
        <time>2022-10-19T07:39:50.000Z</time>
      </trkpt>
      <trkpt lat="27.745069" lon="86.712563">
        <ele>2655</ele>
        <time>2022-10-19T07:39:52.000Z</time>
      </trkpt>
      <trkpt lat="27.745091" lon="86.712576">
        <ele>2655.6</ele>
        <time>2022-10-19T07:39:56.000Z</time>
      </trkpt>
      <trkpt lat="27.74511" lon="86.71257">
        <ele>2656.2</ele>
        <time>2022-10-19T07:39:58.000Z</time>
      </trkpt>
      <trkpt lat="27.74513" lon="86.712576">
        <ele>2656.8</ele>
        <time>2022-10-19T07:40:00.000Z</time>
      </trkpt>
      <trkpt lat="27.745149" lon="86.71257">
        <ele>2657</ele>
        <time>2022-10-19T07:40:02.000Z</time>
      </trkpt>
      <trkpt lat="27.745171" lon="86.71257">
        <ele>2657.4</ele>
        <time>2022-10-19T07:40:05.000Z</time>
      </trkpt>
      <trkpt lat="27.74519" lon="86.71257">
        <ele>2657.4</ele>
        <time>2022-10-19T07:40:07.000Z</time>
      </trkpt>
      <trkpt lat="27.745213" lon="86.712576">
        <ele>2657.6</ele>
        <time>2022-10-19T07:40:09.000Z</time>
      </trkpt>
      <trkpt lat="27.745232" lon="86.712576">
        <ele>2657.6</ele>
        <time>2022-10-19T07:40:11.000Z</time>
      </trkpt>
      <trkpt lat="27.745251" lon="86.712576">
        <ele>2657.8</ele>
        <time>2022-10-19T07:40:13.000Z</time>
      </trkpt>
      <trkpt lat="27.74527" lon="86.71257">
        <ele>2658</ele>
        <time>2022-10-19T07:40:15.000Z</time>
      </trkpt>
      <trkpt lat="27.745286" lon="86.712582">
        <ele>2658</ele>
        <time>2022-10-19T07:40:18.000Z</time>
      </trkpt>
      <trkpt lat="27.745306" lon="86.712595">
        <ele>2658.2</ele>
        <time>2022-10-19T07:40:20.000Z</time>
      </trkpt>
      <trkpt lat="27.745331" lon="86.712595">
        <ele>2658.4</ele>
        <time>2022-10-19T07:40:23.000Z</time>
      </trkpt>
      <trkpt lat="27.745357" lon="86.712582">
        <ele>2658.6</ele>
        <time>2022-10-19T07:40:25.000Z</time>
      </trkpt>
      <trkpt lat="27.745376" lon="86.712582">
        <ele>2658.6</ele>
        <time>2022-10-19T07:40:27.000Z</time>
      </trkpt>
      <trkpt lat="27.745395" lon="86.712582">
        <ele>2658.6</ele>
        <time>2022-10-19T07:40:29.000Z</time>
      </trkpt>
      <trkpt lat="27.745414" lon="86.712582">
        <ele>2658.6</ele>
        <time>2022-10-19T07:40:32.000Z</time>
      </trkpt>
      <trkpt lat="27.74543" lon="86.71257">
        <ele>2658.6</ele>
        <time>2022-10-19T07:40:34.000Z</time>
      </trkpt>
      <trkpt lat="27.74545" lon="86.71257">
        <ele>2658.8</ele>
        <time>2022-10-19T07:40:36.000Z</time>
      </trkpt>
      <trkpt lat="27.745469" lon="86.71257">
        <ele>2659</ele>
        <time>2022-10-19T07:40:38.000Z</time>
      </trkpt>
      <trkpt lat="27.745488" lon="86.71257">
        <ele>2659</ele>
        <time>2022-10-19T07:40:40.000Z</time>
      </trkpt>
      <trkpt lat="27.745507" lon="86.71257">
        <ele>2659.6</ele>
        <time>2022-10-19T07:40:42.000Z</time>
      </trkpt>
      <trkpt lat="27.74553" lon="86.712563">
        <ele>2659.6</ele>
        <time>2022-10-19T07:40:45.000Z</time>
      </trkpt>
      <trkpt lat="27.745549" lon="86.712563">
        <ele>2659.8</ele>
        <time>2022-10-19T07:40:47.000Z</time>
      </trkpt>
      <trkpt lat="27.745574" lon="86.712557">
        <ele>2660</ele>
        <time>2022-10-19T07:40:50.000Z</time>
      </trkpt>
      <trkpt lat="27.745594" lon="86.71255">
        <ele>2660.4</ele>
        <time>2022-10-19T07:40:52.000Z</time>
      </trkpt>
      <trkpt lat="27.74561" lon="86.712531">
        <ele>2661.2</ele>
        <time>2022-10-19T07:40:55.000Z</time>
      </trkpt>
      <trkpt lat="27.745626" lon="86.712518">
        <ele>2661.2</ele>
        <time>2022-10-19T07:40:57.000Z</time>
      </trkpt>
      <trkpt lat="27.745645" lon="86.712518">
        <ele>2661.6</ele>
        <time>2022-10-19T07:40:59.000Z</time>
      </trkpt>
      <trkpt lat="27.745664" lon="86.712499">
        <ele>2661.6</ele>
        <time>2022-10-19T07:41:01.000Z</time>
      </trkpt>
      <trkpt lat="27.745683" lon="86.712493">
        <ele>2662</ele>
        <time>2022-10-19T07:41:03.000Z</time>
      </trkpt>
      <trkpt lat="27.745699" lon="86.71248">
        <ele>2662.2</ele>
        <time>2022-10-19T07:41:07.000Z</time>
      </trkpt>
      <trkpt lat="27.745709" lon="86.712461">
        <ele>2662.2</ele>
        <time>2022-10-19T07:41:09.000Z</time>
      </trkpt>
      <trkpt lat="27.745728" lon="86.712461">
        <ele>2662.4</ele>
        <time>2022-10-19T07:41:11.000Z</time>
      </trkpt>
      <trkpt lat="27.745709" lon="86.712474">
        <ele>2662.2</ele>
        <time>2022-10-19T07:41:20.000Z</time>
      </trkpt>
      <trkpt lat="27.745728" lon="86.712454">
        <ele>2662</ele>
        <time>2022-10-19T07:41:35.000Z</time>
      </trkpt>
      <trkpt lat="27.745747" lon="86.712435">
        <ele>2662</ele>
        <time>2022-10-19T07:41:37.000Z</time>
      </trkpt>
      <trkpt lat="27.74576" lon="86.712416">
        <ele>2661.8</ele>
        <time>2022-10-19T07:41:38.000Z</time>
      </trkpt>
      <trkpt lat="27.745782" lon="86.71241">
        <ele>2661.8</ele>
        <time>2022-10-19T07:41:39.000Z</time>
      </trkpt>
      <trkpt lat="27.745811" lon="86.712397">
        <ele>2661.4</ele>
        <time>2022-10-19T07:41:41.000Z</time>
      </trkpt>
      <trkpt lat="27.74583" lon="86.712378">
        <ele>2661</ele>
        <time>2022-10-19T07:41:43.000Z</time>
      </trkpt>
      <trkpt lat="27.74585" lon="86.712365">
        <ele>2662.2</ele>
        <time>2022-10-19T07:41:46.000Z</time>
      </trkpt>
      <trkpt lat="27.745866" lon="86.712339">
        <ele>2662.6</ele>
        <time>2022-10-19T07:41:49.000Z</time>
      </trkpt>
      <trkpt lat="27.745885" lon="86.712326">
        <ele>2663.6</ele>
        <time>2022-10-19T07:41:54.000Z</time>
      </trkpt>
      <trkpt lat="27.745907" lon="86.712333">
        <ele>2664.8</ele>
        <time>2022-10-19T07:41:58.000Z</time>
      </trkpt>
      <trkpt lat="27.74592" lon="86.712314">
        <ele>2665.8</ele>
        <time>2022-10-19T07:42:03.000Z</time>
      </trkpt>
      <trkpt lat="27.745936" lon="86.712301">
        <ele>2666.2</ele>
        <time>2022-10-19T07:42:07.000Z</time>
      </trkpt>
      <trkpt lat="27.745958" lon="86.712288">
        <ele>2667.8</ele>
        <time>2022-10-19T07:42:12.000Z</time>
      </trkpt>
      <trkpt lat="27.745974" lon="86.712275">
        <ele>2668</ele>
        <time>2022-10-19T07:42:15.000Z</time>
      </trkpt>
      <trkpt lat="27.74599" lon="86.712256">
        <ele>2668.4</ele>
        <time>2022-10-19T07:42:17.000Z</time>
      </trkpt>
      <trkpt lat="27.74601" lon="86.71225">
        <ele>2668.8</ele>
        <time>2022-10-19T07:42:19.000Z</time>
      </trkpt>
      <trkpt lat="27.746026" lon="86.712237">
        <ele>2669.6</ele>
        <time>2022-10-19T07:42:21.000Z</time>
      </trkpt>
      <trkpt lat="27.746048" lon="86.712224">
        <ele>2669.8</ele>
        <time>2022-10-19T07:42:25.000Z</time>
      </trkpt>
      <trkpt lat="27.746058" lon="86.712243">
        <ele>2670</ele>
        <time>2022-10-19T07:42:29.000Z</time>
      </trkpt>
      <trkpt lat="27.746035" lon="86.71225">
        <ele>2670</ele>
        <time>2022-10-19T07:42:37.000Z</time>
      </trkpt>
      <trkpt lat="27.746051" lon="86.712224">
        <ele>2670</ele>
        <time>2022-10-19T07:42:47.000Z</time>
      </trkpt>
      <trkpt lat="27.746074" lon="86.712211">
        <ele>2670</ele>
        <time>2022-10-19T07:42:49.000Z</time>
      </trkpt>
      <trkpt lat="27.746099" lon="86.712205">
        <ele>2670.8</ele>
        <time>2022-10-19T07:42:51.000Z</time>
      </trkpt>
      <trkpt lat="27.746118" lon="86.712186">
        <ele>2671</ele>
        <time>2022-10-19T07:42:53.000Z</time>
      </trkpt>
      <trkpt lat="27.746141" lon="86.712173">
        <ele>2671</ele>
        <time>2022-10-19T07:42:55.000Z</time>
      </trkpt>
      <trkpt lat="27.746163" lon="86.712166">
        <ele>2671.4</ele>
        <time>2022-10-19T07:42:58.000Z</time>
      </trkpt>
      <trkpt lat="27.746189" lon="86.71216">
        <ele>2671.4</ele>
        <time>2022-10-19T07:43:00.000Z</time>
      </trkpt>
      <trkpt lat="27.746211" lon="86.712154">
        <ele>2671.8</ele>
        <time>2022-10-19T07:43:02.000Z</time>
      </trkpt>
      <trkpt lat="27.746224" lon="86.712134">
        <ele>2672.2</ele>
        <time>2022-10-19T07:43:04.000Z</time>
      </trkpt>
      <trkpt lat="27.746243" lon="86.712128">
        <ele>2672.4</ele>
        <time>2022-10-19T07:43:06.000Z</time>
      </trkpt>
      <trkpt lat="27.746266" lon="86.712115">
        <ele>2672.6</ele>
        <time>2022-10-19T07:43:08.000Z</time>
      </trkpt>
      <trkpt lat="27.746285" lon="86.712122">
        <ele>2672.4</ele>
        <time>2022-10-19T07:43:10.000Z</time>
      </trkpt>
      <trkpt lat="27.74631" lon="86.712122">
        <ele>2672.4</ele>
        <time>2022-10-19T07:43:12.000Z</time>
      </trkpt>
      <trkpt lat="27.746333" lon="86.712122">
        <ele>2672</ele>
        <time>2022-10-19T07:43:14.000Z</time>
      </trkpt>
      <trkpt lat="27.746358" lon="86.712128">
        <ele>2672</ele>
        <time>2022-10-19T07:43:16.000Z</time>
      </trkpt>
      <trkpt lat="27.746378" lon="86.712134">
        <ele>2672</ele>
        <time>2022-10-19T07:43:18.000Z</time>
      </trkpt>
      <trkpt lat="27.746403" lon="86.712134">
        <ele>2671.8</ele>
        <time>2022-10-19T07:43:20.000Z</time>
      </trkpt>
      <trkpt lat="27.746429" lon="86.712141">
        <ele>2672.4</ele>
        <time>2022-10-19T07:43:23.000Z</time>
      </trkpt>
      <trkpt lat="27.746445" lon="86.712154">
        <ele>2673.2</ele>
        <time>2022-10-19T07:43:25.000Z</time>
      </trkpt>
      <trkpt lat="27.746464" lon="86.71216">
        <ele>2673.4</ele>
        <time>2022-10-19T07:43:27.000Z</time>
      </trkpt>
      <trkpt lat="27.746483" lon="86.71216">
        <ele>2673.6</ele>
        <time>2022-10-19T07:43:29.000Z</time>
      </trkpt>
      <trkpt lat="27.746506" lon="86.71216">
        <ele>2673.4</ele>
        <time>2022-10-19T07:43:31.000Z</time>
      </trkpt>
      <trkpt lat="27.746531" lon="86.712166">
        <ele>2673.4</ele>
        <time>2022-10-19T07:43:34.000Z</time>
      </trkpt>
      <trkpt lat="27.74655" lon="86.71216">
        <ele>2674</ele>
        <time>2022-10-19T07:43:37.000Z</time>
      </trkpt>
      <trkpt lat="27.746579" lon="86.712166">
        <ele>2674</ele>
        <time>2022-10-19T07:43:39.000Z</time>
      </trkpt>
      <trkpt lat="27.746598" lon="86.71216">
        <ele>2674.2</ele>
        <time>2022-10-19T07:43:41.000Z</time>
      </trkpt>
      <trkpt lat="27.746618" lon="86.712166">
        <ele>2674.2</ele>
        <time>2022-10-19T07:43:43.000Z</time>
      </trkpt>
      <trkpt lat="27.746637" lon="86.712186">
        <ele>2673.4</ele>
        <time>2022-10-19T07:43:46.000Z</time>
      </trkpt>
      <trkpt lat="27.746666" lon="86.712186">
        <ele>2673</ele>
        <time>2022-10-19T07:43:48.000Z</time>
      </trkpt>
      <trkpt lat="27.746685" lon="86.712179">
        <ele>2672.8</ele>
        <time>2022-10-19T07:43:49.000Z</time>
      </trkpt>
      <trkpt lat="27.746717" lon="86.712173">
        <ele>2673</ele>
        <time>2022-10-19T07:43:51.000Z</time>
      </trkpt>
      <trkpt lat="27.746736" lon="86.71216">
        <ele>2673</ele>
        <time>2022-10-19T07:43:53.000Z</time>
      </trkpt>
      <trkpt lat="27.746768" lon="86.712154">
        <ele>2673</ele>
        <time>2022-10-19T07:43:55.000Z</time>
      </trkpt>
      <trkpt lat="27.74679" lon="86.712154">
        <ele>2673</ele>
        <time>2022-10-19T07:43:58.000Z</time>
      </trkpt>
      <trkpt lat="27.746816" lon="86.71216">
        <ele>2673.4</ele>
        <time>2022-10-19T07:44:01.000Z</time>
      </trkpt>
      <trkpt lat="27.746838" lon="86.71216">
        <ele>2673.4</ele>
        <time>2022-10-19T07:44:03.000Z</time>
      </trkpt>
      <trkpt lat="27.746864" lon="86.712154">
        <ele>2673.8</ele>
        <time>2022-10-19T07:44:05.000Z</time>
      </trkpt>
      <trkpt lat="27.746893" lon="86.712166">
        <ele>2673.6</ele>
        <time>2022-10-19T07:44:08.000Z</time>
      </trkpt>
      <trkpt lat="27.746915" lon="86.712173">
        <ele>2673.6</ele>
        <time>2022-10-19T07:44:10.000Z</time>
      </trkpt>
      <trkpt lat="27.746938" lon="86.712179">
        <ele>2673.6</ele>
        <time>2022-10-19T07:44:12.000Z</time>
      </trkpt>
      <trkpt lat="27.746957" lon="86.712179">
        <ele>2673.8</ele>
        <time>2022-10-19T07:44:14.000Z</time>
      </trkpt>
      <trkpt lat="27.746979" lon="86.712186">
        <ele>2674.4</ele>
        <time>2022-10-19T07:44:16.000Z</time>
      </trkpt>
      <trkpt lat="27.747005" lon="86.712186">
        <ele>2674.4</ele>
        <time>2022-10-19T07:44:18.000Z</time>
      </trkpt>
      <trkpt lat="27.747027" lon="86.712205">
        <ele>2674.6</ele>
        <time>2022-10-19T07:44:20.000Z</time>
      </trkpt>
      <trkpt lat="27.747046" lon="86.712211">
        <ele>2674.8</ele>
        <time>2022-10-19T07:44:22.000Z</time>
      </trkpt>
      <trkpt lat="27.747072" lon="86.712198">
        <ele>2675.2</ele>
        <time>2022-10-19T07:44:25.000Z</time>
      </trkpt>
      <trkpt lat="27.747094" lon="86.712198">
        <ele>2675.6</ele>
        <time>2022-10-19T07:44:27.000Z</time>
      </trkpt>
      <trkpt lat="27.747123" lon="86.712198">
        <ele>2675.6</ele>
        <time>2022-10-19T07:44:28.000Z</time>
      </trkpt>
      <trkpt lat="27.747142" lon="86.712205">
        <ele>2675.6</ele>
        <time>2022-10-19T07:44:29.000Z</time>
      </trkpt>
      <trkpt lat="27.747165" lon="86.712211">
        <ele>2675.6</ele>
        <time>2022-10-19T07:44:30.000Z</time>
      </trkpt>
      <trkpt lat="27.747187" lon="86.712224">
        <ele>2675.6</ele>
        <time>2022-10-19T07:44:32.000Z</time>
      </trkpt>
      <trkpt lat="27.747219" lon="86.712224">
        <ele>2675.6</ele>
        <time>2022-10-19T07:44:34.000Z</time>
      </trkpt>
      <trkpt lat="27.747245" lon="86.712218">
        <ele>2675.4</ele>
        <time>2022-10-19T07:44:36.000Z</time>
      </trkpt>
      <trkpt lat="27.747264" lon="86.712218">
        <ele>2675.6</ele>
        <time>2022-10-19T07:44:37.000Z</time>
      </trkpt>
      <trkpt lat="27.747286" lon="86.712218">
        <ele>2675.6</ele>
        <time>2022-10-19T07:44:39.000Z</time>
      </trkpt>
      <trkpt lat="27.747312" lon="86.712224">
        <ele>2675.6</ele>
        <time>2022-10-19T07:44:41.000Z</time>
      </trkpt>
      <trkpt lat="27.747328" lon="86.712237">
        <ele>2676</ele>
        <time>2022-10-19T07:44:43.000Z</time>
      </trkpt>
      <trkpt lat="27.747354" lon="86.71225">
        <ele>2675.6</ele>
        <time>2022-10-19T07:44:45.000Z</time>
      </trkpt>
      <trkpt lat="27.747376" lon="86.712262">
        <ele>2675.8</ele>
        <time>2022-10-19T07:44:47.000Z</time>
      </trkpt>
      <trkpt lat="27.747395" lon="86.712282">
        <ele>2675.6</ele>
        <time>2022-10-19T07:44:49.000Z</time>
      </trkpt>
      <trkpt lat="27.747418" lon="86.712301">
        <ele>2675.4</ele>
        <time>2022-10-19T07:44:51.000Z</time>
      </trkpt>
      <trkpt lat="27.74743" lon="86.71232">
        <ele>2675.4</ele>
        <time>2022-10-19T07:44:52.000Z</time>
      </trkpt>
      <trkpt lat="27.747453" lon="86.712333">
        <ele>2675.8</ele>
        <time>2022-10-19T07:44:54.000Z</time>
      </trkpt>
      <trkpt lat="27.747475" lon="86.712333">
        <ele>2675.8</ele>
        <time>2022-10-19T07:44:56.000Z</time>
      </trkpt>
      <trkpt lat="27.747494" lon="86.712339">
        <ele>2675.8</ele>
        <time>2022-10-19T07:44:58.000Z</time>
      </trkpt>
      <trkpt lat="27.747565" lon="86.712371">
        <ele>2676</ele>
        <time>2022-10-19T07:45:04.000Z</time>
      </trkpt>
      <trkpt lat="27.74759" lon="86.712378">
        <ele>2675.8</ele>
        <time>2022-10-19T07:45:06.000Z</time>
      </trkpt>
      <trkpt lat="27.747613" lon="86.712397">
        <ele>2675.6</ele>
        <time>2022-10-19T07:45:08.000Z</time>
      </trkpt>
      <trkpt lat="27.747632" lon="86.71241">
        <ele>2675.6</ele>
        <time>2022-10-19T07:45:09.000Z</time>
      </trkpt>
      <trkpt lat="27.747651" lon="86.712416">
        <ele>2675.6</ele>
        <time>2022-10-19T07:45:11.000Z</time>
      </trkpt>
      <trkpt lat="27.74767" lon="86.712422">
        <ele>2675.4</ele>
        <time>2022-10-19T07:45:13.000Z</time>
      </trkpt>
      <trkpt lat="27.747696" lon="86.712422">
        <ele>2675.4</ele>
        <time>2022-10-19T07:45:15.000Z</time>
      </trkpt>
      <trkpt lat="27.747722" lon="86.712435">
        <ele>2675.8</ele>
        <time>2022-10-19T07:45:17.000Z</time>
      </trkpt>
      <trkpt lat="27.747747" lon="86.712435">
        <ele>2675.6</ele>
        <time>2022-10-19T07:45:19.000Z</time>
      </trkpt>
      <trkpt lat="27.747773" lon="86.712442">
        <ele>2675</ele>
        <time>2022-10-19T07:45:21.000Z</time>
      </trkpt>
      <trkpt lat="27.747795" lon="86.712454">
        <ele>2675</ele>
        <time>2022-10-19T07:45:23.000Z</time>
      </trkpt>
      <trkpt lat="27.747814" lon="86.712474">
        <ele>2675.2</ele>
        <time>2022-10-19T07:45:25.000Z</time>
      </trkpt>
      <trkpt lat="27.747834" lon="86.712486">
        <ele>2675.2</ele>
        <time>2022-10-19T07:45:27.000Z</time>
      </trkpt>
      <trkpt lat="27.74785" lon="86.712512">
        <ele>2675.4</ele>
        <time>2022-10-19T07:45:29.000Z</time>
      </trkpt>
      <trkpt lat="27.747869" lon="86.712531">
        <ele>2675.8</ele>
        <time>2022-10-19T07:45:32.000Z</time>
      </trkpt>
      <trkpt lat="27.747885" lon="86.71255">
        <ele>2676.2</ele>
        <time>2022-10-19T07:45:34.000Z</time>
      </trkpt>
      <trkpt lat="27.747904" lon="86.71257">
        <ele>2676.4</ele>
        <time>2022-10-19T07:45:37.000Z</time>
      </trkpt>
      <trkpt lat="27.74792" lon="86.712582">
        <ele>2676.6</ele>
        <time>2022-10-19T07:45:39.000Z</time>
      </trkpt>
      <trkpt lat="27.747939" lon="86.712595">
        <ele>2676.6</ele>
        <time>2022-10-19T07:45:41.000Z</time>
      </trkpt>
      <trkpt lat="27.747958" lon="86.712595">
        <ele>2676.6</ele>
        <time>2022-10-19T07:45:43.000Z</time>
      </trkpt>
      <trkpt lat="27.747978" lon="86.712614">
        <ele>2677.2</ele>
        <time>2022-10-19T07:45:46.000Z</time>
      </trkpt>
      <trkpt lat="27.747997" lon="86.712621">
        <ele>2677.4</ele>
        <time>2022-10-19T07:45:48.000Z</time>
      </trkpt>
      <trkpt lat="27.748013" lon="86.71264">
        <ele>2678</ele>
        <time>2022-10-19T07:45:51.000Z</time>
      </trkpt>
      <trkpt lat="27.748038" lon="86.712646">
        <ele>2678.8</ele>
        <time>2022-10-19T07:45:55.000Z</time>
      </trkpt>
      <trkpt lat="27.748061" lon="86.712646">
        <ele>2679.4</ele>
        <time>2022-10-19T07:45:58.000Z</time>
      </trkpt>
      <trkpt lat="27.74808" lon="86.712659">
        <ele>2679.6</ele>
        <time>2022-10-19T07:46:01.000Z</time>
      </trkpt>
      <trkpt lat="27.748099" lon="86.712659">
        <ele>2680.2</ele>
        <time>2022-10-19T07:46:04.000Z</time>
      </trkpt>
      <trkpt lat="27.748112" lon="86.712678">
        <ele>2680.4</ele>
        <time>2022-10-19T07:46:07.000Z</time>
      </trkpt>
      <trkpt lat="27.748131" lon="86.712678">
        <ele>2681.2</ele>
        <time>2022-10-19T07:46:11.000Z</time>
      </trkpt>
      <trkpt lat="27.74815" lon="86.712678">
        <ele>2681.8</ele>
        <time>2022-10-19T07:46:17.000Z</time>
      </trkpt>
      <trkpt lat="27.74817" lon="86.712691">
        <ele>2683</ele>
        <time>2022-10-19T07:46:23.000Z</time>
      </trkpt>
      <trkpt lat="27.748176" lon="86.71271">
        <ele>2683.2</ele>
        <time>2022-10-19T07:46:25.000Z</time>
      </trkpt>
      <trkpt lat="27.748195" lon="86.712717">
        <ele>2683.8</ele>
        <time>2022-10-19T07:46:28.000Z</time>
      </trkpt>
      <trkpt lat="27.748218" lon="86.71271">
        <ele>2684.8</ele>
        <time>2022-10-19T07:46:35.000Z</time>
      </trkpt>
      <trkpt lat="27.74824" lon="86.712717">
        <ele>2684.8</ele>
        <time>2022-10-19T07:46:38.000Z</time>
      </trkpt>
      <trkpt lat="27.748246" lon="86.712691">
        <ele>2685.2</ele>
        <time>2022-10-19T07:46:49.000Z</time>
      </trkpt>
      <trkpt lat="27.748269" lon="86.712685">
        <ele>2685.2</ele>
        <time>2022-10-19T07:46:52.000Z</time>
      </trkpt>
      <trkpt lat="27.748288" lon="86.712678">
        <ele>2686.2</ele>
        <time>2022-10-19T07:46:55.000Z</time>
      </trkpt>
      <trkpt lat="27.748307" lon="86.712678">
        <ele>2686.6</ele>
        <time>2022-10-19T07:46:57.000Z</time>
      </trkpt>
      <trkpt lat="27.748326" lon="86.712685">
        <ele>2686.4</ele>
        <time>2022-10-19T07:46:59.000Z</time>
      </trkpt>
      <trkpt lat="27.748349" lon="86.712678">
        <ele>2687.2</ele>
        <time>2022-10-19T07:47:02.000Z</time>
      </trkpt>
      <trkpt lat="27.748368" lon="86.712672">
        <ele>2687.2</ele>
        <time>2022-10-19T07:47:04.000Z</time>
      </trkpt>
      <trkpt lat="27.748384" lon="86.712659">
        <ele>2687.2</ele>
        <time>2022-10-19T07:47:06.000Z</time>
      </trkpt>
      <trkpt lat="27.748406" lon="86.712646">
        <ele>2687.6</ele>
        <time>2022-10-19T07:47:08.000Z</time>
      </trkpt>
      <trkpt lat="27.748426" lon="86.712634">
        <ele>2687.8</ele>
        <time>2022-10-19T07:47:11.000Z</time>
      </trkpt>
      <trkpt lat="27.748448" lon="86.712634">
        <ele>2688</ele>
        <time>2022-10-19T07:47:14.000Z</time>
      </trkpt>
      <trkpt lat="27.74847" lon="86.712621">
        <ele>2688.8</ele>
        <time>2022-10-19T07:47:17.000Z</time>
      </trkpt>
      <trkpt lat="27.748496" lon="86.712608">
        <ele>2688.8</ele>
        <time>2022-10-19T07:47:19.000Z</time>
      </trkpt>
      <trkpt lat="27.748515" lon="86.712608">
        <ele>2688.6</ele>
        <time>2022-10-19T07:47:21.000Z</time>
      </trkpt>
      <trkpt lat="27.748538" lon="86.712608">
        <ele>2688.8</ele>
        <time>2022-10-19T07:47:23.000Z</time>
      </trkpt>
      <trkpt lat="27.748554" lon="86.712595">
        <ele>2688.8</ele>
        <time>2022-10-19T07:47:26.000Z</time>
      </trkpt>
      <trkpt lat="27.748573" lon="86.712595">
        <ele>2689</ele>
        <time>2022-10-19T07:47:28.000Z</time>
      </trkpt>
      <trkpt lat="27.748602" lon="86.712595">
        <ele>2688.8</ele>
        <time>2022-10-19T07:47:30.000Z</time>
      </trkpt>
      <trkpt lat="27.748627" lon="86.712602">
        <ele>2688.6</ele>
        <time>2022-10-19T07:47:32.000Z</time>
      </trkpt>
      <trkpt lat="27.748646" lon="86.712582">
        <ele>2688.6</ele>
        <time>2022-10-19T07:47:34.000Z</time>
      </trkpt>
      <trkpt lat="27.748666" lon="86.712576">
        <ele>2688.6</ele>
        <time>2022-10-19T07:47:36.000Z</time>
      </trkpt>
      <trkpt lat="27.748685" lon="86.712576">
        <ele>2688.8</ele>
        <time>2022-10-19T07:47:38.000Z</time>
      </trkpt>
      <trkpt lat="27.748704" lon="86.71257">
        <ele>2688.6</ele>
        <time>2022-10-19T07:47:40.000Z</time>
      </trkpt>
      <trkpt lat="27.748726" lon="86.712563">
        <ele>2688.4</ele>
        <time>2022-10-19T07:47:42.000Z</time>
      </trkpt>
      <trkpt lat="27.748746" lon="86.712538">
        <ele>2688.6</ele>
        <time>2022-10-19T07:47:44.000Z</time>
      </trkpt>
      <trkpt lat="27.748771" lon="86.712531">
        <ele>2688</ele>
        <time>2022-10-19T07:47:47.000Z</time>
      </trkpt>
      <trkpt lat="27.74879" lon="86.712525">
        <ele>2688</ele>
        <time>2022-10-19T07:47:49.000Z</time>
      </trkpt>
      <trkpt lat="27.748806" lon="86.712512">
        <ele>2688.6</ele>
        <time>2022-10-19T07:47:52.000Z</time>
      </trkpt>
      <trkpt lat="27.748826" lon="86.712499">
        <ele>2688.8</ele>
        <time>2022-10-19T07:47:54.000Z</time>
      </trkpt>
      <trkpt lat="27.748842" lon="86.712486">
        <ele>2688.8</ele>
        <time>2022-10-19T07:47:56.000Z</time>
      </trkpt>
      <trkpt lat="27.748858" lon="86.712461">
        <ele>2689</ele>
        <time>2022-10-19T07:47:59.000Z</time>
      </trkpt>
      <trkpt lat="27.748883" lon="86.712448">
        <ele>2689</ele>
        <time>2022-10-19T07:48:02.000Z</time>
      </trkpt>
      <trkpt lat="27.748902" lon="86.712422">
        <ele>2689.2</ele>
        <time>2022-10-19T07:48:05.000Z</time>
      </trkpt>
      <trkpt lat="27.748922" lon="86.712416">
        <ele>2689.2</ele>
        <time>2022-10-19T07:48:07.000Z</time>
      </trkpt>
      <trkpt lat="27.748934" lon="86.712397">
        <ele>2689.4</ele>
        <time>2022-10-19T07:48:09.000Z</time>
      </trkpt>
      <trkpt lat="27.748944" lon="86.712371">
        <ele>2689.4</ele>
        <time>2022-10-19T07:48:11.000Z</time>
      </trkpt>
      <trkpt lat="27.74896" lon="86.712352">
        <ele>2689.2</ele>
        <time>2022-10-19T07:48:15.000Z</time>
      </trkpt>
      <trkpt lat="27.74897" lon="86.712333">
        <ele>2689.2</ele>
        <time>2022-10-19T07:48:17.000Z</time>
      </trkpt>
      <trkpt lat="27.748979" lon="86.712314">
        <ele>2689.4</ele>
        <time>2022-10-19T07:48:19.000Z</time>
      </trkpt>
      <trkpt lat="27.748989" lon="86.712294">
        <ele>2689.4</ele>
        <time>2022-10-19T07:48:22.000Z</time>
      </trkpt>
      <trkpt lat="27.749002" lon="86.712275">
        <ele>2689.2</ele>
        <time>2022-10-19T07:48:28.000Z</time>
      </trkpt>
      <trkpt lat="27.74903" lon="86.712262">
        <ele>2689.4</ele>
        <time>2022-10-19T07:48:31.000Z</time>
      </trkpt>
      <trkpt lat="27.749056" lon="86.712256">
        <ele>2689.8</ele>
        <time>2022-10-19T07:48:34.000Z</time>
      </trkpt>
      <trkpt lat="27.749072" lon="86.712243">
        <ele>2690.2</ele>
        <time>2022-10-19T07:48:36.000Z</time>
      </trkpt>
      <trkpt lat="27.749098" lon="86.712224">
        <ele>2690.2</ele>
        <time>2022-10-19T07:48:38.000Z</time>
      </trkpt>
      <trkpt lat="27.749114" lon="86.712211">
        <ele>2690.4</ele>
        <time>2022-10-19T07:48:40.000Z</time>
      </trkpt>
      <trkpt lat="27.749133" lon="86.712198">
        <ele>2690.8</ele>
        <time>2022-10-19T07:48:43.000Z</time>
      </trkpt>
      <trkpt lat="27.749162" lon="86.712205">
        <ele>2690.8</ele>
        <time>2022-10-19T07:48:46.000Z</time>
      </trkpt>
      <trkpt lat="27.749174" lon="86.712186">
        <ele>2691</ele>
        <time>2022-10-19T07:48:48.000Z</time>
      </trkpt>
      <trkpt lat="27.749194" lon="86.712179">
        <ele>2691.8</ele>
        <time>2022-10-19T07:48:50.000Z</time>
      </trkpt>
      <trkpt lat="27.749213" lon="86.712166">
        <ele>2692</ele>
        <time>2022-10-19T07:48:52.000Z</time>
      </trkpt>
      <trkpt lat="27.749232" lon="86.712166">
        <ele>2692.4</ele>
        <time>2022-10-19T07:48:54.000Z</time>
      </trkpt>
      <trkpt lat="27.749251" lon="86.712173">
        <ele>2693</ele>
        <time>2022-10-19T07:48:57.000Z</time>
      </trkpt>
      <trkpt lat="27.74927" lon="86.71216">
        <ele>2693.8</ele>
        <time>2022-10-19T07:49:00.000Z</time>
      </trkpt>
      <trkpt lat="27.74929" lon="86.712154">
        <ele>2694.2</ele>
        <time>2022-10-19T07:49:03.000Z</time>
      </trkpt>
      <trkpt lat="27.749299" lon="86.712134">
        <ele>2694.2</ele>
        <time>2022-10-19T07:49:04.000Z</time>
      </trkpt>
      <trkpt lat="27.749322" lon="86.712122">
        <ele>2694.2</ele>
        <time>2022-10-19T07:49:06.000Z</time>
      </trkpt>
      <trkpt lat="27.749347" lon="86.712128">
        <ele>2694.2</ele>
        <time>2022-10-19T07:49:08.000Z</time>
      </trkpt>
      <trkpt lat="27.749376" lon="86.712122">
        <ele>2694.2</ele>
        <time>2022-10-19T07:49:10.000Z</time>
      </trkpt>
      <trkpt lat="27.749398" lon="86.712128">
        <ele>2694.4</ele>
        <time>2022-10-19T07:49:12.000Z</time>
      </trkpt>
      <trkpt lat="27.749418" lon="86.712115">
        <ele>2694.6</ele>
        <time>2022-10-19T07:49:15.000Z</time>
      </trkpt>
      <trkpt lat="27.74944" lon="86.71209">
        <ele>2694.8</ele>
        <time>2022-10-19T07:49:18.000Z</time>
      </trkpt>
      <trkpt lat="27.749466" lon="86.712083">
        <ele>2695.4</ele>
        <time>2022-10-19T07:49:21.000Z</time>
      </trkpt>
      <trkpt lat="27.749485" lon="86.712064">
        <ele>2695.8</ele>
        <time>2022-10-19T07:49:23.000Z</time>
      </trkpt>
      <trkpt lat="27.749504" lon="86.712064">
        <ele>2695.8</ele>
        <time>2022-10-19T07:49:25.000Z</time>
      </trkpt>
      <trkpt lat="27.749523" lon="86.712051">
        <ele>2696</ele>
        <time>2022-10-19T07:49:28.000Z</time>
      </trkpt>
      <trkpt lat="27.749539" lon="86.712038">
        <ele>2696.2</ele>
        <time>2022-10-19T07:49:30.000Z</time>
      </trkpt>
      <trkpt lat="27.749558" lon="86.712026">
        <ele>2696.2</ele>
        <time>2022-10-19T07:49:32.000Z</time>
      </trkpt>
      <trkpt lat="27.749578" lon="86.712013">
        <ele>2696.4</ele>
        <time>2022-10-19T07:49:35.000Z</time>
      </trkpt>
      <trkpt lat="27.749597" lon="86.712">
        <ele>2696.4</ele>
        <time>2022-10-19T07:49:38.000Z</time>
      </trkpt>
      <trkpt lat="27.749606" lon="86.711981">
        <ele>2696.4</ele>
        <time>2022-10-19T07:49:40.000Z</time>
      </trkpt>
      <trkpt lat="27.749622" lon="86.711968">
        <ele>2696.6</ele>
        <time>2022-10-19T07:49:42.000Z</time>
      </trkpt>
      <trkpt lat="27.749638" lon="86.711955">
        <ele>2696.8</ele>
        <time>2022-10-19T07:49:44.000Z</time>
      </trkpt>
      <trkpt lat="27.749654" lon="86.711942">
        <ele>2697.2</ele>
        <time>2022-10-19T07:49:46.000Z</time>
      </trkpt>
      <trkpt lat="27.749677" lon="86.711942">
        <ele>2697.2</ele>
        <time>2022-10-19T07:49:48.000Z</time>
      </trkpt>
      <trkpt lat="27.749699" lon="86.71193">
        <ele>2697.6</ele>
        <time>2022-10-19T07:49:51.000Z</time>
      </trkpt>
      <trkpt lat="27.749718" lon="86.711923">
        <ele>2697.8</ele>
        <time>2022-10-19T07:49:54.000Z</time>
      </trkpt>
      <trkpt lat="27.749725" lon="86.711904">
        <ele>2697.8</ele>
        <time>2022-10-19T07:49:55.000Z</time>
      </trkpt>
      <trkpt lat="27.749738" lon="86.711885">
        <ele>2698.2</ele>
        <time>2022-10-19T07:49:58.000Z</time>
      </trkpt>
      <trkpt lat="27.74975" lon="86.711866">
        <ele>2698.4</ele>
        <time>2022-10-19T07:50:00.000Z</time>
      </trkpt>
      <trkpt lat="27.74977" lon="86.711859">
        <ele>2698.6</ele>
        <time>2022-10-19T07:50:02.000Z</time>
      </trkpt>
      <trkpt lat="27.749789" lon="86.711821">
        <ele>2699</ele>
        <time>2022-10-19T07:50:06.000Z</time>
      </trkpt>
      <trkpt lat="27.749814" lon="86.711821">
        <ele>2699.2</ele>
        <time>2022-10-19T07:50:08.000Z</time>
      </trkpt>
      <trkpt lat="27.749837" lon="86.711821">
        <ele>2699.4</ele>
        <time>2022-10-19T07:50:10.000Z</time>
      </trkpt>
      <trkpt lat="27.749859" lon="86.711808">
        <ele>2699.8</ele>
        <time>2022-10-19T07:50:13.000Z</time>
      </trkpt>
      <trkpt lat="27.749872" lon="86.711789">
        <ele>2700</ele>
        <time>2022-10-19T07:50:15.000Z</time>
      </trkpt>
      <trkpt lat="27.749901" lon="86.711782">
        <ele>2700.6</ele>
        <time>2022-10-19T07:50:18.000Z</time>
      </trkpt>
      <trkpt lat="27.749923" lon="86.71177">
        <ele>2701</ele>
        <time>2022-10-19T07:50:22.000Z</time>
      </trkpt>
      <trkpt lat="27.74993" lon="86.711744">
        <ele>2701</ele>
        <time>2022-10-19T07:50:25.000Z</time>
      </trkpt>
      <trkpt lat="27.749952" lon="86.711738">
        <ele>2701.6</ele>
        <time>2022-10-19T07:50:30.000Z</time>
      </trkpt>
      <trkpt lat="27.749962" lon="86.711706">
        <ele>2701.6</ele>
        <time>2022-10-19T07:50:33.000Z</time>
      </trkpt>
      <trkpt lat="27.749984" lon="86.711693">
        <ele>2701.8</ele>
        <time>2022-10-19T07:50:36.000Z</time>
      </trkpt>
      <trkpt lat="27.750003" lon="86.711667">
        <ele>2702</ele>
        <time>2022-10-19T07:50:39.000Z</time>
      </trkpt>
      <trkpt lat="27.750022" lon="86.711654">
        <ele>2702.6</ele>
        <time>2022-10-19T07:50:42.000Z</time>
      </trkpt>
      <trkpt lat="27.750045" lon="86.711648">
        <ele>2703</ele>
        <time>2022-10-19T07:50:45.000Z</time>
      </trkpt>
      <trkpt lat="27.750058" lon="86.711667">
        <ele>2703.2</ele>
        <time>2022-10-19T07:50:54.000Z</time>
      </trkpt>
      <trkpt lat="27.750077" lon="86.71168">
        <ele>2703</ele>
        <time>2022-10-19T07:51:01.000Z</time>
      </trkpt>
      <trkpt lat="27.750086" lon="86.711661">
        <ele>2703.2</ele>
        <time>2022-10-19T07:51:03.000Z</time>
      </trkpt>
      <trkpt lat="27.750102" lon="86.711629">
        <ele>2703.2</ele>
        <time>2022-10-19T07:51:08.000Z</time>
      </trkpt>
      <trkpt lat="27.750106" lon="86.711603">
        <ele>2704.2</ele>
        <time>2022-10-19T07:51:14.000Z</time>
      </trkpt>
      <trkpt lat="27.750112" lon="86.711584">
        <ele>2704.4</ele>
        <time>2022-10-19T07:51:16.000Z</time>
      </trkpt>
      <trkpt lat="27.750134" lon="86.711578">
        <ele>2704.4</ele>
        <time>2022-10-19T07:51:18.000Z</time>
      </trkpt>
      <trkpt lat="27.750157" lon="86.711565">
        <ele>2704.2</ele>
        <time>2022-10-19T07:51:21.000Z</time>
      </trkpt>
      <trkpt lat="27.75017" lon="86.711546">
        <ele>2704.4</ele>
        <time>2022-10-19T07:51:23.000Z</time>
      </trkpt>
      <trkpt lat="27.750182" lon="86.711526">
        <ele>2704.8</ele>
        <time>2022-10-19T07:51:25.000Z</time>
      </trkpt>
      <trkpt lat="27.750202" lon="86.711507">
        <ele>2704.8</ele>
        <time>2022-10-19T07:51:27.000Z</time>
      </trkpt>
      <trkpt lat="27.750224" lon="86.711507">
        <ele>2704.2</ele>
        <time>2022-10-19T07:51:29.000Z</time>
      </trkpt>
      <trkpt lat="27.750243" lon="86.711494">
        <ele>2704.6</ele>
        <time>2022-10-19T07:51:31.000Z</time>
      </trkpt>
      <trkpt lat="27.750262" lon="86.711469">
        <ele>2704.6</ele>
        <time>2022-10-19T07:51:33.000Z</time>
      </trkpt>
      <trkpt lat="27.750272" lon="86.71143">
        <ele>2705</ele>
        <time>2022-10-19T07:51:36.000Z</time>
      </trkpt>
      <trkpt lat="27.750291" lon="86.711424">
        <ele>2705.4</ele>
        <time>2022-10-19T07:51:38.000Z</time>
      </trkpt>
      <trkpt lat="27.75031" lon="86.71143">
        <ele>2705.8</ele>
        <time>2022-10-19T07:51:40.000Z</time>
      </trkpt>
      <trkpt lat="27.75033" lon="86.711418">
        <ele>2705.8</ele>
        <time>2022-10-19T07:51:42.000Z</time>
      </trkpt>
      <trkpt lat="27.750352" lon="86.711398">
        <ele>2706.2</ele>
        <time>2022-10-19T07:51:45.000Z</time>
      </trkpt>
      <trkpt lat="27.750368" lon="86.711386">
        <ele>2706.4</ele>
        <time>2022-10-19T07:51:47.000Z</time>
      </trkpt>
      <trkpt lat="27.750387" lon="86.711379">
        <ele>2706.4</ele>
        <time>2022-10-19T07:51:49.000Z</time>
      </trkpt>
      <trkpt lat="27.750416" lon="86.711366">
        <ele>2707</ele>
        <time>2022-10-19T07:51:52.000Z</time>
      </trkpt>
      <trkpt lat="27.750435" lon="86.71136">
        <ele>2707.2</ele>
        <time>2022-10-19T07:51:55.000Z</time>
      </trkpt>
      <trkpt lat="27.750451" lon="86.711334">
        <ele>2707.6</ele>
        <time>2022-10-19T07:51:57.000Z</time>
      </trkpt>
      <trkpt lat="27.75047" lon="86.711328">
        <ele>2707.8</ele>
        <time>2022-10-19T07:51:59.000Z</time>
      </trkpt>
      <trkpt lat="27.750496" lon="86.711328">
        <ele>2708</ele>
        <time>2022-10-19T07:52:02.000Z</time>
      </trkpt>
      <trkpt lat="27.750522" lon="86.711328">
        <ele>2708.2</ele>
        <time>2022-10-19T07:52:04.000Z</time>
      </trkpt>
      <trkpt lat="27.750541" lon="86.711322">
        <ele>2708.4</ele>
        <time>2022-10-19T07:52:06.000Z</time>
      </trkpt>
      <trkpt lat="27.750563" lon="86.711309">
        <ele>2708</ele>
        <time>2022-10-19T07:52:08.000Z</time>
      </trkpt>
      <trkpt lat="27.750579" lon="86.711296">
        <ele>2708</ele>
        <time>2022-10-19T07:52:10.000Z</time>
      </trkpt>
      <trkpt lat="27.750598" lon="86.711296">
        <ele>2708</ele>
        <time>2022-10-19T07:52:12.000Z</time>
      </trkpt>
      <trkpt lat="27.750621" lon="86.71129">
        <ele>2708</ele>
        <time>2022-10-19T07:52:14.000Z</time>
      </trkpt>
      <trkpt lat="27.750643" lon="86.71127">
        <ele>2708</ele>
        <time>2022-10-19T07:52:16.000Z</time>
      </trkpt>
      <trkpt lat="27.750666" lon="86.711258">
        <ele>2708</ele>
        <time>2022-10-19T07:52:18.000Z</time>
      </trkpt>
      <trkpt lat="27.750685" lon="86.711251">
        <ele>2708</ele>
        <time>2022-10-19T07:52:20.000Z</time>
      </trkpt>
      <trkpt lat="27.750704" lon="86.711232">
        <ele>2708.4</ele>
        <time>2022-10-19T07:52:22.000Z</time>
      </trkpt>
      <trkpt lat="27.750723" lon="86.711226">
        <ele>2708.4</ele>
        <time>2022-10-19T07:52:24.000Z</time>
      </trkpt>
      <trkpt lat="27.750746" lon="86.711226">
        <ele>2708.2</ele>
        <time>2022-10-19T07:52:26.000Z</time>
      </trkpt>
      <trkpt lat="27.750765" lon="86.711226">
        <ele>2708.2</ele>
        <time>2022-10-19T07:52:28.000Z</time>
      </trkpt>
      <trkpt lat="27.75079" lon="86.711226">
        <ele>2708.6</ele>
        <time>2022-10-19T07:52:30.000Z</time>
      </trkpt>
      <trkpt lat="27.75081" lon="86.711219">
        <ele>2708.8</ele>
        <time>2022-10-19T07:52:32.000Z</time>
      </trkpt>
      <trkpt lat="27.750829" lon="86.711219">
        <ele>2709.2</ele>
        <time>2022-10-19T07:52:34.000Z</time>
      </trkpt>
      <trkpt lat="27.750854" lon="86.711213">
        <ele>2710</ele>
        <time>2022-10-19T07:52:37.000Z</time>
      </trkpt>
      <trkpt lat="27.750874" lon="86.711206">
        <ele>2710.6</ele>
        <time>2022-10-19T07:52:39.000Z</time>
      </trkpt>
      <trkpt lat="27.750899" lon="86.711187">
        <ele>2710.4</ele>
        <time>2022-10-19T07:52:42.000Z</time>
      </trkpt>
      <trkpt lat="27.750918" lon="86.711181">
        <ele>2710.4</ele>
        <time>2022-10-19T07:52:44.000Z</time>
      </trkpt>
      <trkpt lat="27.750938" lon="86.711174">
        <ele>2710.4</ele>
        <time>2022-10-19T07:52:46.000Z</time>
      </trkpt>
      <trkpt lat="27.750957" lon="86.711162">
        <ele>2710.4</ele>
        <time>2022-10-19T07:52:50.000Z</time>
      </trkpt>
      <trkpt lat="27.750963" lon="86.711136">
        <ele>2710.2</ele>
        <time>2022-10-19T07:52:53.000Z</time>
      </trkpt>
      <trkpt lat="27.75097" lon="86.71111">
        <ele>2709.2</ele>
        <time>2022-10-19T07:52:56.000Z</time>
      </trkpt>
      <trkpt lat="27.750979" lon="86.711091">
        <ele>2709.2</ele>
        <time>2022-10-19T07:52:58.000Z</time>
      </trkpt>
      <trkpt lat="27.750986" lon="86.711072">
        <ele>2708.8</ele>
        <time>2022-10-19T07:52:59.000Z</time>
      </trkpt>
      <trkpt lat="27.750995" lon="86.711053">
        <ele>2708.4</ele>
        <time>2022-10-19T07:53:01.000Z</time>
      </trkpt>
      <trkpt lat="27.751002" lon="86.711027">
        <ele>2707.4</ele>
        <time>2022-10-19T07:53:04.000Z</time>
      </trkpt>
      <trkpt lat="27.751018" lon="86.711008">
        <ele>2706.4</ele>
        <time>2022-10-19T07:53:09.000Z</time>
      </trkpt>
      <trkpt lat="27.751024" lon="86.710989">
        <ele>2706.2</ele>
        <time>2022-10-19T07:53:11.000Z</time>
      </trkpt>
      <trkpt lat="27.751034" lon="86.71097">
        <ele>2705.4</ele>
        <time>2022-10-19T07:53:14.000Z</time>
      </trkpt>
      <trkpt lat="27.75105" lon="86.71095">
        <ele>2704.6</ele>
        <time>2022-10-19T07:53:16.000Z</time>
      </trkpt>
      <trkpt lat="27.751069" lon="86.710931">
        <ele>2704.4</ele>
        <time>2022-10-19T07:53:18.000Z</time>
      </trkpt>
      <trkpt lat="27.751088" lon="86.710912">
        <ele>2704.2</ele>
        <time>2022-10-19T07:53:20.000Z</time>
      </trkpt>
      <trkpt lat="27.751098" lon="86.710893">
        <ele>2704</ele>
        <time>2022-10-19T07:53:22.000Z</time>
      </trkpt>
      <trkpt lat="27.751114" lon="86.710874">
        <ele>2703.4</ele>
        <time>2022-10-19T07:53:25.000Z</time>
      </trkpt>
      <trkpt lat="27.75112" lon="86.710854">
        <ele>2703.2</ele>
        <time>2022-10-19T07:53:27.000Z</time>
      </trkpt>
      <trkpt lat="27.751126" lon="86.710835">
        <ele>2703</ele>
        <time>2022-10-19T07:53:29.000Z</time>
      </trkpt>
      <trkpt lat="27.75113" lon="86.71081">
        <ele>2702.6</ele>
        <time>2022-10-19T07:53:33.000Z</time>
      </trkpt>
      <trkpt lat="27.751139" lon="86.71079">
        <ele>2702.4</ele>
        <time>2022-10-19T07:53:35.000Z</time>
      </trkpt>
      <trkpt lat="27.751152" lon="86.710771">
        <ele>2702.2</ele>
        <time>2022-10-19T07:53:37.000Z</time>
      </trkpt>
      <trkpt lat="27.751171" lon="86.710765">
        <ele>2701.8</ele>
        <time>2022-10-19T07:53:40.000Z</time>
      </trkpt>
      <trkpt lat="27.751187" lon="86.710746">
        <ele>2701.8</ele>
        <time>2022-10-19T07:53:43.000Z</time>
      </trkpt>
      <trkpt lat="27.751203" lon="86.710733">
        <ele>2701.4</ele>
        <time>2022-10-19T07:53:45.000Z</time>
      </trkpt>
      <trkpt lat="27.751219" lon="86.710714">
        <ele>2701.2</ele>
        <time>2022-10-19T07:53:47.000Z</time>
      </trkpt>
      <trkpt lat="27.751238" lon="86.710701">
        <ele>2700.2</ele>
        <time>2022-10-19T07:53:49.000Z</time>
      </trkpt>
      <trkpt lat="27.751258" lon="86.710688">
        <ele>2700</ele>
        <time>2022-10-19T07:53:51.000Z</time>
      </trkpt>
      <trkpt lat="27.751274" lon="86.710662">
        <ele>2699.8</ele>
        <time>2022-10-19T07:53:53.000Z</time>
      </trkpt>
      <trkpt lat="27.751293" lon="86.710637">
        <ele>2699.2</ele>
        <time>2022-10-19T07:53:56.000Z</time>
      </trkpt>
      <trkpt lat="27.751309" lon="86.710624">
        <ele>2698.6</ele>
        <time>2022-10-19T07:54:01.000Z</time>
      </trkpt>
      <trkpt lat="27.751325" lon="86.710611">
        <ele>2698.2</ele>
        <time>2022-10-19T07:54:04.000Z</time>
      </trkpt>
      <trkpt lat="27.75135" lon="86.710586">
        <ele>2697.8</ele>
        <time>2022-10-19T07:54:07.000Z</time>
      </trkpt>
      <trkpt lat="27.751363" lon="86.710566">
        <ele>2697</ele>
        <time>2022-10-19T07:54:10.000Z</time>
      </trkpt>
      <trkpt lat="27.751376" lon="86.710547">
        <ele>2696.8</ele>
        <time>2022-10-19T07:54:12.000Z</time>
      </trkpt>
      <trkpt lat="27.751392" lon="86.710534">
        <ele>2696.4</ele>
        <time>2022-10-19T07:54:15.000Z</time>
      </trkpt>
      <trkpt lat="27.751402" lon="86.710515">
        <ele>2696.2</ele>
        <time>2022-10-19T07:54:17.000Z</time>
      </trkpt>
      <trkpt lat="27.751427" lon="86.710509">
        <ele>2695.8</ele>
        <time>2022-10-19T07:54:21.000Z</time>
      </trkpt>
      <trkpt lat="27.751446" lon="86.710496">
        <ele>2695.8</ele>
        <time>2022-10-19T07:54:23.000Z</time>
      </trkpt>
      <trkpt lat="27.751472" lon="86.710496">
        <ele>2695.6</ele>
        <time>2022-10-19T07:54:25.000Z</time>
      </trkpt>
      <trkpt lat="27.751488" lon="86.710509">
        <ele>2695</ele>
        <time>2022-10-19T07:54:30.000Z</time>
      </trkpt>
      <trkpt lat="27.751514" lon="86.710502">
        <ele>2695</ele>
        <time>2022-10-19T07:54:33.000Z</time>
      </trkpt>
      <trkpt lat="27.751536" lon="86.710496">
        <ele>2695.2</ele>
        <time>2022-10-19T07:54:35.000Z</time>
      </trkpt>
      <trkpt lat="27.751565" lon="86.710496">
        <ele>2695.2</ele>
        <time>2022-10-19T07:54:37.000Z</time>
      </trkpt>
      <trkpt lat="27.751584" lon="86.710502">
        <ele>2695.4</ele>
        <time>2022-10-19T07:54:39.000Z</time>
      </trkpt>
      <trkpt lat="27.751603" lon="86.710502">
        <ele>2695.4</ele>
        <time>2022-10-19T07:54:41.000Z</time>
      </trkpt>
      <trkpt lat="27.751622" lon="86.710509">
        <ele>2696.4</ele>
        <time>2022-10-19T07:54:44.000Z</time>
      </trkpt>
      <trkpt lat="27.751642" lon="86.710509">
        <ele>2696.8</ele>
        <time>2022-10-19T07:54:46.000Z</time>
      </trkpt>
      <trkpt lat="27.751661" lon="86.710509">
        <ele>2696.4</ele>
        <time>2022-10-19T07:54:50.000Z</time>
      </trkpt>
      <trkpt lat="27.75168" lon="86.710515">
        <ele>2696.4</ele>
        <time>2022-10-19T07:54:52.000Z</time>
      </trkpt>
      <trkpt lat="27.751706" lon="86.710515">
        <ele>2696.2</ele>
        <time>2022-10-19T07:54:54.000Z</time>
      </trkpt>
      <trkpt lat="27.751725" lon="86.710515">
        <ele>2695.6</ele>
        <time>2022-10-19T07:54:56.000Z</time>
      </trkpt>
      <trkpt lat="27.751747" lon="86.710496">
        <ele>2693.8</ele>
        <time>2022-10-19T07:55:25.000Z</time>
      </trkpt>
      <trkpt lat="27.751763" lon="86.71047">
        <ele>2693.6</ele>
        <time>2022-10-19T07:55:27.000Z</time>
      </trkpt>
      <trkpt lat="27.751773" lon="86.710451">
        <ele>2693.6</ele>
        <time>2022-10-19T07:55:29.000Z</time>
      </trkpt>
      <trkpt lat="27.751779" lon="86.710432">
        <ele>2693.2</ele>
        <time>2022-10-19T07:55:31.000Z</time>
      </trkpt>
      <trkpt lat="27.751779" lon="86.710406">
        <ele>2694.6</ele>
        <time>2022-10-19T07:55:40.000Z</time>
      </trkpt>
      <trkpt lat="27.751779" lon="86.710381">
        <ele>2694.4</ele>
        <time>2022-10-19T07:55:43.000Z</time>
      </trkpt>
      <trkpt lat="27.751792" lon="86.710355">
        <ele>2693.8</ele>
        <time>2022-10-19T07:55:47.000Z</time>
      </trkpt>
      <trkpt lat="27.751811" lon="86.710349">
        <ele>2694.4</ele>
        <time>2022-10-19T07:55:51.000Z</time>
      </trkpt>
      <trkpt lat="27.75184" lon="86.710317">
        <ele>2696.8</ele>
        <time>2022-10-19T07:56:05.000Z</time>
      </trkpt>
      <trkpt lat="27.751859" lon="86.71031">
        <ele>2697.4</ele>
        <time>2022-10-19T07:56:09.000Z</time>
      </trkpt>
      <trkpt lat="27.751882" lon="86.710298">
        <ele>2699.4</ele>
        <time>2022-10-19T07:56:15.000Z</time>
      </trkpt>
      <trkpt lat="27.751901" lon="86.710304">
        <ele>2700.2</ele>
        <time>2022-10-19T07:56:22.000Z</time>
      </trkpt>
      <trkpt lat="27.751917" lon="86.710317">
        <ele>2700.8</ele>
        <time>2022-10-19T07:56:30.000Z</time>
      </trkpt>
      <trkpt lat="27.751939" lon="86.710317">
        <ele>2702</ele>
        <time>2022-10-19T07:56:38.000Z</time>
      </trkpt>
      <trkpt lat="27.751962" lon="86.710317">
        <ele>2703</ele>
        <time>2022-10-19T07:56:44.000Z</time>
      </trkpt>
      <trkpt lat="27.751981" lon="86.71031">
        <ele>2704</ele>
        <time>2022-10-19T07:56:48.000Z</time>
      </trkpt>
      <trkpt lat="27.752" lon="86.710291">
        <ele>2704.4</ele>
        <time>2022-10-19T07:56:52.000Z</time>
      </trkpt>
      <trkpt lat="27.752003" lon="86.710266">
        <ele>2704.2</ele>
        <time>2022-10-19T07:56:55.000Z</time>
      </trkpt>
      <trkpt lat="27.752003" lon="86.710234">
        <ele>2704.8</ele>
        <time>2022-10-19T07:56:58.000Z</time>
      </trkpt>
      <trkpt lat="27.752003" lon="86.710208">
        <ele>2705</ele>
        <time>2022-10-19T07:57:03.000Z</time>
      </trkpt>
      <trkpt lat="27.752019" lon="86.710189">
        <ele>2705.6</ele>
        <time>2022-10-19T07:57:06.000Z</time>
      </trkpt>
      <trkpt lat="27.752019" lon="86.710157">
        <ele>2705.6</ele>
        <time>2022-10-19T07:57:08.000Z</time>
      </trkpt>
      <trkpt lat="27.752029" lon="86.710138">
        <ele>2705.6</ele>
        <time>2022-10-19T07:57:11.000Z</time>
      </trkpt>
      <trkpt lat="27.752022" lon="86.710118">
        <ele>2705.6</ele>
        <time>2022-10-19T07:57:12.000Z</time>
      </trkpt>
      <trkpt lat="27.752029" lon="86.710099">
        <ele>2706.2</ele>
        <time>2022-10-19T07:57:15.000Z</time>
      </trkpt>
      <trkpt lat="27.752038" lon="86.71008">
        <ele>2706.8</ele>
        <time>2022-10-19T07:57:18.000Z</time>
      </trkpt>
      <trkpt lat="27.752042" lon="86.710054">
        <ele>2707.2</ele>
        <time>2022-10-19T07:57:21.000Z</time>
      </trkpt>
      <trkpt lat="27.752035" lon="86.710029">
        <ele>2707.2</ele>
        <time>2022-10-19T07:57:23.000Z</time>
      </trkpt>
      <trkpt lat="27.752042" lon="86.709997">
        <ele>2707.6</ele>
        <time>2022-10-19T07:57:27.000Z</time>
      </trkpt>
      <trkpt lat="27.752048" lon="86.709978">
        <ele>2707.8</ele>
        <time>2022-10-19T07:57:30.000Z</time>
      </trkpt>
      <trkpt lat="27.752054" lon="86.709958">
        <ele>2708.2</ele>
        <time>2022-10-19T07:57:32.000Z</time>
      </trkpt>
      <trkpt lat="27.752067" lon="86.709939">
        <ele>2709</ele>
        <time>2022-10-19T07:57:37.000Z</time>
      </trkpt>
      <trkpt lat="27.752074" lon="86.70992">
        <ele>2709</ele>
        <time>2022-10-19T07:57:39.000Z</time>
      </trkpt>
      <trkpt lat="27.752083" lon="86.709901">
        <ele>2709.4</ele>
        <time>2022-10-19T07:57:44.000Z</time>
      </trkpt>
      <trkpt lat="27.752086" lon="86.709875">
        <ele>2710</ele>
        <time>2022-10-19T07:57:47.000Z</time>
      </trkpt>
      <trkpt lat="27.752093" lon="86.70985">
        <ele>2709.8</ele>
        <time>2022-10-19T07:57:52.000Z</time>
      </trkpt>
      <trkpt lat="27.752093" lon="86.709824">
        <ele>2711.2</ele>
        <time>2022-10-19T07:57:56.000Z</time>
      </trkpt>
      <trkpt lat="27.752112" lon="86.70983">
        <ele>2711.6</ele>
        <time>2022-10-19T07:58:01.000Z</time>
      </trkpt>
      <trkpt lat="27.752122" lon="86.70985">
        <ele>2711.8</ele>
        <time>2022-10-19T07:58:04.000Z</time>
      </trkpt>
      <trkpt lat="27.752131" lon="86.709869">
        <ele>2712.4</ele>
        <time>2022-10-19T07:58:07.000Z</time>
      </trkpt>
      <trkpt lat="27.752166" lon="86.709914">
        <ele>2715.4</ele>
        <time>2022-10-19T07:59:44.000Z</time>
      </trkpt>
      <trkpt lat="27.752192" lon="86.709907">
        <ele>2715.4</ele>
        <time>2022-10-19T07:59:46.000Z</time>
      </trkpt>
      <trkpt lat="27.752214" lon="86.709901">
        <ele>2715.6</ele>
        <time>2022-10-19T07:59:48.000Z</time>
      </trkpt>
      <trkpt lat="27.75224" lon="86.709894">
        <ele>2715.6</ele>
        <time>2022-10-19T07:59:51.000Z</time>
      </trkpt>
      <trkpt lat="27.752259" lon="86.709901">
        <ele>2715.6</ele>
        <time>2022-10-19T07:59:53.000Z</time>
      </trkpt>
      <trkpt lat="27.752278" lon="86.709901">
        <ele>2715.6</ele>
        <time>2022-10-19T07:59:57.000Z</time>
      </trkpt>
      <trkpt lat="27.752298" lon="86.709914">
        <ele>2715.8</ele>
        <time>2022-10-19T08:00:02.000Z</time>
      </trkpt>
      <trkpt lat="27.75231" lon="86.709952">
        <ele>2716.6</ele>
        <time>2022-10-19T08:01:06.000Z</time>
      </trkpt>
      <trkpt lat="27.75232" lon="86.709971">
        <ele>2716.6</ele>
        <time>2022-10-19T08:01:08.000Z</time>
      </trkpt>
      <trkpt lat="27.752339" lon="86.709978">
        <ele>2716.6</ele>
        <time>2022-10-19T08:01:11.000Z</time>
      </trkpt>
      <trkpt lat="27.752333" lon="86.709952">
        <ele>2718</ele>
        <time>2022-10-19T08:02:05.000Z</time>
      </trkpt>
      <trkpt lat="27.75232" lon="86.709984">
        <ele>2718</ele>
        <time>2022-10-19T08:02:49.000Z</time>
      </trkpt>
      <trkpt lat="27.752317" lon="86.710022">
        <ele>2717.2</ele>
        <time>2022-10-19T08:02:51.000Z</time>
      </trkpt>
      <trkpt lat="27.752314" lon="86.710061">
        <ele>2716.8</ele>
        <time>2022-10-19T08:02:53.000Z</time>
      </trkpt>
      <trkpt lat="27.752317" lon="86.710099">
        <ele>2717.2</ele>
        <time>2022-10-19T08:02:55.000Z</time>
      </trkpt>
      <trkpt lat="27.75232" lon="86.710138">
        <ele>2717.2</ele>
        <time>2022-10-19T08:02:57.000Z</time>
      </trkpt>
      <trkpt lat="27.752326" lon="86.71017">
        <ele>2717</ele>
        <time>2022-10-19T08:02:59.000Z</time>
      </trkpt>
      <trkpt lat="27.752333" lon="86.710189">
        <ele>2717.4</ele>
        <time>2022-10-19T08:03:01.000Z</time>
      </trkpt>
      <trkpt lat="27.752339" lon="86.710214">
        <ele>2717.4</ele>
        <time>2022-10-19T08:03:03.000Z</time>
      </trkpt>
      <trkpt lat="27.752346" lon="86.710234">
        <ele>2717.6</ele>
        <time>2022-10-19T08:03:05.000Z</time>
      </trkpt>
      <trkpt lat="27.752355" lon="86.710259">
        <ele>2717.6</ele>
        <time>2022-10-19T08:03:07.000Z</time>
      </trkpt>
      <trkpt lat="27.752362" lon="86.710278">
        <ele>2717.6</ele>
        <time>2022-10-19T08:03:10.000Z</time>
      </trkpt>
      <trkpt lat="27.752365" lon="86.710304">
        <ele>2717.8</ele>
        <time>2022-10-19T08:03:13.000Z</time>
      </trkpt>
      <trkpt lat="27.752378" lon="86.71033">
        <ele>2718.8</ele>
        <time>2022-10-19T08:03:18.000Z</time>
      </trkpt>
      <trkpt lat="27.752387" lon="86.710349">
        <ele>2718.8</ele>
        <time>2022-10-19T08:03:21.000Z</time>
      </trkpt>
      <trkpt lat="27.752384" lon="86.710374">
        <ele>2719.8</ele>
        <time>2022-10-19T08:03:23.000Z</time>
      </trkpt>
      <trkpt lat="27.752387" lon="86.710406">
        <ele>2720.4</ele>
        <time>2022-10-19T08:03:27.000Z</time>
      </trkpt>
      <trkpt lat="27.752397" lon="86.710432">
        <ele>2720</ele>
        <time>2022-10-19T08:03:30.000Z</time>
      </trkpt>
      <trkpt lat="27.752397" lon="86.710458">
        <ele>2720.4</ele>
        <time>2022-10-19T08:03:33.000Z</time>
      </trkpt>
      <trkpt lat="27.752406" lon="86.710477">
        <ele>2720.8</ele>
        <time>2022-10-19T08:03:36.000Z</time>
      </trkpt>
      <trkpt lat="27.752426" lon="86.71049">
        <ele>2721.6</ele>
        <time>2022-10-19T08:03:41.000Z</time>
      </trkpt>
      <trkpt lat="27.752445" lon="86.710477">
        <ele>2722.2</ele>
        <time>2022-10-19T08:03:45.000Z</time>
      </trkpt>
      <trkpt lat="27.75247" lon="86.71047">
        <ele>2723.2</ele>
        <time>2022-10-19T08:03:48.000Z</time>
      </trkpt>
      <trkpt lat="27.75249" lon="86.710464">
        <ele>2723.6</ele>
        <time>2022-10-19T08:03:50.000Z</time>
      </trkpt>
      <trkpt lat="27.752512" lon="86.710458">
        <ele>2723.8</ele>
        <time>2022-10-19T08:03:52.000Z</time>
      </trkpt>
      <trkpt lat="27.752538" lon="86.710458">
        <ele>2724</ele>
        <time>2022-10-19T08:03:55.000Z</time>
      </trkpt>
      <trkpt lat="27.75256" lon="86.710458">
        <ele>2724</ele>
        <time>2022-10-19T08:03:57.000Z</time>
      </trkpt>
      <trkpt lat="27.752586" lon="86.710438">
        <ele>2724.2</ele>
        <time>2022-10-19T08:04:00.000Z</time>
      </trkpt>
      <trkpt lat="27.752605" lon="86.710438">
        <ele>2724.4</ele>
        <time>2022-10-19T08:04:02.000Z</time>
      </trkpt>
      <trkpt lat="27.752634" lon="86.710438">
        <ele>2724.8</ele>
        <time>2022-10-19T08:04:06.000Z</time>
      </trkpt>
      <trkpt lat="27.752656" lon="86.710458">
        <ele>2724.2</ele>
        <time>2022-10-19T08:04:09.000Z</time>
      </trkpt>
      <trkpt lat="27.752675" lon="86.710464">
        <ele>2724.2</ele>
        <time>2022-10-19T08:04:11.000Z</time>
      </trkpt>
      <trkpt lat="27.752694" lon="86.710464">
        <ele>2723.8</ele>
        <time>2022-10-19T08:04:14.000Z</time>
      </trkpt>
      <trkpt lat="27.752714" lon="86.710464">
        <ele>2723.4</ele>
        <time>2022-10-19T08:04:16.000Z</time>
      </trkpt>
      <trkpt lat="27.752736" lon="86.710451">
        <ele>2722.6</ele>
        <time>2022-10-19T08:04:19.000Z</time>
      </trkpt>
      <trkpt lat="27.752758" lon="86.710451">
        <ele>2722</ele>
        <time>2022-10-19T08:04:22.000Z</time>
      </trkpt>
      <trkpt lat="27.752774" lon="86.710438">
        <ele>2721.8</ele>
        <time>2022-10-19T08:04:24.000Z</time>
      </trkpt>
      <trkpt lat="27.752794" lon="86.710438">
        <ele>2721.2</ele>
        <time>2022-10-19T08:04:26.000Z</time>
      </trkpt>
      <trkpt lat="27.752813" lon="86.710438">
        <ele>2721</ele>
        <time>2022-10-19T08:04:28.000Z</time>
      </trkpt>
      <trkpt lat="27.752835" lon="86.710426">
        <ele>2720.2</ele>
        <time>2022-10-19T08:04:31.000Z</time>
      </trkpt>
      <trkpt lat="27.752854" lon="86.710426">
        <ele>2719.8</ele>
        <time>2022-10-19T08:04:33.000Z</time>
      </trkpt>
      <trkpt lat="27.75287" lon="86.710438">
        <ele>2719.8</ele>
        <time>2022-10-19T08:04:35.000Z</time>
      </trkpt>
      <trkpt lat="27.752896" lon="86.710438">
        <ele>2720.2</ele>
        <time>2022-10-19T08:04:39.000Z</time>
      </trkpt>
      <trkpt lat="27.752918" lon="86.710432">
        <ele>2720.2</ele>
        <time>2022-10-19T08:04:42.000Z</time>
      </trkpt>
      <trkpt lat="27.752947" lon="86.710432">
        <ele>2720.4</ele>
        <time>2022-10-19T08:04:45.000Z</time>
      </trkpt>
      <trkpt lat="27.752966" lon="86.710451">
        <ele>2720.4</ele>
        <time>2022-10-19T08:04:47.000Z</time>
      </trkpt>
      <trkpt lat="27.752992" lon="86.710458">
        <ele>2720.4</ele>
        <time>2022-10-19T08:04:49.000Z</time>
      </trkpt>
      <trkpt lat="27.753014" lon="86.710458">
        <ele>2720</ele>
        <time>2022-10-19T08:04:51.000Z</time>
      </trkpt>
      <trkpt lat="27.75304" lon="86.710458">
        <ele>2720.2</ele>
        <time>2022-10-19T08:04:54.000Z</time>
      </trkpt>
      <trkpt lat="27.753059" lon="86.71047">
        <ele>2720</ele>
        <time>2022-10-19T08:04:57.000Z</time>
      </trkpt>
      <trkpt lat="27.75311" lon="86.71049">
        <ele>2719.4</ele>
        <time>2022-10-19T08:05:04.000Z</time>
      </trkpt>
      <trkpt lat="27.75313" lon="86.710502">
        <ele>2719</ele>
        <time>2022-10-19T08:05:06.000Z</time>
      </trkpt>
      <trkpt lat="27.753149" lon="86.710509">
        <ele>2719</ele>
        <time>2022-10-19T08:05:08.000Z</time>
      </trkpt>
      <trkpt lat="27.75313" lon="86.710502">
        <ele>2718.4</ele>
        <time>2022-10-19T08:05:18.000Z</time>
      </trkpt>
      <trkpt lat="27.753152" lon="86.710515">
        <ele>2718.6</ele>
        <time>2022-10-19T08:05:40.000Z</time>
      </trkpt>
      <trkpt lat="27.753174" lon="86.710509">
        <ele>2718.4</ele>
        <time>2022-10-19T08:05:42.000Z</time>
      </trkpt>
      <trkpt lat="27.7532" lon="86.710515">
        <ele>2718.4</ele>
        <time>2022-10-19T08:05:44.000Z</time>
      </trkpt>
      <trkpt lat="27.753229" lon="86.710515">
        <ele>2718.4</ele>
        <time>2022-10-19T08:05:46.000Z</time>
      </trkpt>
      <trkpt lat="27.753245" lon="86.710528">
        <ele>2718.4</ele>
        <time>2022-10-19T08:05:47.000Z</time>
      </trkpt>
      <trkpt lat="27.75327" lon="86.710528">
        <ele>2718.4</ele>
        <time>2022-10-19T08:05:49.000Z</time>
      </trkpt>
      <trkpt lat="27.75329" lon="86.710515">
        <ele>2718.8</ele>
        <time>2022-10-19T08:05:51.000Z</time>
      </trkpt>
      <trkpt lat="27.753309" lon="86.710541">
        <ele>2718.6</ele>
        <time>2022-10-19T08:05:53.000Z</time>
      </trkpt>
      <trkpt lat="27.753331" lon="86.710554">
        <ele>2718.4</ele>
        <time>2022-10-19T08:05:55.000Z</time>
      </trkpt>
      <trkpt lat="27.75335" lon="86.710547">
        <ele>2718.8</ele>
        <time>2022-10-19T08:05:58.000Z</time>
      </trkpt>
      <trkpt lat="27.753373" lon="86.710554">
        <ele>2718.8</ele>
        <time>2022-10-19T08:06:00.000Z</time>
      </trkpt>
      <trkpt lat="27.753395" lon="86.710554">
        <ele>2718.8</ele>
        <time>2022-10-19T08:06:02.000Z</time>
      </trkpt>
      <trkpt lat="27.753414" lon="86.710554">
        <ele>2718.8</ele>
        <time>2022-10-19T08:06:04.000Z</time>
      </trkpt>
      <trkpt lat="27.753437" lon="86.710547">
        <ele>2718.6</ele>
        <time>2022-10-19T08:06:06.000Z</time>
      </trkpt>
      <trkpt lat="27.753459" lon="86.710547">
        <ele>2718.6</ele>
        <time>2022-10-19T08:06:09.000Z</time>
      </trkpt>
      <trkpt lat="27.753478" lon="86.710547">
        <ele>2718.2</ele>
        <time>2022-10-19T08:06:11.000Z</time>
      </trkpt>
      <trkpt lat="27.753498" lon="86.710554">
        <ele>2718</ele>
        <time>2022-10-19T08:06:13.000Z</time>
      </trkpt>
      <trkpt lat="27.753517" lon="86.710554">
        <ele>2717.4</ele>
        <time>2022-10-19T08:06:18.000Z</time>
      </trkpt>
      <trkpt lat="27.753533" lon="86.710566">
        <ele>2716</ele>
        <time>2022-10-19T08:06:47.000Z</time>
      </trkpt>
      <trkpt lat="27.753568" lon="86.710566">
        <ele>2715.6</ele>
        <time>2022-10-19T08:06:50.000Z</time>
      </trkpt>
      <trkpt lat="27.753613" lon="86.710554">
        <ele>2715.4</ele>
        <time>2022-10-19T08:06:57.000Z</time>
      </trkpt>
      <trkpt lat="27.753629" lon="86.710573">
        <ele>2715.2</ele>
        <time>2022-10-19T08:07:00.000Z</time>
      </trkpt>
      <trkpt lat="27.753651" lon="86.710566">
        <ele>2714.8</ele>
        <time>2022-10-19T08:07:03.000Z</time>
      </trkpt>
      <trkpt lat="27.753677" lon="86.710573">
        <ele>2714.6</ele>
        <time>2022-10-19T08:07:06.000Z</time>
      </trkpt>
      <trkpt lat="27.753696" lon="86.710573">
        <ele>2714.6</ele>
        <time>2022-10-19T08:07:08.000Z</time>
      </trkpt>
      <trkpt lat="27.753715" lon="86.710573">
        <ele>2714.4</ele>
        <time>2022-10-19T08:07:10.000Z</time>
      </trkpt>
      <trkpt lat="27.753734" lon="86.710579">
        <ele>2714.4</ele>
        <time>2022-10-19T08:07:12.000Z</time>
      </trkpt>
      <trkpt lat="27.753757" lon="86.710573">
        <ele>2714.2</ele>
        <time>2022-10-19T08:07:15.000Z</time>
      </trkpt>
      <trkpt lat="27.753779" lon="86.710554">
        <ele>2714</ele>
        <time>2022-10-19T08:07:17.000Z</time>
      </trkpt>
      <trkpt lat="27.753798" lon="86.710554">
        <ele>2714</ele>
        <time>2022-10-19T08:07:19.000Z</time>
      </trkpt>
      <trkpt lat="27.753818" lon="86.710554">
        <ele>2713.4</ele>
        <time>2022-10-19T08:07:24.000Z</time>
      </trkpt>
      <trkpt lat="27.753843" lon="86.710547">
        <ele>2713.4</ele>
        <time>2022-10-19T08:07:27.000Z</time>
      </trkpt>
      <trkpt lat="27.753866" lon="86.710554">
        <ele>2713.4</ele>
        <time>2022-10-19T08:07:29.000Z</time>
      </trkpt>
      <trkpt lat="27.753888" lon="86.710554">
        <ele>2713.4</ele>
        <time>2022-10-19T08:07:31.000Z</time>
      </trkpt>
      <trkpt lat="27.753904" lon="86.710566">
        <ele>2713</ele>
        <time>2022-10-19T08:07:33.000Z</time>
      </trkpt>
      <trkpt lat="27.753926" lon="86.710573">
        <ele>2712.2</ele>
        <time>2022-10-19T08:07:35.000Z</time>
      </trkpt>
      <trkpt lat="27.753946" lon="86.710579">
        <ele>2712</ele>
        <time>2022-10-19T08:07:37.000Z</time>
      </trkpt>
      <trkpt lat="27.753968" lon="86.710586">
        <ele>2712.2</ele>
        <time>2022-10-19T08:07:39.000Z</time>
      </trkpt>
      <trkpt lat="27.753994" lon="86.710573">
        <ele>2711.8</ele>
        <time>2022-10-19T08:07:41.000Z</time>
      </trkpt>
      <trkpt lat="27.754019" lon="86.710573">
        <ele>2711.8</ele>
        <time>2022-10-19T08:07:43.000Z</time>
      </trkpt>
      <trkpt lat="27.754048" lon="86.710566">
        <ele>2711.4</ele>
        <time>2022-10-19T08:07:45.000Z</time>
      </trkpt>
      <trkpt lat="27.754074" lon="86.710554">
        <ele>2711</ele>
        <time>2022-10-19T08:07:48.000Z</time>
      </trkpt>
      <trkpt lat="27.754096" lon="86.710554">
        <ele>2711</ele>
        <time>2022-10-19T08:07:50.000Z</time>
      </trkpt>
      <trkpt lat="27.754118" lon="86.710541">
        <ele>2711</ele>
        <time>2022-10-19T08:07:52.000Z</time>
      </trkpt>
      <trkpt lat="27.754138" lon="86.710528">
        <ele>2711</ele>
        <time>2022-10-19T08:07:54.000Z</time>
      </trkpt>
      <trkpt lat="27.754163" lon="86.710528">
        <ele>2711.2</ele>
        <time>2022-10-19T08:07:57.000Z</time>
      </trkpt>
      <trkpt lat="27.754182" lon="86.710515">
        <ele>2711.4</ele>
        <time>2022-10-19T08:07:59.000Z</time>
      </trkpt>
      <trkpt lat="27.754205" lon="86.710515">
        <ele>2711.4</ele>
        <time>2022-10-19T08:08:01.000Z</time>
      </trkpt>
      <trkpt lat="27.75423" lon="86.710515">
        <ele>2711.4</ele>
        <time>2022-10-19T08:08:03.000Z</time>
      </trkpt>
      <trkpt lat="27.754253" lon="86.710502">
        <ele>2711.2</ele>
        <time>2022-10-19T08:08:05.000Z</time>
      </trkpt>
      <trkpt lat="27.754278" lon="86.710509">
        <ele>2711.2</ele>
        <time>2022-10-19T08:08:07.000Z</time>
      </trkpt>
      <trkpt lat="27.754298" lon="86.710509">
        <ele>2710.8</ele>
        <time>2022-10-19T08:08:09.000Z</time>
      </trkpt>
      <trkpt lat="27.754323" lon="86.710509">
        <ele>2710.8</ele>
        <time>2022-10-19T08:08:11.000Z</time>
      </trkpt>
      <trkpt lat="27.754352" lon="86.710509">
        <ele>2710.6</ele>
        <time>2022-10-19T08:08:14.000Z</time>
      </trkpt>
      <trkpt lat="27.754374" lon="86.710509">
        <ele>2710</ele>
        <time>2022-10-19T08:08:16.000Z</time>
      </trkpt>
      <trkpt lat="27.754397" lon="86.710515">
        <ele>2710</ele>
        <time>2022-10-19T08:08:18.000Z</time>
      </trkpt>
      <trkpt lat="27.754419" lon="86.710515">
        <ele>2709.6</ele>
        <time>2022-10-19T08:08:20.000Z</time>
      </trkpt>
      <trkpt lat="27.754442" lon="86.710515">
        <ele>2709.4</ele>
        <time>2022-10-19T08:08:22.000Z</time>
      </trkpt>
      <trkpt lat="27.754461" lon="86.710515">
        <ele>2709.4</ele>
        <time>2022-10-19T08:08:24.000Z</time>
      </trkpt>
      <trkpt lat="27.754483" lon="86.710515">
        <ele>2709.6</ele>
        <time>2022-10-19T08:08:26.000Z</time>
      </trkpt>
      <trkpt lat="27.754502" lon="86.710509">
        <ele>2710</ele>
        <time>2022-10-19T08:08:28.000Z</time>
      </trkpt>
      <trkpt lat="27.754515" lon="86.71049">
        <ele>2709.6</ele>
        <time>2022-10-19T08:08:31.000Z</time>
      </trkpt>
      <trkpt lat="27.754531" lon="86.71047">
        <ele>2709.4</ele>
        <time>2022-10-19T08:08:33.000Z</time>
      </trkpt>
      <trkpt lat="27.75455" lon="86.710451">
        <ele>2709.4</ele>
        <time>2022-10-19T08:08:36.000Z</time>
      </trkpt>
      <trkpt lat="27.754566" lon="86.710438">
        <ele>2709</ele>
        <time>2022-10-19T08:08:38.000Z</time>
      </trkpt>
      <trkpt lat="27.754589" lon="86.710426">
        <ele>2708.2</ele>
        <time>2022-10-19T08:08:41.000Z</time>
      </trkpt>
      <trkpt lat="27.754605" lon="86.710413">
        <ele>2708</ele>
        <time>2022-10-19T08:08:43.000Z</time>
      </trkpt>
      <trkpt lat="27.754621" lon="86.710387">
        <ele>2707.8</ele>
        <time>2022-10-19T08:08:45.000Z</time>
      </trkpt>
      <trkpt lat="27.754634" lon="86.710355">
        <ele>2707.8</ele>
        <time>2022-10-19T08:08:47.000Z</time>
      </trkpt>
      <trkpt lat="27.75465" lon="86.710342">
        <ele>2707.2</ele>
        <time>2022-10-19T08:08:49.000Z</time>
      </trkpt>
      <trkpt lat="27.754669" lon="86.710342">
        <ele>2707</ele>
        <time>2022-10-19T08:08:52.000Z</time>
      </trkpt>
      <trkpt lat="27.754691" lon="86.710355">
        <ele>2706.8</ele>
        <time>2022-10-19T08:08:56.000Z</time>
      </trkpt>
      <trkpt lat="27.754707" lon="86.710374">
        <ele>2706.6</ele>
        <time>2022-10-19T08:08:58.000Z</time>
      </trkpt>
      <trkpt lat="27.754726" lon="86.710381">
        <ele>2706</ele>
        <time>2022-10-19T08:09:00.000Z</time>
      </trkpt>
      <trkpt lat="27.754749" lon="86.710406">
        <ele>2706</ele>
        <time>2022-10-19T08:09:02.000Z</time>
      </trkpt>
      <trkpt lat="27.754768" lon="86.710426">
        <ele>2706</ele>
        <time>2022-10-19T08:09:04.000Z</time>
      </trkpt>
      <trkpt lat="27.75479" lon="86.710458">
        <ele>2705.6</ele>
        <time>2022-10-19T08:09:07.000Z</time>
      </trkpt>
      <trkpt lat="27.754813" lon="86.710458">
        <ele>2705.4</ele>
        <time>2022-10-19T08:09:09.000Z</time>
      </trkpt>
      <trkpt lat="27.754835" lon="86.710438">
        <ele>2705.6</ele>
        <time>2022-10-19T08:09:12.000Z</time>
      </trkpt>
      <trkpt lat="27.754854" lon="86.710432">
        <ele>2706</ele>
        <time>2022-10-19T08:09:16.000Z</time>
      </trkpt>
      <trkpt lat="27.754874" lon="86.710432">
        <ele>2706.2</ele>
        <time>2022-10-19T08:09:18.000Z</time>
      </trkpt>
      <trkpt lat="27.754896" lon="86.710438">
        <ele>2706.2</ele>
        <time>2022-10-19T08:09:20.000Z</time>
      </trkpt>
      <trkpt lat="27.754918" lon="86.710432">
        <ele>2706.2</ele>
        <time>2022-10-19T08:09:22.000Z</time>
      </trkpt>
      <trkpt lat="27.754941" lon="86.710426">
        <ele>2706</ele>
        <time>2022-10-19T08:09:24.000Z</time>
      </trkpt>
      <trkpt lat="27.75496" lon="86.710426">
        <ele>2706.4</ele>
        <time>2022-10-19T08:09:26.000Z</time>
      </trkpt>
      <trkpt lat="27.754979" lon="86.710419">
        <ele>2706</ele>
        <time>2022-10-19T08:09:28.000Z</time>
      </trkpt>
      <trkpt lat="27.754998" lon="86.710432">
        <ele>2706.2</ele>
        <time>2022-10-19T08:09:31.000Z</time>
      </trkpt>
      <trkpt lat="27.755018" lon="86.710438">
        <ele>2706.2</ele>
        <time>2022-10-19T08:09:34.000Z</time>
      </trkpt>
      <trkpt lat="27.755037" lon="86.710451">
        <ele>2705.6</ele>
        <time>2022-10-19T08:09:39.000Z</time>
      </trkpt>
      <trkpt lat="27.755059" lon="86.710458">
        <ele>2704.8</ele>
        <time>2022-10-19T08:09:43.000Z</time>
      </trkpt>
      <trkpt lat="27.755085" lon="86.710458">
        <ele>2704.4</ele>
        <time>2022-10-19T08:09:46.000Z</time>
      </trkpt>
      <trkpt lat="27.755104" lon="86.710451">
        <ele>2703.8</ele>
        <time>2022-10-19T08:09:49.000Z</time>
      </trkpt>
      <trkpt lat="27.75512" lon="86.710438">
        <ele>2703.4</ele>
        <time>2022-10-19T08:09:52.000Z</time>
      </trkpt>
      <trkpt lat="27.755139" lon="86.710419">
        <ele>2703.2</ele>
        <time>2022-10-19T08:09:55.000Z</time>
      </trkpt>
      <trkpt lat="27.755165" lon="86.710413">
        <ele>2702.4</ele>
        <time>2022-10-19T08:09:57.000Z</time>
      </trkpt>
      <trkpt lat="27.755184" lon="86.710406">
        <ele>2702.2</ele>
        <time>2022-10-19T08:09:59.000Z</time>
      </trkpt>
      <trkpt lat="27.755197" lon="86.710381">
        <ele>2702</ele>
        <time>2022-10-19T08:10:00.000Z</time>
      </trkpt>
      <trkpt lat="27.7552" lon="86.710355">
        <ele>2702</ele>
        <time>2022-10-19T08:10:02.000Z</time>
      </trkpt>
      <trkpt lat="27.755226" lon="86.710342">
        <ele>2701.8</ele>
        <time>2022-10-19T08:10:05.000Z</time>
      </trkpt>
      <trkpt lat="27.755245" lon="86.710349">
        <ele>2701.6</ele>
        <time>2022-10-19T08:10:09.000Z</time>
      </trkpt>
      <trkpt lat="27.755267" lon="86.710355">
        <ele>2701.8</ele>
        <time>2022-10-19T08:10:12.000Z</time>
      </trkpt>
      <trkpt lat="27.75529" lon="86.710342">
        <ele>2700.6</ele>
        <time>2022-10-19T08:10:16.000Z</time>
      </trkpt>
      <trkpt lat="27.755315" lon="86.710349">
        <ele>2700</ele>
        <time>2022-10-19T08:10:18.000Z</time>
      </trkpt>
      <trkpt lat="27.755344" lon="86.710368">
        <ele>2699.4</ele>
        <time>2022-10-19T08:10:20.000Z</time>
      </trkpt>
      <trkpt lat="27.75536" lon="86.710387">
        <ele>2699</ele>
        <time>2022-10-19T08:10:22.000Z</time>
      </trkpt>
      <trkpt lat="27.755379" lon="86.710394">
        <ele>2698.6</ele>
        <time>2022-10-19T08:10:24.000Z</time>
      </trkpt>
      <trkpt lat="27.755395" lon="86.710374">
        <ele>2698.4</ele>
        <time>2022-10-19T08:10:26.000Z</time>
      </trkpt>
      <trkpt lat="27.755414" lon="86.710368">
        <ele>2698.2</ele>
        <time>2022-10-19T08:10:28.000Z</time>
      </trkpt>
      <trkpt lat="27.755434" lon="86.710355">
        <ele>2698</ele>
        <time>2022-10-19T08:10:30.000Z</time>
      </trkpt>
      <trkpt lat="27.755456" lon="86.710355">
        <ele>2697.2</ele>
        <time>2022-10-19T08:10:32.000Z</time>
      </trkpt>
      <trkpt lat="27.755475" lon="86.710342">
        <ele>2697.4</ele>
        <time>2022-10-19T08:10:35.000Z</time>
      </trkpt>
      <trkpt lat="27.755498" lon="86.710342">
        <ele>2697.2</ele>
        <time>2022-10-19T08:10:37.000Z</time>
      </trkpt>
      <trkpt lat="27.75552" lon="86.71033">
        <ele>2697.2</ele>
        <time>2022-10-19T08:10:39.000Z</time>
      </trkpt>
      <trkpt lat="27.75553" lon="86.71031">
        <ele>2697.2</ele>
        <time>2022-10-19T08:10:40.000Z</time>
      </trkpt>
      <trkpt lat="27.755542" lon="86.710278">
        <ele>2697.4</ele>
        <time>2022-10-19T08:10:42.000Z</time>
      </trkpt>
      <trkpt lat="27.755565" lon="86.710266">
        <ele>2697.4</ele>
        <time>2022-10-19T08:10:44.000Z</time>
      </trkpt>
      <trkpt lat="27.755581" lon="86.710278">
        <ele>2698.2</ele>
        <time>2022-10-19T08:10:47.000Z</time>
      </trkpt>
      <trkpt lat="27.755606" lon="86.710278">
        <ele>2699</ele>
        <time>2022-10-19T08:10:50.000Z</time>
      </trkpt>
      <trkpt lat="27.755622" lon="86.710266">
        <ele>2699</ele>
        <time>2022-10-19T08:10:53.000Z</time>
      </trkpt>
      <trkpt lat="27.755645" lon="86.710253">
        <ele>2699.2</ele>
        <time>2022-10-19T08:10:56.000Z</time>
      </trkpt>
      <trkpt lat="27.755667" lon="86.710234">
        <ele>2699.4</ele>
        <time>2022-10-19T08:10:58.000Z</time>
      </trkpt>
      <trkpt lat="27.755686" lon="86.710246">
        <ele>2699.6</ele>
        <time>2022-10-19T08:11:00.000Z</time>
      </trkpt>
      <trkpt lat="27.755706" lon="86.710234">
        <ele>2700</ele>
        <time>2022-10-19T08:11:03.000Z</time>
      </trkpt>
      <trkpt lat="27.755731" lon="86.710246">
        <ele>2700</ele>
        <time>2022-10-19T08:11:06.000Z</time>
      </trkpt>
      <trkpt lat="27.755754" lon="86.710234">
        <ele>2700.2</ele>
        <time>2022-10-19T08:11:08.000Z</time>
      </trkpt>
      <trkpt lat="27.755773" lon="86.710227">
        <ele>2700.6</ele>
        <time>2022-10-19T08:11:10.000Z</time>
      </trkpt>
      <trkpt lat="27.755792" lon="86.710227">
        <ele>2701</ele>
        <time>2022-10-19T08:11:13.000Z</time>
      </trkpt>
      <trkpt lat="27.755814" lon="86.710214">
        <ele>2701.2</ele>
        <time>2022-10-19T08:11:17.000Z</time>
      </trkpt>
      <trkpt lat="27.755834" lon="86.710214">
        <ele>2701.6</ele>
        <time>2022-10-19T08:11:19.000Z</time>
      </trkpt>
      <trkpt lat="27.755843" lon="86.710195">
        <ele>2701.6</ele>
        <time>2022-10-19T08:11:21.000Z</time>
      </trkpt>
      <trkpt lat="27.755859" lon="86.710182">
        <ele>2702</ele>
        <time>2022-10-19T08:11:23.000Z</time>
      </trkpt>
      <trkpt lat="27.755882" lon="86.71017">
        <ele>2702</ele>
        <time>2022-10-19T08:11:25.000Z</time>
      </trkpt>
      <trkpt lat="27.755901" lon="86.71015">
        <ele>2702.6</ele>
        <time>2022-10-19T08:11:28.000Z</time>
      </trkpt>
      <trkpt lat="27.75592" lon="86.710138">
        <ele>2702.8</ele>
        <time>2022-10-19T08:11:30.000Z</time>
      </trkpt>
      <trkpt lat="27.75593" lon="86.710118">
        <ele>2702.8</ele>
        <time>2022-10-19T08:11:31.000Z</time>
      </trkpt>
      <trkpt lat="27.755946" lon="86.710099">
        <ele>2703</ele>
        <time>2022-10-19T08:11:34.000Z</time>
      </trkpt>
      <trkpt lat="27.755965" lon="86.710099">
        <ele>2703.4</ele>
        <time>2022-10-19T08:11:37.000Z</time>
      </trkpt>
      <trkpt lat="27.755978" lon="86.71008">
        <ele>2703.4</ele>
        <time>2022-10-19T08:11:38.000Z</time>
      </trkpt>
      <trkpt lat="27.756" lon="86.710067">
        <ele>2703.4</ele>
        <time>2022-10-19T08:11:40.000Z</time>
      </trkpt>
      <trkpt lat="27.756022" lon="86.710067">
        <ele>2703.4</ele>
        <time>2022-10-19T08:11:42.000Z</time>
      </trkpt>
      <trkpt lat="27.756042" lon="86.710054">
        <ele>2703.4</ele>
        <time>2022-10-19T08:11:44.000Z</time>
      </trkpt>
      <trkpt lat="27.756061" lon="86.710035">
        <ele>2703</ele>
        <time>2022-10-19T08:11:46.000Z</time>
      </trkpt>
      <trkpt lat="27.756083" lon="86.710022">
        <ele>2703</ele>
        <time>2022-10-19T08:11:48.000Z</time>
      </trkpt>
      <trkpt lat="27.756102" lon="86.710022">
        <ele>2702.8</ele>
        <time>2022-10-19T08:11:50.000Z</time>
      </trkpt>
      <trkpt lat="27.756118" lon="86.709997">
        <ele>2702.8</ele>
        <time>2022-10-19T08:11:52.000Z</time>
      </trkpt>
      <trkpt lat="27.756144" lon="86.71001">
        <ele>2702.8</ele>
        <time>2022-10-19T08:11:54.000Z</time>
      </trkpt>
      <trkpt lat="27.75616" lon="86.710022">
        <ele>2703</ele>
        <time>2022-10-19T08:11:55.000Z</time>
      </trkpt>
      <trkpt lat="27.756186" lon="86.710035">
        <ele>2703</ele>
        <time>2022-10-19T08:11:57.000Z</time>
      </trkpt>
      <trkpt lat="27.756211" lon="86.710016">
        <ele>2702.8</ele>
        <time>2022-10-19T08:12:00.000Z</time>
      </trkpt>
      <trkpt lat="27.75624" lon="86.710022">
        <ele>2703</ele>
        <time>2022-10-19T08:12:03.000Z</time>
      </trkpt>
      <trkpt lat="27.756266" lon="86.71001">
        <ele>2703</ele>
        <time>2022-10-19T08:12:06.000Z</time>
      </trkpt>
      <trkpt lat="27.756291" lon="86.71001">
        <ele>2703</ele>
        <time>2022-10-19T08:12:08.000Z</time>
      </trkpt>
      <trkpt lat="27.756307" lon="86.709997">
        <ele>2702.8</ele>
        <time>2022-10-19T08:12:10.000Z</time>
      </trkpt>
      <trkpt lat="27.756336" lon="86.70999">
        <ele>2702.8</ele>
        <time>2022-10-19T08:12:12.000Z</time>
      </trkpt>
      <trkpt lat="27.756362" lon="86.709997">
        <ele>2702.8</ele>
        <time>2022-10-19T08:12:14.000Z</time>
      </trkpt>
      <trkpt lat="27.756387" lon="86.70999">
        <ele>2702.6</ele>
        <time>2022-10-19T08:12:16.000Z</time>
      </trkpt>
      <trkpt lat="27.75641" lon="86.709997">
        <ele>2702.8</ele>
        <time>2022-10-19T08:12:18.000Z</time>
      </trkpt>
      <trkpt lat="27.756429" lon="86.709997">
        <ele>2702.8</ele>
        <time>2022-10-19T08:12:20.000Z</time>
      </trkpt>
      <trkpt lat="27.756451" lon="86.709997">
        <ele>2703</ele>
        <time>2022-10-19T08:12:22.000Z</time>
      </trkpt>
      <trkpt lat="27.75647" lon="86.71001">
        <ele>2703.4</ele>
        <time>2022-10-19T08:12:24.000Z</time>
      </trkpt>
      <trkpt lat="27.756493" lon="86.71001">
        <ele>2703.6</ele>
        <time>2022-10-19T08:12:26.000Z</time>
      </trkpt>
      <trkpt lat="27.756512" lon="86.71001">
        <ele>2703.6</ele>
        <time>2022-10-19T08:12:28.000Z</time>
      </trkpt>
      <trkpt lat="27.756531" lon="86.71001">
        <ele>2703.2</ele>
        <time>2022-10-19T08:12:30.000Z</time>
      </trkpt>
      <trkpt lat="27.75655" lon="86.71001">
        <ele>2703.4</ele>
        <time>2022-10-19T08:12:32.000Z</time>
      </trkpt>
      <trkpt lat="27.756573" lon="86.71001">
        <ele>2703.2</ele>
        <time>2022-10-19T08:12:34.000Z</time>
      </trkpt>
      <trkpt lat="27.756595" lon="86.71001">
        <ele>2703.2</ele>
        <time>2022-10-19T08:12:36.000Z</time>
      </trkpt>
      <trkpt lat="27.756624" lon="86.710022">
        <ele>2703</ele>
        <time>2022-10-19T08:12:38.000Z</time>
      </trkpt>
      <trkpt lat="27.75665" lon="86.710035">
        <ele>2703</ele>
        <time>2022-10-19T08:12:40.000Z</time>
      </trkpt>
      <trkpt lat="27.756675" lon="86.710029">
        <ele>2702.8</ele>
        <time>2022-10-19T08:12:42.000Z</time>
      </trkpt>
      <trkpt lat="27.756704" lon="86.710029">
        <ele>2702.8</ele>
        <time>2022-10-19T08:12:44.000Z</time>
      </trkpt>
      <trkpt lat="27.756733" lon="86.710054">
        <ele>2702.8</ele>
        <time>2022-10-19T08:12:46.000Z</time>
      </trkpt>
      <trkpt lat="27.756755" lon="86.710054">
        <ele>2702.6</ele>
        <time>2022-10-19T08:12:48.000Z</time>
      </trkpt>
      <trkpt lat="27.756784" lon="86.710061">
        <ele>2702.6</ele>
        <time>2022-10-19T08:12:50.000Z</time>
      </trkpt>
      <trkpt lat="27.756803" lon="86.710054">
        <ele>2702</ele>
        <time>2022-10-19T08:12:52.000Z</time>
      </trkpt>
      <trkpt lat="27.756826" lon="86.710048">
        <ele>2702</ele>
        <time>2022-10-19T08:12:54.000Z</time>
      </trkpt>
      <trkpt lat="27.756848" lon="86.710048">
        <ele>2701.8</ele>
        <time>2022-10-19T08:12:56.000Z</time>
      </trkpt>
      <trkpt lat="27.756877" lon="86.710054">
        <ele>2701.6</ele>
        <time>2022-10-19T08:12:59.000Z</time>
      </trkpt>
      <trkpt lat="27.756896" lon="86.710054">
        <ele>2701.8</ele>
        <time>2022-10-19T08:13:01.000Z</time>
      </trkpt>
      <trkpt lat="27.756925" lon="86.710048">
        <ele>2701.6</ele>
        <time>2022-10-19T08:13:03.000Z</time>
      </trkpt>
      <trkpt lat="27.756954" lon="86.710048">
        <ele>2701.6</ele>
        <time>2022-10-19T08:13:05.000Z</time>
      </trkpt>
      <trkpt lat="27.756979" lon="86.710048">
        <ele>2701.4</ele>
        <time>2022-10-19T08:13:07.000Z</time>
      </trkpt>
      <trkpt lat="27.757005" lon="86.710048">
        <ele>2701.4</ele>
        <time>2022-10-19T08:13:09.000Z</time>
      </trkpt>
      <trkpt lat="27.757027" lon="86.710048">
        <ele>2701.4</ele>
        <time>2022-10-19T08:13:11.000Z</time>
      </trkpt>
      <trkpt lat="27.757043" lon="86.710035">
        <ele>2701.4</ele>
        <time>2022-10-19T08:13:12.000Z</time>
      </trkpt>
      <trkpt lat="27.757066" lon="86.710035">
        <ele>2701.4</ele>
        <time>2022-10-19T08:13:14.000Z</time>
      </trkpt>
      <trkpt lat="27.757091" lon="86.710048">
        <ele>2701.4</ele>
        <time>2022-10-19T08:13:16.000Z</time>
      </trkpt>
      <trkpt lat="27.757107" lon="86.710035">
        <ele>2701.4</ele>
        <time>2022-10-19T08:13:17.000Z</time>
      </trkpt>
      <trkpt lat="27.757126" lon="86.710022">
        <ele>2701.4</ele>
        <time>2022-10-19T08:13:19.000Z</time>
      </trkpt>
      <trkpt lat="27.757155" lon="86.710022">
        <ele>2701.4</ele>
        <time>2022-10-19T08:13:21.000Z</time>
      </trkpt>
      <trkpt lat="27.757184" lon="86.710029">
        <ele>2701.4</ele>
        <time>2022-10-19T08:13:23.000Z</time>
      </trkpt>
      <trkpt lat="27.757203" lon="86.710029">
        <ele>2701.4</ele>
        <time>2022-10-19T08:13:25.000Z</time>
      </trkpt>
      <trkpt lat="27.757222" lon="86.710029">
        <ele>2702</ele>
        <time>2022-10-19T08:13:31.000Z</time>
      </trkpt>
      <trkpt lat="27.757232" lon="86.710048">
        <ele>2702.4</ele>
        <time>2022-10-19T08:13:35.000Z</time>
      </trkpt>
      <trkpt lat="27.757251" lon="86.710067">
        <ele>2703</ele>
        <time>2022-10-19T08:13:38.000Z</time>
      </trkpt>
      <trkpt lat="27.757264" lon="86.710093">
        <ele>2703</ele>
        <time>2022-10-19T08:13:40.000Z</time>
      </trkpt>
      <trkpt lat="27.757283" lon="86.710112">
        <ele>2703.2</ele>
        <time>2022-10-19T08:13:42.000Z</time>
      </trkpt>
      <trkpt lat="27.75729" lon="86.710131">
        <ele>2703.2</ele>
        <time>2022-10-19T08:13:43.000Z</time>
      </trkpt>
      <trkpt lat="27.757312" lon="86.710138">
        <ele>2704.2</ele>
        <time>2022-10-19T08:13:49.000Z</time>
      </trkpt>
      <trkpt lat="27.757331" lon="86.710138">
        <ele>2705.8</ele>
        <time>2022-10-19T08:14:03.000Z</time>
      </trkpt>
      <trkpt lat="27.757338" lon="86.710118">
        <ele>2706.4</ele>
        <time>2022-10-19T08:14:06.000Z</time>
      </trkpt>
      <trkpt lat="27.757354" lon="86.710106">
        <ele>2707.4</ele>
        <time>2022-10-19T08:14:11.000Z</time>
      </trkpt>
      <trkpt lat="27.757338" lon="86.71008">
        <ele>2708</ele>
        <time>2022-10-19T08:14:16.000Z</time>
      </trkpt>
      <trkpt lat="27.757312" lon="86.71008">
        <ele>2708.6</ele>
        <time>2022-10-19T08:14:21.000Z</time>
      </trkpt>
      <trkpt lat="27.757315" lon="86.710054">
        <ele>2709.6</ele>
        <time>2022-10-19T08:14:25.000Z</time>
      </trkpt>
      <trkpt lat="27.757334" lon="86.710048">
        <ele>2709.8</ele>
        <time>2022-10-19T08:14:27.000Z</time>
      </trkpt>
      <trkpt lat="27.75736" lon="86.710035">
        <ele>2710.2</ele>
        <time>2022-10-19T08:14:29.000Z</time>
      </trkpt>
      <trkpt lat="27.757382" lon="86.710035">
        <ele>2710.8</ele>
        <time>2022-10-19T08:14:34.000Z</time>
      </trkpt>
      <trkpt lat="27.757402" lon="86.710048">
        <ele>2711.2</ele>
        <time>2022-10-19T08:14:36.000Z</time>
      </trkpt>
      <trkpt lat="27.757421" lon="86.710035">
        <ele>2712.2</ele>
        <time>2022-10-19T08:14:40.000Z</time>
      </trkpt>
      <trkpt lat="27.75744" lon="86.710022">
        <ele>2712.8</ele>
        <time>2022-10-19T08:14:44.000Z</time>
      </trkpt>
      <trkpt lat="27.757459" lon="86.710022">
        <ele>2714</ele>
        <time>2022-10-19T08:14:48.000Z</time>
      </trkpt>
      <trkpt lat="27.757482" lon="86.710022">
        <ele>2715</ele>
        <time>2022-10-19T08:14:53.000Z</time>
      </trkpt>
      <trkpt lat="27.757485" lon="86.710048">
        <ele>2715.8</ele>
        <time>2022-10-19T08:15:31.000Z</time>
      </trkpt>
      <trkpt lat="27.757504" lon="86.710035">
        <ele>2715.4</ele>
        <time>2022-10-19T08:15:34.000Z</time>
      </trkpt>
      <trkpt lat="27.757523" lon="86.710029">
        <ele>2713.8</ele>
        <time>2022-10-19T08:15:53.000Z</time>
      </trkpt>
      <trkpt lat="27.757542" lon="86.710035">
        <ele>2713.8</ele>
        <time>2022-10-19T08:15:54.000Z</time>
      </trkpt>
      <trkpt lat="27.757565" lon="86.710029">
        <ele>2713.8</ele>
        <time>2022-10-19T08:15:55.000Z</time>
      </trkpt>
      <trkpt lat="27.757597" lon="86.710035">
        <ele>2713.8</ele>
        <time>2022-10-19T08:15:57.000Z</time>
      </trkpt>
      <trkpt lat="27.757622" lon="86.710035">
        <ele>2713.8</ele>
        <time>2022-10-19T08:15:59.000Z</time>
      </trkpt>
      <trkpt lat="27.757642" lon="86.710029">
        <ele>2714</ele>
        <time>2022-10-19T08:16:00.000Z</time>
      </trkpt>
      <trkpt lat="27.75767" lon="86.710029">
        <ele>2714.2</ele>
        <time>2022-10-19T08:16:02.000Z</time>
      </trkpt>
      <trkpt lat="27.75769" lon="86.710035">
        <ele>2715.4</ele>
        <time>2022-10-19T08:16:06.000Z</time>
      </trkpt>
      <trkpt lat="27.757709" lon="86.710029">
        <ele>2716.2</ele>
        <time>2022-10-19T08:16:10.000Z</time>
      </trkpt>
      <trkpt lat="27.757728" lon="86.710029">
        <ele>2717.2</ele>
        <time>2022-10-19T08:16:14.000Z</time>
      </trkpt>
      <trkpt lat="27.757747" lon="86.710022">
        <ele>2718</ele>
        <time>2022-10-19T08:16:18.000Z</time>
      </trkpt>
      <trkpt lat="27.757766" lon="86.710016">
        <ele>2718.6</ele>
        <time>2022-10-19T08:16:21.000Z</time>
      </trkpt>
      <trkpt lat="27.757789" lon="86.709997">
        <ele>2719.6</ele>
        <time>2022-10-19T08:16:25.000Z</time>
      </trkpt>
      <trkpt lat="27.757808" lon="86.70999">
        <ele>2720</ele>
        <time>2022-10-19T08:16:27.000Z</time>
      </trkpt>
      <trkpt lat="27.757827" lon="86.709997">
        <ele>2720.6</ele>
        <time>2022-10-19T08:16:29.000Z</time>
      </trkpt>
      <trkpt lat="27.757837" lon="86.710022">
        <ele>2720.8</ele>
        <time>2022-10-19T08:16:30.000Z</time>
      </trkpt>
      <trkpt lat="27.757853" lon="86.710035">
        <ele>2720.8</ele>
        <time>2022-10-19T08:16:31.000Z</time>
      </trkpt>
      <trkpt lat="27.757875" lon="86.710029">
        <ele>2720.8</ele>
        <time>2022-10-19T08:16:33.000Z</time>
      </trkpt>
      <trkpt lat="27.757891" lon="86.710016">
        <ele>2721.6</ele>
        <time>2022-10-19T08:16:38.000Z</time>
      </trkpt>
      <trkpt lat="27.757914" lon="86.709997">
        <ele>2721.6</ele>
        <time>2022-10-19T08:16:41.000Z</time>
      </trkpt>
      <trkpt lat="27.757936" lon="86.70999">
        <ele>2722.2</ele>
        <time>2022-10-19T08:16:44.000Z</time>
      </trkpt>
      <trkpt lat="27.757958" lon="86.709978">
        <ele>2722.4</ele>
        <time>2022-10-19T08:16:47.000Z</time>
      </trkpt>
      <trkpt lat="27.757981" lon="86.709971">
        <ele>2723</ele>
        <time>2022-10-19T08:16:51.000Z</time>
      </trkpt>
      <trkpt lat="27.757997" lon="86.709958">
        <ele>2723.4</ele>
        <time>2022-10-19T08:16:53.000Z</time>
      </trkpt>
      <trkpt lat="27.758016" lon="86.709952">
        <ele>2724.2</ele>
        <time>2022-10-19T08:16:57.000Z</time>
      </trkpt>
      <trkpt lat="27.758035" lon="86.709933">
        <ele>2724.4</ele>
        <time>2022-10-19T08:17:02.000Z</time>
      </trkpt>
      <trkpt lat="27.758054" lon="86.70992">
        <ele>2725.4</ele>
        <time>2022-10-19T08:17:05.000Z</time>
      </trkpt>
      <trkpt lat="27.758074" lon="86.70992">
        <ele>2725.8</ele>
        <time>2022-10-19T08:17:08.000Z</time>
      </trkpt>
      <trkpt lat="27.758093" lon="86.70992">
        <ele>2726.6</ele>
        <time>2022-10-19T08:17:14.000Z</time>
      </trkpt>
      <trkpt lat="27.758109" lon="86.709946">
        <ele>2727</ele>
        <time>2022-10-19T08:17:16.000Z</time>
      </trkpt>
      <trkpt lat="27.758131" lon="86.709939">
        <ele>2727.2</ele>
        <time>2022-10-19T08:17:20.000Z</time>
      </trkpt>
      <trkpt lat="27.758157" lon="86.709946">
        <ele>2727.4</ele>
        <time>2022-10-19T08:17:23.000Z</time>
      </trkpt>
      <trkpt lat="27.758179" lon="86.709952">
        <ele>2727.4</ele>
        <time>2022-10-19T08:17:25.000Z</time>
      </trkpt>
      <trkpt lat="27.758192" lon="86.709971">
        <ele>2727.2</ele>
        <time>2022-10-19T08:17:26.000Z</time>
      </trkpt>
      <trkpt lat="27.758208" lon="86.709958">
        <ele>2727</ele>
        <time>2022-10-19T08:17:27.000Z</time>
      </trkpt>
      <trkpt lat="27.75823" lon="86.709958">
        <ele>2727</ele>
        <time>2022-10-19T08:17:30.000Z</time>
      </trkpt>
      <trkpt lat="27.75825" lon="86.709952">
        <ele>2727.2</ele>
        <time>2022-10-19T08:17:32.000Z</time>
      </trkpt>
      <trkpt lat="27.758272" lon="86.709952">
        <ele>2728</ele>
        <time>2022-10-19T08:17:37.000Z</time>
      </trkpt>
      <trkpt lat="27.758285" lon="86.709971">
        <ele>2728</ele>
        <time>2022-10-19T08:17:39.000Z</time>
      </trkpt>
      <trkpt lat="27.758304" lon="86.709958">
        <ele>2729</ele>
        <time>2022-10-19T08:17:44.000Z</time>
      </trkpt>
      <trkpt lat="27.758323" lon="86.709958">
        <ele>2729.4</ele>
        <time>2022-10-19T08:17:47.000Z</time>
      </trkpt>
      <trkpt lat="27.758346" lon="86.709971">
        <ele>2730</ele>
        <time>2022-10-19T08:17:49.000Z</time>
      </trkpt>
      <trkpt lat="27.758374" lon="86.709971">
        <ele>2730</ele>
        <time>2022-10-19T08:17:51.000Z</time>
      </trkpt>
      <trkpt lat="27.758397" lon="86.709958">
        <ele>2730</ele>
        <time>2022-10-19T08:17:53.000Z</time>
      </trkpt>
      <trkpt lat="27.758419" lon="86.709952">
        <ele>2730.6</ele>
        <time>2022-10-19T08:17:55.000Z</time>
      </trkpt>
      <trkpt lat="27.758406" lon="86.709978">
        <ele>2730.2</ele>
        <time>2022-10-19T08:18:17.000Z</time>
      </trkpt>
      <trkpt lat="27.758397" lon="86.709997">
        <ele>2730.6</ele>
        <time>2022-10-19T08:18:58.000Z</time>
      </trkpt>
      <trkpt lat="27.758378" lon="86.710074">
        <ele>2731.2</ele>
        <time>2022-10-19T08:22:18.000Z</time>
      </trkpt>
      <trkpt lat="27.758384" lon="86.710054">
        <ele>2731.2</ele>
        <time>2022-10-19T08:22:23.000Z</time>
      </trkpt>
      <trkpt lat="27.758384" lon="86.71008">
        <ele>2731.8</ele>
        <time>2022-10-19T08:22:37.000Z</time>
      </trkpt>
      <trkpt lat="27.758381" lon="86.710106">
        <ele>2731.6</ele>
        <time>2022-10-19T08:22:40.000Z</time>
      </trkpt>
      <trkpt lat="27.758378" lon="86.710131">
        <ele>2731.6</ele>
        <time>2022-10-19T08:22:48.000Z</time>
      </trkpt>
      <trkpt lat="27.758368" lon="86.710112">
        <ele>2731.6</ele>
        <time>2022-10-19T08:22:52.000Z</time>
      </trkpt>
      <trkpt lat="27.758381" lon="86.710093">
        <ele>2731.6</ele>
        <time>2022-10-19T08:23:03.000Z</time>
      </trkpt>
      <trkpt lat="27.7584" lon="86.710074">
        <ele>2731.2</ele>
        <time>2022-10-19T08:23:08.000Z</time>
      </trkpt>
      <trkpt lat="27.758416" lon="86.710054">
        <ele>2731.8</ele>
        <time>2022-10-19T08:23:10.000Z</time>
      </trkpt>
      <trkpt lat="27.758442" lon="86.710054">
        <ele>2731.2</ele>
        <time>2022-10-19T08:23:12.000Z</time>
      </trkpt>
      <trkpt lat="27.758464" lon="86.710029">
        <ele>2732</ele>
        <time>2022-10-19T08:23:15.000Z</time>
      </trkpt>
      <trkpt lat="27.75848" lon="86.710016">
        <ele>2732.2</ele>
        <time>2022-10-19T08:23:17.000Z</time>
      </trkpt>
      <trkpt lat="27.758502" lon="86.71001">
        <ele>2732.4</ele>
        <time>2022-10-19T08:23:19.000Z</time>
      </trkpt>
      <trkpt lat="27.758506" lon="86.709971">
        <ele>2732.6</ele>
        <time>2022-10-19T08:23:21.000Z</time>
      </trkpt>
      <trkpt lat="27.758512" lon="86.709946">
        <ele>2732.6</ele>
        <time>2022-10-19T08:23:22.000Z</time>
      </trkpt>
      <trkpt lat="27.758534" lon="86.709946">
        <ele>2732.8</ele>
        <time>2022-10-19T08:23:23.000Z</time>
      </trkpt>
      <trkpt lat="27.758557" lon="86.709958">
        <ele>2733.4</ele>
        <time>2022-10-19T08:23:28.000Z</time>
      </trkpt>
      <trkpt lat="27.758576" lon="86.70999">
        <ele>2733.8</ele>
        <time>2022-10-19T08:23:31.000Z</time>
      </trkpt>
      <trkpt lat="27.758592" lon="86.710022">
        <ele>2734.2</ele>
        <time>2022-10-19T08:23:33.000Z</time>
      </trkpt>
      <trkpt lat="27.758605" lon="86.710061">
        <ele>2733.8</ele>
        <time>2022-10-19T08:23:35.000Z</time>
      </trkpt>
      <trkpt lat="27.758614" lon="86.71008">
        <ele>2734.2</ele>
        <time>2022-10-19T08:23:38.000Z</time>
      </trkpt>
      <trkpt lat="27.758637" lon="86.710093">
        <ele>2734.4</ele>
        <time>2022-10-19T08:23:47.000Z</time>
      </trkpt>
      <trkpt lat="27.758643" lon="86.710112">
        <ele>2734.4</ele>
        <time>2022-10-19T08:23:57.000Z</time>
      </trkpt>
      <trkpt lat="27.758653" lon="86.71008">
        <ele>2736.2</ele>
        <time>2022-10-19T08:24:12.000Z</time>
      </trkpt>
      <trkpt lat="27.758672" lon="86.710074">
        <ele>2737.8</ele>
        <time>2022-10-19T08:24:18.000Z</time>
      </trkpt>
      <trkpt lat="27.758691" lon="86.710067">
        <ele>2738.4</ele>
        <time>2022-10-19T08:24:21.000Z</time>
      </trkpt>
      <trkpt lat="27.75871" lon="86.710061">
        <ele>2738.8</ele>
        <time>2022-10-19T08:24:23.000Z</time>
      </trkpt>
      <trkpt lat="27.75873" lon="86.710054">
        <ele>2739.4</ele>
        <time>2022-10-19T08:24:26.000Z</time>
      </trkpt>
      <trkpt lat="27.758746" lon="86.710067">
        <ele>2740.2</ele>
        <time>2022-10-19T08:24:31.000Z</time>
      </trkpt>
      <trkpt lat="27.758768" lon="86.710067">
        <ele>2741.4</ele>
        <time>2022-10-19T08:24:38.000Z</time>
      </trkpt>
      <trkpt lat="27.75879" lon="86.710067">
        <ele>2741.6</ele>
        <time>2022-10-19T08:24:42.000Z</time>
      </trkpt>
      <trkpt lat="27.758797" lon="86.710093">
        <ele>2742.2</ele>
        <time>2022-10-19T08:24:46.000Z</time>
      </trkpt>
      <trkpt lat="27.758806" lon="86.710112">
        <ele>2744.6</ele>
        <time>2022-10-19T08:24:56.000Z</time>
      </trkpt>
      <trkpt lat="27.758835" lon="86.710131">
        <ele>2747</ele>
        <time>2022-10-19T08:25:06.000Z</time>
      </trkpt>
      <trkpt lat="27.758854" lon="86.710138">
        <ele>2748.2</ele>
        <time>2022-10-19T08:25:14.000Z</time>
      </trkpt>
      <trkpt lat="27.75887" lon="86.710112">
        <ele>2748</ele>
        <time>2022-10-19T08:25:17.000Z</time>
      </trkpt>
      <trkpt lat="27.75889" lon="86.710106">
        <ele>2749.8</ele>
        <time>2022-10-19T08:25:23.000Z</time>
      </trkpt>
      <trkpt lat="27.758909" lon="86.710099">
        <ele>2750.6</ele>
        <time>2022-10-19T08:25:28.000Z</time>
      </trkpt>
      <trkpt lat="27.758934" lon="86.710099">
        <ele>2751.6</ele>
        <time>2022-10-19T08:25:33.000Z</time>
      </trkpt>
      <trkpt lat="27.758954" lon="86.710099">
        <ele>2751.8</ele>
        <time>2022-10-19T08:25:35.000Z</time>
      </trkpt>
      <trkpt lat="27.758973" lon="86.710093">
        <ele>2751.2</ele>
        <time>2022-10-19T08:25:37.000Z</time>
      </trkpt>
      <trkpt lat="27.758989" lon="86.71008">
        <ele>2751.6</ele>
        <time>2022-10-19T08:25:39.000Z</time>
      </trkpt>
      <trkpt lat="27.759011" lon="86.710093">
        <ele>2751.8</ele>
        <time>2022-10-19T08:25:41.000Z</time>
      </trkpt>
      <trkpt lat="27.759027" lon="86.710106">
        <ele>2751.8</ele>
        <time>2022-10-19T08:25:43.000Z</time>
      </trkpt>
      <trkpt lat="27.75905" lon="86.710118">
        <ele>2751.6</ele>
        <time>2022-10-19T08:25:45.000Z</time>
      </trkpt>
      <trkpt lat="27.759069" lon="86.710138">
        <ele>2751.6</ele>
        <time>2022-10-19T08:25:47.000Z</time>
      </trkpt>
      <trkpt lat="27.759091" lon="86.71015">
        <ele>2751.6</ele>
        <time>2022-10-19T08:25:50.000Z</time>
      </trkpt>
      <trkpt lat="27.759107" lon="86.71017">
        <ele>2751.4</ele>
        <time>2022-10-19T08:25:52.000Z</time>
      </trkpt>
      <trkpt lat="27.759123" lon="86.710182">
        <ele>2751.4</ele>
        <time>2022-10-19T08:25:55.000Z</time>
      </trkpt>
      <trkpt lat="27.759149" lon="86.710176">
        <ele>2751.6</ele>
        <time>2022-10-19T08:25:58.000Z</time>
      </trkpt>
      <trkpt lat="27.759168" lon="86.710157">
        <ele>2751.8</ele>
        <time>2022-10-19T08:26:00.000Z</time>
      </trkpt>
      <trkpt lat="27.759197" lon="86.710157">
        <ele>2751.6</ele>
        <time>2022-10-19T08:26:02.000Z</time>
      </trkpt>
      <trkpt lat="27.759226" lon="86.71015">
        <ele>2750.8</ele>
        <time>2022-10-19T08:26:05.000Z</time>
      </trkpt>
      <trkpt lat="27.759242" lon="86.71017">
        <ele>2750</ele>
        <time>2022-10-19T08:26:08.000Z</time>
      </trkpt>
      <trkpt lat="27.759251" lon="86.710189">
        <ele>2749.4</ele>
        <time>2022-10-19T08:26:11.000Z</time>
      </trkpt>
      <trkpt lat="27.759267" lon="86.710208">
        <ele>2748.6</ele>
        <time>2022-10-19T08:26:16.000Z</time>
      </trkpt>
      <trkpt lat="27.759261" lon="86.710227">
        <ele>2747.4</ele>
        <time>2022-10-19T08:26:23.000Z</time>
      </trkpt>
      <trkpt lat="27.759251" lon="86.710246">
        <ele>2747.2</ele>
        <time>2022-10-19T08:26:28.000Z</time>
      </trkpt>
      <trkpt lat="27.759258" lon="86.710266">
        <ele>2746.6</ele>
        <time>2022-10-19T08:26:52.000Z</time>
      </trkpt>
      <trkpt lat="27.759251" lon="86.710291">
        <ele>2746.6</ele>
        <time>2022-10-19T08:26:54.000Z</time>
      </trkpt>
      <trkpt lat="27.759245" lon="86.71031">
        <ele>2746.6</ele>
        <time>2022-10-19T08:26:56.000Z</time>
      </trkpt>
      <trkpt lat="27.759251" lon="86.710291">
        <ele>2746.6</ele>
        <time>2022-10-19T08:27:04.000Z</time>
      </trkpt>
      <trkpt lat="27.75927" lon="86.710291">
        <ele>2746.6</ele>
        <time>2022-10-19T08:27:08.000Z</time>
      </trkpt>
      <trkpt lat="27.759277" lon="86.710272">
        <ele>2746.6</ele>
        <time>2022-10-19T08:27:09.000Z</time>
      </trkpt>
      <trkpt lat="27.759261" lon="86.710259">
        <ele>2746.6</ele>
        <time>2022-10-19T08:27:15.000Z</time>
      </trkpt>
      <trkpt lat="27.759254" lon="86.71031">
        <ele>2746.6</ele>
        <time>2022-10-19T08:27:18.000Z</time>
      </trkpt>
      <trkpt lat="27.759251" lon="86.710336">
        <ele>2746.6</ele>
        <time>2022-10-19T08:27:19.000Z</time>
      </trkpt>
      <trkpt lat="27.759261" lon="86.710355">
        <ele>2746.4</ele>
        <time>2022-10-19T08:27:23.000Z</time>
      </trkpt>
      <trkpt lat="27.759251" lon="86.710336">
        <ele>2747</ele>
        <time>2022-10-19T08:27:39.000Z</time>
      </trkpt>
      <trkpt lat="27.759248" lon="86.710368">
        <ele>2747</ele>
        <time>2022-10-19T08:27:52.000Z</time>
      </trkpt>
      <trkpt lat="27.759242" lon="86.710349">
        <ele>2747</ele>
        <time>2022-10-19T08:27:58.000Z</time>
      </trkpt>
      <trkpt lat="27.759251" lon="86.710374">
        <ele>2746.4</ele>
        <time>2022-10-19T08:28:05.000Z</time>
      </trkpt>
      <trkpt lat="27.759277" lon="86.710381">
        <ele>2746.8</ele>
        <time>2022-10-19T08:28:08.000Z</time>
      </trkpt>
      <trkpt lat="27.759306" lon="86.710394">
        <ele>2746.4</ele>
        <time>2022-10-19T08:28:10.000Z</time>
      </trkpt>
      <trkpt lat="27.759328" lon="86.710406">
        <ele>2746.2</ele>
        <time>2022-10-19T08:28:13.000Z</time>
      </trkpt>
      <trkpt lat="27.759357" lon="86.710394">
        <ele>2746</ele>
        <time>2022-10-19T08:28:15.000Z</time>
      </trkpt>
      <trkpt lat="27.759379" lon="86.710406">
        <ele>2746.2</ele>
        <time>2022-10-19T08:28:17.000Z</time>
      </trkpt>
      <trkpt lat="27.759386" lon="86.710426">
        <ele>2746.4</ele>
        <time>2022-10-19T08:28:19.000Z</time>
      </trkpt>
      <trkpt lat="27.759405" lon="86.710438">
        <ele>2746.6</ele>
        <time>2022-10-19T08:28:22.000Z</time>
      </trkpt>
      <trkpt lat="27.759421" lon="86.710458">
        <ele>2746.8</ele>
        <time>2022-10-19T08:28:24.000Z</time>
      </trkpt>
      <trkpt lat="27.759427" lon="86.710477">
        <ele>2747</ele>
        <time>2022-10-19T08:28:28.000Z</time>
      </trkpt>
      <trkpt lat="27.759446" lon="86.71049">
        <ele>2747.2</ele>
        <time>2022-10-19T08:28:30.000Z</time>
      </trkpt>
      <trkpt lat="27.759459" lon="86.710509">
        <ele>2747</ele>
        <time>2022-10-19T08:28:32.000Z</time>
      </trkpt>
      <trkpt lat="27.759475" lon="86.710534">
        <ele>2747</ele>
        <time>2022-10-19T08:28:34.000Z</time>
      </trkpt>
      <trkpt lat="27.759494" lon="86.710541">
        <ele>2746.2</ele>
        <time>2022-10-19T08:28:36.000Z</time>
      </trkpt>
      <trkpt lat="27.75951" lon="86.710566">
        <ele>2746</ele>
        <time>2022-10-19T08:28:38.000Z</time>
      </trkpt>
      <trkpt lat="27.759504" lon="86.710592">
        <ele>2745.8</ele>
        <time>2022-10-19T08:28:40.000Z</time>
      </trkpt>
      <trkpt lat="27.759514" lon="86.710611">
        <ele>2745.2</ele>
        <time>2022-10-19T08:28:45.000Z</time>
      </trkpt>
      <trkpt lat="27.759517" lon="86.71065">
        <ele>2743.6</ele>
        <time>2022-10-19T08:28:51.000Z</time>
      </trkpt>
      <trkpt lat="27.759533" lon="86.710662">
        <ele>2743.2</ele>
        <time>2022-10-19T08:28:59.000Z</time>
      </trkpt>
      <trkpt lat="27.759558" lon="86.710669">
        <ele>2742</ele>
        <time>2022-10-19T08:29:03.000Z</time>
      </trkpt>
      <trkpt lat="27.759578" lon="86.710688">
        <ele>2741.4</ele>
        <time>2022-10-19T08:29:06.000Z</time>
      </trkpt>
      <trkpt lat="27.759594" lon="86.710701">
        <ele>2741.2</ele>
        <time>2022-10-19T08:29:09.000Z</time>
      </trkpt>
      <trkpt lat="27.759568" lon="86.710688">
        <ele>2741.6</ele>
        <time>2022-10-19T08:30:52.000Z</time>
      </trkpt>
      <trkpt lat="27.759594" lon="86.710694">
        <ele>2741.4</ele>
        <time>2022-10-19T08:30:54.000Z</time>
      </trkpt>
      <trkpt lat="27.759616" lon="86.710701">
        <ele>2741.2</ele>
        <time>2022-10-19T08:30:56.000Z</time>
      </trkpt>
      <trkpt lat="27.759638" lon="86.710707">
        <ele>2741.2</ele>
        <time>2022-10-19T08:30:58.000Z</time>
      </trkpt>
      <trkpt lat="27.759658" lon="86.710714">
        <ele>2740.6</ele>
        <time>2022-10-19T08:31:00.000Z</time>
      </trkpt>
      <trkpt lat="27.759674" lon="86.710726">
        <ele>2740.4</ele>
        <time>2022-10-19T08:31:02.000Z</time>
      </trkpt>
      <trkpt lat="27.759696" lon="86.710746">
        <ele>2740.4</ele>
        <time>2022-10-19T08:31:05.000Z</time>
      </trkpt>
      <trkpt lat="27.759715" lon="86.710765">
        <ele>2740.4</ele>
        <time>2022-10-19T08:31:07.000Z</time>
      </trkpt>
      <trkpt lat="27.759741" lon="86.710771">
        <ele>2739.2</ele>
        <time>2022-10-19T08:31:13.000Z</time>
      </trkpt>
      <trkpt lat="27.75976" lon="86.710784">
        <ele>2739.2</ele>
        <time>2022-10-19T08:31:15.000Z</time>
      </trkpt>
      <trkpt lat="27.759779" lon="86.71079">
        <ele>2739.2</ele>
        <time>2022-10-19T08:31:16.000Z</time>
      </trkpt>
      <trkpt lat="27.759798" lon="86.710803">
        <ele>2738</ele>
        <time>2022-10-19T08:31:20.000Z</time>
      </trkpt>
      <trkpt lat="27.759818" lon="86.710816">
        <ele>2737.8</ele>
        <time>2022-10-19T08:31:22.000Z</time>
      </trkpt>
      <trkpt lat="27.759843" lon="86.710816">
        <ele>2738</ele>
        <time>2022-10-19T08:31:24.000Z</time>
      </trkpt>
      <trkpt lat="27.759866" lon="86.710822">
        <ele>2737.6</ele>
        <time>2022-10-19T08:31:27.000Z</time>
      </trkpt>
      <trkpt lat="27.759885" lon="86.710835">
        <ele>2737.8</ele>
        <time>2022-10-19T08:31:29.000Z</time>
      </trkpt>
      <trkpt lat="27.759894" lon="86.710854">
        <ele>2738</ele>
        <time>2022-10-19T08:31:30.000Z</time>
      </trkpt>
      <trkpt lat="27.759872" lon="86.710848">
        <ele>2737.4</ele>
        <time>2022-10-19T08:31:35.000Z</time>
      </trkpt>
      <trkpt lat="27.759898" lon="86.710886">
        <ele>2736.6</ele>
        <time>2022-10-19T08:31:59.000Z</time>
      </trkpt>
      <trkpt lat="27.759914" lon="86.710906">
        <ele>2736.6</ele>
        <time>2022-10-19T08:32:00.000Z</time>
      </trkpt>
      <trkpt lat="27.759926" lon="86.710931">
        <ele>2736.6</ele>
        <time>2022-10-19T08:32:01.000Z</time>
      </trkpt>
      <trkpt lat="27.759946" lon="86.710944">
        <ele>2736.6</ele>
        <time>2022-10-19T08:32:02.000Z</time>
      </trkpt>
      <trkpt lat="27.759962" lon="86.71097">
        <ele>2736.4</ele>
        <time>2022-10-19T08:32:03.000Z</time>
      </trkpt>
      <trkpt lat="27.759978" lon="86.710982">
        <ele>2736.4</ele>
        <time>2022-10-19T08:32:04.000Z</time>
      </trkpt>
      <trkpt lat="27.759997" lon="86.711008">
        <ele>2736.4</ele>
        <time>2022-10-19T08:32:05.000Z</time>
      </trkpt>
      <trkpt lat="27.760013" lon="86.711021">
        <ele>2736.4</ele>
        <time>2022-10-19T08:32:06.000Z</time>
      </trkpt>
      <trkpt lat="27.760032" lon="86.711027">
        <ele>2736.2</ele>
        <time>2022-10-19T08:32:07.000Z</time>
      </trkpt>
      <trkpt lat="27.760051" lon="86.711046">
        <ele>2735.6</ele>
        <time>2022-10-19T08:32:09.000Z</time>
      </trkpt>
      <trkpt lat="27.76007" lon="86.711053">
        <ele>2735.4</ele>
        <time>2022-10-19T08:32:11.000Z</time>
      </trkpt>
      <trkpt lat="27.760093" lon="86.711053">
        <ele>2735.4</ele>
        <time>2022-10-19T08:32:13.000Z</time>
      </trkpt>
      <trkpt lat="27.760118" lon="86.711085">
        <ele>2735.2</ele>
        <time>2022-10-19T08:32:15.000Z</time>
      </trkpt>
      <trkpt lat="27.760131" lon="86.711104">
        <ele>2735.2</ele>
        <time>2022-10-19T08:32:17.000Z</time>
      </trkpt>
      <trkpt lat="27.760141" lon="86.711123">
        <ele>2735.2</ele>
        <time>2022-10-19T08:32:18.000Z</time>
      </trkpt>
      <trkpt lat="27.760154" lon="86.711142">
        <ele>2735.4</ele>
        <time>2022-10-19T08:32:20.000Z</time>
      </trkpt>
      <trkpt lat="27.760163" lon="86.711123">
        <ele>2735.6</ele>
        <time>2022-10-19T08:32:22.000Z</time>
      </trkpt>
      <trkpt lat="27.760173" lon="86.711104">
        <ele>2735.6</ele>
        <time>2022-10-19T08:32:24.000Z</time>
      </trkpt>
      <trkpt lat="27.760192" lon="86.71111">
        <ele>2736</ele>
        <time>2022-10-19T08:32:26.000Z</time>
      </trkpt>
      <trkpt lat="27.760198" lon="86.711142">
        <ele>2736.2</ele>
        <time>2022-10-19T08:32:28.000Z</time>
      </trkpt>
      <trkpt lat="27.760221" lon="86.711142">
        <ele>2736.6</ele>
        <time>2022-10-19T08:32:31.000Z</time>
      </trkpt>
      <trkpt lat="27.760243" lon="86.711149">
        <ele>2736.6</ele>
        <time>2022-10-19T08:32:33.000Z</time>
      </trkpt>
      <trkpt lat="27.760253" lon="86.711168">
        <ele>2736.6</ele>
        <time>2022-10-19T08:32:35.000Z</time>
      </trkpt>
      <trkpt lat="27.760269" lon="86.711187">
        <ele>2736.8</ele>
        <time>2022-10-19T08:32:37.000Z</time>
      </trkpt>
      <trkpt lat="27.760285" lon="86.711206">
        <ele>2736.8</ele>
        <time>2022-10-19T08:32:39.000Z</time>
      </trkpt>
      <trkpt lat="27.76031" lon="86.711213">
        <ele>2736.8</ele>
        <time>2022-10-19T08:32:41.000Z</time>
      </trkpt>
      <trkpt lat="27.76033" lon="86.711232">
        <ele>2736.6</ele>
        <time>2022-10-19T08:32:44.000Z</time>
      </trkpt>
      <trkpt lat="27.760346" lon="86.711251">
        <ele>2736.4</ele>
        <time>2022-10-19T08:32:46.000Z</time>
      </trkpt>
      <trkpt lat="27.760352" lon="86.71129">
        <ele>2736</ele>
        <time>2022-10-19T08:32:49.000Z</time>
      </trkpt>
      <trkpt lat="27.760352" lon="86.711322">
        <ele>2736.2</ele>
        <time>2022-10-19T08:32:52.000Z</time>
      </trkpt>
      <trkpt lat="27.760365" lon="86.711341">
        <ele>2736.4</ele>
        <time>2022-10-19T08:32:54.000Z</time>
      </trkpt>
      <trkpt lat="27.760374" lon="86.71136">
        <ele>2736.4</ele>
        <time>2022-10-19T08:32:55.000Z</time>
      </trkpt>
      <trkpt lat="27.76039" lon="86.711379">
        <ele>2736.6</ele>
        <time>2022-10-19T08:32:57.000Z</time>
      </trkpt>
      <trkpt lat="27.7604" lon="86.711398">
        <ele>2737</ele>
        <time>2022-10-19T08:33:00.000Z</time>
      </trkpt>
      <trkpt lat="27.760422" lon="86.711386">
        <ele>2736.8</ele>
        <time>2022-10-19T08:33:03.000Z</time>
      </trkpt>
      <trkpt lat="27.760429" lon="86.711405">
        <ele>2736.6</ele>
        <time>2022-10-19T08:33:06.000Z</time>
      </trkpt>
      <trkpt lat="27.760438" lon="86.711386">
        <ele>2736.4</ele>
        <time>2022-10-19T08:33:09.000Z</time>
      </trkpt>
      <trkpt lat="27.760454" lon="86.711398">
        <ele>2736</ele>
        <time>2022-10-19T08:33:11.000Z</time>
      </trkpt>
      <trkpt lat="27.760474" lon="86.711411">
        <ele>2735</ele>
        <time>2022-10-19T08:33:14.000Z</time>
      </trkpt>
      <trkpt lat="27.760493" lon="86.711411">
        <ele>2734.4</ele>
        <time>2022-10-19T08:33:17.000Z</time>
      </trkpt>
      <trkpt lat="27.760518" lon="86.711418">
        <ele>2733.8</ele>
        <time>2022-10-19T08:33:20.000Z</time>
      </trkpt>
      <trkpt lat="27.760541" lon="86.71143">
        <ele>2733.4</ele>
        <time>2022-10-19T08:33:22.000Z</time>
      </trkpt>
      <trkpt lat="27.760547" lon="86.71145">
        <ele>2733.4</ele>
        <time>2022-10-19T08:33:23.000Z</time>
      </trkpt>
      <trkpt lat="27.76057" lon="86.711469">
        <ele>2733.4</ele>
        <time>2022-10-19T08:33:26.000Z</time>
      </trkpt>
      <trkpt lat="27.760586" lon="86.711482">
        <ele>2733.4</ele>
        <time>2022-10-19T08:33:28.000Z</time>
      </trkpt>
      <trkpt lat="27.760608" lon="86.711488">
        <ele>2733.4</ele>
        <time>2022-10-19T08:33:30.000Z</time>
      </trkpt>
      <trkpt lat="27.760627" lon="86.711488">
        <ele>2733.6</ele>
        <time>2022-10-19T08:33:32.000Z</time>
      </trkpt>
      <trkpt lat="27.76065" lon="86.711507">
        <ele>2733.8</ele>
        <time>2022-10-19T08:33:35.000Z</time>
      </trkpt>
      <trkpt lat="27.760659" lon="86.711526">
        <ele>2734.4</ele>
        <time>2022-10-19T08:33:39.000Z</time>
      </trkpt>
      <trkpt lat="27.760678" lon="86.711533">
        <ele>2735</ele>
        <time>2022-10-19T08:33:43.000Z</time>
      </trkpt>
      <trkpt lat="27.760698" lon="86.711539">
        <ele>2735.8</ele>
        <time>2022-10-19T08:33:46.000Z</time>
      </trkpt>
      <trkpt lat="27.76072" lon="86.711539">
        <ele>2736.2</ele>
        <time>2022-10-19T08:33:48.000Z</time>
      </trkpt>
      <trkpt lat="27.760733" lon="86.711558">
        <ele>2736.4</ele>
        <time>2022-10-19T08:33:50.000Z</time>
      </trkpt>
      <trkpt lat="27.760746" lon="86.711578">
        <ele>2737</ele>
        <time>2022-10-19T08:33:55.000Z</time>
      </trkpt>
      <trkpt lat="27.760746" lon="86.711603">
        <ele>2737.6</ele>
        <time>2022-10-19T08:33:58.000Z</time>
      </trkpt>
      <trkpt lat="27.760765" lon="86.711616">
        <ele>2738.2</ele>
        <time>2022-10-19T08:34:02.000Z</time>
      </trkpt>
      <trkpt lat="27.760784" lon="86.711629">
        <ele>2738.4</ele>
        <time>2022-10-19T08:34:06.000Z</time>
      </trkpt>
      <trkpt lat="27.760806" lon="86.711642">
        <ele>2739</ele>
        <time>2022-10-19T08:34:10.000Z</time>
      </trkpt>
      <trkpt lat="27.760819" lon="86.711661">
        <ele>2739.2</ele>
        <time>2022-10-19T08:34:13.000Z</time>
      </trkpt>
      <trkpt lat="27.760838" lon="86.711654">
        <ele>2739.2</ele>
        <time>2022-10-19T08:34:16.000Z</time>
      </trkpt>
      <trkpt lat="27.760861" lon="86.711686">
        <ele>2739.2</ele>
        <time>2022-10-19T08:34:19.000Z</time>
      </trkpt>
      <trkpt lat="27.760877" lon="86.711699">
        <ele>2739</ele>
        <time>2022-10-19T08:34:21.000Z</time>
      </trkpt>
      <trkpt lat="27.760896" lon="86.711686">
        <ele>2739</ele>
        <time>2022-10-19T08:34:24.000Z</time>
      </trkpt>
      <trkpt lat="27.760915" lon="86.711686">
        <ele>2738.8</ele>
        <time>2022-10-19T08:34:26.000Z</time>
      </trkpt>
      <trkpt lat="27.760931" lon="86.711699">
        <ele>2738.8</ele>
        <time>2022-10-19T08:34:28.000Z</time>
      </trkpt>
      <trkpt lat="27.76095" lon="86.711718">
        <ele>2738.4</ele>
        <time>2022-10-19T08:34:31.000Z</time>
      </trkpt>
      <trkpt lat="27.76097" lon="86.711731">
        <ele>2738.4</ele>
        <time>2022-10-19T08:34:34.000Z</time>
      </trkpt>
      <trkpt lat="27.760986" lon="86.711757">
        <ele>2738.2</ele>
        <time>2022-10-19T08:34:36.000Z</time>
      </trkpt>
      <trkpt lat="27.760998" lon="86.711776">
        <ele>2737.8</ele>
        <time>2022-10-19T08:34:38.000Z</time>
      </trkpt>
      <trkpt lat="27.761011" lon="86.711802">
        <ele>2737.4</ele>
        <time>2022-10-19T08:34:40.000Z</time>
      </trkpt>
      <trkpt lat="27.761024" lon="86.711827">
        <ele>2737</ele>
        <time>2022-10-19T08:34:43.000Z</time>
      </trkpt>
      <trkpt lat="27.761037" lon="86.711853">
        <ele>2736.6</ele>
        <time>2022-10-19T08:34:46.000Z</time>
      </trkpt>
      <trkpt lat="27.761059" lon="86.711866">
        <ele>2735.8</ele>
        <time>2022-10-19T08:34:50.000Z</time>
      </trkpt>
      <trkpt lat="27.761078" lon="86.711866">
        <ele>2735.6</ele>
        <time>2022-10-19T08:34:52.000Z</time>
      </trkpt>
      <trkpt lat="27.761104" lon="86.711885">
        <ele>2735.4</ele>
        <time>2022-10-19T08:34:55.000Z</time>
      </trkpt>
      <trkpt lat="27.761126" lon="86.711891">
        <ele>2735.4</ele>
        <time>2022-10-19T08:34:57.000Z</time>
      </trkpt>
      <trkpt lat="27.761146" lon="86.711904">
        <ele>2735.4</ele>
        <time>2022-10-19T08:34:59.000Z</time>
      </trkpt>
      <trkpt lat="27.761165" lon="86.71193">
        <ele>2735.2</ele>
        <time>2022-10-19T08:35:02.000Z</time>
      </trkpt>
      <trkpt lat="27.761184" lon="86.711955">
        <ele>2735.2</ele>
        <time>2022-10-19T08:35:06.000Z</time>
      </trkpt>
      <trkpt lat="27.761197" lon="86.711974">
        <ele>2735.2</ele>
        <time>2022-10-19T08:35:08.000Z</time>
      </trkpt>
      <trkpt lat="27.76121" lon="86.712006">
        <ele>2734.6</ele>
        <time>2022-10-19T08:35:11.000Z</time>
      </trkpt>
      <trkpt lat="27.761226" lon="86.712019">
        <ele>2734.8</ele>
        <time>2022-10-19T08:35:13.000Z</time>
      </trkpt>
      <trkpt lat="27.761222" lon="86.712045">
        <ele>2734.8</ele>
        <time>2022-10-19T08:35:14.000Z</time>
      </trkpt>
      <trkpt lat="27.761232" lon="86.712064">
        <ele>2734.8</ele>
        <time>2022-10-19T08:35:15.000Z</time>
      </trkpt>
      <trkpt lat="27.761258" lon="86.712096">
        <ele>2735</ele>
        <time>2022-10-19T08:35:18.000Z</time>
      </trkpt>
      <trkpt lat="27.76127" lon="86.712115">
        <ele>2734.8</ele>
        <time>2022-10-19T08:35:20.000Z</time>
      </trkpt>
      <trkpt lat="27.761283" lon="86.712134">
        <ele>2734.2</ele>
        <time>2022-10-19T08:35:24.000Z</time>
      </trkpt>
      <trkpt lat="27.761312" lon="86.712141">
        <ele>2734.6</ele>
        <time>2022-10-19T08:35:27.000Z</time>
      </trkpt>
      <trkpt lat="27.761315" lon="86.712173">
        <ele>2735</ele>
        <time>2022-10-19T08:35:29.000Z</time>
      </trkpt>
      <trkpt lat="27.761325" lon="86.712198">
        <ele>2735.6</ele>
        <time>2022-10-19T08:35:32.000Z</time>
      </trkpt>
      <trkpt lat="27.761334" lon="86.712224">
        <ele>2735.8</ele>
        <time>2022-10-19T08:35:35.000Z</time>
      </trkpt>
      <trkpt lat="27.761325" lon="86.712256">
        <ele>2736.4</ele>
        <time>2022-10-19T08:35:38.000Z</time>
      </trkpt>
      <trkpt lat="27.761328" lon="86.712288">
        <ele>2737</ele>
        <time>2022-10-19T08:35:40.000Z</time>
      </trkpt>
      <trkpt lat="27.761338" lon="86.712314">
        <ele>2737.8</ele>
        <time>2022-10-19T08:35:42.000Z</time>
      </trkpt>
      <trkpt lat="27.761354" lon="86.712333">
        <ele>2738.2</ele>
        <time>2022-10-19T08:35:44.000Z</time>
      </trkpt>
      <trkpt lat="27.761354" lon="86.712358">
        <ele>2738.6</ele>
        <time>2022-10-19T08:35:46.000Z</time>
      </trkpt>
      <trkpt lat="27.761354" lon="86.712384">
        <ele>2739.6</ele>
        <time>2022-10-19T08:35:53.000Z</time>
      </trkpt>
      <trkpt lat="27.761373" lon="86.712371">
        <ele>2740.2</ele>
        <time>2022-10-19T08:36:05.000Z</time>
      </trkpt>
      <trkpt lat="27.761392" lon="86.712371">
        <ele>2741.6</ele>
        <time>2022-10-19T08:36:10.000Z</time>
      </trkpt>
      <trkpt lat="27.761386" lon="86.712397">
        <ele>2741.8</ele>
        <time>2022-10-19T08:36:16.000Z</time>
      </trkpt>
      <trkpt lat="27.761395" lon="86.712416">
        <ele>2742.4</ele>
        <time>2022-10-19T08:36:22.000Z</time>
      </trkpt>
      <trkpt lat="27.761421" lon="86.712422">
        <ele>2743.8</ele>
        <time>2022-10-19T08:36:28.000Z</time>
      </trkpt>
      <trkpt lat="27.76143" lon="86.712448">
        <ele>2743.8</ele>
        <time>2022-10-19T08:36:30.000Z</time>
      </trkpt>
      <trkpt lat="27.761443" lon="86.712474">
        <ele>2745.6</ele>
        <time>2022-10-19T08:36:36.000Z</time>
      </trkpt>
      <trkpt lat="27.761456" lon="86.712493">
        <ele>2745.8</ele>
        <time>2022-10-19T08:36:42.000Z</time>
      </trkpt>
      <trkpt lat="27.761466" lon="86.712512">
        <ele>2745.8</ele>
        <time>2022-10-19T08:36:43.000Z</time>
      </trkpt>
      <trkpt lat="27.761485" lon="86.712512">
        <ele>2746.2</ele>
        <time>2022-10-19T08:36:46.000Z</time>
      </trkpt>
      <trkpt lat="27.761491" lon="86.712531">
        <ele>2746.6</ele>
        <time>2022-10-19T08:36:48.000Z</time>
      </trkpt>
      <trkpt lat="27.761498" lon="86.71255">
        <ele>2746.2</ele>
        <time>2022-10-19T08:36:51.000Z</time>
      </trkpt>
      <trkpt lat="27.761514" lon="86.71257">
        <ele>2746.6</ele>
        <time>2022-10-19T08:36:54.000Z</time>
      </trkpt>
      <trkpt lat="27.761533" lon="86.712582">
        <ele>2746.8</ele>
        <time>2022-10-19T08:36:57.000Z</time>
      </trkpt>
      <trkpt lat="27.761546" lon="86.712602">
        <ele>2747</ele>
        <time>2022-10-19T08:37:00.000Z</time>
      </trkpt>
      <trkpt lat="27.761562" lon="86.712614">
        <ele>2746.8</ele>
        <time>2022-10-19T08:37:02.000Z</time>
      </trkpt>
      <trkpt lat="27.761565" lon="86.71264">
        <ele>2747.2</ele>
        <time>2022-10-19T08:37:04.000Z</time>
      </trkpt>
      <trkpt lat="27.761565" lon="86.712678">
        <ele>2747.8</ele>
        <time>2022-10-19T08:37:07.000Z</time>
      </trkpt>
      <trkpt lat="27.761574" lon="86.712698">
        <ele>2748.4</ele>
        <time>2022-10-19T08:37:11.000Z</time>
      </trkpt>
      <trkpt lat="27.76159" lon="86.712717">
        <ele>2748.4</ele>
        <time>2022-10-19T08:37:13.000Z</time>
      </trkpt>
      <trkpt lat="27.761613" lon="86.712755">
        <ele>2748.8</ele>
        <time>2022-10-19T08:37:15.000Z</time>
      </trkpt>
      <trkpt lat="27.761632" lon="86.712768">
        <ele>2748.8</ele>
        <time>2022-10-19T08:37:16.000Z</time>
      </trkpt>
      <trkpt lat="27.761632" lon="86.712794">
        <ele>2748.8</ele>
        <time>2022-10-19T08:37:18.000Z</time>
      </trkpt>
      <trkpt lat="27.761642" lon="86.712819">
        <ele>2749.4</ele>
        <time>2022-10-19T08:37:24.000Z</time>
      </trkpt>
      <trkpt lat="27.761645" lon="86.712845">
        <ele>2749.4</ele>
        <time>2022-10-19T08:37:26.000Z</time>
      </trkpt>
      <trkpt lat="27.761664" lon="86.712877">
        <ele>2750.2</ele>
        <time>2022-10-19T08:37:29.000Z</time>
      </trkpt>
      <trkpt lat="27.76167" lon="86.712896">
        <ele>2750.2</ele>
        <time>2022-10-19T08:37:30.000Z</time>
      </trkpt>
      <trkpt lat="27.761667" lon="86.712928">
        <ele>2750.8</ele>
        <time>2022-10-19T08:37:32.000Z</time>
      </trkpt>
      <trkpt lat="27.761683" lon="86.712947">
        <ele>2750.6</ele>
        <time>2022-10-19T08:37:34.000Z</time>
      </trkpt>
      <trkpt lat="27.761683" lon="86.712973">
        <ele>2750.8</ele>
        <time>2022-10-19T08:37:37.000Z</time>
      </trkpt>
      <trkpt lat="27.76169" lon="86.712992">
        <ele>2751</ele>
        <time>2022-10-19T08:37:40.000Z</time>
      </trkpt>
      <trkpt lat="27.761683" lon="86.713011">
        <ele>2751.4</ele>
        <time>2022-10-19T08:37:42.000Z</time>
      </trkpt>
      <trkpt lat="27.761683" lon="86.713037">
        <ele>2751.2</ele>
        <time>2022-10-19T08:37:44.000Z</time>
      </trkpt>
      <trkpt lat="27.76168" lon="86.713069">
        <ele>2751.4</ele>
        <time>2022-10-19T08:37:48.000Z</time>
      </trkpt>
      <trkpt lat="27.761664" lon="86.713056">
        <ele>2751</ele>
        <time>2022-10-19T08:37:52.000Z</time>
      </trkpt>
      <trkpt lat="27.761648" lon="86.713037">
        <ele>2751.2</ele>
        <time>2022-10-19T08:37:55.000Z</time>
      </trkpt>
      <trkpt lat="27.761642" lon="86.713018">
        <ele>2751.2</ele>
        <time>2022-10-19T08:37:57.000Z</time>
      </trkpt>
      <trkpt lat="27.761629" lon="86.713043">
        <ele>2750.2</ele>
        <time>2022-10-19T08:38:37.000Z</time>
      </trkpt>
      <trkpt lat="27.761622" lon="86.713069">
        <ele>2749.8</ele>
        <time>2022-10-19T08:38:39.000Z</time>
      </trkpt>
      <trkpt lat="27.76161" lon="86.713094">
        <ele>2748.8</ele>
        <time>2022-10-19T08:38:42.000Z</time>
      </trkpt>
      <trkpt lat="27.76159" lon="86.713114">
        <ele>2748.6</ele>
        <time>2022-10-19T08:38:44.000Z</time>
      </trkpt>
      <trkpt lat="27.761565" lon="86.71312">
        <ele>2748.2</ele>
        <time>2022-10-19T08:38:46.000Z</time>
      </trkpt>
      <trkpt lat="27.761546" lon="86.713107">
        <ele>2748.2</ele>
        <time>2022-10-19T08:38:49.000Z</time>
      </trkpt>
      <trkpt lat="27.761533" lon="86.713088">
        <ele>2748.6</ele>
        <time>2022-10-19T08:38:51.000Z</time>
      </trkpt>
      <trkpt lat="27.761504" lon="86.713082">
        <ele>2749.2</ele>
        <time>2022-10-19T08:38:53.000Z</time>
      </trkpt>
      <trkpt lat="27.761482" lon="86.713075">
        <ele>2749</ele>
        <time>2022-10-19T08:38:54.000Z</time>
      </trkpt>
      <trkpt lat="27.761456" lon="86.713069">
        <ele>2749</ele>
        <time>2022-10-19T08:38:56.000Z</time>
      </trkpt>
      <trkpt lat="27.761434" lon="86.713075">
        <ele>2749.6</ele>
        <time>2022-10-19T08:38:58.000Z</time>
      </trkpt>
      <trkpt lat="27.761414" lon="86.713088">
        <ele>2749.8</ele>
        <time>2022-10-19T08:39:00.000Z</time>
      </trkpt>
      <trkpt lat="27.761405" lon="86.713107">
        <ele>2749.8</ele>
        <time>2022-10-19T08:39:01.000Z</time>
      </trkpt>
      <trkpt lat="27.761392" lon="86.713133">
        <ele>2749.8</ele>
        <time>2022-10-19T08:39:03.000Z</time>
      </trkpt>
      <trkpt lat="27.761386" lon="86.713152">
        <ele>2750.2</ele>
        <time>2022-10-19T08:39:04.000Z</time>
      </trkpt>
      <trkpt lat="27.761389" lon="86.713197">
        <ele>2750.2</ele>
        <time>2022-10-19T08:39:07.000Z</time>
      </trkpt>
      <trkpt lat="27.761386" lon="86.713242">
        <ele>2750.2</ele>
        <time>2022-10-19T08:39:09.000Z</time>
      </trkpt>
      <trkpt lat="27.761386" lon="86.713267">
        <ele>2750</ele>
        <time>2022-10-19T08:39:10.000Z</time>
      </trkpt>
      <trkpt lat="27.761386" lon="86.713293">
        <ele>2749.8</ele>
        <time>2022-10-19T08:39:12.000Z</time>
      </trkpt>
      <trkpt lat="27.761392" lon="86.713312">
        <ele>2749.6</ele>
        <time>2022-10-19T08:39:13.000Z</time>
      </trkpt>
      <trkpt lat="27.761402" lon="86.71335">
        <ele>2749</ele>
        <time>2022-10-19T08:39:16.000Z</time>
      </trkpt>
      <trkpt lat="27.761411" lon="86.71337">
        <ele>2749.4</ele>
        <time>2022-10-19T08:39:18.000Z</time>
      </trkpt>
      <trkpt lat="27.761414" lon="86.713402">
        <ele>2749</ele>
        <time>2022-10-19T08:39:20.000Z</time>
      </trkpt>
      <trkpt lat="27.761414" lon="86.713434">
        <ele>2749</ele>
        <time>2022-10-19T08:39:22.000Z</time>
      </trkpt>
      <trkpt lat="27.761418" lon="86.713466">
        <ele>2749</ele>
        <time>2022-10-19T08:39:24.000Z</time>
      </trkpt>
      <trkpt lat="27.761418" lon="86.713504">
        <ele>2749</ele>
        <time>2022-10-19T08:39:27.000Z</time>
      </trkpt>
      <trkpt lat="27.761424" lon="86.71353">
        <ele>2749.4</ele>
        <time>2022-10-19T08:39:29.000Z</time>
      </trkpt>
      <trkpt lat="27.761418" lon="86.713562">
        <ele>2749.8</ele>
        <time>2022-10-19T08:39:31.000Z</time>
      </trkpt>
      <trkpt lat="27.761418" lon="86.713587">
        <ele>2750</ele>
        <time>2022-10-19T08:39:33.000Z</time>
      </trkpt>
      <trkpt lat="27.76143" lon="86.713606">
        <ele>2750</ele>
        <time>2022-10-19T08:39:35.000Z</time>
      </trkpt>
      <trkpt lat="27.761437" lon="86.713632">
        <ele>2750.6</ele>
        <time>2022-10-19T08:39:37.000Z</time>
      </trkpt>
      <trkpt lat="27.76145" lon="86.713651">
        <ele>2751</ele>
        <time>2022-10-19T08:39:39.000Z</time>
      </trkpt>
      <trkpt lat="27.761466" lon="86.713677">
        <ele>2751</ele>
        <time>2022-10-19T08:39:41.000Z</time>
      </trkpt>
      <trkpt lat="27.761472" lon="86.713702">
        <ele>2751.4</ele>
        <time>2022-10-19T08:39:43.000Z</time>
      </trkpt>
      <trkpt lat="27.761491" lon="86.713722">
        <ele>2751.8</ele>
        <time>2022-10-19T08:39:46.000Z</time>
      </trkpt>
      <trkpt lat="27.76151" lon="86.713734">
        <ele>2751.6</ele>
        <time>2022-10-19T08:39:48.000Z</time>
      </trkpt>
      <trkpt lat="27.76152" lon="86.71376">
        <ele>2751.4</ele>
        <time>2022-10-19T08:39:50.000Z</time>
      </trkpt>
      <trkpt lat="27.761536" lon="86.713773">
        <ele>2751.8</ele>
        <time>2022-10-19T08:39:53.000Z</time>
      </trkpt>
      <trkpt lat="27.761555" lon="86.713773">
        <ele>2751.8</ele>
        <time>2022-10-19T08:39:55.000Z</time>
      </trkpt>
      <trkpt lat="27.761574" lon="86.713773">
        <ele>2751.8</ele>
        <time>2022-10-19T08:39:57.000Z</time>
      </trkpt>
      <trkpt lat="27.7616" lon="86.713766">
        <ele>2752.4</ele>
        <time>2022-10-19T08:40:01.000Z</time>
      </trkpt>
      <trkpt lat="27.761622" lon="86.71376">
        <ele>2752.4</ele>
        <time>2022-10-19T08:40:03.000Z</time>
      </trkpt>
      <trkpt lat="27.761642" lon="86.713766">
        <ele>2751.8</ele>
        <time>2022-10-19T08:40:05.000Z</time>
      </trkpt>
      <trkpt lat="27.76167" lon="86.713786">
        <ele>2751.8</ele>
        <time>2022-10-19T08:40:07.000Z</time>
      </trkpt>
      <trkpt lat="27.76169" lon="86.713766">
        <ele>2751.6</ele>
        <time>2022-10-19T08:40:09.000Z</time>
      </trkpt>
      <trkpt lat="27.761715" lon="86.713773">
        <ele>2751.2</ele>
        <time>2022-10-19T08:40:12.000Z</time>
      </trkpt>
      <trkpt lat="27.761734" lon="86.713792">
        <ele>2751</ele>
        <time>2022-10-19T08:40:14.000Z</time>
      </trkpt>
      <trkpt lat="27.761747" lon="86.713811">
        <ele>2751</ele>
        <time>2022-10-19T08:40:16.000Z</time>
      </trkpt>
      <trkpt lat="27.76176" lon="86.713843">
        <ele>2751.4</ele>
        <time>2022-10-19T08:40:18.000Z</time>
      </trkpt>
      <trkpt lat="27.76177" lon="86.713875">
        <ele>2751.6</ele>
        <time>2022-10-19T08:40:20.000Z</time>
      </trkpt>
      <trkpt lat="27.76177" lon="86.713907">
        <ele>2751.8</ele>
        <time>2022-10-19T08:40:22.000Z</time>
      </trkpt>
      <trkpt lat="27.761779" lon="86.713926">
        <ele>2751.6</ele>
        <time>2022-10-19T08:40:24.000Z</time>
      </trkpt>
      <trkpt lat="27.761789" lon="86.713946">
        <ele>2751.4</ele>
        <time>2022-10-19T08:40:26.000Z</time>
      </trkpt>
      <trkpt lat="27.761798" lon="86.713971">
        <ele>2751.4</ele>
        <time>2022-10-19T08:40:29.000Z</time>
      </trkpt>
      <trkpt lat="27.761808" lon="86.713997">
        <ele>2750.8</ele>
        <time>2022-10-19T08:40:31.000Z</time>
      </trkpt>
      <trkpt lat="27.761814" lon="86.714022">
        <ele>2750</ele>
        <time>2022-10-19T08:40:36.000Z</time>
      </trkpt>
      <trkpt lat="27.761818" lon="86.714061">
        <ele>2749.8</ele>
        <time>2022-10-19T08:40:39.000Z</time>
      </trkpt>
      <trkpt lat="27.761818" lon="86.714086">
        <ele>2748.8</ele>
        <time>2022-10-19T08:40:44.000Z</time>
      </trkpt>
      <trkpt lat="27.761818" lon="86.714112">
        <ele>2748.4</ele>
        <time>2022-10-19T08:40:49.000Z</time>
      </trkpt>
      <trkpt lat="27.761827" lon="86.714131">
        <ele>2748</ele>
        <time>2022-10-19T08:40:51.000Z</time>
      </trkpt>
      <trkpt lat="27.761837" lon="86.714157">
        <ele>2747.2</ele>
        <time>2022-10-19T08:40:53.000Z</time>
      </trkpt>
      <trkpt lat="27.761843" lon="86.714189">
        <ele>2746.6</ele>
        <time>2022-10-19T08:40:56.000Z</time>
      </trkpt>
      <trkpt lat="27.761862" lon="86.714202">
        <ele>2746</ele>
        <time>2022-10-19T08:40:59.000Z</time>
      </trkpt>
      <trkpt lat="27.761882" lon="86.714208">
        <ele>2746.2</ele>
        <time>2022-10-19T08:41:02.000Z</time>
      </trkpt>
      <trkpt lat="27.761894" lon="86.714227">
        <ele>2746</ele>
        <time>2022-10-19T08:41:06.000Z</time>
      </trkpt>
      <trkpt lat="27.76191" lon="86.714246">
        <ele>2744.4</ele>
        <time>2022-10-19T08:41:12.000Z</time>
      </trkpt>
      <trkpt lat="27.76192" lon="86.714266">
        <ele>2744</ele>
        <time>2022-10-19T08:41:14.000Z</time>
      </trkpt>
      <trkpt lat="27.761926" lon="86.714285">
        <ele>2743.6</ele>
        <time>2022-10-19T08:41:16.000Z</time>
      </trkpt>
      <trkpt lat="27.761926" lon="86.714317">
        <ele>2742.8</ele>
        <time>2022-10-19T08:41:18.000Z</time>
      </trkpt>
      <trkpt lat="27.761933" lon="86.714342">
        <ele>2741.6</ele>
        <time>2022-10-19T08:41:21.000Z</time>
      </trkpt>
      <trkpt lat="27.761958" lon="86.714355">
        <ele>2741</ele>
        <time>2022-10-19T08:41:24.000Z</time>
      </trkpt>
      <trkpt lat="27.761968" lon="86.714381">
        <ele>2740.6</ele>
        <time>2022-10-19T08:41:27.000Z</time>
      </trkpt>
      <trkpt lat="27.761978" lon="86.714406">
        <ele>2739.4</ele>
        <time>2022-10-19T08:41:31.000Z</time>
      </trkpt>
      <trkpt lat="27.761987" lon="86.714432">
        <ele>2739.4</ele>
        <time>2022-10-19T08:41:33.000Z</time>
      </trkpt>
      <trkpt lat="27.761978" lon="86.71447">
        <ele>2739.4</ele>
        <time>2022-10-19T08:41:35.000Z</time>
      </trkpt>
      <trkpt lat="27.761971" lon="86.71449">
        <ele>2738.4</ele>
        <time>2022-10-19T08:41:38.000Z</time>
      </trkpt>
      <trkpt lat="27.761987" lon="86.714502">
        <ele>2738.4</ele>
        <time>2022-10-19T08:41:43.000Z</time>
      </trkpt>
      <trkpt lat="27.761987" lon="86.714528">
        <ele>2738.8</ele>
        <time>2022-10-19T08:41:46.000Z</time>
      </trkpt>
      <trkpt lat="27.761997" lon="86.714547">
        <ele>2738.6</ele>
        <time>2022-10-19T08:41:47.000Z</time>
      </trkpt>
      <trkpt lat="27.762006" lon="86.714579">
        <ele>2738.4</ele>
        <time>2022-10-19T08:41:50.000Z</time>
      </trkpt>
      <trkpt lat="27.762029" lon="86.71456">
        <ele>2738</ele>
        <time>2022-10-19T08:41:57.000Z</time>
      </trkpt>
      <trkpt lat="27.762038" lon="86.714541">
        <ele>2738.2</ele>
        <time>2022-10-19T08:41:59.000Z</time>
      </trkpt>
      <trkpt lat="27.762048" lon="86.714522">
        <ele>2738.2</ele>
        <time>2022-10-19T08:42:00.000Z</time>
      </trkpt>
      <trkpt lat="27.762067" lon="86.714509">
        <ele>2738.4</ele>
        <time>2022-10-19T08:42:01.000Z</time>
      </trkpt>
      <trkpt lat="27.76207" lon="86.714483">
        <ele>2738.8</ele>
        <time>2022-10-19T08:42:04.000Z</time>
      </trkpt>
      <trkpt lat="27.76209" lon="86.714477">
        <ele>2739.2</ele>
        <time>2022-10-19T08:42:08.000Z</time>
      </trkpt>
      <trkpt lat="27.762093" lon="86.714445">
        <ele>2738.6</ele>
        <time>2022-10-19T08:42:35.000Z</time>
      </trkpt>
      <trkpt lat="27.762077" lon="86.714426">
        <ele>2738.6</ele>
        <time>2022-10-19T08:42:39.000Z</time>
      </trkpt>
      <trkpt lat="27.762096" lon="86.714438">
        <ele>2739.8</ele>
        <time>2022-10-19T08:42:54.000Z</time>
      </trkpt>
      <trkpt lat="27.762112" lon="86.714458">
        <ele>2740</ele>
        <time>2022-10-19T08:42:56.000Z</time>
      </trkpt>
      <trkpt lat="27.762109" lon="86.714483">
        <ele>2740.6</ele>
        <time>2022-10-19T08:42:59.000Z</time>
      </trkpt>
      <trkpt lat="27.762096" lon="86.714502">
        <ele>2741.2</ele>
        <time>2022-10-19T08:43:00.000Z</time>
      </trkpt>
      <trkpt lat="27.762093" lon="86.714528">
        <ele>2741.6</ele>
        <time>2022-10-19T08:43:04.000Z</time>
      </trkpt>
      <trkpt lat="27.762086" lon="86.714547">
        <ele>2742.2</ele>
        <time>2022-10-19T08:43:07.000Z</time>
      </trkpt>
      <trkpt lat="27.762067" lon="86.714566">
        <ele>2743.6</ele>
        <time>2022-10-19T08:43:13.000Z</time>
      </trkpt>
      <trkpt lat="27.762051" lon="86.714586">
        <ele>2744</ele>
        <time>2022-10-19T08:43:15.000Z</time>
      </trkpt>
      <trkpt lat="27.762022" lon="86.714598">
        <ele>2744.2</ele>
        <time>2022-10-19T08:43:18.000Z</time>
      </trkpt>
      <trkpt lat="27.762" lon="86.714618">
        <ele>2744.4</ele>
        <time>2022-10-19T08:43:20.000Z</time>
      </trkpt>
      <trkpt lat="27.761981" lon="86.714624">
        <ele>2745.2</ele>
        <time>2022-10-19T08:43:23.000Z</time>
      </trkpt>
      <trkpt lat="27.761974" lon="86.714643">
        <ele>2746</ele>
        <time>2022-10-19T08:43:28.000Z</time>
      </trkpt>
      <trkpt lat="27.761997" lon="86.714662">
        <ele>2746.4</ele>
        <time>2022-10-19T08:43:31.000Z</time>
      </trkpt>
      <trkpt lat="27.762003" lon="86.714688">
        <ele>2748.2</ele>
        <time>2022-10-19T08:43:36.000Z</time>
      </trkpt>
      <trkpt lat="27.761994" lon="86.714707">
        <ele>2748.6</ele>
        <time>2022-10-19T08:43:38.000Z</time>
      </trkpt>
      <trkpt lat="27.761974" lon="86.71472">
        <ele>2748.6</ele>
        <time>2022-10-19T08:43:40.000Z</time>
      </trkpt>
      <trkpt lat="27.761962" lon="86.714739">
        <ele>2748.6</ele>
        <time>2022-10-19T08:43:42.000Z</time>
      </trkpt>
      <trkpt lat="27.761946" lon="86.714752">
        <ele>2748.6</ele>
        <time>2022-10-19T08:43:44.000Z</time>
      </trkpt>
      <trkpt lat="27.761926" lon="86.714752">
        <ele>2748.4</ele>
        <time>2022-10-19T08:43:46.000Z</time>
      </trkpt>
      <trkpt lat="27.761907" lon="86.714758">
        <ele>2748</ele>
        <time>2022-10-19T08:43:48.000Z</time>
      </trkpt>
      <trkpt lat="27.761888" lon="86.714778">
        <ele>2748.2</ele>
        <time>2022-10-19T08:43:52.000Z</time>
      </trkpt>
      <trkpt lat="27.761869" lon="86.714784">
        <ele>2747.4</ele>
        <time>2022-10-19T08:43:57.000Z</time>
      </trkpt>
      <trkpt lat="27.761862" lon="86.714803">
        <ele>2746.2</ele>
        <time>2022-10-19T08:44:01.000Z</time>
      </trkpt>
      <trkpt lat="27.761853" lon="86.714822">
        <ele>2745.8</ele>
        <time>2022-10-19T08:44:03.000Z</time>
      </trkpt>
      <trkpt lat="27.761837" lon="86.714842">
        <ele>2745.2</ele>
        <time>2022-10-19T08:44:06.000Z</time>
      </trkpt>
      <trkpt lat="27.76183" lon="86.714861">
        <ele>2744.6</ele>
        <time>2022-10-19T08:44:08.000Z</time>
      </trkpt>
      <trkpt lat="27.761824" lon="86.714886">
        <ele>2743.4</ele>
        <time>2022-10-19T08:44:12.000Z</time>
      </trkpt>
      <trkpt lat="27.761814" lon="86.714906">
        <ele>2742.8</ele>
        <time>2022-10-19T08:44:14.000Z</time>
      </trkpt>
      <trkpt lat="27.761808" lon="86.714925">
        <ele>2742.4</ele>
        <time>2022-10-19T08:44:17.000Z</time>
      </trkpt>
      <trkpt lat="27.761802" lon="86.714944">
        <ele>2741.6</ele>
        <time>2022-10-19T08:44:19.000Z</time>
      </trkpt>
      <trkpt lat="27.761789" lon="86.714963">
        <ele>2740.8</ele>
        <time>2022-10-19T08:44:22.000Z</time>
      </trkpt>
      <trkpt lat="27.76177" lon="86.714963">
        <ele>2740</ele>
        <time>2022-10-19T08:44:29.000Z</time>
      </trkpt>
      <trkpt lat="27.76175" lon="86.714944">
        <ele>2740</ele>
        <time>2022-10-19T08:44:32.000Z</time>
      </trkpt>
      <trkpt lat="27.761738" lon="86.714918">
        <ele>2739.6</ele>
        <time>2022-10-19T08:44:35.000Z</time>
      </trkpt>
      <trkpt lat="27.761722" lon="86.714906">
        <ele>2738.8</ele>
        <time>2022-10-19T08:44:38.000Z</time>
      </trkpt>
      <trkpt lat="27.761702" lon="86.714899">
        <ele>2738</ele>
        <time>2022-10-19T08:44:40.000Z</time>
      </trkpt>
      <trkpt lat="27.761683" lon="86.714899">
        <ele>2737</ele>
        <time>2022-10-19T08:44:46.000Z</time>
      </trkpt>
      <trkpt lat="27.761654" lon="86.714899">
        <ele>2737</ele>
        <time>2022-10-19T08:44:49.000Z</time>
      </trkpt>
      <trkpt lat="27.761629" lon="86.714906">
        <ele>2736.4</ele>
        <time>2022-10-19T08:44:52.000Z</time>
      </trkpt>
      <trkpt lat="27.761606" lon="86.714912">
        <ele>2736.2</ele>
        <time>2022-10-19T08:44:54.000Z</time>
      </trkpt>
      <trkpt lat="27.761587" lon="86.714925">
        <ele>2735.8</ele>
        <time>2022-10-19T08:44:57.000Z</time>
      </trkpt>
      <trkpt lat="27.761571" lon="86.714976">
        <ele>2735.8</ele>
        <time>2022-10-19T08:45:03.000Z</time>
      </trkpt>
      <trkpt lat="27.761574" lon="86.715002">
        <ele>2735.4</ele>
        <time>2022-10-19T08:45:05.000Z</time>
      </trkpt>
      <trkpt lat="27.761584" lon="86.715027">
        <ele>2734.8</ele>
        <time>2022-10-19T08:45:07.000Z</time>
      </trkpt>
      <trkpt lat="27.761594" lon="86.715053">
        <ele>2734.2</ele>
        <time>2022-10-19T08:45:10.000Z</time>
      </trkpt>
      <trkpt lat="27.76159" lon="86.715078">
        <ele>2734</ele>
        <time>2022-10-19T08:45:13.000Z</time>
      </trkpt>
      <trkpt lat="27.761581" lon="86.715098">
        <ele>2734</ele>
        <time>2022-10-19T08:45:15.000Z</time>
      </trkpt>
      <trkpt lat="27.761574" lon="86.715117">
        <ele>2733.4</ele>
        <time>2022-10-19T08:45:18.000Z</time>
      </trkpt>
      <trkpt lat="27.761565" lon="86.715136">
        <ele>2733.2</ele>
        <time>2022-10-19T08:45:20.000Z</time>
      </trkpt>
      <trkpt lat="27.761562" lon="86.715174">
        <ele>2732.6</ele>
        <time>2022-10-19T08:45:23.000Z</time>
      </trkpt>
      <trkpt lat="27.761552" lon="86.715194">
        <ele>2732.8</ele>
        <time>2022-10-19T08:45:27.000Z</time>
      </trkpt>
      <trkpt lat="27.761542" lon="86.715213">
        <ele>2732.8</ele>
        <time>2022-10-19T08:45:30.000Z</time>
      </trkpt>
      <trkpt lat="27.76152" lon="86.715219">
        <ele>2732.4</ele>
        <time>2022-10-19T08:45:33.000Z</time>
      </trkpt>
      <trkpt lat="27.761498" lon="86.715219">
        <ele>2732.2</ele>
        <time>2022-10-19T08:45:37.000Z</time>
      </trkpt>
      <trkpt lat="27.761475" lon="86.715226">
        <ele>2731.6</ele>
        <time>2022-10-19T08:45:40.000Z</time>
      </trkpt>
      <trkpt lat="27.761472" lon="86.715251">
        <ele>2730.4</ele>
        <time>2022-10-19T08:45:43.000Z</time>
      </trkpt>
      <trkpt lat="27.761498" lon="86.715334">
        <ele>2730.2</ele>
        <time>2022-10-19T08:45:51.000Z</time>
      </trkpt>
      <trkpt lat="27.76151" lon="86.71536">
        <ele>2730</ele>
        <time>2022-10-19T08:45:53.000Z</time>
      </trkpt>
      <trkpt lat="27.761517" lon="86.715386">
        <ele>2729.4</ele>
        <time>2022-10-19T08:45:55.000Z</time>
      </trkpt>
      <trkpt lat="27.761523" lon="86.715411">
        <ele>2729</ele>
        <time>2022-10-19T08:45:57.000Z</time>
      </trkpt>
      <trkpt lat="27.761523" lon="86.715437">
        <ele>2728.8</ele>
        <time>2022-10-19T08:45:59.000Z</time>
      </trkpt>
      <trkpt lat="27.76151" lon="86.715456">
        <ele>2728.8</ele>
        <time>2022-10-19T08:46:01.000Z</time>
      </trkpt>
      <trkpt lat="27.761494" lon="86.715469">
        <ele>2728.2</ele>
        <time>2022-10-19T08:46:03.000Z</time>
      </trkpt>
      <trkpt lat="27.761475" lon="86.715469">
        <ele>2727.8</ele>
        <time>2022-10-19T08:46:05.000Z</time>
      </trkpt>
      <trkpt lat="27.761456" lon="86.715475">
        <ele>2727.6</ele>
        <time>2022-10-19T08:46:07.000Z</time>
      </trkpt>
      <trkpt lat="27.76143" lon="86.715482">
        <ele>2727.8</ele>
        <time>2022-10-19T08:46:09.000Z</time>
      </trkpt>
      <trkpt lat="27.761405" lon="86.715494">
        <ele>2728.2</ele>
        <time>2022-10-19T08:46:11.000Z</time>
      </trkpt>
      <trkpt lat="27.761386" lon="86.715514">
        <ele>2728.2</ele>
        <time>2022-10-19T08:46:13.000Z</time>
      </trkpt>
      <trkpt lat="27.761366" lon="86.715533">
        <ele>2728.4</ele>
        <time>2022-10-19T08:46:15.000Z</time>
      </trkpt>
      <trkpt lat="27.761357" lon="86.715552">
        <ele>2728.6</ele>
        <time>2022-10-19T08:46:17.000Z</time>
      </trkpt>
      <trkpt lat="27.76135" lon="86.715571">
        <ele>2728.8</ele>
        <time>2022-10-19T08:46:19.000Z</time>
      </trkpt>
      <trkpt lat="27.761344" lon="86.715597">
        <ele>2728</ele>
        <time>2022-10-19T08:46:21.000Z</time>
      </trkpt>
      <trkpt lat="27.761338" lon="86.715616">
        <ele>2728</ele>
        <time>2022-10-19T08:46:22.000Z</time>
      </trkpt>
      <trkpt lat="27.761318" lon="86.715629">
        <ele>2727.6</ele>
        <time>2022-10-19T08:46:25.000Z</time>
      </trkpt>
      <trkpt lat="27.761309" lon="86.715648">
        <ele>2727.6</ele>
        <time>2022-10-19T08:46:28.000Z</time>
      </trkpt>
      <trkpt lat="27.761299" lon="86.715629">
        <ele>2727.2</ele>
        <time>2022-10-19T08:46:30.000Z</time>
      </trkpt>
      <trkpt lat="27.761312" lon="86.715648">
        <ele>2726.4</ele>
        <time>2022-10-19T08:46:51.000Z</time>
      </trkpt>
      <trkpt lat="27.761325" lon="86.715667">
        <ele>2726.6</ele>
        <time>2022-10-19T08:46:53.000Z</time>
      </trkpt>
      <trkpt lat="27.761322" lon="86.715699">
        <ele>2726.8</ele>
        <time>2022-10-19T08:46:55.000Z</time>
      </trkpt>
      <trkpt lat="27.761315" lon="86.715731">
        <ele>2727</ele>
        <time>2022-10-19T08:46:58.000Z</time>
      </trkpt>
      <trkpt lat="27.761312" lon="86.715757">
        <ele>2727</ele>
        <time>2022-10-19T08:47:00.000Z</time>
      </trkpt>
      <trkpt lat="27.761302" lon="86.715776">
        <ele>2727</ele>
        <time>2022-10-19T08:47:02.000Z</time>
      </trkpt>
      <trkpt lat="27.761293" lon="86.715795">
        <ele>2727</ele>
        <time>2022-10-19T08:47:04.000Z</time>
      </trkpt>
      <trkpt lat="27.761283" lon="86.715821">
        <ele>2726.8</ele>
        <time>2022-10-19T08:47:06.000Z</time>
      </trkpt>
      <trkpt lat="27.761277" lon="86.715846">
        <ele>2727</ele>
        <time>2022-10-19T08:47:08.000Z</time>
      </trkpt>
      <trkpt lat="27.76127" lon="86.715866">
        <ele>2726.6</ele>
        <time>2022-10-19T08:47:12.000Z</time>
      </trkpt>
      <trkpt lat="27.761258" lon="86.715891">
        <ele>2727</ele>
        <time>2022-10-19T08:47:16.000Z</time>
      </trkpt>
      <trkpt lat="27.761254" lon="86.715917">
        <ele>2727</ele>
        <time>2022-10-19T08:47:20.000Z</time>
      </trkpt>
      <trkpt lat="27.761264" lon="86.715942">
        <ele>2726.6</ele>
        <time>2022-10-19T08:47:22.000Z</time>
      </trkpt>
      <trkpt lat="27.761258" lon="86.715968">
        <ele>2726.2</ele>
        <time>2022-10-19T08:47:24.000Z</time>
      </trkpt>
      <trkpt lat="27.761245" lon="86.715994">
        <ele>2726.2</ele>
        <time>2022-10-19T08:47:26.000Z</time>
      </trkpt>
      <trkpt lat="27.761251" lon="86.716013">
        <ele>2725.6</ele>
        <time>2022-10-19T08:47:29.000Z</time>
      </trkpt>
      <trkpt lat="27.761274" lon="86.716026">
        <ele>2725.6</ele>
        <time>2022-10-19T08:47:31.000Z</time>
      </trkpt>
      <trkpt lat="27.761293" lon="86.716058">
        <ele>2725.8</ele>
        <time>2022-10-19T08:47:34.000Z</time>
      </trkpt>
      <trkpt lat="27.761296" lon="86.71609">
        <ele>2725.6</ele>
        <time>2022-10-19T08:47:37.000Z</time>
      </trkpt>
      <trkpt lat="27.761299" lon="86.716115">
        <ele>2725.8</ele>
        <time>2022-10-19T08:47:40.000Z</time>
      </trkpt>
      <trkpt lat="27.761312" lon="86.716134">
        <ele>2726</ele>
        <time>2022-10-19T08:47:42.000Z</time>
      </trkpt>
      <trkpt lat="27.761328" lon="86.716154">
        <ele>2725.6</ele>
        <time>2022-10-19T08:47:45.000Z</time>
      </trkpt>
      <trkpt lat="27.761344" lon="86.716173">
        <ele>2725.6</ele>
        <time>2022-10-19T08:47:47.000Z</time>
      </trkpt>
      <trkpt lat="27.76137" lon="86.716166">
        <ele>2726</ele>
        <time>2022-10-19T08:47:48.000Z</time>
      </trkpt>
      <trkpt lat="27.761386" lon="86.716179">
        <ele>2726.2</ele>
        <time>2022-10-19T08:47:50.000Z</time>
      </trkpt>
      <trkpt lat="27.761392" lon="86.716211">
        <ele>2726.2</ele>
        <time>2022-10-19T08:47:53.000Z</time>
      </trkpt>
      <trkpt lat="27.761395" lon="86.716237">
        <ele>2726.6</ele>
        <time>2022-10-19T08:47:56.000Z</time>
      </trkpt>
      <trkpt lat="27.761411" lon="86.716256">
        <ele>2726.8</ele>
        <time>2022-10-19T08:47:58.000Z</time>
      </trkpt>
      <trkpt lat="27.76143" lon="86.716275">
        <ele>2726.6</ele>
        <time>2022-10-19T08:48:01.000Z</time>
      </trkpt>
      <trkpt lat="27.761434" lon="86.716301">
        <ele>2726.6</ele>
        <time>2022-10-19T08:48:03.000Z</time>
      </trkpt>
      <trkpt lat="27.761453" lon="86.716326">
        <ele>2726.4</ele>
        <time>2022-10-19T08:48:06.000Z</time>
      </trkpt>
      <trkpt lat="27.761472" lon="86.716346">
        <ele>2726.4</ele>
        <time>2022-10-19T08:48:09.000Z</time>
      </trkpt>
      <trkpt lat="27.761494" lon="86.716352">
        <ele>2726.2</ele>
        <time>2022-10-19T08:48:11.000Z</time>
      </trkpt>
      <trkpt lat="27.761514" lon="86.716365">
        <ele>2726.6</ele>
        <time>2022-10-19T08:48:14.000Z</time>
      </trkpt>
      <trkpt lat="27.761533" lon="86.716365">
        <ele>2726.2</ele>
        <time>2022-10-19T08:48:17.000Z</time>
      </trkpt>
      <trkpt lat="27.761555" lon="86.716378">
        <ele>2726.6</ele>
        <time>2022-10-19T08:48:20.000Z</time>
      </trkpt>
      <trkpt lat="27.761568" lon="86.716403">
        <ele>2727</ele>
        <time>2022-10-19T08:48:22.000Z</time>
      </trkpt>
      <trkpt lat="27.761584" lon="86.716422">
        <ele>2727</ele>
        <time>2022-10-19T08:48:25.000Z</time>
      </trkpt>
      <trkpt lat="27.761603" lon="86.716429">
        <ele>2727</ele>
        <time>2022-10-19T08:48:27.000Z</time>
      </trkpt>
      <trkpt lat="27.761629" lon="86.716448">
        <ele>2727.4</ele>
        <time>2022-10-19T08:48:30.000Z</time>
      </trkpt>
      <trkpt lat="27.761648" lon="86.716454">
        <ele>2727.4</ele>
        <time>2022-10-19T08:48:33.000Z</time>
      </trkpt>
      <trkpt lat="27.761667" lon="86.716461">
        <ele>2727.6</ele>
        <time>2022-10-19T08:48:36.000Z</time>
      </trkpt>
      <trkpt lat="27.761683" lon="86.716474">
        <ele>2727.6</ele>
        <time>2022-10-19T08:48:46.000Z</time>
      </trkpt>
      <trkpt lat="27.76169" lon="86.716493">
        <ele>2727.2</ele>
        <time>2022-10-19T08:48:58.000Z</time>
      </trkpt>
      <trkpt lat="27.761696" lon="86.716512">
        <ele>2727.4</ele>
        <time>2022-10-19T08:49:00.000Z</time>
      </trkpt>
      <trkpt lat="27.761702" lon="86.716531">
        <ele>2727.4</ele>
        <time>2022-10-19T08:49:01.000Z</time>
      </trkpt>
      <trkpt lat="27.761709" lon="86.71655">
        <ele>2727.4</ele>
        <time>2022-10-19T08:49:07.000Z</time>
      </trkpt>
      <trkpt lat="27.761728" lon="86.71657">
        <ele>2727.2</ele>
        <time>2022-10-19T08:49:40.000Z</time>
      </trkpt>
      <trkpt lat="27.761741" lon="86.716589">
        <ele>2727.2</ele>
        <time>2022-10-19T08:49:43.000Z</time>
      </trkpt>
      <trkpt lat="27.761754" lon="86.716614">
        <ele>2727.6</ele>
        <time>2022-10-19T08:49:47.000Z</time>
      </trkpt>
      <trkpt lat="27.761763" lon="86.716634">
        <ele>2727.6</ele>
        <time>2022-10-19T08:49:50.000Z</time>
      </trkpt>
      <trkpt lat="27.76177" lon="86.716653">
        <ele>2727.2</ele>
        <time>2022-10-19T08:49:51.000Z</time>
      </trkpt>
      <trkpt lat="27.761776" lon="86.716672">
        <ele>2727.2</ele>
        <time>2022-10-19T08:49:54.000Z</time>
      </trkpt>
      <trkpt lat="27.761782" lon="86.716691">
        <ele>2727.2</ele>
        <time>2022-10-19T08:49:55.000Z</time>
      </trkpt>
      <trkpt lat="27.761789" lon="86.716723">
        <ele>2727</ele>
        <time>2022-10-19T08:49:57.000Z</time>
      </trkpt>
      <trkpt lat="27.761798" lon="86.716749">
        <ele>2727</ele>
        <time>2022-10-19T08:50:00.000Z</time>
      </trkpt>
      <trkpt lat="27.761802" lon="86.716781">
        <ele>2727.2</ele>
        <time>2022-10-19T08:50:03.000Z</time>
      </trkpt>
      <trkpt lat="27.761814" lon="86.716806">
        <ele>2727.2</ele>
        <time>2022-10-19T08:50:05.000Z</time>
      </trkpt>
      <trkpt lat="27.761811" lon="86.716832">
        <ele>2727.6</ele>
        <time>2022-10-19T08:50:08.000Z</time>
      </trkpt>
      <trkpt lat="27.761805" lon="86.716851">
        <ele>2727.4</ele>
        <time>2022-10-19T08:50:10.000Z</time>
      </trkpt>
      <trkpt lat="27.761824" lon="86.716883">
        <ele>2727.4</ele>
        <time>2022-10-19T08:50:13.000Z</time>
      </trkpt>
      <trkpt lat="27.761834" lon="86.716902">
        <ele>2727</ele>
        <time>2022-10-19T08:50:15.000Z</time>
      </trkpt>
      <trkpt lat="27.76185" lon="86.716928">
        <ele>2726.4</ele>
        <time>2022-10-19T08:50:17.000Z</time>
      </trkpt>
      <trkpt lat="27.761859" lon="86.716947">
        <ele>2726.4</ele>
        <time>2022-10-19T08:50:19.000Z</time>
      </trkpt>
      <trkpt lat="27.761872" lon="86.716966">
        <ele>2726.2</ele>
        <time>2022-10-19T08:50:21.000Z</time>
      </trkpt>
      <trkpt lat="27.761882" lon="86.716986">
        <ele>2726.2</ele>
        <time>2022-10-19T08:50:23.000Z</time>
      </trkpt>
      <trkpt lat="27.761888" lon="86.717005">
        <ele>2726.2</ele>
        <time>2022-10-19T08:50:24.000Z</time>
      </trkpt>
      <trkpt lat="27.761901" lon="86.71703">
        <ele>2726</ele>
        <time>2022-10-19T08:50:27.000Z</time>
      </trkpt>
      <trkpt lat="27.76191" lon="86.71705">
        <ele>2726.2</ele>
        <time>2022-10-19T08:50:29.000Z</time>
      </trkpt>
      <trkpt lat="27.76193" lon="86.717062">
        <ele>2726.4</ele>
        <time>2022-10-19T08:50:31.000Z</time>
      </trkpt>
      <trkpt lat="27.761942" lon="86.717082">
        <ele>2726.8</ele>
        <time>2022-10-19T08:50:33.000Z</time>
      </trkpt>
      <trkpt lat="27.761958" lon="86.717101">
        <ele>2727</ele>
        <time>2022-10-19T08:50:36.000Z</time>
      </trkpt>
      <trkpt lat="27.761978" lon="86.71712">
        <ele>2726.8</ele>
        <time>2022-10-19T08:50:38.000Z</time>
      </trkpt>
      <trkpt lat="27.761997" lon="86.717133">
        <ele>2726.8</ele>
        <time>2022-10-19T08:50:40.000Z</time>
      </trkpt>
      <trkpt lat="27.762022" lon="86.717146">
        <ele>2726.8</ele>
        <time>2022-10-19T08:50:43.000Z</time>
      </trkpt>
      <trkpt lat="27.762038" lon="86.717165">
        <ele>2726.8</ele>
        <time>2022-10-19T08:50:45.000Z</time>
      </trkpt>
      <trkpt lat="27.762054" lon="86.717178">
        <ele>2727</ele>
        <time>2022-10-19T08:50:47.000Z</time>
      </trkpt>
      <trkpt lat="27.76207" lon="86.717197">
        <ele>2727</ele>
        <time>2022-10-19T08:50:49.000Z</time>
      </trkpt>
      <trkpt lat="27.76209" lon="86.71721">
        <ele>2727.2</ele>
        <time>2022-10-19T08:50:51.000Z</time>
      </trkpt>
      <trkpt lat="27.762102" lon="86.717229">
        <ele>2727.2</ele>
        <time>2022-10-19T08:50:53.000Z</time>
      </trkpt>
      <trkpt lat="27.762115" lon="86.717254">
        <ele>2727.4</ele>
        <time>2022-10-19T08:50:55.000Z</time>
      </trkpt>
      <trkpt lat="27.762138" lon="86.717267">
        <ele>2727.4</ele>
        <time>2022-10-19T08:50:57.000Z</time>
      </trkpt>
      <trkpt lat="27.762144" lon="86.717286">
        <ele>2727.4</ele>
        <time>2022-10-19T08:50:58.000Z</time>
      </trkpt>
      <trkpt lat="27.76216" lon="86.717306">
        <ele>2727.4</ele>
        <time>2022-10-19T08:51:00.000Z</time>
      </trkpt>
      <trkpt lat="27.762176" lon="86.717325">
        <ele>2727.6</ele>
        <time>2022-10-19T08:51:02.000Z</time>
      </trkpt>
      <trkpt lat="27.762198" lon="86.717331">
        <ele>2727.6</ele>
        <time>2022-10-19T08:51:04.000Z</time>
      </trkpt>
      <trkpt lat="27.762221" lon="86.717338">
        <ele>2727.8</ele>
        <time>2022-10-19T08:51:07.000Z</time>
      </trkpt>
      <trkpt lat="27.762246" lon="86.717338">
        <ele>2728</ele>
        <time>2022-10-19T08:51:09.000Z</time>
      </trkpt>
      <trkpt lat="27.762253" lon="86.717363">
        <ele>2728.2</ele>
        <time>2022-10-19T08:51:11.000Z</time>
      </trkpt>
      <trkpt lat="27.762266" lon="86.717382">
        <ele>2728.8</ele>
        <time>2022-10-19T08:51:14.000Z</time>
      </trkpt>
      <trkpt lat="27.762285" lon="86.717402">
        <ele>2729</ele>
        <time>2022-10-19T08:51:16.000Z</time>
      </trkpt>
      <trkpt lat="27.762301" lon="86.717414">
        <ele>2729.2</ele>
        <time>2022-10-19T08:51:18.000Z</time>
      </trkpt>
      <trkpt lat="27.76232" lon="86.717427">
        <ele>2729.2</ele>
        <time>2022-10-19T08:51:20.000Z</time>
      </trkpt>
      <trkpt lat="27.762336" lon="86.717446">
        <ele>2729.2</ele>
        <time>2022-10-19T08:51:22.000Z</time>
      </trkpt>
      <trkpt lat="27.762355" lon="86.717453">
        <ele>2729.4</ele>
        <time>2022-10-19T08:51:24.000Z</time>
      </trkpt>
      <trkpt lat="27.762374" lon="86.717466">
        <ele>2729.2</ele>
        <time>2022-10-19T08:51:26.000Z</time>
      </trkpt>
      <trkpt lat="27.762387" lon="86.717491">
        <ele>2729</ele>
        <time>2022-10-19T08:51:28.000Z</time>
      </trkpt>
      <trkpt lat="27.762406" lon="86.717498">
        <ele>2729.2</ele>
        <time>2022-10-19T08:51:30.000Z</time>
      </trkpt>
      <trkpt lat="27.762426" lon="86.717504">
        <ele>2729.2</ele>
        <time>2022-10-19T08:51:33.000Z</time>
      </trkpt>
      <trkpt lat="27.762445" lon="86.717498">
        <ele>2729.6</ele>
        <time>2022-10-19T08:51:37.000Z</time>
      </trkpt>
      <trkpt lat="27.762467" lon="86.717504">
        <ele>2729.8</ele>
        <time>2022-10-19T08:51:40.000Z</time>
      </trkpt>
      <trkpt lat="27.762486" lon="86.717504">
        <ele>2730.2</ele>
        <time>2022-10-19T08:51:42.000Z</time>
      </trkpt>
      <trkpt lat="27.762506" lon="86.717517">
        <ele>2730.6</ele>
        <time>2022-10-19T08:51:44.000Z</time>
      </trkpt>
      <trkpt lat="27.762525" lon="86.717523">
        <ele>2730.6</ele>
        <time>2022-10-19T08:51:47.000Z</time>
      </trkpt>
      <trkpt lat="27.762547" lon="86.717536">
        <ele>2731.6</ele>
        <time>2022-10-19T08:51:51.000Z</time>
      </trkpt>
      <trkpt lat="27.762557" lon="86.717555">
        <ele>2731.8</ele>
        <time>2022-10-19T08:51:53.000Z</time>
      </trkpt>
      <trkpt lat="27.762582" lon="86.717562">
        <ele>2732.2</ele>
        <time>2022-10-19T08:51:56.000Z</time>
      </trkpt>
      <trkpt lat="27.762605" lon="86.717568">
        <ele>2732.6</ele>
        <time>2022-10-19T08:51:59.000Z</time>
      </trkpt>
      <trkpt lat="27.762627" lon="86.717574">
        <ele>2733</ele>
        <time>2022-10-19T08:52:02.000Z</time>
      </trkpt>
      <trkpt lat="27.762646" lon="86.717581">
        <ele>2733.2</ele>
        <time>2022-10-19T08:52:07.000Z</time>
      </trkpt>
      <trkpt lat="27.762656" lon="86.7176">
        <ele>2733</ele>
        <time>2022-10-19T08:52:10.000Z</time>
      </trkpt>
      <trkpt lat="27.762646" lon="86.717619">
        <ele>2733.6</ele>
        <time>2022-10-19T08:52:19.000Z</time>
      </trkpt>
      <trkpt lat="27.762653" lon="86.717645">
        <ele>2732.4</ele>
        <time>2022-10-19T08:52:44.000Z</time>
      </trkpt>
      <trkpt lat="27.762672" lon="86.717658">
        <ele>2732.2</ele>
        <time>2022-10-19T08:52:45.000Z</time>
      </trkpt>
      <trkpt lat="27.762685" lon="86.717677">
        <ele>2732.2</ele>
        <time>2022-10-19T08:52:46.000Z</time>
      </trkpt>
      <trkpt lat="27.762698" lon="86.717696">
        <ele>2732.2</ele>
        <time>2022-10-19T08:52:47.000Z</time>
      </trkpt>
      <trkpt lat="27.762704" lon="86.717715">
        <ele>2732</ele>
        <time>2022-10-19T08:52:48.000Z</time>
      </trkpt>
      <trkpt lat="27.762733" lon="86.717754">
        <ele>2732</ele>
        <time>2022-10-19T08:52:50.000Z</time>
      </trkpt>
      <trkpt lat="27.762746" lon="86.717779">
        <ele>2731.4</ele>
        <time>2022-10-19T08:52:51.000Z</time>
      </trkpt>
      <trkpt lat="27.762765" lon="86.717805">
        <ele>2732</ele>
        <time>2022-10-19T08:52:53.000Z</time>
      </trkpt>
      <trkpt lat="27.762771" lon="86.717843">
        <ele>2732</ele>
        <time>2022-10-19T08:52:55.000Z</time>
      </trkpt>
      <trkpt lat="27.762784" lon="86.717862">
        <ele>2731.6</ele>
        <time>2022-10-19T08:52:58.000Z</time>
      </trkpt>
      <trkpt lat="27.762794" lon="86.717882">
        <ele>2732</ele>
        <time>2022-10-19T08:53:00.000Z</time>
      </trkpt>
      <trkpt lat="27.762794" lon="86.71792">
        <ele>2731.8</ele>
        <time>2022-10-19T08:53:03.000Z</time>
      </trkpt>
      <trkpt lat="27.762816" lon="86.717939">
        <ele>2732</ele>
        <time>2022-10-19T08:53:06.000Z</time>
      </trkpt>
      <trkpt lat="27.762829" lon="86.717958">
        <ele>2732.2</ele>
        <time>2022-10-19T08:53:08.000Z</time>
      </trkpt>
      <trkpt lat="27.762845" lon="86.717971">
        <ele>2732.2</ele>
        <time>2022-10-19T08:53:10.000Z</time>
      </trkpt>
      <trkpt lat="27.762864" lon="86.717984">
        <ele>2732</ele>
        <time>2022-10-19T08:53:14.000Z</time>
      </trkpt>
      <trkpt lat="27.76288" lon="86.718003">
        <ele>2732.4</ele>
        <time>2022-10-19T08:53:16.000Z</time>
      </trkpt>
      <trkpt lat="27.762896" lon="86.718022">
        <ele>2732.6</ele>
        <time>2022-10-19T08:53:20.000Z</time>
      </trkpt>
      <trkpt lat="27.762912" lon="86.718042">
        <ele>2732.6</ele>
        <time>2022-10-19T08:53:22.000Z</time>
      </trkpt>
      <trkpt lat="27.762941" lon="86.718035">
        <ele>2732.4</ele>
        <time>2022-10-19T08:53:24.000Z</time>
      </trkpt>
      <trkpt lat="27.76296" lon="86.718035">
        <ele>2732.8</ele>
        <time>2022-10-19T08:53:26.000Z</time>
      </trkpt>
      <trkpt lat="27.762979" lon="86.718022">
        <ele>2732.8</ele>
        <time>2022-10-19T08:53:27.000Z</time>
      </trkpt>
      <trkpt lat="27.763014" lon="86.71801">
        <ele>2733</ele>
        <time>2022-10-19T08:53:29.000Z</time>
      </trkpt>
      <trkpt lat="27.76304" lon="86.718016">
        <ele>2733</ele>
        <time>2022-10-19T08:53:30.000Z</time>
      </trkpt>
      <trkpt lat="27.763046" lon="86.718035">
        <ele>2733.2</ele>
        <time>2022-10-19T08:53:32.000Z</time>
      </trkpt>
      <trkpt lat="27.763062" lon="86.718054">
        <ele>2733.2</ele>
        <time>2022-10-19T08:53:35.000Z</time>
      </trkpt>
      <trkpt lat="27.763053" lon="86.718074">
        <ele>2733</ele>
        <time>2022-10-19T08:53:36.000Z</time>
      </trkpt>
      <trkpt lat="27.763059" lon="86.718093">
        <ele>2733</ele>
        <time>2022-10-19T08:53:38.000Z</time>
      </trkpt>
      <trkpt lat="27.763069" lon="86.718112">
        <ele>2733</ele>
        <time>2022-10-19T08:53:39.000Z</time>
      </trkpt>
      <trkpt lat="27.763082" lon="86.718131">
        <ele>2733.2</ele>
        <time>2022-10-19T08:53:41.000Z</time>
      </trkpt>
      <trkpt lat="27.763094" lon="86.71815">
        <ele>2732.6</ele>
        <time>2022-10-19T08:53:44.000Z</time>
      </trkpt>
      <trkpt lat="27.763104" lon="86.718176">
        <ele>2732.2</ele>
        <time>2022-10-19T08:53:49.000Z</time>
      </trkpt>
      <trkpt lat="27.763114" lon="86.718195">
        <ele>2731.4</ele>
        <time>2022-10-19T08:53:52.000Z</time>
      </trkpt>
      <trkpt lat="27.763133" lon="86.718208">
        <ele>2731.4</ele>
        <time>2022-10-19T08:53:54.000Z</time>
      </trkpt>
      <trkpt lat="27.763142" lon="86.71824">
        <ele>2731.2</ele>
        <time>2022-10-19T08:53:57.000Z</time>
      </trkpt>
      <trkpt lat="27.763146" lon="86.718278">
        <ele>2731.2</ele>
        <time>2022-10-19T08:54:00.000Z</time>
      </trkpt>
      <trkpt lat="27.763152" lon="86.718298">
        <ele>2730.8</ele>
        <time>2022-10-19T08:54:02.000Z</time>
      </trkpt>
      <trkpt lat="27.763171" lon="86.718323">
        <ele>2730.6</ele>
        <time>2022-10-19T08:54:04.000Z</time>
      </trkpt>
      <trkpt lat="27.763174" lon="86.718349">
        <ele>2730.2</ele>
        <time>2022-10-19T08:54:06.000Z</time>
      </trkpt>
      <trkpt lat="27.76319" lon="86.718374">
        <ele>2730</ele>
        <time>2022-10-19T08:54:09.000Z</time>
      </trkpt>
      <trkpt lat="27.76321" lon="86.718394">
        <ele>2730</ele>
        <time>2022-10-19T08:54:11.000Z</time>
      </trkpt>
      <trkpt lat="27.763226" lon="86.718413">
        <ele>2730</ele>
        <time>2022-10-19T08:54:13.000Z</time>
      </trkpt>
      <trkpt lat="27.763232" lon="86.718438">
        <ele>2730.2</ele>
        <time>2022-10-19T08:54:15.000Z</time>
      </trkpt>
      <trkpt lat="27.763235" lon="86.718477">
        <ele>2730.4</ele>
        <time>2022-10-19T08:54:18.000Z</time>
      </trkpt>
      <trkpt lat="27.763238" lon="86.718509">
        <ele>2731</ele>
        <time>2022-10-19T08:54:21.000Z</time>
      </trkpt>
      <trkpt lat="27.763238" lon="86.718534">
        <ele>2730.6</ele>
        <time>2022-10-19T08:54:23.000Z</time>
      </trkpt>
      <trkpt lat="27.763248" lon="86.718566">
        <ele>2730.8</ele>
        <time>2022-10-19T08:54:26.000Z</time>
      </trkpt>
      <trkpt lat="27.763254" lon="86.718592">
        <ele>2731</ele>
        <time>2022-10-19T08:54:28.000Z</time>
      </trkpt>
      <trkpt lat="27.763261" lon="86.718611">
        <ele>2731.2</ele>
        <time>2022-10-19T08:54:30.000Z</time>
      </trkpt>
      <trkpt lat="27.763274" lon="86.71863">
        <ele>2731</ele>
        <time>2022-10-19T08:54:32.000Z</time>
      </trkpt>
      <trkpt lat="27.763293" lon="86.71865">
        <ele>2730.8</ele>
        <time>2022-10-19T08:54:35.000Z</time>
      </trkpt>
      <trkpt lat="27.763296" lon="86.718675">
        <ele>2731</ele>
        <time>2022-10-19T08:54:37.000Z</time>
      </trkpt>
      <trkpt lat="27.763306" lon="86.718694">
        <ele>2731.6</ele>
        <time>2022-10-19T08:54:40.000Z</time>
      </trkpt>
      <trkpt lat="27.763312" lon="86.71872">
        <ele>2731.6</ele>
        <time>2022-10-19T08:54:42.000Z</time>
      </trkpt>
      <trkpt lat="27.763322" lon="86.718752">
        <ele>2731.6</ele>
        <time>2022-10-19T08:54:45.000Z</time>
      </trkpt>
      <trkpt lat="27.763328" lon="86.718771">
        <ele>2731.6</ele>
        <time>2022-10-19T08:54:47.000Z</time>
      </trkpt>
      <trkpt lat="27.763331" lon="86.718803">
        <ele>2732</ele>
        <time>2022-10-19T08:54:49.000Z</time>
      </trkpt>
      <trkpt lat="27.763328" lon="86.718835">
        <ele>2732</ele>
        <time>2022-10-19T08:54:52.000Z</time>
      </trkpt>
      <trkpt lat="27.763344" lon="86.718854">
        <ele>2732</ele>
        <time>2022-10-19T08:54:55.000Z</time>
      </trkpt>
      <trkpt lat="27.763357" lon="86.71888">
        <ele>2732.2</ele>
        <time>2022-10-19T08:54:57.000Z</time>
      </trkpt>
      <trkpt lat="27.76336" lon="86.718931">
        <ele>2732.4</ele>
        <time>2022-10-19T08:55:03.000Z</time>
      </trkpt>
      <trkpt lat="27.763366" lon="86.71895">
        <ele>2732</ele>
        <time>2022-10-19T08:55:06.000Z</time>
      </trkpt>
      <trkpt lat="27.763373" lon="86.718976">
        <ele>2732</ele>
        <time>2022-10-19T08:55:08.000Z</time>
      </trkpt>
      <trkpt lat="27.763382" lon="86.719002">
        <ele>2732.2</ele>
        <time>2022-10-19T08:55:10.000Z</time>
      </trkpt>
      <trkpt lat="27.763386" lon="86.719027">
        <ele>2732.2</ele>
        <time>2022-10-19T08:55:12.000Z</time>
      </trkpt>
      <trkpt lat="27.763382" lon="86.719053">
        <ele>2732.2</ele>
        <time>2022-10-19T08:55:15.000Z</time>
      </trkpt>
      <trkpt lat="27.763389" lon="86.719078">
        <ele>2732.2</ele>
        <time>2022-10-19T08:55:17.000Z</time>
      </trkpt>
      <trkpt lat="27.763382" lon="86.71911">
        <ele>2732.4</ele>
        <time>2022-10-19T08:55:19.000Z</time>
      </trkpt>
      <trkpt lat="27.763373" lon="86.71913">
        <ele>2732.4</ele>
        <time>2022-10-19T08:55:21.000Z</time>
      </trkpt>
      <trkpt lat="27.763363" lon="86.719155">
        <ele>2733</ele>
        <time>2022-10-19T08:55:23.000Z</time>
      </trkpt>
      <trkpt lat="27.763354" lon="86.719187">
        <ele>2733</ele>
        <time>2022-10-19T08:55:26.000Z</time>
      </trkpt>
      <trkpt lat="27.763354" lon="86.719232">
        <ele>2733.4</ele>
        <time>2022-10-19T08:55:31.000Z</time>
      </trkpt>
      <trkpt lat="27.763373" lon="86.719238">
        <ele>2733.2</ele>
        <time>2022-10-19T08:55:33.000Z</time>
      </trkpt>
      <trkpt lat="27.763398" lon="86.719245">
        <ele>2733</ele>
        <time>2022-10-19T08:55:36.000Z</time>
      </trkpt>
      <trkpt lat="27.763405" lon="86.719264">
        <ele>2732.8</ele>
        <time>2022-10-19T08:55:37.000Z</time>
      </trkpt>
      <trkpt lat="27.763427" lon="86.719283">
        <ele>2732.8</ele>
        <time>2022-10-19T08:55:39.000Z</time>
      </trkpt>
      <trkpt lat="27.763437" lon="86.719302">
        <ele>2732.8</ele>
        <time>2022-10-19T08:55:40.000Z</time>
      </trkpt>
      <trkpt lat="27.763466" lon="86.719315">
        <ele>2732.8</ele>
        <time>2022-10-19T08:55:42.000Z</time>
      </trkpt>
      <trkpt lat="27.763488" lon="86.719328">
        <ele>2732.4</ele>
        <time>2022-10-19T08:55:45.000Z</time>
      </trkpt>
      <trkpt lat="27.763494" lon="86.719347">
        <ele>2733</ele>
        <time>2022-10-19T08:55:50.000Z</time>
      </trkpt>
      <trkpt lat="27.763514" lon="86.719354">
        <ele>2733</ele>
        <time>2022-10-19T08:55:53.000Z</time>
      </trkpt>
      <trkpt lat="27.763517" lon="86.719392">
        <ele>2733.4</ele>
        <time>2022-10-19T08:55:56.000Z</time>
      </trkpt>
      <trkpt lat="27.763504" lon="86.719411">
        <ele>2733.4</ele>
        <time>2022-10-19T08:55:58.000Z</time>
      </trkpt>
      <trkpt lat="27.76352" lon="86.71943">
        <ele>2733.4</ele>
        <time>2022-10-19T08:56:00.000Z</time>
      </trkpt>
      <trkpt lat="27.763539" lon="86.719443">
        <ele>2733.4</ele>
        <time>2022-10-19T08:56:02.000Z</time>
      </trkpt>
      <trkpt lat="27.763558" lon="86.71945">
        <ele>2733.6</ele>
        <time>2022-10-19T08:56:04.000Z</time>
      </trkpt>
      <trkpt lat="27.763568" lon="86.719469">
        <ele>2734</ele>
        <time>2022-10-19T08:56:06.000Z</time>
      </trkpt>
      <trkpt lat="27.763581" lon="86.719488">
        <ele>2734.2</ele>
        <time>2022-10-19T08:56:10.000Z</time>
      </trkpt>
      <trkpt lat="27.763594" lon="86.719507">
        <ele>2734.4</ele>
        <time>2022-10-19T08:56:12.000Z</time>
      </trkpt>
      <trkpt lat="27.763606" lon="86.719526">
        <ele>2734.4</ele>
        <time>2022-10-19T08:56:14.000Z</time>
      </trkpt>
      <trkpt lat="27.763613" lon="86.719546">
        <ele>2734</ele>
        <time>2022-10-19T08:56:15.000Z</time>
      </trkpt>
      <trkpt lat="27.763622" lon="86.719565">
        <ele>2734.2</ele>
        <time>2022-10-19T08:56:17.000Z</time>
      </trkpt>
      <trkpt lat="27.763638" lon="86.719584">
        <ele>2734.2</ele>
        <time>2022-10-19T08:56:19.000Z</time>
      </trkpt>
      <trkpt lat="27.763664" lon="86.719597">
        <ele>2734.2</ele>
        <time>2022-10-19T08:56:21.000Z</time>
      </trkpt>
      <trkpt lat="27.76368" lon="86.719629">
        <ele>2734.4</ele>
        <time>2022-10-19T08:56:24.000Z</time>
      </trkpt>
      <trkpt lat="27.763693" lon="86.719661">
        <ele>2735.2</ele>
        <time>2022-10-19T08:56:27.000Z</time>
      </trkpt>
      <trkpt lat="27.763715" lon="86.719674">
        <ele>2735.2</ele>
        <time>2022-10-19T08:56:30.000Z</time>
      </trkpt>
      <trkpt lat="27.763731" lon="86.719706">
        <ele>2735.2</ele>
        <time>2022-10-19T08:56:32.000Z</time>
      </trkpt>
      <trkpt lat="27.763744" lon="86.719725">
        <ele>2735.4</ele>
        <time>2022-10-19T08:56:34.000Z</time>
      </trkpt>
      <trkpt lat="27.763744" lon="86.71975">
        <ele>2735.4</ele>
        <time>2022-10-19T08:56:36.000Z</time>
      </trkpt>
      <trkpt lat="27.76375" lon="86.71977">
        <ele>2735.2</ele>
        <time>2022-10-19T08:56:38.000Z</time>
      </trkpt>
      <trkpt lat="27.763766" lon="86.719795">
        <ele>2735.4</ele>
        <time>2022-10-19T08:56:40.000Z</time>
      </trkpt>
      <trkpt lat="27.763786" lon="86.719808">
        <ele>2735.8</ele>
        <time>2022-10-19T08:56:43.000Z</time>
      </trkpt>
      <trkpt lat="27.763795" lon="86.719827">
        <ele>2735.6</ele>
        <time>2022-10-19T08:56:45.000Z</time>
      </trkpt>
      <trkpt lat="27.763818" lon="86.719846">
        <ele>2735.8</ele>
        <time>2022-10-19T08:56:48.000Z</time>
      </trkpt>
      <trkpt lat="27.763824" lon="86.719866">
        <ele>2736.2</ele>
        <time>2022-10-19T08:56:50.000Z</time>
      </trkpt>
      <trkpt lat="27.763837" lon="86.719904">
        <ele>2736.4</ele>
        <time>2022-10-19T08:56:53.000Z</time>
      </trkpt>
      <trkpt lat="27.76385" lon="86.719923">
        <ele>2736.6</ele>
        <time>2022-10-19T08:56:56.000Z</time>
      </trkpt>
      <trkpt lat="27.763869" lon="86.719942">
        <ele>2736.6</ele>
        <time>2022-10-19T08:56:58.000Z</time>
      </trkpt>
      <trkpt lat="27.763888" lon="86.719955">
        <ele>2736.6</ele>
        <time>2022-10-19T08:57:00.000Z</time>
      </trkpt>
      <trkpt lat="27.763904" lon="86.719968">
        <ele>2736.6</ele>
        <time>2022-10-19T08:57:02.000Z</time>
      </trkpt>
      <trkpt lat="27.763907" lon="86.719994">
        <ele>2736.6</ele>
        <time>2022-10-19T08:57:04.000Z</time>
      </trkpt>
      <trkpt lat="27.763926" lon="86.719994">
        <ele>2736.8</ele>
        <time>2022-10-19T08:57:07.000Z</time>
      </trkpt>
      <trkpt lat="27.763949" lon="86.719994">
        <ele>2736.8</ele>
        <time>2022-10-19T08:57:10.000Z</time>
      </trkpt>
      <trkpt lat="27.763968" lon="86.719994">
        <ele>2737</ele>
        <time>2022-10-19T08:57:14.000Z</time>
      </trkpt>
      <trkpt lat="27.763987" lon="86.719994">
        <ele>2737</ele>
        <time>2022-10-19T08:57:17.000Z</time>
      </trkpt>
      <trkpt lat="27.76401" lon="86.719994">
        <ele>2737.6</ele>
        <time>2022-10-19T08:57:20.000Z</time>
      </trkpt>
      <trkpt lat="27.764029" lon="86.719994">
        <ele>2737.6</ele>
        <time>2022-10-19T08:57:22.000Z</time>
      </trkpt>
      <trkpt lat="27.764054" lon="86.719987">
        <ele>2738</ele>
        <time>2022-10-19T08:57:25.000Z</time>
      </trkpt>
      <trkpt lat="27.764077" lon="86.719987">
        <ele>2738.2</ele>
        <time>2022-10-19T08:57:31.000Z</time>
      </trkpt>
      <trkpt lat="27.764102" lon="86.719987">
        <ele>2738.4</ele>
        <time>2022-10-19T08:57:34.000Z</time>
      </trkpt>
      <trkpt lat="27.764125" lon="86.719994">
        <ele>2738.4</ele>
        <time>2022-10-19T08:57:37.000Z</time>
      </trkpt>
      <trkpt lat="27.764144" lon="86.72">
        <ele>2738.6</ele>
        <time>2022-10-19T08:57:41.000Z</time>
      </trkpt>
      <trkpt lat="27.764163" lon="86.719994">
        <ele>2738.8</ele>
        <time>2022-10-19T08:57:46.000Z</time>
      </trkpt>
      <trkpt lat="27.764182" lon="86.719987">
        <ele>2739.4</ele>
        <time>2022-10-19T08:57:50.000Z</time>
      </trkpt>
      <trkpt lat="27.764205" lon="86.719987">
        <ele>2739.8</ele>
        <time>2022-10-19T08:57:53.000Z</time>
      </trkpt>
      <trkpt lat="27.764214" lon="86.720006">
        <ele>2740.6</ele>
        <time>2022-10-19T08:57:56.000Z</time>
      </trkpt>
      <trkpt lat="27.764221" lon="86.720032">
        <ele>2741</ele>
        <time>2022-10-19T08:57:58.000Z</time>
      </trkpt>
      <trkpt lat="27.764218" lon="86.720058">
        <ele>2741.2</ele>
        <time>2022-10-19T08:58:01.000Z</time>
      </trkpt>
      <trkpt lat="27.764202" lon="86.720077">
        <ele>2741</ele>
        <time>2022-10-19T08:59:19.000Z</time>
      </trkpt>
      <trkpt lat="27.764195" lon="86.720109">
        <ele>2740.6</ele>
        <time>2022-10-19T08:59:21.000Z</time>
      </trkpt>
      <trkpt lat="27.764192" lon="86.720147">
        <ele>2740</ele>
        <time>2022-10-19T08:59:23.000Z</time>
      </trkpt>
      <trkpt lat="27.764186" lon="86.720166">
        <ele>2740</ele>
        <time>2022-10-19T08:59:24.000Z</time>
      </trkpt>
      <trkpt lat="27.764182" lon="86.720198">
        <ele>2739.6</ele>
        <time>2022-10-19T08:59:26.000Z</time>
      </trkpt>
      <trkpt lat="27.764182" lon="86.720224">
        <ele>2739.2</ele>
        <time>2022-10-19T08:59:27.000Z</time>
      </trkpt>
      <trkpt lat="27.764179" lon="86.720256">
        <ele>2739.4</ele>
        <time>2022-10-19T08:59:31.000Z</time>
      </trkpt>
      <trkpt lat="27.764182" lon="86.720282">
        <ele>2738.6</ele>
        <time>2022-10-19T08:59:34.000Z</time>
      </trkpt>
      <trkpt lat="27.764182" lon="86.720307">
        <ele>2738.6</ele>
        <time>2022-10-19T08:59:36.000Z</time>
      </trkpt>
      <trkpt lat="27.764182" lon="86.720339">
        <ele>2738.6</ele>
        <time>2022-10-19T08:59:40.000Z</time>
      </trkpt>
      <trkpt lat="27.764176" lon="86.720358">
        <ele>2738.2</ele>
        <time>2022-10-19T08:59:42.000Z</time>
      </trkpt>
      <trkpt lat="27.764173" lon="86.720384">
        <ele>2738</ele>
        <time>2022-10-19T08:59:45.000Z</time>
      </trkpt>
      <trkpt lat="27.764176" lon="86.720416">
        <ele>2737</ele>
        <time>2022-10-19T08:59:51.000Z</time>
      </trkpt>
      <trkpt lat="27.764173" lon="86.720442">
        <ele>2736.8</ele>
        <time>2022-10-19T09:00:28.000Z</time>
      </trkpt>
      <trkpt lat="27.764173" lon="86.720467">
        <ele>2736.6</ele>
        <time>2022-10-19T09:00:30.000Z</time>
      </trkpt>
      <trkpt lat="27.76417" lon="86.720499">
        <ele>2736.6</ele>
        <time>2022-10-19T09:00:32.000Z</time>
      </trkpt>
      <trkpt lat="27.764173" lon="86.720525">
        <ele>2736.4</ele>
        <time>2022-10-19T09:00:34.000Z</time>
      </trkpt>
      <trkpt lat="27.764166" lon="86.72055">
        <ele>2735.8</ele>
        <time>2022-10-19T09:00:36.000Z</time>
      </trkpt>
      <trkpt lat="27.764157" lon="86.720576">
        <ele>2735.6</ele>
        <time>2022-10-19T09:00:37.000Z</time>
      </trkpt>
      <trkpt lat="27.764144" lon="86.720595">
        <ele>2735</ele>
        <time>2022-10-19T09:00:48.000Z</time>
      </trkpt>
      <trkpt lat="27.764147" lon="86.720621">
        <ele>2735</ele>
        <time>2022-10-19T09:00:50.000Z</time>
      </trkpt>
      <trkpt lat="27.764147" lon="86.720653">
        <ele>2735</ele>
        <time>2022-10-19T09:00:55.000Z</time>
      </trkpt>
      <trkpt lat="27.764144" lon="86.720678">
        <ele>2734.4</ele>
        <time>2022-10-19T09:00:58.000Z</time>
      </trkpt>
      <trkpt lat="27.764147" lon="86.720704">
        <ele>2734.2</ele>
        <time>2022-10-19T09:01:00.000Z</time>
      </trkpt>
      <trkpt lat="27.764144" lon="86.720742">
        <ele>2734.4</ele>
        <time>2022-10-19T09:01:04.000Z</time>
      </trkpt>
      <trkpt lat="27.764131" lon="86.720774">
        <ele>2734.2</ele>
        <time>2022-10-19T09:01:07.000Z</time>
      </trkpt>
      <trkpt lat="27.764131" lon="86.7208">
        <ele>2734.2</ele>
        <time>2022-10-19T09:01:09.000Z</time>
      </trkpt>
      <trkpt lat="27.764131" lon="86.720826">
        <ele>2734</ele>
        <time>2022-10-19T09:01:11.000Z</time>
      </trkpt>
      <trkpt lat="27.764122" lon="86.720851">
        <ele>2734.2</ele>
        <time>2022-10-19T09:01:14.000Z</time>
      </trkpt>
      <trkpt lat="27.764115" lon="86.720883">
        <ele>2734.2</ele>
        <time>2022-10-19T09:01:17.000Z</time>
      </trkpt>
      <trkpt lat="27.764112" lon="86.720909">
        <ele>2733.8</ele>
        <time>2022-10-19T09:01:19.000Z</time>
      </trkpt>
      <trkpt lat="27.764112" lon="86.720934">
        <ele>2734</ele>
        <time>2022-10-19T09:01:21.000Z</time>
      </trkpt>
      <trkpt lat="27.764106" lon="86.720973">
        <ele>2734</ele>
        <time>2022-10-19T09:01:24.000Z</time>
      </trkpt>
      <trkpt lat="27.764099" lon="86.720998">
        <ele>2734</ele>
        <time>2022-10-19T09:01:27.000Z</time>
      </trkpt>
      <trkpt lat="27.764102" lon="86.721024">
        <ele>2734</ele>
        <time>2022-10-19T09:01:29.000Z</time>
      </trkpt>
      <trkpt lat="27.764096" lon="86.72105">
        <ele>2734.2</ele>
        <time>2022-10-19T09:01:31.000Z</time>
      </trkpt>
      <trkpt lat="27.76409" lon="86.721075">
        <ele>2734.2</ele>
        <time>2022-10-19T09:01:34.000Z</time>
      </trkpt>
      <trkpt lat="27.764086" lon="86.721101">
        <ele>2734.2</ele>
        <time>2022-10-19T09:01:36.000Z</time>
      </trkpt>
      <trkpt lat="27.764077" lon="86.72112">
        <ele>2734.4</ele>
        <time>2022-10-19T09:01:38.000Z</time>
      </trkpt>
      <trkpt lat="27.764067" lon="86.721146">
        <ele>2734.6</ele>
        <time>2022-10-19T09:01:40.000Z</time>
      </trkpt>
      <trkpt lat="27.764061" lon="86.721178">
        <ele>2734.8</ele>
        <time>2022-10-19T09:01:42.000Z</time>
      </trkpt>
      <trkpt lat="27.764061" lon="86.72121">
        <ele>2734.8</ele>
        <time>2022-10-19T09:01:45.000Z</time>
      </trkpt>
      <trkpt lat="27.764067" lon="86.721229">
        <ele>2735</ele>
        <time>2022-10-19T09:01:48.000Z</time>
      </trkpt>
      <trkpt lat="27.764074" lon="86.721248">
        <ele>2735</ele>
        <time>2022-10-19T09:01:50.000Z</time>
      </trkpt>
      <trkpt lat="27.764074" lon="86.721274">
        <ele>2735.2</ele>
        <time>2022-10-19T09:01:55.000Z</time>
      </trkpt>
      <trkpt lat="27.764045" lon="86.721306">
        <ele>2735.6</ele>
        <time>2022-10-19T09:01:57.000Z</time>
      </trkpt>
      <trkpt lat="27.764032" lon="86.721338">
        <ele>2736</ele>
        <time>2022-10-19T09:01:59.000Z</time>
      </trkpt>
      <trkpt lat="27.764032" lon="86.72137">
        <ele>2736.2</ele>
        <time>2022-10-19T09:02:01.000Z</time>
      </trkpt>
      <trkpt lat="27.764016" lon="86.721382">
        <ele>2736.4</ele>
        <time>2022-10-19T09:02:03.000Z</time>
      </trkpt>
      <trkpt lat="27.764013" lon="86.721408">
        <ele>2736.6</ele>
        <time>2022-10-19T09:02:07.000Z</time>
      </trkpt>
      <trkpt lat="27.764032" lon="86.721427">
        <ele>2736.8</ele>
        <time>2022-10-19T09:02:10.000Z</time>
      </trkpt>
      <trkpt lat="27.764038" lon="86.721459">
        <ele>2737.2</ele>
        <time>2022-10-19T09:02:14.000Z</time>
      </trkpt>
      <trkpt lat="27.764038" lon="86.721491">
        <ele>2737.4</ele>
        <time>2022-10-19T09:02:17.000Z</time>
      </trkpt>
      <trkpt lat="27.764035" lon="86.721517">
        <ele>2737.8</ele>
        <time>2022-10-19T09:02:21.000Z</time>
      </trkpt>
      <trkpt lat="27.764022" lon="86.721498">
        <ele>2738.4</ele>
        <time>2022-10-19T09:02:26.000Z</time>
      </trkpt>
      <trkpt lat="27.764032" lon="86.721472">
        <ele>2738.6</ele>
        <time>2022-10-19T09:02:29.000Z</time>
      </trkpt>
      <trkpt lat="27.764035" lon="86.72151">
        <ele>2738.6</ele>
        <time>2022-10-19T09:02:31.000Z</time>
      </trkpt>
      <trkpt lat="27.764042" lon="86.721536">
        <ele>2738.4</ele>
        <time>2022-10-19T09:02:38.000Z</time>
      </trkpt>
      <trkpt lat="27.764061" lon="86.721555">
        <ele>2738.4</ele>
        <time>2022-10-19T09:02:52.000Z</time>
      </trkpt>
      <trkpt lat="27.764074" lon="86.721574">
        <ele>2738.6</ele>
        <time>2022-10-19T09:02:54.000Z</time>
      </trkpt>
      <trkpt lat="27.764083" lon="86.721594">
        <ele>2738.8</ele>
        <time>2022-10-19T09:02:57.000Z</time>
      </trkpt>
      <trkpt lat="27.764064" lon="86.721606">
        <ele>2739.4</ele>
        <time>2022-10-19T09:02:59.000Z</time>
      </trkpt>
      <trkpt lat="27.764074" lon="86.721626">
        <ele>2740.6</ele>
        <time>2022-10-19T09:03:04.000Z</time>
      </trkpt>
      <trkpt lat="27.76409" lon="86.721651">
        <ele>2740.8</ele>
        <time>2022-10-19T09:03:07.000Z</time>
      </trkpt>
      <trkpt lat="27.764096" lon="86.721677">
        <ele>2741.4</ele>
        <time>2022-10-19T09:03:14.000Z</time>
      </trkpt>
      <trkpt lat="27.764102" lon="86.721696">
        <ele>2741.8</ele>
        <time>2022-10-19T09:03:16.000Z</time>
      </trkpt>
      <trkpt lat="27.764109" lon="86.721715">
        <ele>2741.4</ele>
        <time>2022-10-19T09:03:20.000Z</time>
      </trkpt>
      <trkpt lat="27.764115" lon="86.721734">
        <ele>2742</ele>
        <time>2022-10-19T09:03:23.000Z</time>
      </trkpt>
      <trkpt lat="27.764122" lon="86.721754">
        <ele>2743.4</ele>
        <time>2022-10-19T09:03:28.000Z</time>
      </trkpt>
      <trkpt lat="27.764122" lon="86.721779">
        <ele>2744.8</ele>
        <time>2022-10-19T09:03:33.000Z</time>
      </trkpt>
      <trkpt lat="27.764131" lon="86.721805">
        <ele>2745.8</ele>
        <time>2022-10-19T09:03:38.000Z</time>
      </trkpt>
      <trkpt lat="27.764144" lon="86.721824">
        <ele>2746.2</ele>
        <time>2022-10-19T09:03:40.000Z</time>
      </trkpt>
      <trkpt lat="27.764163" lon="86.72183">
        <ele>2746.4</ele>
        <time>2022-10-19T09:03:42.000Z</time>
      </trkpt>
      <trkpt lat="27.764179" lon="86.721856">
        <ele>2746.4</ele>
        <time>2022-10-19T09:03:44.000Z</time>
      </trkpt>
      <trkpt lat="27.764189" lon="86.721875">
        <ele>2746.6</ele>
        <time>2022-10-19T09:03:47.000Z</time>
      </trkpt>
      <trkpt lat="27.764192" lon="86.721901">
        <ele>2747.2</ele>
        <time>2022-10-19T09:03:51.000Z</time>
      </trkpt>
      <trkpt lat="27.764218" lon="86.721907">
        <ele>2747.6</ele>
        <time>2022-10-19T09:03:54.000Z</time>
      </trkpt>
      <trkpt lat="27.764243" lon="86.721914">
        <ele>2746.8</ele>
        <time>2022-10-19T09:03:57.000Z</time>
      </trkpt>
      <trkpt lat="27.764262" lon="86.721926">
        <ele>2746.6</ele>
        <time>2022-10-19T09:04:00.000Z</time>
      </trkpt>
      <trkpt lat="27.764285" lon="86.721939">
        <ele>2746.4</ele>
        <time>2022-10-19T09:04:07.000Z</time>
      </trkpt>
      <trkpt lat="27.764291" lon="86.721965">
        <ele>2745.8</ele>
        <time>2022-10-19T09:06:52.000Z</time>
      </trkpt>
      <trkpt lat="27.764314" lon="86.721965">
        <ele>2745.6</ele>
        <time>2022-10-19T09:06:54.000Z</time>
      </trkpt>
      <trkpt lat="27.764336" lon="86.721971">
        <ele>2745.8</ele>
        <time>2022-10-19T09:06:56.000Z</time>
      </trkpt>
      <trkpt lat="27.764362" lon="86.721984">
        <ele>2745.8</ele>
        <time>2022-10-19T09:06:58.000Z</time>
      </trkpt>
      <trkpt lat="27.764384" lon="86.722003">
        <ele>2746</ele>
        <time>2022-10-19T09:07:00.000Z</time>
      </trkpt>
      <trkpt lat="27.764403" lon="86.722022">
        <ele>2746</ele>
        <time>2022-10-19T09:07:02.000Z</time>
      </trkpt>
      <trkpt lat="27.764419" lon="86.722035">
        <ele>2746</ele>
        <time>2022-10-19T09:07:04.000Z</time>
      </trkpt>
      <trkpt lat="27.764442" lon="86.722048">
        <ele>2746.2</ele>
        <time>2022-10-19T09:07:07.000Z</time>
      </trkpt>
      <trkpt lat="27.764461" lon="86.722048">
        <ele>2746.2</ele>
        <time>2022-10-19T09:07:09.000Z</time>
      </trkpt>
      <trkpt lat="27.76448" lon="86.722054">
        <ele>2746.4</ele>
        <time>2022-10-19T09:07:11.000Z</time>
      </trkpt>
      <trkpt lat="27.764496" lon="86.722074">
        <ele>2747.2</ele>
        <time>2022-10-19T09:07:14.000Z</time>
      </trkpt>
      <trkpt lat="27.764506" lon="86.722093">
        <ele>2747.2</ele>
        <time>2022-10-19T09:07:15.000Z</time>
      </trkpt>
      <trkpt lat="27.764512" lon="86.722112">
        <ele>2747.6</ele>
        <time>2022-10-19T09:07:17.000Z</time>
      </trkpt>
      <trkpt lat="27.764506" lon="86.722131">
        <ele>2747.8</ele>
        <time>2022-10-19T09:07:19.000Z</time>
      </trkpt>
      <trkpt lat="27.764515" lon="86.72215">
        <ele>2748.6</ele>
        <time>2022-10-19T09:07:24.000Z</time>
      </trkpt>
      <trkpt lat="27.764531" lon="86.72217">
        <ele>2749</ele>
        <time>2022-10-19T09:07:29.000Z</time>
      </trkpt>
      <trkpt lat="27.764554" lon="86.722176">
        <ele>2750</ele>
        <time>2022-10-19T09:07:36.000Z</time>
      </trkpt>
      <trkpt lat="27.764573" lon="86.722202">
        <ele>2750</ele>
        <time>2022-10-19T09:07:40.000Z</time>
      </trkpt>
      <trkpt lat="27.764579" lon="86.722227">
        <ele>2750.2</ele>
        <time>2022-10-19T09:07:43.000Z</time>
      </trkpt>
      <trkpt lat="27.764589" lon="86.722246">
        <ele>2750.6</ele>
        <time>2022-10-19T09:07:45.000Z</time>
      </trkpt>
      <trkpt lat="27.764605" lon="86.722266">
        <ele>2750.6</ele>
        <time>2022-10-19T09:07:48.000Z</time>
      </trkpt>
      <trkpt lat="27.764621" lon="86.722285">
        <ele>2752.2</ele>
        <time>2022-10-19T09:08:21.000Z</time>
      </trkpt>
      <trkpt lat="27.76464" lon="86.722304">
        <ele>2752</ele>
        <time>2022-10-19T09:08:23.000Z</time>
      </trkpt>
      <trkpt lat="27.764669" lon="86.72233">
        <ele>2752.2</ele>
        <time>2022-10-19T09:08:25.000Z</time>
      </trkpt>
      <trkpt lat="27.764691" lon="86.722362">
        <ele>2752.6</ele>
        <time>2022-10-19T09:08:27.000Z</time>
      </trkpt>
      <trkpt lat="27.764707" lon="86.722374">
        <ele>2752.6</ele>
        <time>2022-10-19T09:08:29.000Z</time>
      </trkpt>
      <trkpt lat="27.76473" lon="86.722387">
        <ele>2753.6</ele>
        <time>2022-10-19T09:08:32.000Z</time>
      </trkpt>
      <trkpt lat="27.764742" lon="86.722406">
        <ele>2753.6</ele>
        <time>2022-10-19T09:08:34.000Z</time>
      </trkpt>
      <trkpt lat="27.764768" lon="86.722419">
        <ele>2754</ele>
        <time>2022-10-19T09:08:37.000Z</time>
      </trkpt>
      <trkpt lat="27.764787" lon="86.722426">
        <ele>2754</ele>
        <time>2022-10-19T09:08:39.000Z</time>
      </trkpt>
      <trkpt lat="27.764806" lon="86.722432">
        <ele>2753.8</ele>
        <time>2022-10-19T09:08:41.000Z</time>
      </trkpt>
      <trkpt lat="27.764822" lon="86.722445">
        <ele>2753.8</ele>
        <time>2022-10-19T09:08:43.000Z</time>
      </trkpt>
      <trkpt lat="27.764848" lon="86.722451">
        <ele>2753.6</ele>
        <time>2022-10-19T09:08:46.000Z</time>
      </trkpt>
      <trkpt lat="27.764867" lon="86.722458">
        <ele>2753.8</ele>
        <time>2022-10-19T09:08:48.000Z</time>
      </trkpt>
      <trkpt lat="27.76489" lon="86.72247">
        <ele>2753.6</ele>
        <time>2022-10-19T09:08:50.000Z</time>
      </trkpt>
      <trkpt lat="27.764909" lon="86.722483">
        <ele>2753.6</ele>
        <time>2022-10-19T09:08:52.000Z</time>
      </trkpt>
      <trkpt lat="27.764928" lon="86.72249">
        <ele>2753.8</ele>
        <time>2022-10-19T09:08:54.000Z</time>
      </trkpt>
      <trkpt lat="27.76495" lon="86.722496">
        <ele>2754</ele>
        <time>2022-10-19T09:08:57.000Z</time>
      </trkpt>
      <trkpt lat="27.76497" lon="86.722502">
        <ele>2754.2</ele>
        <time>2022-10-19T09:09:00.000Z</time>
      </trkpt>
      <trkpt lat="27.764995" lon="86.722509">
        <ele>2754.6</ele>
        <time>2022-10-19T09:09:03.000Z</time>
      </trkpt>
      <trkpt lat="27.765011" lon="86.722522">
        <ele>2754.4</ele>
        <time>2022-10-19T09:09:05.000Z</time>
      </trkpt>
      <trkpt lat="27.76503" lon="86.722534">
        <ele>2754.8</ele>
        <time>2022-10-19T09:09:10.000Z</time>
      </trkpt>
      <trkpt lat="27.76505" lon="86.722547">
        <ele>2755</ele>
        <time>2022-10-19T09:09:13.000Z</time>
      </trkpt>
      <trkpt lat="27.765056" lon="86.722566">
        <ele>2755.4</ele>
        <time>2022-10-19T09:09:16.000Z</time>
      </trkpt>
      <trkpt lat="27.765066" lon="86.722586">
        <ele>2755.6</ele>
        <time>2022-10-19T09:09:19.000Z</time>
      </trkpt>
      <trkpt lat="27.765075" lon="86.722605">
        <ele>2756.4</ele>
        <time>2022-10-19T09:09:21.000Z</time>
      </trkpt>
      <trkpt lat="27.765082" lon="86.722624">
        <ele>2757</ele>
        <time>2022-10-19T09:09:24.000Z</time>
      </trkpt>
      <trkpt lat="27.765088" lon="86.722643">
        <ele>2757.4</ele>
        <time>2022-10-19T09:09:26.000Z</time>
      </trkpt>
      <trkpt lat="27.765114" lon="86.72265">
        <ele>2758.2</ele>
        <time>2022-10-19T09:09:31.000Z</time>
      </trkpt>
      <trkpt lat="27.765139" lon="86.722662">
        <ele>2758.2</ele>
        <time>2022-10-19T09:09:35.000Z</time>
      </trkpt>
      <trkpt lat="27.765158" lon="86.722682">
        <ele>2758.2</ele>
        <time>2022-10-19T09:09:38.000Z</time>
      </trkpt>
      <trkpt lat="27.765184" lon="86.722688">
        <ele>2759.4</ele>
        <time>2022-10-19T09:09:42.000Z</time>
      </trkpt>
      <trkpt lat="27.765206" lon="86.722694">
        <ele>2759.8</ele>
        <time>2022-10-19T09:09:45.000Z</time>
      </trkpt>
      <trkpt lat="27.765222" lon="86.722707">
        <ele>2760</ele>
        <time>2022-10-19T09:09:48.000Z</time>
      </trkpt>
      <trkpt lat="27.765245" lon="86.722726">
        <ele>2760.8</ele>
        <time>2022-10-19T09:09:51.000Z</time>
      </trkpt>
      <trkpt lat="27.765264" lon="86.722726">
        <ele>2761</ele>
        <time>2022-10-19T09:09:53.000Z</time>
      </trkpt>
      <trkpt lat="27.76528" lon="86.722739">
        <ele>2761</ele>
        <time>2022-10-19T09:09:55.000Z</time>
      </trkpt>
      <trkpt lat="27.765293" lon="86.722758">
        <ele>2761.2</ele>
        <time>2022-10-19T09:09:57.000Z</time>
      </trkpt>
      <trkpt lat="27.765315" lon="86.722758">
        <ele>2761.6</ele>
        <time>2022-10-19T09:10:00.000Z</time>
      </trkpt>
      <trkpt lat="27.765338" lon="86.722765">
        <ele>2762.4</ele>
        <time>2022-10-19T09:10:04.000Z</time>
      </trkpt>
      <trkpt lat="27.765363" lon="86.722771">
        <ele>2763</ele>
        <time>2022-10-19T09:10:07.000Z</time>
      </trkpt>
      <trkpt lat="27.765382" lon="86.722778">
        <ele>2763.2</ele>
        <time>2022-10-19T09:10:09.000Z</time>
      </trkpt>
      <trkpt lat="27.765405" lon="86.72279">
        <ele>2763.6</ele>
        <time>2022-10-19T09:10:13.000Z</time>
      </trkpt>
      <trkpt lat="27.765414" lon="86.72281">
        <ele>2763.6</ele>
        <time>2022-10-19T09:10:15.000Z</time>
      </trkpt>
      <trkpt lat="27.76543" lon="86.722829">
        <ele>2764</ele>
        <time>2022-10-19T09:10:18.000Z</time>
      </trkpt>
      <trkpt lat="27.765443" lon="86.722848">
        <ele>2764.2</ele>
        <time>2022-10-19T09:10:20.000Z</time>
      </trkpt>
      <trkpt lat="27.76545" lon="86.722867">
        <ele>2764.6</ele>
        <time>2022-10-19T09:10:23.000Z</time>
      </trkpt>
      <trkpt lat="27.765446" lon="86.722899">
        <ele>2764.4</ele>
        <time>2022-10-19T09:10:26.000Z</time>
      </trkpt>
      <trkpt lat="27.765446" lon="86.722931">
        <ele>2763.6</ele>
        <time>2022-10-19T09:10:29.000Z</time>
      </trkpt>
      <trkpt lat="27.76545" lon="86.722963">
        <ele>2763.2</ele>
        <time>2022-10-19T09:10:32.000Z</time>
      </trkpt>
      <trkpt lat="27.765472" lon="86.722976">
        <ele>2762.8</ele>
        <time>2022-10-19T09:10:35.000Z</time>
      </trkpt>
      <trkpt lat="27.765491" lon="86.722989">
        <ele>2762.4</ele>
        <time>2022-10-19T09:10:37.000Z</time>
      </trkpt>
      <trkpt lat="27.765507" lon="86.723008">
        <ele>2762.2</ele>
        <time>2022-10-19T09:10:39.000Z</time>
      </trkpt>
      <trkpt lat="27.765526" lon="86.723008">
        <ele>2762.2</ele>
        <time>2022-10-19T09:10:42.000Z</time>
      </trkpt>
      <trkpt lat="27.765546" lon="86.722989">
        <ele>2762.2</ele>
        <time>2022-10-19T09:10:45.000Z</time>
      </trkpt>
      <trkpt lat="27.765552" lon="86.722957">
        <ele>2761.8</ele>
        <time>2022-10-19T09:10:48.000Z</time>
      </trkpt>
      <trkpt lat="27.765562" lon="86.722925">
        <ele>2760.6</ele>
        <time>2022-10-19T09:10:50.000Z</time>
      </trkpt>
      <trkpt lat="27.765581" lon="86.722918">
        <ele>2760.4</ele>
        <time>2022-10-19T09:10:52.000Z</time>
      </trkpt>
      <trkpt lat="27.76561" lon="86.722906">
        <ele>2760.6</ele>
        <time>2022-10-19T09:10:54.000Z</time>
      </trkpt>
      <trkpt lat="27.765635" lon="86.722899">
        <ele>2760.6</ele>
        <time>2022-10-19T09:10:56.000Z</time>
      </trkpt>
      <trkpt lat="27.765667" lon="86.722899">
        <ele>2760.4</ele>
        <time>2022-10-19T09:10:58.000Z</time>
      </trkpt>
      <trkpt lat="27.765686" lon="86.722918">
        <ele>2760</ele>
        <time>2022-10-19T09:11:00.000Z</time>
      </trkpt>
      <trkpt lat="27.765696" lon="86.722944">
        <ele>2760</ele>
        <time>2022-10-19T09:11:02.000Z</time>
      </trkpt>
      <trkpt lat="27.765712" lon="86.72297">
        <ele>2760.2</ele>
        <time>2022-10-19T09:11:04.000Z</time>
      </trkpt>
      <trkpt lat="27.765722" lon="86.722989">
        <ele>2760.2</ele>
        <time>2022-10-19T09:11:05.000Z</time>
      </trkpt>
      <trkpt lat="27.765731" lon="86.723021">
        <ele>2760.2</ele>
        <time>2022-10-19T09:11:07.000Z</time>
      </trkpt>
      <trkpt lat="27.765744" lon="86.723046">
        <ele>2760.2</ele>
        <time>2022-10-19T09:11:09.000Z</time>
      </trkpt>
      <trkpt lat="27.765763" lon="86.723059">
        <ele>2760</ele>
        <time>2022-10-19T09:11:11.000Z</time>
      </trkpt>
      <trkpt lat="27.765786" lon="86.723066">
        <ele>2760</ele>
        <time>2022-10-19T09:11:13.000Z</time>
      </trkpt>
      <trkpt lat="27.765802" lon="86.723078">
        <ele>2760</ele>
        <time>2022-10-19T09:11:14.000Z</time>
      </trkpt>
      <trkpt lat="27.76584" lon="86.723085">
        <ele>2759.6</ele>
        <time>2022-10-19T09:11:16.000Z</time>
      </trkpt>
      <trkpt lat="27.765859" lon="86.723085">
        <ele>2759.6</ele>
        <time>2022-10-19T09:11:17.000Z</time>
      </trkpt>
      <trkpt lat="27.765888" lon="86.723091">
        <ele>2759.6</ele>
        <time>2022-10-19T09:11:19.000Z</time>
      </trkpt>
      <trkpt lat="27.765914" lon="86.723098">
        <ele>2759.2</ele>
        <time>2022-10-19T09:11:21.000Z</time>
      </trkpt>
      <trkpt lat="27.765939" lon="86.723104">
        <ele>2759</ele>
        <time>2022-10-19T09:11:23.000Z</time>
      </trkpt>
      <trkpt lat="27.765949" lon="86.723123">
        <ele>2759</ele>
        <time>2022-10-19T09:11:24.000Z</time>
      </trkpt>
      <trkpt lat="27.765958" lon="86.723142">
        <ele>2759</ele>
        <time>2022-10-19T09:11:26.000Z</time>
      </trkpt>
      <trkpt lat="27.765968" lon="86.723162">
        <ele>2759.2</ele>
        <time>2022-10-19T09:11:27.000Z</time>
      </trkpt>
      <trkpt lat="27.765984" lon="86.723187">
        <ele>2759.2</ele>
        <time>2022-10-19T09:11:30.000Z</time>
      </trkpt>
      <trkpt lat="27.76599" lon="86.723213">
        <ele>2759.2</ele>
        <time>2022-10-19T09:11:32.000Z</time>
      </trkpt>
      <trkpt lat="27.765984" lon="86.723245">
        <ele>2759.6</ele>
        <time>2022-10-19T09:11:35.000Z</time>
      </trkpt>
      <trkpt lat="27.766003" lon="86.723258">
        <ele>2759.6</ele>
        <time>2022-10-19T09:11:40.000Z</time>
      </trkpt>
      <trkpt lat="27.766029" lon="86.723277">
        <ele>2760.2</ele>
        <time>2022-10-19T09:11:42.000Z</time>
      </trkpt>
      <trkpt lat="27.766048" lon="86.72329">
        <ele>2760.6</ele>
        <time>2022-10-19T09:11:44.000Z</time>
      </trkpt>
      <trkpt lat="27.766058" lon="86.723315">
        <ele>2761.2</ele>
        <time>2022-10-19T09:11:48.000Z</time>
      </trkpt>
      <trkpt lat="27.766074" lon="86.723334">
        <ele>2761.4</ele>
        <time>2022-10-19T09:11:51.000Z</time>
      </trkpt>
      <trkpt lat="27.76608" lon="86.723354">
        <ele>2761.4</ele>
        <time>2022-10-19T09:11:53.000Z</time>
      </trkpt>
      <trkpt lat="27.766102" lon="86.723373">
        <ele>2762.2</ele>
        <time>2022-10-19T09:11:56.000Z</time>
      </trkpt>
      <trkpt lat="27.766118" lon="86.723386">
        <ele>2762</ele>
        <time>2022-10-19T09:11:58.000Z</time>
      </trkpt>
      <trkpt lat="27.766131" lon="86.723405">
        <ele>2763.2</ele>
        <time>2022-10-19T09:12:02.000Z</time>
      </trkpt>
      <trkpt lat="27.766147" lon="86.723418">
        <ele>2763.4</ele>
        <time>2022-10-19T09:12:07.000Z</time>
      </trkpt>
      <trkpt lat="27.76616" lon="86.723437">
        <ele>2763.6</ele>
        <time>2022-10-19T09:12:09.000Z</time>
      </trkpt>
      <trkpt lat="27.766176" lon="86.72345">
        <ele>2763.8</ele>
        <time>2022-10-19T09:12:11.000Z</time>
      </trkpt>
      <trkpt lat="27.766195" lon="86.723475">
        <ele>2764</ele>
        <time>2022-10-19T09:12:14.000Z</time>
      </trkpt>
      <trkpt lat="27.766208" lon="86.723494">
        <ele>2764.4</ele>
        <time>2022-10-19T09:12:17.000Z</time>
      </trkpt>
      <trkpt lat="27.766227" lon="86.723501">
        <ele>2765.4</ele>
        <time>2022-10-19T09:12:22.000Z</time>
      </trkpt>
      <trkpt lat="27.76625" lon="86.723501">
        <ele>2765.8</ele>
        <time>2022-10-19T09:12:24.000Z</time>
      </trkpt>
      <trkpt lat="27.766243" lon="86.723475">
        <ele>2766</ele>
        <time>2022-10-19T09:12:31.000Z</time>
      </trkpt>
      <trkpt lat="27.766211" lon="86.723456">
        <ele>2766.4</ele>
        <time>2022-10-19T09:12:33.000Z</time>
      </trkpt>
      <trkpt lat="27.766198" lon="86.723424">
        <ele>2766.6</ele>
        <time>2022-10-19T09:12:36.000Z</time>
      </trkpt>
      <trkpt lat="27.766202" lon="86.723398">
        <ele>2767.4</ele>
        <time>2022-10-19T09:12:41.000Z</time>
      </trkpt>
      <trkpt lat="27.766208" lon="86.723379">
        <ele>2767.8</ele>
        <time>2022-10-19T09:12:44.000Z</time>
      </trkpt>
      <trkpt lat="27.766221" lon="86.72336">
        <ele>2768.4</ele>
        <time>2022-10-19T09:12:47.000Z</time>
      </trkpt>
      <trkpt lat="27.76624" lon="86.723341">
        <ele>2768.8</ele>
        <time>2022-10-19T09:12:50.000Z</time>
      </trkpt>
      <trkpt lat="27.766259" lon="86.723341">
        <ele>2769</ele>
        <time>2022-10-19T09:12:53.000Z</time>
      </trkpt>
      <trkpt lat="27.766278" lon="86.723341">
        <ele>2769.6</ele>
        <time>2022-10-19T09:12:56.000Z</time>
      </trkpt>
      <trkpt lat="27.766285" lon="86.72336">
        <ele>2770</ele>
        <time>2022-10-19T09:12:59.000Z</time>
      </trkpt>
      <trkpt lat="27.766307" lon="86.72336">
        <ele>2770.6</ele>
        <time>2022-10-19T09:13:04.000Z</time>
      </trkpt>
      <trkpt lat="27.76633" lon="86.72336">
        <ele>2771.2</ele>
        <time>2022-10-19T09:13:07.000Z</time>
      </trkpt>
      <trkpt lat="27.766355" lon="86.72336">
        <ele>2771.2</ele>
        <time>2022-10-19T09:13:10.000Z</time>
      </trkpt>
      <trkpt lat="27.766371" lon="86.723373">
        <ele>2771.4</ele>
        <time>2022-10-19T09:13:13.000Z</time>
      </trkpt>
      <trkpt lat="27.76639" lon="86.723386">
        <ele>2772</ele>
        <time>2022-10-19T09:13:17.000Z</time>
      </trkpt>
      <trkpt lat="27.766416" lon="86.723386">
        <ele>2773</ele>
        <time>2022-10-19T09:13:20.000Z</time>
      </trkpt>
      <trkpt lat="27.766438" lon="86.723398">
        <ele>2773</ele>
        <time>2022-10-19T09:13:22.000Z</time>
      </trkpt>
      <trkpt lat="27.766458" lon="86.723386">
        <ele>2772.8</ele>
        <time>2022-10-19T09:13:24.000Z</time>
      </trkpt>
      <trkpt lat="27.766477" lon="86.723386">
        <ele>2773</ele>
        <time>2022-10-19T09:13:26.000Z</time>
      </trkpt>
      <trkpt lat="27.766493" lon="86.723373">
        <ele>2773</ele>
        <time>2022-10-19T09:13:28.000Z</time>
      </trkpt>
      <trkpt lat="27.766509" lon="86.72336">
        <ele>2773</ele>
        <time>2022-10-19T09:13:30.000Z</time>
      </trkpt>
      <trkpt lat="27.766528" lon="86.72336">
        <ele>2772.6</ele>
        <time>2022-10-19T09:13:32.000Z</time>
      </trkpt>
      <trkpt lat="27.766538" lon="86.723341">
        <ele>2772.6</ele>
        <time>2022-10-19T09:13:33.000Z</time>
      </trkpt>
      <trkpt lat="27.766557" lon="86.723334">
        <ele>2772.6</ele>
        <time>2022-10-19T09:13:35.000Z</time>
      </trkpt>
      <trkpt lat="27.766576" lon="86.723341">
        <ele>2772.8</ele>
        <time>2022-10-19T09:13:37.000Z</time>
      </trkpt>
      <trkpt lat="27.766598" lon="86.723354">
        <ele>2773</ele>
        <time>2022-10-19T09:13:39.000Z</time>
      </trkpt>
      <trkpt lat="27.766618" lon="86.723354">
        <ele>2773.2</ele>
        <time>2022-10-19T09:13:41.000Z</time>
      </trkpt>
      <trkpt lat="27.766634" lon="86.723341">
        <ele>2772.8</ele>
        <time>2022-10-19T09:13:44.000Z</time>
      </trkpt>
      <trkpt lat="27.76665" lon="86.723322">
        <ele>2773</ele>
        <time>2022-10-19T09:13:47.000Z</time>
      </trkpt>
      <trkpt lat="27.766669" lon="86.723315">
        <ele>2772.6</ele>
        <time>2022-10-19T09:13:49.000Z</time>
      </trkpt>
      <trkpt lat="27.766678" lon="86.723296">
        <ele>2772.6</ele>
        <time>2022-10-19T09:13:50.000Z</time>
      </trkpt>
      <trkpt lat="27.766698" lon="86.723283">
        <ele>2772.2</ele>
        <time>2022-10-19T09:13:52.000Z</time>
      </trkpt>
      <trkpt lat="27.766723" lon="86.723264">
        <ele>2771.4</ele>
        <time>2022-10-19T09:13:55.000Z</time>
      </trkpt>
      <trkpt lat="27.766742" lon="86.723264">
        <ele>2771.6</ele>
        <time>2022-10-19T09:13:57.000Z</time>
      </trkpt>
      <trkpt lat="27.766768" lon="86.723258">
        <ele>2771.2</ele>
        <time>2022-10-19T09:13:59.000Z</time>
      </trkpt>
      <trkpt lat="27.766787" lon="86.723251">
        <ele>2771.2</ele>
        <time>2022-10-19T09:14:00.000Z</time>
      </trkpt>
      <trkpt lat="27.766816" lon="86.723251">
        <ele>2771.6</ele>
        <time>2022-10-19T09:14:02.000Z</time>
      </trkpt>
      <trkpt lat="27.766835" lon="86.723258">
        <ele>2771.2</ele>
        <time>2022-10-19T09:14:04.000Z</time>
      </trkpt>
      <trkpt lat="27.766858" lon="86.723258">
        <ele>2771.6</ele>
        <time>2022-10-19T09:14:07.000Z</time>
      </trkpt>
      <trkpt lat="27.766883" lon="86.723251">
        <ele>2771.4</ele>
        <time>2022-10-19T09:14:09.000Z</time>
      </trkpt>
      <trkpt lat="27.766906" lon="86.723245">
        <ele>2771.4</ele>
        <time>2022-10-19T09:14:11.000Z</time>
      </trkpt>
      <trkpt lat="27.766925" lon="86.723226">
        <ele>2771</ele>
        <time>2022-10-19T09:14:13.000Z</time>
      </trkpt>
      <trkpt lat="27.76695" lon="86.723219">
        <ele>2771</ele>
        <time>2022-10-19T09:14:15.000Z</time>
      </trkpt>
      <trkpt lat="27.766973" lon="86.723206">
        <ele>2770.8</ele>
        <time>2022-10-19T09:14:17.000Z</time>
      </trkpt>
      <trkpt lat="27.767002" lon="86.7232">
        <ele>2770.6</ele>
        <time>2022-10-19T09:14:19.000Z</time>
      </trkpt>
      <trkpt lat="27.767018" lon="86.723181">
        <ele>2770.6</ele>
        <time>2022-10-19T09:14:21.000Z</time>
      </trkpt>
      <trkpt lat="27.767034" lon="86.723168">
        <ele>2770.6</ele>
        <time>2022-10-19T09:14:23.000Z</time>
      </trkpt>
      <trkpt lat="27.767056" lon="86.723162">
        <ele>2770.4</ele>
        <time>2022-10-19T09:14:25.000Z</time>
      </trkpt>
      <trkpt lat="27.767082" lon="86.723162">
        <ele>2770.6</ele>
        <time>2022-10-19T09:14:27.000Z</time>
      </trkpt>
      <trkpt lat="27.767107" lon="86.723162">
        <ele>2770.6</ele>
        <time>2022-10-19T09:14:29.000Z</time>
      </trkpt>
      <trkpt lat="27.767133" lon="86.723162">
        <ele>2770.6</ele>
        <time>2022-10-19T09:14:31.000Z</time>
      </trkpt>
      <trkpt lat="27.767152" lon="86.723162">
        <ele>2770.4</ele>
        <time>2022-10-19T09:14:33.000Z</time>
      </trkpt>
      <trkpt lat="27.767171" lon="86.723142">
        <ele>2771.2</ele>
        <time>2022-10-19T09:14:36.000Z</time>
      </trkpt>
      <trkpt lat="27.767194" lon="86.723162">
        <ele>2771.2</ele>
        <time>2022-10-19T09:14:39.000Z</time>
      </trkpt>
      <trkpt lat="27.767213" lon="86.723168">
        <ele>2771.4</ele>
        <time>2022-10-19T09:14:41.000Z</time>
      </trkpt>
      <trkpt lat="27.767232" lon="86.723155">
        <ele>2771.2</ele>
        <time>2022-10-19T09:14:44.000Z</time>
      </trkpt>
      <trkpt lat="27.767248" lon="86.723136">
        <ele>2771.4</ele>
        <time>2022-10-19T09:14:46.000Z</time>
      </trkpt>
      <trkpt lat="27.76727" lon="86.723123">
        <ele>2771.4</ele>
        <time>2022-10-19T09:14:49.000Z</time>
      </trkpt>
      <trkpt lat="27.767293" lon="86.723117">
        <ele>2771.6</ele>
        <time>2022-10-19T09:14:52.000Z</time>
      </trkpt>
      <trkpt lat="27.767312" lon="86.723117">
        <ele>2772</ele>
        <time>2022-10-19T09:14:55.000Z</time>
      </trkpt>
      <trkpt lat="27.767334" lon="86.723123">
        <ele>2772.6</ele>
        <time>2022-10-19T09:14:58.000Z</time>
      </trkpt>
      <trkpt lat="27.767402" lon="86.723098">
        <ele>2772.8</ele>
        <time>2022-10-19T09:15:04.000Z</time>
      </trkpt>
      <trkpt lat="27.767427" lon="86.723104">
        <ele>2773.2</ele>
        <time>2022-10-19T09:15:06.000Z</time>
      </trkpt>
      <trkpt lat="27.76745" lon="86.723104">
        <ele>2773.4</ele>
        <time>2022-10-19T09:15:08.000Z</time>
      </trkpt>
      <trkpt lat="27.767478" lon="86.723117">
        <ele>2773.8</ele>
        <time>2022-10-19T09:15:10.000Z</time>
      </trkpt>
      <trkpt lat="27.767501" lon="86.723117">
        <ele>2774.2</ele>
        <time>2022-10-19T09:15:13.000Z</time>
      </trkpt>
      <trkpt lat="27.767523" lon="86.723123">
        <ele>2775</ele>
        <time>2022-10-19T09:15:16.000Z</time>
      </trkpt>
      <trkpt lat="27.767549" lon="86.723123">
        <ele>2775.2</ele>
        <time>2022-10-19T09:15:18.000Z</time>
      </trkpt>
      <trkpt lat="27.767565" lon="86.723104">
        <ele>2775.6</ele>
        <time>2022-10-19T09:15:21.000Z</time>
      </trkpt>
      <trkpt lat="27.767584" lon="86.723098">
        <ele>2775.8</ele>
        <time>2022-10-19T09:15:23.000Z</time>
      </trkpt>
      <trkpt lat="27.76761" lon="86.723104">
        <ele>2776.4</ele>
        <time>2022-10-19T09:15:26.000Z</time>
      </trkpt>
      <trkpt lat="27.767632" lon="86.723104">
        <ele>2777</ele>
        <time>2022-10-19T09:15:28.000Z</time>
      </trkpt>
      <trkpt lat="27.767651" lon="86.723117">
        <ele>2776.8</ele>
        <time>2022-10-19T09:15:30.000Z</time>
      </trkpt>
      <trkpt lat="27.76767" lon="86.723123">
        <ele>2777</ele>
        <time>2022-10-19T09:15:32.000Z</time>
      </trkpt>
      <trkpt lat="27.767693" lon="86.723123">
        <ele>2777.4</ele>
        <time>2022-10-19T09:15:35.000Z</time>
      </trkpt>
      <trkpt lat="27.767712" lon="86.723117">
        <ele>2778</ele>
        <time>2022-10-19T09:15:38.000Z</time>
      </trkpt>
      <trkpt lat="27.767731" lon="86.723104">
        <ele>2778.6</ele>
        <time>2022-10-19T09:15:41.000Z</time>
      </trkpt>
      <trkpt lat="27.767747" lon="86.723117">
        <ele>2779.2</ele>
        <time>2022-10-19T09:15:43.000Z</time>
      </trkpt>
      <trkpt lat="27.76777" lon="86.72313">
        <ele>2779.4</ele>
        <time>2022-10-19T09:15:45.000Z</time>
      </trkpt>
      <trkpt lat="27.767789" lon="86.723136">
        <ele>2780</ele>
        <time>2022-10-19T09:15:47.000Z</time>
      </trkpt>
      <trkpt lat="27.767811" lon="86.723155">
        <ele>2780.2</ele>
        <time>2022-10-19T09:15:50.000Z</time>
      </trkpt>
      <trkpt lat="27.76783" lon="86.723142">
        <ele>2781</ele>
        <time>2022-10-19T09:15:53.000Z</time>
      </trkpt>
      <trkpt lat="27.76785" lon="86.723155">
        <ele>2781.4</ele>
        <time>2022-10-19T09:15:55.000Z</time>
      </trkpt>
      <trkpt lat="27.767866" lon="86.723136">
        <ele>2781.8</ele>
        <time>2022-10-19T09:15:57.000Z</time>
      </trkpt>
      <trkpt lat="27.767891" lon="86.723142">
        <ele>2781.8</ele>
        <time>2022-10-19T09:15:59.000Z</time>
      </trkpt>
      <trkpt lat="27.76791" lon="86.723142">
        <ele>2781.8</ele>
        <time>2022-10-19T09:16:01.000Z</time>
      </trkpt>
      <trkpt lat="27.76793" lon="86.72313">
        <ele>2782.2</ele>
        <time>2022-10-19T09:16:03.000Z</time>
      </trkpt>
      <trkpt lat="27.767949" lon="86.723123">
        <ele>2782.4</ele>
        <time>2022-10-19T09:16:05.000Z</time>
      </trkpt>
      <trkpt lat="27.767968" lon="86.723123">
        <ele>2782.6</ele>
        <time>2022-10-19T09:16:07.000Z</time>
      </trkpt>
      <trkpt lat="27.767987" lon="86.723117">
        <ele>2783</ele>
        <time>2022-10-19T09:16:09.000Z</time>
      </trkpt>
      <trkpt lat="27.76801" lon="86.723123">
        <ele>2783</ele>
        <time>2022-10-19T09:16:11.000Z</time>
      </trkpt>
      <trkpt lat="27.768029" lon="86.723123">
        <ele>2783</ele>
        <time>2022-10-19T09:16:13.000Z</time>
      </trkpt>
      <trkpt lat="27.768048" lon="86.723117">
        <ele>2783.2</ele>
        <time>2022-10-19T09:16:16.000Z</time>
      </trkpt>
      <trkpt lat="27.768067" lon="86.723117">
        <ele>2783.2</ele>
        <time>2022-10-19T09:16:18.000Z</time>
      </trkpt>
      <trkpt lat="27.76809" lon="86.723117">
        <ele>2783.4</ele>
        <time>2022-10-19T09:16:20.000Z</time>
      </trkpt>
      <trkpt lat="27.768106" lon="86.723104">
        <ele>2783.6</ele>
        <time>2022-10-19T09:16:22.000Z</time>
      </trkpt>
      <trkpt lat="27.768128" lon="86.723091">
        <ele>2784.2</ele>
        <time>2022-10-19T09:16:28.000Z</time>
      </trkpt>
      <trkpt lat="27.768147" lon="86.723078">
        <ele>2784.6</ele>
        <time>2022-10-19T09:16:31.000Z</time>
      </trkpt>
      <trkpt lat="27.768157" lon="86.723059">
        <ele>2784.6</ele>
        <time>2022-10-19T09:16:33.000Z</time>
      </trkpt>
      <trkpt lat="27.768163" lon="86.72304">
        <ele>2784.8</ele>
        <time>2022-10-19T09:16:35.000Z</time>
      </trkpt>
      <trkpt lat="27.768173" lon="86.723008">
        <ele>2785.2</ele>
        <time>2022-10-19T09:16:37.000Z</time>
      </trkpt>
      <trkpt lat="27.768182" lon="86.722982">
        <ele>2785.2</ele>
        <time>2022-10-19T09:16:39.000Z</time>
      </trkpt>
      <trkpt lat="27.768186" lon="86.722957">
        <ele>2785.4</ele>
        <time>2022-10-19T09:16:41.000Z</time>
      </trkpt>
      <trkpt lat="27.768205" lon="86.722944">
        <ele>2785.4</ele>
        <time>2022-10-19T09:16:43.000Z</time>
      </trkpt>
      <trkpt lat="27.768227" lon="86.722957">
        <ele>2785.6</ele>
        <time>2022-10-19T09:16:45.000Z</time>
      </trkpt>
      <trkpt lat="27.768246" lon="86.72297">
        <ele>2785.8</ele>
        <time>2022-10-19T09:16:47.000Z</time>
      </trkpt>
      <trkpt lat="27.768272" lon="86.722976">
        <ele>2785.8</ele>
        <time>2022-10-19T09:16:50.000Z</time>
      </trkpt>
      <trkpt lat="27.768298" lon="86.72297">
        <ele>2785.6</ele>
        <time>2022-10-19T09:16:53.000Z</time>
      </trkpt>
      <trkpt lat="27.76832" lon="86.722976">
        <ele>2786.4</ele>
        <time>2022-10-19T09:16:56.000Z</time>
      </trkpt>
      <trkpt lat="27.768339" lon="86.722982">
        <ele>2786.8</ele>
        <time>2022-10-19T09:16:58.000Z</time>
      </trkpt>
      <trkpt lat="27.768349" lon="86.723002">
        <ele>2787.2</ele>
        <time>2022-10-19T09:16:59.000Z</time>
      </trkpt>
      <trkpt lat="27.768368" lon="86.723008">
        <ele>2786.8</ele>
        <time>2022-10-19T09:17:02.000Z</time>
      </trkpt>
      <trkpt lat="27.76839" lon="86.723014">
        <ele>2787.2</ele>
        <time>2022-10-19T09:17:04.000Z</time>
      </trkpt>
      <trkpt lat="27.768413" lon="86.723008">
        <ele>2787.4</ele>
        <time>2022-10-19T09:17:08.000Z</time>
      </trkpt>
      <trkpt lat="27.768438" lon="86.723014">
        <ele>2787.6</ele>
        <time>2022-10-19T09:17:10.000Z</time>
      </trkpt>
      <trkpt lat="27.768458" lon="86.723021">
        <ele>2788</ele>
        <time>2022-10-19T09:17:12.000Z</time>
      </trkpt>
      <trkpt lat="27.768483" lon="86.723021">
        <ele>2788.4</ele>
        <time>2022-10-19T09:17:15.000Z</time>
      </trkpt>
      <trkpt lat="27.768512" lon="86.72304">
        <ele>2788.6</ele>
        <time>2022-10-19T09:17:17.000Z</time>
      </trkpt>
      <trkpt lat="27.768534" lon="86.72304">
        <ele>2789</ele>
        <time>2022-10-19T09:17:19.000Z</time>
      </trkpt>
      <trkpt lat="27.768557" lon="86.72304">
        <ele>2789</ele>
        <time>2022-10-19T09:17:22.000Z</time>
      </trkpt>
      <trkpt lat="27.768576" lon="86.723046">
        <ele>2789</ele>
        <time>2022-10-19T09:17:24.000Z</time>
      </trkpt>
      <trkpt lat="27.768595" lon="86.723046">
        <ele>2789.4</ele>
        <time>2022-10-19T09:17:27.000Z</time>
      </trkpt>
      <trkpt lat="27.768614" lon="86.723046">
        <ele>2790</ele>
        <time>2022-10-19T09:17:31.000Z</time>
      </trkpt>
      <trkpt lat="27.76864" lon="86.723046">
        <ele>2791.4</ele>
        <time>2022-10-19T09:17:36.000Z</time>
      </trkpt>
      <trkpt lat="27.768659" lon="86.723046">
        <ele>2791.4</ele>
        <time>2022-10-19T09:17:38.000Z</time>
      </trkpt>
      <trkpt lat="27.768678" lon="86.723046">
        <ele>2791.6</ele>
        <time>2022-10-19T09:17:40.000Z</time>
      </trkpt>
      <trkpt lat="27.768707" lon="86.723046">
        <ele>2792.4</ele>
        <time>2022-10-19T09:17:43.000Z</time>
      </trkpt>
      <trkpt lat="27.768736" lon="86.723046">
        <ele>2792.6</ele>
        <time>2022-10-19T09:17:46.000Z</time>
      </trkpt>
      <trkpt lat="27.768762" lon="86.723053">
        <ele>2792.6</ele>
        <time>2022-10-19T09:17:49.000Z</time>
      </trkpt>
      <trkpt lat="27.768784" lon="86.723053">
        <ele>2792.8</ele>
        <time>2022-10-19T09:17:52.000Z</time>
      </trkpt>
      <trkpt lat="27.768806" lon="86.723059">
        <ele>2792.8</ele>
        <time>2022-10-19T09:17:55.000Z</time>
      </trkpt>
      <trkpt lat="27.768829" lon="86.723078">
        <ele>2793.8</ele>
        <time>2022-10-19T09:17:59.000Z</time>
      </trkpt>
      <trkpt lat="27.768848" lon="86.723085">
        <ele>2793.2</ele>
        <time>2022-10-19T09:18:04.000Z</time>
      </trkpt>
      <trkpt lat="27.768858" lon="86.723104">
        <ele>2793.4</ele>
        <time>2022-10-19T09:18:08.000Z</time>
      </trkpt>
      <trkpt lat="27.768877" lon="86.723117">
        <ele>2794.4</ele>
        <time>2022-10-19T09:18:12.000Z</time>
      </trkpt>
      <trkpt lat="27.768893" lon="86.72313">
        <ele>2794.6</ele>
        <time>2022-10-19T09:18:15.000Z</time>
      </trkpt>
      <trkpt lat="27.768909" lon="86.723142">
        <ele>2795.4</ele>
        <time>2022-10-19T09:18:17.000Z</time>
      </trkpt>
      <trkpt lat="27.768928" lon="86.723168">
        <ele>2795.6</ele>
        <time>2022-10-19T09:18:19.000Z</time>
      </trkpt>
      <trkpt lat="27.768947" lon="86.723181">
        <ele>2795.6</ele>
        <time>2022-10-19T09:18:21.000Z</time>
      </trkpt>
      <trkpt lat="27.76896" lon="86.7232">
        <ele>2796</ele>
        <time>2022-10-19T09:18:23.000Z</time>
      </trkpt>
      <trkpt lat="27.768973" lon="86.723219">
        <ele>2795.6</ele>
        <time>2022-10-19T09:18:25.000Z</time>
      </trkpt>
      <trkpt lat="27.768982" lon="86.723238">
        <ele>2796</ele>
        <time>2022-10-19T09:18:27.000Z</time>
      </trkpt>
      <trkpt lat="27.768995" lon="86.723258">
        <ele>2796.2</ele>
        <time>2022-10-19T09:18:30.000Z</time>
      </trkpt>
      <trkpt lat="27.769005" lon="86.723277">
        <ele>2796.4</ele>
        <time>2022-10-19T09:18:32.000Z</time>
      </trkpt>
      <trkpt lat="27.769021" lon="86.723296">
        <ele>2796.4</ele>
        <time>2022-10-19T09:18:35.000Z</time>
      </trkpt>
      <trkpt lat="27.769034" lon="86.723315">
        <ele>2796.8</ele>
        <time>2022-10-19T09:18:38.000Z</time>
      </trkpt>
      <trkpt lat="27.769046" lon="86.723334">
        <ele>2797</ele>
        <time>2022-10-19T09:18:41.000Z</time>
      </trkpt>
      <trkpt lat="27.769066" lon="86.723341">
        <ele>2797.2</ele>
        <time>2022-10-19T09:18:45.000Z</time>
      </trkpt>
      <trkpt lat="27.769075" lon="86.72336">
        <ele>2797.2</ele>
        <time>2022-10-19T09:18:48.000Z</time>
      </trkpt>
      <trkpt lat="27.769094" lon="86.723373">
        <ele>2797.6</ele>
        <time>2022-10-19T09:18:51.000Z</time>
      </trkpt>
      <trkpt lat="27.769117" lon="86.723379">
        <ele>2798.6</ele>
        <time>2022-10-19T09:18:54.000Z</time>
      </trkpt>
      <trkpt lat="27.769133" lon="86.723398">
        <ele>2799.2</ele>
        <time>2022-10-19T09:18:56.000Z</time>
      </trkpt>
      <trkpt lat="27.769149" lon="86.723411">
        <ele>2799.2</ele>
        <time>2022-10-19T09:18:58.000Z</time>
      </trkpt>
      <trkpt lat="27.769168" lon="86.723424">
        <ele>2799.4</ele>
        <time>2022-10-19T09:19:01.000Z</time>
      </trkpt>
      <trkpt lat="27.769184" lon="86.723443">
        <ele>2799.8</ele>
        <time>2022-10-19T09:19:04.000Z</time>
      </trkpt>
      <trkpt lat="27.769203" lon="86.723456">
        <ele>2800.2</ele>
        <time>2022-10-19T09:19:06.000Z</time>
      </trkpt>
      <trkpt lat="27.769226" lon="86.723475">
        <ele>2800.4</ele>
        <time>2022-10-19T09:19:09.000Z</time>
      </trkpt>
      <trkpt lat="27.769242" lon="86.723488">
        <ele>2800.4</ele>
        <time>2022-10-19T09:19:11.000Z</time>
      </trkpt>
      <trkpt lat="27.769261" lon="86.723501">
        <ele>2800.4</ele>
        <time>2022-10-19T09:19:13.000Z</time>
      </trkpt>
      <trkpt lat="27.769267" lon="86.72352">
        <ele>2800.6</ele>
        <time>2022-10-19T09:19:14.000Z</time>
      </trkpt>
      <trkpt lat="27.769286" lon="86.723533">
        <ele>2800.6</ele>
        <time>2022-10-19T09:19:16.000Z</time>
      </trkpt>
      <trkpt lat="27.769306" lon="86.723552">
        <ele>2801</ele>
        <time>2022-10-19T09:19:19.000Z</time>
      </trkpt>
      <trkpt lat="27.769328" lon="86.723565">
        <ele>2801.4</ele>
        <time>2022-10-19T09:19:23.000Z</time>
      </trkpt>
      <trkpt lat="27.769344" lon="86.723578">
        <ele>2801.2</ele>
        <time>2022-10-19T09:19:25.000Z</time>
      </trkpt>
      <trkpt lat="27.769357" lon="86.723597">
        <ele>2800.8</ele>
        <time>2022-10-19T09:19:28.000Z</time>
      </trkpt>
      <trkpt lat="27.769376" lon="86.723616">
        <ele>2800.6</ele>
        <time>2022-10-19T09:19:31.000Z</time>
      </trkpt>
      <trkpt lat="27.769395" lon="86.723616">
        <ele>2800.2</ele>
        <time>2022-10-19T09:19:34.000Z</time>
      </trkpt>
      <trkpt lat="27.769418" lon="86.723616">
        <ele>2799.8</ele>
        <time>2022-10-19T09:19:37.000Z</time>
      </trkpt>
      <trkpt lat="27.769437" lon="86.723635">
        <ele>2799.2</ele>
        <time>2022-10-19T09:19:41.000Z</time>
      </trkpt>
      <trkpt lat="27.769453" lon="86.723648">
        <ele>2798.6</ele>
        <time>2022-10-19T09:19:44.000Z</time>
      </trkpt>
      <trkpt lat="27.769462" lon="86.723674">
        <ele>2797.6</ele>
        <time>2022-10-19T09:19:49.000Z</time>
      </trkpt>
      <trkpt lat="27.769488" lon="86.723686">
        <ele>2797.4</ele>
        <time>2022-10-19T09:19:52.000Z</time>
      </trkpt>
      <trkpt lat="27.769504" lon="86.723699">
        <ele>2797.2</ele>
        <time>2022-10-19T09:19:55.000Z</time>
      </trkpt>
      <trkpt lat="27.769523" lon="86.723693">
        <ele>2797.6</ele>
        <time>2022-10-19T09:20:04.000Z</time>
      </trkpt>
      <trkpt lat="27.76951" lon="86.723712">
        <ele>2797.4</ele>
        <time>2022-10-19T09:20:14.000Z</time>
      </trkpt>
      <trkpt lat="27.769533" lon="86.723718">
        <ele>2797.2</ele>
        <time>2022-10-19T09:20:16.000Z</time>
      </trkpt>
      <trkpt lat="27.769555" lon="86.723718">
        <ele>2796.6</ele>
        <time>2022-10-19T09:20:20.000Z</time>
      </trkpt>
      <trkpt lat="27.769584" lon="86.723731">
        <ele>2796</ele>
        <time>2022-10-19T09:20:22.000Z</time>
      </trkpt>
      <trkpt lat="27.769603" lon="86.72375">
        <ele>2795.2</ele>
        <time>2022-10-19T09:20:24.000Z</time>
      </trkpt>
      <trkpt lat="27.769616" lon="86.72377">
        <ele>2793</ele>
        <time>2022-10-19T09:20:31.000Z</time>
      </trkpt>
      <trkpt lat="27.769635" lon="86.723776">
        <ele>2792.6</ele>
        <time>2022-10-19T09:20:34.000Z</time>
      </trkpt>
      <trkpt lat="27.769645" lon="86.723757">
        <ele>2789.4</ele>
        <time>2022-10-19T09:20:48.000Z</time>
      </trkpt>
      <trkpt lat="27.769667" lon="86.723763">
        <ele>2788.2</ele>
        <time>2022-10-19T09:20:52.000Z</time>
      </trkpt>
      <trkpt lat="27.769674" lon="86.723782">
        <ele>2787.6</ele>
        <time>2022-10-19T09:20:57.000Z</time>
      </trkpt>
      <trkpt lat="27.769683" lon="86.723808">
        <ele>2786.8</ele>
        <time>2022-10-19T09:21:01.000Z</time>
      </trkpt>
      <trkpt lat="27.76969" lon="86.723834">
        <ele>2786.2</ele>
        <time>2022-10-19T09:21:05.000Z</time>
      </trkpt>
      <trkpt lat="27.769709" lon="86.723846">
        <ele>2785.8</ele>
        <time>2022-10-19T09:21:08.000Z</time>
      </trkpt>
      <trkpt lat="27.769734" lon="86.723853">
        <ele>2785.6</ele>
        <time>2022-10-19T09:21:12.000Z</time>
      </trkpt>
      <trkpt lat="27.769754" lon="86.723853">
        <ele>2785.2</ele>
        <time>2022-10-19T09:21:14.000Z</time>
      </trkpt>
      <trkpt lat="27.769779" lon="86.723872">
        <ele>2784.6</ele>
        <time>2022-10-19T09:21:17.000Z</time>
      </trkpt>
      <trkpt lat="27.769805" lon="86.723885">
        <ele>2784.2</ele>
        <time>2022-10-19T09:21:20.000Z</time>
      </trkpt>
      <trkpt lat="27.769827" lon="86.723885">
        <ele>2784.4</ele>
        <time>2022-10-19T09:21:22.000Z</time>
      </trkpt>
      <trkpt lat="27.769837" lon="86.72391">
        <ele>2784</ele>
        <time>2022-10-19T09:21:24.000Z</time>
      </trkpt>
      <trkpt lat="27.769856" lon="86.723923">
        <ele>2784.2</ele>
        <time>2022-10-19T09:21:26.000Z</time>
      </trkpt>
      <trkpt lat="27.769862" lon="86.723949">
        <ele>2785.2</ele>
        <time>2022-10-19T09:21:29.000Z</time>
      </trkpt>
      <trkpt lat="27.769859" lon="86.723974">
        <ele>2786.4</ele>
        <time>2022-10-19T09:21:34.000Z</time>
      </trkpt>
      <trkpt lat="27.769853" lon="86.723994">
        <ele>2786.4</ele>
        <time>2022-10-19T09:21:35.000Z</time>
      </trkpt>
      <trkpt lat="27.769872" lon="86.724006">
        <ele>2786.6</ele>
        <time>2022-10-19T09:21:39.000Z</time>
      </trkpt>
      <trkpt lat="27.769875" lon="86.724032">
        <ele>2787</ele>
        <time>2022-10-19T09:21:44.000Z</time>
      </trkpt>
      <trkpt lat="27.769856" lon="86.724045">
        <ele>2788</ele>
        <time>2022-10-19T09:21:53.000Z</time>
      </trkpt>
      <trkpt lat="27.769846" lon="86.724019">
        <ele>2789.2</ele>
        <time>2022-10-19T09:21:57.000Z</time>
      </trkpt>
      <trkpt lat="27.769853" lon="86.723994">
        <ele>2789.6</ele>
        <time>2022-10-19T09:22:00.000Z</time>
      </trkpt>
      <trkpt lat="27.769846" lon="86.723974">
        <ele>2790.4</ele>
        <time>2022-10-19T09:22:05.000Z</time>
      </trkpt>
      <trkpt lat="27.769827" lon="86.723968">
        <ele>2791.8</ele>
        <time>2022-10-19T09:22:10.000Z</time>
      </trkpt>
      <trkpt lat="27.769808" lon="86.723968">
        <ele>2792.4</ele>
        <time>2022-10-19T09:22:15.000Z</time>
      </trkpt>
      <trkpt lat="27.769782" lon="86.724">
        <ele>2793.2</ele>
        <time>2022-10-19T09:22:20.000Z</time>
      </trkpt>
      <trkpt lat="27.769766" lon="86.724032">
        <ele>2793.4</ele>
        <time>2022-10-19T09:22:21.000Z</time>
      </trkpt>
      <trkpt lat="27.769747" lon="86.724058">
        <ele>2793.4</ele>
        <time>2022-10-19T09:22:23.000Z</time>
      </trkpt>
      <trkpt lat="27.769741" lon="86.724077">
        <ele>2793.6</ele>
        <time>2022-10-19T09:22:24.000Z</time>
      </trkpt>
      <trkpt lat="27.769731" lon="86.724096">
        <ele>2794</ele>
        <time>2022-10-19T09:22:28.000Z</time>
      </trkpt>
      <trkpt lat="27.769731" lon="86.724122">
        <ele>2794</ele>
        <time>2022-10-19T09:22:31.000Z</time>
      </trkpt>
      <trkpt lat="27.769718" lon="86.724154">
        <ele>2794</ele>
        <time>2022-10-19T09:22:33.000Z</time>
      </trkpt>
      <trkpt lat="27.769706" lon="86.724173">
        <ele>2794.4</ele>
        <time>2022-10-19T09:22:34.000Z</time>
      </trkpt>
      <trkpt lat="27.769696" lon="86.724198">
        <ele>2794.8</ele>
        <time>2022-10-19T09:22:36.000Z</time>
      </trkpt>
      <trkpt lat="27.769677" lon="86.72423">
        <ele>2795.8</ele>
        <time>2022-10-19T09:22:39.000Z</time>
      </trkpt>
      <trkpt lat="27.769661" lon="86.724256">
        <ele>2795.8</ele>
        <time>2022-10-19T09:22:41.000Z</time>
      </trkpt>
      <trkpt lat="27.769654" lon="86.724275">
        <ele>2796.2</ele>
        <time>2022-10-19T09:22:42.000Z</time>
      </trkpt>
      <trkpt lat="27.769648" lon="86.724294">
        <ele>2797</ele>
        <time>2022-10-19T09:22:44.000Z</time>
      </trkpt>
      <trkpt lat="27.769664" lon="86.724307">
        <ele>2797.4</ele>
        <time>2022-10-19T09:22:46.000Z</time>
      </trkpt>
      <trkpt lat="27.769683" lon="86.724314">
        <ele>2798</ele>
        <time>2022-10-19T09:22:51.000Z</time>
      </trkpt>
      <trkpt lat="27.769699" lon="86.724326">
        <ele>2799.4</ele>
        <time>2022-10-19T09:24:08.000Z</time>
      </trkpt>
      <trkpt lat="27.769725" lon="86.72432">
        <ele>2800.4</ele>
        <time>2022-10-19T09:24:12.000Z</time>
      </trkpt>
      <trkpt lat="27.769757" lon="86.72432">
        <ele>2801.4</ele>
        <time>2022-10-19T09:24:15.000Z</time>
      </trkpt>
      <trkpt lat="27.769776" lon="86.72432">
        <ele>2802</ele>
        <time>2022-10-19T09:24:18.000Z</time>
      </trkpt>
      <trkpt lat="27.769802" lon="86.72432">
        <ele>2803.4</ele>
        <time>2022-10-19T09:24:23.000Z</time>
      </trkpt>
      <trkpt lat="27.769824" lon="86.72432">
        <ele>2804</ele>
        <time>2022-10-19T09:24:26.000Z</time>
      </trkpt>
      <trkpt lat="27.769843" lon="86.72432">
        <ele>2805</ele>
        <time>2022-10-19T09:24:28.000Z</time>
      </trkpt>
      <trkpt lat="27.769862" lon="86.72432">
        <ele>2805.6</ele>
        <time>2022-10-19T09:24:33.000Z</time>
      </trkpt>
      <trkpt lat="27.769882" lon="86.724326">
        <ele>2806.4</ele>
        <time>2022-10-19T09:24:38.000Z</time>
      </trkpt>
      <trkpt lat="27.769901" lon="86.724333">
        <ele>2807.6</ele>
        <time>2022-10-19T09:24:44.000Z</time>
      </trkpt>
      <trkpt lat="27.769923" lon="86.724326">
        <ele>2808</ele>
        <time>2022-10-19T09:24:48.000Z</time>
      </trkpt>
      <trkpt lat="27.769946" lon="86.724326">
        <ele>2808.4</ele>
        <time>2022-10-19T09:24:50.000Z</time>
      </trkpt>
      <trkpt lat="27.769965" lon="86.724326">
        <ele>2808.8</ele>
        <time>2022-10-19T09:24:54.000Z</time>
      </trkpt>
      <trkpt lat="27.770006" lon="86.724326">
        <ele>2810.6</ele>
        <time>2022-10-19T09:25:03.000Z</time>
      </trkpt>
      <trkpt lat="27.770029" lon="86.724326">
        <ele>2811</ele>
        <time>2022-10-19T09:25:06.000Z</time>
      </trkpt>
      <trkpt lat="27.770048" lon="86.724339">
        <ele>2812</ele>
        <time>2022-10-19T09:25:11.000Z</time>
      </trkpt>
      <trkpt lat="27.770064" lon="86.724358">
        <ele>2812.2</ele>
        <time>2022-10-19T09:25:16.000Z</time>
      </trkpt>
      <trkpt lat="27.770083" lon="86.724358">
        <ele>2812.4</ele>
        <time>2022-10-19T09:25:19.000Z</time>
      </trkpt>
      <trkpt lat="27.770102" lon="86.724371">
        <ele>2812.8</ele>
        <time>2022-10-19T09:25:25.000Z</time>
      </trkpt>
      <trkpt lat="27.770109" lon="86.72439">
        <ele>2813.2</ele>
        <time>2022-10-19T09:25:27.000Z</time>
      </trkpt>
      <trkpt lat="27.770128" lon="86.72439">
        <ele>2814.2</ele>
        <time>2022-10-19T09:25:38.000Z</time>
      </trkpt>
      <trkpt lat="27.770122" lon="86.724371">
        <ele>2814.6</ele>
        <time>2022-10-19T09:25:42.000Z</time>
      </trkpt>
      <trkpt lat="27.770109" lon="86.724352">
        <ele>2816.2</ele>
        <time>2022-10-19T09:25:49.000Z</time>
      </trkpt>
      <trkpt lat="27.770099" lon="86.724333">
        <ele>2816.8</ele>
        <time>2022-10-19T09:25:55.000Z</time>
      </trkpt>
      <trkpt lat="27.770083" lon="86.72432">
        <ele>2817.2</ele>
        <time>2022-10-19T09:26:01.000Z</time>
      </trkpt>
      <trkpt lat="27.770064" lon="86.72432">
        <ele>2818.2</ele>
        <time>2022-10-19T09:26:06.000Z</time>
      </trkpt>
      <trkpt lat="27.770054" lon="86.724294">
        <ele>2819</ele>
        <time>2022-10-19T09:26:11.000Z</time>
      </trkpt>
      <trkpt lat="27.770058" lon="86.724269">
        <ele>2820.6</ele>
        <time>2022-10-19T09:26:19.000Z</time>
      </trkpt>
      <trkpt lat="27.770064" lon="86.72425">
        <ele>2820.6</ele>
        <time>2022-10-19T09:26:20.000Z</time>
      </trkpt>
      <trkpt lat="27.770067" lon="86.724218">
        <ele>2821</ele>
        <time>2022-10-19T09:26:25.000Z</time>
      </trkpt>
      <trkpt lat="27.77007" lon="86.724192">
        <ele>2822.6</ele>
        <time>2022-10-19T09:26:33.000Z</time>
      </trkpt>
      <trkpt lat="27.770061" lon="86.724173">
        <ele>2823.8</ele>
        <time>2022-10-19T09:26:40.000Z</time>
      </trkpt>
      <trkpt lat="27.770061" lon="86.724141">
        <ele>2825</ele>
        <time>2022-10-19T09:26:47.000Z</time>
      </trkpt>
      <trkpt lat="27.770064" lon="86.724115">
        <ele>2826.2</ele>
        <time>2022-10-19T09:27:06.000Z</time>
      </trkpt>
      <trkpt lat="27.770054" lon="86.724096">
        <ele>2826.4</ele>
        <time>2022-10-19T09:27:08.000Z</time>
      </trkpt>
      <trkpt lat="27.770045" lon="86.724077">
        <ele>2826.8</ele>
        <time>2022-10-19T09:27:11.000Z</time>
      </trkpt>
      <trkpt lat="27.770038" lon="86.724038">
        <ele>2827.6</ele>
        <time>2022-10-19T09:27:13.000Z</time>
      </trkpt>
      <trkpt lat="27.770029" lon="86.724019">
        <ele>2828</ele>
        <time>2022-10-19T09:27:15.000Z</time>
      </trkpt>
      <trkpt lat="27.770048" lon="86.724">
        <ele>2828.4</ele>
        <time>2022-10-19T09:27:18.000Z</time>
      </trkpt>
      <trkpt lat="27.770048" lon="86.723974">
        <ele>2828.6</ele>
        <time>2022-10-19T09:27:22.000Z</time>
      </trkpt>
      <trkpt lat="27.770042" lon="86.723955">
        <ele>2829.2</ele>
        <time>2022-10-19T09:27:26.000Z</time>
      </trkpt>
      <trkpt lat="27.770051" lon="86.72393">
        <ele>2829.6</ele>
        <time>2022-10-19T09:27:28.000Z</time>
      </trkpt>
      <trkpt lat="27.770061" lon="86.72391">
        <ele>2830.2</ele>
        <time>2022-10-19T09:27:30.000Z</time>
      </trkpt>
      <trkpt lat="27.77007" lon="86.723878">
        <ele>2830.2</ele>
        <time>2022-10-19T09:27:32.000Z</time>
      </trkpt>
      <trkpt lat="27.770074" lon="86.723846">
        <ele>2830.6</ele>
        <time>2022-10-19T09:27:34.000Z</time>
      </trkpt>
      <trkpt lat="27.770086" lon="86.723814">
        <ele>2831.2</ele>
        <time>2022-10-19T09:27:36.000Z</time>
      </trkpt>
      <trkpt lat="27.770109" lon="86.723782">
        <ele>2831.4</ele>
        <time>2022-10-19T09:27:39.000Z</time>
      </trkpt>
      <trkpt lat="27.770125" lon="86.723763">
        <ele>2831.4</ele>
        <time>2022-10-19T09:27:41.000Z</time>
      </trkpt>
      <trkpt lat="27.770144" lon="86.72375">
        <ele>2831.6</ele>
        <time>2022-10-19T09:27:44.000Z</time>
      </trkpt>
      <trkpt lat="27.770163" lon="86.723738">
        <ele>2831.4</ele>
        <time>2022-10-19T09:27:46.000Z</time>
      </trkpt>
      <trkpt lat="27.770186" lon="86.723725">
        <ele>2831.4</ele>
        <time>2022-10-19T09:27:49.000Z</time>
      </trkpt>
      <trkpt lat="27.770211" lon="86.723718">
        <ele>2831.4</ele>
        <time>2022-10-19T09:28:01.000Z</time>
      </trkpt>
      <trkpt lat="27.770234" lon="86.723718">
        <ele>2831.2</ele>
        <time>2022-10-19T09:28:03.000Z</time>
      </trkpt>
      <trkpt lat="27.770253" lon="86.723718">
        <ele>2830.8</ele>
        <time>2022-10-19T09:28:05.000Z</time>
      </trkpt>
      <trkpt lat="27.770269" lon="86.723699">
        <ele>2830.8</ele>
        <time>2022-10-19T09:28:08.000Z</time>
      </trkpt>
      <trkpt lat="27.770291" lon="86.72368">
        <ele>2830.4</ele>
        <time>2022-10-19T09:28:11.000Z</time>
      </trkpt>
      <trkpt lat="27.770317" lon="86.723674">
        <ele>2830.2</ele>
        <time>2022-10-19T09:28:14.000Z</time>
      </trkpt>
      <trkpt lat="27.770339" lon="86.723674">
        <ele>2829.4</ele>
        <time>2022-10-19T09:28:16.000Z</time>
      </trkpt>
      <trkpt lat="27.770358" lon="86.723661">
        <ele>2829.2</ele>
        <time>2022-10-19T09:28:18.000Z</time>
      </trkpt>
      <trkpt lat="27.770384" lon="86.723654">
        <ele>2829.6</ele>
        <time>2022-10-19T09:28:20.000Z</time>
      </trkpt>
      <trkpt lat="27.770413" lon="86.723654">
        <ele>2829.2</ele>
        <time>2022-10-19T09:28:23.000Z</time>
      </trkpt>
      <trkpt lat="27.770438" lon="86.723654">
        <ele>2829</ele>
        <time>2022-10-19T09:28:25.000Z</time>
      </trkpt>
      <trkpt lat="27.770461" lon="86.723642">
        <ele>2829</ele>
        <time>2022-10-19T09:28:27.000Z</time>
      </trkpt>
      <trkpt lat="27.770483" lon="86.723642">
        <ele>2828.6</ele>
        <time>2022-10-19T09:28:29.000Z</time>
      </trkpt>
      <trkpt lat="27.770509" lon="86.723635">
        <ele>2828.6</ele>
        <time>2022-10-19T09:28:31.000Z</time>
      </trkpt>
      <trkpt lat="27.770528" lon="86.723622">
        <ele>2828.6</ele>
        <time>2022-10-19T09:28:33.000Z</time>
      </trkpt>
      <trkpt lat="27.770547" lon="86.72361">
        <ele>2828.6</ele>
        <time>2022-10-19T09:28:35.000Z</time>
      </trkpt>
      <trkpt lat="27.770566" lon="86.723603">
        <ele>2828.4</ele>
        <time>2022-10-19T09:28:37.000Z</time>
      </trkpt>
      <trkpt lat="27.770586" lon="86.723597">
        <ele>2828.2</ele>
        <time>2022-10-19T09:28:39.000Z</time>
      </trkpt>
      <trkpt lat="27.770602" lon="86.723584">
        <ele>2828.4</ele>
        <time>2022-10-19T09:28:41.000Z</time>
      </trkpt>
      <trkpt lat="27.770627" lon="86.723578">
        <ele>2828.6</ele>
        <time>2022-10-19T09:28:43.000Z</time>
      </trkpt>
      <trkpt lat="27.770653" lon="86.723565">
        <ele>2828.2</ele>
        <time>2022-10-19T09:28:46.000Z</time>
      </trkpt>
      <trkpt lat="27.770678" lon="86.723565">
        <ele>2828.4</ele>
        <time>2022-10-19T09:28:48.000Z</time>
      </trkpt>
      <trkpt lat="27.770701" lon="86.723558">
        <ele>2828</ele>
        <time>2022-10-19T09:28:50.000Z</time>
      </trkpt>
      <trkpt lat="27.770707" lon="86.723539">
        <ele>2828</ele>
        <time>2022-10-19T09:28:51.000Z</time>
      </trkpt>
      <trkpt lat="27.770733" lon="86.723533">
        <ele>2828.6</ele>
        <time>2022-10-19T09:28:54.000Z</time>
      </trkpt>
      <trkpt lat="27.770758" lon="86.723526">
        <ele>2828.2</ele>
        <time>2022-10-19T09:28:57.000Z</time>
      </trkpt>
      <trkpt lat="27.770778" lon="86.723501">
        <ele>2828</ele>
        <time>2022-10-19T09:28:59.000Z</time>
      </trkpt>
      <trkpt lat="27.770797" lon="86.723501">
        <ele>2828.2</ele>
        <time>2022-10-19T09:29:01.000Z</time>
      </trkpt>
      <trkpt lat="27.770819" lon="86.723494">
        <ele>2828.8</ele>
        <time>2022-10-19T09:29:04.000Z</time>
      </trkpt>
      <trkpt lat="27.770835" lon="86.723482">
        <ele>2828.8</ele>
        <time>2022-10-19T09:29:06.000Z</time>
      </trkpt>
      <trkpt lat="27.770848" lon="86.723456">
        <ele>2828.6</ele>
        <time>2022-10-19T09:29:09.000Z</time>
      </trkpt>
      <trkpt lat="27.770864" lon="86.723437">
        <ele>2829.2</ele>
        <time>2022-10-19T09:29:12.000Z</time>
      </trkpt>
      <trkpt lat="27.770886" lon="86.723424">
        <ele>2829.2</ele>
        <time>2022-10-19T09:29:14.000Z</time>
      </trkpt>
      <trkpt lat="27.770909" lon="86.723418">
        <ele>2829.2</ele>
        <time>2022-10-19T09:29:17.000Z</time>
      </trkpt>
      <trkpt lat="27.770928" lon="86.723418">
        <ele>2829.4</ele>
        <time>2022-10-19T09:29:20.000Z</time>
      </trkpt>
      <trkpt lat="27.770947" lon="86.723411">
        <ele>2830</ele>
        <time>2022-10-19T09:29:25.000Z</time>
      </trkpt>
      <trkpt lat="27.770957" lon="86.723386">
        <ele>2831</ele>
        <time>2022-10-19T09:29:32.000Z</time>
      </trkpt>
      <trkpt lat="27.770966" lon="86.723366">
        <ele>2831.2</ele>
        <time>2022-10-19T09:29:35.000Z</time>
      </trkpt>
      <trkpt lat="27.770982" lon="86.723354">
        <ele>2831.2</ele>
        <time>2022-10-19T09:29:39.000Z</time>
      </trkpt>
      <trkpt lat="27.770998" lon="86.723334">
        <ele>2831.4</ele>
        <time>2022-10-19T09:29:43.000Z</time>
      </trkpt>
      <trkpt lat="27.771014" lon="86.723315">
        <ele>2832.4</ele>
        <time>2022-10-19T09:29:50.000Z</time>
      </trkpt>
      <trkpt lat="27.771034" lon="86.723315">
        <ele>2833.6</ele>
        <time>2022-10-19T09:30:18.000Z</time>
      </trkpt>
      <trkpt lat="27.771046" lon="86.72329">
        <ele>2834</ele>
        <time>2022-10-19T09:30:21.000Z</time>
      </trkpt>
      <trkpt lat="27.771069" lon="86.723283">
        <ele>2835</ele>
        <time>2022-10-19T09:30:24.000Z</time>
      </trkpt>
      <trkpt lat="27.771088" lon="86.723277">
        <ele>2835.6</ele>
        <time>2022-10-19T09:30:27.000Z</time>
      </trkpt>
      <trkpt lat="27.771107" lon="86.723264">
        <ele>2836.8</ele>
        <time>2022-10-19T09:30:30.000Z</time>
      </trkpt>
      <trkpt lat="27.771133" lon="86.723258">
        <ele>2837.2</ele>
        <time>2022-10-19T09:30:32.000Z</time>
      </trkpt>
      <trkpt lat="27.771152" lon="86.723264">
        <ele>2838</ele>
        <time>2022-10-19T09:30:35.000Z</time>
      </trkpt>
      <trkpt lat="27.771226" lon="86.723104">
        <ele>2858.8</ele>
        <time>2022-10-20T02:27:22.000Z</time>
      </trkpt>
      <trkpt lat="27.771242" lon="86.723091">
        <ele>2858.8</ele>
        <time>2022-10-20T02:27:24.000Z</time>
      </trkpt>
      <trkpt lat="27.771261" lon="86.723091">
        <ele>2858.8</ele>
        <time>2022-10-20T02:27:25.000Z</time>
      </trkpt>
      <trkpt lat="27.771293" lon="86.723098">
        <ele>2858.8</ele>
        <time>2022-10-20T02:27:27.000Z</time>
      </trkpt>
      <trkpt lat="27.771315" lon="86.723104">
        <ele>2859.2</ele>
        <time>2022-10-20T02:27:30.000Z</time>
      </trkpt>
      <trkpt lat="27.771331" lon="86.723091">
        <ele>2859.2</ele>
        <time>2022-10-20T02:27:32.000Z</time>
      </trkpt>
      <trkpt lat="27.77135" lon="86.723091">
        <ele>2860.2</ele>
        <time>2022-10-20T02:27:37.000Z</time>
      </trkpt>
      <trkpt lat="27.771373" lon="86.723091">
        <ele>2860.2</ele>
        <time>2022-10-20T02:27:39.000Z</time>
      </trkpt>
      <trkpt lat="27.771373" lon="86.723066">
        <ele>2859.8</ele>
        <time>2022-10-20T02:27:45.000Z</time>
      </trkpt>
      <trkpt lat="27.771386" lon="86.723085">
        <ele>2860.2</ele>
        <time>2022-10-20T02:27:47.000Z</time>
      </trkpt>
      <trkpt lat="27.771395" lon="86.723104">
        <ele>2860.2</ele>
        <time>2022-10-20T02:27:48.000Z</time>
      </trkpt>
      <trkpt lat="27.771421" lon="86.723123">
        <ele>2860.4</ele>
        <time>2022-10-20T02:27:50.000Z</time>
      </trkpt>
      <trkpt lat="27.771443" lon="86.723142">
        <ele>2860.4</ele>
        <time>2022-10-20T02:27:52.000Z</time>
      </trkpt>
      <trkpt lat="27.771469" lon="86.723142">
        <ele>2860.6</ele>
        <time>2022-10-20T02:27:58.000Z</time>
      </trkpt>
      <trkpt lat="27.771485" lon="86.72313">
        <ele>2861.8</ele>
        <time>2022-10-20T02:28:09.000Z</time>
      </trkpt>
      <trkpt lat="27.771504" lon="86.723123">
        <ele>2862.4</ele>
        <time>2022-10-20T02:28:13.000Z</time>
      </trkpt>
      <trkpt lat="27.771523" lon="86.723123">
        <ele>2863</ele>
        <time>2022-10-20T02:28:17.000Z</time>
      </trkpt>
      <trkpt lat="27.771536" lon="86.723104">
        <ele>2863.6</ele>
        <time>2022-10-20T02:28:21.000Z</time>
      </trkpt>
      <trkpt lat="27.77151" lon="86.723085">
        <ele>2865.2</ele>
        <time>2022-10-20T02:28:28.000Z</time>
      </trkpt>
      <trkpt lat="27.771494" lon="86.723066">
        <ele>2865.8</ele>
        <time>2022-10-20T02:28:30.000Z</time>
      </trkpt>
      <trkpt lat="27.771501" lon="86.723046">
        <ele>2865.8</ele>
        <time>2022-10-20T02:28:33.000Z</time>
      </trkpt>
      <trkpt lat="27.771504" lon="86.723021">
        <ele>2865.8</ele>
        <time>2022-10-20T02:28:35.000Z</time>
      </trkpt>
      <trkpt lat="27.77151" lon="86.722989">
        <ele>2865.8</ele>
        <time>2022-10-20T02:28:37.000Z</time>
      </trkpt>
      <trkpt lat="27.771523" lon="86.72297">
        <ele>2866.6</ele>
        <time>2022-10-20T02:28:41.000Z</time>
      </trkpt>
      <trkpt lat="27.771523" lon="86.722944">
        <ele>2866.8</ele>
        <time>2022-10-20T02:28:43.000Z</time>
      </trkpt>
      <trkpt lat="27.77153" lon="86.722925">
        <ele>2867.6</ele>
        <time>2022-10-20T02:28:48.000Z</time>
      </trkpt>
      <trkpt lat="27.77153" lon="86.722899">
        <ele>2868.2</ele>
        <time>2022-10-20T02:28:52.000Z</time>
      </trkpt>
      <trkpt lat="27.771552" lon="86.722899">
        <ele>2868.2</ele>
        <time>2022-10-20T02:29:23.000Z</time>
      </trkpt>
      <trkpt lat="27.771574" lon="86.722886">
        <ele>2868.2</ele>
        <time>2022-10-20T02:29:25.000Z</time>
      </trkpt>
      <trkpt lat="27.7716" lon="86.72288">
        <ele>2868.2</ele>
        <time>2022-10-20T02:29:27.000Z</time>
      </trkpt>
      <trkpt lat="27.771622" lon="86.722854">
        <ele>2868.2</ele>
        <time>2022-10-20T02:29:29.000Z</time>
      </trkpt>
      <trkpt lat="27.771645" lon="86.722842">
        <ele>2868.6</ele>
        <time>2022-10-20T02:29:31.000Z</time>
      </trkpt>
      <trkpt lat="27.771667" lon="86.722822">
        <ele>2868.8</ele>
        <time>2022-10-20T02:29:33.000Z</time>
      </trkpt>
      <trkpt lat="27.771693" lon="86.722816">
        <ele>2869.2</ele>
        <time>2022-10-20T02:29:36.000Z</time>
      </trkpt>
      <trkpt lat="27.771709" lon="86.722803">
        <ele>2870.2</ele>
        <time>2022-10-20T02:29:40.000Z</time>
      </trkpt>
      <trkpt lat="27.771731" lon="86.722803">
        <ele>2870.8</ele>
        <time>2022-10-20T02:29:43.000Z</time>
      </trkpt>
      <trkpt lat="27.771757" lon="86.722803">
        <ele>2871.4</ele>
        <time>2022-10-20T02:29:46.000Z</time>
      </trkpt>
      <trkpt lat="27.771773" lon="86.72279">
        <ele>2871.8</ele>
        <time>2022-10-20T02:29:50.000Z</time>
      </trkpt>
      <trkpt lat="27.771789" lon="86.722778">
        <ele>2872.2</ele>
        <time>2022-10-20T02:29:54.000Z</time>
      </trkpt>
      <trkpt lat="27.771811" lon="86.722765">
        <ele>2872.8</ele>
        <time>2022-10-20T02:29:58.000Z</time>
      </trkpt>
      <trkpt lat="27.771834" lon="86.722758">
        <ele>2873</ele>
        <time>2022-10-20T02:30:01.000Z</time>
      </trkpt>
      <trkpt lat="27.771853" lon="86.722758">
        <ele>2873.6</ele>
        <time>2022-10-20T02:30:04.000Z</time>
      </trkpt>
      <trkpt lat="27.771872" lon="86.722771">
        <ele>2874.2</ele>
        <time>2022-10-20T02:30:13.000Z</time>
      </trkpt>
      <trkpt lat="27.771891" lon="86.722771">
        <ele>2875</ele>
        <time>2022-10-20T02:30:18.000Z</time>
      </trkpt>
      <trkpt lat="27.77191" lon="86.722771">
        <ele>2875</ele>
        <time>2022-10-20T02:30:21.000Z</time>
      </trkpt>
      <trkpt lat="27.77193" lon="86.722771">
        <ele>2875.4</ele>
        <time>2022-10-20T02:30:24.000Z</time>
      </trkpt>
      <trkpt lat="27.771952" lon="86.722765">
        <ele>2875.2</ele>
        <time>2022-10-20T02:30:28.000Z</time>
      </trkpt>
      <trkpt lat="27.771971" lon="86.722765">
        <ele>2875.4</ele>
        <time>2022-10-20T02:30:30.000Z</time>
      </trkpt>
      <trkpt lat="27.77199" lon="86.722771">
        <ele>2875.8</ele>
        <time>2022-10-20T02:30:33.000Z</time>
      </trkpt>
      <trkpt lat="27.77201" lon="86.722771">
        <ele>2876.6</ele>
        <time>2022-10-20T02:30:38.000Z</time>
      </trkpt>
      <trkpt lat="27.772029" lon="86.722778">
        <ele>2877.2</ele>
        <time>2022-10-20T02:30:42.000Z</time>
      </trkpt>
      <trkpt lat="27.772048" lon="86.722771">
        <ele>2877.6</ele>
        <time>2022-10-20T02:30:44.000Z</time>
      </trkpt>
      <trkpt lat="27.772067" lon="86.722771">
        <ele>2877.8</ele>
        <time>2022-10-20T02:30:47.000Z</time>
      </trkpt>
      <trkpt lat="27.772086" lon="86.722778">
        <ele>2878.2</ele>
        <time>2022-10-20T02:30:50.000Z</time>
      </trkpt>
      <trkpt lat="27.772106" lon="86.722778">
        <ele>2878.4</ele>
        <time>2022-10-20T02:30:53.000Z</time>
      </trkpt>
      <trkpt lat="27.772125" lon="86.722784">
        <ele>2878.4</ele>
        <time>2022-10-20T02:30:55.000Z</time>
      </trkpt>
      <trkpt lat="27.77215" lon="86.72279">
        <ele>2879.2</ele>
        <time>2022-10-20T02:30:58.000Z</time>
      </trkpt>
      <trkpt lat="27.772166" lon="86.722803">
        <ele>2879.4</ele>
        <time>2022-10-20T02:31:00.000Z</time>
      </trkpt>
      <trkpt lat="27.772189" lon="86.72281">
        <ele>2879.4</ele>
        <time>2022-10-20T02:31:05.000Z</time>
      </trkpt>
      <trkpt lat="27.772205" lon="86.722822">
        <ele>2880.2</ele>
        <time>2022-10-20T02:31:09.000Z</time>
      </trkpt>
      <trkpt lat="27.772182" lon="86.722816">
        <ele>2880.2</ele>
        <time>2022-10-20T02:31:15.000Z</time>
      </trkpt>
      <trkpt lat="27.772198" lon="86.722842">
        <ele>2880.6</ele>
        <time>2022-10-20T02:31:30.000Z</time>
      </trkpt>
      <trkpt lat="27.772224" lon="86.722854">
        <ele>2880.6</ele>
        <time>2022-10-20T02:31:32.000Z</time>
      </trkpt>
      <trkpt lat="27.772246" lon="86.72288">
        <ele>2880.6</ele>
        <time>2022-10-20T02:31:34.000Z</time>
      </trkpt>
      <trkpt lat="27.772269" lon="86.722893">
        <ele>2880.6</ele>
        <time>2022-10-20T02:31:36.000Z</time>
      </trkpt>
      <trkpt lat="27.772285" lon="86.722906">
        <ele>2880.8</ele>
        <time>2022-10-20T02:31:37.000Z</time>
      </trkpt>
      <trkpt lat="27.772294" lon="86.722925">
        <ele>2880.8</ele>
        <time>2022-10-20T02:31:38.000Z</time>
      </trkpt>
      <trkpt lat="27.772317" lon="86.722938">
        <ele>2880.8</ele>
        <time>2022-10-20T02:31:41.000Z</time>
      </trkpt>
      <trkpt lat="27.772342" lon="86.722938">
        <ele>2880.6</ele>
        <time>2022-10-20T02:31:44.000Z</time>
      </trkpt>
      <trkpt lat="27.772368" lon="86.722957">
        <ele>2880.6</ele>
        <time>2022-10-20T02:31:46.000Z</time>
      </trkpt>
      <trkpt lat="27.772394" lon="86.722957">
        <ele>2880.6</ele>
        <time>2022-10-20T02:31:48.000Z</time>
      </trkpt>
      <trkpt lat="27.772416" lon="86.722963">
        <ele>2880.4</ele>
        <time>2022-10-20T02:31:50.000Z</time>
      </trkpt>
      <trkpt lat="27.772438" lon="86.722963">
        <ele>2880</ele>
        <time>2022-10-20T02:31:52.000Z</time>
      </trkpt>
      <trkpt lat="27.772461" lon="86.722963">
        <ele>2880</ele>
        <time>2022-10-20T02:31:54.000Z</time>
      </trkpt>
      <trkpt lat="27.772486" lon="86.722963">
        <ele>2880.2</ele>
        <time>2022-10-20T02:31:56.000Z</time>
      </trkpt>
      <trkpt lat="27.772512" lon="86.722963">
        <ele>2879.8</ele>
        <time>2022-10-20T02:31:58.000Z</time>
      </trkpt>
      <trkpt lat="27.772538" lon="86.72297">
        <ele>2879.8</ele>
        <time>2022-10-20T02:32:00.000Z</time>
      </trkpt>
      <trkpt lat="27.77256" lon="86.72297">
        <ele>2880</ele>
        <time>2022-10-20T02:32:02.000Z</time>
      </trkpt>
      <trkpt lat="27.772586" lon="86.722963">
        <ele>2879.8</ele>
        <time>2022-10-20T02:32:04.000Z</time>
      </trkpt>
      <trkpt lat="27.772608" lon="86.722957">
        <ele>2879.6</ele>
        <time>2022-10-20T02:32:06.000Z</time>
      </trkpt>
      <trkpt lat="27.772627" lon="86.722944">
        <ele>2879.4</ele>
        <time>2022-10-20T02:32:08.000Z</time>
      </trkpt>
      <trkpt lat="27.772653" lon="86.722938">
        <ele>2879.6</ele>
        <time>2022-10-20T02:32:10.000Z</time>
      </trkpt>
      <trkpt lat="27.772675" lon="86.722938">
        <ele>2880.2</ele>
        <time>2022-10-20T02:32:12.000Z</time>
      </trkpt>
      <trkpt lat="27.772694" lon="86.722938">
        <ele>2880</ele>
        <time>2022-10-20T02:32:14.000Z</time>
      </trkpt>
      <trkpt lat="27.77272" lon="86.722931">
        <ele>2880.2</ele>
        <time>2022-10-20T02:32:16.000Z</time>
      </trkpt>
      <trkpt lat="27.772739" lon="86.722931">
        <ele>2880.2</ele>
        <time>2022-10-20T02:32:18.000Z</time>
      </trkpt>
      <trkpt lat="27.772762" lon="86.722925">
        <ele>2880.4</ele>
        <time>2022-10-20T02:32:21.000Z</time>
      </trkpt>
      <trkpt lat="27.772787" lon="86.722925">
        <ele>2880.4</ele>
        <time>2022-10-20T02:32:24.000Z</time>
      </trkpt>
      <trkpt lat="27.77281" lon="86.722925">
        <ele>2881.2</ele>
        <time>2022-10-20T02:32:28.000Z</time>
      </trkpt>
      <trkpt lat="27.772835" lon="86.722918">
        <ele>2882</ele>
        <time>2022-10-20T02:32:32.000Z</time>
      </trkpt>
      <trkpt lat="27.772854" lon="86.722918">
        <ele>2882.4</ele>
        <time>2022-10-20T02:32:36.000Z</time>
      </trkpt>
      <trkpt lat="27.77287" lon="86.722899">
        <ele>2883</ele>
        <time>2022-10-20T02:32:40.000Z</time>
      </trkpt>
      <trkpt lat="27.77289" lon="86.722886">
        <ele>2883.8</ele>
        <time>2022-10-20T02:32:45.000Z</time>
      </trkpt>
      <trkpt lat="27.772909" lon="86.72288">
        <ele>2884</ele>
        <time>2022-10-20T02:32:49.000Z</time>
      </trkpt>
      <trkpt lat="27.772925" lon="86.722867">
        <ele>2884.6</ele>
        <time>2022-10-20T02:32:53.000Z</time>
      </trkpt>
      <trkpt lat="27.772944" lon="86.722854">
        <ele>2885.4</ele>
        <time>2022-10-20T02:32:57.000Z</time>
      </trkpt>
      <trkpt lat="27.77296" lon="86.722842">
        <ele>2886</ele>
        <time>2022-10-20T02:33:00.000Z</time>
      </trkpt>
      <trkpt lat="27.77297" lon="86.722822">
        <ele>2886</ele>
        <time>2022-10-20T02:33:02.000Z</time>
      </trkpt>
      <trkpt lat="27.772989" lon="86.722803">
        <ele>2886.2</ele>
        <time>2022-10-20T02:33:05.000Z</time>
      </trkpt>
      <trkpt lat="27.772998" lon="86.722778">
        <ele>2886.2</ele>
        <time>2022-10-20T02:33:07.000Z</time>
      </trkpt>
      <trkpt lat="27.773021" lon="86.722758">
        <ele>2886.4</ele>
        <time>2022-10-20T02:33:09.000Z</time>
      </trkpt>
      <trkpt lat="27.773043" lon="86.722758">
        <ele>2886.2</ele>
        <time>2022-10-20T02:33:11.000Z</time>
      </trkpt>
      <trkpt lat="27.773069" lon="86.722771">
        <ele>2886.2</ele>
        <time>2022-10-20T02:33:13.000Z</time>
      </trkpt>
      <trkpt lat="27.773091" lon="86.722778">
        <ele>2886.2</ele>
        <time>2022-10-20T02:33:15.000Z</time>
      </trkpt>
      <trkpt lat="27.773114" lon="86.722778">
        <ele>2886</ele>
        <time>2022-10-20T02:33:17.000Z</time>
      </trkpt>
      <trkpt lat="27.773133" lon="86.722778">
        <ele>2886.2</ele>
        <time>2022-10-20T02:33:20.000Z</time>
      </trkpt>
      <trkpt lat="27.773142" lon="86.722758">
        <ele>2886.2</ele>
        <time>2022-10-20T02:33:25.000Z</time>
      </trkpt>
      <trkpt lat="27.773149" lon="86.722733">
        <ele>2886.4</ele>
        <time>2022-10-20T02:33:31.000Z</time>
      </trkpt>
      <trkpt lat="27.773171" lon="86.722726">
        <ele>2886.6</ele>
        <time>2022-10-20T02:33:34.000Z</time>
      </trkpt>
      <trkpt lat="27.773184" lon="86.722707">
        <ele>2886.8</ele>
        <time>2022-10-20T02:33:36.000Z</time>
      </trkpt>
      <trkpt lat="27.77321" lon="86.722701">
        <ele>2886.6</ele>
        <time>2022-10-20T02:33:39.000Z</time>
      </trkpt>
      <trkpt lat="27.773235" lon="86.722701">
        <ele>2887</ele>
        <time>2022-10-20T02:33:42.000Z</time>
      </trkpt>
      <trkpt lat="27.773251" lon="86.722688">
        <ele>2887</ele>
        <time>2022-10-20T02:33:44.000Z</time>
      </trkpt>
      <trkpt lat="27.773277" lon="86.722669">
        <ele>2887</ele>
        <time>2022-10-20T02:33:47.000Z</time>
      </trkpt>
      <trkpt lat="27.773293" lon="86.722656">
        <ele>2887</ele>
        <time>2022-10-20T02:33:49.000Z</time>
      </trkpt>
      <trkpt lat="27.773306" lon="86.72263">
        <ele>2887.6</ele>
        <time>2022-10-20T02:33:51.000Z</time>
      </trkpt>
      <trkpt lat="27.773325" lon="86.722618">
        <ele>2888</ele>
        <time>2022-10-20T02:33:54.000Z</time>
      </trkpt>
      <trkpt lat="27.773341" lon="86.722605">
        <ele>2888.2</ele>
        <time>2022-10-20T02:33:57.000Z</time>
      </trkpt>
      <trkpt lat="27.773354" lon="86.722586">
        <ele>2888.4</ele>
        <time>2022-10-20T02:33:59.000Z</time>
      </trkpt>
      <trkpt lat="27.77336" lon="86.722566">
        <ele>2888.6</ele>
        <time>2022-10-20T02:34:01.000Z</time>
      </trkpt>
      <trkpt lat="27.77337" lon="86.722541">
        <ele>2888.8</ele>
        <time>2022-10-20T02:34:03.000Z</time>
      </trkpt>
      <trkpt lat="27.77337" lon="86.722509">
        <ele>2888.8</ele>
        <time>2022-10-20T02:34:05.000Z</time>
      </trkpt>
      <trkpt lat="27.773386" lon="86.72249">
        <ele>2888.6</ele>
        <time>2022-10-20T02:34:08.000Z</time>
      </trkpt>
      <trkpt lat="27.773411" lon="86.72247">
        <ele>2888.4</ele>
        <time>2022-10-20T02:34:10.000Z</time>
      </trkpt>
      <trkpt lat="27.77343" lon="86.72247">
        <ele>2888.4</ele>
        <time>2022-10-20T02:34:12.000Z</time>
      </trkpt>
      <trkpt lat="27.773456" lon="86.72247">
        <ele>2888.4</ele>
        <time>2022-10-20T02:34:14.000Z</time>
      </trkpt>
      <trkpt lat="27.773478" lon="86.722458">
        <ele>2888.2</ele>
        <time>2022-10-20T02:34:17.000Z</time>
      </trkpt>
      <trkpt lat="27.773494" lon="86.722432">
        <ele>2888.2</ele>
        <time>2022-10-20T02:34:20.000Z</time>
      </trkpt>
      <trkpt lat="27.77351" lon="86.722419">
        <ele>2886.8</ele>
        <time>2022-10-20T02:34:26.000Z</time>
      </trkpt>
      <trkpt lat="27.773517" lon="86.7224">
        <ele>2886</ele>
        <time>2022-10-20T02:34:33.000Z</time>
      </trkpt>
      <trkpt lat="27.773536" lon="86.722387">
        <ele>2884.8</ele>
        <time>2022-10-20T02:34:44.000Z</time>
      </trkpt>
      <trkpt lat="27.773555" lon="86.7224">
        <ele>2883.6</ele>
        <time>2022-10-20T02:35:12.000Z</time>
      </trkpt>
      <trkpt lat="27.773571" lon="86.722381">
        <ele>2883.4</ele>
        <time>2022-10-20T02:35:14.000Z</time>
      </trkpt>
      <trkpt lat="27.77359" lon="86.722362">
        <ele>2883</ele>
        <time>2022-10-20T02:35:17.000Z</time>
      </trkpt>
      <trkpt lat="27.77359" lon="86.722336">
        <ele>2883</ele>
        <time>2022-10-20T02:35:21.000Z</time>
      </trkpt>
      <trkpt lat="27.773568" lon="86.72233">
        <ele>2883.4</ele>
        <time>2022-10-20T02:36:19.000Z</time>
      </trkpt>
      <trkpt lat="27.773565" lon="86.722362">
        <ele>2883.8</ele>
        <time>2022-10-20T02:37:55.000Z</time>
      </trkpt>
      <trkpt lat="27.773574" lon="86.722342">
        <ele>2883.6</ele>
        <time>2022-10-20T02:37:58.000Z</time>
      </trkpt>
      <trkpt lat="27.773584" lon="86.722362">
        <ele>2883.8</ele>
        <time>2022-10-20T02:39:21.000Z</time>
      </trkpt>
      <trkpt lat="27.773574" lon="86.722381">
        <ele>2883.8</ele>
        <time>2022-10-20T02:39:26.000Z</time>
      </trkpt>
      <trkpt lat="27.773568" lon="86.722413">
        <ele>2883.8</ele>
        <time>2022-10-20T02:39:31.000Z</time>
      </trkpt>
      <trkpt lat="27.773574" lon="86.722432">
        <ele>2883.6</ele>
        <time>2022-10-20T02:39:46.000Z</time>
      </trkpt>
      <trkpt lat="27.773597" lon="86.722464">
        <ele>2883.6</ele>
        <time>2022-10-20T02:40:35.000Z</time>
      </trkpt>
      <trkpt lat="27.773626" lon="86.72247">
        <ele>2883.6</ele>
        <time>2022-10-20T02:41:09.000Z</time>
      </trkpt>
      <trkpt lat="27.773645" lon="86.722483">
        <ele>2883.4</ele>
        <time>2022-10-20T02:41:13.000Z</time>
      </trkpt>
      <trkpt lat="27.773664" lon="86.722458">
        <ele>2883.4</ele>
        <time>2022-10-20T02:41:17.000Z</time>
      </trkpt>
      <trkpt lat="27.773674" lon="86.722432">
        <ele>2883.6</ele>
        <time>2022-10-20T02:41:19.000Z</time>
      </trkpt>
      <trkpt lat="27.773683" lon="86.722413">
        <ele>2883.4</ele>
        <time>2022-10-20T02:41:22.000Z</time>
      </trkpt>
      <trkpt lat="27.773696" lon="86.722387">
        <ele>2883.4</ele>
        <time>2022-10-20T02:41:25.000Z</time>
      </trkpt>
      <trkpt lat="27.773706" lon="86.722368">
        <ele>2883.4</ele>
        <time>2022-10-20T02:41:30.000Z</time>
      </trkpt>
      <trkpt lat="27.773709" lon="86.722342">
        <ele>2883.4</ele>
        <time>2022-10-20T02:41:34.000Z</time>
      </trkpt>
      <trkpt lat="27.773699" lon="86.722323">
        <ele>2883.6</ele>
        <time>2022-10-20T02:42:25.000Z</time>
      </trkpt>
      <trkpt lat="27.77369" lon="86.722304">
        <ele>2883.6</ele>
        <time>2022-10-20T02:42:31.000Z</time>
      </trkpt>
      <trkpt lat="27.77369" lon="86.72233">
        <ele>2883.4</ele>
        <time>2022-10-20T02:46:09.000Z</time>
      </trkpt>
      <trkpt lat="27.773709" lon="86.722336">
        <ele>2883.6</ele>
        <time>2022-10-20T02:46:13.000Z</time>
      </trkpt>
      <trkpt lat="27.773715" lon="86.72231">
        <ele>2883.6</ele>
        <time>2022-10-20T02:46:22.000Z</time>
      </trkpt>
      <trkpt lat="27.773728" lon="86.722291">
        <ele>2883.8</ele>
        <time>2022-10-20T02:46:26.000Z</time>
      </trkpt>
      <trkpt lat="27.773728" lon="86.722266">
        <ele>2883.8</ele>
        <time>2022-10-20T02:46:33.000Z</time>
      </trkpt>
      <trkpt lat="27.773754" lon="86.722246">
        <ele>2883.2</ele>
        <time>2022-10-20T02:46:50.000Z</time>
      </trkpt>
      <trkpt lat="27.773754" lon="86.722221">
        <ele>2883.2</ele>
        <time>2022-10-20T02:46:51.000Z</time>
      </trkpt>
      <trkpt lat="27.773766" lon="86.722202">
        <ele>2883.4</ele>
        <time>2022-10-20T02:46:53.000Z</time>
      </trkpt>
      <trkpt lat="27.773786" lon="86.722202">
        <ele>2883.4</ele>
        <time>2022-10-20T02:46:57.000Z</time>
      </trkpt>
      <trkpt lat="27.773802" lon="86.722189">
        <ele>2883.2</ele>
        <time>2022-10-20T02:47:01.000Z</time>
      </trkpt>
      <trkpt lat="27.773808" lon="86.722214">
        <ele>2883.4</ele>
        <time>2022-10-20T02:47:07.000Z</time>
      </trkpt>
      <trkpt lat="27.773827" lon="86.722214">
        <ele>2883.4</ele>
        <time>2022-10-20T02:47:12.000Z</time>
      </trkpt>
      <trkpt lat="27.773894" lon="86.722202">
        <ele>2880.8</ele>
        <time>2022-10-20T02:48:12.000Z</time>
      </trkpt>
      <trkpt lat="27.77391" lon="86.722182">
        <ele>2880.4</ele>
        <time>2022-10-20T02:48:14.000Z</time>
      </trkpt>
      <trkpt lat="27.77393" lon="86.72217">
        <ele>2879.6</ele>
        <time>2022-10-20T02:48:17.000Z</time>
      </trkpt>
      <trkpt lat="27.773936" lon="86.72215">
        <ele>2879</ele>
        <time>2022-10-20T02:48:19.000Z</time>
      </trkpt>
      <trkpt lat="27.77392" lon="86.722112">
        <ele>2879</ele>
        <time>2022-10-20T02:48:31.000Z</time>
      </trkpt>
      <trkpt lat="27.773904" lon="86.722093">
        <ele>2879</ele>
        <time>2022-10-20T02:48:33.000Z</time>
      </trkpt>
      <trkpt lat="27.77392" lon="86.722074">
        <ele>2878</ele>
        <time>2022-10-20T02:48:48.000Z</time>
      </trkpt>
      <trkpt lat="27.773926" lon="86.722054">
        <ele>2877.4</ele>
        <time>2022-10-20T02:48:53.000Z</time>
      </trkpt>
      <trkpt lat="27.773933" lon="86.722035">
        <ele>2876.6</ele>
        <time>2022-10-20T02:48:58.000Z</time>
      </trkpt>
      <trkpt lat="27.773952" lon="86.722035">
        <ele>2875.2</ele>
        <time>2022-10-20T02:49:03.000Z</time>
      </trkpt>
      <trkpt lat="27.773971" lon="86.722035">
        <ele>2874.4</ele>
        <time>2022-10-20T02:49:07.000Z</time>
      </trkpt>
      <trkpt lat="27.773987" lon="86.722054">
        <ele>2873.6</ele>
        <time>2022-10-20T02:49:10.000Z</time>
      </trkpt>
      <trkpt lat="27.774006" lon="86.722067">
        <ele>2873.4</ele>
        <time>2022-10-20T02:49:12.000Z</time>
      </trkpt>
      <trkpt lat="27.774032" lon="86.722067">
        <ele>2873</ele>
        <time>2022-10-20T02:49:15.000Z</time>
      </trkpt>
      <trkpt lat="27.774054" lon="86.722086">
        <ele>2871.8</ele>
        <time>2022-10-20T02:49:18.000Z</time>
      </trkpt>
      <trkpt lat="27.774074" lon="86.722093">
        <ele>2871.2</ele>
        <time>2022-10-20T02:49:21.000Z</time>
      </trkpt>
      <trkpt lat="27.774086" lon="86.722112">
        <ele>2870.8</ele>
        <time>2022-10-20T02:49:25.000Z</time>
      </trkpt>
      <trkpt lat="27.774106" lon="86.722125">
        <ele>2870</ele>
        <time>2022-10-20T02:49:28.000Z</time>
      </trkpt>
      <trkpt lat="27.774125" lon="86.722125">
        <ele>2869.4</ele>
        <time>2022-10-20T02:49:32.000Z</time>
      </trkpt>
      <trkpt lat="27.774128" lon="86.722099">
        <ele>2869</ele>
        <time>2022-10-20T02:49:36.000Z</time>
      </trkpt>
      <trkpt lat="27.77415" lon="86.722086">
        <ele>2868.4</ele>
        <time>2022-10-20T02:49:39.000Z</time>
      </trkpt>
      <trkpt lat="27.77415" lon="86.722061">
        <ele>2868</ele>
        <time>2022-10-20T02:49:40.000Z</time>
      </trkpt>
      <trkpt lat="27.774163" lon="86.722035">
        <ele>2867</ele>
        <time>2022-10-20T02:49:45.000Z</time>
      </trkpt>
      <trkpt lat="27.774182" lon="86.722029">
        <ele>2866.6</ele>
        <time>2022-10-20T02:49:50.000Z</time>
      </trkpt>
      <trkpt lat="27.774205" lon="86.722029">
        <ele>2866</ele>
        <time>2022-10-20T02:49:53.000Z</time>
      </trkpt>
      <trkpt lat="27.77423" lon="86.722035">
        <ele>2865.4</ele>
        <time>2022-10-20T02:49:55.000Z</time>
      </trkpt>
      <trkpt lat="27.77425" lon="86.722035">
        <ele>2865</ele>
        <time>2022-10-20T02:50:00.000Z</time>
      </trkpt>
      <trkpt lat="27.774275" lon="86.722035">
        <ele>2863.8</ele>
        <time>2022-10-20T02:50:04.000Z</time>
      </trkpt>
      <trkpt lat="27.774298" lon="86.722035">
        <ele>2863.4</ele>
        <time>2022-10-20T02:50:07.000Z</time>
      </trkpt>
      <trkpt lat="27.77432" lon="86.722022">
        <ele>2862.6</ele>
        <time>2022-10-20T02:50:14.000Z</time>
      </trkpt>
      <trkpt lat="27.774333" lon="86.722003">
        <ele>2862.2</ele>
        <time>2022-10-20T02:50:17.000Z</time>
      </trkpt>
      <trkpt lat="27.774342" lon="86.721971">
        <ele>2861.4</ele>
        <time>2022-10-20T02:50:19.000Z</time>
      </trkpt>
      <trkpt lat="27.774336" lon="86.721952">
        <ele>2861.4</ele>
        <time>2022-10-20T02:50:47.000Z</time>
      </trkpt>
      <trkpt lat="27.774317" lon="86.721952">
        <ele>2860.6</ele>
        <time>2022-10-20T02:51:04.000Z</time>
      </trkpt>
      <trkpt lat="27.774294" lon="86.721965">
        <ele>2861</ele>
        <time>2022-10-20T02:51:09.000Z</time>
      </trkpt>
      <trkpt lat="27.774275" lon="86.721952">
        <ele>2859.2</ele>
        <time>2022-10-20T02:51:19.000Z</time>
      </trkpt>
      <trkpt lat="27.774282" lon="86.721926">
        <ele>2857.6</ele>
        <time>2022-10-20T02:51:26.000Z</time>
      </trkpt>
      <trkpt lat="27.774304" lon="86.721914">
        <ele>2856.2</ele>
        <time>2022-10-20T02:51:32.000Z</time>
      </trkpt>
      <trkpt lat="27.77432" lon="86.721926">
        <ele>2855.6</ele>
        <time>2022-10-20T02:51:35.000Z</time>
      </trkpt>
      <trkpt lat="27.774342" lon="86.721933">
        <ele>2855.2</ele>
        <time>2022-10-20T02:51:38.000Z</time>
      </trkpt>
      <trkpt lat="27.774358" lon="86.721914">
        <ele>2854.2</ele>
        <time>2022-10-20T02:51:43.000Z</time>
      </trkpt>
      <trkpt lat="27.774374" lon="86.721926">
        <ele>2853.6</ele>
        <time>2022-10-20T02:51:45.000Z</time>
      </trkpt>
      <trkpt lat="27.774397" lon="86.721933">
        <ele>2853.4</ele>
        <time>2022-10-20T02:51:47.000Z</time>
      </trkpt>
      <trkpt lat="27.774419" lon="86.721946">
        <ele>2852.6</ele>
        <time>2022-10-20T02:51:50.000Z</time>
      </trkpt>
      <trkpt lat="27.774438" lon="86.721933">
        <ele>2851.6</ele>
        <time>2022-10-20T02:51:55.000Z</time>
      </trkpt>
      <trkpt lat="27.774474" lon="86.721926">
        <ele>2849.8</ele>
        <time>2022-10-20T02:52:02.000Z</time>
      </trkpt>
      <trkpt lat="27.774499" lon="86.721926">
        <ele>2849.8</ele>
        <time>2022-10-20T02:52:03.000Z</time>
      </trkpt>
      <trkpt lat="27.774518" lon="86.721926">
        <ele>2849.2</ele>
        <time>2022-10-20T02:52:05.000Z</time>
      </trkpt>
      <trkpt lat="27.774538" lon="86.721926">
        <ele>2849</ele>
        <time>2022-10-20T02:52:07.000Z</time>
      </trkpt>
      <trkpt lat="27.77455" lon="86.721907">
        <ele>2848.4</ele>
        <time>2022-10-20T02:52:11.000Z</time>
      </trkpt>
      <trkpt lat="27.77456" lon="86.721875">
        <ele>2848.2</ele>
        <time>2022-10-20T02:52:14.000Z</time>
      </trkpt>
      <trkpt lat="27.774573" lon="86.721856">
        <ele>2847.8</ele>
        <time>2022-10-20T02:52:16.000Z</time>
      </trkpt>
      <trkpt lat="27.77457" lon="86.72183">
        <ele>2847.6</ele>
        <time>2022-10-20T02:52:18.000Z</time>
      </trkpt>
      <trkpt lat="27.774592" lon="86.721824">
        <ele>2847.2</ele>
        <time>2022-10-20T02:52:23.000Z</time>
      </trkpt>
      <trkpt lat="27.774618" lon="86.721818">
        <ele>2846</ele>
        <time>2022-10-20T02:52:31.000Z</time>
      </trkpt>
      <trkpt lat="27.774637" lon="86.721805">
        <ele>2845.4</ele>
        <time>2022-10-20T02:52:36.000Z</time>
      </trkpt>
      <trkpt lat="27.774669" lon="86.721818">
        <ele>2845.4</ele>
        <time>2022-10-20T02:52:39.000Z</time>
      </trkpt>
      <trkpt lat="27.774685" lon="86.72183">
        <ele>2845.2</ele>
        <time>2022-10-20T02:52:40.000Z</time>
      </trkpt>
      <trkpt lat="27.774698" lon="86.72185">
        <ele>2845</ele>
        <time>2022-10-20T02:52:41.000Z</time>
      </trkpt>
      <trkpt lat="27.77472" lon="86.721869">
        <ele>2844.6</ele>
        <time>2022-10-20T02:52:43.000Z</time>
      </trkpt>
      <trkpt lat="27.774739" lon="86.721875">
        <ele>2844</ele>
        <time>2022-10-20T02:52:46.000Z</time>
      </trkpt>
      <trkpt lat="27.774765" lon="86.721862">
        <ele>2844</ele>
        <time>2022-10-20T02:52:49.000Z</time>
      </trkpt>
      <trkpt lat="27.774787" lon="86.721856">
        <ele>2843.2</ele>
        <time>2022-10-20T02:52:52.000Z</time>
      </trkpt>
      <trkpt lat="27.774806" lon="86.721856">
        <ele>2842.6</ele>
        <time>2022-10-20T02:52:56.000Z</time>
      </trkpt>
      <trkpt lat="27.774826" lon="86.721856">
        <ele>2842</ele>
        <time>2022-10-20T02:52:58.000Z</time>
      </trkpt>
      <trkpt lat="27.774848" lon="86.721837">
        <ele>2841.6</ele>
        <time>2022-10-20T02:53:00.000Z</time>
      </trkpt>
      <trkpt lat="27.774874" lon="86.721824">
        <ele>2841.4</ele>
        <time>2022-10-20T02:53:03.000Z</time>
      </trkpt>
      <trkpt lat="27.774896" lon="86.721818">
        <ele>2840.8</ele>
        <time>2022-10-20T02:53:06.000Z</time>
      </trkpt>
      <trkpt lat="27.774925" lon="86.72183">
        <ele>2840.4</ele>
        <time>2022-10-20T02:53:11.000Z</time>
      </trkpt>
      <trkpt lat="27.77495" lon="86.721824">
        <ele>2839.8</ele>
        <time>2022-10-20T02:53:13.000Z</time>
      </trkpt>
      <trkpt lat="27.774976" lon="86.72183">
        <ele>2839.6</ele>
        <time>2022-10-20T02:53:15.000Z</time>
      </trkpt>
      <trkpt lat="27.774998" lon="86.721837">
        <ele>2839.4</ele>
        <time>2022-10-20T02:53:18.000Z</time>
      </trkpt>
      <trkpt lat="27.775018" lon="86.721862">
        <ele>2839.2</ele>
        <time>2022-10-20T02:53:20.000Z</time>
      </trkpt>
      <trkpt lat="27.775034" lon="86.721875">
        <ele>2839.2</ele>
        <time>2022-10-20T02:53:23.000Z</time>
      </trkpt>
      <trkpt lat="27.77505" lon="86.721862">
        <ele>2838.4</ele>
        <time>2022-10-20T02:53:29.000Z</time>
      </trkpt>
      <trkpt lat="27.775069" lon="86.721862">
        <ele>2838.4</ele>
        <time>2022-10-20T02:53:32.000Z</time>
      </trkpt>
      <trkpt lat="27.775094" lon="86.721862">
        <ele>2837.4</ele>
        <time>2022-10-20T02:53:35.000Z</time>
      </trkpt>
      <trkpt lat="27.775114" lon="86.721869">
        <ele>2836.8</ele>
        <time>2022-10-20T02:53:39.000Z</time>
      </trkpt>
      <trkpt lat="27.775136" lon="86.721894">
        <ele>2836.8</ele>
        <time>2022-10-20T02:53:43.000Z</time>
      </trkpt>
      <trkpt lat="27.775158" lon="86.721888">
        <ele>2836.4</ele>
        <time>2022-10-20T02:53:46.000Z</time>
      </trkpt>
      <trkpt lat="27.775178" lon="86.721901">
        <ele>2836</ele>
        <time>2022-10-20T02:53:48.000Z</time>
      </trkpt>
      <trkpt lat="27.775197" lon="86.721894">
        <ele>2834.6</ele>
        <time>2022-10-20T02:53:58.000Z</time>
      </trkpt>
      <trkpt lat="27.775203" lon="86.721914">
        <ele>2834.6</ele>
        <time>2022-10-20T02:54:00.000Z</time>
      </trkpt>
      <trkpt lat="27.775222" lon="86.721914">
        <ele>2834.2</ele>
        <time>2022-10-20T02:54:03.000Z</time>
      </trkpt>
      <trkpt lat="27.775248" lon="86.721907">
        <ele>2833.8</ele>
        <time>2022-10-20T02:54:06.000Z</time>
      </trkpt>
      <trkpt lat="27.775274" lon="86.721901">
        <ele>2833</ele>
        <time>2022-10-20T02:54:08.000Z</time>
      </trkpt>
      <trkpt lat="27.775299" lon="86.721894">
        <ele>2833.4</ele>
        <time>2022-10-20T02:54:10.000Z</time>
      </trkpt>
      <trkpt lat="27.775312" lon="86.721914">
        <ele>2833</ele>
        <time>2022-10-20T02:54:14.000Z</time>
      </trkpt>
      <trkpt lat="27.775312" lon="86.721939">
        <ele>2833</ele>
        <time>2022-10-20T02:54:21.000Z</time>
      </trkpt>
      <trkpt lat="27.775325" lon="86.721965">
        <ele>2833</ele>
        <time>2022-10-20T02:54:27.000Z</time>
      </trkpt>
      <trkpt lat="27.775325" lon="86.72199">
        <ele>2832.6</ele>
        <time>2022-10-20T02:54:34.000Z</time>
      </trkpt>
      <trkpt lat="27.775347" lon="86.72201">
        <ele>2833</ele>
        <time>2022-10-20T02:55:03.000Z</time>
      </trkpt>
      <trkpt lat="27.775376" lon="86.72201">
        <ele>2832.6</ele>
        <time>2022-10-20T02:55:05.000Z</time>
      </trkpt>
      <trkpt lat="27.775405" lon="86.722003">
        <ele>2832.6</ele>
        <time>2022-10-20T02:55:07.000Z</time>
      </trkpt>
      <trkpt lat="27.775424" lon="86.722003">
        <ele>2832.6</ele>
        <time>2022-10-20T02:55:09.000Z</time>
      </trkpt>
      <trkpt lat="27.77544" lon="86.721978">
        <ele>2832.6</ele>
        <time>2022-10-20T02:55:11.000Z</time>
      </trkpt>
      <trkpt lat="27.775456" lon="86.721965">
        <ele>2832.2</ele>
        <time>2022-10-20T02:55:13.000Z</time>
      </trkpt>
      <trkpt lat="27.775472" lon="86.721952">
        <ele>2832</ele>
        <time>2022-10-20T02:55:15.000Z</time>
      </trkpt>
      <trkpt lat="27.775491" lon="86.721952">
        <ele>2831.6</ele>
        <time>2022-10-20T02:55:18.000Z</time>
      </trkpt>
      <trkpt lat="27.775494" lon="86.721926">
        <ele>2831.4</ele>
        <time>2022-10-20T02:55:21.000Z</time>
      </trkpt>
      <trkpt lat="27.77551" lon="86.721901">
        <ele>2831.2</ele>
        <time>2022-10-20T02:55:23.000Z</time>
      </trkpt>
      <trkpt lat="27.77553" lon="86.721894">
        <ele>2830.8</ele>
        <time>2022-10-20T02:55:25.000Z</time>
      </trkpt>
      <trkpt lat="27.775555" lon="86.721888">
        <ele>2830.2</ele>
        <time>2022-10-20T02:55:28.000Z</time>
      </trkpt>
      <trkpt lat="27.775597" lon="86.721862">
        <ele>2829.8</ele>
        <time>2022-10-20T02:55:32.000Z</time>
      </trkpt>
      <trkpt lat="27.775613" lon="86.721894">
        <ele>2829.8</ele>
        <time>2022-10-20T02:55:33.000Z</time>
      </trkpt>
      <trkpt lat="27.775632" lon="86.721901">
        <ele>2829.8</ele>
        <time>2022-10-20T02:55:35.000Z</time>
      </trkpt>
      <trkpt lat="27.775651" lon="86.721894">
        <ele>2829.6</ele>
        <time>2022-10-20T02:55:37.000Z</time>
      </trkpt>
      <trkpt lat="27.775674" lon="86.721888">
        <ele>2829.4</ele>
        <time>2022-10-20T02:55:40.000Z</time>
      </trkpt>
      <trkpt lat="27.77569" lon="86.721875">
        <ele>2829.2</ele>
        <time>2022-10-20T02:55:42.000Z</time>
      </trkpt>
      <trkpt lat="27.775712" lon="86.721875">
        <ele>2829</ele>
        <time>2022-10-20T02:55:44.000Z</time>
      </trkpt>
      <trkpt lat="27.775731" lon="86.721875">
        <ele>2828.8</ele>
        <time>2022-10-20T02:55:46.000Z</time>
      </trkpt>
      <trkpt lat="27.77575" lon="86.721869">
        <ele>2828.8</ele>
        <time>2022-10-20T02:55:48.000Z</time>
      </trkpt>
      <trkpt lat="27.77577" lon="86.721869">
        <ele>2828.8</ele>
        <time>2022-10-20T02:55:58.000Z</time>
      </trkpt>
      <trkpt lat="27.775789" lon="86.721862">
        <ele>2828.8</ele>
        <time>2022-10-20T02:56:04.000Z</time>
      </trkpt>
      <trkpt lat="27.775808" lon="86.721875">
        <ele>2828.8</ele>
        <time>2022-10-20T02:56:07.000Z</time>
      </trkpt>
      <trkpt lat="27.775827" lon="86.721894">
        <ele>2828.6</ele>
        <time>2022-10-20T02:56:09.000Z</time>
      </trkpt>
      <trkpt lat="27.775846" lon="86.721907">
        <ele>2828.4</ele>
        <time>2022-10-20T02:56:11.000Z</time>
      </trkpt>
      <trkpt lat="27.775872" lon="86.721933">
        <ele>2828.2</ele>
        <time>2022-10-20T02:56:13.000Z</time>
      </trkpt>
      <trkpt lat="27.775894" lon="86.721946">
        <ele>2828</ele>
        <time>2022-10-20T02:56:15.000Z</time>
      </trkpt>
      <trkpt lat="27.775907" lon="86.721965">
        <ele>2828</ele>
        <time>2022-10-20T02:56:16.000Z</time>
      </trkpt>
      <trkpt lat="27.775923" lon="86.721984">
        <ele>2828</ele>
        <time>2022-10-20T02:56:18.000Z</time>
      </trkpt>
      <trkpt lat="27.775949" lon="86.722003">
        <ele>2827.8</ele>
        <time>2022-10-20T02:56:20.000Z</time>
      </trkpt>
      <trkpt lat="27.775974" lon="86.722016">
        <ele>2827.8</ele>
        <time>2022-10-20T02:56:22.000Z</time>
      </trkpt>
      <trkpt lat="27.776" lon="86.722029">
        <ele>2827</ele>
        <time>2022-10-20T02:56:25.000Z</time>
      </trkpt>
      <trkpt lat="27.776016" lon="86.722048">
        <ele>2826.8</ele>
        <time>2022-10-20T02:56:27.000Z</time>
      </trkpt>
      <trkpt lat="27.776038" lon="86.722048">
        <ele>2826.4</ele>
        <time>2022-10-20T02:56:29.000Z</time>
      </trkpt>
      <trkpt lat="27.776061" lon="86.722054">
        <ele>2826.2</ele>
        <time>2022-10-20T02:56:32.000Z</time>
      </trkpt>
      <trkpt lat="27.77608" lon="86.722048">
        <ele>2825.6</ele>
        <time>2022-10-20T02:56:35.000Z</time>
      </trkpt>
      <trkpt lat="27.776099" lon="86.722035">
        <ele>2825.2</ele>
        <time>2022-10-20T02:56:37.000Z</time>
      </trkpt>
      <trkpt lat="27.776118" lon="86.722048">
        <ele>2825.2</ele>
        <time>2022-10-20T02:56:40.000Z</time>
      </trkpt>
      <trkpt lat="27.776141" lon="86.722048">
        <ele>2825.2</ele>
        <time>2022-10-20T02:56:42.000Z</time>
      </trkpt>
      <trkpt lat="27.77616" lon="86.722054">
        <ele>2825.6</ele>
        <time>2022-10-20T02:56:45.000Z</time>
      </trkpt>
      <trkpt lat="27.776173" lon="86.722074">
        <ele>2826.4</ele>
        <time>2022-10-20T02:56:49.000Z</time>
      </trkpt>
      <trkpt lat="27.776198" lon="86.722067">
        <ele>2827</ele>
        <time>2022-10-20T02:56:53.000Z</time>
      </trkpt>
      <trkpt lat="27.776218" lon="86.722061">
        <ele>2828.4</ele>
        <time>2022-10-20T02:57:01.000Z</time>
      </trkpt>
      <trkpt lat="27.776234" lon="86.722035">
        <ele>2829.6</ele>
        <time>2022-10-20T02:57:07.000Z</time>
      </trkpt>
      <trkpt lat="27.77625" lon="86.722048">
        <ele>2830.4</ele>
        <time>2022-10-20T02:57:11.000Z</time>
      </trkpt>
      <trkpt lat="27.776266" lon="86.722061">
        <ele>2830.6</ele>
        <time>2022-10-20T02:57:14.000Z</time>
      </trkpt>
      <trkpt lat="27.776285" lon="86.722086">
        <ele>2831.2</ele>
        <time>2022-10-20T02:57:17.000Z</time>
      </trkpt>
      <trkpt lat="27.776301" lon="86.722106">
        <ele>2831.8</ele>
        <time>2022-10-20T02:57:21.000Z</time>
      </trkpt>
      <trkpt lat="27.776326" lon="86.722125">
        <ele>2832</ele>
        <time>2022-10-20T02:57:24.000Z</time>
      </trkpt>
      <trkpt lat="27.776346" lon="86.722125">
        <ele>2832</ele>
        <time>2022-10-20T02:57:42.000Z</time>
      </trkpt>
      <trkpt lat="27.776365" lon="86.722106">
        <ele>2830.4</ele>
        <time>2022-10-20T02:58:40.000Z</time>
      </trkpt>
      <trkpt lat="27.776384" lon="86.722086">
        <ele>2830.2</ele>
        <time>2022-10-20T02:58:42.000Z</time>
      </trkpt>
      <trkpt lat="27.776394" lon="86.722067">
        <ele>2830</ele>
        <time>2022-10-20T02:58:43.000Z</time>
      </trkpt>
      <trkpt lat="27.776416" lon="86.722035">
        <ele>2829.2</ele>
        <time>2022-10-20T02:58:46.000Z</time>
      </trkpt>
      <trkpt lat="27.776435" lon="86.722016">
        <ele>2829.2</ele>
        <time>2022-10-20T02:58:48.000Z</time>
      </trkpt>
      <trkpt lat="27.776445" lon="86.72199">
        <ele>2828.8</ele>
        <time>2022-10-20T02:58:50.000Z</time>
      </trkpt>
      <trkpt lat="27.776464" lon="86.721971">
        <ele>2828.2</ele>
        <time>2022-10-20T02:58:53.000Z</time>
      </trkpt>
      <trkpt lat="27.776474" lon="86.721946">
        <ele>2828</ele>
        <time>2022-10-20T02:58:55.000Z</time>
      </trkpt>
      <trkpt lat="27.77649" lon="86.721926">
        <ele>2827.8</ele>
        <time>2022-10-20T02:58:58.000Z</time>
      </trkpt>
      <trkpt lat="27.776502" lon="86.721907">
        <ele>2827.4</ele>
        <time>2022-10-20T02:59:00.000Z</time>
      </trkpt>
      <trkpt lat="27.776518" lon="86.721875">
        <ele>2827.4</ele>
        <time>2022-10-20T02:59:03.000Z</time>
      </trkpt>
      <trkpt lat="27.776528" lon="86.721856">
        <ele>2827</ele>
        <time>2022-10-20T02:59:05.000Z</time>
      </trkpt>
      <trkpt lat="27.776538" lon="86.721837">
        <ele>2826.8</ele>
        <time>2022-10-20T02:59:07.000Z</time>
      </trkpt>
      <trkpt lat="27.77655" lon="86.721818">
        <ele>2826.4</ele>
        <time>2022-10-20T02:59:10.000Z</time>
      </trkpt>
      <trkpt lat="27.776563" lon="86.721792">
        <ele>2826.4</ele>
        <time>2022-10-20T02:59:12.000Z</time>
      </trkpt>
      <trkpt lat="27.776576" lon="86.721773">
        <ele>2826</ele>
        <time>2022-10-20T02:59:15.000Z</time>
      </trkpt>
      <trkpt lat="27.776586" lon="86.721754">
        <ele>2825.8</ele>
        <time>2022-10-20T02:59:17.000Z</time>
      </trkpt>
      <trkpt lat="27.776598" lon="86.721734">
        <ele>2825.4</ele>
        <time>2022-10-20T02:59:20.000Z</time>
      </trkpt>
      <trkpt lat="27.776611" lon="86.721715">
        <ele>2825.6</ele>
        <time>2022-10-20T02:59:23.000Z</time>
      </trkpt>
      <trkpt lat="27.776621" lon="86.721696">
        <ele>2825</ele>
        <time>2022-10-20T02:59:29.000Z</time>
      </trkpt>
      <trkpt lat="27.776634" lon="86.721677">
        <ele>2825.2</ele>
        <time>2022-10-20T02:59:32.000Z</time>
      </trkpt>
      <trkpt lat="27.776643" lon="86.721658">
        <ele>2825.2</ele>
        <time>2022-10-20T02:59:36.000Z</time>
      </trkpt>
      <trkpt lat="27.776646" lon="86.721632">
        <ele>2825</ele>
        <time>2022-10-20T02:59:44.000Z</time>
      </trkpt>
      <trkpt lat="27.776653" lon="86.721613">
        <ele>2825.2</ele>
        <time>2022-10-20T02:59:48.000Z</time>
      </trkpt>
      <trkpt lat="27.776662" lon="86.721594">
        <ele>2825</ele>
        <time>2022-10-20T02:59:51.000Z</time>
      </trkpt>
      <trkpt lat="27.776672" lon="86.721574">
        <ele>2824.8</ele>
        <time>2022-10-20T03:00:01.000Z</time>
      </trkpt>
      <trkpt lat="27.776682" lon="86.721555">
        <ele>2824.6</ele>
        <time>2022-10-20T03:00:03.000Z</time>
      </trkpt>
      <trkpt lat="27.776694" lon="86.721536">
        <ele>2824.8</ele>
        <time>2022-10-20T03:00:07.000Z</time>
      </trkpt>
      <trkpt lat="27.776707" lon="86.721517">
        <ele>2825</ele>
        <time>2022-10-20T03:00:09.000Z</time>
      </trkpt>
      <trkpt lat="27.776717" lon="86.721498">
        <ele>2824.8</ele>
        <time>2022-10-20T03:00:12.000Z</time>
      </trkpt>
      <trkpt lat="27.776723" lon="86.721472">
        <ele>2825.2</ele>
        <time>2022-10-20T03:00:14.000Z</time>
      </trkpt>
      <trkpt lat="27.776742" lon="86.721459">
        <ele>2825.2</ele>
        <time>2022-10-20T03:00:17.000Z</time>
      </trkpt>
      <trkpt lat="27.776746" lon="86.721434">
        <ele>2825.2</ele>
        <time>2022-10-20T03:00:19.000Z</time>
      </trkpt>
      <trkpt lat="27.776765" lon="86.721408">
        <ele>2825.4</ele>
        <time>2022-10-20T03:00:23.000Z</time>
      </trkpt>
      <trkpt lat="27.776778" lon="86.721389">
        <ele>2825.6</ele>
        <time>2022-10-20T03:00:26.000Z</time>
      </trkpt>
      <trkpt lat="27.776794" lon="86.72137">
        <ele>2826</ele>
        <time>2022-10-20T03:00:29.000Z</time>
      </trkpt>
      <trkpt lat="27.776803" lon="86.72135">
        <ele>2826</ele>
        <time>2022-10-20T03:00:31.000Z</time>
      </trkpt>
      <trkpt lat="27.776813" lon="86.721331">
        <ele>2826.2</ele>
        <time>2022-10-20T03:00:34.000Z</time>
      </trkpt>
      <trkpt lat="27.776822" lon="86.721312">
        <ele>2826.4</ele>
        <time>2022-10-20T03:00:36.000Z</time>
      </trkpt>
      <trkpt lat="27.776842" lon="86.721293">
        <ele>2827</ele>
        <time>2022-10-20T03:00:39.000Z</time>
      </trkpt>
      <trkpt lat="27.776851" lon="86.721261">
        <ele>2827.4</ele>
        <time>2022-10-20T03:00:42.000Z</time>
      </trkpt>
      <trkpt lat="27.776861" lon="86.721235">
        <ele>2827.8</ele>
        <time>2022-10-20T03:00:45.000Z</time>
      </trkpt>
      <trkpt lat="27.77687" lon="86.721216">
        <ele>2828</ele>
        <time>2022-10-20T03:00:48.000Z</time>
      </trkpt>
      <trkpt lat="27.77688" lon="86.721197">
        <ele>2828.2</ele>
        <time>2022-10-20T03:00:50.000Z</time>
      </trkpt>
      <trkpt lat="27.77689" lon="86.721178">
        <ele>2828.8</ele>
        <time>2022-10-20T03:00:54.000Z</time>
      </trkpt>
      <trkpt lat="27.776896" lon="86.721158">
        <ele>2829</ele>
        <time>2022-10-20T03:00:56.000Z</time>
      </trkpt>
      <trkpt lat="27.776906" lon="86.721139">
        <ele>2829.2</ele>
        <time>2022-10-20T03:00:59.000Z</time>
      </trkpt>
      <trkpt lat="27.776912" lon="86.72112">
        <ele>2829.4</ele>
        <time>2022-10-20T03:01:02.000Z</time>
      </trkpt>
      <trkpt lat="27.776928" lon="86.721107">
        <ele>2830</ele>
        <time>2022-10-20T03:01:05.000Z</time>
      </trkpt>
      <trkpt lat="27.776922" lon="86.721133">
        <ele>2830</ele>
        <time>2022-10-20T03:01:42.000Z</time>
      </trkpt>
      <trkpt lat="27.776915" lon="86.721152">
        <ele>2830</ele>
        <time>2022-10-20T03:01:56.000Z</time>
      </trkpt>
      <trkpt lat="27.776902" lon="86.721171">
        <ele>2830</ele>
        <time>2022-10-20T03:02:01.000Z</time>
      </trkpt>
      <trkpt lat="27.776896" lon="86.721197">
        <ele>2829.6</ele>
        <time>2022-10-20T03:02:23.000Z</time>
      </trkpt>
      <trkpt lat="27.776886" lon="86.721216">
        <ele>2829.6</ele>
        <time>2022-10-20T03:02:30.000Z</time>
      </trkpt>
      <trkpt lat="27.776886" lon="86.72119">
        <ele>2829.2</ele>
        <time>2022-10-20T03:02:46.000Z</time>
      </trkpt>
      <trkpt lat="27.776883" lon="86.721152">
        <ele>2828.4</ele>
        <time>2022-10-20T03:03:23.000Z</time>
      </trkpt>
      <trkpt lat="27.776909" lon="86.721101">
        <ele>2828.2</ele>
        <time>2022-10-20T03:04:53.000Z</time>
      </trkpt>
      <trkpt lat="27.776925" lon="86.721133">
        <ele>2827.8</ele>
        <time>2022-10-20T03:04:58.000Z</time>
      </trkpt>
      <trkpt lat="27.776931" lon="86.721152">
        <ele>2827.8</ele>
        <time>2022-10-20T03:05:06.000Z</time>
      </trkpt>
      <trkpt lat="27.776941" lon="86.721171">
        <ele>2827.4</ele>
        <time>2022-10-20T03:05:12.000Z</time>
      </trkpt>
      <trkpt lat="27.776947" lon="86.721152">
        <ele>2827</ele>
        <time>2022-10-20T03:05:23.000Z</time>
      </trkpt>
      <trkpt lat="27.776931" lon="86.721139">
        <ele>2827.2</ele>
        <time>2022-10-20T03:05:25.000Z</time>
      </trkpt>
      <trkpt lat="27.77695" lon="86.721133">
        <ele>2827.4</ele>
        <time>2022-10-20T03:05:28.000Z</time>
      </trkpt>
      <trkpt lat="27.776963" lon="86.721152">
        <ele>2826.8</ele>
        <time>2022-10-20T03:05:32.000Z</time>
      </trkpt>
      <trkpt lat="27.776976" lon="86.721171">
        <ele>2826</ele>
        <time>2022-10-20T03:05:34.000Z</time>
      </trkpt>
      <trkpt lat="27.777002" lon="86.721178">
        <ele>2825.6</ele>
        <time>2022-10-20T03:05:37.000Z</time>
      </trkpt>
      <trkpt lat="27.77703" lon="86.721184">
        <ele>2824.6</ele>
        <time>2022-10-20T03:05:40.000Z</time>
      </trkpt>
      <trkpt lat="27.77705" lon="86.72119">
        <ele>2824.2</ele>
        <time>2022-10-20T03:05:41.000Z</time>
      </trkpt>
      <trkpt lat="27.777066" lon="86.72121">
        <ele>2823.8</ele>
        <time>2022-10-20T03:05:44.000Z</time>
      </trkpt>
      <trkpt lat="27.777091" lon="86.721222">
        <ele>2822.8</ele>
        <time>2022-10-20T03:05:48.000Z</time>
      </trkpt>
      <trkpt lat="27.777104" lon="86.721248">
        <ele>2822.6</ele>
        <time>2022-10-20T03:05:50.000Z</time>
      </trkpt>
      <trkpt lat="27.77712" lon="86.721261">
        <ele>2822.4</ele>
        <time>2022-10-20T03:05:52.000Z</time>
      </trkpt>
      <trkpt lat="27.777171" lon="86.721248">
        <ele>2821.6</ele>
        <time>2022-10-20T03:06:57.000Z</time>
      </trkpt>
      <trkpt lat="27.777197" lon="86.721254">
        <ele>2821.4</ele>
        <time>2022-10-20T03:06:59.000Z</time>
      </trkpt>
      <trkpt lat="27.777229" lon="86.721261">
        <ele>2821</ele>
        <time>2022-10-20T03:07:01.000Z</time>
      </trkpt>
      <trkpt lat="27.777248" lon="86.721267">
        <ele>2821</ele>
        <time>2022-10-20T03:07:02.000Z</time>
      </trkpt>
      <trkpt lat="27.77728" lon="86.721274">
        <ele>2820.6</ele>
        <time>2022-10-20T03:07:04.000Z</time>
      </trkpt>
      <trkpt lat="27.777318" lon="86.72128">
        <ele>2820.8</ele>
        <time>2022-10-20T03:07:06.000Z</time>
      </trkpt>
      <trkpt lat="27.777334" lon="86.721293">
        <ele>2820.8</ele>
        <time>2022-10-20T03:07:07.000Z</time>
      </trkpt>
      <trkpt lat="27.77736" lon="86.721306">
        <ele>2820.8</ele>
        <time>2022-10-20T03:07:10.000Z</time>
      </trkpt>
      <trkpt lat="27.777373" lon="86.721331">
        <ele>2820.2</ele>
        <time>2022-10-20T03:07:15.000Z</time>
      </trkpt>
      <trkpt lat="27.777373" lon="86.721357">
        <ele>2819.2</ele>
        <time>2022-10-20T03:07:22.000Z</time>
      </trkpt>
      <trkpt lat="27.77736" lon="86.721395">
        <ele>2819</ele>
        <time>2022-10-20T03:07:24.000Z</time>
      </trkpt>
      <trkpt lat="27.77736" lon="86.721421">
        <ele>2818.2</ele>
        <time>2022-10-20T03:07:26.000Z</time>
      </trkpt>
      <trkpt lat="27.77737" lon="86.72144">
        <ele>2817.4</ele>
        <time>2022-10-20T03:07:30.000Z</time>
      </trkpt>
      <trkpt lat="27.777382" lon="86.721459">
        <ele>2816.2</ele>
        <time>2022-10-20T03:07:34.000Z</time>
      </trkpt>
      <trkpt lat="27.777392" lon="86.721478">
        <ele>2815.6</ele>
        <time>2022-10-20T03:07:38.000Z</time>
      </trkpt>
      <trkpt lat="27.777402" lon="86.721498">
        <ele>2815.4</ele>
        <time>2022-10-20T03:07:39.000Z</time>
      </trkpt>
      <trkpt lat="27.777411" lon="86.721517">
        <ele>2815.4</ele>
        <time>2022-10-20T03:07:40.000Z</time>
      </trkpt>
      <trkpt lat="27.777408" lon="86.721542">
        <ele>2814.4</ele>
        <time>2022-10-20T03:07:45.000Z</time>
      </trkpt>
      <trkpt lat="27.77743" lon="86.721549">
        <ele>2812.8</ele>
        <time>2022-10-20T03:07:55.000Z</time>
      </trkpt>
      <trkpt lat="27.77744" lon="86.721568">
        <ele>2811.6</ele>
        <time>2022-10-20T03:07:59.000Z</time>
      </trkpt>
      <trkpt lat="27.777462" lon="86.721574">
        <ele>2811</ele>
        <time>2022-10-20T03:08:01.000Z</time>
      </trkpt>
      <trkpt lat="27.777478" lon="86.721587">
        <ele>2810.4</ele>
        <time>2022-10-20T03:08:03.000Z</time>
      </trkpt>
      <trkpt lat="27.777488" lon="86.721606">
        <ele>2810.4</ele>
        <time>2022-10-20T03:08:04.000Z</time>
      </trkpt>
      <trkpt lat="27.777498" lon="86.721626">
        <ele>2810</ele>
        <time>2022-10-20T03:08:06.000Z</time>
      </trkpt>
      <trkpt lat="27.77752" lon="86.721638">
        <ele>2810</ele>
        <time>2022-10-20T03:08:08.000Z</time>
      </trkpt>
      <trkpt lat="27.777539" lon="86.721651">
        <ele>2810.2</ele>
        <time>2022-10-20T03:08:10.000Z</time>
      </trkpt>
      <trkpt lat="27.777555" lon="86.721632">
        <ele>2809.8</ele>
        <time>2022-10-20T03:08:13.000Z</time>
      </trkpt>
      <trkpt lat="27.777584" lon="86.721638">
        <ele>2809.8</ele>
        <time>2022-10-20T03:08:20.000Z</time>
      </trkpt>
      <trkpt lat="27.77759" lon="86.721658">
        <ele>2810</ele>
        <time>2022-10-20T03:08:21.000Z</time>
      </trkpt>
      <trkpt lat="27.77761" lon="86.721664">
        <ele>2810</ele>
        <time>2022-10-20T03:08:23.000Z</time>
      </trkpt>
      <trkpt lat="27.777626" lon="86.72169">
        <ele>2809.6</ele>
        <time>2022-10-20T03:08:25.000Z</time>
      </trkpt>
      <trkpt lat="27.777638" lon="86.721709">
        <ele>2809.4</ele>
        <time>2022-10-20T03:08:27.000Z</time>
      </trkpt>
      <trkpt lat="27.777658" lon="86.721715">
        <ele>2809.6</ele>
        <time>2022-10-20T03:08:29.000Z</time>
      </trkpt>
      <trkpt lat="27.777667" lon="86.721741">
        <ele>2809.8</ele>
        <time>2022-10-20T03:08:31.000Z</time>
      </trkpt>
      <trkpt lat="27.777686" lon="86.721734">
        <ele>2809.8</ele>
        <time>2022-10-20T03:08:34.000Z</time>
      </trkpt>
      <trkpt lat="27.777709" lon="86.721734">
        <ele>2810.2</ele>
        <time>2022-10-20T03:08:37.000Z</time>
      </trkpt>
      <trkpt lat="27.777728" lon="86.721741">
        <ele>2810.4</ele>
        <time>2022-10-20T03:08:39.000Z</time>
      </trkpt>
      <trkpt lat="27.777747" lon="86.721747">
        <ele>2811</ele>
        <time>2022-10-20T03:08:48.000Z</time>
      </trkpt>
      <trkpt lat="27.777766" lon="86.721754">
        <ele>2811.2</ele>
        <time>2022-10-20T03:08:54.000Z</time>
      </trkpt>
      <trkpt lat="27.777782" lon="86.721773">
        <ele>2811</ele>
        <time>2022-10-20T03:08:58.000Z</time>
      </trkpt>
      <trkpt lat="27.777802" lon="86.721773">
        <ele>2811.8</ele>
        <time>2022-10-20T03:09:02.000Z</time>
      </trkpt>
      <trkpt lat="27.777824" lon="86.721779">
        <ele>2812.2</ele>
        <time>2022-10-20T03:09:05.000Z</time>
      </trkpt>
      <trkpt lat="27.77784" lon="86.721792">
        <ele>2812.4</ele>
        <time>2022-10-20T03:09:07.000Z</time>
      </trkpt>
      <trkpt lat="27.777859" lon="86.721811">
        <ele>2812.6</ele>
        <time>2022-10-20T03:09:09.000Z</time>
      </trkpt>
      <trkpt lat="27.777878" lon="86.721837">
        <ele>2812.8</ele>
        <time>2022-10-20T03:09:11.000Z</time>
      </trkpt>
      <trkpt lat="27.777894" lon="86.72185">
        <ele>2812.8</ele>
        <time>2022-10-20T03:09:13.000Z</time>
      </trkpt>
      <trkpt lat="27.777901" lon="86.721869">
        <ele>2813.4</ele>
        <time>2022-10-20T03:09:16.000Z</time>
      </trkpt>
      <trkpt lat="27.777923" lon="86.721862">
        <ele>2813.6</ele>
        <time>2022-10-20T03:09:20.000Z</time>
      </trkpt>
      <trkpt lat="27.777933" lon="86.721894">
        <ele>2813.6</ele>
        <time>2022-10-20T03:09:23.000Z</time>
      </trkpt>
      <trkpt lat="27.777952" lon="86.721901">
        <ele>2813.8</ele>
        <time>2022-10-20T03:09:25.000Z</time>
      </trkpt>
      <trkpt lat="27.777978" lon="86.721914">
        <ele>2814</ele>
        <time>2022-10-20T03:09:29.000Z</time>
      </trkpt>
      <trkpt lat="27.777997" lon="86.721914">
        <ele>2814.2</ele>
        <time>2022-10-20T03:09:32.000Z</time>
      </trkpt>
      <trkpt lat="27.77801" lon="86.721933">
        <ele>2814.2</ele>
        <time>2022-10-20T03:09:35.000Z</time>
      </trkpt>
      <trkpt lat="27.778029" lon="86.721939">
        <ele>2814.2</ele>
        <time>2022-10-20T03:09:42.000Z</time>
      </trkpt>
      <trkpt lat="27.778048" lon="86.721965">
        <ele>2814.6</ele>
        <time>2022-10-20T03:09:45.000Z</time>
      </trkpt>
      <trkpt lat="27.778074" lon="86.721978">
        <ele>2814.2</ele>
        <time>2022-10-20T03:09:48.000Z</time>
      </trkpt>
      <trkpt lat="27.778096" lon="86.721984">
        <ele>2814.8</ele>
        <time>2022-10-20T03:09:51.000Z</time>
      </trkpt>
      <trkpt lat="27.778118" lon="86.721984">
        <ele>2815</ele>
        <time>2022-10-20T03:09:53.000Z</time>
      </trkpt>
      <trkpt lat="27.778141" lon="86.721984">
        <ele>2815.2</ele>
        <time>2022-10-20T03:09:55.000Z</time>
      </trkpt>
      <trkpt lat="27.778157" lon="86.722003">
        <ele>2815.2</ele>
        <time>2022-10-20T03:09:57.000Z</time>
      </trkpt>
      <trkpt lat="27.778179" lon="86.722016">
        <ele>2815.2</ele>
        <time>2022-10-20T03:09:59.000Z</time>
      </trkpt>
      <trkpt lat="27.778202" lon="86.722016">
        <ele>2815.2</ele>
        <time>2022-10-20T03:10:01.000Z</time>
      </trkpt>
      <trkpt lat="27.778221" lon="86.722022">
        <ele>2815.4</ele>
        <time>2022-10-20T03:10:03.000Z</time>
      </trkpt>
      <trkpt lat="27.778234" lon="86.722048">
        <ele>2815.6</ele>
        <time>2022-10-20T03:10:06.000Z</time>
      </trkpt>
      <trkpt lat="27.778256" lon="86.722048">
        <ele>2816.2</ele>
        <time>2022-10-20T03:10:09.000Z</time>
      </trkpt>
      <trkpt lat="27.778282" lon="86.722054">
        <ele>2816.6</ele>
        <time>2022-10-20T03:10:12.000Z</time>
      </trkpt>
      <trkpt lat="27.778307" lon="86.722054">
        <ele>2816.8</ele>
        <time>2022-10-20T03:10:15.000Z</time>
      </trkpt>
      <trkpt lat="27.778323" lon="86.722067">
        <ele>2816.6</ele>
        <time>2022-10-20T03:10:17.000Z</time>
      </trkpt>
      <trkpt lat="27.778342" lon="86.722074">
        <ele>2817</ele>
        <time>2022-10-20T03:10:19.000Z</time>
      </trkpt>
      <trkpt lat="27.778362" lon="86.722093">
        <ele>2817.2</ele>
        <time>2022-10-20T03:10:21.000Z</time>
      </trkpt>
      <trkpt lat="27.778381" lon="86.722106">
        <ele>2817.2</ele>
        <time>2022-10-20T03:10:23.000Z</time>
      </trkpt>
      <trkpt lat="27.7784" lon="86.722112">
        <ele>2817.2</ele>
        <time>2022-10-20T03:10:25.000Z</time>
      </trkpt>
      <trkpt lat="27.778416" lon="86.722125">
        <ele>2817.4</ele>
        <time>2022-10-20T03:10:28.000Z</time>
      </trkpt>
      <trkpt lat="27.778435" lon="86.722138">
        <ele>2817.4</ele>
        <time>2022-10-20T03:10:30.000Z</time>
      </trkpt>
      <trkpt lat="27.778461" lon="86.722144">
        <ele>2817.8</ele>
        <time>2022-10-20T03:10:33.000Z</time>
      </trkpt>
      <trkpt lat="27.77848" lon="86.722144">
        <ele>2818</ele>
        <time>2022-10-20T03:10:35.000Z</time>
      </trkpt>
      <trkpt lat="27.778496" lon="86.72217">
        <ele>2818</ele>
        <time>2022-10-20T03:10:37.000Z</time>
      </trkpt>
      <trkpt lat="27.778515" lon="86.722176">
        <ele>2818.2</ele>
        <time>2022-10-20T03:10:39.000Z</time>
      </trkpt>
      <trkpt lat="27.778534" lon="86.722176">
        <ele>2818.2</ele>
        <time>2022-10-20T03:10:41.000Z</time>
      </trkpt>
      <trkpt lat="27.77855" lon="86.722189">
        <ele>2818.4</ele>
        <time>2022-10-20T03:10:43.000Z</time>
      </trkpt>
      <trkpt lat="27.778573" lon="86.722202">
        <ele>2818.6</ele>
        <time>2022-10-20T03:10:45.000Z</time>
      </trkpt>
      <trkpt lat="27.778592" lon="86.722214">
        <ele>2818.6</ele>
        <time>2022-10-20T03:10:47.000Z</time>
      </trkpt>
      <trkpt lat="27.778608" lon="86.722227">
        <ele>2818.6</ele>
        <time>2022-10-20T03:10:49.000Z</time>
      </trkpt>
      <trkpt lat="27.778624" lon="86.722246">
        <ele>2818.6</ele>
        <time>2022-10-20T03:10:51.000Z</time>
      </trkpt>
      <trkpt lat="27.77865" lon="86.722259">
        <ele>2818.6</ele>
        <time>2022-10-20T03:10:54.000Z</time>
      </trkpt>
      <trkpt lat="27.778662" lon="86.722285">
        <ele>2818.8</ele>
        <time>2022-10-20T03:10:56.000Z</time>
      </trkpt>
      <trkpt lat="27.778672" lon="86.722304">
        <ele>2818.8</ele>
        <time>2022-10-20T03:10:57.000Z</time>
      </trkpt>
      <trkpt lat="27.778678" lon="86.722323">
        <ele>2819</ele>
        <time>2022-10-20T03:10:58.000Z</time>
      </trkpt>
      <trkpt lat="27.778698" lon="86.72233">
        <ele>2819</ele>
        <time>2022-10-20T03:11:01.000Z</time>
      </trkpt>
      <trkpt lat="27.778714" lon="86.722342">
        <ele>2819</ele>
        <time>2022-10-20T03:11:03.000Z</time>
      </trkpt>
      <trkpt lat="27.778733" lon="86.722349">
        <ele>2819.2</ele>
        <time>2022-10-20T03:11:07.000Z</time>
      </trkpt>
      <trkpt lat="27.778749" lon="86.722362">
        <ele>2819</ele>
        <time>2022-10-20T03:11:08.000Z</time>
      </trkpt>
      <trkpt lat="27.778781" lon="86.72233">
        <ele>2819.2</ele>
        <time>2022-10-20T03:11:11.000Z</time>
      </trkpt>
      <trkpt lat="27.778806" lon="86.72233">
        <ele>2819.2</ele>
        <time>2022-10-20T03:11:13.000Z</time>
      </trkpt>
      <trkpt lat="27.778826" lon="86.722336">
        <ele>2819.8</ele>
        <time>2022-10-20T03:11:16.000Z</time>
      </trkpt>
      <trkpt lat="27.778851" lon="86.722342">
        <ele>2819.8</ele>
        <time>2022-10-20T03:11:19.000Z</time>
      </trkpt>
      <trkpt lat="27.77887" lon="86.722349">
        <ele>2820.4</ele>
        <time>2022-10-20T03:11:22.000Z</time>
      </trkpt>
      <trkpt lat="27.77889" lon="86.722342">
        <ele>2821</ele>
        <time>2022-10-20T03:11:24.000Z</time>
      </trkpt>
      <trkpt lat="27.778902" lon="86.722362">
        <ele>2821.2</ele>
        <time>2022-10-20T03:11:26.000Z</time>
      </trkpt>
      <trkpt lat="27.778922" lon="86.722362">
        <ele>2821.4</ele>
        <time>2022-10-20T03:11:28.000Z</time>
      </trkpt>
      <trkpt lat="27.778938" lon="86.722374">
        <ele>2821.4</ele>
        <time>2022-10-20T03:11:30.000Z</time>
      </trkpt>
      <trkpt lat="27.778957" lon="86.722381">
        <ele>2821.4</ele>
        <time>2022-10-20T03:11:32.000Z</time>
      </trkpt>
      <trkpt lat="27.778976" lon="86.722381">
        <ele>2821.8</ele>
        <time>2022-10-20T03:11:34.000Z</time>
      </trkpt>
      <trkpt lat="27.779002" lon="86.7224">
        <ele>2822.2</ele>
        <time>2022-10-20T03:11:37.000Z</time>
      </trkpt>
      <trkpt lat="27.779027" lon="86.7224">
        <ele>2822.2</ele>
        <time>2022-10-20T03:11:39.000Z</time>
      </trkpt>
      <trkpt lat="27.779046" lon="86.722413">
        <ele>2822.4</ele>
        <time>2022-10-20T03:11:41.000Z</time>
      </trkpt>
      <trkpt lat="27.779069" lon="86.722413">
        <ele>2822</ele>
        <time>2022-10-20T03:11:44.000Z</time>
      </trkpt>
      <trkpt lat="27.779091" lon="86.722426">
        <ele>2822</ele>
        <time>2022-10-20T03:11:47.000Z</time>
      </trkpt>
      <trkpt lat="27.779117" lon="86.722426">
        <ele>2822.6</ele>
        <time>2022-10-20T03:11:51.000Z</time>
      </trkpt>
      <trkpt lat="27.779146" lon="86.722426">
        <ele>2822.6</ele>
        <time>2022-10-20T03:11:54.000Z</time>
      </trkpt>
      <trkpt lat="27.779165" lon="86.722426">
        <ele>2822.6</ele>
        <time>2022-10-20T03:11:58.000Z</time>
      </trkpt>
      <trkpt lat="27.779184" lon="86.722445">
        <ele>2822.4</ele>
        <time>2022-10-20T03:12:00.000Z</time>
      </trkpt>
      <trkpt lat="27.77921" lon="86.722458">
        <ele>2822.8</ele>
        <time>2022-10-20T03:12:03.000Z</time>
      </trkpt>
      <trkpt lat="27.779229" lon="86.722458">
        <ele>2823</ele>
        <time>2022-10-20T03:12:05.000Z</time>
      </trkpt>
      <trkpt lat="27.779248" lon="86.72247">
        <ele>2823</ele>
        <time>2022-10-20T03:12:07.000Z</time>
      </trkpt>
      <trkpt lat="27.77927" lon="86.72247">
        <ele>2822.8</ele>
        <time>2022-10-20T03:12:09.000Z</time>
      </trkpt>
      <trkpt lat="27.779296" lon="86.722483">
        <ele>2822.8</ele>
        <time>2022-10-20T03:12:11.000Z</time>
      </trkpt>
      <trkpt lat="27.779315" lon="86.722483">
        <ele>2822.8</ele>
        <time>2022-10-20T03:12:13.000Z</time>
      </trkpt>
      <trkpt lat="27.779334" lon="86.722483">
        <ele>2822.6</ele>
        <time>2022-10-20T03:12:15.000Z</time>
      </trkpt>
      <trkpt lat="27.779354" lon="86.722483">
        <ele>2822.6</ele>
        <time>2022-10-20T03:12:17.000Z</time>
      </trkpt>
      <trkpt lat="27.779373" lon="86.72247">
        <ele>2822.6</ele>
        <time>2022-10-20T03:12:20.000Z</time>
      </trkpt>
      <trkpt lat="27.779392" lon="86.722483">
        <ele>2822.6</ele>
        <time>2022-10-20T03:12:23.000Z</time>
      </trkpt>
      <trkpt lat="27.779414" lon="86.72249">
        <ele>2822.4</ele>
        <time>2022-10-20T03:12:27.000Z</time>
      </trkpt>
      <trkpt lat="27.779434" lon="86.722496">
        <ele>2822.2</ele>
        <time>2022-10-20T03:12:31.000Z</time>
      </trkpt>
      <trkpt lat="27.779453" lon="86.722496">
        <ele>2821.8</ele>
        <time>2022-10-20T03:12:36.000Z</time>
      </trkpt>
      <trkpt lat="27.779478" lon="86.722496">
        <ele>2819.6</ele>
        <time>2022-10-20T03:13:03.000Z</time>
      </trkpt>
      <trkpt lat="27.779514" lon="86.722502">
        <ele>2819.2</ele>
        <time>2022-10-20T03:13:05.000Z</time>
      </trkpt>
      <trkpt lat="27.779533" lon="86.722502">
        <ele>2819</ele>
        <time>2022-10-20T03:13:06.000Z</time>
      </trkpt>
      <trkpt lat="27.779552" lon="86.722502">
        <ele>2818.8</ele>
        <time>2022-10-20T03:13:07.000Z</time>
      </trkpt>
      <trkpt lat="27.779574" lon="86.722502">
        <ele>2818.4</ele>
        <time>2022-10-20T03:13:08.000Z</time>
      </trkpt>
      <trkpt lat="27.779597" lon="86.722496">
        <ele>2818.2</ele>
        <time>2022-10-20T03:13:09.000Z</time>
      </trkpt>
      <trkpt lat="27.779616" lon="86.722496">
        <ele>2818</ele>
        <time>2022-10-20T03:13:10.000Z</time>
      </trkpt>
      <trkpt lat="27.779635" lon="86.72249">
        <ele>2818</ele>
        <time>2022-10-20T03:13:11.000Z</time>
      </trkpt>
      <trkpt lat="27.779654" lon="86.72247">
        <ele>2817.6</ele>
        <time>2022-10-20T03:13:13.000Z</time>
      </trkpt>
      <trkpt lat="27.779674" lon="86.722464">
        <ele>2817.4</ele>
        <time>2022-10-20T03:13:15.000Z</time>
      </trkpt>
      <trkpt lat="27.779696" lon="86.722458">
        <ele>2816.8</ele>
        <time>2022-10-20T03:13:17.000Z</time>
      </trkpt>
      <trkpt lat="27.779725" lon="86.722458">
        <ele>2816.8</ele>
        <time>2022-10-20T03:13:19.000Z</time>
      </trkpt>
      <trkpt lat="27.77975" lon="86.722458">
        <ele>2816.2</ele>
        <time>2022-10-20T03:13:21.000Z</time>
      </trkpt>
      <trkpt lat="27.779776" lon="86.722458">
        <ele>2815.6</ele>
        <time>2022-10-20T03:13:23.000Z</time>
      </trkpt>
      <trkpt lat="27.779795" lon="86.722451">
        <ele>2815.6</ele>
        <time>2022-10-20T03:13:24.000Z</time>
      </trkpt>
      <trkpt lat="27.77983" lon="86.722458">
        <ele>2815.4</ele>
        <time>2022-10-20T03:13:26.000Z</time>
      </trkpt>
      <trkpt lat="27.77985" lon="86.722464">
        <ele>2815.2</ele>
        <time>2022-10-20T03:13:27.000Z</time>
      </trkpt>
      <trkpt lat="27.779869" lon="86.722451">
        <ele>2814.8</ele>
        <time>2022-10-20T03:13:29.000Z</time>
      </trkpt>
      <trkpt lat="27.779882" lon="86.722426">
        <ele>2815</ele>
        <time>2022-10-20T03:13:31.000Z</time>
      </trkpt>
      <trkpt lat="27.779891" lon="86.7224">
        <ele>2814.8</ele>
        <time>2022-10-20T03:13:34.000Z</time>
      </trkpt>
      <trkpt lat="27.77991" lon="86.722387">
        <ele>2814.6</ele>
        <time>2022-10-20T03:13:36.000Z</time>
      </trkpt>
      <trkpt lat="27.77993" lon="86.722381">
        <ele>2814.8</ele>
        <time>2022-10-20T03:13:38.000Z</time>
      </trkpt>
      <trkpt lat="27.779952" lon="86.722381">
        <ele>2814.8</ele>
        <time>2022-10-20T03:13:40.000Z</time>
      </trkpt>
      <trkpt lat="27.779974" lon="86.722374">
        <ele>2814.6</ele>
        <time>2022-10-20T03:13:42.000Z</time>
      </trkpt>
      <trkpt lat="27.779997" lon="86.722368">
        <ele>2814.8</ele>
        <time>2022-10-20T03:13:44.000Z</time>
      </trkpt>
      <trkpt lat="27.780016" lon="86.722381">
        <ele>2815.2</ele>
        <time>2022-10-20T03:13:47.000Z</time>
      </trkpt>
      <trkpt lat="27.780035" lon="86.722374">
        <ele>2815.6</ele>
        <time>2022-10-20T03:13:49.000Z</time>
      </trkpt>
      <trkpt lat="27.780054" lon="86.722368">
        <ele>2816.4</ele>
        <time>2022-10-20T03:13:53.000Z</time>
      </trkpt>
      <trkpt lat="27.78007" lon="86.722349">
        <ele>2817.2</ele>
        <time>2022-10-20T03:13:58.000Z</time>
      </trkpt>
      <trkpt lat="27.78008" lon="86.72233">
        <ele>2818.6</ele>
        <time>2022-10-20T03:14:02.000Z</time>
      </trkpt>
      <trkpt lat="27.780102" lon="86.72231">
        <ele>2819.4</ele>
        <time>2022-10-20T03:14:07.000Z</time>
      </trkpt>
      <trkpt lat="27.780125" lon="86.72231">
        <ele>2820</ele>
        <time>2022-10-20T03:14:09.000Z</time>
      </trkpt>
      <trkpt lat="27.780141" lon="86.722291">
        <ele>2820.2</ele>
        <time>2022-10-20T03:14:12.000Z</time>
      </trkpt>
      <trkpt lat="27.780163" lon="86.722272">
        <ele>2820.8</ele>
        <time>2022-10-20T03:14:15.000Z</time>
      </trkpt>
      <trkpt lat="27.780186" lon="86.722272">
        <ele>2821.2</ele>
        <time>2022-10-20T03:14:18.000Z</time>
      </trkpt>
      <trkpt lat="27.780208" lon="86.722272">
        <ele>2821.4</ele>
        <time>2022-10-20T03:14:20.000Z</time>
      </trkpt>
      <trkpt lat="27.780227" lon="86.722266">
        <ele>2821.8</ele>
        <time>2022-10-20T03:14:21.000Z</time>
      </trkpt>
      <trkpt lat="27.78025" lon="86.722253">
        <ele>2821.8</ele>
        <time>2022-10-20T03:14:24.000Z</time>
      </trkpt>
      <trkpt lat="27.780259" lon="86.722234">
        <ele>2821.8</ele>
        <time>2022-10-20T03:14:25.000Z</time>
      </trkpt>
      <trkpt lat="27.780275" lon="86.722221">
        <ele>2822.8</ele>
        <time>2022-10-20T03:14:27.000Z</time>
      </trkpt>
      <trkpt lat="27.780294" lon="86.722234">
        <ele>2823.6</ele>
        <time>2022-10-20T03:14:32.000Z</time>
      </trkpt>
      <trkpt lat="27.78031" lon="86.722246">
        <ele>2824</ele>
        <time>2022-10-20T03:14:34.000Z</time>
      </trkpt>
      <trkpt lat="27.780333" lon="86.722234">
        <ele>2824.4</ele>
        <time>2022-10-20T03:14:37.000Z</time>
      </trkpt>
      <trkpt lat="27.780352" lon="86.722246">
        <ele>2824.4</ele>
        <time>2022-10-20T03:14:40.000Z</time>
      </trkpt>
      <trkpt lat="27.780371" lon="86.722272">
        <ele>2824.4</ele>
        <time>2022-10-20T03:14:42.000Z</time>
      </trkpt>
      <trkpt lat="27.780355" lon="86.722285">
        <ele>2824.6</ele>
        <time>2022-10-20T03:14:50.000Z</time>
      </trkpt>
      <trkpt lat="27.780365" lon="86.722323">
        <ele>2824</ele>
        <time>2022-10-20T03:15:27.000Z</time>
      </trkpt>
      <trkpt lat="27.780371" lon="86.722342">
        <ele>2823.8</ele>
        <time>2022-10-20T03:15:29.000Z</time>
      </trkpt>
      <trkpt lat="27.780381" lon="86.722362">
        <ele>2823.6</ele>
        <time>2022-10-20T03:15:30.000Z</time>
      </trkpt>
      <trkpt lat="27.780387" lon="86.722381">
        <ele>2823.6</ele>
        <time>2022-10-20T03:15:32.000Z</time>
      </trkpt>
      <trkpt lat="27.780397" lon="86.7224">
        <ele>2823.6</ele>
        <time>2022-10-20T03:15:33.000Z</time>
      </trkpt>
      <trkpt lat="27.780406" lon="86.722419">
        <ele>2822.2</ele>
        <time>2022-10-20T03:15:35.000Z</time>
      </trkpt>
      <trkpt lat="27.780419" lon="86.722445">
        <ele>2822.2</ele>
        <time>2022-10-20T03:15:38.000Z</time>
      </trkpt>
      <trkpt lat="27.780429" lon="86.722464">
        <ele>2822.2</ele>
        <time>2022-10-20T03:15:40.000Z</time>
      </trkpt>
      <trkpt lat="27.780445" lon="86.722483">
        <ele>2821.6</ele>
        <time>2022-10-20T03:15:42.000Z</time>
      </trkpt>
      <trkpt lat="27.780451" lon="86.722502">
        <ele>2821</ele>
        <time>2022-10-20T03:15:45.000Z</time>
      </trkpt>
      <trkpt lat="27.780461" lon="86.722522">
        <ele>2820.6</ele>
        <time>2022-10-20T03:15:47.000Z</time>
      </trkpt>
      <trkpt lat="27.780477" lon="86.72256">
        <ele>2820</ele>
        <time>2022-10-20T03:15:50.000Z</time>
      </trkpt>
      <trkpt lat="27.780486" lon="86.722579">
        <ele>2820</ele>
        <time>2022-10-20T03:15:53.000Z</time>
      </trkpt>
      <trkpt lat="27.78049" lon="86.722611">
        <ele>2819.8</ele>
        <time>2022-10-20T03:15:56.000Z</time>
      </trkpt>
      <trkpt lat="27.780499" lon="86.72263">
        <ele>2819.6</ele>
        <time>2022-10-20T03:15:59.000Z</time>
      </trkpt>
      <trkpt lat="27.780506" lon="86.72265">
        <ele>2819.8</ele>
        <time>2022-10-20T03:16:01.000Z</time>
      </trkpt>
      <trkpt lat="27.780515" lon="86.722669">
        <ele>2819.2</ele>
        <time>2022-10-20T03:16:04.000Z</time>
      </trkpt>
      <trkpt lat="27.780522" lon="86.722688">
        <ele>2819.4</ele>
        <time>2022-10-20T03:16:07.000Z</time>
      </trkpt>
      <trkpt lat="27.780528" lon="86.722707">
        <ele>2819.6</ele>
        <time>2022-10-20T03:16:10.000Z</time>
      </trkpt>
      <trkpt lat="27.780534" lon="86.722726">
        <ele>2819.6</ele>
        <time>2022-10-20T03:16:12.000Z</time>
      </trkpt>
      <trkpt lat="27.780544" lon="86.722758">
        <ele>2819.4</ele>
        <time>2022-10-20T03:16:15.000Z</time>
      </trkpt>
      <trkpt lat="27.780557" lon="86.722778">
        <ele>2819.6</ele>
        <time>2022-10-20T03:16:18.000Z</time>
      </trkpt>
      <trkpt lat="27.78056" lon="86.72281">
        <ele>2819.6</ele>
        <time>2022-10-20T03:16:20.000Z</time>
      </trkpt>
      <trkpt lat="27.780576" lon="86.722829">
        <ele>2819.8</ele>
        <time>2022-10-20T03:16:23.000Z</time>
      </trkpt>
      <trkpt lat="27.780586" lon="86.722854">
        <ele>2819.8</ele>
        <time>2022-10-20T03:16:26.000Z</time>
      </trkpt>
      <trkpt lat="27.780592" lon="86.722886">
        <ele>2820.4</ele>
        <time>2022-10-20T03:16:29.000Z</time>
      </trkpt>
      <trkpt lat="27.780582" lon="86.722906">
        <ele>2820.6</ele>
        <time>2022-10-20T03:16:31.000Z</time>
      </trkpt>
      <trkpt lat="27.780598" lon="86.722918">
        <ele>2820.6</ele>
        <time>2022-10-20T03:16:33.000Z</time>
      </trkpt>
      <trkpt lat="27.780605" lon="86.722938">
        <ele>2821.4</ele>
        <time>2022-10-20T03:16:36.000Z</time>
      </trkpt>
      <trkpt lat="27.780608" lon="86.722963">
        <ele>2821.4</ele>
        <time>2022-10-20T03:16:38.000Z</time>
      </trkpt>
      <trkpt lat="27.780621" lon="86.722989">
        <ele>2821.8</ele>
        <time>2022-10-20T03:16:41.000Z</time>
      </trkpt>
      <trkpt lat="27.780624" lon="86.723014">
        <ele>2822</ele>
        <time>2022-10-20T03:16:44.000Z</time>
      </trkpt>
      <trkpt lat="27.780637" lon="86.723046">
        <ele>2822.2</ele>
        <time>2022-10-20T03:16:47.000Z</time>
      </trkpt>
      <trkpt lat="27.780643" lon="86.723066">
        <ele>2822.8</ele>
        <time>2022-10-20T03:16:50.000Z</time>
      </trkpt>
      <trkpt lat="27.78065" lon="86.723085">
        <ele>2823.2</ele>
        <time>2022-10-20T03:16:51.000Z</time>
      </trkpt>
      <trkpt lat="27.780659" lon="86.723104">
        <ele>2823.4</ele>
        <time>2022-10-20T03:16:54.000Z</time>
      </trkpt>
      <trkpt lat="27.780669" lon="86.723123">
        <ele>2823.8</ele>
        <time>2022-10-20T03:16:57.000Z</time>
      </trkpt>
      <trkpt lat="27.780678" lon="86.723142">
        <ele>2824.4</ele>
        <time>2022-10-20T03:17:03.000Z</time>
      </trkpt>
      <trkpt lat="27.780688" lon="86.723162">
        <ele>2824.6</ele>
        <time>2022-10-20T03:17:05.000Z</time>
      </trkpt>
      <trkpt lat="27.780688" lon="86.723136">
        <ele>2825.2</ele>
        <time>2022-10-20T03:17:09.000Z</time>
      </trkpt>
      <trkpt lat="27.780682" lon="86.723104">
        <ele>2824.2</ele>
        <time>2022-10-20T03:17:16.000Z</time>
      </trkpt>
      <trkpt lat="27.780659" lon="86.723085">
        <ele>2824.2</ele>
        <time>2022-10-20T03:17:18.000Z</time>
      </trkpt>
      <trkpt lat="27.780646" lon="86.723059">
        <ele>2823.8</ele>
        <time>2022-10-20T03:17:20.000Z</time>
      </trkpt>
      <trkpt lat="27.78065" lon="86.723027">
        <ele>2822.8</ele>
        <time>2022-10-20T03:17:27.000Z</time>
      </trkpt>
      <trkpt lat="27.780672" lon="86.723021">
        <ele>2822</ele>
        <time>2022-10-20T03:17:32.000Z</time>
      </trkpt>
      <trkpt lat="27.780685" lon="86.723002">
        <ele>2820.8</ele>
        <time>2022-10-20T03:17:35.000Z</time>
      </trkpt>
      <trkpt lat="27.780698" lon="86.722976">
        <ele>2820.8</ele>
        <time>2022-10-20T03:17:37.000Z</time>
      </trkpt>
      <trkpt lat="27.78071" lon="86.722944">
        <ele>2820.8</ele>
        <time>2022-10-20T03:17:39.000Z</time>
      </trkpt>
      <trkpt lat="27.780717" lon="86.722925">
        <ele>2821.2</ele>
        <time>2022-10-20T03:17:46.000Z</time>
      </trkpt>
      <trkpt lat="27.780726" lon="86.722906">
        <ele>2821.6</ele>
        <time>2022-10-20T03:17:50.000Z</time>
      </trkpt>
      <trkpt lat="27.780739" lon="86.722886">
        <ele>2821.4</ele>
        <time>2022-10-20T03:17:52.000Z</time>
      </trkpt>
      <trkpt lat="27.780755" lon="86.722867">
        <ele>2821.4</ele>
        <time>2022-10-20T03:17:54.000Z</time>
      </trkpt>
      <trkpt lat="27.780771" lon="86.722854">
        <ele>2821.4</ele>
        <time>2022-10-20T03:17:56.000Z</time>
      </trkpt>
      <trkpt lat="27.78079" lon="86.722822">
        <ele>2821.2</ele>
        <time>2022-10-20T03:17:59.000Z</time>
      </trkpt>
      <trkpt lat="27.780806" lon="86.72281">
        <ele>2821.4</ele>
        <time>2022-10-20T03:18:01.000Z</time>
      </trkpt>
      <trkpt lat="27.780832" lon="86.72279">
        <ele>2821.6</ele>
        <time>2022-10-20T03:18:03.000Z</time>
      </trkpt>
      <trkpt lat="27.780848" lon="86.722803">
        <ele>2821.6</ele>
        <time>2022-10-20T03:18:04.000Z</time>
      </trkpt>
      <trkpt lat="27.780883" lon="86.722822">
        <ele>2821.4</ele>
        <time>2022-10-20T03:18:06.000Z</time>
      </trkpt>
      <trkpt lat="27.780912" lon="86.722822">
        <ele>2821.4</ele>
        <time>2022-10-20T03:18:08.000Z</time>
      </trkpt>
      <trkpt lat="27.780934" lon="86.722816">
        <ele>2821</ele>
        <time>2022-10-20T03:18:11.000Z</time>
      </trkpt>
      <trkpt lat="27.780954" lon="86.722816">
        <ele>2820</ele>
        <time>2022-10-20T03:18:14.000Z</time>
      </trkpt>
      <trkpt lat="27.780979" lon="86.722816">
        <ele>2819.2</ele>
        <time>2022-10-20T03:18:17.000Z</time>
      </trkpt>
      <trkpt lat="27.781005" lon="86.722803">
        <ele>2818.6</ele>
        <time>2022-10-20T03:18:20.000Z</time>
      </trkpt>
      <trkpt lat="27.781021" lon="86.72279">
        <ele>2818</ele>
        <time>2022-10-20T03:18:22.000Z</time>
      </trkpt>
      <trkpt lat="27.781037" lon="86.722765">
        <ele>2817.2</ele>
        <time>2022-10-20T03:18:26.000Z</time>
      </trkpt>
      <trkpt lat="27.781056" lon="86.722746">
        <ele>2816.8</ele>
        <time>2022-10-20T03:18:28.000Z</time>
      </trkpt>
      <trkpt lat="27.781072" lon="86.722733">
        <ele>2816.4</ele>
        <time>2022-10-20T03:18:30.000Z</time>
      </trkpt>
      <trkpt lat="27.781101" lon="86.722707">
        <ele>2816.2</ele>
        <time>2022-10-20T03:18:32.000Z</time>
      </trkpt>
      <trkpt lat="27.781123" lon="86.722694">
        <ele>2816.2</ele>
        <time>2022-10-20T03:18:34.000Z</time>
      </trkpt>
      <trkpt lat="27.781152" lon="86.722669">
        <ele>2815.8</ele>
        <time>2022-10-20T03:18:37.000Z</time>
      </trkpt>
      <trkpt lat="27.781168" lon="86.722656">
        <ele>2815.8</ele>
        <time>2022-10-20T03:18:39.000Z</time>
      </trkpt>
      <trkpt lat="27.781194" lon="86.722656">
        <ele>2815.8</ele>
        <time>2022-10-20T03:18:42.000Z</time>
      </trkpt>
      <trkpt lat="27.781213" lon="86.722643">
        <ele>2816</ele>
        <time>2022-10-20T03:18:44.000Z</time>
      </trkpt>
      <trkpt lat="27.781229" lon="86.722624">
        <ele>2815.8</ele>
        <time>2022-10-20T03:18:46.000Z</time>
      </trkpt>
      <trkpt lat="27.781251" lon="86.722611">
        <ele>2816</ele>
        <time>2022-10-20T03:18:49.000Z</time>
      </trkpt>
      <trkpt lat="27.781261" lon="86.722586">
        <ele>2816</ele>
        <time>2022-10-20T03:18:52.000Z</time>
      </trkpt>
      <trkpt lat="27.781264" lon="86.722547">
        <ele>2815.8</ele>
        <time>2022-10-20T03:18:55.000Z</time>
      </trkpt>
      <trkpt lat="27.781293" lon="86.722534">
        <ele>2815.4</ele>
        <time>2022-10-20T03:18:58.000Z</time>
      </trkpt>
      <trkpt lat="27.781322" lon="86.722534">
        <ele>2815.2</ele>
        <time>2022-10-20T03:19:00.000Z</time>
      </trkpt>
      <trkpt lat="27.78135" lon="86.722534">
        <ele>2815.4</ele>
        <time>2022-10-20T03:19:02.000Z</time>
      </trkpt>
      <trkpt lat="27.781373" lon="86.722541">
        <ele>2815.4</ele>
        <time>2022-10-20T03:19:03.000Z</time>
      </trkpt>
      <trkpt lat="27.781402" lon="86.722547">
        <ele>2815.8</ele>
        <time>2022-10-20T03:19:05.000Z</time>
      </trkpt>
      <trkpt lat="27.78143" lon="86.722547">
        <ele>2815.8</ele>
        <time>2022-10-20T03:19:07.000Z</time>
      </trkpt>
      <trkpt lat="27.78145" lon="86.722566">
        <ele>2816</ele>
        <time>2022-10-20T03:19:08.000Z</time>
      </trkpt>
      <trkpt lat="27.781469" lon="86.722573">
        <ele>2816.2</ele>
        <time>2022-10-20T03:19:09.000Z</time>
      </trkpt>
      <trkpt lat="27.781501" lon="86.722579">
        <ele>2816.2</ele>
        <time>2022-10-20T03:19:11.000Z</time>
      </trkpt>
      <trkpt lat="27.781526" lon="86.722586">
        <ele>2816.4</ele>
        <time>2022-10-20T03:19:13.000Z</time>
      </trkpt>
      <trkpt lat="27.781558" lon="86.722586">
        <ele>2817</ele>
        <time>2022-10-20T03:19:15.000Z</time>
      </trkpt>
      <trkpt lat="27.781581" lon="86.722579">
        <ele>2817</ele>
        <time>2022-10-20T03:19:17.000Z</time>
      </trkpt>
      <trkpt lat="27.781606" lon="86.722573">
        <ele>2817.2</ele>
        <time>2022-10-20T03:19:19.000Z</time>
      </trkpt>
      <trkpt lat="27.781632" lon="86.722573">
        <ele>2817.2</ele>
        <time>2022-10-20T03:19:21.000Z</time>
      </trkpt>
      <trkpt lat="27.781654" lon="86.722579">
        <ele>2817.4</ele>
        <time>2022-10-20T03:19:23.000Z</time>
      </trkpt>
      <trkpt lat="27.781677" lon="86.722586">
        <ele>2817.4</ele>
        <time>2022-10-20T03:19:25.000Z</time>
      </trkpt>
      <trkpt lat="27.781702" lon="86.722598">
        <ele>2817.4</ele>
        <time>2022-10-20T03:19:27.000Z</time>
      </trkpt>
      <trkpt lat="27.781725" lon="86.722605">
        <ele>2817.6</ele>
        <time>2022-10-20T03:19:29.000Z</time>
      </trkpt>
      <trkpt lat="27.781747" lon="86.722605">
        <ele>2817.8</ele>
        <time>2022-10-20T03:19:31.000Z</time>
      </trkpt>
      <trkpt lat="27.781773" lon="86.722605">
        <ele>2818</ele>
        <time>2022-10-20T03:19:33.000Z</time>
      </trkpt>
      <trkpt lat="27.781798" lon="86.722611">
        <ele>2817.8</ele>
        <time>2022-10-20T03:19:35.000Z</time>
      </trkpt>
      <trkpt lat="27.781821" lon="86.722611">
        <ele>2817.8</ele>
        <time>2022-10-20T03:19:37.000Z</time>
      </trkpt>
      <trkpt lat="27.78184" lon="86.722611">
        <ele>2818.2</ele>
        <time>2022-10-20T03:19:39.000Z</time>
      </trkpt>
      <trkpt lat="27.781866" lon="86.722624">
        <ele>2818.2</ele>
        <time>2022-10-20T03:19:41.000Z</time>
      </trkpt>
      <trkpt lat="27.781891" lon="86.72263">
        <ele>2818.6</ele>
        <time>2022-10-20T03:19:44.000Z</time>
      </trkpt>
      <trkpt lat="27.78191" lon="86.722624">
        <ele>2818.6</ele>
        <time>2022-10-20T03:19:46.000Z</time>
      </trkpt>
      <trkpt lat="27.78193" lon="86.722618">
        <ele>2818.8</ele>
        <time>2022-10-20T03:19:49.000Z</time>
      </trkpt>
      <trkpt lat="27.781952" lon="86.722605">
        <ele>2818.8</ele>
        <time>2022-10-20T03:19:52.000Z</time>
      </trkpt>
      <trkpt lat="27.781974" lon="86.722586">
        <ele>2818.8</ele>
        <time>2022-10-20T03:19:54.000Z</time>
      </trkpt>
      <trkpt lat="27.781997" lon="86.722586">
        <ele>2818.8</ele>
        <time>2022-10-20T03:19:56.000Z</time>
      </trkpt>
      <trkpt lat="27.782016" lon="86.722586">
        <ele>2818.8</ele>
        <time>2022-10-20T03:19:58.000Z</time>
      </trkpt>
      <trkpt lat="27.782035" lon="86.722579">
        <ele>2819</ele>
        <time>2022-10-20T03:20:01.000Z</time>
      </trkpt>
      <trkpt lat="27.782054" lon="86.722579">
        <ele>2819.4</ele>
        <time>2022-10-20T03:20:03.000Z</time>
      </trkpt>
      <trkpt lat="27.782048" lon="86.722598">
        <ele>2819.8</ele>
        <time>2022-10-20T03:20:09.000Z</time>
      </trkpt>
      <trkpt lat="27.782013" lon="86.722586">
        <ele>2820.4</ele>
        <time>2022-10-20T03:23:07.000Z</time>
      </trkpt>
      <trkpt lat="27.782042" lon="86.722573">
        <ele>2820.2</ele>
        <time>2022-10-20T03:23:09.000Z</time>
      </trkpt>
      <trkpt lat="27.782074" lon="86.72256">
        <ele>2820.2</ele>
        <time>2022-10-20T03:23:11.000Z</time>
      </trkpt>
      <trkpt lat="27.782099" lon="86.722547">
        <ele>2821</ele>
        <time>2022-10-20T03:23:13.000Z</time>
      </trkpt>
      <trkpt lat="27.782128" lon="86.722534">
        <ele>2821</ele>
        <time>2022-10-20T03:23:15.000Z</time>
      </trkpt>
      <trkpt lat="27.782147" lon="86.722528">
        <ele>2820.8</ele>
        <time>2022-10-20T03:23:17.000Z</time>
      </trkpt>
      <trkpt lat="27.782166" lon="86.722528">
        <ele>2820.8</ele>
        <time>2022-10-20T03:23:19.000Z</time>
      </trkpt>
      <trkpt lat="27.782186" lon="86.722509">
        <ele>2820.2</ele>
        <time>2022-10-20T03:23:21.000Z</time>
      </trkpt>
      <trkpt lat="27.782205" lon="86.722502">
        <ele>2820.2</ele>
        <time>2022-10-20T03:23:23.000Z</time>
      </trkpt>
      <trkpt lat="27.782227" lon="86.72247">
        <ele>2820.4</ele>
        <time>2022-10-20T03:23:26.000Z</time>
      </trkpt>
      <trkpt lat="27.782246" lon="86.722464">
        <ele>2819.8</ele>
        <time>2022-10-20T03:23:28.000Z</time>
      </trkpt>
      <trkpt lat="27.782266" lon="86.722464">
        <ele>2819.6</ele>
        <time>2022-10-20T03:23:30.000Z</time>
      </trkpt>
      <trkpt lat="27.782282" lon="86.722451">
        <ele>2819.6</ele>
        <time>2022-10-20T03:23:32.000Z</time>
      </trkpt>
      <trkpt lat="27.78231" lon="86.722426">
        <ele>2819.6</ele>
        <time>2022-10-20T03:23:35.000Z</time>
      </trkpt>
      <trkpt lat="27.782333" lon="86.722413">
        <ele>2819.4</ele>
        <time>2022-10-20T03:23:37.000Z</time>
      </trkpt>
      <trkpt lat="27.782352" lon="86.722413">
        <ele>2819.4</ele>
        <time>2022-10-20T03:23:39.000Z</time>
      </trkpt>
      <trkpt lat="27.782378" lon="86.722387">
        <ele>2819.8</ele>
        <time>2022-10-20T03:23:42.000Z</time>
      </trkpt>
      <trkpt lat="27.782403" lon="86.722387">
        <ele>2819.4</ele>
        <time>2022-10-20T03:23:44.000Z</time>
      </trkpt>
      <trkpt lat="27.782426" lon="86.722381">
        <ele>2819.4</ele>
        <time>2022-10-20T03:23:46.000Z</time>
      </trkpt>
      <trkpt lat="27.782454" lon="86.722368">
        <ele>2819.6</ele>
        <time>2022-10-20T03:23:49.000Z</time>
      </trkpt>
      <trkpt lat="27.78247" lon="86.722349">
        <ele>2819.6</ele>
        <time>2022-10-20T03:23:51.000Z</time>
      </trkpt>
      <trkpt lat="27.782493" lon="86.722336">
        <ele>2819.4</ele>
        <time>2022-10-20T03:23:53.000Z</time>
      </trkpt>
      <trkpt lat="27.782512" lon="86.72233">
        <ele>2819.2</ele>
        <time>2022-10-20T03:23:56.000Z</time>
      </trkpt>
      <trkpt lat="27.782531" lon="86.72231">
        <ele>2819.2</ele>
        <time>2022-10-20T03:23:58.000Z</time>
      </trkpt>
      <trkpt lat="27.782554" lon="86.722298">
        <ele>2819</ele>
        <time>2022-10-20T03:24:00.000Z</time>
      </trkpt>
      <trkpt lat="27.782576" lon="86.722291">
        <ele>2819</ele>
        <time>2022-10-20T03:24:02.000Z</time>
      </trkpt>
      <trkpt lat="27.782598" lon="86.722291">
        <ele>2819</ele>
        <time>2022-10-20T03:24:04.000Z</time>
      </trkpt>
      <trkpt lat="27.782621" lon="86.722291">
        <ele>2819</ele>
        <time>2022-10-20T03:24:06.000Z</time>
      </trkpt>
      <trkpt lat="27.78263" lon="86.722272">
        <ele>2819</ele>
        <time>2022-10-20T03:24:07.000Z</time>
      </trkpt>
      <trkpt lat="27.78265" lon="86.722259">
        <ele>2819</ele>
        <time>2022-10-20T03:24:10.000Z</time>
      </trkpt>
      <trkpt lat="27.782669" lon="86.722246">
        <ele>2819</ele>
        <time>2022-10-20T03:24:12.000Z</time>
      </trkpt>
      <trkpt lat="27.782685" lon="86.722227">
        <ele>2819.4</ele>
        <time>2022-10-20T03:24:14.000Z</time>
      </trkpt>
      <trkpt lat="27.782704" lon="86.722221">
        <ele>2819.4</ele>
        <time>2022-10-20T03:24:16.000Z</time>
      </trkpt>
      <trkpt lat="27.782726" lon="86.722214">
        <ele>2820.2</ele>
        <time>2022-10-20T03:24:19.000Z</time>
      </trkpt>
      <trkpt lat="27.782746" lon="86.722221">
        <ele>2820.2</ele>
        <time>2022-10-20T03:24:21.000Z</time>
      </trkpt>
      <trkpt lat="27.782768" lon="86.722221">
        <ele>2820.8</ele>
        <time>2022-10-20T03:24:24.000Z</time>
      </trkpt>
      <trkpt lat="27.782787" lon="86.722221">
        <ele>2821.4</ele>
        <time>2022-10-20T03:24:27.000Z</time>
      </trkpt>
      <trkpt lat="27.782806" lon="86.722234">
        <ele>2822.4</ele>
        <time>2022-10-20T03:24:31.000Z</time>
      </trkpt>
      <trkpt lat="27.782829" lon="86.722227">
        <ele>2823.2</ele>
        <time>2022-10-20T03:24:34.000Z</time>
      </trkpt>
      <trkpt lat="27.782851" lon="86.722221">
        <ele>2823.6</ele>
        <time>2022-10-20T03:24:38.000Z</time>
      </trkpt>
      <trkpt lat="27.782874" lon="86.722214">
        <ele>2823.6</ele>
        <time>2022-10-20T03:24:41.000Z</time>
      </trkpt>
      <trkpt lat="27.782893" lon="86.722214">
        <ele>2823.6</ele>
        <time>2022-10-20T03:24:43.000Z</time>
      </trkpt>
      <trkpt lat="27.782912" lon="86.722214">
        <ele>2824.2</ele>
        <time>2022-10-20T03:24:46.000Z</time>
      </trkpt>
      <trkpt lat="27.782938" lon="86.722214">
        <ele>2824.2</ele>
        <time>2022-10-20T03:24:49.000Z</time>
      </trkpt>
      <trkpt lat="27.782957" lon="86.722214">
        <ele>2824.4</ele>
        <time>2022-10-20T03:24:51.000Z</time>
      </trkpt>
      <trkpt lat="27.782979" lon="86.722202">
        <ele>2824.6</ele>
        <time>2022-10-20T03:24:54.000Z</time>
      </trkpt>
      <trkpt lat="27.782998" lon="86.722208">
        <ele>2825</ele>
        <time>2022-10-20T03:24:56.000Z</time>
      </trkpt>
      <trkpt lat="27.78305" lon="86.722202">
        <ele>2825.2</ele>
        <time>2022-10-20T03:25:02.000Z</time>
      </trkpt>
      <trkpt lat="27.783059" lon="86.722182">
        <ele>2825.8</ele>
        <time>2022-10-20T03:25:04.000Z</time>
      </trkpt>
      <trkpt lat="27.783078" lon="86.722189">
        <ele>2826</ele>
        <time>2022-10-20T03:25:06.000Z</time>
      </trkpt>
      <trkpt lat="27.783104" lon="86.722189">
        <ele>2826</ele>
        <time>2022-10-20T03:25:08.000Z</time>
      </trkpt>
      <trkpt lat="27.783126" lon="86.722202">
        <ele>2826.4</ele>
        <time>2022-10-20T03:25:10.000Z</time>
      </trkpt>
      <trkpt lat="27.783149" lon="86.722189">
        <ele>2826.4</ele>
        <time>2022-10-20T03:25:12.000Z</time>
      </trkpt>
      <trkpt lat="27.783171" lon="86.722182">
        <ele>2826.6</ele>
        <time>2022-10-20T03:25:15.000Z</time>
      </trkpt>
      <trkpt lat="27.78319" lon="86.72217">
        <ele>2827.2</ele>
        <time>2022-10-20T03:25:17.000Z</time>
      </trkpt>
      <trkpt lat="27.7832" lon="86.72215">
        <ele>2827.2</ele>
        <time>2022-10-20T03:25:18.000Z</time>
      </trkpt>
      <trkpt lat="27.783219" lon="86.722163">
        <ele>2827.4</ele>
        <time>2022-10-20T03:25:19.000Z</time>
      </trkpt>
      <trkpt lat="27.783219" lon="86.722138">
        <ele>2827.4</ele>
        <time>2022-10-20T03:25:24.000Z</time>
      </trkpt>
      <trkpt lat="27.783238" lon="86.722131">
        <ele>2827.6</ele>
        <time>2022-10-20T03:25:29.000Z</time>
      </trkpt>
      <trkpt lat="27.783261" lon="86.722138">
        <ele>2828</ele>
        <time>2022-10-20T03:25:31.000Z</time>
      </trkpt>
      <trkpt lat="27.78328" lon="86.722131">
        <ele>2828.2</ele>
        <time>2022-10-20T03:25:34.000Z</time>
      </trkpt>
      <trkpt lat="27.783299" lon="86.722144">
        <ele>2828.6</ele>
        <time>2022-10-20T03:25:37.000Z</time>
      </trkpt>
      <trkpt lat="27.783315" lon="86.722163">
        <ele>2829</ele>
        <time>2022-10-20T03:25:48.000Z</time>
      </trkpt>
      <trkpt lat="27.783299" lon="86.72215">
        <ele>2829.2</ele>
        <time>2022-10-20T03:25:54.000Z</time>
      </trkpt>
      <trkpt lat="27.78329" lon="86.722131">
        <ele>2828.6</ele>
        <time>2022-10-20T03:26:00.000Z</time>
      </trkpt>
      <trkpt lat="27.783322" lon="86.722163">
        <ele>2829</ele>
        <time>2022-10-20T03:26:08.000Z</time>
      </trkpt>
      <trkpt lat="27.783341" lon="86.72217">
        <ele>2829</ele>
        <time>2022-10-20T03:26:10.000Z</time>
      </trkpt>
      <trkpt lat="27.783363" lon="86.722182">
        <ele>2829.4</ele>
        <time>2022-10-20T03:26:12.000Z</time>
      </trkpt>
      <trkpt lat="27.783405" lon="86.722163">
        <ele>2829.6</ele>
        <time>2022-10-20T03:26:17.000Z</time>
      </trkpt>
      <trkpt lat="27.783418" lon="86.722144">
        <ele>2829.8</ele>
        <time>2022-10-20T03:26:19.000Z</time>
      </trkpt>
      <trkpt lat="27.783437" lon="86.722144">
        <ele>2830</ele>
        <time>2022-10-20T03:26:21.000Z</time>
      </trkpt>
      <trkpt lat="27.783469" lon="86.722163">
        <ele>2830.6</ele>
        <time>2022-10-20T03:26:44.000Z</time>
      </trkpt>
      <trkpt lat="27.783491" lon="86.72217">
        <ele>2830.6</ele>
        <time>2022-10-20T03:26:45.000Z</time>
      </trkpt>
      <trkpt lat="27.78351" lon="86.722176">
        <ele>2830.6</ele>
        <time>2022-10-20T03:26:46.000Z</time>
      </trkpt>
      <trkpt lat="27.783536" lon="86.722182">
        <ele>2830.6</ele>
        <time>2022-10-20T03:26:48.000Z</time>
      </trkpt>
      <trkpt lat="27.783552" lon="86.722202">
        <ele>2830.6</ele>
        <time>2022-10-20T03:26:50.000Z</time>
      </trkpt>
      <trkpt lat="27.783578" lon="86.722214">
        <ele>2830.4</ele>
        <time>2022-10-20T03:26:53.000Z</time>
      </trkpt>
      <trkpt lat="27.783606" lon="86.722227">
        <ele>2830</ele>
        <time>2022-10-20T03:26:56.000Z</time>
      </trkpt>
      <trkpt lat="27.783632" lon="86.722234">
        <ele>2829.8</ele>
        <time>2022-10-20T03:26:58.000Z</time>
      </trkpt>
      <trkpt lat="27.783654" lon="86.722234">
        <ele>2829.6</ele>
        <time>2022-10-20T03:27:00.000Z</time>
      </trkpt>
      <trkpt lat="27.783674" lon="86.722246">
        <ele>2829.4</ele>
        <time>2022-10-20T03:27:02.000Z</time>
      </trkpt>
      <trkpt lat="27.783699" lon="86.722253">
        <ele>2829.6</ele>
        <time>2022-10-20T03:27:04.000Z</time>
      </trkpt>
      <trkpt lat="27.783722" lon="86.722266">
        <ele>2829.6</ele>
        <time>2022-10-20T03:27:06.000Z</time>
      </trkpt>
      <trkpt lat="27.783747" lon="86.722259">
        <ele>2829.4</ele>
        <time>2022-10-20T03:27:09.000Z</time>
      </trkpt>
      <trkpt lat="27.783773" lon="86.722259">
        <ele>2829.4</ele>
        <time>2022-10-20T03:27:11.000Z</time>
      </trkpt>
      <trkpt lat="27.783786" lon="86.722234">
        <ele>2829.6</ele>
        <time>2022-10-20T03:27:15.000Z</time>
      </trkpt>
      <trkpt lat="27.783795" lon="86.722214">
        <ele>2830</ele>
        <time>2022-10-20T03:27:17.000Z</time>
      </trkpt>
      <trkpt lat="27.783811" lon="86.722202">
        <ele>2830.4</ele>
        <time>2022-10-20T03:27:19.000Z</time>
      </trkpt>
      <trkpt lat="27.783834" lon="86.722189">
        <ele>2831</ele>
        <time>2022-10-20T03:27:21.000Z</time>
      </trkpt>
      <trkpt lat="27.783853" lon="86.722182">
        <ele>2831.6</ele>
        <time>2022-10-20T03:27:24.000Z</time>
      </trkpt>
      <trkpt lat="27.783878" lon="86.722182">
        <ele>2831.2</ele>
        <time>2022-10-20T03:27:27.000Z</time>
      </trkpt>
      <trkpt lat="27.783898" lon="86.722182">
        <ele>2831.4</ele>
        <time>2022-10-20T03:27:29.000Z</time>
      </trkpt>
      <trkpt lat="27.783917" lon="86.72217">
        <ele>2831.6</ele>
        <time>2022-10-20T03:27:32.000Z</time>
      </trkpt>
      <trkpt lat="27.783936" lon="86.722163">
        <ele>2831.2</ele>
        <time>2022-10-20T03:27:34.000Z</time>
      </trkpt>
      <trkpt lat="27.783952" lon="86.72215">
        <ele>2831.4</ele>
        <time>2022-10-20T03:27:36.000Z</time>
      </trkpt>
      <trkpt lat="27.783974" lon="86.722131">
        <ele>2831.4</ele>
        <time>2022-10-20T03:27:38.000Z</time>
      </trkpt>
      <trkpt lat="27.78399" lon="86.722112">
        <ele>2831.4</ele>
        <time>2022-10-20T03:27:40.000Z</time>
      </trkpt>
      <trkpt lat="27.784016" lon="86.722099">
        <ele>2831.4</ele>
        <time>2022-10-20T03:27:42.000Z</time>
      </trkpt>
      <trkpt lat="27.784045" lon="86.722067">
        <ele>2831.6</ele>
        <time>2022-10-20T03:27:44.000Z</time>
      </trkpt>
      <trkpt lat="27.784077" lon="86.722048">
        <ele>2831.6</ele>
        <time>2022-10-20T03:27:46.000Z</time>
      </trkpt>
      <trkpt lat="27.784093" lon="86.722035">
        <ele>2831.6</ele>
        <time>2022-10-20T03:27:47.000Z</time>
      </trkpt>
      <trkpt lat="27.784109" lon="86.722016">
        <ele>2831.8</ele>
        <time>2022-10-20T03:27:49.000Z</time>
      </trkpt>
      <trkpt lat="27.784131" lon="86.722003">
        <ele>2831.8</ele>
        <time>2022-10-20T03:27:51.000Z</time>
      </trkpt>
      <trkpt lat="27.784144" lon="86.722022">
        <ele>2832</ele>
        <time>2022-10-20T03:27:52.000Z</time>
      </trkpt>
      <trkpt lat="27.78416" lon="86.722054">
        <ele>2832.2</ele>
        <time>2022-10-20T03:27:54.000Z</time>
      </trkpt>
      <trkpt lat="27.784179" lon="86.722054">
        <ele>2832.2</ele>
        <time>2022-10-20T03:27:56.000Z</time>
      </trkpt>
      <trkpt lat="27.784205" lon="86.722054">
        <ele>2832.2</ele>
        <time>2022-10-20T03:27:58.000Z</time>
      </trkpt>
      <trkpt lat="27.784224" lon="86.722054">
        <ele>2832.2</ele>
        <time>2022-10-20T03:28:00.000Z</time>
      </trkpt>
      <trkpt lat="27.784246" lon="86.722054">
        <ele>2832.2</ele>
        <time>2022-10-20T03:28:02.000Z</time>
      </trkpt>
      <trkpt lat="27.784272" lon="86.722061">
        <ele>2832.2</ele>
        <time>2022-10-20T03:28:04.000Z</time>
      </trkpt>
      <trkpt lat="27.784291" lon="86.722086">
        <ele>2832.2</ele>
        <time>2022-10-20T03:28:06.000Z</time>
      </trkpt>
      <trkpt lat="27.784317" lon="86.722074">
        <ele>2832.2</ele>
        <time>2022-10-20T03:28:08.000Z</time>
      </trkpt>
      <trkpt lat="27.784336" lon="86.722035">
        <ele>2832.2</ele>
        <time>2022-10-20T03:28:10.000Z</time>
      </trkpt>
      <trkpt lat="27.784352" lon="86.722022">
        <ele>2832.6</ele>
        <time>2022-10-20T03:28:12.000Z</time>
      </trkpt>
      <trkpt lat="27.784371" lon="86.722022">
        <ele>2832.8</ele>
        <time>2022-10-20T03:28:14.000Z</time>
      </trkpt>
      <trkpt lat="27.784397" lon="86.722035">
        <ele>2833.2</ele>
        <time>2022-10-20T03:28:17.000Z</time>
      </trkpt>
      <trkpt lat="27.784413" lon="86.722048">
        <ele>2833.6</ele>
        <time>2022-10-20T03:28:19.000Z</time>
      </trkpt>
      <trkpt lat="27.784435" lon="86.722054">
        <ele>2834</ele>
        <time>2022-10-20T03:28:22.000Z</time>
      </trkpt>
      <trkpt lat="27.784458" lon="86.722054">
        <ele>2834</ele>
        <time>2022-10-20T03:28:25.000Z</time>
      </trkpt>
      <trkpt lat="27.784483" lon="86.722067">
        <ele>2834.2</ele>
        <time>2022-10-20T03:28:27.000Z</time>
      </trkpt>
      <trkpt lat="27.784502" lon="86.722061">
        <ele>2834.2</ele>
        <time>2022-10-20T03:28:30.000Z</time>
      </trkpt>
      <trkpt lat="27.784522" lon="86.722054">
        <ele>2834.2</ele>
        <time>2022-10-20T03:28:32.000Z</time>
      </trkpt>
      <trkpt lat="27.78455" lon="86.722061">
        <ele>2834.2</ele>
        <time>2022-10-20T03:28:34.000Z</time>
      </trkpt>
      <trkpt lat="27.784573" lon="86.722067">
        <ele>2834.4</ele>
        <time>2022-10-20T03:28:36.000Z</time>
      </trkpt>
      <trkpt lat="27.784592" lon="86.722074">
        <ele>2834.4</ele>
        <time>2022-10-20T03:28:38.000Z</time>
      </trkpt>
      <trkpt lat="27.784611" lon="86.722061">
        <ele>2835.2</ele>
        <time>2022-10-20T03:28:40.000Z</time>
      </trkpt>
      <trkpt lat="27.784634" lon="86.722054">
        <ele>2835.4</ele>
        <time>2022-10-20T03:28:43.000Z</time>
      </trkpt>
      <trkpt lat="27.784659" lon="86.722048">
        <ele>2836.2</ele>
        <time>2022-10-20T03:28:46.000Z</time>
      </trkpt>
      <trkpt lat="27.784678" lon="86.722035">
        <ele>2836.2</ele>
        <time>2022-10-20T03:28:49.000Z</time>
      </trkpt>
      <trkpt lat="27.784701" lon="86.722022">
        <ele>2837</ele>
        <time>2022-10-20T03:28:52.000Z</time>
      </trkpt>
      <trkpt lat="27.78472" lon="86.722016">
        <ele>2837.2</ele>
        <time>2022-10-20T03:28:54.000Z</time>
      </trkpt>
      <trkpt lat="27.784739" lon="86.72201">
        <ele>2837.2</ele>
        <time>2022-10-20T03:28:56.000Z</time>
      </trkpt>
      <trkpt lat="27.784765" lon="86.72199">
        <ele>2837.2</ele>
        <time>2022-10-20T03:28:59.000Z</time>
      </trkpt>
      <trkpt lat="27.784784" lon="86.72199">
        <ele>2837.6</ele>
        <time>2022-10-20T03:29:01.000Z</time>
      </trkpt>
      <trkpt lat="27.7848" lon="86.721978">
        <ele>2837.6</ele>
        <time>2022-10-20T03:29:03.000Z</time>
      </trkpt>
      <trkpt lat="27.784816" lon="86.721965">
        <ele>2837.6</ele>
        <time>2022-10-20T03:29:05.000Z</time>
      </trkpt>
      <trkpt lat="27.784832" lon="86.721952">
        <ele>2837.4</ele>
        <time>2022-10-20T03:29:07.000Z</time>
      </trkpt>
      <trkpt lat="27.784854" lon="86.721952">
        <ele>2837.6</ele>
        <time>2022-10-20T03:29:10.000Z</time>
      </trkpt>
      <trkpt lat="27.784874" lon="86.721952">
        <ele>2837.6</ele>
        <time>2022-10-20T03:29:12.000Z</time>
      </trkpt>
      <trkpt lat="27.784896" lon="86.721952">
        <ele>2837.8</ele>
        <time>2022-10-20T03:29:14.000Z</time>
      </trkpt>
      <trkpt lat="27.784918" lon="86.721946">
        <ele>2837.6</ele>
        <time>2022-10-20T03:29:16.000Z</time>
      </trkpt>
      <trkpt lat="27.784938" lon="86.721926">
        <ele>2837.6</ele>
        <time>2022-10-20T03:29:18.000Z</time>
      </trkpt>
      <trkpt lat="27.784954" lon="86.721914">
        <ele>2837.6</ele>
        <time>2022-10-20T03:29:19.000Z</time>
      </trkpt>
      <trkpt lat="27.784973" lon="86.721914">
        <ele>2837.6</ele>
        <time>2022-10-20T03:29:20.000Z</time>
      </trkpt>
      <trkpt lat="27.784995" lon="86.721907">
        <ele>2837.8</ele>
        <time>2022-10-20T03:29:22.000Z</time>
      </trkpt>
      <trkpt lat="27.785014" lon="86.721901">
        <ele>2837.8</ele>
        <time>2022-10-20T03:29:24.000Z</time>
      </trkpt>
      <trkpt lat="27.785043" lon="86.721901">
        <ele>2837.8</ele>
        <time>2022-10-20T03:29:26.000Z</time>
      </trkpt>
      <trkpt lat="27.785075" lon="86.721901">
        <ele>2838</ele>
        <time>2022-10-20T03:29:28.000Z</time>
      </trkpt>
      <trkpt lat="27.785094" lon="86.721894">
        <ele>2838</ele>
        <time>2022-10-20T03:29:30.000Z</time>
      </trkpt>
      <trkpt lat="27.785107" lon="86.721875">
        <ele>2838</ele>
        <time>2022-10-20T03:29:32.000Z</time>
      </trkpt>
      <trkpt lat="27.785123" lon="86.721862">
        <ele>2838.2</ele>
        <time>2022-10-20T03:29:34.000Z</time>
      </trkpt>
      <trkpt lat="27.785146" lon="86.72185">
        <ele>2838.2</ele>
        <time>2022-10-20T03:29:37.000Z</time>
      </trkpt>
      <trkpt lat="27.785155" lon="86.721824">
        <ele>2838.2</ele>
        <time>2022-10-20T03:29:39.000Z</time>
      </trkpt>
      <trkpt lat="27.785171" lon="86.721805">
        <ele>2838.6</ele>
        <time>2022-10-20T03:29:42.000Z</time>
      </trkpt>
      <trkpt lat="27.785178" lon="86.721773">
        <ele>2838.4</ele>
        <time>2022-10-20T03:29:44.000Z</time>
      </trkpt>
      <trkpt lat="27.785194" lon="86.721754">
        <ele>2838.6</ele>
        <time>2022-10-20T03:29:46.000Z</time>
      </trkpt>
      <trkpt lat="27.785206" lon="86.721728">
        <ele>2839</ele>
        <time>2022-10-20T03:29:48.000Z</time>
      </trkpt>
      <trkpt lat="27.785226" lon="86.721709">
        <ele>2839</ele>
        <time>2022-10-20T03:29:50.000Z</time>
      </trkpt>
      <trkpt lat="27.785248" lon="86.721702">
        <ele>2839</ele>
        <time>2022-10-20T03:29:52.000Z</time>
      </trkpt>
      <trkpt lat="27.785261" lon="86.721664">
        <ele>2839.2</ele>
        <time>2022-10-20T03:29:56.000Z</time>
      </trkpt>
      <trkpt lat="27.785283" lon="86.721658">
        <ele>2839.6</ele>
        <time>2022-10-20T03:29:58.000Z</time>
      </trkpt>
      <trkpt lat="27.785306" lon="86.721664">
        <ele>2839.8</ele>
        <time>2022-10-20T03:30:00.000Z</time>
      </trkpt>
      <trkpt lat="27.785325" lon="86.721664">
        <ele>2840.4</ele>
        <time>2022-10-20T03:30:03.000Z</time>
      </trkpt>
      <trkpt lat="27.785347" lon="86.721664">
        <ele>2840.8</ele>
        <time>2022-10-20T03:30:06.000Z</time>
      </trkpt>
      <trkpt lat="27.785373" lon="86.721658">
        <ele>2840.8</ele>
        <time>2022-10-20T03:30:09.000Z</time>
      </trkpt>
      <trkpt lat="27.785392" lon="86.721651">
        <ele>2841</ele>
        <time>2022-10-20T03:30:11.000Z</time>
      </trkpt>
      <trkpt lat="27.785405" lon="86.721632">
        <ele>2841.2</ele>
        <time>2022-10-20T03:30:13.000Z</time>
      </trkpt>
      <trkpt lat="27.78543" lon="86.721626">
        <ele>2841.2</ele>
        <time>2022-10-20T03:30:15.000Z</time>
      </trkpt>
      <trkpt lat="27.785453" lon="86.721619">
        <ele>2841.4</ele>
        <time>2022-10-20T03:30:18.000Z</time>
      </trkpt>
      <trkpt lat="27.785469" lon="86.721606">
        <ele>2841.6</ele>
        <time>2022-10-20T03:30:21.000Z</time>
      </trkpt>
      <trkpt lat="27.785482" lon="86.721587">
        <ele>2842</ele>
        <time>2022-10-20T03:30:23.000Z</time>
      </trkpt>
      <trkpt lat="27.785501" lon="86.721568">
        <ele>2842.2</ele>
        <time>2022-10-20T03:30:36.000Z</time>
      </trkpt>
      <trkpt lat="27.785523" lon="86.721568">
        <ele>2842.2</ele>
        <time>2022-10-20T03:30:38.000Z</time>
      </trkpt>
      <trkpt lat="27.785523" lon="86.721536">
        <ele>2842.2</ele>
        <time>2022-10-20T03:30:41.000Z</time>
      </trkpt>
      <trkpt lat="27.785542" lon="86.721536">
        <ele>2843</ele>
        <time>2022-10-20T03:30:45.000Z</time>
      </trkpt>
      <trkpt lat="27.785562" lon="86.72153">
        <ele>2843.6</ele>
        <time>2022-10-20T03:30:47.000Z</time>
      </trkpt>
      <trkpt lat="27.785574" lon="86.72151">
        <ele>2843.6</ele>
        <time>2022-10-20T03:30:49.000Z</time>
      </trkpt>
      <trkpt lat="27.78559" lon="86.721491">
        <ele>2844.4</ele>
        <time>2022-10-20T03:30:53.000Z</time>
      </trkpt>
      <trkpt lat="27.785597" lon="86.721472">
        <ele>2845.2</ele>
        <time>2022-10-20T03:30:56.000Z</time>
      </trkpt>
      <trkpt lat="27.785616" lon="86.721466">
        <ele>2846.6</ele>
        <time>2022-10-20T03:31:01.000Z</time>
      </trkpt>
      <trkpt lat="27.785638" lon="86.721491">
        <ele>2847</ele>
        <time>2022-10-20T03:31:04.000Z</time>
      </trkpt>
      <trkpt lat="27.785651" lon="86.721472">
        <ele>2847.8</ele>
        <time>2022-10-20T03:31:10.000Z</time>
      </trkpt>
      <trkpt lat="27.785651" lon="86.721498">
        <ele>2848.6</ele>
        <time>2022-10-20T03:31:17.000Z</time>
      </trkpt>
      <trkpt lat="27.785661" lon="86.721478">
        <ele>2848.6</ele>
        <time>2022-10-20T03:31:23.000Z</time>
      </trkpt>
      <trkpt lat="27.78568" lon="86.721466">
        <ele>2848.8</ele>
        <time>2022-10-20T03:31:27.000Z</time>
      </trkpt>
      <trkpt lat="27.785699" lon="86.721434">
        <ele>2852</ele>
        <time>2022-10-20T03:31:59.000Z</time>
      </trkpt>
      <trkpt lat="27.785722" lon="86.721414">
        <ele>2852.2</ele>
        <time>2022-10-20T03:32:01.000Z</time>
      </trkpt>
      <trkpt lat="27.785741" lon="86.721408">
        <ele>2852.2</ele>
        <time>2022-10-20T03:32:02.000Z</time>
      </trkpt>
      <trkpt lat="27.78575" lon="86.721389">
        <ele>2852.2</ele>
        <time>2022-10-20T03:32:03.000Z</time>
      </trkpt>
      <trkpt lat="27.785776" lon="86.721376">
        <ele>2852.8</ele>
        <time>2022-10-20T03:32:05.000Z</time>
      </trkpt>
      <trkpt lat="27.785795" lon="86.721357">
        <ele>2853.6</ele>
        <time>2022-10-20T03:32:07.000Z</time>
      </trkpt>
      <trkpt lat="27.785814" lon="86.721344">
        <ele>2854.8</ele>
        <time>2022-10-20T03:32:12.000Z</time>
      </trkpt>
      <trkpt lat="27.78583" lon="86.721331">
        <ele>2856</ele>
        <time>2022-10-20T03:32:16.000Z</time>
      </trkpt>
      <trkpt lat="27.785837" lon="86.721312">
        <ele>2856.2</ele>
        <time>2022-10-20T03:32:18.000Z</time>
      </trkpt>
      <trkpt lat="27.785862" lon="86.721306">
        <ele>2856.8</ele>
        <time>2022-10-20T03:32:21.000Z</time>
      </trkpt>
      <trkpt lat="27.785878" lon="86.721293">
        <ele>2856.8</ele>
        <time>2022-10-20T03:32:23.000Z</time>
      </trkpt>
      <trkpt lat="27.785885" lon="86.721274">
        <ele>2856.8</ele>
        <time>2022-10-20T03:32:24.000Z</time>
      </trkpt>
      <trkpt lat="27.785901" lon="86.721261">
        <ele>2856.8</ele>
        <time>2022-10-20T03:32:26.000Z</time>
      </trkpt>
      <trkpt lat="27.78592" lon="86.721235">
        <ele>2857.2</ele>
        <time>2022-10-20T03:32:28.000Z</time>
      </trkpt>
      <trkpt lat="27.785939" lon="86.721235">
        <ele>2857.6</ele>
        <time>2022-10-20T03:32:30.000Z</time>
      </trkpt>
      <trkpt lat="27.785949" lon="86.721216">
        <ele>2857</ele>
        <time>2022-10-20T03:32:32.000Z</time>
      </trkpt>
      <trkpt lat="27.785958" lon="86.72119">
        <ele>2856.6</ele>
        <time>2022-10-20T03:32:34.000Z</time>
      </trkpt>
      <trkpt lat="27.785984" lon="86.721184">
        <ele>2856.2</ele>
        <time>2022-10-20T03:32:37.000Z</time>
      </trkpt>
      <trkpt lat="27.786" lon="86.721171">
        <ele>2855.8</ele>
        <time>2022-10-20T03:32:39.000Z</time>
      </trkpt>
      <trkpt lat="27.786019" lon="86.721171">
        <ele>2855.2</ele>
        <time>2022-10-20T03:32:41.000Z</time>
      </trkpt>
      <trkpt lat="27.786035" lon="86.721152">
        <ele>2854.6</ele>
        <time>2022-10-20T03:32:43.000Z</time>
      </trkpt>
      <trkpt lat="27.786051" lon="86.721139">
        <ele>2854.2</ele>
        <time>2022-10-20T03:32:45.000Z</time>
      </trkpt>
      <trkpt lat="27.78607" lon="86.721139">
        <ele>2854</ele>
        <time>2022-10-20T03:32:46.000Z</time>
      </trkpt>
      <trkpt lat="27.78608" lon="86.72112">
        <ele>2853.8</ele>
        <time>2022-10-20T03:32:48.000Z</time>
      </trkpt>
      <trkpt lat="27.786109" lon="86.721107">
        <ele>2853.2</ele>
        <time>2022-10-20T03:32:50.000Z</time>
      </trkpt>
      <trkpt lat="27.786131" lon="86.721107">
        <ele>2853</ele>
        <time>2022-10-20T03:32:52.000Z</time>
      </trkpt>
      <trkpt lat="27.786154" lon="86.721101">
        <ele>2852.8</ele>
        <time>2022-10-20T03:32:54.000Z</time>
      </trkpt>
      <trkpt lat="27.786179" lon="86.721101">
        <ele>2852.4</ele>
        <time>2022-10-20T03:32:56.000Z</time>
      </trkpt>
      <trkpt lat="27.786202" lon="86.721114">
        <ele>2852.2</ele>
        <time>2022-10-20T03:32:58.000Z</time>
      </trkpt>
      <trkpt lat="27.786218" lon="86.721101">
        <ele>2851.4</ele>
        <time>2022-10-20T03:33:01.000Z</time>
      </trkpt>
      <trkpt lat="27.78623" lon="86.721082">
        <ele>2851.2</ele>
        <time>2022-10-20T03:33:04.000Z</time>
      </trkpt>
      <trkpt lat="27.786224" lon="86.721062">
        <ele>2851</ele>
        <time>2022-10-20T03:33:05.000Z</time>
      </trkpt>
      <trkpt lat="27.786218" lon="86.721037">
        <ele>2850.6</ele>
        <time>2022-10-20T03:33:07.000Z</time>
      </trkpt>
      <trkpt lat="27.786214" lon="86.720992">
        <ele>2849.4</ele>
        <time>2022-10-20T03:33:12.000Z</time>
      </trkpt>
      <trkpt lat="27.786211" lon="86.720954">
        <ele>2848.6</ele>
        <time>2022-10-20T03:33:15.000Z</time>
      </trkpt>
      <trkpt lat="27.786224" lon="86.720934">
        <ele>2848.4</ele>
        <time>2022-10-20T03:33:18.000Z</time>
      </trkpt>
      <trkpt lat="27.786246" lon="86.720922">
        <ele>2848</ele>
        <time>2022-10-20T03:33:21.000Z</time>
      </trkpt>
      <trkpt lat="27.78625" lon="86.720896">
        <ele>2847.2</ele>
        <time>2022-10-20T03:33:25.000Z</time>
      </trkpt>
      <trkpt lat="27.786256" lon="86.720877">
        <ele>2846.6</ele>
        <time>2022-10-20T03:33:29.000Z</time>
      </trkpt>
      <trkpt lat="27.786262" lon="86.720851">
        <ele>2845.6</ele>
        <time>2022-10-20T03:33:34.000Z</time>
      </trkpt>
      <trkpt lat="27.786269" lon="86.720826">
        <ele>2845</ele>
        <time>2022-10-20T03:33:37.000Z</time>
      </trkpt>
      <trkpt lat="27.786272" lon="86.720794">
        <ele>2844.8</ele>
        <time>2022-10-20T03:33:39.000Z</time>
      </trkpt>
      <trkpt lat="27.786288" lon="86.720762">
        <ele>2844.4</ele>
        <time>2022-10-20T03:33:41.000Z</time>
      </trkpt>
      <trkpt lat="27.786275" lon="86.720742">
        <ele>2844.2</ele>
        <time>2022-10-20T03:33:42.000Z</time>
      </trkpt>
      <trkpt lat="27.786285" lon="86.720717">
        <ele>2844.2</ele>
        <time>2022-10-20T03:33:44.000Z</time>
      </trkpt>
      <trkpt lat="27.786262" lon="86.720672">
        <ele>2844.2</ele>
        <time>2022-10-20T03:33:46.000Z</time>
      </trkpt>
      <trkpt lat="27.786269" lon="86.72064">
        <ele>2844.4</ele>
        <time>2022-10-20T03:33:48.000Z</time>
      </trkpt>
      <trkpt lat="27.786301" lon="86.720634">
        <ele>2844</ele>
        <time>2022-10-20T03:33:50.000Z</time>
      </trkpt>
      <trkpt lat="27.78633" lon="86.720627">
        <ele>2844</ele>
        <time>2022-10-20T03:33:52.000Z</time>
      </trkpt>
      <trkpt lat="27.786336" lon="86.720595">
        <ele>2843.8</ele>
        <time>2022-10-20T03:33:54.000Z</time>
      </trkpt>
      <trkpt lat="27.786346" lon="86.720576">
        <ele>2843.4</ele>
        <time>2022-10-20T03:33:56.000Z</time>
      </trkpt>
      <trkpt lat="27.786352" lon="86.720557">
        <ele>2843.4</ele>
        <time>2022-10-20T03:33:57.000Z</time>
      </trkpt>
      <trkpt lat="27.786368" lon="86.720544">
        <ele>2843.2</ele>
        <time>2022-10-20T03:33:59.000Z</time>
      </trkpt>
      <trkpt lat="27.786394" lon="86.720525">
        <ele>2843.4</ele>
        <time>2022-10-20T03:34:01.000Z</time>
      </trkpt>
      <trkpt lat="27.786416" lon="86.720518">
        <ele>2843.4</ele>
        <time>2022-10-20T03:34:03.000Z</time>
      </trkpt>
      <trkpt lat="27.786435" lon="86.720506">
        <ele>2843.6</ele>
        <time>2022-10-20T03:34:05.000Z</time>
      </trkpt>
      <trkpt lat="27.786458" lon="86.720486">
        <ele>2844.2</ele>
        <time>2022-10-20T03:34:08.000Z</time>
      </trkpt>
      <trkpt lat="27.786467" lon="86.720467">
        <ele>2844.8</ele>
        <time>2022-10-20T03:34:11.000Z</time>
      </trkpt>
      <trkpt lat="27.786483" lon="86.720454">
        <ele>2845.2</ele>
        <time>2022-10-20T03:34:13.000Z</time>
      </trkpt>
      <trkpt lat="27.786499" lon="86.720442">
        <ele>2845.4</ele>
        <time>2022-10-20T03:34:15.000Z</time>
      </trkpt>
      <trkpt lat="27.786515" lon="86.720429">
        <ele>2845.6</ele>
        <time>2022-10-20T03:34:17.000Z</time>
      </trkpt>
      <trkpt lat="27.786534" lon="86.720422">
        <ele>2846.2</ele>
        <time>2022-10-20T03:34:19.000Z</time>
      </trkpt>
      <trkpt lat="27.786554" lon="86.720422">
        <ele>2846.4</ele>
        <time>2022-10-20T03:34:20.000Z</time>
      </trkpt>
      <trkpt lat="27.786544" lon="86.72039">
        <ele>2846.4</ele>
        <time>2022-10-20T03:34:22.000Z</time>
      </trkpt>
      <trkpt lat="27.786541" lon="86.720365">
        <ele>2847</ele>
        <time>2022-10-20T03:34:25.000Z</time>
      </trkpt>
      <trkpt lat="27.786579" lon="86.720378">
        <ele>2847.2</ele>
        <time>2022-10-20T03:34:27.000Z</time>
      </trkpt>
      <trkpt lat="27.786598" lon="86.720384">
        <ele>2847.2</ele>
        <time>2022-10-20T03:34:28.000Z</time>
      </trkpt>
      <trkpt lat="27.786605" lon="86.720358">
        <ele>2847.6</ele>
        <time>2022-10-20T03:34:31.000Z</time>
      </trkpt>
      <trkpt lat="27.786637" lon="86.720352">
        <ele>2848</ele>
        <time>2022-10-20T03:34:34.000Z</time>
      </trkpt>
      <trkpt lat="27.786646" lon="86.720326">
        <ele>2848.2</ele>
        <time>2022-10-20T03:34:36.000Z</time>
      </trkpt>
      <trkpt lat="27.786653" lon="86.720301">
        <ele>2848.2</ele>
        <time>2022-10-20T03:34:39.000Z</time>
      </trkpt>
      <trkpt lat="27.786672" lon="86.720288">
        <ele>2848.2</ele>
        <time>2022-10-20T03:34:41.000Z</time>
      </trkpt>
      <trkpt lat="27.786691" lon="86.720288">
        <ele>2848.8</ele>
        <time>2022-10-20T03:34:44.000Z</time>
      </trkpt>
      <trkpt lat="27.786691" lon="86.720262">
        <ele>2849.4</ele>
        <time>2022-10-20T03:34:47.000Z</time>
      </trkpt>
      <trkpt lat="27.786701" lon="86.720243">
        <ele>2849.4</ele>
        <time>2022-10-20T03:34:48.000Z</time>
      </trkpt>
      <trkpt lat="27.786717" lon="86.72023">
        <ele>2849.2</ele>
        <time>2022-10-20T03:34:50.000Z</time>
      </trkpt>
      <trkpt lat="27.786714" lon="86.720205">
        <ele>2849.2</ele>
        <time>2022-10-20T03:34:52.000Z</time>
      </trkpt>
      <trkpt lat="27.786736" lon="86.720192">
        <ele>2849.4</ele>
        <time>2022-10-20T03:34:54.000Z</time>
      </trkpt>
      <trkpt lat="27.786765" lon="86.720192">
        <ele>2849.4</ele>
        <time>2022-10-20T03:34:56.000Z</time>
      </trkpt>
      <trkpt lat="27.786778" lon="86.720166">
        <ele>2849.6</ele>
        <time>2022-10-20T03:34:58.000Z</time>
      </trkpt>
      <trkpt lat="27.786794" lon="86.720154">
        <ele>2850.2</ele>
        <time>2022-10-20T03:35:02.000Z</time>
      </trkpt>
      <trkpt lat="27.78681" lon="86.720141">
        <ele>2850.2</ele>
        <time>2022-10-20T03:35:04.000Z</time>
      </trkpt>
      <trkpt lat="27.786829" lon="86.720128">
        <ele>2850.4</ele>
        <time>2022-10-20T03:35:06.000Z</time>
      </trkpt>
      <trkpt lat="27.786864" lon="86.720128">
        <ele>2850.4</ele>
        <time>2022-10-20T03:35:09.000Z</time>
      </trkpt>
      <trkpt lat="27.786883" lon="86.720128">
        <ele>2850.6</ele>
        <time>2022-10-20T03:35:10.000Z</time>
      </trkpt>
      <trkpt lat="27.786902" lon="86.720122">
        <ele>2850.8</ele>
        <time>2022-10-20T03:35:12.000Z</time>
      </trkpt>
      <trkpt lat="27.786922" lon="86.720122">
        <ele>2850.8</ele>
        <time>2022-10-20T03:35:14.000Z</time>
      </trkpt>
      <trkpt lat="27.786941" lon="86.720128">
        <ele>2851.8</ele>
        <time>2022-10-20T03:35:16.000Z</time>
      </trkpt>
      <trkpt lat="27.786963" lon="86.720128">
        <ele>2851.8</ele>
        <time>2022-10-20T03:35:18.000Z</time>
      </trkpt>
      <trkpt lat="27.786989" lon="86.720128">
        <ele>2851.6</ele>
        <time>2022-10-20T03:35:20.000Z</time>
      </trkpt>
      <trkpt lat="27.787014" lon="86.720122">
        <ele>2851.2</ele>
        <time>2022-10-20T03:35:22.000Z</time>
      </trkpt>
      <trkpt lat="27.787037" lon="86.720115">
        <ele>2851.4</ele>
        <time>2022-10-20T03:35:24.000Z</time>
      </trkpt>
      <trkpt lat="27.78705" lon="86.720083">
        <ele>2852</ele>
        <time>2022-10-20T03:35:27.000Z</time>
      </trkpt>
      <trkpt lat="27.787072" lon="86.72007">
        <ele>2852</ele>
        <time>2022-10-20T03:35:30.000Z</time>
      </trkpt>
      <trkpt lat="27.787091" lon="86.720058">
        <ele>2852.2</ele>
        <time>2022-10-20T03:35:32.000Z</time>
      </trkpt>
      <trkpt lat="27.787114" lon="86.720038">
        <ele>2852.4</ele>
        <time>2022-10-20T03:35:35.000Z</time>
      </trkpt>
      <trkpt lat="27.78713" lon="86.720019">
        <ele>2852.8</ele>
        <time>2022-10-20T03:35:38.000Z</time>
      </trkpt>
      <trkpt lat="27.787133" lon="86.719994">
        <ele>2852.8</ele>
        <time>2022-10-20T03:35:40.000Z</time>
      </trkpt>
      <trkpt lat="27.787139" lon="86.719968">
        <ele>2852.8</ele>
        <time>2022-10-20T03:35:42.000Z</time>
      </trkpt>
      <trkpt lat="27.787146" lon="86.719949">
        <ele>2852.8</ele>
        <time>2022-10-20T03:35:44.000Z</time>
      </trkpt>
      <trkpt lat="27.787158" lon="86.71993">
        <ele>2852.8</ele>
        <time>2022-10-20T03:35:46.000Z</time>
      </trkpt>
      <trkpt lat="27.787178" lon="86.719917">
        <ele>2852.6</ele>
        <time>2022-10-20T03:35:48.000Z</time>
      </trkpt>
      <trkpt lat="27.787194" lon="86.719898">
        <ele>2852.8</ele>
        <time>2022-10-20T03:35:51.000Z</time>
      </trkpt>
      <trkpt lat="27.78721" lon="86.719885">
        <ele>2852.8</ele>
        <time>2022-10-20T03:35:53.000Z</time>
      </trkpt>
      <trkpt lat="27.787226" lon="86.719898">
        <ele>2852.6</ele>
        <time>2022-10-20T03:35:56.000Z</time>
      </trkpt>
      <trkpt lat="27.787251" lon="86.719898">
        <ele>2852.6</ele>
        <time>2022-10-20T03:35:59.000Z</time>
      </trkpt>
      <trkpt lat="27.787267" lon="86.719885">
        <ele>2852.8</ele>
        <time>2022-10-20T03:36:01.000Z</time>
      </trkpt>
      <trkpt lat="27.78729" lon="86.719885">
        <ele>2852.4</ele>
        <time>2022-10-20T03:36:03.000Z</time>
      </trkpt>
      <trkpt lat="27.787312" lon="86.719878">
        <ele>2852.6</ele>
        <time>2022-10-20T03:36:05.000Z</time>
      </trkpt>
      <trkpt lat="27.787341" lon="86.719872">
        <ele>2852.8</ele>
        <time>2022-10-20T03:36:07.000Z</time>
      </trkpt>
      <trkpt lat="27.78736" lon="86.719859">
        <ele>2853</ele>
        <time>2022-10-20T03:36:09.000Z</time>
      </trkpt>
      <trkpt lat="27.787386" lon="86.71984">
        <ele>2853.4</ele>
        <time>2022-10-20T03:36:12.000Z</time>
      </trkpt>
      <trkpt lat="27.787398" lon="86.719821">
        <ele>2853.6</ele>
        <time>2022-10-20T03:36:15.000Z</time>
      </trkpt>
      <trkpt lat="27.787411" lon="86.719802">
        <ele>2854</ele>
        <time>2022-10-20T03:36:17.000Z</time>
      </trkpt>
      <trkpt lat="27.787427" lon="86.719789">
        <ele>2854.4</ele>
        <time>2022-10-20T03:36:19.000Z</time>
      </trkpt>
      <trkpt lat="27.78744" lon="86.71977">
        <ele>2854.6</ele>
        <time>2022-10-20T03:36:21.000Z</time>
      </trkpt>
      <trkpt lat="27.787466" lon="86.719763">
        <ele>2855</ele>
        <time>2022-10-20T03:36:23.000Z</time>
      </trkpt>
      <trkpt lat="27.787485" lon="86.719757">
        <ele>2855.2</ele>
        <time>2022-10-20T03:36:25.000Z</time>
      </trkpt>
      <trkpt lat="27.787507" lon="86.71975">
        <ele>2855.4</ele>
        <time>2022-10-20T03:36:27.000Z</time>
      </trkpt>
      <trkpt lat="27.78752" lon="86.719731">
        <ele>2855.6</ele>
        <time>2022-10-20T03:36:29.000Z</time>
      </trkpt>
      <trkpt lat="27.78753" lon="86.719712">
        <ele>2855.8</ele>
        <time>2022-10-20T03:36:31.000Z</time>
      </trkpt>
      <trkpt lat="27.787549" lon="86.719699">
        <ele>2855.8</ele>
        <time>2022-10-20T03:36:33.000Z</time>
      </trkpt>
      <trkpt lat="27.787568" lon="86.71968">
        <ele>2855.8</ele>
        <time>2022-10-20T03:36:35.000Z</time>
      </trkpt>
      <trkpt lat="27.787587" lon="86.719667">
        <ele>2856.4</ele>
        <time>2022-10-20T03:36:38.000Z</time>
      </trkpt>
      <trkpt lat="27.787606" lon="86.719661">
        <ele>2856.4</ele>
        <time>2022-10-20T03:36:40.000Z</time>
      </trkpt>
      <trkpt lat="27.787629" lon="86.719642">
        <ele>2856.4</ele>
        <time>2022-10-20T03:36:42.000Z</time>
      </trkpt>
      <trkpt lat="27.787658" lon="86.719635">
        <ele>2856.6</ele>
        <time>2022-10-20T03:36:44.000Z</time>
      </trkpt>
      <trkpt lat="27.787677" lon="86.719648">
        <ele>2856.6</ele>
        <time>2022-10-20T03:36:45.000Z</time>
      </trkpt>
      <trkpt lat="27.787702" lon="86.719648">
        <ele>2856.4</ele>
        <time>2022-10-20T03:36:47.000Z</time>
      </trkpt>
      <trkpt lat="27.787728" lon="86.719648">
        <ele>2856.4</ele>
        <time>2022-10-20T03:36:49.000Z</time>
      </trkpt>
      <trkpt lat="27.78775" lon="86.719642">
        <ele>2856.8</ele>
        <time>2022-10-20T03:36:51.000Z</time>
      </trkpt>
      <trkpt lat="27.787773" lon="86.719635">
        <ele>2856.8</ele>
        <time>2022-10-20T03:36:53.000Z</time>
      </trkpt>
      <trkpt lat="27.787795" lon="86.719642">
        <ele>2857.2</ele>
        <time>2022-10-20T03:36:55.000Z</time>
      </trkpt>
      <trkpt lat="27.787818" lon="86.719648">
        <ele>2857.4</ele>
        <time>2022-10-20T03:36:57.000Z</time>
      </trkpt>
      <trkpt lat="27.787837" lon="86.719648">
        <ele>2857.4</ele>
        <time>2022-10-20T03:36:59.000Z</time>
      </trkpt>
      <trkpt lat="27.787862" lon="86.719642">
        <ele>2857.8</ele>
        <time>2022-10-20T03:37:01.000Z</time>
      </trkpt>
      <trkpt lat="27.787888" lon="86.719635">
        <ele>2857.8</ele>
        <time>2022-10-20T03:37:04.000Z</time>
      </trkpt>
      <trkpt lat="27.787907" lon="86.719635">
        <ele>2858</ele>
        <time>2022-10-20T03:37:06.000Z</time>
      </trkpt>
      <trkpt lat="27.787926" lon="86.719629">
        <ele>2858</ele>
        <time>2022-10-20T03:37:08.000Z</time>
      </trkpt>
      <trkpt lat="27.787946" lon="86.719622">
        <ele>2858</ele>
        <time>2022-10-20T03:37:10.000Z</time>
      </trkpt>
      <trkpt lat="27.787962" lon="86.719603">
        <ele>2858</ele>
        <time>2022-10-20T03:37:12.000Z</time>
      </trkpt>
      <trkpt lat="27.787978" lon="86.71959">
        <ele>2858.2</ele>
        <time>2022-10-20T03:37:14.000Z</time>
      </trkpt>
      <trkpt lat="27.787997" lon="86.719584">
        <ele>2858.4</ele>
        <time>2022-10-20T03:37:16.000Z</time>
      </trkpt>
      <trkpt lat="27.788019" lon="86.719571">
        <ele>2858.6</ele>
        <time>2022-10-20T03:37:18.000Z</time>
      </trkpt>
      <trkpt lat="27.788045" lon="86.719565">
        <ele>2858.4</ele>
        <time>2022-10-20T03:37:21.000Z</time>
      </trkpt>
      <trkpt lat="27.788064" lon="86.719552">
        <ele>2858.8</ele>
        <time>2022-10-20T03:37:24.000Z</time>
      </trkpt>
      <trkpt lat="27.78808" lon="86.719533">
        <ele>2858.8</ele>
        <time>2022-10-20T03:37:26.000Z</time>
      </trkpt>
      <trkpt lat="27.788086" lon="86.719514">
        <ele>2858.8</ele>
        <time>2022-10-20T03:37:29.000Z</time>
      </trkpt>
      <trkpt lat="27.788093" lon="86.719488">
        <ele>2859</ele>
        <time>2022-10-20T03:37:31.000Z</time>
      </trkpt>
      <trkpt lat="27.788099" lon="86.719469">
        <ele>2859.4</ele>
        <time>2022-10-20T03:37:35.000Z</time>
      </trkpt>
      <trkpt lat="27.788096" lon="86.719443">
        <ele>2859.8</ele>
        <time>2022-10-20T03:37:38.000Z</time>
      </trkpt>
      <trkpt lat="27.788086" lon="86.719424">
        <ele>2859.8</ele>
        <time>2022-10-20T03:37:39.000Z</time>
      </trkpt>
      <trkpt lat="27.78808" lon="86.719386">
        <ele>2860.2</ele>
        <time>2022-10-20T03:38:48.000Z</time>
      </trkpt>
      <trkpt lat="27.788064" lon="86.719398">
        <ele>2860.6</ele>
        <time>2022-10-20T03:41:05.000Z</time>
      </trkpt>
      <trkpt lat="27.788045" lon="86.719398">
        <ele>2860.6</ele>
        <time>2022-10-20T03:41:10.000Z</time>
      </trkpt>
      <trkpt lat="27.788061" lon="86.719411">
        <ele>2860.6</ele>
        <time>2022-10-20T03:41:22.000Z</time>
      </trkpt>
      <trkpt lat="27.788074" lon="86.71943">
        <ele>2860.4</ele>
        <time>2022-10-20T03:41:26.000Z</time>
      </trkpt>
      <trkpt lat="27.788093" lon="86.71943">
        <ele>2859.8</ele>
        <time>2022-10-20T03:41:32.000Z</time>
      </trkpt>
      <trkpt lat="27.788112" lon="86.719462">
        <ele>2860.2</ele>
        <time>2022-10-20T03:42:29.000Z</time>
      </trkpt>
      <trkpt lat="27.788125" lon="86.719488">
        <ele>2859.6</ele>
        <time>2022-10-20T03:42:51.000Z</time>
      </trkpt>
      <trkpt lat="27.788141" lon="86.719501">
        <ele>2859.6</ele>
        <time>2022-10-20T03:42:54.000Z</time>
      </trkpt>
      <trkpt lat="27.788173" lon="86.719507">
        <ele>2861.4</ele>
        <time>2022-10-20T03:43:21.000Z</time>
      </trkpt>
      <trkpt lat="27.788195" lon="86.719507">
        <ele>2861.6</ele>
        <time>2022-10-20T03:43:23.000Z</time>
      </trkpt>
      <trkpt lat="27.788224" lon="86.719514">
        <ele>2862.4</ele>
        <time>2022-10-20T03:43:25.000Z</time>
      </trkpt>
      <trkpt lat="27.78825" lon="86.719514">
        <ele>2862.8</ele>
        <time>2022-10-20T03:43:27.000Z</time>
      </trkpt>
      <trkpt lat="27.788275" lon="86.719514">
        <ele>2862.8</ele>
        <time>2022-10-20T03:43:29.000Z</time>
      </trkpt>
      <trkpt lat="27.788294" lon="86.71952">
        <ele>2863.6</ele>
        <time>2022-10-20T03:43:32.000Z</time>
      </trkpt>
      <trkpt lat="27.788314" lon="86.71952">
        <ele>2864.6</ele>
        <time>2022-10-20T03:43:37.000Z</time>
      </trkpt>
      <trkpt lat="27.788336" lon="86.719526">
        <ele>2865.2</ele>
        <time>2022-10-20T03:43:42.000Z</time>
      </trkpt>
      <trkpt lat="27.788362" lon="86.71952">
        <ele>2866.2</ele>
        <time>2022-10-20T03:43:58.000Z</time>
      </trkpt>
      <trkpt lat="27.788381" lon="86.719514">
        <ele>2867.2</ele>
        <time>2022-10-20T03:44:06.000Z</time>
      </trkpt>
      <trkpt lat="27.788403" lon="86.719507">
        <ele>2867.6</ele>
        <time>2022-10-20T03:44:12.000Z</time>
      </trkpt>
      <trkpt lat="27.788422" lon="86.719514">
        <ele>2867.6</ele>
        <time>2022-10-20T03:44:14.000Z</time>
      </trkpt>
      <trkpt lat="27.788448" lon="86.719514">
        <ele>2868</ele>
        <time>2022-10-20T03:44:16.000Z</time>
      </trkpt>
      <trkpt lat="27.788474" lon="86.719501">
        <ele>2868.4</ele>
        <time>2022-10-20T03:44:20.000Z</time>
      </trkpt>
      <trkpt lat="27.788496" lon="86.719501">
        <ele>2868.4</ele>
        <time>2022-10-20T03:44:22.000Z</time>
      </trkpt>
      <trkpt lat="27.788515" lon="86.719507">
        <ele>2869.6</ele>
        <time>2022-10-20T03:44:26.000Z</time>
      </trkpt>
      <trkpt lat="27.788538" lon="86.719507">
        <ele>2870.4</ele>
        <time>2022-10-20T03:44:32.000Z</time>
      </trkpt>
      <trkpt lat="27.788557" lon="86.719507">
        <ele>2871.2</ele>
        <time>2022-10-20T03:44:36.000Z</time>
      </trkpt>
      <trkpt lat="27.78857" lon="86.719488">
        <ele>2872.4</ele>
        <time>2022-10-20T03:44:41.000Z</time>
      </trkpt>
      <trkpt lat="27.788589" lon="86.719501">
        <ele>2873</ele>
        <time>2022-10-20T03:44:45.000Z</time>
      </trkpt>
      <trkpt lat="27.788608" lon="86.719507">
        <ele>2873.4</ele>
        <time>2022-10-20T03:44:48.000Z</time>
      </trkpt>
      <trkpt lat="27.788627" lon="86.719507">
        <ele>2874.6</ele>
        <time>2022-10-20T03:44:53.000Z</time>
      </trkpt>
      <trkpt lat="27.788653" lon="86.71952">
        <ele>2876</ele>
        <time>2022-10-20T03:44:59.000Z</time>
      </trkpt>
      <trkpt lat="27.788669" lon="86.719507">
        <ele>2876.4</ele>
        <time>2022-10-20T03:45:03.000Z</time>
      </trkpt>
      <trkpt lat="27.788688" lon="86.719514">
        <ele>2877.8</ele>
        <time>2022-10-20T03:45:10.000Z</time>
      </trkpt>
      <trkpt lat="27.788704" lon="86.719526">
        <ele>2878.6</ele>
        <time>2022-10-20T03:45:16.000Z</time>
      </trkpt>
      <trkpt lat="27.788717" lon="86.719546">
        <ele>2879.4</ele>
        <time>2022-10-20T03:45:20.000Z</time>
      </trkpt>
      <trkpt lat="27.788736" lon="86.719558">
        <ele>2880.2</ele>
        <time>2022-10-20T03:45:24.000Z</time>
      </trkpt>
      <trkpt lat="27.788755" lon="86.719558">
        <ele>2881</ele>
        <time>2022-10-20T03:45:28.000Z</time>
      </trkpt>
      <trkpt lat="27.788784" lon="86.719565">
        <ele>2881.2</ele>
        <time>2022-10-20T03:45:32.000Z</time>
      </trkpt>
      <trkpt lat="27.788797" lon="86.719584">
        <ele>2881.2</ele>
        <time>2022-10-20T03:45:33.000Z</time>
      </trkpt>
      <trkpt lat="27.788832" lon="86.719584">
        <ele>2882.4</ele>
        <time>2022-10-20T03:45:41.000Z</time>
      </trkpt>
      <trkpt lat="27.788851" lon="86.719571">
        <ele>2883</ele>
        <time>2022-10-20T03:45:44.000Z</time>
      </trkpt>
      <trkpt lat="27.788861" lon="86.71959">
        <ele>2883.2</ele>
        <time>2022-10-20T03:45:45.000Z</time>
      </trkpt>
      <trkpt lat="27.78888" lon="86.71959">
        <ele>2883.4</ele>
        <time>2022-10-20T03:45:48.000Z</time>
      </trkpt>
      <trkpt lat="27.788906" lon="86.719584">
        <ele>2884.2</ele>
        <time>2022-10-20T03:45:52.000Z</time>
      </trkpt>
      <trkpt lat="27.788925" lon="86.719584">
        <ele>2884.8</ele>
        <time>2022-10-20T03:45:55.000Z</time>
      </trkpt>
      <trkpt lat="27.788941" lon="86.719571">
        <ele>2885.2</ele>
        <time>2022-10-20T03:45:58.000Z</time>
      </trkpt>
      <trkpt lat="27.78896" lon="86.719565">
        <ele>2886</ele>
        <time>2022-10-20T03:46:02.000Z</time>
      </trkpt>
      <trkpt lat="27.788982" lon="86.719565">
        <ele>2886.8</ele>
        <time>2022-10-20T03:46:06.000Z</time>
      </trkpt>
      <trkpt lat="27.789002" lon="86.719558">
        <ele>2887.2</ele>
        <time>2022-10-20T03:46:11.000Z</time>
      </trkpt>
      <trkpt lat="27.789021" lon="86.719546">
        <ele>2888.2</ele>
        <time>2022-10-20T03:46:16.000Z</time>
      </trkpt>
      <trkpt lat="27.78904" lon="86.719546">
        <ele>2888.4</ele>
        <time>2022-10-20T03:46:25.000Z</time>
      </trkpt>
      <trkpt lat="27.789059" lon="86.719546">
        <ele>2888.6</ele>
        <time>2022-10-20T03:46:28.000Z</time>
      </trkpt>
      <trkpt lat="27.789078" lon="86.719552">
        <ele>2888.4</ele>
        <time>2022-10-20T03:46:31.000Z</time>
      </trkpt>
      <trkpt lat="27.789098" lon="86.719546">
        <ele>2888.4</ele>
        <time>2022-10-20T03:46:35.000Z</time>
      </trkpt>
      <trkpt lat="27.789104" lon="86.719526">
        <ele>2889</ele>
        <time>2022-10-20T03:46:38.000Z</time>
      </trkpt>
      <trkpt lat="27.78911" lon="86.719501">
        <ele>2889.4</ele>
        <time>2022-10-20T03:46:42.000Z</time>
      </trkpt>
      <trkpt lat="27.789117" lon="86.719482">
        <ele>2890.2</ele>
        <time>2022-10-20T03:46:46.000Z</time>
      </trkpt>
      <trkpt lat="27.789117" lon="86.719443">
        <ele>2891</ele>
        <time>2022-10-20T03:46:51.000Z</time>
      </trkpt>
      <trkpt lat="27.789136" lon="86.719437">
        <ele>2891.6</ele>
        <time>2022-10-20T03:46:54.000Z</time>
      </trkpt>
      <trkpt lat="27.789155" lon="86.71945">
        <ele>2892.4</ele>
        <time>2022-10-20T03:46:57.000Z</time>
      </trkpt>
      <trkpt lat="27.789174" lon="86.71945">
        <ele>2893.2</ele>
        <time>2022-10-20T03:47:01.000Z</time>
      </trkpt>
      <trkpt lat="27.789181" lon="86.719469">
        <ele>2893.4</ele>
        <time>2022-10-20T03:47:02.000Z</time>
      </trkpt>
      <trkpt lat="27.789206" lon="86.719469">
        <ele>2894.2</ele>
        <time>2022-10-20T03:47:07.000Z</time>
      </trkpt>
      <trkpt lat="27.789235" lon="86.719488">
        <ele>2895</ele>
        <time>2022-10-20T03:47:11.000Z</time>
      </trkpt>
      <trkpt lat="27.789264" lon="86.719488">
        <ele>2896.2</ele>
        <time>2022-10-20T03:47:17.000Z</time>
      </trkpt>
      <trkpt lat="27.789286" lon="86.719507">
        <ele>2897</ele>
        <time>2022-10-20T03:47:21.000Z</time>
      </trkpt>
      <trkpt lat="27.789302" lon="86.719526">
        <ele>2897</ele>
        <time>2022-10-20T03:47:23.000Z</time>
      </trkpt>
      <trkpt lat="27.789322" lon="86.719526">
        <ele>2898.8</ele>
        <time>2022-10-20T03:47:31.000Z</time>
      </trkpt>
      <trkpt lat="27.789334" lon="86.719546">
        <ele>2898.6</ele>
        <time>2022-10-20T03:47:33.000Z</time>
      </trkpt>
      <trkpt lat="27.789341" lon="86.71952">
        <ele>2899.2</ele>
        <time>2022-10-20T03:47:39.000Z</time>
      </trkpt>
      <trkpt lat="27.789363" lon="86.719514">
        <ele>2899.6</ele>
        <time>2022-10-20T03:47:47.000Z</time>
      </trkpt>
      <trkpt lat="27.789382" lon="86.719501">
        <ele>2899.8</ele>
        <time>2022-10-20T03:47:51.000Z</time>
      </trkpt>
      <trkpt lat="27.789392" lon="86.719482">
        <ele>2900.4</ele>
        <time>2022-10-20T03:47:53.000Z</time>
      </trkpt>
      <trkpt lat="27.789418" lon="86.719482">
        <ele>2900.4</ele>
        <time>2022-10-20T03:47:56.000Z</time>
      </trkpt>
      <trkpt lat="27.789437" lon="86.719475">
        <ele>2901.6</ele>
        <time>2022-10-20T03:48:03.000Z</time>
      </trkpt>
      <trkpt lat="27.789456" lon="86.719482">
        <ele>2902.2</ele>
        <time>2022-10-20T03:48:06.000Z</time>
      </trkpt>
      <trkpt lat="27.789475" lon="86.719482">
        <ele>2902.8</ele>
        <time>2022-10-20T03:48:10.000Z</time>
      </trkpt>
      <trkpt lat="27.789494" lon="86.719475">
        <ele>2903.6</ele>
        <time>2022-10-20T03:48:15.000Z</time>
      </trkpt>
      <trkpt lat="27.789514" lon="86.719482">
        <ele>2904</ele>
        <time>2022-10-20T03:48:18.000Z</time>
      </trkpt>
      <trkpt lat="27.789526" lon="86.719507">
        <ele>2904.4</ele>
        <time>2022-10-20T03:48:20.000Z</time>
      </trkpt>
      <trkpt lat="27.789546" lon="86.71952">
        <ele>2905</ele>
        <time>2022-10-20T03:48:23.000Z</time>
      </trkpt>
      <trkpt lat="27.789568" lon="86.71952">
        <ele>2905.6</ele>
        <time>2022-10-20T03:48:27.000Z</time>
      </trkpt>
      <trkpt lat="27.789587" lon="86.71952">
        <ele>2906</ele>
        <time>2022-10-20T03:48:30.000Z</time>
      </trkpt>
      <trkpt lat="27.78961" lon="86.719526">
        <ele>2905.8</ele>
        <time>2022-10-20T03:48:32.000Z</time>
      </trkpt>
      <trkpt lat="27.789632" lon="86.719533">
        <ele>2906.4</ele>
        <time>2022-10-20T03:48:35.000Z</time>
      </trkpt>
      <trkpt lat="27.789635" lon="86.719558">
        <ele>2906.4</ele>
        <time>2022-10-20T03:48:42.000Z</time>
      </trkpt>
      <trkpt lat="27.789626" lon="86.719584">
        <ele>2907.2</ele>
        <time>2022-10-20T03:48:47.000Z</time>
      </trkpt>
      <trkpt lat="27.789616" lon="86.719565">
        <ele>2906.8</ele>
        <time>2022-10-20T03:48:51.000Z</time>
      </trkpt>
      <trkpt lat="27.789635" lon="86.719571">
        <ele>2908.4</ele>
        <time>2022-10-20T03:48:58.000Z</time>
      </trkpt>
      <trkpt lat="27.789651" lon="86.719584">
        <ele>2908.8</ele>
        <time>2022-10-20T03:49:00.000Z</time>
      </trkpt>
      <trkpt lat="27.789667" lon="86.719558">
        <ele>2909.2</ele>
        <time>2022-10-20T03:49:06.000Z</time>
      </trkpt>
      <trkpt lat="27.789661" lon="86.719533">
        <ele>2909.4</ele>
        <time>2022-10-20T03:49:08.000Z</time>
      </trkpt>
      <trkpt lat="27.789683" lon="86.719546">
        <ele>2910.2</ele>
        <time>2022-10-20T03:49:12.000Z</time>
      </trkpt>
      <trkpt lat="27.789702" lon="86.719533">
        <ele>2911.4</ele>
        <time>2022-10-20T03:49:19.000Z</time>
      </trkpt>
      <trkpt lat="27.789722" lon="86.719514">
        <ele>2912</ele>
        <time>2022-10-20T03:49:23.000Z</time>
      </trkpt>
      <trkpt lat="27.789741" lon="86.719501">
        <ele>2912.6</ele>
        <time>2022-10-20T03:49:27.000Z</time>
      </trkpt>
      <trkpt lat="27.789734" lon="86.719475">
        <ele>2913.2</ele>
        <time>2022-10-20T03:49:28.000Z</time>
      </trkpt>
      <trkpt lat="27.78976" lon="86.719469">
        <ele>2913.4</ele>
        <time>2022-10-20T03:49:32.000Z</time>
      </trkpt>
      <trkpt lat="27.789754" lon="86.719443">
        <ele>2913.6</ele>
        <time>2022-10-20T03:49:34.000Z</time>
      </trkpt>
      <trkpt lat="27.789754" lon="86.719405">
        <ele>2914.2</ele>
        <time>2022-10-20T03:49:36.000Z</time>
      </trkpt>
      <trkpt lat="27.789773" lon="86.719398">
        <ele>2914.2</ele>
        <time>2022-10-20T03:49:37.000Z</time>
      </trkpt>
      <trkpt lat="27.789792" lon="86.719373">
        <ele>2914.6</ele>
        <time>2022-10-20T03:49:39.000Z</time>
      </trkpt>
      <trkpt lat="27.789821" lon="86.71936">
        <ele>2915.2</ele>
        <time>2022-10-20T03:49:43.000Z</time>
      </trkpt>
      <trkpt lat="27.789814" lon="86.719328">
        <ele>2916.4</ele>
        <time>2022-10-20T03:49:49.000Z</time>
      </trkpt>
      <trkpt lat="27.78983" lon="86.719315">
        <ele>2917.4</ele>
        <time>2022-10-20T03:49:56.000Z</time>
      </trkpt>
      <trkpt lat="27.78983" lon="86.71929">
        <ele>2917.6</ele>
        <time>2022-10-20T03:49:59.000Z</time>
      </trkpt>
      <trkpt lat="27.789843" lon="86.719315">
        <ele>2919.2</ele>
        <time>2022-10-20T03:50:27.000Z</time>
      </trkpt>
      <trkpt lat="27.789853" lon="86.719366">
        <ele>2919.4</ele>
        <time>2022-10-20T03:50:30.000Z</time>
      </trkpt>
      <trkpt lat="27.789853" lon="86.719392">
        <ele>2919.6</ele>
        <time>2022-10-20T03:50:31.000Z</time>
      </trkpt>
      <trkpt lat="27.78984" lon="86.719411">
        <ele>2920</ele>
        <time>2022-10-20T03:50:33.000Z</time>
      </trkpt>
      <trkpt lat="27.789834" lon="86.71943">
        <ele>2920.2</ele>
        <time>2022-10-20T03:50:35.000Z</time>
      </trkpt>
      <trkpt lat="27.789814" lon="86.719424">
        <ele>2920.8</ele>
        <time>2022-10-20T03:50:38.000Z</time>
      </trkpt>
      <trkpt lat="27.789814" lon="86.71945">
        <ele>2921.6</ele>
        <time>2022-10-20T03:50:43.000Z</time>
      </trkpt>
      <trkpt lat="27.789821" lon="86.719469">
        <ele>2921.8</ele>
        <time>2022-10-20T03:50:46.000Z</time>
      </trkpt>
      <trkpt lat="27.789814" lon="86.719488">
        <ele>2923.4</ele>
        <time>2022-10-20T03:50:51.000Z</time>
      </trkpt>
      <trkpt lat="27.789824" lon="86.719507">
        <ele>2924</ele>
        <time>2022-10-20T03:50:59.000Z</time>
      </trkpt>
      <trkpt lat="27.789843" lon="86.719507">
        <ele>2925.2</ele>
        <time>2022-10-20T03:51:04.000Z</time>
      </trkpt>
      <trkpt lat="27.789866" lon="86.719514">
        <ele>2926.2</ele>
        <time>2022-10-20T03:51:09.000Z</time>
      </trkpt>
      <trkpt lat="27.789882" lon="86.719526">
        <ele>2926.6</ele>
        <time>2022-10-20T03:51:12.000Z</time>
      </trkpt>
      <trkpt lat="27.789904" lon="86.719546">
        <ele>2927.2</ele>
        <time>2022-10-20T03:51:16.000Z</time>
      </trkpt>
      <trkpt lat="27.78992" lon="86.719558">
        <ele>2927.8</ele>
        <time>2022-10-20T03:51:20.000Z</time>
      </trkpt>
      <trkpt lat="27.789939" lon="86.719558">
        <ele>2928.8</ele>
        <time>2022-10-20T03:51:30.000Z</time>
      </trkpt>
      <trkpt lat="27.789958" lon="86.719558">
        <ele>2929.8</ele>
        <time>2022-10-20T03:51:37.000Z</time>
      </trkpt>
      <trkpt lat="27.789981" lon="86.719565">
        <ele>2930</ele>
        <time>2022-10-20T03:51:43.000Z</time>
      </trkpt>
      <trkpt lat="27.78999" lon="86.719546">
        <ele>2930.8</ele>
        <time>2022-10-20T03:51:49.000Z</time>
      </trkpt>
      <trkpt lat="27.790013" lon="86.719552">
        <ele>2932.2</ele>
        <time>2022-10-20T03:51:59.000Z</time>
      </trkpt>
      <trkpt lat="27.790042" lon="86.719558">
        <ele>2932.2</ele>
        <time>2022-10-20T03:52:01.000Z</time>
      </trkpt>
      <trkpt lat="27.790061" lon="86.719546">
        <ele>2931.4</ele>
        <time>2022-10-20T03:52:03.000Z</time>
      </trkpt>
      <trkpt lat="27.790067" lon="86.71952">
        <ele>2931.2</ele>
        <time>2022-10-20T03:52:05.000Z</time>
      </trkpt>
      <trkpt lat="27.790093" lon="86.719507">
        <ele>2930.2</ele>
        <time>2022-10-20T03:52:08.000Z</time>
      </trkpt>
      <trkpt lat="27.790112" lon="86.719501">
        <ele>2930.2</ele>
        <time>2022-10-20T03:52:11.000Z</time>
      </trkpt>
      <trkpt lat="27.790128" lon="86.719482">
        <ele>2930.2</ele>
        <time>2022-10-20T03:52:13.000Z</time>
      </trkpt>
      <trkpt lat="27.790147" lon="86.719475">
        <ele>2930</ele>
        <time>2022-10-20T03:52:16.000Z</time>
      </trkpt>
      <trkpt lat="27.790154" lon="86.71945">
        <ele>2930</ele>
        <time>2022-10-20T03:52:18.000Z</time>
      </trkpt>
      <trkpt lat="27.79016" lon="86.719424">
        <ele>2930</ele>
        <time>2022-10-20T03:52:20.000Z</time>
      </trkpt>
      <trkpt lat="27.790166" lon="86.719398">
        <ele>2930</ele>
        <time>2022-10-20T03:52:22.000Z</time>
      </trkpt>
      <trkpt lat="27.790189" lon="86.719392">
        <ele>2930</ele>
        <time>2022-10-20T03:52:25.000Z</time>
      </trkpt>
      <trkpt lat="27.790189" lon="86.719366">
        <ele>2930.2</ele>
        <time>2022-10-20T03:52:31.000Z</time>
      </trkpt>
      <trkpt lat="27.790173" lon="86.719354">
        <ele>2931</ele>
        <time>2022-10-20T03:52:38.000Z</time>
      </trkpt>
      <trkpt lat="27.790157" lon="86.719328">
        <ele>2931</ele>
        <time>2022-10-20T03:52:41.000Z</time>
      </trkpt>
      <trkpt lat="27.790144" lon="86.719302">
        <ele>2930.6</ele>
        <time>2022-10-20T03:52:44.000Z</time>
      </trkpt>
      <trkpt lat="27.790134" lon="86.719277">
        <ele>2930.6</ele>
        <time>2022-10-20T03:52:46.000Z</time>
      </trkpt>
      <trkpt lat="27.790131" lon="86.719251">
        <ele>2930.6</ele>
        <time>2022-10-20T03:52:49.000Z</time>
      </trkpt>
      <trkpt lat="27.790138" lon="86.719232">
        <ele>2931</ele>
        <time>2022-10-20T03:52:53.000Z</time>
      </trkpt>
      <trkpt lat="27.79015" lon="86.719251">
        <ele>2930.8</ele>
        <time>2022-10-20T03:53:23.000Z</time>
      </trkpt>
      <trkpt lat="27.79015" lon="86.719226">
        <ele>2930.2</ele>
        <time>2022-10-20T03:53:28.000Z</time>
      </trkpt>
      <trkpt lat="27.790147" lon="86.7192">
        <ele>2929.4</ele>
        <time>2022-10-20T03:53:30.000Z</time>
      </trkpt>
      <trkpt lat="27.790166" lon="86.719226">
        <ele>2929</ele>
        <time>2022-10-20T03:53:38.000Z</time>
      </trkpt>
      <trkpt lat="27.790176" lon="86.719251">
        <ele>2930.4</ele>
        <time>2022-10-20T03:53:56.000Z</time>
      </trkpt>
      <trkpt lat="27.790179" lon="86.719277">
        <ele>2930.4</ele>
        <time>2022-10-20T03:53:58.000Z</time>
      </trkpt>
      <trkpt lat="27.790189" lon="86.719309">
        <ele>2931</ele>
        <time>2022-10-20T03:54:02.000Z</time>
      </trkpt>
      <trkpt lat="27.790198" lon="86.719354">
        <ele>2931</ele>
        <time>2022-10-20T03:55:59.000Z</time>
      </trkpt>
      <trkpt lat="27.790205" lon="86.719373">
        <ele>2930.8</ele>
        <time>2022-10-20T03:56:02.000Z</time>
      </trkpt>
      <trkpt lat="27.790211" lon="86.719398">
        <ele>2931</ele>
        <time>2022-10-20T03:56:05.000Z</time>
      </trkpt>
      <trkpt lat="27.790214" lon="86.719424">
        <ele>2931.8</ele>
        <time>2022-10-20T03:56:10.000Z</time>
      </trkpt>
      <trkpt lat="27.790208" lon="86.719443">
        <ele>2930.6</ele>
        <time>2022-10-20T03:57:05.000Z</time>
      </trkpt>
      <trkpt lat="27.790173" lon="86.719398">
        <ele>2930.8</ele>
        <time>2022-10-20T03:58:37.000Z</time>
      </trkpt>
      <trkpt lat="27.790189" lon="86.719386">
        <ele>2930</ele>
        <time>2022-10-20T03:58:40.000Z</time>
      </trkpt>
      <trkpt lat="27.790202" lon="86.71936">
        <ele>2930.6</ele>
        <time>2022-10-20T03:58:47.000Z</time>
      </trkpt>
      <trkpt lat="27.790205" lon="86.719386">
        <ele>2930.6</ele>
        <time>2022-10-20T03:58:55.000Z</time>
      </trkpt>
      <trkpt lat="27.790211" lon="86.719405">
        <ele>2931</ele>
        <time>2022-10-20T03:59:06.000Z</time>
      </trkpt>
      <trkpt lat="27.790157" lon="86.719386">
        <ele>2931</ele>
        <time>2022-10-20T04:02:00.000Z</time>
      </trkpt>
      <trkpt lat="27.790173" lon="86.719405">
        <ele>2931</ele>
        <time>2022-10-20T04:02:02.000Z</time>
      </trkpt>
      <trkpt lat="27.790186" lon="86.719424">
        <ele>2931</ele>
        <time>2022-10-20T04:02:04.000Z</time>
      </trkpt>
      <trkpt lat="27.790186" lon="86.71945">
        <ele>2931</ele>
        <time>2022-10-20T04:02:08.000Z</time>
      </trkpt>
      <trkpt lat="27.790179" lon="86.71943">
        <ele>2930.6</ele>
        <time>2022-10-20T04:02:19.000Z</time>
      </trkpt>
      <trkpt lat="27.790173" lon="86.719411">
        <ele>2931</ele>
        <time>2022-10-20T04:03:22.000Z</time>
      </trkpt>
      <trkpt lat="27.790176" lon="86.719386">
        <ele>2931.2</ele>
        <time>2022-10-20T04:03:27.000Z</time>
      </trkpt>
      <trkpt lat="27.790176" lon="86.71936">
        <ele>2931</ele>
        <time>2022-10-20T04:03:30.000Z</time>
      </trkpt>
      <trkpt lat="27.790166" lon="86.719334">
        <ele>2931.2</ele>
        <time>2022-10-20T04:03:36.000Z</time>
      </trkpt>
      <trkpt lat="27.79015" lon="86.719322">
        <ele>2931.6</ele>
        <time>2022-10-20T04:03:39.000Z</time>
      </trkpt>
      <trkpt lat="27.790141" lon="86.71929">
        <ele>2930.8</ele>
        <time>2022-10-20T04:03:44.000Z</time>
      </trkpt>
      <trkpt lat="27.790141" lon="86.719264">
        <ele>2930.6</ele>
        <time>2022-10-20T04:03:47.000Z</time>
      </trkpt>
      <trkpt lat="27.790141" lon="86.719238">
        <ele>2929.8</ele>
        <time>2022-10-20T04:03:51.000Z</time>
      </trkpt>
      <trkpt lat="27.790166" lon="86.719226">
        <ele>2929.6</ele>
        <time>2022-10-20T04:03:57.000Z</time>
      </trkpt>
      <trkpt lat="27.790166" lon="86.7192">
        <ele>2929.2</ele>
        <time>2022-10-20T04:04:01.000Z</time>
      </trkpt>
      <trkpt lat="27.790166" lon="86.719174">
        <ele>2929</ele>
        <time>2022-10-20T04:04:04.000Z</time>
      </trkpt>
      <trkpt lat="27.790173" lon="86.719155">
        <ele>2929</ele>
        <time>2022-10-20T04:04:06.000Z</time>
      </trkpt>
      <trkpt lat="27.790179" lon="86.71913">
        <ele>2928.8</ele>
        <time>2022-10-20T04:04:08.000Z</time>
      </trkpt>
      <trkpt lat="27.790186" lon="86.71911">
        <ele>2928.6</ele>
        <time>2022-10-20T04:04:11.000Z</time>
      </trkpt>
      <trkpt lat="27.790192" lon="86.719085">
        <ele>2928.6</ele>
        <time>2022-10-20T04:04:13.000Z</time>
      </trkpt>
      <trkpt lat="27.790198" lon="86.719066">
        <ele>2928.8</ele>
        <time>2022-10-20T04:04:16.000Z</time>
      </trkpt>
      <trkpt lat="27.790202" lon="86.71904">
        <ele>2928.6</ele>
        <time>2022-10-20T04:04:18.000Z</time>
      </trkpt>
      <trkpt lat="27.790208" lon="86.719014">
        <ele>2928.4</ele>
        <time>2022-10-20T04:04:21.000Z</time>
      </trkpt>
      <trkpt lat="27.790211" lon="86.718989">
        <ele>2928.2</ele>
        <time>2022-10-20T04:04:24.000Z</time>
      </trkpt>
      <trkpt lat="27.790218" lon="86.718963">
        <ele>2928.6</ele>
        <time>2022-10-20T04:04:26.000Z</time>
      </trkpt>
      <trkpt lat="27.790224" lon="86.718931">
        <ele>2928.8</ele>
        <time>2022-10-20T04:04:28.000Z</time>
      </trkpt>
      <trkpt lat="27.79023" lon="86.718893">
        <ele>2928.8</ele>
        <time>2022-10-20T04:04:32.000Z</time>
      </trkpt>
      <trkpt lat="27.79023" lon="86.718854">
        <ele>2928.4</ele>
        <time>2022-10-20T04:04:35.000Z</time>
      </trkpt>
      <trkpt lat="27.790237" lon="86.718816">
        <ele>2928.4</ele>
        <time>2022-10-20T04:04:38.000Z</time>
      </trkpt>
      <trkpt lat="27.790243" lon="86.718797">
        <ele>2928.4</ele>
        <time>2022-10-20T04:04:41.000Z</time>
      </trkpt>
      <trkpt lat="27.790246" lon="86.718771">
        <ele>2928.4</ele>
        <time>2022-10-20T04:04:43.000Z</time>
      </trkpt>
      <trkpt lat="27.79025" lon="86.718733">
        <ele>2928.4</ele>
        <time>2022-10-20T04:04:46.000Z</time>
      </trkpt>
      <trkpt lat="27.790262" lon="86.718707">
        <ele>2928.2</ele>
        <time>2022-10-20T04:04:50.000Z</time>
      </trkpt>
      <trkpt lat="27.790266" lon="86.718682">
        <ele>2928.8</ele>
        <time>2022-10-20T04:04:53.000Z</time>
      </trkpt>
      <trkpt lat="27.790259" lon="86.718656">
        <ele>2929</ele>
        <time>2022-10-20T04:04:55.000Z</time>
      </trkpt>
      <trkpt lat="27.790259" lon="86.71863">
        <ele>2928.8</ele>
        <time>2022-10-20T04:04:58.000Z</time>
      </trkpt>
      <trkpt lat="27.790259" lon="86.718579">
        <ele>2930</ele>
        <time>2022-10-20T04:05:03.000Z</time>
      </trkpt>
      <trkpt lat="27.790266" lon="86.71856">
        <ele>2929.2</ele>
        <time>2022-10-20T04:05:06.000Z</time>
      </trkpt>
      <trkpt lat="27.790266" lon="86.718534">
        <ele>2929.6</ele>
        <time>2022-10-20T04:05:27.000Z</time>
      </trkpt>
      <trkpt lat="27.790266" lon="86.718509">
        <ele>2930.4</ele>
        <time>2022-10-20T04:05:29.000Z</time>
      </trkpt>
      <trkpt lat="27.790266" lon="86.718477">
        <ele>2930.8</ele>
        <time>2022-10-20T04:05:31.000Z</time>
      </trkpt>
      <trkpt lat="27.790269" lon="86.718451">
        <ele>2930.6</ele>
        <time>2022-10-20T04:05:33.000Z</time>
      </trkpt>
      <trkpt lat="27.790269" lon="86.718413">
        <ele>2930.6</ele>
        <time>2022-10-20T04:05:35.000Z</time>
      </trkpt>
      <trkpt lat="27.790262" lon="86.718374">
        <ele>2930.8</ele>
        <time>2022-10-20T04:05:38.000Z</time>
      </trkpt>
      <trkpt lat="27.790266" lon="86.718336">
        <ele>2931.4</ele>
        <time>2022-10-20T04:05:42.000Z</time>
      </trkpt>
      <trkpt lat="27.790259" lon="86.718317">
        <ele>2931.6</ele>
        <time>2022-10-20T04:05:45.000Z</time>
      </trkpt>
      <trkpt lat="27.790259" lon="86.718285">
        <ele>2932.2</ele>
        <time>2022-10-20T04:05:48.000Z</time>
      </trkpt>
      <trkpt lat="27.790262" lon="86.718259">
        <ele>2932.6</ele>
        <time>2022-10-20T04:05:52.000Z</time>
      </trkpt>
      <trkpt lat="27.790243" lon="86.718246">
        <ele>2931.6</ele>
        <time>2022-10-20T04:08:59.000Z</time>
      </trkpt>
      <trkpt lat="27.790266" lon="86.718214">
        <ele>2931.6</ele>
        <time>2022-10-20T04:09:01.000Z</time>
      </trkpt>
      <trkpt lat="27.790278" lon="86.718182">
        <ele>2932</ele>
        <time>2022-10-20T04:09:04.000Z</time>
      </trkpt>
      <trkpt lat="27.790288" lon="86.718163">
        <ele>2931.8</ele>
        <time>2022-10-20T04:09:06.000Z</time>
      </trkpt>
      <trkpt lat="27.790307" lon="86.71815">
        <ele>2932.4</ele>
        <time>2022-10-20T04:09:10.000Z</time>
      </trkpt>
      <trkpt lat="27.790317" lon="86.718131">
        <ele>2932.4</ele>
        <time>2022-10-20T04:09:12.000Z</time>
      </trkpt>
      <trkpt lat="27.79033" lon="86.718112">
        <ele>2932.8</ele>
        <time>2022-10-20T04:09:15.000Z</time>
      </trkpt>
      <trkpt lat="27.790339" lon="86.718093">
        <ele>2933.6</ele>
        <time>2022-10-20T04:09:19.000Z</time>
      </trkpt>
      <trkpt lat="27.790358" lon="86.71808">
        <ele>2933.8</ele>
        <time>2022-10-20T04:09:22.000Z</time>
      </trkpt>
      <trkpt lat="27.790368" lon="86.718061">
        <ele>2934.6</ele>
        <time>2022-10-20T04:09:26.000Z</time>
      </trkpt>
      <trkpt lat="27.790378" lon="86.718042">
        <ele>2936.2</ele>
        <time>2022-10-20T04:09:33.000Z</time>
      </trkpt>
      <trkpt lat="27.790384" lon="86.718016">
        <ele>2936.4</ele>
        <time>2022-10-20T04:09:37.000Z</time>
      </trkpt>
      <trkpt lat="27.7904" lon="86.718003">
        <ele>2936.6</ele>
        <time>2022-10-20T04:09:41.000Z</time>
      </trkpt>
      <trkpt lat="27.79041" lon="86.717984">
        <ele>2937.2</ele>
        <time>2022-10-20T04:09:44.000Z</time>
      </trkpt>
      <trkpt lat="27.790429" lon="86.717965">
        <ele>2937.4</ele>
        <time>2022-10-20T04:09:47.000Z</time>
      </trkpt>
      <trkpt lat="27.790435" lon="86.717939">
        <ele>2938</ele>
        <time>2022-10-20T04:09:51.000Z</time>
      </trkpt>
      <trkpt lat="27.790448" lon="86.71792">
        <ele>2939</ele>
        <time>2022-10-20T04:09:55.000Z</time>
      </trkpt>
      <trkpt lat="27.790467" lon="86.717901">
        <ele>2939.6</ele>
        <time>2022-10-20T04:09:59.000Z</time>
      </trkpt>
      <trkpt lat="27.790477" lon="86.717882">
        <ele>2941</ele>
        <time>2022-10-20T04:10:05.000Z</time>
      </trkpt>
      <trkpt lat="27.790496" lon="86.717862">
        <ele>2941.8</ele>
        <time>2022-10-20T04:10:09.000Z</time>
      </trkpt>
      <trkpt lat="27.790515" lon="86.717843">
        <ele>2942.4</ele>
        <time>2022-10-20T04:10:13.000Z</time>
      </trkpt>
      <trkpt lat="27.790512" lon="86.717875">
        <ele>2942.6</ele>
        <time>2022-10-20T04:10:27.000Z</time>
      </trkpt>
      <trkpt lat="27.790499" lon="86.717894">
        <ele>2943.2</ele>
        <time>2022-10-20T04:10:29.000Z</time>
      </trkpt>
      <trkpt lat="27.79049" lon="86.71792">
        <ele>2943.2</ele>
        <time>2022-10-20T04:10:32.000Z</time>
      </trkpt>
      <trkpt lat="27.790496" lon="86.717952">
        <ele>2943.8</ele>
        <time>2022-10-20T04:10:35.000Z</time>
      </trkpt>
      <trkpt lat="27.790509" lon="86.717971">
        <ele>2944.8</ele>
        <time>2022-10-20T04:10:38.000Z</time>
      </trkpt>
      <trkpt lat="27.790518" lon="86.717997">
        <ele>2945.2</ele>
        <time>2022-10-20T04:10:42.000Z</time>
      </trkpt>
      <trkpt lat="27.790528" lon="86.718022">
        <ele>2945.6</ele>
        <time>2022-10-20T04:10:45.000Z</time>
      </trkpt>
      <trkpt lat="27.790544" lon="86.718035">
        <ele>2946</ele>
        <time>2022-10-20T04:10:47.000Z</time>
      </trkpt>
      <trkpt lat="27.790544" lon="86.718061">
        <ele>2946.2</ele>
        <time>2022-10-20T04:10:50.000Z</time>
      </trkpt>
      <trkpt lat="27.790554" lon="86.718086">
        <ele>2947</ele>
        <time>2022-10-20T04:10:54.000Z</time>
      </trkpt>
      <trkpt lat="27.790547" lon="86.718118">
        <ele>2947.6</ele>
        <time>2022-10-20T04:10:59.000Z</time>
      </trkpt>
      <trkpt lat="27.790563" lon="86.718099">
        <ele>2947.4</ele>
        <time>2022-10-20T04:11:09.000Z</time>
      </trkpt>
      <trkpt lat="27.790579" lon="86.718074">
        <ele>2949.6</ele>
        <time>2022-10-20T04:11:37.000Z</time>
      </trkpt>
      <trkpt lat="27.790595" lon="86.718061">
        <ele>2949.6</ele>
        <time>2022-10-20T04:11:39.000Z</time>
      </trkpt>
      <trkpt lat="27.790608" lon="86.718042">
        <ele>2949.8</ele>
        <time>2022-10-20T04:11:41.000Z</time>
      </trkpt>
      <trkpt lat="27.790611" lon="86.71801">
        <ele>2950</ele>
        <time>2022-10-20T04:11:43.000Z</time>
      </trkpt>
      <trkpt lat="27.790611" lon="86.717984">
        <ele>2950.6</ele>
        <time>2022-10-20T04:11:45.000Z</time>
      </trkpt>
      <trkpt lat="27.790624" lon="86.717965">
        <ele>2951.8</ele>
        <time>2022-10-20T04:11:51.000Z</time>
      </trkpt>
      <trkpt lat="27.790637" lon="86.717939">
        <ele>2952.4</ele>
        <time>2022-10-20T04:11:56.000Z</time>
      </trkpt>
      <trkpt lat="27.79064" lon="86.717914">
        <ele>2952.6</ele>
        <time>2022-10-20T04:12:01.000Z</time>
      </trkpt>
      <trkpt lat="27.790646" lon="86.717888">
        <ele>2953.4</ele>
        <time>2022-10-20T04:12:05.000Z</time>
      </trkpt>
      <trkpt lat="27.790662" lon="86.717875">
        <ele>2954</ele>
        <time>2022-10-20T04:12:09.000Z</time>
      </trkpt>
      <trkpt lat="27.790672" lon="86.717856">
        <ele>2954.4</ele>
        <time>2022-10-20T04:12:12.000Z</time>
      </trkpt>
      <trkpt lat="27.790688" lon="86.717843">
        <ele>2955.6</ele>
        <time>2022-10-20T04:12:18.000Z</time>
      </trkpt>
      <trkpt lat="27.790694" lon="86.717824">
        <ele>2955.6</ele>
        <time>2022-10-20T04:12:21.000Z</time>
      </trkpt>
      <trkpt lat="27.790714" lon="86.717811">
        <ele>2956</ele>
        <time>2022-10-20T04:12:25.000Z</time>
      </trkpt>
      <trkpt lat="27.79072" lon="86.717786">
        <ele>2956.4</ele>
        <time>2022-10-20T04:12:32.000Z</time>
      </trkpt>
      <trkpt lat="27.790726" lon="86.71776">
        <ele>2957.2</ele>
        <time>2022-10-20T04:12:39.000Z</time>
      </trkpt>
      <trkpt lat="27.790726" lon="86.717734">
        <ele>2958.2</ele>
        <time>2022-10-20T04:12:44.000Z</time>
      </trkpt>
      <trkpt lat="27.79073" lon="86.717702">
        <ele>2959.2</ele>
        <time>2022-10-20T04:12:48.000Z</time>
      </trkpt>
      <trkpt lat="27.790749" lon="86.717702">
        <ele>2959.8</ele>
        <time>2022-10-20T04:12:51.000Z</time>
      </trkpt>
      <trkpt lat="27.790768" lon="86.71769">
        <ele>2960.2</ele>
        <time>2022-10-20T04:12:54.000Z</time>
      </trkpt>
      <trkpt lat="27.790784" lon="86.717664">
        <ele>2961.2</ele>
        <time>2022-10-20T04:12:59.000Z</time>
      </trkpt>
      <trkpt lat="27.7908" lon="86.717645">
        <ele>2961.6</ele>
        <time>2022-10-20T04:13:05.000Z</time>
      </trkpt>
      <trkpt lat="27.790813" lon="86.717626">
        <ele>2963.6</ele>
        <time>2022-10-20T04:13:32.000Z</time>
      </trkpt>
      <trkpt lat="27.790845" lon="86.7176">
        <ele>2964</ele>
        <time>2022-10-20T04:13:38.000Z</time>
      </trkpt>
      <trkpt lat="27.790861" lon="86.717581">
        <ele>2963.8</ele>
        <time>2022-10-20T04:13:40.000Z</time>
      </trkpt>
      <trkpt lat="27.790883" lon="86.717574">
        <ele>2964.4</ele>
        <time>2022-10-20T04:13:43.000Z</time>
      </trkpt>
      <trkpt lat="27.790899" lon="86.717562">
        <ele>2967</ele>
        <time>2022-10-20T04:14:12.000Z</time>
      </trkpt>
      <trkpt lat="27.790906" lon="86.717536">
        <ele>2967.2</ele>
        <time>2022-10-20T04:14:14.000Z</time>
      </trkpt>
      <trkpt lat="27.790925" lon="86.717523">
        <ele>2967.6</ele>
        <time>2022-10-20T04:14:17.000Z</time>
      </trkpt>
      <trkpt lat="27.79095" lon="86.717517">
        <ele>2967.8</ele>
        <time>2022-10-20T04:14:19.000Z</time>
      </trkpt>
      <trkpt lat="27.790966" lon="86.717498">
        <ele>2967.8</ele>
        <time>2022-10-20T04:14:20.000Z</time>
      </trkpt>
      <trkpt lat="27.790986" lon="86.717498">
        <ele>2967.8</ele>
        <time>2022-10-20T04:14:23.000Z</time>
      </trkpt>
      <trkpt lat="27.791005" lon="86.717491">
        <ele>2967.6</ele>
        <time>2022-10-20T04:14:27.000Z</time>
      </trkpt>
      <trkpt lat="27.791005" lon="86.717517">
        <ele>2967.8</ele>
        <time>2022-10-20T04:14:46.000Z</time>
      </trkpt>
      <trkpt lat="27.791005" lon="86.717542">
        <ele>2967.8</ele>
        <time>2022-10-20T04:14:49.000Z</time>
      </trkpt>
      <trkpt lat="27.790986" lon="86.717555">
        <ele>2967.8</ele>
        <time>2022-10-20T04:14:51.000Z</time>
      </trkpt>
      <trkpt lat="27.790979" lon="86.717574">
        <ele>2968.4</ele>
        <time>2022-10-20T04:14:58.000Z</time>
      </trkpt>
      <trkpt lat="27.790998" lon="86.717581">
        <ele>2969.4</ele>
        <time>2022-10-20T04:15:03.000Z</time>
      </trkpt>
      <trkpt lat="27.790976" lon="86.717613">
        <ele>2973.6</ele>
        <time>2022-10-20T04:15:34.000Z</time>
      </trkpt>
      <trkpt lat="27.790973" lon="86.717638">
        <ele>2974.2</ele>
        <time>2022-10-20T04:15:37.000Z</time>
      </trkpt>
      <trkpt lat="27.790963" lon="86.717658">
        <ele>2975.2</ele>
        <time>2022-10-20T04:15:40.000Z</time>
      </trkpt>
      <trkpt lat="27.790976" lon="86.717664">
        <ele>2975.6</ele>
        <time>2022-10-20T04:15:50.000Z</time>
      </trkpt>
      <trkpt lat="27.790966" lon="86.717645">
        <ele>2976.4</ele>
        <time>2022-10-20T04:15:57.000Z</time>
      </trkpt>
      <trkpt lat="27.79096" lon="86.717619">
        <ele>2977.2</ele>
        <time>2022-10-20T04:16:02.000Z</time>
      </trkpt>
      <trkpt lat="27.79097" lon="86.7176">
        <ele>2978</ele>
        <time>2022-10-20T04:16:08.000Z</time>
      </trkpt>
      <trkpt lat="27.790976" lon="86.717581">
        <ele>2978.6</ele>
        <time>2022-10-20T04:16:12.000Z</time>
      </trkpt>
      <trkpt lat="27.790986" lon="86.717555">
        <ele>2979.2</ele>
        <time>2022-10-20T04:16:22.000Z</time>
      </trkpt>
      <trkpt lat="27.791005" lon="86.717542">
        <ele>2979.6</ele>
        <time>2022-10-20T04:16:25.000Z</time>
      </trkpt>
      <trkpt lat="27.791021" lon="86.71753">
        <ele>2980</ele>
        <time>2022-10-20T04:16:29.000Z</time>
      </trkpt>
      <trkpt lat="27.791043" lon="86.717523">
        <ele>2981</ele>
        <time>2022-10-20T04:16:38.000Z</time>
      </trkpt>
      <trkpt lat="27.791024" lon="86.717504">
        <ele>2981.4</ele>
        <time>2022-10-20T04:16:42.000Z</time>
      </trkpt>
      <trkpt lat="27.79104" lon="86.717485">
        <ele>2982.4</ele>
        <time>2022-10-20T04:16:47.000Z</time>
      </trkpt>
      <trkpt lat="27.791062" lon="86.717478">
        <ele>2982.8</ele>
        <time>2022-10-20T04:16:49.000Z</time>
      </trkpt>
      <trkpt lat="27.791082" lon="86.717478">
        <ele>2983.2</ele>
        <time>2022-10-20T04:16:53.000Z</time>
      </trkpt>
      <trkpt lat="27.791091" lon="86.717459">
        <ele>2984.6</ele>
        <time>2022-10-20T04:17:02.000Z</time>
      </trkpt>
      <trkpt lat="27.79111" lon="86.717446">
        <ele>2985.8</ele>
        <time>2022-10-20T04:17:09.000Z</time>
      </trkpt>
      <trkpt lat="27.791133" lon="86.717446">
        <ele>2987</ele>
        <time>2022-10-20T04:17:17.000Z</time>
      </trkpt>
      <trkpt lat="27.791139" lon="86.717421">
        <ele>2987.8</ele>
        <time>2022-10-20T04:17:20.000Z</time>
      </trkpt>
      <trkpt lat="27.791152" lon="86.717402">
        <ele>2988</ele>
        <time>2022-10-20T04:17:25.000Z</time>
      </trkpt>
      <trkpt lat="27.791165" lon="86.71737">
        <ele>2989</ele>
        <time>2022-10-20T04:17:30.000Z</time>
      </trkpt>
      <trkpt lat="27.791181" lon="86.717357">
        <ele>2989</ele>
        <time>2022-10-20T04:17:32.000Z</time>
      </trkpt>
      <trkpt lat="27.7912" lon="86.717363">
        <ele>2989.6</ele>
        <time>2022-10-20T04:17:37.000Z</time>
      </trkpt>
      <trkpt lat="27.791203" lon="86.717402">
        <ele>2990.4</ele>
        <time>2022-10-20T04:17:42.000Z</time>
      </trkpt>
      <trkpt lat="27.791213" lon="86.717421">
        <ele>2991.2</ele>
        <time>2022-10-20T04:17:47.000Z</time>
      </trkpt>
      <trkpt lat="27.791222" lon="86.71744">
        <ele>2991.6</ele>
        <time>2022-10-20T04:17:50.000Z</time>
      </trkpt>
      <trkpt lat="27.791203" lon="86.717459">
        <ele>2992.4</ele>
        <time>2022-10-20T04:17:54.000Z</time>
      </trkpt>
      <trkpt lat="27.791194" lon="86.717478">
        <ele>2992.8</ele>
        <time>2022-10-20T04:17:57.000Z</time>
      </trkpt>
      <trkpt lat="27.791194" lon="86.717504">
        <ele>2993.4</ele>
        <time>2022-10-20T04:18:01.000Z</time>
      </trkpt>
      <trkpt lat="27.79119" lon="86.71753">
        <ele>2994</ele>
        <time>2022-10-20T04:18:06.000Z</time>
      </trkpt>
      <trkpt lat="27.791194" lon="86.717555">
        <ele>2994.6</ele>
        <time>2022-10-20T04:18:11.000Z</time>
      </trkpt>
      <trkpt lat="27.79119" lon="86.717581">
        <ele>2994.8</ele>
        <time>2022-10-20T04:18:15.000Z</time>
      </trkpt>
      <trkpt lat="27.791184" lon="86.7176">
        <ele>2995</ele>
        <time>2022-10-20T04:18:17.000Z</time>
      </trkpt>
      <trkpt lat="27.791181" lon="86.717626">
        <ele>2996.2</ele>
        <time>2022-10-20T04:18:25.000Z</time>
      </trkpt>
      <trkpt lat="27.791181" lon="86.717651">
        <ele>2997.6</ele>
        <time>2022-10-20T04:18:31.000Z</time>
      </trkpt>
      <trkpt lat="27.791184" lon="86.717677">
        <ele>2997.8</ele>
        <time>2022-10-20T04:18:36.000Z</time>
      </trkpt>
      <trkpt lat="27.791181" lon="86.717702">
        <ele>2998.6</ele>
        <time>2022-10-20T04:18:43.000Z</time>
      </trkpt>
      <trkpt lat="27.791184" lon="86.717728">
        <ele>2999.8</ele>
        <time>2022-10-20T04:18:48.000Z</time>
      </trkpt>
      <trkpt lat="27.7912" lon="86.717741">
        <ele>3000.8</ele>
        <time>2022-10-20T04:18:59.000Z</time>
      </trkpt>
      <trkpt lat="27.791222" lon="86.717734">
        <ele>3002.2</ele>
        <time>2022-10-20T04:19:05.000Z</time>
      </trkpt>
      <trkpt lat="27.791242" lon="86.717734">
        <ele>3002.8</ele>
        <time>2022-10-20T04:19:09.000Z</time>
      </trkpt>
      <trkpt lat="27.791254" lon="86.71769">
        <ele>3006.8</ele>
        <time>2022-10-20T04:19:43.000Z</time>
      </trkpt>
      <trkpt lat="27.79127" lon="86.717664">
        <ele>3007.4</ele>
        <time>2022-10-20T04:19:47.000Z</time>
      </trkpt>
      <trkpt lat="27.791293" lon="86.717651">
        <ele>3007.8</ele>
        <time>2022-10-20T04:19:49.000Z</time>
      </trkpt>
      <trkpt lat="27.791312" lon="86.717645">
        <ele>3008</ele>
        <time>2022-10-20T04:19:51.000Z</time>
      </trkpt>
      <trkpt lat="27.791325" lon="86.717626">
        <ele>3008.8</ele>
        <time>2022-10-20T04:19:54.000Z</time>
      </trkpt>
      <trkpt lat="27.791334" lon="86.717606">
        <ele>3009.2</ele>
        <time>2022-10-20T04:19:58.000Z</time>
      </trkpt>
      <trkpt lat="27.79135" lon="86.717587">
        <ele>3009.6</ele>
        <time>2022-10-20T04:20:02.000Z</time>
      </trkpt>
      <trkpt lat="27.79135" lon="86.717562">
        <ele>3010</ele>
        <time>2022-10-20T04:20:05.000Z</time>
      </trkpt>
      <trkpt lat="27.79135" lon="86.717536">
        <ele>3010.4</ele>
        <time>2022-10-20T04:20:09.000Z</time>
      </trkpt>
      <trkpt lat="27.791357" lon="86.717517">
        <ele>3011.4</ele>
        <time>2022-10-20T04:20:15.000Z</time>
      </trkpt>
      <trkpt lat="27.791341" lon="86.717498">
        <ele>3012</ele>
        <time>2022-10-20T04:20:20.000Z</time>
      </trkpt>
      <trkpt lat="27.791341" lon="86.717466">
        <ele>3012.4</ele>
        <time>2022-10-20T04:20:26.000Z</time>
      </trkpt>
      <trkpt lat="27.79136" lon="86.717446">
        <ele>3013.2</ele>
        <time>2022-10-20T04:20:32.000Z</time>
      </trkpt>
      <trkpt lat="27.791382" lon="86.71744">
        <ele>3013</ele>
        <time>2022-10-20T04:20:37.000Z</time>
      </trkpt>
      <trkpt lat="27.791402" lon="86.717446">
        <ele>3013.8</ele>
        <time>2022-10-20T04:20:41.000Z</time>
      </trkpt>
      <trkpt lat="27.791411" lon="86.717466">
        <ele>3014.4</ele>
        <time>2022-10-20T04:20:45.000Z</time>
      </trkpt>
      <trkpt lat="27.791418" lon="86.717485">
        <ele>3014.4</ele>
        <time>2022-10-20T04:20:47.000Z</time>
      </trkpt>
      <trkpt lat="27.791427" lon="86.717504">
        <ele>3014.2</ele>
        <time>2022-10-20T04:20:49.000Z</time>
      </trkpt>
      <trkpt lat="27.79144" lon="86.717523">
        <ele>3015</ele>
        <time>2022-10-20T04:20:51.000Z</time>
      </trkpt>
      <trkpt lat="27.79144" lon="86.717555">
        <ele>3015.2</ele>
        <time>2022-10-20T04:20:56.000Z</time>
      </trkpt>
      <trkpt lat="27.791443" lon="86.717581">
        <ele>3016.2</ele>
        <time>2022-10-20T04:21:02.000Z</time>
      </trkpt>
      <trkpt lat="27.791462" lon="86.7176">
        <ele>3016.4</ele>
        <time>2022-10-20T04:21:05.000Z</time>
      </trkpt>
      <trkpt lat="27.791462" lon="86.717626">
        <ele>3018</ele>
        <time>2022-10-20T04:21:11.000Z</time>
      </trkpt>
      <trkpt lat="27.791456" lon="86.717645">
        <ele>3018.2</ele>
        <time>2022-10-20T04:21:14.000Z</time>
      </trkpt>
      <trkpt lat="27.791472" lon="86.717658">
        <ele>3019</ele>
        <time>2022-10-20T04:21:17.000Z</time>
      </trkpt>
      <trkpt lat="27.791469" lon="86.717626">
        <ele>3020</ele>
        <time>2022-10-20T04:21:30.000Z</time>
      </trkpt>
      <trkpt lat="27.791459" lon="86.717606">
        <ele>3020</ele>
        <time>2022-10-20T04:21:33.000Z</time>
      </trkpt>
      <trkpt lat="27.791443" lon="86.717587">
        <ele>3020.4</ele>
        <time>2022-10-20T04:21:37.000Z</time>
      </trkpt>
      <trkpt lat="27.791421" lon="86.717581">
        <ele>3021</ele>
        <time>2022-10-20T04:21:42.000Z</time>
      </trkpt>
      <trkpt lat="27.791427" lon="86.717562">
        <ele>3021.2</ele>
        <time>2022-10-20T04:21:49.000Z</time>
      </trkpt>
      <trkpt lat="27.79144" lon="86.717581">
        <ele>3021.6</ele>
        <time>2022-10-20T04:21:54.000Z</time>
      </trkpt>
      <trkpt lat="27.79145" lon="86.717606">
        <ele>3022.2</ele>
        <time>2022-10-20T04:21:56.000Z</time>
      </trkpt>
      <trkpt lat="27.791459" lon="86.717574">
        <ele>3023</ele>
        <time>2022-10-20T04:22:40.000Z</time>
      </trkpt>
      <trkpt lat="27.791469" lon="86.717555">
        <ele>3023</ele>
        <time>2022-10-20T04:22:41.000Z</time>
      </trkpt>
      <trkpt lat="27.791482" lon="86.717536">
        <ele>3023.2</ele>
        <time>2022-10-20T04:22:42.000Z</time>
      </trkpt>
      <trkpt lat="27.791494" lon="86.717517">
        <ele>3023.2</ele>
        <time>2022-10-20T04:22:43.000Z</time>
      </trkpt>
      <trkpt lat="27.791507" lon="86.717491">
        <ele>3023.2</ele>
        <time>2022-10-20T04:22:44.000Z</time>
      </trkpt>
      <trkpt lat="27.79151" lon="86.717466">
        <ele>3023.2</ele>
        <time>2022-10-20T04:22:45.000Z</time>
      </trkpt>
      <trkpt lat="27.791523" lon="86.717427">
        <ele>3023.6</ele>
        <time>2022-10-20T04:22:47.000Z</time>
      </trkpt>
      <trkpt lat="27.791517" lon="86.717402">
        <ele>3023.8</ele>
        <time>2022-10-20T04:22:49.000Z</time>
      </trkpt>
      <trkpt lat="27.79151" lon="86.717376">
        <ele>3024.4</ele>
        <time>2022-10-20T04:22:51.000Z</time>
      </trkpt>
      <trkpt lat="27.791504" lon="86.717357">
        <ele>3025</ele>
        <time>2022-10-20T04:22:54.000Z</time>
      </trkpt>
      <trkpt lat="27.791501" lon="86.717331">
        <ele>3025.4</ele>
        <time>2022-10-20T04:22:58.000Z</time>
      </trkpt>
      <trkpt lat="27.791507" lon="86.717306">
        <ele>3026.6</ele>
        <time>2022-10-20T04:23:01.000Z</time>
      </trkpt>
      <trkpt lat="27.791498" lon="86.717286">
        <ele>3026.6</ele>
        <time>2022-10-20T04:23:05.000Z</time>
      </trkpt>
      <trkpt lat="27.791501" lon="86.717261">
        <ele>3027.2</ele>
        <time>2022-10-20T04:23:08.000Z</time>
      </trkpt>
      <trkpt lat="27.791498" lon="86.717229">
        <ele>3027</ele>
        <time>2022-10-20T04:23:14.000Z</time>
      </trkpt>
      <trkpt lat="27.791478" lon="86.717216">
        <ele>3027.8</ele>
        <time>2022-10-20T04:23:18.000Z</time>
      </trkpt>
      <trkpt lat="27.791488" lon="86.717197">
        <ele>3028</ele>
        <time>2022-10-20T04:23:22.000Z</time>
      </trkpt>
      <trkpt lat="27.791488" lon="86.717171">
        <ele>3030</ele>
        <time>2022-10-20T04:23:27.000Z</time>
      </trkpt>
      <trkpt lat="27.791491" lon="86.717146">
        <ele>3030</ele>
        <time>2022-10-20T04:23:31.000Z</time>
      </trkpt>
      <trkpt lat="27.791498" lon="86.717126">
        <ele>3030.8</ele>
        <time>2022-10-20T04:23:35.000Z</time>
      </trkpt>
      <trkpt lat="27.791498" lon="86.717101">
        <ele>3031</ele>
        <time>2022-10-20T04:23:39.000Z</time>
      </trkpt>
      <trkpt lat="27.791488" lon="86.717082">
        <ele>3031.6</ele>
        <time>2022-10-20T04:23:42.000Z</time>
      </trkpt>
      <trkpt lat="27.791469" lon="86.717062">
        <ele>3031.6</ele>
        <time>2022-10-20T04:23:44.000Z</time>
      </trkpt>
      <trkpt lat="27.79145" lon="86.717056">
        <ele>3032</ele>
        <time>2022-10-20T04:23:47.000Z</time>
      </trkpt>
      <trkpt lat="27.791462" lon="86.71703">
        <ele>3032</ele>
        <time>2022-10-20T04:23:50.000Z</time>
      </trkpt>
      <trkpt lat="27.791478" lon="86.717005">
        <ele>3032.2</ele>
        <time>2022-10-20T04:23:53.000Z</time>
      </trkpt>
      <trkpt lat="27.791507" lon="86.716979">
        <ele>3032.4</ele>
        <time>2022-10-20T04:23:55.000Z</time>
      </trkpt>
      <trkpt lat="27.791526" lon="86.716966">
        <ele>3033.4</ele>
        <time>2022-10-20T04:23:58.000Z</time>
      </trkpt>
      <trkpt lat="27.791539" lon="86.716947">
        <ele>3033.4</ele>
        <time>2022-10-20T04:24:00.000Z</time>
      </trkpt>
      <trkpt lat="27.791542" lon="86.716922">
        <ele>3033.2</ele>
        <time>2022-10-20T04:24:04.000Z</time>
      </trkpt>
      <trkpt lat="27.791536" lon="86.716902">
        <ele>3033.8</ele>
        <time>2022-10-20T04:24:08.000Z</time>
      </trkpt>
      <trkpt lat="27.791533" lon="86.71687">
        <ele>3035</ele>
        <time>2022-10-20T04:24:14.000Z</time>
      </trkpt>
      <trkpt lat="27.791533" lon="86.716845">
        <ele>3035.6</ele>
        <time>2022-10-20T04:24:20.000Z</time>
      </trkpt>
      <trkpt lat="27.79152" lon="86.716826">
        <ele>3036.8</ele>
        <time>2022-10-20T04:24:25.000Z</time>
      </trkpt>
      <trkpt lat="27.791501" lon="86.716813">
        <ele>3037.6</ele>
        <time>2022-10-20T04:24:30.000Z</time>
      </trkpt>
      <trkpt lat="27.791488" lon="86.716787">
        <ele>3039.2</ele>
        <time>2022-10-20T04:24:36.000Z</time>
      </trkpt>
      <trkpt lat="27.791472" lon="86.716774">
        <ele>3039.6</ele>
        <time>2022-10-20T04:24:44.000Z</time>
      </trkpt>
      <trkpt lat="27.791472" lon="86.716749">
        <ele>3038.8</ele>
        <time>2022-10-20T04:24:51.000Z</time>
      </trkpt>
      <trkpt lat="27.791488" lon="86.716736">
        <ele>3038.6</ele>
        <time>2022-10-20T04:24:54.000Z</time>
      </trkpt>
      <trkpt lat="27.791504" lon="86.716723">
        <ele>3038.8</ele>
        <time>2022-10-20T04:24:57.000Z</time>
      </trkpt>
      <trkpt lat="27.791517" lon="86.716704">
        <ele>3038.8</ele>
        <time>2022-10-20T04:24:59.000Z</time>
      </trkpt>
      <trkpt lat="27.79153" lon="86.716672">
        <ele>3039.2</ele>
        <time>2022-10-20T04:25:02.000Z</time>
      </trkpt>
      <trkpt lat="27.791546" lon="86.716659">
        <ele>3039.2</ele>
        <time>2022-10-20T04:25:05.000Z</time>
      </trkpt>
      <trkpt lat="27.791568" lon="86.716653">
        <ele>3039.4</ele>
        <time>2022-10-20T04:25:10.000Z</time>
      </trkpt>
      <trkpt lat="27.791574" lon="86.716634">
        <ele>3039.2</ele>
        <time>2022-10-20T04:25:14.000Z</time>
      </trkpt>
      <trkpt lat="27.791581" lon="86.716614">
        <ele>3039.8</ele>
        <time>2022-10-20T04:25:20.000Z</time>
      </trkpt>
      <trkpt lat="27.791597" lon="86.716602">
        <ele>3041</ele>
        <time>2022-10-20T04:25:26.000Z</time>
      </trkpt>
      <trkpt lat="27.791619" lon="86.716589">
        <ele>3040.8</ele>
        <time>2022-10-20T04:25:29.000Z</time>
      </trkpt>
      <trkpt lat="27.791635" lon="86.716576">
        <ele>3041.2</ele>
        <time>2022-10-20T04:25:36.000Z</time>
      </trkpt>
      <trkpt lat="27.791651" lon="86.716563">
        <ele>3041.6</ele>
        <time>2022-10-20T04:25:42.000Z</time>
      </trkpt>
      <trkpt lat="27.791658" lon="86.716544">
        <ele>3041.8</ele>
        <time>2022-10-20T04:25:46.000Z</time>
      </trkpt>
      <trkpt lat="27.791674" lon="86.716525">
        <ele>3041.8</ele>
        <time>2022-10-20T04:25:50.000Z</time>
      </trkpt>
      <trkpt lat="27.79168" lon="86.716506">
        <ele>3042.2</ele>
        <time>2022-10-20T04:25:53.000Z</time>
      </trkpt>
      <trkpt lat="27.791699" lon="86.716506">
        <ele>3043.2</ele>
        <time>2022-10-20T04:25:58.000Z</time>
      </trkpt>
      <trkpt lat="27.791718" lon="86.716506">
        <ele>3042.6</ele>
        <time>2022-10-20T04:26:10.000Z</time>
      </trkpt>
      <trkpt lat="27.791699" lon="86.716506">
        <ele>3042.4</ele>
        <time>2022-10-20T04:26:20.000Z</time>
      </trkpt>
      <trkpt lat="27.79168" lon="86.716467">
        <ele>3043.4</ele>
        <time>2022-10-20T04:29:03.000Z</time>
      </trkpt>
      <trkpt lat="27.791667" lon="86.716448">
        <ele>3041.8</ele>
        <time>2022-10-20T04:33:17.000Z</time>
      </trkpt>
      <trkpt lat="27.791626" lon="86.716435">
        <ele>3042.2</ele>
        <time>2022-10-20T04:33:24.000Z</time>
      </trkpt>
      <trkpt lat="27.791616" lon="86.716454">
        <ele>3041.8</ele>
        <time>2022-10-20T04:33:32.000Z</time>
      </trkpt>
      <trkpt lat="27.791622" lon="86.716429">
        <ele>3042.2</ele>
        <time>2022-10-20T04:35:45.000Z</time>
      </trkpt>
      <trkpt lat="27.791635" lon="86.71641">
        <ele>3042.2</ele>
        <time>2022-10-20T04:35:47.000Z</time>
      </trkpt>
      <trkpt lat="27.791651" lon="86.716352">
        <ele>3042.8</ele>
        <time>2022-10-20T04:35:51.000Z</time>
      </trkpt>
      <trkpt lat="27.791661" lon="86.716333">
        <ele>3043.2</ele>
        <time>2022-10-20T04:35:53.000Z</time>
      </trkpt>
      <trkpt lat="27.79168" lon="86.716314">
        <ele>3044</ele>
        <time>2022-10-20T04:35:56.000Z</time>
      </trkpt>
      <trkpt lat="27.791696" lon="86.716301">
        <ele>3044.2</ele>
        <time>2022-10-20T04:35:58.000Z</time>
      </trkpt>
      <trkpt lat="27.791712" lon="86.716288">
        <ele>3044.4</ele>
        <time>2022-10-20T04:36:00.000Z</time>
      </trkpt>
      <trkpt lat="27.791734" lon="86.716275">
        <ele>3044.8</ele>
        <time>2022-10-20T04:36:02.000Z</time>
      </trkpt>
      <trkpt lat="27.791757" lon="86.716269">
        <ele>3045</ele>
        <time>2022-10-20T04:36:04.000Z</time>
      </trkpt>
      <trkpt lat="27.791782" lon="86.716262">
        <ele>3046</ele>
        <time>2022-10-20T04:36:08.000Z</time>
      </trkpt>
      <trkpt lat="27.791798" lon="86.71625">
        <ele>3046.8</ele>
        <time>2022-10-20T04:36:10.000Z</time>
      </trkpt>
      <trkpt lat="27.791818" lon="86.71625">
        <ele>3047.4</ele>
        <time>2022-10-20T04:36:14.000Z</time>
      </trkpt>
      <trkpt lat="27.791824" lon="86.71623">
        <ele>3046.8</ele>
        <time>2022-10-20T04:36:17.000Z</time>
      </trkpt>
      <trkpt lat="27.79184" lon="86.716218">
        <ele>3047.4</ele>
        <time>2022-10-20T04:36:22.000Z</time>
      </trkpt>
      <trkpt lat="27.791859" lon="86.716211">
        <ele>3048.4</ele>
        <time>2022-10-20T04:36:29.000Z</time>
      </trkpt>
      <trkpt lat="27.791875" lon="86.716192">
        <ele>3048.6</ele>
        <time>2022-10-20T04:36:34.000Z</time>
      </trkpt>
      <trkpt lat="27.791894" lon="86.716186">
        <ele>3049.2</ele>
        <time>2022-10-20T04:36:38.000Z</time>
      </trkpt>
      <trkpt lat="27.791907" lon="86.716166">
        <ele>3049.4</ele>
        <time>2022-10-20T04:36:41.000Z</time>
      </trkpt>
      <trkpt lat="27.791917" lon="86.716141">
        <ele>3050.2</ele>
        <time>2022-10-20T04:36:44.000Z</time>
      </trkpt>
      <trkpt lat="27.791939" lon="86.716128">
        <ele>3050.4</ele>
        <time>2022-10-20T04:36:49.000Z</time>
      </trkpt>
      <trkpt lat="27.791949" lon="86.716109">
        <ele>3050.6</ele>
        <time>2022-10-20T04:36:52.000Z</time>
      </trkpt>
      <trkpt lat="27.791955" lon="86.71609">
        <ele>3051</ele>
        <time>2022-10-20T04:36:55.000Z</time>
      </trkpt>
      <trkpt lat="27.791958" lon="86.716064">
        <ele>3051.4</ele>
        <time>2022-10-20T04:37:04.000Z</time>
      </trkpt>
      <trkpt lat="27.791955" lon="86.716038">
        <ele>3052.4</ele>
        <time>2022-10-20T04:37:12.000Z</time>
      </trkpt>
      <trkpt lat="27.791946" lon="86.716019">
        <ele>3052.2</ele>
        <time>2022-10-20T04:37:15.000Z</time>
      </trkpt>
      <trkpt lat="27.791955" lon="86.715994">
        <ele>3052.6</ele>
        <time>2022-10-20T04:37:18.000Z</time>
      </trkpt>
      <trkpt lat="27.791949" lon="86.715974">
        <ele>3052.8</ele>
        <time>2022-10-20T04:37:20.000Z</time>
      </trkpt>
      <trkpt lat="27.791955" lon="86.715955">
        <ele>3053</ele>
        <time>2022-10-20T04:37:22.000Z</time>
      </trkpt>
      <trkpt lat="27.791958" lon="86.71593">
        <ele>3053.4</ele>
        <time>2022-10-20T04:37:26.000Z</time>
      </trkpt>
      <trkpt lat="27.791965" lon="86.715904">
        <ele>3054.2</ele>
        <time>2022-10-20T04:37:29.000Z</time>
      </trkpt>
      <trkpt lat="27.791978" lon="86.715878">
        <ele>3054.6</ele>
        <time>2022-10-20T04:37:32.000Z</time>
      </trkpt>
      <trkpt lat="27.791981" lon="86.715853">
        <ele>3054.6</ele>
        <time>2022-10-20T04:37:37.000Z</time>
      </trkpt>
      <trkpt lat="27.792" lon="86.715827">
        <ele>3055</ele>
        <time>2022-10-20T04:37:40.000Z</time>
      </trkpt>
      <trkpt lat="27.792019" lon="86.715814">
        <ele>3055.8</ele>
        <time>2022-10-20T04:37:49.000Z</time>
      </trkpt>
      <trkpt lat="27.792035" lon="86.715795">
        <ele>3056.6</ele>
        <time>2022-10-20T04:37:55.000Z</time>
      </trkpt>
      <trkpt lat="27.792064" lon="86.715808">
        <ele>3058.2</ele>
        <time>2022-10-20T04:38:11.000Z</time>
      </trkpt>
      <trkpt lat="27.792083" lon="86.715808">
        <ele>3058.8</ele>
        <time>2022-10-20T04:38:13.000Z</time>
      </trkpt>
      <trkpt lat="27.792102" lon="86.715789">
        <ele>3059</ele>
        <time>2022-10-20T04:38:14.000Z</time>
      </trkpt>
      <trkpt lat="27.792122" lon="86.715789">
        <ele>3059</ele>
        <time>2022-10-20T04:38:16.000Z</time>
      </trkpt>
      <trkpt lat="27.79215" lon="86.715782">
        <ele>3059</ele>
        <time>2022-10-20T04:38:18.000Z</time>
      </trkpt>
      <trkpt lat="27.79217" lon="86.715776">
        <ele>3060.2</ele>
        <time>2022-10-20T04:38:25.000Z</time>
      </trkpt>
      <trkpt lat="27.792176" lon="86.715757">
        <ele>3060.8</ele>
        <time>2022-10-20T04:38:29.000Z</time>
      </trkpt>
      <trkpt lat="27.792182" lon="86.715738">
        <ele>3061.4</ele>
        <time>2022-10-20T04:38:36.000Z</time>
      </trkpt>
      <trkpt lat="27.792202" lon="86.715744">
        <ele>3062</ele>
        <time>2022-10-20T04:38:40.000Z</time>
      </trkpt>
      <trkpt lat="27.792224" lon="86.715731">
        <ele>3063.2</ele>
        <time>2022-10-20T04:38:46.000Z</time>
      </trkpt>
      <trkpt lat="27.79223" lon="86.715712">
        <ele>3063.2</ele>
        <time>2022-10-20T04:38:51.000Z</time>
      </trkpt>
      <trkpt lat="27.79225" lon="86.715706">
        <ele>3064.2</ele>
        <time>2022-10-20T04:38:56.000Z</time>
      </trkpt>
      <trkpt lat="27.792246" lon="86.715731">
        <ele>3064.4</ele>
        <time>2022-10-20T04:39:00.000Z</time>
      </trkpt>
      <trkpt lat="27.792259" lon="86.71575">
        <ele>3064.6</ele>
        <time>2022-10-20T04:39:02.000Z</time>
      </trkpt>
      <trkpt lat="27.792269" lon="86.71577">
        <ele>3064.8</ele>
        <time>2022-10-20T04:39:03.000Z</time>
      </trkpt>
      <trkpt lat="27.792262" lon="86.715789">
        <ele>3066</ele>
        <time>2022-10-20T04:39:08.000Z</time>
      </trkpt>
      <trkpt lat="27.792266" lon="86.715821">
        <ele>3066</ele>
        <time>2022-10-20T04:39:12.000Z</time>
      </trkpt>
      <trkpt lat="27.792266" lon="86.715846">
        <ele>3066.4</ele>
        <time>2022-10-20T04:39:16.000Z</time>
      </trkpt>
      <trkpt lat="27.792246" lon="86.715866">
        <ele>3067.6</ele>
        <time>2022-10-20T04:39:23.000Z</time>
      </trkpt>
      <trkpt lat="27.79223" lon="86.715891">
        <ele>3068</ele>
        <time>2022-10-20T04:40:08.000Z</time>
      </trkpt>
      <trkpt lat="27.79224" lon="86.715872">
        <ele>3071</ele>
        <time>2022-10-20T04:40:22.000Z</time>
      </trkpt>
      <trkpt lat="27.792266" lon="86.715859">
        <ele>3071.4</ele>
        <time>2022-10-20T04:40:26.000Z</time>
      </trkpt>
      <trkpt lat="27.792285" lon="86.715866">
        <ele>3072.2</ele>
        <time>2022-10-20T04:40:28.000Z</time>
      </trkpt>
      <trkpt lat="27.792307" lon="86.715859">
        <ele>3072.8</ele>
        <time>2022-10-20T04:40:31.000Z</time>
      </trkpt>
      <trkpt lat="27.792326" lon="86.715853">
        <ele>3072.8</ele>
        <time>2022-10-20T04:40:34.000Z</time>
      </trkpt>
      <trkpt lat="27.792346" lon="86.715834">
        <ele>3073.8</ele>
        <time>2022-10-20T04:40:38.000Z</time>
      </trkpt>
      <trkpt lat="27.792365" lon="86.715827">
        <ele>3074</ele>
        <time>2022-10-20T04:40:41.000Z</time>
      </trkpt>
      <trkpt lat="27.792384" lon="86.715821">
        <ele>3074.4</ele>
        <time>2022-10-20T04:40:46.000Z</time>
      </trkpt>
      <trkpt lat="27.792403" lon="86.715814">
        <ele>3074.6</ele>
        <time>2022-10-20T04:40:52.000Z</time>
      </trkpt>
      <trkpt lat="27.792432" lon="86.715808">
        <ele>3078.2</ele>
        <time>2022-10-20T04:41:21.000Z</time>
      </trkpt>
      <trkpt lat="27.792451" lon="86.715795">
        <ele>3079</ele>
        <time>2022-10-20T04:41:23.000Z</time>
      </trkpt>
      <trkpt lat="27.79247" lon="86.715795">
        <ele>3079.6</ele>
        <time>2022-10-20T04:41:25.000Z</time>
      </trkpt>
      <trkpt lat="27.792493" lon="86.715782">
        <ele>3079</ele>
        <time>2022-10-20T04:41:28.000Z</time>
      </trkpt>
      <trkpt lat="27.792515" lon="86.71577">
        <ele>3079.4</ele>
        <time>2022-10-20T04:41:31.000Z</time>
      </trkpt>
      <trkpt lat="27.792525" lon="86.71575">
        <ele>3080</ele>
        <time>2022-10-20T04:41:36.000Z</time>
      </trkpt>
      <trkpt lat="27.79255" lon="86.71575">
        <ele>3080.8</ele>
        <time>2022-10-20T04:41:39.000Z</time>
      </trkpt>
      <trkpt lat="27.792573" lon="86.715757">
        <ele>3081.2</ele>
        <time>2022-10-20T04:41:46.000Z</time>
      </trkpt>
      <trkpt lat="27.792595" lon="86.71575">
        <ele>3082</ele>
        <time>2022-10-20T04:42:22.000Z</time>
      </trkpt>
      <trkpt lat="27.792618" lon="86.715712">
        <ele>3082.4</ele>
        <time>2022-10-20T04:42:31.000Z</time>
      </trkpt>
      <trkpt lat="27.792634" lon="86.715699">
        <ele>3082.8</ele>
        <time>2022-10-20T04:42:37.000Z</time>
      </trkpt>
      <trkpt lat="27.792653" lon="86.715693">
        <ele>3083.2</ele>
        <time>2022-10-20T04:42:40.000Z</time>
      </trkpt>
      <trkpt lat="27.792669" lon="86.71568">
        <ele>3083</ele>
        <time>2022-10-20T04:42:42.000Z</time>
      </trkpt>
      <trkpt lat="27.792691" lon="86.71568">
        <ele>3084</ele>
        <time>2022-10-20T04:42:45.000Z</time>
      </trkpt>
      <trkpt lat="27.792704" lon="86.71577">
        <ele>3088.6</ele>
        <time>2022-10-20T04:46:04.000Z</time>
      </trkpt>
      <trkpt lat="27.792749" lon="86.715706">
        <ele>3089.6</ele>
        <time>2022-10-20T04:46:11.000Z</time>
      </trkpt>
      <trkpt lat="27.792755" lon="86.71568">
        <ele>3089.6</ele>
        <time>2022-10-20T04:46:16.000Z</time>
      </trkpt>
      <trkpt lat="27.792774" lon="86.715674">
        <ele>3090.4</ele>
        <time>2022-10-20T04:46:23.000Z</time>
      </trkpt>
      <trkpt lat="27.79279" lon="86.715661">
        <ele>3090.4</ele>
        <time>2022-10-20T04:46:30.000Z</time>
      </trkpt>
      <trkpt lat="27.792794" lon="86.715693">
        <ele>3090.8</ele>
        <time>2022-10-20T04:46:52.000Z</time>
      </trkpt>
      <trkpt lat="27.792778" lon="86.715706">
        <ele>3091.4</ele>
        <time>2022-10-20T04:46:58.000Z</time>
      </trkpt>
      <trkpt lat="27.792768" lon="86.715738">
        <ele>3092</ele>
        <time>2022-10-20T04:47:02.000Z</time>
      </trkpt>
      <trkpt lat="27.792765" lon="86.71577">
        <ele>3092.2</ele>
        <time>2022-10-20T04:47:07.000Z</time>
      </trkpt>
      <trkpt lat="27.792771" lon="86.715789">
        <ele>3093.4</ele>
        <time>2022-10-20T04:47:13.000Z</time>
      </trkpt>
      <trkpt lat="27.79279" lon="86.715789">
        <ele>3093.8</ele>
        <time>2022-10-20T04:47:17.000Z</time>
      </trkpt>
      <trkpt lat="27.79281" lon="86.715782">
        <ele>3095</ele>
        <time>2022-10-20T04:47:21.000Z</time>
      </trkpt>
      <trkpt lat="27.792813" lon="86.71575">
        <ele>3095.4</ele>
        <time>2022-10-20T04:47:24.000Z</time>
      </trkpt>
      <trkpt lat="27.792832" lon="86.715744">
        <ele>3095.4</ele>
        <time>2022-10-20T04:47:26.000Z</time>
      </trkpt>
      <trkpt lat="27.792848" lon="86.715731">
        <ele>3095.8</ele>
        <time>2022-10-20T04:47:29.000Z</time>
      </trkpt>
      <trkpt lat="27.792858" lon="86.715712">
        <ele>3096.2</ele>
        <time>2022-10-20T04:47:31.000Z</time>
      </trkpt>
      <trkpt lat="27.792877" lon="86.715699">
        <ele>3096.8</ele>
        <time>2022-10-20T04:47:33.000Z</time>
      </trkpt>
      <trkpt lat="27.792893" lon="86.71568">
        <ele>3097</ele>
        <time>2022-10-20T04:47:35.000Z</time>
      </trkpt>
      <trkpt lat="27.792912" lon="86.715674">
        <ele>3097.4</ele>
        <time>2022-10-20T04:47:38.000Z</time>
      </trkpt>
      <trkpt lat="27.792931" lon="86.715667">
        <ele>3098</ele>
        <time>2022-10-20T04:47:41.000Z</time>
      </trkpt>
      <trkpt lat="27.79295" lon="86.715661">
        <ele>3098.2</ele>
        <time>2022-10-20T04:47:44.000Z</time>
      </trkpt>
      <trkpt lat="27.79297" lon="86.715661">
        <ele>3098.4</ele>
        <time>2022-10-20T04:47:47.000Z</time>
      </trkpt>
      <trkpt lat="27.792986" lon="86.715648">
        <ele>3099</ele>
        <time>2022-10-20T04:47:50.000Z</time>
      </trkpt>
      <trkpt lat="27.793002" lon="86.715635">
        <ele>3100</ele>
        <time>2022-10-20T04:47:55.000Z</time>
      </trkpt>
      <trkpt lat="27.793021" lon="86.715629">
        <ele>3101</ele>
        <time>2022-10-20T04:48:00.000Z</time>
      </trkpt>
      <trkpt lat="27.793037" lon="86.715616">
        <ele>3101.6</ele>
        <time>2022-10-20T04:48:06.000Z</time>
      </trkpt>
      <trkpt lat="27.79304" lon="86.71559">
        <ele>3102.4</ele>
        <time>2022-10-20T04:48:21.000Z</time>
      </trkpt>
      <trkpt lat="27.793075" lon="86.71561">
        <ele>3106.2</ele>
        <time>2022-10-20T04:48:49.000Z</time>
      </trkpt>
      <trkpt lat="27.793069" lon="86.715629">
        <ele>3106.4</ele>
        <time>2022-10-20T04:48:51.000Z</time>
      </trkpt>
      <trkpt lat="27.793062" lon="86.715661">
        <ele>3106.6</ele>
        <time>2022-10-20T04:48:53.000Z</time>
      </trkpt>
      <trkpt lat="27.793056" lon="86.71568">
        <ele>3107</ele>
        <time>2022-10-20T04:48:55.000Z</time>
      </trkpt>
      <trkpt lat="27.79305" lon="86.715699">
        <ele>3107.2</ele>
        <time>2022-10-20T04:48:56.000Z</time>
      </trkpt>
      <trkpt lat="27.79304" lon="86.715718">
        <ele>3107.2</ele>
        <time>2022-10-20T04:48:58.000Z</time>
      </trkpt>
      <trkpt lat="27.793027" lon="86.715738">
        <ele>3107.8</ele>
        <time>2022-10-20T04:49:01.000Z</time>
      </trkpt>
      <trkpt lat="27.793021" lon="86.71577">
        <ele>3108.2</ele>
        <time>2022-10-20T04:49:05.000Z</time>
      </trkpt>
      <trkpt lat="27.793021" lon="86.715795">
        <ele>3109.2</ele>
        <time>2022-10-20T04:49:12.000Z</time>
      </trkpt>
      <trkpt lat="27.793024" lon="86.715821">
        <ele>3109.4</ele>
        <time>2022-10-20T04:49:15.000Z</time>
      </trkpt>
      <trkpt lat="27.793008" lon="86.715846">
        <ele>3110</ele>
        <time>2022-10-20T04:49:21.000Z</time>
      </trkpt>
      <trkpt lat="27.793008" lon="86.715872">
        <ele>3111.4</ele>
        <time>2022-10-20T04:49:31.000Z</time>
      </trkpt>
      <trkpt lat="27.793104" lon="86.715853">
        <ele>3118.8</ele>
        <time>2022-10-20T04:50:42.000Z</time>
      </trkpt>
      <trkpt lat="27.793098" lon="86.715872">
        <ele>3119.4</ele>
        <time>2022-10-20T04:50:44.000Z</time>
      </trkpt>
      <trkpt lat="27.793091" lon="86.715898">
        <ele>3119.4</ele>
        <time>2022-10-20T04:50:46.000Z</time>
      </trkpt>
      <trkpt lat="27.793091" lon="86.71593">
        <ele>3120</ele>
        <time>2022-10-20T04:50:49.000Z</time>
      </trkpt>
      <trkpt lat="27.793098" lon="86.715955">
        <ele>3120.4</ele>
        <time>2022-10-20T04:50:53.000Z</time>
      </trkpt>
      <trkpt lat="27.793117" lon="86.715949">
        <ele>3121.2</ele>
        <time>2022-10-20T04:51:00.000Z</time>
      </trkpt>
      <trkpt lat="27.793136" lon="86.715942">
        <ele>3122</ele>
        <time>2022-10-20T04:51:04.000Z</time>
      </trkpt>
      <trkpt lat="27.793152" lon="86.71593">
        <ele>3122.6</ele>
        <time>2022-10-20T04:51:13.000Z</time>
      </trkpt>
      <trkpt lat="27.793178" lon="86.715936">
        <ele>3122.8</ele>
        <time>2022-10-20T04:51:17.000Z</time>
      </trkpt>
      <trkpt lat="27.793197" lon="86.715936">
        <ele>3123.4</ele>
        <time>2022-10-20T04:51:21.000Z</time>
      </trkpt>
      <trkpt lat="27.793206" lon="86.715917">
        <ele>3124</ele>
        <time>2022-10-20T04:51:28.000Z</time>
      </trkpt>
      <trkpt lat="27.793226" lon="86.715917">
        <ele>3124.8</ele>
        <time>2022-10-20T04:51:42.000Z</time>
      </trkpt>
      <trkpt lat="27.793245" lon="86.715917">
        <ele>3125.6</ele>
        <time>2022-10-20T04:51:46.000Z</time>
      </trkpt>
      <trkpt lat="27.793264" lon="86.715917">
        <ele>3126.8</ele>
        <time>2022-10-20T04:51:52.000Z</time>
      </trkpt>
      <trkpt lat="27.793286" lon="86.71591">
        <ele>3127.8</ele>
        <time>2022-10-20T04:51:58.000Z</time>
      </trkpt>
      <trkpt lat="27.793296" lon="86.715891">
        <ele>3128.2</ele>
        <time>2022-10-20T04:52:03.000Z</time>
      </trkpt>
      <trkpt lat="27.793315" lon="86.715878">
        <ele>3128.2</ele>
        <time>2022-10-20T04:52:06.000Z</time>
      </trkpt>
      <trkpt lat="27.793334" lon="86.715872">
        <ele>3128.8</ele>
        <time>2022-10-20T04:52:09.000Z</time>
      </trkpt>
      <trkpt lat="27.793354" lon="86.715872">
        <ele>3129.6</ele>
        <time>2022-10-20T04:52:12.000Z</time>
      </trkpt>
      <trkpt lat="27.793373" lon="86.715866">
        <ele>3130</ele>
        <time>2022-10-20T04:52:14.000Z</time>
      </trkpt>
      <trkpt lat="27.793392" lon="86.715853">
        <ele>3130.4</ele>
        <time>2022-10-20T04:52:16.000Z</time>
      </trkpt>
      <trkpt lat="27.793411" lon="86.715834">
        <ele>3131</ele>
        <time>2022-10-20T04:52:19.000Z</time>
      </trkpt>
      <trkpt lat="27.793427" lon="86.715821">
        <ele>3131</ele>
        <time>2022-10-20T04:52:23.000Z</time>
      </trkpt>
      <trkpt lat="27.793446" lon="86.715808">
        <ele>3131.6</ele>
        <time>2022-10-20T04:52:27.000Z</time>
      </trkpt>
      <trkpt lat="27.793462" lon="86.715795">
        <ele>3131.8</ele>
        <time>2022-10-20T04:52:30.000Z</time>
      </trkpt>
      <trkpt lat="27.793485" lon="86.715795">
        <ele>3132.2</ele>
        <time>2022-10-20T04:52:36.000Z</time>
      </trkpt>
      <trkpt lat="27.793504" lon="86.715808">
        <ele>3132.4</ele>
        <time>2022-10-20T04:52:40.000Z</time>
      </trkpt>
      <trkpt lat="27.793523" lon="86.715821">
        <ele>3133.4</ele>
        <time>2022-10-20T04:52:45.000Z</time>
      </trkpt>
      <trkpt lat="27.793539" lon="86.715834">
        <ele>3134.6</ele>
        <time>2022-10-20T04:52:49.000Z</time>
      </trkpt>
      <trkpt lat="27.793546" lon="86.715853">
        <ele>3135</ele>
        <time>2022-10-20T04:52:54.000Z</time>
      </trkpt>
      <trkpt lat="27.793507" lon="86.715846">
        <ele>3135.2</ele>
        <time>2022-10-20T04:55:04.000Z</time>
      </trkpt>
      <trkpt lat="27.793488" lon="86.715846">
        <ele>3135.2</ele>
        <time>2022-10-20T04:55:07.000Z</time>
      </trkpt>
      <trkpt lat="27.793462" lon="86.715834">
        <ele>3135.2</ele>
        <time>2022-10-20T04:55:12.000Z</time>
      </trkpt>
      <trkpt lat="27.793504" lon="86.715853">
        <ele>3134</ele>
        <time>2022-10-20T04:57:25.000Z</time>
      </trkpt>
      <trkpt lat="27.793488" lon="86.715866">
        <ele>3134.6</ele>
        <time>2022-10-20T04:57:29.000Z</time>
      </trkpt>
      <trkpt lat="27.793462" lon="86.715878">
        <ele>3135.4</ele>
        <time>2022-10-20T04:57:35.000Z</time>
      </trkpt>
      <trkpt lat="27.793446" lon="86.715898">
        <ele>3135.4</ele>
        <time>2022-10-20T04:58:27.000Z</time>
      </trkpt>
      <trkpt lat="27.793427" lon="86.71591">
        <ele>3135</ele>
        <time>2022-10-20T04:58:31.000Z</time>
      </trkpt>
      <trkpt lat="27.793421" lon="86.71593">
        <ele>3135.2</ele>
        <time>2022-10-20T04:58:33.000Z</time>
      </trkpt>
      <trkpt lat="27.793402" lon="86.71593">
        <ele>3135.6</ele>
        <time>2022-10-20T04:59:50.000Z</time>
      </trkpt>
      <trkpt lat="27.793424" lon="86.715936">
        <ele>3135.6</ele>
        <time>2022-10-20T04:59:52.000Z</time>
      </trkpt>
      <trkpt lat="27.793443" lon="86.715942">
        <ele>3135.4</ele>
        <time>2022-10-20T04:59:56.000Z</time>
      </trkpt>
      <trkpt lat="27.793437" lon="86.71591">
        <ele>3135.8</ele>
        <time>2022-10-20T05:00:48.000Z</time>
      </trkpt>
      <trkpt lat="27.793434" lon="86.715936">
        <ele>3136.4</ele>
        <time>2022-10-20T05:01:11.000Z</time>
      </trkpt>
      <trkpt lat="27.793421" lon="86.715968">
        <ele>3136</ele>
        <time>2022-10-20T05:01:54.000Z</time>
      </trkpt>
      <trkpt lat="27.79337" lon="86.715942">
        <ele>3136</ele>
        <time>2022-10-20T05:01:58.000Z</time>
      </trkpt>
      <trkpt lat="27.793354" lon="86.71593">
        <ele>3136.2</ele>
        <time>2022-10-20T05:02:01.000Z</time>
      </trkpt>
      <trkpt lat="27.793315" lon="86.71591">
        <ele>3136.2</ele>
        <time>2022-10-20T05:02:03.000Z</time>
      </trkpt>
      <trkpt lat="27.793306" lon="86.715891">
        <ele>3136</ele>
        <time>2022-10-20T05:02:04.000Z</time>
      </trkpt>
      <trkpt lat="27.793296" lon="86.715859">
        <ele>3136</ele>
        <time>2022-10-20T05:02:06.000Z</time>
      </trkpt>
      <trkpt lat="27.79328" lon="86.715846">
        <ele>3136.2</ele>
        <time>2022-10-20T05:02:08.000Z</time>
      </trkpt>
      <trkpt lat="27.793306" lon="86.715866">
        <ele>3136.4</ele>
        <time>2022-10-20T05:02:12.000Z</time>
      </trkpt>
      <trkpt lat="27.793296" lon="86.715898">
        <ele>3136.2</ele>
        <time>2022-10-20T05:02:14.000Z</time>
      </trkpt>
      <trkpt lat="27.793277" lon="86.715936">
        <ele>3136</ele>
        <time>2022-10-20T05:02:17.000Z</time>
      </trkpt>
      <trkpt lat="27.793296" lon="86.71593">
        <ele>3136</ele>
        <time>2022-10-20T05:02:26.000Z</time>
      </trkpt>
      <trkpt lat="27.793325" lon="86.71591">
        <ele>3135.8</ele>
        <time>2022-10-20T05:02:28.000Z</time>
      </trkpt>
      <trkpt lat="27.793354" lon="86.715904">
        <ele>3136.8</ele>
        <time>2022-10-20T05:02:30.000Z</time>
      </trkpt>
      <trkpt lat="27.793373" lon="86.715898">
        <ele>3136.6</ele>
        <time>2022-10-20T05:02:31.000Z</time>
      </trkpt>
      <trkpt lat="27.793408" lon="86.715891">
        <ele>3136</ele>
        <time>2022-10-20T05:02:33.000Z</time>
      </trkpt>
      <trkpt lat="27.793421" lon="86.715872">
        <ele>3136</ele>
        <time>2022-10-20T05:02:34.000Z</time>
      </trkpt>
      <trkpt lat="27.79344" lon="86.715866">
        <ele>3136.2</ele>
        <time>2022-10-20T05:02:38.000Z</time>
      </trkpt>
      <trkpt lat="27.793466" lon="86.715859">
        <ele>3136.2</ele>
        <time>2022-10-20T05:02:44.000Z</time>
      </trkpt>
      <trkpt lat="27.793485" lon="86.715853">
        <ele>3137</ele>
        <time>2022-10-20T05:02:48.000Z</time>
      </trkpt>
      <trkpt lat="27.793504" lon="86.715853">
        <ele>3136.8</ele>
        <time>2022-10-20T05:02:52.000Z</time>
      </trkpt>
      <trkpt lat="27.793523" lon="86.715853">
        <ele>3137</ele>
        <time>2022-10-20T05:02:56.000Z</time>
      </trkpt>
      <trkpt lat="27.793542" lon="86.715846">
        <ele>3137.8</ele>
        <time>2022-10-20T05:04:55.000Z</time>
      </trkpt>
      <trkpt lat="27.793562" lon="86.715853">
        <ele>3140</ele>
        <time>2022-10-20T05:07:51.000Z</time>
      </trkpt>
      <trkpt lat="27.793587" lon="86.715834">
        <ele>3140.2</ele>
        <time>2022-10-20T05:07:53.000Z</time>
      </trkpt>
      <trkpt lat="27.793606" lon="86.715827">
        <ele>3140.2</ele>
        <time>2022-10-20T05:07:54.000Z</time>
      </trkpt>
      <trkpt lat="27.793632" lon="86.715814">
        <ele>3140.4</ele>
        <time>2022-10-20T05:07:56.000Z</time>
      </trkpt>
      <trkpt lat="27.793654" lon="86.715795">
        <ele>3140.6</ele>
        <time>2022-10-20T05:07:58.000Z</time>
      </trkpt>
      <trkpt lat="27.793683" lon="86.715782">
        <ele>3141</ele>
        <time>2022-10-20T05:08:00.000Z</time>
      </trkpt>
      <trkpt lat="27.793702" lon="86.715782">
        <ele>3141.2</ele>
        <time>2022-10-20T05:08:04.000Z</time>
      </trkpt>
      <trkpt lat="27.793722" lon="86.715782">
        <ele>3141.8</ele>
        <time>2022-10-20T05:08:09.000Z</time>
      </trkpt>
      <trkpt lat="27.793738" lon="86.71577">
        <ele>3141.8</ele>
        <time>2022-10-20T05:08:37.000Z</time>
      </trkpt>
      <trkpt lat="27.793763" lon="86.715776">
        <ele>3141.8</ele>
        <time>2022-10-20T05:08:38.000Z</time>
      </trkpt>
      <trkpt lat="27.793786" lon="86.715776">
        <ele>3141.8</ele>
        <time>2022-10-20T05:08:40.000Z</time>
      </trkpt>
      <trkpt lat="27.793808" lon="86.71577">
        <ele>3142</ele>
        <time>2022-10-20T05:08:42.000Z</time>
      </trkpt>
      <trkpt lat="27.793834" lon="86.71577">
        <ele>3142.2</ele>
        <time>2022-10-20T05:08:44.000Z</time>
      </trkpt>
      <trkpt lat="27.793856" lon="86.715757">
        <ele>3142.4</ele>
        <time>2022-10-20T05:08:46.000Z</time>
      </trkpt>
      <trkpt lat="27.793869" lon="86.715776">
        <ele>3143.2</ele>
        <time>2022-10-20T05:08:49.000Z</time>
      </trkpt>
      <trkpt lat="27.793888" lon="86.71577">
        <ele>3143.6</ele>
        <time>2022-10-20T05:08:53.000Z</time>
      </trkpt>
      <trkpt lat="27.793904" lon="86.715757">
        <ele>3144.6</ele>
        <time>2022-10-20T05:08:59.000Z</time>
      </trkpt>
      <trkpt lat="27.793923" lon="86.71575">
        <ele>3144.8</ele>
        <time>2022-10-20T05:09:02.000Z</time>
      </trkpt>
      <trkpt lat="27.793942" lon="86.71575">
        <ele>3145.6</ele>
        <time>2022-10-20T05:09:06.000Z</time>
      </trkpt>
      <trkpt lat="27.793965" lon="86.71575">
        <ele>3146.2</ele>
        <time>2022-10-20T05:09:10.000Z</time>
      </trkpt>
      <trkpt lat="27.793984" lon="86.715757">
        <ele>3147.4</ele>
        <time>2022-10-20T05:09:16.000Z</time>
      </trkpt>
      <trkpt lat="27.794003" lon="86.71575">
        <ele>3148.4</ele>
        <time>2022-10-20T05:09:22.000Z</time>
      </trkpt>
      <trkpt lat="27.794022" lon="86.715744">
        <ele>3149</ele>
        <time>2022-10-20T05:09:27.000Z</time>
      </trkpt>
      <trkpt lat="27.794042" lon="86.715738">
        <ele>3149.4</ele>
        <time>2022-10-20T05:09:31.000Z</time>
      </trkpt>
      <trkpt lat="27.794058" lon="86.715718">
        <ele>3150</ele>
        <time>2022-10-20T05:09:37.000Z</time>
      </trkpt>
      <trkpt lat="27.794074" lon="86.715706">
        <ele>3151.2</ele>
        <time>2022-10-20T05:09:43.000Z</time>
      </trkpt>
      <trkpt lat="27.794099" lon="86.715706">
        <ele>3153.2</ele>
        <time>2022-10-20T05:10:13.000Z</time>
      </trkpt>
      <trkpt lat="27.794118" lon="86.715699">
        <ele>3153.2</ele>
        <time>2022-10-20T05:10:14.000Z</time>
      </trkpt>
      <trkpt lat="27.794144" lon="86.715699">
        <ele>3153.4</ele>
        <time>2022-10-20T05:10:16.000Z</time>
      </trkpt>
      <trkpt lat="27.794173" lon="86.715699">
        <ele>3154</ele>
        <time>2022-10-20T05:10:18.000Z</time>
      </trkpt>
      <trkpt lat="27.794211" lon="86.71568">
        <ele>3154.2</ele>
        <time>2022-10-20T05:10:21.000Z</time>
      </trkpt>
      <trkpt lat="27.794234" lon="86.715674">
        <ele>3154.8</ele>
        <time>2022-10-20T05:10:25.000Z</time>
      </trkpt>
      <trkpt lat="27.794253" lon="86.715667">
        <ele>3155.4</ele>
        <time>2022-10-20T05:10:29.000Z</time>
      </trkpt>
      <trkpt lat="27.794272" lon="86.715654">
        <ele>3155.8</ele>
        <time>2022-10-20T05:10:31.000Z</time>
      </trkpt>
      <trkpt lat="27.794291" lon="86.715629">
        <ele>3156.6</ele>
        <time>2022-10-20T05:10:36.000Z</time>
      </trkpt>
      <trkpt lat="27.79431" lon="86.715622">
        <ele>3156.8</ele>
        <time>2022-10-20T05:10:40.000Z</time>
      </trkpt>
      <trkpt lat="27.79433" lon="86.715616">
        <ele>3157</ele>
        <time>2022-10-20T05:10:42.000Z</time>
      </trkpt>
      <trkpt lat="27.794342" lon="86.715597">
        <ele>3157.6</ele>
        <time>2022-10-20T05:10:45.000Z</time>
      </trkpt>
      <trkpt lat="27.794349" lon="86.715578">
        <ele>3158.4</ele>
        <time>2022-10-20T05:10:52.000Z</time>
      </trkpt>
      <trkpt lat="27.794358" lon="86.715558">
        <ele>3158.8</ele>
        <time>2022-10-20T05:10:58.000Z</time>
      </trkpt>
      <trkpt lat="27.794368" lon="86.715539">
        <ele>3159.8</ele>
        <time>2022-10-20T05:11:06.000Z</time>
      </trkpt>
      <trkpt lat="27.794368" lon="86.715514">
        <ele>3160.6</ele>
        <time>2022-10-20T05:11:10.000Z</time>
      </trkpt>
      <trkpt lat="27.794387" lon="86.715501">
        <ele>3163.8</ele>
        <time>2022-10-20T05:11:32.000Z</time>
      </trkpt>
      <trkpt lat="27.794397" lon="86.715482">
        <ele>3163.8</ele>
        <time>2022-10-20T05:11:33.000Z</time>
      </trkpt>
      <trkpt lat="27.79441" lon="86.715456">
        <ele>3164.4</ele>
        <time>2022-10-20T05:11:35.000Z</time>
      </trkpt>
      <trkpt lat="27.794429" lon="86.715424">
        <ele>3165</ele>
        <time>2022-10-20T05:11:37.000Z</time>
      </trkpt>
      <trkpt lat="27.794445" lon="86.715392">
        <ele>3165</ele>
        <time>2022-10-20T05:11:39.000Z</time>
      </trkpt>
      <trkpt lat="27.79447" lon="86.715373">
        <ele>3165.2</ele>
        <time>2022-10-20T05:11:41.000Z</time>
      </trkpt>
      <trkpt lat="27.79449" lon="86.715354">
        <ele>3165.8</ele>
        <time>2022-10-20T05:11:45.000Z</time>
      </trkpt>
      <trkpt lat="27.794512" lon="86.715347">
        <ele>3166</ele>
        <time>2022-10-20T05:11:48.000Z</time>
      </trkpt>
      <trkpt lat="27.794531" lon="86.715347">
        <ele>3166</ele>
        <time>2022-10-20T05:11:50.000Z</time>
      </trkpt>
      <trkpt lat="27.794557" lon="86.715341">
        <ele>3167.2</ele>
        <time>2022-10-20T05:11:52.000Z</time>
      </trkpt>
      <trkpt lat="27.794582" lon="86.715334">
        <ele>3167.4</ele>
        <time>2022-10-20T05:11:55.000Z</time>
      </trkpt>
      <trkpt lat="27.794598" lon="86.715315">
        <ele>3167.6</ele>
        <time>2022-10-20T05:11:57.000Z</time>
      </trkpt>
      <trkpt lat="27.794618" lon="86.715315">
        <ele>3168</ele>
        <time>2022-10-20T05:12:00.000Z</time>
      </trkpt>
      <trkpt lat="27.794646" lon="86.715322">
        <ele>3168.6</ele>
        <time>2022-10-20T05:12:02.000Z</time>
      </trkpt>
      <trkpt lat="27.794675" lon="86.715322">
        <ele>3168.8</ele>
        <time>2022-10-20T05:12:04.000Z</time>
      </trkpt>
      <trkpt lat="27.794694" lon="86.715334">
        <ele>3169.2</ele>
        <time>2022-10-20T05:12:08.000Z</time>
      </trkpt>
      <trkpt lat="27.794717" lon="86.715334">
        <ele>3169.2</ele>
        <time>2022-10-20T05:12:10.000Z</time>
      </trkpt>
      <trkpt lat="27.794736" lon="86.715322">
        <ele>3169.4</ele>
        <time>2022-10-20T05:12:12.000Z</time>
      </trkpt>
      <trkpt lat="27.794755" lon="86.715334">
        <ele>3169.8</ele>
        <time>2022-10-20T05:12:14.000Z</time>
      </trkpt>
      <trkpt lat="27.794784" lon="86.715322">
        <ele>3170.2</ele>
        <time>2022-10-20T05:12:16.000Z</time>
      </trkpt>
      <trkpt lat="27.794803" lon="86.715334">
        <ele>3170.4</ele>
        <time>2022-10-20T05:12:18.000Z</time>
      </trkpt>
      <trkpt lat="27.794822" lon="86.715347">
        <ele>3171</ele>
        <time>2022-10-20T05:12:23.000Z</time>
      </trkpt>
      <trkpt lat="27.794848" lon="86.715347">
        <ele>3171</ele>
        <time>2022-10-20T05:12:26.000Z</time>
      </trkpt>
      <trkpt lat="27.794867" lon="86.715347">
        <ele>3172</ele>
        <time>2022-10-20T05:12:33.000Z</time>
      </trkpt>
      <trkpt lat="27.794886" lon="86.715347">
        <ele>3172.4</ele>
        <time>2022-10-20T05:12:36.000Z</time>
      </trkpt>
      <trkpt lat="27.794909" lon="86.715347">
        <ele>3173.2</ele>
        <time>2022-10-20T05:12:41.000Z</time>
      </trkpt>
      <trkpt lat="27.794928" lon="86.715347">
        <ele>3174</ele>
        <time>2022-10-20T05:12:47.000Z</time>
      </trkpt>
      <trkpt lat="27.794947" lon="86.715347">
        <ele>3175</ele>
        <time>2022-10-20T05:12:53.000Z</time>
      </trkpt>
      <trkpt lat="27.794966" lon="86.715354">
        <ele>3175.4</ele>
        <time>2022-10-20T05:12:57.000Z</time>
      </trkpt>
      <trkpt lat="27.794979" lon="86.715373">
        <ele>3176</ele>
        <time>2022-10-20T05:13:01.000Z</time>
      </trkpt>
      <trkpt lat="27.795002" lon="86.715373">
        <ele>3176.2</ele>
        <time>2022-10-20T05:13:04.000Z</time>
      </trkpt>
      <trkpt lat="27.795024" lon="86.71536">
        <ele>3176.6</ele>
        <time>2022-10-20T05:13:07.000Z</time>
      </trkpt>
      <trkpt lat="27.795037" lon="86.715341">
        <ele>3176.6</ele>
        <time>2022-10-20T05:13:10.000Z</time>
      </trkpt>
      <trkpt lat="27.795046" lon="86.715315">
        <ele>3177</ele>
        <time>2022-10-20T05:13:14.000Z</time>
      </trkpt>
      <trkpt lat="27.795053" lon="86.715283">
        <ele>3177</ele>
        <time>2022-10-20T05:13:16.000Z</time>
      </trkpt>
      <trkpt lat="27.795027" lon="86.71527">
        <ele>3177</ele>
        <time>2022-10-20T05:13:19.000Z</time>
      </trkpt>
      <trkpt lat="27.795011" lon="86.715251">
        <ele>3177</ele>
        <time>2022-10-20T05:13:22.000Z</time>
      </trkpt>
      <trkpt lat="27.795011" lon="86.715226">
        <ele>3177.6</ele>
        <time>2022-10-20T05:13:29.000Z</time>
      </trkpt>
      <trkpt lat="27.795005" lon="86.7152">
        <ele>3178.2</ele>
        <time>2022-10-20T05:13:34.000Z</time>
      </trkpt>
      <trkpt lat="27.794986" lon="86.715194">
        <ele>3177.8</ele>
        <time>2022-10-20T05:13:41.000Z</time>
      </trkpt>
      <trkpt lat="27.795002" lon="86.715181">
        <ele>3177.8</ele>
        <time>2022-10-20T05:13:48.000Z</time>
      </trkpt>
      <trkpt lat="27.795027" lon="86.715174">
        <ele>3178</ele>
        <time>2022-10-20T05:13:53.000Z</time>
      </trkpt>
      <trkpt lat="27.795053" lon="86.715174">
        <ele>3178.2</ele>
        <time>2022-10-20T05:13:55.000Z</time>
      </trkpt>
      <trkpt lat="27.795075" lon="86.715174">
        <ele>3178.4</ele>
        <time>2022-10-20T05:13:57.000Z</time>
      </trkpt>
      <trkpt lat="27.795094" lon="86.715162">
        <ele>3178.6</ele>
        <time>2022-10-20T05:14:00.000Z</time>
      </trkpt>
      <trkpt lat="27.79511" lon="86.715149">
        <ele>3180.2</ele>
        <time>2022-10-20T05:14:09.000Z</time>
      </trkpt>
      <trkpt lat="27.795123" lon="86.715123">
        <ele>3181.6</ele>
        <time>2022-10-20T05:14:19.000Z</time>
      </trkpt>
      <trkpt lat="27.79513" lon="86.715155">
        <ele>3182.2</ele>
        <time>2022-10-20T05:14:21.000Z</time>
      </trkpt>
      <trkpt lat="27.795149" lon="86.715162">
        <ele>3182.6</ele>
        <time>2022-10-20T05:14:22.000Z</time>
      </trkpt>
      <trkpt lat="27.795155" lon="86.715142">
        <ele>3182.8</ele>
        <time>2022-10-20T05:14:26.000Z</time>
      </trkpt>
      <trkpt lat="27.795136" lon="86.715085">
        <ele>3183.2</ele>
        <time>2022-10-20T05:14:30.000Z</time>
      </trkpt>
      <trkpt lat="27.795146" lon="86.715066">
        <ele>3183.4</ele>
        <time>2022-10-20T05:14:33.000Z</time>
      </trkpt>
      <trkpt lat="27.795152" lon="86.71504">
        <ele>3183.4</ele>
        <time>2022-10-20T05:14:35.000Z</time>
      </trkpt>
      <trkpt lat="27.795162" lon="86.715021">
        <ele>3184.2</ele>
        <time>2022-10-20T05:14:38.000Z</time>
      </trkpt>
      <trkpt lat="27.795162" lon="86.714989">
        <ele>3184.8</ele>
        <time>2022-10-20T05:14:42.000Z</time>
      </trkpt>
      <trkpt lat="27.795168" lon="86.714963">
        <ele>3185</ele>
        <time>2022-10-20T05:14:47.000Z</time>
      </trkpt>
      <trkpt lat="27.795174" lon="86.714944">
        <ele>3185.4</ele>
        <time>2022-10-20T05:14:51.000Z</time>
      </trkpt>
      <trkpt lat="27.795184" lon="86.714918">
        <ele>3185.6</ele>
        <time>2022-10-20T05:14:53.000Z</time>
      </trkpt>
      <trkpt lat="27.795213" lon="86.714906">
        <ele>3185.8</ele>
        <time>2022-10-20T05:14:55.000Z</time>
      </trkpt>
      <trkpt lat="27.795232" lon="86.714906">
        <ele>3186.2</ele>
        <time>2022-10-20T05:14:58.000Z</time>
      </trkpt>
      <trkpt lat="27.795258" lon="86.714874">
        <ele>3187.4</ele>
        <time>2022-10-20T05:15:07.000Z</time>
      </trkpt>
      <trkpt lat="27.79527" lon="86.714854">
        <ele>3188</ele>
        <time>2022-10-20T05:15:11.000Z</time>
      </trkpt>
      <trkpt lat="27.795267" lon="86.714829">
        <ele>3188.8</ele>
        <time>2022-10-20T05:15:14.000Z</time>
      </trkpt>
      <trkpt lat="27.79527" lon="86.714803">
        <ele>3189.2</ele>
        <time>2022-10-20T05:15:18.000Z</time>
      </trkpt>
      <trkpt lat="27.795264" lon="86.714778">
        <ele>3190</ele>
        <time>2022-10-20T05:15:22.000Z</time>
      </trkpt>
      <trkpt lat="27.795261" lon="86.714752">
        <ele>3190.4</ele>
        <time>2022-10-20T05:15:24.000Z</time>
      </trkpt>
      <trkpt lat="27.795283" lon="86.714739">
        <ele>3190.6</ele>
        <time>2022-10-20T05:15:28.000Z</time>
      </trkpt>
      <trkpt lat="27.795299" lon="86.71472">
        <ele>3191.2</ele>
        <time>2022-10-20T05:15:32.000Z</time>
      </trkpt>
      <trkpt lat="27.795325" lon="86.71472">
        <ele>3191.8</ele>
        <time>2022-10-20T05:15:36.000Z</time>
      </trkpt>
      <trkpt lat="27.795344" lon="86.714714">
        <ele>3192</ele>
        <time>2022-10-20T05:15:41.000Z</time>
      </trkpt>
      <trkpt lat="27.795366" lon="86.714707">
        <ele>3192.2</ele>
        <time>2022-10-20T05:15:45.000Z</time>
      </trkpt>
      <trkpt lat="27.795386" lon="86.714701">
        <ele>3192.8</ele>
        <time>2022-10-20T05:15:47.000Z</time>
      </trkpt>
      <trkpt lat="27.795408" lon="86.714688">
        <ele>3193.8</ele>
        <time>2022-10-20T05:15:50.000Z</time>
      </trkpt>
      <trkpt lat="27.795443" lon="86.714669">
        <ele>3194.2</ele>
        <time>2022-10-20T05:15:56.000Z</time>
      </trkpt>
      <trkpt lat="27.79545" lon="86.714643">
        <ele>3194.6</ele>
        <time>2022-10-20T05:16:01.000Z</time>
      </trkpt>
      <trkpt lat="27.795475" lon="86.714605">
        <ele>3195.6</ele>
        <time>2022-10-20T05:16:12.000Z</time>
      </trkpt>
      <trkpt lat="27.795485" lon="86.714579">
        <ele>3196.6</ele>
        <time>2022-10-20T05:16:18.000Z</time>
      </trkpt>
      <trkpt lat="27.795482" lon="86.714554">
        <ele>3197.4</ele>
        <time>2022-10-20T05:16:23.000Z</time>
      </trkpt>
      <trkpt lat="27.795491" lon="86.714528">
        <ele>3197.8</ele>
        <time>2022-10-20T05:16:27.000Z</time>
      </trkpt>
      <trkpt lat="27.795504" lon="86.714509">
        <ele>3198.4</ele>
        <time>2022-10-20T05:16:37.000Z</time>
      </trkpt>
      <trkpt lat="27.79551" lon="86.71449">
        <ele>3200.2</ele>
        <time>2022-10-20T05:16:46.000Z</time>
      </trkpt>
      <trkpt lat="27.795526" lon="86.714477">
        <ele>3201.8</ele>
        <time>2022-10-20T05:16:55.000Z</time>
      </trkpt>
      <trkpt lat="27.795539" lon="86.714458">
        <ele>3202.6</ele>
        <time>2022-10-20T05:16:59.000Z</time>
      </trkpt>
      <trkpt lat="27.795549" lon="86.714438">
        <ele>3203</ele>
        <time>2022-10-20T05:17:02.000Z</time>
      </trkpt>
      <trkpt lat="27.795542" lon="86.714419">
        <ele>3203.4</ele>
        <time>2022-10-20T05:17:06.000Z</time>
      </trkpt>
      <trkpt lat="27.795539" lon="86.714394">
        <ele>3203.6</ele>
        <time>2022-10-20T05:17:10.000Z</time>
      </trkpt>
      <trkpt lat="27.795542" lon="86.714368">
        <ele>3204.4</ele>
        <time>2022-10-20T05:17:16.000Z</time>
      </trkpt>
      <trkpt lat="27.795549" lon="86.714342">
        <ele>3205</ele>
        <time>2022-10-20T05:17:22.000Z</time>
      </trkpt>
      <trkpt lat="27.795549" lon="86.714317">
        <ele>3206</ele>
        <time>2022-10-20T05:17:27.000Z</time>
      </trkpt>
      <trkpt lat="27.795558" lon="86.714298">
        <ele>3206.2</ele>
        <time>2022-10-20T05:17:33.000Z</time>
      </trkpt>
      <trkpt lat="27.795562" lon="86.714272">
        <ele>3206.6</ele>
        <time>2022-10-20T05:17:39.000Z</time>
      </trkpt>
      <trkpt lat="27.795558" lon="86.714246">
        <ele>3207.2</ele>
        <time>2022-10-20T05:17:44.000Z</time>
      </trkpt>
      <trkpt lat="27.795562" lon="86.714221">
        <ele>3208.2</ele>
        <time>2022-10-20T05:17:51.000Z</time>
      </trkpt>
      <trkpt lat="27.795555" lon="86.714195">
        <ele>3208.4</ele>
        <time>2022-10-20T05:17:55.000Z</time>
      </trkpt>
      <trkpt lat="27.795574" lon="86.714189">
        <ele>3209.6</ele>
        <time>2022-10-20T05:18:01.000Z</time>
      </trkpt>
      <trkpt lat="27.795594" lon="86.714182">
        <ele>3210.4</ele>
        <time>2022-10-20T05:18:07.000Z</time>
      </trkpt>
      <trkpt lat="27.7956" lon="86.714163">
        <ele>3211.4</ele>
        <time>2022-10-20T05:18:13.000Z</time>
      </trkpt>
      <trkpt lat="27.795613" lon="86.714144">
        <ele>3212.8</ele>
        <time>2022-10-20T05:18:18.000Z</time>
      </trkpt>
      <trkpt lat="27.7956" lon="86.714125">
        <ele>3213.2</ele>
        <time>2022-10-20T05:18:23.000Z</time>
      </trkpt>
      <trkpt lat="27.795594" lon="86.714106">
        <ele>3214</ele>
        <time>2022-10-20T05:18:29.000Z</time>
      </trkpt>
      <trkpt lat="27.79559" lon="86.71408">
        <ele>3214</ele>
        <time>2022-10-20T05:18:33.000Z</time>
      </trkpt>
      <trkpt lat="27.795594" lon="86.714048">
        <ele>3214.2</ele>
        <time>2022-10-20T05:18:37.000Z</time>
      </trkpt>
      <trkpt lat="27.7956" lon="86.714029">
        <ele>3215.2</ele>
        <time>2022-10-20T05:18:42.000Z</time>
      </trkpt>
      <trkpt lat="27.795594" lon="86.71401">
        <ele>3216.2</ele>
        <time>2022-10-20T05:18:45.000Z</time>
      </trkpt>
      <trkpt lat="27.795578" lon="86.71399">
        <ele>3217.2</ele>
        <time>2022-10-20T05:18:50.000Z</time>
      </trkpt>
      <trkpt lat="27.795562" lon="86.713971">
        <ele>3217.4</ele>
        <time>2022-10-20T05:18:55.000Z</time>
      </trkpt>
      <trkpt lat="27.795562" lon="86.713946">
        <ele>3218.4</ele>
        <time>2022-10-20T05:19:02.000Z</time>
      </trkpt>
      <trkpt lat="27.795568" lon="86.713926">
        <ele>3218.6</ele>
        <time>2022-10-20T05:19:07.000Z</time>
      </trkpt>
      <trkpt lat="27.795574" lon="86.713907">
        <ele>3219.6</ele>
        <time>2022-10-20T05:19:10.000Z</time>
      </trkpt>
      <trkpt lat="27.795568" lon="86.713882">
        <ele>3220</ele>
        <time>2022-10-20T05:19:13.000Z</time>
      </trkpt>
      <trkpt lat="27.795574" lon="86.713862">
        <ele>3220.2</ele>
        <time>2022-10-20T05:19:16.000Z</time>
      </trkpt>
      <trkpt lat="27.79559" lon="86.71385">
        <ele>3221</ele>
        <time>2022-10-20T05:19:20.000Z</time>
      </trkpt>
      <trkpt lat="27.795597" lon="86.713869">
        <ele>3221.4</ele>
        <time>2022-10-20T05:19:29.000Z</time>
      </trkpt>
      <trkpt lat="27.7956" lon="86.713837">
        <ele>3223.2</ele>
        <time>2022-10-20T05:19:46.000Z</time>
      </trkpt>
      <trkpt lat="27.795613" lon="86.713811">
        <ele>3223.4</ele>
        <time>2022-10-20T05:19:48.000Z</time>
      </trkpt>
      <trkpt lat="27.795638" lon="86.713792">
        <ele>3224</ele>
        <time>2022-10-20T05:19:50.000Z</time>
      </trkpt>
      <trkpt lat="27.795645" lon="86.713773">
        <ele>3224.2</ele>
        <time>2022-10-20T05:19:51.000Z</time>
      </trkpt>
      <trkpt lat="27.795648" lon="86.713734">
        <ele>3224.8</ele>
        <time>2022-10-20T05:19:53.000Z</time>
      </trkpt>
      <trkpt lat="27.795645" lon="86.713702">
        <ele>3225</ele>
        <time>2022-10-20T05:19:55.000Z</time>
      </trkpt>
      <trkpt lat="27.795642" lon="86.713677">
        <ele>3225.2</ele>
        <time>2022-10-20T05:19:57.000Z</time>
      </trkpt>
      <trkpt lat="27.795658" lon="86.713651">
        <ele>3226</ele>
        <time>2022-10-20T05:20:00.000Z</time>
      </trkpt>
      <trkpt lat="27.795677" lon="86.713638">
        <ele>3226.2</ele>
        <time>2022-10-20T05:20:05.000Z</time>
      </trkpt>
      <trkpt lat="27.795693" lon="86.713626">
        <ele>3227.2</ele>
        <time>2022-10-20T05:20:09.000Z</time>
      </trkpt>
      <trkpt lat="27.795709" lon="86.713613">
        <ele>3227.4</ele>
        <time>2022-10-20T05:20:12.000Z</time>
      </trkpt>
      <trkpt lat="27.795728" lon="86.713606">
        <ele>3227.4</ele>
        <time>2022-10-20T05:20:15.000Z</time>
      </trkpt>
      <trkpt lat="27.795741" lon="86.713587">
        <ele>3227.8</ele>
        <time>2022-10-20T05:20:20.000Z</time>
      </trkpt>
      <trkpt lat="27.79576" lon="86.713574">
        <ele>3228.4</ele>
        <time>2022-10-20T05:20:23.000Z</time>
      </trkpt>
      <trkpt lat="27.795779" lon="86.713562">
        <ele>3229</ele>
        <time>2022-10-20T05:20:27.000Z</time>
      </trkpt>
      <trkpt lat="27.795798" lon="86.713562">
        <ele>3229.6</ele>
        <time>2022-10-20T05:20:32.000Z</time>
      </trkpt>
      <trkpt lat="27.795818" lon="86.713549">
        <ele>3230</ele>
        <time>2022-10-20T05:20:34.000Z</time>
      </trkpt>
      <trkpt lat="27.795821" lon="86.713523">
        <ele>3230.6</ele>
        <time>2022-10-20T05:20:38.000Z</time>
      </trkpt>
      <trkpt lat="27.795837" lon="86.71351">
        <ele>3231</ele>
        <time>2022-10-20T05:20:41.000Z</time>
      </trkpt>
      <trkpt lat="27.79585" lon="86.713491">
        <ele>3231</ele>
        <time>2022-10-20T05:20:43.000Z</time>
      </trkpt>
      <trkpt lat="27.795869" lon="86.713478">
        <ele>3231.8</ele>
        <time>2022-10-20T05:20:50.000Z</time>
      </trkpt>
      <trkpt lat="27.795891" lon="86.713466">
        <ele>3232</ele>
        <time>2022-10-20T05:20:52.000Z</time>
      </trkpt>
      <trkpt lat="27.795907" lon="86.713453">
        <ele>3232.6</ele>
        <time>2022-10-20T05:20:56.000Z</time>
      </trkpt>
      <trkpt lat="27.795917" lon="86.713434">
        <ele>3233.2</ele>
        <time>2022-10-20T05:21:03.000Z</time>
      </trkpt>
      <trkpt lat="27.795936" lon="86.713427">
        <ele>3233.6</ele>
        <time>2022-10-20T05:21:06.000Z</time>
      </trkpt>
      <trkpt lat="27.795955" lon="86.713427">
        <ele>3234.4</ele>
        <time>2022-10-20T05:21:11.000Z</time>
      </trkpt>
      <trkpt lat="27.795955" lon="86.713402">
        <ele>3235</ele>
        <time>2022-10-20T05:21:16.000Z</time>
      </trkpt>
      <trkpt lat="27.795949" lon="86.713376">
        <ele>3236.2</ele>
        <time>2022-10-20T05:21:32.000Z</time>
      </trkpt>
      <trkpt lat="27.795955" lon="86.713357">
        <ele>3236.6</ele>
        <time>2022-10-20T05:21:35.000Z</time>
      </trkpt>
      <trkpt lat="27.795952" lon="86.713331">
        <ele>3237</ele>
        <time>2022-10-20T05:21:37.000Z</time>
      </trkpt>
      <trkpt lat="27.795962" lon="86.713312">
        <ele>3237.2</ele>
        <time>2022-10-20T05:21:41.000Z</time>
      </trkpt>
      <trkpt lat="27.795978" lon="86.713293">
        <ele>3237.6</ele>
        <time>2022-10-20T05:21:45.000Z</time>
      </trkpt>
      <trkpt lat="27.795984" lon="86.713267">
        <ele>3238.2</ele>
        <time>2022-10-20T05:21:51.000Z</time>
      </trkpt>
      <trkpt lat="27.79599" lon="86.713248">
        <ele>3238.8</ele>
        <time>2022-10-20T05:21:54.000Z</time>
      </trkpt>
      <trkpt lat="27.796006" lon="86.713235">
        <ele>3239</ele>
        <time>2022-10-20T05:21:58.000Z</time>
      </trkpt>
      <trkpt lat="27.795997" lon="86.713216">
        <ele>3239</ele>
        <time>2022-10-20T05:22:00.000Z</time>
      </trkpt>
      <trkpt lat="27.796003" lon="86.71319">
        <ele>3239.4</ele>
        <time>2022-10-20T05:22:05.000Z</time>
      </trkpt>
      <trkpt lat="27.796013" lon="86.713171">
        <ele>3240</ele>
        <time>2022-10-20T05:22:08.000Z</time>
      </trkpt>
      <trkpt lat="27.796029" lon="86.713158">
        <ele>3240</ele>
        <time>2022-10-20T05:22:11.000Z</time>
      </trkpt>
      <trkpt lat="27.796035" lon="86.713139">
        <ele>3240.4</ele>
        <time>2022-10-20T05:22:14.000Z</time>
      </trkpt>
      <trkpt lat="27.796051" lon="86.713126">
        <ele>3240.6</ele>
        <time>2022-10-20T05:22:19.000Z</time>
      </trkpt>
      <trkpt lat="27.796058" lon="86.713107">
        <ele>3241.6</ele>
        <time>2022-10-20T05:22:23.000Z</time>
      </trkpt>
      <trkpt lat="27.796067" lon="86.713088">
        <ele>3241.8</ele>
        <time>2022-10-20T05:22:28.000Z</time>
      </trkpt>
      <trkpt lat="27.796083" lon="86.713075">
        <ele>3242.6</ele>
        <time>2022-10-20T05:22:36.000Z</time>
      </trkpt>
      <trkpt lat="27.796096" lon="86.713056">
        <ele>3243.6</ele>
        <time>2022-10-20T05:22:43.000Z</time>
      </trkpt>
      <trkpt lat="27.796115" lon="86.713037">
        <ele>3244</ele>
        <time>2022-10-20T05:22:47.000Z</time>
      </trkpt>
      <trkpt lat="27.796115" lon="86.713011">
        <ele>3244.6</ele>
        <time>2022-10-20T05:22:50.000Z</time>
      </trkpt>
      <trkpt lat="27.796138" lon="86.712998">
        <ele>3245.8</ele>
        <time>2022-10-20T05:22:56.000Z</time>
      </trkpt>
      <trkpt lat="27.796144" lon="86.712979">
        <ele>3246.2</ele>
        <time>2022-10-20T05:23:01.000Z</time>
      </trkpt>
      <trkpt lat="27.796163" lon="86.71296">
        <ele>3249</ele>
        <time>2022-10-20T05:23:21.000Z</time>
      </trkpt>
      <trkpt lat="27.796186" lon="86.712947">
        <ele>3249.4</ele>
        <time>2022-10-20T05:23:23.000Z</time>
      </trkpt>
      <trkpt lat="27.796198" lon="86.712928">
        <ele>3249.6</ele>
        <time>2022-10-20T05:23:25.000Z</time>
      </trkpt>
      <trkpt lat="27.796218" lon="86.712909">
        <ele>3250</ele>
        <time>2022-10-20T05:23:28.000Z</time>
      </trkpt>
      <trkpt lat="27.796224" lon="86.71289">
        <ele>3250</ele>
        <time>2022-10-20T05:23:30.000Z</time>
      </trkpt>
      <trkpt lat="27.796243" lon="86.712877">
        <ele>3250.8</ele>
        <time>2022-10-20T05:23:34.000Z</time>
      </trkpt>
      <trkpt lat="27.796262" lon="86.712858">
        <ele>3251.2</ele>
        <time>2022-10-20T05:23:37.000Z</time>
      </trkpt>
      <trkpt lat="27.796282" lon="86.712858">
        <ele>3251.2</ele>
        <time>2022-10-20T05:23:39.000Z</time>
      </trkpt>
      <trkpt lat="27.796304" lon="86.712838">
        <ele>3252.2</ele>
        <time>2022-10-20T05:23:43.000Z</time>
      </trkpt>
      <trkpt lat="27.796333" lon="86.712819">
        <ele>3252.4</ele>
        <time>2022-10-20T05:23:45.000Z</time>
      </trkpt>
      <trkpt lat="27.796355" lon="86.712806">
        <ele>3252.6</ele>
        <time>2022-10-20T05:23:48.000Z</time>
      </trkpt>
      <trkpt lat="27.796371" lon="86.712774">
        <ele>3253</ele>
        <time>2022-10-20T05:23:54.000Z</time>
      </trkpt>
      <trkpt lat="27.796378" lon="86.712755">
        <ele>3253</ele>
        <time>2022-10-20T05:23:56.000Z</time>
      </trkpt>
      <trkpt lat="27.796397" lon="86.712749">
        <ele>3253.4</ele>
        <time>2022-10-20T05:23:58.000Z</time>
      </trkpt>
      <trkpt lat="27.796416" lon="86.712736">
        <ele>3254.4</ele>
        <time>2022-10-20T05:24:06.000Z</time>
      </trkpt>
      <trkpt lat="27.796435" lon="86.71273">
        <ele>3255.2</ele>
        <time>2022-10-20T05:24:09.000Z</time>
      </trkpt>
      <trkpt lat="27.796438" lon="86.712698">
        <ele>3256</ele>
        <time>2022-10-20T05:24:17.000Z</time>
      </trkpt>
      <trkpt lat="27.796445" lon="86.712672">
        <ele>3257</ele>
        <time>2022-10-20T05:24:26.000Z</time>
      </trkpt>
      <trkpt lat="27.796454" lon="86.712653">
        <ele>3257.8</ele>
        <time>2022-10-20T05:24:33.000Z</time>
      </trkpt>
      <trkpt lat="27.796474" lon="86.712653">
        <ele>3258</ele>
        <time>2022-10-20T05:24:38.000Z</time>
      </trkpt>
      <trkpt lat="27.796486" lon="86.712634">
        <ele>3259.2</ele>
        <time>2022-10-20T05:24:43.000Z</time>
      </trkpt>
      <trkpt lat="27.796496" lon="86.712614">
        <ele>3259.6</ele>
        <time>2022-10-20T05:24:46.000Z</time>
      </trkpt>
      <trkpt lat="27.796509" lon="86.712595">
        <ele>3260.6</ele>
        <time>2022-10-20T05:24:50.000Z</time>
      </trkpt>
      <trkpt lat="27.796512" lon="86.71257">
        <ele>3260.4</ele>
        <time>2022-10-20T05:24:53.000Z</time>
      </trkpt>
      <trkpt lat="27.796522" lon="86.71255">
        <ele>3261</ele>
        <time>2022-10-20T05:24:58.000Z</time>
      </trkpt>
      <trkpt lat="27.796538" lon="86.712531">
        <ele>3261.4</ele>
        <time>2022-10-20T05:25:03.000Z</time>
      </trkpt>
      <trkpt lat="27.796544" lon="86.712512">
        <ele>3262.2</ele>
        <time>2022-10-20T05:25:06.000Z</time>
      </trkpt>
      <trkpt lat="27.796554" lon="86.712493">
        <ele>3262.4</ele>
        <time>2022-10-20T05:25:10.000Z</time>
      </trkpt>
      <trkpt lat="27.796573" lon="86.712474">
        <ele>3263</ele>
        <time>2022-10-20T05:25:13.000Z</time>
      </trkpt>
      <trkpt lat="27.796582" lon="86.712454">
        <ele>3263.6</ele>
        <time>2022-10-20T05:25:16.000Z</time>
      </trkpt>
      <trkpt lat="27.796592" lon="86.712435">
        <ele>3263.6</ele>
        <time>2022-10-20T05:25:20.000Z</time>
      </trkpt>
      <trkpt lat="27.796618" lon="86.712442">
        <ele>3263.8</ele>
        <time>2022-10-20T05:25:22.000Z</time>
      </trkpt>
      <trkpt lat="27.796643" lon="86.712422">
        <ele>3264.2</ele>
        <time>2022-10-20T05:25:25.000Z</time>
      </trkpt>
      <trkpt lat="27.79665" lon="86.712403">
        <ele>3265.4</ele>
        <time>2022-10-20T05:25:31.000Z</time>
      </trkpt>
      <trkpt lat="27.796656" lon="86.712384">
        <ele>3265.8</ele>
        <time>2022-10-20T05:25:33.000Z</time>
      </trkpt>
      <trkpt lat="27.796666" lon="86.712358">
        <ele>3266.8</ele>
        <time>2022-10-20T05:25:37.000Z</time>
      </trkpt>
      <trkpt lat="27.796678" lon="86.712339">
        <ele>3266.2</ele>
        <time>2022-10-20T05:25:43.000Z</time>
      </trkpt>
      <trkpt lat="27.796685" lon="86.71232">
        <ele>3267.6</ele>
        <time>2022-10-20T05:25:48.000Z</time>
      </trkpt>
      <trkpt lat="27.796685" lon="86.712294">
        <ele>3267.4</ele>
        <time>2022-10-20T05:25:51.000Z</time>
      </trkpt>
      <trkpt lat="27.796694" lon="86.712275">
        <ele>3267.6</ele>
        <time>2022-10-20T05:25:55.000Z</time>
      </trkpt>
      <trkpt lat="27.796694" lon="86.71225">
        <ele>3268.6</ele>
        <time>2022-10-20T05:26:00.000Z</time>
      </trkpt>
      <trkpt lat="27.79671" lon="86.712237">
        <ele>3268.8</ele>
        <time>2022-10-20T05:26:03.000Z</time>
      </trkpt>
      <trkpt lat="27.796749" lon="86.712224">
        <ele>3270</ele>
        <time>2022-10-20T05:26:08.000Z</time>
      </trkpt>
      <trkpt lat="27.796784" lon="86.712218">
        <ele>3270.2</ele>
        <time>2022-10-20T05:26:09.000Z</time>
      </trkpt>
      <trkpt lat="27.796816" lon="86.712211">
        <ele>3270.2</ele>
        <time>2022-10-20T05:26:11.000Z</time>
      </trkpt>
      <trkpt lat="27.796832" lon="86.712224">
        <ele>3271.2</ele>
        <time>2022-10-20T05:26:16.000Z</time>
      </trkpt>
      <trkpt lat="27.796851" lon="86.712224">
        <ele>3271.2</ele>
        <time>2022-10-20T05:26:20.000Z</time>
      </trkpt>
      <trkpt lat="27.79687" lon="86.712237">
        <ele>3271.4</ele>
        <time>2022-10-20T05:26:22.000Z</time>
      </trkpt>
      <trkpt lat="27.79689" lon="86.712237">
        <ele>3272.2</ele>
        <time>2022-10-20T05:26:27.000Z</time>
      </trkpt>
      <trkpt lat="27.796909" lon="86.712237">
        <ele>3272.8</ele>
        <time>2022-10-20T05:26:30.000Z</time>
      </trkpt>
      <trkpt lat="27.796922" lon="86.712211">
        <ele>3273.4</ele>
        <time>2022-10-20T05:26:33.000Z</time>
      </trkpt>
      <trkpt lat="27.796941" lon="86.712205">
        <ele>3274</ele>
        <time>2022-10-20T05:26:36.000Z</time>
      </trkpt>
      <trkpt lat="27.79696" lon="86.712198">
        <ele>3274.2</ele>
        <time>2022-10-20T05:26:39.000Z</time>
      </trkpt>
      <trkpt lat="27.796973" lon="86.712179">
        <ele>3275.2</ele>
        <time>2022-10-20T05:26:44.000Z</time>
      </trkpt>
      <trkpt lat="27.797008" lon="86.712179">
        <ele>3275.8</ele>
        <time>2022-10-20T05:26:49.000Z</time>
      </trkpt>
      <trkpt lat="27.797027" lon="86.712179">
        <ele>3276</ele>
        <time>2022-10-20T05:26:51.000Z</time>
      </trkpt>
      <trkpt lat="27.79705" lon="86.712173">
        <ele>3276</ele>
        <time>2022-10-20T05:26:55.000Z</time>
      </trkpt>
      <trkpt lat="27.797062" lon="86.712154">
        <ele>3276.8</ele>
        <time>2022-10-20T05:27:06.000Z</time>
      </trkpt>
      <trkpt lat="27.797069" lon="86.712134">
        <ele>3277.2</ele>
        <time>2022-10-20T05:27:10.000Z</time>
      </trkpt>
      <trkpt lat="27.797088" lon="86.712122">
        <ele>3278</ele>
        <time>2022-10-20T05:27:15.000Z</time>
      </trkpt>
      <trkpt lat="27.797098" lon="86.712102">
        <ele>3279.2</ele>
        <time>2022-10-20T05:27:21.000Z</time>
      </trkpt>
      <trkpt lat="27.797107" lon="86.712083">
        <ele>3279.6</ele>
        <time>2022-10-20T05:27:27.000Z</time>
      </trkpt>
      <trkpt lat="27.797117" lon="86.712064">
        <ele>3279.8</ele>
        <time>2022-10-20T05:27:29.000Z</time>
      </trkpt>
      <trkpt lat="27.797136" lon="86.712051">
        <ele>3280.4</ele>
        <time>2022-10-20T05:27:32.000Z</time>
      </trkpt>
      <trkpt lat="27.797155" lon="86.712045">
        <ele>3280.8</ele>
        <time>2022-10-20T05:27:36.000Z</time>
      </trkpt>
      <trkpt lat="27.797165" lon="86.712026">
        <ele>3281.2</ele>
        <time>2022-10-20T05:27:38.000Z</time>
      </trkpt>
      <trkpt lat="27.797171" lon="86.712006">
        <ele>3281.4</ele>
        <time>2022-10-20T05:27:42.000Z</time>
      </trkpt>
      <trkpt lat="27.797184" lon="86.711987">
        <ele>3282</ele>
        <time>2022-10-20T05:27:46.000Z</time>
      </trkpt>
      <trkpt lat="27.7972" lon="86.711968">
        <ele>3282.4</ele>
        <time>2022-10-20T05:27:50.000Z</time>
      </trkpt>
      <trkpt lat="27.797226" lon="86.711955">
        <ele>3283.8</ele>
        <time>2022-10-20T05:27:56.000Z</time>
      </trkpt>
      <trkpt lat="27.797229" lon="86.71193">
        <ele>3283.8</ele>
        <time>2022-10-20T05:28:01.000Z</time>
      </trkpt>
      <trkpt lat="27.797235" lon="86.711904">
        <ele>3284.2</ele>
        <time>2022-10-20T05:28:06.000Z</time>
      </trkpt>
      <trkpt lat="27.797238" lon="86.711878">
        <ele>3285.2</ele>
        <time>2022-10-20T05:28:11.000Z</time>
      </trkpt>
      <trkpt lat="27.797235" lon="86.711853">
        <ele>3285.6</ele>
        <time>2022-10-20T05:28:14.000Z</time>
      </trkpt>
      <trkpt lat="27.797238" lon="86.711827">
        <ele>3285.4</ele>
        <time>2022-10-20T05:28:19.000Z</time>
      </trkpt>
      <trkpt lat="27.797238" lon="86.711802">
        <ele>3286.6</ele>
        <time>2022-10-20T05:28:31.000Z</time>
      </trkpt>
      <trkpt lat="27.79727" lon="86.711821">
        <ele>3287.4</ele>
        <time>2022-10-20T05:28:44.000Z</time>
      </trkpt>
      <trkpt lat="27.797277" lon="86.71184">
        <ele>3287</ele>
        <time>2022-10-20T05:28:58.000Z</time>
      </trkpt>
      <trkpt lat="27.797286" lon="86.711821">
        <ele>3289.8</ele>
        <time>2022-10-20T05:29:21.000Z</time>
      </trkpt>
      <trkpt lat="27.797286" lon="86.711782">
        <ele>3289.6</ele>
        <time>2022-10-20T05:29:24.000Z</time>
      </trkpt>
      <trkpt lat="27.797286" lon="86.711744">
        <ele>3289.8</ele>
        <time>2022-10-20T05:29:27.000Z</time>
      </trkpt>
      <trkpt lat="27.797286" lon="86.711718">
        <ele>3290.2</ele>
        <time>2022-10-20T05:29:29.000Z</time>
      </trkpt>
      <trkpt lat="27.797293" lon="86.711699">
        <ele>3290.4</ele>
        <time>2022-10-20T05:29:31.000Z</time>
      </trkpt>
      <trkpt lat="27.797309" lon="86.71168">
        <ele>3292</ele>
        <time>2022-10-20T05:29:37.000Z</time>
      </trkpt>
      <trkpt lat="27.797318" lon="86.711661">
        <ele>3292.2</ele>
        <time>2022-10-20T05:29:39.000Z</time>
      </trkpt>
      <trkpt lat="27.797331" lon="86.711642">
        <ele>3293.2</ele>
        <time>2022-10-20T05:29:44.000Z</time>
      </trkpt>
      <trkpt lat="27.797334" lon="86.711616">
        <ele>3294</ele>
        <time>2022-10-20T05:29:49.000Z</time>
      </trkpt>
      <trkpt lat="27.79735" lon="86.711603">
        <ele>3294.2</ele>
        <time>2022-10-20T05:29:51.000Z</time>
      </trkpt>
      <trkpt lat="27.79737" lon="86.711603">
        <ele>3294</ele>
        <time>2022-10-20T05:29:53.000Z</time>
      </trkpt>
      <trkpt lat="27.797395" lon="86.711578">
        <ele>3295.2</ele>
        <time>2022-10-20T05:29:56.000Z</time>
      </trkpt>
      <trkpt lat="27.797414" lon="86.711558">
        <ele>3294.8</ele>
        <time>2022-10-20T05:29:58.000Z</time>
      </trkpt>
      <trkpt lat="27.79743" lon="86.711546">
        <ele>3294.8</ele>
        <time>2022-10-20T05:30:00.000Z</time>
      </trkpt>
      <trkpt lat="27.79745" lon="86.711546">
        <ele>3295.4</ele>
        <time>2022-10-20T05:30:01.000Z</time>
      </trkpt>
      <trkpt lat="27.797485" lon="86.711546">
        <ele>3295.8</ele>
        <time>2022-10-20T05:30:03.000Z</time>
      </trkpt>
      <trkpt lat="27.797504" lon="86.711539">
        <ele>3295.6</ele>
        <time>2022-10-20T05:30:07.000Z</time>
      </trkpt>
      <trkpt lat="27.79753" lon="86.711539">
        <ele>3297.2</ele>
        <time>2022-10-20T05:30:16.000Z</time>
      </trkpt>
      <trkpt lat="27.797549" lon="86.711533">
        <ele>3297.2</ele>
        <time>2022-10-20T05:30:18.000Z</time>
      </trkpt>
      <trkpt lat="27.797549" lon="86.711507">
        <ele>3296.8</ele>
        <time>2022-10-20T05:30:20.000Z</time>
      </trkpt>
      <trkpt lat="27.797558" lon="86.711488">
        <ele>3296.8</ele>
        <time>2022-10-20T05:30:23.000Z</time>
      </trkpt>
      <trkpt lat="27.797584" lon="86.711488">
        <ele>3297.2</ele>
        <time>2022-10-20T05:30:26.000Z</time>
      </trkpt>
      <trkpt lat="27.797606" lon="86.711501">
        <ele>3297.4</ele>
        <time>2022-10-20T05:30:28.000Z</time>
      </trkpt>
      <trkpt lat="27.797626" lon="86.711501">
        <ele>3297.6</ele>
        <time>2022-10-20T05:30:29.000Z</time>
      </trkpt>
      <trkpt lat="27.797651" lon="86.711507">
        <ele>3298.4</ele>
        <time>2022-10-20T05:30:34.000Z</time>
      </trkpt>
      <trkpt lat="27.797683" lon="86.711501">
        <ele>3299</ele>
        <time>2022-10-20T05:30:39.000Z</time>
      </trkpt>
      <trkpt lat="27.797702" lon="86.71152">
        <ele>3299.6</ele>
        <time>2022-10-20T05:30:42.000Z</time>
      </trkpt>
      <trkpt lat="27.797728" lon="86.71152">
        <ele>3299.8</ele>
        <time>2022-10-20T05:30:45.000Z</time>
      </trkpt>
      <trkpt lat="27.79775" lon="86.711501">
        <ele>3300</ele>
        <time>2022-10-20T05:30:47.000Z</time>
      </trkpt>
      <trkpt lat="27.797773" lon="86.711507">
        <ele>3300.2</ele>
        <time>2022-10-20T05:30:50.000Z</time>
      </trkpt>
      <trkpt lat="27.797792" lon="86.711526">
        <ele>3300</ele>
        <time>2022-10-20T05:30:52.000Z</time>
      </trkpt>
      <trkpt lat="27.797814" lon="86.711539">
        <ele>3300.2</ele>
        <time>2022-10-20T05:30:56.000Z</time>
      </trkpt>
      <trkpt lat="27.797834" lon="86.711546">
        <ele>3300.2</ele>
        <time>2022-10-20T05:30:59.000Z</time>
      </trkpt>
      <trkpt lat="27.797862" lon="86.711539">
        <ele>3300.6</ele>
        <time>2022-10-20T05:31:01.000Z</time>
      </trkpt>
      <trkpt lat="27.797882" lon="86.711546">
        <ele>3300.8</ele>
        <time>2022-10-20T05:31:04.000Z</time>
      </trkpt>
      <trkpt lat="27.797875" lon="86.711571">
        <ele>3300.6</ele>
        <time>2022-10-20T05:31:09.000Z</time>
      </trkpt>
      <trkpt lat="27.797882" lon="86.711597">
        <ele>3301.4</ele>
        <time>2022-10-20T05:31:11.000Z</time>
      </trkpt>
      <trkpt lat="27.79791" lon="86.71161">
        <ele>3301.6</ele>
        <time>2022-10-20T05:31:13.000Z</time>
      </trkpt>
      <trkpt lat="27.797933" lon="86.711616">
        <ele>3301.6</ele>
        <time>2022-10-20T05:31:15.000Z</time>
      </trkpt>
      <trkpt lat="27.797955" lon="86.71161">
        <ele>3301.4</ele>
        <time>2022-10-20T05:31:17.000Z</time>
      </trkpt>
      <trkpt lat="27.797978" lon="86.71161">
        <ele>3301</ele>
        <time>2022-10-20T05:31:19.000Z</time>
      </trkpt>
      <trkpt lat="27.798003" lon="86.711622">
        <ele>3300.8</ele>
        <time>2022-10-20T05:31:21.000Z</time>
      </trkpt>
      <trkpt lat="27.798016" lon="86.711603">
        <ele>3301.6</ele>
        <time>2022-10-20T05:31:27.000Z</time>
      </trkpt>
      <trkpt lat="27.798042" lon="86.711616">
        <ele>3302</ele>
        <time>2022-10-20T05:31:32.000Z</time>
      </trkpt>
      <trkpt lat="27.79807" lon="86.71161">
        <ele>3302</ele>
        <time>2022-10-20T05:31:34.000Z</time>
      </trkpt>
      <trkpt lat="27.79809" lon="86.711616">
        <ele>3302.2</ele>
        <time>2022-10-20T05:31:36.000Z</time>
      </trkpt>
      <trkpt lat="27.798112" lon="86.71161">
        <ele>3302.4</ele>
        <time>2022-10-20T05:31:38.000Z</time>
      </trkpt>
      <trkpt lat="27.798115" lon="86.711584">
        <ele>3302.4</ele>
        <time>2022-10-20T05:31:43.000Z</time>
      </trkpt>
      <trkpt lat="27.798134" lon="86.711565">
        <ele>3302.6</ele>
        <time>2022-10-20T05:31:45.000Z</time>
      </trkpt>
      <trkpt lat="27.798144" lon="86.711546">
        <ele>3302.6</ele>
        <time>2022-10-20T05:31:48.000Z</time>
      </trkpt>
      <trkpt lat="27.79815" lon="86.711578">
        <ele>3303.6</ele>
        <time>2022-10-20T05:31:52.000Z</time>
      </trkpt>
      <trkpt lat="27.798173" lon="86.711571">
        <ele>3304.6</ele>
        <time>2022-10-20T05:31:55.000Z</time>
      </trkpt>
      <trkpt lat="27.798192" lon="86.711578">
        <ele>3304.6</ele>
        <time>2022-10-20T05:31:58.000Z</time>
      </trkpt>
      <trkpt lat="27.798211" lon="86.711571">
        <ele>3304.8</ele>
        <time>2022-10-20T05:32:00.000Z</time>
      </trkpt>
      <trkpt lat="27.79823" lon="86.711578">
        <ele>3305.2</ele>
        <time>2022-10-20T05:32:03.000Z</time>
      </trkpt>
      <trkpt lat="27.798211" lon="86.711578">
        <ele>3305.8</ele>
        <time>2022-10-20T05:32:08.000Z</time>
      </trkpt>
      <trkpt lat="27.79823" lon="86.711597">
        <ele>3306</ele>
        <time>2022-10-20T05:32:12.000Z</time>
      </trkpt>
      <trkpt lat="27.798253" lon="86.711622">
        <ele>3306.2</ele>
        <time>2022-10-20T05:32:14.000Z</time>
      </trkpt>
      <trkpt lat="27.798285" lon="86.711642">
        <ele>3306.4</ele>
        <time>2022-10-20T05:32:16.000Z</time>
      </trkpt>
      <trkpt lat="27.798307" lon="86.711648">
        <ele>3306.8</ele>
        <time>2022-10-20T05:32:18.000Z</time>
      </trkpt>
      <trkpt lat="27.79833" lon="86.711661">
        <ele>3307.4</ele>
        <time>2022-10-20T05:32:21.000Z</time>
      </trkpt>
      <trkpt lat="27.798349" lon="86.711654">
        <ele>3307.4</ele>
        <time>2022-10-20T05:32:22.000Z</time>
      </trkpt>
      <trkpt lat="27.798384" lon="86.711642">
        <ele>3307.2</ele>
        <time>2022-10-20T05:32:24.000Z</time>
      </trkpt>
      <trkpt lat="27.79839" lon="86.711622">
        <ele>3307.2</ele>
        <time>2022-10-20T05:32:25.000Z</time>
      </trkpt>
      <trkpt lat="27.798416" lon="86.711622">
        <ele>3307.4</ele>
        <time>2022-10-20T05:32:28.000Z</time>
      </trkpt>
      <trkpt lat="27.798435" lon="86.711642">
        <ele>3308.6</ele>
        <time>2022-10-20T05:32:30.000Z</time>
      </trkpt>
      <trkpt lat="27.798454" lon="86.711642">
        <ele>3308.2</ele>
        <time>2022-10-20T05:32:32.000Z</time>
      </trkpt>
      <trkpt lat="27.798477" lon="86.711648">
        <ele>3308.8</ele>
        <time>2022-10-20T05:32:39.000Z</time>
      </trkpt>
      <trkpt lat="27.798499" lon="86.711648">
        <ele>3309.2</ele>
        <time>2022-10-20T05:32:48.000Z</time>
      </trkpt>
      <trkpt lat="27.798518" lon="86.711648">
        <ele>3309.8</ele>
        <time>2022-10-20T05:32:53.000Z</time>
      </trkpt>
      <trkpt lat="27.798538" lon="86.711629">
        <ele>3310.2</ele>
        <time>2022-10-20T05:32:58.000Z</time>
      </trkpt>
      <trkpt lat="27.79856" lon="86.711622">
        <ele>3310.8</ele>
        <time>2022-10-20T05:33:08.000Z</time>
      </trkpt>
      <trkpt lat="27.798563" lon="86.711597">
        <ele>3310.6</ele>
        <time>2022-10-20T05:33:21.000Z</time>
      </trkpt>
      <trkpt lat="27.798563" lon="86.711571">
        <ele>3311</ele>
        <time>2022-10-20T05:33:24.000Z</time>
      </trkpt>
      <trkpt lat="27.798566" lon="86.711546">
        <ele>3311.2</ele>
        <time>2022-10-20T05:33:26.000Z</time>
      </trkpt>
      <trkpt lat="27.79856" lon="86.711507">
        <ele>3311.6</ele>
        <time>2022-10-20T05:33:30.000Z</time>
      </trkpt>
      <trkpt lat="27.798566" lon="86.711488">
        <ele>3312</ele>
        <time>2022-10-20T05:33:33.000Z</time>
      </trkpt>
      <trkpt lat="27.798573" lon="86.711469">
        <ele>3311.8</ele>
        <time>2022-10-20T05:33:36.000Z</time>
      </trkpt>
      <trkpt lat="27.798573" lon="86.711443">
        <ele>3312</ele>
        <time>2022-10-20T05:33:42.000Z</time>
      </trkpt>
      <trkpt lat="27.798566" lon="86.711418">
        <ele>3312.4</ele>
        <time>2022-10-20T05:33:44.000Z</time>
      </trkpt>
      <trkpt lat="27.798573" lon="86.711398">
        <ele>3313</ele>
        <time>2022-10-20T05:33:49.000Z</time>
      </trkpt>
      <trkpt lat="27.798566" lon="86.711379">
        <ele>3313.4</ele>
        <time>2022-10-20T05:33:54.000Z</time>
      </trkpt>
      <trkpt lat="27.798566" lon="86.711405">
        <ele>3312.8</ele>
        <time>2022-10-20T05:34:04.000Z</time>
      </trkpt>
      <trkpt lat="27.798592" lon="86.711398">
        <ele>3313</ele>
        <time>2022-10-20T05:34:55.000Z</time>
      </trkpt>
      <trkpt lat="27.798627" lon="86.711424">
        <ele>3313.6</ele>
        <time>2022-10-20T05:35:04.000Z</time>
      </trkpt>
      <trkpt lat="27.798653" lon="86.711405">
        <ele>3311.6</ele>
        <time>2022-10-20T05:39:01.000Z</time>
      </trkpt>
      <trkpt lat="27.798653" lon="86.711379">
        <ele>3311.6</ele>
        <time>2022-10-20T05:39:03.000Z</time>
      </trkpt>
      <trkpt lat="27.798653" lon="86.711347">
        <ele>3311.8</ele>
        <time>2022-10-20T05:39:05.000Z</time>
      </trkpt>
      <trkpt lat="27.798656" lon="86.711322">
        <ele>3312</ele>
        <time>2022-10-20T05:39:08.000Z</time>
      </trkpt>
      <trkpt lat="27.798659" lon="86.711296">
        <ele>3311.8</ele>
        <time>2022-10-20T05:39:10.000Z</time>
      </trkpt>
      <trkpt lat="27.798669" lon="86.71127">
        <ele>3312</ele>
        <time>2022-10-20T05:39:13.000Z</time>
      </trkpt>
      <trkpt lat="27.798682" lon="86.711245">
        <ele>3312.2</ele>
        <time>2022-10-20T05:39:16.000Z</time>
      </trkpt>
      <trkpt lat="27.798691" lon="86.711226">
        <ele>3312.6</ele>
        <time>2022-10-20T05:39:19.000Z</time>
      </trkpt>
      <trkpt lat="27.798717" lon="86.711213">
        <ele>3312.8</ele>
        <time>2022-10-20T05:39:22.000Z</time>
      </trkpt>
      <trkpt lat="27.798736" lon="86.711219">
        <ele>3313.8</ele>
        <time>2022-10-20T05:39:27.000Z</time>
      </trkpt>
      <trkpt lat="27.798755" lon="86.711219">
        <ele>3313.8</ele>
        <time>2022-10-20T05:39:31.000Z</time>
      </trkpt>
      <trkpt lat="27.798774" lon="86.711219">
        <ele>3314.4</ele>
        <time>2022-10-20T05:39:34.000Z</time>
      </trkpt>
      <trkpt lat="27.798797" lon="86.711206">
        <ele>3314.4</ele>
        <time>2022-10-20T05:39:37.000Z</time>
      </trkpt>
      <trkpt lat="27.798806" lon="86.711187">
        <ele>3314.4</ele>
        <time>2022-10-20T05:39:40.000Z</time>
      </trkpt>
      <trkpt lat="27.798826" lon="86.711181">
        <ele>3314.6</ele>
        <time>2022-10-20T05:39:43.000Z</time>
      </trkpt>
      <trkpt lat="27.798848" lon="86.711168">
        <ele>3315</ele>
        <time>2022-10-20T05:39:47.000Z</time>
      </trkpt>
      <trkpt lat="27.798858" lon="86.711149">
        <ele>3315.8</ele>
        <time>2022-10-20T05:39:50.000Z</time>
      </trkpt>
      <trkpt lat="27.798883" lon="86.711142">
        <ele>3316.2</ele>
        <time>2022-10-20T05:39:53.000Z</time>
      </trkpt>
      <trkpt lat="27.798909" lon="86.711149">
        <ele>3316.4</ele>
        <time>2022-10-20T05:39:55.000Z</time>
      </trkpt>
      <trkpt lat="27.798928" lon="86.711142">
        <ele>3317</ele>
        <time>2022-10-20T05:39:57.000Z</time>
      </trkpt>
      <trkpt lat="27.798944" lon="86.711123">
        <ele>3317</ele>
        <time>2022-10-20T05:39:58.000Z</time>
      </trkpt>
      <trkpt lat="27.798979" lon="86.711104">
        <ele>3317</ele>
        <time>2022-10-20T05:40:00.000Z</time>
      </trkpt>
      <trkpt lat="27.799008" lon="86.711098">
        <ele>3317</ele>
        <time>2022-10-20T05:40:02.000Z</time>
      </trkpt>
      <trkpt lat="27.79903" lon="86.711098">
        <ele>3317</ele>
        <time>2022-10-20T05:40:04.000Z</time>
      </trkpt>
      <trkpt lat="27.799046" lon="86.711085">
        <ele>3317.4</ele>
        <time>2022-10-20T05:40:07.000Z</time>
      </trkpt>
      <trkpt lat="27.799056" lon="86.711066">
        <ele>3317.6</ele>
        <time>2022-10-20T05:40:09.000Z</time>
      </trkpt>
      <trkpt lat="27.799069" lon="86.711034">
        <ele>3318.4</ele>
        <time>2022-10-20T05:40:16.000Z</time>
      </trkpt>
      <trkpt lat="27.799082" lon="86.711014">
        <ele>3319</ele>
        <time>2022-10-20T05:40:26.000Z</time>
      </trkpt>
      <trkpt lat="27.799101" lon="86.711014">
        <ele>3320</ele>
        <time>2022-10-20T05:40:30.000Z</time>
      </trkpt>
      <trkpt lat="27.799123" lon="86.711014">
        <ele>3321</ele>
        <time>2022-10-20T05:40:35.000Z</time>
      </trkpt>
      <trkpt lat="27.799142" lon="86.711014">
        <ele>3321.2</ele>
        <time>2022-10-20T05:40:38.000Z</time>
      </trkpt>
      <trkpt lat="27.799158" lon="86.711027">
        <ele>3321.6</ele>
        <time>2022-10-20T05:40:44.000Z</time>
      </trkpt>
      <trkpt lat="27.799178" lon="86.711021">
        <ele>3321.6</ele>
        <time>2022-10-20T05:40:47.000Z</time>
      </trkpt>
      <trkpt lat="27.799197" lon="86.711021">
        <ele>3322.6</ele>
        <time>2022-10-20T05:40:52.000Z</time>
      </trkpt>
      <trkpt lat="27.799222" lon="86.711021">
        <ele>3322.8</ele>
        <time>2022-10-20T05:40:55.000Z</time>
      </trkpt>
      <trkpt lat="27.799261" lon="86.711014">
        <ele>3323.6</ele>
        <time>2022-10-20T05:41:00.000Z</time>
      </trkpt>
      <trkpt lat="27.799258" lon="86.710989">
        <ele>3324.2</ele>
        <time>2022-10-20T05:41:06.000Z</time>
      </trkpt>
      <trkpt lat="27.799274" lon="86.711002">
        <ele>3325</ele>
        <time>2022-10-20T05:41:11.000Z</time>
      </trkpt>
      <trkpt lat="27.799293" lon="86.711014">
        <ele>3325.8</ele>
        <time>2022-10-20T05:41:16.000Z</time>
      </trkpt>
      <trkpt lat="27.799312" lon="86.711021">
        <ele>3327</ele>
        <time>2022-10-20T05:41:22.000Z</time>
      </trkpt>
      <trkpt lat="27.799296" lon="86.711008">
        <ele>3329</ele>
        <time>2022-10-20T05:41:40.000Z</time>
      </trkpt>
      <trkpt lat="27.799296" lon="86.710982">
        <ele>3329.6</ele>
        <time>2022-10-20T05:41:44.000Z</time>
      </trkpt>
      <trkpt lat="27.799312" lon="86.71097">
        <ele>3330.2</ele>
        <time>2022-10-20T05:41:52.000Z</time>
      </trkpt>
      <trkpt lat="27.799299" lon="86.71095">
        <ele>3330.6</ele>
        <time>2022-10-20T05:41:59.000Z</time>
      </trkpt>
      <trkpt lat="27.799302" lon="86.710925">
        <ele>3332.2</ele>
        <time>2022-10-20T05:42:13.000Z</time>
      </trkpt>
      <trkpt lat="27.799309" lon="86.710906">
        <ele>3332.8</ele>
        <time>2022-10-20T05:42:16.000Z</time>
      </trkpt>
      <trkpt lat="27.799315" lon="86.710886">
        <ele>3332.4</ele>
        <time>2022-10-20T05:42:18.000Z</time>
      </trkpt>
      <trkpt lat="27.799325" lon="86.710867">
        <ele>3332.8</ele>
        <time>2022-10-20T05:42:21.000Z</time>
      </trkpt>
      <trkpt lat="27.799334" lon="86.710848">
        <ele>3333</ele>
        <time>2022-10-20T05:42:24.000Z</time>
      </trkpt>
      <trkpt lat="27.799344" lon="86.710822">
        <ele>3333</ele>
        <time>2022-10-20T05:42:26.000Z</time>
      </trkpt>
      <trkpt lat="27.799354" lon="86.710803">
        <ele>3333.6</ele>
        <time>2022-10-20T05:42:29.000Z</time>
      </trkpt>
      <trkpt lat="27.799357" lon="86.710778">
        <ele>3334</ele>
        <time>2022-10-20T05:42:32.000Z</time>
      </trkpt>
      <trkpt lat="27.799363" lon="86.710752">
        <ele>3334.6</ele>
        <time>2022-10-20T05:42:36.000Z</time>
      </trkpt>
      <trkpt lat="27.799373" lon="86.710733">
        <ele>3334.4</ele>
        <time>2022-10-20T05:42:39.000Z</time>
      </trkpt>
      <trkpt lat="27.799379" lon="86.710714">
        <ele>3335</ele>
        <time>2022-10-20T05:42:42.000Z</time>
      </trkpt>
      <trkpt lat="27.799395" lon="86.710694">
        <ele>3335.6</ele>
        <time>2022-10-20T05:42:45.000Z</time>
      </trkpt>
      <trkpt lat="27.799402" lon="86.710675">
        <ele>3336</ele>
        <time>2022-10-20T05:42:48.000Z</time>
      </trkpt>
      <trkpt lat="27.79943" lon="86.710669">
        <ele>3336.6</ele>
        <time>2022-10-20T05:42:51.000Z</time>
      </trkpt>
      <trkpt lat="27.799453" lon="86.710662">
        <ele>3336.4</ele>
        <time>2022-10-20T05:42:54.000Z</time>
      </trkpt>
      <trkpt lat="27.799472" lon="86.710662">
        <ele>3336.6</ele>
        <time>2022-10-20T05:42:56.000Z</time>
      </trkpt>
      <trkpt lat="27.799501" lon="86.710656">
        <ele>3337.2</ele>
        <time>2022-10-20T05:43:26.000Z</time>
      </trkpt>
      <trkpt lat="27.799523" lon="86.710656">
        <ele>3337.4</ele>
        <time>2022-10-20T05:43:28.000Z</time>
      </trkpt>
      <trkpt lat="27.799533" lon="86.710637">
        <ele>3337.4</ele>
        <time>2022-10-20T05:43:29.000Z</time>
      </trkpt>
      <trkpt lat="27.799562" lon="86.710624">
        <ele>3337.4</ele>
        <time>2022-10-20T05:43:31.000Z</time>
      </trkpt>
      <trkpt lat="27.799594" lon="86.710624">
        <ele>3337</ele>
        <time>2022-10-20T05:43:33.000Z</time>
      </trkpt>
      <trkpt lat="27.799616" lon="86.710618">
        <ele>3337.2</ele>
        <time>2022-10-20T05:43:35.000Z</time>
      </trkpt>
      <trkpt lat="27.799642" lon="86.710618">
        <ele>3337.4</ele>
        <time>2022-10-20T05:43:38.000Z</time>
      </trkpt>
      <trkpt lat="27.799661" lon="86.710637">
        <ele>3337.8</ele>
        <time>2022-10-20T05:43:41.000Z</time>
      </trkpt>
      <trkpt lat="27.799683" lon="86.71065">
        <ele>3338.4</ele>
        <time>2022-10-20T05:43:46.000Z</time>
      </trkpt>
      <trkpt lat="27.799654" lon="86.710656">
        <ele>3338.8</ele>
        <time>2022-10-20T05:45:05.000Z</time>
      </trkpt>
      <trkpt lat="27.799661" lon="86.710675">
        <ele>3339.8</ele>
        <time>2022-10-20T05:45:26.000Z</time>
      </trkpt>
      <trkpt lat="27.799667" lon="86.710694">
        <ele>3340</ele>
        <time>2022-10-20T05:45:29.000Z</time>
      </trkpt>
      <trkpt lat="27.799677" lon="86.710662">
        <ele>3339.2</ele>
        <time>2022-10-20T05:45:43.000Z</time>
      </trkpt>
      <trkpt lat="27.799712" lon="86.710726">
        <ele>3339.4</ele>
        <time>2022-10-20T05:45:55.000Z</time>
      </trkpt>
      <trkpt lat="27.799741" lon="86.710752">
        <ele>3339.2</ele>
        <time>2022-10-20T05:45:56.000Z</time>
      </trkpt>
      <trkpt lat="27.79976" lon="86.71079">
        <ele>3339.2</ele>
        <time>2022-10-20T05:45:57.000Z</time>
      </trkpt>
      <trkpt lat="27.799779" lon="86.710778">
        <ele>3339</ele>
        <time>2022-10-20T05:46:04.000Z</time>
      </trkpt>
      <trkpt lat="27.799763" lon="86.710746">
        <ele>3339</ele>
        <time>2022-10-20T05:46:06.000Z</time>
      </trkpt>
      <trkpt lat="27.79975" lon="86.710726">
        <ele>3339</ele>
        <time>2022-10-20T05:46:07.000Z</time>
      </trkpt>
      <trkpt lat="27.799731" lon="86.710694">
        <ele>3339</ele>
        <time>2022-10-20T05:46:08.000Z</time>
      </trkpt>
      <trkpt lat="27.799722" lon="86.710675">
        <ele>3339</ele>
        <time>2022-10-20T05:46:09.000Z</time>
      </trkpt>
      <trkpt lat="27.799728" lon="86.710701">
        <ele>3339.4</ele>
        <time>2022-10-20T05:46:11.000Z</time>
      </trkpt>
      <trkpt lat="27.799738" lon="86.710733">
        <ele>3339.2</ele>
        <time>2022-10-20T05:46:15.000Z</time>
      </trkpt>
      <trkpt lat="27.799754" lon="86.710765">
        <ele>3339.2</ele>
        <time>2022-10-20T05:46:17.000Z</time>
      </trkpt>
      <trkpt lat="27.79977" lon="86.71079">
        <ele>3339.2</ele>
        <time>2022-10-20T05:46:19.000Z</time>
      </trkpt>
      <trkpt lat="27.799779" lon="86.71081">
        <ele>3339.2</ele>
        <time>2022-10-20T05:46:20.000Z</time>
      </trkpt>
      <trkpt lat="27.79976" lon="86.71081">
        <ele>3339</ele>
        <time>2022-10-20T05:46:27.000Z</time>
      </trkpt>
      <trkpt lat="27.799776" lon="86.710854">
        <ele>3339.6</ele>
        <time>2022-10-20T05:46:30.000Z</time>
      </trkpt>
      <trkpt lat="27.799779" lon="86.710912">
        <ele>3339.6</ele>
        <time>2022-10-20T05:46:31.000Z</time>
      </trkpt>
      <trkpt lat="27.79976" lon="86.710931">
        <ele>3339.6</ele>
        <time>2022-10-20T05:46:32.000Z</time>
      </trkpt>
      <trkpt lat="27.799731" lon="86.710938">
        <ele>3339.6</ele>
        <time>2022-10-20T05:46:33.000Z</time>
      </trkpt>
      <trkpt lat="27.799731" lon="86.710906">
        <ele>3340.2</ele>
        <time>2022-10-20T05:46:35.000Z</time>
      </trkpt>
      <trkpt lat="27.799712" lon="86.710861">
        <ele>3339.4</ele>
        <time>2022-10-20T05:46:40.000Z</time>
      </trkpt>
      <trkpt lat="27.799709" lon="86.710829">
        <ele>3339.4</ele>
        <time>2022-10-20T05:46:41.000Z</time>
      </trkpt>
      <trkpt lat="27.799709" lon="86.710803">
        <ele>3339</ele>
        <time>2022-10-20T05:46:43.000Z</time>
      </trkpt>
      <trkpt lat="27.799702" lon="86.710771">
        <ele>3339</ele>
        <time>2022-10-20T05:46:44.000Z</time>
      </trkpt>
      <trkpt lat="27.799702" lon="86.710746">
        <ele>3338.6</ele>
        <time>2022-10-20T05:46:52.000Z</time>
      </trkpt>
      <trkpt lat="27.799683" lon="86.710714">
        <ele>3339.6</ele>
        <time>2022-10-20T05:47:41.000Z</time>
      </trkpt>
      <trkpt lat="27.799661" lon="86.710707">
        <ele>3339.8</ele>
        <time>2022-10-20T05:48:12.000Z</time>
      </trkpt>
      <trkpt lat="27.799776" lon="86.710701">
        <ele>3341</ele>
        <time>2022-10-20T05:49:50.000Z</time>
      </trkpt>
      <trkpt lat="27.799757" lon="86.710701">
        <ele>3340.6</ele>
        <time>2022-10-20T05:50:11.000Z</time>
      </trkpt>
      <trkpt lat="27.799741" lon="86.710714">
        <ele>3340</ele>
        <time>2022-10-20T05:50:38.000Z</time>
      </trkpt>
      <trkpt lat="27.799722" lon="86.710714">
        <ele>3339.8</ele>
        <time>2022-10-20T05:50:57.000Z</time>
      </trkpt>
      <trkpt lat="27.799702" lon="86.710714">
        <ele>3339.4</ele>
        <time>2022-10-20T05:52:01.000Z</time>
      </trkpt>
      <trkpt lat="27.799741" lon="86.710714">
        <ele>3339</ele>
        <time>2022-10-20T05:53:08.000Z</time>
      </trkpt>
      <trkpt lat="27.799722" lon="86.710714">
        <ele>3339</ele>
        <time>2022-10-20T05:53:29.000Z</time>
      </trkpt>
      <trkpt lat="27.799738" lon="86.710726">
        <ele>3338.4</ele>
        <time>2022-10-20T05:53:53.000Z</time>
      </trkpt>
      <trkpt lat="27.799763" lon="86.710733">
        <ele>3338.4</ele>
        <time>2022-10-20T05:53:57.000Z</time>
      </trkpt>
      <trkpt lat="27.799782" lon="86.710746">
        <ele>3338.6</ele>
        <time>2022-10-20T05:54:00.000Z</time>
      </trkpt>
      <trkpt lat="27.799805" lon="86.710752">
        <ele>3338.8</ele>
        <time>2022-10-20T05:54:03.000Z</time>
      </trkpt>
      <trkpt lat="27.799821" lon="86.710765">
        <ele>3339.6</ele>
        <time>2022-10-20T05:54:10.000Z</time>
      </trkpt>
      <trkpt lat="27.799837" lon="86.710746">
        <ele>3340.2</ele>
        <time>2022-10-20T05:54:18.000Z</time>
      </trkpt>
      <trkpt lat="27.799862" lon="86.710752">
        <ele>3340</ele>
        <time>2022-10-20T05:54:48.000Z</time>
      </trkpt>
      <trkpt lat="27.799878" lon="86.710765">
        <ele>3340</ele>
        <time>2022-10-20T05:54:50.000Z</time>
      </trkpt>
      <trkpt lat="27.799898" lon="86.710784">
        <ele>3340.2</ele>
        <time>2022-10-20T05:54:55.000Z</time>
      </trkpt>
      <trkpt lat="27.799872" lon="86.710765">
        <ele>3340.4</ele>
        <time>2022-10-20T05:55:02.000Z</time>
      </trkpt>
      <trkpt lat="27.799878" lon="86.710746">
        <ele>3339.8</ele>
        <time>2022-10-20T05:55:50.000Z</time>
      </trkpt>
      <trkpt lat="27.799898" lon="86.710746">
        <ele>3340</ele>
        <time>2022-10-20T05:55:56.000Z</time>
      </trkpt>
      <trkpt lat="27.799926" lon="86.710765">
        <ele>3339.8</ele>
        <time>2022-10-20T05:56:47.000Z</time>
      </trkpt>
      <trkpt lat="27.799907" lon="86.710752">
        <ele>3339.8</ele>
        <time>2022-10-20T05:56:53.000Z</time>
      </trkpt>
      <trkpt lat="27.799891" lon="86.710771">
        <ele>3339.8</ele>
        <time>2022-10-20T05:56:56.000Z</time>
      </trkpt>
      <trkpt lat="27.799866" lon="86.710778">
        <ele>3339.8</ele>
        <time>2022-10-20T05:56:58.000Z</time>
      </trkpt>
      <trkpt lat="27.799834" lon="86.710746">
        <ele>3339.8</ele>
        <time>2022-10-20T05:58:17.000Z</time>
      </trkpt>
      <trkpt lat="27.799862" lon="86.710746">
        <ele>3340</ele>
        <time>2022-10-20T05:58:19.000Z</time>
      </trkpt>
      <trkpt lat="27.799888" lon="86.710746">
        <ele>3340.2</ele>
        <time>2022-10-20T05:58:21.000Z</time>
      </trkpt>
      <trkpt lat="27.79991" lon="86.710752">
        <ele>3340.4</ele>
        <time>2022-10-20T05:58:23.000Z</time>
      </trkpt>
      <trkpt lat="27.799936" lon="86.710752">
        <ele>3340.8</ele>
        <time>2022-10-20T05:58:25.000Z</time>
      </trkpt>
      <trkpt lat="27.799958" lon="86.710746">
        <ele>3341.4</ele>
        <time>2022-10-20T05:58:28.000Z</time>
      </trkpt>
      <trkpt lat="27.799984" lon="86.710739">
        <ele>3341.6</ele>
        <time>2022-10-20T05:58:31.000Z</time>
      </trkpt>
      <trkpt lat="27.800006" lon="86.710726">
        <ele>3341.8</ele>
        <time>2022-10-20T05:58:35.000Z</time>
      </trkpt>
      <trkpt lat="27.800026" lon="86.710714">
        <ele>3342.2</ele>
        <time>2022-10-20T05:58:37.000Z</time>
      </trkpt>
      <trkpt lat="27.800035" lon="86.710733">
        <ele>3342.2</ele>
        <time>2022-10-20T05:58:39.000Z</time>
      </trkpt>
      <trkpt lat="27.80007" lon="86.710752">
        <ele>3342.6</ele>
        <time>2022-10-20T05:58:42.000Z</time>
      </trkpt>
      <trkpt lat="27.80008" lon="86.710771">
        <ele>3342.6</ele>
        <time>2022-10-20T05:58:43.000Z</time>
      </trkpt>
      <trkpt lat="27.800096" lon="86.710803">
        <ele>3342.8</ele>
        <time>2022-10-20T05:58:47.000Z</time>
      </trkpt>
      <trkpt lat="27.800122" lon="86.710822">
        <ele>3343</ele>
        <time>2022-10-20T05:58:50.000Z</time>
      </trkpt>
      <trkpt lat="27.800141" lon="86.710835">
        <ele>3343</ele>
        <time>2022-10-20T05:58:51.000Z</time>
      </trkpt>
      <trkpt lat="27.800157" lon="86.710848">
        <ele>3343.2</ele>
        <time>2022-10-20T05:58:52.000Z</time>
      </trkpt>
      <trkpt lat="27.800192" lon="86.710848">
        <ele>3343</ele>
        <time>2022-10-20T05:58:54.000Z</time>
      </trkpt>
      <trkpt lat="27.800214" lon="86.710848">
        <ele>3343.4</ele>
        <time>2022-10-20T05:58:56.000Z</time>
      </trkpt>
      <trkpt lat="27.800237" lon="86.710854">
        <ele>3344</ele>
        <time>2022-10-20T05:58:59.000Z</time>
      </trkpt>
      <trkpt lat="27.800259" lon="86.710854">
        <ele>3344.2</ele>
        <time>2022-10-20T05:59:01.000Z</time>
      </trkpt>
      <trkpt lat="27.800278" lon="86.710867">
        <ele>3344.8</ele>
        <time>2022-10-20T05:59:04.000Z</time>
      </trkpt>
      <trkpt lat="27.800301" lon="86.710886">
        <ele>3345</ele>
        <time>2022-10-20T05:59:07.000Z</time>
      </trkpt>
      <trkpt lat="27.800314" lon="86.710867">
        <ele>3345.6</ele>
        <time>2022-10-20T05:59:12.000Z</time>
      </trkpt>
      <trkpt lat="27.80033" lon="86.710848">
        <ele>3346.2</ele>
        <time>2022-10-20T05:59:15.000Z</time>
      </trkpt>
      <trkpt lat="27.800339" lon="86.710829">
        <ele>3346.4</ele>
        <time>2022-10-20T05:59:16.000Z</time>
      </trkpt>
      <trkpt lat="27.800346" lon="86.71081">
        <ele>3346.4</ele>
        <time>2022-10-20T05:59:18.000Z</time>
      </trkpt>
      <trkpt lat="27.800355" lon="86.71079">
        <ele>3346.4</ele>
        <time>2022-10-20T05:59:19.000Z</time>
      </trkpt>
      <trkpt lat="27.800349" lon="86.71081">
        <ele>3347.2</ele>
        <time>2022-10-20T05:59:26.000Z</time>
      </trkpt>
      <trkpt lat="27.800368" lon="86.710822">
        <ele>3347.8</ele>
        <time>2022-10-20T05:59:30.000Z</time>
      </trkpt>
      <trkpt lat="27.800381" lon="86.710848">
        <ele>3348.2</ele>
        <time>2022-10-20T05:59:33.000Z</time>
      </trkpt>
      <trkpt lat="27.800387" lon="86.710867">
        <ele>3348.2</ele>
        <time>2022-10-20T05:59:34.000Z</time>
      </trkpt>
      <trkpt lat="27.800403" lon="86.710886">
        <ele>3348.8</ele>
        <time>2022-10-20T05:59:36.000Z</time>
      </trkpt>
      <trkpt lat="27.800422" lon="86.710899">
        <ele>3349</ele>
        <time>2022-10-20T05:59:38.000Z</time>
      </trkpt>
      <trkpt lat="27.800432" lon="86.710931">
        <ele>3349</ele>
        <time>2022-10-20T05:59:40.000Z</time>
      </trkpt>
      <trkpt lat="27.800458" lon="86.710931">
        <ele>3349.2</ele>
        <time>2022-10-20T05:59:46.000Z</time>
      </trkpt>
      <trkpt lat="27.800486" lon="86.710944">
        <ele>3349.8</ele>
        <time>2022-10-20T05:59:48.000Z</time>
      </trkpt>
      <trkpt lat="27.800506" lon="86.710944">
        <ele>3350.2</ele>
        <time>2022-10-20T05:59:51.000Z</time>
      </trkpt>
      <trkpt lat="27.800534" lon="86.710963">
        <ele>3350.4</ele>
        <time>2022-10-20T05:59:55.000Z</time>
      </trkpt>
      <trkpt lat="27.800547" lon="86.710982">
        <ele>3350.6</ele>
        <time>2022-10-20T05:59:57.000Z</time>
      </trkpt>
      <trkpt lat="27.800557" lon="86.711002">
        <ele>3350.8</ele>
        <time>2022-10-20T05:59:59.000Z</time>
      </trkpt>
      <trkpt lat="27.800576" lon="86.711014">
        <ele>3351</ele>
        <time>2022-10-20T06:00:01.000Z</time>
      </trkpt>
      <trkpt lat="27.800595" lon="86.711021">
        <ele>3351</ele>
        <time>2022-10-20T06:00:03.000Z</time>
      </trkpt>
      <trkpt lat="27.800611" lon="86.711034">
        <ele>3351.4</ele>
        <time>2022-10-20T06:00:06.000Z</time>
      </trkpt>
      <trkpt lat="27.800634" lon="86.711034">
        <ele>3352</ele>
        <time>2022-10-20T06:00:09.000Z</time>
      </trkpt>
      <trkpt lat="27.800653" lon="86.711034">
        <ele>3353</ele>
        <time>2022-10-20T06:00:19.000Z</time>
      </trkpt>
      <trkpt lat="27.800672" lon="86.711053">
        <ele>3353</ele>
        <time>2022-10-20T06:00:21.000Z</time>
      </trkpt>
      <trkpt lat="27.800691" lon="86.711053">
        <ele>3353.2</ele>
        <time>2022-10-20T06:00:24.000Z</time>
      </trkpt>
      <trkpt lat="27.800701" lon="86.711072">
        <ele>3354.2</ele>
        <time>2022-10-20T06:00:31.000Z</time>
      </trkpt>
      <trkpt lat="27.800717" lon="86.711091">
        <ele>3354.6</ele>
        <time>2022-10-20T06:00:37.000Z</time>
      </trkpt>
      <trkpt lat="27.800723" lon="86.71111">
        <ele>3355.4</ele>
        <time>2022-10-20T06:00:42.000Z</time>
      </trkpt>
      <trkpt lat="27.800742" lon="86.71113">
        <ele>3355.8</ele>
        <time>2022-10-20T06:00:45.000Z</time>
      </trkpt>
      <trkpt lat="27.800765" lon="86.71113">
        <ele>3356.4</ele>
        <time>2022-10-20T06:00:48.000Z</time>
      </trkpt>
      <trkpt lat="27.80079" lon="86.71113">
        <ele>3356.8</ele>
        <time>2022-10-20T06:00:51.000Z</time>
      </trkpt>
      <trkpt lat="27.800813" lon="86.711142">
        <ele>3357.2</ele>
        <time>2022-10-20T06:00:55.000Z</time>
      </trkpt>
      <trkpt lat="27.800832" lon="86.711149">
        <ele>3357.4</ele>
        <time>2022-10-20T06:01:00.000Z</time>
      </trkpt>
      <trkpt lat="27.800842" lon="86.711168">
        <ele>3358</ele>
        <time>2022-10-20T06:01:02.000Z</time>
      </trkpt>
      <trkpt lat="27.800861" lon="86.711174">
        <ele>3358.6</ele>
        <time>2022-10-20T06:01:07.000Z</time>
      </trkpt>
      <trkpt lat="27.800883" lon="86.711181">
        <ele>3359.4</ele>
        <time>2022-10-20T06:01:11.000Z</time>
      </trkpt>
      <trkpt lat="27.800902" lon="86.711181">
        <ele>3359.8</ele>
        <time>2022-10-20T06:01:16.000Z</time>
      </trkpt>
      <trkpt lat="27.800922" lon="86.711181">
        <ele>3360</ele>
        <time>2022-10-20T06:01:18.000Z</time>
      </trkpt>
      <trkpt lat="27.800934" lon="86.7112">
        <ele>3360.4</ele>
        <time>2022-10-20T06:01:21.000Z</time>
      </trkpt>
      <trkpt lat="27.80095" lon="86.711213">
        <ele>3360.8</ele>
        <time>2022-10-20T06:01:25.000Z</time>
      </trkpt>
      <trkpt lat="27.80097" lon="86.711219">
        <ele>3361.2</ele>
        <time>2022-10-20T06:01:29.000Z</time>
      </trkpt>
      <trkpt lat="27.800989" lon="86.711213">
        <ele>3361.6</ele>
        <time>2022-10-20T06:01:38.000Z</time>
      </trkpt>
      <trkpt lat="27.801011" lon="86.711213">
        <ele>3362.4</ele>
        <time>2022-10-20T06:01:43.000Z</time>
      </trkpt>
      <trkpt lat="27.80103" lon="86.711226">
        <ele>3362.8</ele>
        <time>2022-10-20T06:01:47.000Z</time>
      </trkpt>
      <trkpt lat="27.80105" lon="86.711232">
        <ele>3363.2</ele>
        <time>2022-10-20T06:01:51.000Z</time>
      </trkpt>
      <trkpt lat="27.801056" lon="86.711251">
        <ele>3363.8</ele>
        <time>2022-10-20T06:01:54.000Z</time>
      </trkpt>
      <trkpt lat="27.801082" lon="86.711245">
        <ele>3364</ele>
        <time>2022-10-20T06:01:57.000Z</time>
      </trkpt>
      <trkpt lat="27.801098" lon="86.711232">
        <ele>3365</ele>
        <time>2022-10-20T06:02:07.000Z</time>
      </trkpt>
      <trkpt lat="27.801133" lon="86.711245">
        <ele>3367.6</ele>
        <time>2022-10-20T06:02:39.000Z</time>
      </trkpt>
      <trkpt lat="27.801158" lon="86.711251">
        <ele>3367.8</ele>
        <time>2022-10-20T06:02:41.000Z</time>
      </trkpt>
      <trkpt lat="27.801181" lon="86.711264">
        <ele>3368.2</ele>
        <time>2022-10-20T06:02:43.000Z</time>
      </trkpt>
      <trkpt lat="27.801206" lon="86.71127">
        <ele>3368.4</ele>
        <time>2022-10-20T06:02:45.000Z</time>
      </trkpt>
      <trkpt lat="27.801232" lon="86.711283">
        <ele>3368.4</ele>
        <time>2022-10-20T06:02:47.000Z</time>
      </trkpt>
      <trkpt lat="27.801251" lon="86.711283">
        <ele>3368.8</ele>
        <time>2022-10-20T06:02:52.000Z</time>
      </trkpt>
      <trkpt lat="27.80127" lon="86.71129">
        <ele>3369.2</ele>
        <time>2022-10-20T06:02:57.000Z</time>
      </trkpt>
      <trkpt lat="27.80129" lon="86.711302">
        <ele>3369.4</ele>
        <time>2022-10-20T06:03:00.000Z</time>
      </trkpt>
      <trkpt lat="27.801309" lon="86.711309">
        <ele>3369.8</ele>
        <time>2022-10-20T06:03:04.000Z</time>
      </trkpt>
      <trkpt lat="27.801331" lon="86.711302">
        <ele>3370</ele>
        <time>2022-10-20T06:03:27.000Z</time>
      </trkpt>
      <trkpt lat="27.80136" lon="86.711309">
        <ele>3370.6</ele>
        <time>2022-10-20T06:03:31.000Z</time>
      </trkpt>
      <trkpt lat="27.801376" lon="86.711328">
        <ele>3370.8</ele>
        <time>2022-10-20T06:03:34.000Z</time>
      </trkpt>
      <trkpt lat="27.801392" lon="86.711341">
        <ele>3371.4</ele>
        <time>2022-10-20T06:03:39.000Z</time>
      </trkpt>
      <trkpt lat="27.801408" lon="86.71136">
        <ele>3371.8</ele>
        <time>2022-10-20T06:03:42.000Z</time>
      </trkpt>
      <trkpt lat="27.801427" lon="86.711366">
        <ele>3372.2</ele>
        <time>2022-10-20T06:03:45.000Z</time>
      </trkpt>
      <trkpt lat="27.801446" lon="86.711373">
        <ele>3372.6</ele>
        <time>2022-10-20T06:03:48.000Z</time>
      </trkpt>
      <trkpt lat="27.801466" lon="86.711379">
        <ele>3372.8</ele>
        <time>2022-10-20T06:03:51.000Z</time>
      </trkpt>
      <trkpt lat="27.801485" lon="86.711379">
        <ele>3373.4</ele>
        <time>2022-10-20T06:03:55.000Z</time>
      </trkpt>
      <trkpt lat="27.801504" lon="86.711379">
        <ele>3373.8</ele>
        <time>2022-10-20T06:03:58.000Z</time>
      </trkpt>
      <trkpt lat="27.801514" lon="86.711398">
        <ele>3374.2</ele>
        <time>2022-10-20T06:04:02.000Z</time>
      </trkpt>
      <trkpt lat="27.801501" lon="86.711379">
        <ele>3374</ele>
        <time>2022-10-20T06:04:29.000Z</time>
      </trkpt>
      <trkpt lat="27.801526" lon="86.711379">
        <ele>3374</ele>
        <time>2022-10-20T06:04:50.000Z</time>
      </trkpt>
      <trkpt lat="27.801546" lon="86.711386">
        <ele>3374.2</ele>
        <time>2022-10-20T06:04:53.000Z</time>
      </trkpt>
      <trkpt lat="27.801565" lon="86.711386">
        <ele>3374.6</ele>
        <time>2022-10-20T06:04:56.000Z</time>
      </trkpt>
      <trkpt lat="27.801581" lon="86.711398">
        <ele>3374.8</ele>
        <time>2022-10-20T06:04:58.000Z</time>
      </trkpt>
      <trkpt lat="27.801616" lon="86.711379">
        <ele>3375</ele>
        <time>2022-10-20T06:05:04.000Z</time>
      </trkpt>
      <trkpt lat="27.801635" lon="86.711366">
        <ele>3375</ele>
        <time>2022-10-20T06:05:07.000Z</time>
      </trkpt>
      <trkpt lat="27.801654" lon="86.711366">
        <ele>3376</ele>
        <time>2022-10-20T06:05:11.000Z</time>
      </trkpt>
      <trkpt lat="27.801677" lon="86.71136">
        <ele>3376.6</ele>
        <time>2022-10-20T06:05:14.000Z</time>
      </trkpt>
      <trkpt lat="27.80169" lon="86.711341">
        <ele>3376.8</ele>
        <time>2022-10-20T06:05:17.000Z</time>
      </trkpt>
      <trkpt lat="27.801709" lon="86.711334">
        <ele>3377.2</ele>
        <time>2022-10-20T06:05:20.000Z</time>
      </trkpt>
      <trkpt lat="27.801728" lon="86.711328">
        <ele>3377.4</ele>
        <time>2022-10-20T06:05:22.000Z</time>
      </trkpt>
      <trkpt lat="27.801754" lon="86.711309">
        <ele>3377.6</ele>
        <time>2022-10-20T06:05:25.000Z</time>
      </trkpt>
      <trkpt lat="27.801773" lon="86.711296">
        <ele>3377.6</ele>
        <time>2022-10-20T06:05:28.000Z</time>
      </trkpt>
      <trkpt lat="27.801792" lon="86.711296">
        <ele>3378</ele>
        <time>2022-10-20T06:05:30.000Z</time>
      </trkpt>
      <trkpt lat="27.801834" lon="86.71127">
        <ele>3379.2</ele>
        <time>2022-10-20T06:05:38.000Z</time>
      </trkpt>
      <trkpt lat="27.801856" lon="86.711264">
        <ele>3379.6</ele>
        <time>2022-10-20T06:05:43.000Z</time>
      </trkpt>
      <trkpt lat="27.801875" lon="86.711258">
        <ele>3380.6</ele>
        <time>2022-10-20T06:05:50.000Z</time>
      </trkpt>
      <trkpt lat="27.801894" lon="86.711251">
        <ele>3381.2</ele>
        <time>2022-10-20T06:05:53.000Z</time>
      </trkpt>
      <trkpt lat="27.801914" lon="86.711232">
        <ele>3380.8</ele>
        <time>2022-10-20T06:05:58.000Z</time>
      </trkpt>
      <trkpt lat="27.801933" lon="86.711226">
        <ele>3381.8</ele>
        <time>2022-10-20T06:06:02.000Z</time>
      </trkpt>
      <trkpt lat="27.801955" lon="86.711213">
        <ele>3382.4</ele>
        <time>2022-10-20T06:06:33.000Z</time>
      </trkpt>
      <trkpt lat="27.801974" lon="86.711213">
        <ele>3382.2</ele>
        <time>2022-10-20T06:06:35.000Z</time>
      </trkpt>
      <trkpt lat="27.801997" lon="86.711206">
        <ele>3382.4</ele>
        <time>2022-10-20T06:06:37.000Z</time>
      </trkpt>
      <trkpt lat="27.802022" lon="86.711206">
        <ele>3382.6</ele>
        <time>2022-10-20T06:06:39.000Z</time>
      </trkpt>
      <trkpt lat="27.802048" lon="86.711213">
        <ele>3382.8</ele>
        <time>2022-10-20T06:06:41.000Z</time>
      </trkpt>
      <trkpt lat="27.802067" lon="86.711219">
        <ele>3382.8</ele>
        <time>2022-10-20T06:06:44.000Z</time>
      </trkpt>
      <trkpt lat="27.802086" lon="86.711219">
        <ele>3383.4</ele>
        <time>2022-10-20T06:06:47.000Z</time>
      </trkpt>
      <trkpt lat="27.802112" lon="86.711219">
        <ele>3383.6</ele>
        <time>2022-10-20T06:06:50.000Z</time>
      </trkpt>
      <trkpt lat="27.802131" lon="86.711219">
        <ele>3385</ele>
        <time>2022-10-20T06:06:55.000Z</time>
      </trkpt>
      <trkpt lat="27.802154" lon="86.711206">
        <ele>3386</ele>
        <time>2022-10-20T06:07:00.000Z</time>
      </trkpt>
      <trkpt lat="27.802176" lon="86.7112">
        <ele>3386.6</ele>
        <time>2022-10-20T06:07:03.000Z</time>
      </trkpt>
      <trkpt lat="27.802192" lon="86.711187">
        <ele>3387</ele>
        <time>2022-10-20T06:07:05.000Z</time>
      </trkpt>
      <trkpt lat="27.802208" lon="86.711174">
        <ele>3387</ele>
        <time>2022-10-20T06:07:08.000Z</time>
      </trkpt>
      <trkpt lat="27.802227" lon="86.711162">
        <ele>3387.2</ele>
        <time>2022-10-20T06:07:11.000Z</time>
      </trkpt>
      <trkpt lat="27.80224" lon="86.711142">
        <ele>3387.4</ele>
        <time>2022-10-20T06:07:14.000Z</time>
      </trkpt>
      <trkpt lat="27.802259" lon="86.711136">
        <ele>3387.6</ele>
        <time>2022-10-20T06:07:18.000Z</time>
      </trkpt>
      <trkpt lat="27.802266" lon="86.71111">
        <ele>3388.2</ele>
        <time>2022-10-20T06:07:22.000Z</time>
      </trkpt>
      <trkpt lat="27.802282" lon="86.711098">
        <ele>3388.2</ele>
        <time>2022-10-20T06:07:25.000Z</time>
      </trkpt>
      <trkpt lat="27.802304" lon="86.711098">
        <ele>3388.2</ele>
        <time>2022-10-20T06:07:27.000Z</time>
      </trkpt>
      <trkpt lat="27.802323" lon="86.711091">
        <ele>3388.2</ele>
        <time>2022-10-20T06:07:30.000Z</time>
      </trkpt>
      <trkpt lat="27.802349" lon="86.711085">
        <ele>3388</ele>
        <time>2022-10-20T06:07:34.000Z</time>
      </trkpt>
      <trkpt lat="27.802365" lon="86.711066">
        <ele>3388</ele>
        <time>2022-10-20T06:07:36.000Z</time>
      </trkpt>
      <trkpt lat="27.802384" lon="86.711059">
        <ele>3387.6</ele>
        <time>2022-10-20T06:07:39.000Z</time>
      </trkpt>
      <trkpt lat="27.80239" lon="86.711034">
        <ele>3388</ele>
        <time>2022-10-20T06:07:43.000Z</time>
      </trkpt>
      <trkpt lat="27.802406" lon="86.711021">
        <ele>3388.4</ele>
        <time>2022-10-20T06:07:49.000Z</time>
      </trkpt>
      <trkpt lat="27.802419" lon="86.711002">
        <ele>3390</ele>
        <time>2022-10-20T06:07:56.000Z</time>
      </trkpt>
      <trkpt lat="27.802429" lon="86.710982">
        <ele>3391.6</ele>
        <time>2022-10-20T06:08:01.000Z</time>
      </trkpt>
      <trkpt lat="27.802442" lon="86.710963">
        <ele>3392.6</ele>
        <time>2022-10-20T06:08:07.000Z</time>
      </trkpt>
      <trkpt lat="27.802442" lon="86.710938">
        <ele>3393.8</ele>
        <time>2022-10-20T06:08:17.000Z</time>
      </trkpt>
      <trkpt lat="27.802445" lon="86.710912">
        <ele>3394.2</ele>
        <time>2022-10-20T06:08:21.000Z</time>
      </trkpt>
      <trkpt lat="27.802461" lon="86.710899">
        <ele>3394.4</ele>
        <time>2022-10-20T06:08:25.000Z</time>
      </trkpt>
      <trkpt lat="27.802461" lon="86.710861">
        <ele>3401.8</ele>
        <time>2022-10-20T06:11:25.000Z</time>
      </trkpt>
      <trkpt lat="27.802445" lon="86.710893">
        <ele>3400.2</ele>
        <time>2022-10-20T06:11:59.000Z</time>
      </trkpt>
      <trkpt lat="27.802442" lon="86.710867">
        <ele>3400.2</ele>
        <time>2022-10-20T06:12:01.000Z</time>
      </trkpt>
      <trkpt lat="27.802426" lon="86.710854">
        <ele>3400.8</ele>
        <time>2022-10-20T06:12:04.000Z</time>
      </trkpt>
      <trkpt lat="27.802413" lon="86.710829">
        <ele>3400.6</ele>
        <time>2022-10-20T06:12:07.000Z</time>
      </trkpt>
      <trkpt lat="27.802403" lon="86.710803">
        <ele>3400.8</ele>
        <time>2022-10-20T06:12:10.000Z</time>
      </trkpt>
      <trkpt lat="27.802394" lon="86.710771">
        <ele>3401</ele>
        <time>2022-10-20T06:12:13.000Z</time>
      </trkpt>
      <trkpt lat="27.802384" lon="86.710752">
        <ele>3401.4</ele>
        <time>2022-10-20T06:12:15.000Z</time>
      </trkpt>
      <trkpt lat="27.802374" lon="86.710733">
        <ele>3402</ele>
        <time>2022-10-20T06:12:17.000Z</time>
      </trkpt>
      <trkpt lat="27.802365" lon="86.710714">
        <ele>3402.4</ele>
        <time>2022-10-20T06:12:19.000Z</time>
      </trkpt>
      <trkpt lat="27.802365" lon="86.710675">
        <ele>3402.6</ele>
        <time>2022-10-20T06:12:22.000Z</time>
      </trkpt>
      <trkpt lat="27.802371" lon="86.710656">
        <ele>3402.6</ele>
        <time>2022-10-20T06:12:24.000Z</time>
      </trkpt>
      <trkpt lat="27.802378" lon="86.71063">
        <ele>3402.6</ele>
        <time>2022-10-20T06:12:26.000Z</time>
      </trkpt>
      <trkpt lat="27.802387" lon="86.710611">
        <ele>3402.6</ele>
        <time>2022-10-20T06:12:28.000Z</time>
      </trkpt>
      <trkpt lat="27.802394" lon="86.710592">
        <ele>3403</ele>
        <time>2022-10-20T06:12:30.000Z</time>
      </trkpt>
      <trkpt lat="27.8024" lon="86.710566">
        <ele>3403</ele>
        <time>2022-10-20T06:12:33.000Z</time>
      </trkpt>
      <trkpt lat="27.802403" lon="86.710541">
        <ele>3403.2</ele>
        <time>2022-10-20T06:12:35.000Z</time>
      </trkpt>
      <trkpt lat="27.802413" lon="86.710515">
        <ele>3403.4</ele>
        <time>2022-10-20T06:12:37.000Z</time>
      </trkpt>
      <trkpt lat="27.802429" lon="86.710496">
        <ele>3404.4</ele>
        <time>2022-10-20T06:12:41.000Z</time>
      </trkpt>
      <trkpt lat="27.802432" lon="86.71047">
        <ele>3404.8</ele>
        <time>2022-10-20T06:12:44.000Z</time>
      </trkpt>
      <trkpt lat="27.802438" lon="86.710451">
        <ele>3405</ele>
        <time>2022-10-20T06:12:47.000Z</time>
      </trkpt>
      <trkpt lat="27.802432" lon="86.710426">
        <ele>3404.6</ele>
        <time>2022-10-20T06:12:50.000Z</time>
      </trkpt>
      <trkpt lat="27.802419" lon="86.710406">
        <ele>3404.2</ele>
        <time>2022-10-20T06:12:54.000Z</time>
      </trkpt>
      <trkpt lat="27.802403" lon="86.710387">
        <ele>3404.4</ele>
        <time>2022-10-20T06:12:56.000Z</time>
      </trkpt>
      <trkpt lat="27.802374" lon="86.710374">
        <ele>3404</ele>
        <time>2022-10-20T06:12:59.000Z</time>
      </trkpt>
      <trkpt lat="27.802355" lon="86.710368">
        <ele>3403.8</ele>
        <time>2022-10-20T06:13:01.000Z</time>
      </trkpt>
      <trkpt lat="27.802346" lon="86.710349">
        <ele>3403.6</ele>
        <time>2022-10-20T06:13:02.000Z</time>
      </trkpt>
      <trkpt lat="27.802336" lon="86.710317">
        <ele>3403.6</ele>
        <time>2022-10-20T06:13:05.000Z</time>
      </trkpt>
      <trkpt lat="27.80233" lon="86.710298">
        <ele>3403.4</ele>
        <time>2022-10-20T06:13:07.000Z</time>
      </trkpt>
      <trkpt lat="27.802323" lon="86.710272">
        <ele>3403</ele>
        <time>2022-10-20T06:13:09.000Z</time>
      </trkpt>
      <trkpt lat="27.802314" lon="86.710234">
        <ele>3402</ele>
        <time>2022-10-20T06:13:12.000Z</time>
      </trkpt>
      <trkpt lat="27.80231" lon="86.710208">
        <ele>3402</ele>
        <time>2022-10-20T06:13:15.000Z</time>
      </trkpt>
      <trkpt lat="27.802307" lon="86.710182">
        <ele>3402.6</ele>
        <time>2022-10-20T06:13:17.000Z</time>
      </trkpt>
      <trkpt lat="27.802304" lon="86.710157">
        <ele>3403.8</ele>
        <time>2022-10-20T06:13:22.000Z</time>
      </trkpt>
      <trkpt lat="27.802301" lon="86.710131">
        <ele>3404.2</ele>
        <time>2022-10-20T06:13:25.000Z</time>
      </trkpt>
      <trkpt lat="27.802304" lon="86.710106">
        <ele>3404.2</ele>
        <time>2022-10-20T06:13:28.000Z</time>
      </trkpt>
      <trkpt lat="27.802304" lon="86.71008">
        <ele>3404.6</ele>
        <time>2022-10-20T06:13:30.000Z</time>
      </trkpt>
      <trkpt lat="27.802314" lon="86.710054">
        <ele>3404.4</ele>
        <time>2022-10-20T06:13:33.000Z</time>
      </trkpt>
      <trkpt lat="27.802323" lon="86.710035">
        <ele>3403.6</ele>
        <time>2022-10-20T06:13:35.000Z</time>
      </trkpt>
      <trkpt lat="27.802339" lon="86.710016">
        <ele>3403.4</ele>
        <time>2022-10-20T06:13:37.000Z</time>
      </trkpt>
      <trkpt lat="27.802358" lon="86.709997">
        <ele>3403.4</ele>
        <time>2022-10-20T06:13:39.000Z</time>
      </trkpt>
      <trkpt lat="27.802378" lon="86.709984">
        <ele>3403.8</ele>
        <time>2022-10-20T06:13:41.000Z</time>
      </trkpt>
      <trkpt lat="27.8024" lon="86.709978">
        <ele>3405</ele>
        <time>2022-10-20T06:13:44.000Z</time>
      </trkpt>
      <trkpt lat="27.802413" lon="86.709958">
        <ele>3405</ele>
        <time>2022-10-20T06:13:46.000Z</time>
      </trkpt>
      <trkpt lat="27.802432" lon="86.709946">
        <ele>3405.2</ele>
        <time>2022-10-20T06:13:48.000Z</time>
      </trkpt>
      <trkpt lat="27.802451" lon="86.709933">
        <ele>3405.6</ele>
        <time>2022-10-20T06:13:50.000Z</time>
      </trkpt>
      <trkpt lat="27.80247" lon="86.70992">
        <ele>3405.6</ele>
        <time>2022-10-20T06:13:52.000Z</time>
      </trkpt>
      <trkpt lat="27.80249" lon="86.709907">
        <ele>3406</ele>
        <time>2022-10-20T06:13:56.000Z</time>
      </trkpt>
      <trkpt lat="27.802509" lon="86.709882">
        <ele>3406.2</ele>
        <time>2022-10-20T06:13:59.000Z</time>
      </trkpt>
      <trkpt lat="27.802525" lon="86.709869">
        <ele>3406.4</ele>
        <time>2022-10-20T06:14:04.000Z</time>
      </trkpt>
      <trkpt lat="27.802544" lon="86.709869">
        <ele>3406.8</ele>
        <time>2022-10-20T06:14:06.000Z</time>
      </trkpt>
      <trkpt lat="27.80257" lon="86.709875">
        <ele>3407.4</ele>
        <time>2022-10-20T06:14:09.000Z</time>
      </trkpt>
      <trkpt lat="27.802589" lon="86.709869">
        <ele>3407.2</ele>
        <time>2022-10-20T06:14:11.000Z</time>
      </trkpt>
      <trkpt lat="27.802611" lon="86.709869">
        <ele>3407.6</ele>
        <time>2022-10-20T06:14:13.000Z</time>
      </trkpt>
      <trkpt lat="27.802637" lon="86.709869">
        <ele>3408.2</ele>
        <time>2022-10-20T06:14:15.000Z</time>
      </trkpt>
      <trkpt lat="27.802653" lon="86.709856">
        <ele>3408.2</ele>
        <time>2022-10-20T06:14:17.000Z</time>
      </trkpt>
      <trkpt lat="27.802678" lon="86.70985">
        <ele>3409</ele>
        <time>2022-10-20T06:14:19.000Z</time>
      </trkpt>
      <trkpt lat="27.802688" lon="86.70983">
        <ele>3409.2</ele>
        <time>2022-10-20T06:14:20.000Z</time>
      </trkpt>
      <trkpt lat="27.80271" lon="86.709824">
        <ele>3409.4</ele>
        <time>2022-10-20T06:14:22.000Z</time>
      </trkpt>
      <trkpt lat="27.802723" lon="86.709798">
        <ele>3409.6</ele>
        <time>2022-10-20T06:14:24.000Z</time>
      </trkpt>
      <trkpt lat="27.802733" lon="86.709779">
        <ele>3409.4</ele>
        <time>2022-10-20T06:14:27.000Z</time>
      </trkpt>
      <trkpt lat="27.802746" lon="86.70976">
        <ele>3409.4</ele>
        <time>2022-10-20T06:14:29.000Z</time>
      </trkpt>
      <trkpt lat="27.802758" lon="86.709741">
        <ele>3409.4</ele>
        <time>2022-10-20T06:14:31.000Z</time>
      </trkpt>
      <trkpt lat="27.802778" lon="86.709722">
        <ele>3409.8</ele>
        <time>2022-10-20T06:14:33.000Z</time>
      </trkpt>
      <trkpt lat="27.802787" lon="86.709702">
        <ele>3410</ele>
        <time>2022-10-20T06:14:35.000Z</time>
      </trkpt>
      <trkpt lat="27.8028" lon="86.709683">
        <ele>3410.2</ele>
        <time>2022-10-20T06:14:37.000Z</time>
      </trkpt>
      <trkpt lat="27.802819" lon="86.709677">
        <ele>3410.4</ele>
        <time>2022-10-20T06:14:39.000Z</time>
      </trkpt>
      <trkpt lat="27.802838" lon="86.70967">
        <ele>3411</ele>
        <time>2022-10-20T06:14:42.000Z</time>
      </trkpt>
      <trkpt lat="27.802864" lon="86.709651">
        <ele>3411</ele>
        <time>2022-10-20T06:14:45.000Z</time>
      </trkpt>
      <trkpt lat="27.80289" lon="86.709651">
        <ele>3410.6</ele>
        <time>2022-10-20T06:14:48.000Z</time>
      </trkpt>
      <trkpt lat="27.802909" lon="86.709651">
        <ele>3411</ele>
        <time>2022-10-20T06:14:52.000Z</time>
      </trkpt>
      <trkpt lat="27.802986" lon="86.709677">
        <ele>3411.4</ele>
        <time>2022-10-20T06:15:04.000Z</time>
      </trkpt>
      <trkpt lat="27.803008" lon="86.709683">
        <ele>3411.8</ele>
        <time>2022-10-20T06:15:06.000Z</time>
      </trkpt>
      <trkpt lat="27.803037" lon="86.709696">
        <ele>3411.6</ele>
        <time>2022-10-20T06:15:08.000Z</time>
      </trkpt>
      <trkpt lat="27.803056" lon="86.709709">
        <ele>3411.4</ele>
        <time>2022-10-20T06:15:11.000Z</time>
      </trkpt>
      <trkpt lat="27.803066" lon="86.709734">
        <ele>3411.2</ele>
        <time>2022-10-20T06:15:23.000Z</time>
      </trkpt>
      <trkpt lat="27.803075" lon="86.709715">
        <ele>3411</ele>
        <time>2022-10-20T06:15:36.000Z</time>
      </trkpt>
      <trkpt lat="27.803053" lon="86.709702">
        <ele>3413.2</ele>
        <time>2022-10-20T06:18:19.000Z</time>
      </trkpt>
      <trkpt lat="27.803037" lon="86.709683">
        <ele>3413</ele>
        <time>2022-10-20T06:18:25.000Z</time>
      </trkpt>
      <trkpt lat="27.80305" lon="86.709702">
        <ele>3413.4</ele>
        <time>2022-10-20T06:19:29.000Z</time>
      </trkpt>
      <trkpt lat="27.803066" lon="86.709715">
        <ele>3413.2</ele>
        <time>2022-10-20T06:19:35.000Z</time>
      </trkpt>
      <trkpt lat="27.80304" lon="86.709709">
        <ele>3413.2</ele>
        <time>2022-10-20T06:19:39.000Z</time>
      </trkpt>
      <trkpt lat="27.803059" lon="86.709715">
        <ele>3414.2</ele>
        <time>2022-10-20T06:21:07.000Z</time>
      </trkpt>
      <trkpt lat="27.803085" lon="86.709722">
        <ele>3414.4</ele>
        <time>2022-10-20T06:21:14.000Z</time>
      </trkpt>
      <trkpt lat="27.803059" lon="86.709715">
        <ele>3414.8</ele>
        <time>2022-10-20T06:21:17.000Z</time>
      </trkpt>
      <trkpt lat="27.80304" lon="86.709702">
        <ele>3414.2</ele>
        <time>2022-10-20T06:21:19.000Z</time>
      </trkpt>
      <trkpt lat="27.803056" lon="86.709715">
        <ele>3413.6</ele>
        <time>2022-10-20T06:22:17.000Z</time>
      </trkpt>
      <trkpt lat="27.803046" lon="86.709734">
        <ele>3413.8</ele>
        <time>2022-10-20T06:22:31.000Z</time>
      </trkpt>
      <trkpt lat="27.803066" lon="86.709779">
        <ele>3411</ele>
        <time>2022-10-20T06:24:30.000Z</time>
      </trkpt>
      <trkpt lat="27.803085" lon="86.709773">
        <ele>3408.2</ele>
        <time>2022-10-20T06:25:22.000Z</time>
      </trkpt>
      <trkpt lat="27.803104" lon="86.709779">
        <ele>3408.4</ele>
        <time>2022-10-20T06:25:37.000Z</time>
      </trkpt>
      <trkpt lat="27.803126" lon="86.709786">
        <ele>3408.4</ele>
        <time>2022-10-20T06:25:39.000Z</time>
      </trkpt>
      <trkpt lat="27.803149" lon="86.709798">
        <ele>3408.4</ele>
        <time>2022-10-20T06:25:41.000Z</time>
      </trkpt>
      <trkpt lat="27.803174" lon="86.709798">
        <ele>3408.4</ele>
        <time>2022-10-20T06:25:45.000Z</time>
      </trkpt>
      <trkpt lat="27.803194" lon="86.709818">
        <ele>3407</ele>
        <time>2022-10-20T06:26:51.000Z</time>
      </trkpt>
      <trkpt lat="27.803216" lon="86.709818">
        <ele>3407</ele>
        <time>2022-10-20T06:26:53.000Z</time>
      </trkpt>
      <trkpt lat="27.803235" lon="86.709824">
        <ele>3406.6</ele>
        <time>2022-10-20T06:26:55.000Z</time>
      </trkpt>
      <trkpt lat="27.803261" lon="86.709824">
        <ele>3406.4</ele>
        <time>2022-10-20T06:26:57.000Z</time>
      </trkpt>
      <trkpt lat="27.803283" lon="86.709824">
        <ele>3406.6</ele>
        <time>2022-10-20T06:27:00.000Z</time>
      </trkpt>
      <trkpt lat="27.803302" lon="86.709818">
        <ele>3406.6</ele>
        <time>2022-10-20T06:27:02.000Z</time>
      </trkpt>
      <trkpt lat="27.803325" lon="86.709818">
        <ele>3407</ele>
        <time>2022-10-20T06:27:05.000Z</time>
      </trkpt>
      <trkpt lat="27.803344" lon="86.709798">
        <ele>3406.8</ele>
        <time>2022-10-20T06:27:08.000Z</time>
      </trkpt>
      <trkpt lat="27.803363" lon="86.709798">
        <ele>3406.4</ele>
        <time>2022-10-20T06:27:11.000Z</time>
      </trkpt>
      <trkpt lat="27.803382" lon="86.709786">
        <ele>3407.4</ele>
        <time>2022-10-20T06:27:18.000Z</time>
      </trkpt>
      <trkpt lat="27.803398" lon="86.709773">
        <ele>3407.6</ele>
        <time>2022-10-20T06:27:22.000Z</time>
      </trkpt>
      <trkpt lat="27.803456" lon="86.709734">
        <ele>3405</ele>
        <time>2022-10-20T06:29:10.000Z</time>
      </trkpt>
      <trkpt lat="27.803437" lon="86.709754">
        <ele>3405</ele>
        <time>2022-10-20T06:29:12.000Z</time>
      </trkpt>
      <trkpt lat="27.80343" lon="86.709773">
        <ele>3405.2</ele>
        <time>2022-10-20T06:29:15.000Z</time>
      </trkpt>
      <trkpt lat="27.803421" lon="86.709792">
        <ele>3405.2</ele>
        <time>2022-10-20T06:29:18.000Z</time>
      </trkpt>
      <trkpt lat="27.804573" lon="86.708858">
        <ele>3443</ele>
        <time>2022-10-21T02:19:21.000Z</time>
      </trkpt>
      <trkpt lat="27.804595" lon="86.708864">
        <ele>3443.2</ele>
        <time>2022-10-21T02:19:24.000Z</time>
      </trkpt>
      <trkpt lat="27.804618" lon="86.708877">
        <ele>3443.6</ele>
        <time>2022-10-21T02:19:27.000Z</time>
      </trkpt>
      <trkpt lat="27.804637" lon="86.708877">
        <ele>3444.2</ele>
        <time>2022-10-21T02:19:30.000Z</time>
      </trkpt>
      <trkpt lat="27.804656" lon="86.708883">
        <ele>3444.8</ele>
        <time>2022-10-21T02:19:34.000Z</time>
      </trkpt>
      <trkpt lat="27.804678" lon="86.708902">
        <ele>3445.6</ele>
        <time>2022-10-21T02:19:37.000Z</time>
      </trkpt>
      <trkpt lat="27.804698" lon="86.708922">
        <ele>3446.4</ele>
        <time>2022-10-21T02:19:41.000Z</time>
      </trkpt>
      <trkpt lat="27.804717" lon="86.708928">
        <ele>3447</ele>
        <time>2022-10-21T02:19:45.000Z</time>
      </trkpt>
      <trkpt lat="27.804733" lon="86.708947">
        <ele>3447.6</ele>
        <time>2022-10-21T02:19:48.000Z</time>
      </trkpt>
      <trkpt lat="27.804746" lon="86.708966">
        <ele>3447.8</ele>
        <time>2022-10-21T02:19:52.000Z</time>
      </trkpt>
      <trkpt lat="27.804752" lon="86.708986">
        <ele>3448.2</ele>
        <time>2022-10-21T02:19:54.000Z</time>
      </trkpt>
      <trkpt lat="27.804768" lon="86.708998">
        <ele>3450</ele>
        <time>2022-10-21T02:20:03.000Z</time>
      </trkpt>
      <trkpt lat="27.804787" lon="86.709005">
        <ele>3450.4</ele>
        <time>2022-10-21T02:20:07.000Z</time>
      </trkpt>
      <trkpt lat="27.804806" lon="86.708998">
        <ele>3451.4</ele>
        <time>2022-10-21T02:20:13.000Z</time>
      </trkpt>
      <trkpt lat="27.804826" lon="86.708998">
        <ele>3451.4</ele>
        <time>2022-10-21T02:20:16.000Z</time>
      </trkpt>
      <trkpt lat="27.804845" lon="86.709005">
        <ele>3452.2</ele>
        <time>2022-10-21T02:20:20.000Z</time>
      </trkpt>
      <trkpt lat="27.804854" lon="86.709024">
        <ele>3452.8</ele>
        <time>2022-10-21T02:20:24.000Z</time>
      </trkpt>
      <trkpt lat="27.804874" lon="86.709037">
        <ele>3453.8</ele>
        <time>2022-10-21T02:20:30.000Z</time>
      </trkpt>
      <trkpt lat="27.804893" lon="86.709037">
        <ele>3454</ele>
        <time>2022-10-21T02:20:33.000Z</time>
      </trkpt>
      <trkpt lat="27.804912" lon="86.709056">
        <ele>3454.4</ele>
        <time>2022-10-21T02:20:37.000Z</time>
      </trkpt>
      <trkpt lat="27.804928" lon="86.709069">
        <ele>3455</ele>
        <time>2022-10-21T02:20:42.000Z</time>
      </trkpt>
      <trkpt lat="27.80495" lon="86.709082">
        <ele>3455.4</ele>
        <time>2022-10-21T02:20:46.000Z</time>
      </trkpt>
      <trkpt lat="27.804973" lon="86.709082">
        <ele>3456.2</ele>
        <time>2022-10-21T02:20:52.000Z</time>
      </trkpt>
      <trkpt lat="27.804992" lon="86.709082">
        <ele>3456.8</ele>
        <time>2022-10-21T02:20:57.000Z</time>
      </trkpt>
      <trkpt lat="27.805011" lon="86.709082">
        <ele>3458</ele>
        <time>2022-10-21T02:21:05.000Z</time>
      </trkpt>
      <trkpt lat="27.80503" lon="86.709082">
        <ele>3458.4</ele>
        <time>2022-10-21T02:21:09.000Z</time>
      </trkpt>
      <trkpt lat="27.80505" lon="86.709088">
        <ele>3459.4</ele>
        <time>2022-10-21T02:21:16.000Z</time>
      </trkpt>
      <trkpt lat="27.805069" lon="86.709082">
        <ele>3459.8</ele>
        <time>2022-10-21T02:21:21.000Z</time>
      </trkpt>
      <trkpt lat="27.805088" lon="86.709082">
        <ele>3460.6</ele>
        <time>2022-10-21T02:21:26.000Z</time>
      </trkpt>
      <trkpt lat="27.80511" lon="86.709088">
        <ele>3461.4</ele>
        <time>2022-10-21T02:21:30.000Z</time>
      </trkpt>
      <trkpt lat="27.80513" lon="86.709101">
        <ele>3462</ele>
        <time>2022-10-21T02:21:36.000Z</time>
      </trkpt>
      <trkpt lat="27.805149" lon="86.709107">
        <ele>3462.2</ele>
        <time>2022-10-21T02:21:42.000Z</time>
      </trkpt>
      <trkpt lat="27.805155" lon="86.709088">
        <ele>3463.8</ele>
        <time>2022-10-21T02:21:53.000Z</time>
      </trkpt>
      <trkpt lat="27.805149" lon="86.709069">
        <ele>3465.8</ele>
        <time>2022-10-21T02:22:21.000Z</time>
      </trkpt>
      <trkpt lat="27.805123" lon="86.709056">
        <ele>3466</ele>
        <time>2022-10-21T02:22:23.000Z</time>
      </trkpt>
      <trkpt lat="27.80511" lon="86.709037">
        <ele>3466</ele>
        <time>2022-10-21T02:22:24.000Z</time>
      </trkpt>
      <trkpt lat="27.805085" lon="86.709018">
        <ele>3466.2</ele>
        <time>2022-10-21T02:22:26.000Z</time>
      </trkpt>
      <trkpt lat="27.805059" lon="86.709005">
        <ele>3466</ele>
        <time>2022-10-21T02:22:28.000Z</time>
      </trkpt>
      <trkpt lat="27.805034" lon="86.708992">
        <ele>3466.2</ele>
        <time>2022-10-21T02:22:30.000Z</time>
      </trkpt>
      <trkpt lat="27.805018" lon="86.708979">
        <ele>3466.4</ele>
        <time>2022-10-21T02:22:33.000Z</time>
      </trkpt>
      <trkpt lat="27.805008" lon="86.70896">
        <ele>3466.8</ele>
        <time>2022-10-21T02:22:35.000Z</time>
      </trkpt>
      <trkpt lat="27.804989" lon="86.708954">
        <ele>3467</ele>
        <time>2022-10-21T02:22:40.000Z</time>
      </trkpt>
      <trkpt lat="27.804986" lon="86.708928">
        <ele>3467</ele>
        <time>2022-10-21T02:22:43.000Z</time>
      </trkpt>
      <trkpt lat="27.804966" lon="86.708922">
        <ele>3468</ele>
        <time>2022-10-21T02:22:48.000Z</time>
      </trkpt>
      <trkpt lat="27.804973" lon="86.708902">
        <ele>3468.4</ele>
        <time>2022-10-21T02:22:56.000Z</time>
      </trkpt>
      <trkpt lat="27.804966" lon="86.708883">
        <ele>3468.8</ele>
        <time>2022-10-21T02:22:58.000Z</time>
      </trkpt>
      <trkpt lat="27.804947" lon="86.70887">
        <ele>3468.8</ele>
        <time>2022-10-21T02:23:01.000Z</time>
      </trkpt>
      <trkpt lat="27.804931" lon="86.708858">
        <ele>3469</ele>
        <time>2022-10-21T02:23:03.000Z</time>
      </trkpt>
      <trkpt lat="27.804925" lon="86.708832">
        <ele>3469.4</ele>
        <time>2022-10-21T02:23:05.000Z</time>
      </trkpt>
      <trkpt lat="27.804912" lon="86.708806">
        <ele>3469.8</ele>
        <time>2022-10-21T02:23:09.000Z</time>
      </trkpt>
      <trkpt lat="27.804896" lon="86.708794">
        <ele>3469.8</ele>
        <time>2022-10-21T02:23:11.000Z</time>
      </trkpt>
      <trkpt lat="27.80489" lon="86.708768">
        <ele>3469.8</ele>
        <time>2022-10-21T02:23:13.000Z</time>
      </trkpt>
      <trkpt lat="27.804874" lon="86.708749">
        <ele>3470</ele>
        <time>2022-10-21T02:23:16.000Z</time>
      </trkpt>
      <trkpt lat="27.804864" lon="86.70873">
        <ele>3470.2</ele>
        <time>2022-10-21T02:23:19.000Z</time>
      </trkpt>
      <trkpt lat="27.804854" lon="86.70871">
        <ele>3470.8</ele>
        <time>2022-10-21T02:23:21.000Z</time>
      </trkpt>
      <trkpt lat="27.804851" lon="86.708685">
        <ele>3471.2</ele>
        <time>2022-10-21T02:23:25.000Z</time>
      </trkpt>
      <trkpt lat="27.804858" lon="86.708659">
        <ele>3471.4</ele>
        <time>2022-10-21T02:23:27.000Z</time>
      </trkpt>
      <trkpt lat="27.804858" lon="86.708634">
        <ele>3472</ele>
        <time>2022-10-21T02:23:31.000Z</time>
      </trkpt>
      <trkpt lat="27.804854" lon="86.708608">
        <ele>3472.2</ele>
        <time>2022-10-21T02:23:33.000Z</time>
      </trkpt>
      <trkpt lat="27.804845" lon="86.708589">
        <ele>3473.4</ele>
        <time>2022-10-21T02:23:37.000Z</time>
      </trkpt>
      <trkpt lat="27.804842" lon="86.708563">
        <ele>3473.8</ele>
        <time>2022-10-21T02:23:41.000Z</time>
      </trkpt>
      <trkpt lat="27.804832" lon="86.708544">
        <ele>3474.8</ele>
        <time>2022-10-21T02:23:45.000Z</time>
      </trkpt>
      <trkpt lat="27.804835" lon="86.708518">
        <ele>3475</ele>
        <time>2022-10-21T02:23:48.000Z</time>
      </trkpt>
      <trkpt lat="27.804822" lon="86.708499">
        <ele>3475.6</ele>
        <time>2022-10-21T02:23:54.000Z</time>
      </trkpt>
      <trkpt lat="27.804816" lon="86.708474">
        <ele>3476.2</ele>
        <time>2022-10-21T02:23:59.000Z</time>
      </trkpt>
      <trkpt lat="27.804832" lon="86.708461">
        <ele>3476</ele>
        <time>2022-10-21T02:24:03.000Z</time>
      </trkpt>
      <trkpt lat="27.804835" lon="86.708486">
        <ele>3475.6</ele>
        <time>2022-10-21T02:24:10.000Z</time>
      </trkpt>
      <trkpt lat="27.804858" lon="86.708474">
        <ele>3477</ele>
        <time>2022-10-21T02:24:51.000Z</time>
      </trkpt>
      <trkpt lat="27.804886" lon="86.708486">
        <ele>3477.8</ele>
        <time>2022-10-21T02:24:53.000Z</time>
      </trkpt>
      <trkpt lat="27.804912" lon="86.708506">
        <ele>3477.8</ele>
        <time>2022-10-21T02:24:55.000Z</time>
      </trkpt>
      <trkpt lat="27.804941" lon="86.708512">
        <ele>3478</ele>
        <time>2022-10-21T02:24:57.000Z</time>
      </trkpt>
      <trkpt lat="27.804966" lon="86.708518">
        <ele>3478.6</ele>
        <time>2022-10-21T02:24:59.000Z</time>
      </trkpt>
      <trkpt lat="27.804982" lon="86.708531">
        <ele>3478.8</ele>
        <time>2022-10-21T02:25:01.000Z</time>
      </trkpt>
      <trkpt lat="27.805002" lon="86.708544">
        <ele>3480</ele>
        <time>2022-10-21T02:25:04.000Z</time>
      </trkpt>
      <trkpt lat="27.805018" lon="86.708557">
        <ele>3480.4</ele>
        <time>2022-10-21T02:25:07.000Z</time>
      </trkpt>
      <trkpt lat="27.805043" lon="86.70857">
        <ele>3480.8</ele>
        <time>2022-10-21T02:25:11.000Z</time>
      </trkpt>
      <trkpt lat="27.805062" lon="86.708582">
        <ele>3481.4</ele>
        <time>2022-10-21T02:25:14.000Z</time>
      </trkpt>
      <trkpt lat="27.805085" lon="86.708595">
        <ele>3482.2</ele>
        <time>2022-10-21T02:25:17.000Z</time>
      </trkpt>
      <trkpt lat="27.805107" lon="86.708602">
        <ele>3482.2</ele>
        <time>2022-10-21T02:25:20.000Z</time>
      </trkpt>
      <trkpt lat="27.805133" lon="86.708621">
        <ele>3482.8</ele>
        <time>2022-10-21T02:25:23.000Z</time>
      </trkpt>
      <trkpt lat="27.805149" lon="86.708634">
        <ele>3482.8</ele>
        <time>2022-10-21T02:25:25.000Z</time>
      </trkpt>
      <trkpt lat="27.805165" lon="86.708659">
        <ele>3482.8</ele>
        <time>2022-10-21T02:25:28.000Z</time>
      </trkpt>
      <trkpt lat="27.805184" lon="86.708678">
        <ele>3482.6</ele>
        <time>2022-10-21T02:25:31.000Z</time>
      </trkpt>
      <trkpt lat="27.805194" lon="86.708698">
        <ele>3482.6</ele>
        <time>2022-10-21T02:25:33.000Z</time>
      </trkpt>
      <trkpt lat="27.80521" lon="86.70871">
        <ele>3483</ele>
        <time>2022-10-21T02:25:35.000Z</time>
      </trkpt>
      <trkpt lat="27.805216" lon="86.70873">
        <ele>3482.2</ele>
        <time>2022-10-21T02:25:37.000Z</time>
      </trkpt>
      <trkpt lat="27.805232" lon="86.708755">
        <ele>3482.8</ele>
        <time>2022-10-21T02:25:39.000Z</time>
      </trkpt>
      <trkpt lat="27.805248" lon="86.708768">
        <ele>3482.2</ele>
        <time>2022-10-21T02:25:41.000Z</time>
      </trkpt>
      <trkpt lat="27.80527" lon="86.708787">
        <ele>3481.6</ele>
        <time>2022-10-21T02:25:43.000Z</time>
      </trkpt>
      <trkpt lat="27.805293" lon="86.7088">
        <ele>3482</ele>
        <time>2022-10-21T02:25:46.000Z</time>
      </trkpt>
      <trkpt lat="27.805322" lon="86.708806">
        <ele>3482</ele>
        <time>2022-10-21T02:25:49.000Z</time>
      </trkpt>
      <trkpt lat="27.805334" lon="86.708826">
        <ele>3482.2</ele>
        <time>2022-10-21T02:25:51.000Z</time>
      </trkpt>
      <trkpt lat="27.805357" lon="86.708838">
        <ele>3482.2</ele>
        <time>2022-10-21T02:25:53.000Z</time>
      </trkpt>
      <trkpt lat="27.805379" lon="86.708845">
        <ele>3483</ele>
        <time>2022-10-21T02:25:56.000Z</time>
      </trkpt>
      <trkpt lat="27.805389" lon="86.708864">
        <ele>3483.2</ele>
        <time>2022-10-21T02:25:58.000Z</time>
      </trkpt>
      <trkpt lat="27.805408" lon="86.708877">
        <ele>3483.4</ele>
        <time>2022-10-21T02:26:01.000Z</time>
      </trkpt>
      <trkpt lat="27.805421" lon="86.708902">
        <ele>3484</ele>
        <time>2022-10-21T02:26:04.000Z</time>
      </trkpt>
      <trkpt lat="27.805437" lon="86.708915">
        <ele>3484.2</ele>
        <time>2022-10-21T02:26:06.000Z</time>
      </trkpt>
      <trkpt lat="27.805453" lon="86.708928">
        <ele>3484.6</ele>
        <time>2022-10-21T02:26:08.000Z</time>
      </trkpt>
      <trkpt lat="27.805466" lon="86.708947">
        <ele>3484.8</ele>
        <time>2022-10-21T02:26:10.000Z</time>
      </trkpt>
      <trkpt lat="27.805488" lon="86.70896">
        <ele>3485.2</ele>
        <time>2022-10-21T02:26:13.000Z</time>
      </trkpt>
      <trkpt lat="27.805501" lon="86.708979">
        <ele>3485.2</ele>
        <time>2022-10-21T02:26:15.000Z</time>
      </trkpt>
      <trkpt lat="27.805523" lon="86.708992">
        <ele>3485.4</ele>
        <time>2022-10-21T02:26:18.000Z</time>
      </trkpt>
      <trkpt lat="27.805542" lon="86.709005">
        <ele>3485.6</ele>
        <time>2022-10-21T02:26:20.000Z</time>
      </trkpt>
      <trkpt lat="27.805558" lon="86.709024">
        <ele>3485.8</ele>
        <time>2022-10-21T02:26:22.000Z</time>
      </trkpt>
      <trkpt lat="27.805578" lon="86.70903">
        <ele>3486.4</ele>
        <time>2022-10-21T02:26:25.000Z</time>
      </trkpt>
      <trkpt lat="27.8056" lon="86.709056">
        <ele>3486.6</ele>
        <time>2022-10-21T02:26:28.000Z</time>
      </trkpt>
      <trkpt lat="27.805619" lon="86.709075">
        <ele>3487.2</ele>
        <time>2022-10-21T02:26:32.000Z</time>
      </trkpt>
      <trkpt lat="27.805638" lon="86.709082">
        <ele>3487.4</ele>
        <time>2022-10-21T02:26:35.000Z</time>
      </trkpt>
      <trkpt lat="27.805651" lon="86.709101">
        <ele>3488</ele>
        <time>2022-10-21T02:26:37.000Z</time>
      </trkpt>
      <trkpt lat="27.80567" lon="86.709107">
        <ele>3488.2</ele>
        <time>2022-10-21T02:26:41.000Z</time>
      </trkpt>
      <trkpt lat="27.805686" lon="86.70912">
        <ele>3488.6</ele>
        <time>2022-10-21T02:26:44.000Z</time>
      </trkpt>
      <trkpt lat="27.805699" lon="86.709139">
        <ele>3489.2</ele>
        <time>2022-10-21T02:26:47.000Z</time>
      </trkpt>
      <trkpt lat="27.805715" lon="86.709158">
        <ele>3489.6</ele>
        <time>2022-10-21T02:26:50.000Z</time>
      </trkpt>
      <trkpt lat="27.805728" lon="86.709178">
        <ele>3490</ele>
        <time>2022-10-21T02:26:52.000Z</time>
      </trkpt>
      <trkpt lat="27.805744" lon="86.709165">
        <ele>3490.8</ele>
        <time>2022-10-21T02:27:28.000Z</time>
      </trkpt>
      <trkpt lat="27.80576" lon="86.709184">
        <ele>3491.2</ele>
        <time>2022-10-21T02:27:30.000Z</time>
      </trkpt>
      <trkpt lat="27.805786" lon="86.709197">
        <ele>3491.6</ele>
        <time>2022-10-21T02:27:33.000Z</time>
      </trkpt>
      <trkpt lat="27.805808" lon="86.709197">
        <ele>3492</ele>
        <time>2022-10-21T02:27:36.000Z</time>
      </trkpt>
      <trkpt lat="27.805821" lon="86.709216">
        <ele>3492.6</ele>
        <time>2022-10-21T02:27:38.000Z</time>
      </trkpt>
      <trkpt lat="27.805846" lon="86.709222">
        <ele>3492.6</ele>
        <time>2022-10-21T02:27:42.000Z</time>
      </trkpt>
      <trkpt lat="27.805866" lon="86.709222">
        <ele>3493.2</ele>
        <time>2022-10-21T02:27:45.000Z</time>
      </trkpt>
      <trkpt lat="27.805885" lon="86.709229">
        <ele>3493.6</ele>
        <time>2022-10-21T02:27:48.000Z</time>
      </trkpt>
      <trkpt lat="27.805904" lon="86.709235">
        <ele>3493.8</ele>
        <time>2022-10-21T02:27:51.000Z</time>
      </trkpt>
      <trkpt lat="27.805926" lon="86.709242">
        <ele>3494.8</ele>
        <time>2022-10-21T02:27:55.000Z</time>
      </trkpt>
      <trkpt lat="27.805946" lon="86.709254">
        <ele>3495</ele>
        <time>2022-10-21T02:27:58.000Z</time>
      </trkpt>
      <trkpt lat="27.805968" lon="86.709261">
        <ele>3495.6</ele>
        <time>2022-10-21T02:28:01.000Z</time>
      </trkpt>
      <trkpt lat="27.80599" lon="86.709274">
        <ele>3496</ele>
        <time>2022-10-21T02:28:05.000Z</time>
      </trkpt>
      <trkpt lat="27.80601" lon="86.709274">
        <ele>3496.6</ele>
        <time>2022-10-21T02:28:08.000Z</time>
      </trkpt>
      <trkpt lat="27.806029" lon="86.709274">
        <ele>3496.6</ele>
        <time>2022-10-21T02:28:10.000Z</time>
      </trkpt>
      <trkpt lat="27.806045" lon="86.709286">
        <ele>3497</ele>
        <time>2022-10-21T02:28:12.000Z</time>
      </trkpt>
      <trkpt lat="27.806061" lon="86.709299">
        <ele>3497.4</ele>
        <time>2022-10-21T02:28:15.000Z</time>
      </trkpt>
      <trkpt lat="27.80608" lon="86.709312">
        <ele>3497.8</ele>
        <time>2022-10-21T02:28:18.000Z</time>
      </trkpt>
      <trkpt lat="27.806102" lon="86.709338">
        <ele>3498.4</ele>
        <time>2022-10-21T02:28:21.000Z</time>
      </trkpt>
      <trkpt lat="27.806125" lon="86.709344">
        <ele>3499.2</ele>
        <time>2022-10-21T02:28:26.000Z</time>
      </trkpt>
      <trkpt lat="27.806144" lon="86.709357">
        <ele>3500</ele>
        <time>2022-10-21T02:28:29.000Z</time>
      </trkpt>
      <trkpt lat="27.806163" lon="86.709376">
        <ele>3500.2</ele>
        <time>2022-10-21T02:28:33.000Z</time>
      </trkpt>
      <trkpt lat="27.806182" lon="86.709382">
        <ele>3501.4</ele>
        <time>2022-10-21T02:28:44.000Z</time>
      </trkpt>
      <trkpt lat="27.806234" lon="86.709402">
        <ele>3502.2</ele>
        <time>2022-10-21T02:29:23.000Z</time>
      </trkpt>
      <trkpt lat="27.806246" lon="86.709421">
        <ele>3502.4</ele>
        <time>2022-10-21T02:29:24.000Z</time>
      </trkpt>
      <trkpt lat="27.806272" lon="86.709434">
        <ele>3502.6</ele>
        <time>2022-10-21T02:29:26.000Z</time>
      </trkpt>
      <trkpt lat="27.806285" lon="86.709453">
        <ele>3502.6</ele>
        <time>2022-10-21T02:29:27.000Z</time>
      </trkpt>
      <trkpt lat="27.806307" lon="86.709466">
        <ele>3503</ele>
        <time>2022-10-21T02:29:29.000Z</time>
      </trkpt>
      <trkpt lat="27.806336" lon="86.709478">
        <ele>3503</ele>
        <time>2022-10-21T02:29:31.000Z</time>
      </trkpt>
      <trkpt lat="27.806352" lon="86.709498">
        <ele>3503</ele>
        <time>2022-10-21T02:29:33.000Z</time>
      </trkpt>
      <trkpt lat="27.806371" lon="86.70951">
        <ele>3503.6</ele>
        <time>2022-10-21T02:29:36.000Z</time>
      </trkpt>
      <trkpt lat="27.80639" lon="86.709523">
        <ele>3503.8</ele>
        <time>2022-10-21T02:29:39.000Z</time>
      </trkpt>
      <trkpt lat="27.806406" lon="86.709536">
        <ele>3504.2</ele>
        <time>2022-10-21T02:29:42.000Z</time>
      </trkpt>
      <trkpt lat="27.806419" lon="86.709555">
        <ele>3504.6</ele>
        <time>2022-10-21T02:29:45.000Z</time>
      </trkpt>
      <trkpt lat="27.806442" lon="86.709562">
        <ele>3504.8</ele>
        <time>2022-10-21T02:29:48.000Z</time>
      </trkpt>
      <trkpt lat="27.806464" lon="86.709581">
        <ele>3505.4</ele>
        <time>2022-10-21T02:29:52.000Z</time>
      </trkpt>
      <trkpt lat="27.806486" lon="86.709587">
        <ele>3506</ele>
        <time>2022-10-21T02:29:56.000Z</time>
      </trkpt>
      <trkpt lat="27.806496" lon="86.709613">
        <ele>3506.4</ele>
        <time>2022-10-21T02:29:59.000Z</time>
      </trkpt>
      <trkpt lat="27.806512" lon="86.709626">
        <ele>3507.2</ele>
        <time>2022-10-21T02:30:02.000Z</time>
      </trkpt>
      <trkpt lat="27.806528" lon="86.709638">
        <ele>3508</ele>
        <time>2022-10-21T02:30:07.000Z</time>
      </trkpt>
      <trkpt lat="27.806547" lon="86.709651">
        <ele>3509</ele>
        <time>2022-10-21T02:30:17.000Z</time>
      </trkpt>
      <trkpt lat="27.80657" lon="86.709664">
        <ele>3509.2</ele>
        <time>2022-10-21T02:30:23.000Z</time>
      </trkpt>
      <trkpt lat="27.806586" lon="86.709683">
        <ele>3510</ele>
        <time>2022-10-21T02:30:28.000Z</time>
      </trkpt>
      <trkpt lat="27.806592" lon="86.709702">
        <ele>3510.2</ele>
        <time>2022-10-21T02:30:30.000Z</time>
      </trkpt>
      <trkpt lat="27.806602" lon="86.709722">
        <ele>3510.8</ele>
        <time>2022-10-21T02:30:34.000Z</time>
      </trkpt>
      <trkpt lat="27.806611" lon="86.709741">
        <ele>3511.2</ele>
        <time>2022-10-21T02:30:37.000Z</time>
      </trkpt>
      <trkpt lat="27.806624" lon="86.70976">
        <ele>3511.4</ele>
        <time>2022-10-21T02:30:41.000Z</time>
      </trkpt>
      <trkpt lat="27.80663" lon="86.709779">
        <ele>3511.8</ele>
        <time>2022-10-21T02:30:44.000Z</time>
      </trkpt>
      <trkpt lat="27.806653" lon="86.709798">
        <ele>3512.4</ele>
        <time>2022-10-21T02:30:47.000Z</time>
      </trkpt>
      <trkpt lat="27.806662" lon="86.709818">
        <ele>3512.6</ele>
        <time>2022-10-21T02:30:49.000Z</time>
      </trkpt>
      <trkpt lat="27.806669" lon="86.709837">
        <ele>3513.2</ele>
        <time>2022-10-21T02:30:54.000Z</time>
      </trkpt>
      <trkpt lat="27.806682" lon="86.709856">
        <ele>3514.2</ele>
        <time>2022-10-21T02:30:57.000Z</time>
      </trkpt>
      <trkpt lat="27.806698" lon="86.709869">
        <ele>3514.6</ele>
        <time>2022-10-21T02:31:02.000Z</time>
      </trkpt>
      <trkpt lat="27.806723" lon="86.709882">
        <ele>3516.6</ele>
        <time>2022-10-21T02:32:35.000Z</time>
      </trkpt>
      <trkpt lat="27.806739" lon="86.709894">
        <ele>3516.6</ele>
        <time>2022-10-21T02:32:37.000Z</time>
      </trkpt>
      <trkpt lat="27.806758" lon="86.709907">
        <ele>3517</ele>
        <time>2022-10-21T02:32:39.000Z</time>
      </trkpt>
      <trkpt lat="27.806774" lon="86.70992">
        <ele>3517</ele>
        <time>2022-10-21T02:32:41.000Z</time>
      </trkpt>
      <trkpt lat="27.80679" lon="86.709939">
        <ele>3517.8</ele>
        <time>2022-10-21T02:32:43.000Z</time>
      </trkpt>
      <trkpt lat="27.806806" lon="86.709958">
        <ele>3517.8</ele>
        <time>2022-10-21T02:32:48.000Z</time>
      </trkpt>
      <trkpt lat="27.806822" lon="86.709971">
        <ele>3518.6</ele>
        <time>2022-10-21T02:32:52.000Z</time>
      </trkpt>
      <trkpt lat="27.806829" lon="86.70999">
        <ele>3519.2</ele>
        <time>2022-10-21T02:32:56.000Z</time>
      </trkpt>
      <trkpt lat="27.806848" lon="86.71001">
        <ele>3519.6</ele>
        <time>2022-10-21T02:33:01.000Z</time>
      </trkpt>
      <trkpt lat="27.806867" lon="86.710022">
        <ele>3520.4</ele>
        <time>2022-10-21T02:33:06.000Z</time>
      </trkpt>
      <trkpt lat="27.806886" lon="86.710029">
        <ele>3521.2</ele>
        <time>2022-10-21T02:33:10.000Z</time>
      </trkpt>
      <trkpt lat="27.806906" lon="86.710035">
        <ele>3521.6</ele>
        <time>2022-10-21T02:33:14.000Z</time>
      </trkpt>
      <trkpt lat="27.806909" lon="86.710061">
        <ele>3521.8</ele>
        <time>2022-10-21T02:33:17.000Z</time>
      </trkpt>
      <trkpt lat="27.806928" lon="86.710061">
        <ele>3523.6</ele>
        <time>2022-10-21T02:33:48.000Z</time>
      </trkpt>
      <trkpt lat="27.80695" lon="86.71008">
        <ele>3524.2</ele>
        <time>2022-10-21T02:33:50.000Z</time>
      </trkpt>
      <trkpt lat="27.806973" lon="86.710106">
        <ele>3524.6</ele>
        <time>2022-10-21T02:33:52.000Z</time>
      </trkpt>
      <trkpt lat="27.806989" lon="86.710118">
        <ele>3524.8</ele>
        <time>2022-10-21T02:33:54.000Z</time>
      </trkpt>
      <trkpt lat="27.807008" lon="86.710144">
        <ele>3525</ele>
        <time>2022-10-21T02:33:56.000Z</time>
      </trkpt>
      <trkpt lat="27.807024" lon="86.71017">
        <ele>3525.4</ele>
        <time>2022-10-21T02:34:00.000Z</time>
      </trkpt>
      <trkpt lat="27.807043" lon="86.710189">
        <ele>3526</ele>
        <time>2022-10-21T02:34:04.000Z</time>
      </trkpt>
      <trkpt lat="27.80705" lon="86.710208">
        <ele>3526.2</ele>
        <time>2022-10-21T02:34:06.000Z</time>
      </trkpt>
      <trkpt lat="27.807059" lon="86.710227">
        <ele>3527.2</ele>
        <time>2022-10-21T02:34:12.000Z</time>
      </trkpt>
      <trkpt lat="27.807066" lon="86.710253">
        <ele>3527.6</ele>
        <time>2022-10-21T02:34:16.000Z</time>
      </trkpt>
      <trkpt lat="27.807072" lon="86.710272">
        <ele>3528.4</ele>
        <time>2022-10-21T02:34:20.000Z</time>
      </trkpt>
      <trkpt lat="27.807085" lon="86.710291">
        <ele>3529.2</ele>
        <time>2022-10-21T02:34:24.000Z</time>
      </trkpt>
      <trkpt lat="27.807094" lon="86.71031">
        <ele>3529.4</ele>
        <time>2022-10-21T02:34:28.000Z</time>
      </trkpt>
      <trkpt lat="27.807104" lon="86.71033">
        <ele>3529.8</ele>
        <time>2022-10-21T02:34:31.000Z</time>
      </trkpt>
      <trkpt lat="27.807126" lon="86.71033">
        <ele>3531.2</ele>
        <time>2022-10-21T02:34:45.000Z</time>
      </trkpt>
      <trkpt lat="27.80713" lon="86.710304">
        <ele>3532.2</ele>
        <time>2022-10-21T02:34:51.000Z</time>
      </trkpt>
      <trkpt lat="27.807139" lon="86.710189">
        <ele>3536.2</ele>
        <time>2022-10-21T02:36:28.000Z</time>
      </trkpt>
      <trkpt lat="27.807149" lon="86.710208">
        <ele>3537</ele>
        <time>2022-10-21T02:36:30.000Z</time>
      </trkpt>
      <trkpt lat="27.807168" lon="86.710227">
        <ele>3537.2</ele>
        <time>2022-10-21T02:36:34.000Z</time>
      </trkpt>
      <trkpt lat="27.807184" lon="86.710246">
        <ele>3537.2</ele>
        <time>2022-10-21T02:36:36.000Z</time>
      </trkpt>
      <trkpt lat="27.8072" lon="86.710259">
        <ele>3537.6</ele>
        <time>2022-10-21T02:36:40.000Z</time>
      </trkpt>
      <trkpt lat="27.80721" lon="86.710278">
        <ele>3538</ele>
        <time>2022-10-21T02:36:45.000Z</time>
      </trkpt>
      <trkpt lat="27.807229" lon="86.710278">
        <ele>3538.4</ele>
        <time>2022-10-21T02:36:49.000Z</time>
      </trkpt>
      <trkpt lat="27.807245" lon="86.710298">
        <ele>3539.6</ele>
        <time>2022-10-21T02:36:54.000Z</time>
      </trkpt>
      <trkpt lat="27.807248" lon="86.71033">
        <ele>3540.8</ele>
        <time>2022-10-21T02:37:02.000Z</time>
      </trkpt>
      <trkpt lat="27.807248" lon="86.710355">
        <ele>3541.4</ele>
        <time>2022-10-21T02:37:09.000Z</time>
      </trkpt>
      <trkpt lat="27.807258" lon="86.710374">
        <ele>3541.8</ele>
        <time>2022-10-21T02:37:14.000Z</time>
      </trkpt>
      <trkpt lat="27.807277" lon="86.710374">
        <ele>3542.2</ele>
        <time>2022-10-21T02:37:19.000Z</time>
      </trkpt>
      <trkpt lat="27.807286" lon="86.710406">
        <ele>3542.8</ele>
        <time>2022-10-21T02:37:25.000Z</time>
      </trkpt>
      <trkpt lat="27.807286" lon="86.710432">
        <ele>3544.2</ele>
        <time>2022-10-21T02:37:30.000Z</time>
      </trkpt>
      <trkpt lat="27.807286" lon="86.710458">
        <ele>3544</ele>
        <time>2022-10-21T02:37:35.000Z</time>
      </trkpt>
      <trkpt lat="27.807296" lon="86.710477">
        <ele>3545.2</ele>
        <time>2022-10-21T02:37:45.000Z</time>
      </trkpt>
      <trkpt lat="27.807312" lon="86.71049">
        <ele>3546</ele>
        <time>2022-10-21T02:37:52.000Z</time>
      </trkpt>
      <trkpt lat="27.807328" lon="86.710477">
        <ele>3546.6</ele>
        <time>2022-10-21T02:37:58.000Z</time>
      </trkpt>
      <trkpt lat="27.807338" lon="86.710458">
        <ele>3547.2</ele>
        <time>2022-10-21T02:38:04.000Z</time>
      </trkpt>
      <trkpt lat="27.807344" lon="86.710438">
        <ele>3547.4</ele>
        <time>2022-10-21T02:38:07.000Z</time>
      </trkpt>
      <trkpt lat="27.807344" lon="86.710413">
        <ele>3548.4</ele>
        <time>2022-10-21T02:38:16.000Z</time>
      </trkpt>
      <trkpt lat="27.807341" lon="86.710387">
        <ele>3548.6</ele>
        <time>2022-10-21T02:38:21.000Z</time>
      </trkpt>
      <trkpt lat="27.807344" lon="86.710355">
        <ele>3549</ele>
        <time>2022-10-21T02:38:29.000Z</time>
      </trkpt>
      <trkpt lat="27.807347" lon="86.71033">
        <ele>3549.8</ele>
        <time>2022-10-21T02:38:37.000Z</time>
      </trkpt>
      <trkpt lat="27.807357" lon="86.71031">
        <ele>3550.6</ele>
        <time>2022-10-21T02:38:42.000Z</time>
      </trkpt>
      <trkpt lat="27.807366" lon="86.710291">
        <ele>3551</ele>
        <time>2022-10-21T02:38:48.000Z</time>
      </trkpt>
      <trkpt lat="27.80737" lon="86.710266">
        <ele>3551.6</ele>
        <time>2022-10-21T02:38:53.000Z</time>
      </trkpt>
      <trkpt lat="27.807382" lon="86.710246">
        <ele>3552.2</ele>
        <time>2022-10-21T02:38:59.000Z</time>
      </trkpt>
      <trkpt lat="27.807386" lon="86.710221">
        <ele>3553</ele>
        <time>2022-10-21T02:39:04.000Z</time>
      </trkpt>
      <trkpt lat="27.807386" lon="86.710195">
        <ele>3553.8</ele>
        <time>2022-10-21T02:39:10.000Z</time>
      </trkpt>
      <trkpt lat="27.807386" lon="86.71017">
        <ele>3554.2</ele>
        <time>2022-10-21T02:39:16.000Z</time>
      </trkpt>
      <trkpt lat="27.807395" lon="86.71015">
        <ele>3554.4</ele>
        <time>2022-10-21T02:39:21.000Z</time>
      </trkpt>
      <trkpt lat="27.807408" lon="86.710131">
        <ele>3555.2</ele>
        <time>2022-10-21T02:39:27.000Z</time>
      </trkpt>
      <trkpt lat="27.807411" lon="86.710106">
        <ele>3555.6</ele>
        <time>2022-10-21T02:39:33.000Z</time>
      </trkpt>
      <trkpt lat="27.807411" lon="86.71008">
        <ele>3556.4</ele>
        <time>2022-10-21T02:39:38.000Z</time>
      </trkpt>
      <trkpt lat="27.807424" lon="86.710061">
        <ele>3557.4</ele>
        <time>2022-10-21T02:39:45.000Z</time>
      </trkpt>
      <trkpt lat="27.807434" lon="86.710035">
        <ele>3558</ele>
        <time>2022-10-21T02:39:53.000Z</time>
      </trkpt>
      <trkpt lat="27.80745" lon="86.710022">
        <ele>3558.8</ele>
        <time>2022-10-21T02:40:00.000Z</time>
      </trkpt>
      <trkpt lat="27.807456" lon="86.709997">
        <ele>3559.2</ele>
        <time>2022-10-21T02:40:06.000Z</time>
      </trkpt>
      <trkpt lat="27.80744" lon="86.709984">
        <ele>3560.2</ele>
        <time>2022-10-21T02:40:12.000Z</time>
      </trkpt>
      <trkpt lat="27.807443" lon="86.709958">
        <ele>3560.8</ele>
        <time>2022-10-21T02:40:17.000Z</time>
      </trkpt>
      <trkpt lat="27.80745" lon="86.709933">
        <ele>3561.4</ele>
        <time>2022-10-21T02:40:22.000Z</time>
      </trkpt>
      <trkpt lat="27.807469" lon="86.709933">
        <ele>3562</ele>
        <time>2022-10-21T02:40:27.000Z</time>
      </trkpt>
      <trkpt lat="27.807488" lon="86.709946">
        <ele>3562.6</ele>
        <time>2022-10-21T02:40:33.000Z</time>
      </trkpt>
      <trkpt lat="27.807501" lon="86.709971">
        <ele>3563.2</ele>
        <time>2022-10-21T02:40:38.000Z</time>
      </trkpt>
      <trkpt lat="27.807514" lon="86.70999">
        <ele>3564</ele>
        <time>2022-10-21T02:40:44.000Z</time>
      </trkpt>
      <trkpt lat="27.807533" lon="86.71001">
        <ele>3564.8</ele>
        <time>2022-10-21T02:40:49.000Z</time>
      </trkpt>
      <trkpt lat="27.807549" lon="86.710029">
        <ele>3565.2</ele>
        <time>2022-10-21T02:40:53.000Z</time>
      </trkpt>
      <trkpt lat="27.807562" lon="86.710048">
        <ele>3566</ele>
        <time>2022-10-21T02:40:57.000Z</time>
      </trkpt>
      <trkpt lat="27.807568" lon="86.710067">
        <ele>3566</ele>
        <time>2022-10-21T02:41:02.000Z</time>
      </trkpt>
      <trkpt lat="27.807578" lon="86.710093">
        <ele>3566.8</ele>
        <time>2022-10-21T02:41:06.000Z</time>
      </trkpt>
      <trkpt lat="27.807594" lon="86.710106">
        <ele>3566.8</ele>
        <time>2022-10-21T02:41:08.000Z</time>
      </trkpt>
      <trkpt lat="27.8076" lon="86.710131">
        <ele>3567</ele>
        <time>2022-10-21T02:41:13.000Z</time>
      </trkpt>
      <trkpt lat="27.807606" lon="86.71015">
        <ele>3567.4</ele>
        <time>2022-10-21T02:41:16.000Z</time>
      </trkpt>
      <trkpt lat="27.807616" lon="86.71017">
        <ele>3567.8</ele>
        <time>2022-10-21T02:41:20.000Z</time>
      </trkpt>
      <trkpt lat="27.807626" lon="86.710195">
        <ele>3568.2</ele>
        <time>2022-10-21T02:41:25.000Z</time>
      </trkpt>
      <trkpt lat="27.807635" lon="86.710214">
        <ele>3569</ele>
        <time>2022-10-21T02:41:30.000Z</time>
      </trkpt>
      <trkpt lat="27.807645" lon="86.710195">
        <ele>3570.4</ele>
        <time>2022-10-21T02:42:30.000Z</time>
      </trkpt>
      <trkpt lat="27.807651" lon="86.710157">
        <ele>3570.8</ele>
        <time>2022-10-21T02:42:33.000Z</time>
      </trkpt>
      <trkpt lat="27.807658" lon="86.710118">
        <ele>3571</ele>
        <time>2022-10-21T02:42:36.000Z</time>
      </trkpt>
      <trkpt lat="27.807664" lon="86.71008">
        <ele>3571.2</ele>
        <time>2022-10-21T02:42:39.000Z</time>
      </trkpt>
      <trkpt lat="27.807664" lon="86.710054">
        <ele>3572</ele>
        <time>2022-10-21T02:42:44.000Z</time>
      </trkpt>
      <trkpt lat="27.80767" lon="86.710035">
        <ele>3572.4</ele>
        <time>2022-10-21T02:42:47.000Z</time>
      </trkpt>
      <trkpt lat="27.80767" lon="86.71001">
        <ele>3573.4</ele>
        <time>2022-10-21T02:42:53.000Z</time>
      </trkpt>
      <trkpt lat="27.807674" lon="86.709984">
        <ele>3574.4</ele>
        <time>2022-10-21T02:42:57.000Z</time>
      </trkpt>
      <trkpt lat="27.807667" lon="86.709958">
        <ele>3574.2</ele>
        <time>2022-10-21T02:43:01.000Z</time>
      </trkpt>
      <trkpt lat="27.80767" lon="86.709933">
        <ele>3574.8</ele>
        <time>2022-10-21T02:43:06.000Z</time>
      </trkpt>
      <trkpt lat="27.807674" lon="86.709907">
        <ele>3575.6</ele>
        <time>2022-10-21T02:43:11.000Z</time>
      </trkpt>
      <trkpt lat="27.807667" lon="86.709882">
        <ele>3576</ele>
        <time>2022-10-21T02:43:15.000Z</time>
      </trkpt>
      <trkpt lat="27.807667" lon="86.709856">
        <ele>3576.4</ele>
        <time>2022-10-21T02:43:21.000Z</time>
      </trkpt>
      <trkpt lat="27.807658" lon="86.709837">
        <ele>3576.6</ele>
        <time>2022-10-21T02:43:23.000Z</time>
      </trkpt>
      <trkpt lat="27.807648" lon="86.709818">
        <ele>3577</ele>
        <time>2022-10-21T02:43:27.000Z</time>
      </trkpt>
      <trkpt lat="27.807648" lon="86.709792">
        <ele>3577.6</ele>
        <time>2022-10-21T02:43:31.000Z</time>
      </trkpt>
      <trkpt lat="27.807654" lon="86.709773">
        <ele>3578</ele>
        <time>2022-10-21T02:43:35.000Z</time>
      </trkpt>
      <trkpt lat="27.807645" lon="86.709754">
        <ele>3578</ele>
        <time>2022-10-21T02:43:39.000Z</time>
      </trkpt>
      <trkpt lat="27.807638" lon="86.709734">
        <ele>3578.8</ele>
        <time>2022-10-21T02:43:43.000Z</time>
      </trkpt>
      <trkpt lat="27.807632" lon="86.709709">
        <ele>3578.8</ele>
        <time>2022-10-21T02:43:45.000Z</time>
      </trkpt>
      <trkpt lat="27.807632" lon="86.709683">
        <ele>3579.2</ele>
        <time>2022-10-21T02:43:48.000Z</time>
      </trkpt>
      <trkpt lat="27.807629" lon="86.709658">
        <ele>3579.2</ele>
        <time>2022-10-21T02:43:52.000Z</time>
      </trkpt>
      <trkpt lat="27.807626" lon="86.709632">
        <ele>3579.4</ele>
        <time>2022-10-21T02:43:55.000Z</time>
      </trkpt>
      <trkpt lat="27.807619" lon="86.709613">
        <ele>3579.4</ele>
        <time>2022-10-21T02:43:59.000Z</time>
      </trkpt>
      <trkpt lat="27.807613" lon="86.709587">
        <ele>3580.2</ele>
        <time>2022-10-21T02:44:02.000Z</time>
      </trkpt>
      <trkpt lat="27.807616" lon="86.709562">
        <ele>3579.8</ele>
        <time>2022-10-21T02:44:05.000Z</time>
      </trkpt>
      <trkpt lat="27.807603" lon="86.709542">
        <ele>3580.4</ele>
        <time>2022-10-21T02:44:12.000Z</time>
      </trkpt>
      <trkpt lat="27.807597" lon="86.709523">
        <ele>3581.6</ele>
        <time>2022-10-21T02:44:18.000Z</time>
      </trkpt>
      <trkpt lat="27.807597" lon="86.709498">
        <ele>3582.2</ele>
        <time>2022-10-21T02:44:24.000Z</time>
      </trkpt>
      <trkpt lat="27.807594" lon="86.709472">
        <ele>3583.2</ele>
        <time>2022-10-21T02:44:28.000Z</time>
      </trkpt>
      <trkpt lat="27.807587" lon="86.709453">
        <ele>3583.2</ele>
        <time>2022-10-21T02:44:30.000Z</time>
      </trkpt>
      <trkpt lat="27.807578" lon="86.709434">
        <ele>3584.2</ele>
        <time>2022-10-21T02:44:32.000Z</time>
      </trkpt>
      <trkpt lat="27.807568" lon="86.709414">
        <ele>3583.4</ele>
        <time>2022-10-21T02:44:35.000Z</time>
      </trkpt>
      <trkpt lat="27.807571" lon="86.709389">
        <ele>3583.6</ele>
        <time>2022-10-21T02:44:55.000Z</time>
      </trkpt>
      <trkpt lat="27.807562" lon="86.709363">
        <ele>3583.6</ele>
        <time>2022-10-21T02:44:57.000Z</time>
      </trkpt>
      <trkpt lat="27.807549" lon="86.709338">
        <ele>3583.6</ele>
        <time>2022-10-21T02:44:59.000Z</time>
      </trkpt>
      <trkpt lat="27.807536" lon="86.709299">
        <ele>3584.2</ele>
        <time>2022-10-21T02:45:03.000Z</time>
      </trkpt>
      <trkpt lat="27.807539" lon="86.709274">
        <ele>3584.4</ele>
        <time>2022-10-21T02:45:06.000Z</time>
      </trkpt>
      <trkpt lat="27.807526" lon="86.709254">
        <ele>3585.2</ele>
        <time>2022-10-21T02:45:10.000Z</time>
      </trkpt>
      <trkpt lat="27.807514" lon="86.709235">
        <ele>3585.4</ele>
        <time>2022-10-21T02:45:14.000Z</time>
      </trkpt>
      <trkpt lat="27.807494" lon="86.709216">
        <ele>3585.6</ele>
        <time>2022-10-21T02:45:18.000Z</time>
      </trkpt>
      <trkpt lat="27.807475" lon="86.709197">
        <ele>3585.8</ele>
        <time>2022-10-21T02:45:20.000Z</time>
      </trkpt>
      <trkpt lat="27.807459" lon="86.709178">
        <ele>3585.8</ele>
        <time>2022-10-21T02:45:23.000Z</time>
      </trkpt>
      <trkpt lat="27.807456" lon="86.709152">
        <ele>3585.8</ele>
        <time>2022-10-21T02:45:26.000Z</time>
      </trkpt>
      <trkpt lat="27.807443" lon="86.709126">
        <ele>3586.2</ele>
        <time>2022-10-21T02:45:31.000Z</time>
      </trkpt>
      <trkpt lat="27.807427" lon="86.709114">
        <ele>3586.4</ele>
        <time>2022-10-21T02:45:35.000Z</time>
      </trkpt>
      <trkpt lat="27.80743" lon="86.709069">
        <ele>3587.6</ele>
        <time>2022-10-21T02:45:48.000Z</time>
      </trkpt>
      <trkpt lat="27.807424" lon="86.709043">
        <ele>3588.2</ele>
        <time>2022-10-21T02:45:52.000Z</time>
      </trkpt>
      <trkpt lat="27.807418" lon="86.709024">
        <ele>3588.6</ele>
        <time>2022-10-21T02:45:56.000Z</time>
      </trkpt>
      <trkpt lat="27.807414" lon="86.708998">
        <ele>3589.6</ele>
        <time>2022-10-21T02:46:01.000Z</time>
      </trkpt>
      <trkpt lat="27.807395" lon="86.708979">
        <ele>3589.6</ele>
        <time>2022-10-21T02:46:08.000Z</time>
      </trkpt>
      <trkpt lat="27.807379" lon="86.70896">
        <ele>3590</ele>
        <time>2022-10-21T02:46:12.000Z</time>
      </trkpt>
      <trkpt lat="27.80737" lon="86.708941">
        <ele>3590.4</ele>
        <time>2022-10-21T02:46:17.000Z</time>
      </trkpt>
      <trkpt lat="27.80736" lon="86.708922">
        <ele>3591</ele>
        <time>2022-10-21T02:46:22.000Z</time>
      </trkpt>
      <trkpt lat="27.807344" lon="86.708902">
        <ele>3592</ele>
        <time>2022-10-21T02:46:29.000Z</time>
      </trkpt>
      <trkpt lat="27.807347" lon="86.708877">
        <ele>3592.6</ele>
        <time>2022-10-21T02:46:34.000Z</time>
      </trkpt>
      <trkpt lat="27.807341" lon="86.708858">
        <ele>3592.8</ele>
        <time>2022-10-21T02:46:38.000Z</time>
      </trkpt>
      <trkpt lat="27.807331" lon="86.708838">
        <ele>3593.6</ele>
        <time>2022-10-21T02:46:42.000Z</time>
      </trkpt>
      <trkpt lat="27.807315" lon="86.708826">
        <ele>3594.8</ele>
        <time>2022-10-21T02:46:47.000Z</time>
      </trkpt>
      <trkpt lat="27.807315" lon="86.7088">
        <ele>3594</ele>
        <time>2022-10-21T02:46:50.000Z</time>
      </trkpt>
      <trkpt lat="27.807315" lon="86.708768">
        <ele>3594.8</ele>
        <time>2022-10-21T02:46:55.000Z</time>
      </trkpt>
      <trkpt lat="27.807306" lon="86.708749">
        <ele>3595.2</ele>
        <time>2022-10-21T02:46:59.000Z</time>
      </trkpt>
      <trkpt lat="27.807299" lon="86.70873">
        <ele>3596</ele>
        <time>2022-10-21T02:47:03.000Z</time>
      </trkpt>
      <trkpt lat="27.807283" lon="86.70871">
        <ele>3596</ele>
        <time>2022-10-21T02:47:06.000Z</time>
      </trkpt>
      <trkpt lat="27.807267" lon="86.708698">
        <ele>3596.2</ele>
        <time>2022-10-21T02:47:09.000Z</time>
      </trkpt>
      <trkpt lat="27.807261" lon="86.708678">
        <ele>3596.8</ele>
        <time>2022-10-21T02:47:11.000Z</time>
      </trkpt>
      <trkpt lat="27.807248" lon="86.708659">
        <ele>3596.8</ele>
        <time>2022-10-21T02:47:14.000Z</time>
      </trkpt>
      <trkpt lat="27.807235" lon="86.70864">
        <ele>3597</ele>
        <time>2022-10-21T02:47:17.000Z</time>
      </trkpt>
      <trkpt lat="27.807229" lon="86.708621">
        <ele>3597.2</ele>
        <time>2022-10-21T02:47:20.000Z</time>
      </trkpt>
      <trkpt lat="27.807222" lon="86.708595">
        <ele>3598.2</ele>
        <time>2022-10-21T02:47:43.000Z</time>
      </trkpt>
      <trkpt lat="27.807213" lon="86.70857">
        <ele>3598.4</ele>
        <time>2022-10-21T02:47:45.000Z</time>
      </trkpt>
      <trkpt lat="27.807206" lon="86.708544">
        <ele>3599</ele>
        <time>2022-10-21T02:47:48.000Z</time>
      </trkpt>
      <trkpt lat="27.807197" lon="86.708512">
        <ele>3599.2</ele>
        <time>2022-10-21T02:47:50.000Z</time>
      </trkpt>
      <trkpt lat="27.807178" lon="86.708506">
        <ele>3599.6</ele>
        <time>2022-10-21T02:47:53.000Z</time>
      </trkpt>
      <trkpt lat="27.807158" lon="86.708486">
        <ele>3599.8</ele>
        <time>2022-10-21T02:47:56.000Z</time>
      </trkpt>
      <trkpt lat="27.807139" lon="86.708474">
        <ele>3600.2</ele>
        <time>2022-10-21T02:47:59.000Z</time>
      </trkpt>
      <trkpt lat="27.80712" lon="86.708448">
        <ele>3600.6</ele>
        <time>2022-10-21T02:48:03.000Z</time>
      </trkpt>
      <trkpt lat="27.80711" lon="86.708429">
        <ele>3600.8</ele>
        <time>2022-10-21T02:48:06.000Z</time>
      </trkpt>
      <trkpt lat="27.807117" lon="86.70841">
        <ele>3601.4</ele>
        <time>2022-10-21T02:48:10.000Z</time>
      </trkpt>
      <trkpt lat="27.807136" lon="86.708397">
        <ele>3602</ele>
        <time>2022-10-21T02:48:15.000Z</time>
      </trkpt>
      <trkpt lat="27.807158" lon="86.708384">
        <ele>3602.8</ele>
        <time>2022-10-21T02:48:20.000Z</time>
      </trkpt>
      <trkpt lat="27.807162" lon="86.708358">
        <ele>3603.4</ele>
        <time>2022-10-21T02:48:25.000Z</time>
      </trkpt>
      <trkpt lat="27.807158" lon="86.708333">
        <ele>3604</ele>
        <time>2022-10-21T02:48:32.000Z</time>
      </trkpt>
      <trkpt lat="27.807155" lon="86.708307">
        <ele>3604.4</ele>
        <time>2022-10-21T02:48:37.000Z</time>
      </trkpt>
      <trkpt lat="27.807155" lon="86.708282">
        <ele>3605</ele>
        <time>2022-10-21T02:48:41.000Z</time>
      </trkpt>
      <trkpt lat="27.807155" lon="86.70825">
        <ele>3606.4</ele>
        <time>2022-10-21T02:48:46.000Z</time>
      </trkpt>
      <trkpt lat="27.807155" lon="86.708224">
        <ele>3607.4</ele>
        <time>2022-10-21T02:48:52.000Z</time>
      </trkpt>
      <trkpt lat="27.807149" lon="86.708205">
        <ele>3607.6</ele>
        <time>2022-10-21T02:48:54.000Z</time>
      </trkpt>
      <trkpt lat="27.807142" lon="86.708173">
        <ele>3608</ele>
        <time>2022-10-21T02:49:00.000Z</time>
      </trkpt>
      <trkpt lat="27.807133" lon="86.708154">
        <ele>3608.6</ele>
        <time>2022-10-21T02:49:04.000Z</time>
      </trkpt>
      <trkpt lat="27.807162" lon="86.708166">
        <ele>3610</ele>
        <time>2022-10-21T02:53:26.000Z</time>
      </trkpt>
      <trkpt lat="27.80719" lon="86.708173">
        <ele>3610.2</ele>
        <time>2022-10-21T02:53:28.000Z</time>
      </trkpt>
      <trkpt lat="27.807216" lon="86.708173">
        <ele>3610.4</ele>
        <time>2022-10-21T02:53:30.000Z</time>
      </trkpt>
      <trkpt lat="27.807242" lon="86.708186">
        <ele>3610.4</ele>
        <time>2022-10-21T02:53:32.000Z</time>
      </trkpt>
      <trkpt lat="27.807267" lon="86.708186">
        <ele>3610.8</ele>
        <time>2022-10-21T02:53:34.000Z</time>
      </trkpt>
      <trkpt lat="27.807286" lon="86.708192">
        <ele>3610.8</ele>
        <time>2022-10-21T02:53:36.000Z</time>
      </trkpt>
      <trkpt lat="27.807309" lon="86.708198">
        <ele>3611.8</ele>
        <time>2022-10-21T02:53:41.000Z</time>
      </trkpt>
      <trkpt lat="27.807328" lon="86.708211">
        <ele>3612.6</ele>
        <time>2022-10-21T02:53:45.000Z</time>
      </trkpt>
      <trkpt lat="27.807338" lon="86.70823">
        <ele>3612.8</ele>
        <time>2022-10-21T02:53:47.000Z</time>
      </trkpt>
      <trkpt lat="27.807357" lon="86.708237">
        <ele>3613</ele>
        <time>2022-10-21T02:53:50.000Z</time>
      </trkpt>
      <trkpt lat="27.807379" lon="86.708237">
        <ele>3613.2</ele>
        <time>2022-10-21T02:53:53.000Z</time>
      </trkpt>
      <trkpt lat="27.807402" lon="86.70823">
        <ele>3613.8</ele>
        <time>2022-10-21T02:53:57.000Z</time>
      </trkpt>
      <trkpt lat="27.807421" lon="86.70823">
        <ele>3614.2</ele>
        <time>2022-10-21T02:54:01.000Z</time>
      </trkpt>
      <trkpt lat="27.80744" lon="86.70825">
        <ele>3615</ele>
        <time>2022-10-21T02:54:06.000Z</time>
      </trkpt>
      <trkpt lat="27.807459" lon="86.708262">
        <ele>3615.4</ele>
        <time>2022-10-21T02:54:10.000Z</time>
      </trkpt>
      <trkpt lat="27.807478" lon="86.708262">
        <ele>3616</ele>
        <time>2022-10-21T02:54:15.000Z</time>
      </trkpt>
      <trkpt lat="27.807498" lon="86.708269">
        <ele>3616.6</ele>
        <time>2022-10-21T02:54:19.000Z</time>
      </trkpt>
      <trkpt lat="27.807517" lon="86.708269">
        <ele>3617.4</ele>
        <time>2022-10-21T02:54:24.000Z</time>
      </trkpt>
      <trkpt lat="27.807542" lon="86.708275">
        <ele>3617.4</ele>
        <time>2022-10-21T02:54:28.000Z</time>
      </trkpt>
      <trkpt lat="27.807565" lon="86.708269">
        <ele>3617.8</ele>
        <time>2022-10-21T02:54:32.000Z</time>
      </trkpt>
      <trkpt lat="27.807584" lon="86.708269">
        <ele>3618.4</ele>
        <time>2022-10-21T02:54:35.000Z</time>
      </trkpt>
      <trkpt lat="27.807606" lon="86.708269">
        <ele>3619.2</ele>
        <time>2022-10-21T02:54:40.000Z</time>
      </trkpt>
      <trkpt lat="27.807622" lon="86.708282">
        <ele>3619.8</ele>
        <time>2022-10-21T02:54:45.000Z</time>
      </trkpt>
      <trkpt lat="27.807642" lon="86.708282">
        <ele>3619.6</ele>
        <time>2022-10-21T02:54:48.000Z</time>
      </trkpt>
      <trkpt lat="27.807667" lon="86.708282">
        <ele>3620</ele>
        <time>2022-10-21T02:54:52.000Z</time>
      </trkpt>
      <trkpt lat="27.80768" lon="86.708301">
        <ele>3620.6</ele>
        <time>2022-10-21T02:54:56.000Z</time>
      </trkpt>
      <trkpt lat="27.807712" lon="86.708333">
        <ele>3621.6</ele>
        <time>2022-10-21T02:55:03.000Z</time>
      </trkpt>
      <trkpt lat="27.807718" lon="86.708358">
        <ele>3621.8</ele>
        <time>2022-10-21T02:55:07.000Z</time>
      </trkpt>
      <trkpt lat="27.807747" lon="86.70839">
        <ele>3622.8</ele>
        <time>2022-10-21T02:55:13.000Z</time>
      </trkpt>
      <trkpt lat="27.807763" lon="86.70841">
        <ele>3623.4</ele>
        <time>2022-10-21T02:55:18.000Z</time>
      </trkpt>
      <trkpt lat="27.807763" lon="86.708435">
        <ele>3623.8</ele>
        <time>2022-10-21T02:55:21.000Z</time>
      </trkpt>
      <trkpt lat="27.807773" lon="86.708461">
        <ele>3624.6</ele>
        <time>2022-10-21T02:55:27.000Z</time>
      </trkpt>
      <trkpt lat="27.807786" lon="86.708486">
        <ele>3625.2</ele>
        <time>2022-10-21T02:55:32.000Z</time>
      </trkpt>
      <trkpt lat="27.807786" lon="86.708512">
        <ele>3626</ele>
        <time>2022-10-21T02:55:36.000Z</time>
      </trkpt>
      <trkpt lat="27.807792" lon="86.708531">
        <ele>3626.6</ele>
        <time>2022-10-21T02:55:41.000Z</time>
      </trkpt>
      <trkpt lat="27.807795" lon="86.708557">
        <ele>3626.6</ele>
        <time>2022-10-21T02:55:45.000Z</time>
      </trkpt>
      <trkpt lat="27.807798" lon="86.708582">
        <ele>3627.6</ele>
        <time>2022-10-21T02:55:49.000Z</time>
      </trkpt>
      <trkpt lat="27.807802" lon="86.708608">
        <ele>3628</ele>
        <time>2022-10-21T02:55:57.000Z</time>
      </trkpt>
      <trkpt lat="27.807821" lon="86.708627">
        <ele>3628.8</ele>
        <time>2022-10-21T02:56:01.000Z</time>
      </trkpt>
      <trkpt lat="27.80783" lon="86.708646">
        <ele>3629.6</ele>
        <time>2022-10-21T02:56:06.000Z</time>
      </trkpt>
      <trkpt lat="27.807843" lon="86.708666">
        <ele>3629.8</ele>
        <time>2022-10-21T02:56:10.000Z</time>
      </trkpt>
      <trkpt lat="27.807862" lon="86.708685">
        <ele>3630.2</ele>
        <time>2022-10-21T02:56:14.000Z</time>
      </trkpt>
      <trkpt lat="27.807866" lon="86.708704">
        <ele>3630.6</ele>
        <time>2022-10-21T02:56:16.000Z</time>
      </trkpt>
      <trkpt lat="27.807872" lon="86.708723">
        <ele>3631</ele>
        <time>2022-10-21T02:56:20.000Z</time>
      </trkpt>
      <trkpt lat="27.807882" lon="86.708742">
        <ele>3631.8</ele>
        <time>2022-10-21T02:56:23.000Z</time>
      </trkpt>
      <trkpt lat="27.807894" lon="86.708762">
        <ele>3632.4</ele>
        <time>2022-10-21T02:56:28.000Z</time>
      </trkpt>
      <trkpt lat="27.807901" lon="86.708781">
        <ele>3632.6</ele>
        <time>2022-10-21T02:56:31.000Z</time>
      </trkpt>
      <trkpt lat="27.807942" lon="86.708826">
        <ele>3633.2</ele>
        <time>2022-10-21T02:58:59.000Z</time>
      </trkpt>
      <trkpt lat="27.807939" lon="86.7088">
        <ele>3632.4</ele>
        <time>2022-10-21T02:59:02.000Z</time>
      </trkpt>
      <trkpt lat="27.807933" lon="86.708781">
        <ele>3633.2</ele>
        <time>2022-10-21T02:59:09.000Z</time>
      </trkpt>
      <trkpt lat="27.80791" lon="86.708781">
        <ele>3633.8</ele>
        <time>2022-10-21T03:00:26.000Z</time>
      </trkpt>
      <trkpt lat="27.807923" lon="86.7088">
        <ele>3633.6</ele>
        <time>2022-10-21T03:00:28.000Z</time>
      </trkpt>
      <trkpt lat="27.807933" lon="86.708819">
        <ele>3634.2</ele>
        <time>2022-10-21T03:00:30.000Z</time>
      </trkpt>
      <trkpt lat="27.807926" lon="86.708794">
        <ele>3633.2</ele>
        <time>2022-10-21T03:01:08.000Z</time>
      </trkpt>
      <trkpt lat="27.80793" lon="86.708819">
        <ele>3633.4</ele>
        <time>2022-10-21T03:01:16.000Z</time>
      </trkpt>
      <trkpt lat="27.80793" lon="86.708858">
        <ele>3635.2</ele>
        <time>2022-10-21T03:05:26.000Z</time>
      </trkpt>
      <trkpt lat="27.807949" lon="86.708877">
        <ele>3635.2</ele>
        <time>2022-10-21T03:05:28.000Z</time>
      </trkpt>
      <trkpt lat="27.807958" lon="86.708896">
        <ele>3635</ele>
        <time>2022-10-21T03:05:29.000Z</time>
      </trkpt>
      <trkpt lat="27.807978" lon="86.708909">
        <ele>3635</ele>
        <time>2022-10-21T03:05:31.000Z</time>
      </trkpt>
      <trkpt lat="27.808" lon="86.708922">
        <ele>3635.2</ele>
        <time>2022-10-21T03:05:33.000Z</time>
      </trkpt>
      <trkpt lat="27.808019" lon="86.708928">
        <ele>3635</ele>
        <time>2022-10-21T03:05:35.000Z</time>
      </trkpt>
      <trkpt lat="27.808058" lon="86.708915">
        <ele>3635</ele>
        <time>2022-10-21T03:05:40.000Z</time>
      </trkpt>
      <trkpt lat="27.808074" lon="86.708902">
        <ele>3635</ele>
        <time>2022-10-21T03:05:42.000Z</time>
      </trkpt>
      <trkpt lat="27.808093" lon="86.708896">
        <ele>3635.2</ele>
        <time>2022-10-21T03:05:45.000Z</time>
      </trkpt>
      <trkpt lat="27.808115" lon="86.708902">
        <ele>3635.6</ele>
        <time>2022-10-21T03:05:48.000Z</time>
      </trkpt>
      <trkpt lat="27.808134" lon="86.708896">
        <ele>3635.8</ele>
        <time>2022-10-21T03:05:52.000Z</time>
      </trkpt>
      <trkpt lat="27.80817" lon="86.70887">
        <ele>3637.2</ele>
        <time>2022-10-21T03:06:00.000Z</time>
      </trkpt>
      <trkpt lat="27.808189" lon="86.708864">
        <ele>3637.8</ele>
        <time>2022-10-21T03:06:04.000Z</time>
      </trkpt>
      <trkpt lat="27.808208" lon="86.708858">
        <ele>3638</ele>
        <time>2022-10-21T03:06:08.000Z</time>
      </trkpt>
      <trkpt lat="27.808227" lon="86.708864">
        <ele>3638.6</ele>
        <time>2022-10-21T03:06:11.000Z</time>
      </trkpt>
      <trkpt lat="27.80825" lon="86.708858">
        <ele>3639</ele>
        <time>2022-10-21T03:06:16.000Z</time>
      </trkpt>
      <trkpt lat="27.808272" lon="86.708858">
        <ele>3639.6</ele>
        <time>2022-10-21T03:06:20.000Z</time>
      </trkpt>
      <trkpt lat="27.808291" lon="86.708858">
        <ele>3639.8</ele>
        <time>2022-10-21T03:06:23.000Z</time>
      </trkpt>
      <trkpt lat="27.80831" lon="86.708864">
        <ele>3640</ele>
        <time>2022-10-21T03:06:26.000Z</time>
      </trkpt>
      <trkpt lat="27.80833" lon="86.708864">
        <ele>3640.2</ele>
        <time>2022-10-21T03:06:29.000Z</time>
      </trkpt>
      <trkpt lat="27.808349" lon="86.708877">
        <ele>3640.8</ele>
        <time>2022-10-21T03:06:33.000Z</time>
      </trkpt>
      <trkpt lat="27.808368" lon="86.708883">
        <ele>3641</ele>
        <time>2022-10-21T03:06:36.000Z</time>
      </trkpt>
      <trkpt lat="27.808384" lon="86.708896">
        <ele>3641.6</ele>
        <time>2022-10-21T03:06:39.000Z</time>
      </trkpt>
      <trkpt lat="27.808403" lon="86.708896">
        <ele>3642.2</ele>
        <time>2022-10-21T03:06:44.000Z</time>
      </trkpt>
      <trkpt lat="27.808419" lon="86.708883">
        <ele>3642.6</ele>
        <time>2022-10-21T03:06:47.000Z</time>
      </trkpt>
      <trkpt lat="27.808438" lon="86.708883">
        <ele>3642.8</ele>
        <time>2022-10-21T03:06:51.000Z</time>
      </trkpt>
      <trkpt lat="27.808458" lon="86.708883">
        <ele>3643.2</ele>
        <time>2022-10-21T03:06:54.000Z</time>
      </trkpt>
      <trkpt lat="27.80848" lon="86.708883">
        <ele>3644</ele>
        <time>2022-10-21T03:06:59.000Z</time>
      </trkpt>
      <trkpt lat="27.808499" lon="86.708883">
        <ele>3644.8</ele>
        <time>2022-10-21T03:07:05.000Z</time>
      </trkpt>
      <trkpt lat="27.808518" lon="86.708883">
        <ele>3645.2</ele>
        <time>2022-10-21T03:07:08.000Z</time>
      </trkpt>
      <trkpt lat="27.808538" lon="86.708896">
        <ele>3646.2</ele>
        <time>2022-10-21T03:07:11.000Z</time>
      </trkpt>
      <trkpt lat="27.808557" lon="86.708915">
        <ele>3649.2</ele>
        <time>2022-10-21T03:07:40.000Z</time>
      </trkpt>
      <trkpt lat="27.808589" lon="86.708928">
        <ele>3649.6</ele>
        <time>2022-10-21T03:07:46.000Z</time>
      </trkpt>
      <trkpt lat="27.808637" lon="86.708966">
        <ele>3653.2</ele>
        <time>2022-10-21T03:08:37.000Z</time>
      </trkpt>
      <trkpt lat="27.808662" lon="86.70896">
        <ele>3653.2</ele>
        <time>2022-10-21T03:08:39.000Z</time>
      </trkpt>
      <trkpt lat="27.808685" lon="86.708954">
        <ele>3653.4</ele>
        <time>2022-10-21T03:08:41.000Z</time>
      </trkpt>
      <trkpt lat="27.808707" lon="86.70896">
        <ele>3653.6</ele>
        <time>2022-10-21T03:08:43.000Z</time>
      </trkpt>
      <trkpt lat="27.80873" lon="86.708954">
        <ele>3653.8</ele>
        <time>2022-10-21T03:08:46.000Z</time>
      </trkpt>
      <trkpt lat="27.808752" lon="86.708954">
        <ele>3654.4</ele>
        <time>2022-10-21T03:08:50.000Z</time>
      </trkpt>
      <trkpt lat="27.808774" lon="86.708947">
        <ele>3655.4</ele>
        <time>2022-10-21T03:08:54.000Z</time>
      </trkpt>
      <trkpt lat="27.808794" lon="86.708947">
        <ele>3656.2</ele>
        <time>2022-10-21T03:08:59.000Z</time>
      </trkpt>
      <trkpt lat="27.80881" lon="86.70896">
        <ele>3656.6</ele>
        <time>2022-10-21T03:09:03.000Z</time>
      </trkpt>
      <trkpt lat="27.808829" lon="86.70896">
        <ele>3657.6</ele>
        <time>2022-10-21T03:09:09.000Z</time>
      </trkpt>
      <trkpt lat="27.808848" lon="86.708947">
        <ele>3658.6</ele>
        <time>2022-10-21T03:09:15.000Z</time>
      </trkpt>
      <trkpt lat="27.808867" lon="86.708947">
        <ele>3658.6</ele>
        <time>2022-10-21T03:09:18.000Z</time>
      </trkpt>
      <trkpt lat="27.808883" lon="86.70896">
        <ele>3659.6</ele>
        <time>2022-10-21T03:09:24.000Z</time>
      </trkpt>
      <trkpt lat="27.808902" lon="86.708966">
        <ele>3659.6</ele>
        <time>2022-10-21T03:09:27.000Z</time>
      </trkpt>
      <trkpt lat="27.808928" lon="86.708966">
        <ele>3660.6</ele>
        <time>2022-10-21T03:09:32.000Z</time>
      </trkpt>
      <trkpt lat="27.80895" lon="86.708966">
        <ele>3661</ele>
        <time>2022-10-21T03:09:36.000Z</time>
      </trkpt>
      <trkpt lat="27.808973" lon="86.708979">
        <ele>3661.8</ele>
        <time>2022-10-21T03:09:42.000Z</time>
      </trkpt>
      <trkpt lat="27.808992" lon="86.708979">
        <ele>3662.2</ele>
        <time>2022-10-21T03:09:45.000Z</time>
      </trkpt>
      <trkpt lat="27.809011" lon="86.708979">
        <ele>3662.8</ele>
        <time>2022-10-21T03:09:49.000Z</time>
      </trkpt>
      <trkpt lat="27.80903" lon="86.708979">
        <ele>3663.2</ele>
        <time>2022-10-21T03:09:52.000Z</time>
      </trkpt>
      <trkpt lat="27.809053" lon="86.708979">
        <ele>3663.8</ele>
        <time>2022-10-21T03:09:56.000Z</time>
      </trkpt>
      <trkpt lat="27.809075" lon="86.708979">
        <ele>3664.8</ele>
        <time>2022-10-21T03:10:00.000Z</time>
      </trkpt>
      <trkpt lat="27.809094" lon="86.70896">
        <ele>3664.8</ele>
        <time>2022-10-21T03:10:03.000Z</time>
      </trkpt>
      <trkpt lat="27.80911" lon="86.708941">
        <ele>3665</ele>
        <time>2022-10-21T03:10:07.000Z</time>
      </trkpt>
      <trkpt lat="27.809117" lon="86.708915">
        <ele>3665.6</ele>
        <time>2022-10-21T03:10:10.000Z</time>
      </trkpt>
      <trkpt lat="27.809126" lon="86.708896">
        <ele>3665.6</ele>
        <time>2022-10-21T03:10:13.000Z</time>
      </trkpt>
      <trkpt lat="27.809146" lon="86.708883">
        <ele>3666</ele>
        <time>2022-10-21T03:10:17.000Z</time>
      </trkpt>
      <trkpt lat="27.809162" lon="86.70887">
        <ele>3666.2</ele>
        <time>2022-10-21T03:10:20.000Z</time>
      </trkpt>
      <trkpt lat="27.809184" lon="86.70887">
        <ele>3666.6</ele>
        <time>2022-10-21T03:10:24.000Z</time>
      </trkpt>
      <trkpt lat="27.8092" lon="86.708858">
        <ele>3667</ele>
        <time>2022-10-21T03:10:27.000Z</time>
      </trkpt>
      <trkpt lat="27.809216" lon="86.708845">
        <ele>3667.8</ele>
        <time>2022-10-21T03:10:30.000Z</time>
      </trkpt>
      <trkpt lat="27.809235" lon="86.708838">
        <ele>3667.6</ele>
        <time>2022-10-21T03:10:33.000Z</time>
      </trkpt>
      <trkpt lat="27.809254" lon="86.708832">
        <ele>3668</ele>
        <time>2022-10-21T03:10:36.000Z</time>
      </trkpt>
      <trkpt lat="27.80927" lon="86.708819">
        <ele>3668.4</ele>
        <time>2022-10-21T03:10:39.000Z</time>
      </trkpt>
      <trkpt lat="27.80929" lon="86.708838">
        <ele>3669.4</ele>
        <time>2022-10-21T03:10:58.000Z</time>
      </trkpt>
      <trkpt lat="27.809302" lon="86.708864">
        <ele>3669.8</ele>
        <time>2022-10-21T03:11:00.000Z</time>
      </trkpt>
      <trkpt lat="27.809312" lon="86.708883">
        <ele>3669.8</ele>
        <time>2022-10-21T03:11:03.000Z</time>
      </trkpt>
      <trkpt lat="27.809318" lon="86.708909">
        <ele>3670.2</ele>
        <time>2022-10-21T03:11:05.000Z</time>
      </trkpt>
      <trkpt lat="27.809322" lon="86.708941">
        <ele>3670.2</ele>
        <time>2022-10-21T03:11:08.000Z</time>
      </trkpt>
      <trkpt lat="27.809328" lon="86.708966">
        <ele>3670.4</ele>
        <time>2022-10-21T03:11:12.000Z</time>
      </trkpt>
      <trkpt lat="27.809331" lon="86.708992">
        <ele>3671.2</ele>
        <time>2022-10-21T03:11:16.000Z</time>
      </trkpt>
      <trkpt lat="27.809341" lon="86.709018">
        <ele>3672.2</ele>
        <time>2022-10-21T03:11:20.000Z</time>
      </trkpt>
      <trkpt lat="27.809347" lon="86.709037">
        <ele>3672</ele>
        <time>2022-10-21T03:11:24.000Z</time>
      </trkpt>
      <trkpt lat="27.809347" lon="86.709062">
        <ele>3672.4</ele>
        <time>2022-10-21T03:11:28.000Z</time>
      </trkpt>
      <trkpt lat="27.809341" lon="86.709082">
        <ele>3673.2</ele>
        <time>2022-10-21T03:11:34.000Z</time>
      </trkpt>
      <trkpt lat="27.809328" lon="86.709101">
        <ele>3672.6</ele>
        <time>2022-10-21T03:11:37.000Z</time>
      </trkpt>
      <trkpt lat="27.809315" lon="86.70912">
        <ele>3673.4</ele>
        <time>2022-10-21T03:11:40.000Z</time>
      </trkpt>
      <trkpt lat="27.809312" lon="86.709146">
        <ele>3673.6</ele>
        <time>2022-10-21T03:11:42.000Z</time>
      </trkpt>
      <trkpt lat="27.809296" lon="86.709165">
        <ele>3675.8</ele>
        <time>2022-10-21T03:12:22.000Z</time>
      </trkpt>
      <trkpt lat="27.809283" lon="86.70919">
        <ele>3675.6</ele>
        <time>2022-10-21T03:12:24.000Z</time>
      </trkpt>
      <trkpt lat="27.80928" lon="86.709216">
        <ele>3675.6</ele>
        <time>2022-10-21T03:12:25.000Z</time>
      </trkpt>
      <trkpt lat="27.80927" lon="86.709235">
        <ele>3676.2</ele>
        <time>2022-10-21T03:12:27.000Z</time>
      </trkpt>
      <trkpt lat="27.809264" lon="86.709254">
        <ele>3676.6</ele>
        <time>2022-10-21T03:12:28.000Z</time>
      </trkpt>
      <trkpt lat="27.809254" lon="86.70928">
        <ele>3676.8</ele>
        <time>2022-10-21T03:12:30.000Z</time>
      </trkpt>
      <trkpt lat="27.809245" lon="86.709299">
        <ele>3676.8</ele>
        <time>2022-10-21T03:12:31.000Z</time>
      </trkpt>
      <trkpt lat="27.809251" lon="86.709318">
        <ele>3677.6</ele>
        <time>2022-10-21T03:12:34.000Z</time>
      </trkpt>
      <trkpt lat="27.809258" lon="86.709344">
        <ele>3678</ele>
        <time>2022-10-21T03:12:38.000Z</time>
      </trkpt>
      <trkpt lat="27.809274" lon="86.709357">
        <ele>3678.6</ele>
        <time>2022-10-21T03:12:42.000Z</time>
      </trkpt>
      <trkpt lat="27.809283" lon="86.709376">
        <ele>3678.6</ele>
        <time>2022-10-21T03:12:44.000Z</time>
      </trkpt>
      <trkpt lat="27.809299" lon="86.709389">
        <ele>3678.8</ele>
        <time>2022-10-21T03:12:49.000Z</time>
      </trkpt>
      <trkpt lat="27.809322" lon="86.709389">
        <ele>3679.2</ele>
        <time>2022-10-21T03:12:53.000Z</time>
      </trkpt>
      <trkpt lat="27.809338" lon="86.709402">
        <ele>3680</ele>
        <time>2022-10-21T03:12:58.000Z</time>
      </trkpt>
      <trkpt lat="27.80935" lon="86.709421">
        <ele>3680.8</ele>
        <time>2022-10-21T03:13:02.000Z</time>
      </trkpt>
      <trkpt lat="27.809402" lon="86.709498">
        <ele>3682.8</ele>
        <time>2022-10-21T03:15:29.000Z</time>
      </trkpt>
      <trkpt lat="27.809408" lon="86.709523">
        <ele>3683.6</ele>
        <time>2022-10-21T03:15:31.000Z</time>
      </trkpt>
      <trkpt lat="27.809414" lon="86.709549">
        <ele>3683.8</ele>
        <time>2022-10-21T03:15:33.000Z</time>
      </trkpt>
      <trkpt lat="27.809424" lon="86.709574">
        <ele>3684.4</ele>
        <time>2022-10-21T03:15:36.000Z</time>
      </trkpt>
      <trkpt lat="27.80944" lon="86.709587">
        <ele>3686</ele>
        <time>2022-10-21T03:16:06.000Z</time>
      </trkpt>
      <trkpt lat="27.809459" lon="86.709587">
        <ele>3686</ele>
        <time>2022-10-21T03:16:08.000Z</time>
      </trkpt>
      <trkpt lat="27.809482" lon="86.709587">
        <ele>3686</ele>
        <time>2022-10-21T03:16:10.000Z</time>
      </trkpt>
      <trkpt lat="27.809507" lon="86.709594">
        <ele>3686.4</ele>
        <time>2022-10-21T03:16:12.000Z</time>
      </trkpt>
      <trkpt lat="27.809536" lon="86.709594">
        <ele>3687.2</ele>
        <time>2022-10-21T03:16:15.000Z</time>
      </trkpt>
      <trkpt lat="27.809562" lon="86.709594">
        <ele>3687.6</ele>
        <time>2022-10-21T03:16:19.000Z</time>
      </trkpt>
      <trkpt lat="27.809581" lon="86.709594">
        <ele>3688</ele>
        <time>2022-10-21T03:16:22.000Z</time>
      </trkpt>
      <trkpt lat="27.8096" lon="86.7096">
        <ele>3688.8</ele>
        <time>2022-10-21T03:16:27.000Z</time>
      </trkpt>
      <trkpt lat="27.809619" lon="86.709613">
        <ele>3689</ele>
        <time>2022-10-21T03:16:30.000Z</time>
      </trkpt>
      <trkpt lat="27.809638" lon="86.709613">
        <ele>3689.6</ele>
        <time>2022-10-21T03:16:34.000Z</time>
      </trkpt>
      <trkpt lat="27.809658" lon="86.709613">
        <ele>3689.8</ele>
        <time>2022-10-21T03:16:38.000Z</time>
      </trkpt>
      <trkpt lat="27.809677" lon="86.709613">
        <ele>3690.2</ele>
        <time>2022-10-21T03:16:42.000Z</time>
      </trkpt>
      <trkpt lat="27.809696" lon="86.709626">
        <ele>3691</ele>
        <time>2022-10-21T03:16:47.000Z</time>
      </trkpt>
      <trkpt lat="27.809715" lon="86.709619">
        <ele>3691.4</ele>
        <time>2022-10-21T03:16:51.000Z</time>
      </trkpt>
      <trkpt lat="27.809734" lon="86.709613">
        <ele>3692</ele>
        <time>2022-10-21T03:16:55.000Z</time>
      </trkpt>
      <trkpt lat="27.809754" lon="86.709613">
        <ele>3693</ele>
        <time>2022-10-21T03:16:59.000Z</time>
      </trkpt>
      <trkpt lat="27.809773" lon="86.709613">
        <ele>3693.4</ele>
        <time>2022-10-21T03:17:04.000Z</time>
      </trkpt>
      <trkpt lat="27.809792" lon="86.709613">
        <ele>3694</ele>
        <time>2022-10-21T03:17:08.000Z</time>
      </trkpt>
      <trkpt lat="27.809811" lon="86.709619">
        <ele>3694.6</ele>
        <time>2022-10-21T03:17:12.000Z</time>
      </trkpt>
      <trkpt lat="27.80983" lon="86.709626">
        <ele>3695.8</ele>
        <time>2022-10-21T03:17:15.000Z</time>
      </trkpt>
      <trkpt lat="27.809853" lon="86.709619">
        <ele>3695.4</ele>
        <time>2022-10-21T03:17:19.000Z</time>
      </trkpt>
      <trkpt lat="27.809875" lon="86.709613">
        <ele>3695.2</ele>
        <time>2022-10-21T03:17:23.000Z</time>
      </trkpt>
      <trkpt lat="27.809898" lon="86.709626">
        <ele>3696.6</ele>
        <time>2022-10-21T03:17:27.000Z</time>
      </trkpt>
      <trkpt lat="27.809917" lon="86.709632">
        <ele>3696.6</ele>
        <time>2022-10-21T03:17:31.000Z</time>
      </trkpt>
      <trkpt lat="27.809936" lon="86.709632">
        <ele>3697.2</ele>
        <time>2022-10-21T03:17:36.000Z</time>
      </trkpt>
      <trkpt lat="27.809958" lon="86.709626">
        <ele>3697.6</ele>
        <time>2022-10-21T03:17:41.000Z</time>
      </trkpt>
      <trkpt lat="27.809978" lon="86.709626">
        <ele>3698.2</ele>
        <time>2022-10-21T03:17:46.000Z</time>
      </trkpt>
      <trkpt lat="27.809997" lon="86.709626">
        <ele>3699.2</ele>
        <time>2022-10-21T03:17:50.000Z</time>
      </trkpt>
      <trkpt lat="27.810019" lon="86.709626">
        <ele>3699.4</ele>
        <time>2022-10-21T03:17:55.000Z</time>
      </trkpt>
      <trkpt lat="27.810038" lon="86.709626">
        <ele>3700</ele>
        <time>2022-10-21T03:17:59.000Z</time>
      </trkpt>
      <trkpt lat="27.810061" lon="86.709638">
        <ele>3700.4</ele>
        <time>2022-10-21T03:18:04.000Z</time>
      </trkpt>
      <trkpt lat="27.81008" lon="86.709651">
        <ele>3700.6</ele>
        <time>2022-10-21T03:18:09.000Z</time>
      </trkpt>
      <trkpt lat="27.810096" lon="86.709664">
        <ele>3701.6</ele>
        <time>2022-10-21T03:18:13.000Z</time>
      </trkpt>
      <trkpt lat="27.810096" lon="86.709696">
        <ele>3702.4</ele>
        <time>2022-10-21T03:18:24.000Z</time>
      </trkpt>
      <trkpt lat="27.810099" lon="86.709722">
        <ele>3703.6</ele>
        <time>2022-10-21T03:18:31.000Z</time>
      </trkpt>
      <trkpt lat="27.810099" lon="86.709747">
        <ele>3704.2</ele>
        <time>2022-10-21T03:18:37.000Z</time>
      </trkpt>
      <trkpt lat="27.810115" lon="86.70976">
        <ele>3704.8</ele>
        <time>2022-10-21T03:18:43.000Z</time>
      </trkpt>
      <trkpt lat="27.810122" lon="86.709779">
        <ele>3705.4</ele>
        <time>2022-10-21T03:18:47.000Z</time>
      </trkpt>
      <trkpt lat="27.810138" lon="86.709792">
        <ele>3706</ele>
        <time>2022-10-21T03:18:58.000Z</time>
      </trkpt>
      <trkpt lat="27.810147" lon="86.709811">
        <ele>3706.6</ele>
        <time>2022-10-21T03:19:02.000Z</time>
      </trkpt>
      <trkpt lat="27.810166" lon="86.709818">
        <ele>3707.6</ele>
        <time>2022-10-21T03:19:12.000Z</time>
      </trkpt>
      <trkpt lat="27.810192" lon="86.709811">
        <ele>3709.4</ele>
        <time>2022-10-21T03:19:37.000Z</time>
      </trkpt>
      <trkpt lat="27.810227" lon="86.709798">
        <ele>3709.8</ele>
        <time>2022-10-21T03:19:40.000Z</time>
      </trkpt>
      <trkpt lat="27.810237" lon="86.709792">
        <ele>3710</ele>
        <time>2022-10-21T03:19:41.000Z</time>
      </trkpt>
      <trkpt lat="27.810256" lon="86.709786">
        <ele>3710.4</ele>
        <time>2022-10-21T03:19:43.000Z</time>
      </trkpt>
      <trkpt lat="27.810275" lon="86.709773">
        <ele>3710.8</ele>
        <time>2022-10-21T03:19:46.000Z</time>
      </trkpt>
      <trkpt lat="27.810294" lon="86.70976">
        <ele>3710.8</ele>
        <time>2022-10-21T03:19:49.000Z</time>
      </trkpt>
      <trkpt lat="27.810314" lon="86.709773">
        <ele>3711.6</ele>
        <time>2022-10-21T03:20:00.000Z</time>
      </trkpt>
      <trkpt lat="27.810323" lon="86.709754">
        <ele>3712</ele>
        <time>2022-10-21T03:20:05.000Z</time>
      </trkpt>
      <trkpt lat="27.810342" lon="86.709747">
        <ele>3712.4</ele>
        <time>2022-10-21T03:20:10.000Z</time>
      </trkpt>
      <trkpt lat="27.810365" lon="86.709734">
        <ele>3713.6</ele>
        <time>2022-10-21T03:20:15.000Z</time>
      </trkpt>
      <trkpt lat="27.810384" lon="86.709722">
        <ele>3713.4</ele>
        <time>2022-10-21T03:20:18.000Z</time>
      </trkpt>
      <trkpt lat="27.810406" lon="86.709702">
        <ele>3713.6</ele>
        <time>2022-10-21T03:20:22.000Z</time>
      </trkpt>
      <trkpt lat="27.810426" lon="86.709702">
        <ele>3714.2</ele>
        <time>2022-10-21T03:20:27.000Z</time>
      </trkpt>
      <trkpt lat="27.810445" lon="86.709702">
        <ele>3714.6</ele>
        <time>2022-10-21T03:20:31.000Z</time>
      </trkpt>
      <trkpt lat="27.810464" lon="86.709683">
        <ele>3715.2</ele>
        <time>2022-10-21T03:20:36.000Z</time>
      </trkpt>
      <trkpt lat="27.810486" lon="86.709683">
        <ele>3715.6</ele>
        <time>2022-10-21T03:20:40.000Z</time>
      </trkpt>
      <trkpt lat="27.810502" lon="86.70967">
        <ele>3715.8</ele>
        <time>2022-10-21T03:20:44.000Z</time>
      </trkpt>
      <trkpt lat="27.810518" lon="86.709658">
        <ele>3716.4</ele>
        <time>2022-10-21T03:20:48.000Z</time>
      </trkpt>
      <trkpt lat="27.810534" lon="86.70967">
        <ele>3717</ele>
        <time>2022-10-21T03:20:52.000Z</time>
      </trkpt>
      <trkpt lat="27.810554" lon="86.709683">
        <ele>3717.6</ele>
        <time>2022-10-21T03:20:58.000Z</time>
      </trkpt>
      <trkpt lat="27.810563" lon="86.709702">
        <ele>3718</ele>
        <time>2022-10-21T03:21:01.000Z</time>
      </trkpt>
      <trkpt lat="27.810573" lon="86.709722">
        <ele>3718.6</ele>
        <time>2022-10-21T03:21:06.000Z</time>
      </trkpt>
      <trkpt lat="27.810582" lon="86.709741">
        <ele>3719.4</ele>
        <time>2022-10-21T03:21:11.000Z</time>
      </trkpt>
      <trkpt lat="27.810602" lon="86.709734">
        <ele>3720</ele>
        <time>2022-10-21T03:21:16.000Z</time>
      </trkpt>
      <trkpt lat="27.810621" lon="86.709734">
        <ele>3720.6</ele>
        <time>2022-10-21T03:21:21.000Z</time>
      </trkpt>
      <trkpt lat="27.810637" lon="86.709747">
        <ele>3720.8</ele>
        <time>2022-10-21T03:21:26.000Z</time>
      </trkpt>
      <trkpt lat="27.81063" lon="86.709773">
        <ele>3721.6</ele>
        <time>2022-10-21T03:21:30.000Z</time>
      </trkpt>
      <trkpt lat="27.810643" lon="86.709792">
        <ele>3723</ele>
        <time>2022-10-21T03:21:37.000Z</time>
      </trkpt>
      <trkpt lat="27.810656" lon="86.709811">
        <ele>3722.8</ele>
        <time>2022-10-21T03:21:40.000Z</time>
      </trkpt>
      <trkpt lat="27.810682" lon="86.709811">
        <ele>3724</ele>
        <time>2022-10-21T03:22:05.000Z</time>
      </trkpt>
      <trkpt lat="27.810694" lon="86.709792">
        <ele>3724</ele>
        <time>2022-10-21T03:22:07.000Z</time>
      </trkpt>
      <trkpt lat="27.81071" lon="86.709779">
        <ele>3724.2</ele>
        <time>2022-10-21T03:22:09.000Z</time>
      </trkpt>
      <trkpt lat="27.810723" lon="86.70976">
        <ele>3724.2</ele>
        <time>2022-10-21T03:22:11.000Z</time>
      </trkpt>
      <trkpt lat="27.810736" lon="86.709741">
        <ele>3724.6</ele>
        <time>2022-10-21T03:22:16.000Z</time>
      </trkpt>
      <trkpt lat="27.810739" lon="86.709715">
        <ele>3725.6</ele>
        <time>2022-10-21T03:22:19.000Z</time>
      </trkpt>
      <trkpt lat="27.810755" lon="86.709702">
        <ele>3726.6</ele>
        <time>2022-10-21T03:22:23.000Z</time>
      </trkpt>
      <trkpt lat="27.810774" lon="86.709696">
        <ele>3726.8</ele>
        <time>2022-10-21T03:22:26.000Z</time>
      </trkpt>
      <trkpt lat="27.81079" lon="86.709683">
        <ele>3727.4</ele>
        <time>2022-10-21T03:22:29.000Z</time>
      </trkpt>
      <trkpt lat="27.81081" lon="86.709677">
        <ele>3727.4</ele>
        <time>2022-10-21T03:22:32.000Z</time>
      </trkpt>
      <trkpt lat="27.810829" lon="86.709664">
        <ele>3727.6</ele>
        <time>2022-10-21T03:22:35.000Z</time>
      </trkpt>
      <trkpt lat="27.810848" lon="86.709664">
        <ele>3728.2</ele>
        <time>2022-10-21T03:22:39.000Z</time>
      </trkpt>
      <trkpt lat="27.810864" lon="86.709651">
        <ele>3728.6</ele>
        <time>2022-10-21T03:22:43.000Z</time>
      </trkpt>
      <trkpt lat="27.81088" lon="86.709632">
        <ele>3729.2</ele>
        <time>2022-10-21T03:22:46.000Z</time>
      </trkpt>
      <trkpt lat="27.810899" lon="86.709626">
        <ele>3729.6</ele>
        <time>2022-10-21T03:22:50.000Z</time>
      </trkpt>
      <trkpt lat="27.810918" lon="86.709613">
        <ele>3729.8</ele>
        <time>2022-10-21T03:22:53.000Z</time>
      </trkpt>
      <trkpt lat="27.810938" lon="86.709619">
        <ele>3730.6</ele>
        <time>2022-10-21T03:22:57.000Z</time>
      </trkpt>
      <trkpt lat="27.81096" lon="86.709632">
        <ele>3731</ele>
        <time>2022-10-21T03:23:01.000Z</time>
      </trkpt>
      <trkpt lat="27.810966" lon="86.709651">
        <ele>3731.4</ele>
        <time>2022-10-21T03:23:05.000Z</time>
      </trkpt>
      <trkpt lat="27.810986" lon="86.709664">
        <ele>3732.4</ele>
        <time>2022-10-21T03:23:13.000Z</time>
      </trkpt>
      <trkpt lat="27.810998" lon="86.709683">
        <ele>3733.2</ele>
        <time>2022-10-21T03:23:16.000Z</time>
      </trkpt>
      <trkpt lat="27.810998" lon="86.709709">
        <ele>3734</ele>
        <time>2022-10-21T03:23:19.000Z</time>
      </trkpt>
      <trkpt lat="27.810989" lon="86.709734">
        <ele>3734.4</ele>
        <time>2022-10-21T03:23:23.000Z</time>
      </trkpt>
      <trkpt lat="27.810982" lon="86.709754">
        <ele>3735.2</ele>
        <time>2022-10-21T03:23:28.000Z</time>
      </trkpt>
      <trkpt lat="27.810976" lon="86.709773">
        <ele>3735</ele>
        <time>2022-10-21T03:23:33.000Z</time>
      </trkpt>
      <trkpt lat="27.810973" lon="86.709818">
        <ele>3736.4</ele>
        <time>2022-10-21T03:24:11.000Z</time>
      </trkpt>
      <trkpt lat="27.810963" lon="86.70985">
        <ele>3736.6</ele>
        <time>2022-10-21T03:24:13.000Z</time>
      </trkpt>
      <trkpt lat="27.81096" lon="86.709882">
        <ele>3737</ele>
        <time>2022-10-21T03:24:16.000Z</time>
      </trkpt>
      <trkpt lat="27.81096" lon="86.709907">
        <ele>3737.4</ele>
        <time>2022-10-21T03:24:18.000Z</time>
      </trkpt>
      <trkpt lat="27.810963" lon="86.709933">
        <ele>3738</ele>
        <time>2022-10-21T03:24:20.000Z</time>
      </trkpt>
      <trkpt lat="27.810963" lon="86.709971">
        <ele>3738.6</ele>
        <time>2022-10-21T03:24:25.000Z</time>
      </trkpt>
      <trkpt lat="27.81097" lon="86.709978">
        <ele>3738.8</ele>
        <time>2022-10-21T03:24:26.000Z</time>
      </trkpt>
      <trkpt lat="27.810982" lon="86.709997">
        <ele>3739.4</ele>
        <time>2022-10-21T03:24:29.000Z</time>
      </trkpt>
      <trkpt lat="27.810989" lon="86.710022">
        <ele>3740.4</ele>
        <time>2022-10-21T03:24:32.000Z</time>
      </trkpt>
      <trkpt lat="27.810992" lon="86.710048">
        <ele>3740.6</ele>
        <time>2022-10-21T03:24:35.000Z</time>
      </trkpt>
      <trkpt lat="27.811002" lon="86.710067">
        <ele>3740.8</ele>
        <time>2022-10-21T03:24:38.000Z</time>
      </trkpt>
      <trkpt lat="27.81104" lon="86.710099">
        <ele>3745.2</ele>
        <time>2022-10-21T03:26:13.000Z</time>
      </trkpt>
      <trkpt lat="27.811069" lon="86.710093">
        <ele>3745.4</ele>
        <time>2022-10-21T03:26:15.000Z</time>
      </trkpt>
      <trkpt lat="27.811088" lon="86.710093">
        <ele>3745.6</ele>
        <time>2022-10-21T03:26:17.000Z</time>
      </trkpt>
      <trkpt lat="27.81111" lon="86.710093">
        <ele>3745.6</ele>
        <time>2022-10-21T03:26:19.000Z</time>
      </trkpt>
      <trkpt lat="27.811133" lon="86.710099">
        <ele>3745.8</ele>
        <time>2022-10-21T03:26:21.000Z</time>
      </trkpt>
      <trkpt lat="27.811149" lon="86.710112">
        <ele>3746.6</ele>
        <time>2022-10-21T03:26:24.000Z</time>
      </trkpt>
      <trkpt lat="27.811171" lon="86.710112">
        <ele>3747.4</ele>
        <time>2022-10-21T03:26:28.000Z</time>
      </trkpt>
      <trkpt lat="27.81119" lon="86.710118">
        <ele>3747.8</ele>
        <time>2022-10-21T03:26:33.000Z</time>
      </trkpt>
      <trkpt lat="27.81121" lon="86.710112">
        <ele>3748.6</ele>
        <time>2022-10-21T03:26:37.000Z</time>
      </trkpt>
      <trkpt lat="27.811219" lon="86.710131">
        <ele>3749</ele>
        <time>2022-10-21T03:26:40.000Z</time>
      </trkpt>
      <trkpt lat="27.811235" lon="86.71015">
        <ele>3749.4</ele>
        <time>2022-10-21T03:26:45.000Z</time>
      </trkpt>
      <trkpt lat="27.811254" lon="86.710176">
        <ele>3752.2</ele>
        <time>2022-10-21T03:27:12.000Z</time>
      </trkpt>
      <trkpt lat="27.811267" lon="86.710208">
        <ele>3752.6</ele>
        <time>2022-10-21T03:27:14.000Z</time>
      </trkpt>
      <trkpt lat="27.811286" lon="86.710227">
        <ele>3752.8</ele>
        <time>2022-10-21T03:27:16.000Z</time>
      </trkpt>
      <trkpt lat="27.811293" lon="86.710246">
        <ele>3752.8</ele>
        <time>2022-10-21T03:27:17.000Z</time>
      </trkpt>
      <trkpt lat="27.811315" lon="86.710272">
        <ele>3753.2</ele>
        <time>2022-10-21T03:27:19.000Z</time>
      </trkpt>
      <trkpt lat="27.811328" lon="86.710291">
        <ele>3753.2</ele>
        <time>2022-10-21T03:27:21.000Z</time>
      </trkpt>
      <trkpt lat="27.811331" lon="86.710317">
        <ele>3753.8</ele>
        <time>2022-10-21T03:27:25.000Z</time>
      </trkpt>
      <trkpt lat="27.811347" lon="86.710336">
        <ele>3754.2</ele>
        <time>2022-10-21T03:27:28.000Z</time>
      </trkpt>
      <trkpt lat="27.811366" lon="86.710342">
        <ele>3754.2</ele>
        <time>2022-10-21T03:27:32.000Z</time>
      </trkpt>
      <trkpt lat="27.811389" lon="86.710355">
        <ele>3754.8</ele>
        <time>2022-10-21T03:27:59.000Z</time>
      </trkpt>
      <trkpt lat="27.811405" lon="86.710368">
        <ele>3754.8</ele>
        <time>2022-10-21T03:28:00.000Z</time>
      </trkpt>
      <trkpt lat="27.811434" lon="86.710381">
        <ele>3754.8</ele>
        <time>2022-10-21T03:28:02.000Z</time>
      </trkpt>
      <trkpt lat="27.811462" lon="86.710394">
        <ele>3755.2</ele>
        <time>2022-10-21T03:28:04.000Z</time>
      </trkpt>
      <trkpt lat="27.811488" lon="86.710413">
        <ele>3755.2</ele>
        <time>2022-10-21T03:28:06.000Z</time>
      </trkpt>
      <trkpt lat="27.811507" lon="86.710426">
        <ele>3755.4</ele>
        <time>2022-10-21T03:28:08.000Z</time>
      </trkpt>
      <trkpt lat="27.811526" lon="86.710438">
        <ele>3755.2</ele>
        <time>2022-10-21T03:28:12.000Z</time>
      </trkpt>
      <trkpt lat="27.811533" lon="86.710458">
        <ele>3755.2</ele>
        <time>2022-10-21T03:28:14.000Z</time>
      </trkpt>
      <trkpt lat="27.811555" lon="86.71047">
        <ele>3755.4</ele>
        <time>2022-10-21T03:28:18.000Z</time>
      </trkpt>
      <trkpt lat="27.811578" lon="86.710477">
        <ele>3755.8</ele>
        <time>2022-10-21T03:28:21.000Z</time>
      </trkpt>
      <trkpt lat="27.811594" lon="86.71049">
        <ele>3755.8</ele>
        <time>2022-10-21T03:28:24.000Z</time>
      </trkpt>
      <trkpt lat="27.811603" lon="86.710509">
        <ele>3755.6</ele>
        <time>2022-10-21T03:28:26.000Z</time>
      </trkpt>
      <trkpt lat="27.811619" lon="86.710528">
        <ele>3755.8</ele>
        <time>2022-10-21T03:28:30.000Z</time>
      </trkpt>
      <trkpt lat="27.811635" lon="86.710541">
        <ele>3756.2</ele>
        <time>2022-10-21T03:28:33.000Z</time>
      </trkpt>
      <trkpt lat="27.811658" lon="86.710554">
        <ele>3756.6</ele>
        <time>2022-10-21T03:28:44.000Z</time>
      </trkpt>
      <trkpt lat="27.811667" lon="86.710573">
        <ele>3756.4</ele>
        <time>2022-10-21T03:28:46.000Z</time>
      </trkpt>
      <trkpt lat="27.811683" lon="86.710592">
        <ele>3756.4</ele>
        <time>2022-10-21T03:28:49.000Z</time>
      </trkpt>
      <trkpt lat="27.811693" lon="86.710611">
        <ele>3756.4</ele>
        <time>2022-10-21T03:28:51.000Z</time>
      </trkpt>
      <trkpt lat="27.811699" lon="86.71063">
        <ele>3756.6</ele>
        <time>2022-10-21T03:28:53.000Z</time>
      </trkpt>
      <trkpt lat="27.811706" lon="86.71065">
        <ele>3757</ele>
        <time>2022-10-21T03:28:55.000Z</time>
      </trkpt>
      <trkpt lat="27.811722" lon="86.710662">
        <ele>3757</ele>
        <time>2022-10-21T03:28:58.000Z</time>
      </trkpt>
      <trkpt lat="27.811738" lon="86.710688">
        <ele>3757</ele>
        <time>2022-10-21T03:29:01.000Z</time>
      </trkpt>
      <trkpt lat="27.811757" lon="86.710694">
        <ele>3757.4</ele>
        <time>2022-10-21T03:29:05.000Z</time>
      </trkpt>
      <trkpt lat="27.811779" lon="86.710701">
        <ele>3757.4</ele>
        <time>2022-10-21T03:29:08.000Z</time>
      </trkpt>
      <trkpt lat="27.811798" lon="86.710707">
        <ele>3757.6</ele>
        <time>2022-10-21T03:29:11.000Z</time>
      </trkpt>
      <trkpt lat="27.811818" lon="86.710726">
        <ele>3757.8</ele>
        <time>2022-10-21T03:29:14.000Z</time>
      </trkpt>
      <trkpt lat="27.811837" lon="86.710733">
        <ele>3757.8</ele>
        <time>2022-10-21T03:29:17.000Z</time>
      </trkpt>
      <trkpt lat="27.811856" lon="86.710739">
        <ele>3758.6</ele>
        <time>2022-10-21T03:29:20.000Z</time>
      </trkpt>
      <trkpt lat="27.811878" lon="86.710746">
        <ele>3758.8</ele>
        <time>2022-10-21T03:29:23.000Z</time>
      </trkpt>
      <trkpt lat="27.811898" lon="86.710765">
        <ele>3758.8</ele>
        <time>2022-10-21T03:29:26.000Z</time>
      </trkpt>
      <trkpt lat="27.811923" lon="86.710765">
        <ele>3759</ele>
        <time>2022-10-21T03:29:29.000Z</time>
      </trkpt>
      <trkpt lat="27.811942" lon="86.710765">
        <ele>3759.2</ele>
        <time>2022-10-21T03:29:32.000Z</time>
      </trkpt>
      <trkpt lat="27.811965" lon="86.710765">
        <ele>3759.6</ele>
        <time>2022-10-21T03:29:35.000Z</time>
      </trkpt>
      <trkpt lat="27.811984" lon="86.710765">
        <ele>3759.6</ele>
        <time>2022-10-21T03:29:39.000Z</time>
      </trkpt>
      <trkpt lat="27.812003" lon="86.710771">
        <ele>3760</ele>
        <time>2022-10-21T03:29:42.000Z</time>
      </trkpt>
      <trkpt lat="27.812022" lon="86.710771">
        <ele>3760.8</ele>
        <time>2022-10-21T03:29:47.000Z</time>
      </trkpt>
      <trkpt lat="27.812038" lon="86.71079">
        <ele>3760.8</ele>
        <time>2022-10-21T03:29:56.000Z</time>
      </trkpt>
      <trkpt lat="27.812058" lon="86.71081">
        <ele>3760.6</ele>
        <time>2022-10-21T03:31:27.000Z</time>
      </trkpt>
      <trkpt lat="27.812086" lon="86.710816">
        <ele>3760.8</ele>
        <time>2022-10-21T03:31:30.000Z</time>
      </trkpt>
      <trkpt lat="27.812109" lon="86.710816">
        <ele>3760.8</ele>
        <time>2022-10-21T03:31:32.000Z</time>
      </trkpt>
      <trkpt lat="27.812138" lon="86.710822">
        <ele>3760.8</ele>
        <time>2022-10-21T03:31:34.000Z</time>
      </trkpt>
      <trkpt lat="27.81216" lon="86.710822">
        <ele>3760.6</ele>
        <time>2022-10-21T03:31:36.000Z</time>
      </trkpt>
      <trkpt lat="27.812176" lon="86.710835">
        <ele>3760.8</ele>
        <time>2022-10-21T03:31:38.000Z</time>
      </trkpt>
      <trkpt lat="27.812195" lon="86.710848">
        <ele>3761</ele>
        <time>2022-10-21T03:31:40.000Z</time>
      </trkpt>
      <trkpt lat="27.812214" lon="86.710861">
        <ele>3761.6</ele>
        <time>2022-10-21T03:31:43.000Z</time>
      </trkpt>
      <trkpt lat="27.812234" lon="86.710861">
        <ele>3761.8</ele>
        <time>2022-10-21T03:31:45.000Z</time>
      </trkpt>
      <trkpt lat="27.812256" lon="86.710867">
        <ele>3761.4</ele>
        <time>2022-10-21T03:31:48.000Z</time>
      </trkpt>
      <trkpt lat="27.812282" lon="86.710874">
        <ele>3761.6</ele>
        <time>2022-10-21T03:31:51.000Z</time>
      </trkpt>
      <trkpt lat="27.812301" lon="86.710874">
        <ele>3761.6</ele>
        <time>2022-10-21T03:31:53.000Z</time>
      </trkpt>
      <trkpt lat="27.81232" lon="86.710874">
        <ele>3761.8</ele>
        <time>2022-10-21T03:31:56.000Z</time>
      </trkpt>
      <trkpt lat="27.812339" lon="86.710874">
        <ele>3762</ele>
        <time>2022-10-21T03:32:04.000Z</time>
      </trkpt>
      <trkpt lat="27.812362" lon="86.710886">
        <ele>3761.8</ele>
        <time>2022-10-21T03:32:07.000Z</time>
      </trkpt>
      <trkpt lat="27.812378" lon="86.710874">
        <ele>3761.8</ele>
        <time>2022-10-21T03:32:09.000Z</time>
      </trkpt>
      <trkpt lat="27.812397" lon="86.710874">
        <ele>3761.8</ele>
        <time>2022-10-21T03:32:11.000Z</time>
      </trkpt>
      <trkpt lat="27.812413" lon="86.710886">
        <ele>3761.8</ele>
        <time>2022-10-21T03:32:13.000Z</time>
      </trkpt>
      <trkpt lat="27.812442" lon="86.710893">
        <ele>3762.4</ele>
        <time>2022-10-21T03:32:17.000Z</time>
      </trkpt>
      <trkpt lat="27.812451" lon="86.710893">
        <ele>3762.4</ele>
        <time>2022-10-21T03:32:18.000Z</time>
      </trkpt>
      <trkpt lat="27.812477" lon="86.710893">
        <ele>3762.4</ele>
        <time>2022-10-21T03:32:22.000Z</time>
      </trkpt>
      <trkpt lat="27.812499" lon="86.710906">
        <ele>3762.6</ele>
        <time>2022-10-21T03:32:25.000Z</time>
      </trkpt>
      <trkpt lat="27.812515" lon="86.710925">
        <ele>3762.8</ele>
        <time>2022-10-21T03:32:34.000Z</time>
      </trkpt>
      <trkpt lat="27.812531" lon="86.710944">
        <ele>3763.2</ele>
        <time>2022-10-21T03:32:37.000Z</time>
      </trkpt>
      <trkpt lat="27.812547" lon="86.710963">
        <ele>3763.4</ele>
        <time>2022-10-21T03:32:39.000Z</time>
      </trkpt>
      <trkpt lat="27.81257" lon="86.710976">
        <ele>3763.4</ele>
        <time>2022-10-21T03:32:42.000Z</time>
      </trkpt>
      <trkpt lat="27.812589" lon="86.710982">
        <ele>3763.4</ele>
        <time>2022-10-21T03:32:45.000Z</time>
      </trkpt>
      <trkpt lat="27.812605" lon="86.711002">
        <ele>3763.4</ele>
        <time>2022-10-21T03:32:48.000Z</time>
      </trkpt>
      <trkpt lat="27.812627" lon="86.711008">
        <ele>3763.6</ele>
        <time>2022-10-21T03:32:52.000Z</time>
      </trkpt>
      <trkpt lat="27.81265" lon="86.711002">
        <ele>3765.6</ele>
        <time>2022-10-21T03:35:17.000Z</time>
      </trkpt>
      <trkpt lat="27.812672" lon="86.710989">
        <ele>3765.6</ele>
        <time>2022-10-21T03:35:19.000Z</time>
      </trkpt>
      <trkpt lat="27.812691" lon="86.710989">
        <ele>3765.6</ele>
        <time>2022-10-21T03:35:21.000Z</time>
      </trkpt>
      <trkpt lat="27.812714" lon="86.710989">
        <ele>3765.8</ele>
        <time>2022-10-21T03:35:24.000Z</time>
      </trkpt>
      <trkpt lat="27.812726" lon="86.711008">
        <ele>3766.2</ele>
        <time>2022-10-21T03:35:26.000Z</time>
      </trkpt>
      <trkpt lat="27.812742" lon="86.711021">
        <ele>3766.4</ele>
        <time>2022-10-21T03:35:29.000Z</time>
      </trkpt>
      <trkpt lat="27.812765" lon="86.711034">
        <ele>3767.6</ele>
        <time>2022-10-21T03:35:33.000Z</time>
      </trkpt>
      <trkpt lat="27.812784" lon="86.711034">
        <ele>3767.8</ele>
        <time>2022-10-21T03:35:38.000Z</time>
      </trkpt>
      <trkpt lat="27.8128" lon="86.711046">
        <ele>3768.8</ele>
        <time>2022-10-21T03:35:42.000Z</time>
      </trkpt>
      <trkpt lat="27.812819" lon="86.711053">
        <ele>3769.2</ele>
        <time>2022-10-21T03:35:46.000Z</time>
      </trkpt>
      <trkpt lat="27.812842" lon="86.711059">
        <ele>3769.8</ele>
        <time>2022-10-21T03:35:50.000Z</time>
      </trkpt>
      <trkpt lat="27.812861" lon="86.711066">
        <ele>3770.4</ele>
        <time>2022-10-21T03:35:54.000Z</time>
      </trkpt>
      <trkpt lat="27.81288" lon="86.711072">
        <ele>3770.4</ele>
        <time>2022-10-21T03:35:57.000Z</time>
      </trkpt>
      <trkpt lat="27.812896" lon="86.711085">
        <ele>3770.4</ele>
        <time>2022-10-21T03:36:00.000Z</time>
      </trkpt>
      <trkpt lat="27.812915" lon="86.711091">
        <ele>3771</ele>
        <time>2022-10-21T03:36:03.000Z</time>
      </trkpt>
      <trkpt lat="27.812931" lon="86.711104">
        <ele>3771.8</ele>
        <time>2022-10-21T03:36:07.000Z</time>
      </trkpt>
      <trkpt lat="27.812957" lon="86.71111">
        <ele>3772.2</ele>
        <time>2022-10-21T03:36:11.000Z</time>
      </trkpt>
      <trkpt lat="27.812979" lon="86.711123">
        <ele>3772.6</ele>
        <time>2022-10-21T03:36:16.000Z</time>
      </trkpt>
      <trkpt lat="27.813002" lon="86.71113">
        <ele>3773.2</ele>
        <time>2022-10-21T03:36:20.000Z</time>
      </trkpt>
      <trkpt lat="27.813024" lon="86.711136">
        <ele>3773.4</ele>
        <time>2022-10-21T03:36:23.000Z</time>
      </trkpt>
      <trkpt lat="27.813046" lon="86.711136">
        <ele>3773.6</ele>
        <time>2022-10-21T03:36:27.000Z</time>
      </trkpt>
      <trkpt lat="27.813066" lon="86.711136">
        <ele>3774.2</ele>
        <time>2022-10-21T03:36:30.000Z</time>
      </trkpt>
      <trkpt lat="27.813085" lon="86.711142">
        <ele>3774.2</ele>
        <time>2022-10-21T03:36:33.000Z</time>
      </trkpt>
      <trkpt lat="27.813101" lon="86.711162">
        <ele>3774.4</ele>
        <time>2022-10-21T03:36:37.000Z</time>
      </trkpt>
      <trkpt lat="27.81312" lon="86.711168">
        <ele>3775</ele>
        <time>2022-10-21T03:36:40.000Z</time>
      </trkpt>
      <trkpt lat="27.813133" lon="86.711187">
        <ele>3775.2</ele>
        <time>2022-10-21T03:36:43.000Z</time>
      </trkpt>
      <trkpt lat="27.813146" lon="86.711206">
        <ele>3775.4</ele>
        <time>2022-10-21T03:36:46.000Z</time>
      </trkpt>
      <trkpt lat="27.813158" lon="86.711226">
        <ele>3776</ele>
        <time>2022-10-21T03:36:50.000Z</time>
      </trkpt>
      <trkpt lat="27.813178" lon="86.711245">
        <ele>3776.4</ele>
        <time>2022-10-21T03:36:54.000Z</time>
      </trkpt>
      <trkpt lat="27.813194" lon="86.71127">
        <ele>3777</ele>
        <time>2022-10-21T03:36:59.000Z</time>
      </trkpt>
      <trkpt lat="27.813206" lon="86.711328">
        <ele>3779.8</ele>
        <time>2022-10-21T03:37:41.000Z</time>
      </trkpt>
      <trkpt lat="27.813206" lon="86.71136">
        <ele>3780.6</ele>
        <time>2022-10-21T03:37:44.000Z</time>
      </trkpt>
      <trkpt lat="27.8132" lon="86.711379">
        <ele>3780.6</ele>
        <time>2022-10-21T03:37:46.000Z</time>
      </trkpt>
      <trkpt lat="27.813197" lon="86.711411">
        <ele>3781.8</ele>
        <time>2022-10-21T03:37:49.000Z</time>
      </trkpt>
      <trkpt lat="27.81319" lon="86.71143">
        <ele>3781.8</ele>
        <time>2022-10-21T03:37:52.000Z</time>
      </trkpt>
      <trkpt lat="27.813181" lon="86.71145">
        <ele>3782.4</ele>
        <time>2022-10-21T03:37:56.000Z</time>
      </trkpt>
      <trkpt lat="27.813187" lon="86.711469">
        <ele>3783.4</ele>
        <time>2022-10-21T03:38:04.000Z</time>
      </trkpt>
      <trkpt lat="27.813194" lon="86.711488">
        <ele>3783.4</ele>
        <time>2022-10-21T03:38:07.000Z</time>
      </trkpt>
      <trkpt lat="27.813206" lon="86.711507">
        <ele>3784.4</ele>
        <time>2022-10-21T03:38:13.000Z</time>
      </trkpt>
      <trkpt lat="27.813206" lon="86.711533">
        <ele>3784.6</ele>
        <time>2022-10-21T03:38:19.000Z</time>
      </trkpt>
      <trkpt lat="27.813213" lon="86.711558">
        <ele>3785.6</ele>
        <time>2022-10-21T03:38:24.000Z</time>
      </trkpt>
      <trkpt lat="27.813206" lon="86.711578">
        <ele>3785.8</ele>
        <time>2022-10-21T03:38:29.000Z</time>
      </trkpt>
      <trkpt lat="27.813206" lon="86.711603">
        <ele>3786.8</ele>
        <time>2022-10-21T03:38:35.000Z</time>
      </trkpt>
      <trkpt lat="27.813331" lon="86.711718">
        <ele>3795</ele>
        <time>2022-10-21T03:40:36.000Z</time>
      </trkpt>
      <trkpt lat="27.81336" lon="86.711718">
        <ele>3795</ele>
        <time>2022-10-21T03:40:39.000Z</time>
      </trkpt>
      <trkpt lat="27.813382" lon="86.711725">
        <ele>3795</ele>
        <time>2022-10-21T03:40:41.000Z</time>
      </trkpt>
      <trkpt lat="27.813402" lon="86.711731">
        <ele>3795.4</ele>
        <time>2022-10-21T03:40:43.000Z</time>
      </trkpt>
      <trkpt lat="27.813424" lon="86.711738">
        <ele>3796.4</ele>
        <time>2022-10-21T03:40:46.000Z</time>
      </trkpt>
      <trkpt lat="27.813443" lon="86.711744">
        <ele>3796.4</ele>
        <time>2022-10-21T03:40:50.000Z</time>
      </trkpt>
      <trkpt lat="27.813459" lon="86.711757">
        <ele>3796.4</ele>
        <time>2022-10-21T03:40:54.000Z</time>
      </trkpt>
      <trkpt lat="27.813478" lon="86.711763">
        <ele>3796.8</ele>
        <time>2022-10-21T03:40:57.000Z</time>
      </trkpt>
      <trkpt lat="27.813514" lon="86.711808">
        <ele>3800.8</ele>
        <time>2022-10-21T03:41:48.000Z</time>
      </trkpt>
      <trkpt lat="27.813542" lon="86.711808">
        <ele>3801.2</ele>
        <time>2022-10-21T03:41:50.000Z</time>
      </trkpt>
      <trkpt lat="27.813568" lon="86.711802">
        <ele>3802</ele>
        <time>2022-10-21T03:41:52.000Z</time>
      </trkpt>
      <trkpt lat="27.813594" lon="86.711789">
        <ele>3802</ele>
        <time>2022-10-21T03:41:54.000Z</time>
      </trkpt>
      <trkpt lat="27.813616" lon="86.711782">
        <ele>3802.2</ele>
        <time>2022-10-21T03:41:56.000Z</time>
      </trkpt>
      <trkpt lat="27.813635" lon="86.711776">
        <ele>3802.4</ele>
        <time>2022-10-21T03:41:58.000Z</time>
      </trkpt>
      <trkpt lat="27.813654" lon="86.711763">
        <ele>3802.8</ele>
        <time>2022-10-21T03:42:02.000Z</time>
      </trkpt>
      <trkpt lat="27.813674" lon="86.711763">
        <ele>3803.4</ele>
        <time>2022-10-21T03:42:05.000Z</time>
      </trkpt>
      <trkpt lat="27.813696" lon="86.711744">
        <ele>3804</ele>
        <time>2022-10-21T03:42:09.000Z</time>
      </trkpt>
      <trkpt lat="27.813715" lon="86.711744">
        <ele>3804.6</ele>
        <time>2022-10-21T03:42:13.000Z</time>
      </trkpt>
      <trkpt lat="27.813734" lon="86.711731">
        <ele>3805.4</ele>
        <time>2022-10-21T03:42:39.000Z</time>
      </trkpt>
      <trkpt lat="27.81375" lon="86.711718">
        <ele>3806</ele>
        <time>2022-10-21T03:42:43.000Z</time>
      </trkpt>
      <trkpt lat="27.81377" lon="86.711699">
        <ele>3806</ele>
        <time>2022-10-21T03:42:46.000Z</time>
      </trkpt>
      <trkpt lat="27.813786" lon="86.71168">
        <ele>3806.6</ele>
        <time>2022-10-21T03:42:51.000Z</time>
      </trkpt>
      <trkpt lat="27.813792" lon="86.711661">
        <ele>3807</ele>
        <time>2022-10-21T03:42:53.000Z</time>
      </trkpt>
      <trkpt lat="27.813805" lon="86.711642">
        <ele>3807.4</ele>
        <time>2022-10-21T03:42:57.000Z</time>
      </trkpt>
      <trkpt lat="27.813814" lon="86.711622">
        <ele>3807.6</ele>
        <time>2022-10-21T03:43:00.000Z</time>
      </trkpt>
      <trkpt lat="27.81383" lon="86.71161">
        <ele>3808.4</ele>
        <time>2022-10-21T03:43:05.000Z</time>
      </trkpt>
      <trkpt lat="27.813837" lon="86.711584">
        <ele>3808.4</ele>
        <time>2022-10-21T03:43:09.000Z</time>
      </trkpt>
      <trkpt lat="27.813843" lon="86.711565">
        <ele>3809.4</ele>
        <time>2022-10-21T03:43:15.000Z</time>
      </trkpt>
      <trkpt lat="27.813853" lon="86.711539">
        <ele>3812.2</ele>
        <time>2022-10-21T03:43:46.000Z</time>
      </trkpt>
      <trkpt lat="27.813869" lon="86.71152">
        <ele>3812.4</ele>
        <time>2022-10-21T03:43:48.000Z</time>
      </trkpt>
      <trkpt lat="27.813878" lon="86.711488">
        <ele>3813</ele>
        <time>2022-10-21T03:43:50.000Z</time>
      </trkpt>
      <trkpt lat="27.813882" lon="86.711462">
        <ele>3813</ele>
        <time>2022-10-21T03:43:51.000Z</time>
      </trkpt>
      <trkpt lat="27.813891" lon="86.711443">
        <ele>3813.2</ele>
        <time>2022-10-21T03:43:53.000Z</time>
      </trkpt>
      <trkpt lat="27.813901" lon="86.711424">
        <ele>3813.8</ele>
        <time>2022-10-21T03:43:57.000Z</time>
      </trkpt>
      <trkpt lat="27.81391" lon="86.711405">
        <ele>3813.8</ele>
        <time>2022-10-21T03:44:00.000Z</time>
      </trkpt>
      <trkpt lat="27.81392" lon="86.711386">
        <ele>3814</ele>
        <time>2022-10-21T03:44:02.000Z</time>
      </trkpt>
      <trkpt lat="27.813936" lon="86.711366">
        <ele>3814.4</ele>
        <time>2022-10-21T03:44:06.000Z</time>
      </trkpt>
      <trkpt lat="27.813949" lon="86.711347">
        <ele>3814.6</ele>
        <time>2022-10-21T03:44:09.000Z</time>
      </trkpt>
      <trkpt lat="27.813965" lon="86.711328">
        <ele>3815.6</ele>
        <time>2022-10-21T03:44:14.000Z</time>
      </trkpt>
      <trkpt lat="27.813987" lon="86.711322">
        <ele>3815.6</ele>
        <time>2022-10-21T03:44:18.000Z</time>
      </trkpt>
      <trkpt lat="27.814003" lon="86.711309">
        <ele>3816</ele>
        <time>2022-10-21T03:44:21.000Z</time>
      </trkpt>
      <trkpt lat="27.814026" lon="86.711309">
        <ele>3816.8</ele>
        <time>2022-10-21T03:44:28.000Z</time>
      </trkpt>
      <trkpt lat="27.814048" lon="86.711322">
        <ele>3817.2</ele>
        <time>2022-10-21T03:46:01.000Z</time>
      </trkpt>
      <trkpt lat="27.81407" lon="86.711309">
        <ele>3817.2</ele>
        <time>2022-10-21T03:46:03.000Z</time>
      </trkpt>
      <trkpt lat="27.814093" lon="86.711302">
        <ele>3817.2</ele>
        <time>2022-10-21T03:46:05.000Z</time>
      </trkpt>
      <trkpt lat="27.814118" lon="86.711302">
        <ele>3817.2</ele>
        <time>2022-10-21T03:46:07.000Z</time>
      </trkpt>
      <trkpt lat="27.814144" lon="86.711296">
        <ele>3817.2</ele>
        <time>2022-10-21T03:46:09.000Z</time>
      </trkpt>
      <trkpt lat="27.81417" lon="86.711283">
        <ele>3817.2</ele>
        <time>2022-10-21T03:46:12.000Z</time>
      </trkpt>
      <trkpt lat="27.814192" lon="86.71127">
        <ele>3817.8</ele>
        <time>2022-10-21T03:46:15.000Z</time>
      </trkpt>
      <trkpt lat="27.814211" lon="86.711264">
        <ele>3817.8</ele>
        <time>2022-10-21T03:46:17.000Z</time>
      </trkpt>
      <trkpt lat="27.81424" lon="86.71127">
        <ele>3818.2</ele>
        <time>2022-10-21T03:48:30.000Z</time>
      </trkpt>
      <trkpt lat="27.814262" lon="86.711264">
        <ele>3818</ele>
        <time>2022-10-21T03:48:32.000Z</time>
      </trkpt>
      <trkpt lat="27.814285" lon="86.711258">
        <ele>3818.4</ele>
        <time>2022-10-21T03:48:34.000Z</time>
      </trkpt>
      <trkpt lat="27.814304" lon="86.711245">
        <ele>3819.2</ele>
        <time>2022-10-21T03:48:36.000Z</time>
      </trkpt>
      <trkpt lat="27.814323" lon="86.711226">
        <ele>3818.2</ele>
        <time>2022-10-21T03:48:38.000Z</time>
      </trkpt>
      <trkpt lat="27.814339" lon="86.711213">
        <ele>3818.2</ele>
        <time>2022-10-21T03:48:40.000Z</time>
      </trkpt>
      <trkpt lat="27.814362" lon="86.711206">
        <ele>3818.4</ele>
        <time>2022-10-21T03:48:43.000Z</time>
      </trkpt>
      <trkpt lat="27.814378" lon="86.711187">
        <ele>3818.4</ele>
        <time>2022-10-21T03:48:45.000Z</time>
      </trkpt>
      <trkpt lat="27.814394" lon="86.711174">
        <ele>3818.6</ele>
        <time>2022-10-21T03:48:48.000Z</time>
      </trkpt>
      <trkpt lat="27.81441" lon="86.711162">
        <ele>3819</ele>
        <time>2022-10-21T03:48:50.000Z</time>
      </trkpt>
      <trkpt lat="27.814422" lon="86.711142">
        <ele>3819.2</ele>
        <time>2022-10-21T03:48:53.000Z</time>
      </trkpt>
      <trkpt lat="27.814438" lon="86.71113">
        <ele>3819.2</ele>
        <time>2022-10-21T03:48:55.000Z</time>
      </trkpt>
      <trkpt lat="27.814458" lon="86.71111">
        <ele>3819.4</ele>
        <time>2022-10-21T03:48:58.000Z</time>
      </trkpt>
      <trkpt lat="27.814477" lon="86.711098">
        <ele>3819.4</ele>
        <time>2022-10-21T03:49:01.000Z</time>
      </trkpt>
      <trkpt lat="27.814493" lon="86.711085">
        <ele>3820</ele>
        <time>2022-10-21T03:49:47.000Z</time>
      </trkpt>
      <trkpt lat="27.814506" lon="86.711066">
        <ele>3820</ele>
        <time>2022-10-21T03:49:48.000Z</time>
      </trkpt>
      <trkpt lat="27.814525" lon="86.711053">
        <ele>3820.2</ele>
        <time>2022-10-21T03:49:50.000Z</time>
      </trkpt>
      <trkpt lat="27.814534" lon="86.711034">
        <ele>3820.2</ele>
        <time>2022-10-21T03:49:51.000Z</time>
      </trkpt>
      <trkpt lat="27.814554" lon="86.711021">
        <ele>3820.2</ele>
        <time>2022-10-21T03:49:53.000Z</time>
      </trkpt>
      <trkpt lat="27.814579" lon="86.711002">
        <ele>3820.2</ele>
        <time>2022-10-21T03:49:55.000Z</time>
      </trkpt>
      <trkpt lat="27.814595" lon="86.710989">
        <ele>3820.2</ele>
        <time>2022-10-21T03:49:57.000Z</time>
      </trkpt>
      <trkpt lat="27.814621" lon="86.710982">
        <ele>3820.2</ele>
        <time>2022-10-21T03:50:01.000Z</time>
      </trkpt>
      <trkpt lat="27.814643" lon="86.71097">
        <ele>3820.6</ele>
        <time>2022-10-21T03:50:04.000Z</time>
      </trkpt>
      <trkpt lat="27.814662" lon="86.710963">
        <ele>3821.4</ele>
        <time>2022-10-21T03:50:16.000Z</time>
      </trkpt>
      <trkpt lat="27.814675" lon="86.710944">
        <ele>3821</ele>
        <time>2022-10-21T03:50:18.000Z</time>
      </trkpt>
      <trkpt lat="27.814691" lon="86.710931">
        <ele>3821.4</ele>
        <time>2022-10-21T03:50:20.000Z</time>
      </trkpt>
      <trkpt lat="27.81471" lon="86.710925">
        <ele>3821.4</ele>
        <time>2022-10-21T03:50:23.000Z</time>
      </trkpt>
      <trkpt lat="27.814726" lon="86.710906">
        <ele>3821.8</ele>
        <time>2022-10-21T03:50:27.000Z</time>
      </trkpt>
      <trkpt lat="27.814742" lon="86.710893">
        <ele>3822.4</ele>
        <time>2022-10-21T03:50:30.000Z</time>
      </trkpt>
      <trkpt lat="27.814762" lon="86.710886">
        <ele>3822.4</ele>
        <time>2022-10-21T03:50:33.000Z</time>
      </trkpt>
      <trkpt lat="27.814778" lon="86.710874">
        <ele>3822.8</ele>
        <time>2022-10-21T03:50:35.000Z</time>
      </trkpt>
      <trkpt lat="27.814803" lon="86.710861">
        <ele>3823</ele>
        <time>2022-10-21T03:50:39.000Z</time>
      </trkpt>
      <trkpt lat="27.814816" lon="86.710854">
        <ele>3823</ele>
        <time>2022-10-21T03:50:41.000Z</time>
      </trkpt>
      <trkpt lat="27.814842" lon="86.710854">
        <ele>3823.4</ele>
        <time>2022-10-21T03:50:44.000Z</time>
      </trkpt>
      <trkpt lat="27.814861" lon="86.710848">
        <ele>3823.6</ele>
        <time>2022-10-21T03:50:47.000Z</time>
      </trkpt>
      <trkpt lat="27.81488" lon="86.710848">
        <ele>3823.8</ele>
        <time>2022-10-21T03:50:50.000Z</time>
      </trkpt>
      <trkpt lat="27.814896" lon="86.710835">
        <ele>3824.2</ele>
        <time>2022-10-21T03:50:53.000Z</time>
      </trkpt>
      <trkpt lat="27.814918" lon="86.710829">
        <ele>3824.2</ele>
        <time>2022-10-21T03:50:57.000Z</time>
      </trkpt>
      <trkpt lat="27.814938" lon="86.710816">
        <ele>3824.8</ele>
        <time>2022-10-21T03:51:00.000Z</time>
      </trkpt>
      <trkpt lat="27.81496" lon="86.71081">
        <ele>3825.4</ele>
        <time>2022-10-21T03:51:04.000Z</time>
      </trkpt>
      <trkpt lat="27.814982" lon="86.710803">
        <ele>3825.8</ele>
        <time>2022-10-21T03:51:07.000Z</time>
      </trkpt>
      <trkpt lat="27.815002" lon="86.71079">
        <ele>3826.2</ele>
        <time>2022-10-21T03:51:10.000Z</time>
      </trkpt>
      <trkpt lat="27.815021" lon="86.710784">
        <ele>3826.4</ele>
        <time>2022-10-21T03:51:13.000Z</time>
      </trkpt>
      <trkpt lat="27.815043" lon="86.710784">
        <ele>3827</ele>
        <time>2022-10-21T03:51:16.000Z</time>
      </trkpt>
      <trkpt lat="27.815062" lon="86.710771">
        <ele>3827.2</ele>
        <time>2022-10-21T03:51:19.000Z</time>
      </trkpt>
      <trkpt lat="27.815082" lon="86.710765">
        <ele>3827.4</ele>
        <time>2022-10-21T03:51:22.000Z</time>
      </trkpt>
      <trkpt lat="27.815101" lon="86.710752">
        <ele>3827.8</ele>
        <time>2022-10-21T03:51:25.000Z</time>
      </trkpt>
      <trkpt lat="27.815123" lon="86.710746">
        <ele>3828.2</ele>
        <time>2022-10-21T03:51:28.000Z</time>
      </trkpt>
      <trkpt lat="27.815142" lon="86.710739">
        <ele>3828.6</ele>
        <time>2022-10-21T03:51:31.000Z</time>
      </trkpt>
      <trkpt lat="27.815158" lon="86.710726">
        <ele>3829.2</ele>
        <time>2022-10-21T03:51:34.000Z</time>
      </trkpt>
      <trkpt lat="27.815174" lon="86.710707">
        <ele>3830</ele>
        <time>2022-10-21T03:51:37.000Z</time>
      </trkpt>
      <trkpt lat="27.8152" lon="86.710694">
        <ele>3830</ele>
        <time>2022-10-21T03:51:41.000Z</time>
      </trkpt>
      <trkpt lat="27.815216" lon="86.710675">
        <ele>3830.4</ele>
        <time>2022-10-21T03:51:44.000Z</time>
      </trkpt>
      <trkpt lat="27.815232" lon="86.710656">
        <ele>3830.8</ele>
        <time>2022-10-21T03:51:48.000Z</time>
      </trkpt>
      <trkpt lat="27.815238" lon="86.710637">
        <ele>3830.8</ele>
        <time>2022-10-21T03:51:50.000Z</time>
      </trkpt>
      <trkpt lat="27.815254" lon="86.710624">
        <ele>3831.4</ele>
        <time>2022-10-21T03:51:53.000Z</time>
      </trkpt>
      <trkpt lat="27.81527" lon="86.710611">
        <ele>3831.4</ele>
        <time>2022-10-21T03:51:55.000Z</time>
      </trkpt>
      <trkpt lat="27.815286" lon="86.710592">
        <ele>3831.4</ele>
        <time>2022-10-21T03:51:58.000Z</time>
      </trkpt>
      <trkpt lat="27.815306" lon="86.710579">
        <ele>3831.4</ele>
        <time>2022-10-21T03:52:01.000Z</time>
      </trkpt>
      <trkpt lat="27.815322" lon="86.710566">
        <ele>3831.4</ele>
        <time>2022-10-21T03:52:05.000Z</time>
      </trkpt>
      <trkpt lat="27.815331" lon="86.710547">
        <ele>3831.4</ele>
        <time>2022-10-21T03:52:07.000Z</time>
      </trkpt>
      <trkpt lat="27.815347" lon="86.710534">
        <ele>3831.4</ele>
        <time>2022-10-21T03:52:09.000Z</time>
      </trkpt>
      <trkpt lat="27.815363" lon="86.710515">
        <ele>3831.4</ele>
        <time>2022-10-21T03:52:11.000Z</time>
      </trkpt>
      <trkpt lat="27.815382" lon="86.710496">
        <ele>3831.8</ele>
        <time>2022-10-21T03:52:15.000Z</time>
      </trkpt>
      <trkpt lat="27.815402" lon="86.710477">
        <ele>3831.8</ele>
        <time>2022-10-21T03:52:18.000Z</time>
      </trkpt>
      <trkpt lat="27.815418" lon="86.710464">
        <ele>3831.8</ele>
        <time>2022-10-21T03:52:21.000Z</time>
      </trkpt>
      <trkpt lat="27.81544" lon="86.710438">
        <ele>3831.8</ele>
        <time>2022-10-21T03:52:24.000Z</time>
      </trkpt>
      <trkpt lat="27.815456" lon="86.710426">
        <ele>3831.8</ele>
        <time>2022-10-21T03:52:27.000Z</time>
      </trkpt>
      <trkpt lat="27.815469" lon="86.710406">
        <ele>3831.8</ele>
        <time>2022-10-21T03:52:30.000Z</time>
      </trkpt>
      <trkpt lat="27.815482" lon="86.710387">
        <ele>3832</ele>
        <time>2022-10-21T03:52:32.000Z</time>
      </trkpt>
      <trkpt lat="27.815498" lon="86.710374">
        <ele>3832</ele>
        <time>2022-10-21T03:52:35.000Z</time>
      </trkpt>
      <trkpt lat="27.815507" lon="86.710349">
        <ele>3831.8</ele>
        <time>2022-10-21T03:52:37.000Z</time>
      </trkpt>
      <trkpt lat="27.815526" lon="86.71033">
        <ele>3831.8</ele>
        <time>2022-10-21T03:52:41.000Z</time>
      </trkpt>
      <trkpt lat="27.815539" lon="86.71031">
        <ele>3832</ele>
        <time>2022-10-21T03:52:44.000Z</time>
      </trkpt>
      <trkpt lat="27.815552" lon="86.710291">
        <ele>3831.6</ele>
        <time>2022-10-21T03:52:47.000Z</time>
      </trkpt>
      <trkpt lat="27.815565" lon="86.710272">
        <ele>3831.8</ele>
        <time>2022-10-21T03:52:49.000Z</time>
      </trkpt>
      <trkpt lat="27.815581" lon="86.710259">
        <ele>3831.8</ele>
        <time>2022-10-21T03:52:51.000Z</time>
      </trkpt>
      <trkpt lat="27.815597" lon="86.710246">
        <ele>3832.2</ele>
        <time>2022-10-21T03:52:54.000Z</time>
      </trkpt>
      <trkpt lat="27.815613" lon="86.710227">
        <ele>3832.6</ele>
        <time>2022-10-21T03:52:57.000Z</time>
      </trkpt>
      <trkpt lat="27.815629" lon="86.710214">
        <ele>3832.6</ele>
        <time>2022-10-21T03:53:00.000Z</time>
      </trkpt>
      <trkpt lat="27.815648" lon="86.710195">
        <ele>3833.2</ele>
        <time>2022-10-21T03:53:03.000Z</time>
      </trkpt>
      <trkpt lat="27.815664" lon="86.710182">
        <ele>3833.6</ele>
        <time>2022-10-21T03:53:06.000Z</time>
      </trkpt>
      <trkpt lat="27.815683" lon="86.71017">
        <ele>3834</ele>
        <time>2022-10-21T03:53:09.000Z</time>
      </trkpt>
      <trkpt lat="27.815702" lon="86.71017">
        <ele>3834.4</ele>
        <time>2022-10-21T03:53:12.000Z</time>
      </trkpt>
      <trkpt lat="27.815725" lon="86.710157">
        <ele>3835</ele>
        <time>2022-10-21T03:53:16.000Z</time>
      </trkpt>
      <trkpt lat="27.815744" lon="86.710144">
        <ele>3835.2</ele>
        <time>2022-10-21T03:53:20.000Z</time>
      </trkpt>
      <trkpt lat="27.815757" lon="86.710118">
        <ele>3835.8</ele>
        <time>2022-10-21T03:53:29.000Z</time>
      </trkpt>
      <trkpt lat="27.815776" lon="86.710106">
        <ele>3836</ele>
        <time>2022-10-21T03:53:32.000Z</time>
      </trkpt>
      <trkpt lat="27.815789" lon="86.71008">
        <ele>3836</ele>
        <time>2022-10-21T03:53:35.000Z</time>
      </trkpt>
      <trkpt lat="27.815808" lon="86.710067">
        <ele>3835.8</ele>
        <time>2022-10-21T03:53:38.000Z</time>
      </trkpt>
      <trkpt lat="27.815827" lon="86.710054">
        <ele>3836.4</ele>
        <time>2022-10-21T03:53:41.000Z</time>
      </trkpt>
      <trkpt lat="27.815846" lon="86.710035">
        <ele>3836.4</ele>
        <time>2022-10-21T03:53:44.000Z</time>
      </trkpt>
      <trkpt lat="27.815866" lon="86.710035">
        <ele>3836.8</ele>
        <time>2022-10-21T03:53:46.000Z</time>
      </trkpt>
      <trkpt lat="27.815878" lon="86.710016">
        <ele>3837.2</ele>
        <time>2022-10-21T03:53:52.000Z</time>
      </trkpt>
      <trkpt lat="27.815888" lon="86.709997">
        <ele>3837.2</ele>
        <time>2022-10-21T03:53:54.000Z</time>
      </trkpt>
      <trkpt lat="27.815901" lon="86.709978">
        <ele>3837.8</ele>
        <time>2022-10-21T03:53:58.000Z</time>
      </trkpt>
      <trkpt lat="27.815914" lon="86.709958">
        <ele>3838.2</ele>
        <time>2022-10-21T03:54:01.000Z</time>
      </trkpt>
      <trkpt lat="27.815923" lon="86.709939">
        <ele>3838.2</ele>
        <time>2022-10-21T03:54:04.000Z</time>
      </trkpt>
      <trkpt lat="27.81593" lon="86.70992">
        <ele>3838.2</ele>
        <time>2022-10-21T03:54:07.000Z</time>
      </trkpt>
      <trkpt lat="27.815942" lon="86.709901">
        <ele>3838.8</ele>
        <time>2022-10-21T03:54:11.000Z</time>
      </trkpt>
      <trkpt lat="27.815965" lon="86.709882">
        <ele>3838.8</ele>
        <time>2022-10-21T03:54:15.000Z</time>
      </trkpt>
      <trkpt lat="27.815984" lon="86.709862">
        <ele>3839.6</ele>
        <time>2022-10-21T03:54:19.000Z</time>
      </trkpt>
      <trkpt lat="27.816003" lon="86.70983">
        <ele>3840</ele>
        <time>2022-10-21T03:54:24.000Z</time>
      </trkpt>
      <trkpt lat="27.816013" lon="86.709824">
        <ele>3840</ele>
        <time>2022-10-21T03:54:26.000Z</time>
      </trkpt>
      <trkpt lat="27.816032" lon="86.709811">
        <ele>3840.8</ele>
        <time>2022-10-21T03:54:30.000Z</time>
      </trkpt>
      <trkpt lat="27.816042" lon="86.709792">
        <ele>3841.8</ele>
        <time>2022-10-21T03:54:34.000Z</time>
      </trkpt>
      <trkpt lat="27.816064" lon="86.709792">
        <ele>3842</ele>
        <time>2022-10-21T03:54:38.000Z</time>
      </trkpt>
      <trkpt lat="27.816086" lon="86.709811">
        <ele>3842.8</ele>
        <time>2022-10-21T03:54:42.000Z</time>
      </trkpt>
      <trkpt lat="27.816106" lon="86.709818">
        <ele>3843.8</ele>
        <time>2022-10-21T03:54:45.000Z</time>
      </trkpt>
      <trkpt lat="27.816118" lon="86.709837">
        <ele>3844.8</ele>
        <time>2022-10-21T03:54:50.000Z</time>
      </trkpt>
      <trkpt lat="27.816128" lon="86.709856">
        <ele>3845</ele>
        <time>2022-10-21T03:54:55.000Z</time>
      </trkpt>
      <trkpt lat="27.816147" lon="86.709869">
        <ele>3846.8</ele>
        <time>2022-10-21T03:55:03.000Z</time>
      </trkpt>
      <trkpt lat="27.816163" lon="86.709856">
        <ele>3847.8</ele>
        <time>2022-10-21T03:55:15.000Z</time>
      </trkpt>
      <trkpt lat="27.816182" lon="86.70985">
        <ele>3848.6</ele>
        <time>2022-10-21T03:55:19.000Z</time>
      </trkpt>
      <trkpt lat="27.816205" lon="86.70985">
        <ele>3849.4</ele>
        <time>2022-10-21T03:55:23.000Z</time>
      </trkpt>
      <trkpt lat="27.816224" lon="86.70985">
        <ele>3851.4</ele>
        <time>2022-10-21T03:55:30.000Z</time>
      </trkpt>
      <trkpt lat="27.816246" lon="86.70985">
        <ele>3851.2</ele>
        <time>2022-10-21T03:55:34.000Z</time>
      </trkpt>
      <trkpt lat="27.81624" lon="86.70983">
        <ele>3854.6</ele>
        <time>2022-10-21T04:01:46.000Z</time>
      </trkpt>
      <trkpt lat="27.816234" lon="86.709811">
        <ele>3855.2</ele>
        <time>2022-10-21T04:01:53.000Z</time>
      </trkpt>
      <trkpt lat="27.816195" lon="86.70983">
        <ele>3855</ele>
        <time>2022-10-21T04:04:33.000Z</time>
      </trkpt>
      <trkpt lat="27.816211" lon="86.709818">
        <ele>3855.8</ele>
        <time>2022-10-21T04:04:36.000Z</time>
      </trkpt>
      <trkpt lat="27.81623" lon="86.709811">
        <ele>3856</ele>
        <time>2022-10-21T04:04:38.000Z</time>
      </trkpt>
      <trkpt lat="27.816246" lon="86.709798">
        <ele>3856.2</ele>
        <time>2022-10-21T04:04:42.000Z</time>
      </trkpt>
      <trkpt lat="27.816272" lon="86.709818">
        <ele>3857.2</ele>
        <time>2022-10-21T04:05:40.000Z</time>
      </trkpt>
      <trkpt lat="27.816304" lon="86.709824">
        <ele>3857.4</ele>
        <time>2022-10-21T04:05:42.000Z</time>
      </trkpt>
      <trkpt lat="27.816333" lon="86.70983">
        <ele>3857.6</ele>
        <time>2022-10-21T04:05:44.000Z</time>
      </trkpt>
      <trkpt lat="27.816365" lon="86.709837">
        <ele>3857.8</ele>
        <time>2022-10-21T04:05:46.000Z</time>
      </trkpt>
      <trkpt lat="27.816387" lon="86.70985">
        <ele>3858</ele>
        <time>2022-10-21T04:05:47.000Z</time>
      </trkpt>
      <trkpt lat="27.816416" lon="86.709856">
        <ele>3858.4</ele>
        <time>2022-10-21T04:05:49.000Z</time>
      </trkpt>
      <trkpt lat="27.816432" lon="86.709869">
        <ele>3859</ele>
        <time>2022-10-21T04:05:52.000Z</time>
      </trkpt>
      <trkpt lat="27.816445" lon="86.709894">
        <ele>3858.8</ele>
        <time>2022-10-21T04:05:55.000Z</time>
      </trkpt>
      <trkpt lat="27.81647" lon="86.709907">
        <ele>3859.4</ele>
        <time>2022-10-21T04:05:59.000Z</time>
      </trkpt>
      <trkpt lat="27.816493" lon="86.70992">
        <ele>3859.6</ele>
        <time>2022-10-21T04:06:02.000Z</time>
      </trkpt>
      <trkpt lat="27.816509" lon="86.709933">
        <ele>3859.6</ele>
        <time>2022-10-21T04:06:04.000Z</time>
      </trkpt>
      <trkpt lat="27.816531" lon="86.709933">
        <ele>3859.8</ele>
        <time>2022-10-21T04:06:07.000Z</time>
      </trkpt>
      <trkpt lat="27.816554" lon="86.709933">
        <ele>3859.8</ele>
        <time>2022-10-21T04:06:09.000Z</time>
      </trkpt>
      <trkpt lat="27.81657" lon="86.70992">
        <ele>3859.8</ele>
        <time>2022-10-21T04:06:11.000Z</time>
      </trkpt>
      <trkpt lat="27.816592" lon="86.70992">
        <ele>3860.2</ele>
        <time>2022-10-21T04:06:14.000Z</time>
      </trkpt>
      <trkpt lat="27.816611" lon="86.70992">
        <ele>3860.2</ele>
        <time>2022-10-21T04:06:16.000Z</time>
      </trkpt>
      <trkpt lat="27.816637" lon="86.709914">
        <ele>3860.4</ele>
        <time>2022-10-21T04:06:19.000Z</time>
      </trkpt>
      <trkpt lat="27.816656" lon="86.709914">
        <ele>3860.4</ele>
        <time>2022-10-21T04:06:21.000Z</time>
      </trkpt>
      <trkpt lat="27.816682" lon="86.709907">
        <ele>3861</ele>
        <time>2022-10-21T04:06:24.000Z</time>
      </trkpt>
      <trkpt lat="27.816704" lon="86.709907">
        <ele>3861.4</ele>
        <time>2022-10-21T04:06:26.000Z</time>
      </trkpt>
      <trkpt lat="27.81673" lon="86.709914">
        <ele>3861.4</ele>
        <time>2022-10-21T04:06:29.000Z</time>
      </trkpt>
      <trkpt lat="27.816755" lon="86.709914">
        <ele>3862</ele>
        <time>2022-10-21T04:06:32.000Z</time>
      </trkpt>
      <trkpt lat="27.816781" lon="86.709914">
        <ele>3862.2</ele>
        <time>2022-10-21T04:06:35.000Z</time>
      </trkpt>
      <trkpt lat="27.8168" lon="86.709914">
        <ele>3862.2</ele>
        <time>2022-10-21T04:06:37.000Z</time>
      </trkpt>
      <trkpt lat="27.816826" lon="86.70992">
        <ele>3862.2</ele>
        <time>2022-10-21T04:06:40.000Z</time>
      </trkpt>
      <trkpt lat="27.816848" lon="86.70992">
        <ele>3862.4</ele>
        <time>2022-10-21T04:06:42.000Z</time>
      </trkpt>
      <trkpt lat="27.816867" lon="86.70992">
        <ele>3862.2</ele>
        <time>2022-10-21T04:06:44.000Z</time>
      </trkpt>
      <trkpt lat="27.816886" lon="86.709914">
        <ele>3862</ele>
        <time>2022-10-21T04:06:46.000Z</time>
      </trkpt>
      <trkpt lat="27.816906" lon="86.70992">
        <ele>3863</ele>
        <time>2022-10-21T04:06:49.000Z</time>
      </trkpt>
      <trkpt lat="27.816922" lon="86.709907">
        <ele>3862.6</ele>
        <time>2022-10-21T04:06:51.000Z</time>
      </trkpt>
      <trkpt lat="27.816941" lon="86.709894">
        <ele>3862.4</ele>
        <time>2022-10-21T04:06:54.000Z</time>
      </trkpt>
      <trkpt lat="27.816957" lon="86.709875">
        <ele>3862.2</ele>
        <time>2022-10-21T04:06:56.000Z</time>
      </trkpt>
      <trkpt lat="27.816979" lon="86.709856">
        <ele>3861.6</ele>
        <time>2022-10-21T04:06:59.000Z</time>
      </trkpt>
      <trkpt lat="27.816995" lon="86.709837">
        <ele>3861.6</ele>
        <time>2022-10-21T04:07:01.000Z</time>
      </trkpt>
      <trkpt lat="27.817018" lon="86.709818">
        <ele>3861.2</ele>
        <time>2022-10-21T04:07:04.000Z</time>
      </trkpt>
      <trkpt lat="27.81704" lon="86.709792">
        <ele>3861</ele>
        <time>2022-10-21T04:07:07.000Z</time>
      </trkpt>
      <trkpt lat="27.817056" lon="86.709779">
        <ele>3861.4</ele>
        <time>2022-10-21T04:07:09.000Z</time>
      </trkpt>
      <trkpt lat="27.817069" lon="86.70976">
        <ele>3861.4</ele>
        <time>2022-10-21T04:07:11.000Z</time>
      </trkpt>
      <trkpt lat="27.817085" lon="86.709747">
        <ele>3861.4</ele>
        <time>2022-10-21T04:07:13.000Z</time>
      </trkpt>
      <trkpt lat="27.817107" lon="86.709722">
        <ele>3861.4</ele>
        <time>2022-10-21T04:07:16.000Z</time>
      </trkpt>
      <trkpt lat="27.817126" lon="86.709715">
        <ele>3862</ele>
        <time>2022-10-21T04:07:24.000Z</time>
      </trkpt>
      <trkpt lat="27.817152" lon="86.709715">
        <ele>3861.4</ele>
        <time>2022-10-21T04:07:28.000Z</time>
      </trkpt>
      <trkpt lat="27.817178" lon="86.709709">
        <ele>3861.4</ele>
        <time>2022-10-21T04:07:31.000Z</time>
      </trkpt>
      <trkpt lat="27.817197" lon="86.709702">
        <ele>3860.8</ele>
        <time>2022-10-21T04:07:34.000Z</time>
      </trkpt>
      <trkpt lat="27.817219" lon="86.709696">
        <ele>3860.6</ele>
        <time>2022-10-21T04:07:37.000Z</time>
      </trkpt>
      <trkpt lat="27.817238" lon="86.709683">
        <ele>3860.2</ele>
        <time>2022-10-21T04:07:39.000Z</time>
      </trkpt>
      <trkpt lat="27.817258" lon="86.709677">
        <ele>3860</ele>
        <time>2022-10-21T04:07:41.000Z</time>
      </trkpt>
      <trkpt lat="27.817277" lon="86.709677">
        <ele>3859.8</ele>
        <time>2022-10-21T04:07:43.000Z</time>
      </trkpt>
      <trkpt lat="27.817296" lon="86.70967">
        <ele>3859.8</ele>
        <time>2022-10-21T04:07:45.000Z</time>
      </trkpt>
      <trkpt lat="27.817315" lon="86.709664">
        <ele>3859.8</ele>
        <time>2022-10-21T04:07:47.000Z</time>
      </trkpt>
      <trkpt lat="27.817341" lon="86.709658">
        <ele>3860</ele>
        <time>2022-10-21T04:07:50.000Z</time>
      </trkpt>
      <trkpt lat="27.817366" lon="86.709658">
        <ele>3860</ele>
        <time>2022-10-21T04:07:53.000Z</time>
      </trkpt>
      <trkpt lat="27.817386" lon="86.709651">
        <ele>3860</ele>
        <time>2022-10-21T04:07:55.000Z</time>
      </trkpt>
      <trkpt lat="27.817408" lon="86.709651">
        <ele>3859.8</ele>
        <time>2022-10-21T04:07:58.000Z</time>
      </trkpt>
      <trkpt lat="27.817427" lon="86.709651">
        <ele>3859.8</ele>
        <time>2022-10-21T04:08:00.000Z</time>
      </trkpt>
      <trkpt lat="27.817446" lon="86.709632">
        <ele>3859.6</ele>
        <time>2022-10-21T04:08:02.000Z</time>
      </trkpt>
      <trkpt lat="27.817466" lon="86.709626">
        <ele>3859.6</ele>
        <time>2022-10-21T04:08:04.000Z</time>
      </trkpt>
      <trkpt lat="27.817485" lon="86.709619">
        <ele>3859.4</ele>
        <time>2022-10-21T04:08:06.000Z</time>
      </trkpt>
      <trkpt lat="27.81751" lon="86.709619">
        <ele>3859.6</ele>
        <time>2022-10-21T04:08:09.000Z</time>
      </trkpt>
      <trkpt lat="27.81753" lon="86.709613">
        <ele>3859.8</ele>
        <time>2022-10-21T04:08:11.000Z</time>
      </trkpt>
      <trkpt lat="27.817555" lon="86.709613">
        <ele>3859.8</ele>
        <time>2022-10-21T04:08:14.000Z</time>
      </trkpt>
      <trkpt lat="27.817578" lon="86.709613">
        <ele>3859.8</ele>
        <time>2022-10-21T04:08:17.000Z</time>
      </trkpt>
      <trkpt lat="27.817594" lon="86.7096">
        <ele>3860.4</ele>
        <time>2022-10-21T04:08:19.000Z</time>
      </trkpt>
      <trkpt lat="27.817613" lon="86.709613">
        <ele>3860.8</ele>
        <time>2022-10-21T04:08:22.000Z</time>
      </trkpt>
      <trkpt lat="27.817635" lon="86.709619">
        <ele>3861.6</ele>
        <time>2022-10-21T04:08:25.000Z</time>
      </trkpt>
      <trkpt lat="27.817654" lon="86.709632">
        <ele>3862</ele>
        <time>2022-10-21T04:08:28.000Z</time>
      </trkpt>
      <trkpt lat="27.81768" lon="86.709638">
        <ele>3862.4</ele>
        <time>2022-10-21T04:08:32.000Z</time>
      </trkpt>
      <trkpt lat="27.817696" lon="86.709651">
        <ele>3862.6</ele>
        <time>2022-10-21T04:08:34.000Z</time>
      </trkpt>
      <trkpt lat="27.817715" lon="86.709651">
        <ele>3862.6</ele>
        <time>2022-10-21T04:08:36.000Z</time>
      </trkpt>
      <trkpt lat="27.817738" lon="86.709651">
        <ele>3862.6</ele>
        <time>2022-10-21T04:08:39.000Z</time>
      </trkpt>
      <trkpt lat="27.817763" lon="86.709651">
        <ele>3863</ele>
        <time>2022-10-21T04:08:42.000Z</time>
      </trkpt>
      <trkpt lat="27.817782" lon="86.709651">
        <ele>3863.2</ele>
        <time>2022-10-21T04:08:44.000Z</time>
      </trkpt>
      <trkpt lat="27.817802" lon="86.709651">
        <ele>3863.4</ele>
        <time>2022-10-21T04:08:46.000Z</time>
      </trkpt>
      <trkpt lat="27.817824" lon="86.709651">
        <ele>3863.8</ele>
        <time>2022-10-21T04:08:49.000Z</time>
      </trkpt>
      <trkpt lat="27.81785" lon="86.709651">
        <ele>3863.8</ele>
        <time>2022-10-21T04:08:52.000Z</time>
      </trkpt>
      <trkpt lat="27.817866" lon="86.709638">
        <ele>3864.6</ele>
        <time>2022-10-21T04:08:55.000Z</time>
      </trkpt>
      <trkpt lat="27.817885" lon="86.709632">
        <ele>3865</ele>
        <time>2022-10-21T04:09:00.000Z</time>
      </trkpt>
      <trkpt lat="27.817891" lon="86.709613">
        <ele>3865.8</ele>
        <time>2022-10-21T04:09:04.000Z</time>
      </trkpt>
      <trkpt lat="27.817894" lon="86.709587">
        <ele>3866.4</ele>
        <time>2022-10-21T04:09:08.000Z</time>
      </trkpt>
      <trkpt lat="27.817901" lon="86.709562">
        <ele>3867.2</ele>
        <time>2022-10-21T04:09:12.000Z</time>
      </trkpt>
      <trkpt lat="27.81791" lon="86.709542">
        <ele>3867.6</ele>
        <time>2022-10-21T04:09:16.000Z</time>
      </trkpt>
      <trkpt lat="27.81792" lon="86.709517">
        <ele>3868.2</ele>
        <time>2022-10-21T04:09:19.000Z</time>
      </trkpt>
      <trkpt lat="27.817936" lon="86.709504">
        <ele>3868.6</ele>
        <time>2022-10-21T04:09:22.000Z</time>
      </trkpt>
      <trkpt lat="27.817949" lon="86.709485">
        <ele>3869</ele>
        <time>2022-10-21T04:09:24.000Z</time>
      </trkpt>
      <trkpt lat="27.817974" lon="86.709478">
        <ele>3869</ele>
        <time>2022-10-21T04:09:27.000Z</time>
      </trkpt>
      <trkpt lat="27.817994" lon="86.709478">
        <ele>3868.8</ele>
        <time>2022-10-21T04:09:30.000Z</time>
      </trkpt>
      <trkpt lat="27.818013" lon="86.709478">
        <ele>3868.8</ele>
        <time>2022-10-21T04:09:33.000Z</time>
      </trkpt>
      <trkpt lat="27.818035" lon="86.709466">
        <ele>3869.2</ele>
        <time>2022-10-21T04:09:48.000Z</time>
      </trkpt>
      <trkpt lat="27.818058" lon="86.70944">
        <ele>3868.8</ele>
        <time>2022-10-21T04:09:50.000Z</time>
      </trkpt>
      <trkpt lat="27.81808" lon="86.709427">
        <ele>3868.8</ele>
        <time>2022-10-21T04:09:52.000Z</time>
      </trkpt>
      <trkpt lat="27.818102" lon="86.709414">
        <ele>3868.6</ele>
        <time>2022-10-21T04:09:54.000Z</time>
      </trkpt>
      <trkpt lat="27.818118" lon="86.709395">
        <ele>3868.6</ele>
        <time>2022-10-21T04:09:55.000Z</time>
      </trkpt>
      <trkpt lat="27.818141" lon="86.709389">
        <ele>3868.6</ele>
        <time>2022-10-21T04:09:57.000Z</time>
      </trkpt>
      <trkpt lat="27.81816" lon="86.709376">
        <ele>3868.2</ele>
        <time>2022-10-21T04:09:59.000Z</time>
      </trkpt>
      <trkpt lat="27.818179" lon="86.709357">
        <ele>3868.2</ele>
        <time>2022-10-21T04:10:01.000Z</time>
      </trkpt>
      <trkpt lat="27.818198" lon="86.709338">
        <ele>3868.2</ele>
        <time>2022-10-21T04:10:04.000Z</time>
      </trkpt>
      <trkpt lat="27.818208" lon="86.709312">
        <ele>3868.6</ele>
        <time>2022-10-21T04:10:06.000Z</time>
      </trkpt>
      <trkpt lat="27.818224" lon="86.709299">
        <ele>3868.8</ele>
        <time>2022-10-21T04:10:08.000Z</time>
      </trkpt>
      <trkpt lat="27.818234" lon="86.70928">
        <ele>3868.8</ele>
        <time>2022-10-21T04:10:10.000Z</time>
      </trkpt>
      <trkpt lat="27.818253" lon="86.709261">
        <ele>3868.2</ele>
        <time>2022-10-21T04:10:13.000Z</time>
      </trkpt>
      <trkpt lat="27.818259" lon="86.709235">
        <ele>3868.6</ele>
        <time>2022-10-21T04:10:15.000Z</time>
      </trkpt>
      <trkpt lat="27.818269" lon="86.709216">
        <ele>3868.2</ele>
        <time>2022-10-21T04:10:17.000Z</time>
      </trkpt>
      <trkpt lat="27.818278" lon="86.709184">
        <ele>3868.6</ele>
        <time>2022-10-21T04:10:20.000Z</time>
      </trkpt>
      <trkpt lat="27.818285" lon="86.709158">
        <ele>3868.6</ele>
        <time>2022-10-21T04:10:22.000Z</time>
      </trkpt>
      <trkpt lat="27.818298" lon="86.709139">
        <ele>3868.6</ele>
        <time>2022-10-21T04:10:25.000Z</time>
      </trkpt>
      <trkpt lat="27.818304" lon="86.709114">
        <ele>3868.8</ele>
        <time>2022-10-21T04:10:27.000Z</time>
      </trkpt>
      <trkpt lat="27.81831" lon="86.709088">
        <ele>3869</ele>
        <time>2022-10-21T04:10:30.000Z</time>
      </trkpt>
      <trkpt lat="27.81832" lon="86.709069">
        <ele>3869.6</ele>
        <time>2022-10-21T04:10:33.000Z</time>
      </trkpt>
      <trkpt lat="27.818339" lon="86.709043">
        <ele>3870</ele>
        <time>2022-10-21T04:10:36.000Z</time>
      </trkpt>
      <trkpt lat="27.818355" lon="86.70903">
        <ele>3870.4</ele>
        <time>2022-10-21T04:10:39.000Z</time>
      </trkpt>
      <trkpt lat="27.818374" lon="86.709024">
        <ele>3870.6</ele>
        <time>2022-10-21T04:10:42.000Z</time>
      </trkpt>
      <trkpt lat="27.818394" lon="86.709024">
        <ele>3870.8</ele>
        <time>2022-10-21T04:10:44.000Z</time>
      </trkpt>
      <trkpt lat="27.818416" lon="86.709024">
        <ele>3871.6</ele>
        <time>2022-10-21T04:10:47.000Z</time>
      </trkpt>
      <trkpt lat="27.818438" lon="86.709018">
        <ele>3871.4</ele>
        <time>2022-10-21T04:10:50.000Z</time>
      </trkpt>
      <trkpt lat="27.818461" lon="86.709018">
        <ele>3871.8</ele>
        <time>2022-10-21T04:10:52.000Z</time>
      </trkpt>
      <trkpt lat="27.81847" lon="86.708998">
        <ele>3871.8</ele>
        <time>2022-10-21T04:10:54.000Z</time>
      </trkpt>
      <trkpt lat="27.81849" lon="86.708979">
        <ele>3871.6</ele>
        <time>2022-10-21T04:10:57.000Z</time>
      </trkpt>
      <trkpt lat="27.818499" lon="86.70896">
        <ele>3871.4</ele>
        <time>2022-10-21T04:10:59.000Z</time>
      </trkpt>
      <trkpt lat="27.818515" lon="86.708941">
        <ele>3871.4</ele>
        <time>2022-10-21T04:11:02.000Z</time>
      </trkpt>
      <trkpt lat="27.818522" lon="86.708922">
        <ele>3871.6</ele>
        <time>2022-10-21T04:11:04.000Z</time>
      </trkpt>
      <trkpt lat="27.818528" lon="86.708902">
        <ele>3871.6</ele>
        <time>2022-10-21T04:11:06.000Z</time>
      </trkpt>
      <trkpt lat="27.818534" lon="86.708883">
        <ele>3871</ele>
        <time>2022-10-21T04:11:08.000Z</time>
      </trkpt>
      <trkpt lat="27.818541" lon="86.708858">
        <ele>3870.8</ele>
        <time>2022-10-21T04:11:11.000Z</time>
      </trkpt>
      <trkpt lat="27.81855" lon="86.708832">
        <ele>3870.6</ele>
        <time>2022-10-21T04:11:13.000Z</time>
      </trkpt>
      <trkpt lat="27.81856" lon="86.7088">
        <ele>3870.6</ele>
        <time>2022-10-21T04:11:16.000Z</time>
      </trkpt>
      <trkpt lat="27.81857" lon="86.708781">
        <ele>3870.6</ele>
        <time>2022-10-21T04:11:19.000Z</time>
      </trkpt>
      <trkpt lat="27.818576" lon="86.708762">
        <ele>3870.6</ele>
        <time>2022-10-21T04:11:21.000Z</time>
      </trkpt>
      <trkpt lat="27.818595" lon="86.708755">
        <ele>3870.8</ele>
        <time>2022-10-21T04:11:26.000Z</time>
      </trkpt>
      <trkpt lat="27.818611" lon="86.708742">
        <ele>3870.2</ele>
        <time>2022-10-21T04:11:30.000Z</time>
      </trkpt>
      <trkpt lat="27.818627" lon="86.708723">
        <ele>3869.6</ele>
        <time>2022-10-21T04:11:37.000Z</time>
      </trkpt>
      <trkpt lat="27.818646" lon="86.70871">
        <ele>3870</ele>
        <time>2022-10-21T04:11:40.000Z</time>
      </trkpt>
      <trkpt lat="27.818666" lon="86.708685">
        <ele>3869.4</ele>
        <time>2022-10-21T04:11:44.000Z</time>
      </trkpt>
      <trkpt lat="27.818688" lon="86.708666">
        <ele>3869.8</ele>
        <time>2022-10-21T04:12:11.000Z</time>
      </trkpt>
      <trkpt lat="27.818701" lon="86.708646">
        <ele>3869.8</ele>
        <time>2022-10-21T04:12:12.000Z</time>
      </trkpt>
      <trkpt lat="27.818717" lon="86.708634">
        <ele>3869.8</ele>
        <time>2022-10-21T04:12:13.000Z</time>
      </trkpt>
      <trkpt lat="27.818739" lon="86.708621">
        <ele>3870</ele>
        <time>2022-10-21T04:12:15.000Z</time>
      </trkpt>
      <trkpt lat="27.818749" lon="86.708602">
        <ele>3870.4</ele>
        <time>2022-10-21T04:12:16.000Z</time>
      </trkpt>
      <trkpt lat="27.818768" lon="86.70857">
        <ele>3870.8</ele>
        <time>2022-10-21T04:12:18.000Z</time>
      </trkpt>
      <trkpt lat="27.818784" lon="86.70855">
        <ele>3871</ele>
        <time>2022-10-21T04:12:20.000Z</time>
      </trkpt>
      <trkpt lat="27.818797" lon="86.708525">
        <ele>3871</ele>
        <time>2022-10-21T04:12:22.000Z</time>
      </trkpt>
      <trkpt lat="27.818816" lon="86.708512">
        <ele>3871.6</ele>
        <time>2022-10-21T04:12:25.000Z</time>
      </trkpt>
      <trkpt lat="27.818835" lon="86.708486">
        <ele>3872</ele>
        <time>2022-10-21T04:12:28.000Z</time>
      </trkpt>
      <trkpt lat="27.818858" lon="86.70848">
        <ele>3872</ele>
        <time>2022-10-21T04:12:31.000Z</time>
      </trkpt>
      <trkpt lat="27.818877" lon="86.708474">
        <ele>3872.2</ele>
        <time>2022-10-21T04:12:33.000Z</time>
      </trkpt>
      <trkpt lat="27.818896" lon="86.708461">
        <ele>3872</ele>
        <time>2022-10-21T04:12:35.000Z</time>
      </trkpt>
      <trkpt lat="27.818922" lon="86.708461">
        <ele>3872.2</ele>
        <time>2022-10-21T04:12:38.000Z</time>
      </trkpt>
      <trkpt lat="27.818941" lon="86.708435">
        <ele>3872</ele>
        <time>2022-10-21T04:12:41.000Z</time>
      </trkpt>
      <trkpt lat="27.818957" lon="86.70841">
        <ele>3871.6</ele>
        <time>2022-10-21T04:12:44.000Z</time>
      </trkpt>
      <trkpt lat="27.818976" lon="86.70839">
        <ele>3871.2</ele>
        <time>2022-10-21T04:12:47.000Z</time>
      </trkpt>
      <trkpt lat="27.818986" lon="86.708365">
        <ele>3871</ele>
        <time>2022-10-21T04:12:49.000Z</time>
      </trkpt>
      <trkpt lat="27.818995" lon="86.708346">
        <ele>3871</ele>
        <time>2022-10-21T04:12:52.000Z</time>
      </trkpt>
      <trkpt lat="27.819002" lon="86.708326">
        <ele>3871</ele>
        <time>2022-10-21T04:12:53.000Z</time>
      </trkpt>
      <trkpt lat="27.819018" lon="86.708307">
        <ele>3871</ele>
        <time>2022-10-21T04:12:56.000Z</time>
      </trkpt>
      <trkpt lat="27.81903" lon="86.708288">
        <ele>3871</ele>
        <time>2022-10-21T04:12:58.000Z</time>
      </trkpt>
      <trkpt lat="27.819056" lon="86.708275">
        <ele>3871</ele>
        <time>2022-10-21T04:13:01.000Z</time>
      </trkpt>
      <trkpt lat="27.819078" lon="86.708262">
        <ele>3870.4</ele>
        <time>2022-10-21T04:13:04.000Z</time>
      </trkpt>
      <trkpt lat="27.819101" lon="86.70825">
        <ele>3870.4</ele>
        <time>2022-10-21T04:13:06.000Z</time>
      </trkpt>
      <trkpt lat="27.81913" lon="86.708237">
        <ele>3870.4</ele>
        <time>2022-10-21T04:13:09.000Z</time>
      </trkpt>
      <trkpt lat="27.819149" lon="86.708211">
        <ele>3870.4</ele>
        <time>2022-10-21T04:13:12.000Z</time>
      </trkpt>
      <trkpt lat="27.819174" lon="86.708205">
        <ele>3869.8</ele>
        <time>2022-10-21T04:13:15.000Z</time>
      </trkpt>
      <trkpt lat="27.81919" lon="86.708192">
        <ele>3869.8</ele>
        <time>2022-10-21T04:13:17.000Z</time>
      </trkpt>
      <trkpt lat="27.819203" lon="86.708173">
        <ele>3869.6</ele>
        <time>2022-10-21T04:13:20.000Z</time>
      </trkpt>
      <trkpt lat="27.819219" lon="86.708154">
        <ele>3869.6</ele>
        <time>2022-10-21T04:13:23.000Z</time>
      </trkpt>
      <trkpt lat="27.819229" lon="86.708134">
        <ele>3869.2</ele>
        <time>2022-10-21T04:13:25.000Z</time>
      </trkpt>
      <trkpt lat="27.819245" lon="86.708122">
        <ele>3869.2</ele>
        <time>2022-10-21T04:13:28.000Z</time>
      </trkpt>
      <trkpt lat="27.819254" lon="86.708102">
        <ele>3868.8</ele>
        <time>2022-10-21T04:13:30.000Z</time>
      </trkpt>
      <trkpt lat="27.819254" lon="86.708077">
        <ele>3868.8</ele>
        <time>2022-10-21T04:13:33.000Z</time>
      </trkpt>
      <trkpt lat="27.819283" lon="86.70807">
        <ele>3868.6</ele>
        <time>2022-10-21T04:14:06.000Z</time>
      </trkpt>
      <trkpt lat="27.819302" lon="86.708064">
        <ele>3868.4</ele>
        <time>2022-10-21T04:14:08.000Z</time>
      </trkpt>
      <trkpt lat="27.819322" lon="86.708051">
        <ele>3869.2</ele>
        <time>2022-10-21T04:14:14.000Z</time>
      </trkpt>
      <trkpt lat="27.819302" lon="86.708045">
        <ele>3868.2</ele>
        <time>2022-10-21T04:15:10.000Z</time>
      </trkpt>
      <trkpt lat="27.819309" lon="86.708006">
        <ele>3868</ele>
        <time>2022-10-21T04:15:12.000Z</time>
      </trkpt>
      <trkpt lat="27.819309" lon="86.707968">
        <ele>3867.2</ele>
        <time>2022-10-21T04:15:15.000Z</time>
      </trkpt>
      <trkpt lat="27.819309" lon="86.70793">
        <ele>3867.4</ele>
        <time>2022-10-21T04:15:18.000Z</time>
      </trkpt>
      <trkpt lat="27.819309" lon="86.707891">
        <ele>3867.2</ele>
        <time>2022-10-21T04:15:21.000Z</time>
      </trkpt>
      <trkpt lat="27.819318" lon="86.707872">
        <ele>3867</ele>
        <time>2022-10-21T04:15:23.000Z</time>
      </trkpt>
      <trkpt lat="27.819328" lon="86.707846">
        <ele>3866.8</ele>
        <time>2022-10-21T04:15:25.000Z</time>
      </trkpt>
      <trkpt lat="27.819341" lon="86.707827">
        <ele>3866.8</ele>
        <time>2022-10-21T04:15:28.000Z</time>
      </trkpt>
      <trkpt lat="27.819347" lon="86.707808">
        <ele>3866.8</ele>
        <time>2022-10-21T04:15:30.000Z</time>
      </trkpt>
      <trkpt lat="27.819354" lon="86.707789">
        <ele>3866.8</ele>
        <time>2022-10-21T04:15:32.000Z</time>
      </trkpt>
      <trkpt lat="27.81936" lon="86.70777">
        <ele>3866.8</ele>
        <time>2022-10-21T04:15:34.000Z</time>
      </trkpt>
      <trkpt lat="27.819366" lon="86.70775">
        <ele>3866.8</ele>
        <time>2022-10-21T04:15:36.000Z</time>
      </trkpt>
      <trkpt lat="27.819379" lon="86.707706">
        <ele>3867</ele>
        <time>2022-10-21T04:15:40.000Z</time>
      </trkpt>
      <trkpt lat="27.819389" lon="86.707686">
        <ele>3866.8</ele>
        <time>2022-10-21T04:15:42.000Z</time>
      </trkpt>
      <trkpt lat="27.819408" lon="86.707667">
        <ele>3866.2</ele>
        <time>2022-10-21T04:15:45.000Z</time>
      </trkpt>
      <trkpt lat="27.819418" lon="86.707642">
        <ele>3866</ele>
        <time>2022-10-21T04:15:47.000Z</time>
      </trkpt>
      <trkpt lat="27.81944" lon="86.707629">
        <ele>3865</ele>
        <time>2022-10-21T04:15:51.000Z</time>
      </trkpt>
      <trkpt lat="27.819453" lon="86.70761">
        <ele>3865</ele>
        <time>2022-10-21T04:15:53.000Z</time>
      </trkpt>
      <trkpt lat="27.819469" lon="86.70759">
        <ele>3864</ele>
        <time>2022-10-21T04:15:56.000Z</time>
      </trkpt>
      <trkpt lat="27.819488" lon="86.707571">
        <ele>3863.6</ele>
        <time>2022-10-21T04:15:59.000Z</time>
      </trkpt>
      <trkpt lat="27.819507" lon="86.707558">
        <ele>3862.8</ele>
        <time>2022-10-21T04:16:02.000Z</time>
      </trkpt>
      <trkpt lat="27.819526" lon="86.707552">
        <ele>3862.4</ele>
        <time>2022-10-21T04:16:05.000Z</time>
      </trkpt>
      <trkpt lat="27.819546" lon="86.707533">
        <ele>3862.2</ele>
        <time>2022-10-21T04:16:08.000Z</time>
      </trkpt>
      <trkpt lat="27.819574" lon="86.707526">
        <ele>3861.4</ele>
        <time>2022-10-21T04:16:11.000Z</time>
      </trkpt>
      <trkpt lat="27.819597" lon="86.707514">
        <ele>3861.2</ele>
        <time>2022-10-21T04:16:14.000Z</time>
      </trkpt>
      <trkpt lat="27.819616" lon="86.707507">
        <ele>3861</ele>
        <time>2022-10-21T04:16:17.000Z</time>
      </trkpt>
      <trkpt lat="27.819632" lon="86.707494">
        <ele>3860.4</ele>
        <time>2022-10-21T04:16:20.000Z</time>
      </trkpt>
      <trkpt lat="27.819651" lon="86.707488">
        <ele>3859.4</ele>
        <time>2022-10-21T04:16:26.000Z</time>
      </trkpt>
      <trkpt lat="27.81967" lon="86.707482">
        <ele>3859.4</ele>
        <time>2022-10-21T04:16:28.000Z</time>
      </trkpt>
      <trkpt lat="27.81969" lon="86.707475">
        <ele>3859</ele>
        <time>2022-10-21T04:16:31.000Z</time>
      </trkpt>
      <trkpt lat="27.819712" lon="86.707456">
        <ele>3858.4</ele>
        <time>2022-10-21T04:16:34.000Z</time>
      </trkpt>
      <trkpt lat="27.819731" lon="86.707456">
        <ele>3858.2</ele>
        <time>2022-10-21T04:16:36.000Z</time>
      </trkpt>
      <trkpt lat="27.819754" lon="86.70745">
        <ele>3857.8</ele>
        <time>2022-10-21T04:16:39.000Z</time>
      </trkpt>
      <trkpt lat="27.819779" lon="86.707437">
        <ele>3857</ele>
        <time>2022-10-21T04:16:44.000Z</time>
      </trkpt>
      <trkpt lat="27.819798" lon="86.707437">
        <ele>3856.6</ele>
        <time>2022-10-21T04:16:54.000Z</time>
      </trkpt>
      <trkpt lat="27.819814" lon="86.707418">
        <ele>3856.2</ele>
        <time>2022-10-21T04:16:56.000Z</time>
      </trkpt>
      <trkpt lat="27.819837" lon="86.707405">
        <ele>3856</ele>
        <time>2022-10-21T04:16:59.000Z</time>
      </trkpt>
      <trkpt lat="27.819859" lon="86.707398">
        <ele>3855.6</ele>
        <time>2022-10-21T04:17:02.000Z</time>
      </trkpt>
      <trkpt lat="27.819878" lon="86.707392">
        <ele>3855</ele>
        <time>2022-10-21T04:17:05.000Z</time>
      </trkpt>
      <trkpt lat="27.819904" lon="86.707392">
        <ele>3854.8</ele>
        <time>2022-10-21T04:17:08.000Z</time>
      </trkpt>
      <trkpt lat="27.81993" lon="86.707392">
        <ele>3854.6</ele>
        <time>2022-10-21T04:17:11.000Z</time>
      </trkpt>
      <trkpt lat="27.819949" lon="86.707392">
        <ele>3853.8</ele>
        <time>2022-10-21T04:17:13.000Z</time>
      </trkpt>
      <trkpt lat="27.819971" lon="86.707398">
        <ele>3853.6</ele>
        <time>2022-10-21T04:17:16.000Z</time>
      </trkpt>
      <trkpt lat="27.819987" lon="86.707411">
        <ele>3852.6</ele>
        <time>2022-10-21T04:17:19.000Z</time>
      </trkpt>
      <trkpt lat="27.82001" lon="86.707418">
        <ele>3852.4</ele>
        <time>2022-10-21T04:17:22.000Z</time>
      </trkpt>
      <trkpt lat="27.820029" lon="86.70743">
        <ele>3852.2</ele>
        <time>2022-10-21T04:17:25.000Z</time>
      </trkpt>
      <trkpt lat="27.820048" lon="86.70743">
        <ele>3852</ele>
        <time>2022-10-21T04:17:27.000Z</time>
      </trkpt>
      <trkpt lat="27.82007" lon="86.707418">
        <ele>3851.6</ele>
        <time>2022-10-21T04:17:30.000Z</time>
      </trkpt>
      <trkpt lat="27.820086" lon="86.707405">
        <ele>3851.4</ele>
        <time>2022-10-21T04:17:33.000Z</time>
      </trkpt>
      <trkpt lat="27.820099" lon="86.707373">
        <ele>3851.2</ele>
        <time>2022-10-21T04:17:37.000Z</time>
      </trkpt>
      <trkpt lat="27.820109" lon="86.707354">
        <ele>3850.8</ele>
        <time>2022-10-21T04:17:40.000Z</time>
      </trkpt>
      <trkpt lat="27.820115" lon="86.707334">
        <ele>3850.2</ele>
        <time>2022-10-21T04:17:42.000Z</time>
      </trkpt>
      <trkpt lat="27.820125" lon="86.707296">
        <ele>3850</ele>
        <time>2022-10-21T04:17:46.000Z</time>
      </trkpt>
      <trkpt lat="27.820141" lon="86.707277">
        <ele>3849.6</ele>
        <time>2022-10-21T04:17:50.000Z</time>
      </trkpt>
      <trkpt lat="27.820163" lon="86.70727">
        <ele>3848.8</ele>
        <time>2022-10-21T04:17:53.000Z</time>
      </trkpt>
      <trkpt lat="27.820179" lon="86.707251">
        <ele>3848.2</ele>
        <time>2022-10-21T04:17:56.000Z</time>
      </trkpt>
      <trkpt lat="27.820205" lon="86.707238">
        <ele>3847.6</ele>
        <time>2022-10-21T04:17:59.000Z</time>
      </trkpt>
      <trkpt lat="27.820227" lon="86.707232">
        <ele>3847</ele>
        <time>2022-10-21T04:18:01.000Z</time>
      </trkpt>
      <trkpt lat="27.820246" lon="86.707238">
        <ele>3846.8</ele>
        <time>2022-10-21T04:18:03.000Z</time>
      </trkpt>
      <trkpt lat="27.820269" lon="86.707238">
        <ele>3846.6</ele>
        <time>2022-10-21T04:18:05.000Z</time>
      </trkpt>
      <trkpt lat="27.820288" lon="86.707245">
        <ele>3846.8</ele>
        <time>2022-10-21T04:18:07.000Z</time>
      </trkpt>
      <trkpt lat="27.820314" lon="86.707258">
        <ele>3846.8</ele>
        <time>2022-10-21T04:18:10.000Z</time>
      </trkpt>
      <trkpt lat="27.820333" lon="86.707258">
        <ele>3847.2</ele>
        <time>2022-10-21T04:18:12.000Z</time>
      </trkpt>
      <trkpt lat="27.820355" lon="86.707258">
        <ele>3847.4</ele>
        <time>2022-10-21T04:18:14.000Z</time>
      </trkpt>
      <trkpt lat="27.820381" lon="86.707258">
        <ele>3847.2</ele>
        <time>2022-10-21T04:18:17.000Z</time>
      </trkpt>
      <trkpt lat="27.820403" lon="86.707258">
        <ele>3847.4</ele>
        <time>2022-10-21T04:18:19.000Z</time>
      </trkpt>
      <trkpt lat="27.820426" lon="86.707258">
        <ele>3847</ele>
        <time>2022-10-21T04:18:22.000Z</time>
      </trkpt>
      <trkpt lat="27.820445" lon="86.707251">
        <ele>3847</ele>
        <time>2022-10-21T04:18:25.000Z</time>
      </trkpt>
      <trkpt lat="27.820467" lon="86.707251">
        <ele>3847</ele>
        <time>2022-10-21T04:18:28.000Z</time>
      </trkpt>
      <trkpt lat="27.820493" lon="86.70727">
        <ele>3847.4</ele>
        <time>2022-10-21T04:19:29.000Z</time>
      </trkpt>
      <trkpt lat="27.820512" lon="86.70727">
        <ele>3847.8</ele>
        <time>2022-10-21T04:19:31.000Z</time>
      </trkpt>
      <trkpt lat="27.820538" lon="86.707277">
        <ele>3847.6</ele>
        <time>2022-10-21T04:19:35.000Z</time>
      </trkpt>
      <trkpt lat="27.820566" lon="86.707283">
        <ele>3848.2</ele>
        <time>2022-10-21T04:20:40.000Z</time>
      </trkpt>
      <trkpt lat="27.820592" lon="86.707277">
        <ele>3848.2</ele>
        <time>2022-10-21T04:20:44.000Z</time>
      </trkpt>
      <trkpt lat="27.820614" lon="86.707258">
        <ele>3848.4</ele>
        <time>2022-10-21T04:20:59.000Z</time>
      </trkpt>
      <trkpt lat="27.820634" lon="86.707251">
        <ele>3848.4</ele>
        <time>2022-10-21T04:21:01.000Z</time>
      </trkpt>
      <trkpt lat="27.820653" lon="86.707251">
        <ele>3848.2</ele>
        <time>2022-10-21T04:21:05.000Z</time>
      </trkpt>
      <trkpt lat="27.820659" lon="86.707232">
        <ele>3848.4</ele>
        <time>2022-10-21T04:21:08.000Z</time>
      </trkpt>
      <trkpt lat="27.820666" lon="86.707206">
        <ele>3848.4</ele>
        <time>2022-10-21T04:21:10.000Z</time>
      </trkpt>
      <trkpt lat="27.820691" lon="86.707181">
        <ele>3846.8</ele>
        <time>2022-10-21T04:22:21.000Z</time>
      </trkpt>
      <trkpt lat="27.82071" lon="86.707155">
        <ele>3846.4</ele>
        <time>2022-10-21T04:22:23.000Z</time>
      </trkpt>
      <trkpt lat="27.820749" lon="86.70711">
        <ele>3846.8</ele>
        <time>2022-10-21T04:22:33.000Z</time>
      </trkpt>
      <trkpt lat="27.820768" lon="86.70711">
        <ele>3845.6</ele>
        <time>2022-10-21T04:22:45.000Z</time>
      </trkpt>
      <trkpt lat="27.820794" lon="86.707098">
        <ele>3844.8</ele>
        <time>2022-10-21T04:22:47.000Z</time>
      </trkpt>
      <trkpt lat="27.820819" lon="86.707091">
        <ele>3844.6</ele>
        <time>2022-10-21T04:22:49.000Z</time>
      </trkpt>
      <trkpt lat="27.820842" lon="86.707078">
        <ele>3844.4</ele>
        <time>2022-10-21T04:22:51.000Z</time>
      </trkpt>
      <trkpt lat="27.82087" lon="86.707072">
        <ele>3843.6</ele>
        <time>2022-10-21T04:22:53.000Z</time>
      </trkpt>
      <trkpt lat="27.820893" lon="86.707072">
        <ele>3843.4</ele>
        <time>2022-10-21T04:22:55.000Z</time>
      </trkpt>
      <trkpt lat="27.820909" lon="86.707059">
        <ele>3843.2</ele>
        <time>2022-10-21T04:22:57.000Z</time>
      </trkpt>
      <trkpt lat="27.820934" lon="86.707046">
        <ele>3842.6</ele>
        <time>2022-10-21T04:23:00.000Z</time>
      </trkpt>
      <trkpt lat="27.82096" lon="86.707034">
        <ele>3842.4</ele>
        <time>2022-10-21T04:23:03.000Z</time>
      </trkpt>
      <trkpt lat="27.820982" lon="86.707034">
        <ele>3842.4</ele>
        <time>2022-10-21T04:23:05.000Z</time>
      </trkpt>
      <trkpt lat="27.820998" lon="86.707021">
        <ele>3842.4</ele>
        <time>2022-10-21T04:23:07.000Z</time>
      </trkpt>
      <trkpt lat="27.821021" lon="86.707014">
        <ele>3842.4</ele>
        <time>2022-10-21T04:23:09.000Z</time>
      </trkpt>
      <trkpt lat="27.821046" lon="86.707008">
        <ele>3842.4</ele>
        <time>2022-10-21T04:23:11.000Z</time>
      </trkpt>
      <trkpt lat="27.821066" lon="86.707002">
        <ele>3842.6</ele>
        <time>2022-10-21T04:23:13.000Z</time>
      </trkpt>
      <trkpt lat="27.821085" lon="86.706995">
        <ele>3842.6</ele>
        <time>2022-10-21T04:23:15.000Z</time>
      </trkpt>
      <trkpt lat="27.821107" lon="86.706982">
        <ele>3842.6</ele>
        <time>2022-10-21T04:23:17.000Z</time>
      </trkpt>
      <trkpt lat="27.821126" lon="86.706982">
        <ele>3842.6</ele>
        <time>2022-10-21T04:23:19.000Z</time>
      </trkpt>
      <trkpt lat="27.821146" lon="86.706982">
        <ele>3842.6</ele>
        <time>2022-10-21T04:23:21.000Z</time>
      </trkpt>
      <trkpt lat="27.821171" lon="86.706982">
        <ele>3842.6</ele>
        <time>2022-10-21T04:23:24.000Z</time>
      </trkpt>
      <trkpt lat="27.82119" lon="86.706982">
        <ele>3842.6</ele>
        <time>2022-10-21T04:23:26.000Z</time>
      </trkpt>
      <trkpt lat="27.821216" lon="86.70697">
        <ele>3842.8</ele>
        <time>2022-10-21T04:23:29.000Z</time>
      </trkpt>
      <trkpt lat="27.821238" lon="86.70697">
        <ele>3842.8</ele>
        <time>2022-10-21T04:23:31.000Z</time>
      </trkpt>
      <trkpt lat="27.821261" lon="86.70697">
        <ele>3842.6</ele>
        <time>2022-10-21T04:23:33.000Z</time>
      </trkpt>
      <trkpt lat="27.821286" lon="86.706963">
        <ele>3842.8</ele>
        <time>2022-10-21T04:23:35.000Z</time>
      </trkpt>
      <trkpt lat="27.821309" lon="86.706957">
        <ele>3842.8</ele>
        <time>2022-10-21T04:23:37.000Z</time>
      </trkpt>
      <trkpt lat="27.821334" lon="86.706938">
        <ele>3842.8</ele>
        <time>2022-10-21T04:23:40.000Z</time>
      </trkpt>
      <trkpt lat="27.821354" lon="86.706931">
        <ele>3842.8</ele>
        <time>2022-10-21T04:23:43.000Z</time>
      </trkpt>
      <trkpt lat="27.821379" lon="86.706918">
        <ele>3842.8</ele>
        <time>2022-10-21T04:23:46.000Z</time>
      </trkpt>
      <trkpt lat="27.821398" lon="86.706912">
        <ele>3842.8</ele>
        <time>2022-10-21T04:23:48.000Z</time>
      </trkpt>
      <trkpt lat="27.821411" lon="86.706893">
        <ele>3843</ele>
        <time>2022-10-21T04:23:50.000Z</time>
      </trkpt>
      <trkpt lat="27.821434" lon="86.70688">
        <ele>3843</ele>
        <time>2022-10-21T04:23:53.000Z</time>
      </trkpt>
      <trkpt lat="27.82145" lon="86.706861">
        <ele>3843</ele>
        <time>2022-10-21T04:23:55.000Z</time>
      </trkpt>
      <trkpt lat="27.821472" lon="86.706854">
        <ele>3843</ele>
        <time>2022-10-21T04:23:57.000Z</time>
      </trkpt>
      <trkpt lat="27.821488" lon="86.706842">
        <ele>3843.2</ele>
        <time>2022-10-21T04:23:59.000Z</time>
      </trkpt>
      <trkpt lat="27.821514" lon="86.706822">
        <ele>3843.2</ele>
        <time>2022-10-21T04:24:02.000Z</time>
      </trkpt>
      <trkpt lat="27.821536" lon="86.70681">
        <ele>3843.2</ele>
        <time>2022-10-21T04:24:05.000Z</time>
      </trkpt>
      <trkpt lat="27.821558" lon="86.706797">
        <ele>3843.6</ele>
        <time>2022-10-21T04:24:08.000Z</time>
      </trkpt>
      <trkpt lat="27.821574" lon="86.706784">
        <ele>3843.2</ele>
        <time>2022-10-21T04:24:11.000Z</time>
      </trkpt>
      <trkpt lat="27.821594" lon="86.706771">
        <ele>3843.8</ele>
        <time>2022-10-21T04:24:15.000Z</time>
      </trkpt>
      <trkpt lat="27.82161" lon="86.706752">
        <ele>3843.8</ele>
        <time>2022-10-21T04:24:24.000Z</time>
      </trkpt>
      <trkpt lat="27.821626" lon="86.706733">
        <ele>3844.2</ele>
        <time>2022-10-21T04:24:28.000Z</time>
      </trkpt>
      <trkpt lat="27.821642" lon="86.706714">
        <ele>3844</ele>
        <time>2022-10-21T04:24:34.000Z</time>
      </trkpt>
      <trkpt lat="27.821654" lon="86.706694">
        <ele>3844.2</ele>
        <time>2022-10-21T04:24:36.000Z</time>
      </trkpt>
      <trkpt lat="27.821674" lon="86.706675">
        <ele>3843.8</ele>
        <time>2022-10-21T04:24:39.000Z</time>
      </trkpt>
      <trkpt lat="27.821683" lon="86.706656">
        <ele>3844</ele>
        <time>2022-10-21T04:24:41.000Z</time>
      </trkpt>
      <trkpt lat="27.821696" lon="86.706637">
        <ele>3844.2</ele>
        <time>2022-10-21T04:24:45.000Z</time>
      </trkpt>
      <trkpt lat="27.821706" lon="86.706611">
        <ele>3844.4</ele>
        <time>2022-10-21T04:24:47.000Z</time>
      </trkpt>
      <trkpt lat="27.821725" lon="86.706586">
        <ele>3844.8</ele>
        <time>2022-10-21T04:24:50.000Z</time>
      </trkpt>
      <trkpt lat="27.821754" lon="86.706554">
        <ele>3845.2</ele>
        <time>2022-10-21T04:24:54.000Z</time>
      </trkpt>
      <trkpt lat="27.821763" lon="86.706541">
        <ele>3845.2</ele>
        <time>2022-10-21T04:24:55.000Z</time>
      </trkpt>
      <trkpt lat="27.821776" lon="86.706515">
        <ele>3845.6</ele>
        <time>2022-10-21T04:24:58.000Z</time>
      </trkpt>
      <trkpt lat="27.821805" lon="86.706477">
        <ele>3845.8</ele>
        <time>2022-10-21T04:25:03.000Z</time>
      </trkpt>
      <trkpt lat="27.821814" lon="86.706458">
        <ele>3845.8</ele>
        <time>2022-10-21T04:25:05.000Z</time>
      </trkpt>
      <trkpt lat="27.821827" lon="86.706438">
        <ele>3845.8</ele>
        <time>2022-10-21T04:25:08.000Z</time>
      </trkpt>
      <trkpt lat="27.821834" lon="86.706419">
        <ele>3845.8</ele>
        <time>2022-10-21T04:25:15.000Z</time>
      </trkpt>
      <trkpt lat="27.821853" lon="86.706406">
        <ele>3845.8</ele>
        <time>2022-10-21T04:25:18.000Z</time>
      </trkpt>
      <trkpt lat="27.821872" lon="86.7064">
        <ele>3846</ele>
        <time>2022-10-21T04:25:21.000Z</time>
      </trkpt>
      <trkpt lat="27.821891" lon="86.706387">
        <ele>3846</ele>
        <time>2022-10-21T04:25:23.000Z</time>
      </trkpt>
      <trkpt lat="27.82191" lon="86.7064">
        <ele>3846.4</ele>
        <time>2022-10-21T04:25:25.000Z</time>
      </trkpt>
      <trkpt lat="27.82193" lon="86.706406">
        <ele>3846.6</ele>
        <time>2022-10-21T04:25:27.000Z</time>
      </trkpt>
      <trkpt lat="27.821949" lon="86.706413">
        <ele>3846.4</ele>
        <time>2022-10-21T04:25:29.000Z</time>
      </trkpt>
      <trkpt lat="27.821971" lon="86.706413">
        <ele>3846.6</ele>
        <time>2022-10-21T04:25:31.000Z</time>
      </trkpt>
      <trkpt lat="27.82199" lon="86.706406">
        <ele>3846.8</ele>
        <time>2022-10-21T04:25:33.000Z</time>
      </trkpt>
      <trkpt lat="27.822013" lon="86.706387">
        <ele>3846.6</ele>
        <time>2022-10-21T04:25:36.000Z</time>
      </trkpt>
      <trkpt lat="27.822029" lon="86.706374">
        <ele>3846.6</ele>
        <time>2022-10-21T04:25:38.000Z</time>
      </trkpt>
      <trkpt lat="27.822048" lon="86.706368">
        <ele>3846.8</ele>
        <time>2022-10-21T04:25:40.000Z</time>
      </trkpt>
      <trkpt lat="27.822067" lon="86.706355">
        <ele>3846.8</ele>
        <time>2022-10-21T04:25:42.000Z</time>
      </trkpt>
      <trkpt lat="27.822083" lon="86.706342">
        <ele>3846.8</ele>
        <time>2022-10-21T04:25:44.000Z</time>
      </trkpt>
      <trkpt lat="27.822109" lon="86.70633">
        <ele>3847.4</ele>
        <time>2022-10-21T04:25:47.000Z</time>
      </trkpt>
      <trkpt lat="27.822134" lon="86.70633">
        <ele>3847</ele>
        <time>2022-10-21T04:25:50.000Z</time>
      </trkpt>
      <trkpt lat="27.822157" lon="86.706355">
        <ele>3847.6</ele>
        <time>2022-10-21T04:25:53.000Z</time>
      </trkpt>
      <trkpt lat="27.822179" lon="86.706368">
        <ele>3847.8</ele>
        <time>2022-10-21T04:25:56.000Z</time>
      </trkpt>
      <trkpt lat="27.822202" lon="86.706381">
        <ele>3848</ele>
        <time>2022-10-21T04:25:59.000Z</time>
      </trkpt>
      <trkpt lat="27.822208" lon="86.7064">
        <ele>3848.4</ele>
        <time>2022-10-21T04:26:11.000Z</time>
      </trkpt>
      <trkpt lat="27.822234" lon="86.706413">
        <ele>3848.6</ele>
        <time>2022-10-21T04:26:21.000Z</time>
      </trkpt>
      <trkpt lat="27.822256" lon="86.706426">
        <ele>3848.2</ele>
        <time>2022-10-21T04:26:23.000Z</time>
      </trkpt>
      <trkpt lat="27.822278" lon="86.706438">
        <ele>3848.2</ele>
        <time>2022-10-21T04:26:25.000Z</time>
      </trkpt>
      <trkpt lat="27.822307" lon="86.706445">
        <ele>3848</ele>
        <time>2022-10-21T04:26:27.000Z</time>
      </trkpt>
      <trkpt lat="27.822326" lon="86.706451">
        <ele>3848.6</ele>
        <time>2022-10-21T04:26:31.000Z</time>
      </trkpt>
      <trkpt lat="27.822349" lon="86.706451">
        <ele>3849.2</ele>
        <time>2022-10-21T04:26:54.000Z</time>
      </trkpt>
      <trkpt lat="27.822371" lon="86.706445">
        <ele>3849.2</ele>
        <time>2022-10-21T04:26:56.000Z</time>
      </trkpt>
      <trkpt lat="27.8224" lon="86.706438">
        <ele>3849.2</ele>
        <time>2022-10-21T04:26:58.000Z</time>
      </trkpt>
      <trkpt lat="27.822422" lon="86.706426">
        <ele>3849.4</ele>
        <time>2022-10-21T04:27:00.000Z</time>
      </trkpt>
      <trkpt lat="27.822442" lon="86.706413">
        <ele>3850</ele>
        <time>2022-10-21T04:27:02.000Z</time>
      </trkpt>
      <trkpt lat="27.822454" lon="86.706387">
        <ele>3850.4</ele>
        <time>2022-10-21T04:27:04.000Z</time>
      </trkpt>
      <trkpt lat="27.82248" lon="86.706374">
        <ele>3850.8</ele>
        <time>2022-10-21T04:27:07.000Z</time>
      </trkpt>
      <trkpt lat="27.822496" lon="86.706362">
        <ele>3850.8</ele>
        <time>2022-10-21T04:27:09.000Z</time>
      </trkpt>
      <trkpt lat="27.822506" lon="86.706342">
        <ele>3851.2</ele>
        <time>2022-10-21T04:27:10.000Z</time>
      </trkpt>
      <trkpt lat="27.822522" lon="86.706323">
        <ele>3851.4</ele>
        <time>2022-10-21T04:27:13.000Z</time>
      </trkpt>
      <trkpt lat="27.822541" lon="86.706304">
        <ele>3851.6</ele>
        <time>2022-10-21T04:27:15.000Z</time>
      </trkpt>
      <trkpt lat="27.822566" lon="86.706291">
        <ele>3851.8</ele>
        <time>2022-10-21T04:27:18.000Z</time>
      </trkpt>
      <trkpt lat="27.822586" lon="86.706285">
        <ele>3852</ele>
        <time>2022-10-21T04:27:20.000Z</time>
      </trkpt>
      <trkpt lat="27.822608" lon="86.706278">
        <ele>3852.4</ele>
        <time>2022-10-21T04:27:22.000Z</time>
      </trkpt>
      <trkpt lat="27.822624" lon="86.706266">
        <ele>3852.4</ele>
        <time>2022-10-21T04:27:24.000Z</time>
      </trkpt>
      <trkpt lat="27.822646" lon="86.706253">
        <ele>3852.6</ele>
        <time>2022-10-21T04:27:27.000Z</time>
      </trkpt>
      <trkpt lat="27.822666" lon="86.70624">
        <ele>3852.4</ele>
        <time>2022-10-21T04:27:30.000Z</time>
      </trkpt>
      <trkpt lat="27.822678" lon="86.706221">
        <ele>3852.4</ele>
        <time>2022-10-21T04:27:32.000Z</time>
      </trkpt>
      <trkpt lat="27.822694" lon="86.706202">
        <ele>3852.8</ele>
        <time>2022-10-21T04:28:04.000Z</time>
      </trkpt>
      <trkpt lat="27.82271" lon="86.706176">
        <ele>3853</ele>
        <time>2022-10-21T04:28:06.000Z</time>
      </trkpt>
      <trkpt lat="27.822733" lon="86.706157">
        <ele>3853.2</ele>
        <time>2022-10-21T04:28:08.000Z</time>
      </trkpt>
      <trkpt lat="27.822739" lon="86.706138">
        <ele>3853.2</ele>
        <time>2022-10-21T04:28:09.000Z</time>
      </trkpt>
      <trkpt lat="27.822755" lon="86.706118">
        <ele>3853.4</ele>
        <time>2022-10-21T04:28:11.000Z</time>
      </trkpt>
      <trkpt lat="27.822768" lon="86.706099">
        <ele>3853.4</ele>
        <time>2022-10-21T04:28:12.000Z</time>
      </trkpt>
      <trkpt lat="27.822784" lon="86.70608">
        <ele>3853.8</ele>
        <time>2022-10-21T04:28:14.000Z</time>
      </trkpt>
      <trkpt lat="27.822797" lon="86.706061">
        <ele>3853.8</ele>
        <time>2022-10-21T04:28:16.000Z</time>
      </trkpt>
      <trkpt lat="27.822816" lon="86.706048">
        <ele>3854</ele>
        <time>2022-10-21T04:28:19.000Z</time>
      </trkpt>
      <trkpt lat="27.822829" lon="86.706029">
        <ele>3854</ele>
        <time>2022-10-21T04:28:21.000Z</time>
      </trkpt>
      <trkpt lat="27.822845" lon="86.70601">
        <ele>3854.4</ele>
        <time>2022-10-21T04:28:24.000Z</time>
      </trkpt>
      <trkpt lat="27.822861" lon="86.705997">
        <ele>3854.8</ele>
        <time>2022-10-21T04:28:26.000Z</time>
      </trkpt>
      <trkpt lat="27.822874" lon="86.705978">
        <ele>3855</ele>
        <time>2022-10-21T04:28:28.000Z</time>
      </trkpt>
      <trkpt lat="27.822886" lon="86.705958">
        <ele>3855.4</ele>
        <time>2022-10-21T04:28:31.000Z</time>
      </trkpt>
      <trkpt lat="27.822899" lon="86.705939">
        <ele>3856</ele>
        <time>2022-10-21T04:28:33.000Z</time>
      </trkpt>
      <trkpt lat="27.822909" lon="86.70592">
        <ele>3856</ele>
        <time>2022-10-21T04:28:36.000Z</time>
      </trkpt>
      <trkpt lat="27.822915" lon="86.705901">
        <ele>3856.4</ele>
        <time>2022-10-21T04:28:38.000Z</time>
      </trkpt>
      <trkpt lat="27.822922" lon="86.705882">
        <ele>3856.4</ele>
        <time>2022-10-21T04:28:41.000Z</time>
      </trkpt>
      <trkpt lat="27.822925" lon="86.705856">
        <ele>3856.4</ele>
        <time>2022-10-21T04:28:43.000Z</time>
      </trkpt>
      <trkpt lat="27.822925" lon="86.70583">
        <ele>3856.8</ele>
        <time>2022-10-21T04:28:47.000Z</time>
      </trkpt>
      <trkpt lat="27.822918" lon="86.705805">
        <ele>3857.2</ele>
        <time>2022-10-21T04:29:11.000Z</time>
      </trkpt>
      <trkpt lat="27.822909" lon="86.705786">
        <ele>3857.2</ele>
        <time>2022-10-21T04:29:12.000Z</time>
      </trkpt>
      <trkpt lat="27.82289" lon="86.705766">
        <ele>3857.2</ele>
        <time>2022-10-21T04:29:14.000Z</time>
      </trkpt>
      <trkpt lat="27.822877" lon="86.705747">
        <ele>3857.4</ele>
        <time>2022-10-21T04:29:15.000Z</time>
      </trkpt>
      <trkpt lat="27.822864" lon="86.705728">
        <ele>3857.6</ele>
        <time>2022-10-21T04:29:17.000Z</time>
      </trkpt>
      <trkpt lat="27.822854" lon="86.705709">
        <ele>3857.4</ele>
        <time>2022-10-21T04:29:18.000Z</time>
      </trkpt>
      <trkpt lat="27.822842" lon="86.70569">
        <ele>3857.6</ele>
        <time>2022-10-21T04:29:20.000Z</time>
      </trkpt>
      <trkpt lat="27.822829" lon="86.70567">
        <ele>3857.6</ele>
        <time>2022-10-21T04:29:22.000Z</time>
      </trkpt>
      <trkpt lat="27.82281" lon="86.705658">
        <ele>3858</ele>
        <time>2022-10-21T04:29:27.000Z</time>
      </trkpt>
      <trkpt lat="27.822787" lon="86.705645">
        <ele>3858</ele>
        <time>2022-10-21T04:29:32.000Z</time>
      </trkpt>
      <trkpt lat="27.822771" lon="86.705626">
        <ele>3858</ele>
        <time>2022-10-21T04:29:36.000Z</time>
      </trkpt>
      <trkpt lat="27.822778" lon="86.705606">
        <ele>3858.2</ele>
        <time>2022-10-21T04:29:40.000Z</time>
      </trkpt>
      <trkpt lat="27.822784" lon="86.705587">
        <ele>3858</ele>
        <time>2022-10-21T04:29:42.000Z</time>
      </trkpt>
      <trkpt lat="27.822797" lon="86.705568">
        <ele>3858.2</ele>
        <time>2022-10-21T04:29:45.000Z</time>
      </trkpt>
      <trkpt lat="27.8228" lon="86.705542">
        <ele>3858.4</ele>
        <time>2022-10-21T04:29:48.000Z</time>
      </trkpt>
      <trkpt lat="27.822816" lon="86.70551">
        <ele>3858.6</ele>
        <time>2022-10-21T04:29:52.000Z</time>
      </trkpt>
      <trkpt lat="27.822822" lon="86.705491">
        <ele>3858.8</ele>
        <time>2022-10-21T04:29:55.000Z</time>
      </trkpt>
      <trkpt lat="27.822829" lon="86.705472">
        <ele>3859.2</ele>
        <time>2022-10-21T04:29:57.000Z</time>
      </trkpt>
      <trkpt lat="27.822835" lon="86.705453">
        <ele>3859.4</ele>
        <time>2022-10-21T04:30:00.000Z</time>
      </trkpt>
      <trkpt lat="27.822838" lon="86.705427">
        <ele>3859.4</ele>
        <time>2022-10-21T04:30:03.000Z</time>
      </trkpt>
      <trkpt lat="27.822845" lon="86.705402">
        <ele>3860.2</ele>
        <time>2022-10-21T04:30:07.000Z</time>
      </trkpt>
      <trkpt lat="27.822854" lon="86.705376">
        <ele>3860.2</ele>
        <time>2022-10-21T04:30:09.000Z</time>
      </trkpt>
      <trkpt lat="27.822874" lon="86.70535">
        <ele>3860.2</ele>
        <time>2022-10-21T04:30:12.000Z</time>
      </trkpt>
      <trkpt lat="27.82289" lon="86.705338">
        <ele>3860.4</ele>
        <time>2022-10-21T04:30:14.000Z</time>
      </trkpt>
      <trkpt lat="27.822906" lon="86.705312">
        <ele>3860.6</ele>
        <time>2022-10-21T04:30:17.000Z</time>
      </trkpt>
      <trkpt lat="27.822925" lon="86.705299">
        <ele>3860.8</ele>
        <time>2022-10-21T04:30:20.000Z</time>
      </trkpt>
      <trkpt lat="27.822934" lon="86.705274">
        <ele>3860.6</ele>
        <time>2022-10-21T04:30:23.000Z</time>
      </trkpt>
      <trkpt lat="27.822947" lon="86.705254">
        <ele>3860.8</ele>
        <time>2022-10-21T04:30:25.000Z</time>
      </trkpt>
      <trkpt lat="27.822957" lon="86.705235">
        <ele>3861</ele>
        <time>2022-10-21T04:30:27.000Z</time>
      </trkpt>
      <trkpt lat="27.822973" lon="86.705222">
        <ele>3861.4</ele>
        <time>2022-10-21T04:30:30.000Z</time>
      </trkpt>
      <trkpt lat="27.822979" lon="86.70519">
        <ele>3861.8</ele>
        <time>2022-10-21T04:30:33.000Z</time>
      </trkpt>
      <trkpt lat="27.822986" lon="86.705165">
        <ele>3862</ele>
        <time>2022-10-21T04:30:37.000Z</time>
      </trkpt>
      <trkpt lat="27.822976" lon="86.705139">
        <ele>3862.4</ele>
        <time>2022-10-21T04:30:40.000Z</time>
      </trkpt>
      <trkpt lat="27.822976" lon="86.705114">
        <ele>3862</ele>
        <time>2022-10-21T04:30:42.000Z</time>
      </trkpt>
      <trkpt lat="27.822976" lon="86.705075">
        <ele>3862</ele>
        <time>2022-10-21T04:30:46.000Z</time>
      </trkpt>
      <trkpt lat="27.822973" lon="86.70505">
        <ele>3862</ele>
        <time>2022-10-21T04:30:49.000Z</time>
      </trkpt>
      <trkpt lat="27.822966" lon="86.705024">
        <ele>3862.4</ele>
        <time>2022-10-21T04:30:51.000Z</time>
      </trkpt>
      <trkpt lat="27.822963" lon="86.704992">
        <ele>3862.4</ele>
        <time>2022-10-21T04:30:54.000Z</time>
      </trkpt>
      <trkpt lat="27.822963" lon="86.704966">
        <ele>3862.6</ele>
        <time>2022-10-21T04:30:57.000Z</time>
      </trkpt>
      <trkpt lat="27.822957" lon="86.704947">
        <ele>3862.4</ele>
        <time>2022-10-21T04:30:59.000Z</time>
      </trkpt>
      <trkpt lat="27.822947" lon="86.704915">
        <ele>3862.6</ele>
        <time>2022-10-21T04:31:02.000Z</time>
      </trkpt>
      <trkpt lat="27.822944" lon="86.70489">
        <ele>3862.6</ele>
        <time>2022-10-21T04:31:05.000Z</time>
      </trkpt>
      <trkpt lat="27.822938" lon="86.704864">
        <ele>3862.8</ele>
        <time>2022-10-21T04:31:07.000Z</time>
      </trkpt>
      <trkpt lat="27.822938" lon="86.704832">
        <ele>3863.4</ele>
        <time>2022-10-21T04:31:10.000Z</time>
      </trkpt>
      <trkpt lat="27.822934" lon="86.704806">
        <ele>3863.4</ele>
        <time>2022-10-21T04:31:13.000Z</time>
      </trkpt>
      <trkpt lat="27.822938" lon="86.704781">
        <ele>3863.4</ele>
        <time>2022-10-21T04:31:15.000Z</time>
      </trkpt>
      <trkpt lat="27.822941" lon="86.704755">
        <ele>3863.6</ele>
        <time>2022-10-21T04:31:17.000Z</time>
      </trkpt>
      <trkpt lat="27.822944" lon="86.704717">
        <ele>3863.6</ele>
        <time>2022-10-21T04:31:21.000Z</time>
      </trkpt>
      <trkpt lat="27.822947" lon="86.704691">
        <ele>3864</ele>
        <time>2022-10-21T04:31:24.000Z</time>
      </trkpt>
      <trkpt lat="27.822947" lon="86.704666">
        <ele>3864.2</ele>
        <time>2022-10-21T04:31:27.000Z</time>
      </trkpt>
      <trkpt lat="27.822941" lon="86.704646">
        <ele>3864.2</ele>
        <time>2022-10-21T04:31:30.000Z</time>
      </trkpt>
      <trkpt lat="27.822934" lon="86.704621">
        <ele>3864.2</ele>
        <time>2022-10-21T04:31:33.000Z</time>
      </trkpt>
      <trkpt lat="27.822918" lon="86.704608">
        <ele>3864.8</ele>
        <time>2022-10-21T04:31:36.000Z</time>
      </trkpt>
      <trkpt lat="27.822906" lon="86.704582">
        <ele>3865</ele>
        <time>2022-10-21T04:31:38.000Z</time>
      </trkpt>
      <trkpt lat="27.822893" lon="86.704557">
        <ele>3865</ele>
        <time>2022-10-21T04:31:41.000Z</time>
      </trkpt>
      <trkpt lat="27.822883" lon="86.704538">
        <ele>3865</ele>
        <time>2022-10-21T04:31:43.000Z</time>
      </trkpt>
      <trkpt lat="27.822877" lon="86.704518">
        <ele>3865</ele>
        <time>2022-10-21T04:31:45.000Z</time>
      </trkpt>
      <trkpt lat="27.822861" lon="86.704499">
        <ele>3865</ele>
        <time>2022-10-21T04:31:48.000Z</time>
      </trkpt>
      <trkpt lat="27.822851" lon="86.704474">
        <ele>3865</ele>
        <time>2022-10-21T04:31:50.000Z</time>
      </trkpt>
      <trkpt lat="27.822845" lon="86.704454">
        <ele>3865.2</ele>
        <time>2022-10-21T04:31:53.000Z</time>
      </trkpt>
      <trkpt lat="27.822838" lon="86.704435">
        <ele>3865.4</ele>
        <time>2022-10-21T04:31:56.000Z</time>
      </trkpt>
      <trkpt lat="27.822842" lon="86.70441">
        <ele>3865.8</ele>
        <time>2022-10-21T04:31:59.000Z</time>
      </trkpt>
      <trkpt lat="27.822835" lon="86.704384">
        <ele>3866.2</ele>
        <time>2022-10-21T04:32:21.000Z</time>
      </trkpt>
      <trkpt lat="27.822842" lon="86.704346">
        <ele>3866</ele>
        <time>2022-10-21T04:32:23.000Z</time>
      </trkpt>
      <trkpt lat="27.822848" lon="86.704314">
        <ele>3866.2</ele>
        <time>2022-10-21T04:32:25.000Z</time>
      </trkpt>
      <trkpt lat="27.822848" lon="86.704275">
        <ele>3866.2</ele>
        <time>2022-10-21T04:32:27.000Z</time>
      </trkpt>
      <trkpt lat="27.822845" lon="86.70423">
        <ele>3866.2</ele>
        <time>2022-10-21T04:32:29.000Z</time>
      </trkpt>
      <trkpt lat="27.822848" lon="86.704198">
        <ele>3867</ele>
        <time>2022-10-21T04:32:32.000Z</time>
      </trkpt>
      <trkpt lat="27.822845" lon="86.704173">
        <ele>3867</ele>
        <time>2022-10-21T04:32:35.000Z</time>
      </trkpt>
      <trkpt lat="27.822838" lon="86.704147">
        <ele>3867</ele>
        <time>2022-10-21T04:32:37.000Z</time>
      </trkpt>
      <trkpt lat="27.822838" lon="86.704122">
        <ele>3867</ele>
        <time>2022-10-21T04:32:39.000Z</time>
      </trkpt>
      <trkpt lat="27.822835" lon="86.704083">
        <ele>3867</ele>
        <time>2022-10-21T04:32:42.000Z</time>
      </trkpt>
      <trkpt lat="27.822838" lon="86.704051">
        <ele>3867.4</ele>
        <time>2022-10-21T04:32:45.000Z</time>
      </trkpt>
      <trkpt lat="27.822835" lon="86.704026">
        <ele>3867.4</ele>
        <time>2022-10-21T04:32:48.000Z</time>
      </trkpt>
      <trkpt lat="27.822826" lon="86.703994">
        <ele>3867.2</ele>
        <time>2022-10-21T04:32:51.000Z</time>
      </trkpt>
      <trkpt lat="27.822819" lon="86.703974">
        <ele>3867.2</ele>
        <time>2022-10-21T04:32:55.000Z</time>
      </trkpt>
      <trkpt lat="27.822822" lon="86.703949">
        <ele>3867</ele>
        <time>2022-10-21T04:32:59.000Z</time>
      </trkpt>
      <trkpt lat="27.822816" lon="86.703923">
        <ele>3866.8</ele>
        <time>2022-10-21T04:33:02.000Z</time>
      </trkpt>
      <trkpt lat="27.822819" lon="86.703898">
        <ele>3866.4</ele>
        <time>2022-10-21T04:33:05.000Z</time>
      </trkpt>
      <trkpt lat="27.822816" lon="86.703872">
        <ele>3866.4</ele>
        <time>2022-10-21T04:33:07.000Z</time>
      </trkpt>
      <trkpt lat="27.822813" lon="86.703834">
        <ele>3866.4</ele>
        <time>2022-10-21T04:33:10.000Z</time>
      </trkpt>
      <trkpt lat="27.82281" lon="86.703802">
        <ele>3866.2</ele>
        <time>2022-10-21T04:33:13.000Z</time>
      </trkpt>
      <trkpt lat="27.82281" lon="86.703776">
        <ele>3866.4</ele>
        <time>2022-10-21T04:33:15.000Z</time>
      </trkpt>
      <trkpt lat="27.822816" lon="86.703757">
        <ele>3866.8</ele>
        <time>2022-10-21T04:33:17.000Z</time>
      </trkpt>
      <trkpt lat="27.82281" lon="86.703725">
        <ele>3866.2</ele>
        <time>2022-10-21T04:33:20.000Z</time>
      </trkpt>
      <trkpt lat="27.822803" lon="86.703706">
        <ele>3866.2</ele>
        <time>2022-10-21T04:33:23.000Z</time>
      </trkpt>
      <trkpt lat="27.822787" lon="86.703686">
        <ele>3866.4</ele>
        <time>2022-10-21T04:33:26.000Z</time>
      </trkpt>
      <trkpt lat="27.822765" lon="86.70368">
        <ele>3866.4</ele>
        <time>2022-10-21T04:33:39.000Z</time>
      </trkpt>
      <trkpt lat="27.822746" lon="86.703661">
        <ele>3866.4</ele>
        <time>2022-10-21T04:33:44.000Z</time>
      </trkpt>
      <trkpt lat="27.822736" lon="86.703642">
        <ele>3866.8</ele>
        <time>2022-10-21T04:33:47.000Z</time>
      </trkpt>
      <trkpt lat="27.822717" lon="86.703635">
        <ele>3868</ele>
        <time>2022-10-21T04:33:54.000Z</time>
      </trkpt>
      <trkpt lat="27.822701" lon="86.703622">
        <ele>3868.8</ele>
        <time>2022-10-21T04:34:00.000Z</time>
      </trkpt>
      <trkpt lat="27.822704" lon="86.703597">
        <ele>3869.4</ele>
        <time>2022-10-21T04:34:05.000Z</time>
      </trkpt>
      <trkpt lat="27.822714" lon="86.703578">
        <ele>3869.4</ele>
        <time>2022-10-21T04:34:08.000Z</time>
      </trkpt>
      <trkpt lat="27.822726" lon="86.703558">
        <ele>3869.8</ele>
        <time>2022-10-21T04:34:11.000Z</time>
      </trkpt>
      <trkpt lat="27.822742" lon="86.703546">
        <ele>3870</ele>
        <time>2022-10-21T04:34:15.000Z</time>
      </trkpt>
      <trkpt lat="27.822739" lon="86.70352">
        <ele>3870</ele>
        <time>2022-10-21T04:34:18.000Z</time>
      </trkpt>
      <trkpt lat="27.822717" lon="86.703514">
        <ele>3871.2</ele>
        <time>2022-10-21T04:34:25.000Z</time>
      </trkpt>
      <trkpt lat="27.822694" lon="86.70352">
        <ele>3871.8</ele>
        <time>2022-10-21T04:34:30.000Z</time>
      </trkpt>
      <trkpt lat="27.822675" lon="86.70352">
        <ele>3872.4</ele>
        <time>2022-10-21T04:34:34.000Z</time>
      </trkpt>
      <trkpt lat="27.822653" lon="86.703469">
        <ele>3876</ele>
        <time>2022-10-21T04:35:13.000Z</time>
      </trkpt>
      <trkpt lat="27.822656" lon="86.703443">
        <ele>3876.4</ele>
        <time>2022-10-21T04:35:15.000Z</time>
      </trkpt>
      <trkpt lat="27.822666" lon="86.703424">
        <ele>3876.4</ele>
        <time>2022-10-21T04:35:17.000Z</time>
      </trkpt>
      <trkpt lat="27.822672" lon="86.703405">
        <ele>3877</ele>
        <time>2022-10-21T04:35:20.000Z</time>
      </trkpt>
      <trkpt lat="27.822678" lon="86.703386">
        <ele>3877.4</ele>
        <time>2022-10-21T04:35:26.000Z</time>
      </trkpt>
      <trkpt lat="27.822659" lon="86.703341">
        <ele>3879.4</ele>
        <time>2022-10-21T04:35:38.000Z</time>
      </trkpt>
      <trkpt lat="27.822656" lon="86.703315">
        <ele>3880</ele>
        <time>2022-10-21T04:35:44.000Z</time>
      </trkpt>
      <trkpt lat="27.822666" lon="86.703296">
        <ele>3881.2</ele>
        <time>2022-10-21T04:35:53.000Z</time>
      </trkpt>
      <trkpt lat="27.822653" lon="86.703277">
        <ele>3884.4</ele>
        <time>2022-10-21T04:36:21.000Z</time>
      </trkpt>
      <trkpt lat="27.822621" lon="86.703264">
        <ele>3884.6</ele>
        <time>2022-10-21T04:36:26.000Z</time>
      </trkpt>
      <trkpt lat="27.822605" lon="86.703245">
        <ele>3887</ele>
        <time>2022-10-21T04:36:58.000Z</time>
      </trkpt>
      <trkpt lat="27.822627" lon="86.703232">
        <ele>3886.8</ele>
        <time>2022-10-21T04:37:00.000Z</time>
      </trkpt>
      <trkpt lat="27.822653" lon="86.703232">
        <ele>3887.2</ele>
        <time>2022-10-21T04:37:02.000Z</time>
      </trkpt>
      <trkpt lat="27.822682" lon="86.703219">
        <ele>3887.8</ele>
        <time>2022-10-21T04:37:04.000Z</time>
      </trkpt>
      <trkpt lat="27.822704" lon="86.703206">
        <ele>3887.8</ele>
        <time>2022-10-21T04:37:06.000Z</time>
      </trkpt>
      <trkpt lat="27.82273" lon="86.7032">
        <ele>3888</ele>
        <time>2022-10-21T04:37:10.000Z</time>
      </trkpt>
      <trkpt lat="27.822749" lon="86.7032">
        <ele>3889.2</ele>
        <time>2022-10-21T04:37:18.000Z</time>
      </trkpt>
      <trkpt lat="27.822765" lon="86.703187">
        <ele>3892</ele>
        <time>2022-10-21T04:37:40.000Z</time>
      </trkpt>
      <trkpt lat="27.822784" lon="86.703181">
        <ele>3893</ele>
        <time>2022-10-21T04:37:42.000Z</time>
      </trkpt>
      <trkpt lat="27.822797" lon="86.703162">
        <ele>3893.6</ele>
        <time>2022-10-21T04:37:44.000Z</time>
      </trkpt>
      <trkpt lat="27.822822" lon="86.703149">
        <ele>3893.8</ele>
        <time>2022-10-21T04:37:47.000Z</time>
      </trkpt>
      <trkpt lat="27.822838" lon="86.70313">
        <ele>3894.4</ele>
        <time>2022-10-21T04:37:50.000Z</time>
      </trkpt>
      <trkpt lat="27.822918" lon="86.703149">
        <ele>3898.8</ele>
        <time>2022-10-21T04:39:07.000Z</time>
      </trkpt>
      <trkpt lat="27.822941" lon="86.703149">
        <ele>3899.4</ele>
        <time>2022-10-21T04:39:09.000Z</time>
      </trkpt>
      <trkpt lat="27.82297" lon="86.70313">
        <ele>3900</ele>
        <time>2022-10-21T04:39:11.000Z</time>
      </trkpt>
      <trkpt lat="27.822992" lon="86.703123">
        <ele>3900</ele>
        <time>2022-10-21T04:39:13.000Z</time>
      </trkpt>
      <trkpt lat="27.823024" lon="86.703123">
        <ele>3901</ele>
        <time>2022-10-21T04:39:16.000Z</time>
      </trkpt>
      <trkpt lat="27.823046" lon="86.703104">
        <ele>3902.8</ele>
        <time>2022-10-21T04:39:34.000Z</time>
      </trkpt>
      <trkpt lat="27.823062" lon="86.703085">
        <ele>3903.4</ele>
        <time>2022-10-21T04:39:36.000Z</time>
      </trkpt>
      <trkpt lat="27.823075" lon="86.703059">
        <ele>3903.4</ele>
        <time>2022-10-21T04:39:38.000Z</time>
      </trkpt>
      <trkpt lat="27.823066" lon="86.70304">
        <ele>3903.4</ele>
        <time>2022-10-21T04:39:42.000Z</time>
      </trkpt>
      <trkpt lat="27.823046" lon="86.703021">
        <ele>3904.4</ele>
        <time>2022-10-21T04:39:57.000Z</time>
      </trkpt>
      <trkpt lat="27.823046" lon="86.702995">
        <ele>3904.4</ele>
        <time>2022-10-21T04:39:58.000Z</time>
      </trkpt>
      <trkpt lat="27.823293" lon="86.703142">
        <ele>3903.6</ele>
        <time>2022-10-21T04:41:12.000Z</time>
      </trkpt>
      <trkpt lat="27.823242" lon="86.703046">
        <ele>3903.6</ele>
        <time>2022-10-21T04:41:13.000Z</time>
      </trkpt>
      <trkpt lat="27.823216" lon="86.703046">
        <ele>3903.6</ele>
        <time>2022-10-21T04:41:14.000Z</time>
      </trkpt>
      <trkpt lat="27.823181" lon="86.702963">
        <ele>3903.6</ele>
        <time>2022-10-21T04:41:15.000Z</time>
      </trkpt>
      <trkpt lat="27.823158" lon="86.70297">
        <ele>3903.6</ele>
        <time>2022-10-21T04:41:16.000Z</time>
      </trkpt>
      <trkpt lat="27.823142" lon="86.702989">
        <ele>3903.8</ele>
        <time>2022-10-21T04:41:19.000Z</time>
      </trkpt>
      <trkpt lat="27.823136" lon="86.703008">
        <ele>3904.2</ele>
        <time>2022-10-21T04:41:20.000Z</time>
      </trkpt>
      <trkpt lat="27.823107" lon="86.703027">
        <ele>3904.4</ele>
        <time>2022-10-21T04:41:22.000Z</time>
      </trkpt>
      <trkpt lat="27.823078" lon="86.703008">
        <ele>3904.2</ele>
        <time>2022-10-21T04:41:23.000Z</time>
      </trkpt>
      <trkpt lat="27.823062" lon="86.70304">
        <ele>3903.8</ele>
        <time>2022-10-21T04:41:24.000Z</time>
      </trkpt>
      <trkpt lat="27.823034" lon="86.703066">
        <ele>3903.8</ele>
        <time>2022-10-21T04:41:25.000Z</time>
      </trkpt>
      <trkpt lat="27.823014" lon="86.703072">
        <ele>3903.6</ele>
        <time>2022-10-21T04:41:26.000Z</time>
      </trkpt>
      <trkpt lat="27.823037" lon="86.70311">
        <ele>3903.4</ele>
        <time>2022-10-21T04:41:29.000Z</time>
      </trkpt>
      <trkpt lat="27.823043" lon="86.703142">
        <ele>3903.6</ele>
        <time>2022-10-21T04:41:30.000Z</time>
      </trkpt>
      <trkpt lat="27.823034" lon="86.703117">
        <ele>3903.6</ele>
        <time>2022-10-21T04:41:31.000Z</time>
      </trkpt>
      <trkpt lat="27.823053" lon="86.703123">
        <ele>3903.8</ele>
        <time>2022-10-21T04:41:32.000Z</time>
      </trkpt>
      <trkpt lat="27.823107" lon="86.703123">
        <ele>3903.8</ele>
        <time>2022-10-21T04:41:34.000Z</time>
      </trkpt>
      <trkpt lat="27.823139" lon="86.703149">
        <ele>3903.8</ele>
        <time>2022-10-21T04:41:35.000Z</time>
      </trkpt>
      <trkpt lat="27.823136" lon="86.703104">
        <ele>3903.8</ele>
        <time>2022-10-21T04:41:36.000Z</time>
      </trkpt>
      <trkpt lat="27.823136" lon="86.70304">
        <ele>3903.8</ele>
        <time>2022-10-21T04:41:37.000Z</time>
      </trkpt>
      <trkpt lat="27.823126" lon="86.703002">
        <ele>3904.2</ele>
        <time>2022-10-21T04:41:38.000Z</time>
      </trkpt>
      <trkpt lat="27.823126" lon="86.70297">
        <ele>3904.2</ele>
        <time>2022-10-21T04:41:39.000Z</time>
      </trkpt>
      <trkpt lat="27.823104" lon="86.702957">
        <ele>3904.4</ele>
        <time>2022-10-21T04:41:41.000Z</time>
      </trkpt>
      <trkpt lat="27.823107" lon="86.702989">
        <ele>3904.4</ele>
        <time>2022-10-21T04:41:42.000Z</time>
      </trkpt>
      <trkpt lat="27.823117" lon="86.703021">
        <ele>3904.4</ele>
        <time>2022-10-21T04:41:44.000Z</time>
      </trkpt>
      <trkpt lat="27.823133" lon="86.703034">
        <ele>3903.8</ele>
        <time>2022-10-21T04:41:47.000Z</time>
      </trkpt>
      <trkpt lat="27.823155" lon="86.70304">
        <ele>3903.8</ele>
        <time>2022-10-21T04:41:48.000Z</time>
      </trkpt>
      <trkpt lat="27.823174" lon="86.70304">
        <ele>3904.4</ele>
        <time>2022-10-21T04:41:51.000Z</time>
      </trkpt>
      <trkpt lat="27.82321" lon="86.70304">
        <ele>3904.2</ele>
        <time>2022-10-21T04:41:55.000Z</time>
      </trkpt>
      <trkpt lat="27.823232" lon="86.703046">
        <ele>3904.4</ele>
        <time>2022-10-21T04:41:56.000Z</time>
      </trkpt>
      <trkpt lat="27.823242" lon="86.703078">
        <ele>3904.4</ele>
        <time>2022-10-21T04:41:57.000Z</time>
      </trkpt>
      <trkpt lat="27.823222" lon="86.703104">
        <ele>3904.2</ele>
        <time>2022-10-21T04:41:59.000Z</time>
      </trkpt>
      <trkpt lat="27.823216" lon="86.703078">
        <ele>3904.2</ele>
        <time>2022-10-21T04:42:01.000Z</time>
      </trkpt>
      <trkpt lat="27.823245" lon="86.703059">
        <ele>3904</ele>
        <time>2022-10-21T04:42:04.000Z</time>
      </trkpt>
      <trkpt lat="27.823226" lon="86.703072">
        <ele>3904</ele>
        <time>2022-10-21T04:42:08.000Z</time>
      </trkpt>
      <trkpt lat="27.823197" lon="86.703072">
        <ele>3904</ele>
        <time>2022-10-21T04:42:09.000Z</time>
      </trkpt>
      <trkpt lat="27.823178" lon="86.703072">
        <ele>3904.2</ele>
        <time>2022-10-21T04:42:10.000Z</time>
      </trkpt>
      <trkpt lat="27.823174" lon="86.703046">
        <ele>3904.4</ele>
        <time>2022-10-21T04:42:14.000Z</time>
      </trkpt>
      <trkpt lat="27.823178" lon="86.703078">
        <ele>3904.4</ele>
        <time>2022-10-21T04:42:16.000Z</time>
      </trkpt>
      <trkpt lat="27.823174" lon="86.703104">
        <ele>3904.4</ele>
        <time>2022-10-21T04:42:18.000Z</time>
      </trkpt>
      <trkpt lat="27.823197" lon="86.703162">
        <ele>3904.4</ele>
        <time>2022-10-21T04:42:19.000Z</time>
      </trkpt>
      <trkpt lat="27.823184" lon="86.703194">
        <ele>3904.4</ele>
        <time>2022-10-21T04:42:21.000Z</time>
      </trkpt>
      <trkpt lat="27.823155" lon="86.703232">
        <ele>3904.2</ele>
        <time>2022-10-21T04:42:23.000Z</time>
      </trkpt>
      <trkpt lat="27.823152" lon="86.703206">
        <ele>3904.4</ele>
        <time>2022-10-21T04:42:25.000Z</time>
      </trkpt>
      <trkpt lat="27.823139" lon="86.703238">
        <ele>3904</ele>
        <time>2022-10-21T04:42:27.000Z</time>
      </trkpt>
      <trkpt lat="27.823146" lon="86.703219">
        <ele>3904</ele>
        <time>2022-10-21T04:42:30.000Z</time>
      </trkpt>
      <trkpt lat="27.823162" lon="86.7032">
        <ele>3904</ele>
        <time>2022-10-21T04:42:31.000Z</time>
      </trkpt>
      <trkpt lat="27.82319" lon="86.703194">
        <ele>3904</ele>
        <time>2022-10-21T04:42:33.000Z</time>
      </trkpt>
      <trkpt lat="27.823226" lon="86.703194">
        <ele>3904</ele>
        <time>2022-10-21T04:42:35.000Z</time>
      </trkpt>
      <trkpt lat="27.823258" lon="86.703181">
        <ele>3904.2</ele>
        <time>2022-10-21T04:42:37.000Z</time>
      </trkpt>
      <trkpt lat="27.82327" lon="86.7032">
        <ele>3904.4</ele>
        <time>2022-10-21T04:42:39.000Z</time>
      </trkpt>
      <trkpt lat="27.823312" lon="86.703232">
        <ele>3904.4</ele>
        <time>2022-10-21T04:42:41.000Z</time>
      </trkpt>
      <trkpt lat="27.82335" lon="86.703258">
        <ele>3904.4</ele>
        <time>2022-10-21T04:42:42.000Z</time>
      </trkpt>
      <trkpt lat="27.823373" lon="86.70327">
        <ele>3904.4</ele>
        <time>2022-10-21T04:42:43.000Z</time>
      </trkpt>
      <trkpt lat="27.823386" lon="86.703296">
        <ele>3904.4</ele>
        <time>2022-10-21T04:42:44.000Z</time>
      </trkpt>
      <trkpt lat="27.823402" lon="86.703309">
        <ele>3904.4</ele>
        <time>2022-10-21T04:42:45.000Z</time>
      </trkpt>
      <trkpt lat="27.82343" lon="86.703296">
        <ele>3904.4</ele>
        <time>2022-10-21T04:42:47.000Z</time>
      </trkpt>
      <trkpt lat="27.823405" lon="86.703283">
        <ele>3904.4</ele>
        <time>2022-10-21T04:42:50.000Z</time>
      </trkpt>
      <trkpt lat="27.823395" lon="86.703264">
        <ele>3904.4</ele>
        <time>2022-10-21T04:42:52.000Z</time>
      </trkpt>
      <trkpt lat="27.823373" lon="86.703232">
        <ele>3904.8</ele>
        <time>2022-10-21T04:42:53.000Z</time>
      </trkpt>
      <trkpt lat="27.82335" lon="86.703238">
        <ele>3904.8</ele>
        <time>2022-10-21T04:42:54.000Z</time>
      </trkpt>
      <trkpt lat="27.823328" lon="86.703264">
        <ele>3904.8</ele>
        <time>2022-10-21T04:42:55.000Z</time>
      </trkpt>
      <trkpt lat="27.823331" lon="86.703238">
        <ele>3904.8</ele>
        <time>2022-10-21T04:42:56.000Z</time>
      </trkpt>
      <trkpt lat="27.823302" lon="86.703226">
        <ele>3904.4</ele>
        <time>2022-10-21T04:42:57.000Z</time>
      </trkpt>
      <trkpt lat="27.823322" lon="86.703181">
        <ele>3904.4</ele>
        <time>2022-10-21T04:42:58.000Z</time>
      </trkpt>
      <trkpt lat="27.823312" lon="86.703149">
        <ele>3904.4</ele>
        <time>2022-10-21T04:42:59.000Z</time>
      </trkpt>
      <trkpt lat="27.823306" lon="86.70311">
        <ele>3904.4</ele>
        <time>2022-10-21T04:43:00.000Z</time>
      </trkpt>
      <trkpt lat="27.823315" lon="86.703078">
        <ele>3904.2</ele>
        <time>2022-10-21T04:43:02.000Z</time>
      </trkpt>
      <trkpt lat="27.82335" lon="86.703098">
        <ele>3904.2</ele>
        <time>2022-10-21T04:43:03.000Z</time>
      </trkpt>
      <trkpt lat="27.823341" lon="86.703066">
        <ele>3904</ele>
        <time>2022-10-21T04:43:05.000Z</time>
      </trkpt>
      <trkpt lat="27.823354" lon="86.703085">
        <ele>3904.2</ele>
        <time>2022-10-21T04:43:06.000Z</time>
      </trkpt>
      <trkpt lat="27.82335" lon="86.70311">
        <ele>3904.2</ele>
        <time>2022-10-21T04:43:07.000Z</time>
      </trkpt>
      <trkpt lat="27.823331" lon="86.703085">
        <ele>3904.2</ele>
        <time>2022-10-21T04:43:08.000Z</time>
      </trkpt>
      <trkpt lat="27.823312" lon="86.703085">
        <ele>3904.2</ele>
        <time>2022-10-21T04:43:09.000Z</time>
      </trkpt>
      <trkpt lat="27.823283" lon="86.70311">
        <ele>3904.2</ele>
        <time>2022-10-21T04:43:10.000Z</time>
      </trkpt>
      <trkpt lat="27.823264" lon="86.703149">
        <ele>3904.2</ele>
        <time>2022-10-21T04:43:11.000Z</time>
      </trkpt>
      <trkpt lat="27.823245" lon="86.703194">
        <ele>3904.2</ele>
        <time>2022-10-21T04:43:12.000Z</time>
      </trkpt>
      <trkpt lat="27.823229" lon="86.703232">
        <ele>3903.8</ele>
        <time>2022-10-21T04:43:13.000Z</time>
      </trkpt>
      <trkpt lat="27.823235" lon="86.70327">
        <ele>3903.6</ele>
        <time>2022-10-21T04:43:14.000Z</time>
      </trkpt>
      <trkpt lat="27.823235" lon="86.703309">
        <ele>3903.6</ele>
        <time>2022-10-21T04:43:15.000Z</time>
      </trkpt>
      <trkpt lat="27.823242" lon="86.703347">
        <ele>3904</ele>
        <time>2022-10-21T04:43:16.000Z</time>
      </trkpt>
      <trkpt lat="27.82328" lon="86.703379">
        <ele>3904</ele>
        <time>2022-10-21T04:43:17.000Z</time>
      </trkpt>
      <trkpt lat="27.823299" lon="86.703398">
        <ele>3904</ele>
        <time>2022-10-21T04:43:18.000Z</time>
      </trkpt>
      <trkpt lat="27.823312" lon="86.703418">
        <ele>3904</ele>
        <time>2022-10-21T04:43:20.000Z</time>
      </trkpt>
      <trkpt lat="27.823267" lon="86.703398">
        <ele>3904.2</ele>
        <time>2022-10-21T04:43:22.000Z</time>
      </trkpt>
      <trkpt lat="27.823245" lon="86.703398">
        <ele>3904.2</ele>
        <time>2022-10-21T04:43:23.000Z</time>
      </trkpt>
      <trkpt lat="27.823219" lon="86.703392">
        <ele>3904.2</ele>
        <time>2022-10-21T04:43:24.000Z</time>
      </trkpt>
      <trkpt lat="27.823197" lon="86.703392">
        <ele>3904.2</ele>
        <time>2022-10-21T04:43:25.000Z</time>
      </trkpt>
      <trkpt lat="27.823181" lon="86.703379">
        <ele>3904.2</ele>
        <time>2022-10-21T04:43:26.000Z</time>
      </trkpt>
      <trkpt lat="27.823149" lon="86.703386">
        <ele>3904.2</ele>
        <time>2022-10-21T04:43:28.000Z</time>
      </trkpt>
      <trkpt lat="27.82313" lon="86.703386">
        <ele>3904.6</ele>
        <time>2022-10-21T04:43:30.000Z</time>
      </trkpt>
      <trkpt lat="27.82311" lon="86.703354">
        <ele>3904.6</ele>
        <time>2022-10-21T04:43:32.000Z</time>
      </trkpt>
      <trkpt lat="27.823091" lon="86.703328">
        <ele>3904.2</ele>
        <time>2022-10-21T04:43:33.000Z</time>
      </trkpt>
      <trkpt lat="27.823062" lon="86.703309">
        <ele>3904.2</ele>
        <time>2022-10-21T04:43:34.000Z</time>
      </trkpt>
      <trkpt lat="27.823037" lon="86.703296">
        <ele>3904.6</ele>
        <time>2022-10-21T04:43:35.000Z</time>
      </trkpt>
      <trkpt lat="27.823011" lon="86.70327">
        <ele>3904.6</ele>
        <time>2022-10-21T04:43:36.000Z</time>
      </trkpt>
      <trkpt lat="27.822989" lon="86.703258">
        <ele>3904.6</ele>
        <time>2022-10-21T04:43:37.000Z</time>
      </trkpt>
      <trkpt lat="27.822963" lon="86.703238">
        <ele>3904.6</ele>
        <time>2022-10-21T04:43:38.000Z</time>
      </trkpt>
      <trkpt lat="27.822966" lon="86.703206">
        <ele>3904.2</ele>
        <time>2022-10-21T04:43:39.000Z</time>
      </trkpt>
      <trkpt lat="27.822998" lon="86.703149">
        <ele>3904</ele>
        <time>2022-10-21T04:43:40.000Z</time>
      </trkpt>
      <trkpt lat="27.822986" lon="86.703168">
        <ele>3904</ele>
        <time>2022-10-21T04:43:45.000Z</time>
      </trkpt>
      <trkpt lat="27.82297" lon="86.703155">
        <ele>3904</ele>
        <time>2022-10-21T04:43:47.000Z</time>
      </trkpt>
      <trkpt lat="27.822954" lon="86.70313">
        <ele>3904</ele>
        <time>2022-10-21T04:43:49.000Z</time>
      </trkpt>
      <trkpt lat="27.822877" lon="86.703002">
        <ele>3904.6</ele>
        <time>2022-10-21T04:43:57.000Z</time>
      </trkpt>
      <trkpt lat="27.822874" lon="86.703027">
        <ele>3904.6</ele>
        <time>2022-10-21T04:43:58.000Z</time>
      </trkpt>
      <trkpt lat="27.822899" lon="86.703066">
        <ele>3904.6</ele>
        <time>2022-10-21T04:43:59.000Z</time>
      </trkpt>
      <trkpt lat="27.822886" lon="86.70304">
        <ele>3904.6</ele>
        <time>2022-10-21T04:44:00.000Z</time>
      </trkpt>
      <trkpt lat="27.822877" lon="86.703059">
        <ele>3904.6</ele>
        <time>2022-10-21T04:44:01.000Z</time>
      </trkpt>
      <trkpt lat="27.822906" lon="86.703078">
        <ele>3904.4</ele>
        <time>2022-10-21T04:44:04.000Z</time>
      </trkpt>
      <trkpt lat="27.822928" lon="86.703078">
        <ele>3904</ele>
        <time>2022-10-21T04:44:06.000Z</time>
      </trkpt>
      <trkpt lat="27.822947" lon="86.703098">
        <ele>3903.4</ele>
        <time>2022-10-21T04:44:08.000Z</time>
      </trkpt>
      <trkpt lat="27.822947" lon="86.703123">
        <ele>3903.4</ele>
        <time>2022-10-21T04:44:09.000Z</time>
      </trkpt>
      <trkpt lat="27.822966" lon="86.70313">
        <ele>3903.2</ele>
        <time>2022-10-21T04:44:11.000Z</time>
      </trkpt>
      <trkpt lat="27.822966" lon="86.703155">
        <ele>3903</ele>
        <time>2022-10-21T04:44:17.000Z</time>
      </trkpt>
      <trkpt lat="27.822963" lon="86.703181">
        <ele>3903.2</ele>
        <time>2022-10-21T04:44:23.000Z</time>
      </trkpt>
      <trkpt lat="27.822986" lon="86.703162">
        <ele>3902.8</ele>
        <time>2022-10-21T04:44:30.000Z</time>
      </trkpt>
      <trkpt lat="27.823005" lon="86.703168">
        <ele>3902.8</ele>
        <time>2022-10-21T04:44:33.000Z</time>
      </trkpt>
      <trkpt lat="27.823034" lon="86.703155">
        <ele>3902.8</ele>
        <time>2022-10-21T04:44:38.000Z</time>
      </trkpt>
      <trkpt lat="27.823056" lon="86.703149">
        <ele>3902.6</ele>
        <time>2022-10-21T04:44:41.000Z</time>
      </trkpt>
      <trkpt lat="27.823046" lon="86.703123">
        <ele>3902.8</ele>
        <time>2022-10-21T04:44:44.000Z</time>
      </trkpt>
      <trkpt lat="27.823066" lon="86.70311">
        <ele>3903.8</ele>
        <time>2022-10-21T04:44:56.000Z</time>
      </trkpt>
      <trkpt lat="27.823101" lon="86.703059">
        <ele>3904.2</ele>
        <time>2022-10-21T04:45:50.000Z</time>
      </trkpt>
      <trkpt lat="27.823098" lon="86.703085">
        <ele>3904.2</ele>
        <time>2022-10-21T04:45:52.000Z</time>
      </trkpt>
      <trkpt lat="27.823046" lon="86.703162">
        <ele>3900</ele>
        <time>2022-10-21T04:47:31.000Z</time>
      </trkpt>
      <trkpt lat="27.823014" lon="86.703162">
        <ele>3899.8</ele>
        <time>2022-10-21T04:47:33.000Z</time>
      </trkpt>
      <trkpt lat="27.822982" lon="86.703155">
        <ele>3899</ele>
        <time>2022-10-21T04:47:35.000Z</time>
      </trkpt>
      <trkpt lat="27.822954" lon="86.703155">
        <ele>3899</ele>
        <time>2022-10-21T04:47:37.000Z</time>
      </trkpt>
      <trkpt lat="27.822928" lon="86.703168">
        <ele>3899</ele>
        <time>2022-10-21T04:47:40.000Z</time>
      </trkpt>
      <trkpt lat="27.822899" lon="86.703149">
        <ele>3900.4</ele>
        <time>2022-10-21T04:49:57.000Z</time>
      </trkpt>
      <trkpt lat="27.822918" lon="86.703123">
        <ele>3900.4</ele>
        <time>2022-10-21T04:50:04.000Z</time>
      </trkpt>
      <trkpt lat="27.822909" lon="86.703142">
        <ele>3900.2</ele>
        <time>2022-10-21T04:50:11.000Z</time>
      </trkpt>
      <trkpt lat="27.82289" lon="86.703149">
        <ele>3899.8</ele>
        <time>2022-10-21T04:50:15.000Z</time>
      </trkpt>
      <trkpt lat="27.822867" lon="86.703149">
        <ele>3899.4</ele>
        <time>2022-10-21T04:50:19.000Z</time>
      </trkpt>
      <trkpt lat="27.822848" lon="86.703162">
        <ele>3898.2</ele>
        <time>2022-10-21T04:50:24.000Z</time>
      </trkpt>
      <trkpt lat="27.822842" lon="86.703181">
        <ele>3897.6</ele>
        <time>2022-10-21T04:50:29.000Z</time>
      </trkpt>
      <trkpt lat="27.822826" lon="86.703194">
        <ele>3897.4</ele>
        <time>2022-10-21T04:50:32.000Z</time>
      </trkpt>
      <trkpt lat="27.822806" lon="86.7032">
        <ele>3896.8</ele>
        <time>2022-10-21T04:50:35.000Z</time>
      </trkpt>
      <trkpt lat="27.822787" lon="86.703206">
        <ele>3896</ele>
        <time>2022-10-21T04:50:42.000Z</time>
      </trkpt>
      <trkpt lat="27.822778" lon="86.703226">
        <ele>3895.2</ele>
        <time>2022-10-21T04:50:46.000Z</time>
      </trkpt>
      <trkpt lat="27.822755" lon="86.703238">
        <ele>3894.2</ele>
        <time>2022-10-21T04:50:50.000Z</time>
      </trkpt>
      <trkpt lat="27.822736" lon="86.703232">
        <ele>3893.6</ele>
        <time>2022-10-21T04:50:53.000Z</time>
      </trkpt>
      <trkpt lat="27.82271" lon="86.703226">
        <ele>3892.8</ele>
        <time>2022-10-21T04:50:56.000Z</time>
      </trkpt>
      <trkpt lat="27.822691" lon="86.703226">
        <ele>3892.6</ele>
        <time>2022-10-21T04:51:00.000Z</time>
      </trkpt>
      <trkpt lat="27.82265" lon="86.703206">
        <ele>3891.4</ele>
        <time>2022-10-21T04:54:55.000Z</time>
      </trkpt>
      <trkpt lat="27.82264" lon="86.703232">
        <ele>3891.2</ele>
        <time>2022-10-21T04:54:59.000Z</time>
      </trkpt>
      <trkpt lat="27.82263" lon="86.703258">
        <ele>3891.4</ele>
        <time>2022-10-21T04:55:03.000Z</time>
      </trkpt>
      <trkpt lat="27.822653" lon="86.70327">
        <ele>3892.4</ele>
        <time>2022-10-21T04:56:28.000Z</time>
      </trkpt>
      <trkpt lat="27.822675" lon="86.70327">
        <ele>3892.4</ele>
        <time>2022-10-21T04:56:30.000Z</time>
      </trkpt>
      <trkpt lat="27.822698" lon="86.703283">
        <ele>3892.2</ele>
        <time>2022-10-21T04:56:32.000Z</time>
      </trkpt>
      <trkpt lat="27.822714" lon="86.703309">
        <ele>3891.2</ele>
        <time>2022-10-21T04:56:34.000Z</time>
      </trkpt>
      <trkpt lat="27.822688" lon="86.70327">
        <ele>3889.8</ele>
        <time>2022-10-21T04:58:53.000Z</time>
      </trkpt>
      <trkpt lat="27.822688" lon="86.703296">
        <ele>3889.8</ele>
        <time>2022-10-21T04:58:55.000Z</time>
      </trkpt>
      <trkpt lat="27.822698" lon="86.703315">
        <ele>3888.8</ele>
        <time>2022-10-21T05:00:24.000Z</time>
      </trkpt>
      <trkpt lat="27.822717" lon="86.70327">
        <ele>3887.2</ele>
        <time>2022-10-21T05:02:58.000Z</time>
      </trkpt>
      <trkpt lat="27.822704" lon="86.703296">
        <ele>3883.4</ele>
        <time>2022-10-21T05:05:42.000Z</time>
      </trkpt>
      <trkpt lat="27.822707" lon="86.703322">
        <ele>3882.8</ele>
        <time>2022-10-21T05:05:45.000Z</time>
      </trkpt>
      <trkpt lat="27.822704" lon="86.703347">
        <ele>3882.6</ele>
        <time>2022-10-21T05:05:47.000Z</time>
      </trkpt>
      <trkpt lat="27.822698" lon="86.703379">
        <ele>3882.6</ele>
        <time>2022-10-21T05:05:49.000Z</time>
      </trkpt>
      <trkpt lat="27.822675" lon="86.703398">
        <ele>3882.4</ele>
        <time>2022-10-21T05:05:51.000Z</time>
      </trkpt>
      <trkpt lat="27.822656" lon="86.703418">
        <ele>3881.4</ele>
        <time>2022-10-21T05:05:54.000Z</time>
      </trkpt>
      <trkpt lat="27.822637" lon="86.703424">
        <ele>3880.2</ele>
        <time>2022-10-21T05:05:58.000Z</time>
      </trkpt>
      <trkpt lat="27.82265" lon="86.703443">
        <ele>3879.2</ele>
        <time>2022-10-21T05:06:05.000Z</time>
      </trkpt>
      <trkpt lat="27.822669" lon="86.703456">
        <ele>3878.6</ele>
        <time>2022-10-21T05:06:07.000Z</time>
      </trkpt>
      <trkpt lat="27.822675" lon="86.703475">
        <ele>3878.4</ele>
        <time>2022-10-21T05:06:09.000Z</time>
      </trkpt>
      <trkpt lat="27.822666" lon="86.703494">
        <ele>3877.8</ele>
        <time>2022-10-21T05:06:11.000Z</time>
      </trkpt>
      <trkpt lat="27.822666" lon="86.70352">
        <ele>3877.4</ele>
        <time>2022-10-21T05:06:14.000Z</time>
      </trkpt>
      <trkpt lat="27.822685" lon="86.70352">
        <ele>3876.8</ele>
        <time>2022-10-21T05:06:16.000Z</time>
      </trkpt>
      <trkpt lat="27.822707" lon="86.70352">
        <ele>3876.4</ele>
        <time>2022-10-21T05:06:19.000Z</time>
      </trkpt>
      <trkpt lat="27.822726" lon="86.70352">
        <ele>3876.2</ele>
        <time>2022-10-21T05:06:21.000Z</time>
      </trkpt>
      <trkpt lat="27.822752" lon="86.70352">
        <ele>3875.6</ele>
        <time>2022-10-21T05:06:24.000Z</time>
      </trkpt>
      <trkpt lat="27.822794" lon="86.703558">
        <ele>3874</ele>
        <time>2022-10-21T05:07:24.000Z</time>
      </trkpt>
      <trkpt lat="27.822768" lon="86.703584">
        <ele>3873</ele>
        <time>2022-10-21T05:07:26.000Z</time>
      </trkpt>
      <trkpt lat="27.822749" lon="86.703597">
        <ele>3872.8</ele>
        <time>2022-10-21T05:07:28.000Z</time>
      </trkpt>
      <trkpt lat="27.822749" lon="86.703622">
        <ele>3872.4</ele>
        <time>2022-10-21T05:07:31.000Z</time>
      </trkpt>
      <trkpt lat="27.822765" lon="86.703635">
        <ele>3871.6</ele>
        <time>2022-10-21T05:07:34.000Z</time>
      </trkpt>
      <trkpt lat="27.822787" lon="86.703654">
        <ele>3871</ele>
        <time>2022-10-21T05:07:37.000Z</time>
      </trkpt>
      <trkpt lat="27.822803" lon="86.703667">
        <ele>3869.8</ele>
        <time>2022-10-21T05:07:40.000Z</time>
      </trkpt>
      <trkpt lat="27.822819" lon="86.703686">
        <ele>3869.4</ele>
        <time>2022-10-21T05:07:43.000Z</time>
      </trkpt>
      <trkpt lat="27.822835" lon="86.703706">
        <ele>3869.2</ele>
        <time>2022-10-21T05:07:45.000Z</time>
      </trkpt>
      <trkpt lat="27.822854" lon="86.703725">
        <ele>3869.4</ele>
        <time>2022-10-21T05:07:48.000Z</time>
      </trkpt>
      <trkpt lat="27.822861" lon="86.70375">
        <ele>3869.6</ele>
        <time>2022-10-21T05:07:50.000Z</time>
      </trkpt>
      <trkpt lat="27.822858" lon="86.703776">
        <ele>3869.6</ele>
        <time>2022-10-21T05:07:52.000Z</time>
      </trkpt>
      <trkpt lat="27.822848" lon="86.703802">
        <ele>3870.2</ele>
        <time>2022-10-21T05:07:55.000Z</time>
      </trkpt>
      <trkpt lat="27.822845" lon="86.703827">
        <ele>3869.6</ele>
        <time>2022-10-21T05:07:57.000Z</time>
      </trkpt>
      <trkpt lat="27.822845" lon="86.703859">
        <ele>3869.4</ele>
        <time>2022-10-21T05:07:59.000Z</time>
      </trkpt>
      <trkpt lat="27.822848" lon="86.703885">
        <ele>3869.4</ele>
        <time>2022-10-21T05:08:01.000Z</time>
      </trkpt>
      <trkpt lat="27.822845" lon="86.70391">
        <ele>3869.2</ele>
        <time>2022-10-21T05:08:03.000Z</time>
      </trkpt>
      <trkpt lat="27.822845" lon="86.703942">
        <ele>3869.4</ele>
        <time>2022-10-21T05:08:05.000Z</time>
      </trkpt>
      <trkpt lat="27.822854" lon="86.703981">
        <ele>3869.6</ele>
        <time>2022-10-21T05:08:08.000Z</time>
      </trkpt>
      <trkpt lat="27.82287" lon="86.704013">
        <ele>3869.6</ele>
        <time>2022-10-21T05:08:11.000Z</time>
      </trkpt>
      <trkpt lat="27.822877" lon="86.704032">
        <ele>3869.6</ele>
        <time>2022-10-21T05:08:13.000Z</time>
      </trkpt>
      <trkpt lat="27.82289" lon="86.704051">
        <ele>3869.6</ele>
        <time>2022-10-21T05:08:15.000Z</time>
      </trkpt>
      <trkpt lat="27.822902" lon="86.704077">
        <ele>3870</ele>
        <time>2022-10-21T05:08:18.000Z</time>
      </trkpt>
      <trkpt lat="27.822915" lon="86.704096">
        <ele>3870.2</ele>
        <time>2022-10-21T05:08:20.000Z</time>
      </trkpt>
      <trkpt lat="27.822928" lon="86.704115">
        <ele>3870.4</ele>
        <time>2022-10-21T05:08:22.000Z</time>
      </trkpt>
      <trkpt lat="27.822938" lon="86.704134">
        <ele>3870.4</ele>
        <time>2022-10-21T05:08:23.000Z</time>
      </trkpt>
      <trkpt lat="27.82295" lon="86.704154">
        <ele>3870.4</ele>
        <time>2022-10-21T05:08:25.000Z</time>
      </trkpt>
      <trkpt lat="27.822963" lon="86.704179">
        <ele>3870.2</ele>
        <time>2022-10-21T05:08:27.000Z</time>
      </trkpt>
      <trkpt lat="27.822976" lon="86.704211">
        <ele>3870.2</ele>
        <time>2022-10-21T05:08:30.000Z</time>
      </trkpt>
      <trkpt lat="27.822986" lon="86.70423">
        <ele>3869.8</ele>
        <time>2022-10-21T05:08:32.000Z</time>
      </trkpt>
      <trkpt lat="27.823005" lon="86.704237">
        <ele>3870.4</ele>
        <time>2022-10-21T05:08:34.000Z</time>
      </trkpt>
      <trkpt lat="27.823018" lon="86.704256">
        <ele>3870.4</ele>
        <time>2022-10-21T05:08:36.000Z</time>
      </trkpt>
      <trkpt lat="27.823034" lon="86.704275">
        <ele>3869.8</ele>
        <time>2022-10-21T05:08:38.000Z</time>
      </trkpt>
      <trkpt lat="27.82304" lon="86.704294">
        <ele>3869.8</ele>
        <time>2022-10-21T05:08:40.000Z</time>
      </trkpt>
      <trkpt lat="27.82305" lon="86.704314">
        <ele>3869.8</ele>
        <time>2022-10-21T05:08:42.000Z</time>
      </trkpt>
      <trkpt lat="27.823066" lon="86.704333">
        <ele>3869.8</ele>
        <time>2022-10-21T05:08:44.000Z</time>
      </trkpt>
      <trkpt lat="27.823075" lon="86.704352">
        <ele>3869.8</ele>
        <time>2022-10-21T05:08:46.000Z</time>
      </trkpt>
      <trkpt lat="27.823082" lon="86.704371">
        <ele>3869.6</ele>
        <time>2022-10-21T05:08:47.000Z</time>
      </trkpt>
      <trkpt lat="27.823094" lon="86.70439">
        <ele>3869.6</ele>
        <time>2022-10-21T05:08:49.000Z</time>
      </trkpt>
      <trkpt lat="27.823104" lon="86.70441">
        <ele>3869.6</ele>
        <time>2022-10-21T05:08:51.000Z</time>
      </trkpt>
      <trkpt lat="27.823114" lon="86.704429">
        <ele>3869.6</ele>
        <time>2022-10-21T05:08:53.000Z</time>
      </trkpt>
      <trkpt lat="27.823126" lon="86.704448">
        <ele>3869.6</ele>
        <time>2022-10-21T05:08:55.000Z</time>
      </trkpt>
      <trkpt lat="27.823142" lon="86.704467">
        <ele>3869.8</ele>
        <time>2022-10-21T05:08:57.000Z</time>
      </trkpt>
      <trkpt lat="27.823165" lon="86.704493">
        <ele>3869.8</ele>
        <time>2022-10-21T05:09:00.000Z</time>
      </trkpt>
      <trkpt lat="27.823184" lon="86.704518">
        <ele>3870</ele>
        <time>2022-10-21T05:09:03.000Z</time>
      </trkpt>
      <trkpt lat="27.823194" lon="86.704538">
        <ele>3870</ele>
        <time>2022-10-21T05:09:05.000Z</time>
      </trkpt>
      <trkpt lat="27.823213" lon="86.704557">
        <ele>3869.8</ele>
        <time>2022-10-21T05:09:08.000Z</time>
      </trkpt>
      <trkpt lat="27.823219" lon="86.704582">
        <ele>3869.8</ele>
        <time>2022-10-21T05:09:10.000Z</time>
      </trkpt>
      <trkpt lat="27.823232" lon="86.704608">
        <ele>3869.8</ele>
        <time>2022-10-21T05:09:12.000Z</time>
      </trkpt>
      <trkpt lat="27.823242" lon="86.704627">
        <ele>3869.8</ele>
        <time>2022-10-21T05:09:14.000Z</time>
      </trkpt>
      <trkpt lat="27.823251" lon="86.704646">
        <ele>3869.8</ele>
        <time>2022-10-21T05:09:16.000Z</time>
      </trkpt>
      <trkpt lat="27.823261" lon="86.704666">
        <ele>3869.8</ele>
        <time>2022-10-21T05:09:18.000Z</time>
      </trkpt>
      <trkpt lat="27.82327" lon="86.704691">
        <ele>3869.4</ele>
        <time>2022-10-21T05:09:20.000Z</time>
      </trkpt>
      <trkpt lat="27.823283" lon="86.70471">
        <ele>3869.2</ele>
        <time>2022-10-21T05:09:22.000Z</time>
      </trkpt>
      <trkpt lat="27.823296" lon="86.704736">
        <ele>3869.2</ele>
        <time>2022-10-21T05:09:24.000Z</time>
      </trkpt>
      <trkpt lat="27.823312" lon="86.704749">
        <ele>3869.4</ele>
        <time>2022-10-21T05:09:26.000Z</time>
      </trkpt>
      <trkpt lat="27.823322" lon="86.704774">
        <ele>3869.8</ele>
        <time>2022-10-21T05:09:28.000Z</time>
      </trkpt>
      <trkpt lat="27.823334" lon="86.704794">
        <ele>3870</ele>
        <time>2022-10-21T05:09:31.000Z</time>
      </trkpt>
      <trkpt lat="27.82335" lon="86.704806">
        <ele>3870.2</ele>
        <time>2022-10-21T05:09:34.000Z</time>
      </trkpt>
      <trkpt lat="27.82337" lon="86.704794">
        <ele>3870.2</ele>
        <time>2022-10-21T05:09:39.000Z</time>
      </trkpt>
      <trkpt lat="27.823392" lon="86.704781">
        <ele>3870.8</ele>
        <time>2022-10-21T05:09:43.000Z</time>
      </trkpt>
      <trkpt lat="27.823411" lon="86.704768">
        <ele>3870.8</ele>
        <time>2022-10-21T05:09:46.000Z</time>
      </trkpt>
      <trkpt lat="27.823427" lon="86.704755">
        <ele>3871</ele>
        <time>2022-10-21T05:09:48.000Z</time>
      </trkpt>
      <trkpt lat="27.823443" lon="86.704742">
        <ele>3871.4</ele>
        <time>2022-10-21T05:09:51.000Z</time>
      </trkpt>
      <trkpt lat="27.823462" lon="86.704736">
        <ele>3871.8</ele>
        <time>2022-10-21T05:09:56.000Z</time>
      </trkpt>
      <trkpt lat="27.823482" lon="86.704736">
        <ele>3872.4</ele>
        <time>2022-10-21T05:10:22.000Z</time>
      </trkpt>
      <trkpt lat="27.82351" lon="86.704736">
        <ele>3872.4</ele>
        <time>2022-10-21T05:10:24.000Z</time>
      </trkpt>
      <trkpt lat="27.82353" lon="86.704736">
        <ele>3872.8</ele>
        <time>2022-10-21T05:10:26.000Z</time>
      </trkpt>
      <trkpt lat="27.823558" lon="86.70473">
        <ele>3873.2</ele>
        <time>2022-10-21T05:10:28.000Z</time>
      </trkpt>
      <trkpt lat="27.823587" lon="86.704717">
        <ele>3873.6</ele>
        <time>2022-10-21T05:10:30.000Z</time>
      </trkpt>
      <trkpt lat="27.82361" lon="86.70471">
        <ele>3873.8</ele>
        <time>2022-10-21T05:10:32.000Z</time>
      </trkpt>
      <trkpt lat="27.823629" lon="86.704717">
        <ele>3873.8</ele>
        <time>2022-10-21T05:10:35.000Z</time>
      </trkpt>
      <trkpt lat="27.823645" lon="86.704736">
        <ele>3874.8</ele>
        <time>2022-10-21T05:10:39.000Z</time>
      </trkpt>
      <trkpt lat="27.823661" lon="86.704749">
        <ele>3875.2</ele>
        <time>2022-10-21T05:10:42.000Z</time>
      </trkpt>
      <trkpt lat="27.823683" lon="86.704768">
        <ele>3875</ele>
        <time>2022-10-21T05:10:45.000Z</time>
      </trkpt>
      <trkpt lat="27.823702" lon="86.704774">
        <ele>3875.2</ele>
        <time>2022-10-21T05:10:59.000Z</time>
      </trkpt>
      <trkpt lat="27.823642" lon="86.704621">
        <ele>3874.2</ele>
        <time>2022-10-21T05:13:03.000Z</time>
      </trkpt>
      <trkpt lat="27.823632" lon="86.704666">
        <ele>3874.2</ele>
        <time>2022-10-21T05:13:04.000Z</time>
      </trkpt>
      <trkpt lat="27.823616" lon="86.704704">
        <ele>3874.2</ele>
        <time>2022-10-21T05:13:05.000Z</time>
      </trkpt>
      <trkpt lat="27.823606" lon="86.704736">
        <ele>3875</ele>
        <time>2022-10-21T05:13:09.000Z</time>
      </trkpt>
      <trkpt lat="27.823626" lon="86.704736">
        <ele>3875</ele>
        <time>2022-10-21T05:13:12.000Z</time>
      </trkpt>
      <trkpt lat="27.823667" lon="86.70471">
        <ele>3875</ele>
        <time>2022-10-21T05:13:14.000Z</time>
      </trkpt>
      <trkpt lat="27.823715" lon="86.704678">
        <ele>3875.2</ele>
        <time>2022-10-21T05:13:15.000Z</time>
      </trkpt>
      <trkpt lat="27.823693" lon="86.704672">
        <ele>3875.2</ele>
        <time>2022-10-21T05:13:17.000Z</time>
      </trkpt>
      <trkpt lat="27.82367" lon="86.704672">
        <ele>3875</ele>
        <time>2022-10-21T05:13:18.000Z</time>
      </trkpt>
      <trkpt lat="27.823651" lon="86.704678">
        <ele>3874.8</ele>
        <time>2022-10-21T05:13:19.000Z</time>
      </trkpt>
      <trkpt lat="27.823667" lon="86.704698">
        <ele>3874.4</ele>
        <time>2022-10-21T05:13:21.000Z</time>
      </trkpt>
      <trkpt lat="27.82369" lon="86.704691">
        <ele>3874</ele>
        <time>2022-10-21T05:13:28.000Z</time>
      </trkpt>
      <trkpt lat="27.823667" lon="86.70471">
        <ele>3875</ele>
        <time>2022-10-21T05:13:36.000Z</time>
      </trkpt>
      <trkpt lat="27.823642" lon="86.70473">
        <ele>3875.2</ele>
        <time>2022-10-21T05:13:39.000Z</time>
      </trkpt>
      <trkpt lat="27.823622" lon="86.704717">
        <ele>3874</ele>
        <time>2022-10-21T05:13:43.000Z</time>
      </trkpt>
      <trkpt lat="27.823606" lon="86.704704">
        <ele>3874</ele>
        <time>2022-10-21T05:13:46.000Z</time>
      </trkpt>
      <trkpt lat="27.82361" lon="86.704678">
        <ele>3874.2</ele>
        <time>2022-10-21T05:13:51.000Z</time>
      </trkpt>
      <trkpt lat="27.823616" lon="86.704659">
        <ele>3874</ele>
        <time>2022-10-21T05:13:53.000Z</time>
      </trkpt>
      <trkpt lat="27.823622" lon="86.704634">
        <ele>3874.2</ele>
        <time>2022-10-21T05:13:55.000Z</time>
      </trkpt>
      <trkpt lat="27.823632" lon="86.704614">
        <ele>3874.2</ele>
        <time>2022-10-21T05:14:08.000Z</time>
      </trkpt>
      <trkpt lat="27.823629" lon="86.704589">
        <ele>3874.2</ele>
        <time>2022-10-21T05:14:10.000Z</time>
      </trkpt>
      <trkpt lat="27.823622" lon="86.70457">
        <ele>3874.2</ele>
        <time>2022-10-21T05:14:14.000Z</time>
      </trkpt>
      <trkpt lat="27.823613" lon="86.70455">
        <ele>3874.2</ele>
        <time>2022-10-21T05:14:16.000Z</time>
      </trkpt>
      <trkpt lat="27.823603" lon="86.704531">
        <ele>3874.2</ele>
        <time>2022-10-21T05:14:19.000Z</time>
      </trkpt>
      <trkpt lat="27.823597" lon="86.704512">
        <ele>3874.4</ele>
        <time>2022-10-21T05:14:21.000Z</time>
      </trkpt>
      <trkpt lat="27.823613" lon="86.704531">
        <ele>3874.6</ele>
        <time>2022-10-21T05:14:36.000Z</time>
      </trkpt>
      <trkpt lat="27.823622" lon="86.70455">
        <ele>3874.2</ele>
        <time>2022-10-21T05:14:39.000Z</time>
      </trkpt>
      <trkpt lat="27.823629" lon="86.70457">
        <ele>3874.2</ele>
        <time>2022-10-21T05:14:41.000Z</time>
      </trkpt>
      <trkpt lat="27.823638" lon="86.704589">
        <ele>3874.2</ele>
        <time>2022-10-21T05:14:43.000Z</time>
      </trkpt>
      <trkpt lat="27.823642" lon="86.704614">
        <ele>3875</ele>
        <time>2022-10-21T05:14:46.000Z</time>
      </trkpt>
      <trkpt lat="27.823642" lon="86.704666">
        <ele>3874.6</ele>
        <time>2022-10-21T05:15:25.000Z</time>
      </trkpt>
      <trkpt lat="27.823651" lon="86.704691">
        <ele>3874.6</ele>
        <time>2022-10-21T05:15:28.000Z</time>
      </trkpt>
      <trkpt lat="27.823667" lon="86.704678">
        <ele>3874.4</ele>
        <time>2022-10-21T05:15:31.000Z</time>
      </trkpt>
      <trkpt lat="27.82368" lon="86.704659">
        <ele>3874.4</ele>
        <time>2022-10-21T05:15:35.000Z</time>
      </trkpt>
      <trkpt lat="27.823686" lon="86.704634">
        <ele>3874.8</ele>
        <time>2022-10-21T05:16:03.000Z</time>
      </trkpt>
      <trkpt lat="27.823667" lon="86.704653">
        <ele>3874.8</ele>
        <time>2022-10-21T05:16:04.000Z</time>
      </trkpt>
      <trkpt lat="27.823667" lon="86.704678">
        <ele>3875</ele>
        <time>2022-10-21T05:16:11.000Z</time>
      </trkpt>
      <trkpt lat="27.823661" lon="86.704704">
        <ele>3875</ele>
        <time>2022-10-21T05:16:14.000Z</time>
      </trkpt>
      <trkpt lat="27.823648" lon="86.70473">
        <ele>3875</ele>
        <time>2022-10-21T05:16:16.000Z</time>
      </trkpt>
      <trkpt lat="27.823674" lon="86.704704">
        <ele>3875</ele>
        <time>2022-10-21T05:16:33.000Z</time>
      </trkpt>
      <trkpt lat="27.82369" lon="86.704691">
        <ele>3875.2</ele>
        <time>2022-10-21T05:16:36.000Z</time>
      </trkpt>
      <trkpt lat="27.823709" lon="86.704704">
        <ele>3875</ele>
        <time>2022-10-21T05:16:40.000Z</time>
      </trkpt>
      <trkpt lat="27.823706" lon="86.70473">
        <ele>3875</ele>
        <time>2022-10-21T05:16:49.000Z</time>
      </trkpt>
      <trkpt lat="27.823712" lon="86.704749">
        <ele>3875.2</ele>
        <time>2022-10-21T05:17:03.000Z</time>
      </trkpt>
      <trkpt lat="27.82369" lon="86.704755">
        <ele>3875.8</ele>
        <time>2022-10-21T05:17:08.000Z</time>
      </trkpt>
      <trkpt lat="27.82367" lon="86.704755">
        <ele>3875</ele>
        <time>2022-10-21T05:17:13.000Z</time>
      </trkpt>
      <trkpt lat="27.823677" lon="86.704774">
        <ele>3875</ele>
        <time>2022-10-21T05:17:15.000Z</time>
      </trkpt>
      <trkpt lat="27.82368" lon="86.704806">
        <ele>3875.2</ele>
        <time>2022-10-21T05:17:21.000Z</time>
      </trkpt>
      <trkpt lat="27.823699" lon="86.704832">
        <ele>3875.2</ele>
        <time>2022-10-21T05:17:25.000Z</time>
      </trkpt>
      <trkpt lat="27.823718" lon="86.704832">
        <ele>3875.6</ele>
        <time>2022-10-21T05:17:28.000Z</time>
      </trkpt>
      <trkpt lat="27.823699" lon="86.704806">
        <ele>3875.2</ele>
        <time>2022-10-21T05:17:30.000Z</time>
      </trkpt>
      <trkpt lat="27.82337" lon="86.704934">
        <ele>3875</ele>
        <time>2022-10-21T05:20:29.000Z</time>
      </trkpt>
      <trkpt lat="27.823341" lon="86.704966">
        <ele>3875</ele>
        <time>2022-10-21T05:20:32.000Z</time>
      </trkpt>
      <trkpt lat="27.823667" lon="86.704845">
        <ele>3875.2</ele>
        <time>2022-10-21T05:22:07.000Z</time>
      </trkpt>
      <trkpt lat="27.823683" lon="86.704826">
        <ele>3875.2</ele>
        <time>2022-10-21T05:22:10.000Z</time>
      </trkpt>
      <trkpt lat="27.823709" lon="86.704813">
        <ele>3875</ele>
        <time>2022-10-21T05:22:27.000Z</time>
      </trkpt>
      <trkpt lat="27.823664" lon="86.704832">
        <ele>3876</ele>
        <time>2022-10-21T05:24:49.000Z</time>
      </trkpt>
      <trkpt lat="27.82368" lon="86.704819">
        <ele>3876.2</ele>
        <time>2022-10-21T05:24:56.000Z</time>
      </trkpt>
      <trkpt lat="27.823696" lon="86.704794">
        <ele>3876.2</ele>
        <time>2022-10-21T05:25:16.000Z</time>
      </trkpt>
      <trkpt lat="27.823712" lon="86.704781">
        <ele>3876.6</ele>
        <time>2022-10-21T05:25:55.000Z</time>
      </trkpt>
      <trkpt lat="27.823702" lon="86.704755">
        <ele>3876.6</ele>
        <time>2022-10-21T05:25:57.000Z</time>
      </trkpt>
      <trkpt lat="27.823731" lon="86.704755">
        <ele>3876.8</ele>
        <time>2022-10-21T05:26:07.000Z</time>
      </trkpt>
      <trkpt lat="27.823718" lon="86.704736">
        <ele>3876.6</ele>
        <time>2022-10-21T05:26:12.000Z</time>
      </trkpt>
      <trkpt lat="27.823715" lon="86.704768">
        <ele>3876</ele>
        <time>2022-10-21T05:26:18.000Z</time>
      </trkpt>
      <trkpt lat="27.823693" lon="86.704781">
        <ele>3876</ele>
        <time>2022-10-21T05:26:21.000Z</time>
      </trkpt>
      <trkpt lat="27.823674" lon="86.704774">
        <ele>3876</ele>
        <time>2022-10-21T05:26:24.000Z</time>
      </trkpt>
      <trkpt lat="27.823648" lon="86.704774">
        <ele>3876.2</ele>
        <time>2022-10-21T05:27:30.000Z</time>
      </trkpt>
      <trkpt lat="27.823622" lon="86.704768">
        <ele>3875.6</ele>
        <time>2022-10-21T05:27:32.000Z</time>
      </trkpt>
      <trkpt lat="27.823603" lon="86.704755">
        <ele>3875</ele>
        <time>2022-10-21T05:27:34.000Z</time>
      </trkpt>
      <trkpt lat="27.823584" lon="86.704749">
        <ele>3875</ele>
        <time>2022-10-21T05:27:36.000Z</time>
      </trkpt>
      <trkpt lat="27.823565" lon="86.704749">
        <ele>3874.4</ele>
        <time>2022-10-21T05:27:40.000Z</time>
      </trkpt>
      <trkpt lat="27.823542" lon="86.704749">
        <ele>3874.2</ele>
        <time>2022-10-21T05:27:43.000Z</time>
      </trkpt>
      <trkpt lat="27.823523" lon="86.704755">
        <ele>3874.2</ele>
        <time>2022-10-21T05:27:45.000Z</time>
      </trkpt>
      <trkpt lat="27.823504" lon="86.704768">
        <ele>3873.4</ele>
        <time>2022-10-21T05:27:47.000Z</time>
      </trkpt>
      <trkpt lat="27.823485" lon="86.704768">
        <ele>3873.2</ele>
        <time>2022-10-21T05:27:49.000Z</time>
      </trkpt>
      <trkpt lat="27.823462" lon="86.704774">
        <ele>3873</ele>
        <time>2022-10-21T05:27:52.000Z</time>
      </trkpt>
      <trkpt lat="27.823446" lon="86.704787">
        <ele>3872.8</ele>
        <time>2022-10-21T05:27:54.000Z</time>
      </trkpt>
      <trkpt lat="27.823424" lon="86.704794">
        <ele>3872.2</ele>
        <time>2022-10-21T05:27:57.000Z</time>
      </trkpt>
      <trkpt lat="27.823411" lon="86.704813">
        <ele>3872</ele>
        <time>2022-10-21T05:27:59.000Z</time>
      </trkpt>
      <trkpt lat="27.823386" lon="86.704826">
        <ele>3871.6</ele>
        <time>2022-10-21T05:28:08.000Z</time>
      </trkpt>
      <trkpt lat="27.82337" lon="86.704845">
        <ele>3871.6</ele>
        <time>2022-10-21T05:28:12.000Z</time>
      </trkpt>
      <trkpt lat="27.823382" lon="86.704864">
        <ele>3870.8</ele>
        <time>2022-10-21T05:28:26.000Z</time>
      </trkpt>
      <trkpt lat="27.823405" lon="86.70489">
        <ele>3870.8</ele>
        <time>2022-10-21T05:28:28.000Z</time>
      </trkpt>
      <trkpt lat="27.823424" lon="86.704909">
        <ele>3871</ele>
        <time>2022-10-21T05:28:30.000Z</time>
      </trkpt>
      <trkpt lat="27.823446" lon="86.704928">
        <ele>3871.2</ele>
        <time>2022-10-21T05:28:32.000Z</time>
      </trkpt>
      <trkpt lat="27.823466" lon="86.704947">
        <ele>3871.2</ele>
        <time>2022-10-21T05:28:34.000Z</time>
      </trkpt>
      <trkpt lat="27.823482" lon="86.704966">
        <ele>3871.2</ele>
        <time>2022-10-21T05:28:36.000Z</time>
      </trkpt>
      <trkpt lat="27.823504" lon="86.704979">
        <ele>3871.4</ele>
        <time>2022-10-21T05:28:38.000Z</time>
      </trkpt>
      <trkpt lat="27.82352" lon="86.705005">
        <ele>3871.2</ele>
        <time>2022-10-21T05:28:40.000Z</time>
      </trkpt>
      <trkpt lat="27.823536" lon="86.705018">
        <ele>3871.2</ele>
        <time>2022-10-21T05:28:42.000Z</time>
      </trkpt>
      <trkpt lat="27.823555" lon="86.70503">
        <ele>3871.4</ele>
        <time>2022-10-21T05:28:44.000Z</time>
      </trkpt>
      <trkpt lat="27.823568" lon="86.70505">
        <ele>3871.4</ele>
        <time>2022-10-21T05:28:46.000Z</time>
      </trkpt>
      <trkpt lat="27.823587" lon="86.705062">
        <ele>3871.6</ele>
        <time>2022-10-21T05:28:48.000Z</time>
      </trkpt>
      <trkpt lat="27.82361" lon="86.705088">
        <ele>3871.6</ele>
        <time>2022-10-21T05:28:51.000Z</time>
      </trkpt>
      <trkpt lat="27.823629" lon="86.705107">
        <ele>3871.2</ele>
        <time>2022-10-21T05:28:53.000Z</time>
      </trkpt>
      <trkpt lat="27.823638" lon="86.705126">
        <ele>3871.2</ele>
        <time>2022-10-21T05:28:55.000Z</time>
      </trkpt>
      <trkpt lat="27.823658" lon="86.705146">
        <ele>3871.4</ele>
        <time>2022-10-21T05:28:57.000Z</time>
      </trkpt>
      <trkpt lat="27.823667" lon="86.705165">
        <ele>3871.4</ele>
        <time>2022-10-21T05:28:59.000Z</time>
      </trkpt>
      <trkpt lat="27.823686" lon="86.705184">
        <ele>3871.4</ele>
        <time>2022-10-21T05:29:02.000Z</time>
      </trkpt>
      <trkpt lat="27.823702" lon="86.70521">
        <ele>3871.4</ele>
        <time>2022-10-21T05:29:04.000Z</time>
      </trkpt>
      <trkpt lat="27.823718" lon="86.705222">
        <ele>3871.2</ele>
        <time>2022-10-21T05:29:06.000Z</time>
      </trkpt>
      <trkpt lat="27.823734" lon="86.705235">
        <ele>3871.2</ele>
        <time>2022-10-21T05:29:08.000Z</time>
      </trkpt>
      <trkpt lat="27.823741" lon="86.705254">
        <ele>3870.8</ele>
        <time>2022-10-21T05:29:09.000Z</time>
      </trkpt>
      <trkpt lat="27.82376" lon="86.705286">
        <ele>3870.8</ele>
        <time>2022-10-21T05:29:12.000Z</time>
      </trkpt>
      <trkpt lat="27.823782" lon="86.705312">
        <ele>3870.8</ele>
        <time>2022-10-21T05:29:15.000Z</time>
      </trkpt>
      <trkpt lat="27.823798" lon="86.705338">
        <ele>3870.6</ele>
        <time>2022-10-21T05:29:17.000Z</time>
      </trkpt>
      <trkpt lat="27.823824" lon="86.705363">
        <ele>3871</ele>
        <time>2022-10-21T05:29:20.000Z</time>
      </trkpt>
      <trkpt lat="27.82384" lon="86.705382">
        <ele>3871</ele>
        <time>2022-10-21T05:29:22.000Z</time>
      </trkpt>
      <trkpt lat="27.823846" lon="86.705402">
        <ele>3871</ele>
        <time>2022-10-21T05:29:24.000Z</time>
      </trkpt>
      <trkpt lat="27.823856" lon="86.705421">
        <ele>3871</ele>
        <time>2022-10-21T05:29:26.000Z</time>
      </trkpt>
      <trkpt lat="27.823872" lon="86.705434">
        <ele>3871</ele>
        <time>2022-10-21T05:29:28.000Z</time>
      </trkpt>
      <trkpt lat="27.823878" lon="86.705453">
        <ele>3870.6</ele>
        <time>2022-10-21T05:29:29.000Z</time>
      </trkpt>
      <trkpt lat="27.823894" lon="86.705466">
        <ele>3870.6</ele>
        <time>2022-10-21T05:29:31.000Z</time>
      </trkpt>
      <trkpt lat="27.82391" lon="86.705491">
        <ele>3870.6</ele>
        <time>2022-10-21T05:29:33.000Z</time>
      </trkpt>
      <trkpt lat="27.823933" lon="86.70551">
        <ele>3870.4</ele>
        <time>2022-10-21T05:29:36.000Z</time>
      </trkpt>
      <trkpt lat="27.823949" lon="86.70553">
        <ele>3870.4</ele>
        <time>2022-10-21T05:29:38.000Z</time>
      </trkpt>
      <trkpt lat="27.823968" lon="86.705542">
        <ele>3870.6</ele>
        <time>2022-10-21T05:29:40.000Z</time>
      </trkpt>
      <trkpt lat="27.823978" lon="86.705562">
        <ele>3870.6</ele>
        <time>2022-10-21T05:29:42.000Z</time>
      </trkpt>
      <trkpt lat="27.823997" lon="86.705574">
        <ele>3871</ele>
        <time>2022-10-21T05:30:24.000Z</time>
      </trkpt>
      <trkpt lat="27.824019" lon="86.705587">
        <ele>3870.6</ele>
        <time>2022-10-21T05:30:26.000Z</time>
      </trkpt>
      <trkpt lat="27.824032" lon="86.705606">
        <ele>3870.6</ele>
        <time>2022-10-21T05:30:27.000Z</time>
      </trkpt>
      <trkpt lat="27.824058" lon="86.705619">
        <ele>3870.6</ele>
        <time>2022-10-21T05:30:29.000Z</time>
      </trkpt>
      <trkpt lat="27.824077" lon="86.705632">
        <ele>3870.6</ele>
        <time>2022-10-21T05:30:31.000Z</time>
      </trkpt>
      <trkpt lat="27.824083" lon="86.705651">
        <ele>3870.6</ele>
        <time>2022-10-21T05:30:32.000Z</time>
      </trkpt>
      <trkpt lat="27.824093" lon="86.70567">
        <ele>3871.6</ele>
        <time>2022-10-21T05:30:34.000Z</time>
      </trkpt>
      <trkpt lat="27.824112" lon="86.705696">
        <ele>3871</ele>
        <time>2022-10-21T05:30:36.000Z</time>
      </trkpt>
      <trkpt lat="27.824128" lon="86.705722">
        <ele>3871</ele>
        <time>2022-10-21T05:30:38.000Z</time>
      </trkpt>
      <trkpt lat="27.824134" lon="86.705741">
        <ele>3871</ele>
        <time>2022-10-21T05:30:40.000Z</time>
      </trkpt>
      <trkpt lat="27.82415" lon="86.70576">
        <ele>3871</ele>
        <time>2022-10-21T05:30:42.000Z</time>
      </trkpt>
      <trkpt lat="27.824166" lon="86.705773">
        <ele>3871.2</ele>
        <time>2022-10-21T05:30:44.000Z</time>
      </trkpt>
      <trkpt lat="27.824182" lon="86.705786">
        <ele>3871</ele>
        <time>2022-10-21T05:30:46.000Z</time>
      </trkpt>
      <trkpt lat="27.824202" lon="86.705798">
        <ele>3871.2</ele>
        <time>2022-10-21T05:30:48.000Z</time>
      </trkpt>
      <trkpt lat="27.824224" lon="86.705805">
        <ele>3871.2</ele>
        <time>2022-10-21T05:30:50.000Z</time>
      </trkpt>
      <trkpt lat="27.824243" lon="86.705811">
        <ele>3871</ele>
        <time>2022-10-21T05:30:52.000Z</time>
      </trkpt>
      <trkpt lat="27.824269" lon="86.705824">
        <ele>3870.8</ele>
        <time>2022-10-21T05:30:55.000Z</time>
      </trkpt>
      <trkpt lat="27.824288" lon="86.705843">
        <ele>3870.6</ele>
        <time>2022-10-21T05:30:57.000Z</time>
      </trkpt>
      <trkpt lat="27.824304" lon="86.705856">
        <ele>3870.6</ele>
        <time>2022-10-21T05:30:59.000Z</time>
      </trkpt>
      <trkpt lat="27.82432" lon="86.705869">
        <ele>3870.6</ele>
        <time>2022-10-21T05:31:01.000Z</time>
      </trkpt>
      <trkpt lat="27.824336" lon="86.705888">
        <ele>3870.6</ele>
        <time>2022-10-21T05:31:03.000Z</time>
      </trkpt>
      <trkpt lat="27.824349" lon="86.705907">
        <ele>3870.2</ele>
        <time>2022-10-21T05:31:05.000Z</time>
      </trkpt>
      <trkpt lat="27.824355" lon="86.705933">
        <ele>3869.8</ele>
        <time>2022-10-21T05:31:07.000Z</time>
      </trkpt>
      <trkpt lat="27.824365" lon="86.705958">
        <ele>3869.8</ele>
        <time>2022-10-21T05:31:09.000Z</time>
      </trkpt>
      <trkpt lat="27.824374" lon="86.705978">
        <ele>3869.8</ele>
        <time>2022-10-21T05:31:11.000Z</time>
      </trkpt>
      <trkpt lat="27.824381" lon="86.705997">
        <ele>3869.4</ele>
        <time>2022-10-21T05:31:13.000Z</time>
      </trkpt>
      <trkpt lat="27.82439" lon="86.706016">
        <ele>3869.2</ele>
        <time>2022-10-21T05:31:27.000Z</time>
      </trkpt>
      <trkpt lat="27.824387" lon="86.706042">
        <ele>3869.2</ele>
        <time>2022-10-21T05:31:28.000Z</time>
      </trkpt>
      <trkpt lat="27.824384" lon="86.706067">
        <ele>3868.6</ele>
        <time>2022-10-21T05:31:30.000Z</time>
      </trkpt>
      <trkpt lat="27.824378" lon="86.706099">
        <ele>3868.2</ele>
        <time>2022-10-21T05:31:32.000Z</time>
      </trkpt>
      <trkpt lat="27.824374" lon="86.706125">
        <ele>3868.2</ele>
        <time>2022-10-21T05:31:34.000Z</time>
      </trkpt>
      <trkpt lat="27.824368" lon="86.706157">
        <ele>3868</ele>
        <time>2022-10-21T05:31:36.000Z</time>
      </trkpt>
      <trkpt lat="27.824368" lon="86.706182">
        <ele>3867.8</ele>
        <time>2022-10-21T05:31:38.000Z</time>
      </trkpt>
      <trkpt lat="27.824365" lon="86.706214">
        <ele>3867.8</ele>
        <time>2022-10-21T05:31:40.000Z</time>
      </trkpt>
      <trkpt lat="27.824368" lon="86.706246">
        <ele>3867.8</ele>
        <time>2022-10-21T05:31:42.000Z</time>
      </trkpt>
      <trkpt lat="27.824362" lon="86.706285">
        <ele>3867.4</ele>
        <time>2022-10-21T05:31:45.000Z</time>
      </trkpt>
      <trkpt lat="27.824358" lon="86.706323">
        <ele>3867</ele>
        <time>2022-10-21T05:31:48.000Z</time>
      </trkpt>
      <trkpt lat="27.824355" lon="86.706362">
        <ele>3866.4</ele>
        <time>2022-10-21T05:31:51.000Z</time>
      </trkpt>
      <trkpt lat="27.824352" lon="86.706387">
        <ele>3866.2</ele>
        <time>2022-10-21T05:31:53.000Z</time>
      </trkpt>
      <trkpt lat="27.824349" lon="86.706413">
        <ele>3866.2</ele>
        <time>2022-10-21T05:31:55.000Z</time>
      </trkpt>
      <trkpt lat="27.824346" lon="86.706445">
        <ele>3865.6</ele>
        <time>2022-10-21T05:31:57.000Z</time>
      </trkpt>
      <trkpt lat="27.824339" lon="86.706477">
        <ele>3865.4</ele>
        <time>2022-10-21T05:32:00.000Z</time>
      </trkpt>
      <trkpt lat="27.824333" lon="86.706496">
        <ele>3865.4</ele>
        <time>2022-10-21T05:32:02.000Z</time>
      </trkpt>
      <trkpt lat="27.824326" lon="86.706515">
        <ele>3865.2</ele>
        <time>2022-10-21T05:32:03.000Z</time>
      </trkpt>
      <trkpt lat="27.824317" lon="86.706534">
        <ele>3865.2</ele>
        <time>2022-10-21T05:32:05.000Z</time>
      </trkpt>
      <trkpt lat="27.824307" lon="86.70656">
        <ele>3864.6</ele>
        <time>2022-10-21T05:32:07.000Z</time>
      </trkpt>
      <trkpt lat="27.824294" lon="86.706579">
        <ele>3864.6</ele>
        <time>2022-10-21T05:32:09.000Z</time>
      </trkpt>
      <trkpt lat="27.824278" lon="86.706605">
        <ele>3864.6</ele>
        <time>2022-10-21T05:32:11.000Z</time>
      </trkpt>
      <trkpt lat="27.824259" lon="86.706624">
        <ele>3864</ele>
        <time>2022-10-21T05:32:14.000Z</time>
      </trkpt>
      <trkpt lat="27.82424" lon="86.706637">
        <ele>3863.8</ele>
        <time>2022-10-21T05:32:16.000Z</time>
      </trkpt>
      <trkpt lat="27.824218" lon="86.70665">
        <ele>3863.2</ele>
        <time>2022-10-21T05:32:18.000Z</time>
      </trkpt>
      <trkpt lat="27.824198" lon="86.706675">
        <ele>3863.2</ele>
        <time>2022-10-21T05:32:20.000Z</time>
      </trkpt>
      <trkpt lat="27.824173" lon="86.706682">
        <ele>3862.6</ele>
        <time>2022-10-21T05:32:22.000Z</time>
      </trkpt>
      <trkpt lat="27.82415" lon="86.706694">
        <ele>3862.6</ele>
        <time>2022-10-21T05:32:24.000Z</time>
      </trkpt>
      <trkpt lat="27.824128" lon="86.706701">
        <ele>3862.2</ele>
        <time>2022-10-21T05:32:26.000Z</time>
      </trkpt>
      <trkpt lat="27.824109" lon="86.70672">
        <ele>3861.8</ele>
        <time>2022-10-21T05:32:28.000Z</time>
      </trkpt>
      <trkpt lat="27.82409" lon="86.706733">
        <ele>3861.6</ele>
        <time>2022-10-21T05:32:31.000Z</time>
      </trkpt>
      <trkpt lat="27.82407" lon="86.706752">
        <ele>3860.8</ele>
        <time>2022-10-21T05:32:34.000Z</time>
      </trkpt>
      <trkpt lat="27.824051" lon="86.706771">
        <ele>3860.2</ele>
        <time>2022-10-21T05:32:37.000Z</time>
      </trkpt>
      <trkpt lat="27.824032" lon="86.706784">
        <ele>3859.6</ele>
        <time>2022-10-21T05:32:40.000Z</time>
      </trkpt>
      <trkpt lat="27.824026" lon="86.706803">
        <ele>3859.4</ele>
        <time>2022-10-21T05:32:41.000Z</time>
      </trkpt>
      <trkpt lat="27.82401" lon="86.706822">
        <ele>3859</ele>
        <time>2022-10-21T05:32:44.000Z</time>
      </trkpt>
      <trkpt lat="27.823997" lon="86.706842">
        <ele>3858.4</ele>
        <time>2022-10-21T05:32:47.000Z</time>
      </trkpt>
      <trkpt lat="27.823981" lon="86.706854">
        <ele>3858.2</ele>
        <time>2022-10-21T05:32:49.000Z</time>
      </trkpt>
      <trkpt lat="27.823971" lon="86.706874">
        <ele>3858.2</ele>
        <time>2022-10-21T05:32:51.000Z</time>
      </trkpt>
      <trkpt lat="27.823949" lon="86.706886">
        <ele>3857.4</ele>
        <time>2022-10-21T05:32:55.000Z</time>
      </trkpt>
      <trkpt lat="27.823933" lon="86.706899">
        <ele>3857.4</ele>
        <time>2022-10-21T05:32:57.000Z</time>
      </trkpt>
      <trkpt lat="27.82392" lon="86.706918">
        <ele>3857</ele>
        <time>2022-10-21T05:32:59.000Z</time>
      </trkpt>
      <trkpt lat="27.823898" lon="86.706938">
        <ele>3856.2</ele>
        <time>2022-10-21T05:33:02.000Z</time>
      </trkpt>
      <trkpt lat="27.823878" lon="86.706957">
        <ele>3855.4</ele>
        <time>2022-10-21T05:33:05.000Z</time>
      </trkpt>
      <trkpt lat="27.823856" lon="86.706963">
        <ele>3854.6</ele>
        <time>2022-10-21T05:33:08.000Z</time>
      </trkpt>
      <trkpt lat="27.82384" lon="86.706982">
        <ele>3854.4</ele>
        <time>2022-10-21T05:33:10.000Z</time>
      </trkpt>
      <trkpt lat="27.823827" lon="86.707002">
        <ele>3854</ele>
        <time>2022-10-21T05:33:12.000Z</time>
      </trkpt>
      <trkpt lat="27.823811" lon="86.707021">
        <ele>3853.8</ele>
        <time>2022-10-21T05:33:15.000Z</time>
      </trkpt>
      <trkpt lat="27.823789" lon="86.707046">
        <ele>3853.8</ele>
        <time>2022-10-21T05:33:18.000Z</time>
      </trkpt>
      <trkpt lat="27.823773" lon="86.707059">
        <ele>3853.6</ele>
        <time>2022-10-21T05:33:20.000Z</time>
      </trkpt>
      <trkpt lat="27.823757" lon="86.707078">
        <ele>3853.4</ele>
        <time>2022-10-21T05:33:22.000Z</time>
      </trkpt>
      <trkpt lat="27.823741" lon="86.707091">
        <ele>3853.4</ele>
        <time>2022-10-21T05:33:24.000Z</time>
      </trkpt>
      <trkpt lat="27.823728" lon="86.70711">
        <ele>3853.4</ele>
        <time>2022-10-21T05:33:26.000Z</time>
      </trkpt>
      <trkpt lat="27.823709" lon="86.707123">
        <ele>3853</ele>
        <time>2022-10-21T05:33:28.000Z</time>
      </trkpt>
      <trkpt lat="27.823693" lon="86.707136">
        <ele>3852.4</ele>
        <time>2022-10-21T05:33:30.000Z</time>
      </trkpt>
      <trkpt lat="27.823677" lon="86.707155">
        <ele>3852.4</ele>
        <time>2022-10-21T05:33:32.000Z</time>
      </trkpt>
      <trkpt lat="27.823661" lon="86.707168">
        <ele>3851.6</ele>
        <time>2022-10-21T05:33:34.000Z</time>
      </trkpt>
      <trkpt lat="27.823642" lon="86.707181">
        <ele>3851.4</ele>
        <time>2022-10-21T05:33:36.000Z</time>
      </trkpt>
      <trkpt lat="27.823626" lon="86.7072">
        <ele>3851.4</ele>
        <time>2022-10-21T05:33:38.000Z</time>
      </trkpt>
      <trkpt lat="27.82361" lon="86.707219">
        <ele>3851.2</ele>
        <time>2022-10-21T05:33:40.000Z</time>
      </trkpt>
      <trkpt lat="27.823594" lon="86.707238">
        <ele>3851.4</ele>
        <time>2022-10-21T05:33:42.000Z</time>
      </trkpt>
      <trkpt lat="27.823584" lon="86.707258">
        <ele>3851.2</ele>
        <time>2022-10-21T05:33:44.000Z</time>
      </trkpt>
      <trkpt lat="27.823578" lon="86.707277">
        <ele>3851.2</ele>
        <time>2022-10-21T05:33:45.000Z</time>
      </trkpt>
      <trkpt lat="27.823568" lon="86.707296">
        <ele>3851.2</ele>
        <time>2022-10-21T05:33:48.000Z</time>
      </trkpt>
      <trkpt lat="27.823574" lon="86.707315">
        <ele>3851.2</ele>
        <time>2022-10-21T05:33:50.000Z</time>
      </trkpt>
      <trkpt lat="27.82359" lon="86.707334">
        <ele>3851.4</ele>
        <time>2022-10-21T05:33:53.000Z</time>
      </trkpt>
      <trkpt lat="27.8236" lon="86.707354">
        <ele>3851.2</ele>
        <time>2022-10-21T05:33:55.000Z</time>
      </trkpt>
      <trkpt lat="27.823613" lon="86.707379">
        <ele>3851.2</ele>
        <time>2022-10-21T05:33:58.000Z</time>
      </trkpt>
      <trkpt lat="27.823606" lon="86.707398">
        <ele>3851.2</ele>
        <time>2022-10-21T05:34:00.000Z</time>
      </trkpt>
      <trkpt lat="27.823594" lon="86.707418">
        <ele>3851.2</ele>
        <time>2022-10-21T05:34:02.000Z</time>
      </trkpt>
      <trkpt lat="27.823581" lon="86.707443">
        <ele>3850.6</ele>
        <time>2022-10-21T05:34:04.000Z</time>
      </trkpt>
      <trkpt lat="27.823568" lon="86.707469">
        <ele>3850.6</ele>
        <time>2022-10-21T05:34:06.000Z</time>
      </trkpt>
      <trkpt lat="27.823558" lon="86.707488">
        <ele>3849.8</ele>
        <time>2022-10-21T05:34:08.000Z</time>
      </trkpt>
      <trkpt lat="27.823549" lon="86.707507">
        <ele>3849.8</ele>
        <time>2022-10-21T05:34:10.000Z</time>
      </trkpt>
      <trkpt lat="27.823539" lon="86.707526">
        <ele>3849.6</ele>
        <time>2022-10-21T05:34:13.000Z</time>
      </trkpt>
      <trkpt lat="27.823523" lon="86.707546">
        <ele>3849.4</ele>
        <time>2022-10-21T05:34:16.000Z</time>
      </trkpt>
      <trkpt lat="27.82351" lon="86.707565">
        <ele>3849.2</ele>
        <time>2022-10-21T05:34:19.000Z</time>
      </trkpt>
      <trkpt lat="27.82352" lon="86.70759">
        <ele>3849.4</ele>
        <time>2022-10-21T05:34:21.000Z</time>
      </trkpt>
      <trkpt lat="27.823539" lon="86.707603">
        <ele>3848.8</ele>
        <time>2022-10-21T05:34:23.000Z</time>
      </trkpt>
      <trkpt lat="27.823552" lon="86.707629">
        <ele>3848.8</ele>
        <time>2022-10-21T05:34:25.000Z</time>
      </trkpt>
      <trkpt lat="27.823562" lon="86.707648">
        <ele>3848.4</ele>
        <time>2022-10-21T05:34:27.000Z</time>
      </trkpt>
      <trkpt lat="27.823562" lon="86.707674">
        <ele>3848.2</ele>
        <time>2022-10-21T05:34:29.000Z</time>
      </trkpt>
      <trkpt lat="27.823555" lon="86.707706">
        <ele>3848.2</ele>
        <time>2022-10-21T05:34:31.000Z</time>
      </trkpt>
      <trkpt lat="27.823536" lon="86.707725">
        <ele>3848</ele>
        <time>2022-10-21T05:34:33.000Z</time>
      </trkpt>
      <trkpt lat="27.823523" lon="86.70775">
        <ele>3847.4</ele>
        <time>2022-10-21T05:34:35.000Z</time>
      </trkpt>
      <trkpt lat="27.82351" lon="86.70777">
        <ele>3847.4</ele>
        <time>2022-10-21T05:34:37.000Z</time>
      </trkpt>
      <trkpt lat="27.823504" lon="86.707795">
        <ele>3847.4</ele>
        <time>2022-10-21T05:34:39.000Z</time>
      </trkpt>
      <trkpt lat="27.823498" lon="86.707814">
        <ele>3847.2</ele>
        <time>2022-10-21T05:34:41.000Z</time>
      </trkpt>
      <trkpt lat="27.823494" lon="86.70784">
        <ele>3847</ele>
        <time>2022-10-21T05:34:43.000Z</time>
      </trkpt>
      <trkpt lat="27.823494" lon="86.707872">
        <ele>3847</ele>
        <time>2022-10-21T05:34:45.000Z</time>
      </trkpt>
      <trkpt lat="27.823494" lon="86.70791">
        <ele>3847</ele>
        <time>2022-10-21T05:34:48.000Z</time>
      </trkpt>
      <trkpt lat="27.823494" lon="86.707936">
        <ele>3847</ele>
        <time>2022-10-21T05:34:50.000Z</time>
      </trkpt>
      <trkpt lat="27.823491" lon="86.707962">
        <ele>3847.2</ele>
        <time>2022-10-21T05:34:52.000Z</time>
      </trkpt>
      <trkpt lat="27.823491" lon="86.707987">
        <ele>3847.2</ele>
        <time>2022-10-21T05:34:54.000Z</time>
      </trkpt>
      <trkpt lat="27.823485" lon="86.708006">
        <ele>3847</ele>
        <time>2022-10-21T05:34:56.000Z</time>
      </trkpt>
      <trkpt lat="27.823491" lon="86.708032">
        <ele>3847</ele>
        <time>2022-10-21T05:34:58.000Z</time>
      </trkpt>
      <trkpt lat="27.823494" lon="86.70809">
        <ele>3846.8</ele>
        <time>2022-10-21T05:35:03.000Z</time>
      </trkpt>
      <trkpt lat="27.823491" lon="86.708115">
        <ele>3846.6</ele>
        <time>2022-10-21T05:35:05.000Z</time>
      </trkpt>
      <trkpt lat="27.823491" lon="86.708147">
        <ele>3846</ele>
        <time>2022-10-21T05:35:09.000Z</time>
      </trkpt>
      <trkpt lat="27.823485" lon="86.708173">
        <ele>3846.2</ele>
        <time>2022-10-21T05:35:12.000Z</time>
      </trkpt>
      <trkpt lat="27.823482" lon="86.708198">
        <ele>3845.6</ele>
        <time>2022-10-21T05:35:15.000Z</time>
      </trkpt>
      <trkpt lat="27.823485" lon="86.708224">
        <ele>3845.4</ele>
        <time>2022-10-21T05:35:25.000Z</time>
      </trkpt>
      <trkpt lat="27.823482" lon="86.70825">
        <ele>3845.2</ele>
        <time>2022-10-21T05:36:22.000Z</time>
      </trkpt>
      <trkpt lat="27.823488" lon="86.708275">
        <ele>3845.2</ele>
        <time>2022-10-21T05:36:24.000Z</time>
      </trkpt>
      <trkpt lat="27.823491" lon="86.708307">
        <ele>3845.2</ele>
        <time>2022-10-21T05:36:26.000Z</time>
      </trkpt>
      <trkpt lat="27.823494" lon="86.708333">
        <ele>3845.2</ele>
        <time>2022-10-21T05:36:28.000Z</time>
      </trkpt>
      <trkpt lat="27.823504" lon="86.708358">
        <ele>3845.2</ele>
        <time>2022-10-21T05:36:30.000Z</time>
      </trkpt>
      <trkpt lat="27.82351" lon="86.708384">
        <ele>3845.2</ele>
        <time>2022-10-21T05:36:32.000Z</time>
      </trkpt>
      <trkpt lat="27.823504" lon="86.70841">
        <ele>3844.6</ele>
        <time>2022-10-21T05:36:35.000Z</time>
      </trkpt>
      <trkpt lat="27.82351" lon="86.708435">
        <ele>3844.4</ele>
        <time>2022-10-21T05:36:37.000Z</time>
      </trkpt>
      <trkpt lat="27.82352" lon="86.708467">
        <ele>3844</ele>
        <time>2022-10-21T05:36:40.000Z</time>
      </trkpt>
      <trkpt lat="27.82353" lon="86.708499">
        <ele>3843.4</ele>
        <time>2022-10-21T05:36:43.000Z</time>
      </trkpt>
      <trkpt lat="27.823533" lon="86.708525">
        <ele>3843.4</ele>
        <time>2022-10-21T05:36:45.000Z</time>
      </trkpt>
      <trkpt lat="27.823539" lon="86.708544">
        <ele>3843.6</ele>
        <time>2022-10-21T05:36:47.000Z</time>
      </trkpt>
      <trkpt lat="27.823546" lon="86.70857">
        <ele>3843.6</ele>
        <time>2022-10-21T05:36:49.000Z</time>
      </trkpt>
      <trkpt lat="27.823549" lon="86.708595">
        <ele>3843.6</ele>
        <time>2022-10-21T05:36:51.000Z</time>
      </trkpt>
      <trkpt lat="27.823552" lon="86.708621">
        <ele>3843.4</ele>
        <time>2022-10-21T05:36:53.000Z</time>
      </trkpt>
      <trkpt lat="27.823558" lon="86.70864">
        <ele>3843.4</ele>
        <time>2022-10-21T05:36:55.000Z</time>
      </trkpt>
      <trkpt lat="27.823562" lon="86.708666">
        <ele>3843.4</ele>
        <time>2022-10-21T05:36:57.000Z</time>
      </trkpt>
      <trkpt lat="27.823568" lon="86.708685">
        <ele>3843.6</ele>
        <time>2022-10-21T05:36:59.000Z</time>
      </trkpt>
      <trkpt lat="27.823568" lon="86.70871">
        <ele>3843.6</ele>
        <time>2022-10-21T05:37:02.000Z</time>
      </trkpt>
      <trkpt lat="27.823571" lon="86.708742">
        <ele>3843.6</ele>
        <time>2022-10-21T05:37:04.000Z</time>
      </trkpt>
      <trkpt lat="27.823578" lon="86.708762">
        <ele>3843</ele>
        <time>2022-10-21T05:37:11.000Z</time>
      </trkpt>
      <trkpt lat="27.823587" lon="86.708781">
        <ele>3843.2</ele>
        <time>2022-10-21T05:37:13.000Z</time>
      </trkpt>
      <trkpt lat="27.823594" lon="86.708819">
        <ele>3843</ele>
        <time>2022-10-21T05:37:16.000Z</time>
      </trkpt>
      <trkpt lat="27.823603" lon="86.708838">
        <ele>3842.8</ele>
        <time>2022-10-21T05:37:18.000Z</time>
      </trkpt>
      <trkpt lat="27.823613" lon="86.70887">
        <ele>3842</ele>
        <time>2022-10-21T05:37:20.000Z</time>
      </trkpt>
      <trkpt lat="27.823619" lon="86.708896">
        <ele>3841.6</ele>
        <time>2022-10-21T05:37:22.000Z</time>
      </trkpt>
      <trkpt lat="27.823629" lon="86.708922">
        <ele>3841.6</ele>
        <time>2022-10-21T05:37:24.000Z</time>
      </trkpt>
      <trkpt lat="27.823632" lon="86.708954">
        <ele>3841.4</ele>
        <time>2022-10-21T05:37:26.000Z</time>
      </trkpt>
      <trkpt lat="27.823635" lon="86.708979">
        <ele>3841</ele>
        <time>2022-10-21T05:37:28.000Z</time>
      </trkpt>
      <trkpt lat="27.823638" lon="86.709005">
        <ele>3841</ele>
        <time>2022-10-21T05:37:30.000Z</time>
      </trkpt>
      <trkpt lat="27.823638" lon="86.70903">
        <ele>3840.8</ele>
        <time>2022-10-21T05:37:32.000Z</time>
      </trkpt>
      <trkpt lat="27.823645" lon="86.709056">
        <ele>3840.8</ele>
        <time>2022-10-21T05:37:34.000Z</time>
      </trkpt>
      <trkpt lat="27.823648" lon="86.709082">
        <ele>3840.8</ele>
        <time>2022-10-21T05:37:36.000Z</time>
      </trkpt>
      <trkpt lat="27.823651" lon="86.709107">
        <ele>3840.4</ele>
        <time>2022-10-21T05:37:38.000Z</time>
      </trkpt>
      <trkpt lat="27.823661" lon="86.709126">
        <ele>3840.4</ele>
        <time>2022-10-21T05:37:40.000Z</time>
      </trkpt>
      <trkpt lat="27.823667" lon="86.709146">
        <ele>3840.4</ele>
        <time>2022-10-21T05:37:41.000Z</time>
      </trkpt>
      <trkpt lat="27.823677" lon="86.709178">
        <ele>3840.2</ele>
        <time>2022-10-21T05:37:44.000Z</time>
      </trkpt>
      <trkpt lat="27.823683" lon="86.709197">
        <ele>3840.4</ele>
        <time>2022-10-21T05:37:46.000Z</time>
      </trkpt>
      <trkpt lat="27.82369" lon="86.709216">
        <ele>3840.4</ele>
        <time>2022-10-21T05:37:47.000Z</time>
      </trkpt>
      <trkpt lat="27.823702" lon="86.709235">
        <ele>3840.4</ele>
        <time>2022-10-21T05:37:49.000Z</time>
      </trkpt>
      <trkpt lat="27.823709" lon="86.709254">
        <ele>3840.4</ele>
        <time>2022-10-21T05:37:50.000Z</time>
      </trkpt>
      <trkpt lat="27.823718" lon="86.709274">
        <ele>3839.8</ele>
        <time>2022-10-21T05:37:52.000Z</time>
      </trkpt>
      <trkpt lat="27.823731" lon="86.709306">
        <ele>3839.6</ele>
        <time>2022-10-21T05:37:54.000Z</time>
      </trkpt>
      <trkpt lat="27.823738" lon="86.709325">
        <ele>3839.8</ele>
        <time>2022-10-21T05:37:56.000Z</time>
      </trkpt>
      <trkpt lat="27.823747" lon="86.70935">
        <ele>3839.6</ele>
        <time>2022-10-21T05:37:58.000Z</time>
      </trkpt>
      <trkpt lat="27.82375" lon="86.709376">
        <ele>3839.4</ele>
        <time>2022-10-21T05:38:00.000Z</time>
      </trkpt>
      <trkpt lat="27.82375" lon="86.709402">
        <ele>3839</ele>
        <time>2022-10-21T05:38:03.000Z</time>
      </trkpt>
      <trkpt lat="27.823766" lon="86.70944">
        <ele>3838.6</ele>
        <time>2022-10-21T05:38:59.000Z</time>
      </trkpt>
      <trkpt lat="27.823773" lon="86.709459">
        <ele>3838.6</ele>
        <time>2022-10-21T05:39:00.000Z</time>
      </trkpt>
      <trkpt lat="27.823789" lon="86.709478">
        <ele>3838.2</ele>
        <time>2022-10-21T05:39:02.000Z</time>
      </trkpt>
      <trkpt lat="27.823798" lon="86.709498">
        <ele>3838.4</ele>
        <time>2022-10-21T05:39:03.000Z</time>
      </trkpt>
      <trkpt lat="27.823808" lon="86.709517">
        <ele>3838.4</ele>
        <time>2022-10-21T05:39:04.000Z</time>
      </trkpt>
      <trkpt lat="27.823818" lon="86.709536">
        <ele>3838.2</ele>
        <time>2022-10-21T05:39:05.000Z</time>
      </trkpt>
      <trkpt lat="27.82383" lon="86.709562">
        <ele>3838</ele>
        <time>2022-10-21T05:39:07.000Z</time>
      </trkpt>
      <trkpt lat="27.823843" lon="86.709581">
        <ele>3838</ele>
        <time>2022-10-21T05:39:08.000Z</time>
      </trkpt>
      <trkpt lat="27.823859" lon="86.709594">
        <ele>3837.8</ele>
        <time>2022-10-21T05:39:10.000Z</time>
      </trkpt>
      <trkpt lat="27.823866" lon="86.709613">
        <ele>3838</ele>
        <time>2022-10-21T05:39:11.000Z</time>
      </trkpt>
      <trkpt lat="27.823885" lon="86.709638">
        <ele>3838.2</ele>
        <time>2022-10-21T05:39:14.000Z</time>
      </trkpt>
      <trkpt lat="27.823891" lon="86.709664">
        <ele>3838</ele>
        <time>2022-10-21T05:39:16.000Z</time>
      </trkpt>
      <trkpt lat="27.823898" lon="86.709696">
        <ele>3837.4</ele>
        <time>2022-10-21T05:39:18.000Z</time>
      </trkpt>
      <trkpt lat="27.823904" lon="86.709715">
        <ele>3837.4</ele>
        <time>2022-10-21T05:39:20.000Z</time>
      </trkpt>
      <trkpt lat="27.82391" lon="86.709747">
        <ele>3837</ele>
        <time>2022-10-21T05:39:22.000Z</time>
      </trkpt>
      <trkpt lat="27.823917" lon="86.709773">
        <ele>3836.8</ele>
        <time>2022-10-21T05:39:24.000Z</time>
      </trkpt>
      <trkpt lat="27.823926" lon="86.709792">
        <ele>3836.8</ele>
        <time>2022-10-21T05:39:26.000Z</time>
      </trkpt>
      <trkpt lat="27.823936" lon="86.709811">
        <ele>3836.8</ele>
        <time>2022-10-21T05:39:27.000Z</time>
      </trkpt>
      <trkpt lat="27.823949" lon="86.70983">
        <ele>3836.4</ele>
        <time>2022-10-21T05:39:29.000Z</time>
      </trkpt>
      <trkpt lat="27.823955" lon="86.70985">
        <ele>3836.4</ele>
        <time>2022-10-21T05:39:30.000Z</time>
      </trkpt>
      <trkpt lat="27.823971" lon="86.709869">
        <ele>3836.4</ele>
        <time>2022-10-21T05:39:32.000Z</time>
      </trkpt>
      <trkpt lat="27.823987" lon="86.709894">
        <ele>3836.4</ele>
        <time>2022-10-21T05:39:34.000Z</time>
      </trkpt>
      <trkpt lat="27.824006" lon="86.709914">
        <ele>3836.4</ele>
        <time>2022-10-21T05:39:36.000Z</time>
      </trkpt>
      <trkpt lat="27.824022" lon="86.709933">
        <ele>3836.2</ele>
        <time>2022-10-21T05:39:38.000Z</time>
      </trkpt>
      <trkpt lat="27.824042" lon="86.709946">
        <ele>3836.2</ele>
        <time>2022-10-21T05:39:40.000Z</time>
      </trkpt>
      <trkpt lat="27.824061" lon="86.709971">
        <ele>3836.2</ele>
        <time>2022-10-21T05:39:42.000Z</time>
      </trkpt>
      <trkpt lat="27.824077" lon="86.709984">
        <ele>3836.2</ele>
        <time>2022-10-21T05:39:44.000Z</time>
      </trkpt>
      <trkpt lat="27.82409" lon="86.71001">
        <ele>3836.2</ele>
        <time>2022-10-21T05:39:46.000Z</time>
      </trkpt>
      <trkpt lat="27.824109" lon="86.710022">
        <ele>3836.2</ele>
        <time>2022-10-21T05:39:48.000Z</time>
      </trkpt>
      <trkpt lat="27.824128" lon="86.710048">
        <ele>3836.4</ele>
        <time>2022-10-21T05:39:50.000Z</time>
      </trkpt>
      <trkpt lat="27.824138" lon="86.710067">
        <ele>3836.4</ele>
        <time>2022-10-21T05:39:52.000Z</time>
      </trkpt>
      <trkpt lat="27.82415" lon="86.710099">
        <ele>3836.8</ele>
        <time>2022-10-21T05:39:55.000Z</time>
      </trkpt>
      <trkpt lat="27.824157" lon="86.710131">
        <ele>3836.8</ele>
        <time>2022-10-21T05:39:57.000Z</time>
      </trkpt>
      <trkpt lat="27.824163" lon="86.710157">
        <ele>3836.6</ele>
        <time>2022-10-21T05:39:59.000Z</time>
      </trkpt>
      <trkpt lat="27.824166" lon="86.710182">
        <ele>3836.4</ele>
        <time>2022-10-21T05:40:01.000Z</time>
      </trkpt>
      <trkpt lat="27.824166" lon="86.710208">
        <ele>3836.6</ele>
        <time>2022-10-21T05:40:03.000Z</time>
      </trkpt>
      <trkpt lat="27.82417" lon="86.710246">
        <ele>3836.2</ele>
        <time>2022-10-21T05:40:06.000Z</time>
      </trkpt>
      <trkpt lat="27.824176" lon="86.710266">
        <ele>3836.2</ele>
        <time>2022-10-21T05:40:08.000Z</time>
      </trkpt>
      <trkpt lat="27.824189" lon="86.710291">
        <ele>3836</ele>
        <time>2022-10-21T05:40:11.000Z</time>
      </trkpt>
      <trkpt lat="27.824195" lon="86.71031">
        <ele>3836</ele>
        <time>2022-10-21T05:40:15.000Z</time>
      </trkpt>
      <trkpt lat="27.824205" lon="86.71033">
        <ele>3836.2</ele>
        <time>2022-10-21T05:40:17.000Z</time>
      </trkpt>
      <trkpt lat="27.824208" lon="86.710355">
        <ele>3835.4</ele>
        <time>2022-10-21T05:40:20.000Z</time>
      </trkpt>
      <trkpt lat="27.824214" lon="86.710381">
        <ele>3835.4</ele>
        <time>2022-10-21T05:40:23.000Z</time>
      </trkpt>
      <trkpt lat="27.824214" lon="86.710406">
        <ele>3835.4</ele>
        <time>2022-10-21T05:40:25.000Z</time>
      </trkpt>
      <trkpt lat="27.824218" lon="86.710432">
        <ele>3835</ele>
        <time>2022-10-21T05:40:30.000Z</time>
      </trkpt>
      <trkpt lat="27.824227" lon="86.71047">
        <ele>3835.4</ele>
        <time>2022-10-21T05:40:49.000Z</time>
      </trkpt>
      <trkpt lat="27.824237" lon="86.710502">
        <ele>3835.2</ele>
        <time>2022-10-21T05:40:51.000Z</time>
      </trkpt>
      <trkpt lat="27.824246" lon="86.710534">
        <ele>3835</ele>
        <time>2022-10-21T05:40:53.000Z</time>
      </trkpt>
      <trkpt lat="27.824262" lon="86.710554">
        <ele>3834.2</ele>
        <time>2022-10-21T05:41:05.000Z</time>
      </trkpt>
      <trkpt lat="27.824259" lon="86.710586">
        <ele>3834.2</ele>
        <time>2022-10-21T05:41:09.000Z</time>
      </trkpt>
      <trkpt lat="27.824266" lon="86.710611">
        <ele>3834.4</ele>
        <time>2022-10-21T05:41:12.000Z</time>
      </trkpt>
      <trkpt lat="27.824269" lon="86.710637">
        <ele>3833.8</ele>
        <time>2022-10-21T05:41:14.000Z</time>
      </trkpt>
      <trkpt lat="27.824275" lon="86.710656">
        <ele>3833.6</ele>
        <time>2022-10-21T05:41:16.000Z</time>
      </trkpt>
      <trkpt lat="27.824285" lon="86.710694">
        <ele>3833.2</ele>
        <time>2022-10-21T05:41:19.000Z</time>
      </trkpt>
      <trkpt lat="27.824288" lon="86.710726">
        <ele>3833.2</ele>
        <time>2022-10-21T05:41:22.000Z</time>
      </trkpt>
      <trkpt lat="27.824294" lon="86.710746">
        <ele>3833.4</ele>
        <time>2022-10-21T05:41:27.000Z</time>
      </trkpt>
      <trkpt lat="27.824298" lon="86.710771">
        <ele>3833.4</ele>
        <time>2022-10-21T05:41:30.000Z</time>
      </trkpt>
      <trkpt lat="27.824307" lon="86.710803">
        <ele>3833</ele>
        <time>2022-10-21T05:41:33.000Z</time>
      </trkpt>
      <trkpt lat="27.824314" lon="86.710822">
        <ele>3833</ele>
        <time>2022-10-21T05:41:35.000Z</time>
      </trkpt>
      <trkpt lat="27.824317" lon="86.710854">
        <ele>3833.2</ele>
        <time>2022-10-21T05:41:38.000Z</time>
      </trkpt>
      <trkpt lat="27.824323" lon="86.710886">
        <ele>3832.8</ele>
        <time>2022-10-21T05:41:41.000Z</time>
      </trkpt>
      <trkpt lat="27.824317" lon="86.710906">
        <ele>3832.8</ele>
        <time>2022-10-21T05:41:43.000Z</time>
      </trkpt>
      <trkpt lat="27.824314" lon="86.710931">
        <ele>3832.8</ele>
        <time>2022-10-21T05:41:45.000Z</time>
      </trkpt>
      <trkpt lat="27.824304" lon="86.71095">
        <ele>3832.4</ele>
        <time>2022-10-21T05:41:48.000Z</time>
      </trkpt>
      <trkpt lat="27.824298" lon="86.710976">
        <ele>3832.6</ele>
        <time>2022-10-21T05:41:50.000Z</time>
      </trkpt>
      <trkpt lat="27.824291" lon="86.711002">
        <ele>3832.6</ele>
        <time>2022-10-21T05:41:52.000Z</time>
      </trkpt>
      <trkpt lat="27.824285" lon="86.711021">
        <ele>3832.2</ele>
        <time>2022-10-21T05:41:54.000Z</time>
      </trkpt>
      <trkpt lat="27.824275" lon="86.711053">
        <ele>3832.2</ele>
        <time>2022-10-21T05:41:57.000Z</time>
      </trkpt>
      <trkpt lat="27.824275" lon="86.711091">
        <ele>3832</ele>
        <time>2022-10-21T05:42:00.000Z</time>
      </trkpt>
      <trkpt lat="27.824275" lon="86.71113">
        <ele>3832</ele>
        <time>2022-10-21T05:42:03.000Z</time>
      </trkpt>
      <trkpt lat="27.824275" lon="86.711162">
        <ele>3831.4</ele>
        <time>2022-10-21T05:42:05.000Z</time>
      </trkpt>
      <trkpt lat="27.824282" lon="86.7112">
        <ele>3831.6</ele>
        <time>2022-10-21T05:42:08.000Z</time>
      </trkpt>
      <trkpt lat="27.824288" lon="86.711226">
        <ele>3831.6</ele>
        <time>2022-10-21T05:42:10.000Z</time>
      </trkpt>
      <trkpt lat="27.824291" lon="86.711251">
        <ele>3831.6</ele>
        <time>2022-10-21T05:42:12.000Z</time>
      </trkpt>
      <trkpt lat="27.824294" lon="86.711283">
        <ele>3831.4</ele>
        <time>2022-10-21T05:42:14.000Z</time>
      </trkpt>
      <trkpt lat="27.824294" lon="86.711309">
        <ele>3831.6</ele>
        <time>2022-10-21T05:42:16.000Z</time>
      </trkpt>
      <trkpt lat="27.824298" lon="86.711341">
        <ele>3831.4</ele>
        <time>2022-10-21T05:42:18.000Z</time>
      </trkpt>
      <trkpt lat="27.824294" lon="86.711366">
        <ele>3831</ele>
        <time>2022-10-21T05:42:20.000Z</time>
      </trkpt>
      <trkpt lat="27.824291" lon="86.711405">
        <ele>3831</ele>
        <time>2022-10-21T05:42:23.000Z</time>
      </trkpt>
      <trkpt lat="27.824288" lon="86.71143">
        <ele>3831</ele>
        <time>2022-10-21T05:42:25.000Z</time>
      </trkpt>
      <trkpt lat="27.824288" lon="86.711456">
        <ele>3831</ele>
        <time>2022-10-21T05:42:27.000Z</time>
      </trkpt>
      <trkpt lat="27.824288" lon="86.711482">
        <ele>3831.2</ele>
        <time>2022-10-21T05:42:29.000Z</time>
      </trkpt>
      <trkpt lat="27.824288" lon="86.711507">
        <ele>3831.2</ele>
        <time>2022-10-21T05:42:31.000Z</time>
      </trkpt>
      <trkpt lat="27.824288" lon="86.711533">
        <ele>3831.2</ele>
        <time>2022-10-21T05:42:33.000Z</time>
      </trkpt>
      <trkpt lat="27.824288" lon="86.711558">
        <ele>3831.2</ele>
        <time>2022-10-21T05:42:35.000Z</time>
      </trkpt>
      <trkpt lat="27.824294" lon="86.711578">
        <ele>3831</ele>
        <time>2022-10-21T05:42:37.000Z</time>
      </trkpt>
      <trkpt lat="27.824298" lon="86.71161">
        <ele>3830.6</ele>
        <time>2022-10-21T05:42:39.000Z</time>
      </trkpt>
      <trkpt lat="27.824307" lon="86.711629">
        <ele>3830.4</ele>
        <time>2022-10-21T05:42:41.000Z</time>
      </trkpt>
      <trkpt lat="27.824314" lon="86.711648">
        <ele>3830.4</ele>
        <time>2022-10-21T05:42:42.000Z</time>
      </trkpt>
      <trkpt lat="27.824314" lon="86.71168">
        <ele>3830.4</ele>
        <time>2022-10-21T05:42:44.000Z</time>
      </trkpt>
      <trkpt lat="27.82432" lon="86.711718">
        <ele>3830.4</ele>
        <time>2022-10-21T05:42:47.000Z</time>
      </trkpt>
      <trkpt lat="27.824323" lon="86.711744">
        <ele>3830.4</ele>
        <time>2022-10-21T05:42:49.000Z</time>
      </trkpt>
      <trkpt lat="27.82432" lon="86.71177">
        <ele>3830.4</ele>
        <time>2022-10-21T05:42:51.000Z</time>
      </trkpt>
      <trkpt lat="27.82432" lon="86.711808">
        <ele>3830</ele>
        <time>2022-10-21T05:42:54.000Z</time>
      </trkpt>
      <trkpt lat="27.824317" lon="86.711846">
        <ele>3829.6</ele>
        <time>2022-10-21T05:42:57.000Z</time>
      </trkpt>
      <trkpt lat="27.824307" lon="86.711866">
        <ele>3829.6</ele>
        <time>2022-10-21T05:42:59.000Z</time>
      </trkpt>
      <trkpt lat="27.824304" lon="86.711891">
        <ele>3829.2</ele>
        <time>2022-10-21T05:43:01.000Z</time>
      </trkpt>
      <trkpt lat="27.824301" lon="86.711923">
        <ele>3829.2</ele>
        <time>2022-10-21T05:43:03.000Z</time>
      </trkpt>
      <trkpt lat="27.824294" lon="86.711942">
        <ele>3829.2</ele>
        <time>2022-10-21T05:43:06.000Z</time>
      </trkpt>
      <trkpt lat="27.824291" lon="86.711968">
        <ele>3829.2</ele>
        <time>2022-10-21T05:43:08.000Z</time>
      </trkpt>
      <trkpt lat="27.824291" lon="86.712006">
        <ele>3829.2</ele>
        <time>2022-10-21T05:43:11.000Z</time>
      </trkpt>
      <trkpt lat="27.824285" lon="86.712045">
        <ele>3829.4</ele>
        <time>2022-10-21T05:43:14.000Z</time>
      </trkpt>
      <trkpt lat="27.824278" lon="86.712064">
        <ele>3830.2</ele>
        <time>2022-10-21T05:43:16.000Z</time>
      </trkpt>
      <trkpt lat="27.824275" lon="86.71209">
        <ele>3830.2</ele>
        <time>2022-10-21T05:43:18.000Z</time>
      </trkpt>
      <trkpt lat="27.824278" lon="86.712122">
        <ele>3829.6</ele>
        <time>2022-10-21T05:43:20.000Z</time>
      </trkpt>
      <trkpt lat="27.824275" lon="86.71216">
        <ele>3829.8</ele>
        <time>2022-10-21T05:43:23.000Z</time>
      </trkpt>
      <trkpt lat="27.824272" lon="86.712198">
        <ele>3829.2</ele>
        <time>2022-10-21T05:43:26.000Z</time>
      </trkpt>
      <trkpt lat="27.824272" lon="86.712237">
        <ele>3829.4</ele>
        <time>2022-10-21T05:43:29.000Z</time>
      </trkpt>
      <trkpt lat="27.824269" lon="86.712275">
        <ele>3829.2</ele>
        <time>2022-10-21T05:43:32.000Z</time>
      </trkpt>
      <trkpt lat="27.824266" lon="86.712301">
        <ele>3829.8</ele>
        <time>2022-10-21T05:43:35.000Z</time>
      </trkpt>
      <trkpt lat="27.824269" lon="86.712333">
        <ele>3829.2</ele>
        <time>2022-10-21T05:43:37.000Z</time>
      </trkpt>
      <trkpt lat="27.824275" lon="86.712358">
        <ele>3828.6</ele>
        <time>2022-10-21T05:43:39.000Z</time>
      </trkpt>
      <trkpt lat="27.824285" lon="86.712378">
        <ele>3828.2</ele>
        <time>2022-10-21T05:43:41.000Z</time>
      </trkpt>
      <trkpt lat="27.824291" lon="86.712403">
        <ele>3828</ele>
        <time>2022-10-21T05:43:43.000Z</time>
      </trkpt>
      <trkpt lat="27.824298" lon="86.712435">
        <ele>3828</ele>
        <time>2022-10-21T05:43:45.000Z</time>
      </trkpt>
      <trkpt lat="27.824304" lon="86.712474">
        <ele>3827.4</ele>
        <time>2022-10-21T05:43:48.000Z</time>
      </trkpt>
      <trkpt lat="27.824304" lon="86.712499">
        <ele>3827</ele>
        <time>2022-10-21T05:43:50.000Z</time>
      </trkpt>
      <trkpt lat="27.824307" lon="86.712525">
        <ele>3827</ele>
        <time>2022-10-21T05:43:52.000Z</time>
      </trkpt>
      <trkpt lat="27.82431" lon="86.71255">
        <ele>3827</ele>
        <time>2022-10-21T05:43:54.000Z</time>
      </trkpt>
      <trkpt lat="27.824304" lon="86.712576">
        <ele>3827.2</ele>
        <time>2022-10-21T05:43:57.000Z</time>
      </trkpt>
      <trkpt lat="27.824301" lon="86.712602">
        <ele>3827</ele>
        <time>2022-10-21T05:44:00.000Z</time>
      </trkpt>
      <trkpt lat="27.824294" lon="86.712621">
        <ele>3826</ele>
        <time>2022-10-21T05:44:05.000Z</time>
      </trkpt>
      <trkpt lat="27.824288" lon="86.71264">
        <ele>3825.8</ele>
        <time>2022-10-21T05:44:07.000Z</time>
      </trkpt>
      <trkpt lat="27.824285" lon="86.712672">
        <ele>3825.2</ele>
        <time>2022-10-21T05:44:11.000Z</time>
      </trkpt>
      <trkpt lat="27.824285" lon="86.71271">
        <ele>3824.8</ele>
        <time>2022-10-21T05:44:15.000Z</time>
      </trkpt>
      <trkpt lat="27.824282" lon="86.712736">
        <ele>3824</ele>
        <time>2022-10-21T05:44:18.000Z</time>
      </trkpt>
      <trkpt lat="27.824288" lon="86.712762">
        <ele>3824</ele>
        <time>2022-10-21T05:44:20.000Z</time>
      </trkpt>
      <trkpt lat="27.824288" lon="86.712794">
        <ele>3823.6</ele>
        <time>2022-10-21T05:44:23.000Z</time>
      </trkpt>
      <trkpt lat="27.824285" lon="86.712819">
        <ele>3823.6</ele>
        <time>2022-10-21T05:44:25.000Z</time>
      </trkpt>
      <trkpt lat="27.824278" lon="86.712845">
        <ele>3823</ele>
        <time>2022-10-21T05:44:27.000Z</time>
      </trkpt>
      <trkpt lat="27.824278" lon="86.712877">
        <ele>3822.8</ele>
        <time>2022-10-21T05:44:30.000Z</time>
      </trkpt>
      <trkpt lat="27.824275" lon="86.712915">
        <ele>3822.2</ele>
        <time>2022-10-21T05:44:33.000Z</time>
      </trkpt>
      <trkpt lat="27.824269" lon="86.712947">
        <ele>3822</ele>
        <time>2022-10-21T05:44:36.000Z</time>
      </trkpt>
      <trkpt lat="27.824262" lon="86.712979">
        <ele>3821.8</ele>
        <time>2022-10-21T05:44:39.000Z</time>
      </trkpt>
      <trkpt lat="27.824256" lon="86.713005">
        <ele>3821.4</ele>
        <time>2022-10-21T05:44:41.000Z</time>
      </trkpt>
      <trkpt lat="27.82425" lon="86.71303">
        <ele>3821.2</ele>
        <time>2022-10-21T05:44:43.000Z</time>
      </trkpt>
      <trkpt lat="27.824243" lon="86.71305">
        <ele>3821</ele>
        <time>2022-10-21T05:44:45.000Z</time>
      </trkpt>
      <trkpt lat="27.824234" lon="86.713069">
        <ele>3820.4</ele>
        <time>2022-10-21T05:44:47.000Z</time>
      </trkpt>
      <trkpt lat="27.824224" lon="86.713088">
        <ele>3820.4</ele>
        <time>2022-10-21T05:44:49.000Z</time>
      </trkpt>
      <trkpt lat="27.824227" lon="86.713114">
        <ele>3820.4</ele>
        <time>2022-10-21T05:44:51.000Z</time>
      </trkpt>
      <trkpt lat="27.824237" lon="86.713139">
        <ele>3820.2</ele>
        <time>2022-10-21T05:44:54.000Z</time>
      </trkpt>
      <trkpt lat="27.824243" lon="86.713165">
        <ele>3819.4</ele>
        <time>2022-10-21T05:44:56.000Z</time>
      </trkpt>
      <trkpt lat="27.82425" lon="86.713197">
        <ele>3819.2</ele>
        <time>2022-10-21T05:44:59.000Z</time>
      </trkpt>
      <trkpt lat="27.824259" lon="86.713242">
        <ele>3819</ele>
        <time>2022-10-21T05:45:03.000Z</time>
      </trkpt>
      <trkpt lat="27.824259" lon="86.713267">
        <ele>3818.8</ele>
        <time>2022-10-21T05:45:05.000Z</time>
      </trkpt>
      <trkpt lat="27.824253" lon="86.713286">
        <ele>3818.4</ele>
        <time>2022-10-21T05:45:07.000Z</time>
      </trkpt>
      <trkpt lat="27.824243" lon="86.713312">
        <ele>3818.4</ele>
        <time>2022-10-21T05:45:09.000Z</time>
      </trkpt>
      <trkpt lat="27.824237" lon="86.713331">
        <ele>3818.2</ele>
        <time>2022-10-21T05:45:11.000Z</time>
      </trkpt>
      <trkpt lat="27.824237" lon="86.713357">
        <ele>3817.8</ele>
        <time>2022-10-21T05:45:13.000Z</time>
      </trkpt>
      <trkpt lat="27.824234" lon="86.713395">
        <ele>3817.4</ele>
        <time>2022-10-21T05:45:16.000Z</time>
      </trkpt>
      <trkpt lat="27.824227" lon="86.713414">
        <ele>3817.2</ele>
        <time>2022-10-21T05:45:18.000Z</time>
      </trkpt>
      <trkpt lat="27.824221" lon="86.713434">
        <ele>3817</ele>
        <time>2022-10-21T05:45:20.000Z</time>
      </trkpt>
      <trkpt lat="27.824224" lon="86.713466">
        <ele>3816.6</ele>
        <time>2022-10-21T05:45:23.000Z</time>
      </trkpt>
      <trkpt lat="27.824224" lon="86.713491">
        <ele>3816.6</ele>
        <time>2022-10-21T05:45:26.000Z</time>
      </trkpt>
      <trkpt lat="27.824218" lon="86.71351">
        <ele>3816.2</ele>
        <time>2022-10-21T05:45:28.000Z</time>
      </trkpt>
      <trkpt lat="27.824211" lon="86.71353">
        <ele>3815.8</ele>
        <time>2022-10-21T05:45:45.000Z</time>
      </trkpt>
      <trkpt lat="27.824211" lon="86.713562">
        <ele>3815.6</ele>
        <time>2022-10-21T05:45:47.000Z</time>
      </trkpt>
      <trkpt lat="27.824208" lon="86.713587">
        <ele>3815.6</ele>
        <time>2022-10-21T05:45:48.000Z</time>
      </trkpt>
      <trkpt lat="27.824205" lon="86.713613">
        <ele>3815</ele>
        <time>2022-10-21T05:45:50.000Z</time>
      </trkpt>
      <trkpt lat="27.824205" lon="86.71367">
        <ele>3815</ele>
        <time>2022-10-21T05:45:53.000Z</time>
      </trkpt>
      <trkpt lat="27.824198" lon="86.713702">
        <ele>3814.4</ele>
        <time>2022-10-21T05:45:55.000Z</time>
      </trkpt>
      <trkpt lat="27.824195" lon="86.713734">
        <ele>3813.6</ele>
        <time>2022-10-21T05:45:58.000Z</time>
      </trkpt>
      <trkpt lat="27.824198" lon="86.71376">
        <ele>3813</ele>
        <time>2022-10-21T05:46:00.000Z</time>
      </trkpt>
      <trkpt lat="27.824195" lon="86.713786">
        <ele>3812.8</ele>
        <time>2022-10-21T05:46:03.000Z</time>
      </trkpt>
      <trkpt lat="27.824202" lon="86.713805">
        <ele>3812.6</ele>
        <time>2022-10-21T05:46:05.000Z</time>
      </trkpt>
      <trkpt lat="27.824205" lon="86.71383">
        <ele>3812.2</ele>
        <time>2022-10-21T05:46:07.000Z</time>
      </trkpt>
      <trkpt lat="27.824214" lon="86.71385">
        <ele>3811.6</ele>
        <time>2022-10-21T05:46:09.000Z</time>
      </trkpt>
      <trkpt lat="27.824224" lon="86.713875">
        <ele>3811.4</ele>
        <time>2022-10-21T05:46:11.000Z</time>
      </trkpt>
      <trkpt lat="27.824224" lon="86.713907">
        <ele>3810.6</ele>
        <time>2022-10-21T05:46:14.000Z</time>
      </trkpt>
      <trkpt lat="27.824227" lon="86.713933">
        <ele>3810.2</ele>
        <time>2022-10-21T05:46:17.000Z</time>
      </trkpt>
      <trkpt lat="27.824234" lon="86.713952">
        <ele>3810</ele>
        <time>2022-10-21T05:46:18.000Z</time>
      </trkpt>
      <trkpt lat="27.824243" lon="86.713984">
        <ele>3809.2</ele>
        <time>2022-10-21T05:46:21.000Z</time>
      </trkpt>
      <trkpt lat="27.824256" lon="86.714003">
        <ele>3808.4</ele>
        <time>2022-10-21T05:46:25.000Z</time>
      </trkpt>
      <trkpt lat="27.824269" lon="86.714029">
        <ele>3807.8</ele>
        <time>2022-10-21T05:46:27.000Z</time>
      </trkpt>
      <trkpt lat="27.824282" lon="86.714048">
        <ele>3807.8</ele>
        <time>2022-10-21T05:46:30.000Z</time>
      </trkpt>
      <trkpt lat="27.824291" lon="86.714067">
        <ele>3808</ele>
        <time>2022-10-21T05:46:32.000Z</time>
      </trkpt>
      <trkpt lat="27.824307" lon="86.714086">
        <ele>3808.6</ele>
        <time>2022-10-21T05:46:36.000Z</time>
      </trkpt>
      <trkpt lat="27.824314" lon="86.714106">
        <ele>3808</ele>
        <time>2022-10-21T05:46:43.000Z</time>
      </trkpt>
      <trkpt lat="27.82433" lon="86.714125">
        <ele>3808</ele>
        <time>2022-10-21T05:46:46.000Z</time>
      </trkpt>
      <trkpt lat="27.824346" lon="86.714144">
        <ele>3807.8</ele>
        <time>2022-10-21T05:46:48.000Z</time>
      </trkpt>
      <trkpt lat="27.824355" lon="86.714163">
        <ele>3807.4</ele>
        <time>2022-10-21T05:46:50.000Z</time>
      </trkpt>
      <trkpt lat="27.824368" lon="86.714182">
        <ele>3807.6</ele>
        <time>2022-10-21T05:46:52.000Z</time>
      </trkpt>
      <trkpt lat="27.824381" lon="86.714202">
        <ele>3807.6</ele>
        <time>2022-10-21T05:46:54.000Z</time>
      </trkpt>
      <trkpt lat="27.82439" lon="86.714227">
        <ele>3807.4</ele>
        <time>2022-10-21T05:46:56.000Z</time>
      </trkpt>
      <trkpt lat="27.824397" lon="86.714266">
        <ele>3807.4</ele>
        <time>2022-10-21T05:46:59.000Z</time>
      </trkpt>
      <trkpt lat="27.824406" lon="86.714298">
        <ele>3807.6</ele>
        <time>2022-10-21T05:47:01.000Z</time>
      </trkpt>
      <trkpt lat="27.824413" lon="86.714317">
        <ele>3807.6</ele>
        <time>2022-10-21T05:47:03.000Z</time>
      </trkpt>
      <trkpt lat="27.824416" lon="86.714342">
        <ele>3807.4</ele>
        <time>2022-10-21T05:47:05.000Z</time>
      </trkpt>
      <trkpt lat="27.824422" lon="86.714381">
        <ele>3807.4</ele>
        <time>2022-10-21T05:47:08.000Z</time>
      </trkpt>
      <trkpt lat="27.824422" lon="86.714406">
        <ele>3807.4</ele>
        <time>2022-10-21T05:47:11.000Z</time>
      </trkpt>
      <trkpt lat="27.824429" lon="86.714438">
        <ele>3808</ele>
        <time>2022-10-21T05:47:13.000Z</time>
      </trkpt>
      <trkpt lat="27.824432" lon="86.71447">
        <ele>3807.6</ele>
        <time>2022-10-21T05:47:15.000Z</time>
      </trkpt>
      <trkpt lat="27.824426" lon="86.71449">
        <ele>3808</ele>
        <time>2022-10-21T05:47:17.000Z</time>
      </trkpt>
      <trkpt lat="27.824426" lon="86.714522">
        <ele>3808</ele>
        <time>2022-10-21T05:47:20.000Z</time>
      </trkpt>
      <trkpt lat="27.824422" lon="86.714554">
        <ele>3808</ele>
        <time>2022-10-21T05:47:23.000Z</time>
      </trkpt>
      <trkpt lat="27.824419" lon="86.714579">
        <ele>3807.6</ele>
        <time>2022-10-21T05:47:26.000Z</time>
      </trkpt>
      <trkpt lat="27.824419" lon="86.714618">
        <ele>3807.2</ele>
        <time>2022-10-21T05:47:30.000Z</time>
      </trkpt>
      <trkpt lat="27.824422" lon="86.714643">
        <ele>3807</ele>
        <time>2022-10-21T05:47:36.000Z</time>
      </trkpt>
      <trkpt lat="27.824422" lon="86.714669">
        <ele>3806.8</ele>
        <time>2022-10-21T05:47:57.000Z</time>
      </trkpt>
      <trkpt lat="27.824422" lon="86.714707">
        <ele>3806.6</ele>
        <time>2022-10-21T05:47:59.000Z</time>
      </trkpt>
      <trkpt lat="27.824419" lon="86.714746">
        <ele>3806</ele>
        <time>2022-10-21T05:48:01.000Z</time>
      </trkpt>
      <trkpt lat="27.824416" lon="86.714784">
        <ele>3806</ele>
        <time>2022-10-21T05:48:03.000Z</time>
      </trkpt>
      <trkpt lat="27.824406" lon="86.714822">
        <ele>3806</ele>
        <time>2022-10-21T05:48:05.000Z</time>
      </trkpt>
      <trkpt lat="27.824413" lon="86.714842">
        <ele>3806</ele>
        <time>2022-10-21T05:48:07.000Z</time>
      </trkpt>
      <trkpt lat="27.824422" lon="86.714874">
        <ele>3806</ele>
        <time>2022-10-21T05:48:09.000Z</time>
      </trkpt>
      <trkpt lat="27.824429" lon="86.714906">
        <ele>3805.4</ele>
        <time>2022-10-21T05:48:12.000Z</time>
      </trkpt>
      <trkpt lat="27.824445" lon="86.714938">
        <ele>3804.6</ele>
        <time>2022-10-21T05:48:15.000Z</time>
      </trkpt>
      <trkpt lat="27.824454" lon="86.714957">
        <ele>3804.4</ele>
        <time>2022-10-21T05:48:17.000Z</time>
      </trkpt>
      <trkpt lat="27.824464" lon="86.714976">
        <ele>3804.4</ele>
        <time>2022-10-21T05:48:19.000Z</time>
      </trkpt>
      <trkpt lat="27.824474" lon="86.714995">
        <ele>3804</ele>
        <time>2022-10-21T05:48:21.000Z</time>
      </trkpt>
      <trkpt lat="27.824483" lon="86.715021">
        <ele>3804</ele>
        <time>2022-10-21T05:48:23.000Z</time>
      </trkpt>
      <trkpt lat="27.824493" lon="86.71504">
        <ele>3804</ele>
        <time>2022-10-21T05:48:25.000Z</time>
      </trkpt>
      <trkpt lat="27.824506" lon="86.715059">
        <ele>3804</ele>
        <time>2022-10-21T05:48:27.000Z</time>
      </trkpt>
      <trkpt lat="27.824515" lon="86.715078">
        <ele>3804</ele>
        <time>2022-10-21T05:48:29.000Z</time>
      </trkpt>
      <trkpt lat="27.824525" lon="86.715104">
        <ele>3803.8</ele>
        <time>2022-10-21T05:48:31.000Z</time>
      </trkpt>
      <trkpt lat="27.824538" lon="86.715123">
        <ele>3803.8</ele>
        <time>2022-10-21T05:48:34.000Z</time>
      </trkpt>
      <trkpt lat="27.824544" lon="86.715142">
        <ele>3803.8</ele>
        <time>2022-10-21T05:48:35.000Z</time>
      </trkpt>
      <trkpt lat="27.824554" lon="86.715162">
        <ele>3803.8</ele>
        <time>2022-10-21T05:48:37.000Z</time>
      </trkpt>
      <trkpt lat="27.824566" lon="86.715181">
        <ele>3803.2</ele>
        <time>2022-10-21T05:48:39.000Z</time>
      </trkpt>
      <trkpt lat="27.824579" lon="86.715213">
        <ele>3803.4</ele>
        <time>2022-10-21T05:48:42.000Z</time>
      </trkpt>
      <trkpt lat="27.824595" lon="86.715226">
        <ele>3803</ele>
        <time>2022-10-21T05:48:44.000Z</time>
      </trkpt>
      <trkpt lat="27.824608" lon="86.715251">
        <ele>3803</ele>
        <time>2022-10-21T05:48:46.000Z</time>
      </trkpt>
      <trkpt lat="27.824624" lon="86.715264">
        <ele>3802.8</ele>
        <time>2022-10-21T05:48:49.000Z</time>
      </trkpt>
      <trkpt lat="27.824634" lon="86.715283">
        <ele>3802.6</ele>
        <time>2022-10-21T05:48:51.000Z</time>
      </trkpt>
      <trkpt lat="27.82464" lon="86.715302">
        <ele>3802.2</ele>
        <time>2022-10-21T05:48:53.000Z</time>
      </trkpt>
      <trkpt lat="27.824646" lon="86.715334">
        <ele>3802</ele>
        <time>2022-10-21T05:48:56.000Z</time>
      </trkpt>
      <trkpt lat="27.824656" lon="86.715354">
        <ele>3802</ele>
        <time>2022-10-21T05:48:59.000Z</time>
      </trkpt>
      <trkpt lat="27.824666" lon="86.715373">
        <ele>3802</ele>
        <time>2022-10-21T05:49:01.000Z</time>
      </trkpt>
      <trkpt lat="27.824675" lon="86.715398">
        <ele>3801</ele>
        <time>2022-10-21T05:49:04.000Z</time>
      </trkpt>
      <trkpt lat="27.824672" lon="86.715424">
        <ele>3800.6</ele>
        <time>2022-10-21T05:49:06.000Z</time>
      </trkpt>
      <trkpt lat="27.824656" lon="86.715437">
        <ele>3799.8</ele>
        <time>2022-10-21T05:49:09.000Z</time>
      </trkpt>
      <trkpt lat="27.824656" lon="86.715462">
        <ele>3799.6</ele>
        <time>2022-10-21T05:49:11.000Z</time>
      </trkpt>
      <trkpt lat="27.82465" lon="86.715482">
        <ele>3799.4</ele>
        <time>2022-10-21T05:49:14.000Z</time>
      </trkpt>
      <trkpt lat="27.824643" lon="86.715501">
        <ele>3799.2</ele>
        <time>2022-10-21T05:49:16.000Z</time>
      </trkpt>
      <trkpt lat="27.824637" lon="86.71552">
        <ele>3798.8</ele>
        <time>2022-10-21T05:49:19.000Z</time>
      </trkpt>
      <trkpt lat="27.824643" lon="86.715539">
        <ele>3798.6</ele>
        <time>2022-10-21T05:49:21.000Z</time>
      </trkpt>
      <trkpt lat="27.824653" lon="86.715558">
        <ele>3798.4</ele>
        <time>2022-10-21T05:49:23.000Z</time>
      </trkpt>
      <trkpt lat="27.824669" lon="86.715571">
        <ele>3798.2</ele>
        <time>2022-10-21T05:49:25.000Z</time>
      </trkpt>
      <trkpt lat="27.824685" lon="86.715584">
        <ele>3798.2</ele>
        <time>2022-10-21T05:49:27.000Z</time>
      </trkpt>
      <trkpt lat="27.824701" lon="86.715597">
        <ele>3798.4</ele>
        <time>2022-10-21T05:49:29.000Z</time>
      </trkpt>
      <trkpt lat="27.824723" lon="86.715616">
        <ele>3798.6</ele>
        <time>2022-10-21T05:49:32.000Z</time>
      </trkpt>
      <trkpt lat="27.824742" lon="86.715635">
        <ele>3798.6</ele>
        <time>2022-10-21T05:49:35.000Z</time>
      </trkpt>
      <trkpt lat="27.824758" lon="86.715654">
        <ele>3798.4</ele>
        <time>2022-10-21T05:49:38.000Z</time>
      </trkpt>
      <trkpt lat="27.824774" lon="86.715674">
        <ele>3798.4</ele>
        <time>2022-10-21T05:49:40.000Z</time>
      </trkpt>
      <trkpt lat="27.824784" lon="86.715693">
        <ele>3798.6</ele>
        <time>2022-10-21T05:49:42.000Z</time>
      </trkpt>
      <trkpt lat="27.824803" lon="86.715712">
        <ele>3798.8</ele>
        <time>2022-10-21T05:49:45.000Z</time>
      </trkpt>
      <trkpt lat="27.824816" lon="86.715731">
        <ele>3798.8</ele>
        <time>2022-10-21T05:49:47.000Z</time>
      </trkpt>
      <trkpt lat="27.824835" lon="86.71575">
        <ele>3798.6</ele>
        <time>2022-10-21T05:49:50.000Z</time>
      </trkpt>
      <trkpt lat="27.824854" lon="86.715757">
        <ele>3798.4</ele>
        <time>2022-10-21T05:49:52.000Z</time>
      </trkpt>
      <trkpt lat="27.82487" lon="86.715776">
        <ele>3798.8</ele>
        <time>2022-10-21T05:49:59.000Z</time>
      </trkpt>
      <trkpt lat="27.824883" lon="86.715795">
        <ele>3798.8</ele>
        <time>2022-10-21T05:50:02.000Z</time>
      </trkpt>
      <trkpt lat="27.82489" lon="86.715814">
        <ele>3798.8</ele>
        <time>2022-10-21T05:50:03.000Z</time>
      </trkpt>
      <trkpt lat="27.824909" lon="86.715827">
        <ele>3798.8</ele>
        <time>2022-10-21T05:50:05.000Z</time>
      </trkpt>
      <trkpt lat="27.824912" lon="86.715853">
        <ele>3798.8</ele>
        <time>2022-10-21T05:50:07.000Z</time>
      </trkpt>
      <trkpt lat="27.824928" lon="86.715872">
        <ele>3799.4</ele>
        <time>2022-10-21T05:50:09.000Z</time>
      </trkpt>
      <trkpt lat="27.824934" lon="86.715891">
        <ele>3799.4</ele>
        <time>2022-10-21T05:50:11.000Z</time>
      </trkpt>
      <trkpt lat="27.82496" lon="86.71591">
        <ele>3799.8</ele>
        <time>2022-10-21T05:50:17.000Z</time>
      </trkpt>
      <trkpt lat="27.824986" lon="86.715917">
        <ele>3799.8</ele>
        <time>2022-10-21T05:50:19.000Z</time>
      </trkpt>
      <trkpt lat="27.825008" lon="86.715917">
        <ele>3799.8</ele>
        <time>2022-10-21T05:50:21.000Z</time>
      </trkpt>
      <trkpt lat="27.825024" lon="86.715936">
        <ele>3800.4</ele>
        <time>2022-10-21T05:50:24.000Z</time>
      </trkpt>
      <trkpt lat="27.825043" lon="86.715949">
        <ele>3800.4</ele>
        <time>2022-10-21T05:50:28.000Z</time>
      </trkpt>
      <trkpt lat="27.825053" lon="86.715968">
        <ele>3800.6</ele>
        <time>2022-10-21T05:50:29.000Z</time>
      </trkpt>
      <trkpt lat="27.825075" lon="86.715981">
        <ele>3801</ele>
        <time>2022-10-21T05:50:32.000Z</time>
      </trkpt>
      <trkpt lat="27.825088" lon="86.716006">
        <ele>3801.2</ele>
        <time>2022-10-21T05:50:35.000Z</time>
      </trkpt>
      <trkpt lat="27.825107" lon="86.716026">
        <ele>3801.8</ele>
        <time>2022-10-21T05:50:39.000Z</time>
      </trkpt>
      <trkpt lat="27.825104" lon="86.716058">
        <ele>3801.8</ele>
        <time>2022-10-21T05:50:46.000Z</time>
      </trkpt>
      <trkpt lat="27.825082" lon="86.716077">
        <ele>3801.2</ele>
        <time>2022-10-21T05:51:14.000Z</time>
      </trkpt>
      <trkpt lat="27.825062" lon="86.716077">
        <ele>3801.4</ele>
        <time>2022-10-21T05:51:17.000Z</time>
      </trkpt>
      <trkpt lat="27.825056" lon="86.716096">
        <ele>3801.4</ele>
        <time>2022-10-21T05:51:19.000Z</time>
      </trkpt>
      <trkpt lat="27.82504" lon="86.716109">
        <ele>3801</ele>
        <time>2022-10-21T05:51:31.000Z</time>
      </trkpt>
      <trkpt lat="27.825021" lon="86.716109">
        <ele>3801.2</ele>
        <time>2022-10-21T05:51:33.000Z</time>
      </trkpt>
      <trkpt lat="27.825002" lon="86.716109">
        <ele>3801</ele>
        <time>2022-10-21T05:51:35.000Z</time>
      </trkpt>
      <trkpt lat="27.824982" lon="86.716096">
        <ele>3800</ele>
        <time>2022-10-21T05:51:38.000Z</time>
      </trkpt>
      <trkpt lat="27.824976" lon="86.716064">
        <ele>3800</ele>
        <time>2022-10-21T05:53:03.000Z</time>
      </trkpt>
      <trkpt lat="27.824982" lon="86.716038">
        <ele>3800</ele>
        <time>2022-10-21T05:53:24.000Z</time>
      </trkpt>
      <trkpt lat="27.824973" lon="86.716013">
        <ele>3800</ele>
        <time>2022-10-21T05:53:26.000Z</time>
      </trkpt>
      <trkpt lat="27.824966" lon="86.715994">
        <ele>3799.8</ele>
        <time>2022-10-21T05:53:27.000Z</time>
      </trkpt>
      <trkpt lat="27.82496" lon="86.715968">
        <ele>3800</ele>
        <time>2022-10-21T05:53:29.000Z</time>
      </trkpt>
      <trkpt lat="27.824954" lon="86.715936">
        <ele>3800</ele>
        <time>2022-10-21T05:53:31.000Z</time>
      </trkpt>
      <trkpt lat="27.824947" lon="86.71591">
        <ele>3799.8</ele>
        <time>2022-10-21T05:53:33.000Z</time>
      </trkpt>
      <trkpt lat="27.824941" lon="86.715878">
        <ele>3799.6</ele>
        <time>2022-10-21T05:53:36.000Z</time>
      </trkpt>
      <trkpt lat="27.824931" lon="86.715859">
        <ele>3799.6</ele>
        <time>2022-10-21T05:53:38.000Z</time>
      </trkpt>
      <trkpt lat="27.824925" lon="86.715834">
        <ele>3799.2</ele>
        <time>2022-10-21T05:53:40.000Z</time>
      </trkpt>
      <trkpt lat="27.824918" lon="86.715814">
        <ele>3799.2</ele>
        <time>2022-10-21T05:53:42.000Z</time>
      </trkpt>
      <trkpt lat="27.824906" lon="86.715795">
        <ele>3799</ele>
        <time>2022-10-21T05:53:44.000Z</time>
      </trkpt>
      <trkpt lat="27.82489" lon="86.715782">
        <ele>3799</ele>
        <time>2022-10-21T05:53:46.000Z</time>
      </trkpt>
      <trkpt lat="27.824874" lon="86.71577">
        <ele>3798.8</ele>
        <time>2022-10-21T05:53:48.000Z</time>
      </trkpt>
      <trkpt lat="27.824854" lon="86.715744">
        <ele>3798.8</ele>
        <time>2022-10-21T05:53:50.000Z</time>
      </trkpt>
      <trkpt lat="27.824832" lon="86.715718">
        <ele>3799</ele>
        <time>2022-10-21T05:53:53.000Z</time>
      </trkpt>
      <trkpt lat="27.824813" lon="86.715699">
        <ele>3798.4</ele>
        <time>2022-10-21T05:53:56.000Z</time>
      </trkpt>
      <trkpt lat="27.824797" lon="86.71568">
        <ele>3798.4</ele>
        <time>2022-10-21T05:53:58.000Z</time>
      </trkpt>
      <trkpt lat="27.824774" lon="86.715661">
        <ele>3798.6</ele>
        <time>2022-10-21T05:54:01.000Z</time>
      </trkpt>
      <trkpt lat="27.824758" lon="86.715648">
        <ele>3798.6</ele>
        <time>2022-10-21T05:54:04.000Z</time>
      </trkpt>
      <trkpt lat="27.824765" lon="86.715629">
        <ele>3798.2</ele>
        <time>2022-10-21T05:54:23.000Z</time>
      </trkpt>
      <trkpt lat="27.824778" lon="86.71561">
        <ele>3798.4</ele>
        <time>2022-10-21T05:54:25.000Z</time>
      </trkpt>
      <trkpt lat="27.824787" lon="86.71559">
        <ele>3799.2</ele>
        <time>2022-10-21T05:54:27.000Z</time>
      </trkpt>
      <trkpt lat="27.824803" lon="86.715558">
        <ele>3799.4</ele>
        <time>2022-10-21T05:54:30.000Z</time>
      </trkpt>
      <trkpt lat="27.824813" lon="86.715539">
        <ele>3799.6</ele>
        <time>2022-10-21T05:54:33.000Z</time>
      </trkpt>
      <trkpt lat="27.824794" lon="86.71552">
        <ele>3800</ele>
        <time>2022-10-21T05:54:37.000Z</time>
      </trkpt>
      <trkpt lat="27.824765" lon="86.715546">
        <ele>3803.6</ele>
        <time>2022-10-21T06:12:07.000Z</time>
      </trkpt>
      <trkpt lat="27.824784" lon="86.715546">
        <ele>3804</ele>
        <time>2022-10-21T06:12:35.000Z</time>
      </trkpt>
      <trkpt lat="27.824774" lon="86.715571">
        <ele>3803.6</ele>
        <time>2022-10-21T06:13:22.000Z</time>
      </trkpt>
      <trkpt lat="27.824765" lon="86.71559">
        <ele>3803.4</ele>
        <time>2022-10-21T06:13:24.000Z</time>
      </trkpt>
      <trkpt lat="27.824752" lon="86.715622">
        <ele>3802.6</ele>
        <time>2022-10-21T06:13:26.000Z</time>
      </trkpt>
      <trkpt lat="27.82473" lon="86.715648">
        <ele>3802.4</ele>
        <time>2022-10-21T06:13:28.000Z</time>
      </trkpt>
      <trkpt lat="27.82471" lon="86.715635">
        <ele>3802.4</ele>
        <time>2022-10-21T06:13:30.000Z</time>
      </trkpt>
      <trkpt lat="27.824694" lon="86.715622">
        <ele>3802.2</ele>
        <time>2022-10-21T06:13:32.000Z</time>
      </trkpt>
      <trkpt lat="27.824675" lon="86.71561">
        <ele>3802.2</ele>
        <time>2022-10-21T06:13:34.000Z</time>
      </trkpt>
      <trkpt lat="27.824662" lon="86.71559">
        <ele>3802.2</ele>
        <time>2022-10-21T06:13:36.000Z</time>
      </trkpt>
      <trkpt lat="27.824643" lon="86.715571">
        <ele>3802.2</ele>
        <time>2022-10-21T06:13:38.000Z</time>
      </trkpt>
      <trkpt lat="27.82463" lon="86.715552">
        <ele>3801.8</ele>
        <time>2022-10-21T06:13:39.000Z</time>
      </trkpt>
      <trkpt lat="27.824605" lon="86.715546">
        <ele>3802.2</ele>
        <time>2022-10-21T06:13:41.000Z</time>
      </trkpt>
      <trkpt lat="27.824589" lon="86.715533">
        <ele>3802.4</ele>
        <time>2022-10-21T06:13:43.000Z</time>
      </trkpt>
      <trkpt lat="27.824611" lon="86.715539">
        <ele>3801.6</ele>
        <time>2022-10-21T06:13:51.000Z</time>
      </trkpt>
      <trkpt lat="27.824592" lon="86.71552">
        <ele>3801.8</ele>
        <time>2022-10-21T06:13:57.000Z</time>
      </trkpt>
      <trkpt lat="27.824576" lon="86.715501">
        <ele>3801.6</ele>
        <time>2022-10-21T06:13:59.000Z</time>
      </trkpt>
      <trkpt lat="27.824547" lon="86.715494">
        <ele>3801.4</ele>
        <time>2022-10-21T06:14:01.000Z</time>
      </trkpt>
      <trkpt lat="27.824525" lon="86.715501">
        <ele>3800.6</ele>
        <time>2022-10-21T06:14:03.000Z</time>
      </trkpt>
      <trkpt lat="27.824502" lon="86.715514">
        <ele>3801</ele>
        <time>2022-10-21T06:14:06.000Z</time>
      </trkpt>
      <trkpt lat="27.824493" lon="86.715533">
        <ele>3801</ele>
        <time>2022-10-21T06:14:08.000Z</time>
      </trkpt>
      <trkpt lat="27.824477" lon="86.715552">
        <ele>3801</ele>
        <time>2022-10-21T06:14:11.000Z</time>
      </trkpt>
      <trkpt lat="27.824467" lon="86.715571">
        <ele>3801</ele>
        <time>2022-10-21T06:14:13.000Z</time>
      </trkpt>
      <trkpt lat="27.824448" lon="86.71559">
        <ele>3800.4</ele>
        <time>2022-10-21T06:14:15.000Z</time>
      </trkpt>
      <trkpt lat="27.824435" lon="86.71561">
        <ele>3800</ele>
        <time>2022-10-21T06:14:17.000Z</time>
      </trkpt>
      <trkpt lat="27.824413" lon="86.71561">
        <ele>3800</ele>
        <time>2022-10-21T06:14:19.000Z</time>
      </trkpt>
      <trkpt lat="27.824387" lon="86.71561">
        <ele>3800</ele>
        <time>2022-10-21T06:14:21.000Z</time>
      </trkpt>
      <trkpt lat="27.824358" lon="86.71561">
        <ele>3799.8</ele>
        <time>2022-10-21T06:14:23.000Z</time>
      </trkpt>
      <trkpt lat="27.824342" lon="86.715597">
        <ele>3799.2</ele>
        <time>2022-10-21T06:14:25.000Z</time>
      </trkpt>
      <trkpt lat="27.824317" lon="86.715597">
        <ele>3799.2</ele>
        <time>2022-10-21T06:14:27.000Z</time>
      </trkpt>
      <trkpt lat="27.824298" lon="86.71559">
        <ele>3798.8</ele>
        <time>2022-10-21T06:14:29.000Z</time>
      </trkpt>
      <trkpt lat="27.824278" lon="86.71559">
        <ele>3798.6</ele>
        <time>2022-10-21T06:14:31.000Z</time>
      </trkpt>
      <trkpt lat="27.824256" lon="86.71559">
        <ele>3798.2</ele>
        <time>2022-10-21T06:14:33.000Z</time>
      </trkpt>
      <trkpt lat="27.824237" lon="86.71559">
        <ele>3798</ele>
        <time>2022-10-21T06:14:35.000Z</time>
      </trkpt>
      <trkpt lat="27.824218" lon="86.715584">
        <ele>3798</ele>
        <time>2022-10-21T06:14:37.000Z</time>
      </trkpt>
      <trkpt lat="27.824198" lon="86.71559">
        <ele>3797.6</ele>
        <time>2022-10-21T06:14:42.000Z</time>
      </trkpt>
      <trkpt lat="27.824179" lon="86.715584">
        <ele>3797.4</ele>
        <time>2022-10-21T06:14:44.000Z</time>
      </trkpt>
      <trkpt lat="27.824157" lon="86.715578">
        <ele>3797.4</ele>
        <time>2022-10-21T06:14:46.000Z</time>
      </trkpt>
      <trkpt lat="27.824138" lon="86.715578">
        <ele>3797.6</ele>
        <time>2022-10-21T06:14:48.000Z</time>
      </trkpt>
      <trkpt lat="27.824115" lon="86.715571">
        <ele>3797.6</ele>
        <time>2022-10-21T06:14:50.000Z</time>
      </trkpt>
      <trkpt lat="27.824099" lon="86.715552">
        <ele>3797.2</ele>
        <time>2022-10-21T06:14:52.000Z</time>
      </trkpt>
      <trkpt lat="27.824077" lon="86.715539">
        <ele>3796.8</ele>
        <time>2022-10-21T06:14:55.000Z</time>
      </trkpt>
      <trkpt lat="27.824054" lon="86.715546">
        <ele>3796.2</ele>
        <time>2022-10-21T06:14:57.000Z</time>
      </trkpt>
      <trkpt lat="27.824035" lon="86.715552">
        <ele>3795.6</ele>
        <time>2022-10-21T06:14:59.000Z</time>
      </trkpt>
      <trkpt lat="27.823994" lon="86.715546">
        <ele>3795.2</ele>
        <time>2022-10-21T06:15:03.000Z</time>
      </trkpt>
      <trkpt lat="27.823971" lon="86.71552">
        <ele>3795.2</ele>
        <time>2022-10-21T06:15:05.000Z</time>
      </trkpt>
      <trkpt lat="27.823958" lon="86.715501">
        <ele>3794.8</ele>
        <time>2022-10-21T06:15:07.000Z</time>
      </trkpt>
      <trkpt lat="27.823949" lon="86.715475">
        <ele>3794.4</ele>
        <time>2022-10-21T06:15:09.000Z</time>
      </trkpt>
      <trkpt lat="27.82393" lon="86.715437">
        <ele>3794.4</ele>
        <time>2022-10-21T06:15:12.000Z</time>
      </trkpt>
      <trkpt lat="27.823917" lon="86.715418">
        <ele>3794.4</ele>
        <time>2022-10-21T06:15:14.000Z</time>
      </trkpt>
      <trkpt lat="27.823907" lon="86.715392">
        <ele>3794.8</ele>
        <time>2022-10-21T06:15:16.000Z</time>
      </trkpt>
      <trkpt lat="27.823891" lon="86.715373">
        <ele>3794.8</ele>
        <time>2022-10-21T06:15:18.000Z</time>
      </trkpt>
      <trkpt lat="27.823882" lon="86.715354">
        <ele>3794.8</ele>
        <time>2022-10-21T06:15:20.000Z</time>
      </trkpt>
      <trkpt lat="27.823859" lon="86.715341">
        <ele>3794.8</ele>
        <time>2022-10-21T06:15:24.000Z</time>
      </trkpt>
      <trkpt lat="27.823853" lon="86.71536">
        <ele>3794.4</ele>
        <time>2022-10-21T06:15:26.000Z</time>
      </trkpt>
      <trkpt lat="27.823853" lon="86.715386">
        <ele>3794</ele>
        <time>2022-10-21T06:15:28.000Z</time>
      </trkpt>
      <trkpt lat="27.823837" lon="86.715411">
        <ele>3793.8</ele>
        <time>2022-10-21T06:15:30.000Z</time>
      </trkpt>
      <trkpt lat="27.823821" lon="86.715424">
        <ele>3793.6</ele>
        <time>2022-10-21T06:15:32.000Z</time>
      </trkpt>
      <trkpt lat="27.823798" lon="86.715437">
        <ele>3793.2</ele>
        <time>2022-10-21T06:15:34.000Z</time>
      </trkpt>
      <trkpt lat="27.82377" lon="86.715437">
        <ele>3793</ele>
        <time>2022-10-21T06:15:36.000Z</time>
      </trkpt>
      <trkpt lat="27.823747" lon="86.715437">
        <ele>3793.2</ele>
        <time>2022-10-21T06:15:37.000Z</time>
      </trkpt>
      <trkpt lat="27.823715" lon="86.715424">
        <ele>3793.2</ele>
        <time>2022-10-21T06:15:39.000Z</time>
      </trkpt>
      <trkpt lat="27.823693" lon="86.715411">
        <ele>3793</ele>
        <time>2022-10-21T06:15:41.000Z</time>
      </trkpt>
      <trkpt lat="27.823683" lon="86.715392">
        <ele>3793</ele>
        <time>2022-10-21T06:15:42.000Z</time>
      </trkpt>
      <trkpt lat="27.823658" lon="86.715373">
        <ele>3793.2</ele>
        <time>2022-10-21T06:15:45.000Z</time>
      </trkpt>
      <trkpt lat="27.823638" lon="86.715354">
        <ele>3793</ele>
        <time>2022-10-21T06:15:47.000Z</time>
      </trkpt>
      <trkpt lat="27.823619" lon="86.715341">
        <ele>3792.8</ele>
        <time>2022-10-21T06:15:49.000Z</time>
      </trkpt>
      <trkpt lat="27.8236" lon="86.715341">
        <ele>3793</ele>
        <time>2022-10-21T06:15:52.000Z</time>
      </trkpt>
      <trkpt lat="27.823578" lon="86.715341">
        <ele>3792.6</ele>
        <time>2022-10-21T06:16:20.000Z</time>
      </trkpt>
      <trkpt lat="27.823558" lon="86.71536">
        <ele>3792.4</ele>
        <time>2022-10-21T06:16:22.000Z</time>
      </trkpt>
      <trkpt lat="27.823542" lon="86.715373">
        <ele>3792.4</ele>
        <time>2022-10-21T06:16:23.000Z</time>
      </trkpt>
      <trkpt lat="27.823517" lon="86.715386">
        <ele>3792.2</ele>
        <time>2022-10-21T06:16:25.000Z</time>
      </trkpt>
      <trkpt lat="27.823491" lon="86.715411">
        <ele>3792</ele>
        <time>2022-10-21T06:16:27.000Z</time>
      </trkpt>
      <trkpt lat="27.823472" lon="86.715424">
        <ele>3792</ele>
        <time>2022-10-21T06:16:29.000Z</time>
      </trkpt>
      <trkpt lat="27.823453" lon="86.71545">
        <ele>3791.4</ele>
        <time>2022-10-21T06:16:32.000Z</time>
      </trkpt>
      <trkpt lat="27.82343" lon="86.71545">
        <ele>3791.2</ele>
        <time>2022-10-21T06:16:34.000Z</time>
      </trkpt>
      <trkpt lat="27.823405" lon="86.71545">
        <ele>3791.2</ele>
        <time>2022-10-21T06:16:36.000Z</time>
      </trkpt>
      <trkpt lat="27.823382" lon="86.71545">
        <ele>3791.2</ele>
        <time>2022-10-21T06:16:38.000Z</time>
      </trkpt>
      <trkpt lat="27.82336" lon="86.715424">
        <ele>3791</ele>
        <time>2022-10-21T06:16:40.000Z</time>
      </trkpt>
      <trkpt lat="27.823338" lon="86.715411">
        <ele>3791</ele>
        <time>2022-10-21T06:16:43.000Z</time>
      </trkpt>
      <trkpt lat="27.823325" lon="86.715392">
        <ele>3791</ele>
        <time>2022-10-21T06:16:46.000Z</time>
      </trkpt>
      <trkpt lat="27.823296" lon="86.715386">
        <ele>3791.2</ele>
        <time>2022-10-21T06:16:51.000Z</time>
      </trkpt>
      <trkpt lat="27.823277" lon="86.715373">
        <ele>3791</ele>
        <time>2022-10-21T06:16:54.000Z</time>
      </trkpt>
      <trkpt lat="27.823258" lon="86.715373">
        <ele>3790.8</ele>
        <time>2022-10-21T06:16:56.000Z</time>
      </trkpt>
      <trkpt lat="27.823232" lon="86.715373">
        <ele>3790.6</ele>
        <time>2022-10-21T06:17:00.000Z</time>
      </trkpt>
      <trkpt lat="27.823216" lon="86.715386">
        <ele>3790</ele>
        <time>2022-10-21T06:17:02.000Z</time>
      </trkpt>
      <trkpt lat="27.823203" lon="86.715411">
        <ele>3790.4</ele>
        <time>2022-10-21T06:17:05.000Z</time>
      </trkpt>
      <trkpt lat="27.823187" lon="86.715424">
        <ele>3790</ele>
        <time>2022-10-21T06:17:07.000Z</time>
      </trkpt>
      <trkpt lat="27.823174" lon="86.71545">
        <ele>3790.6</ele>
        <time>2022-10-21T06:17:10.000Z</time>
      </trkpt>
      <trkpt lat="27.823155" lon="86.715475">
        <ele>3789.6</ele>
        <time>2022-10-21T06:17:13.000Z</time>
      </trkpt>
      <trkpt lat="27.823136" lon="86.715494">
        <ele>3789.6</ele>
        <time>2022-10-21T06:17:16.000Z</time>
      </trkpt>
      <trkpt lat="27.823114" lon="86.715507">
        <ele>3789.2</ele>
        <time>2022-10-21T06:17:19.000Z</time>
      </trkpt>
      <trkpt lat="27.823094" lon="86.715514">
        <ele>3788.4</ele>
        <time>2022-10-21T06:17:21.000Z</time>
      </trkpt>
      <trkpt lat="27.823066" lon="86.715533">
        <ele>3788.2</ele>
        <time>2022-10-21T06:17:23.000Z</time>
      </trkpt>
      <trkpt lat="27.823046" lon="86.715539">
        <ele>3787.8</ele>
        <time>2022-10-21T06:17:25.000Z</time>
      </trkpt>
      <trkpt lat="27.82303" lon="86.715558">
        <ele>3787.2</ele>
        <time>2022-10-21T06:17:28.000Z</time>
      </trkpt>
      <trkpt lat="27.823024" lon="86.71559">
        <ele>3787</ele>
        <time>2022-10-21T06:17:31.000Z</time>
      </trkpt>
      <trkpt lat="27.823021" lon="86.715616">
        <ele>3786.6</ele>
        <time>2022-10-21T06:17:33.000Z</time>
      </trkpt>
      <trkpt lat="27.823021" lon="86.715648">
        <ele>3786.6</ele>
        <time>2022-10-21T06:17:36.000Z</time>
      </trkpt>
      <trkpt lat="27.823027" lon="86.715667">
        <ele>3786.6</ele>
        <time>2022-10-21T06:17:38.000Z</time>
      </trkpt>
      <trkpt lat="27.823034" lon="86.715693">
        <ele>3786.6</ele>
        <time>2022-10-21T06:17:40.000Z</time>
      </trkpt>
      <trkpt lat="27.823034" lon="86.715731">
        <ele>3786.4</ele>
        <time>2022-10-21T06:17:43.000Z</time>
      </trkpt>
      <trkpt lat="27.823037" lon="86.715757">
        <ele>3786.4</ele>
        <time>2022-10-21T06:17:46.000Z</time>
      </trkpt>
      <trkpt lat="27.823043" lon="86.715782">
        <ele>3786.2</ele>
        <time>2022-10-21T06:17:48.000Z</time>
      </trkpt>
      <trkpt lat="27.823046" lon="86.715814">
        <ele>3786.2</ele>
        <time>2022-10-21T06:17:50.000Z</time>
      </trkpt>
      <trkpt lat="27.823043" lon="86.715853">
        <ele>3786</ele>
        <time>2022-10-21T06:17:53.000Z</time>
      </trkpt>
      <trkpt lat="27.823034" lon="86.715872">
        <ele>3785.6</ele>
        <time>2022-10-21T06:17:56.000Z</time>
      </trkpt>
      <trkpt lat="27.823021" lon="86.715891">
        <ele>3786</ele>
        <time>2022-10-21T06:17:58.000Z</time>
      </trkpt>
      <trkpt lat="27.823005" lon="86.71591">
        <ele>3786.4</ele>
        <time>2022-10-21T06:18:01.000Z</time>
      </trkpt>
      <trkpt lat="27.822982" lon="86.715917">
        <ele>3785.8</ele>
        <time>2022-10-21T06:18:21.000Z</time>
      </trkpt>
      <trkpt lat="27.822954" lon="86.71593">
        <ele>3785.6</ele>
        <time>2022-10-21T06:18:23.000Z</time>
      </trkpt>
      <trkpt lat="27.822925" lon="86.715917">
        <ele>3785.6</ele>
        <time>2022-10-21T06:18:25.000Z</time>
      </trkpt>
      <trkpt lat="27.82289" lon="86.71591">
        <ele>3785.2</ele>
        <time>2022-10-21T06:18:27.000Z</time>
      </trkpt>
      <trkpt lat="27.822858" lon="86.715891">
        <ele>3785.2</ele>
        <time>2022-10-21T06:18:29.000Z</time>
      </trkpt>
      <trkpt lat="27.822845" lon="86.715872">
        <ele>3784.8</ele>
        <time>2022-10-21T06:18:31.000Z</time>
      </trkpt>
      <trkpt lat="27.822816" lon="86.715853">
        <ele>3784.4</ele>
        <time>2022-10-21T06:19:04.000Z</time>
      </trkpt>
      <trkpt lat="27.822797" lon="86.715846">
        <ele>3784.4</ele>
        <time>2022-10-21T06:19:05.000Z</time>
      </trkpt>
      <trkpt lat="27.822784" lon="86.715827">
        <ele>3784.4</ele>
        <time>2022-10-21T06:19:06.000Z</time>
      </trkpt>
      <trkpt lat="27.822755" lon="86.715808">
        <ele>3784.6</ele>
        <time>2022-10-21T06:19:08.000Z</time>
      </trkpt>
      <trkpt lat="27.822739" lon="86.715795">
        <ele>3784.6</ele>
        <time>2022-10-21T06:19:09.000Z</time>
      </trkpt>
      <trkpt lat="27.822707" lon="86.715789">
        <ele>3784.6</ele>
        <time>2022-10-21T06:19:11.000Z</time>
      </trkpt>
      <trkpt lat="27.822691" lon="86.715776">
        <ele>3784.6</ele>
        <time>2022-10-21T06:19:12.000Z</time>
      </trkpt>
      <trkpt lat="27.822672" lon="86.715757">
        <ele>3784.6</ele>
        <time>2022-10-21T06:19:14.000Z</time>
      </trkpt>
      <trkpt lat="27.82265" lon="86.71575">
        <ele>3784.6</ele>
        <time>2022-10-21T06:19:16.000Z</time>
      </trkpt>
      <trkpt lat="27.82263" lon="86.715744">
        <ele>3784.6</ele>
        <time>2022-10-21T06:19:18.000Z</time>
      </trkpt>
      <trkpt lat="27.822605" lon="86.715731">
        <ele>3784</ele>
        <time>2022-10-21T06:19:21.000Z</time>
      </trkpt>
      <trkpt lat="27.822595" lon="86.715712">
        <ele>3784</ele>
        <time>2022-10-21T06:19:22.000Z</time>
      </trkpt>
      <trkpt lat="27.822573" lon="86.715699">
        <ele>3784</ele>
        <time>2022-10-21T06:19:25.000Z</time>
      </trkpt>
      <trkpt lat="27.82255" lon="86.715693">
        <ele>3784</ele>
        <time>2022-10-21T06:19:27.000Z</time>
      </trkpt>
      <trkpt lat="27.822531" lon="86.715674">
        <ele>3784.2</ele>
        <time>2022-10-21T06:19:29.000Z</time>
      </trkpt>
      <trkpt lat="27.822512" lon="86.715674">
        <ele>3784.2</ele>
        <time>2022-10-21T06:19:31.000Z</time>
      </trkpt>
      <trkpt lat="27.82249" lon="86.715667">
        <ele>3784</ele>
        <time>2022-10-21T06:19:33.000Z</time>
      </trkpt>
      <trkpt lat="27.822467" lon="86.715674">
        <ele>3783.8</ele>
        <time>2022-10-21T06:19:35.000Z</time>
      </trkpt>
      <trkpt lat="27.822451" lon="86.715661">
        <ele>3783.4</ele>
        <time>2022-10-21T06:19:37.000Z</time>
      </trkpt>
      <trkpt lat="27.822426" lon="86.715654">
        <ele>3783.4</ele>
        <time>2022-10-21T06:19:39.000Z</time>
      </trkpt>
      <trkpt lat="27.822403" lon="86.715648">
        <ele>3784</ele>
        <time>2022-10-21T06:19:41.000Z</time>
      </trkpt>
      <trkpt lat="27.822381" lon="86.715629">
        <ele>3784</ele>
        <time>2022-10-21T06:19:43.000Z</time>
      </trkpt>
      <trkpt lat="27.822358" lon="86.715622">
        <ele>3784</ele>
        <time>2022-10-21T06:19:45.000Z</time>
      </trkpt>
      <trkpt lat="27.82233" lon="86.715622">
        <ele>3783.8</ele>
        <time>2022-10-21T06:19:48.000Z</time>
      </trkpt>
      <trkpt lat="27.82231" lon="86.715629">
        <ele>3783.8</ele>
        <time>2022-10-21T06:19:50.000Z</time>
      </trkpt>
      <trkpt lat="27.822288" lon="86.715635">
        <ele>3784</ele>
        <time>2022-10-21T06:19:53.000Z</time>
      </trkpt>
      <trkpt lat="27.822269" lon="86.715635">
        <ele>3783.8</ele>
        <time>2022-10-21T06:19:57.000Z</time>
      </trkpt>
      <trkpt lat="27.822243" lon="86.715635">
        <ele>3783.8</ele>
        <time>2022-10-21T06:19:59.000Z</time>
      </trkpt>
      <trkpt lat="27.822224" lon="86.715648">
        <ele>3784</ele>
        <time>2022-10-21T06:20:01.000Z</time>
      </trkpt>
      <trkpt lat="27.822202" lon="86.715648">
        <ele>3784.2</ele>
        <time>2022-10-21T06:20:04.000Z</time>
      </trkpt>
      <trkpt lat="27.822179" lon="86.715648">
        <ele>3784.2</ele>
        <time>2022-10-21T06:20:07.000Z</time>
      </trkpt>
      <trkpt lat="27.822157" lon="86.715648">
        <ele>3784.2</ele>
        <time>2022-10-21T06:20:09.000Z</time>
      </trkpt>
      <trkpt lat="27.822134" lon="86.715635">
        <ele>3784.2</ele>
        <time>2022-10-21T06:20:11.000Z</time>
      </trkpt>
      <trkpt lat="27.822115" lon="86.715635">
        <ele>3783.8</ele>
        <time>2022-10-21T06:20:13.000Z</time>
      </trkpt>
      <trkpt lat="27.822093" lon="86.715635">
        <ele>3784</ele>
        <time>2022-10-21T06:20:15.000Z</time>
      </trkpt>
      <trkpt lat="27.822074" lon="86.715629">
        <ele>3784</ele>
        <time>2022-10-21T06:20:17.000Z</time>
      </trkpt>
      <trkpt lat="27.822054" lon="86.715629">
        <ele>3783.8</ele>
        <time>2022-10-21T06:20:19.000Z</time>
      </trkpt>
      <trkpt lat="27.822035" lon="86.715629">
        <ele>3783.8</ele>
        <time>2022-10-21T06:20:21.000Z</time>
      </trkpt>
      <trkpt lat="27.822016" lon="86.715635">
        <ele>3784</ele>
        <time>2022-10-21T06:20:24.000Z</time>
      </trkpt>
      <trkpt lat="27.82201" lon="86.715654">
        <ele>3784</ele>
        <time>2022-10-21T06:20:26.000Z</time>
      </trkpt>
      <trkpt lat="27.822006" lon="86.71568">
        <ele>3783.8</ele>
        <time>2022-10-21T06:20:30.000Z</time>
      </trkpt>
      <trkpt lat="27.821994" lon="86.715699">
        <ele>3784</ele>
        <time>2022-10-21T06:20:36.000Z</time>
      </trkpt>
      <trkpt lat="27.821974" lon="86.715718">
        <ele>3783.8</ele>
        <time>2022-10-21T06:20:39.000Z</time>
      </trkpt>
      <trkpt lat="27.821955" lon="86.715738">
        <ele>3784</ele>
        <time>2022-10-21T06:20:41.000Z</time>
      </trkpt>
      <trkpt lat="27.821936" lon="86.71575">
        <ele>3783.8</ele>
        <time>2022-10-21T06:20:43.000Z</time>
      </trkpt>
      <trkpt lat="27.821917" lon="86.71577">
        <ele>3783.8</ele>
        <time>2022-10-21T06:20:45.000Z</time>
      </trkpt>
      <trkpt lat="27.821898" lon="86.715776">
        <ele>3783.6</ele>
        <time>2022-10-21T06:20:47.000Z</time>
      </trkpt>
      <trkpt lat="27.821875" lon="86.715789">
        <ele>3783.2</ele>
        <time>2022-10-21T06:20:50.000Z</time>
      </trkpt>
      <trkpt lat="27.821862" lon="86.715808">
        <ele>3783</ele>
        <time>2022-10-21T06:20:52.000Z</time>
      </trkpt>
      <trkpt lat="27.821846" lon="86.715827">
        <ele>3783</ele>
        <time>2022-10-21T06:20:54.000Z</time>
      </trkpt>
      <trkpt lat="27.82183" lon="86.715846">
        <ele>3783</ele>
        <time>2022-10-21T06:20:56.000Z</time>
      </trkpt>
      <trkpt lat="27.821814" lon="86.715866">
        <ele>3783</ele>
        <time>2022-10-21T06:20:58.000Z</time>
      </trkpt>
      <trkpt lat="27.821795" lon="86.715878">
        <ele>3782.8</ele>
        <time>2022-10-21T06:21:00.000Z</time>
      </trkpt>
      <trkpt lat="27.821789" lon="86.715898">
        <ele>3782.8</ele>
        <time>2022-10-21T06:21:01.000Z</time>
      </trkpt>
      <trkpt lat="27.821773" lon="86.71591">
        <ele>3782.6</ele>
        <time>2022-10-21T06:21:03.000Z</time>
      </trkpt>
      <trkpt lat="27.821766" lon="86.71593">
        <ele>3782.6</ele>
        <time>2022-10-21T06:21:04.000Z</time>
      </trkpt>
      <trkpt lat="27.821744" lon="86.715949">
        <ele>3782.6</ele>
        <time>2022-10-21T06:21:07.000Z</time>
      </trkpt>
      <trkpt lat="27.821734" lon="86.715974">
        <ele>3782</ele>
        <time>2022-10-21T06:21:09.000Z</time>
      </trkpt>
      <trkpt lat="27.821718" lon="86.716006">
        <ele>3782</ele>
        <time>2022-10-21T06:21:12.000Z</time>
      </trkpt>
      <trkpt lat="27.821702" lon="86.716026">
        <ele>3781.8</ele>
        <time>2022-10-21T06:21:15.000Z</time>
      </trkpt>
      <trkpt lat="27.82169" lon="86.716051">
        <ele>3781.8</ele>
        <time>2022-10-21T06:21:17.000Z</time>
      </trkpt>
      <trkpt lat="27.821674" lon="86.71607">
        <ele>3781.8</ele>
        <time>2022-10-21T06:21:20.000Z</time>
      </trkpt>
      <trkpt lat="27.821664" lon="86.71609">
        <ele>3781.6</ele>
        <time>2022-10-21T06:21:22.000Z</time>
      </trkpt>
      <trkpt lat="27.821642" lon="86.716096">
        <ele>3781.6</ele>
        <time>2022-10-21T06:21:24.000Z</time>
      </trkpt>
      <trkpt lat="27.821622" lon="86.716102">
        <ele>3781.6</ele>
        <time>2022-10-21T06:21:26.000Z</time>
      </trkpt>
      <trkpt lat="27.821597" lon="86.716102">
        <ele>3781.2</ele>
        <time>2022-10-21T06:21:29.000Z</time>
      </trkpt>
      <trkpt lat="27.821578" lon="86.716102">
        <ele>3781.2</ele>
        <time>2022-10-21T06:21:31.000Z</time>
      </trkpt>
      <trkpt lat="27.821558" lon="86.716096">
        <ele>3781.6</ele>
        <time>2022-10-21T06:21:40.000Z</time>
      </trkpt>
      <trkpt lat="27.821539" lon="86.716096">
        <ele>3781.6</ele>
        <time>2022-10-21T06:21:42.000Z</time>
      </trkpt>
      <trkpt lat="27.821514" lon="86.716102">
        <ele>3781.4</ele>
        <time>2022-10-21T06:21:44.000Z</time>
      </trkpt>
      <trkpt lat="27.821488" lon="86.716109">
        <ele>3781.4</ele>
        <time>2022-10-21T06:21:46.000Z</time>
      </trkpt>
      <trkpt lat="27.821469" lon="86.716109">
        <ele>3781.4</ele>
        <time>2022-10-21T06:21:48.000Z</time>
      </trkpt>
      <trkpt lat="27.821443" lon="86.716115">
        <ele>3781.6</ele>
        <time>2022-10-21T06:21:51.000Z</time>
      </trkpt>
      <trkpt lat="27.821424" lon="86.716109">
        <ele>3781.6</ele>
        <time>2022-10-21T06:21:53.000Z</time>
      </trkpt>
      <trkpt lat="27.821395" lon="86.716109">
        <ele>3781.4</ele>
        <time>2022-10-21T06:21:56.000Z</time>
      </trkpt>
      <trkpt lat="27.82137" lon="86.716109">
        <ele>3781</ele>
        <time>2022-10-21T06:21:59.000Z</time>
      </trkpt>
      <trkpt lat="27.821344" lon="86.716109">
        <ele>3781.2</ele>
        <time>2022-10-21T06:22:01.000Z</time>
      </trkpt>
      <trkpt lat="27.821325" lon="86.716109">
        <ele>3781.2</ele>
        <time>2022-10-21T06:22:03.000Z</time>
      </trkpt>
      <trkpt lat="27.821296" lon="86.716109">
        <ele>3781.2</ele>
        <time>2022-10-21T06:22:05.000Z</time>
      </trkpt>
      <trkpt lat="27.821277" lon="86.716109">
        <ele>3780.8</ele>
        <time>2022-10-21T06:22:07.000Z</time>
      </trkpt>
      <trkpt lat="27.821258" lon="86.716109">
        <ele>3781</ele>
        <time>2022-10-21T06:22:09.000Z</time>
      </trkpt>
      <trkpt lat="27.821238" lon="86.716109">
        <ele>3781.2</ele>
        <time>2022-10-21T06:22:11.000Z</time>
      </trkpt>
      <trkpt lat="27.821213" lon="86.716115">
        <ele>3781</ele>
        <time>2022-10-21T06:22:13.000Z</time>
      </trkpt>
      <trkpt lat="27.821184" lon="86.716109">
        <ele>3780.8</ele>
        <time>2022-10-21T06:22:16.000Z</time>
      </trkpt>
      <trkpt lat="27.821158" lon="86.716109">
        <ele>3780.8</ele>
        <time>2022-10-21T06:22:18.000Z</time>
      </trkpt>
      <trkpt lat="27.821136" lon="86.716102">
        <ele>3780.6</ele>
        <time>2022-10-21T06:22:20.000Z</time>
      </trkpt>
      <trkpt lat="27.821117" lon="86.716102">
        <ele>3780.2</ele>
        <time>2022-10-21T06:22:22.000Z</time>
      </trkpt>
      <trkpt lat="27.821094" lon="86.716102">
        <ele>3780.2</ele>
        <time>2022-10-21T06:22:24.000Z</time>
      </trkpt>
      <trkpt lat="27.821072" lon="86.716096">
        <ele>3780.4</ele>
        <time>2022-10-21T06:22:26.000Z</time>
      </trkpt>
      <trkpt lat="27.821053" lon="86.716096">
        <ele>3780.4</ele>
        <time>2022-10-21T06:22:28.000Z</time>
      </trkpt>
      <trkpt lat="27.82103" lon="86.71609">
        <ele>3780.2</ele>
        <time>2022-10-21T06:22:30.000Z</time>
      </trkpt>
      <trkpt lat="27.821011" lon="86.716077">
        <ele>3779.8</ele>
        <time>2022-10-21T06:22:32.000Z</time>
      </trkpt>
      <trkpt lat="27.820986" lon="86.716077">
        <ele>3780.2</ele>
        <time>2022-10-21T06:22:34.000Z</time>
      </trkpt>
      <trkpt lat="27.820963" lon="86.716077">
        <ele>3779.6</ele>
        <time>2022-10-21T06:22:36.000Z</time>
      </trkpt>
      <trkpt lat="27.820941" lon="86.71607">
        <ele>3779.6</ele>
        <time>2022-10-21T06:22:38.000Z</time>
      </trkpt>
      <trkpt lat="27.820915" lon="86.716064">
        <ele>3779.6</ele>
        <time>2022-10-21T06:22:40.000Z</time>
      </trkpt>
      <trkpt lat="27.820893" lon="86.716064">
        <ele>3779.8</ele>
        <time>2022-10-21T06:22:42.000Z</time>
      </trkpt>
      <trkpt lat="27.820874" lon="86.716058">
        <ele>3779.6</ele>
        <time>2022-10-21T06:22:44.000Z</time>
      </trkpt>
      <trkpt lat="27.820854" lon="86.716058">
        <ele>3779.6</ele>
        <time>2022-10-21T06:22:46.000Z</time>
      </trkpt>
      <trkpt lat="27.820829" lon="86.716058">
        <ele>3779.6</ele>
        <time>2022-10-21T06:22:48.000Z</time>
      </trkpt>
      <trkpt lat="27.82081" lon="86.716058">
        <ele>3779.6</ele>
        <time>2022-10-21T06:22:50.000Z</time>
      </trkpt>
      <trkpt lat="27.820784" lon="86.716058">
        <ele>3779.4</ele>
        <time>2022-10-21T06:22:52.000Z</time>
      </trkpt>
      <trkpt lat="27.820762" lon="86.716058">
        <ele>3779.2</ele>
        <time>2022-10-21T06:22:54.000Z</time>
      </trkpt>
      <trkpt lat="27.820736" lon="86.716058">
        <ele>3779.2</ele>
        <time>2022-10-21T06:22:56.000Z</time>
      </trkpt>
      <trkpt lat="27.82071" lon="86.716051">
        <ele>3779.2</ele>
        <time>2022-10-21T06:22:59.000Z</time>
      </trkpt>
      <trkpt lat="27.820691" lon="86.716051">
        <ele>3779.2</ele>
        <time>2022-10-21T06:23:04.000Z</time>
      </trkpt>
      <trkpt lat="27.820666" lon="86.716051">
        <ele>3779.2</ele>
        <time>2022-10-21T06:23:07.000Z</time>
      </trkpt>
      <trkpt lat="27.82064" lon="86.716051">
        <ele>3779.6</ele>
        <time>2022-10-21T06:23:36.000Z</time>
      </trkpt>
      <trkpt lat="27.820602" lon="86.716051">
        <ele>3779</ele>
        <time>2022-10-21T06:23:38.000Z</time>
      </trkpt>
      <trkpt lat="27.82057" lon="86.716051">
        <ele>3779</ele>
        <time>2022-10-21T06:23:40.000Z</time>
      </trkpt>
      <trkpt lat="27.82055" lon="86.716058">
        <ele>3779</ele>
        <time>2022-10-21T06:23:41.000Z</time>
      </trkpt>
      <trkpt lat="27.820518" lon="86.716058">
        <ele>3779</ele>
        <time>2022-10-21T06:23:43.000Z</time>
      </trkpt>
      <trkpt lat="27.820496" lon="86.716058">
        <ele>3779</ele>
        <time>2022-10-21T06:23:44.000Z</time>
      </trkpt>
      <trkpt lat="27.820474" lon="86.716051">
        <ele>3778.8</ele>
        <time>2022-10-21T06:23:46.000Z</time>
      </trkpt>
      <trkpt lat="27.820448" lon="86.716051">
        <ele>3778.8</ele>
        <time>2022-10-21T06:23:49.000Z</time>
      </trkpt>
      <trkpt lat="27.820422" lon="86.716051">
        <ele>3779</ele>
        <time>2022-10-21T06:23:51.000Z</time>
      </trkpt>
      <trkpt lat="27.8204" lon="86.716058">
        <ele>3779</ele>
        <time>2022-10-21T06:23:53.000Z</time>
      </trkpt>
      <trkpt lat="27.820381" lon="86.716064">
        <ele>3779.4</ele>
        <time>2022-10-21T06:23:55.000Z</time>
      </trkpt>
      <trkpt lat="27.820352" lon="86.71607">
        <ele>3779</ele>
        <time>2022-10-21T06:23:58.000Z</time>
      </trkpt>
      <trkpt lat="27.820326" lon="86.71607">
        <ele>3778.8</ele>
        <time>2022-10-21T06:24:00.000Z</time>
      </trkpt>
      <trkpt lat="27.820301" lon="86.716077">
        <ele>3778.6</ele>
        <time>2022-10-21T06:24:02.000Z</time>
      </trkpt>
      <trkpt lat="27.820278" lon="86.716077">
        <ele>3778.6</ele>
        <time>2022-10-21T06:24:04.000Z</time>
      </trkpt>
      <trkpt lat="27.820256" lon="86.71609">
        <ele>3778.6</ele>
        <time>2022-10-21T06:24:06.000Z</time>
      </trkpt>
      <trkpt lat="27.82023" lon="86.716077">
        <ele>3778.2</ele>
        <time>2022-10-21T06:24:08.000Z</time>
      </trkpt>
      <trkpt lat="27.820208" lon="86.71607">
        <ele>3778</ele>
        <time>2022-10-21T06:24:10.000Z</time>
      </trkpt>
      <trkpt lat="27.820189" lon="86.71607">
        <ele>3778.2</ele>
        <time>2022-10-21T06:24:12.000Z</time>
      </trkpt>
      <trkpt lat="27.820166" lon="86.716077">
        <ele>3778</ele>
        <time>2022-10-21T06:24:14.000Z</time>
      </trkpt>
      <trkpt lat="27.820147" lon="86.716077">
        <ele>3778.2</ele>
        <time>2022-10-21T06:24:16.000Z</time>
      </trkpt>
      <trkpt lat="27.820128" lon="86.71609">
        <ele>3778.2</ele>
        <time>2022-10-21T06:24:19.000Z</time>
      </trkpt>
      <trkpt lat="27.820109" lon="86.71609">
        <ele>3778.2</ele>
        <time>2022-10-21T06:24:21.000Z</time>
      </trkpt>
      <trkpt lat="27.820086" lon="86.716096">
        <ele>3778.2</ele>
        <time>2022-10-21T06:24:24.000Z</time>
      </trkpt>
      <trkpt lat="27.820061" lon="86.716096">
        <ele>3777.8</ele>
        <time>2022-10-21T06:24:27.000Z</time>
      </trkpt>
      <trkpt lat="27.820042" lon="86.716096">
        <ele>3777.8</ele>
        <time>2022-10-21T06:24:33.000Z</time>
      </trkpt>
      <trkpt lat="27.820022" lon="86.716096">
        <ele>3777</ele>
        <time>2022-10-21T06:24:50.000Z</time>
      </trkpt>
      <trkpt lat="27.82" lon="86.716102">
        <ele>3777.2</ele>
        <time>2022-10-21T06:24:52.000Z</time>
      </trkpt>
      <trkpt lat="27.819984" lon="86.716115">
        <ele>3777.4</ele>
        <time>2022-10-21T06:24:54.000Z</time>
      </trkpt>
      <trkpt lat="27.819974" lon="86.716134">
        <ele>3777.4</ele>
        <time>2022-10-21T06:24:56.000Z</time>
      </trkpt>
      <trkpt lat="27.819965" lon="86.716154">
        <ele>3777.8</ele>
        <time>2022-10-21T06:24:58.000Z</time>
      </trkpt>
      <trkpt lat="27.819965" lon="86.71623">
        <ele>3777.6</ele>
        <time>2022-10-21T06:25:05.000Z</time>
      </trkpt>
      <trkpt lat="27.819942" lon="86.71625">
        <ele>3777.6</ele>
        <time>2022-10-21T06:25:07.000Z</time>
      </trkpt>
      <trkpt lat="27.819917" lon="86.716256">
        <ele>3777.6</ele>
        <time>2022-10-21T06:25:10.000Z</time>
      </trkpt>
      <trkpt lat="27.819875" lon="86.716262">
        <ele>3776.8</ele>
        <time>2022-10-21T06:25:20.000Z</time>
      </trkpt>
      <trkpt lat="27.819904" lon="86.716269">
        <ele>3777.2</ele>
        <time>2022-10-21T06:26:06.000Z</time>
      </trkpt>
      <trkpt lat="27.81993" lon="86.716269">
        <ele>3777.4</ele>
        <time>2022-10-21T06:26:09.000Z</time>
      </trkpt>
      <trkpt lat="27.819958" lon="86.716262">
        <ele>3777.8</ele>
        <time>2022-10-21T06:27:02.000Z</time>
      </trkpt>
      <trkpt lat="27.81999" lon="86.716237">
        <ele>3777.6</ele>
        <time>2022-10-21T06:27:04.000Z</time>
      </trkpt>
      <trkpt lat="27.82001" lon="86.716224">
        <ele>3778</ele>
        <time>2022-10-21T06:27:05.000Z</time>
      </trkpt>
      <trkpt lat="27.820038" lon="86.716211">
        <ele>3778</ele>
        <time>2022-10-21T06:27:07.000Z</time>
      </trkpt>
      <trkpt lat="27.820067" lon="86.716186">
        <ele>3777.6</ele>
        <time>2022-10-21T06:27:09.000Z</time>
      </trkpt>
      <trkpt lat="27.820086" lon="86.716179">
        <ele>3777.6</ele>
        <time>2022-10-21T06:27:10.000Z</time>
      </trkpt>
      <trkpt lat="27.820109" lon="86.716166">
        <ele>3777.6</ele>
        <time>2022-10-21T06:27:12.000Z</time>
      </trkpt>
      <trkpt lat="27.820128" lon="86.716166">
        <ele>3778.6</ele>
        <time>2022-10-21T06:27:15.000Z</time>
      </trkpt>
      <trkpt lat="27.820147" lon="86.716166">
        <ele>3778.6</ele>
        <time>2022-10-21T06:27:17.000Z</time>
      </trkpt>
      <trkpt lat="27.820157" lon="86.716147">
        <ele>3778.6</ele>
        <time>2022-10-21T06:27:19.000Z</time>
      </trkpt>
      <trkpt lat="27.820182" lon="86.716147">
        <ele>3778</ele>
        <time>2022-10-21T06:27:22.000Z</time>
      </trkpt>
      <trkpt lat="27.820205" lon="86.716141">
        <ele>3777.8</ele>
        <time>2022-10-21T06:27:25.000Z</time>
      </trkpt>
      <trkpt lat="27.820243" lon="86.716141">
        <ele>3777.6</ele>
        <time>2022-10-21T06:28:41.000Z</time>
      </trkpt>
      <trkpt lat="27.820275" lon="86.716134">
        <ele>3777.8</ele>
        <time>2022-10-21T06:28:43.000Z</time>
      </trkpt>
      <trkpt lat="27.820307" lon="86.716134">
        <ele>3777.6</ele>
        <time>2022-10-21T06:28:45.000Z</time>
      </trkpt>
      <trkpt lat="27.820339" lon="86.716128">
        <ele>3777.8</ele>
        <time>2022-10-21T06:28:47.000Z</time>
      </trkpt>
      <trkpt lat="27.820371" lon="86.716128">
        <ele>3778.6</ele>
        <time>2022-10-21T06:28:49.000Z</time>
      </trkpt>
      <trkpt lat="27.8204" lon="86.716128">
        <ele>3778.6</ele>
        <time>2022-10-21T06:28:51.000Z</time>
      </trkpt>
      <trkpt lat="27.820422" lon="86.716128">
        <ele>3778.4</ele>
        <time>2022-10-21T06:28:53.000Z</time>
      </trkpt>
      <trkpt lat="27.820445" lon="86.716115">
        <ele>3778.6</ele>
        <time>2022-10-21T06:28:55.000Z</time>
      </trkpt>
      <trkpt lat="27.82047" lon="86.716115">
        <ele>3778.6</ele>
        <time>2022-10-21T06:28:57.000Z</time>
      </trkpt>
      <trkpt lat="27.820493" lon="86.716109">
        <ele>3778.6</ele>
        <time>2022-10-21T06:28:59.000Z</time>
      </trkpt>
      <trkpt lat="27.820512" lon="86.716109">
        <ele>3778</ele>
        <time>2022-10-21T06:29:01.000Z</time>
      </trkpt>
      <trkpt lat="27.820534" lon="86.716102">
        <ele>3777.8</ele>
        <time>2022-10-21T06:29:03.000Z</time>
      </trkpt>
      <trkpt lat="27.82056" lon="86.716096">
        <ele>3777.8</ele>
        <time>2022-10-21T06:29:05.000Z</time>
      </trkpt>
      <trkpt lat="27.820579" lon="86.716096">
        <ele>3777.8</ele>
        <time>2022-10-21T06:29:07.000Z</time>
      </trkpt>
      <trkpt lat="27.820605" lon="86.71609">
        <ele>3778</ele>
        <time>2022-10-21T06:29:09.000Z</time>
      </trkpt>
      <trkpt lat="27.82063" lon="86.716096">
        <ele>3778</ele>
        <time>2022-10-21T06:29:11.000Z</time>
      </trkpt>
      <trkpt lat="27.82065" lon="86.71609">
        <ele>3777.8</ele>
        <time>2022-10-21T06:29:13.000Z</time>
      </trkpt>
      <trkpt lat="27.820669" lon="86.71609">
        <ele>3778</ele>
        <time>2022-10-21T06:29:15.000Z</time>
      </trkpt>
      <trkpt lat="27.820694" lon="86.71609">
        <ele>3777.8</ele>
        <time>2022-10-21T06:29:17.000Z</time>
      </trkpt>
      <trkpt lat="27.82072" lon="86.71609">
        <ele>3778</ele>
        <time>2022-10-21T06:29:19.000Z</time>
      </trkpt>
      <trkpt lat="27.820739" lon="86.71609">
        <ele>3778.2</ele>
        <time>2022-10-21T06:29:21.000Z</time>
      </trkpt>
      <trkpt lat="27.820762" lon="86.716096">
        <ele>3778.2</ele>
        <time>2022-10-21T06:29:23.000Z</time>
      </trkpt>
      <trkpt lat="27.820784" lon="86.716096">
        <ele>3778.4</ele>
        <time>2022-10-21T06:29:25.000Z</time>
      </trkpt>
      <trkpt lat="27.82081" lon="86.716096">
        <ele>3778.2</ele>
        <time>2022-10-21T06:29:27.000Z</time>
      </trkpt>
      <trkpt lat="27.820829" lon="86.716096">
        <ele>3778.4</ele>
        <time>2022-10-21T06:29:29.000Z</time>
      </trkpt>
      <trkpt lat="27.820854" lon="86.716102">
        <ele>3778.4</ele>
        <time>2022-10-21T06:29:31.000Z</time>
      </trkpt>
      <trkpt lat="27.820874" lon="86.716109">
        <ele>3778.4</ele>
        <time>2022-10-21T06:29:33.000Z</time>
      </trkpt>
      <trkpt lat="27.820896" lon="86.716128">
        <ele>3778</ele>
        <time>2022-10-21T06:29:35.000Z</time>
      </trkpt>
      <trkpt lat="27.820918" lon="86.716128">
        <ele>3778.4</ele>
        <time>2022-10-21T06:29:37.000Z</time>
      </trkpt>
      <trkpt lat="27.820944" lon="86.716134">
        <ele>3778.4</ele>
        <time>2022-10-21T06:29:39.000Z</time>
      </trkpt>
      <trkpt lat="27.820973" lon="86.716147">
        <ele>3778.4</ele>
        <time>2022-10-21T06:29:42.000Z</time>
      </trkpt>
      <trkpt lat="27.820998" lon="86.716141">
        <ele>3778.6</ele>
        <time>2022-10-21T06:29:44.000Z</time>
      </trkpt>
      <trkpt lat="27.821021" lon="86.716147">
        <ele>3778.6</ele>
        <time>2022-10-21T06:29:46.000Z</time>
      </trkpt>
      <trkpt lat="27.82104" lon="86.716154">
        <ele>3778.6</ele>
        <time>2022-10-21T06:29:48.000Z</time>
      </trkpt>
      <trkpt lat="27.821056" lon="86.716166">
        <ele>3778.2</ele>
        <time>2022-10-21T06:29:50.000Z</time>
      </trkpt>
      <trkpt lat="27.821078" lon="86.716173">
        <ele>3778.6</ele>
        <time>2022-10-21T06:29:52.000Z</time>
      </trkpt>
      <trkpt lat="27.821101" lon="86.716179">
        <ele>3778.6</ele>
        <time>2022-10-21T06:29:54.000Z</time>
      </trkpt>
      <trkpt lat="27.82112" lon="86.716186">
        <ele>3778.8</ele>
        <time>2022-10-21T06:29:56.000Z</time>
      </trkpt>
      <trkpt lat="27.821142" lon="86.716186">
        <ele>3778.6</ele>
        <time>2022-10-21T06:29:58.000Z</time>
      </trkpt>
      <trkpt lat="27.821162" lon="86.716192">
        <ele>3778.8</ele>
        <time>2022-10-21T06:30:00.000Z</time>
      </trkpt>
      <trkpt lat="27.821187" lon="86.716205">
        <ele>3778.8</ele>
        <time>2022-10-21T06:30:02.000Z</time>
      </trkpt>
      <trkpt lat="27.82121" lon="86.716211">
        <ele>3778.8</ele>
        <time>2022-10-21T06:30:04.000Z</time>
      </trkpt>
      <trkpt lat="27.821232" lon="86.716224">
        <ele>3778.8</ele>
        <time>2022-10-21T06:30:06.000Z</time>
      </trkpt>
      <trkpt lat="27.821251" lon="86.716237">
        <ele>3779</ele>
        <time>2022-10-21T06:30:08.000Z</time>
      </trkpt>
      <trkpt lat="27.82127" lon="86.716256">
        <ele>3779</ele>
        <time>2022-10-21T06:30:10.000Z</time>
      </trkpt>
      <trkpt lat="27.821286" lon="86.716269">
        <ele>3779.2</ele>
        <time>2022-10-21T06:30:12.000Z</time>
      </trkpt>
      <trkpt lat="27.821296" lon="86.716288">
        <ele>3779.2</ele>
        <time>2022-10-21T06:30:13.000Z</time>
      </trkpt>
      <trkpt lat="27.821315" lon="86.716301">
        <ele>3779.2</ele>
        <time>2022-10-21T06:30:15.000Z</time>
      </trkpt>
      <trkpt lat="27.821338" lon="86.716314">
        <ele>3779.2</ele>
        <time>2022-10-21T06:30:17.000Z</time>
      </trkpt>
      <trkpt lat="27.821357" lon="86.716333">
        <ele>3779.2</ele>
        <time>2022-10-21T06:30:19.000Z</time>
      </trkpt>
      <trkpt lat="27.821376" lon="86.716346">
        <ele>3779</ele>
        <time>2022-10-21T06:30:21.000Z</time>
      </trkpt>
      <trkpt lat="27.821389" lon="86.716365">
        <ele>3779.2</ele>
        <time>2022-10-21T06:30:23.000Z</time>
      </trkpt>
      <trkpt lat="27.821408" lon="86.716378">
        <ele>3779.2</ele>
        <time>2022-10-21T06:30:25.000Z</time>
      </trkpt>
      <trkpt lat="27.821427" lon="86.71639">
        <ele>3779</ele>
        <time>2022-10-21T06:30:27.000Z</time>
      </trkpt>
      <trkpt lat="27.821446" lon="86.71641">
        <ele>3779</ele>
        <time>2022-10-21T06:30:29.000Z</time>
      </trkpt>
      <trkpt lat="27.821469" lon="86.716429">
        <ele>3779</ele>
        <time>2022-10-21T06:30:31.000Z</time>
      </trkpt>
      <trkpt lat="27.821478" lon="86.716448">
        <ele>3779</ele>
        <time>2022-10-21T06:30:32.000Z</time>
      </trkpt>
      <trkpt lat="27.821494" lon="86.716461">
        <ele>3779.2</ele>
        <time>2022-10-21T06:30:34.000Z</time>
      </trkpt>
      <trkpt lat="27.821514" lon="86.716467">
        <ele>3779.2</ele>
        <time>2022-10-21T06:30:36.000Z</time>
      </trkpt>
      <trkpt lat="27.821536" lon="86.716486">
        <ele>3779</ele>
        <time>2022-10-21T06:30:38.000Z</time>
      </trkpt>
      <trkpt lat="27.821555" lon="86.716493">
        <ele>3778.6</ele>
        <time>2022-10-21T06:30:40.000Z</time>
      </trkpt>
      <trkpt lat="27.821574" lon="86.716506">
        <ele>3778.6</ele>
        <time>2022-10-21T06:30:42.000Z</time>
      </trkpt>
      <trkpt lat="27.821594" lon="86.716525">
        <ele>3778.6</ele>
        <time>2022-10-21T06:30:44.000Z</time>
      </trkpt>
      <trkpt lat="27.82161" lon="86.716538">
        <ele>3779</ele>
        <time>2022-10-21T06:30:46.000Z</time>
      </trkpt>
      <trkpt lat="27.821622" lon="86.716563">
        <ele>3779</ele>
        <time>2022-10-21T06:30:48.000Z</time>
      </trkpt>
      <trkpt lat="27.821632" lon="86.716589">
        <ele>3779</ele>
        <time>2022-10-21T06:30:50.000Z</time>
      </trkpt>
      <trkpt lat="27.821638" lon="86.716621">
        <ele>3778.4</ele>
        <time>2022-10-21T06:30:52.000Z</time>
      </trkpt>
      <trkpt lat="27.821642" lon="86.716646">
        <ele>3778.4</ele>
        <time>2022-10-21T06:30:54.000Z</time>
      </trkpt>
      <trkpt lat="27.821648" lon="86.716666">
        <ele>3778.2</ele>
        <time>2022-10-21T06:30:56.000Z</time>
      </trkpt>
      <trkpt lat="27.821664" lon="86.716691">
        <ele>3778.4</ele>
        <time>2022-10-21T06:30:58.000Z</time>
      </trkpt>
      <trkpt lat="27.821683" lon="86.716704">
        <ele>3778.2</ele>
        <time>2022-10-21T06:31:00.000Z</time>
      </trkpt>
      <trkpt lat="27.82169" lon="86.716736">
        <ele>3778.2</ele>
        <time>2022-10-21T06:31:02.000Z</time>
      </trkpt>
      <trkpt lat="27.821699" lon="86.716762">
        <ele>3778.2</ele>
        <time>2022-10-21T06:31:04.000Z</time>
      </trkpt>
      <trkpt lat="27.821709" lon="86.716781">
        <ele>3778.2</ele>
        <time>2022-10-21T06:31:06.000Z</time>
      </trkpt>
      <trkpt lat="27.821715" lon="86.716813">
        <ele>3778.2</ele>
        <time>2022-10-21T06:31:08.000Z</time>
      </trkpt>
      <trkpt lat="27.821718" lon="86.716845">
        <ele>3778.2</ele>
        <time>2022-10-21T06:31:11.000Z</time>
      </trkpt>
      <trkpt lat="27.821725" lon="86.716864">
        <ele>3778</ele>
        <time>2022-10-21T06:31:13.000Z</time>
      </trkpt>
      <trkpt lat="27.821731" lon="86.71689">
        <ele>3778</ele>
        <time>2022-10-21T06:31:15.000Z</time>
      </trkpt>
      <trkpt lat="27.821734" lon="86.716922">
        <ele>3778</ele>
        <time>2022-10-21T06:31:17.000Z</time>
      </trkpt>
      <trkpt lat="27.821741" lon="86.716941">
        <ele>3777.6</ele>
        <time>2022-10-21T06:31:19.000Z</time>
      </trkpt>
      <trkpt lat="27.821747" lon="86.71696">
        <ele>3777.6</ele>
        <time>2022-10-21T06:31:20.000Z</time>
      </trkpt>
      <trkpt lat="27.821754" lon="86.716979">
        <ele>3777.6</ele>
        <time>2022-10-21T06:31:22.000Z</time>
      </trkpt>
      <trkpt lat="27.821754" lon="86.717011">
        <ele>3777.6</ele>
        <time>2022-10-21T06:31:24.000Z</time>
      </trkpt>
      <trkpt lat="27.821763" lon="86.71703">
        <ele>3777.6</ele>
        <time>2022-10-21T06:31:26.000Z</time>
      </trkpt>
      <trkpt lat="27.821773" lon="86.71705">
        <ele>3777.6</ele>
        <time>2022-10-21T06:31:28.000Z</time>
      </trkpt>
      <trkpt lat="27.821782" lon="86.717069">
        <ele>3777.4</ele>
        <time>2022-10-21T06:31:30.000Z</time>
      </trkpt>
      <trkpt lat="27.821792" lon="86.717088">
        <ele>3777.4</ele>
        <time>2022-10-21T06:31:32.000Z</time>
      </trkpt>
      <trkpt lat="27.821814" lon="86.71712">
        <ele>3777.2</ele>
        <time>2022-10-21T06:31:35.000Z</time>
      </trkpt>
      <trkpt lat="27.82183" lon="86.717139">
        <ele>3777.2</ele>
        <time>2022-10-21T06:31:38.000Z</time>
      </trkpt>
      <trkpt lat="27.82184" lon="86.717158">
        <ele>3776.8</ele>
        <time>2022-10-21T06:31:40.000Z</time>
      </trkpt>
      <trkpt lat="27.821856" lon="86.717178">
        <ele>3776.8</ele>
        <time>2022-10-21T06:31:42.000Z</time>
      </trkpt>
      <trkpt lat="27.821872" lon="86.717197">
        <ele>3776.8</ele>
        <time>2022-10-21T06:31:44.000Z</time>
      </trkpt>
      <trkpt lat="27.821891" lon="86.717216">
        <ele>3776.8</ele>
        <time>2022-10-21T06:31:47.000Z</time>
      </trkpt>
      <trkpt lat="27.82191" lon="86.717229">
        <ele>3776.6</ele>
        <time>2022-10-21T06:31:49.000Z</time>
      </trkpt>
      <trkpt lat="27.821926" lon="86.717248">
        <ele>3776.8</ele>
        <time>2022-10-21T06:31:51.000Z</time>
      </trkpt>
      <trkpt lat="27.821942" lon="86.717261">
        <ele>3776.6</ele>
        <time>2022-10-21T06:31:53.000Z</time>
      </trkpt>
      <trkpt lat="27.821952" lon="86.71728">
        <ele>3776.6</ele>
        <time>2022-10-21T06:31:55.000Z</time>
      </trkpt>
      <trkpt lat="27.821968" lon="86.717293">
        <ele>3776.4</ele>
        <time>2022-10-21T06:31:57.000Z</time>
      </trkpt>
      <trkpt lat="27.82199" lon="86.717318">
        <ele>3776.4</ele>
        <time>2022-10-21T06:31:59.000Z</time>
      </trkpt>
      <trkpt lat="27.82201" lon="86.717331">
        <ele>3776.4</ele>
        <time>2022-10-21T06:32:01.000Z</time>
      </trkpt>
      <trkpt lat="27.822029" lon="86.717344">
        <ele>3777</ele>
        <time>2022-10-21T06:32:03.000Z</time>
      </trkpt>
      <trkpt lat="27.822042" lon="86.717363">
        <ele>3776.4</ele>
        <time>2022-10-21T06:32:05.000Z</time>
      </trkpt>
      <trkpt lat="27.82207" lon="86.717389">
        <ele>3775.8</ele>
        <time>2022-10-21T06:32:08.000Z</time>
      </trkpt>
      <trkpt lat="27.822096" lon="86.717408">
        <ele>3775.8</ele>
        <time>2022-10-21T06:32:11.000Z</time>
      </trkpt>
      <trkpt lat="27.822122" lon="86.717414">
        <ele>3775.8</ele>
        <time>2022-10-21T06:32:14.000Z</time>
      </trkpt>
      <trkpt lat="27.822141" lon="86.717421">
        <ele>3775.2</ele>
        <time>2022-10-21T06:32:16.000Z</time>
      </trkpt>
      <trkpt lat="27.82216" lon="86.717427">
        <ele>3775.2</ele>
        <time>2022-10-21T06:32:18.000Z</time>
      </trkpt>
      <trkpt lat="27.822179" lon="86.71744">
        <ele>3775.2</ele>
        <time>2022-10-21T06:32:20.000Z</time>
      </trkpt>
      <trkpt lat="27.822198" lon="86.717453">
        <ele>3775.2</ele>
        <time>2022-10-21T06:32:22.000Z</time>
      </trkpt>
      <trkpt lat="27.822218" lon="86.717466">
        <ele>3775.2</ele>
        <time>2022-10-21T06:32:24.000Z</time>
      </trkpt>
      <trkpt lat="27.82223" lon="86.717485">
        <ele>3775</ele>
        <time>2022-10-21T06:32:26.000Z</time>
      </trkpt>
      <trkpt lat="27.822246" lon="86.717498">
        <ele>3775</ele>
        <time>2022-10-21T06:32:28.000Z</time>
      </trkpt>
      <trkpt lat="27.822262" lon="86.717517">
        <ele>3775.2</ele>
        <time>2022-10-21T06:32:30.000Z</time>
      </trkpt>
      <trkpt lat="27.822282" lon="86.71753">
        <ele>3775.6</ele>
        <time>2022-10-21T06:32:32.000Z</time>
      </trkpt>
      <trkpt lat="27.822301" lon="86.717542">
        <ele>3775.4</ele>
        <time>2022-10-21T06:32:34.000Z</time>
      </trkpt>
      <trkpt lat="27.822307" lon="86.717562">
        <ele>3774.8</ele>
        <time>2022-10-21T06:32:36.000Z</time>
      </trkpt>
      <trkpt lat="27.822323" lon="86.717574">
        <ele>3774.6</ele>
        <time>2022-10-21T06:32:38.000Z</time>
      </trkpt>
      <trkpt lat="27.822346" lon="86.7176">
        <ele>3774.8</ele>
        <time>2022-10-21T06:32:41.000Z</time>
      </trkpt>
      <trkpt lat="27.822362" lon="86.717613">
        <ele>3774.8</ele>
        <time>2022-10-21T06:32:43.000Z</time>
      </trkpt>
      <trkpt lat="27.822381" lon="86.717626">
        <ele>3774.6</ele>
        <time>2022-10-21T06:32:45.000Z</time>
      </trkpt>
      <trkpt lat="27.822394" lon="86.717645">
        <ele>3774.2</ele>
        <time>2022-10-21T06:32:47.000Z</time>
      </trkpt>
      <trkpt lat="27.82241" lon="86.717664">
        <ele>3774.4</ele>
        <time>2022-10-21T06:32:50.000Z</time>
      </trkpt>
      <trkpt lat="27.822419" lon="86.71769">
        <ele>3774.2</ele>
        <time>2022-10-21T06:32:52.000Z</time>
      </trkpt>
      <trkpt lat="27.822429" lon="86.717715">
        <ele>3774</ele>
        <time>2022-10-21T06:32:55.000Z</time>
      </trkpt>
      <trkpt lat="27.822438" lon="86.717734">
        <ele>3774</ele>
        <time>2022-10-21T06:32:58.000Z</time>
      </trkpt>
      <trkpt lat="27.822451" lon="86.717754">
        <ele>3773.8</ele>
        <time>2022-10-21T06:33:00.000Z</time>
      </trkpt>
      <trkpt lat="27.822458" lon="86.717779">
        <ele>3774</ele>
        <time>2022-10-21T06:33:03.000Z</time>
      </trkpt>
      <trkpt lat="27.82247" lon="86.717798">
        <ele>3773.6</ele>
        <time>2022-10-21T06:33:05.000Z</time>
      </trkpt>
      <trkpt lat="27.82248" lon="86.717818">
        <ele>3773.4</ele>
        <time>2022-10-21T06:33:07.000Z</time>
      </trkpt>
      <trkpt lat="27.82249" lon="86.717843">
        <ele>3773.6</ele>
        <time>2022-10-21T06:33:09.000Z</time>
      </trkpt>
      <trkpt lat="27.822499" lon="86.717862">
        <ele>3773.4</ele>
        <time>2022-10-21T06:33:11.000Z</time>
      </trkpt>
      <trkpt lat="27.822506" lon="86.717888">
        <ele>3773.4</ele>
        <time>2022-10-21T06:33:13.000Z</time>
      </trkpt>
      <trkpt lat="27.822512" lon="86.717914">
        <ele>3773.2</ele>
        <time>2022-10-21T06:33:15.000Z</time>
      </trkpt>
      <trkpt lat="27.822518" lon="86.717933">
        <ele>3773.2</ele>
        <time>2022-10-21T06:33:17.000Z</time>
      </trkpt>
      <trkpt lat="27.822525" lon="86.717958">
        <ele>3773.2</ele>
        <time>2022-10-21T06:33:19.000Z</time>
      </trkpt>
      <trkpt lat="27.822534" lon="86.717978">
        <ele>3773.4</ele>
        <time>2022-10-21T06:33:21.000Z</time>
      </trkpt>
      <trkpt lat="27.822541" lon="86.718003">
        <ele>3773.2</ele>
        <time>2022-10-21T06:33:23.000Z</time>
      </trkpt>
      <trkpt lat="27.82255" lon="86.718022">
        <ele>3772.8</ele>
        <time>2022-10-21T06:33:25.000Z</time>
      </trkpt>
      <trkpt lat="27.822557" lon="86.718042">
        <ele>3772.8</ele>
        <time>2022-10-21T06:33:26.000Z</time>
      </trkpt>
      <trkpt lat="27.822563" lon="86.71808">
        <ele>3772.6</ele>
        <time>2022-10-21T06:33:29.000Z</time>
      </trkpt>
      <trkpt lat="27.82257" lon="86.718099">
        <ele>3772.6</ele>
        <time>2022-10-21T06:33:31.000Z</time>
      </trkpt>
      <trkpt lat="27.822576" lon="86.718118">
        <ele>3772.6</ele>
        <time>2022-10-21T06:33:32.000Z</time>
      </trkpt>
      <trkpt lat="27.822595" lon="86.71815">
        <ele>3772.6</ele>
        <time>2022-10-21T06:33:35.000Z</time>
      </trkpt>
      <trkpt lat="27.822602" lon="86.71817">
        <ele>3772.6</ele>
        <time>2022-10-21T06:33:37.000Z</time>
      </trkpt>
      <trkpt lat="27.822608" lon="86.718195">
        <ele>3772.6</ele>
        <time>2022-10-21T06:33:39.000Z</time>
      </trkpt>
      <trkpt lat="27.822618" lon="86.718214">
        <ele>3772.6</ele>
        <time>2022-10-21T06:33:41.000Z</time>
      </trkpt>
      <trkpt lat="27.822627" lon="86.71824">
        <ele>3772.4</ele>
        <time>2022-10-21T06:33:43.000Z</time>
      </trkpt>
      <trkpt lat="27.822637" lon="86.718259">
        <ele>3772.4</ele>
        <time>2022-10-21T06:33:45.000Z</time>
      </trkpt>
      <trkpt lat="27.82264" lon="86.718285">
        <ele>3772.4</ele>
        <time>2022-10-21T06:33:47.000Z</time>
      </trkpt>
      <trkpt lat="27.82265" lon="86.718317">
        <ele>3772.6</ele>
        <time>2022-10-21T06:33:49.000Z</time>
      </trkpt>
      <trkpt lat="27.822656" lon="86.718336">
        <ele>3772</ele>
        <time>2022-10-21T06:33:52.000Z</time>
      </trkpt>
      <trkpt lat="27.822659" lon="86.718362">
        <ele>3772</ele>
        <time>2022-10-21T06:33:54.000Z</time>
      </trkpt>
      <trkpt lat="27.822662" lon="86.7184">
        <ele>3771.8</ele>
        <time>2022-10-21T06:33:57.000Z</time>
      </trkpt>
      <trkpt lat="27.822669" lon="86.718419">
        <ele>3771.8</ele>
        <time>2022-10-21T06:33:59.000Z</time>
      </trkpt>
      <trkpt lat="27.822672" lon="86.718451">
        <ele>3771.4</ele>
        <time>2022-10-21T06:34:01.000Z</time>
      </trkpt>
      <trkpt lat="27.822675" lon="86.718477">
        <ele>3771.2</ele>
        <time>2022-10-21T06:34:03.000Z</time>
      </trkpt>
      <trkpt lat="27.822678" lon="86.718509">
        <ele>3771.2</ele>
        <time>2022-10-21T06:34:05.000Z</time>
      </trkpt>
      <trkpt lat="27.822678" lon="86.718534">
        <ele>3771</ele>
        <time>2022-10-21T06:34:08.000Z</time>
      </trkpt>
      <trkpt lat="27.822678" lon="86.71856">
        <ele>3771.2</ele>
        <time>2022-10-21T06:34:10.000Z</time>
      </trkpt>
      <trkpt lat="27.822685" lon="86.718598">
        <ele>3771.4</ele>
        <time>2022-10-21T06:34:13.000Z</time>
      </trkpt>
      <trkpt lat="27.822688" lon="86.71863">
        <ele>3770.8</ele>
        <time>2022-10-21T06:34:16.000Z</time>
      </trkpt>
      <trkpt lat="27.822694" lon="86.71865">
        <ele>3770.8</ele>
        <time>2022-10-21T06:34:18.000Z</time>
      </trkpt>
      <trkpt lat="27.822698" lon="86.718675">
        <ele>3770.8</ele>
        <time>2022-10-21T06:34:21.000Z</time>
      </trkpt>
      <trkpt lat="27.822701" lon="86.718707">
        <ele>3770.4</ele>
        <time>2022-10-21T06:34:24.000Z</time>
      </trkpt>
      <trkpt lat="27.822691" lon="86.718726">
        <ele>3770.4</ele>
        <time>2022-10-21T06:34:26.000Z</time>
      </trkpt>
      <trkpt lat="27.822688" lon="86.718752">
        <ele>3770.2</ele>
        <time>2022-10-21T06:34:28.000Z</time>
      </trkpt>
      <trkpt lat="27.822682" lon="86.718771">
        <ele>3770.4</ele>
        <time>2022-10-21T06:34:30.000Z</time>
      </trkpt>
      <trkpt lat="27.822678" lon="86.718797">
        <ele>3770</ele>
        <time>2022-10-21T06:34:33.000Z</time>
      </trkpt>
      <trkpt lat="27.822675" lon="86.718829">
        <ele>3770</ele>
        <time>2022-10-21T06:34:36.000Z</time>
      </trkpt>
      <trkpt lat="27.822678" lon="86.718867">
        <ele>3770.2</ele>
        <time>2022-10-21T06:34:44.000Z</time>
      </trkpt>
      <trkpt lat="27.822678" lon="86.718893">
        <ele>3769.6</ele>
        <time>2022-10-21T06:34:47.000Z</time>
      </trkpt>
      <trkpt lat="27.822678" lon="86.718918">
        <ele>3770</ele>
        <time>2022-10-21T06:34:49.000Z</time>
      </trkpt>
      <trkpt lat="27.822675" lon="86.71895">
        <ele>3769.8</ele>
        <time>2022-10-21T06:34:51.000Z</time>
      </trkpt>
      <trkpt lat="27.822675" lon="86.718989">
        <ele>3769.8</ele>
        <time>2022-10-21T06:34:54.000Z</time>
      </trkpt>
      <trkpt lat="27.822669" lon="86.719008">
        <ele>3769.6</ele>
        <time>2022-10-21T06:34:56.000Z</time>
      </trkpt>
      <trkpt lat="27.822662" lon="86.719034">
        <ele>3769.4</ele>
        <time>2022-10-21T06:34:58.000Z</time>
      </trkpt>
      <trkpt lat="27.822653" lon="86.71911">
        <ele>3770</ele>
        <time>2022-10-21T06:35:36.000Z</time>
      </trkpt>
      <trkpt lat="27.822659" lon="86.719136">
        <ele>3769.6</ele>
        <time>2022-10-21T06:35:38.000Z</time>
      </trkpt>
      <trkpt lat="27.822659" lon="86.719162">
        <ele>3769.6</ele>
        <time>2022-10-21T06:35:39.000Z</time>
      </trkpt>
      <trkpt lat="27.822662" lon="86.719194">
        <ele>3769.4</ele>
        <time>2022-10-21T06:35:41.000Z</time>
      </trkpt>
      <trkpt lat="27.822669" lon="86.719226">
        <ele>3769.6</ele>
        <time>2022-10-21T06:35:43.000Z</time>
      </trkpt>
      <trkpt lat="27.822669" lon="86.719251">
        <ele>3769.6</ele>
        <time>2022-10-21T06:35:45.000Z</time>
      </trkpt>
      <trkpt lat="27.822666" lon="86.719277">
        <ele>3769.4</ele>
        <time>2022-10-21T06:35:47.000Z</time>
      </trkpt>
      <trkpt lat="27.822666" lon="86.719302">
        <ele>3769.4</ele>
        <time>2022-10-21T06:35:49.000Z</time>
      </trkpt>
      <trkpt lat="27.822672" lon="86.719328">
        <ele>3769.4</ele>
        <time>2022-10-21T06:35:52.000Z</time>
      </trkpt>
      <trkpt lat="27.822678" lon="86.719347">
        <ele>3769.2</ele>
        <time>2022-10-21T06:35:54.000Z</time>
      </trkpt>
      <trkpt lat="27.822685" lon="86.719373">
        <ele>3769</ele>
        <time>2022-10-21T06:35:57.000Z</time>
      </trkpt>
      <trkpt lat="27.822688" lon="86.719398">
        <ele>3769</ele>
        <time>2022-10-21T06:35:59.000Z</time>
      </trkpt>
      <trkpt lat="27.822688" lon="86.719424">
        <ele>3769</ele>
        <time>2022-10-21T06:36:01.000Z</time>
      </trkpt>
      <trkpt lat="27.822688" lon="86.71945">
        <ele>3769</ele>
        <time>2022-10-21T06:36:05.000Z</time>
      </trkpt>
      <trkpt lat="27.822688" lon="86.719475">
        <ele>3768.6</ele>
        <time>2022-10-21T06:36:08.000Z</time>
      </trkpt>
      <trkpt lat="27.822688" lon="86.719501">
        <ele>3768.8</ele>
        <time>2022-10-21T06:36:17.000Z</time>
      </trkpt>
      <trkpt lat="27.822691" lon="86.719526">
        <ele>3768.8</ele>
        <time>2022-10-21T06:36:19.000Z</time>
      </trkpt>
      <trkpt lat="27.822694" lon="86.719552">
        <ele>3768.6</ele>
        <time>2022-10-21T06:36:21.000Z</time>
      </trkpt>
      <trkpt lat="27.822704" lon="86.719584">
        <ele>3768.4</ele>
        <time>2022-10-21T06:36:23.000Z</time>
      </trkpt>
      <trkpt lat="27.822707" lon="86.719622">
        <ele>3767.8</ele>
        <time>2022-10-21T06:36:26.000Z</time>
      </trkpt>
      <trkpt lat="27.822704" lon="86.719661">
        <ele>3768</ele>
        <time>2022-10-21T06:36:29.000Z</time>
      </trkpt>
      <trkpt lat="27.822704" lon="86.719686">
        <ele>3768</ele>
        <time>2022-10-21T06:36:32.000Z</time>
      </trkpt>
      <trkpt lat="27.822704" lon="86.719712">
        <ele>3767.8</ele>
        <time>2022-10-21T06:36:34.000Z</time>
      </trkpt>
      <trkpt lat="27.822707" lon="86.719744">
        <ele>3767.8</ele>
        <time>2022-10-21T06:36:36.000Z</time>
      </trkpt>
      <trkpt lat="27.822704" lon="86.719782">
        <ele>3768.8</ele>
        <time>2022-10-21T06:36:39.000Z</time>
      </trkpt>
      <trkpt lat="27.822698" lon="86.719821">
        <ele>3768.4</ele>
        <time>2022-10-21T06:36:42.000Z</time>
      </trkpt>
      <trkpt lat="27.822701" lon="86.719846">
        <ele>3768</ele>
        <time>2022-10-21T06:36:44.000Z</time>
      </trkpt>
      <trkpt lat="27.822701" lon="86.719872">
        <ele>3768</ele>
        <time>2022-10-21T06:36:46.000Z</time>
      </trkpt>
      <trkpt lat="27.822704" lon="86.719904">
        <ele>3767.4</ele>
        <time>2022-10-21T06:36:48.000Z</time>
      </trkpt>
      <trkpt lat="27.822704" lon="86.719942">
        <ele>3767.6</ele>
        <time>2022-10-21T06:36:51.000Z</time>
      </trkpt>
      <trkpt lat="27.822707" lon="86.719981">
        <ele>3767.4</ele>
        <time>2022-10-21T06:36:54.000Z</time>
      </trkpt>
      <trkpt lat="27.822707" lon="86.720006">
        <ele>3767.4</ele>
        <time>2022-10-21T06:36:56.000Z</time>
      </trkpt>
      <trkpt lat="27.822714" lon="86.720032">
        <ele>3767.2</ele>
        <time>2022-10-21T06:36:58.000Z</time>
      </trkpt>
      <trkpt lat="27.82271" lon="86.720058">
        <ele>3767</ele>
        <time>2022-10-21T06:37:00.000Z</time>
      </trkpt>
      <trkpt lat="27.82271" lon="86.72009">
        <ele>3767</ele>
        <time>2022-10-21T06:37:03.000Z</time>
      </trkpt>
      <trkpt lat="27.822717" lon="86.720115">
        <ele>3767</ele>
        <time>2022-10-21T06:37:05.000Z</time>
      </trkpt>
      <trkpt lat="27.822717" lon="86.720141">
        <ele>3767</ele>
        <time>2022-10-21T06:37:07.000Z</time>
      </trkpt>
      <trkpt lat="27.822726" lon="86.72016">
        <ele>3767</ele>
        <time>2022-10-21T06:37:09.000Z</time>
      </trkpt>
      <trkpt lat="27.822733" lon="86.720186">
        <ele>3767</ele>
        <time>2022-10-21T06:37:11.000Z</time>
      </trkpt>
      <trkpt lat="27.822749" lon="86.720218">
        <ele>3766.8</ele>
        <time>2022-10-21T06:37:14.000Z</time>
      </trkpt>
      <trkpt lat="27.822758" lon="86.720243">
        <ele>3766.8</ele>
        <time>2022-10-21T06:37:17.000Z</time>
      </trkpt>
      <trkpt lat="27.822758" lon="86.720269">
        <ele>3766.8</ele>
        <time>2022-10-21T06:37:19.000Z</time>
      </trkpt>
      <trkpt lat="27.822755" lon="86.720307">
        <ele>3767</ele>
        <time>2022-10-21T06:37:22.000Z</time>
      </trkpt>
      <trkpt lat="27.822758" lon="86.720339">
        <ele>3766.4</ele>
        <time>2022-10-21T06:37:25.000Z</time>
      </trkpt>
      <trkpt lat="27.822768" lon="86.720378">
        <ele>3766.4</ele>
        <time>2022-10-21T06:37:28.000Z</time>
      </trkpt>
      <trkpt lat="27.822774" lon="86.720397">
        <ele>3766.4</ele>
        <time>2022-10-21T06:37:30.000Z</time>
      </trkpt>
      <trkpt lat="27.822781" lon="86.720429">
        <ele>3766.6</ele>
        <time>2022-10-21T06:37:32.000Z</time>
      </trkpt>
      <trkpt lat="27.822784" lon="86.720454">
        <ele>3766.6</ele>
        <time>2022-10-21T06:37:34.000Z</time>
      </trkpt>
      <trkpt lat="27.822784" lon="86.720486">
        <ele>3766.4</ele>
        <time>2022-10-21T06:37:37.000Z</time>
      </trkpt>
      <trkpt lat="27.822784" lon="86.720512">
        <ele>3766</ele>
        <time>2022-10-21T06:37:39.000Z</time>
      </trkpt>
      <trkpt lat="27.822794" lon="86.720544">
        <ele>3766</ele>
        <time>2022-10-21T06:37:41.000Z</time>
      </trkpt>
      <trkpt lat="27.822806" lon="86.720563">
        <ele>3766</ele>
        <time>2022-10-21T06:37:43.000Z</time>
      </trkpt>
      <trkpt lat="27.82281" lon="86.720589">
        <ele>3766.2</ele>
        <time>2022-10-21T06:37:45.000Z</time>
      </trkpt>
      <trkpt lat="27.82281" lon="86.720614">
        <ele>3766.2</ele>
        <time>2022-10-21T06:37:47.000Z</time>
      </trkpt>
      <trkpt lat="27.822803" lon="86.720653">
        <ele>3766</ele>
        <time>2022-10-21T06:37:50.000Z</time>
      </trkpt>
      <trkpt lat="27.8228" lon="86.720678">
        <ele>3766</ele>
        <time>2022-10-21T06:37:53.000Z</time>
      </trkpt>
      <trkpt lat="27.822797" lon="86.720704">
        <ele>3766</ele>
        <time>2022-10-21T06:37:55.000Z</time>
      </trkpt>
      <trkpt lat="27.8228" lon="86.720736">
        <ele>3765.8</ele>
        <time>2022-10-21T06:37:57.000Z</time>
      </trkpt>
      <trkpt lat="27.822803" lon="86.720774">
        <ele>3766</ele>
        <time>2022-10-21T06:38:00.000Z</time>
      </trkpt>
      <trkpt lat="27.82281" lon="86.720813">
        <ele>3766</ele>
        <time>2022-10-21T06:38:03.000Z</time>
      </trkpt>
      <trkpt lat="27.82281" lon="86.720851">
        <ele>3765.8</ele>
        <time>2022-10-21T06:38:06.000Z</time>
      </trkpt>
      <trkpt lat="27.822813" lon="86.720883">
        <ele>3765.4</ele>
        <time>2022-10-21T06:38:09.000Z</time>
      </trkpt>
      <trkpt lat="27.822816" lon="86.720909">
        <ele>3765.6</ele>
        <time>2022-10-21T06:38:11.000Z</time>
      </trkpt>
      <trkpt lat="27.822816" lon="86.720934">
        <ele>3765.6</ele>
        <time>2022-10-21T06:38:13.000Z</time>
      </trkpt>
      <trkpt lat="27.822816" lon="86.720973">
        <ele>3765.4</ele>
        <time>2022-10-21T06:38:16.000Z</time>
      </trkpt>
      <trkpt lat="27.822816" lon="86.720998">
        <ele>3765.4</ele>
        <time>2022-10-21T06:38:19.000Z</time>
      </trkpt>
      <trkpt lat="27.82281" lon="86.721024">
        <ele>3765.4</ele>
        <time>2022-10-21T06:38:21.000Z</time>
      </trkpt>
      <trkpt lat="27.82281" lon="86.72105">
        <ele>3765.4</ele>
        <time>2022-10-21T06:38:23.000Z</time>
      </trkpt>
      <trkpt lat="27.82281" lon="86.721075">
        <ele>3765.4</ele>
        <time>2022-10-21T06:38:25.000Z</time>
      </trkpt>
      <trkpt lat="27.822813" lon="86.721101">
        <ele>3765.4</ele>
        <time>2022-10-21T06:38:27.000Z</time>
      </trkpt>
      <trkpt lat="27.82281" lon="86.721139">
        <ele>3765.6</ele>
        <time>2022-10-21T06:38:30.000Z</time>
      </trkpt>
      <trkpt lat="27.82281" lon="86.721171">
        <ele>3765.8</ele>
        <time>2022-10-21T06:38:33.000Z</time>
      </trkpt>
      <trkpt lat="27.822816" lon="86.72119">
        <ele>3766</ele>
        <time>2022-10-21T06:38:36.000Z</time>
      </trkpt>
      <trkpt lat="27.822838" lon="86.72121">
        <ele>3765.8</ele>
        <time>2022-10-21T06:38:43.000Z</time>
      </trkpt>
      <trkpt lat="27.822864" lon="86.72121">
        <ele>3765.8</ele>
        <time>2022-10-21T06:38:48.000Z</time>
      </trkpt>
      <trkpt lat="27.822886" lon="86.721216">
        <ele>3765.4</ele>
        <time>2022-10-21T06:38:51.000Z</time>
      </trkpt>
      <trkpt lat="27.822906" lon="86.721222">
        <ele>3765.4</ele>
        <time>2022-10-21T06:38:55.000Z</time>
      </trkpt>
      <trkpt lat="27.822925" lon="86.721229">
        <ele>3765.4</ele>
        <time>2022-10-21T06:39:11.000Z</time>
      </trkpt>
      <trkpt lat="27.822944" lon="86.721235">
        <ele>3765.4</ele>
        <time>2022-10-21T06:39:13.000Z</time>
      </trkpt>
      <trkpt lat="27.822966" lon="86.721254">
        <ele>3765.4</ele>
        <time>2022-10-21T06:39:20.000Z</time>
      </trkpt>
      <trkpt lat="27.822986" lon="86.721267">
        <ele>3764.8</ele>
        <time>2022-10-21T06:39:35.000Z</time>
      </trkpt>
      <trkpt lat="27.823005" lon="86.721299">
        <ele>3764.8</ele>
        <time>2022-10-21T06:39:37.000Z</time>
      </trkpt>
      <trkpt lat="27.823018" lon="86.721318">
        <ele>3764.8</ele>
        <time>2022-10-21T06:39:39.000Z</time>
      </trkpt>
      <trkpt lat="27.823024" lon="86.721338">
        <ele>3764.8</ele>
        <time>2022-10-21T06:39:40.000Z</time>
      </trkpt>
      <trkpt lat="27.823046" lon="86.72137">
        <ele>3764.8</ele>
        <time>2022-10-21T06:39:42.000Z</time>
      </trkpt>
      <trkpt lat="27.823062" lon="86.721382">
        <ele>3764.4</ele>
        <time>2022-10-21T06:39:44.000Z</time>
      </trkpt>
      <trkpt lat="27.823082" lon="86.721408">
        <ele>3764.2</ele>
        <time>2022-10-21T06:39:47.000Z</time>
      </trkpt>
      <trkpt lat="27.823098" lon="86.721427">
        <ele>3764.4</ele>
        <time>2022-10-21T06:39:50.000Z</time>
      </trkpt>
      <trkpt lat="27.823117" lon="86.72144">
        <ele>3764.8</ele>
        <time>2022-10-21T06:39:53.000Z</time>
      </trkpt>
      <trkpt lat="27.823126" lon="86.721459">
        <ele>3764.8</ele>
        <time>2022-10-21T06:39:55.000Z</time>
      </trkpt>
      <trkpt lat="27.823133" lon="86.721491">
        <ele>3764</ele>
        <time>2022-10-21T06:39:58.000Z</time>
      </trkpt>
      <trkpt lat="27.823133" lon="86.721517">
        <ele>3763.4</ele>
        <time>2022-10-21T06:40:01.000Z</time>
      </trkpt>
      <trkpt lat="27.823139" lon="86.721536">
        <ele>3763.4</ele>
        <time>2022-10-21T06:40:03.000Z</time>
      </trkpt>
      <trkpt lat="27.823152" lon="86.721568">
        <ele>3763.4</ele>
        <time>2022-10-21T06:40:06.000Z</time>
      </trkpt>
      <trkpt lat="27.823126" lon="86.721568">
        <ele>3763.4</ele>
        <time>2022-10-21T06:40:13.000Z</time>
      </trkpt>
      <trkpt lat="27.823114" lon="86.721549">
        <ele>3763.6</ele>
        <time>2022-10-21T06:40:17.000Z</time>
      </trkpt>
      <trkpt lat="27.823098" lon="86.721536">
        <ele>3764.4</ele>
        <time>2022-10-21T06:40:19.000Z</time>
      </trkpt>
      <trkpt lat="27.823114" lon="86.721549">
        <ele>3764</ele>
        <time>2022-10-21T06:41:01.000Z</time>
      </trkpt>
      <trkpt lat="27.823136" lon="86.721568">
        <ele>3763.8</ele>
        <time>2022-10-21T06:41:03.000Z</time>
      </trkpt>
      <trkpt lat="27.823152" lon="86.721587">
        <ele>3763.8</ele>
        <time>2022-10-21T06:41:07.000Z</time>
      </trkpt>
      <trkpt lat="27.823162" lon="86.721606">
        <ele>3763.4</ele>
        <time>2022-10-21T06:41:09.000Z</time>
      </trkpt>
      <trkpt lat="27.823171" lon="86.721626">
        <ele>3763.4</ele>
        <time>2022-10-21T06:41:13.000Z</time>
      </trkpt>
      <trkpt lat="27.823187" lon="86.721651">
        <ele>3762.8</ele>
        <time>2022-10-21T06:41:16.000Z</time>
      </trkpt>
      <trkpt lat="27.823194" lon="86.721677">
        <ele>3762.8</ele>
        <time>2022-10-21T06:41:18.000Z</time>
      </trkpt>
      <trkpt lat="27.823194" lon="86.721702">
        <ele>3762.6</ele>
        <time>2022-10-21T06:41:20.000Z</time>
      </trkpt>
      <trkpt lat="27.823194" lon="86.721728">
        <ele>3762.4</ele>
        <time>2022-10-21T06:41:22.000Z</time>
      </trkpt>
      <trkpt lat="27.823187" lon="86.721747">
        <ele>3762.4</ele>
        <time>2022-10-21T06:41:24.000Z</time>
      </trkpt>
      <trkpt lat="27.823181" lon="86.721766">
        <ele>3762.6</ele>
        <time>2022-10-21T06:41:26.000Z</time>
      </trkpt>
      <trkpt lat="27.823181" lon="86.721792">
        <ele>3762</ele>
        <time>2022-10-21T06:41:30.000Z</time>
      </trkpt>
      <trkpt lat="27.823181" lon="86.721818">
        <ele>3762</ele>
        <time>2022-10-21T06:41:33.000Z</time>
      </trkpt>
      <trkpt lat="27.823146" lon="86.72183">
        <ele>3761.2</ele>
        <time>2022-10-21T06:42:55.000Z</time>
      </trkpt>
      <trkpt lat="27.823123" lon="86.721856">
        <ele>3761.2</ele>
        <time>2022-10-21T06:42:57.000Z</time>
      </trkpt>
      <trkpt lat="27.823107" lon="86.721869">
        <ele>3761.4</ele>
        <time>2022-10-21T06:42:59.000Z</time>
      </trkpt>
      <trkpt lat="27.823088" lon="86.721888">
        <ele>3761.4</ele>
        <time>2022-10-21T06:43:01.000Z</time>
      </trkpt>
      <trkpt lat="27.823072" lon="86.721907">
        <ele>3761.8</ele>
        <time>2022-10-21T06:43:04.000Z</time>
      </trkpt>
      <trkpt lat="27.823062" lon="86.721926">
        <ele>3761.4</ele>
        <time>2022-10-21T06:43:07.000Z</time>
      </trkpt>
      <trkpt lat="27.823046" lon="86.721946">
        <ele>3763.4</ele>
        <time>2022-10-21T06:43:13.000Z</time>
      </trkpt>
      <trkpt lat="27.823024" lon="86.721946">
        <ele>3764</ele>
        <time>2022-10-21T06:43:18.000Z</time>
      </trkpt>
      <trkpt lat="27.823011" lon="86.721965">
        <ele>3764.8</ele>
        <time>2022-10-21T06:43:21.000Z</time>
      </trkpt>
      <trkpt lat="27.823008" lon="86.72199">
        <ele>3765.2</ele>
        <time>2022-10-21T06:43:27.000Z</time>
      </trkpt>
      <trkpt lat="27.823002" lon="86.72201">
        <ele>3765.4</ele>
        <time>2022-10-21T06:43:30.000Z</time>
      </trkpt>
      <trkpt lat="27.822992" lon="86.722029">
        <ele>3766</ele>
        <time>2022-10-21T06:43:34.000Z</time>
      </trkpt>
      <trkpt lat="27.822982" lon="86.722048">
        <ele>3766.6</ele>
        <time>2022-10-21T06:43:37.000Z</time>
      </trkpt>
      <trkpt lat="27.822966" lon="86.722061">
        <ele>3767.4</ele>
        <time>2022-10-21T06:43:41.000Z</time>
      </trkpt>
      <trkpt lat="27.822944" lon="86.722061">
        <ele>3767.8</ele>
        <time>2022-10-21T06:43:45.000Z</time>
      </trkpt>
      <trkpt lat="27.822925" lon="86.722061">
        <ele>3768.2</ele>
        <time>2022-10-21T06:43:48.000Z</time>
      </trkpt>
      <trkpt lat="27.822906" lon="86.722061">
        <ele>3768.8</ele>
        <time>2022-10-21T06:43:53.000Z</time>
      </trkpt>
      <trkpt lat="27.822838" lon="86.722099">
        <ele>3773.4</ele>
        <time>2022-10-21T06:45:31.000Z</time>
      </trkpt>
      <trkpt lat="27.822826" lon="86.722125">
        <ele>3773.8</ele>
        <time>2022-10-21T06:45:33.000Z</time>
      </trkpt>
      <trkpt lat="27.822819" lon="86.722144">
        <ele>3774.2</ele>
        <time>2022-10-21T06:45:35.000Z</time>
      </trkpt>
      <trkpt lat="27.82281" lon="86.72217">
        <ele>3775</ele>
        <time>2022-10-21T06:45:37.000Z</time>
      </trkpt>
      <trkpt lat="27.82281" lon="86.722202">
        <ele>3775.2</ele>
        <time>2022-10-21T06:45:39.000Z</time>
      </trkpt>
      <trkpt lat="27.822803" lon="86.722221">
        <ele>3776</ele>
        <time>2022-10-21T06:45:43.000Z</time>
      </trkpt>
      <trkpt lat="27.822787" lon="86.722234">
        <ele>3776</ele>
        <time>2022-10-21T06:45:50.000Z</time>
      </trkpt>
      <trkpt lat="27.822778" lon="86.722253">
        <ele>3776</ele>
        <time>2022-10-21T06:45:52.000Z</time>
      </trkpt>
      <trkpt lat="27.822774" lon="86.722285">
        <ele>3776</ele>
        <time>2022-10-21T06:45:57.000Z</time>
      </trkpt>
      <trkpt lat="27.822768" lon="86.722304">
        <ele>3776.4</ele>
        <time>2022-10-21T06:46:02.000Z</time>
      </trkpt>
      <trkpt lat="27.822762" lon="86.722336">
        <ele>3776</ele>
        <time>2022-10-21T06:49:01.000Z</time>
      </trkpt>
      <trkpt lat="27.822758" lon="86.722368">
        <ele>3775.4</ele>
        <time>2022-10-21T06:49:03.000Z</time>
      </trkpt>
      <trkpt lat="27.822746" lon="86.7224">
        <ele>3775.6</ele>
        <time>2022-10-21T06:49:05.000Z</time>
      </trkpt>
      <trkpt lat="27.82273" lon="86.722419">
        <ele>3776.2</ele>
        <time>2022-10-21T06:49:07.000Z</time>
      </trkpt>
      <trkpt lat="27.82272" lon="86.722451">
        <ele>3777</ele>
        <time>2022-10-21T06:49:09.000Z</time>
      </trkpt>
      <trkpt lat="27.822707" lon="86.72247">
        <ele>3777.4</ele>
        <time>2022-10-21T06:49:12.000Z</time>
      </trkpt>
      <trkpt lat="27.822698" lon="86.72249">
        <ele>3777.4</ele>
        <time>2022-10-21T06:49:14.000Z</time>
      </trkpt>
      <trkpt lat="27.822688" lon="86.722509">
        <ele>3778.2</ele>
        <time>2022-10-21T06:49:19.000Z</time>
      </trkpt>
      <trkpt lat="27.822678" lon="86.722528">
        <ele>3778.8</ele>
        <time>2022-10-21T06:49:22.000Z</time>
      </trkpt>
      <trkpt lat="27.822672" lon="86.72256">
        <ele>3779.4</ele>
        <time>2022-10-21T06:49:25.000Z</time>
      </trkpt>
      <trkpt lat="27.822669" lon="86.722586">
        <ele>3779.4</ele>
        <time>2022-10-21T06:49:28.000Z</time>
      </trkpt>
      <trkpt lat="27.822662" lon="86.722605">
        <ele>3780</ele>
        <time>2022-10-21T06:49:30.000Z</time>
      </trkpt>
      <trkpt lat="27.822659" lon="86.72263">
        <ele>3780.6</ele>
        <time>2022-10-21T06:49:34.000Z</time>
      </trkpt>
      <trkpt lat="27.82265" lon="86.722656">
        <ele>3781</ele>
        <time>2022-10-21T06:49:37.000Z</time>
      </trkpt>
      <trkpt lat="27.82263" lon="86.722682">
        <ele>3780.8</ele>
        <time>2022-10-21T06:49:42.000Z</time>
      </trkpt>
      <trkpt lat="27.822611" lon="86.722682">
        <ele>3781.6</ele>
        <time>2022-10-21T06:49:55.000Z</time>
      </trkpt>
      <trkpt lat="27.822557" lon="86.722688">
        <ele>3781.6</ele>
        <time>2022-10-21T06:57:12.000Z</time>
      </trkpt>
      <trkpt lat="27.822531" lon="86.722669">
        <ele>3782</ele>
        <time>2022-10-21T06:57:15.000Z</time>
      </trkpt>
      <trkpt lat="27.822454" lon="86.722701">
        <ele>3782.8</ele>
        <time>2022-10-21T06:59:06.000Z</time>
      </trkpt>
      <trkpt lat="27.822432" lon="86.722701">
        <ele>3782.8</ele>
        <time>2022-10-21T06:59:08.000Z</time>
      </trkpt>
      <trkpt lat="27.822413" lon="86.722707">
        <ele>3783.4</ele>
        <time>2022-10-21T06:59:10.000Z</time>
      </trkpt>
      <trkpt lat="27.822387" lon="86.72272">
        <ele>3784.2</ele>
        <time>2022-10-21T06:59:13.000Z</time>
      </trkpt>
      <trkpt lat="27.822368" lon="86.722733">
        <ele>3785.4</ele>
        <time>2022-10-21T06:59:21.000Z</time>
      </trkpt>
      <trkpt lat="27.822349" lon="86.722739">
        <ele>3785.4</ele>
        <time>2022-10-21T06:59:24.000Z</time>
      </trkpt>
      <trkpt lat="27.82233" lon="86.722739">
        <ele>3786</ele>
        <time>2022-10-21T06:59:28.000Z</time>
      </trkpt>
      <trkpt lat="27.822298" lon="86.722746">
        <ele>3787.6</ele>
        <time>2022-10-21T07:00:13.000Z</time>
      </trkpt>
      <trkpt lat="27.822298" lon="86.722778">
        <ele>3787.8</ele>
        <time>2022-10-21T07:00:15.000Z</time>
      </trkpt>
      <trkpt lat="27.822298" lon="86.722803">
        <ele>3788.8</ele>
        <time>2022-10-21T07:00:17.000Z</time>
      </trkpt>
      <trkpt lat="27.822282" lon="86.722829">
        <ele>3789.4</ele>
        <time>2022-10-21T07:00:19.000Z</time>
      </trkpt>
      <trkpt lat="27.822262" lon="86.722854">
        <ele>3789.8</ele>
        <time>2022-10-21T07:00:21.000Z</time>
      </trkpt>
      <trkpt lat="27.822243" lon="86.722861">
        <ele>3790.2</ele>
        <time>2022-10-21T07:00:23.000Z</time>
      </trkpt>
      <trkpt lat="27.822221" lon="86.722867">
        <ele>3789.4</ele>
        <time>2022-10-21T07:00:26.000Z</time>
      </trkpt>
      <trkpt lat="27.822214" lon="86.722886">
        <ele>3790.6</ele>
        <time>2022-10-21T07:00:29.000Z</time>
      </trkpt>
      <trkpt lat="27.822202" lon="86.722906">
        <ele>3791.6</ele>
        <time>2022-10-21T07:00:31.000Z</time>
      </trkpt>
      <trkpt lat="27.822186" lon="86.722925">
        <ele>3791</ele>
        <time>2022-10-21T07:00:34.000Z</time>
      </trkpt>
      <trkpt lat="27.822189" lon="86.722957">
        <ele>3792.2</ele>
        <time>2022-10-21T07:00:38.000Z</time>
      </trkpt>
      <trkpt lat="27.822198" lon="86.722982">
        <ele>3793.2</ele>
        <time>2022-10-21T07:00:42.000Z</time>
      </trkpt>
      <trkpt lat="27.822211" lon="86.723002">
        <ele>3793.4</ele>
        <time>2022-10-21T07:00:44.000Z</time>
      </trkpt>
      <trkpt lat="27.822192" lon="86.722976">
        <ele>3792.8</ele>
        <time>2022-10-21T07:01:17.000Z</time>
      </trkpt>
      <trkpt lat="27.822176" lon="86.722957">
        <ele>3792.8</ele>
        <time>2022-10-21T07:01:19.000Z</time>
      </trkpt>
      <trkpt lat="27.82216" lon="86.722938">
        <ele>3793.4</ele>
        <time>2022-10-21T07:01:22.000Z</time>
      </trkpt>
      <trkpt lat="27.822141" lon="86.722918">
        <ele>3793.2</ele>
        <time>2022-10-21T07:01:28.000Z</time>
      </trkpt>
      <trkpt lat="27.822122" lon="86.722899">
        <ele>3792</ele>
        <time>2022-10-21T07:01:31.000Z</time>
      </trkpt>
      <trkpt lat="27.822099" lon="86.722899">
        <ele>3791.2</ele>
        <time>2022-10-21T07:01:33.000Z</time>
      </trkpt>
      <trkpt lat="27.82208" lon="86.722893">
        <ele>3791.4</ele>
        <time>2022-10-21T07:01:35.000Z</time>
      </trkpt>
      <trkpt lat="27.822054" lon="86.722886">
        <ele>3792</ele>
        <time>2022-10-21T07:01:38.000Z</time>
      </trkpt>
      <trkpt lat="27.822035" lon="86.722867">
        <ele>3792.2</ele>
        <time>2022-10-21T07:01:40.000Z</time>
      </trkpt>
      <trkpt lat="27.82201" lon="86.722854">
        <ele>3792.6</ele>
        <time>2022-10-21T07:01:43.000Z</time>
      </trkpt>
      <trkpt lat="27.82199" lon="86.722854">
        <ele>3792.6</ele>
        <time>2022-10-21T07:01:46.000Z</time>
      </trkpt>
      <trkpt lat="27.821971" lon="86.722848">
        <ele>3792.2</ele>
        <time>2022-10-21T07:01:50.000Z</time>
      </trkpt>
      <trkpt lat="27.821955" lon="86.722829">
        <ele>3792.6</ele>
        <time>2022-10-21T07:01:52.000Z</time>
      </trkpt>
      <trkpt lat="27.821936" lon="86.722829">
        <ele>3793.2</ele>
        <time>2022-10-21T07:01:54.000Z</time>
      </trkpt>
      <trkpt lat="27.821914" lon="86.722822">
        <ele>3793.4</ele>
        <time>2022-10-21T07:01:57.000Z</time>
      </trkpt>
      <trkpt lat="27.821891" lon="86.722829">
        <ele>3793.8</ele>
        <time>2022-10-21T07:01:59.000Z</time>
      </trkpt>
      <trkpt lat="27.821872" lon="86.722829">
        <ele>3793.8</ele>
        <time>2022-10-21T07:02:02.000Z</time>
      </trkpt>
      <trkpt lat="27.821853" lon="86.722829">
        <ele>3794.4</ele>
        <time>2022-10-21T07:02:07.000Z</time>
      </trkpt>
      <trkpt lat="27.821843" lon="86.72279">
        <ele>3795.6</ele>
        <time>2022-10-21T07:02:22.000Z</time>
      </trkpt>
      <trkpt lat="27.821837" lon="86.722765">
        <ele>3795.4</ele>
        <time>2022-10-21T07:02:24.000Z</time>
      </trkpt>
      <trkpt lat="27.82183" lon="86.722739">
        <ele>3795.6</ele>
        <time>2022-10-21T07:02:26.000Z</time>
      </trkpt>
      <trkpt lat="27.821818" lon="86.72272">
        <ele>3795.6</ele>
        <time>2022-10-21T07:02:29.000Z</time>
      </trkpt>
      <trkpt lat="27.821792" lon="86.722726">
        <ele>3795.6</ele>
        <time>2022-10-21T07:02:33.000Z</time>
      </trkpt>
      <trkpt lat="27.82177" lon="86.722726">
        <ele>3795.8</ele>
        <time>2022-10-21T07:02:36.000Z</time>
      </trkpt>
      <trkpt lat="27.821747" lon="86.722726">
        <ele>3796.4</ele>
        <time>2022-10-21T07:02:44.000Z</time>
      </trkpt>
      <trkpt lat="27.821722" lon="86.72272">
        <ele>3796.6</ele>
        <time>2022-10-21T07:02:47.000Z</time>
      </trkpt>
      <trkpt lat="27.821706" lon="86.722707">
        <ele>3797</ele>
        <time>2022-10-21T07:02:50.000Z</time>
      </trkpt>
      <trkpt lat="27.821686" lon="86.722701">
        <ele>3797.4</ele>
        <time>2022-10-21T07:02:53.000Z</time>
      </trkpt>
      <trkpt lat="27.821667" lon="86.722701">
        <ele>3797.8</ele>
        <time>2022-10-21T07:02:56.000Z</time>
      </trkpt>
      <trkpt lat="27.821648" lon="86.722701">
        <ele>3798.4</ele>
        <time>2022-10-21T07:02:59.000Z</time>
      </trkpt>
      <trkpt lat="27.821622" lon="86.722707">
        <ele>3799.2</ele>
        <time>2022-10-21T07:03:03.000Z</time>
      </trkpt>
      <trkpt lat="27.821606" lon="86.72272">
        <ele>3799.2</ele>
        <time>2022-10-21T07:03:06.000Z</time>
      </trkpt>
      <trkpt lat="27.821587" lon="86.722726">
        <ele>3799.4</ele>
        <time>2022-10-21T07:03:09.000Z</time>
      </trkpt>
      <trkpt lat="27.821568" lon="86.722726">
        <ele>3800.2</ele>
        <time>2022-10-21T07:03:12.000Z</time>
      </trkpt>
      <trkpt lat="27.821546" lon="86.722726">
        <ele>3800.2</ele>
        <time>2022-10-21T07:03:14.000Z</time>
      </trkpt>
      <trkpt lat="27.821526" lon="86.722707">
        <ele>3800.2</ele>
        <time>2022-10-21T07:03:16.000Z</time>
      </trkpt>
      <trkpt lat="27.821501" lon="86.722707">
        <ele>3799.6</ele>
        <time>2022-10-21T07:03:19.000Z</time>
      </trkpt>
      <trkpt lat="27.821478" lon="86.722701">
        <ele>3800.6</ele>
        <time>2022-10-21T07:03:22.000Z</time>
      </trkpt>
      <trkpt lat="27.821459" lon="86.722701">
        <ele>3800.8</ele>
        <time>2022-10-21T07:03:24.000Z</time>
      </trkpt>
      <trkpt lat="27.821437" lon="86.722694">
        <ele>3801</ele>
        <time>2022-10-21T07:03:29.000Z</time>
      </trkpt>
      <trkpt lat="27.821411" lon="86.722688">
        <ele>3802</ele>
        <time>2022-10-21T07:03:59.000Z</time>
      </trkpt>
      <trkpt lat="27.821392" lon="86.722688">
        <ele>3802</ele>
        <time>2022-10-21T07:04:01.000Z</time>
      </trkpt>
      <trkpt lat="27.82137" lon="86.722682">
        <ele>3801.6</ele>
        <time>2022-10-21T07:04:03.000Z</time>
      </trkpt>
      <trkpt lat="27.821344" lon="86.722682">
        <ele>3801.6</ele>
        <time>2022-10-21T07:04:05.000Z</time>
      </trkpt>
      <trkpt lat="27.821325" lon="86.722688">
        <ele>3802</ele>
        <time>2022-10-21T07:04:07.000Z</time>
      </trkpt>
      <trkpt lat="27.821309" lon="86.722669">
        <ele>3802.2</ele>
        <time>2022-10-21T07:04:09.000Z</time>
      </trkpt>
      <trkpt lat="27.82129" lon="86.722669">
        <ele>3803.4</ele>
        <time>2022-10-21T07:04:12.000Z</time>
      </trkpt>
      <trkpt lat="27.821264" lon="86.722662">
        <ele>3803.4</ele>
        <time>2022-10-21T07:04:15.000Z</time>
      </trkpt>
      <trkpt lat="27.821245" lon="86.722656">
        <ele>3803.6</ele>
        <time>2022-10-21T07:04:18.000Z</time>
      </trkpt>
      <trkpt lat="27.821219" lon="86.722643">
        <ele>3803.6</ele>
        <time>2022-10-21T07:04:21.000Z</time>
      </trkpt>
      <trkpt lat="27.821197" lon="86.72263">
        <ele>3803.6</ele>
        <time>2022-10-21T07:04:23.000Z</time>
      </trkpt>
      <trkpt lat="27.821178" lon="86.72263">
        <ele>3802.6</ele>
        <time>2022-10-21T07:04:25.000Z</time>
      </trkpt>
      <trkpt lat="27.821158" lon="86.722618">
        <ele>3804.2</ele>
        <time>2022-10-21T07:04:28.000Z</time>
      </trkpt>
      <trkpt lat="27.821136" lon="86.722618">
        <ele>3804.2</ele>
        <time>2022-10-21T07:04:30.000Z</time>
      </trkpt>
      <trkpt lat="27.821114" lon="86.722611">
        <ele>3803.6</ele>
        <time>2022-10-21T07:04:32.000Z</time>
      </trkpt>
      <trkpt lat="27.821091" lon="86.722611">
        <ele>3803.6</ele>
        <time>2022-10-21T07:04:34.000Z</time>
      </trkpt>
      <trkpt lat="27.821069" lon="86.722611">
        <ele>3803.4</ele>
        <time>2022-10-21T07:04:36.000Z</time>
      </trkpt>
      <trkpt lat="27.821046" lon="86.722611">
        <ele>3802.6</ele>
        <time>2022-10-21T07:04:38.000Z</time>
      </trkpt>
      <trkpt lat="27.821027" lon="86.722618">
        <ele>3803.2</ele>
        <time>2022-10-21T07:04:40.000Z</time>
      </trkpt>
      <trkpt lat="27.821002" lon="86.72263">
        <ele>3803.2</ele>
        <time>2022-10-21T07:04:43.000Z</time>
      </trkpt>
      <trkpt lat="27.820982" lon="86.72263">
        <ele>3803.2</ele>
        <time>2022-10-21T07:04:45.000Z</time>
      </trkpt>
      <trkpt lat="27.82096" lon="86.72263">
        <ele>3804</ele>
        <time>2022-10-21T07:04:48.000Z</time>
      </trkpt>
      <trkpt lat="27.820941" lon="86.722643">
        <ele>3803.6</ele>
        <time>2022-10-21T07:04:50.000Z</time>
      </trkpt>
      <trkpt lat="27.820918" lon="86.72265">
        <ele>3803.6</ele>
        <time>2022-10-21T07:04:53.000Z</time>
      </trkpt>
      <trkpt lat="27.820899" lon="86.72265">
        <ele>3803.6</ele>
        <time>2022-10-21T07:04:56.000Z</time>
      </trkpt>
      <trkpt lat="27.820909" lon="86.722624">
        <ele>3803.4</ele>
        <time>2022-10-21T07:05:05.000Z</time>
      </trkpt>
      <trkpt lat="27.820925" lon="86.722611">
        <ele>3803.4</ele>
        <time>2022-10-21T07:05:07.000Z</time>
      </trkpt>
      <trkpt lat="27.820941" lon="86.722598">
        <ele>3803.6</ele>
        <time>2022-10-21T07:05:09.000Z</time>
      </trkpt>
      <trkpt lat="27.820957" lon="86.722586">
        <ele>3804</ele>
        <time>2022-10-21T07:05:11.000Z</time>
      </trkpt>
      <trkpt lat="27.820944" lon="86.722611">
        <ele>3804.6</ele>
        <time>2022-10-21T07:05:31.000Z</time>
      </trkpt>
      <trkpt lat="27.820922" lon="86.722624">
        <ele>3804.2</ele>
        <time>2022-10-21T07:05:33.000Z</time>
      </trkpt>
      <trkpt lat="27.820899" lon="86.722643">
        <ele>3804.2</ele>
        <time>2022-10-21T07:05:35.000Z</time>
      </trkpt>
      <trkpt lat="27.820874" lon="86.722656">
        <ele>3804.2</ele>
        <time>2022-10-21T07:05:37.000Z</time>
      </trkpt>
      <trkpt lat="27.820854" lon="86.722682">
        <ele>3804.4</ele>
        <time>2022-10-21T07:05:39.000Z</time>
      </trkpt>
      <trkpt lat="27.820832" lon="86.722682">
        <ele>3804.4</ele>
        <time>2022-10-21T07:05:42.000Z</time>
      </trkpt>
      <trkpt lat="27.820813" lon="86.722682">
        <ele>3804.4</ele>
        <time>2022-10-21T07:05:44.000Z</time>
      </trkpt>
      <trkpt lat="27.82079" lon="86.722682">
        <ele>3804.8</ele>
        <time>2022-10-21T07:05:47.000Z</time>
      </trkpt>
      <trkpt lat="27.820768" lon="86.722688">
        <ele>3805.8</ele>
        <time>2022-10-21T07:05:54.000Z</time>
      </trkpt>
      <trkpt lat="27.820746" lon="86.722688">
        <ele>3805.6</ele>
        <time>2022-10-21T07:05:56.000Z</time>
      </trkpt>
      <trkpt lat="27.820726" lon="86.722688">
        <ele>3804.8</ele>
        <time>2022-10-21T07:05:58.000Z</time>
      </trkpt>
      <trkpt lat="27.820704" lon="86.722682">
        <ele>3805.4</ele>
        <time>2022-10-21T07:06:00.000Z</time>
      </trkpt>
      <trkpt lat="27.820685" lon="86.722682">
        <ele>3806</ele>
        <time>2022-10-21T07:06:03.000Z</time>
      </trkpt>
      <trkpt lat="27.820659" lon="86.722694">
        <ele>3806.8</ele>
        <time>2022-10-21T07:06:08.000Z</time>
      </trkpt>
      <trkpt lat="27.820637" lon="86.722701">
        <ele>3807.2</ele>
        <time>2022-10-21T07:06:11.000Z</time>
      </trkpt>
      <trkpt lat="27.820614" lon="86.722707">
        <ele>3807.6</ele>
        <time>2022-10-21T07:06:14.000Z</time>
      </trkpt>
      <trkpt lat="27.820592" lon="86.722707">
        <ele>3807.8</ele>
        <time>2022-10-21T07:06:17.000Z</time>
      </trkpt>
      <trkpt lat="27.820576" lon="86.72272">
        <ele>3808</ele>
        <time>2022-10-21T07:06:20.000Z</time>
      </trkpt>
      <trkpt lat="27.820557" lon="86.722726">
        <ele>3808.8</ele>
        <time>2022-10-21T07:06:23.000Z</time>
      </trkpt>
      <trkpt lat="27.820538" lon="86.722733">
        <ele>3809.2</ele>
        <time>2022-10-21T07:06:26.000Z</time>
      </trkpt>
      <trkpt lat="27.820522" lon="86.722746">
        <ele>3810.2</ele>
        <time>2022-10-21T07:06:31.000Z</time>
      </trkpt>
      <trkpt lat="27.820502" lon="86.722739">
        <ele>3812.2</ele>
        <time>2022-10-21T07:07:06.000Z</time>
      </trkpt>
      <trkpt lat="27.820483" lon="86.722739">
        <ele>3812.4</ele>
        <time>2022-10-21T07:07:08.000Z</time>
      </trkpt>
      <trkpt lat="27.820464" lon="86.722746">
        <ele>3812.6</ele>
        <time>2022-10-21T07:07:10.000Z</time>
      </trkpt>
      <trkpt lat="27.820442" lon="86.722758">
        <ele>3812.6</ele>
        <time>2022-10-21T07:07:12.000Z</time>
      </trkpt>
      <trkpt lat="27.820419" lon="86.722771">
        <ele>3813.2</ele>
        <time>2022-10-21T07:07:14.000Z</time>
      </trkpt>
      <trkpt lat="27.820394" lon="86.722778">
        <ele>3813.8</ele>
        <time>2022-10-21T07:07:17.000Z</time>
      </trkpt>
      <trkpt lat="27.820378" lon="86.72279">
        <ele>3814</ele>
        <time>2022-10-21T07:07:20.000Z</time>
      </trkpt>
      <trkpt lat="27.820358" lon="86.72281">
        <ele>3814.4</ele>
        <time>2022-10-21T07:07:23.000Z</time>
      </trkpt>
      <trkpt lat="27.820339" lon="86.722822">
        <ele>3814.8</ele>
        <time>2022-10-21T07:07:26.000Z</time>
      </trkpt>
      <trkpt lat="27.82032" lon="86.722842">
        <ele>3815.4</ele>
        <time>2022-10-21T07:07:29.000Z</time>
      </trkpt>
      <trkpt lat="27.820298" lon="86.722848">
        <ele>3815.8</ele>
        <time>2022-10-21T07:07:32.000Z</time>
      </trkpt>
      <trkpt lat="27.820275" lon="86.722867">
        <ele>3816.8</ele>
        <time>2022-10-21T07:07:36.000Z</time>
      </trkpt>
      <trkpt lat="27.820253" lon="86.722867">
        <ele>3818</ele>
        <time>2022-10-21T07:07:40.000Z</time>
      </trkpt>
      <trkpt lat="27.820237" lon="86.72288">
        <ele>3818.2</ele>
        <time>2022-10-21T07:07:43.000Z</time>
      </trkpt>
      <trkpt lat="27.820218" lon="86.72288">
        <ele>3819</ele>
        <time>2022-10-21T07:07:47.000Z</time>
      </trkpt>
      <trkpt lat="27.820198" lon="86.722886">
        <ele>3819.6</ele>
        <time>2022-10-21T07:07:51.000Z</time>
      </trkpt>
      <trkpt lat="27.820182" lon="86.722899">
        <ele>3820.2</ele>
        <time>2022-10-21T07:07:55.000Z</time>
      </trkpt>
      <trkpt lat="27.820163" lon="86.722906">
        <ele>3821.2</ele>
        <time>2022-10-21T07:07:59.000Z</time>
      </trkpt>
      <trkpt lat="27.820147" lon="86.722925">
        <ele>3821.6</ele>
        <time>2022-10-21T07:08:02.000Z</time>
      </trkpt>
      <trkpt lat="27.820128" lon="86.722938">
        <ele>3821.8</ele>
        <time>2022-10-21T07:08:07.000Z</time>
      </trkpt>
      <trkpt lat="27.820115" lon="86.722957">
        <ele>3822.6</ele>
        <time>2022-10-21T07:08:13.000Z</time>
      </trkpt>
      <trkpt lat="27.820106" lon="86.722976">
        <ele>3822.8</ele>
        <time>2022-10-21T07:08:16.000Z</time>
      </trkpt>
      <trkpt lat="27.820093" lon="86.723002">
        <ele>3824.8</ele>
        <time>2022-10-21T07:08:22.000Z</time>
      </trkpt>
      <trkpt lat="27.820086" lon="86.723027">
        <ele>3825</ele>
        <time>2022-10-21T07:08:27.000Z</time>
      </trkpt>
      <trkpt lat="27.820086" lon="86.723053">
        <ele>3826</ele>
        <time>2022-10-21T07:08:33.000Z</time>
      </trkpt>
      <trkpt lat="27.820077" lon="86.723078">
        <ele>3826.4</ele>
        <time>2022-10-21T07:08:39.000Z</time>
      </trkpt>
      <trkpt lat="27.820058" lon="86.723085">
        <ele>3827.8</ele>
        <time>2022-10-21T07:08:44.000Z</time>
      </trkpt>
      <trkpt lat="27.820038" lon="86.723098">
        <ele>3827.8</ele>
        <time>2022-10-21T07:08:48.000Z</time>
      </trkpt>
      <trkpt lat="27.820016" lon="86.723091">
        <ele>3828.4</ele>
        <time>2022-10-21T07:08:52.000Z</time>
      </trkpt>
      <trkpt lat="27.819997" lon="86.723085">
        <ele>3829</ele>
        <time>2022-10-21T07:08:56.000Z</time>
      </trkpt>
      <trkpt lat="27.819974" lon="86.723085">
        <ele>3830</ele>
        <time>2022-10-21T07:09:01.000Z</time>
      </trkpt>
      <trkpt lat="27.819955" lon="86.723078">
        <ele>3830.4</ele>
        <time>2022-10-21T07:09:06.000Z</time>
      </trkpt>
      <trkpt lat="27.819933" lon="86.723078">
        <ele>3831</ele>
        <time>2022-10-21T07:09:12.000Z</time>
      </trkpt>
      <trkpt lat="27.819926" lon="86.723098">
        <ele>3832.2</ele>
        <time>2022-10-21T07:09:16.000Z</time>
      </trkpt>
      <trkpt lat="27.81992" lon="86.723123">
        <ele>3833.2</ele>
        <time>2022-10-21T07:09:21.000Z</time>
      </trkpt>
      <trkpt lat="27.819926" lon="86.723142">
        <ele>3833.4</ele>
        <time>2022-10-21T07:09:25.000Z</time>
      </trkpt>
      <trkpt lat="27.81992" lon="86.723168">
        <ele>3834.2</ele>
        <time>2022-10-21T07:09:29.000Z</time>
      </trkpt>
      <trkpt lat="27.81992" lon="86.7232">
        <ele>3834.6</ele>
        <time>2022-10-21T07:09:33.000Z</time>
      </trkpt>
      <trkpt lat="27.819907" lon="86.723219">
        <ele>3834.8</ele>
        <time>2022-10-21T07:09:37.000Z</time>
      </trkpt>
      <trkpt lat="27.819901" lon="86.723238">
        <ele>3835</ele>
        <time>2022-10-21T07:09:40.000Z</time>
      </trkpt>
      <trkpt lat="27.819878" lon="86.723238">
        <ele>3835.8</ele>
        <time>2022-10-21T07:09:44.000Z</time>
      </trkpt>
      <trkpt lat="27.819862" lon="86.723226">
        <ele>3836.4</ele>
        <time>2022-10-21T07:09:49.000Z</time>
      </trkpt>
      <trkpt lat="27.81984" lon="86.723226">
        <ele>3837</ele>
        <time>2022-10-21T07:09:54.000Z</time>
      </trkpt>
      <trkpt lat="27.819821" lon="86.723226">
        <ele>3838.2</ele>
        <time>2022-10-21T07:10:00.000Z</time>
      </trkpt>
      <trkpt lat="27.819805" lon="86.723213">
        <ele>3838.8</ele>
        <time>2022-10-21T07:10:04.000Z</time>
      </trkpt>
      <trkpt lat="27.819786" lon="86.723206">
        <ele>3839</ele>
        <time>2022-10-21T07:10:07.000Z</time>
      </trkpt>
      <trkpt lat="27.819763" lon="86.7232">
        <ele>3839.8</ele>
        <time>2022-10-21T07:10:12.000Z</time>
      </trkpt>
      <trkpt lat="27.819747" lon="86.723187">
        <ele>3840.2</ele>
        <time>2022-10-21T07:10:16.000Z</time>
      </trkpt>
      <trkpt lat="27.819728" lon="86.723181">
        <ele>3840.4</ele>
        <time>2022-10-21T07:10:19.000Z</time>
      </trkpt>
      <trkpt lat="27.819706" lon="86.723181">
        <ele>3842</ele>
        <time>2022-10-21T07:10:46.000Z</time>
      </trkpt>
      <trkpt lat="27.81968" lon="86.723181">
        <ele>3842.2</ele>
        <time>2022-10-21T07:10:48.000Z</time>
      </trkpt>
      <trkpt lat="27.819654" lon="86.723181">
        <ele>3842.6</ele>
        <time>2022-10-21T07:10:50.000Z</time>
      </trkpt>
      <trkpt lat="27.819622" lon="86.723174">
        <ele>3843.2</ele>
        <time>2022-10-21T07:10:54.000Z</time>
      </trkpt>
      <trkpt lat="27.8196" lon="86.723181">
        <ele>3843.8</ele>
        <time>2022-10-21T07:10:59.000Z</time>
      </trkpt>
      <trkpt lat="27.81959" lon="86.7232">
        <ele>3844</ele>
        <time>2022-10-21T07:11:04.000Z</time>
      </trkpt>
      <trkpt lat="27.81961" lon="86.723219">
        <ele>3844.8</ele>
        <time>2022-10-21T07:11:15.000Z</time>
      </trkpt>
      <trkpt lat="27.8196" lon="86.7232">
        <ele>3844.2</ele>
        <time>2022-10-21T07:11:28.000Z</time>
      </trkpt>
      <trkpt lat="27.819581" lon="86.723187">
        <ele>3843.8</ele>
        <time>2022-10-21T07:11:33.000Z</time>
      </trkpt>
      <trkpt lat="27.819562" lon="86.723187">
        <ele>3844</ele>
        <time>2022-10-21T07:11:36.000Z</time>
      </trkpt>
      <trkpt lat="27.819542" lon="86.723187">
        <ele>3844.4</ele>
        <time>2022-10-21T07:11:39.000Z</time>
      </trkpt>
      <trkpt lat="27.819523" lon="86.7232">
        <ele>3845.4</ele>
        <time>2022-10-21T07:11:44.000Z</time>
      </trkpt>
      <trkpt lat="27.819504" lon="86.7232">
        <ele>3845.6</ele>
        <time>2022-10-21T07:11:47.000Z</time>
      </trkpt>
      <trkpt lat="27.819488" lon="86.723213">
        <ele>3847.8</ele>
        <time>2022-10-21T07:12:17.000Z</time>
      </trkpt>
      <trkpt lat="27.819475" lon="86.723238">
        <ele>3848</ele>
        <time>2022-10-21T07:12:19.000Z</time>
      </trkpt>
      <trkpt lat="27.819462" lon="86.723258">
        <ele>3848.6</ele>
        <time>2022-10-21T07:12:21.000Z</time>
      </trkpt>
      <trkpt lat="27.819453" lon="86.723277">
        <ele>3848.6</ele>
        <time>2022-10-21T07:12:23.000Z</time>
      </trkpt>
      <trkpt lat="27.81944" lon="86.723296">
        <ele>3849.4</ele>
        <time>2022-10-21T07:12:28.000Z</time>
      </trkpt>
      <trkpt lat="27.819434" lon="86.723315">
        <ele>3849.8</ele>
        <time>2022-10-21T07:12:32.000Z</time>
      </trkpt>
      <trkpt lat="27.819424" lon="86.723334">
        <ele>3849.8</ele>
        <time>2022-10-21T07:12:36.000Z</time>
      </trkpt>
      <trkpt lat="27.819418" lon="86.723354">
        <ele>3849.8</ele>
        <time>2022-10-21T07:12:38.000Z</time>
      </trkpt>
      <trkpt lat="27.819402" lon="86.723366">
        <ele>3850.8</ele>
        <time>2022-10-21T07:12:42.000Z</time>
      </trkpt>
      <trkpt lat="27.819386" lon="86.723379">
        <ele>3851.2</ele>
        <time>2022-10-21T07:12:48.000Z</time>
      </trkpt>
      <trkpt lat="27.819366" lon="86.723386">
        <ele>3851.6</ele>
        <time>2022-10-21T07:12:51.000Z</time>
      </trkpt>
      <trkpt lat="27.81935" lon="86.723398">
        <ele>3852.4</ele>
        <time>2022-10-21T07:12:54.000Z</time>
      </trkpt>
      <trkpt lat="27.819331" lon="86.723398">
        <ele>3852.8</ele>
        <time>2022-10-21T07:12:58.000Z</time>
      </trkpt>
      <trkpt lat="27.819312" lon="86.723398">
        <ele>3853.8</ele>
        <time>2022-10-21T07:13:02.000Z</time>
      </trkpt>
      <trkpt lat="27.819293" lon="86.723398">
        <ele>3854.2</ele>
        <time>2022-10-21T07:13:05.000Z</time>
      </trkpt>
      <trkpt lat="27.819277" lon="86.723386">
        <ele>3854.6</ele>
        <time>2022-10-21T07:13:08.000Z</time>
      </trkpt>
      <trkpt lat="27.819254" lon="86.723386">
        <ele>3855.6</ele>
        <time>2022-10-21T07:13:12.000Z</time>
      </trkpt>
      <trkpt lat="27.819235" lon="86.723398">
        <ele>3855.6</ele>
        <time>2022-10-21T07:13:15.000Z</time>
      </trkpt>
      <trkpt lat="27.819216" lon="86.723398">
        <ele>3856</ele>
        <time>2022-10-21T07:13:18.000Z</time>
      </trkpt>
      <trkpt lat="27.81919" lon="86.723405">
        <ele>3856.2</ele>
        <time>2022-10-21T07:13:21.000Z</time>
      </trkpt>
      <trkpt lat="27.819171" lon="86.723411">
        <ele>3856.6</ele>
        <time>2022-10-21T07:13:24.000Z</time>
      </trkpt>
      <trkpt lat="27.819152" lon="86.723418">
        <ele>3856.8</ele>
        <time>2022-10-21T07:13:26.000Z</time>
      </trkpt>
      <trkpt lat="27.819171" lon="86.723424">
        <ele>3857.2</ele>
        <time>2022-10-21T07:13:31.000Z</time>
      </trkpt>
      <trkpt lat="27.819184" lon="86.723443">
        <ele>3857.4</ele>
        <time>2022-10-21T07:13:34.000Z</time>
      </trkpt>
      <trkpt lat="27.819203" lon="86.723456">
        <ele>3857.4</ele>
        <time>2022-10-21T07:13:37.000Z</time>
      </trkpt>
      <trkpt lat="27.819219" lon="86.723475">
        <ele>3857.4</ele>
        <time>2022-10-21T07:13:39.000Z</time>
      </trkpt>
      <trkpt lat="27.819235" lon="86.723488">
        <ele>3857.4</ele>
        <time>2022-10-21T07:13:42.000Z</time>
      </trkpt>
      <trkpt lat="27.819242" lon="86.723514">
        <ele>3856.8</ele>
        <time>2022-10-21T07:13:49.000Z</time>
      </trkpt>
      <trkpt lat="27.819203" lon="86.723488">
        <ele>3855.6</ele>
        <time>2022-10-21T07:16:03.000Z</time>
      </trkpt>
      <trkpt lat="27.819184" lon="86.723462">
        <ele>3856.2</ele>
        <time>2022-10-21T07:16:06.000Z</time>
      </trkpt>
      <trkpt lat="27.819171" lon="86.723443">
        <ele>3856.2</ele>
        <time>2022-10-21T07:16:08.000Z</time>
      </trkpt>
      <trkpt lat="27.819165" lon="86.723424">
        <ele>3856.4</ele>
        <time>2022-10-21T07:16:09.000Z</time>
      </trkpt>
      <trkpt lat="27.819149" lon="86.723411">
        <ele>3856.2</ele>
        <time>2022-10-21T07:16:11.000Z</time>
      </trkpt>
      <trkpt lat="27.81913" lon="86.723411">
        <ele>3856</ele>
        <time>2022-10-21T07:16:14.000Z</time>
      </trkpt>
      <trkpt lat="27.819107" lon="86.723418">
        <ele>3856.4</ele>
        <time>2022-10-21T07:16:17.000Z</time>
      </trkpt>
      <trkpt lat="27.819085" lon="86.723424">
        <ele>3857.2</ele>
        <time>2022-10-21T07:16:20.000Z</time>
      </trkpt>
      <trkpt lat="27.819066" lon="86.723437">
        <ele>3857.4</ele>
        <time>2022-10-21T07:16:23.000Z</time>
      </trkpt>
      <trkpt lat="27.819046" lon="86.723437">
        <ele>3857.6</ele>
        <time>2022-10-21T07:16:25.000Z</time>
      </trkpt>
      <trkpt lat="27.819024" lon="86.723443">
        <ele>3857.6</ele>
        <time>2022-10-21T07:16:28.000Z</time>
      </trkpt>
      <trkpt lat="27.819002" lon="86.72345">
        <ele>3857.8</ele>
        <time>2022-10-21T07:16:31.000Z</time>
      </trkpt>
      <trkpt lat="27.818976" lon="86.723456">
        <ele>3858.6</ele>
        <time>2022-10-21T07:16:34.000Z</time>
      </trkpt>
      <trkpt lat="27.818957" lon="86.723462">
        <ele>3858.8</ele>
        <time>2022-10-21T07:16:36.000Z</time>
      </trkpt>
      <trkpt lat="27.818941" lon="86.723475">
        <ele>3858.6</ele>
        <time>2022-10-21T07:16:38.000Z</time>
      </trkpt>
      <trkpt lat="27.818918" lon="86.723482">
        <ele>3859.4</ele>
        <time>2022-10-21T07:16:40.000Z</time>
      </trkpt>
      <trkpt lat="27.818899" lon="86.723494">
        <ele>3859.6</ele>
        <time>2022-10-21T07:16:42.000Z</time>
      </trkpt>
      <trkpt lat="27.81888" lon="86.723514">
        <ele>3859.2</ele>
        <time>2022-10-21T07:16:44.000Z</time>
      </trkpt>
      <trkpt lat="27.818858" lon="86.72352">
        <ele>3858.4</ele>
        <time>2022-10-21T07:16:46.000Z</time>
      </trkpt>
      <trkpt lat="27.818832" lon="86.72352">
        <ele>3858.2</ele>
        <time>2022-10-21T07:16:49.000Z</time>
      </trkpt>
      <trkpt lat="27.818813" lon="86.723526">
        <ele>3858.2</ele>
        <time>2022-10-21T07:16:51.000Z</time>
      </trkpt>
      <trkpt lat="27.818794" lon="86.723526">
        <ele>3857.8</ele>
        <time>2022-10-21T07:16:53.000Z</time>
      </trkpt>
      <trkpt lat="27.818771" lon="86.723533">
        <ele>3858.6</ele>
        <time>2022-10-21T07:16:56.000Z</time>
      </trkpt>
      <trkpt lat="27.818752" lon="86.723533">
        <ele>3859.2</ele>
        <time>2022-10-21T07:16:58.000Z</time>
      </trkpt>
      <trkpt lat="27.818726" lon="86.723539">
        <ele>3859.8</ele>
        <time>2022-10-21T07:17:01.000Z</time>
      </trkpt>
      <trkpt lat="27.818701" lon="86.723552">
        <ele>3860.2</ele>
        <time>2022-10-21T07:17:05.000Z</time>
      </trkpt>
      <trkpt lat="27.818678" lon="86.723552">
        <ele>3860.4</ele>
        <time>2022-10-21T07:17:07.000Z</time>
      </trkpt>
      <trkpt lat="27.818659" lon="86.723539">
        <ele>3860.8</ele>
        <time>2022-10-21T07:17:09.000Z</time>
      </trkpt>
      <trkpt lat="27.818637" lon="86.723558">
        <ele>3860.8</ele>
        <time>2022-10-21T07:17:12.000Z</time>
      </trkpt>
      <trkpt lat="27.818618" lon="86.723578">
        <ele>3861.4</ele>
        <time>2022-10-21T07:17:15.000Z</time>
      </trkpt>
      <trkpt lat="27.818598" lon="86.723578">
        <ele>3861.8</ele>
        <time>2022-10-21T07:17:17.000Z</time>
      </trkpt>
      <trkpt lat="27.818576" lon="86.723584">
        <ele>3862.4</ele>
        <time>2022-10-21T07:17:20.000Z</time>
      </trkpt>
      <trkpt lat="27.818557" lon="86.723597">
        <ele>3863.4</ele>
        <time>2022-10-21T07:17:23.000Z</time>
      </trkpt>
      <trkpt lat="27.818534" lon="86.723597">
        <ele>3864</ele>
        <time>2022-10-21T07:17:26.000Z</time>
      </trkpt>
      <trkpt lat="27.818515" lon="86.723603">
        <ele>3864.4</ele>
        <time>2022-10-21T07:17:29.000Z</time>
      </trkpt>
      <trkpt lat="27.818493" lon="86.723597">
        <ele>3864.6</ele>
        <time>2022-10-21T07:17:32.000Z</time>
      </trkpt>
      <trkpt lat="27.818477" lon="86.723584">
        <ele>3864.4</ele>
        <time>2022-10-21T07:17:34.000Z</time>
      </trkpt>
      <trkpt lat="27.818454" lon="86.723584">
        <ele>3864.2</ele>
        <time>2022-10-21T07:17:37.000Z</time>
      </trkpt>
      <trkpt lat="27.818435" lon="86.723578">
        <ele>3864.6</ele>
        <time>2022-10-21T07:17:39.000Z</time>
      </trkpt>
      <trkpt lat="27.81841" lon="86.723571">
        <ele>3865.4</ele>
        <time>2022-10-21T07:17:42.000Z</time>
      </trkpt>
      <trkpt lat="27.818387" lon="86.723571">
        <ele>3865.6</ele>
        <time>2022-10-21T07:17:45.000Z</time>
      </trkpt>
      <trkpt lat="27.818362" lon="86.723571">
        <ele>3866</ele>
        <time>2022-10-21T07:17:48.000Z</time>
      </trkpt>
      <trkpt lat="27.818339" lon="86.723565">
        <ele>3866</ele>
        <time>2022-10-21T07:17:51.000Z</time>
      </trkpt>
      <trkpt lat="27.818317" lon="86.723558">
        <ele>3866.6</ele>
        <time>2022-10-21T07:17:54.000Z</time>
      </trkpt>
      <trkpt lat="27.818298" lon="86.723558">
        <ele>3866.8</ele>
        <time>2022-10-21T07:17:56.000Z</time>
      </trkpt>
      <trkpt lat="27.818278" lon="86.723558">
        <ele>3866.6</ele>
        <time>2022-10-21T07:17:58.000Z</time>
      </trkpt>
      <trkpt lat="27.818259" lon="86.723565">
        <ele>3866.6</ele>
        <time>2022-10-21T07:18:00.000Z</time>
      </trkpt>
      <trkpt lat="27.81824" lon="86.723571">
        <ele>3866.8</ele>
        <time>2022-10-21T07:18:02.000Z</time>
      </trkpt>
      <trkpt lat="27.818221" lon="86.723571">
        <ele>3867.6</ele>
        <time>2022-10-21T07:18:05.000Z</time>
      </trkpt>
      <trkpt lat="27.818198" lon="86.723571">
        <ele>3868.4</ele>
        <time>2022-10-21T07:18:10.000Z</time>
      </trkpt>
      <trkpt lat="27.818179" lon="86.723578">
        <ele>3868</ele>
        <time>2022-10-21T07:18:13.000Z</time>
      </trkpt>
      <trkpt lat="27.818157" lon="86.723584">
        <ele>3868.4</ele>
        <time>2022-10-21T07:18:16.000Z</time>
      </trkpt>
      <trkpt lat="27.818138" lon="86.723597">
        <ele>3868.6</ele>
        <time>2022-10-21T07:18:19.000Z</time>
      </trkpt>
      <trkpt lat="27.818122" lon="86.72361">
        <ele>3869</ele>
        <time>2022-10-21T07:18:22.000Z</time>
      </trkpt>
      <trkpt lat="27.818099" lon="86.72361">
        <ele>3869.6</ele>
        <time>2022-10-21T07:18:26.000Z</time>
      </trkpt>
      <trkpt lat="27.81808" lon="86.72361">
        <ele>3869.6</ele>
        <time>2022-10-21T07:18:28.000Z</time>
      </trkpt>
      <trkpt lat="27.818061" lon="86.723603">
        <ele>3870</ele>
        <time>2022-10-21T07:18:30.000Z</time>
      </trkpt>
      <trkpt lat="27.818042" lon="86.723584">
        <ele>3870.4</ele>
        <time>2022-10-21T07:18:34.000Z</time>
      </trkpt>
      <trkpt lat="27.818022" lon="86.723571">
        <ele>3870.6</ele>
        <time>2022-10-21T07:18:37.000Z</time>
      </trkpt>
      <trkpt lat="27.818003" lon="86.723565">
        <ele>3870.6</ele>
        <time>2022-10-21T07:18:39.000Z</time>
      </trkpt>
      <trkpt lat="27.817984" lon="86.723539">
        <ele>3871.4</ele>
        <time>2022-10-21T07:18:42.000Z</time>
      </trkpt>
      <trkpt lat="27.817965" lon="86.723539">
        <ele>3871.4</ele>
        <time>2022-10-21T07:18:44.000Z</time>
      </trkpt>
      <trkpt lat="27.817949" lon="86.72352">
        <ele>3871.4</ele>
        <time>2022-10-21T07:18:47.000Z</time>
      </trkpt>
      <trkpt lat="27.817933" lon="86.723501">
        <ele>3871.8</ele>
        <time>2022-10-21T07:18:50.000Z</time>
      </trkpt>
      <trkpt lat="27.81791" lon="86.723488">
        <ele>3872</ele>
        <time>2022-10-21T07:18:52.000Z</time>
      </trkpt>
      <trkpt lat="27.817888" lon="86.723488">
        <ele>3872.8</ele>
        <time>2022-10-21T07:18:55.000Z</time>
      </trkpt>
      <trkpt lat="27.817869" lon="86.723482">
        <ele>3873.2</ele>
        <time>2022-10-21T07:18:58.000Z</time>
      </trkpt>
      <trkpt lat="27.81785" lon="86.723482">
        <ele>3872.8</ele>
        <time>2022-10-21T07:19:02.000Z</time>
      </trkpt>
      <trkpt lat="27.81783" lon="86.723494">
        <ele>3872.2</ele>
        <time>2022-10-21T07:19:04.000Z</time>
      </trkpt>
      <trkpt lat="27.817811" lon="86.723514">
        <ele>3872.2</ele>
        <time>2022-10-21T07:19:07.000Z</time>
      </trkpt>
      <trkpt lat="27.817818" lon="86.723533">
        <ele>3873</ele>
        <time>2022-10-21T07:19:11.000Z</time>
      </trkpt>
      <trkpt lat="27.817827" lon="86.723552">
        <ele>3873.8</ele>
        <time>2022-10-21T07:19:14.000Z</time>
      </trkpt>
      <trkpt lat="27.81775" lon="86.723501">
        <ele>3873.4</ele>
        <time>2022-10-21T07:25:54.000Z</time>
      </trkpt>
      <trkpt lat="27.817728" lon="86.723482">
        <ele>3872.2</ele>
        <time>2022-10-21T07:25:57.000Z</time>
      </trkpt>
      <trkpt lat="27.817712" lon="86.723462">
        <ele>3871.6</ele>
        <time>2022-10-21T07:25:59.000Z</time>
      </trkpt>
      <trkpt lat="27.81769" lon="86.72345">
        <ele>3871.4</ele>
        <time>2022-10-21T07:26:01.000Z</time>
      </trkpt>
      <trkpt lat="27.81767" lon="86.723443">
        <ele>3871.2</ele>
        <time>2022-10-21T07:26:03.000Z</time>
      </trkpt>
      <trkpt lat="27.817651" lon="86.723443">
        <ele>3871</ele>
        <time>2022-10-21T07:26:05.000Z</time>
      </trkpt>
      <trkpt lat="27.817626" lon="86.723443">
        <ele>3871.2</ele>
        <time>2022-10-21T07:26:08.000Z</time>
      </trkpt>
      <trkpt lat="27.817606" lon="86.72345">
        <ele>3871.6</ele>
        <time>2022-10-21T07:26:11.000Z</time>
      </trkpt>
      <trkpt lat="27.817584" lon="86.723456">
        <ele>3872.2</ele>
        <time>2022-10-21T07:26:14.000Z</time>
      </trkpt>
      <trkpt lat="27.817555" lon="86.723475">
        <ele>3872.2</ele>
        <time>2022-10-21T07:26:17.000Z</time>
      </trkpt>
      <trkpt lat="27.817526" lon="86.723482">
        <ele>3872.2</ele>
        <time>2022-10-21T07:26:20.000Z</time>
      </trkpt>
      <trkpt lat="27.817504" lon="86.723494">
        <ele>3873</ele>
        <time>2022-10-21T07:26:23.000Z</time>
      </trkpt>
      <trkpt lat="27.817478" lon="86.723501">
        <ele>3872.6</ele>
        <time>2022-10-21T07:26:26.000Z</time>
      </trkpt>
      <trkpt lat="27.81745" lon="86.723501">
        <ele>3872.2</ele>
        <time>2022-10-21T07:26:28.000Z</time>
      </trkpt>
      <trkpt lat="27.817427" lon="86.723482">
        <ele>3871.6</ele>
        <time>2022-10-21T07:26:31.000Z</time>
      </trkpt>
      <trkpt lat="27.817414" lon="86.723462">
        <ele>3871.6</ele>
        <time>2022-10-21T07:26:33.000Z</time>
      </trkpt>
      <trkpt lat="27.817402" lon="86.723443">
        <ele>3871.2</ele>
        <time>2022-10-21T07:26:36.000Z</time>
      </trkpt>
      <trkpt lat="27.817395" lon="86.723424">
        <ele>3871.2</ele>
        <time>2022-10-21T07:26:38.000Z</time>
      </trkpt>
      <trkpt lat="27.817386" lon="86.723405">
        <ele>3871.2</ele>
        <time>2022-10-21T07:26:41.000Z</time>
      </trkpt>
      <trkpt lat="27.81737" lon="86.723386">
        <ele>3871</ele>
        <time>2022-10-21T07:26:43.000Z</time>
      </trkpt>
      <trkpt lat="27.817354" lon="86.723366">
        <ele>3871</ele>
        <time>2022-10-21T07:26:49.000Z</time>
      </trkpt>
      <trkpt lat="27.817338" lon="86.723354">
        <ele>3871.4</ele>
        <time>2022-10-21T07:26:54.000Z</time>
      </trkpt>
      <trkpt lat="27.817331" lon="86.723328">
        <ele>3871.4</ele>
        <time>2022-10-21T07:26:56.000Z</time>
      </trkpt>
      <trkpt lat="27.817312" lon="86.723302">
        <ele>3871.8</ele>
        <time>2022-10-21T07:26:59.000Z</time>
      </trkpt>
      <trkpt lat="27.817296" lon="86.723283">
        <ele>3872</ele>
        <time>2022-10-21T07:27:02.000Z</time>
      </trkpt>
      <trkpt lat="27.817286" lon="86.723258">
        <ele>3872</ele>
        <time>2022-10-21T07:27:04.000Z</time>
      </trkpt>
      <trkpt lat="27.817267" lon="86.723238">
        <ele>3871.8</ele>
        <time>2022-10-21T07:27:07.000Z</time>
      </trkpt>
      <trkpt lat="27.817248" lon="86.723219">
        <ele>3871.6</ele>
        <time>2022-10-21T07:27:09.000Z</time>
      </trkpt>
      <trkpt lat="27.817229" lon="86.723206">
        <ele>3871.6</ele>
        <time>2022-10-21T07:27:11.000Z</time>
      </trkpt>
      <trkpt lat="27.81721" lon="86.723187">
        <ele>3871.6</ele>
        <time>2022-10-21T07:27:14.000Z</time>
      </trkpt>
      <trkpt lat="27.81719" lon="86.723181">
        <ele>3871.8</ele>
        <time>2022-10-21T07:27:17.000Z</time>
      </trkpt>
      <trkpt lat="27.817184" lon="86.723162">
        <ele>3872</ele>
        <time>2022-10-21T07:27:19.000Z</time>
      </trkpt>
      <trkpt lat="27.817171" lon="86.723142">
        <ele>3872.8</ele>
        <time>2022-10-21T07:27:22.000Z</time>
      </trkpt>
      <trkpt lat="27.817155" lon="86.72313">
        <ele>3874</ele>
        <time>2022-10-21T07:27:24.000Z</time>
      </trkpt>
      <trkpt lat="27.817136" lon="86.723104">
        <ele>3873.8</ele>
        <time>2022-10-21T07:27:28.000Z</time>
      </trkpt>
      <trkpt lat="27.817117" lon="86.723098">
        <ele>3873.6</ele>
        <time>2022-10-21T07:27:30.000Z</time>
      </trkpt>
      <trkpt lat="27.817098" lon="86.723098">
        <ele>3873.8</ele>
        <time>2022-10-21T07:27:32.000Z</time>
      </trkpt>
      <trkpt lat="27.817075" lon="86.723098">
        <ele>3873.6</ele>
        <time>2022-10-21T07:27:35.000Z</time>
      </trkpt>
      <trkpt lat="27.817053" lon="86.723104">
        <ele>3873.8</ele>
        <time>2022-10-21T07:27:37.000Z</time>
      </trkpt>
      <trkpt lat="27.81703" lon="86.723104">
        <ele>3874.2</ele>
        <time>2022-10-21T07:27:40.000Z</time>
      </trkpt>
      <trkpt lat="27.817011" lon="86.723117">
        <ele>3874.2</ele>
        <time>2022-10-21T07:27:42.000Z</time>
      </trkpt>
      <trkpt lat="27.816986" lon="86.723123">
        <ele>3874.2</ele>
        <time>2022-10-21T07:27:45.000Z</time>
      </trkpt>
      <trkpt lat="27.816966" lon="86.72313">
        <ele>3874.4</ele>
        <time>2022-10-21T07:27:47.000Z</time>
      </trkpt>
      <trkpt lat="27.816947" lon="86.723136">
        <ele>3874.6</ele>
        <time>2022-10-21T07:27:49.000Z</time>
      </trkpt>
      <trkpt lat="27.816922" lon="86.723142">
        <ele>3874.6</ele>
        <time>2022-10-21T07:27:52.000Z</time>
      </trkpt>
      <trkpt lat="27.816899" lon="86.723155">
        <ele>3874.6</ele>
        <time>2022-10-21T07:27:54.000Z</time>
      </trkpt>
      <trkpt lat="27.81688" lon="86.723155">
        <ele>3874.6</ele>
        <time>2022-10-21T07:27:56.000Z</time>
      </trkpt>
      <trkpt lat="27.816864" lon="86.723142">
        <ele>3874.2</ele>
        <time>2022-10-21T07:27:58.000Z</time>
      </trkpt>
      <trkpt lat="27.816838" lon="86.723136">
        <ele>3873.6</ele>
        <time>2022-10-21T07:28:01.000Z</time>
      </trkpt>
      <trkpt lat="27.816819" lon="86.723136">
        <ele>3873.4</ele>
        <time>2022-10-21T07:28:03.000Z</time>
      </trkpt>
      <trkpt lat="27.8168" lon="86.723136">
        <ele>3873.4</ele>
        <time>2022-10-21T07:28:05.000Z</time>
      </trkpt>
      <trkpt lat="27.816778" lon="86.723136">
        <ele>3873.6</ele>
        <time>2022-10-21T07:28:07.000Z</time>
      </trkpt>
      <trkpt lat="27.816765" lon="86.723155">
        <ele>3873.8</ele>
        <time>2022-10-21T07:28:09.000Z</time>
      </trkpt>
      <trkpt lat="27.816742" lon="86.723162">
        <ele>3874</ele>
        <time>2022-10-21T07:28:12.000Z</time>
      </trkpt>
      <trkpt lat="27.816723" lon="86.723155">
        <ele>3873</ele>
        <time>2022-10-21T07:28:14.000Z</time>
      </trkpt>
      <trkpt lat="27.816698" lon="86.723162">
        <ele>3872</ele>
        <time>2022-10-21T07:28:19.000Z</time>
      </trkpt>
      <trkpt lat="27.816675" lon="86.723174">
        <ele>3871.8</ele>
        <time>2022-10-21T07:28:22.000Z</time>
      </trkpt>
      <trkpt lat="27.816656" lon="86.723181">
        <ele>3872.4</ele>
        <time>2022-10-21T07:28:24.000Z</time>
      </trkpt>
      <trkpt lat="27.81665" lon="86.7232">
        <ele>3871.8</ele>
        <time>2022-10-21T07:28:25.000Z</time>
      </trkpt>
      <trkpt lat="27.81663" lon="86.723213">
        <ele>3871.8</ele>
        <time>2022-10-21T07:28:27.000Z</time>
      </trkpt>
      <trkpt lat="27.816608" lon="86.723219">
        <ele>3871.6</ele>
        <time>2022-10-21T07:28:30.000Z</time>
      </trkpt>
      <trkpt lat="27.816618" lon="86.723238">
        <ele>3874.8</ele>
        <time>2022-10-21T07:29:27.000Z</time>
      </trkpt>
      <trkpt lat="27.81664" lon="86.723245">
        <ele>3875</ele>
        <time>2022-10-21T07:29:29.000Z</time>
      </trkpt>
      <trkpt lat="27.816669" lon="86.723251">
        <ele>3875.8</ele>
        <time>2022-10-21T07:29:32.000Z</time>
      </trkpt>
      <trkpt lat="27.816688" lon="86.723258">
        <ele>3876.2</ele>
        <time>2022-10-21T07:29:34.000Z</time>
      </trkpt>
      <trkpt lat="27.816707" lon="86.723264">
        <ele>3877.8</ele>
        <time>2022-10-21T07:29:38.000Z</time>
      </trkpt>
      <trkpt lat="27.816714" lon="86.723283">
        <ele>3878.2</ele>
        <time>2022-10-21T07:29:42.000Z</time>
      </trkpt>
      <trkpt lat="27.816723" lon="86.723302">
        <ele>3878.4</ele>
        <time>2022-10-21T07:29:49.000Z</time>
      </trkpt>
      <trkpt lat="27.816742" lon="86.723302">
        <ele>3879.4</ele>
        <time>2022-10-21T07:29:53.000Z</time>
      </trkpt>
      <trkpt lat="27.816749" lon="86.72336">
        <ele>3883</ele>
        <time>2022-10-21T07:30:48.000Z</time>
      </trkpt>
      <trkpt lat="27.816758" lon="86.723379">
        <ele>3883.8</ele>
        <time>2022-10-21T07:30:51.000Z</time>
      </trkpt>
      <trkpt lat="27.816752" lon="86.723405">
        <ele>3883.8</ele>
        <time>2022-10-21T07:30:53.000Z</time>
      </trkpt>
      <trkpt lat="27.816771" lon="86.723424">
        <ele>3883.6</ele>
        <time>2022-10-21T07:30:55.000Z</time>
      </trkpt>
      <trkpt lat="27.816781" lon="86.723443">
        <ele>3883.6</ele>
        <time>2022-10-21T07:30:56.000Z</time>
      </trkpt>
      <trkpt lat="27.816778" lon="86.723482">
        <ele>3883.8</ele>
        <time>2022-10-21T07:30:58.000Z</time>
      </trkpt>
      <trkpt lat="27.816771" lon="86.723514">
        <ele>3884</ele>
        <time>2022-10-21T07:30:59.000Z</time>
      </trkpt>
      <trkpt lat="27.816794" lon="86.723552">
        <ele>3884</ele>
        <time>2022-10-21T07:31:01.000Z</time>
      </trkpt>
      <trkpt lat="27.816838" lon="86.723597">
        <ele>3884</ele>
        <time>2022-10-21T07:31:02.000Z</time>
      </trkpt>
      <trkpt lat="27.816893" lon="86.723603">
        <ele>3884</ele>
        <time>2022-10-21T07:31:04.000Z</time>
      </trkpt>
      <trkpt lat="27.816918" lon="86.72361">
        <ele>3884.2</ele>
        <time>2022-10-21T07:31:05.000Z</time>
      </trkpt>
      <trkpt lat="27.816906" lon="86.723661">
        <ele>3884.6</ele>
        <time>2022-10-21T07:31:07.000Z</time>
      </trkpt>
      <trkpt lat="27.816899" lon="86.72368">
        <ele>3884.6</ele>
        <time>2022-10-21T07:31:08.000Z</time>
      </trkpt>
      <trkpt lat="27.816906" lon="86.723718">
        <ele>3884.2</ele>
        <time>2022-10-21T07:31:10.000Z</time>
      </trkpt>
      <trkpt lat="27.816912" lon="86.723757">
        <ele>3884</ele>
        <time>2022-10-21T07:31:16.000Z</time>
      </trkpt>
      <trkpt lat="27.816928" lon="86.723802">
        <ele>3884</ele>
        <time>2022-10-21T07:31:17.000Z</time>
      </trkpt>
      <trkpt lat="27.816915" lon="86.723738">
        <ele>3884.6</ele>
        <time>2022-10-21T07:31:19.000Z</time>
      </trkpt>
      <trkpt lat="27.816909" lon="86.723718">
        <ele>3883.8</ele>
        <time>2022-10-21T07:31:22.000Z</time>
      </trkpt>
      <trkpt lat="27.816896" lon="86.723699">
        <ele>3884</ele>
        <time>2022-10-21T07:31:25.000Z</time>
      </trkpt>
      <trkpt lat="27.816858" lon="86.723738">
        <ele>3886</ele>
        <time>2022-10-21T07:38:45.000Z</time>
      </trkpt>
      <trkpt lat="27.816861" lon="86.723712">
        <ele>3886.6</ele>
        <time>2022-10-21T07:38:47.000Z</time>
      </trkpt>
      <trkpt lat="27.816867" lon="86.72368">
        <ele>3886.6</ele>
        <time>2022-10-21T07:38:51.000Z</time>
      </trkpt>
      <trkpt lat="27.816867" lon="86.723648">
        <ele>3886.2</ele>
        <time>2022-10-21T07:38:54.000Z</time>
      </trkpt>
      <trkpt lat="27.816851" lon="86.723622">
        <ele>3886.2</ele>
        <time>2022-10-21T07:38:57.000Z</time>
      </trkpt>
      <trkpt lat="27.816845" lon="86.723642">
        <ele>3887.2</ele>
        <time>2022-10-21T07:39:02.000Z</time>
      </trkpt>
      <trkpt lat="27.816685" lon="86.724531">
        <ele>3885.8</ele>
        <time>2022-10-21T07:39:59.000Z</time>
      </trkpt>
      <trkpt lat="27.816688" lon="86.724454">
        <ele>3885.8</ele>
        <time>2022-10-21T07:40:00.000Z</time>
      </trkpt>
      <trkpt lat="27.816688" lon="86.724397">
        <ele>3885.6</ele>
        <time>2022-10-21T07:40:01.000Z</time>
      </trkpt>
      <trkpt lat="27.816682" lon="86.724314">
        <ele>3884.6</ele>
        <time>2022-10-21T07:40:27.000Z</time>
      </trkpt>
      <trkpt lat="27.816678" lon="86.724237">
        <ele>3884.8</ele>
        <time>2022-10-21T07:40:31.000Z</time>
      </trkpt>
      <trkpt lat="27.816678" lon="86.724198">
        <ele>3885</ele>
        <time>2022-10-21T07:40:33.000Z</time>
      </trkpt>
      <trkpt lat="27.816685" lon="86.724179">
        <ele>3884.6</ele>
        <time>2022-10-21T07:40:38.000Z</time>
      </trkpt>
      <trkpt lat="27.816682" lon="86.724141">
        <ele>3883.2</ele>
        <time>2022-10-21T07:40:44.000Z</time>
      </trkpt>
      <trkpt lat="27.816682" lon="86.724115">
        <ele>3882.2</ele>
        <time>2022-10-21T07:40:47.000Z</time>
      </trkpt>
      <trkpt lat="27.816672" lon="86.724083">
        <ele>3882</ele>
        <time>2022-10-21T07:40:49.000Z</time>
      </trkpt>
      <trkpt lat="27.816672" lon="86.724051">
        <ele>3881.4</ele>
        <time>2022-10-21T07:40:51.000Z</time>
      </trkpt>
      <trkpt lat="27.816662" lon="86.724032">
        <ele>3879.6</ele>
        <time>2022-10-21T07:40:57.000Z</time>
      </trkpt>
      <trkpt lat="27.816646" lon="86.724013">
        <ele>3878.6</ele>
        <time>2022-10-21T07:40:59.000Z</time>
      </trkpt>
      <trkpt lat="27.816624" lon="86.724">
        <ele>3879</ele>
        <time>2022-10-21T07:41:02.000Z</time>
      </trkpt>
      <trkpt lat="27.816611" lon="86.723994">
        <ele>3878.8</ele>
        <time>2022-10-21T07:41:05.000Z</time>
      </trkpt>
      <trkpt lat="27.816074" lon="86.723226">
        <ele>3876</ele>
        <time>2022-10-21T07:42:09.000Z</time>
      </trkpt>
      <trkpt lat="27.815715" lon="86.723174">
        <ele>3880.6</ele>
        <time>2022-10-21T07:44:09.000Z</time>
      </trkpt>
      <trkpt lat="27.815802" lon="86.723078">
        <ele>3880</ele>
        <time>2022-10-21T07:45:09.000Z</time>
      </trkpt>
      <trkpt lat="27.815565" lon="86.722758">
        <ele>3868</ele>
        <time>2022-10-21T07:46:09.000Z</time>
      </trkpt>
      <trkpt lat="27.81489" lon="86.721478">
        <ele>3858.6</ele>
        <time>2022-10-21T07:48:09.000Z</time>
      </trkpt>
      <trkpt lat="27.814682" lon="86.721312">
        <ele>3859.2</ele>
        <time>2022-10-21T07:49:09.000Z</time>
      </trkpt>
      <trkpt lat="27.814582" lon="86.721069">
        <ele>3857</ele>
        <time>2022-10-21T07:50:09.000Z</time>
      </trkpt>
      <trkpt lat="27.814086" lon="86.720518">
        <ele>3855.8</ele>
        <time>2022-10-21T07:51:09.000Z</time>
      </trkpt>
      <trkpt lat="27.813958" lon="86.720026">
        <ele>3852.2</ele>
        <time>2022-10-21T07:52:09.000Z</time>
      </trkpt>
      <trkpt lat="27.813875" lon="86.719942">
        <ele>3851.4</ele>
        <time>2022-10-21T07:53:09.000Z</time>
      </trkpt>
      <trkpt lat="27.813853" lon="86.720122">
        <ele>3853.4</ele>
        <time>2022-10-21T07:54:09.000Z</time>
      </trkpt>
      <trkpt lat="27.813875" lon="86.720224">
        <ele>3856.4</ele>
        <time>2022-10-21T07:55:09.000Z</time>
      </trkpt>
      <trkpt lat="27.813728" lon="86.719546">
        <ele>3851.4</ele>
        <time>2022-10-21T08:02:09.000Z</time>
      </trkpt>
      <trkpt lat="27.813459" lon="86.718912">
        <ele>3851.6</ele>
        <time>2022-10-21T08:03:09.000Z</time>
      </trkpt>
      <trkpt lat="27.812922" lon="86.718618">
        <ele>3854</ele>
        <time>2022-10-21T08:04:09.000Z</time>
      </trkpt>
      <trkpt lat="27.812547" lon="86.718432">
        <ele>3858</ele>
        <time>2022-10-21T08:05:09.000Z</time>
      </trkpt>
      <trkpt lat="27.811936" lon="86.718477">
        <ele>3854.4</ele>
        <time>2022-10-21T08:06:09.000Z</time>
      </trkpt>
      <trkpt lat="27.811814" lon="86.71847">
        <ele>3853.4</ele>
        <time>2022-10-21T08:07:09.000Z</time>
      </trkpt>
      <trkpt lat="27.811354" lon="86.718131">
        <ele>3846</ele>
        <time>2022-10-21T08:08:09.000Z</time>
      </trkpt>
      <trkpt lat="27.811088" lon="86.717901">
        <ele>3844.4</ele>
        <time>2022-10-21T08:09:09.000Z</time>
      </trkpt>
      <trkpt lat="27.811427" lon="86.717338">
        <ele>3838.8</ele>
        <time>2022-10-21T08:10:09.000Z</time>
      </trkpt>
      <trkpt lat="27.811322" lon="86.71712">
        <ele>3831.8</ele>
        <time>2022-10-21T08:11:09.000Z</time>
      </trkpt>
      <trkpt lat="27.811219" lon="86.716934">
        <ele>3824.4</ele>
        <time>2022-10-21T08:12:09.000Z</time>
      </trkpt>
      <trkpt lat="27.810877" lon="86.716614">
        <ele>3810</ele>
        <time>2022-10-21T08:13:09.000Z</time>
      </trkpt>
      <trkpt lat="27.810365" lon="86.716077">
        <ele>3785.2</ele>
        <time>2022-10-21T08:15:09.000Z</time>
      </trkpt>
      <trkpt lat="27.81017" lon="86.71543">
        <ele>3774.8</ele>
        <time>2022-10-21T08:16:09.000Z</time>
      </trkpt>
      <trkpt lat="27.810275" lon="86.715238">
        <ele>3771.2</ele>
        <time>2022-10-21T08:17:09.000Z</time>
      </trkpt>
      <trkpt lat="27.810598" lon="86.7152">
        <ele>3771.8</ele>
        <time>2022-10-21T08:18:09.000Z</time>
      </trkpt>
      <trkpt lat="27.810435" lon="86.715066">
        <ele>3772</ele>
        <time>2022-10-21T08:20:09.000Z</time>
      </trkpt>
      <trkpt lat="27.810656" lon="86.715635">
        <ele>3772.4</ele>
        <time>2022-10-21T08:21:09.000Z</time>
      </trkpt>
      <trkpt lat="27.810538" lon="86.715136">
        <ele>3774.2</ele>
        <time>2022-10-21T08:25:09.000Z</time>
      </trkpt>
      <trkpt lat="27.810195" lon="86.715251">
        <ele>3773.4</ele>
        <time>2022-10-21T08:27:09.000Z</time>
      </trkpt>
      <trkpt lat="27.809894" lon="86.714861">
        <ele>3761</ele>
        <time>2022-10-21T08:28:09.000Z</time>
      </trkpt>
      <trkpt lat="27.809514" lon="86.714342">
        <ele>3751.6</ele>
        <time>2022-10-21T08:29:09.000Z</time>
      </trkpt>
      <trkpt lat="27.809062" lon="86.71431">
        <ele>3740.4</ele>
        <time>2022-10-21T08:30:09.000Z</time>
      </trkpt>
      <trkpt lat="27.808595" lon="86.71417">
        <ele>3731</ele>
        <time>2022-10-21T08:31:09.000Z</time>
      </trkpt>
      <trkpt lat="27.808234" lon="86.714182">
        <ele>3718.6</ele>
        <time>2022-10-21T08:32:09.000Z</time>
      </trkpt>
      <trkpt lat="27.807965" lon="86.714029">
        <ele>3705.2</ele>
        <time>2022-10-21T08:34:09.000Z</time>
      </trkpt>
      <trkpt lat="27.807792" lon="86.714022">
        <ele>3696.4</ele>
        <time>2022-10-21T08:35:09.000Z</time>
      </trkpt>
      <trkpt lat="27.807658" lon="86.713958">
        <ele>3689.2</ele>
        <time>2022-10-21T08:36:09.000Z</time>
      </trkpt>
      <trkpt lat="27.807459" lon="86.713882">
        <ele>3677.8</ele>
        <time>2022-10-21T08:38:09.000Z</time>
      </trkpt>
      <trkpt lat="27.807277" lon="86.713747">
        <ele>3665.4</ele>
        <time>2022-10-21T08:39:09.000Z</time>
      </trkpt>
      <trkpt lat="27.807104" lon="86.713792">
        <ele>3654.2</ele>
        <time>2022-10-21T08:40:09.000Z</time>
      </trkpt>
      <trkpt lat="27.806899" lon="86.71367">
        <ele>3643.2</ele>
        <time>2022-10-21T08:41:09.000Z</time>
      </trkpt>
      <trkpt lat="27.806762" lon="86.713555">
        <ele>3633</ele>
        <time>2022-10-21T08:42:09.000Z</time>
      </trkpt>
      <trkpt lat="27.806547" lon="86.713453">
        <ele>3620.8</ele>
        <time>2022-10-21T08:43:09.000Z</time>
      </trkpt>
      <trkpt lat="27.806198" lon="86.713594">
        <ele>3598.8</ele>
        <time>2022-10-21T08:45:09.000Z</time>
      </trkpt>
      <trkpt lat="27.806074" lon="86.71351">
        <ele>3589.4</ele>
        <time>2022-10-21T08:46:09.000Z</time>
      </trkpt>
      <trkpt lat="27.805834" lon="86.713414">
        <ele>3578.4</ele>
        <time>2022-10-21T08:47:09.000Z</time>
      </trkpt>
      <trkpt lat="27.805658" lon="86.713338">
        <ele>3567.6</ele>
        <time>2022-10-21T08:48:09.000Z</time>
      </trkpt>
      <trkpt lat="27.805459" lon="86.713325">
        <ele>3557.2</ele>
        <time>2022-10-21T08:49:09.000Z</time>
      </trkpt>
      <trkpt lat="27.803533" lon="86.709856">
        <ele>3399.6</ele>
        <time>2022-10-22T02:53:53.000Z</time>
      </trkpt>
      <trkpt lat="27.803549" lon="86.709875">
        <ele>3399.8</ele>
        <time>2022-10-22T02:53:56.000Z</time>
      </trkpt>
      <trkpt lat="27.803558" lon="86.709894">
        <ele>3400</ele>
        <time>2022-10-22T02:53:58.000Z</time>
      </trkpt>
      <trkpt lat="27.803578" lon="86.709907">
        <ele>3400.4</ele>
        <time>2022-10-22T02:54:01.000Z</time>
      </trkpt>
      <trkpt lat="27.803597" lon="86.709914">
        <ele>3400.8</ele>
        <time>2022-10-22T02:54:06.000Z</time>
      </trkpt>
      <trkpt lat="27.80361" lon="86.709933">
        <ele>3401</ele>
        <time>2022-10-22T02:54:08.000Z</time>
      </trkpt>
      <trkpt lat="27.803626" lon="86.70992">
        <ele>3401.4</ele>
        <time>2022-10-22T02:54:13.000Z</time>
      </trkpt>
      <trkpt lat="27.803648" lon="86.70992">
        <ele>3401.6</ele>
        <time>2022-10-22T02:54:16.000Z</time>
      </trkpt>
      <trkpt lat="27.803654" lon="86.709939">
        <ele>3401.8</ele>
        <time>2022-10-22T02:54:18.000Z</time>
      </trkpt>
      <trkpt lat="27.803667" lon="86.709958">
        <ele>3402.2</ele>
        <time>2022-10-22T02:54:21.000Z</time>
      </trkpt>
      <trkpt lat="27.803683" lon="86.709971">
        <ele>3402.6</ele>
        <time>2022-10-22T02:54:24.000Z</time>
      </trkpt>
      <trkpt lat="27.803702" lon="86.709978">
        <ele>3403.2</ele>
        <time>2022-10-22T02:54:28.000Z</time>
      </trkpt>
      <trkpt lat="27.803722" lon="86.709978">
        <ele>3403.8</ele>
        <time>2022-10-22T02:54:34.000Z</time>
      </trkpt>
      <trkpt lat="27.803738" lon="86.70999">
        <ele>3403.8</ele>
        <time>2022-10-22T02:54:37.000Z</time>
      </trkpt>
      <trkpt lat="27.80375" lon="86.71001">
        <ele>3404</ele>
        <time>2022-10-22T02:54:39.000Z</time>
      </trkpt>
      <trkpt lat="27.80377" lon="86.71001">
        <ele>3404.2</ele>
        <time>2022-10-22T02:54:42.000Z</time>
      </trkpt>
      <trkpt lat="27.803789" lon="86.710016">
        <ele>3404.6</ele>
        <time>2022-10-22T02:54:45.000Z</time>
      </trkpt>
      <trkpt lat="27.803811" lon="86.710022">
        <ele>3405.2</ele>
        <time>2022-10-22T02:54:48.000Z</time>
      </trkpt>
      <trkpt lat="27.80383" lon="86.710029">
        <ele>3405.4</ele>
        <time>2022-10-22T02:54:51.000Z</time>
      </trkpt>
      <trkpt lat="27.803846" lon="86.710048">
        <ele>3406</ele>
        <time>2022-10-22T02:54:54.000Z</time>
      </trkpt>
      <trkpt lat="27.803872" lon="86.710054">
        <ele>3406.4</ele>
        <time>2022-10-22T02:54:57.000Z</time>
      </trkpt>
      <trkpt lat="27.803898" lon="86.71008">
        <ele>3407.2</ele>
        <time>2022-10-22T02:55:04.000Z</time>
      </trkpt>
      <trkpt lat="27.803914" lon="86.710093">
        <ele>3408.2</ele>
        <time>2022-10-22T02:55:09.000Z</time>
      </trkpt>
      <trkpt lat="27.803933" lon="86.710099">
        <ele>3408.4</ele>
        <time>2022-10-22T02:55:13.000Z</time>
      </trkpt>
      <trkpt lat="27.803949" lon="86.710112">
        <ele>3409</ele>
        <time>2022-10-22T02:55:16.000Z</time>
      </trkpt>
      <trkpt lat="27.803958" lon="86.710131">
        <ele>3409.2</ele>
        <time>2022-10-22T02:55:19.000Z</time>
      </trkpt>
      <trkpt lat="27.803978" lon="86.710138">
        <ele>3409.6</ele>
        <time>2022-10-22T02:55:22.000Z</time>
      </trkpt>
      <trkpt lat="27.804003" lon="86.71015">
        <ele>3410</ele>
        <time>2022-10-22T02:55:26.000Z</time>
      </trkpt>
      <trkpt lat="27.804016" lon="86.71017">
        <ele>3410.4</ele>
        <time>2022-10-22T02:55:28.000Z</time>
      </trkpt>
      <trkpt lat="27.804032" lon="86.710182">
        <ele>3411.2</ele>
        <time>2022-10-22T02:55:32.000Z</time>
      </trkpt>
      <trkpt lat="27.804051" lon="86.710189">
        <ele>3411.2</ele>
        <time>2022-10-22T02:55:35.000Z</time>
      </trkpt>
      <trkpt lat="27.80407" lon="86.710195">
        <ele>3411.4</ele>
        <time>2022-10-22T02:55:37.000Z</time>
      </trkpt>
      <trkpt lat="27.80409" lon="86.710195">
        <ele>3411.8</ele>
        <time>2022-10-22T02:55:40.000Z</time>
      </trkpt>
      <trkpt lat="27.804106" lon="86.710214">
        <ele>3412</ele>
        <time>2022-10-22T02:55:43.000Z</time>
      </trkpt>
      <trkpt lat="27.804122" lon="86.710227">
        <ele>3412.2</ele>
        <time>2022-10-22T02:55:46.000Z</time>
      </trkpt>
      <trkpt lat="27.804138" lon="86.710266">
        <ele>3412.6</ele>
        <time>2022-10-22T02:55:51.000Z</time>
      </trkpt>
      <trkpt lat="27.804157" lon="86.710278">
        <ele>3412.8</ele>
        <time>2022-10-22T02:55:55.000Z</time>
      </trkpt>
      <trkpt lat="27.804173" lon="86.710291">
        <ele>3413.4</ele>
        <time>2022-10-22T02:55:58.000Z</time>
      </trkpt>
      <trkpt lat="27.804186" lon="86.71031">
        <ele>3413.6</ele>
        <time>2022-10-22T02:56:01.000Z</time>
      </trkpt>
      <trkpt lat="27.804198" lon="86.71033">
        <ele>3413.8</ele>
        <time>2022-10-22T02:56:05.000Z</time>
      </trkpt>
      <trkpt lat="27.804221" lon="86.710336">
        <ele>3414.4</ele>
        <time>2022-10-22T02:56:08.000Z</time>
      </trkpt>
      <trkpt lat="27.804237" lon="86.710355">
        <ele>3414.4</ele>
        <time>2022-10-22T02:56:11.000Z</time>
      </trkpt>
      <trkpt lat="27.804243" lon="86.710374">
        <ele>3414.4</ele>
        <time>2022-10-22T02:56:13.000Z</time>
      </trkpt>
      <trkpt lat="27.804262" lon="86.710387">
        <ele>3414.8</ele>
        <time>2022-10-22T02:56:17.000Z</time>
      </trkpt>
      <trkpt lat="27.804272" lon="86.710406">
        <ele>3415.2</ele>
        <time>2022-10-22T02:56:19.000Z</time>
      </trkpt>
      <trkpt lat="27.804291" lon="86.710413">
        <ele>3415.8</ele>
        <time>2022-10-22T02:56:25.000Z</time>
      </trkpt>
      <trkpt lat="27.80431" lon="86.710419">
        <ele>3416.2</ele>
        <time>2022-10-22T02:56:30.000Z</time>
      </trkpt>
      <trkpt lat="27.804317" lon="86.710438">
        <ele>3417.2</ele>
        <time>2022-10-22T02:56:34.000Z</time>
      </trkpt>
      <trkpt lat="27.80433" lon="86.710458">
        <ele>3417.2</ele>
        <time>2022-10-22T02:56:39.000Z</time>
      </trkpt>
      <trkpt lat="27.804323" lon="86.710432">
        <ele>3417.2</ele>
        <time>2022-10-22T02:56:42.000Z</time>
      </trkpt>
      <trkpt lat="27.804336" lon="86.710413">
        <ele>3417.2</ele>
        <time>2022-10-22T02:56:47.000Z</time>
      </trkpt>
      <trkpt lat="27.804346" lon="86.710394">
        <ele>3417.2</ele>
        <time>2022-10-22T02:56:49.000Z</time>
      </trkpt>
      <trkpt lat="27.804362" lon="86.710381">
        <ele>3417.6</ele>
        <time>2022-10-22T02:56:52.000Z</time>
      </trkpt>
      <trkpt lat="27.804381" lon="86.710374">
        <ele>3417.8</ele>
        <time>2022-10-22T02:56:55.000Z</time>
      </trkpt>
      <trkpt lat="27.80439" lon="86.710355">
        <ele>3418.2</ele>
        <time>2022-10-22T02:56:57.000Z</time>
      </trkpt>
      <trkpt lat="27.80441" lon="86.710374">
        <ele>3418.8</ele>
        <time>2022-10-22T02:57:00.000Z</time>
      </trkpt>
      <trkpt lat="27.804429" lon="86.710394">
        <ele>3419</ele>
        <time>2022-10-22T02:57:03.000Z</time>
      </trkpt>
      <trkpt lat="27.804438" lon="86.710419">
        <ele>3419.2</ele>
        <time>2022-10-22T02:57:07.000Z</time>
      </trkpt>
      <trkpt lat="27.804454" lon="86.710432">
        <ele>3419.4</ele>
        <time>2022-10-22T02:57:09.000Z</time>
      </trkpt>
      <trkpt lat="27.804477" lon="86.710451">
        <ele>3419.6</ele>
        <time>2022-10-22T02:57:13.000Z</time>
      </trkpt>
      <trkpt lat="27.804493" lon="86.710438">
        <ele>3420</ele>
        <time>2022-10-22T02:57:17.000Z</time>
      </trkpt>
      <trkpt lat="27.804512" lon="86.710438">
        <ele>3420.4</ele>
        <time>2022-10-22T02:57:19.000Z</time>
      </trkpt>
      <trkpt lat="27.804538" lon="86.710426">
        <ele>3420.4</ele>
        <time>2022-10-22T02:57:22.000Z</time>
      </trkpt>
      <trkpt lat="27.804557" lon="86.710419">
        <ele>3420.8</ele>
        <time>2022-10-22T02:57:25.000Z</time>
      </trkpt>
      <trkpt lat="27.804576" lon="86.710419">
        <ele>3420.8</ele>
        <time>2022-10-22T02:57:28.000Z</time>
      </trkpt>
      <trkpt lat="27.804595" lon="86.710419">
        <ele>3421.4</ele>
        <time>2022-10-22T02:57:31.000Z</time>
      </trkpt>
      <trkpt lat="27.804608" lon="86.710438">
        <ele>3421.8</ele>
        <time>2022-10-22T02:57:35.000Z</time>
      </trkpt>
      <trkpt lat="27.804627" lon="86.710451">
        <ele>3422</ele>
        <time>2022-10-22T02:57:38.000Z</time>
      </trkpt>
      <trkpt lat="27.804653" lon="86.710458">
        <ele>3423</ele>
        <time>2022-10-22T02:57:44.000Z</time>
      </trkpt>
      <trkpt lat="27.804669" lon="86.71047">
        <ele>3423.2</ele>
        <time>2022-10-22T02:57:47.000Z</time>
      </trkpt>
      <trkpt lat="27.804688" lon="86.710464">
        <ele>3424</ele>
        <time>2022-10-22T02:57:51.000Z</time>
      </trkpt>
      <trkpt lat="27.804707" lon="86.71047">
        <ele>3424.2</ele>
        <time>2022-10-22T02:57:54.000Z</time>
      </trkpt>
      <trkpt lat="27.804726" lon="86.71049">
        <ele>3425</ele>
        <time>2022-10-22T02:57:58.000Z</time>
      </trkpt>
      <trkpt lat="27.804746" lon="86.710496">
        <ele>3425.6</ele>
        <time>2022-10-22T02:58:03.000Z</time>
      </trkpt>
      <trkpt lat="27.804765" lon="86.710502">
        <ele>3425.8</ele>
        <time>2022-10-22T02:58:06.000Z</time>
      </trkpt>
      <trkpt lat="27.804787" lon="86.71049">
        <ele>3426.6</ele>
        <time>2022-10-22T02:58:12.000Z</time>
      </trkpt>
      <trkpt lat="27.804806" lon="86.71049">
        <ele>3428.2</ele>
        <time>2022-10-22T02:58:18.000Z</time>
      </trkpt>
      <trkpt lat="27.804819" lon="86.710509">
        <ele>3428.6</ele>
        <time>2022-10-22T02:58:22.000Z</time>
      </trkpt>
      <trkpt lat="27.804842" lon="86.710509">
        <ele>3429.6</ele>
        <time>2022-10-22T02:58:29.000Z</time>
      </trkpt>
      <trkpt lat="27.804864" lon="86.710502">
        <ele>3430.2</ele>
        <time>2022-10-22T02:58:34.000Z</time>
      </trkpt>
      <trkpt lat="27.804883" lon="86.710509">
        <ele>3431</ele>
        <time>2022-10-22T02:58:40.000Z</time>
      </trkpt>
      <trkpt lat="27.804893" lon="86.710528">
        <ele>3431</ele>
        <time>2022-10-22T02:58:43.000Z</time>
      </trkpt>
      <trkpt lat="27.804912" lon="86.710528">
        <ele>3431.4</ele>
        <time>2022-10-22T02:58:46.000Z</time>
      </trkpt>
      <trkpt lat="27.804931" lon="86.710528">
        <ele>3432.6</ele>
        <time>2022-10-22T02:58:52.000Z</time>
      </trkpt>
      <trkpt lat="27.80495" lon="86.710541">
        <ele>3432.8</ele>
        <time>2022-10-22T02:58:57.000Z</time>
      </trkpt>
      <trkpt lat="27.804973" lon="86.710547">
        <ele>3433.4</ele>
        <time>2022-10-22T02:59:01.000Z</time>
      </trkpt>
      <trkpt lat="27.804995" lon="86.710566">
        <ele>3433.6</ele>
        <time>2022-10-22T02:59:04.000Z</time>
      </trkpt>
      <trkpt lat="27.805014" lon="86.710579">
        <ele>3434.4</ele>
        <time>2022-10-22T02:59:09.000Z</time>
      </trkpt>
      <trkpt lat="27.805011" lon="86.710605">
        <ele>3435</ele>
        <time>2022-10-22T02:59:22.000Z</time>
      </trkpt>
      <trkpt lat="27.805005" lon="86.710624">
        <ele>3435.6</ele>
        <time>2022-10-22T02:59:26.000Z</time>
      </trkpt>
      <trkpt lat="27.804995" lon="86.71065">
        <ele>3435.4</ele>
        <time>2022-10-22T02:59:29.000Z</time>
      </trkpt>
      <trkpt lat="27.804992" lon="86.710675">
        <ele>3436</ele>
        <time>2022-10-22T02:59:35.000Z</time>
      </trkpt>
      <trkpt lat="27.804992" lon="86.710701">
        <ele>3436.2</ele>
        <time>2022-10-22T02:59:38.000Z</time>
      </trkpt>
      <trkpt lat="27.805005" lon="86.710733">
        <ele>3436.6</ele>
        <time>2022-10-22T02:59:42.000Z</time>
      </trkpt>
      <trkpt lat="27.805027" lon="86.710746">
        <ele>3436.6</ele>
        <time>2022-10-22T02:59:44.000Z</time>
      </trkpt>
      <trkpt lat="27.805046" lon="86.710746">
        <ele>3436.8</ele>
        <time>2022-10-22T02:59:46.000Z</time>
      </trkpt>
      <trkpt lat="27.805056" lon="86.710765">
        <ele>3437.4</ele>
        <time>2022-10-22T02:59:50.000Z</time>
      </trkpt>
      <trkpt lat="27.805066" lon="86.710784">
        <ele>3437.4</ele>
        <time>2022-10-22T02:59:53.000Z</time>
      </trkpt>
      <trkpt lat="27.805085" lon="86.710803">
        <ele>3438</ele>
        <time>2022-10-22T02:59:56.000Z</time>
      </trkpt>
      <trkpt lat="27.805107" lon="86.710816">
        <ele>3438.2</ele>
        <time>2022-10-22T02:59:59.000Z</time>
      </trkpt>
      <trkpt lat="27.805133" lon="86.710835">
        <ele>3438.4</ele>
        <time>2022-10-22T03:00:03.000Z</time>
      </trkpt>
      <trkpt lat="27.805152" lon="86.710848">
        <ele>3439.4</ele>
        <time>2022-10-22T03:00:08.000Z</time>
      </trkpt>
      <trkpt lat="27.805171" lon="86.710854">
        <ele>3440.6</ele>
        <time>2022-10-22T03:00:14.000Z</time>
      </trkpt>
      <trkpt lat="27.805187" lon="86.710867">
        <ele>3440.6</ele>
        <time>2022-10-22T03:00:17.000Z</time>
      </trkpt>
      <trkpt lat="27.805206" lon="86.710874">
        <ele>3442</ele>
        <time>2022-10-22T03:00:28.000Z</time>
      </trkpt>
      <trkpt lat="27.805229" lon="86.710867">
        <ele>3444.6</ele>
        <time>2022-10-22T03:01:12.000Z</time>
      </trkpt>
      <trkpt lat="27.805251" lon="86.710874">
        <ele>3444.8</ele>
        <time>2022-10-22T03:01:16.000Z</time>
      </trkpt>
      <trkpt lat="27.805261" lon="86.710893">
        <ele>3445.8</ele>
        <time>2022-10-22T03:01:19.000Z</time>
      </trkpt>
      <trkpt lat="27.805283" lon="86.710899">
        <ele>3445.6</ele>
        <time>2022-10-22T03:01:24.000Z</time>
      </trkpt>
      <trkpt lat="27.805306" lon="86.710912">
        <ele>3445.8</ele>
        <time>2022-10-22T03:01:30.000Z</time>
      </trkpt>
      <trkpt lat="27.805322" lon="86.710925">
        <ele>3446.4</ele>
        <time>2022-10-22T03:01:35.000Z</time>
      </trkpt>
      <trkpt lat="27.805341" lon="86.710931">
        <ele>3447.4</ele>
        <time>2022-10-22T03:01:39.000Z</time>
      </trkpt>
      <trkpt lat="27.80536" lon="86.710944">
        <ele>3448.4</ele>
        <time>2022-10-22T03:01:44.000Z</time>
      </trkpt>
      <trkpt lat="27.805373" lon="86.710963">
        <ele>3449</ele>
        <time>2022-10-22T03:01:49.000Z</time>
      </trkpt>
      <trkpt lat="27.805392" lon="86.710963">
        <ele>3449.8</ele>
        <time>2022-10-22T03:01:55.000Z</time>
      </trkpt>
      <trkpt lat="27.805408" lon="86.71095">
        <ele>3450.4</ele>
        <time>2022-10-22T03:01:59.000Z</time>
      </trkpt>
      <trkpt lat="27.805424" lon="86.710963">
        <ele>3451.2</ele>
        <time>2022-10-22T03:02:05.000Z</time>
      </trkpt>
      <trkpt lat="27.805434" lon="86.710982">
        <ele>3451.6</ele>
        <time>2022-10-22T03:02:11.000Z</time>
      </trkpt>
      <trkpt lat="27.805453" lon="86.710982">
        <ele>3452.6</ele>
        <time>2022-10-22T03:02:15.000Z</time>
      </trkpt>
      <trkpt lat="27.805469" lon="86.711002">
        <ele>3453.4</ele>
        <time>2022-10-22T03:02:19.000Z</time>
      </trkpt>
      <trkpt lat="27.805488" lon="86.711008">
        <ele>3453.8</ele>
        <time>2022-10-22T03:02:23.000Z</time>
      </trkpt>
      <trkpt lat="27.805498" lon="86.711027">
        <ele>3455.4</ele>
        <time>2022-10-22T03:02:37.000Z</time>
      </trkpt>
      <trkpt lat="27.805507" lon="86.711046">
        <ele>3457.8</ele>
        <time>2022-10-22T03:03:13.000Z</time>
      </trkpt>
      <trkpt lat="27.80553" lon="86.711053">
        <ele>3458</ele>
        <time>2022-10-22T03:03:15.000Z</time>
      </trkpt>
      <trkpt lat="27.805549" lon="86.711059">
        <ele>3458.2</ele>
        <time>2022-10-22T03:03:17.000Z</time>
      </trkpt>
      <trkpt lat="27.805571" lon="86.711066">
        <ele>3458.2</ele>
        <time>2022-10-22T03:03:19.000Z</time>
      </trkpt>
      <trkpt lat="27.805594" lon="86.711072">
        <ele>3459</ele>
        <time>2022-10-22T03:03:21.000Z</time>
      </trkpt>
      <trkpt lat="27.80561" lon="86.711085">
        <ele>3459.2</ele>
        <time>2022-10-22T03:03:24.000Z</time>
      </trkpt>
      <trkpt lat="27.805632" lon="86.711091">
        <ele>3459.6</ele>
        <time>2022-10-22T03:03:29.000Z</time>
      </trkpt>
      <trkpt lat="27.805651" lon="86.711091">
        <ele>3460</ele>
        <time>2022-10-22T03:03:32.000Z</time>
      </trkpt>
      <trkpt lat="27.805661" lon="86.71111">
        <ele>3460.8</ele>
        <time>2022-10-22T03:03:38.000Z</time>
      </trkpt>
      <trkpt lat="27.805677" lon="86.71113">
        <ele>3461.4</ele>
        <time>2022-10-22T03:03:46.000Z</time>
      </trkpt>
      <trkpt lat="27.805686" lon="86.711149">
        <ele>3462.4</ele>
        <time>2022-10-22T03:03:54.000Z</time>
      </trkpt>
      <trkpt lat="27.805757" lon="86.71136">
        <ele>3472.8</ele>
        <time>2022-10-22T03:05:36.000Z</time>
      </trkpt>
      <trkpt lat="27.805757" lon="86.711386">
        <ele>3473.2</ele>
        <time>2022-10-22T03:05:38.000Z</time>
      </trkpt>
      <trkpt lat="27.80576" lon="86.711418">
        <ele>3473.4</ele>
        <time>2022-10-22T03:05:40.000Z</time>
      </trkpt>
      <trkpt lat="27.805754" lon="86.71145">
        <ele>3473.6</ele>
        <time>2022-10-22T03:05:42.000Z</time>
      </trkpt>
      <trkpt lat="27.805757" lon="86.711488">
        <ele>3473.6</ele>
        <time>2022-10-22T03:05:45.000Z</time>
      </trkpt>
      <trkpt lat="27.805747" lon="86.711526">
        <ele>3473.4</ele>
        <time>2022-10-22T03:06:16.000Z</time>
      </trkpt>
      <trkpt lat="27.805738" lon="86.711558">
        <ele>3473.4</ele>
        <time>2022-10-22T03:06:18.000Z</time>
      </trkpt>
      <trkpt lat="27.805728" lon="86.711597">
        <ele>3473.6</ele>
        <time>2022-10-22T03:06:20.000Z</time>
      </trkpt>
      <trkpt lat="27.805718" lon="86.711629">
        <ele>3473.8</ele>
        <time>2022-10-22T03:06:22.000Z</time>
      </trkpt>
      <trkpt lat="27.805709" lon="86.711648">
        <ele>3473.6</ele>
        <time>2022-10-22T03:06:23.000Z</time>
      </trkpt>
      <trkpt lat="27.805706" lon="86.71168">
        <ele>3474</ele>
        <time>2022-10-22T03:06:27.000Z</time>
      </trkpt>
      <trkpt lat="27.80569" lon="86.711693">
        <ele>3473.8</ele>
        <time>2022-10-22T03:06:39.000Z</time>
      </trkpt>
      <trkpt lat="27.805677" lon="86.711725">
        <ele>3474</ele>
        <time>2022-10-22T03:09:20.000Z</time>
      </trkpt>
      <trkpt lat="27.805667" lon="86.711757">
        <ele>3474</ele>
        <time>2022-10-22T03:09:22.000Z</time>
      </trkpt>
      <trkpt lat="27.805661" lon="86.711782">
        <ele>3474.2</ele>
        <time>2022-10-22T03:09:24.000Z</time>
      </trkpt>
      <trkpt lat="27.805651" lon="86.711821">
        <ele>3474.6</ele>
        <time>2022-10-22T03:09:26.000Z</time>
      </trkpt>
      <trkpt lat="27.805642" lon="86.711853">
        <ele>3474.8</ele>
        <time>2022-10-22T03:09:28.000Z</time>
      </trkpt>
      <trkpt lat="27.805629" lon="86.711878">
        <ele>3474.8</ele>
        <time>2022-10-22T03:09:32.000Z</time>
      </trkpt>
      <trkpt lat="27.805616" lon="86.711898">
        <ele>3475.4</ele>
        <time>2022-10-22T03:09:37.000Z</time>
      </trkpt>
      <trkpt lat="27.805616" lon="86.711923">
        <ele>3475.4</ele>
        <time>2022-10-22T03:09:41.000Z</time>
      </trkpt>
      <trkpt lat="27.805613" lon="86.711955">
        <ele>3475.6</ele>
        <time>2022-10-22T03:09:46.000Z</time>
      </trkpt>
      <trkpt lat="27.805606" lon="86.711981">
        <ele>3476.2</ele>
        <time>2022-10-22T03:09:50.000Z</time>
      </trkpt>
      <trkpt lat="27.805597" lon="86.712">
        <ele>3476.4</ele>
        <time>2022-10-22T03:09:52.000Z</time>
      </trkpt>
      <trkpt lat="27.805584" lon="86.712019">
        <ele>3476.8</ele>
        <time>2022-10-22T03:09:56.000Z</time>
      </trkpt>
      <trkpt lat="27.805578" lon="86.712038">
        <ele>3477.4</ele>
        <time>2022-10-22T03:09:59.000Z</time>
      </trkpt>
      <trkpt lat="27.805571" lon="86.712058">
        <ele>3477.8</ele>
        <time>2022-10-22T03:10:04.000Z</time>
      </trkpt>
      <trkpt lat="27.805568" lon="86.712083">
        <ele>3478.6</ele>
        <time>2022-10-22T03:10:07.000Z</time>
      </trkpt>
      <trkpt lat="27.805549" lon="86.712102">
        <ele>3478.6</ele>
        <time>2022-10-22T03:10:11.000Z</time>
      </trkpt>
      <trkpt lat="27.805542" lon="86.712122">
        <ele>3479</ele>
        <time>2022-10-22T03:10:14.000Z</time>
      </trkpt>
      <trkpt lat="27.805539" lon="86.712154">
        <ele>3479.6</ele>
        <time>2022-10-22T03:10:20.000Z</time>
      </trkpt>
      <trkpt lat="27.805526" lon="86.712173">
        <ele>3480.4</ele>
        <time>2022-10-22T03:10:25.000Z</time>
      </trkpt>
      <trkpt lat="27.805523" lon="86.712198">
        <ele>3480.6</ele>
        <time>2022-10-22T03:10:29.000Z</time>
      </trkpt>
      <trkpt lat="27.80551" lon="86.712218">
        <ele>3481.2</ele>
        <time>2022-10-22T03:10:34.000Z</time>
      </trkpt>
      <trkpt lat="27.805501" lon="86.712237">
        <ele>3481.4</ele>
        <time>2022-10-22T03:10:38.000Z</time>
      </trkpt>
      <trkpt lat="27.805488" lon="86.712256">
        <ele>3482</ele>
        <time>2022-10-22T03:10:44.000Z</time>
      </trkpt>
      <trkpt lat="27.805478" lon="86.712275">
        <ele>3482.8</ele>
        <time>2022-10-22T03:10:49.000Z</time>
      </trkpt>
      <trkpt lat="27.805466" lon="86.712294">
        <ele>3483.4</ele>
        <time>2022-10-22T03:10:55.000Z</time>
      </trkpt>
      <trkpt lat="27.805459" lon="86.712314">
        <ele>3484</ele>
        <time>2022-10-22T03:10:59.000Z</time>
      </trkpt>
      <trkpt lat="27.805453" lon="86.712333">
        <ele>3484.2</ele>
        <time>2022-10-22T03:11:04.000Z</time>
      </trkpt>
      <trkpt lat="27.805446" lon="86.712352">
        <ele>3485.2</ele>
        <time>2022-10-22T03:11:09.000Z</time>
      </trkpt>
      <trkpt lat="27.80543" lon="86.712365">
        <ele>3485.4</ele>
        <time>2022-10-22T03:11:14.000Z</time>
      </trkpt>
      <trkpt lat="27.805418" lon="86.712384">
        <ele>3486.4</ele>
        <time>2022-10-22T03:11:20.000Z</time>
      </trkpt>
      <trkpt lat="27.805402" lon="86.712397">
        <ele>3486.6</ele>
        <time>2022-10-22T03:11:25.000Z</time>
      </trkpt>
      <trkpt lat="27.805392" lon="86.712416">
        <ele>3487.6</ele>
        <time>2022-10-22T03:11:30.000Z</time>
      </trkpt>
      <trkpt lat="27.805379" lon="86.712435">
        <ele>3488</ele>
        <time>2022-10-22T03:11:35.000Z</time>
      </trkpt>
      <trkpt lat="27.80537" lon="86.712454">
        <ele>3488.8</ele>
        <time>2022-10-22T03:11:42.000Z</time>
      </trkpt>
      <trkpt lat="27.80535" lon="86.71248">
        <ele>3491.2</ele>
        <time>2022-10-22T03:12:11.000Z</time>
      </trkpt>
      <trkpt lat="27.805338" lon="86.712512">
        <ele>3491.8</ele>
        <time>2022-10-22T03:12:14.000Z</time>
      </trkpt>
      <trkpt lat="27.805331" lon="86.712531">
        <ele>3492.6</ele>
        <time>2022-10-22T03:12:16.000Z</time>
      </trkpt>
      <trkpt lat="27.805322" lon="86.712557">
        <ele>3492.6</ele>
        <time>2022-10-22T03:12:18.000Z</time>
      </trkpt>
      <trkpt lat="27.805302" lon="86.71257">
        <ele>3492.8</ele>
        <time>2022-10-22T03:12:21.000Z</time>
      </trkpt>
      <trkpt lat="27.805293" lon="86.712595">
        <ele>3493.8</ele>
        <time>2022-10-22T03:12:25.000Z</time>
      </trkpt>
      <trkpt lat="27.805283" lon="86.712614">
        <ele>3494.4</ele>
        <time>2022-10-22T03:12:31.000Z</time>
      </trkpt>
      <trkpt lat="27.805267" lon="86.712634">
        <ele>3495.4</ele>
        <time>2022-10-22T03:12:38.000Z</time>
      </trkpt>
      <trkpt lat="27.805254" lon="86.712653">
        <ele>3496.2</ele>
        <time>2022-10-22T03:12:44.000Z</time>
      </trkpt>
      <trkpt lat="27.805232" lon="86.712659">
        <ele>3496.4</ele>
        <time>2022-10-22T03:12:50.000Z</time>
      </trkpt>
      <trkpt lat="27.805219" lon="86.712678">
        <ele>3497</ele>
        <time>2022-10-22T03:12:54.000Z</time>
      </trkpt>
      <trkpt lat="27.8052" lon="86.712678">
        <ele>3497.6</ele>
        <time>2022-10-22T03:12:57.000Z</time>
      </trkpt>
      <trkpt lat="27.805178" lon="86.712691">
        <ele>3498</ele>
        <time>2022-10-22T03:13:01.000Z</time>
      </trkpt>
      <trkpt lat="27.805155" lon="86.712691">
        <ele>3498.4</ele>
        <time>2022-10-22T03:13:05.000Z</time>
      </trkpt>
      <trkpt lat="27.805136" lon="86.71271">
        <ele>3499</ele>
        <time>2022-10-22T03:13:09.000Z</time>
      </trkpt>
      <trkpt lat="27.80512" lon="86.712723">
        <ele>3499.4</ele>
        <time>2022-10-22T03:13:13.000Z</time>
      </trkpt>
      <trkpt lat="27.805104" lon="86.712749">
        <ele>3500</ele>
        <time>2022-10-22T03:13:17.000Z</time>
      </trkpt>
      <trkpt lat="27.805085" lon="86.712762">
        <ele>3500.2</ele>
        <time>2022-10-22T03:13:21.000Z</time>
      </trkpt>
      <trkpt lat="27.805072" lon="86.712781">
        <ele>3500.6</ele>
        <time>2022-10-22T03:13:26.000Z</time>
      </trkpt>
      <trkpt lat="27.805066" lon="86.7128">
        <ele>3500.8</ele>
        <time>2022-10-22T03:13:29.000Z</time>
      </trkpt>
      <trkpt lat="27.805046" lon="86.712813">
        <ele>3501.6</ele>
        <time>2022-10-22T03:13:34.000Z</time>
      </trkpt>
      <trkpt lat="27.805043" lon="86.712838">
        <ele>3501.6</ele>
        <time>2022-10-22T03:13:37.000Z</time>
      </trkpt>
      <trkpt lat="27.805024" lon="86.712851">
        <ele>3502.2</ele>
        <time>2022-10-22T03:13:41.000Z</time>
      </trkpt>
      <trkpt lat="27.805018" lon="86.71287">
        <ele>3502.6</ele>
        <time>2022-10-22T03:13:43.000Z</time>
      </trkpt>
      <trkpt lat="27.804995" lon="86.712883">
        <ele>3502.6</ele>
        <time>2022-10-22T03:13:47.000Z</time>
      </trkpt>
      <trkpt lat="27.804976" lon="86.71289">
        <ele>3503</ele>
        <time>2022-10-22T03:13:50.000Z</time>
      </trkpt>
      <trkpt lat="27.804954" lon="86.712909">
        <ele>3503.2</ele>
        <time>2022-10-22T03:13:54.000Z</time>
      </trkpt>
      <trkpt lat="27.804931" lon="86.712909">
        <ele>3503.8</ele>
        <time>2022-10-22T03:13:58.000Z</time>
      </trkpt>
      <trkpt lat="27.804912" lon="86.712909">
        <ele>3503.8</ele>
        <time>2022-10-22T03:14:00.000Z</time>
      </trkpt>
      <trkpt lat="27.804893" lon="86.712909">
        <ele>3503.4</ele>
        <time>2022-10-22T03:14:04.000Z</time>
      </trkpt>
      <trkpt lat="27.804874" lon="86.712915">
        <ele>3503.4</ele>
        <time>2022-10-22T03:14:07.000Z</time>
      </trkpt>
      <trkpt lat="27.804854" lon="86.712922">
        <ele>3504</ele>
        <time>2022-10-22T03:14:10.000Z</time>
      </trkpt>
      <trkpt lat="27.804832" lon="86.712928">
        <ele>3504.2</ele>
        <time>2022-10-22T03:14:13.000Z</time>
      </trkpt>
      <trkpt lat="27.804819" lon="86.712947">
        <ele>3504.4</ele>
        <time>2022-10-22T03:14:16.000Z</time>
      </trkpt>
      <trkpt lat="27.804803" lon="86.71296">
        <ele>3504.6</ele>
        <time>2022-10-22T03:14:19.000Z</time>
      </trkpt>
      <trkpt lat="27.804787" lon="86.712973">
        <ele>3505</ele>
        <time>2022-10-22T03:14:23.000Z</time>
      </trkpt>
      <trkpt lat="27.804768" lon="86.712966">
        <ele>3505.4</ele>
        <time>2022-10-22T03:14:26.000Z</time>
      </trkpt>
      <trkpt lat="27.804752" lon="86.712979">
        <ele>3505.6</ele>
        <time>2022-10-22T03:14:30.000Z</time>
      </trkpt>
      <trkpt lat="27.804733" lon="86.712966">
        <ele>3506.2</ele>
        <time>2022-10-22T03:14:33.000Z</time>
      </trkpt>
      <trkpt lat="27.804714" lon="86.712966">
        <ele>3506.4</ele>
        <time>2022-10-22T03:14:36.000Z</time>
      </trkpt>
      <trkpt lat="27.804694" lon="86.712973">
        <ele>3507.6</ele>
        <time>2022-10-22T03:14:43.000Z</time>
      </trkpt>
      <trkpt lat="27.804688" lon="86.712992">
        <ele>3507.8</ele>
        <time>2022-10-22T03:14:48.000Z</time>
      </trkpt>
      <trkpt lat="27.804669" lon="86.713018">
        <ele>3508.8</ele>
        <time>2022-10-22T03:16:04.000Z</time>
      </trkpt>
      <trkpt lat="27.804685" lon="86.71303">
        <ele>3509.8</ele>
        <time>2022-10-22T03:16:06.000Z</time>
      </trkpt>
      <trkpt lat="27.804704" lon="86.713043">
        <ele>3510.2</ele>
        <time>2022-10-22T03:16:08.000Z</time>
      </trkpt>
      <trkpt lat="27.80472" lon="86.713056">
        <ele>3510.2</ele>
        <time>2022-10-22T03:16:10.000Z</time>
      </trkpt>
      <trkpt lat="27.804736" lon="86.713075">
        <ele>3510.4</ele>
        <time>2022-10-22T03:16:12.000Z</time>
      </trkpt>
      <trkpt lat="27.804755" lon="86.713088">
        <ele>3511.2</ele>
        <time>2022-10-22T03:16:15.000Z</time>
      </trkpt>
      <trkpt lat="27.804771" lon="86.713107">
        <ele>3511.6</ele>
        <time>2022-10-22T03:16:19.000Z</time>
      </trkpt>
      <trkpt lat="27.804787" lon="86.71312">
        <ele>3512</ele>
        <time>2022-10-22T03:16:22.000Z</time>
      </trkpt>
      <trkpt lat="27.804803" lon="86.713139">
        <ele>3513.2</ele>
        <time>2022-10-22T03:16:28.000Z</time>
      </trkpt>
      <trkpt lat="27.804819" lon="86.713158">
        <ele>3513.6</ele>
        <time>2022-10-22T03:16:32.000Z</time>
      </trkpt>
      <trkpt lat="27.804835" lon="86.713171">
        <ele>3514.2</ele>
        <time>2022-10-22T03:16:37.000Z</time>
      </trkpt>
      <trkpt lat="27.804845" lon="86.71319">
        <ele>3515</ele>
        <time>2022-10-22T03:16:41.000Z</time>
      </trkpt>
      <trkpt lat="27.804864" lon="86.713197">
        <ele>3515.4</ele>
        <time>2022-10-22T03:16:47.000Z</time>
      </trkpt>
      <trkpt lat="27.804883" lon="86.71321">
        <ele>3516.4</ele>
        <time>2022-10-22T03:16:53.000Z</time>
      </trkpt>
      <trkpt lat="27.804906" lon="86.713216">
        <ele>3517.4</ele>
        <time>2022-10-22T03:17:00.000Z</time>
      </trkpt>
      <trkpt lat="27.804922" lon="86.713229">
        <ele>3518</ele>
        <time>2022-10-22T03:17:04.000Z</time>
      </trkpt>
      <trkpt lat="27.804941" lon="86.713229">
        <ele>3518.8</ele>
        <time>2022-10-22T03:17:10.000Z</time>
      </trkpt>
      <trkpt lat="27.804966" lon="86.713242">
        <ele>3520</ele>
        <time>2022-10-22T03:17:45.000Z</time>
      </trkpt>
      <trkpt lat="27.804992" lon="86.713267">
        <ele>3520.2</ele>
        <time>2022-10-22T03:17:47.000Z</time>
      </trkpt>
      <trkpt lat="27.805021" lon="86.71328">
        <ele>3520.2</ele>
        <time>2022-10-22T03:17:50.000Z</time>
      </trkpt>
      <trkpt lat="27.80504" lon="86.713293">
        <ele>3520.2</ele>
        <time>2022-10-22T03:17:53.000Z</time>
      </trkpt>
      <trkpt lat="27.805046" lon="86.713312">
        <ele>3520.2</ele>
        <time>2022-10-22T03:17:56.000Z</time>
      </trkpt>
      <trkpt lat="27.805066" lon="86.713325">
        <ele>3521</ele>
        <time>2022-10-22T03:18:02.000Z</time>
      </trkpt>
      <trkpt lat="27.805069" lon="86.71335">
        <ele>3521</ele>
        <time>2022-10-22T03:18:05.000Z</time>
      </trkpt>
      <trkpt lat="27.805174" lon="86.713293">
        <ele>3525.4</ele>
        <time>2022-10-22T03:19:15.000Z</time>
      </trkpt>
      <trkpt lat="27.805194" lon="86.71328">
        <ele>3525.8</ele>
        <time>2022-10-22T03:19:17.000Z</time>
      </trkpt>
      <trkpt lat="27.805213" lon="86.713254">
        <ele>3526.2</ele>
        <time>2022-10-22T03:19:19.000Z</time>
      </trkpt>
      <trkpt lat="27.805235" lon="86.713242">
        <ele>3526.6</ele>
        <time>2022-10-22T03:19:21.000Z</time>
      </trkpt>
      <trkpt lat="27.805254" lon="86.713229">
        <ele>3527</ele>
        <time>2022-10-22T03:19:23.000Z</time>
      </trkpt>
      <trkpt lat="27.80527" lon="86.713216">
        <ele>3527</ele>
        <time>2022-10-22T03:19:25.000Z</time>
      </trkpt>
      <trkpt lat="27.805293" lon="86.713216">
        <ele>3527.8</ele>
        <time>2022-10-22T03:19:29.000Z</time>
      </trkpt>
      <trkpt lat="27.805302" lon="86.713235">
        <ele>3528</ele>
        <time>2022-10-22T03:19:32.000Z</time>
      </trkpt>
      <trkpt lat="27.805309" lon="86.713267">
        <ele>3528.8</ele>
        <time>2022-10-22T03:19:37.000Z</time>
      </trkpt>
      <trkpt lat="27.805312" lon="86.713293">
        <ele>3529.2</ele>
        <time>2022-10-22T03:19:42.000Z</time>
      </trkpt>
      <trkpt lat="27.805318" lon="86.713318">
        <ele>3530.2</ele>
        <time>2022-10-22T03:20:37.000Z</time>
      </trkpt>
      <trkpt lat="27.805322" lon="86.71335">
        <ele>3529.8</ele>
        <time>2022-10-22T03:20:39.000Z</time>
      </trkpt>
      <trkpt lat="27.805322" lon="86.713376">
        <ele>3530.4</ele>
        <time>2022-10-22T03:20:41.000Z</time>
      </trkpt>
      <trkpt lat="27.805328" lon="86.713408">
        <ele>3530.8</ele>
        <time>2022-10-22T03:20:43.000Z</time>
      </trkpt>
      <trkpt lat="27.805328" lon="86.71344">
        <ele>3530.8</ele>
        <time>2022-10-22T03:20:45.000Z</time>
      </trkpt>
      <trkpt lat="27.805328" lon="86.713466">
        <ele>3530.8</ele>
        <time>2022-10-22T03:20:46.000Z</time>
      </trkpt>
      <trkpt lat="27.805331" lon="86.713491">
        <ele>3530.8</ele>
        <time>2022-10-22T03:20:49.000Z</time>
      </trkpt>
      <trkpt lat="27.805334" lon="86.713517">
        <ele>3530.8</ele>
        <time>2022-10-22T03:20:51.000Z</time>
      </trkpt>
      <trkpt lat="27.805341" lon="86.713555">
        <ele>3530.8</ele>
        <time>2022-10-22T03:20:54.000Z</time>
      </trkpt>
      <trkpt lat="27.805354" lon="86.713574">
        <ele>3530.8</ele>
        <time>2022-10-22T03:20:56.000Z</time>
      </trkpt>
      <trkpt lat="27.805363" lon="86.7136">
        <ele>3530.8</ele>
        <time>2022-10-22T03:20:58.000Z</time>
      </trkpt>
      <trkpt lat="27.805373" lon="86.713626">
        <ele>3531.2</ele>
        <time>2022-10-22T03:21:00.000Z</time>
      </trkpt>
      <trkpt lat="27.805382" lon="86.713645">
        <ele>3531.2</ele>
        <time>2022-10-22T03:21:02.000Z</time>
      </trkpt>
      <trkpt lat="27.805389" lon="86.71367">
        <ele>3531.2</ele>
        <time>2022-10-22T03:21:04.000Z</time>
      </trkpt>
      <trkpt lat="27.805395" lon="86.713702">
        <ele>3531.2</ele>
        <time>2022-10-22T03:21:07.000Z</time>
      </trkpt>
      <trkpt lat="27.805402" lon="86.713722">
        <ele>3531.2</ele>
        <time>2022-10-22T03:21:09.000Z</time>
      </trkpt>
      <trkpt lat="27.805411" lon="86.713747">
        <ele>3531.4</ele>
        <time>2022-10-22T03:21:11.000Z</time>
      </trkpt>
      <trkpt lat="27.805418" lon="86.713766">
        <ele>3531.4</ele>
        <time>2022-10-22T03:21:13.000Z</time>
      </trkpt>
      <trkpt lat="27.805427" lon="86.713786">
        <ele>3531.6</ele>
        <time>2022-10-22T03:21:15.000Z</time>
      </trkpt>
      <trkpt lat="27.805434" lon="86.713811">
        <ele>3531.6</ele>
        <time>2022-10-22T03:21:18.000Z</time>
      </trkpt>
      <trkpt lat="27.80544" lon="86.713837">
        <ele>3531.8</ele>
        <time>2022-10-22T03:21:20.000Z</time>
      </trkpt>
      <trkpt lat="27.805446" lon="86.713862">
        <ele>3532.2</ele>
        <time>2022-10-22T03:21:22.000Z</time>
      </trkpt>
      <trkpt lat="27.80545" lon="86.713888">
        <ele>3532</ele>
        <time>2022-10-22T03:21:25.000Z</time>
      </trkpt>
      <trkpt lat="27.805453" lon="86.713914">
        <ele>3532</ele>
        <time>2022-10-22T03:21:27.000Z</time>
      </trkpt>
      <trkpt lat="27.805462" lon="86.713946">
        <ele>3532.2</ele>
        <time>2022-10-22T03:21:30.000Z</time>
      </trkpt>
      <trkpt lat="27.805472" lon="86.713965">
        <ele>3531.6</ele>
        <time>2022-10-22T03:21:32.000Z</time>
      </trkpt>
      <trkpt lat="27.805478" lon="86.713984">
        <ele>3531.8</ele>
        <time>2022-10-22T03:21:33.000Z</time>
      </trkpt>
      <trkpt lat="27.805491" lon="86.714003">
        <ele>3531.4</ele>
        <time>2022-10-22T03:21:36.000Z</time>
      </trkpt>
      <trkpt lat="27.805498" lon="86.714022">
        <ele>3531.4</ele>
        <time>2022-10-22T03:21:37.000Z</time>
      </trkpt>
      <trkpt lat="27.80551" lon="86.714042">
        <ele>3531.8</ele>
        <time>2022-10-22T03:21:39.000Z</time>
      </trkpt>
      <trkpt lat="27.805517" lon="86.714061">
        <ele>3531.8</ele>
        <time>2022-10-22T03:21:41.000Z</time>
      </trkpt>
      <trkpt lat="27.80553" lon="86.71408">
        <ele>3531.8</ele>
        <time>2022-10-22T03:21:43.000Z</time>
      </trkpt>
      <trkpt lat="27.805539" lon="86.714106">
        <ele>3531.4</ele>
        <time>2022-10-22T03:21:45.000Z</time>
      </trkpt>
      <trkpt lat="27.805558" lon="86.714131">
        <ele>3531.4</ele>
        <time>2022-10-22T03:21:48.000Z</time>
      </trkpt>
      <trkpt lat="27.805562" lon="86.714157">
        <ele>3531.4</ele>
        <time>2022-10-22T03:21:50.000Z</time>
      </trkpt>
      <trkpt lat="27.805578" lon="86.714182">
        <ele>3531.4</ele>
        <time>2022-10-22T03:21:53.000Z</time>
      </trkpt>
      <trkpt lat="27.8056" lon="86.714208">
        <ele>3531.4</ele>
        <time>2022-10-22T03:21:56.000Z</time>
      </trkpt>
      <trkpt lat="27.805619" lon="86.714227">
        <ele>3532</ele>
        <time>2022-10-22T03:21:59.000Z</time>
      </trkpt>
      <trkpt lat="27.805638" lon="86.714246">
        <ele>3532.2</ele>
        <time>2022-10-22T03:22:02.000Z</time>
      </trkpt>
      <trkpt lat="27.805648" lon="86.714266">
        <ele>3532.4</ele>
        <time>2022-10-22T03:22:04.000Z</time>
      </trkpt>
      <trkpt lat="27.805658" lon="86.714285">
        <ele>3532.6</ele>
        <time>2022-10-22T03:22:07.000Z</time>
      </trkpt>
      <trkpt lat="27.805667" lon="86.714304">
        <ele>3532.8</ele>
        <time>2022-10-22T03:22:09.000Z</time>
      </trkpt>
      <trkpt lat="27.805677" lon="86.714323">
        <ele>3533</ele>
        <time>2022-10-22T03:22:11.000Z</time>
      </trkpt>
      <trkpt lat="27.80568" lon="86.714349">
        <ele>3533.6</ele>
        <time>2022-10-22T03:22:14.000Z</time>
      </trkpt>
      <trkpt lat="27.805696" lon="86.714368">
        <ele>3534</ele>
        <time>2022-10-22T03:22:17.000Z</time>
      </trkpt>
      <trkpt lat="27.805706" lon="86.714394">
        <ele>3534</ele>
        <time>2022-10-22T03:22:20.000Z</time>
      </trkpt>
      <trkpt lat="27.805718" lon="86.714419">
        <ele>3534.2</ele>
        <time>2022-10-22T03:22:23.000Z</time>
      </trkpt>
      <trkpt lat="27.805728" lon="86.714438">
        <ele>3534.4</ele>
        <time>2022-10-22T03:22:25.000Z</time>
      </trkpt>
      <trkpt lat="27.805722" lon="86.714458">
        <ele>3534.4</ele>
        <time>2022-10-22T03:22:31.000Z</time>
      </trkpt>
      <trkpt lat="27.805741" lon="86.714477">
        <ele>3534.4</ele>
        <time>2022-10-22T03:23:02.000Z</time>
      </trkpt>
      <trkpt lat="27.80576" lon="86.714509">
        <ele>3534.2</ele>
        <time>2022-10-22T03:23:04.000Z</time>
      </trkpt>
      <trkpt lat="27.805776" lon="86.714528">
        <ele>3534.2</ele>
        <time>2022-10-22T03:23:06.000Z</time>
      </trkpt>
      <trkpt lat="27.805786" lon="86.714554">
        <ele>3534.4</ele>
        <time>2022-10-22T03:23:08.000Z</time>
      </trkpt>
      <trkpt lat="27.805798" lon="86.714579">
        <ele>3534.4</ele>
        <time>2022-10-22T03:23:11.000Z</time>
      </trkpt>
      <trkpt lat="27.805818" lon="86.714605">
        <ele>3534.8</ele>
        <time>2022-10-22T03:23:28.000Z</time>
      </trkpt>
      <trkpt lat="27.805824" lon="86.714624">
        <ele>3534.8</ele>
        <time>2022-10-22T03:23:29.000Z</time>
      </trkpt>
      <trkpt lat="27.80584" lon="86.714643">
        <ele>3534.4</ele>
        <time>2022-10-22T03:23:31.000Z</time>
      </trkpt>
      <trkpt lat="27.805846" lon="86.714662">
        <ele>3534.8</ele>
        <time>2022-10-22T03:23:32.000Z</time>
      </trkpt>
      <trkpt lat="27.805859" lon="86.714682">
        <ele>3534.8</ele>
        <time>2022-10-22T03:23:34.000Z</time>
      </trkpt>
      <trkpt lat="27.805866" lon="86.714701">
        <ele>3534.8</ele>
        <time>2022-10-22T03:23:35.000Z</time>
      </trkpt>
      <trkpt lat="27.805875" lon="86.71472">
        <ele>3535</ele>
        <time>2022-10-22T03:23:37.000Z</time>
      </trkpt>
      <trkpt lat="27.805888" lon="86.714739">
        <ele>3534.8</ele>
        <time>2022-10-22T03:23:39.000Z</time>
      </trkpt>
      <trkpt lat="27.805907" lon="86.714758">
        <ele>3535</ele>
        <time>2022-10-22T03:23:42.000Z</time>
      </trkpt>
      <trkpt lat="27.805914" lon="86.714778">
        <ele>3535</ele>
        <time>2022-10-22T03:23:43.000Z</time>
      </trkpt>
      <trkpt lat="27.80593" lon="86.714797">
        <ele>3535</ele>
        <time>2022-10-22T03:23:46.000Z</time>
      </trkpt>
      <trkpt lat="27.805949" lon="86.714816">
        <ele>3535</ele>
        <time>2022-10-22T03:23:48.000Z</time>
      </trkpt>
      <trkpt lat="27.805968" lon="86.714842">
        <ele>3535.2</ele>
        <time>2022-10-22T03:23:51.000Z</time>
      </trkpt>
      <trkpt lat="27.805978" lon="86.714861">
        <ele>3535.2</ele>
        <time>2022-10-22T03:23:53.000Z</time>
      </trkpt>
      <trkpt lat="27.805997" lon="86.71488">
        <ele>3535.4</ele>
        <time>2022-10-22T03:23:56.000Z</time>
      </trkpt>
      <trkpt lat="27.806006" lon="86.714906">
        <ele>3535.8</ele>
        <time>2022-10-22T03:23:58.000Z</time>
      </trkpt>
      <trkpt lat="27.806022" lon="86.714925">
        <ele>3535.8</ele>
        <time>2022-10-22T03:24:01.000Z</time>
      </trkpt>
      <trkpt lat="27.806035" lon="86.714944">
        <ele>3535.8</ele>
        <time>2022-10-22T03:24:03.000Z</time>
      </trkpt>
      <trkpt lat="27.806054" lon="86.714963">
        <ele>3536</ele>
        <time>2022-10-22T03:24:06.000Z</time>
      </trkpt>
      <trkpt lat="27.806064" lon="86.714989">
        <ele>3536.2</ele>
        <time>2022-10-22T03:24:08.000Z</time>
      </trkpt>
      <trkpt lat="27.806077" lon="86.715014">
        <ele>3536.4</ele>
        <time>2022-10-22T03:24:11.000Z</time>
      </trkpt>
      <trkpt lat="27.806093" lon="86.71504">
        <ele>3536.2</ele>
        <time>2022-10-22T03:24:14.000Z</time>
      </trkpt>
      <trkpt lat="27.806099" lon="86.715059">
        <ele>3536.2</ele>
        <time>2022-10-22T03:24:16.000Z</time>
      </trkpt>
      <trkpt lat="27.806112" lon="86.715078">
        <ele>3536.4</ele>
        <time>2022-10-22T03:24:19.000Z</time>
      </trkpt>
      <trkpt lat="27.806118" lon="86.715098">
        <ele>3536.4</ele>
        <time>2022-10-22T03:24:21.000Z</time>
      </trkpt>
      <trkpt lat="27.806125" lon="86.715117">
        <ele>3536.8</ele>
        <time>2022-10-22T03:24:23.000Z</time>
      </trkpt>
      <trkpt lat="27.806131" lon="86.715136">
        <ele>3537</ele>
        <time>2022-10-22T03:24:25.000Z</time>
      </trkpt>
      <trkpt lat="27.806144" lon="86.715155">
        <ele>3536.6</ele>
        <time>2022-10-22T03:24:28.000Z</time>
      </trkpt>
      <trkpt lat="27.806147" lon="86.715181">
        <ele>3536.6</ele>
        <time>2022-10-22T03:24:30.000Z</time>
      </trkpt>
      <trkpt lat="27.806154" lon="86.715213">
        <ele>3536.6</ele>
        <time>2022-10-22T03:24:33.000Z</time>
      </trkpt>
      <trkpt lat="27.806166" lon="86.715232">
        <ele>3537</ele>
        <time>2022-10-22T03:24:36.000Z</time>
      </trkpt>
      <trkpt lat="27.806173" lon="86.715251">
        <ele>3537.2</ele>
        <time>2022-10-22T03:24:38.000Z</time>
      </trkpt>
      <trkpt lat="27.806179" lon="86.71527">
        <ele>3537.2</ele>
        <time>2022-10-22T03:24:41.000Z</time>
      </trkpt>
      <trkpt lat="27.806189" lon="86.715302">
        <ele>3537.8</ele>
        <time>2022-10-22T03:24:44.000Z</time>
      </trkpt>
      <trkpt lat="27.806205" lon="86.715322">
        <ele>3538.2</ele>
        <time>2022-10-22T03:24:48.000Z</time>
      </trkpt>
      <trkpt lat="27.806214" lon="86.715347">
        <ele>3539</ele>
        <time>2022-10-22T03:24:51.000Z</time>
      </trkpt>
      <trkpt lat="27.806221" lon="86.715373">
        <ele>3539</ele>
        <time>2022-10-22T03:24:54.000Z</time>
      </trkpt>
      <trkpt lat="27.806227" lon="86.715392">
        <ele>3539.2</ele>
        <time>2022-10-22T03:24:57.000Z</time>
      </trkpt>
      <trkpt lat="27.806234" lon="86.715411">
        <ele>3539.2</ele>
        <time>2022-10-22T03:24:59.000Z</time>
      </trkpt>
      <trkpt lat="27.806234" lon="86.71545">
        <ele>3539.4</ele>
        <time>2022-10-22T03:25:03.000Z</time>
      </trkpt>
      <trkpt lat="27.80623" lon="86.715475">
        <ele>3540</ele>
        <time>2022-10-22T03:25:06.000Z</time>
      </trkpt>
      <trkpt lat="27.806234" lon="86.715501">
        <ele>3540</ele>
        <time>2022-10-22T03:25:08.000Z</time>
      </trkpt>
      <trkpt lat="27.806234" lon="86.715533">
        <ele>3539.2</ele>
        <time>2022-10-22T03:25:11.000Z</time>
      </trkpt>
      <trkpt lat="27.806227" lon="86.715571">
        <ele>3539.2</ele>
        <time>2022-10-22T03:25:14.000Z</time>
      </trkpt>
      <trkpt lat="27.806214" lon="86.71559">
        <ele>3539.6</ele>
        <time>2022-10-22T03:25:17.000Z</time>
      </trkpt>
      <trkpt lat="27.806208" lon="86.71561">
        <ele>3539.2</ele>
        <time>2022-10-22T03:25:18.000Z</time>
      </trkpt>
      <trkpt lat="27.806208" lon="86.715635">
        <ele>3539.6</ele>
        <time>2022-10-22T03:25:21.000Z</time>
      </trkpt>
      <trkpt lat="27.806205" lon="86.715667">
        <ele>3539.6</ele>
        <time>2022-10-22T03:25:24.000Z</time>
      </trkpt>
      <trkpt lat="27.806195" lon="86.715699">
        <ele>3539.6</ele>
        <time>2022-10-22T03:25:27.000Z</time>
      </trkpt>
      <trkpt lat="27.806189" lon="86.715731">
        <ele>3539.6</ele>
        <time>2022-10-22T03:25:30.000Z</time>
      </trkpt>
      <trkpt lat="27.806182" lon="86.71575">
        <ele>3539.4</ele>
        <time>2022-10-22T03:25:32.000Z</time>
      </trkpt>
      <trkpt lat="27.806179" lon="86.715776">
        <ele>3539.6</ele>
        <time>2022-10-22T03:25:35.000Z</time>
      </trkpt>
      <trkpt lat="27.806179" lon="86.715808">
        <ele>3539.8</ele>
        <time>2022-10-22T03:25:37.000Z</time>
      </trkpt>
      <trkpt lat="27.806179" lon="86.715834">
        <ele>3539.8</ele>
        <time>2022-10-22T03:25:40.000Z</time>
      </trkpt>
      <trkpt lat="27.806173" lon="86.715853">
        <ele>3539.8</ele>
        <time>2022-10-22T03:25:41.000Z</time>
      </trkpt>
      <trkpt lat="27.806166" lon="86.715872">
        <ele>3540</ele>
        <time>2022-10-22T03:25:46.000Z</time>
      </trkpt>
      <trkpt lat="27.806173" lon="86.715898">
        <ele>3539.8</ele>
        <time>2022-10-22T03:25:48.000Z</time>
      </trkpt>
      <trkpt lat="27.806173" lon="86.71593">
        <ele>3540</ele>
        <time>2022-10-22T03:25:51.000Z</time>
      </trkpt>
      <trkpt lat="27.806179" lon="86.715955">
        <ele>3540.6</ele>
        <time>2022-10-22T03:25:54.000Z</time>
      </trkpt>
      <trkpt lat="27.806186" lon="86.715974">
        <ele>3540.6</ele>
        <time>2022-10-22T03:25:56.000Z</time>
      </trkpt>
      <trkpt lat="27.806186" lon="86.716006">
        <ele>3541</ele>
        <time>2022-10-22T03:26:00.000Z</time>
      </trkpt>
      <trkpt lat="27.806192" lon="86.716038">
        <ele>3541.4</ele>
        <time>2022-10-22T03:26:04.000Z</time>
      </trkpt>
      <trkpt lat="27.806186" lon="86.716058">
        <ele>3541.4</ele>
        <time>2022-10-22T03:26:09.000Z</time>
      </trkpt>
      <trkpt lat="27.806176" lon="86.716077">
        <ele>3541.6</ele>
        <time>2022-10-22T03:26:21.000Z</time>
      </trkpt>
      <trkpt lat="27.806176" lon="86.716102">
        <ele>3541.6</ele>
        <time>2022-10-22T03:26:24.000Z</time>
      </trkpt>
      <trkpt lat="27.806173" lon="86.716128">
        <ele>3541.8</ele>
        <time>2022-10-22T03:26:29.000Z</time>
      </trkpt>
      <trkpt lat="27.806163" lon="86.716147">
        <ele>3542</ele>
        <time>2022-10-22T03:26:32.000Z</time>
      </trkpt>
      <trkpt lat="27.806154" lon="86.716166">
        <ele>3542.2</ele>
        <time>2022-10-22T03:26:34.000Z</time>
      </trkpt>
      <trkpt lat="27.806144" lon="86.716192">
        <ele>3542.2</ele>
        <time>2022-10-22T03:26:37.000Z</time>
      </trkpt>
      <trkpt lat="27.806147" lon="86.716218">
        <ele>3542.2</ele>
        <time>2022-10-22T03:26:39.000Z</time>
      </trkpt>
      <trkpt lat="27.806134" lon="86.716237">
        <ele>3542</ele>
        <time>2022-10-22T03:26:41.000Z</time>
      </trkpt>
      <trkpt lat="27.806128" lon="86.716256">
        <ele>3542.4</ele>
        <time>2022-10-22T03:26:43.000Z</time>
      </trkpt>
      <trkpt lat="27.806118" lon="86.716275">
        <ele>3542.6</ele>
        <time>2022-10-22T03:26:47.000Z</time>
      </trkpt>
      <trkpt lat="27.806115" lon="86.716307">
        <ele>3542.6</ele>
        <time>2022-10-22T03:26:50.000Z</time>
      </trkpt>
      <trkpt lat="27.806106" lon="86.716326">
        <ele>3542.6</ele>
        <time>2022-10-22T03:26:52.000Z</time>
      </trkpt>
      <trkpt lat="27.806096" lon="86.716346">
        <ele>3542.2</ele>
        <time>2022-10-22T03:26:54.000Z</time>
      </trkpt>
      <trkpt lat="27.806083" lon="86.716371">
        <ele>3542.2</ele>
        <time>2022-10-22T03:26:56.000Z</time>
      </trkpt>
      <trkpt lat="27.806067" lon="86.71639">
        <ele>3542.4</ele>
        <time>2022-10-22T03:26:58.000Z</time>
      </trkpt>
      <trkpt lat="27.806054" lon="86.716416">
        <ele>3542.4</ele>
        <time>2022-10-22T03:27:00.000Z</time>
      </trkpt>
      <trkpt lat="27.806045" lon="86.716435">
        <ele>3542</ele>
        <time>2022-10-22T03:27:02.000Z</time>
      </trkpt>
      <trkpt lat="27.806035" lon="86.716454">
        <ele>3542</ele>
        <time>2022-10-22T03:27:04.000Z</time>
      </trkpt>
      <trkpt lat="27.806019" lon="86.716474">
        <ele>3542.4</ele>
        <time>2022-10-22T03:27:06.000Z</time>
      </trkpt>
      <trkpt lat="27.80601" lon="86.716493">
        <ele>3542.4</ele>
        <time>2022-10-22T03:27:07.000Z</time>
      </trkpt>
      <trkpt lat="27.805997" lon="86.716512">
        <ele>3542.4</ele>
        <time>2022-10-22T03:27:10.000Z</time>
      </trkpt>
      <trkpt lat="27.80599" lon="86.716538">
        <ele>3542.4</ele>
        <time>2022-10-22T03:27:12.000Z</time>
      </trkpt>
      <trkpt lat="27.805978" lon="86.716563">
        <ele>3542.4</ele>
        <time>2022-10-22T03:27:14.000Z</time>
      </trkpt>
      <trkpt lat="27.805962" lon="86.716589">
        <ele>3542.8</ele>
        <time>2022-10-22T03:27:17.000Z</time>
      </trkpt>
      <trkpt lat="27.805946" lon="86.716608">
        <ele>3543</ele>
        <time>2022-10-22T03:27:19.000Z</time>
      </trkpt>
      <trkpt lat="27.805939" lon="86.716627">
        <ele>3543.4</ele>
        <time>2022-10-22T03:27:21.000Z</time>
      </trkpt>
      <trkpt lat="27.80593" lon="86.716653">
        <ele>3543.4</ele>
        <time>2022-10-22T03:27:23.000Z</time>
      </trkpt>
      <trkpt lat="27.80591" lon="86.716672">
        <ele>3543.4</ele>
        <time>2022-10-22T03:27:26.000Z</time>
      </trkpt>
      <trkpt lat="27.805904" lon="86.716691">
        <ele>3543.2</ele>
        <time>2022-10-22T03:27:27.000Z</time>
      </trkpt>
      <trkpt lat="27.805885" lon="86.716723">
        <ele>3543.2</ele>
        <time>2022-10-22T03:27:30.000Z</time>
      </trkpt>
      <trkpt lat="27.805869" lon="86.716736">
        <ele>3543.4</ele>
        <time>2022-10-22T03:27:32.000Z</time>
      </trkpt>
      <trkpt lat="27.805853" lon="86.716768">
        <ele>3543.6</ele>
        <time>2022-10-22T03:27:35.000Z</time>
      </trkpt>
      <trkpt lat="27.805837" lon="86.716787">
        <ele>3543.8</ele>
        <time>2022-10-22T03:27:38.000Z</time>
      </trkpt>
      <trkpt lat="27.80583" lon="86.716813">
        <ele>3544</ele>
        <time>2022-10-22T03:27:40.000Z</time>
      </trkpt>
      <trkpt lat="27.805821" lon="86.716832">
        <ele>3544</ele>
        <time>2022-10-22T03:27:43.000Z</time>
      </trkpt>
      <trkpt lat="27.805808" lon="86.716851">
        <ele>3544.4</ele>
        <time>2022-10-22T03:27:45.000Z</time>
      </trkpt>
      <trkpt lat="27.805798" lon="86.71687">
        <ele>3544.4</ele>
        <time>2022-10-22T03:27:48.000Z</time>
      </trkpt>
      <trkpt lat="27.805782" lon="86.71689">
        <ele>3545</ele>
        <time>2022-10-22T03:27:51.000Z</time>
      </trkpt>
      <trkpt lat="27.80577" lon="86.716909">
        <ele>3545</ele>
        <time>2022-10-22T03:27:54.000Z</time>
      </trkpt>
      <trkpt lat="27.805763" lon="86.716928">
        <ele>3545.2</ele>
        <time>2022-10-22T03:27:56.000Z</time>
      </trkpt>
      <trkpt lat="27.80575" lon="86.716947">
        <ele>3545.4</ele>
        <time>2022-10-22T03:27:59.000Z</time>
      </trkpt>
      <trkpt lat="27.805741" lon="86.716966">
        <ele>3545.4</ele>
        <time>2022-10-22T03:28:01.000Z</time>
      </trkpt>
      <trkpt lat="27.805722" lon="86.716979">
        <ele>3545.4</ele>
        <time>2022-10-22T03:28:04.000Z</time>
      </trkpt>
      <trkpt lat="27.805709" lon="86.717005">
        <ele>3545.8</ele>
        <time>2022-10-22T03:28:07.000Z</time>
      </trkpt>
      <trkpt lat="27.805693" lon="86.717018">
        <ele>3546</ele>
        <time>2022-10-22T03:28:10.000Z</time>
      </trkpt>
      <trkpt lat="27.805683" lon="86.717043">
        <ele>3546</ele>
        <time>2022-10-22T03:28:12.000Z</time>
      </trkpt>
      <trkpt lat="27.805667" lon="86.717056">
        <ele>3546.2</ele>
        <time>2022-10-22T03:28:17.000Z</time>
      </trkpt>
      <trkpt lat="27.805651" lon="86.717069">
        <ele>3546.4</ele>
        <time>2022-10-22T03:28:20.000Z</time>
      </trkpt>
      <trkpt lat="27.805638" lon="86.717088">
        <ele>3546.4</ele>
        <time>2022-10-22T03:28:23.000Z</time>
      </trkpt>
      <trkpt lat="27.805619" lon="86.71712">
        <ele>3547.2</ele>
        <time>2022-10-22T03:29:00.000Z</time>
      </trkpt>
      <trkpt lat="27.805606" lon="86.717146">
        <ele>3547.6</ele>
        <time>2022-10-22T03:29:02.000Z</time>
      </trkpt>
      <trkpt lat="27.8056" lon="86.717165">
        <ele>3547.8</ele>
        <time>2022-10-22T03:29:03.000Z</time>
      </trkpt>
      <trkpt lat="27.805587" lon="86.717197">
        <ele>3547.8</ele>
        <time>2022-10-22T03:29:05.000Z</time>
      </trkpt>
      <trkpt lat="27.805581" lon="86.717216">
        <ele>3548</ele>
        <time>2022-10-22T03:29:06.000Z</time>
      </trkpt>
      <trkpt lat="27.805562" lon="86.717242">
        <ele>3548.2</ele>
        <time>2022-10-22T03:29:08.000Z</time>
      </trkpt>
      <trkpt lat="27.805552" lon="86.717261">
        <ele>3548.2</ele>
        <time>2022-10-22T03:29:11.000Z</time>
      </trkpt>
      <trkpt lat="27.805539" lon="86.717286">
        <ele>3548.2</ele>
        <time>2022-10-22T03:29:13.000Z</time>
      </trkpt>
      <trkpt lat="27.805533" lon="86.717318">
        <ele>3548.4</ele>
        <time>2022-10-22T03:29:16.000Z</time>
      </trkpt>
      <trkpt lat="27.805517" lon="86.717338">
        <ele>3548.8</ele>
        <time>2022-10-22T03:29:21.000Z</time>
      </trkpt>
      <trkpt lat="27.805507" lon="86.717363">
        <ele>3548.8</ele>
        <time>2022-10-22T03:29:25.000Z</time>
      </trkpt>
      <trkpt lat="27.805517" lon="86.717389">
        <ele>3549</ele>
        <time>2022-10-22T03:29:27.000Z</time>
      </trkpt>
      <trkpt lat="27.805507" lon="86.717408">
        <ele>3549</ele>
        <time>2022-10-22T03:29:29.000Z</time>
      </trkpt>
      <trkpt lat="27.805482" lon="86.717421">
        <ele>3549</ele>
        <time>2022-10-22T03:29:32.000Z</time>
      </trkpt>
      <trkpt lat="27.805456" lon="86.71744">
        <ele>3549.2</ele>
        <time>2022-10-22T03:29:35.000Z</time>
      </trkpt>
      <trkpt lat="27.805427" lon="86.717446">
        <ele>3550</ele>
        <time>2022-10-22T03:29:38.000Z</time>
      </trkpt>
      <trkpt lat="27.805408" lon="86.717459">
        <ele>3550.2</ele>
        <time>2022-10-22T03:29:41.000Z</time>
      </trkpt>
      <trkpt lat="27.805398" lon="86.717478">
        <ele>3550.2</ele>
        <time>2022-10-22T03:29:43.000Z</time>
      </trkpt>
      <trkpt lat="27.805382" lon="86.717498">
        <ele>3550.6</ele>
        <time>2022-10-22T03:29:46.000Z</time>
      </trkpt>
      <trkpt lat="27.80537" lon="86.717523">
        <ele>3551</ele>
        <time>2022-10-22T03:29:49.000Z</time>
      </trkpt>
      <trkpt lat="27.805354" lon="86.717542">
        <ele>3551.2</ele>
        <time>2022-10-22T03:29:52.000Z</time>
      </trkpt>
      <trkpt lat="27.805347" lon="86.717562">
        <ele>3551</ele>
        <time>2022-10-22T03:29:53.000Z</time>
      </trkpt>
      <trkpt lat="27.805338" lon="86.717581">
        <ele>3551</ele>
        <time>2022-10-22T03:29:56.000Z</time>
      </trkpt>
      <trkpt lat="27.805331" lon="86.717606">
        <ele>3551</ele>
        <time>2022-10-22T03:29:58.000Z</time>
      </trkpt>
      <trkpt lat="27.805334" lon="86.717638">
        <ele>3550.8</ele>
        <time>2022-10-22T03:30:02.000Z</time>
      </trkpt>
      <trkpt lat="27.805334" lon="86.717664">
        <ele>3550.8</ele>
        <time>2022-10-22T03:30:26.000Z</time>
      </trkpt>
      <trkpt lat="27.805347" lon="86.717683">
        <ele>3550.6</ele>
        <time>2022-10-22T03:30:27.000Z</time>
      </trkpt>
      <trkpt lat="27.805363" lon="86.717696">
        <ele>3550.6</ele>
        <time>2022-10-22T03:30:29.000Z</time>
      </trkpt>
      <trkpt lat="27.805382" lon="86.717702">
        <ele>3550.8</ele>
        <time>2022-10-22T03:30:31.000Z</time>
      </trkpt>
      <trkpt lat="27.805392" lon="86.717722">
        <ele>3550.8</ele>
        <time>2022-10-22T03:30:32.000Z</time>
      </trkpt>
      <trkpt lat="27.805408" lon="86.717734">
        <ele>3550.8</ele>
        <time>2022-10-22T03:30:34.000Z</time>
      </trkpt>
      <trkpt lat="27.805427" lon="86.717754">
        <ele>3550.6</ele>
        <time>2022-10-22T03:30:36.000Z</time>
      </trkpt>
      <trkpt lat="27.805446" lon="86.717773">
        <ele>3550.2</ele>
        <time>2022-10-22T03:30:39.000Z</time>
      </trkpt>
      <trkpt lat="27.805462" lon="86.717798">
        <ele>3549.8</ele>
        <time>2022-10-22T03:30:43.000Z</time>
      </trkpt>
      <trkpt lat="27.805469" lon="86.717818">
        <ele>3549.8</ele>
        <time>2022-10-22T03:30:45.000Z</time>
      </trkpt>
      <trkpt lat="27.805478" lon="86.717843">
        <ele>3549.8</ele>
        <time>2022-10-22T03:30:47.000Z</time>
      </trkpt>
      <trkpt lat="27.805498" lon="86.717875">
        <ele>3549.6</ele>
        <time>2022-10-22T03:30:50.000Z</time>
      </trkpt>
      <trkpt lat="27.805507" lon="86.717894">
        <ele>3548.6</ele>
        <time>2022-10-22T03:30:53.000Z</time>
      </trkpt>
      <trkpt lat="27.805514" lon="86.71792">
        <ele>3548.4</ele>
        <time>2022-10-22T03:30:55.000Z</time>
      </trkpt>
      <trkpt lat="27.805517" lon="86.717958">
        <ele>3548.4</ele>
        <time>2022-10-22T03:30:58.000Z</time>
      </trkpt>
      <trkpt lat="27.805517" lon="86.717997">
        <ele>3548.2</ele>
        <time>2022-10-22T03:31:01.000Z</time>
      </trkpt>
      <trkpt lat="27.80551" lon="86.718022">
        <ele>3548.4</ele>
        <time>2022-10-22T03:31:03.000Z</time>
      </trkpt>
      <trkpt lat="27.805504" lon="86.718048">
        <ele>3548.4</ele>
        <time>2022-10-22T03:31:05.000Z</time>
      </trkpt>
      <trkpt lat="27.805498" lon="86.71808">
        <ele>3548.6</ele>
        <time>2022-10-22T03:31:07.000Z</time>
      </trkpt>
      <trkpt lat="27.805501" lon="86.718112">
        <ele>3548.8</ele>
        <time>2022-10-22T03:31:10.000Z</time>
      </trkpt>
      <trkpt lat="27.805517" lon="86.718131">
        <ele>3548.8</ele>
        <time>2022-10-22T03:31:12.000Z</time>
      </trkpt>
      <trkpt lat="27.80553" lon="86.71815">
        <ele>3548.6</ele>
        <time>2022-10-22T03:31:14.000Z</time>
      </trkpt>
      <trkpt lat="27.805539" lon="86.71817">
        <ele>3548.6</ele>
        <time>2022-10-22T03:31:16.000Z</time>
      </trkpt>
      <trkpt lat="27.805552" lon="86.718202">
        <ele>3548.2</ele>
        <time>2022-10-22T03:31:19.000Z</time>
      </trkpt>
      <trkpt lat="27.805568" lon="86.718221">
        <ele>3548.2</ele>
        <time>2022-10-22T03:31:22.000Z</time>
      </trkpt>
      <trkpt lat="27.805578" lon="86.718246">
        <ele>3548.4</ele>
        <time>2022-10-22T03:31:24.000Z</time>
      </trkpt>
      <trkpt lat="27.805587" lon="86.718278">
        <ele>3548.4</ele>
        <time>2022-10-22T03:31:26.000Z</time>
      </trkpt>
      <trkpt lat="27.805587" lon="86.71831">
        <ele>3548.2</ele>
        <time>2022-10-22T03:31:29.000Z</time>
      </trkpt>
      <trkpt lat="27.805587" lon="86.718349">
        <ele>3548.4</ele>
        <time>2022-10-22T03:31:32.000Z</time>
      </trkpt>
      <trkpt lat="27.80559" lon="86.718374">
        <ele>3548.4</ele>
        <time>2022-10-22T03:31:35.000Z</time>
      </trkpt>
      <trkpt lat="27.805597" lon="86.7184">
        <ele>3548.2</ele>
        <time>2022-10-22T03:31:37.000Z</time>
      </trkpt>
      <trkpt lat="27.8056" lon="86.718438">
        <ele>3548.2</ele>
        <time>2022-10-22T03:31:40.000Z</time>
      </trkpt>
      <trkpt lat="27.805603" lon="86.718477">
        <ele>3547.8</ele>
        <time>2022-10-22T03:31:43.000Z</time>
      </trkpt>
      <trkpt lat="27.8056" lon="86.718515">
        <ele>3547.8</ele>
        <time>2022-10-22T03:31:46.000Z</time>
      </trkpt>
      <trkpt lat="27.805587" lon="86.718547">
        <ele>3547.8</ele>
        <time>2022-10-22T03:31:49.000Z</time>
      </trkpt>
      <trkpt lat="27.805578" lon="86.718573">
        <ele>3547.8</ele>
        <time>2022-10-22T03:31:51.000Z</time>
      </trkpt>
      <trkpt lat="27.805571" lon="86.718598">
        <ele>3547.8</ele>
        <time>2022-10-22T03:31:53.000Z</time>
      </trkpt>
      <trkpt lat="27.805562" lon="86.71863">
        <ele>3548.2</ele>
        <time>2022-10-22T03:31:56.000Z</time>
      </trkpt>
      <trkpt lat="27.805552" lon="86.71865">
        <ele>3548.4</ele>
        <time>2022-10-22T03:31:58.000Z</time>
      </trkpt>
      <trkpt lat="27.805546" lon="86.718675">
        <ele>3548.4</ele>
        <time>2022-10-22T03:32:00.000Z</time>
      </trkpt>
      <trkpt lat="27.805542" lon="86.718707">
        <ele>3548.6</ele>
        <time>2022-10-22T03:32:03.000Z</time>
      </trkpt>
      <trkpt lat="27.805539" lon="86.718733">
        <ele>3548.8</ele>
        <time>2022-10-22T03:32:05.000Z</time>
      </trkpt>
      <trkpt lat="27.805533" lon="86.718752">
        <ele>3548.8</ele>
        <time>2022-10-22T03:32:07.000Z</time>
      </trkpt>
      <trkpt lat="27.80552" lon="86.718771">
        <ele>3548.8</ele>
        <time>2022-10-22T03:32:10.000Z</time>
      </trkpt>
      <trkpt lat="27.805504" lon="86.71879">
        <ele>3548.6</ele>
        <time>2022-10-22T03:32:32.000Z</time>
      </trkpt>
      <trkpt lat="27.805491" lon="86.718816">
        <ele>3548.6</ele>
        <time>2022-10-22T03:32:34.000Z</time>
      </trkpt>
      <trkpt lat="27.805482" lon="86.718842">
        <ele>3548.6</ele>
        <time>2022-10-22T03:32:35.000Z</time>
      </trkpt>
      <trkpt lat="27.805462" lon="86.718874">
        <ele>3548.2</ele>
        <time>2022-10-22T03:32:37.000Z</time>
      </trkpt>
      <trkpt lat="27.805453" lon="86.718906">
        <ele>3548.2</ele>
        <time>2022-10-22T03:32:39.000Z</time>
      </trkpt>
      <trkpt lat="27.805443" lon="86.718938">
        <ele>3548.4</ele>
        <time>2022-10-22T03:32:41.000Z</time>
      </trkpt>
      <trkpt lat="27.80544" lon="86.718963">
        <ele>3549.4</ele>
        <time>2022-10-22T03:32:43.000Z</time>
      </trkpt>
      <trkpt lat="27.80544" lon="86.718989">
        <ele>3549.4</ele>
        <time>2022-10-22T03:32:45.000Z</time>
      </trkpt>
      <trkpt lat="27.805446" lon="86.719014">
        <ele>3549.4</ele>
        <time>2022-10-22T03:32:48.000Z</time>
      </trkpt>
      <trkpt lat="27.805456" lon="86.71904">
        <ele>3549.8</ele>
        <time>2022-10-22T03:32:50.000Z</time>
      </trkpt>
      <trkpt lat="27.805462" lon="86.719066">
        <ele>3549.4</ele>
        <time>2022-10-22T03:32:52.000Z</time>
      </trkpt>
      <trkpt lat="27.805466" lon="86.719104">
        <ele>3549.4</ele>
        <time>2022-10-22T03:32:55.000Z</time>
      </trkpt>
      <trkpt lat="27.805459" lon="86.719136">
        <ele>3549.4</ele>
        <time>2022-10-22T03:32:58.000Z</time>
      </trkpt>
      <trkpt lat="27.805453" lon="86.719162">
        <ele>3549.6</ele>
        <time>2022-10-22T03:33:00.000Z</time>
      </trkpt>
      <trkpt lat="27.80544" lon="86.719187">
        <ele>3549.8</ele>
        <time>2022-10-22T03:33:02.000Z</time>
      </trkpt>
      <trkpt lat="27.80543" lon="86.719213">
        <ele>3550.2</ele>
        <time>2022-10-22T03:33:05.000Z</time>
      </trkpt>
      <trkpt lat="27.805427" lon="86.719238">
        <ele>3551</ele>
        <time>2022-10-22T03:33:08.000Z</time>
      </trkpt>
      <trkpt lat="27.805421" lon="86.719264">
        <ele>3551</ele>
        <time>2022-10-22T03:33:10.000Z</time>
      </trkpt>
      <trkpt lat="27.805424" lon="86.71929">
        <ele>3551</ele>
        <time>2022-10-22T03:33:13.000Z</time>
      </trkpt>
      <trkpt lat="27.805427" lon="86.719315">
        <ele>3551.2</ele>
        <time>2022-10-22T03:33:15.000Z</time>
      </trkpt>
      <trkpt lat="27.805434" lon="86.719334">
        <ele>3551.4</ele>
        <time>2022-10-22T03:33:18.000Z</time>
      </trkpt>
      <trkpt lat="27.805446" lon="86.719354">
        <ele>3551.4</ele>
        <time>2022-10-22T03:33:21.000Z</time>
      </trkpt>
      <trkpt lat="27.805469" lon="86.719354">
        <ele>3552</ele>
        <time>2022-10-22T03:33:24.000Z</time>
      </trkpt>
      <trkpt lat="27.805491" lon="86.719347">
        <ele>3552</ele>
        <time>2022-10-22T03:33:26.000Z</time>
      </trkpt>
      <trkpt lat="27.80551" lon="86.719334">
        <ele>3551.8</ele>
        <time>2022-10-22T03:33:28.000Z</time>
      </trkpt>
      <trkpt lat="27.80553" lon="86.719334">
        <ele>3551.4</ele>
        <time>2022-10-22T03:33:30.000Z</time>
      </trkpt>
      <trkpt lat="27.805552" lon="86.719334">
        <ele>3550.8</ele>
        <time>2022-10-22T03:33:33.000Z</time>
      </trkpt>
      <trkpt lat="27.805571" lon="86.719334">
        <ele>3550.6</ele>
        <time>2022-10-22T03:33:36.000Z</time>
      </trkpt>
      <trkpt lat="27.80559" lon="86.719334">
        <ele>3550.6</ele>
        <time>2022-10-22T03:33:39.000Z</time>
      </trkpt>
      <trkpt lat="27.80561" lon="86.719322">
        <ele>3550.4</ele>
        <time>2022-10-22T03:33:42.000Z</time>
      </trkpt>
      <trkpt lat="27.805638" lon="86.719315">
        <ele>3549.6</ele>
        <time>2022-10-22T03:34:21.000Z</time>
      </trkpt>
      <trkpt lat="27.805658" lon="86.719309">
        <ele>3549.6</ele>
        <time>2022-10-22T03:34:22.000Z</time>
      </trkpt>
      <trkpt lat="27.805677" lon="86.719309">
        <ele>3549.6</ele>
        <time>2022-10-22T03:34:23.000Z</time>
      </trkpt>
      <trkpt lat="27.805699" lon="86.719309">
        <ele>3549.6</ele>
        <time>2022-10-22T03:34:24.000Z</time>
      </trkpt>
      <trkpt lat="27.805718" lon="86.719302">
        <ele>3549.6</ele>
        <time>2022-10-22T03:34:25.000Z</time>
      </trkpt>
      <trkpt lat="27.805741" lon="86.719302">
        <ele>3549.6</ele>
        <time>2022-10-22T03:34:26.000Z</time>
      </trkpt>
      <trkpt lat="27.805779" lon="86.719309">
        <ele>3549.6</ele>
        <time>2022-10-22T03:34:28.000Z</time>
      </trkpt>
      <trkpt lat="27.805798" lon="86.719309">
        <ele>3549.6</ele>
        <time>2022-10-22T03:34:29.000Z</time>
      </trkpt>
      <trkpt lat="27.805818" lon="86.719309">
        <ele>3549.6</ele>
        <time>2022-10-22T03:34:31.000Z</time>
      </trkpt>
      <trkpt lat="27.80584" lon="86.719309">
        <ele>3549.6</ele>
        <time>2022-10-22T03:34:33.000Z</time>
      </trkpt>
      <trkpt lat="27.805862" lon="86.719315">
        <ele>3549.6</ele>
        <time>2022-10-22T03:34:35.000Z</time>
      </trkpt>
      <trkpt lat="27.805891" lon="86.719315">
        <ele>3549.6</ele>
        <time>2022-10-22T03:34:37.000Z</time>
      </trkpt>
      <trkpt lat="27.805914" lon="86.719322">
        <ele>3549.2</ele>
        <time>2022-10-22T03:34:39.000Z</time>
      </trkpt>
      <trkpt lat="27.805939" lon="86.719328">
        <ele>3549</ele>
        <time>2022-10-22T03:34:41.000Z</time>
      </trkpt>
      <trkpt lat="27.805962" lon="86.719347">
        <ele>3549</ele>
        <time>2022-10-22T03:34:43.000Z</time>
      </trkpt>
      <trkpt lat="27.805984" lon="86.719366">
        <ele>3549</ele>
        <time>2022-10-22T03:34:45.000Z</time>
      </trkpt>
      <trkpt lat="27.806006" lon="86.719386">
        <ele>3548.8</ele>
        <time>2022-10-22T03:34:47.000Z</time>
      </trkpt>
      <trkpt lat="27.806019" lon="86.719405">
        <ele>3548.8</ele>
        <time>2022-10-22T03:34:49.000Z</time>
      </trkpt>
      <trkpt lat="27.806026" lon="86.719424">
        <ele>3548.6</ele>
        <time>2022-10-22T03:34:50.000Z</time>
      </trkpt>
      <trkpt lat="27.806038" lon="86.71945">
        <ele>3548.6</ele>
        <time>2022-10-22T03:34:52.000Z</time>
      </trkpt>
      <trkpt lat="27.806045" lon="86.719469">
        <ele>3548.6</ele>
        <time>2022-10-22T03:34:53.000Z</time>
      </trkpt>
      <trkpt lat="27.806064" lon="86.719501">
        <ele>3548.8</ele>
        <time>2022-10-22T03:34:56.000Z</time>
      </trkpt>
      <trkpt lat="27.806074" lon="86.71952">
        <ele>3548.8</ele>
        <time>2022-10-22T03:34:58.000Z</time>
      </trkpt>
      <trkpt lat="27.806102" lon="86.719565">
        <ele>3548.6</ele>
        <time>2022-10-22T03:35:02.000Z</time>
      </trkpt>
      <trkpt lat="27.806118" lon="86.719584">
        <ele>3548.6</ele>
        <time>2022-10-22T03:35:04.000Z</time>
      </trkpt>
      <trkpt lat="27.806134" lon="86.719597">
        <ele>3548.8</ele>
        <time>2022-10-22T03:35:06.000Z</time>
      </trkpt>
      <trkpt lat="27.806157" lon="86.719597">
        <ele>3548.8</ele>
        <time>2022-10-22T03:35:08.000Z</time>
      </trkpt>
      <trkpt lat="27.806179" lon="86.719597">
        <ele>3549.4</ele>
        <time>2022-10-22T03:35:10.000Z</time>
      </trkpt>
      <trkpt lat="27.806205" lon="86.719597">
        <ele>3549.4</ele>
        <time>2022-10-22T03:35:12.000Z</time>
      </trkpt>
      <trkpt lat="27.806227" lon="86.71959">
        <ele>3549.4</ele>
        <time>2022-10-22T03:35:14.000Z</time>
      </trkpt>
      <trkpt lat="27.80625" lon="86.71959">
        <ele>3549.6</ele>
        <time>2022-10-22T03:35:16.000Z</time>
      </trkpt>
      <trkpt lat="27.806272" lon="86.719597">
        <ele>3549.6</ele>
        <time>2022-10-22T03:35:18.000Z</time>
      </trkpt>
      <trkpt lat="27.806291" lon="86.719597">
        <ele>3549.2</ele>
        <time>2022-10-22T03:35:20.000Z</time>
      </trkpt>
      <trkpt lat="27.80631" lon="86.71959">
        <ele>3549.4</ele>
        <time>2022-10-22T03:35:22.000Z</time>
      </trkpt>
      <trkpt lat="27.806339" lon="86.719571">
        <ele>3549.2</ele>
        <time>2022-10-22T03:35:25.000Z</time>
      </trkpt>
      <trkpt lat="27.806358" lon="86.719558">
        <ele>3548.6</ele>
        <time>2022-10-22T03:35:27.000Z</time>
      </trkpt>
      <trkpt lat="27.806378" lon="86.719552">
        <ele>3548.4</ele>
        <time>2022-10-22T03:35:29.000Z</time>
      </trkpt>
      <trkpt lat="27.806403" lon="86.719533">
        <ele>3548</ele>
        <time>2022-10-22T03:35:32.000Z</time>
      </trkpt>
      <trkpt lat="27.806426" lon="86.719514">
        <ele>3547.6</ele>
        <time>2022-10-22T03:35:35.000Z</time>
      </trkpt>
      <trkpt lat="27.806442" lon="86.719501">
        <ele>3547.4</ele>
        <time>2022-10-22T03:35:37.000Z</time>
      </trkpt>
      <trkpt lat="27.806458" lon="86.719488">
        <ele>3547</ele>
        <time>2022-10-22T03:35:39.000Z</time>
      </trkpt>
      <trkpt lat="27.806477" lon="86.719482">
        <ele>3546.8</ele>
        <time>2022-10-22T03:35:41.000Z</time>
      </trkpt>
      <trkpt lat="27.806509" lon="86.719475">
        <ele>3546.8</ele>
        <time>2022-10-22T03:35:43.000Z</time>
      </trkpt>
      <trkpt lat="27.806534" lon="86.719475">
        <ele>3546.6</ele>
        <time>2022-10-22T03:35:45.000Z</time>
      </trkpt>
      <trkpt lat="27.80656" lon="86.719475">
        <ele>3546.4</ele>
        <time>2022-10-22T03:35:47.000Z</time>
      </trkpt>
      <trkpt lat="27.806589" lon="86.719482">
        <ele>3546.4</ele>
        <time>2022-10-22T03:35:49.000Z</time>
      </trkpt>
      <trkpt lat="27.806614" lon="86.719482">
        <ele>3546.4</ele>
        <time>2022-10-22T03:35:51.000Z</time>
      </trkpt>
      <trkpt lat="27.80664" lon="86.719482">
        <ele>3546.6</ele>
        <time>2022-10-22T03:35:53.000Z</time>
      </trkpt>
      <trkpt lat="27.806662" lon="86.719482">
        <ele>3546.8</ele>
        <time>2022-10-22T03:35:55.000Z</time>
      </trkpt>
      <trkpt lat="27.806688" lon="86.719482">
        <ele>3546.8</ele>
        <time>2022-10-22T03:35:57.000Z</time>
      </trkpt>
      <trkpt lat="27.806707" lon="86.719482">
        <ele>3546.6</ele>
        <time>2022-10-22T03:35:59.000Z</time>
      </trkpt>
      <trkpt lat="27.80673" lon="86.719488">
        <ele>3546.6</ele>
        <time>2022-10-22T03:36:01.000Z</time>
      </trkpt>
      <trkpt lat="27.806752" lon="86.719501">
        <ele>3546.6</ele>
        <time>2022-10-22T03:36:03.000Z</time>
      </trkpt>
      <trkpt lat="27.806774" lon="86.719507">
        <ele>3546.6</ele>
        <time>2022-10-22T03:36:05.000Z</time>
      </trkpt>
      <trkpt lat="27.806794" lon="86.719507">
        <ele>3546.6</ele>
        <time>2022-10-22T03:36:07.000Z</time>
      </trkpt>
      <trkpt lat="27.806819" lon="86.719501">
        <ele>3546.6</ele>
        <time>2022-10-22T03:36:09.000Z</time>
      </trkpt>
      <trkpt lat="27.806842" lon="86.719488">
        <ele>3546.4</ele>
        <time>2022-10-22T03:36:11.000Z</time>
      </trkpt>
      <trkpt lat="27.80687" lon="86.719475">
        <ele>3546</ele>
        <time>2022-10-22T03:36:13.000Z</time>
      </trkpt>
      <trkpt lat="27.80689" lon="86.719469">
        <ele>3545.6</ele>
        <time>2022-10-22T03:36:15.000Z</time>
      </trkpt>
      <trkpt lat="27.806912" lon="86.719462">
        <ele>3545.4</ele>
        <time>2022-10-22T03:36:17.000Z</time>
      </trkpt>
      <trkpt lat="27.806934" lon="86.719462">
        <ele>3545</ele>
        <time>2022-10-22T03:36:19.000Z</time>
      </trkpt>
      <trkpt lat="27.80696" lon="86.71945">
        <ele>3545</ele>
        <time>2022-10-22T03:36:21.000Z</time>
      </trkpt>
      <trkpt lat="27.806979" lon="86.71945">
        <ele>3544.4</ele>
        <time>2022-10-22T03:36:23.000Z</time>
      </trkpt>
      <trkpt lat="27.807005" lon="86.71945">
        <ele>3544.8</ele>
        <time>2022-10-22T03:36:25.000Z</time>
      </trkpt>
      <trkpt lat="27.80703" lon="86.719462">
        <ele>3544.2</ele>
        <time>2022-10-22T03:36:27.000Z</time>
      </trkpt>
      <trkpt lat="27.807053" lon="86.719469">
        <ele>3544.2</ele>
        <time>2022-10-22T03:36:29.000Z</time>
      </trkpt>
      <trkpt lat="27.807078" lon="86.719469">
        <ele>3544</ele>
        <time>2022-10-22T03:36:31.000Z</time>
      </trkpt>
      <trkpt lat="27.807104" lon="86.719475">
        <ele>3543.8</ele>
        <time>2022-10-22T03:36:33.000Z</time>
      </trkpt>
      <trkpt lat="27.80713" lon="86.719475">
        <ele>3543.6</ele>
        <time>2022-10-22T03:36:35.000Z</time>
      </trkpt>
      <trkpt lat="27.807155" lon="86.719482">
        <ele>3543.6</ele>
        <time>2022-10-22T03:36:37.000Z</time>
      </trkpt>
      <trkpt lat="27.807184" lon="86.719488">
        <ele>3543.4</ele>
        <time>2022-10-22T03:36:39.000Z</time>
      </trkpt>
      <trkpt lat="27.807203" lon="86.719501">
        <ele>3543.4</ele>
        <time>2022-10-22T03:36:41.000Z</time>
      </trkpt>
      <trkpt lat="27.807226" lon="86.719507">
        <ele>3543.2</ele>
        <time>2022-10-22T03:36:43.000Z</time>
      </trkpt>
      <trkpt lat="27.807251" lon="86.719507">
        <ele>3543.2</ele>
        <time>2022-10-22T03:36:45.000Z</time>
      </trkpt>
      <trkpt lat="27.807274" lon="86.719514">
        <ele>3542.8</ele>
        <time>2022-10-22T03:36:47.000Z</time>
      </trkpt>
      <trkpt lat="27.807296" lon="86.71952">
        <ele>3542.4</ele>
        <time>2022-10-22T03:36:49.000Z</time>
      </trkpt>
      <trkpt lat="27.807315" lon="86.719526">
        <ele>3542.2</ele>
        <time>2022-10-22T03:36:51.000Z</time>
      </trkpt>
      <trkpt lat="27.807341" lon="86.719546">
        <ele>3542.2</ele>
        <time>2022-10-22T03:36:53.000Z</time>
      </trkpt>
      <trkpt lat="27.807366" lon="86.719558">
        <ele>3542.2</ele>
        <time>2022-10-22T03:36:55.000Z</time>
      </trkpt>
      <trkpt lat="27.807389" lon="86.719565">
        <ele>3541.6</ele>
        <time>2022-10-22T03:36:57.000Z</time>
      </trkpt>
      <trkpt lat="27.807411" lon="86.719565">
        <ele>3541.6</ele>
        <time>2022-10-22T03:36:59.000Z</time>
      </trkpt>
      <trkpt lat="27.80744" lon="86.719584">
        <ele>3541.6</ele>
        <time>2022-10-22T03:37:02.000Z</time>
      </trkpt>
      <trkpt lat="27.807469" lon="86.719597">
        <ele>3541.4</ele>
        <time>2022-10-22T03:37:05.000Z</time>
      </trkpt>
      <trkpt lat="27.807494" lon="86.719603">
        <ele>3541.6</ele>
        <time>2022-10-22T03:37:08.000Z</time>
      </trkpt>
      <trkpt lat="27.807514" lon="86.719622">
        <ele>3542</ele>
        <time>2022-10-22T03:37:10.000Z</time>
      </trkpt>
      <trkpt lat="27.807539" lon="86.719622">
        <ele>3542</ele>
        <time>2022-10-22T03:37:13.000Z</time>
      </trkpt>
      <trkpt lat="27.807562" lon="86.719635">
        <ele>3542.2</ele>
        <time>2022-10-22T03:37:16.000Z</time>
      </trkpt>
      <trkpt lat="27.80759" lon="86.719642">
        <ele>3542.4</ele>
        <time>2022-10-22T03:37:19.000Z</time>
      </trkpt>
      <trkpt lat="27.807606" lon="86.719661">
        <ele>3542.4</ele>
        <time>2022-10-22T03:37:21.000Z</time>
      </trkpt>
      <trkpt lat="27.807626" lon="86.719667">
        <ele>3542.6</ele>
        <time>2022-10-22T03:37:24.000Z</time>
      </trkpt>
      <trkpt lat="27.807645" lon="86.719674">
        <ele>3542.4</ele>
        <time>2022-10-22T03:37:26.000Z</time>
      </trkpt>
      <trkpt lat="27.807664" lon="86.719686">
        <ele>3543.2</ele>
        <time>2022-10-22T03:37:28.000Z</time>
      </trkpt>
      <trkpt lat="27.807686" lon="86.719706">
        <ele>3543.6</ele>
        <time>2022-10-22T03:37:31.000Z</time>
      </trkpt>
      <trkpt lat="27.807699" lon="86.719725">
        <ele>3543.6</ele>
        <time>2022-10-22T03:37:34.000Z</time>
      </trkpt>
      <trkpt lat="27.807706" lon="86.719744">
        <ele>3543.6</ele>
        <time>2022-10-22T03:37:35.000Z</time>
      </trkpt>
      <trkpt lat="27.807722" lon="86.719763">
        <ele>3543.8</ele>
        <time>2022-10-22T03:37:38.000Z</time>
      </trkpt>
      <trkpt lat="27.807731" lon="86.719789">
        <ele>3544.4</ele>
        <time>2022-10-22T03:37:41.000Z</time>
      </trkpt>
      <trkpt lat="27.807747" lon="86.719808">
        <ele>3544.6</ele>
        <time>2022-10-22T03:37:46.000Z</time>
      </trkpt>
      <trkpt lat="27.807766" lon="86.719827">
        <ele>3545</ele>
        <time>2022-10-22T03:37:48.000Z</time>
      </trkpt>
      <trkpt lat="27.807776" lon="86.719846">
        <ele>3545.6</ele>
        <time>2022-10-22T03:37:51.000Z</time>
      </trkpt>
      <trkpt lat="27.807786" lon="86.719866">
        <ele>3545.6</ele>
        <time>2022-10-22T03:37:54.000Z</time>
      </trkpt>
      <trkpt lat="27.807789" lon="86.719898">
        <ele>3546.2</ele>
        <time>2022-10-22T03:38:00.000Z</time>
      </trkpt>
      <trkpt lat="27.807795" lon="86.719923">
        <ele>3547</ele>
        <time>2022-10-22T03:38:05.000Z</time>
      </trkpt>
      <trkpt lat="27.807802" lon="86.719942">
        <ele>3547.8</ele>
        <time>2022-10-22T03:38:09.000Z</time>
      </trkpt>
      <trkpt lat="27.807805" lon="86.719968">
        <ele>3548.4</ele>
        <time>2022-10-22T03:38:14.000Z</time>
      </trkpt>
      <trkpt lat="27.807802" lon="86.719994">
        <ele>3548.6</ele>
        <time>2022-10-22T03:38:18.000Z</time>
      </trkpt>
      <trkpt lat="27.807802" lon="86.720019">
        <ele>3549</ele>
        <time>2022-10-22T03:38:22.000Z</time>
      </trkpt>
      <trkpt lat="27.807782" lon="86.720038">
        <ele>3549.4</ele>
        <time>2022-10-22T03:38:25.000Z</time>
      </trkpt>
      <trkpt lat="27.807779" lon="86.720064">
        <ele>3549.6</ele>
        <time>2022-10-22T03:38:37.000Z</time>
      </trkpt>
      <trkpt lat="27.807786" lon="86.72009">
        <ele>3550.6</ele>
        <time>2022-10-22T03:38:40.000Z</time>
      </trkpt>
      <trkpt lat="27.807792" lon="86.720115">
        <ele>3551</ele>
        <time>2022-10-22T03:38:44.000Z</time>
      </trkpt>
      <trkpt lat="27.807786" lon="86.720141">
        <ele>3552.6</ele>
        <time>2022-10-22T03:38:50.000Z</time>
      </trkpt>
      <trkpt lat="27.807782" lon="86.720166">
        <ele>3554.2</ele>
        <time>2022-10-22T03:38:59.000Z</time>
      </trkpt>
      <trkpt lat="27.807782" lon="86.720192">
        <ele>3555.2</ele>
        <time>2022-10-22T03:39:04.000Z</time>
      </trkpt>
      <trkpt lat="27.807776" lon="86.720218">
        <ele>3556</ele>
        <time>2022-10-22T03:39:09.000Z</time>
      </trkpt>
      <trkpt lat="27.807754" lon="86.720224">
        <ele>3556.4</ele>
        <time>2022-10-22T03:39:13.000Z</time>
      </trkpt>
      <trkpt lat="27.807744" lon="86.720243">
        <ele>3557.4</ele>
        <time>2022-10-22T03:39:19.000Z</time>
      </trkpt>
      <trkpt lat="27.807731" lon="86.720262">
        <ele>3558</ele>
        <time>2022-10-22T03:39:23.000Z</time>
      </trkpt>
      <trkpt lat="27.807715" lon="86.720282">
        <ele>3558.6</ele>
        <time>2022-10-22T03:39:28.000Z</time>
      </trkpt>
      <trkpt lat="27.807706" lon="86.720301">
        <ele>3559.6</ele>
        <time>2022-10-22T03:39:32.000Z</time>
      </trkpt>
      <trkpt lat="27.807712" lon="86.72032">
        <ele>3559.8</ele>
        <time>2022-10-22T03:39:37.000Z</time>
      </trkpt>
      <trkpt lat="27.807718" lon="86.720339">
        <ele>3560.4</ele>
        <time>2022-10-22T03:39:41.000Z</time>
      </trkpt>
      <trkpt lat="27.807734" lon="86.720352">
        <ele>3560.6</ele>
        <time>2022-10-22T03:39:45.000Z</time>
      </trkpt>
      <trkpt lat="27.807757" lon="86.720358">
        <ele>3560.6</ele>
        <time>2022-10-22T03:39:49.000Z</time>
      </trkpt>
      <trkpt lat="27.807766" lon="86.720378">
        <ele>3560.8</ele>
        <time>2022-10-22T03:39:51.000Z</time>
      </trkpt>
      <trkpt lat="27.807776" lon="86.720397">
        <ele>3561.4</ele>
        <time>2022-10-22T03:39:55.000Z</time>
      </trkpt>
      <trkpt lat="27.807789" lon="86.720416">
        <ele>3561.6</ele>
        <time>2022-10-22T03:39:58.000Z</time>
      </trkpt>
      <trkpt lat="27.807792" lon="86.720442">
        <ele>3561.8</ele>
        <time>2022-10-22T03:40:01.000Z</time>
      </trkpt>
      <trkpt lat="27.807795" lon="86.720467">
        <ele>3562.4</ele>
        <time>2022-10-22T03:40:04.000Z</time>
      </trkpt>
      <trkpt lat="27.807795" lon="86.720499">
        <ele>3563</ele>
        <time>2022-10-22T03:40:08.000Z</time>
      </trkpt>
      <trkpt lat="27.807792" lon="86.720525">
        <ele>3562.6</ele>
        <time>2022-10-22T03:40:11.000Z</time>
      </trkpt>
      <trkpt lat="27.807795" lon="86.720557">
        <ele>3562.8</ele>
        <time>2022-10-22T03:40:14.000Z</time>
      </trkpt>
      <trkpt lat="27.807795" lon="86.720582">
        <ele>3563.6</ele>
        <time>2022-10-22T03:40:16.000Z</time>
      </trkpt>
      <trkpt lat="27.807802" lon="86.720614">
        <ele>3563.6</ele>
        <time>2022-10-22T03:40:19.000Z</time>
      </trkpt>
      <trkpt lat="27.807811" lon="86.720634">
        <ele>3563.4</ele>
        <time>2022-10-22T03:40:22.000Z</time>
      </trkpt>
      <trkpt lat="27.807818" lon="86.720659">
        <ele>3563.6</ele>
        <time>2022-10-22T03:40:25.000Z</time>
      </trkpt>
      <trkpt lat="27.807824" lon="86.720678">
        <ele>3563.6</ele>
        <time>2022-10-22T03:40:27.000Z</time>
      </trkpt>
      <trkpt lat="27.80783" lon="86.720698">
        <ele>3563.2</ele>
        <time>2022-10-22T03:40:28.000Z</time>
      </trkpt>
      <trkpt lat="27.80784" lon="86.720723">
        <ele>3562.4</ele>
        <time>2022-10-22T03:40:31.000Z</time>
      </trkpt>
      <trkpt lat="27.807846" lon="86.720742">
        <ele>3562.4</ele>
        <time>2022-10-22T03:40:33.000Z</time>
      </trkpt>
      <trkpt lat="27.807853" lon="86.720774">
        <ele>3563</ele>
        <time>2022-10-22T03:40:36.000Z</time>
      </trkpt>
      <trkpt lat="27.807853" lon="86.7208">
        <ele>3563.4</ele>
        <time>2022-10-22T03:40:39.000Z</time>
      </trkpt>
      <trkpt lat="27.807853" lon="86.720826">
        <ele>3563.4</ele>
        <time>2022-10-22T03:40:41.000Z</time>
      </trkpt>
      <trkpt lat="27.807846" lon="86.720851">
        <ele>3563.4</ele>
        <time>2022-10-22T03:40:43.000Z</time>
      </trkpt>
      <trkpt lat="27.807853" lon="86.720877">
        <ele>3563.4</ele>
        <time>2022-10-22T03:40:48.000Z</time>
      </trkpt>
      <trkpt lat="27.807856" lon="86.720902">
        <ele>3563.4</ele>
        <time>2022-10-22T03:40:50.000Z</time>
      </trkpt>
      <trkpt lat="27.807862" lon="86.720934">
        <ele>3563.6</ele>
        <time>2022-10-22T03:40:53.000Z</time>
      </trkpt>
      <trkpt lat="27.807872" lon="86.720954">
        <ele>3564</ele>
        <time>2022-10-22T03:40:55.000Z</time>
      </trkpt>
      <trkpt lat="27.807891" lon="86.720973">
        <ele>3564.2</ele>
        <time>2022-10-22T03:40:58.000Z</time>
      </trkpt>
      <trkpt lat="27.80791" lon="86.720986">
        <ele>3564</ele>
        <time>2022-10-22T03:41:22.000Z</time>
      </trkpt>
      <trkpt lat="27.807939" lon="86.720998">
        <ele>3564</ele>
        <time>2022-10-22T03:41:24.000Z</time>
      </trkpt>
      <trkpt lat="27.807962" lon="86.721011">
        <ele>3564.2</ele>
        <time>2022-10-22T03:41:26.000Z</time>
      </trkpt>
      <trkpt lat="27.80799" lon="86.721018">
        <ele>3564.2</ele>
        <time>2022-10-22T03:41:28.000Z</time>
      </trkpt>
      <trkpt lat="27.808016" lon="86.721024">
        <ele>3564</ele>
        <time>2022-10-22T03:41:30.000Z</time>
      </trkpt>
      <trkpt lat="27.808042" lon="86.721024">
        <ele>3564</ele>
        <time>2022-10-22T03:41:32.000Z</time>
      </trkpt>
      <trkpt lat="27.808064" lon="86.721024">
        <ele>3564</ele>
        <time>2022-10-22T03:41:34.000Z</time>
      </trkpt>
      <trkpt lat="27.808083" lon="86.721018">
        <ele>3564</ele>
        <time>2022-10-22T03:41:36.000Z</time>
      </trkpt>
      <trkpt lat="27.808106" lon="86.721011">
        <ele>3563.8</ele>
        <time>2022-10-22T03:41:38.000Z</time>
      </trkpt>
      <trkpt lat="27.808134" lon="86.721011">
        <ele>3563.8</ele>
        <time>2022-10-22T03:41:40.000Z</time>
      </trkpt>
      <trkpt lat="27.808154" lon="86.720998">
        <ele>3563.8</ele>
        <time>2022-10-22T03:41:42.000Z</time>
      </trkpt>
      <trkpt lat="27.808179" lon="86.720992">
        <ele>3563.6</ele>
        <time>2022-10-22T03:41:44.000Z</time>
      </trkpt>
      <trkpt lat="27.808208" lon="86.720998">
        <ele>3563.2</ele>
        <time>2022-10-22T03:41:46.000Z</time>
      </trkpt>
      <trkpt lat="27.808227" lon="86.721011">
        <ele>3563.6</ele>
        <time>2022-10-22T03:41:48.000Z</time>
      </trkpt>
      <trkpt lat="27.808246" lon="86.721018">
        <ele>3563.4</ele>
        <time>2022-10-22T03:41:50.000Z</time>
      </trkpt>
      <trkpt lat="27.808272" lon="86.72103">
        <ele>3563.6</ele>
        <time>2022-10-22T03:41:52.000Z</time>
      </trkpt>
      <trkpt lat="27.808298" lon="86.721037">
        <ele>3563.4</ele>
        <time>2022-10-22T03:41:54.000Z</time>
      </trkpt>
      <trkpt lat="27.80832" lon="86.721056">
        <ele>3563.6</ele>
        <time>2022-10-22T03:41:56.000Z</time>
      </trkpt>
      <trkpt lat="27.808346" lon="86.721062">
        <ele>3563.6</ele>
        <time>2022-10-22T03:41:58.000Z</time>
      </trkpt>
      <trkpt lat="27.808368" lon="86.721069">
        <ele>3563.6</ele>
        <time>2022-10-22T03:42:00.000Z</time>
      </trkpt>
      <trkpt lat="27.808387" lon="86.721069">
        <ele>3563.8</ele>
        <time>2022-10-22T03:42:02.000Z</time>
      </trkpt>
      <trkpt lat="27.808413" lon="86.721069">
        <ele>3563.6</ele>
        <time>2022-10-22T03:42:04.000Z</time>
      </trkpt>
      <trkpt lat="27.808438" lon="86.721069">
        <ele>3563.6</ele>
        <time>2022-10-22T03:42:06.000Z</time>
      </trkpt>
      <trkpt lat="27.808467" lon="86.721069">
        <ele>3563.6</ele>
        <time>2022-10-22T03:42:08.000Z</time>
      </trkpt>
      <trkpt lat="27.808496" lon="86.721062">
        <ele>3563.4</ele>
        <time>2022-10-22T03:42:10.000Z</time>
      </trkpt>
      <trkpt lat="27.808515" lon="86.721056">
        <ele>3563.4</ele>
        <time>2022-10-22T03:42:12.000Z</time>
      </trkpt>
      <trkpt lat="27.808541" lon="86.721056">
        <ele>3563.6</ele>
        <time>2022-10-22T03:42:14.000Z</time>
      </trkpt>
      <trkpt lat="27.808566" lon="86.72105">
        <ele>3563.4</ele>
        <time>2022-10-22T03:42:16.000Z</time>
      </trkpt>
      <trkpt lat="27.808586" lon="86.72105">
        <ele>3563.4</ele>
        <time>2022-10-22T03:42:17.000Z</time>
      </trkpt>
      <trkpt lat="27.808605" lon="86.72105">
        <ele>3563.8</ele>
        <time>2022-10-22T03:42:19.000Z</time>
      </trkpt>
      <trkpt lat="27.808627" lon="86.721056">
        <ele>3564</ele>
        <time>2022-10-22T03:42:21.000Z</time>
      </trkpt>
      <trkpt lat="27.80865" lon="86.721056">
        <ele>3564</ele>
        <time>2022-10-22T03:42:23.000Z</time>
      </trkpt>
      <trkpt lat="27.808678" lon="86.721062">
        <ele>3564.4</ele>
        <time>2022-10-22T03:42:26.000Z</time>
      </trkpt>
      <trkpt lat="27.808704" lon="86.721062">
        <ele>3564.8</ele>
        <time>2022-10-22T03:42:28.000Z</time>
      </trkpt>
      <trkpt lat="27.808726" lon="86.721069">
        <ele>3564.8</ele>
        <time>2022-10-22T03:42:30.000Z</time>
      </trkpt>
      <trkpt lat="27.808746" lon="86.721075">
        <ele>3564.8</ele>
        <time>2022-10-22T03:42:32.000Z</time>
      </trkpt>
      <trkpt lat="27.808768" lon="86.721082">
        <ele>3564.8</ele>
        <time>2022-10-22T03:42:34.000Z</time>
      </trkpt>
      <trkpt lat="27.808784" lon="86.721101">
        <ele>3564.8</ele>
        <time>2022-10-22T03:42:36.000Z</time>
      </trkpt>
      <trkpt lat="27.808806" lon="86.721107">
        <ele>3565.4</ele>
        <time>2022-10-22T03:42:38.000Z</time>
      </trkpt>
      <trkpt lat="27.808826" lon="86.72112">
        <ele>3565.8</ele>
        <time>2022-10-22T03:42:40.000Z</time>
      </trkpt>
      <trkpt lat="27.808842" lon="86.721133">
        <ele>3565.8</ele>
        <time>2022-10-22T03:42:42.000Z</time>
      </trkpt>
      <trkpt lat="27.808867" lon="86.721146">
        <ele>3565.6</ele>
        <time>2022-10-22T03:42:45.000Z</time>
      </trkpt>
      <trkpt lat="27.808886" lon="86.721152">
        <ele>3566</ele>
        <time>2022-10-22T03:42:47.000Z</time>
      </trkpt>
      <trkpt lat="27.808912" lon="86.721171">
        <ele>3566</ele>
        <time>2022-10-22T03:42:50.000Z</time>
      </trkpt>
      <trkpt lat="27.808931" lon="86.721178">
        <ele>3566</ele>
        <time>2022-10-22T03:42:52.000Z</time>
      </trkpt>
      <trkpt lat="27.808954" lon="86.721178">
        <ele>3565.8</ele>
        <time>2022-10-22T03:42:54.000Z</time>
      </trkpt>
      <trkpt lat="27.808973" lon="86.721184">
        <ele>3565.8</ele>
        <time>2022-10-22T03:42:56.000Z</time>
      </trkpt>
      <trkpt lat="27.808995" lon="86.721184">
        <ele>3566</ele>
        <time>2022-10-22T03:42:58.000Z</time>
      </trkpt>
      <trkpt lat="27.809021" lon="86.72119">
        <ele>3566.4</ele>
        <time>2022-10-22T03:43:01.000Z</time>
      </trkpt>
      <trkpt lat="27.809043" lon="86.72121">
        <ele>3566.6</ele>
        <time>2022-10-22T03:43:04.000Z</time>
      </trkpt>
      <trkpt lat="27.809059" lon="86.721222">
        <ele>3566.6</ele>
        <time>2022-10-22T03:43:07.000Z</time>
      </trkpt>
      <trkpt lat="27.809075" lon="86.721248">
        <ele>3566.8</ele>
        <time>2022-10-22T03:43:10.000Z</time>
      </trkpt>
      <trkpt lat="27.809091" lon="86.721261">
        <ele>3567</ele>
        <time>2022-10-22T03:43:12.000Z</time>
      </trkpt>
      <trkpt lat="27.809107" lon="86.721274">
        <ele>3567.2</ele>
        <time>2022-10-22T03:43:14.000Z</time>
      </trkpt>
      <trkpt lat="27.809126" lon="86.72128">
        <ele>3567.6</ele>
        <time>2022-10-22T03:43:16.000Z</time>
      </trkpt>
      <trkpt lat="27.809139" lon="86.721299">
        <ele>3568.4</ele>
        <time>2022-10-22T03:43:18.000Z</time>
      </trkpt>
      <trkpt lat="27.809155" lon="86.721312">
        <ele>3568.4</ele>
        <time>2022-10-22T03:43:21.000Z</time>
      </trkpt>
      <trkpt lat="27.809168" lon="86.721331">
        <ele>3567.8</ele>
        <time>2022-10-22T03:43:23.000Z</time>
      </trkpt>
      <trkpt lat="27.809187" lon="86.72135">
        <ele>3568.2</ele>
        <time>2022-10-22T03:43:26.000Z</time>
      </trkpt>
      <trkpt lat="27.809194" lon="86.72137">
        <ele>3568.2</ele>
        <time>2022-10-22T03:43:27.000Z</time>
      </trkpt>
      <trkpt lat="27.809203" lon="86.721389">
        <ele>3568</ele>
        <time>2022-10-22T03:43:30.000Z</time>
      </trkpt>
      <trkpt lat="27.809213" lon="86.721408">
        <ele>3568</ele>
        <time>2022-10-22T03:43:32.000Z</time>
      </trkpt>
      <trkpt lat="27.809232" lon="86.721427">
        <ele>3568.2</ele>
        <time>2022-10-22T03:43:35.000Z</time>
      </trkpt>
      <trkpt lat="27.809251" lon="86.721459">
        <ele>3568.2</ele>
        <time>2022-10-22T03:43:38.000Z</time>
      </trkpt>
      <trkpt lat="27.809264" lon="86.721478">
        <ele>3568.8</ele>
        <time>2022-10-22T03:43:41.000Z</time>
      </trkpt>
      <trkpt lat="27.809277" lon="86.721498">
        <ele>3568.8</ele>
        <time>2022-10-22T03:43:43.000Z</time>
      </trkpt>
      <trkpt lat="27.809293" lon="86.72153">
        <ele>3569</ele>
        <time>2022-10-22T03:43:46.000Z</time>
      </trkpt>
      <trkpt lat="27.809302" lon="86.721555">
        <ele>3568.8</ele>
        <time>2022-10-22T03:43:49.000Z</time>
      </trkpt>
      <trkpt lat="27.809309" lon="86.721587">
        <ele>3569</ele>
        <time>2022-10-22T03:43:52.000Z</time>
      </trkpt>
      <trkpt lat="27.809312" lon="86.721613">
        <ele>3569.2</ele>
        <time>2022-10-22T03:43:55.000Z</time>
      </trkpt>
      <trkpt lat="27.809315" lon="86.721638">
        <ele>3569.6</ele>
        <time>2022-10-22T03:43:58.000Z</time>
      </trkpt>
      <trkpt lat="27.809318" lon="86.721664">
        <ele>3570</ele>
        <time>2022-10-22T03:44:00.000Z</time>
      </trkpt>
      <trkpt lat="27.809318" lon="86.721696">
        <ele>3570.2</ele>
        <time>2022-10-22T03:44:03.000Z</time>
      </trkpt>
      <trkpt lat="27.809325" lon="86.721728">
        <ele>3570.8</ele>
        <time>2022-10-22T03:44:06.000Z</time>
      </trkpt>
      <trkpt lat="27.809328" lon="86.721766">
        <ele>3571</ele>
        <time>2022-10-22T03:44:10.000Z</time>
      </trkpt>
      <trkpt lat="27.809331" lon="86.721805">
        <ele>3571.6</ele>
        <time>2022-10-22T03:44:14.000Z</time>
      </trkpt>
      <trkpt lat="27.809325" lon="86.721837">
        <ele>3571.8</ele>
        <time>2022-10-22T03:44:18.000Z</time>
      </trkpt>
      <trkpt lat="27.809322" lon="86.721869">
        <ele>3572</ele>
        <time>2022-10-22T03:44:21.000Z</time>
      </trkpt>
      <trkpt lat="27.809318" lon="86.721894">
        <ele>3572.4</ele>
        <time>2022-10-22T03:44:24.000Z</time>
      </trkpt>
      <trkpt lat="27.809315" lon="86.721926">
        <ele>3572.8</ele>
        <time>2022-10-22T03:44:27.000Z</time>
      </trkpt>
      <trkpt lat="27.809312" lon="86.721952">
        <ele>3573</ele>
        <time>2022-10-22T03:44:31.000Z</time>
      </trkpt>
      <trkpt lat="27.809306" lon="86.721971">
        <ele>3573</ele>
        <time>2022-10-22T03:44:33.000Z</time>
      </trkpt>
      <trkpt lat="27.809302" lon="86.722003">
        <ele>3573.8</ele>
        <time>2022-10-22T03:44:36.000Z</time>
      </trkpt>
      <trkpt lat="27.809296" lon="86.722022">
        <ele>3573.8</ele>
        <time>2022-10-22T03:44:39.000Z</time>
      </trkpt>
      <trkpt lat="27.809296" lon="86.722054">
        <ele>3574.2</ele>
        <time>2022-10-22T03:44:42.000Z</time>
      </trkpt>
      <trkpt lat="27.809302" lon="86.722074">
        <ele>3575</ele>
        <time>2022-10-22T03:44:45.000Z</time>
      </trkpt>
      <trkpt lat="27.809312" lon="86.722099">
        <ele>3575.2</ele>
        <time>2022-10-22T03:44:48.000Z</time>
      </trkpt>
      <trkpt lat="27.809312" lon="86.722125">
        <ele>3575.4</ele>
        <time>2022-10-22T03:44:53.000Z</time>
      </trkpt>
      <trkpt lat="27.809318" lon="86.72215">
        <ele>3575.8</ele>
        <time>2022-10-22T03:45:09.000Z</time>
      </trkpt>
      <trkpt lat="27.809322" lon="86.722182">
        <ele>3576</ele>
        <time>2022-10-22T03:45:11.000Z</time>
      </trkpt>
      <trkpt lat="27.809328" lon="86.722214">
        <ele>3576.2</ele>
        <time>2022-10-22T03:45:13.000Z</time>
      </trkpt>
      <trkpt lat="27.809334" lon="86.722246">
        <ele>3576.6</ele>
        <time>2022-10-22T03:45:15.000Z</time>
      </trkpt>
      <trkpt lat="27.809338" lon="86.722272">
        <ele>3576.6</ele>
        <time>2022-10-22T03:45:18.000Z</time>
      </trkpt>
      <trkpt lat="27.809341" lon="86.722298">
        <ele>3576.8</ele>
        <time>2022-10-22T03:45:20.000Z</time>
      </trkpt>
      <trkpt lat="27.809338" lon="86.72233">
        <ele>3577.8</ele>
        <time>2022-10-22T03:45:23.000Z</time>
      </trkpt>
      <trkpt lat="27.809325" lon="86.722349">
        <ele>3578.4</ele>
        <time>2022-10-22T03:45:26.000Z</time>
      </trkpt>
      <trkpt lat="27.809322" lon="86.722374">
        <ele>3578.2</ele>
        <time>2022-10-22T03:45:28.000Z</time>
      </trkpt>
      <trkpt lat="27.809315" lon="86.7224">
        <ele>3578.2</ele>
        <time>2022-10-22T03:45:30.000Z</time>
      </trkpt>
      <trkpt lat="27.809306" lon="86.722419">
        <ele>3578.8</ele>
        <time>2022-10-22T03:45:32.000Z</time>
      </trkpt>
      <trkpt lat="27.809293" lon="86.722451">
        <ele>3578.8</ele>
        <time>2022-10-22T03:45:35.000Z</time>
      </trkpt>
      <trkpt lat="27.809286" lon="86.722483">
        <ele>3579.8</ele>
        <time>2022-10-22T03:45:38.000Z</time>
      </trkpt>
      <trkpt lat="27.809293" lon="86.722502">
        <ele>3580</ele>
        <time>2022-10-22T03:45:41.000Z</time>
      </trkpt>
      <trkpt lat="27.809299" lon="86.722522">
        <ele>3580.6</ele>
        <time>2022-10-22T03:45:43.000Z</time>
      </trkpt>
      <trkpt lat="27.809309" lon="86.722541">
        <ele>3580.6</ele>
        <time>2022-10-22T03:45:45.000Z</time>
      </trkpt>
      <trkpt lat="27.809318" lon="86.72256">
        <ele>3580.6</ele>
        <time>2022-10-22T03:45:47.000Z</time>
      </trkpt>
      <trkpt lat="27.809334" lon="86.722579">
        <ele>3580.6</ele>
        <time>2022-10-22T03:45:52.000Z</time>
      </trkpt>
      <trkpt lat="27.809354" lon="86.722566">
        <ele>3580.8</ele>
        <time>2022-10-22T03:45:56.000Z</time>
      </trkpt>
      <trkpt lat="27.809373" lon="86.722547">
        <ele>3579.6</ele>
        <time>2022-10-22T03:45:59.000Z</time>
      </trkpt>
      <trkpt lat="27.809344" lon="86.722502">
        <ele>3578.6</ele>
        <time>2022-10-22T03:49:10.000Z</time>
      </trkpt>
      <trkpt lat="27.809366" lon="86.722496">
        <ele>3578.6</ele>
        <time>2022-10-22T03:49:14.000Z</time>
      </trkpt>
      <trkpt lat="27.809386" lon="86.72249">
        <ele>3578.6</ele>
        <time>2022-10-22T03:49:17.000Z</time>
      </trkpt>
      <trkpt lat="27.809402" lon="86.72247">
        <ele>3577.8</ele>
        <time>2022-10-22T03:49:22.000Z</time>
      </trkpt>
      <trkpt lat="27.809421" lon="86.722458">
        <ele>3577.2</ele>
        <time>2022-10-22T03:49:26.000Z</time>
      </trkpt>
      <trkpt lat="27.809437" lon="86.722445">
        <ele>3577.2</ele>
        <time>2022-10-22T03:49:28.000Z</time>
      </trkpt>
      <trkpt lat="27.809453" lon="86.722432">
        <ele>3576.6</ele>
        <time>2022-10-22T03:49:30.000Z</time>
      </trkpt>
      <trkpt lat="27.809469" lon="86.722419">
        <ele>3576.2</ele>
        <time>2022-10-22T03:49:32.000Z</time>
      </trkpt>
      <trkpt lat="27.809488" lon="86.722419">
        <ele>3576</ele>
        <time>2022-10-22T03:49:36.000Z</time>
      </trkpt>
      <trkpt lat="27.809488" lon="86.722445">
        <ele>3576</ele>
        <time>2022-10-22T03:49:43.000Z</time>
      </trkpt>
      <trkpt lat="27.80951" lon="86.722419">
        <ele>3574.8</ele>
        <time>2022-10-22T03:50:01.000Z</time>
      </trkpt>
      <trkpt lat="27.809542" lon="86.722406">
        <ele>3574.4</ele>
        <time>2022-10-22T03:50:03.000Z</time>
      </trkpt>
      <trkpt lat="27.809562" lon="86.7224">
        <ele>3574</ele>
        <time>2022-10-22T03:50:04.000Z</time>
      </trkpt>
      <trkpt lat="27.809578" lon="86.722387">
        <ele>3573.8</ele>
        <time>2022-10-22T03:50:05.000Z</time>
      </trkpt>
      <trkpt lat="27.809603" lon="86.722368">
        <ele>3573.6</ele>
        <time>2022-10-22T03:50:07.000Z</time>
      </trkpt>
      <trkpt lat="27.809635" lon="86.722349">
        <ele>3573.6</ele>
        <time>2022-10-22T03:50:09.000Z</time>
      </trkpt>
      <trkpt lat="27.809661" lon="86.722342">
        <ele>3573</ele>
        <time>2022-10-22T03:50:12.000Z</time>
      </trkpt>
      <trkpt lat="27.809683" lon="86.722336">
        <ele>3573</ele>
        <time>2022-10-22T03:50:15.000Z</time>
      </trkpt>
      <trkpt lat="27.809702" lon="86.72233">
        <ele>3572.2</ele>
        <time>2022-10-22T03:50:17.000Z</time>
      </trkpt>
      <trkpt lat="27.809715" lon="86.72231">
        <ele>3572</ele>
        <time>2022-10-22T03:50:19.000Z</time>
      </trkpt>
      <trkpt lat="27.809738" lon="86.722304">
        <ele>3571.6</ele>
        <time>2022-10-22T03:50:22.000Z</time>
      </trkpt>
      <trkpt lat="27.80976" lon="86.722285">
        <ele>3571.2</ele>
        <time>2022-10-22T03:50:25.000Z</time>
      </trkpt>
      <trkpt lat="27.809782" lon="86.722285">
        <ele>3571</ele>
        <time>2022-10-22T03:50:27.000Z</time>
      </trkpt>
      <trkpt lat="27.809802" lon="86.722272">
        <ele>3570.6</ele>
        <time>2022-10-22T03:50:29.000Z</time>
      </trkpt>
      <trkpt lat="27.809821" lon="86.722266">
        <ele>3570.2</ele>
        <time>2022-10-22T03:50:31.000Z</time>
      </trkpt>
      <trkpt lat="27.809837" lon="86.722253">
        <ele>3569.8</ele>
        <time>2022-10-22T03:50:33.000Z</time>
      </trkpt>
      <trkpt lat="27.80985" lon="86.722234">
        <ele>3569.6</ele>
        <time>2022-10-22T03:50:35.000Z</time>
      </trkpt>
      <trkpt lat="27.809869" lon="86.722227">
        <ele>3569.6</ele>
        <time>2022-10-22T03:50:37.000Z</time>
      </trkpt>
      <trkpt lat="27.809891" lon="86.722221">
        <ele>3569.4</ele>
        <time>2022-10-22T03:50:39.000Z</time>
      </trkpt>
      <trkpt lat="27.809907" lon="86.722208">
        <ele>3569.2</ele>
        <time>2022-10-22T03:50:41.000Z</time>
      </trkpt>
      <trkpt lat="27.809936" lon="86.722202">
        <ele>3568.4</ele>
        <time>2022-10-22T03:50:44.000Z</time>
      </trkpt>
      <trkpt lat="27.809958" lon="86.722189">
        <ele>3568.2</ele>
        <time>2022-10-22T03:50:46.000Z</time>
      </trkpt>
      <trkpt lat="27.809984" lon="86.722202">
        <ele>3568.4</ele>
        <time>2022-10-22T03:50:48.000Z</time>
      </trkpt>
      <trkpt lat="27.810006" lon="86.722208">
        <ele>3568.4</ele>
        <time>2022-10-22T03:50:50.000Z</time>
      </trkpt>
      <trkpt lat="27.810029" lon="86.722214">
        <ele>3568.4</ele>
        <time>2022-10-22T03:50:52.000Z</time>
      </trkpt>
      <trkpt lat="27.810051" lon="86.722221">
        <ele>3568.2</ele>
        <time>2022-10-22T03:50:54.000Z</time>
      </trkpt>
      <trkpt lat="27.810074" lon="86.722221">
        <ele>3568.2</ele>
        <time>2022-10-22T03:50:56.000Z</time>
      </trkpt>
      <trkpt lat="27.810106" lon="86.722221">
        <ele>3567.8</ele>
        <time>2022-10-22T03:50:59.000Z</time>
      </trkpt>
      <trkpt lat="27.810128" lon="86.722221">
        <ele>3567.8</ele>
        <time>2022-10-22T03:51:01.000Z</time>
      </trkpt>
      <trkpt lat="27.81015" lon="86.722234">
        <ele>3567.8</ele>
        <time>2022-10-22T03:51:03.000Z</time>
      </trkpt>
      <trkpt lat="27.81017" lon="86.722253">
        <ele>3567.8</ele>
        <time>2022-10-22T03:51:05.000Z</time>
      </trkpt>
      <trkpt lat="27.810189" lon="86.722259">
        <ele>3567.6</ele>
        <time>2022-10-22T03:51:08.000Z</time>
      </trkpt>
      <trkpt lat="27.810211" lon="86.722259">
        <ele>3567</ele>
        <time>2022-10-22T03:51:11.000Z</time>
      </trkpt>
      <trkpt lat="27.81023" lon="86.722253">
        <ele>3566.8</ele>
        <time>2022-10-22T03:51:13.000Z</time>
      </trkpt>
      <trkpt lat="27.81025" lon="86.722246">
        <ele>3566.8</ele>
        <time>2022-10-22T03:51:15.000Z</time>
      </trkpt>
      <trkpt lat="27.810266" lon="86.722227">
        <ele>3566.6</ele>
        <time>2022-10-22T03:51:17.000Z</time>
      </trkpt>
      <trkpt lat="27.810288" lon="86.722227">
        <ele>3566.4</ele>
        <time>2022-10-22T03:51:19.000Z</time>
      </trkpt>
      <trkpt lat="27.81031" lon="86.722227">
        <ele>3566.4</ele>
        <time>2022-10-22T03:51:21.000Z</time>
      </trkpt>
      <trkpt lat="27.81033" lon="86.722221">
        <ele>3565.8</ele>
        <time>2022-10-22T03:51:23.000Z</time>
      </trkpt>
      <trkpt lat="27.810352" lon="86.722234">
        <ele>3565.6</ele>
        <time>2022-10-22T03:51:25.000Z</time>
      </trkpt>
      <trkpt lat="27.810371" lon="86.722234">
        <ele>3565.2</ele>
        <time>2022-10-22T03:51:27.000Z</time>
      </trkpt>
      <trkpt lat="27.810394" lon="86.722246">
        <ele>3565</ele>
        <time>2022-10-22T03:51:29.000Z</time>
      </trkpt>
      <trkpt lat="27.810416" lon="86.722246">
        <ele>3565</ele>
        <time>2022-10-22T03:51:31.000Z</time>
      </trkpt>
      <trkpt lat="27.810442" lon="86.722246">
        <ele>3564.4</ele>
        <time>2022-10-22T03:51:34.000Z</time>
      </trkpt>
      <trkpt lat="27.810461" lon="86.722253">
        <ele>3564.4</ele>
        <time>2022-10-22T03:51:36.000Z</time>
      </trkpt>
      <trkpt lat="27.81048" lon="86.722253">
        <ele>3564.2</ele>
        <time>2022-10-22T03:51:38.000Z</time>
      </trkpt>
      <trkpt lat="27.810506" lon="86.722253">
        <ele>3564</ele>
        <time>2022-10-22T03:51:40.000Z</time>
      </trkpt>
      <trkpt lat="27.810531" lon="86.722253">
        <ele>3563.8</ele>
        <time>2022-10-22T03:51:42.000Z</time>
      </trkpt>
      <trkpt lat="27.810557" lon="86.722266">
        <ele>3563.2</ele>
        <time>2022-10-22T03:51:44.000Z</time>
      </trkpt>
      <trkpt lat="27.810579" lon="86.722266">
        <ele>3562.8</ele>
        <time>2022-10-22T03:51:46.000Z</time>
      </trkpt>
      <trkpt lat="27.810598" lon="86.722266">
        <ele>3562.8</ele>
        <time>2022-10-22T03:51:48.000Z</time>
      </trkpt>
      <trkpt lat="27.810618" lon="86.722272">
        <ele>3562.6</ele>
        <time>2022-10-22T03:51:50.000Z</time>
      </trkpt>
      <trkpt lat="27.810643" lon="86.722272">
        <ele>3561.8</ele>
        <time>2022-10-22T03:51:53.000Z</time>
      </trkpt>
      <trkpt lat="27.810662" lon="86.722291">
        <ele>3562</ele>
        <time>2022-10-22T03:51:55.000Z</time>
      </trkpt>
      <trkpt lat="27.810682" lon="86.722298">
        <ele>3561.6</ele>
        <time>2022-10-22T03:51:57.000Z</time>
      </trkpt>
      <trkpt lat="27.810701" lon="86.722304">
        <ele>3560.8</ele>
        <time>2022-10-22T03:52:00.000Z</time>
      </trkpt>
      <trkpt lat="27.81072" lon="86.72231">
        <ele>3560.4</ele>
        <time>2022-10-22T03:52:02.000Z</time>
      </trkpt>
      <trkpt lat="27.810739" lon="86.722323">
        <ele>3560.4</ele>
        <time>2022-10-22T03:52:04.000Z</time>
      </trkpt>
      <trkpt lat="27.810765" lon="86.72233">
        <ele>3559.8</ele>
        <time>2022-10-22T03:52:07.000Z</time>
      </trkpt>
      <trkpt lat="27.810784" lon="86.72233">
        <ele>3559.4</ele>
        <time>2022-10-22T03:52:09.000Z</time>
      </trkpt>
      <trkpt lat="27.810803" lon="86.72233">
        <ele>3559</ele>
        <time>2022-10-22T03:52:11.000Z</time>
      </trkpt>
      <trkpt lat="27.810829" lon="86.722336">
        <ele>3558.8</ele>
        <time>2022-10-22T03:52:14.000Z</time>
      </trkpt>
      <trkpt lat="27.810854" lon="86.722342">
        <ele>3557.8</ele>
        <time>2022-10-22T03:52:17.000Z</time>
      </trkpt>
      <trkpt lat="27.810877" lon="86.722362">
        <ele>3557.6</ele>
        <time>2022-10-22T03:52:19.000Z</time>
      </trkpt>
      <trkpt lat="27.810899" lon="86.722368">
        <ele>3557.4</ele>
        <time>2022-10-22T03:52:23.000Z</time>
      </trkpt>
      <trkpt lat="27.810922" lon="86.722381">
        <ele>3556.8</ele>
        <time>2022-10-22T03:52:26.000Z</time>
      </trkpt>
      <trkpt lat="27.810934" lon="86.7224">
        <ele>3556.6</ele>
        <time>2022-10-22T03:52:28.000Z</time>
      </trkpt>
      <trkpt lat="27.810957" lon="86.722413">
        <ele>3556</ele>
        <time>2022-10-22T03:52:31.000Z</time>
      </trkpt>
      <trkpt lat="27.81097" lon="86.722432">
        <ele>3555.8</ele>
        <time>2022-10-22T03:52:33.000Z</time>
      </trkpt>
      <trkpt lat="27.810992" lon="86.722451">
        <ele>3555.6</ele>
        <time>2022-10-22T03:52:36.000Z</time>
      </trkpt>
      <trkpt lat="27.811008" lon="86.72247">
        <ele>3555.2</ele>
        <time>2022-10-22T03:52:38.000Z</time>
      </trkpt>
      <trkpt lat="27.811024" lon="86.722483">
        <ele>3555</ele>
        <time>2022-10-22T03:52:40.000Z</time>
      </trkpt>
      <trkpt lat="27.81104" lon="86.722502">
        <ele>3554.6</ele>
        <time>2022-10-22T03:52:43.000Z</time>
      </trkpt>
      <trkpt lat="27.811059" lon="86.722509">
        <ele>3554.6</ele>
        <time>2022-10-22T03:52:45.000Z</time>
      </trkpt>
      <trkpt lat="27.811069" lon="86.722528">
        <ele>3554.6</ele>
        <time>2022-10-22T03:52:47.000Z</time>
      </trkpt>
      <trkpt lat="27.811088" lon="86.722541">
        <ele>3554.2</ele>
        <time>2022-10-22T03:52:49.000Z</time>
      </trkpt>
      <trkpt lat="27.811098" lon="86.72256">
        <ele>3554.2</ele>
        <time>2022-10-22T03:52:51.000Z</time>
      </trkpt>
      <trkpt lat="27.81112" lon="86.722579">
        <ele>3553.6</ele>
        <time>2022-10-22T03:52:55.000Z</time>
      </trkpt>
      <trkpt lat="27.811126" lon="86.722598">
        <ele>3554.2</ele>
        <time>2022-10-22T03:52:56.000Z</time>
      </trkpt>
      <trkpt lat="27.811142" lon="86.722611">
        <ele>3554.2</ele>
        <time>2022-10-22T03:52:58.000Z</time>
      </trkpt>
      <trkpt lat="27.811162" lon="86.72263">
        <ele>3554.2</ele>
        <time>2022-10-22T03:53:00.000Z</time>
      </trkpt>
      <trkpt lat="27.811178" lon="86.72265">
        <ele>3553.6</ele>
        <time>2022-10-22T03:53:02.000Z</time>
      </trkpt>
      <trkpt lat="27.811184" lon="86.722669">
        <ele>3553.4</ele>
        <time>2022-10-22T03:53:04.000Z</time>
      </trkpt>
      <trkpt lat="27.81119" lon="86.722688">
        <ele>3553.4</ele>
        <time>2022-10-22T03:53:06.000Z</time>
      </trkpt>
      <trkpt lat="27.811206" lon="86.722701">
        <ele>3553.6</ele>
        <time>2022-10-22T03:53:14.000Z</time>
      </trkpt>
      <trkpt lat="27.811216" lon="86.722726">
        <ele>3553.4</ele>
        <time>2022-10-22T03:53:43.000Z</time>
      </trkpt>
      <trkpt lat="27.811232" lon="86.722746">
        <ele>3553.2</ele>
        <time>2022-10-22T03:53:49.000Z</time>
      </trkpt>
      <trkpt lat="27.811248" lon="86.722771">
        <ele>3552.8</ele>
        <time>2022-10-22T03:53:51.000Z</time>
      </trkpt>
      <trkpt lat="27.811264" lon="86.72279">
        <ele>3552.4</ele>
        <time>2022-10-22T03:53:54.000Z</time>
      </trkpt>
      <trkpt lat="27.81128" lon="86.722803">
        <ele>3552.8</ele>
        <time>2022-10-22T03:53:56.000Z</time>
      </trkpt>
      <trkpt lat="27.811302" lon="86.722829">
        <ele>3552.8</ele>
        <time>2022-10-22T03:53:59.000Z</time>
      </trkpt>
      <trkpt lat="27.811318" lon="86.722848">
        <ele>3552.8</ele>
        <time>2022-10-22T03:54:01.000Z</time>
      </trkpt>
      <trkpt lat="27.811338" lon="86.722867">
        <ele>3552.8</ele>
        <time>2022-10-22T03:54:03.000Z</time>
      </trkpt>
      <trkpt lat="27.811347" lon="86.722886">
        <ele>3552.8</ele>
        <time>2022-10-22T03:54:05.000Z</time>
      </trkpt>
      <trkpt lat="27.811366" lon="86.722899">
        <ele>3552.6</ele>
        <time>2022-10-22T03:54:07.000Z</time>
      </trkpt>
      <trkpt lat="27.811386" lon="86.722918">
        <ele>3552.6</ele>
        <time>2022-10-22T03:54:09.000Z</time>
      </trkpt>
      <trkpt lat="27.811405" lon="86.722931">
        <ele>3552.6</ele>
        <time>2022-10-22T03:54:11.000Z</time>
      </trkpt>
      <trkpt lat="27.81143" lon="86.722957">
        <ele>3552.4</ele>
        <time>2022-10-22T03:54:14.000Z</time>
      </trkpt>
      <trkpt lat="27.811446" lon="86.722976">
        <ele>3552.2</ele>
        <time>2022-10-22T03:54:16.000Z</time>
      </trkpt>
      <trkpt lat="27.811466" lon="86.723008">
        <ele>3552.4</ele>
        <time>2022-10-22T03:54:19.000Z</time>
      </trkpt>
      <trkpt lat="27.811478" lon="86.723027">
        <ele>3552.2</ele>
        <time>2022-10-22T03:54:21.000Z</time>
      </trkpt>
      <trkpt lat="27.811488" lon="86.723046">
        <ele>3552.2</ele>
        <time>2022-10-22T03:54:23.000Z</time>
      </trkpt>
      <trkpt lat="27.811504" lon="86.723066">
        <ele>3552.2</ele>
        <time>2022-10-22T03:54:25.000Z</time>
      </trkpt>
      <trkpt lat="27.81151" lon="86.723085">
        <ele>3552</ele>
        <time>2022-10-22T03:54:27.000Z</time>
      </trkpt>
      <trkpt lat="27.811523" lon="86.723104">
        <ele>3552.4</ele>
        <time>2022-10-22T03:54:30.000Z</time>
      </trkpt>
      <trkpt lat="27.81153" lon="86.72313">
        <ele>3552.6</ele>
        <time>2022-10-22T03:54:32.000Z</time>
      </trkpt>
      <trkpt lat="27.811542" lon="86.723155">
        <ele>3552.8</ele>
        <time>2022-10-22T03:54:35.000Z</time>
      </trkpt>
      <trkpt lat="27.811555" lon="86.723174">
        <ele>3552.6</ele>
        <time>2022-10-22T03:54:37.000Z</time>
      </trkpt>
      <trkpt lat="27.811571" lon="86.723206">
        <ele>3552.4</ele>
        <time>2022-10-22T03:54:40.000Z</time>
      </trkpt>
      <trkpt lat="27.811594" lon="86.723238">
        <ele>3551.6</ele>
        <time>2022-10-22T03:54:43.000Z</time>
      </trkpt>
      <trkpt lat="27.81161" lon="86.723258">
        <ele>3551.2</ele>
        <time>2022-10-22T03:54:46.000Z</time>
      </trkpt>
      <trkpt lat="27.811626" lon="86.723283">
        <ele>3551.4</ele>
        <time>2022-10-22T03:54:48.000Z</time>
      </trkpt>
      <trkpt lat="27.811645" lon="86.72329">
        <ele>3551.4</ele>
        <time>2022-10-22T03:54:50.000Z</time>
      </trkpt>
      <trkpt lat="27.811661" lon="86.723322">
        <ele>3551.6</ele>
        <time>2022-10-22T03:54:53.000Z</time>
      </trkpt>
      <trkpt lat="27.811677" lon="86.723341">
        <ele>3552</ele>
        <time>2022-10-22T03:54:56.000Z</time>
      </trkpt>
      <trkpt lat="27.811686" lon="86.72336">
        <ele>3552.2</ele>
        <time>2022-10-22T03:54:58.000Z</time>
      </trkpt>
      <trkpt lat="27.811706" lon="86.723405">
        <ele>3552.4</ele>
        <time>2022-10-22T03:55:03.000Z</time>
      </trkpt>
      <trkpt lat="27.811715" lon="86.723424">
        <ele>3552.6</ele>
        <time>2022-10-22T03:55:06.000Z</time>
      </trkpt>
      <trkpt lat="27.811728" lon="86.723443">
        <ele>3553</ele>
        <time>2022-10-22T03:55:09.000Z</time>
      </trkpt>
      <trkpt lat="27.811734" lon="86.723462">
        <ele>3553.4</ele>
        <time>2022-10-22T03:55:12.000Z</time>
      </trkpt>
      <trkpt lat="27.811747" lon="86.723482">
        <ele>3554.2</ele>
        <time>2022-10-22T03:55:14.000Z</time>
      </trkpt>
      <trkpt lat="27.811763" lon="86.723494">
        <ele>3554.2</ele>
        <time>2022-10-22T03:55:17.000Z</time>
      </trkpt>
      <trkpt lat="27.811773" lon="86.72352">
        <ele>3554.6</ele>
        <time>2022-10-22T03:55:20.000Z</time>
      </trkpt>
      <trkpt lat="27.811792" lon="86.723539">
        <ele>3555.2</ele>
        <time>2022-10-22T03:55:24.000Z</time>
      </trkpt>
      <trkpt lat="27.811814" lon="86.723558">
        <ele>3555.4</ele>
        <time>2022-10-22T03:55:27.000Z</time>
      </trkpt>
      <trkpt lat="27.811834" lon="86.723558">
        <ele>3555.6</ele>
        <time>2022-10-22T03:55:29.000Z</time>
      </trkpt>
      <trkpt lat="27.811859" lon="86.723558">
        <ele>3555.6</ele>
        <time>2022-10-22T03:55:32.000Z</time>
      </trkpt>
      <trkpt lat="27.811878" lon="86.723558">
        <ele>3555.8</ele>
        <time>2022-10-22T03:55:34.000Z</time>
      </trkpt>
      <trkpt lat="27.811898" lon="86.723558">
        <ele>3555.6</ele>
        <time>2022-10-22T03:55:36.000Z</time>
      </trkpt>
      <trkpt lat="27.81192" lon="86.723558">
        <ele>3555.4</ele>
        <time>2022-10-22T03:55:38.000Z</time>
      </trkpt>
      <trkpt lat="27.811942" lon="86.723558">
        <ele>3555.2</ele>
        <time>2022-10-22T03:55:40.000Z</time>
      </trkpt>
      <trkpt lat="27.811968" lon="86.723558">
        <ele>3555</ele>
        <time>2022-10-22T03:55:42.000Z</time>
      </trkpt>
      <trkpt lat="27.81199" lon="86.723565">
        <ele>3555</ele>
        <time>2022-10-22T03:55:44.000Z</time>
      </trkpt>
      <trkpt lat="27.812016" lon="86.723578">
        <ele>3555</ele>
        <time>2022-10-22T03:55:47.000Z</time>
      </trkpt>
      <trkpt lat="27.812035" lon="86.723597">
        <ele>3554.6</ele>
        <time>2022-10-22T03:55:49.000Z</time>
      </trkpt>
      <trkpt lat="27.812061" lon="86.72361">
        <ele>3554.6</ele>
        <time>2022-10-22T03:55:52.000Z</time>
      </trkpt>
      <trkpt lat="27.812106" lon="86.723622">
        <ele>3555.2</ele>
        <time>2022-10-22T03:55:56.000Z</time>
      </trkpt>
      <trkpt lat="27.812122" lon="86.723642">
        <ele>3555.4</ele>
        <time>2022-10-22T03:55:58.000Z</time>
      </trkpt>
      <trkpt lat="27.81215" lon="86.723654">
        <ele>3555.4</ele>
        <time>2022-10-22T03:56:01.000Z</time>
      </trkpt>
      <trkpt lat="27.812173" lon="86.723674">
        <ele>3555.6</ele>
        <time>2022-10-22T03:56:04.000Z</time>
      </trkpt>
      <trkpt lat="27.812195" lon="86.723686">
        <ele>3555.6</ele>
        <time>2022-10-22T03:56:07.000Z</time>
      </trkpt>
      <trkpt lat="27.812214" lon="86.723699">
        <ele>3556</ele>
        <time>2022-10-22T03:56:10.000Z</time>
      </trkpt>
      <trkpt lat="27.81223" lon="86.723718">
        <ele>3556</ele>
        <time>2022-10-22T03:56:12.000Z</time>
      </trkpt>
      <trkpt lat="27.812246" lon="86.723738">
        <ele>3556</ele>
        <time>2022-10-22T03:56:14.000Z</time>
      </trkpt>
      <trkpt lat="27.812262" lon="86.723757">
        <ele>3556</ele>
        <time>2022-10-22T03:56:16.000Z</time>
      </trkpt>
      <trkpt lat="27.812278" lon="86.723776">
        <ele>3556.2</ele>
        <time>2022-10-22T03:56:19.000Z</time>
      </trkpt>
      <trkpt lat="27.812285" lon="86.723802">
        <ele>3556.2</ele>
        <time>2022-10-22T03:56:21.000Z</time>
      </trkpt>
      <trkpt lat="27.812301" lon="86.723814">
        <ele>3556.2</ele>
        <time>2022-10-22T03:56:23.000Z</time>
      </trkpt>
      <trkpt lat="27.812307" lon="86.723834">
        <ele>3556.2</ele>
        <time>2022-10-22T03:56:24.000Z</time>
      </trkpt>
      <trkpt lat="27.812323" lon="86.723853">
        <ele>3556.2</ele>
        <time>2022-10-22T03:56:27.000Z</time>
      </trkpt>
      <trkpt lat="27.812333" lon="86.723878">
        <ele>3556</ele>
        <time>2022-10-22T03:56:29.000Z</time>
      </trkpt>
      <trkpt lat="27.812342" lon="86.723898">
        <ele>3556</ele>
        <time>2022-10-22T03:56:31.000Z</time>
      </trkpt>
      <trkpt lat="27.812349" lon="86.723917">
        <ele>3556.2</ele>
        <time>2022-10-22T03:56:32.000Z</time>
      </trkpt>
      <trkpt lat="27.812362" lon="86.723936">
        <ele>3557</ele>
        <time>2022-10-22T03:56:35.000Z</time>
      </trkpt>
      <trkpt lat="27.812374" lon="86.723962">
        <ele>3556</ele>
        <time>2022-10-22T03:56:37.000Z</time>
      </trkpt>
      <trkpt lat="27.812384" lon="86.723981">
        <ele>3556</ele>
        <time>2022-10-22T03:56:39.000Z</time>
      </trkpt>
      <trkpt lat="27.81239" lon="86.724006">
        <ele>3556</ele>
        <time>2022-10-22T03:56:41.000Z</time>
      </trkpt>
      <trkpt lat="27.8124" lon="86.724038">
        <ele>3555.8</ele>
        <time>2022-10-22T03:56:44.000Z</time>
      </trkpt>
      <trkpt lat="27.812406" lon="86.724058">
        <ele>3555.6</ele>
        <time>2022-10-22T03:56:46.000Z</time>
      </trkpt>
      <trkpt lat="27.812413" lon="86.724077">
        <ele>3555.6</ele>
        <time>2022-10-22T03:56:47.000Z</time>
      </trkpt>
      <trkpt lat="27.812416" lon="86.724109">
        <ele>3555.6</ele>
        <time>2022-10-22T03:56:50.000Z</time>
      </trkpt>
      <trkpt lat="27.812413" lon="86.724134">
        <ele>3555.6</ele>
        <time>2022-10-22T03:56:52.000Z</time>
      </trkpt>
      <trkpt lat="27.812413" lon="86.72416">
        <ele>3555.4</ele>
        <time>2022-10-22T03:56:54.000Z</time>
      </trkpt>
      <trkpt lat="27.81241" lon="86.724192">
        <ele>3555.4</ele>
        <time>2022-10-22T03:56:56.000Z</time>
      </trkpt>
      <trkpt lat="27.812403" lon="86.724218">
        <ele>3555.4</ele>
        <time>2022-10-22T03:56:59.000Z</time>
      </trkpt>
      <trkpt lat="27.812403" lon="86.724243">
        <ele>3554.8</ele>
        <time>2022-10-22T03:57:01.000Z</time>
      </trkpt>
      <trkpt lat="27.8124" lon="86.724269">
        <ele>3554.8</ele>
        <time>2022-10-22T03:57:03.000Z</time>
      </trkpt>
      <trkpt lat="27.8124" lon="86.724294">
        <ele>3555.6</ele>
        <time>2022-10-22T03:57:06.000Z</time>
      </trkpt>
      <trkpt lat="27.812406" lon="86.72432">
        <ele>3555.6</ele>
        <time>2022-10-22T03:57:09.000Z</time>
      </trkpt>
      <trkpt lat="27.812403" lon="86.724358">
        <ele>3555.8</ele>
        <time>2022-10-22T03:57:12.000Z</time>
      </trkpt>
      <trkpt lat="27.812406" lon="86.72439">
        <ele>3555.8</ele>
        <time>2022-10-22T03:57:15.000Z</time>
      </trkpt>
      <trkpt lat="27.812413" lon="86.724416">
        <ele>3555.8</ele>
        <time>2022-10-22T03:57:18.000Z</time>
      </trkpt>
      <trkpt lat="27.812406" lon="86.724435">
        <ele>3556</ele>
        <time>2022-10-22T03:57:20.000Z</time>
      </trkpt>
      <trkpt lat="27.812413" lon="86.724454">
        <ele>3556.4</ele>
        <time>2022-10-22T03:57:22.000Z</time>
      </trkpt>
      <trkpt lat="27.812416" lon="86.72448">
        <ele>3556.4</ele>
        <time>2022-10-22T03:57:24.000Z</time>
      </trkpt>
      <trkpt lat="27.812419" lon="86.724506">
        <ele>3556.2</ele>
        <time>2022-10-22T03:57:26.000Z</time>
      </trkpt>
      <trkpt lat="27.812426" lon="86.724525">
        <ele>3555.8</ele>
        <time>2022-10-22T03:57:28.000Z</time>
      </trkpt>
      <trkpt lat="27.812426" lon="86.72455">
        <ele>3556.4</ele>
        <time>2022-10-22T03:57:30.000Z</time>
      </trkpt>
      <trkpt lat="27.812429" lon="86.724576">
        <ele>3556.4</ele>
        <time>2022-10-22T03:57:33.000Z</time>
      </trkpt>
      <trkpt lat="27.812432" lon="86.724602">
        <ele>3556.2</ele>
        <time>2022-10-22T03:57:35.000Z</time>
      </trkpt>
      <trkpt lat="27.812442" lon="86.724627">
        <ele>3556.2</ele>
        <time>2022-10-22T03:57:38.000Z</time>
      </trkpt>
      <trkpt lat="27.812445" lon="86.724653">
        <ele>3556.2</ele>
        <time>2022-10-22T03:57:41.000Z</time>
      </trkpt>
      <trkpt lat="27.812451" lon="86.724678">
        <ele>3556.4</ele>
        <time>2022-10-22T03:57:43.000Z</time>
      </trkpt>
      <trkpt lat="27.812451" lon="86.724704">
        <ele>3556.8</ele>
        <time>2022-10-22T03:57:46.000Z</time>
      </trkpt>
      <trkpt lat="27.812451" lon="86.72473">
        <ele>3557</ele>
        <time>2022-10-22T03:57:50.000Z</time>
      </trkpt>
      <trkpt lat="27.812464" lon="86.724749">
        <ele>3557.2</ele>
        <time>2022-10-22T03:57:52.000Z</time>
      </trkpt>
      <trkpt lat="27.812474" lon="86.724768">
        <ele>3557.4</ele>
        <time>2022-10-22T03:58:00.000Z</time>
      </trkpt>
      <trkpt lat="27.81248" lon="86.724787">
        <ele>3557.6</ele>
        <time>2022-10-22T03:58:03.000Z</time>
      </trkpt>
      <trkpt lat="27.81249" lon="86.724806">
        <ele>3558.2</ele>
        <time>2022-10-22T03:58:11.000Z</time>
      </trkpt>
      <trkpt lat="27.812502" lon="86.724845">
        <ele>3560.6</ele>
        <time>2022-10-22T03:59:06.000Z</time>
      </trkpt>
      <trkpt lat="27.812509" lon="86.724864">
        <ele>3560.6</ele>
        <time>2022-10-22T03:59:07.000Z</time>
      </trkpt>
      <trkpt lat="27.812518" lon="86.72489">
        <ele>3560.8</ele>
        <time>2022-10-22T03:59:09.000Z</time>
      </trkpt>
      <trkpt lat="27.812525" lon="86.724909">
        <ele>3560.8</ele>
        <time>2022-10-22T03:59:10.000Z</time>
      </trkpt>
      <trkpt lat="27.812534" lon="86.724934">
        <ele>3561.4</ele>
        <time>2022-10-22T03:59:12.000Z</time>
      </trkpt>
      <trkpt lat="27.812541" lon="86.724954">
        <ele>3561.6</ele>
        <time>2022-10-22T03:59:13.000Z</time>
      </trkpt>
      <trkpt lat="27.812547" lon="86.724986">
        <ele>3561.6</ele>
        <time>2022-10-22T03:59:15.000Z</time>
      </trkpt>
      <trkpt lat="27.81255" lon="86.725011">
        <ele>3562</ele>
        <time>2022-10-22T03:59:20.000Z</time>
      </trkpt>
      <trkpt lat="27.812557" lon="86.72503">
        <ele>3562.2</ele>
        <time>2022-10-22T03:59:22.000Z</time>
      </trkpt>
      <trkpt lat="27.812557" lon="86.725062">
        <ele>3562.8</ele>
        <time>2022-10-22T03:59:27.000Z</time>
      </trkpt>
      <trkpt lat="27.81256" lon="86.725088">
        <ele>3563</ele>
        <time>2022-10-22T03:59:32.000Z</time>
      </trkpt>
      <trkpt lat="27.812563" lon="86.725114">
        <ele>3563.8</ele>
        <time>2022-10-22T03:59:36.000Z</time>
      </trkpt>
      <trkpt lat="27.812566" lon="86.725146">
        <ele>3565</ele>
        <time>2022-10-22T03:59:42.000Z</time>
      </trkpt>
      <trkpt lat="27.812573" lon="86.725165">
        <ele>3565.4</ele>
        <time>2022-10-22T03:59:46.000Z</time>
      </trkpt>
      <trkpt lat="27.812576" lon="86.72519">
        <ele>3566</ele>
        <time>2022-10-22T03:59:49.000Z</time>
      </trkpt>
      <trkpt lat="27.812573" lon="86.725222">
        <ele>3566.6</ele>
        <time>2022-10-22T03:59:53.000Z</time>
      </trkpt>
      <trkpt lat="27.812576" lon="86.725261">
        <ele>3567.4</ele>
        <time>2022-10-22T03:59:58.000Z</time>
      </trkpt>
      <trkpt lat="27.812589" lon="86.72528">
        <ele>3568</ele>
        <time>2022-10-22T04:00:01.000Z</time>
      </trkpt>
      <trkpt lat="27.812589" lon="86.725306">
        <ele>3568</ele>
        <time>2022-10-22T04:00:05.000Z</time>
      </trkpt>
      <trkpt lat="27.812589" lon="86.725331">
        <ele>3568.4</ele>
        <time>2022-10-22T04:00:10.000Z</time>
      </trkpt>
      <trkpt lat="27.812592" lon="86.725357">
        <ele>3568.4</ele>
        <time>2022-10-22T04:00:14.000Z</time>
      </trkpt>
      <trkpt lat="27.812592" lon="86.725382">
        <ele>3569</ele>
        <time>2022-10-22T04:00:18.000Z</time>
      </trkpt>
      <trkpt lat="27.812586" lon="86.725402">
        <ele>3569.4</ele>
        <time>2022-10-22T04:00:22.000Z</time>
      </trkpt>
      <trkpt lat="27.812586" lon="86.725427">
        <ele>3569.2</ele>
        <time>2022-10-22T04:00:25.000Z</time>
      </trkpt>
      <trkpt lat="27.812579" lon="86.725446">
        <ele>3569.6</ele>
        <time>2022-10-22T04:00:31.000Z</time>
      </trkpt>
      <trkpt lat="27.812573" lon="86.725472">
        <ele>3569.4</ele>
        <time>2022-10-22T04:00:34.000Z</time>
      </trkpt>
      <trkpt lat="27.812566" lon="86.725491">
        <ele>3570.2</ele>
        <time>2022-10-22T04:00:37.000Z</time>
      </trkpt>
      <trkpt lat="27.81256" lon="86.72551">
        <ele>3570.6</ele>
        <time>2022-10-22T04:00:39.000Z</time>
      </trkpt>
      <trkpt lat="27.81255" lon="86.725542">
        <ele>3571.4</ele>
        <time>2022-10-22T04:00:43.000Z</time>
      </trkpt>
      <trkpt lat="27.812538" lon="86.725562">
        <ele>3572.4</ele>
        <time>2022-10-22T04:00:47.000Z</time>
      </trkpt>
      <trkpt lat="27.812538" lon="86.725587">
        <ele>3573.2</ele>
        <time>2022-10-22T04:00:50.000Z</time>
      </trkpt>
      <trkpt lat="27.812518" lon="86.7256">
        <ele>3573.2</ele>
        <time>2022-10-22T04:00:53.000Z</time>
      </trkpt>
      <trkpt lat="27.812512" lon="86.725626">
        <ele>3573.4</ele>
        <time>2022-10-22T04:00:56.000Z</time>
      </trkpt>
      <trkpt lat="27.812493" lon="86.725645">
        <ele>3573.4</ele>
        <time>2022-10-22T04:00:58.000Z</time>
      </trkpt>
      <trkpt lat="27.812486" lon="86.72567">
        <ele>3574</ele>
        <time>2022-10-22T04:01:02.000Z</time>
      </trkpt>
      <trkpt lat="27.812467" lon="86.72567">
        <ele>3574.6</ele>
        <time>2022-10-22T04:01:06.000Z</time>
      </trkpt>
      <trkpt lat="27.812454" lon="86.72569">
        <ele>3575</ele>
        <time>2022-10-22T04:01:09.000Z</time>
      </trkpt>
      <trkpt lat="27.812442" lon="86.725709">
        <ele>3574.8</ele>
        <time>2022-10-22T04:01:11.000Z</time>
      </trkpt>
      <trkpt lat="27.812422" lon="86.725722">
        <ele>3575.4</ele>
        <time>2022-10-22T04:01:15.000Z</time>
      </trkpt>
      <trkpt lat="27.812413" lon="86.725741">
        <ele>3575.8</ele>
        <time>2022-10-22T04:01:17.000Z</time>
      </trkpt>
      <trkpt lat="27.812397" lon="86.725754">
        <ele>3576.4</ele>
        <time>2022-10-22T04:01:21.000Z</time>
      </trkpt>
      <trkpt lat="27.812381" lon="86.725779">
        <ele>3577</ele>
        <time>2022-10-22T04:01:26.000Z</time>
      </trkpt>
      <trkpt lat="27.812362" lon="86.725786">
        <ele>3577.2</ele>
        <time>2022-10-22T04:01:29.000Z</time>
      </trkpt>
      <trkpt lat="27.812349" lon="86.725805">
        <ele>3578.2</ele>
        <time>2022-10-22T04:01:35.000Z</time>
      </trkpt>
      <trkpt lat="27.812333" lon="86.725818">
        <ele>3578.8</ele>
        <time>2022-10-22T04:01:40.000Z</time>
      </trkpt>
      <trkpt lat="27.812314" lon="86.725818">
        <ele>3579.4</ele>
        <time>2022-10-22T04:01:46.000Z</time>
      </trkpt>
      <trkpt lat="27.812294" lon="86.725818">
        <ele>3580.2</ele>
        <time>2022-10-22T04:01:50.000Z</time>
      </trkpt>
      <trkpt lat="27.812278" lon="86.72583">
        <ele>3580.8</ele>
        <time>2022-10-22T04:01:54.000Z</time>
      </trkpt>
      <trkpt lat="27.812262" lon="86.725843">
        <ele>3581.4</ele>
        <time>2022-10-22T04:02:00.000Z</time>
      </trkpt>
      <trkpt lat="27.812259" lon="86.725869">
        <ele>3582.6</ele>
        <time>2022-10-22T04:02:05.000Z</time>
      </trkpt>
      <trkpt lat="27.812275" lon="86.725882">
        <ele>3583.6</ele>
        <time>2022-10-22T04:02:24.000Z</time>
      </trkpt>
      <trkpt lat="27.812298" lon="86.725888">
        <ele>3583.6</ele>
        <time>2022-10-22T04:02:26.000Z</time>
      </trkpt>
      <trkpt lat="27.81232" lon="86.725907">
        <ele>3583.8</ele>
        <time>2022-10-22T04:02:28.000Z</time>
      </trkpt>
      <trkpt lat="27.812339" lon="86.725914">
        <ele>3583.6</ele>
        <time>2022-10-22T04:02:30.000Z</time>
      </trkpt>
      <trkpt lat="27.812362" lon="86.72592">
        <ele>3583.6</ele>
        <time>2022-10-22T04:02:32.000Z</time>
      </trkpt>
      <trkpt lat="27.812387" lon="86.725926">
        <ele>3583.4</ele>
        <time>2022-10-22T04:02:35.000Z</time>
      </trkpt>
      <trkpt lat="27.81241" lon="86.725939">
        <ele>3583.6</ele>
        <time>2022-10-22T04:02:38.000Z</time>
      </trkpt>
      <trkpt lat="27.812429" lon="86.725926">
        <ele>3582.8</ele>
        <time>2022-10-22T04:02:40.000Z</time>
      </trkpt>
      <trkpt lat="27.812448" lon="86.72592">
        <ele>3582.6</ele>
        <time>2022-10-22T04:02:42.000Z</time>
      </trkpt>
      <trkpt lat="27.812467" lon="86.725914">
        <ele>3582.4</ele>
        <time>2022-10-22T04:02:44.000Z</time>
      </trkpt>
      <trkpt lat="27.812493" lon="86.725914">
        <ele>3582.4</ele>
        <time>2022-10-22T04:02:47.000Z</time>
      </trkpt>
      <trkpt lat="27.812518" lon="86.725914">
        <ele>3582.4</ele>
        <time>2022-10-22T04:02:50.000Z</time>
      </trkpt>
      <trkpt lat="27.812538" lon="86.725914">
        <ele>3582.6</ele>
        <time>2022-10-22T04:02:52.000Z</time>
      </trkpt>
      <trkpt lat="27.812557" lon="86.72592">
        <ele>3582.6</ele>
        <time>2022-10-22T04:02:54.000Z</time>
      </trkpt>
      <trkpt lat="27.812586" lon="86.725926">
        <ele>3582.6</ele>
        <time>2022-10-22T04:02:57.000Z</time>
      </trkpt>
      <trkpt lat="27.812602" lon="86.725939">
        <ele>3582.8</ele>
        <time>2022-10-22T04:02:59.000Z</time>
      </trkpt>
      <trkpt lat="27.812618" lon="86.725952">
        <ele>3582.8</ele>
        <time>2022-10-22T04:03:01.000Z</time>
      </trkpt>
      <trkpt lat="27.812637" lon="86.725965">
        <ele>3583.4</ele>
        <time>2022-10-22T04:03:04.000Z</time>
      </trkpt>
      <trkpt lat="27.812653" lon="86.725978">
        <ele>3583.6</ele>
        <time>2022-10-22T04:03:06.000Z</time>
      </trkpt>
      <trkpt lat="27.812669" lon="86.72599">
        <ele>3584</ele>
        <time>2022-10-22T04:03:09.000Z</time>
      </trkpt>
      <trkpt lat="27.812688" lon="86.725997">
        <ele>3584</ele>
        <time>2022-10-22T04:03:12.000Z</time>
      </trkpt>
      <trkpt lat="27.812694" lon="86.726016">
        <ele>3584.8</ele>
        <time>2022-10-22T04:03:14.000Z</time>
      </trkpt>
      <trkpt lat="27.812714" lon="86.726035">
        <ele>3584.8</ele>
        <time>2022-10-22T04:03:17.000Z</time>
      </trkpt>
      <trkpt lat="27.812736" lon="86.726042">
        <ele>3584</ele>
        <time>2022-10-22T04:03:21.000Z</time>
      </trkpt>
      <trkpt lat="27.812758" lon="86.726054">
        <ele>3583.6</ele>
        <time>2022-10-22T04:03:24.000Z</time>
      </trkpt>
      <trkpt lat="27.812781" lon="86.726061">
        <ele>3583.6</ele>
        <time>2022-10-22T04:03:27.000Z</time>
      </trkpt>
      <trkpt lat="27.812806" lon="86.726074">
        <ele>3583.2</ele>
        <time>2022-10-22T04:03:30.000Z</time>
      </trkpt>
      <trkpt lat="27.812822" lon="86.726086">
        <ele>3582.8</ele>
        <time>2022-10-22T04:03:32.000Z</time>
      </trkpt>
      <trkpt lat="27.812838" lon="86.726106">
        <ele>3582.8</ele>
        <time>2022-10-22T04:03:35.000Z</time>
      </trkpt>
      <trkpt lat="27.812854" lon="86.726125">
        <ele>3583</ele>
        <time>2022-10-22T04:03:38.000Z</time>
      </trkpt>
      <trkpt lat="27.812861" lon="86.726144">
        <ele>3583.4</ele>
        <time>2022-10-22T04:03:40.000Z</time>
      </trkpt>
      <trkpt lat="27.812877" lon="86.726163">
        <ele>3583.4</ele>
        <time>2022-10-22T04:03:43.000Z</time>
      </trkpt>
      <trkpt lat="27.812886" lon="86.726182">
        <ele>3583.4</ele>
        <time>2022-10-22T04:03:45.000Z</time>
      </trkpt>
      <trkpt lat="27.812896" lon="86.726202">
        <ele>3583</ele>
        <time>2022-10-22T04:03:48.000Z</time>
      </trkpt>
      <trkpt lat="27.812906" lon="86.726221">
        <ele>3583</ele>
        <time>2022-10-22T04:03:50.000Z</time>
      </trkpt>
      <trkpt lat="27.812925" lon="86.72624">
        <ele>3582.6</ele>
        <time>2022-10-22T04:03:53.000Z</time>
      </trkpt>
      <trkpt lat="27.812938" lon="86.726259">
        <ele>3582.2</ele>
        <time>2022-10-22T04:03:55.000Z</time>
      </trkpt>
      <trkpt lat="27.812954" lon="86.726272">
        <ele>3581.8</ele>
        <time>2022-10-22T04:03:57.000Z</time>
      </trkpt>
      <trkpt lat="27.81297" lon="86.726298">
        <ele>3581.6</ele>
        <time>2022-10-22T04:03:59.000Z</time>
      </trkpt>
      <trkpt lat="27.812989" lon="86.72631">
        <ele>3581.8</ele>
        <time>2022-10-22T04:04:01.000Z</time>
      </trkpt>
      <trkpt lat="27.812995" lon="86.726336">
        <ele>3582</ele>
        <time>2022-10-22T04:04:03.000Z</time>
      </trkpt>
      <trkpt lat="27.812995" lon="86.726362">
        <ele>3582</ele>
        <time>2022-10-22T04:04:05.000Z</time>
      </trkpt>
      <trkpt lat="27.813008" lon="86.726394">
        <ele>3581.8</ele>
        <time>2022-10-22T04:04:08.000Z</time>
      </trkpt>
      <trkpt lat="27.813008" lon="86.726419">
        <ele>3581.8</ele>
        <time>2022-10-22T04:04:10.000Z</time>
      </trkpt>
      <trkpt lat="27.813014" lon="86.726458">
        <ele>3581.8</ele>
        <time>2022-10-22T04:04:13.000Z</time>
      </trkpt>
      <trkpt lat="27.813018" lon="86.726483">
        <ele>3581.6</ele>
        <time>2022-10-22T04:04:15.000Z</time>
      </trkpt>
      <trkpt lat="27.813024" lon="86.726509">
        <ele>3581.8</ele>
        <time>2022-10-22T04:04:18.000Z</time>
      </trkpt>
      <trkpt lat="27.813034" lon="86.726534">
        <ele>3582</ele>
        <time>2022-10-22T04:04:20.000Z</time>
      </trkpt>
      <trkpt lat="27.813056" lon="86.726554">
        <ele>3581.6</ele>
        <time>2022-10-22T04:04:23.000Z</time>
      </trkpt>
      <trkpt lat="27.813075" lon="86.72656">
        <ele>3581.6</ele>
        <time>2022-10-22T04:04:25.000Z</time>
      </trkpt>
      <trkpt lat="27.813094" lon="86.726579">
        <ele>3581.8</ele>
        <time>2022-10-22T04:04:27.000Z</time>
      </trkpt>
      <trkpt lat="27.813114" lon="86.726592">
        <ele>3581.6</ele>
        <time>2022-10-22T04:04:29.000Z</time>
      </trkpt>
      <trkpt lat="27.813136" lon="86.726611">
        <ele>3581.6</ele>
        <time>2022-10-22T04:04:31.000Z</time>
      </trkpt>
      <trkpt lat="27.813155" lon="86.726637">
        <ele>3581.8</ele>
        <time>2022-10-22T04:04:34.000Z</time>
      </trkpt>
      <trkpt lat="27.813168" lon="86.726656">
        <ele>3582</ele>
        <time>2022-10-22T04:04:36.000Z</time>
      </trkpt>
      <trkpt lat="27.813184" lon="86.726675">
        <ele>3582</ele>
        <time>2022-10-22T04:04:39.000Z</time>
      </trkpt>
      <trkpt lat="27.81319" lon="86.726694">
        <ele>3582.2</ele>
        <time>2022-10-22T04:04:40.000Z</time>
      </trkpt>
      <trkpt lat="27.813203" lon="86.726714">
        <ele>3582.2</ele>
        <time>2022-10-22T04:04:43.000Z</time>
      </trkpt>
      <trkpt lat="27.813213" lon="86.726739">
        <ele>3582.2</ele>
        <time>2022-10-22T04:04:45.000Z</time>
      </trkpt>
      <trkpt lat="27.813219" lon="86.726758">
        <ele>3582.2</ele>
        <time>2022-10-22T04:04:47.000Z</time>
      </trkpt>
      <trkpt lat="27.813226" lon="86.726778">
        <ele>3582.2</ele>
        <time>2022-10-22T04:04:49.000Z</time>
      </trkpt>
      <trkpt lat="27.813235" lon="86.726797">
        <ele>3582.2</ele>
        <time>2022-10-22T04:04:51.000Z</time>
      </trkpt>
      <trkpt lat="27.813242" lon="86.726816">
        <ele>3582.4</ele>
        <time>2022-10-22T04:04:52.000Z</time>
      </trkpt>
      <trkpt lat="27.813251" lon="86.726842">
        <ele>3582.2</ele>
        <time>2022-10-22T04:04:55.000Z</time>
      </trkpt>
      <trkpt lat="27.813258" lon="86.726867">
        <ele>3582.2</ele>
        <time>2022-10-22T04:04:58.000Z</time>
      </trkpt>
      <trkpt lat="27.813283" lon="86.726912">
        <ele>3582.6</ele>
        <time>2022-10-22T04:05:04.000Z</time>
      </trkpt>
      <trkpt lat="27.813296" lon="86.726938">
        <ele>3582.6</ele>
        <time>2022-10-22T04:05:07.000Z</time>
      </trkpt>
      <trkpt lat="27.813309" lon="86.726957">
        <ele>3583.2</ele>
        <time>2022-10-22T04:05:10.000Z</time>
      </trkpt>
      <trkpt lat="27.813315" lon="86.726976">
        <ele>3583.4</ele>
        <time>2022-10-22T04:05:12.000Z</time>
      </trkpt>
      <trkpt lat="27.813322" lon="86.727008">
        <ele>3583.8</ele>
        <time>2022-10-22T04:05:15.000Z</time>
      </trkpt>
      <trkpt lat="27.813325" lon="86.727034">
        <ele>3583.6</ele>
        <time>2022-10-22T04:05:18.000Z</time>
      </trkpt>
      <trkpt lat="27.813325" lon="86.727059">
        <ele>3583.6</ele>
        <time>2022-10-22T04:05:20.000Z</time>
      </trkpt>
      <trkpt lat="27.813331" lon="86.727078">
        <ele>3583.4</ele>
        <time>2022-10-22T04:05:22.000Z</time>
      </trkpt>
      <trkpt lat="27.813341" lon="86.727104">
        <ele>3583.4</ele>
        <time>2022-10-22T04:05:24.000Z</time>
      </trkpt>
      <trkpt lat="27.813344" lon="86.72713">
        <ele>3583.4</ele>
        <time>2022-10-22T04:05:27.000Z</time>
      </trkpt>
      <trkpt lat="27.813347" lon="86.727155">
        <ele>3584</ele>
        <time>2022-10-22T04:05:30.000Z</time>
      </trkpt>
      <trkpt lat="27.81335" lon="86.727187">
        <ele>3583.8</ele>
        <time>2022-10-22T04:05:33.000Z</time>
      </trkpt>
      <trkpt lat="27.813354" lon="86.727213">
        <ele>3583.8</ele>
        <time>2022-10-22T04:05:35.000Z</time>
      </trkpt>
      <trkpt lat="27.813354" lon="86.727251">
        <ele>3584.4</ele>
        <time>2022-10-22T04:05:39.000Z</time>
      </trkpt>
      <trkpt lat="27.81335" lon="86.72729">
        <ele>3584</ele>
        <time>2022-10-22T04:05:42.000Z</time>
      </trkpt>
      <trkpt lat="27.81335" lon="86.727315">
        <ele>3584</ele>
        <time>2022-10-22T04:05:45.000Z</time>
      </trkpt>
      <trkpt lat="27.813344" lon="86.727334">
        <ele>3584</ele>
        <time>2022-10-22T04:05:47.000Z</time>
      </trkpt>
      <trkpt lat="27.813325" lon="86.727341">
        <ele>3584</ele>
        <time>2022-10-22T04:05:55.000Z</time>
      </trkpt>
      <trkpt lat="27.813325" lon="86.727373">
        <ele>3584.4</ele>
        <time>2022-10-22T04:06:17.000Z</time>
      </trkpt>
      <trkpt lat="27.813318" lon="86.727392">
        <ele>3584.2</ele>
        <time>2022-10-22T04:06:19.000Z</time>
      </trkpt>
      <trkpt lat="27.813322" lon="86.727418">
        <ele>3584.6</ele>
        <time>2022-10-22T04:06:25.000Z</time>
      </trkpt>
      <trkpt lat="27.813322" lon="86.72745">
        <ele>3584.6</ele>
        <time>2022-10-22T04:06:29.000Z</time>
      </trkpt>
      <trkpt lat="27.813322" lon="86.727475">
        <ele>3584.8</ele>
        <time>2022-10-22T04:06:31.000Z</time>
      </trkpt>
      <trkpt lat="27.813315" lon="86.727494">
        <ele>3584.8</ele>
        <time>2022-10-22T04:06:33.000Z</time>
      </trkpt>
      <trkpt lat="27.813312" lon="86.727526">
        <ele>3584.6</ele>
        <time>2022-10-22T04:06:36.000Z</time>
      </trkpt>
      <trkpt lat="27.813312" lon="86.727552">
        <ele>3584.8</ele>
        <time>2022-10-22T04:06:39.000Z</time>
      </trkpt>
      <trkpt lat="27.813306" lon="86.727578">
        <ele>3585.4</ele>
        <time>2022-10-22T04:06:41.000Z</time>
      </trkpt>
      <trkpt lat="27.813296" lon="86.727603">
        <ele>3585.6</ele>
        <time>2022-10-22T04:06:43.000Z</time>
      </trkpt>
      <trkpt lat="27.813286" lon="86.727622">
        <ele>3586.4</ele>
        <time>2022-10-22T04:06:46.000Z</time>
      </trkpt>
      <trkpt lat="27.813286" lon="86.727648">
        <ele>3586.4</ele>
        <time>2022-10-22T04:06:48.000Z</time>
      </trkpt>
      <trkpt lat="27.813286" lon="86.727674">
        <ele>3586.4</ele>
        <time>2022-10-22T04:06:51.000Z</time>
      </trkpt>
      <trkpt lat="27.813293" lon="86.727699">
        <ele>3586</ele>
        <time>2022-10-22T04:06:54.000Z</time>
      </trkpt>
      <trkpt lat="27.813306" lon="86.727725">
        <ele>3586.8</ele>
        <time>2022-10-22T04:06:57.000Z</time>
      </trkpt>
      <trkpt lat="27.813322" lon="86.727738">
        <ele>3587.2</ele>
        <time>2022-10-22T04:07:00.000Z</time>
      </trkpt>
      <trkpt lat="27.813302" lon="86.727738">
        <ele>3587.2</ele>
        <time>2022-10-22T04:07:06.000Z</time>
      </trkpt>
      <trkpt lat="27.813366" lon="86.727782">
        <ele>3588</ele>
        <time>2022-10-22T04:10:25.000Z</time>
      </trkpt>
      <trkpt lat="27.813405" lon="86.727802">
        <ele>3587.6</ele>
        <time>2022-10-22T04:10:50.000Z</time>
      </trkpt>
      <trkpt lat="27.813392" lon="86.727782">
        <ele>3587.6</ele>
        <time>2022-10-22T04:10:52.000Z</time>
      </trkpt>
      <trkpt lat="27.813373" lon="86.72777">
        <ele>3588.4</ele>
        <time>2022-10-22T04:10:56.000Z</time>
      </trkpt>
      <trkpt lat="27.813354" lon="86.727763">
        <ele>3588.4</ele>
        <time>2022-10-22T04:11:02.000Z</time>
      </trkpt>
      <trkpt lat="27.813427" lon="86.72775">
        <ele>3586.6</ele>
        <time>2022-10-22T04:14:11.000Z</time>
      </trkpt>
      <trkpt lat="27.813456" lon="86.727738">
        <ele>3586</ele>
        <time>2022-10-22T04:14:13.000Z</time>
      </trkpt>
      <trkpt lat="27.813485" lon="86.727725">
        <ele>3585.8</ele>
        <time>2022-10-22T04:14:15.000Z</time>
      </trkpt>
      <trkpt lat="27.813498" lon="86.727706">
        <ele>3585.8</ele>
        <time>2022-10-22T04:14:16.000Z</time>
      </trkpt>
      <trkpt lat="27.813523" lon="86.727686">
        <ele>3585.6</ele>
        <time>2022-10-22T04:14:18.000Z</time>
      </trkpt>
      <trkpt lat="27.813539" lon="86.727674">
        <ele>3585.6</ele>
        <time>2022-10-22T04:14:19.000Z</time>
      </trkpt>
      <trkpt lat="27.813562" lon="86.727667">
        <ele>3585.4</ele>
        <time>2022-10-22T04:14:22.000Z</time>
      </trkpt>
      <trkpt lat="27.813581" lon="86.727661">
        <ele>3585.4</ele>
        <time>2022-10-22T04:14:24.000Z</time>
      </trkpt>
      <trkpt lat="27.813603" lon="86.727667">
        <ele>3584.8</ele>
        <time>2022-10-22T04:14:26.000Z</time>
      </trkpt>
      <trkpt lat="27.813629" lon="86.727674">
        <ele>3584.8</ele>
        <time>2022-10-22T04:14:28.000Z</time>
      </trkpt>
      <trkpt lat="27.813651" lon="86.727686">
        <ele>3584.6</ele>
        <time>2022-10-22T04:14:30.000Z</time>
      </trkpt>
      <trkpt lat="27.813667" lon="86.727699">
        <ele>3584.2</ele>
        <time>2022-10-22T04:14:32.000Z</time>
      </trkpt>
      <trkpt lat="27.81369" lon="86.727712">
        <ele>3584.2</ele>
        <time>2022-10-22T04:14:34.000Z</time>
      </trkpt>
      <trkpt lat="27.813706" lon="86.727731">
        <ele>3584.2</ele>
        <time>2022-10-22T04:14:36.000Z</time>
      </trkpt>
      <trkpt lat="27.813728" lon="86.727744">
        <ele>3584.4</ele>
        <time>2022-10-22T04:14:39.000Z</time>
      </trkpt>
      <trkpt lat="27.81375" lon="86.72775">
        <ele>3584.4</ele>
        <time>2022-10-22T04:14:41.000Z</time>
      </trkpt>
      <trkpt lat="27.813773" lon="86.727763">
        <ele>3584.4</ele>
        <time>2022-10-22T04:14:43.000Z</time>
      </trkpt>
      <trkpt lat="27.813792" lon="86.72777">
        <ele>3584.2</ele>
        <time>2022-10-22T04:14:45.000Z</time>
      </trkpt>
      <trkpt lat="27.813821" lon="86.727776">
        <ele>3584</ele>
        <time>2022-10-22T04:14:47.000Z</time>
      </trkpt>
      <trkpt lat="27.81384" lon="86.727782">
        <ele>3584</ele>
        <time>2022-10-22T04:14:49.000Z</time>
      </trkpt>
      <trkpt lat="27.813859" lon="86.727802">
        <ele>3584</ele>
        <time>2022-10-22T04:14:51.000Z</time>
      </trkpt>
      <trkpt lat="27.813878" lon="86.727789">
        <ele>3584.2</ele>
        <time>2022-10-22T04:14:54.000Z</time>
      </trkpt>
      <trkpt lat="27.813904" lon="86.727802">
        <ele>3584.8</ele>
        <time>2022-10-22T04:15:06.000Z</time>
      </trkpt>
      <trkpt lat="27.813923" lon="86.727802">
        <ele>3585</ele>
        <time>2022-10-22T04:15:08.000Z</time>
      </trkpt>
      <trkpt lat="27.813942" lon="86.727808">
        <ele>3585</ele>
        <time>2022-10-22T04:15:10.000Z</time>
      </trkpt>
      <trkpt lat="27.813962" lon="86.727814">
        <ele>3585</ele>
        <time>2022-10-22T04:15:12.000Z</time>
      </trkpt>
      <trkpt lat="27.813981" lon="86.727814">
        <ele>3584.8</ele>
        <time>2022-10-22T04:15:14.000Z</time>
      </trkpt>
      <trkpt lat="27.814" lon="86.727814">
        <ele>3585</ele>
        <time>2022-10-22T04:15:16.000Z</time>
      </trkpt>
      <trkpt lat="27.814019" lon="86.727821">
        <ele>3585.2</ele>
        <time>2022-10-22T04:15:18.000Z</time>
      </trkpt>
      <trkpt lat="27.814064" lon="86.727821">
        <ele>3585.4</ele>
        <time>2022-10-22T04:15:22.000Z</time>
      </trkpt>
      <trkpt lat="27.814086" lon="86.727814">
        <ele>3585.4</ele>
        <time>2022-10-22T04:15:26.000Z</time>
      </trkpt>
      <trkpt lat="27.814106" lon="86.727814">
        <ele>3585.6</ele>
        <time>2022-10-22T04:15:28.000Z</time>
      </trkpt>
      <trkpt lat="27.814134" lon="86.727821">
        <ele>3585.6</ele>
        <time>2022-10-22T04:15:31.000Z</time>
      </trkpt>
      <trkpt lat="27.814157" lon="86.727821">
        <ele>3585.6</ele>
        <time>2022-10-22T04:15:33.000Z</time>
      </trkpt>
      <trkpt lat="27.814176" lon="86.727814">
        <ele>3585.8</ele>
        <time>2022-10-22T04:15:35.000Z</time>
      </trkpt>
      <trkpt lat="27.814205" lon="86.727814">
        <ele>3585.8</ele>
        <time>2022-10-22T04:15:37.000Z</time>
      </trkpt>
      <trkpt lat="27.814227" lon="86.727814">
        <ele>3586</ele>
        <time>2022-10-22T04:15:39.000Z</time>
      </trkpt>
      <trkpt lat="27.81425" lon="86.727814">
        <ele>3586</ele>
        <time>2022-10-22T04:15:41.000Z</time>
      </trkpt>
      <trkpt lat="27.814272" lon="86.727814">
        <ele>3586.4</ele>
        <time>2022-10-22T04:15:43.000Z</time>
      </trkpt>
      <trkpt lat="27.814294" lon="86.727814">
        <ele>3586.6</ele>
        <time>2022-10-22T04:15:46.000Z</time>
      </trkpt>
      <trkpt lat="27.81431" lon="86.727802">
        <ele>3586.6</ele>
        <time>2022-10-22T04:15:48.000Z</time>
      </trkpt>
      <trkpt lat="27.814333" lon="86.727802">
        <ele>3586.6</ele>
        <time>2022-10-22T04:15:50.000Z</time>
      </trkpt>
      <trkpt lat="27.814355" lon="86.727789">
        <ele>3586.8</ele>
        <time>2022-10-22T04:15:52.000Z</time>
      </trkpt>
      <trkpt lat="27.814378" lon="86.727776">
        <ele>3586.6</ele>
        <time>2022-10-22T04:15:55.000Z</time>
      </trkpt>
      <trkpt lat="27.814397" lon="86.72777">
        <ele>3586.6</ele>
        <time>2022-10-22T04:15:58.000Z</time>
      </trkpt>
      <trkpt lat="27.814416" lon="86.727763">
        <ele>3586.6</ele>
        <time>2022-10-22T04:16:00.000Z</time>
      </trkpt>
      <trkpt lat="27.814438" lon="86.727763">
        <ele>3586.2</ele>
        <time>2022-10-22T04:16:03.000Z</time>
      </trkpt>
      <trkpt lat="27.814458" lon="86.72775">
        <ele>3586</ele>
        <time>2022-10-22T04:16:05.000Z</time>
      </trkpt>
      <trkpt lat="27.814483" lon="86.72775">
        <ele>3586</ele>
        <time>2022-10-22T04:16:07.000Z</time>
      </trkpt>
      <trkpt lat="27.814502" lon="86.727744">
        <ele>3586</ele>
        <time>2022-10-22T04:16:09.000Z</time>
      </trkpt>
      <trkpt lat="27.814528" lon="86.727738">
        <ele>3586</ele>
        <time>2022-10-22T04:16:12.000Z</time>
      </trkpt>
      <trkpt lat="27.81455" lon="86.727744">
        <ele>3585.8</ele>
        <time>2022-10-22T04:16:14.000Z</time>
      </trkpt>
      <trkpt lat="27.81457" lon="86.727744">
        <ele>3585.2</ele>
        <time>2022-10-22T04:16:18.000Z</time>
      </trkpt>
      <trkpt lat="27.814595" lon="86.72775">
        <ele>3584.8</ele>
        <time>2022-10-22T04:16:21.000Z</time>
      </trkpt>
      <trkpt lat="27.814618" lon="86.727744">
        <ele>3584.6</ele>
        <time>2022-10-22T04:16:24.000Z</time>
      </trkpt>
      <trkpt lat="27.814637" lon="86.72777">
        <ele>3584.4</ele>
        <time>2022-10-22T04:16:26.000Z</time>
      </trkpt>
      <trkpt lat="27.814656" lon="86.72777">
        <ele>3584</ele>
        <time>2022-10-22T04:16:28.000Z</time>
      </trkpt>
      <trkpt lat="27.814675" lon="86.727776">
        <ele>3582.8</ele>
        <time>2022-10-22T04:16:33.000Z</time>
      </trkpt>
      <trkpt lat="27.814698" lon="86.727776">
        <ele>3582.2</ele>
        <time>2022-10-22T04:16:36.000Z</time>
      </trkpt>
      <trkpt lat="27.814717" lon="86.72777">
        <ele>3581.8</ele>
        <time>2022-10-22T04:16:38.000Z</time>
      </trkpt>
      <trkpt lat="27.814736" lon="86.727776">
        <ele>3581.6</ele>
        <time>2022-10-22T04:16:41.000Z</time>
      </trkpt>
      <trkpt lat="27.814755" lon="86.727782">
        <ele>3581.6</ele>
        <time>2022-10-22T04:16:43.000Z</time>
      </trkpt>
      <trkpt lat="27.814771" lon="86.727808">
        <ele>3581</ele>
        <time>2022-10-22T04:16:45.000Z</time>
      </trkpt>
      <trkpt lat="27.814787" lon="86.727821">
        <ele>3580.8</ele>
        <time>2022-10-22T04:16:47.000Z</time>
      </trkpt>
      <trkpt lat="27.814806" lon="86.727834">
        <ele>3580.8</ele>
        <time>2022-10-22T04:16:49.000Z</time>
      </trkpt>
      <trkpt lat="27.814826" lon="86.727853">
        <ele>3580.4</ele>
        <time>2022-10-22T04:16:51.000Z</time>
      </trkpt>
      <trkpt lat="27.814845" lon="86.727859">
        <ele>3580.2</ele>
        <time>2022-10-22T04:16:53.000Z</time>
      </trkpt>
      <trkpt lat="27.81487" lon="86.727872">
        <ele>3580.2</ele>
        <time>2022-10-22T04:16:56.000Z</time>
      </trkpt>
      <trkpt lat="27.814886" lon="86.727891">
        <ele>3579.8</ele>
        <time>2022-10-22T04:16:58.000Z</time>
      </trkpt>
      <trkpt lat="27.814896" lon="86.72791">
        <ele>3579.6</ele>
        <time>2022-10-22T04:17:00.000Z</time>
      </trkpt>
      <trkpt lat="27.814915" lon="86.72793">
        <ele>3579.2</ele>
        <time>2022-10-22T04:17:02.000Z</time>
      </trkpt>
      <trkpt lat="27.814931" lon="86.727949">
        <ele>3579</ele>
        <time>2022-10-22T04:17:05.000Z</time>
      </trkpt>
      <trkpt lat="27.814944" lon="86.727968">
        <ele>3578.6</ele>
        <time>2022-10-22T04:17:07.000Z</time>
      </trkpt>
      <trkpt lat="27.81496" lon="86.727987">
        <ele>3578.4</ele>
        <time>2022-10-22T04:17:09.000Z</time>
      </trkpt>
      <trkpt lat="27.814982" lon="86.728013">
        <ele>3578.4</ele>
        <time>2022-10-22T04:17:11.000Z</time>
      </trkpt>
      <trkpt lat="27.814992" lon="86.728051">
        <ele>3578.2</ele>
        <time>2022-10-22T04:17:14.000Z</time>
      </trkpt>
      <trkpt lat="27.814995" lon="86.728083">
        <ele>3578.4</ele>
        <time>2022-10-22T04:17:17.000Z</time>
      </trkpt>
      <trkpt lat="27.815005" lon="86.728102">
        <ele>3579</ele>
        <time>2022-10-22T04:17:20.000Z</time>
      </trkpt>
      <trkpt lat="27.815021" lon="86.728122">
        <ele>3579</ele>
        <time>2022-10-22T04:17:23.000Z</time>
      </trkpt>
      <trkpt lat="27.81504" lon="86.728134">
        <ele>3579.6</ele>
        <time>2022-10-22T04:17:26.000Z</time>
      </trkpt>
      <trkpt lat="27.815059" lon="86.728147">
        <ele>3580.4</ele>
        <time>2022-10-22T04:17:30.000Z</time>
      </trkpt>
      <trkpt lat="27.815078" lon="86.72816">
        <ele>3580.4</ele>
        <time>2022-10-22T04:17:33.000Z</time>
      </trkpt>
      <trkpt lat="27.815098" lon="86.72816">
        <ele>3581.4</ele>
        <time>2022-10-22T04:17:38.000Z</time>
      </trkpt>
      <trkpt lat="27.81512" lon="86.728173">
        <ele>3581.6</ele>
        <time>2022-10-22T04:17:42.000Z</time>
      </trkpt>
      <trkpt lat="27.815139" lon="86.728179">
        <ele>3582.2</ele>
        <time>2022-10-22T04:17:48.000Z</time>
      </trkpt>
      <trkpt lat="27.815149" lon="86.728205">
        <ele>3583</ele>
        <time>2022-10-22T04:17:53.000Z</time>
      </trkpt>
      <trkpt lat="27.815165" lon="86.728218">
        <ele>3583.2</ele>
        <time>2022-10-22T04:17:56.000Z</time>
      </trkpt>
      <trkpt lat="27.815181" lon="86.72823">
        <ele>3583.6</ele>
        <time>2022-10-22T04:18:00.000Z</time>
      </trkpt>
      <trkpt lat="27.815181" lon="86.728256">
        <ele>3583.8</ele>
        <time>2022-10-22T04:18:02.000Z</time>
      </trkpt>
      <trkpt lat="27.815194" lon="86.728282">
        <ele>3584.4</ele>
        <time>2022-10-22T04:18:06.000Z</time>
      </trkpt>
      <trkpt lat="27.8152" lon="86.728301">
        <ele>3585</ele>
        <time>2022-10-22T04:18:09.000Z</time>
      </trkpt>
      <trkpt lat="27.815206" lon="86.72832">
        <ele>3585</ele>
        <time>2022-10-22T04:18:11.000Z</time>
      </trkpt>
      <trkpt lat="27.81521" lon="86.728358">
        <ele>3585.2</ele>
        <time>2022-10-22T04:18:15.000Z</time>
      </trkpt>
      <trkpt lat="27.81521" lon="86.728384">
        <ele>3585.6</ele>
        <time>2022-10-22T04:18:19.000Z</time>
      </trkpt>
      <trkpt lat="27.815213" lon="86.72841">
        <ele>3586</ele>
        <time>2022-10-22T04:18:22.000Z</time>
      </trkpt>
      <trkpt lat="27.815213" lon="86.728442">
        <ele>3586.4</ele>
        <time>2022-10-22T04:18:26.000Z</time>
      </trkpt>
      <trkpt lat="27.815219" lon="86.728461">
        <ele>3586.4</ele>
        <time>2022-10-22T04:18:29.000Z</time>
      </trkpt>
      <trkpt lat="27.815219" lon="86.728486">
        <ele>3587</ele>
        <time>2022-10-22T04:18:32.000Z</time>
      </trkpt>
      <trkpt lat="27.815229" lon="86.728518">
        <ele>3587.8</ele>
        <time>2022-10-22T04:18:38.000Z</time>
      </trkpt>
      <trkpt lat="27.815229" lon="86.728544">
        <ele>3588.6</ele>
        <time>2022-10-22T04:18:43.000Z</time>
      </trkpt>
      <trkpt lat="27.815235" lon="86.728563">
        <ele>3589</ele>
        <time>2022-10-22T04:18:49.000Z</time>
      </trkpt>
      <trkpt lat="27.815242" lon="86.728582">
        <ele>3589.6</ele>
        <time>2022-10-22T04:18:52.000Z</time>
      </trkpt>
      <trkpt lat="27.815245" lon="86.728608">
        <ele>3589.6</ele>
        <time>2022-10-22T04:18:54.000Z</time>
      </trkpt>
      <trkpt lat="27.815261" lon="86.728621">
        <ele>3589.6</ele>
        <time>2022-10-22T04:18:56.000Z</time>
      </trkpt>
      <trkpt lat="27.815267" lon="86.72864">
        <ele>3590</ele>
        <time>2022-10-22T04:18:58.000Z</time>
      </trkpt>
      <trkpt lat="27.81528" lon="86.728659">
        <ele>3590.8</ele>
        <time>2022-10-22T04:19:01.000Z</time>
      </trkpt>
      <trkpt lat="27.815286" lon="86.728678">
        <ele>3590.8</ele>
        <time>2022-10-22T04:19:03.000Z</time>
      </trkpt>
      <trkpt lat="27.815309" lon="86.728698">
        <ele>3591</ele>
        <time>2022-10-22T04:19:06.000Z</time>
      </trkpt>
      <trkpt lat="27.815315" lon="86.728717">
        <ele>3591.2</ele>
        <time>2022-10-22T04:19:09.000Z</time>
      </trkpt>
      <trkpt lat="27.815328" lon="86.728736">
        <ele>3591.4</ele>
        <time>2022-10-22T04:19:12.000Z</time>
      </trkpt>
      <trkpt lat="27.815338" lon="86.728755">
        <ele>3591.6</ele>
        <time>2022-10-22T04:19:14.000Z</time>
      </trkpt>
      <trkpt lat="27.815344" lon="86.728774">
        <ele>3592</ele>
        <time>2022-10-22T04:19:17.000Z</time>
      </trkpt>
      <trkpt lat="27.81536" lon="86.728787">
        <ele>3592.4</ele>
        <time>2022-10-22T04:19:20.000Z</time>
      </trkpt>
      <trkpt lat="27.815379" lon="86.728806">
        <ele>3592.6</ele>
        <time>2022-10-22T04:19:23.000Z</time>
      </trkpt>
      <trkpt lat="27.815389" lon="86.728826">
        <ele>3592.8</ele>
        <time>2022-10-22T04:19:25.000Z</time>
      </trkpt>
      <trkpt lat="27.815411" lon="86.728838">
        <ele>3592.6</ele>
        <time>2022-10-22T04:19:27.000Z</time>
      </trkpt>
      <trkpt lat="27.815411" lon="86.728877">
        <ele>3592.6</ele>
        <time>2022-10-22T04:19:30.000Z</time>
      </trkpt>
      <trkpt lat="27.815418" lon="86.728896">
        <ele>3592.6</ele>
        <time>2022-10-22T04:19:32.000Z</time>
      </trkpt>
      <trkpt lat="27.815414" lon="86.728922">
        <ele>3592.6</ele>
        <time>2022-10-22T04:19:34.000Z</time>
      </trkpt>
      <trkpt lat="27.815421" lon="86.728954">
        <ele>3593</ele>
        <time>2022-10-22T04:19:38.000Z</time>
      </trkpt>
      <trkpt lat="27.815434" lon="86.728973">
        <ele>3593</ele>
        <time>2022-10-22T04:19:41.000Z</time>
      </trkpt>
      <trkpt lat="27.815453" lon="86.728986">
        <ele>3593.8</ele>
        <time>2022-10-22T04:19:44.000Z</time>
      </trkpt>
      <trkpt lat="27.815462" lon="86.729011">
        <ele>3594.2</ele>
        <time>2022-10-22T04:19:46.000Z</time>
      </trkpt>
      <trkpt lat="27.815466" lon="86.729037">
        <ele>3594.8</ele>
        <time>2022-10-22T04:19:49.000Z</time>
      </trkpt>
      <trkpt lat="27.815472" lon="86.729056">
        <ele>3594.8</ele>
        <time>2022-10-22T04:19:51.000Z</time>
      </trkpt>
      <trkpt lat="27.815485" lon="86.729075">
        <ele>3594.8</ele>
        <time>2022-10-22T04:19:53.000Z</time>
      </trkpt>
      <trkpt lat="27.815491" lon="86.729094">
        <ele>3594.8</ele>
        <time>2022-10-22T04:19:55.000Z</time>
      </trkpt>
      <trkpt lat="27.815498" lon="86.72912">
        <ele>3595</ele>
        <time>2022-10-22T04:19:57.000Z</time>
      </trkpt>
      <trkpt lat="27.81551" lon="86.729139">
        <ele>3595.2</ele>
        <time>2022-10-22T04:20:00.000Z</time>
      </trkpt>
      <trkpt lat="27.815517" lon="86.729158">
        <ele>3595.8</ele>
        <time>2022-10-22T04:20:01.000Z</time>
      </trkpt>
      <trkpt lat="27.81553" lon="86.729184">
        <ele>3595.4</ele>
        <time>2022-10-22T04:20:04.000Z</time>
      </trkpt>
      <trkpt lat="27.81553" lon="86.729216">
        <ele>3595.8</ele>
        <time>2022-10-22T04:20:07.000Z</time>
      </trkpt>
      <trkpt lat="27.81552" lon="86.729242">
        <ele>3596</ele>
        <time>2022-10-22T04:20:10.000Z</time>
      </trkpt>
      <trkpt lat="27.815514" lon="86.729274">
        <ele>3596.2</ele>
        <time>2022-10-22T04:20:14.000Z</time>
      </trkpt>
      <trkpt lat="27.81551" lon="86.729299">
        <ele>3596.2</ele>
        <time>2022-10-22T04:20:17.000Z</time>
      </trkpt>
      <trkpt lat="27.815501" lon="86.729331">
        <ele>3596.4</ele>
        <time>2022-10-22T04:20:19.000Z</time>
      </trkpt>
      <trkpt lat="27.815498" lon="86.729357">
        <ele>3596.8</ele>
        <time>2022-10-22T04:20:22.000Z</time>
      </trkpt>
      <trkpt lat="27.815478" lon="86.72937">
        <ele>3597.4</ele>
        <time>2022-10-22T04:20:25.000Z</time>
      </trkpt>
      <trkpt lat="27.815469" lon="86.729395">
        <ele>3597.8</ele>
        <time>2022-10-22T04:20:29.000Z</time>
      </trkpt>
      <trkpt lat="27.815462" lon="86.729414">
        <ele>3598.8</ele>
        <time>2022-10-22T04:20:35.000Z</time>
      </trkpt>
      <trkpt lat="27.815446" lon="86.729434">
        <ele>3599.8</ele>
        <time>2022-10-22T04:20:39.000Z</time>
      </trkpt>
      <trkpt lat="27.815424" lon="86.729446">
        <ele>3600.2</ele>
        <time>2022-10-22T04:20:44.000Z</time>
      </trkpt>
      <trkpt lat="27.815408" lon="86.729459">
        <ele>3600.6</ele>
        <time>2022-10-22T04:20:49.000Z</time>
      </trkpt>
      <trkpt lat="27.815411" lon="86.729485">
        <ele>3601.2</ele>
        <time>2022-10-22T04:20:53.000Z</time>
      </trkpt>
      <trkpt lat="27.815414" lon="86.72951">
        <ele>3601.2</ele>
        <time>2022-10-22T04:20:57.000Z</time>
      </trkpt>
      <trkpt lat="27.815427" lon="86.72953">
        <ele>3600.4</ele>
        <time>2022-10-22T04:21:01.000Z</time>
      </trkpt>
      <trkpt lat="27.81545" lon="86.729536">
        <ele>3601</ele>
        <time>2022-10-22T04:21:04.000Z</time>
      </trkpt>
      <trkpt lat="27.815472" lon="86.729542">
        <ele>3601.6</ele>
        <time>2022-10-22T04:21:07.000Z</time>
      </trkpt>
      <trkpt lat="27.815491" lon="86.729555">
        <ele>3600.6</ele>
        <time>2022-10-22T04:21:09.000Z</time>
      </trkpt>
      <trkpt lat="27.815514" lon="86.729562">
        <ele>3600.4</ele>
        <time>2022-10-22T04:21:11.000Z</time>
      </trkpt>
      <trkpt lat="27.815533" lon="86.729568">
        <ele>3600.4</ele>
        <time>2022-10-22T04:21:13.000Z</time>
      </trkpt>
      <trkpt lat="27.815565" lon="86.729568">
        <ele>3600.6</ele>
        <time>2022-10-22T04:21:16.000Z</time>
      </trkpt>
      <trkpt lat="27.815584" lon="86.729581">
        <ele>3601.4</ele>
        <time>2022-10-22T04:21:18.000Z</time>
      </trkpt>
      <trkpt lat="27.815603" lon="86.7296">
        <ele>3601.4</ele>
        <time>2022-10-22T04:21:20.000Z</time>
      </trkpt>
      <trkpt lat="27.815626" lon="86.729606">
        <ele>3601.6</ele>
        <time>2022-10-22T04:21:22.000Z</time>
      </trkpt>
      <trkpt lat="27.815642" lon="86.729619">
        <ele>3601.4</ele>
        <time>2022-10-22T04:21:25.000Z</time>
      </trkpt>
      <trkpt lat="27.815658" lon="86.729638">
        <ele>3601.4</ele>
        <time>2022-10-22T04:21:28.000Z</time>
      </trkpt>
      <trkpt lat="27.815674" lon="86.729651">
        <ele>3601.6</ele>
        <time>2022-10-22T04:21:31.000Z</time>
      </trkpt>
      <trkpt lat="27.81569" lon="86.72967">
        <ele>3601.8</ele>
        <time>2022-10-22T04:21:34.000Z</time>
      </trkpt>
      <trkpt lat="27.815712" lon="86.729677">
        <ele>3602</ele>
        <time>2022-10-22T04:21:38.000Z</time>
      </trkpt>
      <trkpt lat="27.815728" lon="86.729696">
        <ele>3602.6</ele>
        <time>2022-10-22T04:21:42.000Z</time>
      </trkpt>
      <trkpt lat="27.815738" lon="86.729715">
        <ele>3602.6</ele>
        <time>2022-10-22T04:21:44.000Z</time>
      </trkpt>
      <trkpt lat="27.815747" lon="86.729741">
        <ele>3602.8</ele>
        <time>2022-10-22T04:21:47.000Z</time>
      </trkpt>
      <trkpt lat="27.815757" lon="86.72976">
        <ele>3603</ele>
        <time>2022-10-22T04:21:49.000Z</time>
      </trkpt>
      <trkpt lat="27.815766" lon="86.729779">
        <ele>3603.2</ele>
        <time>2022-10-22T04:21:52.000Z</time>
      </trkpt>
      <trkpt lat="27.815773" lon="86.729798">
        <ele>3603.2</ele>
        <time>2022-10-22T04:21:55.000Z</time>
      </trkpt>
      <trkpt lat="27.815786" lon="86.729818">
        <ele>3603.4</ele>
        <time>2022-10-22T04:21:58.000Z</time>
      </trkpt>
      <trkpt lat="27.815795" lon="86.729837">
        <ele>3603.4</ele>
        <time>2022-10-22T04:22:00.000Z</time>
      </trkpt>
      <trkpt lat="27.815798" lon="86.729869">
        <ele>3603.4</ele>
        <time>2022-10-22T04:22:04.000Z</time>
      </trkpt>
      <trkpt lat="27.815805" lon="86.729894">
        <ele>3603.6</ele>
        <time>2022-10-22T04:22:08.000Z</time>
      </trkpt>
      <trkpt lat="27.815798" lon="86.729914">
        <ele>3604.2</ele>
        <time>2022-10-22T04:22:10.000Z</time>
      </trkpt>
      <trkpt lat="27.815792" lon="86.729939">
        <ele>3604</ele>
        <time>2022-10-22T04:22:13.000Z</time>
      </trkpt>
      <trkpt lat="27.815789" lon="86.729965">
        <ele>3604.6</ele>
        <time>2022-10-22T04:22:16.000Z</time>
      </trkpt>
      <trkpt lat="27.815786" lon="86.72999">
        <ele>3605</ele>
        <time>2022-10-22T04:22:19.000Z</time>
      </trkpt>
      <trkpt lat="27.815786" lon="86.730016">
        <ele>3606.6</ele>
        <time>2022-10-22T04:22:23.000Z</time>
      </trkpt>
      <trkpt lat="27.815786" lon="86.730048">
        <ele>3606.6</ele>
        <time>2022-10-22T04:22:26.000Z</time>
      </trkpt>
      <trkpt lat="27.815795" lon="86.730074">
        <ele>3606.4</ele>
        <time>2022-10-22T04:22:29.000Z</time>
      </trkpt>
      <trkpt lat="27.815802" lon="86.730106">
        <ele>3606.6</ele>
        <time>2022-10-22T04:22:32.000Z</time>
      </trkpt>
      <trkpt lat="27.815808" lon="86.730125">
        <ele>3607.2</ele>
        <time>2022-10-22T04:22:35.000Z</time>
      </trkpt>
      <trkpt lat="27.815811" lon="86.73015">
        <ele>3607.4</ele>
        <time>2022-10-22T04:22:37.000Z</time>
      </trkpt>
      <trkpt lat="27.815811" lon="86.730176">
        <ele>3607.4</ele>
        <time>2022-10-22T04:22:40.000Z</time>
      </trkpt>
      <trkpt lat="27.815814" lon="86.730202">
        <ele>3607</ele>
        <time>2022-10-22T04:22:42.000Z</time>
      </trkpt>
      <trkpt lat="27.815808" lon="86.730227">
        <ele>3607.6</ele>
        <time>2022-10-22T04:22:44.000Z</time>
      </trkpt>
      <trkpt lat="27.815802" lon="86.730266">
        <ele>3607.4</ele>
        <time>2022-10-22T04:22:47.000Z</time>
      </trkpt>
      <trkpt lat="27.815789" lon="86.730291">
        <ele>3607.4</ele>
        <time>2022-10-22T04:22:50.000Z</time>
      </trkpt>
      <trkpt lat="27.815779" lon="86.73031">
        <ele>3607.8</ele>
        <time>2022-10-22T04:22:52.000Z</time>
      </trkpt>
      <trkpt lat="27.81577" lon="86.73033">
        <ele>3607.8</ele>
        <time>2022-10-22T04:22:54.000Z</time>
      </trkpt>
      <trkpt lat="27.81576" lon="86.730362">
        <ele>3608.8</ele>
        <time>2022-10-22T04:22:57.000Z</time>
      </trkpt>
      <trkpt lat="27.81577" lon="86.730387">
        <ele>3608.2</ele>
        <time>2022-10-22T04:23:00.000Z</time>
      </trkpt>
      <trkpt lat="27.815786" lon="86.7304">
        <ele>3608.4</ele>
        <time>2022-10-22T04:23:03.000Z</time>
      </trkpt>
      <trkpt lat="27.815805" lon="86.730426">
        <ele>3607.8</ele>
        <time>2022-10-22T04:23:06.000Z</time>
      </trkpt>
      <trkpt lat="27.815824" lon="86.730438">
        <ele>3607.2</ele>
        <time>2022-10-22T04:23:08.000Z</time>
      </trkpt>
      <trkpt lat="27.815846" lon="86.730464">
        <ele>3607.2</ele>
        <time>2022-10-22T04:23:11.000Z</time>
      </trkpt>
      <trkpt lat="27.815862" lon="86.730477">
        <ele>3607</ele>
        <time>2022-10-22T04:23:13.000Z</time>
      </trkpt>
      <trkpt lat="27.815882" lon="86.73049">
        <ele>3606.8</ele>
        <time>2022-10-22T04:23:15.000Z</time>
      </trkpt>
      <trkpt lat="27.815901" lon="86.730502">
        <ele>3606.8</ele>
        <time>2022-10-22T04:23:17.000Z</time>
      </trkpt>
      <trkpt lat="27.815926" lon="86.730509">
        <ele>3606.6</ele>
        <time>2022-10-22T04:23:19.000Z</time>
      </trkpt>
      <trkpt lat="27.815936" lon="86.730528">
        <ele>3606.4</ele>
        <time>2022-10-22T04:23:21.000Z</time>
      </trkpt>
      <trkpt lat="27.815946" lon="86.730554">
        <ele>3606.8</ele>
        <time>2022-10-22T04:23:23.000Z</time>
      </trkpt>
      <trkpt lat="27.815955" lon="86.730573">
        <ele>3607</ele>
        <time>2022-10-22T04:23:25.000Z</time>
      </trkpt>
      <trkpt lat="27.815965" lon="86.730592">
        <ele>3607.4</ele>
        <time>2022-10-22T04:23:27.000Z</time>
      </trkpt>
      <trkpt lat="27.815974" lon="86.730624">
        <ele>3607.6</ele>
        <time>2022-10-22T04:23:30.000Z</time>
      </trkpt>
      <trkpt lat="27.815978" lon="86.73065">
        <ele>3608.2</ele>
        <time>2022-10-22T04:23:33.000Z</time>
      </trkpt>
      <trkpt lat="27.815981" lon="86.730682">
        <ele>3608.2</ele>
        <time>2022-10-22T04:23:36.000Z</time>
      </trkpt>
      <trkpt lat="27.815987" lon="86.730707">
        <ele>3608.4</ele>
        <time>2022-10-22T04:23:38.000Z</time>
      </trkpt>
      <trkpt lat="27.815994" lon="86.730726">
        <ele>3608.4</ele>
        <time>2022-10-22T04:23:40.000Z</time>
      </trkpt>
      <trkpt lat="27.816003" lon="86.730752">
        <ele>3608.2</ele>
        <time>2022-10-22T04:23:42.000Z</time>
      </trkpt>
      <trkpt lat="27.81601" lon="86.730771">
        <ele>3608.4</ele>
        <time>2022-10-22T04:23:44.000Z</time>
      </trkpt>
      <trkpt lat="27.816016" lon="86.730797">
        <ele>3608.6</ele>
        <time>2022-10-22T04:23:46.000Z</time>
      </trkpt>
      <trkpt lat="27.816026" lon="86.730822">
        <ele>3609.2</ele>
        <time>2022-10-22T04:23:48.000Z</time>
      </trkpt>
      <trkpt lat="27.816042" lon="86.730835">
        <ele>3609.2</ele>
        <time>2022-10-22T04:23:50.000Z</time>
      </trkpt>
      <trkpt lat="27.816048" lon="86.730861">
        <ele>3609.2</ele>
        <time>2022-10-22T04:23:52.000Z</time>
      </trkpt>
      <trkpt lat="27.816067" lon="86.73088">
        <ele>3610</ele>
        <time>2022-10-22T04:23:55.000Z</time>
      </trkpt>
      <trkpt lat="27.816093" lon="86.730893">
        <ele>3610.4</ele>
        <time>2022-10-22T04:23:58.000Z</time>
      </trkpt>
      <trkpt lat="27.816112" lon="86.730893">
        <ele>3610.2</ele>
        <time>2022-10-22T04:24:01.000Z</time>
      </trkpt>
      <trkpt lat="27.816134" lon="86.730886">
        <ele>3610.4</ele>
        <time>2022-10-22T04:24:04.000Z</time>
      </trkpt>
      <trkpt lat="27.816154" lon="86.730886">
        <ele>3610.4</ele>
        <time>2022-10-22T04:24:09.000Z</time>
      </trkpt>
      <trkpt lat="27.816154" lon="86.730861">
        <ele>3609</ele>
        <time>2022-10-22T04:26:45.000Z</time>
      </trkpt>
      <trkpt lat="27.816166" lon="86.730842">
        <ele>3608.6</ele>
        <time>2022-10-22T04:26:47.000Z</time>
      </trkpt>
      <trkpt lat="27.816182" lon="86.730822">
        <ele>3608</ele>
        <time>2022-10-22T04:26:49.000Z</time>
      </trkpt>
      <trkpt lat="27.816195" lon="86.730803">
        <ele>3607.8</ele>
        <time>2022-10-22T04:26:51.000Z</time>
      </trkpt>
      <trkpt lat="27.816208" lon="86.730784">
        <ele>3607.6</ele>
        <time>2022-10-22T04:26:53.000Z</time>
      </trkpt>
      <trkpt lat="27.816224" lon="86.730758">
        <ele>3607.6</ele>
        <time>2022-10-22T04:26:55.000Z</time>
      </trkpt>
      <trkpt lat="27.81624" lon="86.730746">
        <ele>3607</ele>
        <time>2022-10-22T04:26:57.000Z</time>
      </trkpt>
      <trkpt lat="27.816256" lon="86.730726">
        <ele>3606.6</ele>
        <time>2022-10-22T04:26:59.000Z</time>
      </trkpt>
      <trkpt lat="27.816275" lon="86.730707">
        <ele>3606.2</ele>
        <time>2022-10-22T04:27:02.000Z</time>
      </trkpt>
      <trkpt lat="27.816294" lon="86.730688">
        <ele>3605.8</ele>
        <time>2022-10-22T04:27:04.000Z</time>
      </trkpt>
      <trkpt lat="27.816317" lon="86.730675">
        <ele>3605.8</ele>
        <time>2022-10-22T04:27:07.000Z</time>
      </trkpt>
      <trkpt lat="27.816339" lon="86.730669">
        <ele>3605.6</ele>
        <time>2022-10-22T04:27:09.000Z</time>
      </trkpt>
      <trkpt lat="27.816365" lon="86.730669">
        <ele>3605.8</ele>
        <time>2022-10-22T04:27:11.000Z</time>
      </trkpt>
      <trkpt lat="27.81639" lon="86.730669">
        <ele>3605.8</ele>
        <time>2022-10-22T04:27:13.000Z</time>
      </trkpt>
      <trkpt lat="27.816419" lon="86.730675">
        <ele>3605.6</ele>
        <time>2022-10-22T04:27:15.000Z</time>
      </trkpt>
      <trkpt lat="27.816442" lon="86.730682">
        <ele>3605.4</ele>
        <time>2022-10-22T04:27:17.000Z</time>
      </trkpt>
      <trkpt lat="27.816461" lon="86.730682">
        <ele>3604.6</ele>
        <time>2022-10-22T04:27:19.000Z</time>
      </trkpt>
      <trkpt lat="27.81648" lon="86.730682">
        <ele>3604.2</ele>
        <time>2022-10-22T04:27:21.000Z</time>
      </trkpt>
      <trkpt lat="27.816502" lon="86.730669">
        <ele>3604</ele>
        <time>2022-10-22T04:27:23.000Z</time>
      </trkpt>
      <trkpt lat="27.816522" lon="86.73065">
        <ele>3604</ele>
        <time>2022-10-22T04:27:26.000Z</time>
      </trkpt>
      <trkpt lat="27.816541" lon="86.730637">
        <ele>3603.8</ele>
        <time>2022-10-22T04:27:28.000Z</time>
      </trkpt>
      <trkpt lat="27.816563" lon="86.730624">
        <ele>3603.4</ele>
        <time>2022-10-22T04:27:30.000Z</time>
      </trkpt>
      <trkpt lat="27.816586" lon="86.730624">
        <ele>3603.2</ele>
        <time>2022-10-22T04:27:32.000Z</time>
      </trkpt>
      <trkpt lat="27.816608" lon="86.730605">
        <ele>3602.6</ele>
        <time>2022-10-22T04:27:34.000Z</time>
      </trkpt>
      <trkpt lat="27.816634" lon="86.730605">
        <ele>3601.8</ele>
        <time>2022-10-22T04:27:36.000Z</time>
      </trkpt>
      <trkpt lat="27.816656" lon="86.730605">
        <ele>3601.2</ele>
        <time>2022-10-22T04:27:38.000Z</time>
      </trkpt>
      <trkpt lat="27.816682" lon="86.730611">
        <ele>3601</ele>
        <time>2022-10-22T04:27:40.000Z</time>
      </trkpt>
      <trkpt lat="27.816707" lon="86.730611">
        <ele>3600.8</ele>
        <time>2022-10-22T04:27:42.000Z</time>
      </trkpt>
      <trkpt lat="27.81673" lon="86.730624">
        <ele>3600.2</ele>
        <time>2022-10-22T04:27:44.000Z</time>
      </trkpt>
      <trkpt lat="27.816752" lon="86.730637">
        <ele>3600.2</ele>
        <time>2022-10-22T04:27:46.000Z</time>
      </trkpt>
      <trkpt lat="27.816774" lon="86.730643">
        <ele>3599.6</ele>
        <time>2022-10-22T04:27:48.000Z</time>
      </trkpt>
      <trkpt lat="27.816797" lon="86.73065">
        <ele>3599</ele>
        <time>2022-10-22T04:27:50.000Z</time>
      </trkpt>
      <trkpt lat="27.816822" lon="86.730675">
        <ele>3598.8</ele>
        <time>2022-10-22T04:27:52.000Z</time>
      </trkpt>
      <trkpt lat="27.816848" lon="86.730682">
        <ele>3598.6</ele>
        <time>2022-10-22T04:27:54.000Z</time>
      </trkpt>
      <trkpt lat="27.81687" lon="86.730688">
        <ele>3598.4</ele>
        <time>2022-10-22T04:27:56.000Z</time>
      </trkpt>
      <trkpt lat="27.81689" lon="86.730701">
        <ele>3597.8</ele>
        <time>2022-10-22T04:27:58.000Z</time>
      </trkpt>
      <trkpt lat="27.816912" lon="86.730707">
        <ele>3597.6</ele>
        <time>2022-10-22T04:28:00.000Z</time>
      </trkpt>
      <trkpt lat="27.816931" lon="86.730714">
        <ele>3597.2</ele>
        <time>2022-10-22T04:28:02.000Z</time>
      </trkpt>
      <trkpt lat="27.816947" lon="86.730726">
        <ele>3596.6</ele>
        <time>2022-10-22T04:28:04.000Z</time>
      </trkpt>
      <trkpt lat="27.816966" lon="86.730746">
        <ele>3596.6</ele>
        <time>2022-10-22T04:28:07.000Z</time>
      </trkpt>
      <trkpt lat="27.816986" lon="86.730758">
        <ele>3596.8</ele>
        <time>2022-10-22T04:28:31.000Z</time>
      </trkpt>
      <trkpt lat="27.816998" lon="86.730784">
        <ele>3596.6</ele>
        <time>2022-10-22T04:28:33.000Z</time>
      </trkpt>
      <trkpt lat="27.817021" lon="86.73081">
        <ele>3596.6</ele>
        <time>2022-10-22T04:28:35.000Z</time>
      </trkpt>
      <trkpt lat="27.817027" lon="86.730829">
        <ele>3596.6</ele>
        <time>2022-10-22T04:28:36.000Z</time>
      </trkpt>
      <trkpt lat="27.81704" lon="86.730861">
        <ele>3596.4</ele>
        <time>2022-10-22T04:28:38.000Z</time>
      </trkpt>
      <trkpt lat="27.817059" lon="86.730874">
        <ele>3596.4</ele>
        <time>2022-10-22T04:28:40.000Z</time>
      </trkpt>
      <trkpt lat="27.817075" lon="86.730886">
        <ele>3596</ele>
        <time>2022-10-22T04:28:42.000Z</time>
      </trkpt>
      <trkpt lat="27.817088" lon="86.730912">
        <ele>3595.8</ele>
        <time>2022-10-22T04:28:44.000Z</time>
      </trkpt>
      <trkpt lat="27.817104" lon="86.730925">
        <ele>3595.2</ele>
        <time>2022-10-22T04:28:46.000Z</time>
      </trkpt>
      <trkpt lat="27.817126" lon="86.730944">
        <ele>3595.2</ele>
        <time>2022-10-22T04:28:48.000Z</time>
      </trkpt>
      <trkpt lat="27.817146" lon="86.730963">
        <ele>3594.8</ele>
        <time>2022-10-22T04:28:51.000Z</time>
      </trkpt>
      <trkpt lat="27.817155" lon="86.730982">
        <ele>3595.2</ele>
        <time>2022-10-22T04:28:52.000Z</time>
      </trkpt>
      <trkpt lat="27.817168" lon="86.731002">
        <ele>3595.2</ele>
        <time>2022-10-22T04:28:54.000Z</time>
      </trkpt>
      <trkpt lat="27.817184" lon="86.731027">
        <ele>3595.6</ele>
        <time>2022-10-22T04:28:56.000Z</time>
      </trkpt>
      <trkpt lat="27.817203" lon="86.731046">
        <ele>3595.6</ele>
        <time>2022-10-22T04:28:59.000Z</time>
      </trkpt>
      <trkpt lat="27.817216" lon="86.731072">
        <ele>3595.6</ele>
        <time>2022-10-22T04:29:01.000Z</time>
      </trkpt>
      <trkpt lat="27.817238" lon="86.731091">
        <ele>3595.4</ele>
        <time>2022-10-22T04:29:04.000Z</time>
      </trkpt>
      <trkpt lat="27.817254" lon="86.73111">
        <ele>3595.2</ele>
        <time>2022-10-22T04:29:06.000Z</time>
      </trkpt>
      <trkpt lat="27.81727" lon="86.73113">
        <ele>3594.8</ele>
        <time>2022-10-22T04:29:08.000Z</time>
      </trkpt>
      <trkpt lat="27.817277" lon="86.731149">
        <ele>3594.8</ele>
        <time>2022-10-22T04:29:09.000Z</time>
      </trkpt>
      <trkpt lat="27.817293" lon="86.731162">
        <ele>3594.6</ele>
        <time>2022-10-22T04:29:11.000Z</time>
      </trkpt>
      <trkpt lat="27.817299" lon="86.731181">
        <ele>3594.6</ele>
        <time>2022-10-22T04:29:12.000Z</time>
      </trkpt>
      <trkpt lat="27.817315" lon="86.731194">
        <ele>3594.8</ele>
        <time>2022-10-22T04:29:14.000Z</time>
      </trkpt>
      <trkpt lat="27.817328" lon="86.731219">
        <ele>3594.8</ele>
        <time>2022-10-22T04:29:17.000Z</time>
      </trkpt>
      <trkpt lat="27.81735" lon="86.731232">
        <ele>3594.2</ele>
        <time>2022-10-22T04:29:19.000Z</time>
      </trkpt>
      <trkpt lat="27.817354" lon="86.731258">
        <ele>3593.6</ele>
        <time>2022-10-22T04:29:21.000Z</time>
      </trkpt>
      <trkpt lat="27.817363" lon="86.731283">
        <ele>3593.6</ele>
        <time>2022-10-22T04:29:24.000Z</time>
      </trkpt>
      <trkpt lat="27.817373" lon="86.731302">
        <ele>3593.4</ele>
        <time>2022-10-22T04:29:26.000Z</time>
      </trkpt>
      <trkpt lat="27.817379" lon="86.731322">
        <ele>3593</ele>
        <time>2022-10-22T04:29:28.000Z</time>
      </trkpt>
      <trkpt lat="27.817395" lon="86.731347">
        <ele>3593</ele>
        <time>2022-10-22T04:29:30.000Z</time>
      </trkpt>
      <trkpt lat="27.817414" lon="86.731379">
        <ele>3592.2</ele>
        <time>2022-10-22T04:29:33.000Z</time>
      </trkpt>
      <trkpt lat="27.817434" lon="86.731398">
        <ele>3592.2</ele>
        <time>2022-10-22T04:29:36.000Z</time>
      </trkpt>
      <trkpt lat="27.817456" lon="86.731418">
        <ele>3591.6</ele>
        <time>2022-10-22T04:29:39.000Z</time>
      </trkpt>
      <trkpt lat="27.817478" lon="86.731418">
        <ele>3591</ele>
        <time>2022-10-22T04:29:41.000Z</time>
      </trkpt>
      <trkpt lat="27.817504" lon="86.73143">
        <ele>3590.6</ele>
        <time>2022-10-22T04:29:44.000Z</time>
      </trkpt>
      <trkpt lat="27.817526" lon="86.731443">
        <ele>3590.6</ele>
        <time>2022-10-22T04:29:46.000Z</time>
      </trkpt>
      <trkpt lat="27.817552" lon="86.731443">
        <ele>3589.8</ele>
        <time>2022-10-22T04:29:49.000Z</time>
      </trkpt>
      <trkpt lat="27.817574" lon="86.731456">
        <ele>3589.4</ele>
        <time>2022-10-22T04:29:51.000Z</time>
      </trkpt>
      <trkpt lat="27.817597" lon="86.731462">
        <ele>3589.4</ele>
        <time>2022-10-22T04:29:53.000Z</time>
      </trkpt>
      <trkpt lat="27.817619" lon="86.731469">
        <ele>3589.4</ele>
        <time>2022-10-22T04:29:55.000Z</time>
      </trkpt>
      <trkpt lat="27.817645" lon="86.731469">
        <ele>3589</ele>
        <time>2022-10-22T04:29:57.000Z</time>
      </trkpt>
      <trkpt lat="27.81767" lon="86.731475">
        <ele>3588.8</ele>
        <time>2022-10-22T04:30:00.000Z</time>
      </trkpt>
      <trkpt lat="27.817696" lon="86.731482">
        <ele>3588.8</ele>
        <time>2022-10-22T04:30:03.000Z</time>
      </trkpt>
      <trkpt lat="27.817722" lon="86.731488">
        <ele>3588.6</ele>
        <time>2022-10-22T04:30:05.000Z</time>
      </trkpt>
      <trkpt lat="27.817744" lon="86.731501">
        <ele>3588.4</ele>
        <time>2022-10-22T04:30:07.000Z</time>
      </trkpt>
      <trkpt lat="27.81777" lon="86.731507">
        <ele>3588.2</ele>
        <time>2022-10-22T04:30:09.000Z</time>
      </trkpt>
      <trkpt lat="27.817786" lon="86.731526">
        <ele>3587.4</ele>
        <time>2022-10-22T04:30:12.000Z</time>
      </trkpt>
      <trkpt lat="27.817805" lon="86.731546">
        <ele>3587.2</ele>
        <time>2022-10-22T04:30:14.000Z</time>
      </trkpt>
      <trkpt lat="27.817824" lon="86.731565">
        <ele>3587.4</ele>
        <time>2022-10-22T04:30:16.000Z</time>
      </trkpt>
      <trkpt lat="27.817843" lon="86.73159">
        <ele>3587.6</ele>
        <time>2022-10-22T04:30:19.000Z</time>
      </trkpt>
      <trkpt lat="27.817862" lon="86.731616">
        <ele>3587.2</ele>
        <time>2022-10-22T04:30:22.000Z</time>
      </trkpt>
      <trkpt lat="27.817882" lon="86.731629">
        <ele>3586.6</ele>
        <time>2022-10-22T04:30:24.000Z</time>
      </trkpt>
      <trkpt lat="27.817907" lon="86.731642">
        <ele>3586.4</ele>
        <time>2022-10-22T04:30:26.000Z</time>
      </trkpt>
      <trkpt lat="27.81793" lon="86.731654">
        <ele>3586.6</ele>
        <time>2022-10-22T04:30:28.000Z</time>
      </trkpt>
      <trkpt lat="27.817949" lon="86.731667">
        <ele>3586.4</ele>
        <time>2022-10-22T04:30:30.000Z</time>
      </trkpt>
      <trkpt lat="27.817971" lon="86.73168">
        <ele>3586.2</ele>
        <time>2022-10-22T04:30:32.000Z</time>
      </trkpt>
      <trkpt lat="27.81799" lon="86.731699">
        <ele>3586.4</ele>
        <time>2022-10-22T04:30:34.000Z</time>
      </trkpt>
      <trkpt lat="27.81801" lon="86.731706">
        <ele>3586.8</ele>
        <time>2022-10-22T04:30:36.000Z</time>
      </trkpt>
      <trkpt lat="27.818029" lon="86.731718">
        <ele>3586.8</ele>
        <time>2022-10-22T04:30:38.000Z</time>
      </trkpt>
      <trkpt lat="27.818048" lon="86.731712">
        <ele>3587.2</ele>
        <time>2022-10-22T04:30:40.000Z</time>
      </trkpt>
      <trkpt lat="27.818074" lon="86.731712">
        <ele>3587.2</ele>
        <time>2022-10-22T04:30:42.000Z</time>
      </trkpt>
      <trkpt lat="27.818093" lon="86.731706">
        <ele>3587.4</ele>
        <time>2022-10-22T04:30:44.000Z</time>
      </trkpt>
      <trkpt lat="27.818112" lon="86.731706">
        <ele>3587.8</ele>
        <time>2022-10-22T04:30:46.000Z</time>
      </trkpt>
      <trkpt lat="27.818131" lon="86.731706">
        <ele>3588</ele>
        <time>2022-10-22T04:30:48.000Z</time>
      </trkpt>
      <trkpt lat="27.81815" lon="86.731706">
        <ele>3588.4</ele>
        <time>2022-10-22T04:30:50.000Z</time>
      </trkpt>
      <trkpt lat="27.81817" lon="86.731706">
        <ele>3588.2</ele>
        <time>2022-10-22T04:30:52.000Z</time>
      </trkpt>
      <trkpt lat="27.818195" lon="86.731706">
        <ele>3588.2</ele>
        <time>2022-10-22T04:30:55.000Z</time>
      </trkpt>
      <trkpt lat="27.818214" lon="86.731712">
        <ele>3588.2</ele>
        <time>2022-10-22T04:30:57.000Z</time>
      </trkpt>
      <trkpt lat="27.81824" lon="86.731718">
        <ele>3588.8</ele>
        <time>2022-10-22T04:31:00.000Z</time>
      </trkpt>
      <trkpt lat="27.818266" lon="86.731718">
        <ele>3588.8</ele>
        <time>2022-10-22T04:31:02.000Z</time>
      </trkpt>
      <trkpt lat="27.818288" lon="86.731718">
        <ele>3588.8</ele>
        <time>2022-10-22T04:31:04.000Z</time>
      </trkpt>
      <trkpt lat="27.818307" lon="86.731718">
        <ele>3589</ele>
        <time>2022-10-22T04:31:06.000Z</time>
      </trkpt>
      <trkpt lat="27.818326" lon="86.731718">
        <ele>3589</ele>
        <time>2022-10-22T04:31:08.000Z</time>
      </trkpt>
      <trkpt lat="27.818346" lon="86.731718">
        <ele>3589.2</ele>
        <time>2022-10-22T04:31:10.000Z</time>
      </trkpt>
      <trkpt lat="27.818368" lon="86.731725">
        <ele>3589.2</ele>
        <time>2022-10-22T04:31:13.000Z</time>
      </trkpt>
      <trkpt lat="27.81839" lon="86.731738">
        <ele>3589</ele>
        <time>2022-10-22T04:31:16.000Z</time>
      </trkpt>
      <trkpt lat="27.818413" lon="86.731738">
        <ele>3589.4</ele>
        <time>2022-10-22T04:31:18.000Z</time>
      </trkpt>
      <trkpt lat="27.818429" lon="86.731725">
        <ele>3590</ele>
        <time>2022-10-22T04:31:20.000Z</time>
      </trkpt>
      <trkpt lat="27.818448" lon="86.731725">
        <ele>3590.4</ele>
        <time>2022-10-22T04:31:22.000Z</time>
      </trkpt>
      <trkpt lat="27.818467" lon="86.731744">
        <ele>3590.4</ele>
        <time>2022-10-22T04:31:27.000Z</time>
      </trkpt>
      <trkpt lat="27.818493" lon="86.73175">
        <ele>3590.6</ele>
        <time>2022-10-22T04:31:30.000Z</time>
      </trkpt>
      <trkpt lat="27.818515" lon="86.73175">
        <ele>3590.8</ele>
        <time>2022-10-22T04:31:33.000Z</time>
      </trkpt>
      <trkpt lat="27.818544" lon="86.731744">
        <ele>3591</ele>
        <time>2022-10-22T04:31:36.000Z</time>
      </trkpt>
      <trkpt lat="27.818566" lon="86.731744">
        <ele>3591.4</ele>
        <time>2022-10-22T04:31:39.000Z</time>
      </trkpt>
      <trkpt lat="27.818586" lon="86.731757">
        <ele>3591.6</ele>
        <time>2022-10-22T04:31:42.000Z</time>
      </trkpt>
      <trkpt lat="27.818608" lon="86.73175">
        <ele>3591.8</ele>
        <time>2022-10-22T04:31:45.000Z</time>
      </trkpt>
      <trkpt lat="27.818624" lon="86.731738">
        <ele>3592</ele>
        <time>2022-10-22T04:31:48.000Z</time>
      </trkpt>
      <trkpt lat="27.818646" lon="86.731725">
        <ele>3593.2</ele>
        <time>2022-10-22T04:31:51.000Z</time>
      </trkpt>
      <trkpt lat="27.818669" lon="86.731738">
        <ele>3593.4</ele>
        <time>2022-10-22T04:31:54.000Z</time>
      </trkpt>
      <trkpt lat="27.818688" lon="86.73175">
        <ele>3593.6</ele>
        <time>2022-10-22T04:31:57.000Z</time>
      </trkpt>
      <trkpt lat="27.818714" lon="86.731744">
        <ele>3594</ele>
        <time>2022-10-22T04:32:00.000Z</time>
      </trkpt>
      <trkpt lat="27.818736" lon="86.731738">
        <ele>3594.4</ele>
        <time>2022-10-22T04:32:03.000Z</time>
      </trkpt>
      <trkpt lat="27.818755" lon="86.731725">
        <ele>3594.6</ele>
        <time>2022-10-22T04:32:05.000Z</time>
      </trkpt>
      <trkpt lat="27.818774" lon="86.731718">
        <ele>3594.8</ele>
        <time>2022-10-22T04:32:07.000Z</time>
      </trkpt>
      <trkpt lat="27.818794" lon="86.731725">
        <ele>3595.2</ele>
        <time>2022-10-22T04:32:09.000Z</time>
      </trkpt>
      <trkpt lat="27.818816" lon="86.731712">
        <ele>3595.4</ele>
        <time>2022-10-22T04:32:13.000Z</time>
      </trkpt>
      <trkpt lat="27.818835" lon="86.731706">
        <ele>3596</ele>
        <time>2022-10-22T04:32:15.000Z</time>
      </trkpt>
      <trkpt lat="27.818858" lon="86.731706">
        <ele>3596</ele>
        <time>2022-10-22T04:32:17.000Z</time>
      </trkpt>
      <trkpt lat="27.818877" lon="86.731725">
        <ele>3596.4</ele>
        <time>2022-10-22T04:32:20.000Z</time>
      </trkpt>
      <trkpt lat="27.818896" lon="86.731738">
        <ele>3596.8</ele>
        <time>2022-10-22T04:32:24.000Z</time>
      </trkpt>
      <trkpt lat="27.818922" lon="86.731744">
        <ele>3597</ele>
        <time>2022-10-22T04:32:28.000Z</time>
      </trkpt>
      <trkpt lat="27.818941" lon="86.73175">
        <ele>3597.4</ele>
        <time>2022-10-22T04:32:31.000Z</time>
      </trkpt>
      <trkpt lat="27.81896" lon="86.731757">
        <ele>3598.2</ele>
        <time>2022-10-22T04:32:34.000Z</time>
      </trkpt>
      <trkpt lat="27.818982" lon="86.731757">
        <ele>3599.2</ele>
        <time>2022-10-22T04:32:38.000Z</time>
      </trkpt>
      <trkpt lat="27.819002" lon="86.73175">
        <ele>3599.4</ele>
        <time>2022-10-22T04:32:41.000Z</time>
      </trkpt>
      <trkpt lat="27.819021" lon="86.73175">
        <ele>3599.8</ele>
        <time>2022-10-22T04:32:44.000Z</time>
      </trkpt>
      <trkpt lat="27.81904" lon="86.731738">
        <ele>3600</ele>
        <time>2022-10-22T04:32:47.000Z</time>
      </trkpt>
      <trkpt lat="27.819062" lon="86.731725">
        <ele>3599.8</ele>
        <time>2022-10-22T04:32:50.000Z</time>
      </trkpt>
      <trkpt lat="27.819085" lon="86.731718">
        <ele>3600.4</ele>
        <time>2022-10-22T04:32:53.000Z</time>
      </trkpt>
      <trkpt lat="27.81911" lon="86.731712">
        <ele>3600.8</ele>
        <time>2022-10-22T04:32:56.000Z</time>
      </trkpt>
      <trkpt lat="27.81913" lon="86.731706">
        <ele>3601.2</ele>
        <time>2022-10-22T04:32:58.000Z</time>
      </trkpt>
      <trkpt lat="27.819152" lon="86.731706">
        <ele>3601</ele>
        <time>2022-10-22T04:33:00.000Z</time>
      </trkpt>
      <trkpt lat="27.819171" lon="86.731706">
        <ele>3601.2</ele>
        <time>2022-10-22T04:33:02.000Z</time>
      </trkpt>
      <trkpt lat="27.81919" lon="86.731699">
        <ele>3601</ele>
        <time>2022-10-22T04:33:04.000Z</time>
      </trkpt>
      <trkpt lat="27.81921" lon="86.731706">
        <ele>3601</ele>
        <time>2022-10-22T04:33:06.000Z</time>
      </trkpt>
      <trkpt lat="27.819229" lon="86.731706">
        <ele>3601</ele>
        <time>2022-10-22T04:33:08.000Z</time>
      </trkpt>
      <trkpt lat="27.819254" lon="86.731706">
        <ele>3601</ele>
        <time>2022-10-22T04:33:11.000Z</time>
      </trkpt>
      <trkpt lat="27.819283" lon="86.731712">
        <ele>3601.4</ele>
        <time>2022-10-22T04:33:14.000Z</time>
      </trkpt>
      <trkpt lat="27.819309" lon="86.731712">
        <ele>3601.8</ele>
        <time>2022-10-22T04:33:17.000Z</time>
      </trkpt>
      <trkpt lat="27.819328" lon="86.731706">
        <ele>3602.2</ele>
        <time>2022-10-22T04:33:20.000Z</time>
      </trkpt>
      <trkpt lat="27.819344" lon="86.731686">
        <ele>3602.6</ele>
        <time>2022-10-22T04:33:23.000Z</time>
      </trkpt>
      <trkpt lat="27.819354" lon="86.731667">
        <ele>3603</ele>
        <time>2022-10-22T04:33:26.000Z</time>
      </trkpt>
      <trkpt lat="27.819373" lon="86.731654">
        <ele>3603.2</ele>
        <time>2022-10-22T04:33:28.000Z</time>
      </trkpt>
      <trkpt lat="27.819389" lon="86.731635">
        <ele>3603.8</ele>
        <time>2022-10-22T04:33:31.000Z</time>
      </trkpt>
      <trkpt lat="27.819402" lon="86.731616">
        <ele>3604</ele>
        <time>2022-10-22T04:33:34.000Z</time>
      </trkpt>
      <trkpt lat="27.819418" lon="86.731597">
        <ele>3603.4</ele>
        <time>2022-10-22T04:33:37.000Z</time>
      </trkpt>
      <trkpt lat="27.819437" lon="86.73159">
        <ele>3603.8</ele>
        <time>2022-10-22T04:33:40.000Z</time>
      </trkpt>
      <trkpt lat="27.819456" lon="86.731584">
        <ele>3604.6</ele>
        <time>2022-10-22T04:33:43.000Z</time>
      </trkpt>
      <trkpt lat="27.819472" lon="86.731565">
        <ele>3605</ele>
        <time>2022-10-22T04:33:46.000Z</time>
      </trkpt>
      <trkpt lat="27.819491" lon="86.731558">
        <ele>3605.4</ele>
        <time>2022-10-22T04:33:49.000Z</time>
      </trkpt>
      <trkpt lat="27.819507" lon="86.731546">
        <ele>3605.6</ele>
        <time>2022-10-22T04:33:52.000Z</time>
      </trkpt>
      <trkpt lat="27.81953" lon="86.731539">
        <ele>3606.2</ele>
        <time>2022-10-22T04:33:56.000Z</time>
      </trkpt>
      <trkpt lat="27.819549" lon="86.731526">
        <ele>3606.2</ele>
        <time>2022-10-22T04:33:59.000Z</time>
      </trkpt>
      <trkpt lat="27.819571" lon="86.73152">
        <ele>3606.6</ele>
        <time>2022-10-22T04:34:03.000Z</time>
      </trkpt>
      <trkpt lat="27.81959" lon="86.731507">
        <ele>3607.4</ele>
        <time>2022-10-22T04:34:07.000Z</time>
      </trkpt>
      <trkpt lat="27.819613" lon="86.731501">
        <ele>3607.4</ele>
        <time>2022-10-22T04:34:11.000Z</time>
      </trkpt>
      <trkpt lat="27.819629" lon="86.731488">
        <ele>3607.8</ele>
        <time>2022-10-22T04:34:15.000Z</time>
      </trkpt>
      <trkpt lat="27.819648" lon="86.731488">
        <ele>3608.6</ele>
        <time>2022-10-22T04:34:19.000Z</time>
      </trkpt>
      <trkpt lat="27.819667" lon="86.731488">
        <ele>3608.6</ele>
        <time>2022-10-22T04:34:23.000Z</time>
      </trkpt>
      <trkpt lat="27.819677" lon="86.731507">
        <ele>3609</ele>
        <time>2022-10-22T04:34:27.000Z</time>
      </trkpt>
      <trkpt lat="27.819696" lon="86.731507">
        <ele>3609.4</ele>
        <time>2022-10-22T04:34:30.000Z</time>
      </trkpt>
      <trkpt lat="27.819718" lon="86.731501">
        <ele>3610.6</ele>
        <time>2022-10-22T04:34:36.000Z</time>
      </trkpt>
      <trkpt lat="27.819738" lon="86.731501">
        <ele>3611.2</ele>
        <time>2022-10-22T04:34:40.000Z</time>
      </trkpt>
      <trkpt lat="27.819757" lon="86.731507">
        <ele>3611.8</ele>
        <time>2022-10-22T04:34:44.000Z</time>
      </trkpt>
      <trkpt lat="27.819776" lon="86.731501">
        <ele>3611.8</ele>
        <time>2022-10-22T04:34:55.000Z</time>
      </trkpt>
      <trkpt lat="27.819818" lon="86.731501">
        <ele>3612.4</ele>
        <time>2022-10-22T04:35:03.000Z</time>
      </trkpt>
      <trkpt lat="27.819837" lon="86.731488">
        <ele>3612.8</ele>
        <time>2022-10-22T04:35:09.000Z</time>
      </trkpt>
      <trkpt lat="27.819856" lon="86.731482">
        <ele>3613</ele>
        <time>2022-10-22T04:35:11.000Z</time>
      </trkpt>
      <trkpt lat="27.819878" lon="86.731482">
        <ele>3613.6</ele>
        <time>2022-10-22T04:35:14.000Z</time>
      </trkpt>
      <trkpt lat="27.819898" lon="86.731482">
        <ele>3614.2</ele>
        <time>2022-10-22T04:35:19.000Z</time>
      </trkpt>
      <trkpt lat="27.819917" lon="86.731482">
        <ele>3615.2</ele>
        <time>2022-10-22T04:35:25.000Z</time>
      </trkpt>
      <trkpt lat="27.819939" lon="86.731501">
        <ele>3618.4</ele>
        <time>2022-10-22T04:36:29.000Z</time>
      </trkpt>
      <trkpt lat="27.819955" lon="86.731475">
        <ele>3618.4</ele>
        <time>2022-10-22T04:36:31.000Z</time>
      </trkpt>
      <trkpt lat="27.819968" lon="86.731456">
        <ele>3618.4</ele>
        <time>2022-10-22T04:36:33.000Z</time>
      </trkpt>
      <trkpt lat="27.819984" lon="86.731443">
        <ele>3618.8</ele>
        <time>2022-10-22T04:36:34.000Z</time>
      </trkpt>
      <trkpt lat="27.82001" lon="86.73143">
        <ele>3619</ele>
        <time>2022-10-22T04:36:36.000Z</time>
      </trkpt>
      <trkpt lat="27.820029" lon="86.731418">
        <ele>3619.2</ele>
        <time>2022-10-22T04:36:38.000Z</time>
      </trkpt>
      <trkpt lat="27.820045" lon="86.731405">
        <ele>3620</ele>
        <time>2022-10-22T04:36:42.000Z</time>
      </trkpt>
      <trkpt lat="27.820058" lon="86.731424">
        <ele>3621.2</ele>
        <time>2022-10-22T04:36:49.000Z</time>
      </trkpt>
      <trkpt lat="27.820077" lon="86.731418">
        <ele>3621.8</ele>
        <time>2022-10-22T04:36:56.000Z</time>
      </trkpt>
      <trkpt lat="27.820086" lon="86.731398">
        <ele>3622</ele>
        <time>2022-10-22T04:36:58.000Z</time>
      </trkpt>
      <trkpt lat="27.820106" lon="86.731405">
        <ele>3622.6</ele>
        <time>2022-10-22T04:37:04.000Z</time>
      </trkpt>
      <trkpt lat="27.820125" lon="86.731424">
        <ele>3623.6</ele>
        <time>2022-10-22T04:37:08.000Z</time>
      </trkpt>
      <trkpt lat="27.820134" lon="86.731443">
        <ele>3623.2</ele>
        <time>2022-10-22T04:37:13.000Z</time>
      </trkpt>
      <trkpt lat="27.820144" lon="86.731462">
        <ele>3623.6</ele>
        <time>2022-10-22T04:37:15.000Z</time>
      </trkpt>
      <trkpt lat="27.820163" lon="86.731475">
        <ele>3623.8</ele>
        <time>2022-10-22T04:37:18.000Z</time>
      </trkpt>
      <trkpt lat="27.820182" lon="86.731488">
        <ele>3624.2</ele>
        <time>2022-10-22T04:37:22.000Z</time>
      </trkpt>
      <trkpt lat="27.820195" lon="86.731507">
        <ele>3624.4</ele>
        <time>2022-10-22T04:37:25.000Z</time>
      </trkpt>
      <trkpt lat="27.820214" lon="86.73152">
        <ele>3625</ele>
        <time>2022-10-22T04:37:30.000Z</time>
      </trkpt>
      <trkpt lat="27.820221" lon="86.731539">
        <ele>3625.2</ele>
        <time>2022-10-22T04:37:34.000Z</time>
      </trkpt>
      <trkpt lat="27.820237" lon="86.731558">
        <ele>3626.6</ele>
        <time>2022-10-22T04:37:44.000Z</time>
      </trkpt>
      <trkpt lat="27.820259" lon="86.731565">
        <ele>3627.6</ele>
        <time>2022-10-22T04:37:49.000Z</time>
      </trkpt>
      <trkpt lat="27.820275" lon="86.731578">
        <ele>3627.6</ele>
        <time>2022-10-22T04:37:52.000Z</time>
      </trkpt>
      <trkpt lat="27.820298" lon="86.731578">
        <ele>3627.6</ele>
        <time>2022-10-22T04:37:58.000Z</time>
      </trkpt>
      <trkpt lat="27.820317" lon="86.731584">
        <ele>3627.6</ele>
        <time>2022-10-22T04:38:00.000Z</time>
      </trkpt>
      <trkpt lat="27.820339" lon="86.731584">
        <ele>3627.2</ele>
        <time>2022-10-22T04:38:04.000Z</time>
      </trkpt>
      <trkpt lat="27.820362" lon="86.731584">
        <ele>3627.4</ele>
        <time>2022-10-22T04:38:06.000Z</time>
      </trkpt>
      <trkpt lat="27.820381" lon="86.731584">
        <ele>3627.6</ele>
        <time>2022-10-22T04:38:08.000Z</time>
      </trkpt>
      <trkpt lat="27.820406" lon="86.73159">
        <ele>3627.4</ele>
        <time>2022-10-22T04:38:11.000Z</time>
      </trkpt>
      <trkpt lat="27.820432" lon="86.73159">
        <ele>3627.6</ele>
        <time>2022-10-22T04:38:14.000Z</time>
      </trkpt>
      <trkpt lat="27.820458" lon="86.731597">
        <ele>3627.4</ele>
        <time>2022-10-22T04:38:17.000Z</time>
      </trkpt>
      <trkpt lat="27.820483" lon="86.73159">
        <ele>3627.4</ele>
        <time>2022-10-22T04:38:20.000Z</time>
      </trkpt>
      <trkpt lat="27.820509" lon="86.731603">
        <ele>3627.2</ele>
        <time>2022-10-22T04:38:23.000Z</time>
      </trkpt>
      <trkpt lat="27.820528" lon="86.731616">
        <ele>3627.4</ele>
        <time>2022-10-22T04:38:25.000Z</time>
      </trkpt>
      <trkpt lat="27.820547" lon="86.731616">
        <ele>3627</ele>
        <time>2022-10-22T04:38:28.000Z</time>
      </trkpt>
      <trkpt lat="27.820566" lon="86.731622">
        <ele>3627</ele>
        <time>2022-10-22T04:38:30.000Z</time>
      </trkpt>
      <trkpt lat="27.820586" lon="86.731635">
        <ele>3626.8</ele>
        <time>2022-10-22T04:38:32.000Z</time>
      </trkpt>
      <trkpt lat="27.820605" lon="86.731654">
        <ele>3627</ele>
        <time>2022-10-22T04:38:34.000Z</time>
      </trkpt>
      <trkpt lat="27.820624" lon="86.731654">
        <ele>3626.8</ele>
        <time>2022-10-22T04:38:37.000Z</time>
      </trkpt>
      <trkpt lat="27.820643" lon="86.731654">
        <ele>3627.2</ele>
        <time>2022-10-22T04:38:43.000Z</time>
      </trkpt>
      <trkpt lat="27.820627" lon="86.731642">
        <ele>3626.8</ele>
        <time>2022-10-22T04:39:21.000Z</time>
      </trkpt>
      <trkpt lat="27.820608" lon="86.731642">
        <ele>3626.8</ele>
        <time>2022-10-22T04:39:24.000Z</time>
      </trkpt>
      <trkpt lat="27.820589" lon="86.731635">
        <ele>3628.2</ele>
        <time>2022-10-22T04:40:20.000Z</time>
      </trkpt>
      <trkpt lat="27.820608" lon="86.731629">
        <ele>3627.2</ele>
        <time>2022-10-22T04:40:30.000Z</time>
      </trkpt>
      <trkpt lat="27.82063" lon="86.731635">
        <ele>3627</ele>
        <time>2022-10-22T04:40:34.000Z</time>
      </trkpt>
      <trkpt lat="27.82065" lon="86.731635">
        <ele>3626.2</ele>
        <time>2022-10-22T04:40:49.000Z</time>
      </trkpt>
      <trkpt lat="27.820672" lon="86.731654">
        <ele>3626.2</ele>
        <time>2022-10-22T04:40:51.000Z</time>
      </trkpt>
      <trkpt lat="27.820694" lon="86.731661">
        <ele>3626.2</ele>
        <time>2022-10-22T04:40:53.000Z</time>
      </trkpt>
      <trkpt lat="27.820723" lon="86.731667">
        <ele>3626.4</ele>
        <time>2022-10-22T04:40:55.000Z</time>
      </trkpt>
      <trkpt lat="27.820742" lon="86.731674">
        <ele>3626.4</ele>
        <time>2022-10-22T04:40:57.000Z</time>
      </trkpt>
      <trkpt lat="27.820762" lon="86.73168">
        <ele>3627.4</ele>
        <time>2022-10-22T04:41:00.000Z</time>
      </trkpt>
      <trkpt lat="27.820787" lon="86.731699">
        <ele>3627.8</ele>
        <time>2022-10-22T04:41:03.000Z</time>
      </trkpt>
      <trkpt lat="27.82081" lon="86.731706">
        <ele>3628</ele>
        <time>2022-10-22T04:41:07.000Z</time>
      </trkpt>
      <trkpt lat="27.820829" lon="86.731712">
        <ele>3628.2</ele>
        <time>2022-10-22T04:41:09.000Z</time>
      </trkpt>
      <trkpt lat="27.820845" lon="86.731725">
        <ele>3628.8</ele>
        <time>2022-10-22T04:41:13.000Z</time>
      </trkpt>
      <trkpt lat="27.820864" lon="86.731757">
        <ele>3627.2</ele>
        <time>2022-10-22T04:42:57.000Z</time>
      </trkpt>
      <trkpt lat="27.820899" lon="86.731782">
        <ele>3626.8</ele>
        <time>2022-10-22T04:43:03.000Z</time>
      </trkpt>
      <trkpt lat="27.820918" lon="86.731795">
        <ele>3625.8</ele>
        <time>2022-10-22T04:43:16.000Z</time>
      </trkpt>
      <trkpt lat="27.820944" lon="86.731821">
        <ele>3625.4</ele>
        <time>2022-10-22T04:43:18.000Z</time>
      </trkpt>
      <trkpt lat="27.820973" lon="86.73184">
        <ele>3624.8</ele>
        <time>2022-10-22T04:43:20.000Z</time>
      </trkpt>
      <trkpt lat="27.820982" lon="86.731866">
        <ele>3624.4</ele>
        <time>2022-10-22T04:43:22.000Z</time>
      </trkpt>
      <trkpt lat="27.821008" lon="86.731872">
        <ele>3623.2</ele>
        <time>2022-10-22T04:44:01.000Z</time>
      </trkpt>
      <trkpt lat="27.821034" lon="86.731872">
        <ele>3622.8</ele>
        <time>2022-10-22T04:44:03.000Z</time>
      </trkpt>
      <trkpt lat="27.821059" lon="86.731866">
        <ele>3622.2</ele>
        <time>2022-10-22T04:44:05.000Z</time>
      </trkpt>
      <trkpt lat="27.821078" lon="86.731866">
        <ele>3623</ele>
        <time>2022-10-22T04:44:07.000Z</time>
      </trkpt>
      <trkpt lat="27.821101" lon="86.731859">
        <ele>3622.4</ele>
        <time>2022-10-22T04:44:09.000Z</time>
      </trkpt>
      <trkpt lat="27.82112" lon="86.731853">
        <ele>3621.2</ele>
        <time>2022-10-22T04:44:13.000Z</time>
      </trkpt>
      <trkpt lat="27.821136" lon="86.73184">
        <ele>3620.4</ele>
        <time>2022-10-22T04:44:16.000Z</time>
      </trkpt>
      <trkpt lat="27.821155" lon="86.731827">
        <ele>3620</ele>
        <time>2022-10-22T04:44:20.000Z</time>
      </trkpt>
      <trkpt lat="27.821178" lon="86.731827">
        <ele>3619.2</ele>
        <time>2022-10-22T04:44:23.000Z</time>
      </trkpt>
      <trkpt lat="27.821197" lon="86.731814">
        <ele>3618.4</ele>
        <time>2022-10-22T04:44:27.000Z</time>
      </trkpt>
      <trkpt lat="27.82121" lon="86.731795">
        <ele>3617.6</ele>
        <time>2022-10-22T04:44:30.000Z</time>
      </trkpt>
      <trkpt lat="27.821229" lon="86.731795">
        <ele>3617</ele>
        <time>2022-10-22T04:44:33.000Z</time>
      </trkpt>
      <trkpt lat="27.821248" lon="86.731795">
        <ele>3616.8</ele>
        <time>2022-10-22T04:44:36.000Z</time>
      </trkpt>
      <trkpt lat="27.82127" lon="86.731789">
        <ele>3615.6</ele>
        <time>2022-10-22T04:44:39.000Z</time>
      </trkpt>
      <trkpt lat="27.821296" lon="86.731782">
        <ele>3615.4</ele>
        <time>2022-10-22T04:44:41.000Z</time>
      </trkpt>
      <trkpt lat="27.821322" lon="86.731782">
        <ele>3614.8</ele>
        <time>2022-10-22T04:44:43.000Z</time>
      </trkpt>
      <trkpt lat="27.821344" lon="86.731782">
        <ele>3614.6</ele>
        <time>2022-10-22T04:44:45.000Z</time>
      </trkpt>
      <trkpt lat="27.82137" lon="86.731782">
        <ele>3614.6</ele>
        <time>2022-10-22T04:44:48.000Z</time>
      </trkpt>
      <trkpt lat="27.821395" lon="86.731782">
        <ele>3614.8</ele>
        <time>2022-10-22T04:44:50.000Z</time>
      </trkpt>
      <trkpt lat="27.821414" lon="86.731776">
        <ele>3614.6</ele>
        <time>2022-10-22T04:44:52.000Z</time>
      </trkpt>
      <trkpt lat="27.821434" lon="86.731776">
        <ele>3614.6</ele>
        <time>2022-10-22T04:44:54.000Z</time>
      </trkpt>
      <trkpt lat="27.821453" lon="86.731776">
        <ele>3614.6</ele>
        <time>2022-10-22T04:44:56.000Z</time>
      </trkpt>
      <trkpt lat="27.821472" lon="86.731776">
        <ele>3614.4</ele>
        <time>2022-10-22T04:44:58.000Z</time>
      </trkpt>
      <trkpt lat="27.821507" lon="86.731757">
        <ele>3613.6</ele>
        <time>2022-10-22T04:45:03.000Z</time>
      </trkpt>
      <trkpt lat="27.821523" lon="86.731744">
        <ele>3613.8</ele>
        <time>2022-10-22T04:45:05.000Z</time>
      </trkpt>
      <trkpt lat="27.821542" lon="86.731738">
        <ele>3613.6</ele>
        <time>2022-10-22T04:45:07.000Z</time>
      </trkpt>
      <trkpt lat="27.821558" lon="86.731725">
        <ele>3614</ele>
        <time>2022-10-22T04:45:09.000Z</time>
      </trkpt>
      <trkpt lat="27.821581" lon="86.731718">
        <ele>3614</ele>
        <time>2022-10-22T04:45:12.000Z</time>
      </trkpt>
      <trkpt lat="27.821603" lon="86.731712">
        <ele>3614</ele>
        <time>2022-10-22T04:45:14.000Z</time>
      </trkpt>
      <trkpt lat="27.821622" lon="86.731712">
        <ele>3614</ele>
        <time>2022-10-22T04:45:16.000Z</time>
      </trkpt>
      <trkpt lat="27.821642" lon="86.731706">
        <ele>3614</ele>
        <time>2022-10-22T04:45:18.000Z</time>
      </trkpt>
      <trkpt lat="27.821667" lon="86.731699">
        <ele>3614.2</ele>
        <time>2022-10-22T04:45:21.000Z</time>
      </trkpt>
      <trkpt lat="27.821686" lon="86.731686">
        <ele>3614.4</ele>
        <time>2022-10-22T04:45:23.000Z</time>
      </trkpt>
      <trkpt lat="27.821712" lon="86.731674">
        <ele>3614.4</ele>
        <time>2022-10-22T04:45:26.000Z</time>
      </trkpt>
      <trkpt lat="27.821738" lon="86.731661">
        <ele>3614.2</ele>
        <time>2022-10-22T04:45:29.000Z</time>
      </trkpt>
      <trkpt lat="27.82176" lon="86.731642">
        <ele>3614.4</ele>
        <time>2022-10-22T04:45:32.000Z</time>
      </trkpt>
      <trkpt lat="27.821776" lon="86.731629">
        <ele>3614.2</ele>
        <time>2022-10-22T04:45:34.000Z</time>
      </trkpt>
      <trkpt lat="27.821802" lon="86.731616">
        <ele>3614.6</ele>
        <time>2022-10-22T04:45:37.000Z</time>
      </trkpt>
      <trkpt lat="27.821818" lon="86.731597">
        <ele>3614.6</ele>
        <time>2022-10-22T04:45:39.000Z</time>
      </trkpt>
      <trkpt lat="27.821837" lon="86.731578">
        <ele>3615</ele>
        <time>2022-10-22T04:45:42.000Z</time>
      </trkpt>
      <trkpt lat="27.821882" lon="86.731546">
        <ele>3614.8</ele>
        <time>2022-10-22T04:45:47.000Z</time>
      </trkpt>
      <trkpt lat="27.821898" lon="86.731526">
        <ele>3614.8</ele>
        <time>2022-10-22T04:45:49.000Z</time>
      </trkpt>
      <trkpt lat="27.821914" lon="86.731507">
        <ele>3614.6</ele>
        <time>2022-10-22T04:45:52.000Z</time>
      </trkpt>
      <trkpt lat="27.821936" lon="86.731488">
        <ele>3614.8</ele>
        <time>2022-10-22T04:45:55.000Z</time>
      </trkpt>
      <trkpt lat="27.821965" lon="86.731475">
        <ele>3614.6</ele>
        <time>2022-10-22T04:45:58.000Z</time>
      </trkpt>
      <trkpt lat="27.82199" lon="86.731462">
        <ele>3614.6</ele>
        <time>2022-10-22T04:46:01.000Z</time>
      </trkpt>
      <trkpt lat="27.822013" lon="86.731443">
        <ele>3614.2</ele>
        <time>2022-10-22T04:46:04.000Z</time>
      </trkpt>
      <trkpt lat="27.822032" lon="86.731424">
        <ele>3614.2</ele>
        <time>2022-10-22T04:46:07.000Z</time>
      </trkpt>
      <trkpt lat="27.822051" lon="86.731418">
        <ele>3614.2</ele>
        <time>2022-10-22T04:46:09.000Z</time>
      </trkpt>
      <trkpt lat="27.82207" lon="86.731418">
        <ele>3614.2</ele>
        <time>2022-10-22T04:46:11.000Z</time>
      </trkpt>
      <trkpt lat="27.822093" lon="86.731405">
        <ele>3614.8</ele>
        <time>2022-10-22T04:46:13.000Z</time>
      </trkpt>
      <trkpt lat="27.822112" lon="86.731398">
        <ele>3614.8</ele>
        <time>2022-10-22T04:46:16.000Z</time>
      </trkpt>
      <trkpt lat="27.822131" lon="86.731386">
        <ele>3615</ele>
        <time>2022-10-22T04:46:18.000Z</time>
      </trkpt>
      <trkpt lat="27.822157" lon="86.731379">
        <ele>3615.6</ele>
        <time>2022-10-22T04:46:21.000Z</time>
      </trkpt>
      <trkpt lat="27.822173" lon="86.731366">
        <ele>3616</ele>
        <time>2022-10-22T04:46:23.000Z</time>
      </trkpt>
      <trkpt lat="27.822195" lon="86.731354">
        <ele>3616.2</ele>
        <time>2022-10-22T04:46:25.000Z</time>
      </trkpt>
      <trkpt lat="27.822214" lon="86.731347">
        <ele>3616</ele>
        <time>2022-10-22T04:46:27.000Z</time>
      </trkpt>
      <trkpt lat="27.822237" lon="86.731347">
        <ele>3616.2</ele>
        <time>2022-10-22T04:46:29.000Z</time>
      </trkpt>
      <trkpt lat="27.822259" lon="86.731347">
        <ele>3616.4</ele>
        <time>2022-10-22T04:46:31.000Z</time>
      </trkpt>
      <trkpt lat="27.822278" lon="86.731354">
        <ele>3616.2</ele>
        <time>2022-10-22T04:46:33.000Z</time>
      </trkpt>
      <trkpt lat="27.822304" lon="86.731341">
        <ele>3616.2</ele>
        <time>2022-10-22T04:46:36.000Z</time>
      </trkpt>
      <trkpt lat="27.82232" lon="86.731328">
        <ele>3616.2</ele>
        <time>2022-10-22T04:46:38.000Z</time>
      </trkpt>
      <trkpt lat="27.822339" lon="86.731315">
        <ele>3616.4</ele>
        <time>2022-10-22T04:46:40.000Z</time>
      </trkpt>
      <trkpt lat="27.822358" lon="86.731309">
        <ele>3616.2</ele>
        <time>2022-10-22T04:46:42.000Z</time>
      </trkpt>
      <trkpt lat="27.822378" lon="86.731302">
        <ele>3616</ele>
        <time>2022-10-22T04:46:45.000Z</time>
      </trkpt>
      <trkpt lat="27.822397" lon="86.731283">
        <ele>3616</ele>
        <time>2022-10-22T04:46:47.000Z</time>
      </trkpt>
      <trkpt lat="27.822419" lon="86.731264">
        <ele>3616</ele>
        <time>2022-10-22T04:46:50.000Z</time>
      </trkpt>
      <trkpt lat="27.822438" lon="86.731258">
        <ele>3615.6</ele>
        <time>2022-10-22T04:46:52.000Z</time>
      </trkpt>
      <trkpt lat="27.822448" lon="86.731238">
        <ele>3615.6</ele>
        <time>2022-10-22T04:46:54.000Z</time>
      </trkpt>
      <trkpt lat="27.822467" lon="86.731232">
        <ele>3615</ele>
        <time>2022-10-22T04:46:57.000Z</time>
      </trkpt>
      <trkpt lat="27.82249" lon="86.731219">
        <ele>3614.6</ele>
        <time>2022-10-22T04:47:00.000Z</time>
      </trkpt>
      <trkpt lat="27.822515" lon="86.731206">
        <ele>3614.6</ele>
        <time>2022-10-22T04:47:03.000Z</time>
      </trkpt>
      <trkpt lat="27.822541" lon="86.7312">
        <ele>3614</ele>
        <time>2022-10-22T04:47:06.000Z</time>
      </trkpt>
      <trkpt lat="27.82256" lon="86.7312">
        <ele>3613.8</ele>
        <time>2022-10-22T04:47:08.000Z</time>
      </trkpt>
      <trkpt lat="27.822579" lon="86.731194">
        <ele>3613.2</ele>
        <time>2022-10-22T04:47:10.000Z</time>
      </trkpt>
      <trkpt lat="27.822598" lon="86.731187">
        <ele>3613.2</ele>
        <time>2022-10-22T04:47:12.000Z</time>
      </trkpt>
      <trkpt lat="27.822621" lon="86.731181">
        <ele>3612.8</ele>
        <time>2022-10-22T04:47:14.000Z</time>
      </trkpt>
      <trkpt lat="27.822637" lon="86.731168">
        <ele>3612.6</ele>
        <time>2022-10-22T04:47:16.000Z</time>
      </trkpt>
      <trkpt lat="27.822653" lon="86.731155">
        <ele>3612.4</ele>
        <time>2022-10-22T04:47:18.000Z</time>
      </trkpt>
      <trkpt lat="27.822678" lon="86.731142">
        <ele>3612.4</ele>
        <time>2022-10-22T04:47:21.000Z</time>
      </trkpt>
      <trkpt lat="27.822698" lon="86.731123">
        <ele>3612.2</ele>
        <time>2022-10-22T04:47:23.000Z</time>
      </trkpt>
      <trkpt lat="27.822717" lon="86.731117">
        <ele>3612.2</ele>
        <time>2022-10-22T04:47:25.000Z</time>
      </trkpt>
      <trkpt lat="27.822736" lon="86.73111">
        <ele>3612.2</ele>
        <time>2022-10-22T04:47:27.000Z</time>
      </trkpt>
      <trkpt lat="27.822758" lon="86.731091">
        <ele>3612</ele>
        <time>2022-10-22T04:47:30.000Z</time>
      </trkpt>
      <trkpt lat="27.822784" lon="86.731085">
        <ele>3612.4</ele>
        <time>2022-10-22T04:47:33.000Z</time>
      </trkpt>
      <trkpt lat="27.822806" lon="86.731078">
        <ele>3612.4</ele>
        <time>2022-10-22T04:47:36.000Z</time>
      </trkpt>
      <trkpt lat="27.822826" lon="86.731072">
        <ele>3612.2</ele>
        <time>2022-10-22T04:47:40.000Z</time>
      </trkpt>
      <trkpt lat="27.822848" lon="86.731059">
        <ele>3610.8</ele>
        <time>2022-10-22T04:48:11.000Z</time>
      </trkpt>
      <trkpt lat="27.822883" lon="86.731059">
        <ele>3610.8</ele>
        <time>2022-10-22T04:48:13.000Z</time>
      </trkpt>
      <trkpt lat="27.822899" lon="86.731046">
        <ele>3611</ele>
        <time>2022-10-22T04:48:14.000Z</time>
      </trkpt>
      <trkpt lat="27.822918" lon="86.731046">
        <ele>3611</ele>
        <time>2022-10-22T04:48:15.000Z</time>
      </trkpt>
      <trkpt lat="27.822944" lon="86.731059">
        <ele>3611.4</ele>
        <time>2022-10-22T04:48:17.000Z</time>
      </trkpt>
      <trkpt lat="27.822966" lon="86.731066">
        <ele>3611.4</ele>
        <time>2022-10-22T04:48:19.000Z</time>
      </trkpt>
      <trkpt lat="27.822986" lon="86.731066">
        <ele>3611.4</ele>
        <time>2022-10-22T04:48:32.000Z</time>
      </trkpt>
      <trkpt lat="27.823005" lon="86.731066">
        <ele>3611.6</ele>
        <time>2022-10-22T04:48:34.000Z</time>
      </trkpt>
      <trkpt lat="27.823024" lon="86.731066">
        <ele>3611.2</ele>
        <time>2022-10-22T04:48:37.000Z</time>
      </trkpt>
      <trkpt lat="27.823046" lon="86.731066">
        <ele>3611.2</ele>
        <time>2022-10-22T04:48:40.000Z</time>
      </trkpt>
      <trkpt lat="27.823072" lon="86.731066">
        <ele>3610.8</ele>
        <time>2022-10-22T04:48:43.000Z</time>
      </trkpt>
      <trkpt lat="27.823091" lon="86.731066">
        <ele>3610.4</ele>
        <time>2022-10-22T04:48:46.000Z</time>
      </trkpt>
      <trkpt lat="27.823114" lon="86.731059">
        <ele>3611.2</ele>
        <time>2022-10-22T04:48:49.000Z</time>
      </trkpt>
      <trkpt lat="27.823133" lon="86.731059">
        <ele>3612</ele>
        <time>2022-10-22T04:48:51.000Z</time>
      </trkpt>
      <trkpt lat="27.823149" lon="86.731046">
        <ele>3612</ele>
        <time>2022-10-22T04:48:54.000Z</time>
      </trkpt>
      <trkpt lat="27.823162" lon="86.731066">
        <ele>3611.6</ele>
        <time>2022-10-22T04:48:59.000Z</time>
      </trkpt>
      <trkpt lat="27.823181" lon="86.731059">
        <ele>3613.2</ele>
        <time>2022-10-22T04:50:50.000Z</time>
      </trkpt>
      <trkpt lat="27.823203" lon="86.731034">
        <ele>3612.6</ele>
        <time>2022-10-22T04:50:52.000Z</time>
      </trkpt>
      <trkpt lat="27.823222" lon="86.731027">
        <ele>3612.6</ele>
        <time>2022-10-22T04:50:54.000Z</time>
      </trkpt>
      <trkpt lat="27.823242" lon="86.731021">
        <ele>3612.6</ele>
        <time>2022-10-22T04:50:56.000Z</time>
      </trkpt>
      <trkpt lat="27.823261" lon="86.731008">
        <ele>3612.4</ele>
        <time>2022-10-22T04:50:58.000Z</time>
      </trkpt>
      <trkpt lat="27.82328" lon="86.731002">
        <ele>3612.4</ele>
        <time>2022-10-22T04:51:00.000Z</time>
      </trkpt>
      <trkpt lat="27.823302" lon="86.730995">
        <ele>3612.8</ele>
        <time>2022-10-22T04:51:03.000Z</time>
      </trkpt>
      <trkpt lat="27.823322" lon="86.730989">
        <ele>3612.2</ele>
        <time>2022-10-22T04:51:05.000Z</time>
      </trkpt>
      <trkpt lat="27.823338" lon="86.73097">
        <ele>3612.2</ele>
        <time>2022-10-22T04:51:08.000Z</time>
      </trkpt>
      <trkpt lat="27.823357" lon="86.730963">
        <ele>3612.4</ele>
        <time>2022-10-22T04:51:11.000Z</time>
      </trkpt>
      <trkpt lat="27.823376" lon="86.730957">
        <ele>3612.2</ele>
        <time>2022-10-22T04:51:14.000Z</time>
      </trkpt>
      <trkpt lat="27.823386" lon="86.730925">
        <ele>3612</ele>
        <time>2022-10-22T04:51:19.000Z</time>
      </trkpt>
      <trkpt lat="27.823398" lon="86.730906">
        <ele>3611.8</ele>
        <time>2022-10-22T04:51:21.000Z</time>
      </trkpt>
      <trkpt lat="27.823408" lon="86.730874">
        <ele>3611.8</ele>
        <time>2022-10-22T04:51:23.000Z</time>
      </trkpt>
      <trkpt lat="27.823414" lon="86.730848">
        <ele>3611.2</ele>
        <time>2022-10-22T04:51:25.000Z</time>
      </trkpt>
      <trkpt lat="27.823424" lon="86.730829">
        <ele>3611</ele>
        <time>2022-10-22T04:51:27.000Z</time>
      </trkpt>
      <trkpt lat="27.82344" lon="86.73081">
        <ele>3610.8</ele>
        <time>2022-10-22T04:51:29.000Z</time>
      </trkpt>
      <trkpt lat="27.82345" lon="86.73079">
        <ele>3610.2</ele>
        <time>2022-10-22T04:51:32.000Z</time>
      </trkpt>
      <trkpt lat="27.823456" lon="86.730771">
        <ele>3610</ele>
        <time>2022-10-22T04:51:33.000Z</time>
      </trkpt>
      <trkpt lat="27.823469" lon="86.730752">
        <ele>3610</ele>
        <time>2022-10-22T04:51:36.000Z</time>
      </trkpt>
      <trkpt lat="27.823469" lon="86.730726">
        <ele>3610</ele>
        <time>2022-10-22T04:51:38.000Z</time>
      </trkpt>
      <trkpt lat="27.823478" lon="86.730707">
        <ele>3610</ele>
        <time>2022-10-22T04:51:40.000Z</time>
      </trkpt>
      <trkpt lat="27.823482" lon="86.730682">
        <ele>3610</ele>
        <time>2022-10-22T04:51:42.000Z</time>
      </trkpt>
      <trkpt lat="27.823494" lon="86.730662">
        <ele>3610</ele>
        <time>2022-10-22T04:51:45.000Z</time>
      </trkpt>
      <trkpt lat="27.823504" lon="86.730643">
        <ele>3610</ele>
        <time>2022-10-22T04:51:47.000Z</time>
      </trkpt>
      <trkpt lat="27.82351" lon="86.730624">
        <ele>3611</ele>
        <time>2022-10-22T04:51:49.000Z</time>
      </trkpt>
      <trkpt lat="27.82352" lon="86.730605">
        <ele>3610.8</ele>
        <time>2022-10-22T04:51:51.000Z</time>
      </trkpt>
      <trkpt lat="27.823526" lon="86.730573">
        <ele>3610.6</ele>
        <time>2022-10-22T04:51:56.000Z</time>
      </trkpt>
      <trkpt lat="27.823536" lon="86.730554">
        <ele>3610.8</ele>
        <time>2022-10-22T04:51:58.000Z</time>
      </trkpt>
      <trkpt lat="27.823536" lon="86.730528">
        <ele>3610.8</ele>
        <time>2022-10-22T04:52:00.000Z</time>
      </trkpt>
      <trkpt lat="27.823539" lon="86.73049">
        <ele>3610.8</ele>
        <time>2022-10-22T04:52:03.000Z</time>
      </trkpt>
      <trkpt lat="27.823546" lon="86.730451">
        <ele>3610.6</ele>
        <time>2022-10-22T04:52:07.000Z</time>
      </trkpt>
      <trkpt lat="27.823549" lon="86.730426">
        <ele>3610.6</ele>
        <time>2022-10-22T04:52:09.000Z</time>
      </trkpt>
      <trkpt lat="27.823555" lon="86.730387">
        <ele>3610</ele>
        <time>2022-10-22T04:52:11.000Z</time>
      </trkpt>
      <trkpt lat="27.823562" lon="86.730362">
        <ele>3610</ele>
        <time>2022-10-22T04:52:13.000Z</time>
      </trkpt>
      <trkpt lat="27.823571" lon="86.730336">
        <ele>3609.8</ele>
        <time>2022-10-22T04:52:15.000Z</time>
      </trkpt>
      <trkpt lat="27.823581" lon="86.730317">
        <ele>3609.6</ele>
        <time>2022-10-22T04:52:17.000Z</time>
      </trkpt>
      <trkpt lat="27.823603" lon="86.730291">
        <ele>3609.6</ele>
        <time>2022-10-22T04:52:20.000Z</time>
      </trkpt>
      <trkpt lat="27.823626" lon="86.730278">
        <ele>3609.8</ele>
        <time>2022-10-22T04:52:23.000Z</time>
      </trkpt>
      <trkpt lat="27.823648" lon="86.730266">
        <ele>3609.6</ele>
        <time>2022-10-22T04:52:26.000Z</time>
      </trkpt>
      <trkpt lat="27.823664" lon="86.730246">
        <ele>3609.6</ele>
        <time>2022-10-22T04:52:28.000Z</time>
      </trkpt>
      <trkpt lat="27.82368" lon="86.730234">
        <ele>3609.4</ele>
        <time>2022-10-22T04:52:30.000Z</time>
      </trkpt>
      <trkpt lat="27.823693" lon="86.730214">
        <ele>3609.2</ele>
        <time>2022-10-22T04:52:32.000Z</time>
      </trkpt>
      <trkpt lat="27.823709" lon="86.730202">
        <ele>3608.6</ele>
        <time>2022-10-22T04:52:34.000Z</time>
      </trkpt>
      <trkpt lat="27.823718" lon="86.730176">
        <ele>3608.4</ele>
        <time>2022-10-22T04:52:36.000Z</time>
      </trkpt>
      <trkpt lat="27.823738" lon="86.730157">
        <ele>3608.4</ele>
        <time>2022-10-22T04:52:39.000Z</time>
      </trkpt>
      <trkpt lat="27.823757" lon="86.730138">
        <ele>3608.8</ele>
        <time>2022-10-22T04:52:42.000Z</time>
      </trkpt>
      <trkpt lat="27.823776" lon="86.730112">
        <ele>3608.4</ele>
        <time>2022-10-22T04:52:45.000Z</time>
      </trkpt>
      <trkpt lat="27.823792" lon="86.730093">
        <ele>3608.4</ele>
        <time>2022-10-22T04:52:47.000Z</time>
      </trkpt>
      <trkpt lat="27.823811" lon="86.730074">
        <ele>3608.2</ele>
        <time>2022-10-22T04:52:50.000Z</time>
      </trkpt>
      <trkpt lat="27.823834" lon="86.730054">
        <ele>3608.2</ele>
        <time>2022-10-22T04:52:53.000Z</time>
      </trkpt>
      <trkpt lat="27.823853" lon="86.730042">
        <ele>3607.6</ele>
        <time>2022-10-22T04:52:56.000Z</time>
      </trkpt>
      <trkpt lat="27.823869" lon="86.730029">
        <ele>3607.2</ele>
        <time>2022-10-22T04:53:01.000Z</time>
      </trkpt>
      <trkpt lat="27.823875" lon="86.73001">
        <ele>3607.6</ele>
        <time>2022-10-22T04:53:13.000Z</time>
      </trkpt>
      <trkpt lat="27.823894" lon="86.72999">
        <ele>3606.8</ele>
        <time>2022-10-22T04:53:17.000Z</time>
      </trkpt>
      <trkpt lat="27.823917" lon="86.729978">
        <ele>3606.4</ele>
        <time>2022-10-22T04:53:20.000Z</time>
      </trkpt>
      <trkpt lat="27.823933" lon="86.729958">
        <ele>3606</ele>
        <time>2022-10-22T04:53:24.000Z</time>
      </trkpt>
      <trkpt lat="27.823946" lon="86.729933">
        <ele>3605.2</ele>
        <time>2022-10-22T04:53:27.000Z</time>
      </trkpt>
      <trkpt lat="27.823962" lon="86.72992">
        <ele>3605.2</ele>
        <time>2022-10-22T04:53:30.000Z</time>
      </trkpt>
      <trkpt lat="27.823987" lon="86.729894">
        <ele>3605.2</ele>
        <time>2022-10-22T04:53:34.000Z</time>
      </trkpt>
      <trkpt lat="27.824003" lon="86.729875">
        <ele>3605.2</ele>
        <time>2022-10-22T04:53:36.000Z</time>
      </trkpt>
      <trkpt lat="27.82401" lon="86.72985">
        <ele>3605.2</ele>
        <time>2022-10-22T04:53:37.000Z</time>
      </trkpt>
      <trkpt lat="27.824029" lon="86.72983">
        <ele>3605.2</ele>
        <time>2022-10-22T04:53:38.000Z</time>
      </trkpt>
      <trkpt lat="27.824048" lon="86.729818">
        <ele>3605.2</ele>
        <time>2022-10-22T04:53:40.000Z</time>
      </trkpt>
      <trkpt lat="27.824051" lon="86.729792">
        <ele>3605.4</ele>
        <time>2022-10-22T04:53:43.000Z</time>
      </trkpt>
      <trkpt lat="27.824058" lon="86.729773">
        <ele>3605.6</ele>
        <time>2022-10-22T04:53:45.000Z</time>
      </trkpt>
      <trkpt lat="27.824074" lon="86.729754">
        <ele>3605.8</ele>
        <time>2022-10-22T04:53:47.000Z</time>
      </trkpt>
      <trkpt lat="27.82408" lon="86.729734">
        <ele>3606</ele>
        <time>2022-10-22T04:53:48.000Z</time>
      </trkpt>
      <trkpt lat="27.82409" lon="86.729709">
        <ele>3606</ele>
        <time>2022-10-22T04:53:50.000Z</time>
      </trkpt>
      <trkpt lat="27.82409" lon="86.729683">
        <ele>3606.8</ele>
        <time>2022-10-22T04:53:53.000Z</time>
      </trkpt>
      <trkpt lat="27.824102" lon="86.729658">
        <ele>3607.6</ele>
        <time>2022-10-22T04:53:57.000Z</time>
      </trkpt>
      <trkpt lat="27.824115" lon="86.729638">
        <ele>3607.6</ele>
        <time>2022-10-22T04:53:59.000Z</time>
      </trkpt>
      <trkpt lat="27.824118" lon="86.729606">
        <ele>3608</ele>
        <time>2022-10-22T04:54:02.000Z</time>
      </trkpt>
      <trkpt lat="27.824134" lon="86.729594">
        <ele>3608.4</ele>
        <time>2022-10-22T04:54:05.000Z</time>
      </trkpt>
      <trkpt lat="27.824144" lon="86.729574">
        <ele>3608.6</ele>
        <time>2022-10-22T04:54:08.000Z</time>
      </trkpt>
      <trkpt lat="27.824157" lon="86.729555">
        <ele>3608.4</ele>
        <time>2022-10-22T04:54:12.000Z</time>
      </trkpt>
      <trkpt lat="27.824166" lon="86.729536">
        <ele>3607</ele>
        <time>2022-10-22T04:54:17.000Z</time>
      </trkpt>
      <trkpt lat="27.824176" lon="86.72951">
        <ele>3606.8</ele>
        <time>2022-10-22T04:54:22.000Z</time>
      </trkpt>
      <trkpt lat="27.824182" lon="86.729491">
        <ele>3606.2</ele>
        <time>2022-10-22T04:54:25.000Z</time>
      </trkpt>
      <trkpt lat="27.824198" lon="86.729478">
        <ele>3606</ele>
        <time>2022-10-22T04:54:27.000Z</time>
      </trkpt>
      <trkpt lat="27.824208" lon="86.729459">
        <ele>3605.4</ele>
        <time>2022-10-22T04:54:29.000Z</time>
      </trkpt>
      <trkpt lat="27.824227" lon="86.729421">
        <ele>3605.4</ele>
        <time>2022-10-22T04:54:31.000Z</time>
      </trkpt>
      <trkpt lat="27.824227" lon="86.729382">
        <ele>3605.2</ele>
        <time>2022-10-22T04:54:33.000Z</time>
      </trkpt>
      <trkpt lat="27.824246" lon="86.729357">
        <ele>3605.2</ele>
        <time>2022-10-22T04:54:35.000Z</time>
      </trkpt>
      <trkpt lat="27.824266" lon="86.729338">
        <ele>3604.8</ele>
        <time>2022-10-22T04:54:37.000Z</time>
      </trkpt>
      <trkpt lat="27.824285" lon="86.729325">
        <ele>3604.8</ele>
        <time>2022-10-22T04:54:39.000Z</time>
      </trkpt>
      <trkpt lat="27.824304" lon="86.729312">
        <ele>3604.6</ele>
        <time>2022-10-22T04:54:41.000Z</time>
      </trkpt>
      <trkpt lat="27.824317" lon="86.729293">
        <ele>3604.8</ele>
        <time>2022-10-22T04:54:43.000Z</time>
      </trkpt>
      <trkpt lat="27.824336" lon="86.729274">
        <ele>3604.2</ele>
        <time>2022-10-22T04:54:46.000Z</time>
      </trkpt>
      <trkpt lat="27.824358" lon="86.729261">
        <ele>3604.4</ele>
        <time>2022-10-22T04:54:51.000Z</time>
      </trkpt>
      <trkpt lat="27.824381" lon="86.729261">
        <ele>3604.4</ele>
        <time>2022-10-22T04:54:53.000Z</time>
      </trkpt>
      <trkpt lat="27.824406" lon="86.729254">
        <ele>3604</ele>
        <time>2022-10-22T04:54:58.000Z</time>
      </trkpt>
      <trkpt lat="27.824432" lon="86.729216">
        <ele>3603.6</ele>
        <time>2022-10-22T04:55:03.000Z</time>
      </trkpt>
      <trkpt lat="27.824454" lon="86.72921">
        <ele>3603.2</ele>
        <time>2022-10-22T04:55:06.000Z</time>
      </trkpt>
      <trkpt lat="27.824477" lon="86.729197">
        <ele>3602.6</ele>
        <time>2022-10-22T04:55:09.000Z</time>
      </trkpt>
      <trkpt lat="27.824496" lon="86.729178">
        <ele>3602</ele>
        <time>2022-10-22T04:55:12.000Z</time>
      </trkpt>
      <trkpt lat="27.824515" lon="86.729171">
        <ele>3601.2</ele>
        <time>2022-10-22T04:55:14.000Z</time>
      </trkpt>
      <trkpt lat="27.824538" lon="86.729158">
        <ele>3600.6</ele>
        <time>2022-10-22T04:55:16.000Z</time>
      </trkpt>
      <trkpt lat="27.824557" lon="86.729158">
        <ele>3600.2</ele>
        <time>2022-10-22T04:55:19.000Z</time>
      </trkpt>
      <trkpt lat="27.824573" lon="86.729139">
        <ele>3600.8</ele>
        <time>2022-10-22T04:55:21.000Z</time>
      </trkpt>
      <trkpt lat="27.824582" lon="86.72912">
        <ele>3600.6</ele>
        <time>2022-10-22T04:55:24.000Z</time>
      </trkpt>
      <trkpt lat="27.824586" lon="86.729094">
        <ele>3601</ele>
        <time>2022-10-22T04:55:27.000Z</time>
      </trkpt>
      <trkpt lat="27.824592" lon="86.729062">
        <ele>3600.6</ele>
        <time>2022-10-22T04:55:29.000Z</time>
      </trkpt>
      <trkpt lat="27.824602" lon="86.729043">
        <ele>3599.8</ele>
        <time>2022-10-22T04:55:31.000Z</time>
      </trkpt>
      <trkpt lat="27.824608" lon="86.729024">
        <ele>3599.8</ele>
        <time>2022-10-22T04:55:32.000Z</time>
      </trkpt>
      <trkpt lat="27.824646" lon="86.729005">
        <ele>3601</ele>
        <time>2022-10-22T04:55:36.000Z</time>
      </trkpt>
      <trkpt lat="27.824672" lon="86.728998">
        <ele>3601.4</ele>
        <time>2022-10-22T04:55:38.000Z</time>
      </trkpt>
      <trkpt lat="27.824698" lon="86.728986">
        <ele>3601.4</ele>
        <time>2022-10-22T04:55:41.000Z</time>
      </trkpt>
      <trkpt lat="27.824726" lon="86.728979">
        <ele>3601.6</ele>
        <time>2022-10-22T04:55:43.000Z</time>
      </trkpt>
      <trkpt lat="27.824749" lon="86.728979">
        <ele>3601</ele>
        <time>2022-10-22T04:55:45.000Z</time>
      </trkpt>
      <trkpt lat="27.824774" lon="86.728998">
        <ele>3600.6</ele>
        <time>2022-10-22T04:55:48.000Z</time>
      </trkpt>
      <trkpt lat="27.824794" lon="86.729011">
        <ele>3600.4</ele>
        <time>2022-10-22T04:55:52.000Z</time>
      </trkpt>
      <trkpt lat="27.824813" lon="86.729011">
        <ele>3600.4</ele>
        <time>2022-10-22T04:55:54.000Z</time>
      </trkpt>
      <trkpt lat="27.824829" lon="86.729024">
        <ele>3599.8</ele>
        <time>2022-10-22T04:55:57.000Z</time>
      </trkpt>
      <trkpt lat="27.824848" lon="86.729043">
        <ele>3599</ele>
        <time>2022-10-22T04:56:01.000Z</time>
      </trkpt>
      <trkpt lat="27.824867" lon="86.729043">
        <ele>3598.4</ele>
        <time>2022-10-22T04:56:03.000Z</time>
      </trkpt>
      <trkpt lat="27.824883" lon="86.729056">
        <ele>3598</ele>
        <time>2022-10-22T04:56:05.000Z</time>
      </trkpt>
      <trkpt lat="27.824909" lon="86.729075">
        <ele>3598</ele>
        <time>2022-10-22T04:56:07.000Z</time>
      </trkpt>
      <trkpt lat="27.824925" lon="86.729094">
        <ele>3598</ele>
        <time>2022-10-22T04:56:10.000Z</time>
      </trkpt>
      <trkpt lat="27.824931" lon="86.729114">
        <ele>3597.8</ele>
        <time>2022-10-22T04:56:12.000Z</time>
      </trkpt>
      <trkpt lat="27.82495" lon="86.729126">
        <ele>3597.6</ele>
        <time>2022-10-22T04:56:15.000Z</time>
      </trkpt>
      <trkpt lat="27.824966" lon="86.729139">
        <ele>3597.8</ele>
        <time>2022-10-22T04:56:17.000Z</time>
      </trkpt>
      <trkpt lat="27.824982" lon="86.729152">
        <ele>3597.6</ele>
        <time>2022-10-22T04:56:19.000Z</time>
      </trkpt>
      <trkpt lat="27.824995" lon="86.729171">
        <ele>3597.6</ele>
        <time>2022-10-22T04:56:21.000Z</time>
      </trkpt>
      <trkpt lat="27.825002" lon="86.729197">
        <ele>3597.6</ele>
        <time>2022-10-22T04:56:23.000Z</time>
      </trkpt>
      <trkpt lat="27.825018" lon="86.729216">
        <ele>3597.6</ele>
        <time>2022-10-22T04:56:25.000Z</time>
      </trkpt>
      <trkpt lat="27.825034" lon="86.729235">
        <ele>3597.6</ele>
        <time>2022-10-22T04:56:27.000Z</time>
      </trkpt>
      <trkpt lat="27.825053" lon="86.729242">
        <ele>3597.6</ele>
        <time>2022-10-22T04:56:29.000Z</time>
      </trkpt>
      <trkpt lat="27.825059" lon="86.729274">
        <ele>3597.6</ele>
        <time>2022-10-22T04:56:31.000Z</time>
      </trkpt>
      <trkpt lat="27.825062" lon="86.729299">
        <ele>3598.4</ele>
        <time>2022-10-22T04:56:33.000Z</time>
      </trkpt>
      <trkpt lat="27.825062" lon="86.729331">
        <ele>3598.4</ele>
        <time>2022-10-22T04:56:35.000Z</time>
      </trkpt>
      <trkpt lat="27.825062" lon="86.729357">
        <ele>3598.4</ele>
        <time>2022-10-22T04:56:37.000Z</time>
      </trkpt>
      <trkpt lat="27.825062" lon="86.729382">
        <ele>3598.4</ele>
        <time>2022-10-22T04:56:40.000Z</time>
      </trkpt>
      <trkpt lat="27.825069" lon="86.729408">
        <ele>3598</ele>
        <time>2022-10-22T04:56:43.000Z</time>
      </trkpt>
      <trkpt lat="27.825078" lon="86.72944">
        <ele>3598</ele>
        <time>2022-10-22T04:57:18.000Z</time>
      </trkpt>
      <trkpt lat="27.825082" lon="86.729472">
        <ele>3598</ele>
        <time>2022-10-22T04:57:20.000Z</time>
      </trkpt>
      <trkpt lat="27.825082" lon="86.729498">
        <ele>3597.4</ele>
        <time>2022-10-22T04:57:22.000Z</time>
      </trkpt>
      <trkpt lat="27.825082" lon="86.729523">
        <ele>3597.2</ele>
        <time>2022-10-22T04:57:24.000Z</time>
      </trkpt>
      <trkpt lat="27.825098" lon="86.729555">
        <ele>3596.8</ele>
        <time>2022-10-22T04:57:27.000Z</time>
      </trkpt>
      <trkpt lat="27.825104" lon="86.729574">
        <ele>3596.6</ele>
        <time>2022-10-22T04:57:30.000Z</time>
      </trkpt>
      <trkpt lat="27.82512" lon="86.729594">
        <ele>3596.2</ele>
        <time>2022-10-22T04:57:32.000Z</time>
      </trkpt>
      <trkpt lat="27.825117" lon="86.729619">
        <ele>3595.8</ele>
        <time>2022-10-22T04:57:36.000Z</time>
      </trkpt>
      <trkpt lat="27.825123" lon="86.729645">
        <ele>3595.6</ele>
        <time>2022-10-22T04:57:38.000Z</time>
      </trkpt>
      <trkpt lat="27.825133" lon="86.729677">
        <ele>3595.2</ele>
        <time>2022-10-22T04:57:40.000Z</time>
      </trkpt>
      <trkpt lat="27.825142" lon="86.729696">
        <ele>3594.8</ele>
        <time>2022-10-22T04:57:45.000Z</time>
      </trkpt>
      <trkpt lat="27.825149" lon="86.729715">
        <ele>3594.8</ele>
        <time>2022-10-22T04:57:47.000Z</time>
      </trkpt>
      <trkpt lat="27.825155" lon="86.729741">
        <ele>3594.6</ele>
        <time>2022-10-22T04:57:49.000Z</time>
      </trkpt>
      <trkpt lat="27.825162" lon="86.729766">
        <ele>3594.2</ele>
        <time>2022-10-22T04:57:51.000Z</time>
      </trkpt>
      <trkpt lat="27.825168" lon="86.729792">
        <ele>3594</ele>
        <time>2022-10-22T04:57:54.000Z</time>
      </trkpt>
      <trkpt lat="27.825174" lon="86.729811">
        <ele>3593.4</ele>
        <time>2022-10-22T04:57:56.000Z</time>
      </trkpt>
      <trkpt lat="27.825178" lon="86.729843">
        <ele>3593</ele>
        <time>2022-10-22T04:57:58.000Z</time>
      </trkpt>
      <trkpt lat="27.825187" lon="86.729869">
        <ele>3592.8</ele>
        <time>2022-10-22T04:58:01.000Z</time>
      </trkpt>
      <trkpt lat="27.8252" lon="86.729888">
        <ele>3592.4</ele>
        <time>2022-10-22T04:58:03.000Z</time>
      </trkpt>
      <trkpt lat="27.825206" lon="86.729914">
        <ele>3592.2</ele>
        <time>2022-10-22T04:58:05.000Z</time>
      </trkpt>
      <trkpt lat="27.825213" lon="86.729933">
        <ele>3592.2</ele>
        <time>2022-10-22T04:58:07.000Z</time>
      </trkpt>
      <trkpt lat="27.825219" lon="86.729965">
        <ele>3592</ele>
        <time>2022-10-22T04:58:09.000Z</time>
      </trkpt>
      <trkpt lat="27.825226" lon="86.72999">
        <ele>3592</ele>
        <time>2022-10-22T04:58:11.000Z</time>
      </trkpt>
      <trkpt lat="27.825238" lon="86.730016">
        <ele>3592</ele>
        <time>2022-10-22T04:58:14.000Z</time>
      </trkpt>
      <trkpt lat="27.825242" lon="86.730042">
        <ele>3591.8</ele>
        <time>2022-10-22T04:58:16.000Z</time>
      </trkpt>
      <trkpt lat="27.825245" lon="86.730074">
        <ele>3592</ele>
        <time>2022-10-22T04:58:18.000Z</time>
      </trkpt>
      <trkpt lat="27.825254" lon="86.730093">
        <ele>3592</ele>
        <time>2022-10-22T04:58:20.000Z</time>
      </trkpt>
      <trkpt lat="27.825261" lon="86.730112">
        <ele>3592.4</ele>
        <time>2022-10-22T04:58:21.000Z</time>
      </trkpt>
      <trkpt lat="27.825261" lon="86.73015">
        <ele>3592.8</ele>
        <time>2022-10-22T04:58:24.000Z</time>
      </trkpt>
      <trkpt lat="27.825261" lon="86.730189">
        <ele>3593.2</ele>
        <time>2022-10-22T04:58:27.000Z</time>
      </trkpt>
      <trkpt lat="27.825254" lon="86.730208">
        <ele>3593.6</ele>
        <time>2022-10-22T04:58:29.000Z</time>
      </trkpt>
      <trkpt lat="27.825251" lon="86.730234">
        <ele>3594</ele>
        <time>2022-10-22T04:58:31.000Z</time>
      </trkpt>
      <trkpt lat="27.825264" lon="86.730253">
        <ele>3594.6</ele>
        <time>2022-10-22T04:58:34.000Z</time>
      </trkpt>
      <trkpt lat="27.82528" lon="86.730272">
        <ele>3594.6</ele>
        <time>2022-10-22T04:58:36.000Z</time>
      </trkpt>
      <trkpt lat="27.825309" lon="86.730272">
        <ele>3594.8</ele>
        <time>2022-10-22T04:58:38.000Z</time>
      </trkpt>
      <trkpt lat="27.825331" lon="86.730272">
        <ele>3595.2</ele>
        <time>2022-10-22T04:58:39.000Z</time>
      </trkpt>
      <trkpt lat="27.82536" lon="86.730285">
        <ele>3595.4</ele>
        <time>2022-10-22T04:58:41.000Z</time>
      </trkpt>
      <trkpt lat="27.825389" lon="86.730317">
        <ele>3595.6</ele>
        <time>2022-10-22T04:58:44.000Z</time>
      </trkpt>
      <trkpt lat="27.825408" lon="86.73033">
        <ele>3595.4</ele>
        <time>2022-10-22T04:58:47.000Z</time>
      </trkpt>
      <trkpt lat="27.825414" lon="86.730349">
        <ele>3596</ele>
        <time>2022-10-22T04:58:55.000Z</time>
      </trkpt>
      <trkpt lat="27.82543" lon="86.730362">
        <ele>3595.8</ele>
        <time>2022-10-22T04:59:07.000Z</time>
      </trkpt>
      <trkpt lat="27.82545" lon="86.730374">
        <ele>3595.8</ele>
        <time>2022-10-22T04:59:11.000Z</time>
      </trkpt>
      <trkpt lat="27.825453" lon="86.7304">
        <ele>3596.2</ele>
        <time>2022-10-22T04:59:15.000Z</time>
      </trkpt>
      <trkpt lat="27.825478" lon="86.730413">
        <ele>3596.2</ele>
        <time>2022-10-22T04:59:20.000Z</time>
      </trkpt>
      <trkpt lat="27.825498" lon="86.730432">
        <ele>3596.4</ele>
        <time>2022-10-22T04:59:23.000Z</time>
      </trkpt>
      <trkpt lat="27.825504" lon="86.730464">
        <ele>3596.2</ele>
        <time>2022-10-22T04:59:26.000Z</time>
      </trkpt>
      <trkpt lat="27.825488" lon="86.73049">
        <ele>3596.2</ele>
        <time>2022-10-22T05:00:25.000Z</time>
      </trkpt>
      <trkpt lat="27.825494" lon="86.730515">
        <ele>3596.2</ele>
        <time>2022-10-22T05:00:26.000Z</time>
      </trkpt>
      <trkpt lat="27.825498" lon="86.730554">
        <ele>3596.2</ele>
        <time>2022-10-22T05:00:29.000Z</time>
      </trkpt>
      <trkpt lat="27.825494" lon="86.730592">
        <ele>3596.4</ele>
        <time>2022-10-22T05:00:32.000Z</time>
      </trkpt>
      <trkpt lat="27.825501" lon="86.730611">
        <ele>3596.4</ele>
        <time>2022-10-22T05:00:35.000Z</time>
      </trkpt>
      <trkpt lat="27.82551" lon="86.73063">
        <ele>3596</ele>
        <time>2022-10-22T05:00:37.000Z</time>
      </trkpt>
      <trkpt lat="27.825517" lon="86.73065">
        <ele>3596.2</ele>
        <time>2022-10-22T05:00:39.000Z</time>
      </trkpt>
      <trkpt lat="27.82551" lon="86.730669">
        <ele>3596.2</ele>
        <time>2022-10-22T05:00:41.000Z</time>
      </trkpt>
      <trkpt lat="27.825517" lon="86.730707">
        <ele>3596.2</ele>
        <time>2022-10-22T05:00:45.000Z</time>
      </trkpt>
      <trkpt lat="27.825526" lon="86.730726">
        <ele>3596</ele>
        <time>2022-10-22T05:00:48.000Z</time>
      </trkpt>
      <trkpt lat="27.825549" lon="86.730733">
        <ele>3595.4</ele>
        <time>2022-10-22T05:00:51.000Z</time>
      </trkpt>
      <trkpt lat="27.825555" lon="86.730758">
        <ele>3595.4</ele>
        <time>2022-10-22T05:00:53.000Z</time>
      </trkpt>
      <trkpt lat="27.825568" lon="86.730784">
        <ele>3594.8</ele>
        <time>2022-10-22T05:00:56.000Z</time>
      </trkpt>
      <trkpt lat="27.825578" lon="86.730803">
        <ele>3594.6</ele>
        <time>2022-10-22T05:00:57.000Z</time>
      </trkpt>
      <trkpt lat="27.825574" lon="86.730835">
        <ele>3594.2</ele>
        <time>2022-10-22T05:00:59.000Z</time>
      </trkpt>
      <trkpt lat="27.825587" lon="86.730861">
        <ele>3593.8</ele>
        <time>2022-10-22T05:01:02.000Z</time>
      </trkpt>
      <trkpt lat="27.825594" lon="86.73088">
        <ele>3593.4</ele>
        <time>2022-10-22T05:01:06.000Z</time>
      </trkpt>
      <trkpt lat="27.82559" lon="86.730906">
        <ele>3593</ele>
        <time>2022-10-22T05:01:10.000Z</time>
      </trkpt>
      <trkpt lat="27.82561" lon="86.730912">
        <ele>3592.6</ele>
        <time>2022-10-22T05:01:15.000Z</time>
      </trkpt>
      <trkpt lat="27.825629" lon="86.730912">
        <ele>3592.4</ele>
        <time>2022-10-22T05:01:19.000Z</time>
      </trkpt>
      <trkpt lat="27.825648" lon="86.730918">
        <ele>3592.2</ele>
        <time>2022-10-22T05:01:21.000Z</time>
      </trkpt>
      <trkpt lat="27.825667" lon="86.730918">
        <ele>3592.2</ele>
        <time>2022-10-22T05:01:23.000Z</time>
      </trkpt>
      <trkpt lat="27.825686" lon="86.730918">
        <ele>3591.4</ele>
        <time>2022-10-22T05:01:26.000Z</time>
      </trkpt>
      <trkpt lat="27.825709" lon="86.730912">
        <ele>3591.2</ele>
        <time>2022-10-22T05:01:29.000Z</time>
      </trkpt>
      <trkpt lat="27.825734" lon="86.730912">
        <ele>3590.4</ele>
        <time>2022-10-22T05:01:32.000Z</time>
      </trkpt>
      <trkpt lat="27.825757" lon="86.730918">
        <ele>3590.4</ele>
        <time>2022-10-22T05:01:34.000Z</time>
      </trkpt>
      <trkpt lat="27.825773" lon="86.730931">
        <ele>3590</ele>
        <time>2022-10-22T05:01:37.000Z</time>
      </trkpt>
      <trkpt lat="27.825795" lon="86.73095">
        <ele>3590</ele>
        <time>2022-10-22T05:01:39.000Z</time>
      </trkpt>
      <trkpt lat="27.825802" lon="86.730989">
        <ele>3590</ele>
        <time>2022-10-22T05:01:43.000Z</time>
      </trkpt>
      <trkpt lat="27.825814" lon="86.731008">
        <ele>3589.4</ele>
        <time>2022-10-22T05:01:45.000Z</time>
      </trkpt>
      <trkpt lat="27.825821" lon="86.731027">
        <ele>3589.4</ele>
        <time>2022-10-22T05:01:46.000Z</time>
      </trkpt>
      <trkpt lat="27.82583" lon="86.731046">
        <ele>3589.2</ele>
        <time>2022-10-22T05:01:48.000Z</time>
      </trkpt>
      <trkpt lat="27.825846" lon="86.731066">
        <ele>3589</ele>
        <time>2022-10-22T05:01:50.000Z</time>
      </trkpt>
      <trkpt lat="27.825853" lon="86.731085">
        <ele>3588.8</ele>
        <time>2022-10-22T05:01:51.000Z</time>
      </trkpt>
      <trkpt lat="27.825862" lon="86.731104">
        <ele>3588.6</ele>
        <time>2022-10-22T05:01:53.000Z</time>
      </trkpt>
      <trkpt lat="27.825872" lon="86.731123">
        <ele>3588.2</ele>
        <time>2022-10-22T05:01:55.000Z</time>
      </trkpt>
      <trkpt lat="27.825878" lon="86.731149">
        <ele>3587.6</ele>
        <time>2022-10-22T05:01:57.000Z</time>
      </trkpt>
      <trkpt lat="27.825878" lon="86.731181">
        <ele>3587</ele>
        <time>2022-10-22T05:02:01.000Z</time>
      </trkpt>
      <trkpt lat="27.825898" lon="86.731194">
        <ele>3586.8</ele>
        <time>2022-10-22T05:02:04.000Z</time>
      </trkpt>
      <trkpt lat="27.825914" lon="86.731219">
        <ele>3586.6</ele>
        <time>2022-10-22T05:02:07.000Z</time>
      </trkpt>
      <trkpt lat="27.825926" lon="86.731238">
        <ele>3586.6</ele>
        <time>2022-10-22T05:02:10.000Z</time>
      </trkpt>
      <trkpt lat="27.825933" lon="86.731258">
        <ele>3586.6</ele>
        <time>2022-10-22T05:02:11.000Z</time>
      </trkpt>
      <trkpt lat="27.825939" lon="86.731277">
        <ele>3586.4</ele>
        <time>2022-10-22T05:02:13.000Z</time>
      </trkpt>
      <trkpt lat="27.825942" lon="86.731302">
        <ele>3585.6</ele>
        <time>2022-10-22T05:02:15.000Z</time>
      </trkpt>
      <trkpt lat="27.825936" lon="86.731328">
        <ele>3585.4</ele>
        <time>2022-10-22T05:02:18.000Z</time>
      </trkpt>
      <trkpt lat="27.825933" lon="86.731354">
        <ele>3585.4</ele>
        <time>2022-10-22T05:02:20.000Z</time>
      </trkpt>
      <trkpt lat="27.82593" lon="86.731386">
        <ele>3585.4</ele>
        <time>2022-10-22T05:02:22.000Z</time>
      </trkpt>
      <trkpt lat="27.825914" lon="86.731405">
        <ele>3585.4</ele>
        <time>2022-10-22T05:02:25.000Z</time>
      </trkpt>
      <trkpt lat="27.825898" lon="86.731418">
        <ele>3585.2</ele>
        <time>2022-10-22T05:02:27.000Z</time>
      </trkpt>
      <trkpt lat="27.825888" lon="86.731437">
        <ele>3584.6</ele>
        <time>2022-10-22T05:02:30.000Z</time>
      </trkpt>
      <trkpt lat="27.825885" lon="86.731462">
        <ele>3584.6</ele>
        <time>2022-10-22T05:02:32.000Z</time>
      </trkpt>
      <trkpt lat="27.825882" lon="86.731488">
        <ele>3584.4</ele>
        <time>2022-10-22T05:02:35.000Z</time>
      </trkpt>
      <trkpt lat="27.825878" lon="86.731514">
        <ele>3584.6</ele>
        <time>2022-10-22T05:02:37.000Z</time>
      </trkpt>
      <trkpt lat="27.825866" lon="86.731539">
        <ele>3584.6</ele>
        <time>2022-10-22T05:02:41.000Z</time>
      </trkpt>
      <trkpt lat="27.825856" lon="86.731558">
        <ele>3584.4</ele>
        <time>2022-10-22T05:02:46.000Z</time>
      </trkpt>
      <trkpt lat="27.825846" lon="86.731578">
        <ele>3584</ele>
        <time>2022-10-22T05:02:49.000Z</time>
      </trkpt>
      <trkpt lat="27.825827" lon="86.73159">
        <ele>3583.4</ele>
        <time>2022-10-22T05:02:54.000Z</time>
      </trkpt>
      <trkpt lat="27.825808" lon="86.73159">
        <ele>3583.2</ele>
        <time>2022-10-22T05:02:58.000Z</time>
      </trkpt>
      <trkpt lat="27.825792" lon="86.731616">
        <ele>3582.4</ele>
        <time>2022-10-22T05:03:02.000Z</time>
      </trkpt>
      <trkpt lat="27.825782" lon="86.731635">
        <ele>3582.2</ele>
        <time>2022-10-22T05:03:05.000Z</time>
      </trkpt>
      <trkpt lat="27.825773" lon="86.731654">
        <ele>3581.8</ele>
        <time>2022-10-22T05:03:07.000Z</time>
      </trkpt>
      <trkpt lat="27.825763" lon="86.73168">
        <ele>3581</ele>
        <time>2022-10-22T05:03:10.000Z</time>
      </trkpt>
      <trkpt lat="27.82575" lon="86.731699">
        <ele>3580.2</ele>
        <time>2022-10-22T05:03:13.000Z</time>
      </trkpt>
      <trkpt lat="27.825738" lon="86.731718">
        <ele>3580</ele>
        <time>2022-10-22T05:03:16.000Z</time>
      </trkpt>
      <trkpt lat="27.825734" lon="86.731744">
        <ele>3579.4</ele>
        <time>2022-10-22T05:03:18.000Z</time>
      </trkpt>
      <trkpt lat="27.825725" lon="86.731763">
        <ele>3578.8</ele>
        <time>2022-10-22T05:03:21.000Z</time>
      </trkpt>
      <trkpt lat="27.825725" lon="86.731789">
        <ele>3578.2</ele>
        <time>2022-10-22T05:03:24.000Z</time>
      </trkpt>
      <trkpt lat="27.825715" lon="86.731814">
        <ele>3577</ele>
        <time>2022-10-22T05:03:27.000Z</time>
      </trkpt>
      <trkpt lat="27.825706" lon="86.731834">
        <ele>3576.4</ele>
        <time>2022-10-22T05:03:30.000Z</time>
      </trkpt>
      <trkpt lat="27.825696" lon="86.731853">
        <ele>3576</ele>
        <time>2022-10-22T05:03:32.000Z</time>
      </trkpt>
      <trkpt lat="27.825696" lon="86.731885">
        <ele>3575.2</ele>
        <time>2022-10-22T05:03:35.000Z</time>
      </trkpt>
      <trkpt lat="27.825699" lon="86.73191">
        <ele>3575.4</ele>
        <time>2022-10-22T05:03:39.000Z</time>
      </trkpt>
      <trkpt lat="27.825715" lon="86.731923">
        <ele>3575</ele>
        <time>2022-10-22T05:03:42.000Z</time>
      </trkpt>
      <trkpt lat="27.825725" lon="86.731949">
        <ele>3574.6</ele>
        <time>2022-10-22T05:03:45.000Z</time>
      </trkpt>
      <trkpt lat="27.825725" lon="86.731974">
        <ele>3574.4</ele>
        <time>2022-10-22T05:03:48.000Z</time>
      </trkpt>
      <trkpt lat="27.825725" lon="86.732">
        <ele>3574</ele>
        <time>2022-10-22T05:03:51.000Z</time>
      </trkpt>
      <trkpt lat="27.825725" lon="86.732026">
        <ele>3573.8</ele>
        <time>2022-10-22T05:03:54.000Z</time>
      </trkpt>
      <trkpt lat="27.825728" lon="86.732051">
        <ele>3573.4</ele>
        <time>2022-10-22T05:03:58.000Z</time>
      </trkpt>
      <trkpt lat="27.825738" lon="86.73207">
        <ele>3573</ele>
        <time>2022-10-22T05:04:00.000Z</time>
      </trkpt>
      <trkpt lat="27.825741" lon="86.732096">
        <ele>3572.6</ele>
        <time>2022-10-22T05:04:02.000Z</time>
      </trkpt>
      <trkpt lat="27.825747" lon="86.732122">
        <ele>3572.4</ele>
        <time>2022-10-22T05:04:05.000Z</time>
      </trkpt>
      <trkpt lat="27.825754" lon="86.732147">
        <ele>3572.2</ele>
        <time>2022-10-22T05:04:07.000Z</time>
      </trkpt>
      <trkpt lat="27.82575" lon="86.732173">
        <ele>3571.8</ele>
        <time>2022-10-22T05:04:09.000Z</time>
      </trkpt>
      <trkpt lat="27.825754" lon="86.732198">
        <ele>3571.8</ele>
        <time>2022-10-22T05:04:13.000Z</time>
      </trkpt>
      <trkpt lat="27.825763" lon="86.732218">
        <ele>3571.8</ele>
        <time>2022-10-22T05:04:15.000Z</time>
      </trkpt>
      <trkpt lat="27.82576" lon="86.732256">
        <ele>3571.4</ele>
        <time>2022-10-22T05:04:37.000Z</time>
      </trkpt>
      <trkpt lat="27.825741" lon="86.732275">
        <ele>3570.8</ele>
        <time>2022-10-22T05:04:39.000Z</time>
      </trkpt>
      <trkpt lat="27.825731" lon="86.732294">
        <ele>3570.2</ele>
        <time>2022-10-22T05:04:40.000Z</time>
      </trkpt>
      <trkpt lat="27.825722" lon="86.73232">
        <ele>3569.2</ele>
        <time>2022-10-22T05:04:42.000Z</time>
      </trkpt>
      <trkpt lat="27.825715" lon="86.732352">
        <ele>3569.4</ele>
        <time>2022-10-22T05:04:44.000Z</time>
      </trkpt>
      <trkpt lat="27.825706" lon="86.732378">
        <ele>3569</ele>
        <time>2022-10-22T05:04:46.000Z</time>
      </trkpt>
      <trkpt lat="27.825686" lon="86.73241">
        <ele>3568.4</ele>
        <time>2022-10-22T05:04:49.000Z</time>
      </trkpt>
      <trkpt lat="27.825686" lon="86.732442">
        <ele>3568.2</ele>
        <time>2022-10-22T05:04:52.000Z</time>
      </trkpt>
      <trkpt lat="27.825686" lon="86.732467">
        <ele>3568</ele>
        <time>2022-10-22T05:04:57.000Z</time>
      </trkpt>
      <trkpt lat="27.825702" lon="86.732518">
        <ele>3568</ele>
        <time>2022-10-22T05:05:03.000Z</time>
      </trkpt>
      <trkpt lat="27.825706" lon="86.732544">
        <ele>3568.4</ele>
        <time>2022-10-22T05:05:06.000Z</time>
      </trkpt>
      <trkpt lat="27.825702" lon="86.73257">
        <ele>3568.6</ele>
        <time>2022-10-22T05:05:08.000Z</time>
      </trkpt>
      <trkpt lat="27.825718" lon="86.732589">
        <ele>3568.6</ele>
        <time>2022-10-22T05:05:10.000Z</time>
      </trkpt>
      <trkpt lat="27.825718" lon="86.732621">
        <ele>3568.6</ele>
        <time>2022-10-22T05:05:13.000Z</time>
      </trkpt>
      <trkpt lat="27.825725" lon="86.73264">
        <ele>3568.6</ele>
        <time>2022-10-22T05:05:15.000Z</time>
      </trkpt>
      <trkpt lat="27.825718" lon="86.732666">
        <ele>3568.8</ele>
        <time>2022-10-22T05:05:17.000Z</time>
      </trkpt>
      <trkpt lat="27.825706" lon="86.732691">
        <ele>3569.4</ele>
        <time>2022-10-22T05:05:20.000Z</time>
      </trkpt>
      <trkpt lat="27.825686" lon="86.732736">
        <ele>3569.4</ele>
        <time>2022-10-22T05:05:24.000Z</time>
      </trkpt>
      <trkpt lat="27.825661" lon="86.732768">
        <ele>3569.4</ele>
        <time>2022-10-22T05:05:27.000Z</time>
      </trkpt>
      <trkpt lat="27.825645" lon="86.732781">
        <ele>3569.4</ele>
        <time>2022-10-22T05:05:29.000Z</time>
      </trkpt>
      <trkpt lat="27.825635" lon="86.732806">
        <ele>3569.4</ele>
        <time>2022-10-22T05:05:32.000Z</time>
      </trkpt>
      <trkpt lat="27.825619" lon="86.732826">
        <ele>3569.4</ele>
        <time>2022-10-22T05:05:35.000Z</time>
      </trkpt>
      <trkpt lat="27.825597" lon="86.732858">
        <ele>3568.4</ele>
        <time>2022-10-22T05:05:38.000Z</time>
      </trkpt>
      <trkpt lat="27.825584" lon="86.73289">
        <ele>3567.4</ele>
        <time>2022-10-22T05:05:41.000Z</time>
      </trkpt>
      <trkpt lat="27.825574" lon="86.732909">
        <ele>3567.2</ele>
        <time>2022-10-22T05:05:43.000Z</time>
      </trkpt>
      <trkpt lat="27.825574" lon="86.732941">
        <ele>3567.2</ele>
        <time>2022-10-22T05:05:45.000Z</time>
      </trkpt>
      <trkpt lat="27.825578" lon="86.732966">
        <ele>3566.8</ele>
        <time>2022-10-22T05:05:47.000Z</time>
      </trkpt>
      <trkpt lat="27.825574" lon="86.733005">
        <ele>3566.8</ele>
        <time>2022-10-22T05:05:50.000Z</time>
      </trkpt>
      <trkpt lat="27.825558" lon="86.733024">
        <ele>3566.4</ele>
        <time>2022-10-22T05:05:52.000Z</time>
      </trkpt>
      <trkpt lat="27.825565" lon="86.733056">
        <ele>3566.2</ele>
        <time>2022-10-22T05:05:54.000Z</time>
      </trkpt>
      <trkpt lat="27.825558" lon="86.733075">
        <ele>3566.2</ele>
        <time>2022-10-22T05:05:56.000Z</time>
      </trkpt>
      <trkpt lat="27.825549" lon="86.733107">
        <ele>3566.2</ele>
        <time>2022-10-22T05:05:58.000Z</time>
      </trkpt>
      <trkpt lat="27.825549" lon="86.733139">
        <ele>3566</ele>
        <time>2022-10-22T05:06:00.000Z</time>
      </trkpt>
      <trkpt lat="27.825536" lon="86.733165">
        <ele>3566.4</ele>
        <time>2022-10-22T05:06:03.000Z</time>
      </trkpt>
      <trkpt lat="27.82553" lon="86.733184">
        <ele>3565.8</ele>
        <time>2022-10-22T05:06:05.000Z</time>
      </trkpt>
      <trkpt lat="27.82551" lon="86.733203">
        <ele>3565.4</ele>
        <time>2022-10-22T05:06:07.000Z</time>
      </trkpt>
      <trkpt lat="27.825501" lon="86.733222">
        <ele>3565.2</ele>
        <time>2022-10-22T05:06:09.000Z</time>
      </trkpt>
      <trkpt lat="27.825504" lon="86.733248">
        <ele>3565</ele>
        <time>2022-10-22T05:06:11.000Z</time>
      </trkpt>
      <trkpt lat="27.825504" lon="86.733274">
        <ele>3564.2</ele>
        <time>2022-10-22T05:06:13.000Z</time>
      </trkpt>
      <trkpt lat="27.825504" lon="86.733306">
        <ele>3564.2</ele>
        <time>2022-10-22T05:06:16.000Z</time>
      </trkpt>
      <trkpt lat="27.825507" lon="86.733331">
        <ele>3564.4</ele>
        <time>2022-10-22T05:06:18.000Z</time>
      </trkpt>
      <trkpt lat="27.825507" lon="86.733363">
        <ele>3564.6</ele>
        <time>2022-10-22T05:06:21.000Z</time>
      </trkpt>
      <trkpt lat="27.825507" lon="86.733389">
        <ele>3564.4</ele>
        <time>2022-10-22T05:06:25.000Z</time>
      </trkpt>
      <trkpt lat="27.825517" lon="86.733414">
        <ele>3564.4</ele>
        <time>2022-10-22T05:06:27.000Z</time>
      </trkpt>
      <trkpt lat="27.82552" lon="86.733453">
        <ele>3565.2</ele>
        <time>2022-10-22T05:06:30.000Z</time>
      </trkpt>
      <trkpt lat="27.825507" lon="86.733485">
        <ele>3565.2</ele>
        <time>2022-10-22T05:06:32.000Z</time>
      </trkpt>
      <trkpt lat="27.825498" lon="86.733504">
        <ele>3564.8</ele>
        <time>2022-10-22T05:06:33.000Z</time>
      </trkpt>
      <trkpt lat="27.825494" lon="86.733542">
        <ele>3564.6</ele>
        <time>2022-10-22T05:06:35.000Z</time>
      </trkpt>
      <trkpt lat="27.825494" lon="86.733574">
        <ele>3564.4</ele>
        <time>2022-10-22T05:06:37.000Z</time>
      </trkpt>
      <trkpt lat="27.825504" lon="86.733606">
        <ele>3564.2</ele>
        <time>2022-10-22T05:06:39.000Z</time>
      </trkpt>
      <trkpt lat="27.82551" lon="86.733626">
        <ele>3564.2</ele>
        <time>2022-10-22T05:06:41.000Z</time>
      </trkpt>
      <trkpt lat="27.825514" lon="86.733651">
        <ele>3564.6</ele>
        <time>2022-10-22T05:06:48.000Z</time>
      </trkpt>
      <trkpt lat="27.82553" lon="86.733664">
        <ele>3564.8</ele>
        <time>2022-10-22T05:06:54.000Z</time>
      </trkpt>
      <trkpt lat="27.825533" lon="86.73369">
        <ele>3565</ele>
        <time>2022-10-22T05:07:06.000Z</time>
      </trkpt>
      <trkpt lat="27.825549" lon="86.733741">
        <ele>3564</ele>
        <time>2022-10-22T05:07:29.000Z</time>
      </trkpt>
      <trkpt lat="27.825558" lon="86.73376">
        <ele>3564.2</ele>
        <time>2022-10-22T05:07:30.000Z</time>
      </trkpt>
      <trkpt lat="27.825581" lon="86.733779">
        <ele>3564</ele>
        <time>2022-10-22T05:07:32.000Z</time>
      </trkpt>
      <trkpt lat="27.825597" lon="86.733811">
        <ele>3563</ele>
        <time>2022-10-22T05:07:34.000Z</time>
      </trkpt>
      <trkpt lat="27.82561" lon="86.733843">
        <ele>3562.4</ele>
        <time>2022-10-22T05:07:36.000Z</time>
      </trkpt>
      <trkpt lat="27.825629" lon="86.733869">
        <ele>3562</ele>
        <time>2022-10-22T05:07:38.000Z</time>
      </trkpt>
      <trkpt lat="27.825645" lon="86.733882">
        <ele>3562.2</ele>
        <time>2022-10-22T05:07:40.000Z</time>
      </trkpt>
      <trkpt lat="27.825664" lon="86.733894">
        <ele>3562.2</ele>
        <time>2022-10-22T05:07:42.000Z</time>
      </trkpt>
      <trkpt lat="27.82568" lon="86.733907">
        <ele>3562</ele>
        <time>2022-10-22T05:07:44.000Z</time>
      </trkpt>
      <trkpt lat="27.825699" lon="86.73392">
        <ele>3561.4</ele>
        <time>2022-10-22T05:07:46.000Z</time>
      </trkpt>
      <trkpt lat="27.825718" lon="86.733933">
        <ele>3561.2</ele>
        <time>2022-10-22T05:07:48.000Z</time>
      </trkpt>
      <trkpt lat="27.825738" lon="86.733946">
        <ele>3561.4</ele>
        <time>2022-10-22T05:07:50.000Z</time>
      </trkpt>
      <trkpt lat="27.825757" lon="86.733965">
        <ele>3561.4</ele>
        <time>2022-10-22T05:07:52.000Z</time>
      </trkpt>
      <trkpt lat="27.825776" lon="86.733978">
        <ele>3561.6</ele>
        <time>2022-10-22T05:07:54.000Z</time>
      </trkpt>
      <trkpt lat="27.825792" lon="86.73399">
        <ele>3561.6</ele>
        <time>2022-10-22T05:07:56.000Z</time>
      </trkpt>
      <trkpt lat="27.825808" lon="86.73401">
        <ele>3562.2</ele>
        <time>2022-10-22T05:07:58.000Z</time>
      </trkpt>
      <trkpt lat="27.825824" lon="86.734029">
        <ele>3562.4</ele>
        <time>2022-10-22T05:08:00.000Z</time>
      </trkpt>
      <trkpt lat="27.825837" lon="86.734048">
        <ele>3562.6</ele>
        <time>2022-10-22T05:08:02.000Z</time>
      </trkpt>
      <trkpt lat="27.825846" lon="86.734067">
        <ele>3563</ele>
        <time>2022-10-22T05:08:05.000Z</time>
      </trkpt>
      <trkpt lat="27.825856" lon="86.734086">
        <ele>3563.2</ele>
        <time>2022-10-22T05:08:07.000Z</time>
      </trkpt>
      <trkpt lat="27.825866" lon="86.734106">
        <ele>3563.8</ele>
        <time>2022-10-22T05:08:10.000Z</time>
      </trkpt>
      <trkpt lat="27.825872" lon="86.734125">
        <ele>3563.8</ele>
        <time>2022-10-22T05:08:11.000Z</time>
      </trkpt>
      <trkpt lat="27.825882" lon="86.734157">
        <ele>3564.4</ele>
        <time>2022-10-22T05:08:14.000Z</time>
      </trkpt>
      <trkpt lat="27.825894" lon="86.734176">
        <ele>3564.2</ele>
        <time>2022-10-22T05:08:17.000Z</time>
      </trkpt>
      <trkpt lat="27.82591" lon="86.734202">
        <ele>3564.2</ele>
        <time>2022-10-22T05:08:19.000Z</time>
      </trkpt>
      <trkpt lat="27.825926" lon="86.734214">
        <ele>3563.6</ele>
        <time>2022-10-22T05:08:21.000Z</time>
      </trkpt>
      <trkpt lat="27.825936" lon="86.73424">
        <ele>3563.6</ele>
        <time>2022-10-22T05:08:23.000Z</time>
      </trkpt>
      <trkpt lat="27.825942" lon="86.734259">
        <ele>3563.6</ele>
        <time>2022-10-22T05:08:25.000Z</time>
      </trkpt>
      <trkpt lat="27.825952" lon="86.734278">
        <ele>3563.6</ele>
        <time>2022-10-22T05:08:27.000Z</time>
      </trkpt>
      <trkpt lat="27.825968" lon="86.734298">
        <ele>3563.6</ele>
        <time>2022-10-22T05:08:30.000Z</time>
      </trkpt>
      <trkpt lat="27.825974" lon="86.734317">
        <ele>3563.2</ele>
        <time>2022-10-22T05:08:32.000Z</time>
      </trkpt>
      <trkpt lat="27.825974" lon="86.734342">
        <ele>3562.6</ele>
        <time>2022-10-22T05:08:36.000Z</time>
      </trkpt>
      <trkpt lat="27.825981" lon="86.734362">
        <ele>3562.2</ele>
        <time>2022-10-22T05:08:38.000Z</time>
      </trkpt>
      <trkpt lat="27.825987" lon="86.734387">
        <ele>3560.8</ele>
        <time>2022-10-22T05:08:42.000Z</time>
      </trkpt>
      <trkpt lat="27.825974" lon="86.734413">
        <ele>3560</ele>
        <time>2022-10-22T05:08:46.000Z</time>
      </trkpt>
      <trkpt lat="27.825981" lon="86.734438">
        <ele>3559</ele>
        <time>2022-10-22T05:08:49.000Z</time>
      </trkpt>
      <trkpt lat="27.825981" lon="86.734464">
        <ele>3558.2</ele>
        <time>2022-10-22T05:08:53.000Z</time>
      </trkpt>
      <trkpt lat="27.825981" lon="86.73449">
        <ele>3557.6</ele>
        <time>2022-10-22T05:08:57.000Z</time>
      </trkpt>
      <trkpt lat="27.825984" lon="86.734522">
        <ele>3557</ele>
        <time>2022-10-22T05:09:00.000Z</time>
      </trkpt>
      <trkpt lat="27.825984" lon="86.734554">
        <ele>3555.4</ele>
        <time>2022-10-22T05:09:03.000Z</time>
      </trkpt>
      <trkpt lat="27.825987" lon="86.734586">
        <ele>3555</ele>
        <time>2022-10-22T05:09:07.000Z</time>
      </trkpt>
      <trkpt lat="27.825987" lon="86.734618">
        <ele>3554.8</ele>
        <time>2022-10-22T05:09:09.000Z</time>
      </trkpt>
      <trkpt lat="27.825994" lon="86.734643">
        <ele>3554.6</ele>
        <time>2022-10-22T05:09:12.000Z</time>
      </trkpt>
      <trkpt lat="27.826" lon="86.734662">
        <ele>3554.6</ele>
        <time>2022-10-22T05:09:14.000Z</time>
      </trkpt>
      <trkpt lat="27.826" lon="86.734688">
        <ele>3554.6</ele>
        <time>2022-10-22T05:09:16.000Z</time>
      </trkpt>
      <trkpt lat="27.825997" lon="86.734714">
        <ele>3554.6</ele>
        <time>2022-10-22T05:09:19.000Z</time>
      </trkpt>
      <trkpt lat="27.826003" lon="86.734733">
        <ele>3554.8</ele>
        <time>2022-10-22T05:09:22.000Z</time>
      </trkpt>
      <trkpt lat="27.82601" lon="86.734752">
        <ele>3555.4</ele>
        <time>2022-10-22T05:09:25.000Z</time>
      </trkpt>
      <trkpt lat="27.826032" lon="86.734765">
        <ele>3556</ele>
        <time>2022-10-22T05:09:29.000Z</time>
      </trkpt>
      <trkpt lat="27.826051" lon="86.734784">
        <ele>3556.8</ele>
        <time>2022-10-22T05:09:34.000Z</time>
      </trkpt>
      <trkpt lat="27.826045" lon="86.734803">
        <ele>3557.8</ele>
        <time>2022-10-22T05:09:38.000Z</time>
      </trkpt>
      <trkpt lat="27.826061" lon="86.734822">
        <ele>3558.8</ele>
        <time>2022-10-22T05:09:43.000Z</time>
      </trkpt>
      <trkpt lat="27.82607" lon="86.734842">
        <ele>3559.2</ele>
        <time>2022-10-22T05:09:47.000Z</time>
      </trkpt>
      <trkpt lat="27.82608" lon="86.734861">
        <ele>3560</ele>
        <time>2022-10-22T05:09:52.000Z</time>
      </trkpt>
      <trkpt lat="27.826086" lon="86.734886">
        <ele>3561.6</ele>
        <time>2022-10-22T05:09:58.000Z</time>
      </trkpt>
      <trkpt lat="27.826086" lon="86.734912">
        <ele>3562.6</ele>
        <time>2022-10-22T05:10:04.000Z</time>
      </trkpt>
      <trkpt lat="27.826083" lon="86.734938">
        <ele>3563.2</ele>
        <time>2022-10-22T05:10:10.000Z</time>
      </trkpt>
      <trkpt lat="27.82609" lon="86.734957">
        <ele>3563</ele>
        <time>2022-10-22T05:10:19.000Z</time>
      </trkpt>
      <trkpt lat="27.826096" lon="86.734976">
        <ele>3563.4</ele>
        <time>2022-10-22T05:10:23.000Z</time>
      </trkpt>
      <trkpt lat="27.826102" lon="86.734995">
        <ele>3563.6</ele>
        <time>2022-10-22T05:10:25.000Z</time>
      </trkpt>
      <trkpt lat="27.826112" lon="86.735014">
        <ele>3563.4</ele>
        <time>2022-10-22T05:10:28.000Z</time>
      </trkpt>
      <trkpt lat="27.826122" lon="86.735034">
        <ele>3563.6</ele>
        <time>2022-10-22T05:10:31.000Z</time>
      </trkpt>
      <trkpt lat="27.826138" lon="86.735053">
        <ele>3563.2</ele>
        <time>2022-10-22T05:10:36.000Z</time>
      </trkpt>
      <trkpt lat="27.826147" lon="86.735072">
        <ele>3564.2</ele>
        <time>2022-10-22T05:10:39.000Z</time>
      </trkpt>
      <trkpt lat="27.82615" lon="86.735098">
        <ele>3564.8</ele>
        <time>2022-10-22T05:10:44.000Z</time>
      </trkpt>
      <trkpt lat="27.826157" lon="86.735117">
        <ele>3565.2</ele>
        <time>2022-10-22T05:10:46.000Z</time>
      </trkpt>
      <trkpt lat="27.826173" lon="86.735142">
        <ele>3566.2</ele>
        <time>2022-10-22T05:11:55.000Z</time>
      </trkpt>
      <trkpt lat="27.826182" lon="86.735162">
        <ele>3566.2</ele>
        <time>2022-10-22T05:11:56.000Z</time>
      </trkpt>
      <trkpt lat="27.826198" lon="86.735181">
        <ele>3566.2</ele>
        <time>2022-10-22T05:11:58.000Z</time>
      </trkpt>
      <trkpt lat="27.826205" lon="86.7352">
        <ele>3566.4</ele>
        <time>2022-10-22T05:11:59.000Z</time>
      </trkpt>
      <trkpt lat="27.826224" lon="86.735219">
        <ele>3566.4</ele>
        <time>2022-10-22T05:12:01.000Z</time>
      </trkpt>
      <trkpt lat="27.82624" lon="86.735238">
        <ele>3566.6</ele>
        <time>2022-10-22T05:12:03.000Z</time>
      </trkpt>
      <trkpt lat="27.826253" lon="86.735258">
        <ele>3566.4</ele>
        <time>2022-10-22T05:12:06.000Z</time>
      </trkpt>
      <trkpt lat="27.826259" lon="86.735283">
        <ele>3566.6</ele>
        <time>2022-10-22T05:12:08.000Z</time>
      </trkpt>
      <trkpt lat="27.826278" lon="86.735296">
        <ele>3566.8</ele>
        <time>2022-10-22T05:12:11.000Z</time>
      </trkpt>
      <trkpt lat="27.826285" lon="86.735315">
        <ele>3567.6</ele>
        <time>2022-10-22T05:12:17.000Z</time>
      </trkpt>
      <trkpt lat="27.826294" lon="86.735334">
        <ele>3566.4</ele>
        <time>2022-10-22T05:12:38.000Z</time>
      </trkpt>
      <trkpt lat="27.826294" lon="86.73536">
        <ele>3566.4</ele>
        <time>2022-10-22T05:12:39.000Z</time>
      </trkpt>
      <trkpt lat="27.826307" lon="86.735398">
        <ele>3566.4</ele>
        <time>2022-10-22T05:12:41.000Z</time>
      </trkpt>
      <trkpt lat="27.82631" lon="86.735437">
        <ele>3566.4</ele>
        <time>2022-10-22T05:12:43.000Z</time>
      </trkpt>
      <trkpt lat="27.826323" lon="86.735469">
        <ele>3566.4</ele>
        <time>2022-10-22T05:12:45.000Z</time>
      </trkpt>
      <trkpt lat="27.82633" lon="86.735488">
        <ele>3566.4</ele>
        <time>2022-10-22T05:12:46.000Z</time>
      </trkpt>
      <trkpt lat="27.826336" lon="86.73552">
        <ele>3566</ele>
        <time>2022-10-22T05:12:49.000Z</time>
      </trkpt>
      <trkpt lat="27.826339" lon="86.735552">
        <ele>3566.4</ele>
        <time>2022-10-22T05:12:52.000Z</time>
      </trkpt>
      <trkpt lat="27.826358" lon="86.735565">
        <ele>3566.4</ele>
        <time>2022-10-22T05:12:54.000Z</time>
      </trkpt>
      <trkpt lat="27.826381" lon="86.735571">
        <ele>3565.6</ele>
        <time>2022-10-22T05:12:56.000Z</time>
      </trkpt>
      <trkpt lat="27.826403" lon="86.73559">
        <ele>3565.4</ele>
        <time>2022-10-22T05:12:59.000Z</time>
      </trkpt>
      <trkpt lat="27.826426" lon="86.735603">
        <ele>3565.2</ele>
        <time>2022-10-22T05:13:02.000Z</time>
      </trkpt>
      <trkpt lat="27.826448" lon="86.735616">
        <ele>3565</ele>
        <time>2022-10-22T05:13:05.000Z</time>
      </trkpt>
      <trkpt lat="27.826467" lon="86.735629">
        <ele>3565</ele>
        <time>2022-10-22T05:13:08.000Z</time>
      </trkpt>
      <trkpt lat="27.826483" lon="86.735642">
        <ele>3563.4</ele>
        <time>2022-10-22T05:16:21.000Z</time>
      </trkpt>
      <trkpt lat="27.826512" lon="86.735654">
        <ele>3563.2</ele>
        <time>2022-10-22T05:16:23.000Z</time>
      </trkpt>
      <trkpt lat="27.826538" lon="86.735674">
        <ele>3563</ele>
        <time>2022-10-22T05:16:25.000Z</time>
      </trkpt>
      <trkpt lat="27.826566" lon="86.735693">
        <ele>3563</ele>
        <time>2022-10-22T05:16:27.000Z</time>
      </trkpt>
      <trkpt lat="27.826589" lon="86.735718">
        <ele>3562.4</ele>
        <time>2022-10-22T05:16:29.000Z</time>
      </trkpt>
      <trkpt lat="27.826608" lon="86.735738">
        <ele>3562.2</ele>
        <time>2022-10-22T05:16:32.000Z</time>
      </trkpt>
      <trkpt lat="27.826627" lon="86.735757">
        <ele>3562.2</ele>
        <time>2022-10-22T05:16:34.000Z</time>
      </trkpt>
      <trkpt lat="27.82665" lon="86.735776">
        <ele>3562.2</ele>
        <time>2022-10-22T05:16:37.000Z</time>
      </trkpt>
      <trkpt lat="27.826666" lon="86.735795">
        <ele>3562.6</ele>
        <time>2022-10-22T05:16:39.000Z</time>
      </trkpt>
      <trkpt lat="27.826685" lon="86.735808">
        <ele>3562</ele>
        <time>2022-10-22T05:16:42.000Z</time>
      </trkpt>
      <trkpt lat="27.826717" lon="86.735814">
        <ele>3562</ele>
        <time>2022-10-22T05:16:45.000Z</time>
      </trkpt>
      <trkpt lat="27.826739" lon="86.735827">
        <ele>3562.6</ele>
        <time>2022-10-22T05:16:47.000Z</time>
      </trkpt>
      <trkpt lat="27.826762" lon="86.735834">
        <ele>3561.8</ele>
        <time>2022-10-22T05:16:49.000Z</time>
      </trkpt>
      <trkpt lat="27.826784" lon="86.73584">
        <ele>3561.2</ele>
        <time>2022-10-22T05:16:51.000Z</time>
      </trkpt>
      <trkpt lat="27.82681" lon="86.735846">
        <ele>3560.8</ele>
        <time>2022-10-22T05:16:54.000Z</time>
      </trkpt>
      <trkpt lat="27.826829" lon="86.735846">
        <ele>3560.6</ele>
        <time>2022-10-22T05:16:56.000Z</time>
      </trkpt>
      <trkpt lat="27.826848" lon="86.735866">
        <ele>3560.6</ele>
        <time>2022-10-22T05:16:58.000Z</time>
      </trkpt>
      <trkpt lat="27.826874" lon="86.735872">
        <ele>3560.4</ele>
        <time>2022-10-22T05:17:01.000Z</time>
      </trkpt>
      <trkpt lat="27.826896" lon="86.735878">
        <ele>3559.6</ele>
        <time>2022-10-22T05:17:03.000Z</time>
      </trkpt>
      <trkpt lat="27.826915" lon="86.735885">
        <ele>3559.2</ele>
        <time>2022-10-22T05:17:05.000Z</time>
      </trkpt>
      <trkpt lat="27.826938" lon="86.735904">
        <ele>3559.4</ele>
        <time>2022-10-22T05:17:07.000Z</time>
      </trkpt>
      <trkpt lat="27.826957" lon="86.73591">
        <ele>3559.2</ele>
        <time>2022-10-22T05:17:09.000Z</time>
      </trkpt>
      <trkpt lat="27.826979" lon="86.73593">
        <ele>3558.8</ele>
        <time>2022-10-22T05:17:12.000Z</time>
      </trkpt>
      <trkpt lat="27.826986" lon="86.735949">
        <ele>3558.8</ele>
        <time>2022-10-22T05:17:13.000Z</time>
      </trkpt>
      <trkpt lat="27.827008" lon="86.735955">
        <ele>3558.6</ele>
        <time>2022-10-22T05:17:16.000Z</time>
      </trkpt>
      <trkpt lat="27.827027" lon="86.735968">
        <ele>3558.2</ele>
        <time>2022-10-22T05:17:19.000Z</time>
      </trkpt>
      <trkpt lat="27.82705" lon="86.735974">
        <ele>3558</ele>
        <time>2022-10-22T05:17:22.000Z</time>
      </trkpt>
      <trkpt lat="27.827072" lon="86.735974">
        <ele>3557.6</ele>
        <time>2022-10-22T05:17:24.000Z</time>
      </trkpt>
      <trkpt lat="27.827101" lon="86.735987">
        <ele>3557.2</ele>
        <time>2022-10-22T05:17:27.000Z</time>
      </trkpt>
      <trkpt lat="27.827123" lon="86.735974">
        <ele>3557.2</ele>
        <time>2022-10-22T05:17:29.000Z</time>
      </trkpt>
      <trkpt lat="27.827149" lon="86.735974">
        <ele>3557</ele>
        <time>2022-10-22T05:17:31.000Z</time>
      </trkpt>
      <trkpt lat="27.827178" lon="86.735968">
        <ele>3556.8</ele>
        <time>2022-10-22T05:17:33.000Z</time>
      </trkpt>
      <trkpt lat="27.827203" lon="86.735968">
        <ele>3556</ele>
        <time>2022-10-22T05:17:36.000Z</time>
      </trkpt>
      <trkpt lat="27.827222" lon="86.735974">
        <ele>3556</ele>
        <time>2022-10-22T05:17:38.000Z</time>
      </trkpt>
      <trkpt lat="27.827248" lon="86.735987">
        <ele>3556</ele>
        <time>2022-10-22T05:17:41.000Z</time>
      </trkpt>
      <trkpt lat="27.82728" lon="86.735987">
        <ele>3556</ele>
        <time>2022-10-22T05:17:43.000Z</time>
      </trkpt>
      <trkpt lat="27.827302" lon="86.736">
        <ele>3555.8</ele>
        <time>2022-10-22T05:17:45.000Z</time>
      </trkpt>
      <trkpt lat="27.827325" lon="86.736026">
        <ele>3555.6</ele>
        <time>2022-10-22T05:17:48.000Z</time>
      </trkpt>
      <trkpt lat="27.827344" lon="86.736026">
        <ele>3555</ele>
        <time>2022-10-22T05:17:50.000Z</time>
      </trkpt>
      <trkpt lat="27.827366" lon="86.736026">
        <ele>3555</ele>
        <time>2022-10-22T05:17:52.000Z</time>
      </trkpt>
      <trkpt lat="27.827392" lon="86.736026">
        <ele>3554.8</ele>
        <time>2022-10-22T05:17:55.000Z</time>
      </trkpt>
      <trkpt lat="27.827411" lon="86.736013">
        <ele>3554.8</ele>
        <time>2022-10-22T05:17:57.000Z</time>
      </trkpt>
      <trkpt lat="27.827434" lon="86.736013">
        <ele>3554.8</ele>
        <time>2022-10-22T05:17:59.000Z</time>
      </trkpt>
      <trkpt lat="27.827466" lon="86.736013">
        <ele>3555</ele>
        <time>2022-10-22T05:18:01.000Z</time>
      </trkpt>
      <trkpt lat="27.827494" lon="86.736006">
        <ele>3555</ele>
        <time>2022-10-22T05:18:03.000Z</time>
      </trkpt>
      <trkpt lat="27.827526" lon="86.736006">
        <ele>3554.8</ele>
        <time>2022-10-22T05:18:05.000Z</time>
      </trkpt>
      <trkpt lat="27.827546" lon="86.736013">
        <ele>3554.6</ele>
        <time>2022-10-22T05:18:06.000Z</time>
      </trkpt>
      <trkpt lat="27.827562" lon="86.736026">
        <ele>3554.4</ele>
        <time>2022-10-22T05:18:07.000Z</time>
      </trkpt>
      <trkpt lat="27.827581" lon="86.736038">
        <ele>3554.2</ele>
        <time>2022-10-22T05:18:09.000Z</time>
      </trkpt>
      <trkpt lat="27.827606" lon="86.736038">
        <ele>3553.6</ele>
        <time>2022-10-22T05:18:12.000Z</time>
      </trkpt>
      <trkpt lat="27.827626" lon="86.736045">
        <ele>3553.4</ele>
        <time>2022-10-22T05:18:14.000Z</time>
      </trkpt>
      <trkpt lat="27.827645" lon="86.736064">
        <ele>3553.2</ele>
        <time>2022-10-22T05:18:16.000Z</time>
      </trkpt>
      <trkpt lat="27.82767" lon="86.73607">
        <ele>3553</ele>
        <time>2022-10-22T05:18:18.000Z</time>
      </trkpt>
      <trkpt lat="27.827686" lon="86.736083">
        <ele>3553</ele>
        <time>2022-10-22T05:18:20.000Z</time>
      </trkpt>
      <trkpt lat="27.827709" lon="86.736102">
        <ele>3553.2</ele>
        <time>2022-10-22T05:18:22.000Z</time>
      </trkpt>
      <trkpt lat="27.827725" lon="86.736115">
        <ele>3553.2</ele>
        <time>2022-10-22T05:18:24.000Z</time>
      </trkpt>
      <trkpt lat="27.82775" lon="86.736115">
        <ele>3552.4</ele>
        <time>2022-10-22T05:18:26.000Z</time>
      </trkpt>
      <trkpt lat="27.82777" lon="86.736122">
        <ele>3552</ele>
        <time>2022-10-22T05:18:29.000Z</time>
      </trkpt>
      <trkpt lat="27.827795" lon="86.736147">
        <ele>3551.2</ele>
        <time>2022-10-22T05:18:33.000Z</time>
      </trkpt>
      <trkpt lat="27.827814" lon="86.736154">
        <ele>3550.8</ele>
        <time>2022-10-22T05:18:35.000Z</time>
      </trkpt>
      <trkpt lat="27.827834" lon="86.736173">
        <ele>3550.6</ele>
        <time>2022-10-22T05:18:37.000Z</time>
      </trkpt>
      <trkpt lat="27.827859" lon="86.736192">
        <ele>3549.6</ele>
        <time>2022-10-22T05:18:39.000Z</time>
      </trkpt>
      <trkpt lat="27.827882" lon="86.736186">
        <ele>3549.6</ele>
        <time>2022-10-22T05:18:41.000Z</time>
      </trkpt>
      <trkpt lat="27.827901" lon="86.736192">
        <ele>3549.4</ele>
        <time>2022-10-22T05:18:44.000Z</time>
      </trkpt>
      <trkpt lat="27.82792" lon="86.736198">
        <ele>3549</ele>
        <time>2022-10-22T05:18:46.000Z</time>
      </trkpt>
      <trkpt lat="27.827946" lon="86.736198">
        <ele>3548.6</ele>
        <time>2022-10-22T05:18:48.000Z</time>
      </trkpt>
      <trkpt lat="27.827971" lon="86.736186">
        <ele>3548.2</ele>
        <time>2022-10-22T05:18:51.000Z</time>
      </trkpt>
      <trkpt lat="27.82799" lon="86.736192">
        <ele>3547.4</ele>
        <time>2022-10-22T05:18:54.000Z</time>
      </trkpt>
      <trkpt lat="27.82801" lon="86.736192">
        <ele>3547</ele>
        <time>2022-10-22T05:18:57.000Z</time>
      </trkpt>
      <trkpt lat="27.828029" lon="86.736186">
        <ele>3546.6</ele>
        <time>2022-10-22T05:19:00.000Z</time>
      </trkpt>
      <trkpt lat="27.828051" lon="86.736186">
        <ele>3546.6</ele>
        <time>2022-10-22T05:19:02.000Z</time>
      </trkpt>
      <trkpt lat="27.82807" lon="86.736186">
        <ele>3545.4</ele>
        <time>2022-10-22T05:19:09.000Z</time>
      </trkpt>
      <trkpt lat="27.82807" lon="86.736211">
        <ele>3544.6</ele>
        <time>2022-10-22T05:19:13.000Z</time>
      </trkpt>
      <trkpt lat="27.828077" lon="86.73623">
        <ele>3544.4</ele>
        <time>2022-10-22T05:19:18.000Z</time>
      </trkpt>
      <trkpt lat="27.82809" lon="86.736262">
        <ele>3544.2</ele>
        <time>2022-10-22T05:19:36.000Z</time>
      </trkpt>
      <trkpt lat="27.828086" lon="86.736301">
        <ele>3544</ele>
        <time>2022-10-22T05:19:38.000Z</time>
      </trkpt>
      <trkpt lat="27.828093" lon="86.736326">
        <ele>3544</ele>
        <time>2022-10-22T05:19:40.000Z</time>
      </trkpt>
      <trkpt lat="27.828099" lon="86.736346">
        <ele>3544.2</ele>
        <time>2022-10-22T05:19:41.000Z</time>
      </trkpt>
      <trkpt lat="27.828112" lon="86.736371">
        <ele>3543.6</ele>
        <time>2022-10-22T05:19:43.000Z</time>
      </trkpt>
      <trkpt lat="27.828118" lon="86.736397">
        <ele>3543.6</ele>
        <time>2022-10-22T05:19:56.000Z</time>
      </trkpt>
      <trkpt lat="27.828134" lon="86.736429">
        <ele>3542.4</ele>
        <time>2022-10-22T05:21:30.000Z</time>
      </trkpt>
      <trkpt lat="27.828138" lon="86.736461">
        <ele>3542</ele>
        <time>2022-10-22T05:21:33.000Z</time>
      </trkpt>
      <trkpt lat="27.828147" lon="86.736486">
        <ele>3541.8</ele>
        <time>2022-10-22T05:21:35.000Z</time>
      </trkpt>
      <trkpt lat="27.828144" lon="86.736518">
        <ele>3541.4</ele>
        <time>2022-10-22T05:21:37.000Z</time>
      </trkpt>
      <trkpt lat="27.828144" lon="86.736544">
        <ele>3541.2</ele>
        <time>2022-10-22T05:21:38.000Z</time>
      </trkpt>
      <trkpt lat="27.828128" lon="86.736563">
        <ele>3540.2</ele>
        <time>2022-10-22T05:21:42.000Z</time>
      </trkpt>
      <trkpt lat="27.828118" lon="86.736582">
        <ele>3539.8</ele>
        <time>2022-10-22T05:21:44.000Z</time>
      </trkpt>
      <trkpt lat="27.828118" lon="86.736608">
        <ele>3538.4</ele>
        <time>2022-10-22T05:21:49.000Z</time>
      </trkpt>
      <trkpt lat="27.828131" lon="86.736627">
        <ele>3537.8</ele>
        <time>2022-10-22T05:21:53.000Z</time>
      </trkpt>
      <trkpt lat="27.828138" lon="86.736646">
        <ele>3537</ele>
        <time>2022-10-22T05:21:57.000Z</time>
      </trkpt>
      <trkpt lat="27.828141" lon="86.736672">
        <ele>3536.4</ele>
        <time>2022-10-22T05:22:00.000Z</time>
      </trkpt>
      <trkpt lat="27.828147" lon="86.736691">
        <ele>3535.8</ele>
        <time>2022-10-22T05:22:03.000Z</time>
      </trkpt>
      <trkpt lat="27.82815" lon="86.736717">
        <ele>3535.4</ele>
        <time>2022-10-22T05:22:06.000Z</time>
      </trkpt>
      <trkpt lat="27.828166" lon="86.73673">
        <ele>3534.8</ele>
        <time>2022-10-22T05:22:09.000Z</time>
      </trkpt>
      <trkpt lat="27.828189" lon="86.736742">
        <ele>3534.4</ele>
        <time>2022-10-22T05:22:11.000Z</time>
      </trkpt>
      <trkpt lat="27.828208" lon="86.736762">
        <ele>3533.8</ele>
        <time>2022-10-22T05:22:13.000Z</time>
      </trkpt>
      <trkpt lat="27.828214" lon="86.736781">
        <ele>3533.2</ele>
        <time>2022-10-22T05:22:17.000Z</time>
      </trkpt>
      <trkpt lat="27.828221" lon="86.7368">
        <ele>3532.8</ele>
        <time>2022-10-22T05:22:20.000Z</time>
      </trkpt>
      <trkpt lat="27.828227" lon="86.736819">
        <ele>3532</ele>
        <time>2022-10-22T05:22:22.000Z</time>
      </trkpt>
      <trkpt lat="27.82823" lon="86.736845">
        <ele>3531.4</ele>
        <time>2022-10-22T05:22:25.000Z</time>
      </trkpt>
      <trkpt lat="27.828218" lon="86.73687">
        <ele>3531.2</ele>
        <time>2022-10-22T05:22:27.000Z</time>
      </trkpt>
      <trkpt lat="27.828198" lon="86.736883">
        <ele>3530.6</ele>
        <time>2022-10-22T05:22:29.000Z</time>
      </trkpt>
      <trkpt lat="27.828179" lon="86.73689">
        <ele>3530.6</ele>
        <time>2022-10-22T05:22:31.000Z</time>
      </trkpt>
      <trkpt lat="27.828157" lon="86.73689">
        <ele>3529.6</ele>
        <time>2022-10-22T05:22:34.000Z</time>
      </trkpt>
      <trkpt lat="27.828134" lon="86.73689">
        <ele>3529.4</ele>
        <time>2022-10-22T05:22:36.000Z</time>
      </trkpt>
      <trkpt lat="27.828112" lon="86.73689">
        <ele>3528.6</ele>
        <time>2022-10-22T05:22:38.000Z</time>
      </trkpt>
      <trkpt lat="27.828086" lon="86.736883">
        <ele>3528.4</ele>
        <time>2022-10-22T05:22:41.000Z</time>
      </trkpt>
      <trkpt lat="27.828067" lon="86.736883">
        <ele>3528.2</ele>
        <time>2022-10-22T05:22:43.000Z</time>
      </trkpt>
      <trkpt lat="27.828048" lon="86.736902">
        <ele>3528</ele>
        <time>2022-10-22T05:22:45.000Z</time>
      </trkpt>
      <trkpt lat="27.828074" lon="86.736909">
        <ele>3527</ele>
        <time>2022-10-22T05:22:54.000Z</time>
      </trkpt>
      <trkpt lat="27.828099" lon="86.736909">
        <ele>3526.8</ele>
        <time>2022-10-22T05:22:56.000Z</time>
      </trkpt>
      <trkpt lat="27.828118" lon="86.736902">
        <ele>3526.6</ele>
        <time>2022-10-22T05:22:58.000Z</time>
      </trkpt>
      <trkpt lat="27.828141" lon="86.736902">
        <ele>3526.4</ele>
        <time>2022-10-22T05:23:00.000Z</time>
      </trkpt>
      <trkpt lat="27.828157" lon="86.736915">
        <ele>3525.6</ele>
        <time>2022-10-22T05:23:04.000Z</time>
      </trkpt>
      <trkpt lat="27.828166" lon="86.736941">
        <ele>3525</ele>
        <time>2022-10-22T05:23:09.000Z</time>
      </trkpt>
      <trkpt lat="27.828179" lon="86.73696">
        <ele>3524.4</ele>
        <time>2022-10-22T05:23:12.000Z</time>
      </trkpt>
      <trkpt lat="27.82817" lon="86.736979">
        <ele>3523.8</ele>
        <time>2022-10-22T05:23:14.000Z</time>
      </trkpt>
      <trkpt lat="27.828186" lon="86.736992">
        <ele>3523.6</ele>
        <time>2022-10-22T05:23:20.000Z</time>
      </trkpt>
      <trkpt lat="27.828189" lon="86.737018">
        <ele>3522.8</ele>
        <time>2022-10-22T05:23:24.000Z</time>
      </trkpt>
      <trkpt lat="27.828195" lon="86.737037">
        <ele>3522.4</ele>
        <time>2022-10-22T05:23:27.000Z</time>
      </trkpt>
      <trkpt lat="27.828211" lon="86.737056">
        <ele>3521.8</ele>
        <time>2022-10-22T05:23:29.000Z</time>
      </trkpt>
      <trkpt lat="27.828227" lon="86.737069">
        <ele>3521.4</ele>
        <time>2022-10-22T05:23:32.000Z</time>
      </trkpt>
      <trkpt lat="27.828246" lon="86.737082">
        <ele>3521</ele>
        <time>2022-10-22T05:23:36.000Z</time>
      </trkpt>
      <trkpt lat="27.828272" lon="86.737107">
        <ele>3520.2</ele>
        <time>2022-10-22T05:23:41.000Z</time>
      </trkpt>
      <trkpt lat="27.828278" lon="86.737139">
        <ele>3519.8</ele>
        <time>2022-10-22T05:23:44.000Z</time>
      </trkpt>
      <trkpt lat="27.828294" lon="86.737152">
        <ele>3518.8</ele>
        <time>2022-10-22T05:23:49.000Z</time>
      </trkpt>
      <trkpt lat="27.828288" lon="86.73719">
        <ele>3518.4</ele>
        <time>2022-10-22T05:23:52.000Z</time>
      </trkpt>
      <trkpt lat="27.828288" lon="86.737216">
        <ele>3517.6</ele>
        <time>2022-10-22T05:23:55.000Z</time>
      </trkpt>
      <trkpt lat="27.828294" lon="86.737235">
        <ele>3517.4</ele>
        <time>2022-10-22T05:23:57.000Z</time>
      </trkpt>
      <trkpt lat="27.828314" lon="86.737254">
        <ele>3516.6</ele>
        <time>2022-10-22T05:24:00.000Z</time>
      </trkpt>
      <trkpt lat="27.828336" lon="86.737254">
        <ele>3516</ele>
        <time>2022-10-22T05:24:03.000Z</time>
      </trkpt>
      <trkpt lat="27.828352" lon="86.737274">
        <ele>3515.2</ele>
        <time>2022-10-22T05:24:09.000Z</time>
      </trkpt>
      <trkpt lat="27.828355" lon="86.737306">
        <ele>3514.6</ele>
        <time>2022-10-22T05:24:15.000Z</time>
      </trkpt>
      <trkpt lat="27.828339" lon="86.737325">
        <ele>3514</ele>
        <time>2022-10-22T05:24:17.000Z</time>
      </trkpt>
      <trkpt lat="27.828349" lon="86.737344">
        <ele>3513.6</ele>
        <time>2022-10-22T05:24:21.000Z</time>
      </trkpt>
      <trkpt lat="27.828368" lon="86.73735">
        <ele>3513.4</ele>
        <time>2022-10-22T05:24:24.000Z</time>
      </trkpt>
      <trkpt lat="27.828368" lon="86.737376">
        <ele>3512.8</ele>
        <time>2022-10-22T05:24:26.000Z</time>
      </trkpt>
      <trkpt lat="27.828378" lon="86.737414">
        <ele>3512.4</ele>
        <time>2022-10-22T05:24:29.000Z</time>
      </trkpt>
      <trkpt lat="27.828394" lon="86.737434">
        <ele>3512</ele>
        <time>2022-10-22T05:24:32.000Z</time>
      </trkpt>
      <trkpt lat="27.8284" lon="86.737459">
        <ele>3511</ele>
        <time>2022-10-22T05:24:36.000Z</time>
      </trkpt>
      <trkpt lat="27.828419" lon="86.737459">
        <ele>3510.8</ele>
        <time>2022-10-22T05:24:38.000Z</time>
      </trkpt>
      <trkpt lat="27.82841" lon="86.737485">
        <ele>3510</ele>
        <time>2022-10-22T05:24:42.000Z</time>
      </trkpt>
      <trkpt lat="27.828394" lon="86.737498">
        <ele>3509.6</ele>
        <time>2022-10-22T05:24:45.000Z</time>
      </trkpt>
      <trkpt lat="27.828403" lon="86.737517">
        <ele>3508.8</ele>
        <time>2022-10-22T05:24:52.000Z</time>
      </trkpt>
      <trkpt lat="27.828397" lon="86.737536">
        <ele>3508</ele>
        <time>2022-10-22T05:24:55.000Z</time>
      </trkpt>
      <trkpt lat="27.82839" lon="86.737562">
        <ele>3507.2</ele>
        <time>2022-10-22T05:24:58.000Z</time>
      </trkpt>
      <trkpt lat="27.82841" lon="86.7376">
        <ele>3506</ele>
        <time>2022-10-22T05:25:04.000Z</time>
      </trkpt>
      <trkpt lat="27.82841" lon="86.737626">
        <ele>3505.4</ele>
        <time>2022-10-22T05:25:08.000Z</time>
      </trkpt>
      <trkpt lat="27.828416" lon="86.737658">
        <ele>3505</ele>
        <time>2022-10-22T05:25:10.000Z</time>
      </trkpt>
      <trkpt lat="27.82841" lon="86.737683">
        <ele>3504.8</ele>
        <time>2022-10-22T05:25:13.000Z</time>
      </trkpt>
      <trkpt lat="27.828403" lon="86.737709">
        <ele>3504.6</ele>
        <time>2022-10-22T05:25:15.000Z</time>
      </trkpt>
      <trkpt lat="27.828387" lon="86.737741">
        <ele>3504</ele>
        <time>2022-10-22T05:25:18.000Z</time>
      </trkpt>
      <trkpt lat="27.828397" lon="86.737792">
        <ele>3503.2</ele>
        <time>2022-10-22T05:25:25.000Z</time>
      </trkpt>
      <trkpt lat="27.828397" lon="86.737818">
        <ele>3502.2</ele>
        <time>2022-10-22T05:25:28.000Z</time>
      </trkpt>
      <trkpt lat="27.828397" lon="86.737843">
        <ele>3501.6</ele>
        <time>2022-10-22T05:25:32.000Z</time>
      </trkpt>
      <trkpt lat="27.828387" lon="86.737862">
        <ele>3501.2</ele>
        <time>2022-10-22T05:25:35.000Z</time>
      </trkpt>
      <trkpt lat="27.828387" lon="86.737894">
        <ele>3500.4</ele>
        <time>2022-10-22T05:25:40.000Z</time>
      </trkpt>
      <trkpt lat="27.82841" lon="86.737901">
        <ele>3500</ele>
        <time>2022-10-22T05:25:44.000Z</time>
      </trkpt>
      <trkpt lat="27.828422" lon="86.73792">
        <ele>3499.8</ele>
        <time>2022-10-22T05:25:47.000Z</time>
      </trkpt>
      <trkpt lat="27.828426" lon="86.737946">
        <ele>3499.4</ele>
        <time>2022-10-22T05:25:49.000Z</time>
      </trkpt>
      <trkpt lat="27.828429" lon="86.737971">
        <ele>3499</ele>
        <time>2022-10-22T05:25:51.000Z</time>
      </trkpt>
      <trkpt lat="27.828435" lon="86.737952">
        <ele>3498.2</ele>
        <time>2022-10-22T05:25:56.000Z</time>
      </trkpt>
      <trkpt lat="27.828458" lon="86.737939">
        <ele>3498</ele>
        <time>2022-10-22T05:26:01.000Z</time>
      </trkpt>
      <trkpt lat="27.828477" lon="86.737933">
        <ele>3497.6</ele>
        <time>2022-10-22T05:26:05.000Z</time>
      </trkpt>
      <trkpt lat="27.828496" lon="86.737933">
        <ele>3496.2</ele>
        <time>2022-10-22T05:26:10.000Z</time>
      </trkpt>
      <trkpt lat="27.828509" lon="86.737914">
        <ele>3495.6</ele>
        <time>2022-10-22T05:26:12.000Z</time>
      </trkpt>
      <trkpt lat="27.828522" lon="86.737894">
        <ele>3495</ele>
        <time>2022-10-22T05:26:15.000Z</time>
      </trkpt>
      <trkpt lat="27.828541" lon="86.737894">
        <ele>3494.8</ele>
        <time>2022-10-22T05:26:18.000Z</time>
      </trkpt>
      <trkpt lat="27.828541" lon="86.737869">
        <ele>3494.4</ele>
        <time>2022-10-22T05:26:24.000Z</time>
      </trkpt>
      <trkpt lat="27.828544" lon="86.737837">
        <ele>3493.8</ele>
        <time>2022-10-22T05:26:28.000Z</time>
      </trkpt>
      <trkpt lat="27.828547" lon="86.737811">
        <ele>3493</ele>
        <time>2022-10-22T05:26:32.000Z</time>
      </trkpt>
      <trkpt lat="27.828554" lon="86.737792">
        <ele>3492.6</ele>
        <time>2022-10-22T05:26:35.000Z</time>
      </trkpt>
      <trkpt lat="27.82857" lon="86.737779">
        <ele>3492.4</ele>
        <time>2022-10-22T05:26:38.000Z</time>
      </trkpt>
      <trkpt lat="27.828576" lon="86.73776">
        <ele>3491.8</ele>
        <time>2022-10-22T05:26:40.000Z</time>
      </trkpt>
      <trkpt lat="27.828595" lon="86.73776">
        <ele>3491.6</ele>
        <time>2022-10-22T05:26:42.000Z</time>
      </trkpt>
      <trkpt lat="27.828618" lon="86.73776">
        <ele>3491</ele>
        <time>2022-10-22T05:26:45.000Z</time>
      </trkpt>
      <trkpt lat="27.828634" lon="86.737741">
        <ele>3490.8</ele>
        <time>2022-10-22T05:26:47.000Z</time>
      </trkpt>
      <trkpt lat="27.828659" lon="86.737734">
        <ele>3490</ele>
        <time>2022-10-22T05:26:49.000Z</time>
      </trkpt>
      <trkpt lat="27.828685" lon="86.737734">
        <ele>3490</ele>
        <time>2022-10-22T05:26:52.000Z</time>
      </trkpt>
      <trkpt lat="27.828707" lon="86.737734">
        <ele>3489.4</ele>
        <time>2022-10-22T05:26:55.000Z</time>
      </trkpt>
      <trkpt lat="27.828736" lon="86.737741">
        <ele>3489.4</ele>
        <time>2022-10-22T05:26:57.000Z</time>
      </trkpt>
      <trkpt lat="27.828765" lon="86.737754">
        <ele>3489</ele>
        <time>2022-10-22T05:26:59.000Z</time>
      </trkpt>
      <trkpt lat="27.828774" lon="86.737773">
        <ele>3488.8</ele>
        <time>2022-10-22T05:27:00.000Z</time>
      </trkpt>
      <trkpt lat="27.828787" lon="86.737792">
        <ele>3488.8</ele>
        <time>2022-10-22T05:27:02.000Z</time>
      </trkpt>
      <trkpt lat="27.828797" lon="86.737811">
        <ele>3488.6</ele>
        <time>2022-10-22T05:27:04.000Z</time>
      </trkpt>
      <trkpt lat="27.828816" lon="86.73783">
        <ele>3488.6</ele>
        <time>2022-10-22T05:27:06.000Z</time>
      </trkpt>
      <trkpt lat="27.828832" lon="86.737856">
        <ele>3488.6</ele>
        <time>2022-10-22T05:27:08.000Z</time>
      </trkpt>
      <trkpt lat="27.828835" lon="86.737882">
        <ele>3488.4</ele>
        <time>2022-10-22T05:27:11.000Z</time>
      </trkpt>
      <trkpt lat="27.828832" lon="86.737914">
        <ele>3488</ele>
        <time>2022-10-22T05:27:13.000Z</time>
      </trkpt>
      <trkpt lat="27.828842" lon="86.737939">
        <ele>3487.6</ele>
        <time>2022-10-22T05:27:15.000Z</time>
      </trkpt>
      <trkpt lat="27.828858" lon="86.737952">
        <ele>3487.2</ele>
        <time>2022-10-22T05:27:17.000Z</time>
      </trkpt>
      <trkpt lat="27.828864" lon="86.737971">
        <ele>3487</ele>
        <time>2022-10-22T05:27:18.000Z</time>
      </trkpt>
      <trkpt lat="27.828883" lon="86.737997">
        <ele>3487</ele>
        <time>2022-10-22T05:27:21.000Z</time>
      </trkpt>
      <trkpt lat="27.828883" lon="86.738029">
        <ele>3486.8</ele>
        <time>2022-10-22T05:27:24.000Z</time>
      </trkpt>
      <trkpt lat="27.828899" lon="86.738042">
        <ele>3486.2</ele>
        <time>2022-10-22T05:27:28.000Z</time>
      </trkpt>
      <trkpt lat="27.828906" lon="86.738061">
        <ele>3486.2</ele>
        <time>2022-10-22T05:27:30.000Z</time>
      </trkpt>
      <trkpt lat="27.828915" lon="86.73808">
        <ele>3486.2</ele>
        <time>2022-10-22T05:27:32.000Z</time>
      </trkpt>
      <trkpt lat="27.828934" lon="86.738099">
        <ele>3486.2</ele>
        <time>2022-10-22T05:27:35.000Z</time>
      </trkpt>
      <trkpt lat="27.828931" lon="86.738131">
        <ele>3485.6</ele>
        <time>2022-10-22T05:27:38.000Z</time>
      </trkpt>
      <trkpt lat="27.828934" lon="86.738157">
        <ele>3485.4</ele>
        <time>2022-10-22T05:27:42.000Z</time>
      </trkpt>
      <trkpt lat="27.828928" lon="86.738182">
        <ele>3484.8</ele>
        <time>2022-10-22T05:27:44.000Z</time>
      </trkpt>
      <trkpt lat="27.828918" lon="86.738208">
        <ele>3484.6</ele>
        <time>2022-10-22T05:27:47.000Z</time>
      </trkpt>
      <trkpt lat="27.828925" lon="86.738234">
        <ele>3483.2</ele>
        <time>2022-10-22T05:27:52.000Z</time>
      </trkpt>
      <trkpt lat="27.828934" lon="86.738266">
        <ele>3482.6</ele>
        <time>2022-10-22T05:27:55.000Z</time>
      </trkpt>
      <trkpt lat="27.828944" lon="86.738291">
        <ele>3482.2</ele>
        <time>2022-10-22T05:27:58.000Z</time>
      </trkpt>
      <trkpt lat="27.82895" lon="86.738317">
        <ele>3481.8</ele>
        <time>2022-10-22T05:28:01.000Z</time>
      </trkpt>
      <trkpt lat="27.828944" lon="86.738342">
        <ele>3481.4</ele>
        <time>2022-10-22T05:28:03.000Z</time>
      </trkpt>
      <trkpt lat="27.828941" lon="86.738368">
        <ele>3481.4</ele>
        <time>2022-10-22T05:28:06.000Z</time>
      </trkpt>
      <trkpt lat="27.828931" lon="86.738387">
        <ele>3480.8</ele>
        <time>2022-10-22T05:28:09.000Z</time>
      </trkpt>
      <trkpt lat="27.828915" lon="86.738406">
        <ele>3480.6</ele>
        <time>2022-10-22T05:28:12.000Z</time>
      </trkpt>
      <trkpt lat="27.828915" lon="86.738432">
        <ele>3480.4</ele>
        <time>2022-10-22T05:28:15.000Z</time>
      </trkpt>
      <trkpt lat="27.828909" lon="86.738451">
        <ele>3479.8</ele>
        <time>2022-10-22T05:28:17.000Z</time>
      </trkpt>
      <trkpt lat="27.82889" lon="86.738464">
        <ele>3479.8</ele>
        <time>2022-10-22T05:28:20.000Z</time>
      </trkpt>
      <trkpt lat="27.828886" lon="86.73849">
        <ele>3479</ele>
        <time>2022-10-22T05:28:26.000Z</time>
      </trkpt>
      <trkpt lat="27.828877" lon="86.738509">
        <ele>3478.4</ele>
        <time>2022-10-22T05:28:29.000Z</time>
      </trkpt>
      <trkpt lat="27.828867" lon="86.738528">
        <ele>3478</ele>
        <time>2022-10-22T05:28:30.000Z</time>
      </trkpt>
      <trkpt lat="27.828861" lon="86.738547">
        <ele>3478</ele>
        <time>2022-10-22T05:28:32.000Z</time>
      </trkpt>
      <trkpt lat="27.828854" lon="86.738573">
        <ele>3478</ele>
        <time>2022-10-22T05:28:35.000Z</time>
      </trkpt>
      <trkpt lat="27.828842" lon="86.738605">
        <ele>3477.2</ele>
        <time>2022-10-22T05:28:38.000Z</time>
      </trkpt>
      <trkpt lat="27.828832" lon="86.738624">
        <ele>3475.6</ele>
        <time>2022-10-22T05:28:41.000Z</time>
      </trkpt>
      <trkpt lat="27.828832" lon="86.738656">
        <ele>3475.4</ele>
        <time>2022-10-22T05:28:43.000Z</time>
      </trkpt>
      <trkpt lat="27.828838" lon="86.738675">
        <ele>3475</ele>
        <time>2022-10-22T05:28:46.000Z</time>
      </trkpt>
      <trkpt lat="27.828842" lon="86.738707">
        <ele>3475</ele>
        <time>2022-10-22T05:28:48.000Z</time>
      </trkpt>
      <trkpt lat="27.828845" lon="86.738733">
        <ele>3475.2</ele>
        <time>2022-10-22T05:28:50.000Z</time>
      </trkpt>
      <trkpt lat="27.828845" lon="86.738765">
        <ele>3475.2</ele>
        <time>2022-10-22T05:28:52.000Z</time>
      </trkpt>
      <trkpt lat="27.828835" lon="86.738784">
        <ele>3474.4</ele>
        <time>2022-10-22T05:28:55.000Z</time>
      </trkpt>
      <trkpt lat="27.828835" lon="86.738816">
        <ele>3474.6</ele>
        <time>2022-10-22T05:28:59.000Z</time>
      </trkpt>
      <trkpt lat="27.828835" lon="86.738848">
        <ele>3473.8</ele>
        <time>2022-10-22T05:29:04.000Z</time>
      </trkpt>
      <trkpt lat="27.828835" lon="86.738874">
        <ele>3473.8</ele>
        <time>2022-10-22T05:29:08.000Z</time>
      </trkpt>
      <trkpt lat="27.828835" lon="86.738906">
        <ele>3473</ele>
        <time>2022-10-22T05:29:10.000Z</time>
      </trkpt>
      <trkpt lat="27.828835" lon="86.738931">
        <ele>3471.8</ele>
        <time>2022-10-22T05:29:14.000Z</time>
      </trkpt>
      <trkpt lat="27.828848" lon="86.73895">
        <ele>3471.2</ele>
        <time>2022-10-22T05:29:17.000Z</time>
      </trkpt>
      <trkpt lat="27.828854" lon="86.738976">
        <ele>3470.8</ele>
        <time>2022-10-22T05:29:21.000Z</time>
      </trkpt>
      <trkpt lat="27.828858" lon="86.739002">
        <ele>3471</ele>
        <time>2022-10-22T05:29:24.000Z</time>
      </trkpt>
      <trkpt lat="27.828874" lon="86.739014">
        <ele>3470.6</ele>
        <time>2022-10-22T05:29:27.000Z</time>
      </trkpt>
      <trkpt lat="27.828896" lon="86.739021">
        <ele>3470</ele>
        <time>2022-10-22T05:29:30.000Z</time>
      </trkpt>
      <trkpt lat="27.828918" lon="86.739021">
        <ele>3469.6</ele>
        <time>2022-10-22T05:29:33.000Z</time>
      </trkpt>
      <trkpt lat="27.828944" lon="86.739014">
        <ele>3469.2</ele>
        <time>2022-10-22T05:29:36.000Z</time>
      </trkpt>
      <trkpt lat="27.828963" lon="86.739014">
        <ele>3468.6</ele>
        <time>2022-10-22T05:29:38.000Z</time>
      </trkpt>
      <trkpt lat="27.828989" lon="86.739021">
        <ele>3467.6</ele>
        <time>2022-10-22T05:29:42.000Z</time>
      </trkpt>
      <trkpt lat="27.829008" lon="86.739021">
        <ele>3467.4</ele>
        <time>2022-10-22T05:29:44.000Z</time>
      </trkpt>
      <trkpt lat="27.829027" lon="86.739027">
        <ele>3466.8</ele>
        <time>2022-10-22T05:29:47.000Z</time>
      </trkpt>
      <trkpt lat="27.829053" lon="86.739034">
        <ele>3466.2</ele>
        <time>2022-10-22T05:29:50.000Z</time>
      </trkpt>
      <trkpt lat="27.829075" lon="86.739053">
        <ele>3465.8</ele>
        <time>2022-10-22T05:29:53.000Z</time>
      </trkpt>
      <trkpt lat="27.829094" lon="86.739066">
        <ele>3465.4</ele>
        <time>2022-10-22T05:29:55.000Z</time>
      </trkpt>
      <trkpt lat="27.829123" lon="86.739091">
        <ele>3464.8</ele>
        <time>2022-10-22T05:29:57.000Z</time>
      </trkpt>
      <trkpt lat="27.829149" lon="86.739104">
        <ele>3465</ele>
        <time>2022-10-22T05:30:00.000Z</time>
      </trkpt>
      <trkpt lat="27.829184" lon="86.739104">
        <ele>3464.4</ele>
        <time>2022-10-22T05:30:02.000Z</time>
      </trkpt>
      <trkpt lat="27.829203" lon="86.73911">
        <ele>3463.8</ele>
        <time>2022-10-22T05:30:05.000Z</time>
      </trkpt>
      <trkpt lat="27.829219" lon="86.739098">
        <ele>3463.4</ele>
        <time>2022-10-22T05:30:13.000Z</time>
      </trkpt>
      <trkpt lat="27.829242" lon="86.739091">
        <ele>3463</ele>
        <time>2022-10-22T05:30:16.000Z</time>
      </trkpt>
      <trkpt lat="27.829254" lon="86.739072">
        <ele>3462.6</ele>
        <time>2022-10-22T05:30:18.000Z</time>
      </trkpt>
      <trkpt lat="27.829261" lon="86.739053">
        <ele>3462</ele>
        <time>2022-10-22T05:30:20.000Z</time>
      </trkpt>
      <trkpt lat="27.82928" lon="86.739034">
        <ele>3461.4</ele>
        <time>2022-10-22T05:30:23.000Z</time>
      </trkpt>
      <trkpt lat="27.829293" lon="86.739053">
        <ele>3460.4</ele>
        <time>2022-10-22T05:30:40.000Z</time>
      </trkpt>
      <trkpt lat="27.829312" lon="86.739046">
        <ele>3460.4</ele>
        <time>2022-10-22T05:30:44.000Z</time>
      </trkpt>
      <trkpt lat="27.829302" lon="86.739021">
        <ele>3460.2</ele>
        <time>2022-10-22T05:30:47.000Z</time>
      </trkpt>
      <trkpt lat="27.829318" lon="86.739008">
        <ele>3457.2</ele>
        <time>2022-10-22T05:31:11.000Z</time>
      </trkpt>
      <trkpt lat="27.829344" lon="86.738989">
        <ele>3456.8</ele>
        <time>2022-10-22T05:31:13.000Z</time>
      </trkpt>
      <trkpt lat="27.829379" lon="86.73897">
        <ele>3456.4</ele>
        <time>2022-10-22T05:31:15.000Z</time>
      </trkpt>
      <trkpt lat="27.829398" lon="86.73897">
        <ele>3456.2</ele>
        <time>2022-10-22T05:31:16.000Z</time>
      </trkpt>
      <trkpt lat="27.829421" lon="86.738963">
        <ele>3456</ele>
        <time>2022-10-22T05:31:18.000Z</time>
      </trkpt>
      <trkpt lat="27.829446" lon="86.73895">
        <ele>3456</ele>
        <time>2022-10-22T05:31:20.000Z</time>
      </trkpt>
      <trkpt lat="27.829478" lon="86.73895">
        <ele>3456</ele>
        <time>2022-10-22T05:31:39.000Z</time>
      </trkpt>
      <trkpt lat="27.829501" lon="86.738963">
        <ele>3455.6</ele>
        <time>2022-10-22T05:31:41.000Z</time>
      </trkpt>
      <trkpt lat="27.829526" lon="86.73897">
        <ele>3455</ele>
        <time>2022-10-22T05:31:43.000Z</time>
      </trkpt>
      <trkpt lat="27.829542" lon="86.738982">
        <ele>3454.8</ele>
        <time>2022-10-22T05:31:44.000Z</time>
      </trkpt>
      <trkpt lat="27.829571" lon="86.738989">
        <ele>3454</ele>
        <time>2022-10-22T05:31:46.000Z</time>
      </trkpt>
      <trkpt lat="27.82959" lon="86.739002">
        <ele>3453.4</ele>
        <time>2022-10-22T05:31:48.000Z</time>
      </trkpt>
      <trkpt lat="27.829613" lon="86.739008">
        <ele>3453.2</ele>
        <time>2022-10-22T05:31:50.000Z</time>
      </trkpt>
      <trkpt lat="27.829632" lon="86.739008">
        <ele>3453</ele>
        <time>2022-10-22T05:31:51.000Z</time>
      </trkpt>
      <trkpt lat="27.829651" lon="86.739008">
        <ele>3452.4</ele>
        <time>2022-10-22T05:31:53.000Z</time>
      </trkpt>
      <trkpt lat="27.829677" lon="86.739014">
        <ele>3452.4</ele>
        <time>2022-10-22T05:31:55.000Z</time>
      </trkpt>
      <trkpt lat="27.829696" lon="86.739034">
        <ele>3452.2</ele>
        <time>2022-10-22T05:31:57.000Z</time>
      </trkpt>
      <trkpt lat="27.829706" lon="86.739053">
        <ele>3452</ele>
        <time>2022-10-22T05:31:58.000Z</time>
      </trkpt>
      <trkpt lat="27.829715" lon="86.739072">
        <ele>3451.6</ele>
        <time>2022-10-22T05:32:01.000Z</time>
      </trkpt>
      <trkpt lat="27.829728" lon="86.739098">
        <ele>3451.2</ele>
        <time>2022-10-22T05:32:03.000Z</time>
      </trkpt>
      <trkpt lat="27.829734" lon="86.739123">
        <ele>3450.8</ele>
        <time>2022-10-22T05:32:05.000Z</time>
      </trkpt>
      <trkpt lat="27.829757" lon="86.739142">
        <ele>3450.4</ele>
        <time>2022-10-22T05:32:08.000Z</time>
      </trkpt>
      <trkpt lat="27.829766" lon="86.739162">
        <ele>3450.4</ele>
        <time>2022-10-22T05:32:10.000Z</time>
      </trkpt>
      <trkpt lat="27.829786" lon="86.739174">
        <ele>3449.8</ele>
        <time>2022-10-22T05:32:14.000Z</time>
      </trkpt>
      <trkpt lat="27.829798" lon="86.739194">
        <ele>3448.8</ele>
        <time>2022-10-22T05:32:33.000Z</time>
      </trkpt>
      <trkpt lat="27.829805" lon="86.739213">
        <ele>3449.2</ele>
        <time>2022-10-22T05:32:37.000Z</time>
      </trkpt>
      <trkpt lat="27.829824" lon="86.739226">
        <ele>3448.2</ele>
        <time>2022-10-22T05:32:53.000Z</time>
      </trkpt>
      <trkpt lat="27.82985" lon="86.739226">
        <ele>3448</ele>
        <time>2022-10-22T05:32:55.000Z</time>
      </trkpt>
      <trkpt lat="27.829875" lon="86.739226">
        <ele>3448</ele>
        <time>2022-10-22T05:32:57.000Z</time>
      </trkpt>
      <trkpt lat="27.829894" lon="86.739232">
        <ele>3448</ele>
        <time>2022-10-22T05:32:59.000Z</time>
      </trkpt>
      <trkpt lat="27.82991" lon="86.739245">
        <ele>3448</ele>
        <time>2022-10-22T05:33:01.000Z</time>
      </trkpt>
      <trkpt lat="27.829923" lon="86.739264">
        <ele>3447.6</ele>
        <time>2022-10-22T05:33:04.000Z</time>
      </trkpt>
      <trkpt lat="27.829923" lon="86.73929">
        <ele>3447</ele>
        <time>2022-10-22T05:33:08.000Z</time>
      </trkpt>
      <trkpt lat="27.829917" lon="86.739309">
        <ele>3446.8</ele>
        <time>2022-10-22T05:33:11.000Z</time>
      </trkpt>
      <trkpt lat="27.829914" lon="86.739334">
        <ele>3447</ele>
        <time>2022-10-22T05:33:13.000Z</time>
      </trkpt>
      <trkpt lat="27.82991" lon="86.73936">
        <ele>3447.2</ele>
        <time>2022-10-22T05:33:18.000Z</time>
      </trkpt>
      <trkpt lat="27.829888" lon="86.739379">
        <ele>3446.8</ele>
        <time>2022-10-22T05:33:22.000Z</time>
      </trkpt>
      <trkpt lat="27.829875" lon="86.739405">
        <ele>3446.4</ele>
        <time>2022-10-22T05:33:25.000Z</time>
      </trkpt>
      <trkpt lat="27.829875" lon="86.73943">
        <ele>3446.4</ele>
        <time>2022-10-22T05:33:31.000Z</time>
      </trkpt>
      <trkpt lat="27.829882" lon="86.73945">
        <ele>3445.4</ele>
        <time>2022-10-22T05:33:34.000Z</time>
      </trkpt>
      <trkpt lat="27.829904" lon="86.739462">
        <ele>3444.2</ele>
        <time>2022-10-22T05:33:37.000Z</time>
      </trkpt>
      <trkpt lat="27.829917" lon="86.739488">
        <ele>3444.2</ele>
        <time>2022-10-22T05:33:39.000Z</time>
      </trkpt>
      <trkpt lat="27.829933" lon="86.739507">
        <ele>3444.4</ele>
        <time>2022-10-22T05:33:43.000Z</time>
      </trkpt>
      <trkpt lat="27.829949" lon="86.739526">
        <ele>3444.2</ele>
        <time>2022-10-22T05:33:45.000Z</time>
      </trkpt>
      <trkpt lat="27.829968" lon="86.739533">
        <ele>3444.2</ele>
        <time>2022-10-22T05:33:48.000Z</time>
      </trkpt>
      <trkpt lat="27.829968" lon="86.739558">
        <ele>3443.8</ele>
        <time>2022-10-22T05:33:51.000Z</time>
      </trkpt>
      <trkpt lat="27.829984" lon="86.739571">
        <ele>3443</ele>
        <time>2022-10-22T05:33:55.000Z</time>
      </trkpt>
      <trkpt lat="27.830003" lon="86.739584">
        <ele>3442</ele>
        <time>2022-10-22T05:33:59.000Z</time>
      </trkpt>
      <trkpt lat="27.830003" lon="86.73961">
        <ele>3441.6</ele>
        <time>2022-10-22T05:34:02.000Z</time>
      </trkpt>
      <trkpt lat="27.829994" lon="86.739629">
        <ele>3441.2</ele>
        <time>2022-10-22T05:34:05.000Z</time>
      </trkpt>
      <trkpt lat="27.829994" lon="86.739661">
        <ele>3440.8</ele>
        <time>2022-10-22T05:34:08.000Z</time>
      </trkpt>
      <trkpt lat="27.829997" lon="86.739693">
        <ele>3440.4</ele>
        <time>2022-10-22T05:34:11.000Z</time>
      </trkpt>
      <trkpt lat="27.829984" lon="86.739718">
        <ele>3440.2</ele>
        <time>2022-10-22T05:34:15.000Z</time>
      </trkpt>
      <trkpt lat="27.829965" lon="86.739738">
        <ele>3439.4</ele>
        <time>2022-10-22T05:34:20.000Z</time>
      </trkpt>
      <trkpt lat="27.829955" lon="86.739757">
        <ele>3439.4</ele>
        <time>2022-10-22T05:34:22.000Z</time>
      </trkpt>
      <trkpt lat="27.829939" lon="86.739776">
        <ele>3439.4</ele>
        <time>2022-10-22T05:34:25.000Z</time>
      </trkpt>
      <trkpt lat="27.829914" lon="86.739782">
        <ele>3439</ele>
        <time>2022-10-22T05:34:27.000Z</time>
      </trkpt>
      <trkpt lat="27.829888" lon="86.739808">
        <ele>3439</ele>
        <time>2022-10-22T05:34:29.000Z</time>
      </trkpt>
      <trkpt lat="27.829872" lon="86.739827">
        <ele>3438.2</ele>
        <time>2022-10-22T05:34:31.000Z</time>
      </trkpt>
      <trkpt lat="27.829875" lon="86.739853">
        <ele>3438.2</ele>
        <time>2022-10-22T05:34:33.000Z</time>
      </trkpt>
      <trkpt lat="27.829856" lon="86.739878">
        <ele>3438.4</ele>
        <time>2022-10-22T05:34:37.000Z</time>
      </trkpt>
      <trkpt lat="27.82984" lon="86.739891">
        <ele>3438.4</ele>
        <time>2022-10-22T05:34:39.000Z</time>
      </trkpt>
      <trkpt lat="27.829821" lon="86.739936">
        <ele>3438.6</ele>
        <time>2022-10-22T05:34:41.000Z</time>
      </trkpt>
      <trkpt lat="27.829808" lon="86.739955">
        <ele>3439</ele>
        <time>2022-10-22T05:34:42.000Z</time>
      </trkpt>
      <trkpt lat="27.829798" lon="86.739974">
        <ele>3439.6</ele>
        <time>2022-10-22T05:34:43.000Z</time>
      </trkpt>
      <trkpt lat="27.829786" lon="86.740013">
        <ele>3439.6</ele>
        <time>2022-10-22T05:34:45.000Z</time>
      </trkpt>
      <trkpt lat="27.829763" lon="86.740038">
        <ele>3439.8</ele>
        <time>2022-10-22T05:34:48.000Z</time>
      </trkpt>
      <trkpt lat="27.829757" lon="86.740064">
        <ele>3440</ele>
        <time>2022-10-22T05:34:51.000Z</time>
      </trkpt>
      <trkpt lat="27.829744" lon="86.74009">
        <ele>3439.4</ele>
        <time>2022-10-22T05:34:53.000Z</time>
      </trkpt>
      <trkpt lat="27.829728" lon="86.740102">
        <ele>3439.2</ele>
        <time>2022-10-22T05:34:54.000Z</time>
      </trkpt>
      <trkpt lat="27.829722" lon="86.740122">
        <ele>3439.2</ele>
        <time>2022-10-22T05:34:55.000Z</time>
      </trkpt>
      <trkpt lat="27.829706" lon="86.740141">
        <ele>3439.4</ele>
        <time>2022-10-22T05:34:57.000Z</time>
      </trkpt>
      <trkpt lat="27.829699" lon="86.74016">
        <ele>3439.4</ele>
        <time>2022-10-22T05:34:58.000Z</time>
      </trkpt>
      <trkpt lat="27.829645" lon="86.740218">
        <ele>3439.6</ele>
        <time>2022-10-22T05:35:04.000Z</time>
      </trkpt>
      <trkpt lat="27.829622" lon="86.740237">
        <ele>3439.8</ele>
        <time>2022-10-22T05:35:06.000Z</time>
      </trkpt>
      <trkpt lat="27.829606" lon="86.740256">
        <ele>3439.8</ele>
        <time>2022-10-22T05:35:09.000Z</time>
      </trkpt>
      <trkpt lat="27.829581" lon="86.740275">
        <ele>3439.8</ele>
        <time>2022-10-22T05:35:11.000Z</time>
      </trkpt>
      <trkpt lat="27.829565" lon="86.740294">
        <ele>3440.2</ele>
        <time>2022-10-22T05:35:13.000Z</time>
      </trkpt>
      <trkpt lat="27.829552" lon="86.740314">
        <ele>3440.2</ele>
        <time>2022-10-22T05:35:15.000Z</time>
      </trkpt>
      <trkpt lat="27.829533" lon="86.740326">
        <ele>3440</ele>
        <time>2022-10-22T05:35:17.000Z</time>
      </trkpt>
      <trkpt lat="27.829514" lon="86.740352">
        <ele>3440</ele>
        <time>2022-10-22T05:35:19.000Z</time>
      </trkpt>
      <trkpt lat="27.829494" lon="86.740371">
        <ele>3440.2</ele>
        <time>2022-10-22T05:35:21.000Z</time>
      </trkpt>
      <trkpt lat="27.829478" lon="86.740384">
        <ele>3440.8</ele>
        <time>2022-10-22T05:35:23.000Z</time>
      </trkpt>
      <trkpt lat="27.829469" lon="86.740403">
        <ele>3440.8</ele>
        <time>2022-10-22T05:35:24.000Z</time>
      </trkpt>
      <trkpt lat="27.829443" lon="86.740416">
        <ele>3441</ele>
        <time>2022-10-22T05:35:27.000Z</time>
      </trkpt>
      <trkpt lat="27.829427" lon="86.740435">
        <ele>3441.2</ele>
        <time>2022-10-22T05:35:29.000Z</time>
      </trkpt>
      <trkpt lat="27.829424" lon="86.740474">
        <ele>3441</ele>
        <time>2022-10-22T05:35:32.000Z</time>
      </trkpt>
      <trkpt lat="27.82944" lon="86.740493">
        <ele>3441.2</ele>
        <time>2022-10-22T05:35:35.000Z</time>
      </trkpt>
      <trkpt lat="27.82944" lon="86.740518">
        <ele>3440.6</ele>
        <time>2022-10-22T05:35:40.000Z</time>
      </trkpt>
      <trkpt lat="27.829446" lon="86.740544">
        <ele>3440.2</ele>
        <time>2022-10-22T05:35:43.000Z</time>
      </trkpt>
      <trkpt lat="27.829453" lon="86.74057">
        <ele>3440</ele>
        <time>2022-10-22T05:35:45.000Z</time>
      </trkpt>
      <trkpt lat="27.829462" lon="86.740595">
        <ele>3439.8</ele>
        <time>2022-10-22T05:35:47.000Z</time>
      </trkpt>
      <trkpt lat="27.829472" lon="86.740614">
        <ele>3439.8</ele>
        <time>2022-10-22T05:35:50.000Z</time>
      </trkpt>
      <trkpt lat="27.829488" lon="86.740634">
        <ele>3440.2</ele>
        <time>2022-10-22T05:35:52.000Z</time>
      </trkpt>
      <trkpt lat="27.829498" lon="86.740653">
        <ele>3440.2</ele>
        <time>2022-10-22T05:35:54.000Z</time>
      </trkpt>
      <trkpt lat="27.829507" lon="86.740678">
        <ele>3439.6</ele>
        <time>2022-10-22T05:35:56.000Z</time>
      </trkpt>
      <trkpt lat="27.82951" lon="86.740717">
        <ele>3439.2</ele>
        <time>2022-10-22T05:35:59.000Z</time>
      </trkpt>
      <trkpt lat="27.82952" lon="86.740736">
        <ele>3438.8</ele>
        <time>2022-10-22T05:36:01.000Z</time>
      </trkpt>
      <trkpt lat="27.829526" lon="86.740755">
        <ele>3438.8</ele>
        <time>2022-10-22T05:36:02.000Z</time>
      </trkpt>
      <trkpt lat="27.829526" lon="86.740794">
        <ele>3438.6</ele>
        <time>2022-10-22T05:36:06.000Z</time>
      </trkpt>
      <trkpt lat="27.829533" lon="86.740813">
        <ele>3439.2</ele>
        <time>2022-10-22T05:36:10.000Z</time>
      </trkpt>
      <trkpt lat="27.829542" lon="86.740832">
        <ele>3439.2</ele>
        <time>2022-10-22T05:36:12.000Z</time>
      </trkpt>
      <trkpt lat="27.829568" lon="86.740845">
        <ele>3439</ele>
        <time>2022-10-22T05:36:15.000Z</time>
      </trkpt>
      <trkpt lat="27.829587" lon="86.740851">
        <ele>3438.8</ele>
        <time>2022-10-22T05:36:17.000Z</time>
      </trkpt>
      <trkpt lat="27.829613" lon="86.740858">
        <ele>3438.6</ele>
        <time>2022-10-22T05:36:19.000Z</time>
      </trkpt>
      <trkpt lat="27.829642" lon="86.740858">
        <ele>3438.4</ele>
        <time>2022-10-22T05:36:21.000Z</time>
      </trkpt>
      <trkpt lat="27.829664" lon="86.740877">
        <ele>3438</ele>
        <time>2022-10-22T05:36:23.000Z</time>
      </trkpt>
      <trkpt lat="27.829686" lon="86.740883">
        <ele>3437.8</ele>
        <time>2022-10-22T05:36:25.000Z</time>
      </trkpt>
      <trkpt lat="27.829709" lon="86.740883">
        <ele>3437.6</ele>
        <time>2022-10-22T05:36:27.000Z</time>
      </trkpt>
      <trkpt lat="27.829738" lon="86.740909">
        <ele>3437.4</ele>
        <time>2022-10-22T05:36:29.000Z</time>
      </trkpt>
      <trkpt lat="27.829757" lon="86.740922">
        <ele>3437.2</ele>
        <time>2022-10-22T05:36:30.000Z</time>
      </trkpt>
      <trkpt lat="27.829779" lon="86.740934">
        <ele>3436.6</ele>
        <time>2022-10-22T05:36:32.000Z</time>
      </trkpt>
      <trkpt lat="27.829789" lon="86.740954">
        <ele>3436.6</ele>
        <time>2022-10-22T05:36:33.000Z</time>
      </trkpt>
      <trkpt lat="27.829814" lon="86.740966">
        <ele>3436.2</ele>
        <time>2022-10-22T05:36:35.000Z</time>
      </trkpt>
      <trkpt lat="27.82984" lon="86.740973">
        <ele>3436</ele>
        <time>2022-10-22T05:36:37.000Z</time>
      </trkpt>
      <trkpt lat="27.829846" lon="86.740992">
        <ele>3436</ele>
        <time>2022-10-22T05:36:38.000Z</time>
      </trkpt>
      <trkpt lat="27.829878" lon="86.741018">
        <ele>3436</ele>
        <time>2022-10-22T05:36:41.000Z</time>
      </trkpt>
      <trkpt lat="27.829898" lon="86.74103">
        <ele>3436</ele>
        <time>2022-10-22T05:36:43.000Z</time>
      </trkpt>
      <trkpt lat="27.829917" lon="86.741043">
        <ele>3436</ele>
        <time>2022-10-22T05:36:45.000Z</time>
      </trkpt>
      <trkpt lat="27.829942" lon="86.741056">
        <ele>3435.4</ele>
        <time>2022-10-22T05:36:48.000Z</time>
      </trkpt>
      <trkpt lat="27.829962" lon="86.741075">
        <ele>3435.4</ele>
        <time>2022-10-22T05:36:50.000Z</time>
      </trkpt>
      <trkpt lat="27.829968" lon="86.741107">
        <ele>3435.2</ele>
        <time>2022-10-22T05:36:54.000Z</time>
      </trkpt>
      <trkpt lat="27.829987" lon="86.741114">
        <ele>3435.2</ele>
        <time>2022-10-22T05:36:56.000Z</time>
      </trkpt>
      <trkpt lat="27.830003" lon="86.741133">
        <ele>3435.4</ele>
        <time>2022-10-22T05:36:58.000Z</time>
      </trkpt>
      <trkpt lat="27.830019" lon="86.741152">
        <ele>3435.4</ele>
        <time>2022-10-22T05:36:59.000Z</time>
      </trkpt>
      <trkpt lat="27.830026" lon="86.741171">
        <ele>3435</ele>
        <time>2022-10-22T05:37:02.000Z</time>
      </trkpt>
      <trkpt lat="27.830035" lon="86.74119">
        <ele>3435</ele>
        <time>2022-10-22T05:37:03.000Z</time>
      </trkpt>
      <trkpt lat="27.830048" lon="86.741216">
        <ele>3435.6</ele>
        <time>2022-10-22T05:37:06.000Z</time>
      </trkpt>
      <trkpt lat="27.830038" lon="86.741235">
        <ele>3435.6</ele>
        <time>2022-10-22T05:37:08.000Z</time>
      </trkpt>
      <trkpt lat="27.830019" lon="86.741254">
        <ele>3436.2</ele>
        <time>2022-10-22T05:37:10.000Z</time>
      </trkpt>
      <trkpt lat="27.830013" lon="86.741274">
        <ele>3436.4</ele>
        <time>2022-10-22T05:37:13.000Z</time>
      </trkpt>
      <trkpt lat="27.830016" lon="86.741306">
        <ele>3436.8</ele>
        <time>2022-10-22T05:37:17.000Z</time>
      </trkpt>
      <trkpt lat="27.830016" lon="86.741331">
        <ele>3437.2</ele>
        <time>2022-10-22T05:37:20.000Z</time>
      </trkpt>
      <trkpt lat="27.830013" lon="86.741357">
        <ele>3437.8</ele>
        <time>2022-10-22T05:37:23.000Z</time>
      </trkpt>
      <trkpt lat="27.83001" lon="86.741389">
        <ele>3437.8</ele>
        <time>2022-10-22T05:37:26.000Z</time>
      </trkpt>
      <trkpt lat="27.829997" lon="86.741408">
        <ele>3437.8</ele>
        <time>2022-10-22T05:37:28.000Z</time>
      </trkpt>
      <trkpt lat="27.829984" lon="86.741434">
        <ele>3437.8</ele>
        <time>2022-10-22T05:37:31.000Z</time>
      </trkpt>
      <trkpt lat="27.829968" lon="86.741453">
        <ele>3437.8</ele>
        <time>2022-10-22T05:37:33.000Z</time>
      </trkpt>
      <trkpt lat="27.829958" lon="86.741478">
        <ele>3437.8</ele>
        <time>2022-10-22T05:37:35.000Z</time>
      </trkpt>
      <trkpt lat="27.829955" lon="86.741504">
        <ele>3437.8</ele>
        <time>2022-10-22T05:37:36.000Z</time>
      </trkpt>
      <trkpt lat="27.829955" lon="86.74153">
        <ele>3437.8</ele>
        <time>2022-10-22T05:37:38.000Z</time>
      </trkpt>
      <trkpt lat="27.829949" lon="86.741555">
        <ele>3438</ele>
        <time>2022-10-22T05:37:40.000Z</time>
      </trkpt>
      <trkpt lat="27.829942" lon="86.741574">
        <ele>3438.2</ele>
        <time>2022-10-22T05:37:43.000Z</time>
      </trkpt>
      <trkpt lat="27.829933" lon="86.741594">
        <ele>3438.4</ele>
        <time>2022-10-22T05:37:45.000Z</time>
      </trkpt>
      <trkpt lat="27.82992" lon="86.741613">
        <ele>3438.4</ele>
        <time>2022-10-22T05:37:48.000Z</time>
      </trkpt>
      <trkpt lat="27.829917" lon="86.741638">
        <ele>3438.4</ele>
        <time>2022-10-22T05:37:51.000Z</time>
      </trkpt>
      <trkpt lat="27.829914" lon="86.741664">
        <ele>3438.4</ele>
        <time>2022-10-22T05:37:53.000Z</time>
      </trkpt>
      <trkpt lat="27.829901" lon="86.741683">
        <ele>3439.4</ele>
        <time>2022-10-22T05:37:56.000Z</time>
      </trkpt>
      <trkpt lat="27.829891" lon="86.741709">
        <ele>3439.4</ele>
        <time>2022-10-22T05:37:58.000Z</time>
      </trkpt>
      <trkpt lat="27.829878" lon="86.741734">
        <ele>3439.4</ele>
        <time>2022-10-22T05:38:00.000Z</time>
      </trkpt>
      <trkpt lat="27.829875" lon="86.74176">
        <ele>3439</ele>
        <time>2022-10-22T05:38:02.000Z</time>
      </trkpt>
      <trkpt lat="27.829866" lon="86.741792">
        <ele>3439.4</ele>
        <time>2022-10-22T05:38:05.000Z</time>
      </trkpt>
      <trkpt lat="27.829856" lon="86.741811">
        <ele>3439.6</ele>
        <time>2022-10-22T05:38:07.000Z</time>
      </trkpt>
      <trkpt lat="27.829846" lon="86.741837">
        <ele>3439.6</ele>
        <time>2022-10-22T05:38:09.000Z</time>
      </trkpt>
      <trkpt lat="27.829824" lon="86.74185">
        <ele>3439.6</ele>
        <time>2022-10-22T05:38:11.000Z</time>
      </trkpt>
      <trkpt lat="27.829818" lon="86.741869">
        <ele>3439.8</ele>
        <time>2022-10-22T05:38:12.000Z</time>
      </trkpt>
      <trkpt lat="27.829805" lon="86.741888">
        <ele>3440</ele>
        <time>2022-10-22T05:38:14.000Z</time>
      </trkpt>
      <trkpt lat="27.829792" lon="86.741907">
        <ele>3440</ele>
        <time>2022-10-22T05:38:15.000Z</time>
      </trkpt>
      <trkpt lat="27.829782" lon="86.741926">
        <ele>3440</ele>
        <time>2022-10-22T05:38:17.000Z</time>
      </trkpt>
      <trkpt lat="27.829776" lon="86.741952">
        <ele>3440</ele>
        <time>2022-10-22T05:38:19.000Z</time>
      </trkpt>
      <trkpt lat="27.82976" lon="86.741984">
        <ele>3440.6</ele>
        <time>2022-10-22T05:38:22.000Z</time>
      </trkpt>
      <trkpt lat="27.82975" lon="86.742003">
        <ele>3440.8</ele>
        <time>2022-10-22T05:38:24.000Z</time>
      </trkpt>
      <trkpt lat="27.829744" lon="86.742035">
        <ele>3441.4</ele>
        <time>2022-10-22T05:38:26.000Z</time>
      </trkpt>
      <trkpt lat="27.829744" lon="86.742067">
        <ele>3441.4</ele>
        <time>2022-10-22T05:38:28.000Z</time>
      </trkpt>
      <trkpt lat="27.829744" lon="86.742112">
        <ele>3441.8</ele>
        <time>2022-10-22T05:38:32.000Z</time>
      </trkpt>
      <trkpt lat="27.829744" lon="86.742144">
        <ele>3441.6</ele>
        <time>2022-10-22T05:38:35.000Z</time>
      </trkpt>
      <trkpt lat="27.829741" lon="86.74217">
        <ele>3441.6</ele>
        <time>2022-10-22T05:38:37.000Z</time>
      </trkpt>
      <trkpt lat="27.82975" lon="86.742189">
        <ele>3441.4</ele>
        <time>2022-10-22T05:38:39.000Z</time>
      </trkpt>
      <trkpt lat="27.829757" lon="86.742221">
        <ele>3441.4</ele>
        <time>2022-10-22T05:38:42.000Z</time>
      </trkpt>
      <trkpt lat="27.82976" lon="86.742246">
        <ele>3441.4</ele>
        <time>2022-10-22T05:38:45.000Z</time>
      </trkpt>
      <trkpt lat="27.82976" lon="86.742272">
        <ele>3441.4</ele>
        <time>2022-10-22T05:38:47.000Z</time>
      </trkpt>
      <trkpt lat="27.829766" lon="86.742304">
        <ele>3441.6</ele>
        <time>2022-10-22T05:38:49.000Z</time>
      </trkpt>
      <trkpt lat="27.829776" lon="86.742323">
        <ele>3441.6</ele>
        <time>2022-10-22T05:38:51.000Z</time>
      </trkpt>
      <trkpt lat="27.829782" lon="86.742342">
        <ele>3441.8</ele>
        <time>2022-10-22T05:38:53.000Z</time>
      </trkpt>
      <trkpt lat="27.829782" lon="86.742368">
        <ele>3442</ele>
        <time>2022-10-22T05:38:57.000Z</time>
      </trkpt>
      <trkpt lat="27.829795" lon="86.742394">
        <ele>3442</ele>
        <time>2022-10-22T05:38:59.000Z</time>
      </trkpt>
      <trkpt lat="27.829811" lon="86.742419">
        <ele>3442</ele>
        <time>2022-10-22T05:39:02.000Z</time>
      </trkpt>
      <trkpt lat="27.829834" lon="86.742438">
        <ele>3441.8</ele>
        <time>2022-10-22T05:39:04.000Z</time>
      </trkpt>
      <trkpt lat="27.82984" lon="86.742458">
        <ele>3441.6</ele>
        <time>2022-10-22T05:39:06.000Z</time>
      </trkpt>
      <trkpt lat="27.829859" lon="86.742464">
        <ele>3441.4</ele>
        <time>2022-10-22T05:39:10.000Z</time>
      </trkpt>
      <trkpt lat="27.829882" lon="86.74247">
        <ele>3440.6</ele>
        <time>2022-10-22T05:39:15.000Z</time>
      </trkpt>
      <trkpt lat="27.829901" lon="86.742464">
        <ele>3440.2</ele>
        <time>2022-10-22T05:39:18.000Z</time>
      </trkpt>
      <trkpt lat="27.82992" lon="86.74247">
        <ele>3439.6</ele>
        <time>2022-10-22T05:39:21.000Z</time>
      </trkpt>
      <trkpt lat="27.829914" lon="86.74249">
        <ele>3439.4</ele>
        <time>2022-10-22T05:39:25.000Z</time>
      </trkpt>
      <trkpt lat="27.829907" lon="86.742509">
        <ele>3438.6</ele>
        <time>2022-10-22T05:39:29.000Z</time>
      </trkpt>
      <trkpt lat="27.829907" lon="86.742541">
        <ele>3438</ele>
        <time>2022-10-22T05:39:33.000Z</time>
      </trkpt>
      <trkpt lat="27.82993" lon="86.742547">
        <ele>3436.2</ele>
        <time>2022-10-22T05:39:41.000Z</time>
      </trkpt>
      <trkpt lat="27.829955" lon="86.742541">
        <ele>3435.8</ele>
        <time>2022-10-22T05:39:44.000Z</time>
      </trkpt>
      <trkpt lat="27.829974" lon="86.742541">
        <ele>3435.6</ele>
        <time>2022-10-22T05:39:46.000Z</time>
      </trkpt>
      <trkpt lat="27.83" lon="86.742554">
        <ele>3434.8</ele>
        <time>2022-10-22T05:39:49.000Z</time>
      </trkpt>
      <trkpt lat="27.830022" lon="86.74256">
        <ele>3434.8</ele>
        <time>2022-10-22T05:39:51.000Z</time>
      </trkpt>
      <trkpt lat="27.830048" lon="86.742566">
        <ele>3434.4</ele>
        <time>2022-10-22T05:39:54.000Z</time>
      </trkpt>
      <trkpt lat="27.830064" lon="86.742579">
        <ele>3434.2</ele>
        <time>2022-10-22T05:39:56.000Z</time>
      </trkpt>
      <trkpt lat="27.830086" lon="86.742592">
        <ele>3433.6</ele>
        <time>2022-10-22T05:39:59.000Z</time>
      </trkpt>
      <trkpt lat="27.830106" lon="86.742598">
        <ele>3433.6</ele>
        <time>2022-10-22T05:40:03.000Z</time>
      </trkpt>
      <trkpt lat="27.830125" lon="86.742605">
        <ele>3432.4</ele>
        <time>2022-10-22T05:40:06.000Z</time>
      </trkpt>
      <trkpt lat="27.830144" lon="86.742624">
        <ele>3432</ele>
        <time>2022-10-22T05:40:09.000Z</time>
      </trkpt>
      <trkpt lat="27.830163" lon="86.74263">
        <ele>3431.6</ele>
        <time>2022-10-22T05:40:11.000Z</time>
      </trkpt>
      <trkpt lat="27.830166" lon="86.742656">
        <ele>3431</ele>
        <time>2022-10-22T05:40:14.000Z</time>
      </trkpt>
      <trkpt lat="27.830195" lon="86.742675">
        <ele>3430.2</ele>
        <time>2022-10-22T05:40:19.000Z</time>
      </trkpt>
      <trkpt lat="27.830218" lon="86.742682">
        <ele>3430</ele>
        <time>2022-10-22T05:40:21.000Z</time>
      </trkpt>
      <trkpt lat="27.830224" lon="86.742701">
        <ele>3429.2</ele>
        <time>2022-10-22T05:40:22.000Z</time>
      </trkpt>
      <trkpt lat="27.830234" lon="86.74272">
        <ele>3428.8</ele>
        <time>2022-10-22T05:40:25.000Z</time>
      </trkpt>
      <trkpt lat="27.830234" lon="86.742746">
        <ele>3428.6</ele>
        <time>2022-10-22T05:40:27.000Z</time>
      </trkpt>
      <trkpt lat="27.830237" lon="86.742778">
        <ele>3428</ele>
        <time>2022-10-22T05:40:30.000Z</time>
      </trkpt>
      <trkpt lat="27.830246" lon="86.742797">
        <ele>3427.6</ele>
        <time>2022-10-22T05:40:32.000Z</time>
      </trkpt>
      <trkpt lat="27.830262" lon="86.742816">
        <ele>3427.4</ele>
        <time>2022-10-22T05:40:34.000Z</time>
      </trkpt>
      <trkpt lat="27.830278" lon="86.742835">
        <ele>3426.8</ele>
        <time>2022-10-22T05:40:36.000Z</time>
      </trkpt>
      <trkpt lat="27.830288" lon="86.742854">
        <ele>3426.8</ele>
        <time>2022-10-22T05:40:37.000Z</time>
      </trkpt>
      <trkpt lat="27.83031" lon="86.742854">
        <ele>3426.4</ele>
        <time>2022-10-22T05:40:43.000Z</time>
      </trkpt>
      <trkpt lat="27.830326" lon="86.742842">
        <ele>3425</ele>
        <time>2022-10-22T05:40:49.000Z</time>
      </trkpt>
      <trkpt lat="27.830336" lon="86.742867">
        <ele>3424.2</ele>
        <time>2022-10-22T05:40:54.000Z</time>
      </trkpt>
      <trkpt lat="27.830346" lon="86.742886">
        <ele>3423.4</ele>
        <time>2022-10-22T05:40:57.000Z</time>
      </trkpt>
      <trkpt lat="27.830365" lon="86.742899">
        <ele>3422.8</ele>
        <time>2022-10-22T05:41:02.000Z</time>
      </trkpt>
      <trkpt lat="27.830374" lon="86.742938">
        <ele>3421.8</ele>
        <time>2022-10-22T05:41:10.000Z</time>
      </trkpt>
      <trkpt lat="27.830394" lon="86.742944">
        <ele>3421</ele>
        <time>2022-10-22T05:41:12.000Z</time>
      </trkpt>
      <trkpt lat="27.830413" lon="86.74295">
        <ele>3420.8</ele>
        <time>2022-10-22T05:41:14.000Z</time>
      </trkpt>
      <trkpt lat="27.830426" lon="86.742976">
        <ele>3420.4</ele>
        <time>2022-10-22T05:41:22.000Z</time>
      </trkpt>
      <trkpt lat="27.830432" lon="86.743002">
        <ele>3418.4</ele>
        <time>2022-10-22T05:41:45.000Z</time>
      </trkpt>
      <trkpt lat="27.830416" lon="86.743027">
        <ele>3417.6</ele>
        <time>2022-10-22T05:41:47.000Z</time>
      </trkpt>
      <trkpt lat="27.83041" lon="86.743053">
        <ele>3417.4</ele>
        <time>2022-10-22T05:41:50.000Z</time>
      </trkpt>
      <trkpt lat="27.83039" lon="86.743059">
        <ele>3416</ele>
        <time>2022-10-22T05:41:54.000Z</time>
      </trkpt>
      <trkpt lat="27.830371" lon="86.743066">
        <ele>3416</ele>
        <time>2022-10-22T05:41:56.000Z</time>
      </trkpt>
      <trkpt lat="27.830352" lon="86.743053">
        <ele>3415.2</ele>
        <time>2022-10-22T05:42:01.000Z</time>
      </trkpt>
      <trkpt lat="27.830333" lon="86.743059">
        <ele>3414.4</ele>
        <time>2022-10-22T05:42:05.000Z</time>
      </trkpt>
      <trkpt lat="27.830352" lon="86.743059">
        <ele>3412.6</ele>
        <time>2022-10-22T05:42:18.000Z</time>
      </trkpt>
      <trkpt lat="27.830371" lon="86.743066">
        <ele>3411.6</ele>
        <time>2022-10-22T05:42:21.000Z</time>
      </trkpt>
      <trkpt lat="27.83039" lon="86.743059">
        <ele>3411.2</ele>
        <time>2022-10-22T05:42:25.000Z</time>
      </trkpt>
      <trkpt lat="27.83041" lon="86.743072">
        <ele>3410.4</ele>
        <time>2022-10-22T05:42:29.000Z</time>
      </trkpt>
      <trkpt lat="27.830429" lon="86.743085">
        <ele>3409.8</ele>
        <time>2022-10-22T05:42:32.000Z</time>
      </trkpt>
      <trkpt lat="27.830442" lon="86.743104">
        <ele>3409.2</ele>
        <time>2022-10-22T05:42:35.000Z</time>
      </trkpt>
      <trkpt lat="27.830461" lon="86.743117">
        <ele>3408.4</ele>
        <time>2022-10-22T05:42:38.000Z</time>
      </trkpt>
      <trkpt lat="27.830467" lon="86.743136">
        <ele>3408</ele>
        <time>2022-10-22T05:42:40.000Z</time>
      </trkpt>
      <trkpt lat="27.830483" lon="86.743155">
        <ele>3407.6</ele>
        <time>2022-10-22T05:42:44.000Z</time>
      </trkpt>
      <trkpt lat="27.830502" lon="86.743162">
        <ele>3407</ele>
        <time>2022-10-22T05:42:50.000Z</time>
      </trkpt>
      <trkpt lat="27.830515" lon="86.743181">
        <ele>3406</ele>
        <time>2022-10-22T05:42:55.000Z</time>
      </trkpt>
      <trkpt lat="27.830522" lon="86.7432">
        <ele>3405.6</ele>
        <time>2022-10-22T05:42:59.000Z</time>
      </trkpt>
      <trkpt lat="27.830538" lon="86.743219">
        <ele>3404.6</ele>
        <time>2022-10-22T05:43:02.000Z</time>
      </trkpt>
      <trkpt lat="27.830525" lon="86.743238">
        <ele>3404.2</ele>
        <time>2022-10-22T05:43:06.000Z</time>
      </trkpt>
      <trkpt lat="27.830525" lon="86.743264">
        <ele>3403.2</ele>
        <time>2022-10-22T05:43:13.000Z</time>
      </trkpt>
      <trkpt lat="27.830534" lon="86.743283">
        <ele>3402.2</ele>
        <time>2022-10-22T05:43:18.000Z</time>
      </trkpt>
      <trkpt lat="27.830544" lon="86.743302">
        <ele>3401.2</ele>
        <time>2022-10-22T05:43:22.000Z</time>
      </trkpt>
      <trkpt lat="27.830538" lon="86.743322">
        <ele>3400.6</ele>
        <time>2022-10-22T05:43:27.000Z</time>
      </trkpt>
      <trkpt lat="27.830541" lon="86.743354">
        <ele>3400</ele>
        <time>2022-10-22T05:43:29.000Z</time>
      </trkpt>
      <trkpt lat="27.830544" lon="86.743379">
        <ele>3399</ele>
        <time>2022-10-22T05:43:32.000Z</time>
      </trkpt>
      <trkpt lat="27.830547" lon="86.743411">
        <ele>3398.2</ele>
        <time>2022-10-22T05:43:40.000Z</time>
      </trkpt>
      <trkpt lat="27.830573" lon="86.743424">
        <ele>3397.6</ele>
        <time>2022-10-22T05:43:43.000Z</time>
      </trkpt>
      <trkpt lat="27.830566" lon="86.743443">
        <ele>3396.6</ele>
        <time>2022-10-22T05:43:48.000Z</time>
      </trkpt>
      <trkpt lat="27.83057" lon="86.743469">
        <ele>3396.4</ele>
        <time>2022-10-22T05:43:51.000Z</time>
      </trkpt>
      <trkpt lat="27.830586" lon="86.743494">
        <ele>3395.6</ele>
        <time>2022-10-22T05:43:55.000Z</time>
      </trkpt>
      <trkpt lat="27.830602" lon="86.743514">
        <ele>3394.4</ele>
        <time>2022-10-22T05:44:03.000Z</time>
      </trkpt>
      <trkpt lat="27.830611" lon="86.743533">
        <ele>3393.8</ele>
        <time>2022-10-22T05:44:09.000Z</time>
      </trkpt>
      <trkpt lat="27.830602" lon="86.743558">
        <ele>3392.4</ele>
        <time>2022-10-22T05:44:14.000Z</time>
      </trkpt>
      <trkpt lat="27.830579" lon="86.743558">
        <ele>3392</ele>
        <time>2022-10-22T05:44:18.000Z</time>
      </trkpt>
      <trkpt lat="27.830563" lon="86.743578">
        <ele>3391.6</ele>
        <time>2022-10-22T05:44:21.000Z</time>
      </trkpt>
      <trkpt lat="27.830579" lon="86.74359">
        <ele>3390.6</ele>
        <time>2022-10-22T05:44:25.000Z</time>
      </trkpt>
      <trkpt lat="27.830602" lon="86.74361">
        <ele>3390.2</ele>
        <time>2022-10-22T05:44:28.000Z</time>
      </trkpt>
      <trkpt lat="27.830614" lon="86.743635">
        <ele>3389</ele>
        <time>2022-10-22T05:44:33.000Z</time>
      </trkpt>
      <trkpt lat="27.830621" lon="86.743654">
        <ele>3387.8</ele>
        <time>2022-10-22T05:44:38.000Z</time>
      </trkpt>
      <trkpt lat="27.830627" lon="86.743674">
        <ele>3387.2</ele>
        <time>2022-10-22T05:44:42.000Z</time>
      </trkpt>
      <trkpt lat="27.83064" lon="86.743693">
        <ele>3386.2</ele>
        <time>2022-10-22T05:44:48.000Z</time>
      </trkpt>
      <trkpt lat="27.830659" lon="86.743699">
        <ele>3385.8</ele>
        <time>2022-10-22T05:44:53.000Z</time>
      </trkpt>
      <trkpt lat="27.830653" lon="86.743738">
        <ele>3384.8</ele>
        <time>2022-10-22T05:44:56.000Z</time>
      </trkpt>
      <trkpt lat="27.83065" lon="86.74377">
        <ele>3384.6</ele>
        <time>2022-10-22T05:44:59.000Z</time>
      </trkpt>
      <trkpt lat="27.83064" lon="86.743808">
        <ele>3382.8</ele>
        <time>2022-10-22T05:45:07.000Z</time>
      </trkpt>
      <trkpt lat="27.830646" lon="86.743827">
        <ele>3381.8</ele>
        <time>2022-10-22T05:45:11.000Z</time>
      </trkpt>
      <trkpt lat="27.830643" lon="86.743853">
        <ele>3381.2</ele>
        <time>2022-10-22T05:45:14.000Z</time>
      </trkpt>
      <trkpt lat="27.830653" lon="86.743872">
        <ele>3380.8</ele>
        <time>2022-10-22T05:45:16.000Z</time>
      </trkpt>
      <trkpt lat="27.830672" lon="86.743891">
        <ele>3380.2</ele>
        <time>2022-10-22T05:45:19.000Z</time>
      </trkpt>
      <trkpt lat="27.830688" lon="86.743904">
        <ele>3379.6</ele>
        <time>2022-10-22T05:45:22.000Z</time>
      </trkpt>
      <trkpt lat="27.830682" lon="86.74393">
        <ele>3378.8</ele>
        <time>2022-10-22T05:45:24.000Z</time>
      </trkpt>
      <trkpt lat="27.830656" lon="86.74393">
        <ele>3378</ele>
        <time>2022-10-22T05:45:27.000Z</time>
      </trkpt>
      <trkpt lat="27.83064" lon="86.743917">
        <ele>3378</ele>
        <time>2022-10-22T05:45:29.000Z</time>
      </trkpt>
      <trkpt lat="27.83065" lon="86.743936">
        <ele>3377</ele>
        <time>2022-10-22T05:45:38.000Z</time>
      </trkpt>
      <trkpt lat="27.830669" lon="86.743968">
        <ele>3376</ele>
        <time>2022-10-22T05:45:42.000Z</time>
      </trkpt>
      <trkpt lat="27.830688" lon="86.743981">
        <ele>3375</ele>
        <time>2022-10-22T05:45:46.000Z</time>
      </trkpt>
      <trkpt lat="27.83071" lon="86.744006">
        <ele>3374.6</ele>
        <time>2022-10-22T05:45:49.000Z</time>
      </trkpt>
      <trkpt lat="27.83073" lon="86.744019">
        <ele>3374.2</ele>
        <time>2022-10-22T05:45:53.000Z</time>
      </trkpt>
      <trkpt lat="27.83073" lon="86.744051">
        <ele>3373.2</ele>
        <time>2022-10-22T05:45:59.000Z</time>
      </trkpt>
      <trkpt lat="27.830746" lon="86.74407">
        <ele>3372.2</ele>
        <time>2022-10-22T05:46:04.000Z</time>
      </trkpt>
      <trkpt lat="27.830752" lon="86.74409">
        <ele>3371.8</ele>
        <time>2022-10-22T05:46:08.000Z</time>
      </trkpt>
      <trkpt lat="27.830768" lon="86.744102">
        <ele>3371</ele>
        <time>2022-10-22T05:46:11.000Z</time>
      </trkpt>
      <trkpt lat="27.830758" lon="86.744128">
        <ele>3371</ele>
        <time>2022-10-22T05:46:13.000Z</time>
      </trkpt>
      <trkpt lat="27.830739" lon="86.744134">
        <ele>3370.4</ele>
        <time>2022-10-22T05:46:16.000Z</time>
      </trkpt>
      <trkpt lat="27.830714" lon="86.744147">
        <ele>3369</ele>
        <time>2022-10-22T05:46:23.000Z</time>
      </trkpt>
      <trkpt lat="27.830694" lon="86.744147">
        <ele>3368.4</ele>
        <time>2022-10-22T05:46:28.000Z</time>
      </trkpt>
      <trkpt lat="27.830675" lon="86.744166">
        <ele>3367.6</ele>
        <time>2022-10-22T05:46:33.000Z</time>
      </trkpt>
      <trkpt lat="27.830656" lon="86.744166">
        <ele>3367.6</ele>
        <time>2022-10-22T05:46:36.000Z</time>
      </trkpt>
      <trkpt lat="27.83065" lon="86.744186">
        <ele>3366.2</ele>
        <time>2022-10-22T05:46:46.000Z</time>
      </trkpt>
      <trkpt lat="27.830669" lon="86.744205">
        <ele>3364.2</ele>
        <time>2022-10-22T05:46:59.000Z</time>
      </trkpt>
      <trkpt lat="27.830662" lon="86.744224">
        <ele>3363.6</ele>
        <time>2022-10-22T05:47:03.000Z</time>
      </trkpt>
      <trkpt lat="27.830682" lon="86.744211">
        <ele>3362.8</ele>
        <time>2022-10-22T05:47:07.000Z</time>
      </trkpt>
      <trkpt lat="27.830698" lon="86.74423">
        <ele>3362.2</ele>
        <time>2022-10-22T05:47:10.000Z</time>
      </trkpt>
      <trkpt lat="27.83072" lon="86.74425">
        <ele>3361.8</ele>
        <time>2022-10-22T05:47:13.000Z</time>
      </trkpt>
      <trkpt lat="27.830714" lon="86.744269">
        <ele>3359.6</ele>
        <time>2022-10-22T05:47:25.000Z</time>
      </trkpt>
      <trkpt lat="27.83072" lon="86.744288">
        <ele>3359.2</ele>
        <time>2022-10-22T05:47:27.000Z</time>
      </trkpt>
      <trkpt lat="27.830736" lon="86.744307">
        <ele>3358.8</ele>
        <time>2022-10-22T05:47:30.000Z</time>
      </trkpt>
      <trkpt lat="27.830746" lon="86.744333">
        <ele>3358.8</ele>
        <time>2022-10-22T05:47:31.000Z</time>
      </trkpt>
      <trkpt lat="27.830752" lon="86.744352">
        <ele>3358.2</ele>
        <time>2022-10-22T05:47:33.000Z</time>
      </trkpt>
      <trkpt lat="27.830752" lon="86.744378">
        <ele>3358.2</ele>
        <time>2022-10-22T05:47:35.000Z</time>
      </trkpt>
      <trkpt lat="27.830762" lon="86.744403">
        <ele>3357</ele>
        <time>2022-10-22T05:47:41.000Z</time>
      </trkpt>
      <trkpt lat="27.830778" lon="86.744416">
        <ele>3356.6</ele>
        <time>2022-10-22T05:47:44.000Z</time>
      </trkpt>
      <trkpt lat="27.830787" lon="86.744435">
        <ele>3356.6</ele>
        <time>2022-10-22T05:47:46.000Z</time>
      </trkpt>
      <trkpt lat="27.8308" lon="86.744454">
        <ele>3356.6</ele>
        <time>2022-10-22T05:47:47.000Z</time>
      </trkpt>
      <trkpt lat="27.83081" lon="86.744474">
        <ele>3355.8</ele>
        <time>2022-10-22T05:47:50.000Z</time>
      </trkpt>
      <trkpt lat="27.830829" lon="86.744467">
        <ele>3355.2</ele>
        <time>2022-10-22T05:47:56.000Z</time>
      </trkpt>
      <trkpt lat="27.830842" lon="86.744486">
        <ele>3354.2</ele>
        <time>2022-10-22T05:48:01.000Z</time>
      </trkpt>
      <trkpt lat="27.830851" lon="86.744506">
        <ele>3353.8</ele>
        <time>2022-10-22T05:48:04.000Z</time>
      </trkpt>
      <trkpt lat="27.83087" lon="86.744506">
        <ele>3352.6</ele>
        <time>2022-10-22T05:48:11.000Z</time>
      </trkpt>
      <trkpt lat="27.830893" lon="86.744512">
        <ele>3352.4</ele>
        <time>2022-10-22T05:48:14.000Z</time>
      </trkpt>
      <trkpt lat="27.830912" lon="86.744525">
        <ele>3352</ele>
        <time>2022-10-22T05:48:16.000Z</time>
      </trkpt>
      <trkpt lat="27.830931" lon="86.744531">
        <ele>3351.4</ele>
        <time>2022-10-22T05:48:21.000Z</time>
      </trkpt>
      <trkpt lat="27.830925" lon="86.744512">
        <ele>3351</ele>
        <time>2022-10-22T05:48:22.000Z</time>
      </trkpt>
      <trkpt lat="27.830941" lon="86.744525">
        <ele>3350.4</ele>
        <time>2022-10-22T05:48:24.000Z</time>
      </trkpt>
      <trkpt lat="27.830966" lon="86.744538">
        <ele>3349.8</ele>
        <time>2022-10-22T05:48:28.000Z</time>
      </trkpt>
      <trkpt lat="27.830986" lon="86.744531">
        <ele>3349.4</ele>
        <time>2022-10-22T05:48:30.000Z</time>
      </trkpt>
      <trkpt lat="27.831008" lon="86.744531">
        <ele>3349</ele>
        <time>2022-10-22T05:48:32.000Z</time>
      </trkpt>
      <trkpt lat="27.831037" lon="86.744531">
        <ele>3348.8</ele>
        <time>2022-10-22T05:48:35.000Z</time>
      </trkpt>
      <trkpt lat="27.831059" lon="86.744538">
        <ele>3348</ele>
        <time>2022-10-22T05:48:39.000Z</time>
      </trkpt>
      <trkpt lat="27.831078" lon="86.744544">
        <ele>3348</ele>
        <time>2022-10-22T05:48:42.000Z</time>
      </trkpt>
      <trkpt lat="27.831098" lon="86.744538">
        <ele>3347.8</ele>
        <time>2022-10-22T05:48:44.000Z</time>
      </trkpt>
      <trkpt lat="27.831117" lon="86.744544">
        <ele>3347.4</ele>
        <time>2022-10-22T05:48:46.000Z</time>
      </trkpt>
      <trkpt lat="27.831139" lon="86.74455">
        <ele>3346.8</ele>
        <time>2022-10-22T05:48:49.000Z</time>
      </trkpt>
      <trkpt lat="27.831162" lon="86.744563">
        <ele>3346.6</ele>
        <time>2022-10-22T05:48:52.000Z</time>
      </trkpt>
      <trkpt lat="27.831181" lon="86.744576">
        <ele>3346.2</ele>
        <time>2022-10-22T05:48:54.000Z</time>
      </trkpt>
      <trkpt lat="27.8312" lon="86.744582">
        <ele>3345.2</ele>
        <time>2022-10-22T05:48:58.000Z</time>
      </trkpt>
      <trkpt lat="27.831222" lon="86.744595">
        <ele>3344.6</ele>
        <time>2022-10-22T05:49:01.000Z</time>
      </trkpt>
      <trkpt lat="27.831235" lon="86.744614">
        <ele>3343.6</ele>
        <time>2022-10-22T05:49:05.000Z</time>
      </trkpt>
      <trkpt lat="27.831264" lon="86.744621">
        <ele>3343.2</ele>
        <time>2022-10-22T05:49:08.000Z</time>
      </trkpt>
      <trkpt lat="27.831286" lon="86.744627">
        <ele>3342.8</ele>
        <time>2022-10-22T05:49:11.000Z</time>
      </trkpt>
      <trkpt lat="27.831309" lon="86.744634">
        <ele>3342.4</ele>
        <time>2022-10-22T05:49:14.000Z</time>
      </trkpt>
      <trkpt lat="27.831328" lon="86.744653">
        <ele>3342.4</ele>
        <time>2022-10-22T05:49:17.000Z</time>
      </trkpt>
      <trkpt lat="27.831347" lon="86.744666">
        <ele>3340.6</ele>
        <time>2022-10-22T05:49:24.000Z</time>
      </trkpt>
      <trkpt lat="27.831373" lon="86.744666">
        <ele>3339.8</ele>
        <time>2022-10-22T05:49:28.000Z</time>
      </trkpt>
      <trkpt lat="27.831382" lon="86.744685">
        <ele>3339</ele>
        <time>2022-10-22T05:49:30.000Z</time>
      </trkpt>
      <trkpt lat="27.831398" lon="86.744698">
        <ele>3339</ele>
        <time>2022-10-22T05:49:32.000Z</time>
      </trkpt>
      <trkpt lat="27.831398" lon="86.744723">
        <ele>3338.4</ele>
        <time>2022-10-22T05:49:35.000Z</time>
      </trkpt>
      <trkpt lat="27.831389" lon="86.744742">
        <ele>3337.4</ele>
        <time>2022-10-22T05:49:39.000Z</time>
      </trkpt>
      <trkpt lat="27.831376" lon="86.744762">
        <ele>3336.6</ele>
        <time>2022-10-22T05:49:41.000Z</time>
      </trkpt>
      <trkpt lat="27.831347" lon="86.744762">
        <ele>3335.6</ele>
        <time>2022-10-22T05:49:44.000Z</time>
      </trkpt>
      <trkpt lat="27.831328" lon="86.744768">
        <ele>3335.2</ele>
        <time>2022-10-22T05:49:47.000Z</time>
      </trkpt>
      <trkpt lat="27.831309" lon="86.744781">
        <ele>3335</ele>
        <time>2022-10-22T05:49:50.000Z</time>
      </trkpt>
      <trkpt lat="27.831309" lon="86.744806">
        <ele>3334.6</ele>
        <time>2022-10-22T05:49:52.000Z</time>
      </trkpt>
      <trkpt lat="27.831328" lon="86.744819">
        <ele>3334</ele>
        <time>2022-10-22T05:49:55.000Z</time>
      </trkpt>
      <trkpt lat="27.83135" lon="86.744813">
        <ele>3333.6</ele>
        <time>2022-10-22T05:50:00.000Z</time>
      </trkpt>
      <trkpt lat="27.831366" lon="86.744826">
        <ele>3333.4</ele>
        <time>2022-10-22T05:50:04.000Z</time>
      </trkpt>
      <trkpt lat="27.831373" lon="86.744851">
        <ele>3332.2</ele>
        <time>2022-10-22T05:50:08.000Z</time>
      </trkpt>
      <trkpt lat="27.831389" lon="86.744832">
        <ele>3331.4</ele>
        <time>2022-10-22T05:50:11.000Z</time>
      </trkpt>
      <trkpt lat="27.831405" lon="86.744845">
        <ele>3331</ele>
        <time>2022-10-22T05:50:13.000Z</time>
      </trkpt>
      <trkpt lat="27.831424" lon="86.744851">
        <ele>3330.4</ele>
        <time>2022-10-22T05:50:16.000Z</time>
      </trkpt>
      <trkpt lat="27.831443" lon="86.744851">
        <ele>3329.6</ele>
        <time>2022-10-22T05:50:19.000Z</time>
      </trkpt>
      <trkpt lat="27.831462" lon="86.744864">
        <ele>3328.6</ele>
        <time>2022-10-22T05:50:24.000Z</time>
      </trkpt>
      <trkpt lat="27.831485" lon="86.744864">
        <ele>3328.6</ele>
        <time>2022-10-22T05:50:27.000Z</time>
      </trkpt>
      <trkpt lat="27.831507" lon="86.744883">
        <ele>3328.2</ele>
        <time>2022-10-22T05:50:30.000Z</time>
      </trkpt>
      <trkpt lat="27.83153" lon="86.744896">
        <ele>3327.8</ele>
        <time>2022-10-22T05:50:32.000Z</time>
      </trkpt>
      <trkpt lat="27.831533" lon="86.74487">
        <ele>3326.4</ele>
        <time>2022-10-22T05:50:40.000Z</time>
      </trkpt>
      <trkpt lat="27.831526" lon="86.744896">
        <ele>3325.4</ele>
        <time>2022-10-22T05:50:44.000Z</time>
      </trkpt>
      <trkpt lat="27.831533" lon="86.744922">
        <ele>3325</ele>
        <time>2022-10-22T05:50:46.000Z</time>
      </trkpt>
      <trkpt lat="27.831526" lon="86.74496">
        <ele>3324</ele>
        <time>2022-10-22T05:50:49.000Z</time>
      </trkpt>
      <trkpt lat="27.831514" lon="86.744979">
        <ele>3323.6</ele>
        <time>2022-10-22T05:50:52.000Z</time>
      </trkpt>
      <trkpt lat="27.831501" lon="86.745005">
        <ele>3322.8</ele>
        <time>2022-10-22T05:50:54.000Z</time>
      </trkpt>
      <trkpt lat="27.831491" lon="86.744979">
        <ele>3321.4</ele>
        <time>2022-10-22T05:51:03.000Z</time>
      </trkpt>
      <trkpt lat="27.831498" lon="86.74496">
        <ele>3320.8</ele>
        <time>2022-10-22T05:51:07.000Z</time>
      </trkpt>
      <trkpt lat="27.831514" lon="86.744941">
        <ele>3320.2</ele>
        <time>2022-10-22T05:51:12.000Z</time>
      </trkpt>
      <trkpt lat="27.831523" lon="86.744909">
        <ele>3319.6</ele>
        <time>2022-10-22T05:51:16.000Z</time>
      </trkpt>
      <trkpt lat="27.831549" lon="86.744883">
        <ele>3318</ele>
        <time>2022-10-22T05:51:25.000Z</time>
      </trkpt>
      <trkpt lat="27.831568" lon="86.744864">
        <ele>3318</ele>
        <time>2022-10-22T05:51:28.000Z</time>
      </trkpt>
      <trkpt lat="27.83159" lon="86.744851">
        <ele>3317.8</ele>
        <time>2022-10-22T05:51:31.000Z</time>
      </trkpt>
      <trkpt lat="27.831603" lon="86.74487">
        <ele>3317.2</ele>
        <time>2022-10-22T05:51:35.000Z</time>
      </trkpt>
      <trkpt lat="27.831619" lon="86.74489">
        <ele>3317.2</ele>
        <time>2022-10-22T05:51:36.000Z</time>
      </trkpt>
      <trkpt lat="27.831645" lon="86.744909">
        <ele>3317</ele>
        <time>2022-10-22T05:51:38.000Z</time>
      </trkpt>
      <trkpt lat="27.831654" lon="86.744934">
        <ele>3317</ele>
        <time>2022-10-22T05:51:40.000Z</time>
      </trkpt>
      <trkpt lat="27.831651" lon="86.74496">
        <ele>3316.8</ele>
        <time>2022-10-22T05:51:42.000Z</time>
      </trkpt>
      <trkpt lat="27.831658" lon="86.744986">
        <ele>3316.8</ele>
        <time>2022-10-22T05:51:44.000Z</time>
      </trkpt>
      <trkpt lat="27.831683" lon="86.745011">
        <ele>3316.8</ele>
        <time>2022-10-22T05:51:46.000Z</time>
      </trkpt>
      <trkpt lat="27.831712" lon="86.745018">
        <ele>3316.4</ele>
        <time>2022-10-22T05:51:48.000Z</time>
      </trkpt>
      <trkpt lat="27.831731" lon="86.745043">
        <ele>3316.6</ele>
        <time>2022-10-22T05:51:51.000Z</time>
      </trkpt>
      <trkpt lat="27.831747" lon="86.745056">
        <ele>3316.6</ele>
        <time>2022-10-22T05:51:53.000Z</time>
      </trkpt>
      <trkpt lat="27.83177" lon="86.745062">
        <ele>3316.6</ele>
        <time>2022-10-22T05:51:55.000Z</time>
      </trkpt>
      <trkpt lat="27.831789" lon="86.745082">
        <ele>3316.4</ele>
        <time>2022-10-22T05:51:57.000Z</time>
      </trkpt>
      <trkpt lat="27.831811" lon="86.745094">
        <ele>3316</ele>
        <time>2022-10-22T05:51:59.000Z</time>
      </trkpt>
      <trkpt lat="27.831834" lon="86.745107">
        <ele>3316.2</ele>
        <time>2022-10-22T05:52:02.000Z</time>
      </trkpt>
      <trkpt lat="27.831846" lon="86.745126">
        <ele>3316.2</ele>
        <time>2022-10-22T05:52:04.000Z</time>
      </trkpt>
      <trkpt lat="27.831862" lon="86.745139">
        <ele>3316</ele>
        <time>2022-10-22T05:52:07.000Z</time>
      </trkpt>
      <trkpt lat="27.831882" lon="86.745158">
        <ele>3316.2</ele>
        <time>2022-10-22T05:52:10.000Z</time>
      </trkpt>
      <trkpt lat="27.831901" lon="86.745165">
        <ele>3316.2</ele>
        <time>2022-10-22T05:52:13.000Z</time>
      </trkpt>
      <trkpt lat="27.83192" lon="86.745171">
        <ele>3316.2</ele>
        <time>2022-10-22T05:52:15.000Z</time>
      </trkpt>
      <trkpt lat="27.831946" lon="86.745178">
        <ele>3316.6</ele>
        <time>2022-10-22T05:52:18.000Z</time>
      </trkpt>
      <trkpt lat="27.831968" lon="86.74519">
        <ele>3317</ele>
        <time>2022-10-22T05:52:21.000Z</time>
      </trkpt>
      <trkpt lat="27.831984" lon="86.745203">
        <ele>3317.6</ele>
        <time>2022-10-22T05:52:24.000Z</time>
      </trkpt>
      <trkpt lat="27.832003" lon="86.745216">
        <ele>3318</ele>
        <time>2022-10-22T05:52:29.000Z</time>
      </trkpt>
      <trkpt lat="27.832029" lon="86.745229">
        <ele>3317.6</ele>
        <time>2022-10-22T05:52:32.000Z</time>
      </trkpt>
      <trkpt lat="27.832048" lon="86.745248">
        <ele>3317.4</ele>
        <time>2022-10-22T05:52:36.000Z</time>
      </trkpt>
      <trkpt lat="27.832067" lon="86.745248">
        <ele>3317.8</ele>
        <time>2022-10-22T05:52:45.000Z</time>
      </trkpt>
      <trkpt lat="27.83209" lon="86.745248">
        <ele>3317.6</ele>
        <time>2022-10-22T05:52:48.000Z</time>
      </trkpt>
      <trkpt lat="27.832112" lon="86.745254">
        <ele>3317.6</ele>
        <time>2022-10-22T05:52:52.000Z</time>
      </trkpt>
      <trkpt lat="27.832128" lon="86.745267">
        <ele>3317.6</ele>
        <time>2022-10-22T05:52:54.000Z</time>
      </trkpt>
      <trkpt lat="27.83215" lon="86.74528">
        <ele>3316.8</ele>
        <time>2022-10-22T05:52:57.000Z</time>
      </trkpt>
      <trkpt lat="27.83217" lon="86.745286">
        <ele>3316.8</ele>
        <time>2022-10-22T05:53:00.000Z</time>
      </trkpt>
      <trkpt lat="27.832192" lon="86.745286">
        <ele>3317</ele>
        <time>2022-10-22T05:53:02.000Z</time>
      </trkpt>
      <trkpt lat="27.832211" lon="86.745286">
        <ele>3317.2</ele>
        <time>2022-10-22T05:53:05.000Z</time>
      </trkpt>
      <trkpt lat="27.832237" lon="86.74528">
        <ele>3317.4</ele>
        <time>2022-10-22T05:53:08.000Z</time>
      </trkpt>
      <trkpt lat="27.832259" lon="86.74528">
        <ele>3317.4</ele>
        <time>2022-10-22T05:53:11.000Z</time>
      </trkpt>
      <trkpt lat="27.832278" lon="86.74528">
        <ele>3318.4</ele>
        <time>2022-10-22T05:53:14.000Z</time>
      </trkpt>
      <trkpt lat="27.832298" lon="86.745286">
        <ele>3318.4</ele>
        <time>2022-10-22T05:53:17.000Z</time>
      </trkpt>
      <trkpt lat="27.832314" lon="86.745267">
        <ele>3318.4</ele>
        <time>2022-10-22T05:53:20.000Z</time>
      </trkpt>
      <trkpt lat="27.832294" lon="86.745248">
        <ele>3319</ele>
        <time>2022-10-22T05:53:24.000Z</time>
      </trkpt>
      <trkpt lat="27.832282" lon="86.745229">
        <ele>3319.8</ele>
        <time>2022-10-22T05:53:27.000Z</time>
      </trkpt>
      <trkpt lat="27.832272" lon="86.745203">
        <ele>3321</ele>
        <time>2022-10-22T05:53:34.000Z</time>
      </trkpt>
      <trkpt lat="27.832262" lon="86.745184">
        <ele>3321.6</ele>
        <time>2022-10-22T05:53:38.000Z</time>
      </trkpt>
      <trkpt lat="27.832262" lon="86.745158">
        <ele>3322.4</ele>
        <time>2022-10-22T05:53:43.000Z</time>
      </trkpt>
      <trkpt lat="27.832256" lon="86.745139">
        <ele>3322.4</ele>
        <time>2022-10-22T05:53:46.000Z</time>
      </trkpt>
      <trkpt lat="27.832253" lon="86.745107">
        <ele>3323.2</ele>
        <time>2022-10-22T05:53:51.000Z</time>
      </trkpt>
      <trkpt lat="27.832269" lon="86.745094">
        <ele>3323.8</ele>
        <time>2022-10-22T05:53:56.000Z</time>
      </trkpt>
      <trkpt lat="27.832291" lon="86.745069">
        <ele>3324.6</ele>
        <time>2022-10-22T05:54:01.000Z</time>
      </trkpt>
      <trkpt lat="27.832307" lon="86.745082">
        <ele>3325.4</ele>
        <time>2022-10-22T05:54:04.000Z</time>
      </trkpt>
      <trkpt lat="27.832323" lon="86.745101">
        <ele>3325.2</ele>
        <time>2022-10-22T05:54:08.000Z</time>
      </trkpt>
      <trkpt lat="27.832342" lon="86.745107">
        <ele>3324.8</ele>
        <time>2022-10-22T05:54:12.000Z</time>
      </trkpt>
      <trkpt lat="27.832342" lon="86.745133">
        <ele>3324.8</ele>
        <time>2022-10-22T05:54:19.000Z</time>
      </trkpt>
      <trkpt lat="27.832365" lon="86.745133">
        <ele>3316.6</ele>
        <time>2022-10-22T06:16:25.000Z</time>
      </trkpt>
      <trkpt lat="27.832342" lon="86.745107">
        <ele>3317.2</ele>
        <time>2022-10-22T06:16:30.000Z</time>
      </trkpt>
      <trkpt lat="27.832317" lon="86.745088">
        <ele>3317.2</ele>
        <time>2022-10-22T06:16:35.000Z</time>
      </trkpt>
      <trkpt lat="27.832298" lon="86.745082">
        <ele>3317.2</ele>
        <time>2022-10-22T06:16:36.000Z</time>
      </trkpt>
      <trkpt lat="27.832291" lon="86.745101">
        <ele>3317</ele>
        <time>2022-10-22T06:16:41.000Z</time>
      </trkpt>
      <trkpt lat="27.832269" lon="86.745094">
        <ele>3317</ele>
        <time>2022-10-22T06:16:42.000Z</time>
      </trkpt>
      <trkpt lat="27.832282" lon="86.745133">
        <ele>3318.2</ele>
        <time>2022-10-22T06:17:22.000Z</time>
      </trkpt>
      <trkpt lat="27.832285" lon="86.745158">
        <ele>3317.6</ele>
        <time>2022-10-22T06:17:23.000Z</time>
      </trkpt>
      <trkpt lat="27.832307" lon="86.745184">
        <ele>3317.6</ele>
        <time>2022-10-22T06:17:25.000Z</time>
      </trkpt>
      <trkpt lat="27.83232" lon="86.74521">
        <ele>3317.4</ele>
        <time>2022-10-22T06:17:26.000Z</time>
      </trkpt>
      <trkpt lat="27.832336" lon="86.745229">
        <ele>3317.6</ele>
        <time>2022-10-22T06:17:28.000Z</time>
      </trkpt>
      <trkpt lat="27.832358" lon="86.745242">
        <ele>3317.4</ele>
        <time>2022-10-22T06:17:31.000Z</time>
      </trkpt>
      <trkpt lat="27.832374" lon="86.745254">
        <ele>3317.6</ele>
        <time>2022-10-22T06:17:34.000Z</time>
      </trkpt>
      <trkpt lat="27.832384" lon="86.74528">
        <ele>3317.6</ele>
        <time>2022-10-22T06:17:36.000Z</time>
      </trkpt>
      <trkpt lat="27.8324" lon="86.745293">
        <ele>3318</ele>
        <time>2022-10-22T06:17:38.000Z</time>
      </trkpt>
      <trkpt lat="27.832429" lon="86.745299">
        <ele>3318</ele>
        <time>2022-10-22T06:17:41.000Z</time>
      </trkpt>
      <trkpt lat="27.832451" lon="86.745306">
        <ele>3317.8</ele>
        <time>2022-10-22T06:17:43.000Z</time>
      </trkpt>
      <trkpt lat="27.832442" lon="86.745325">
        <ele>3317.6</ele>
        <time>2022-10-22T06:17:46.000Z</time>
      </trkpt>
      <trkpt lat="27.832464" lon="86.745325">
        <ele>3317.8</ele>
        <time>2022-10-22T06:17:52.000Z</time>
      </trkpt>
      <trkpt lat="27.83248" lon="86.745306">
        <ele>3317.8</ele>
        <time>2022-10-22T06:17:55.000Z</time>
      </trkpt>
      <trkpt lat="27.832445" lon="86.745318">
        <ele>3318</ele>
        <time>2022-10-22T06:18:05.000Z</time>
      </trkpt>
      <trkpt lat="27.832406" lon="86.745325">
        <ele>3318</ele>
        <time>2022-10-22T06:18:07.000Z</time>
      </trkpt>
      <trkpt lat="27.832384" lon="86.745338">
        <ele>3318.2</ele>
        <time>2022-10-22T06:18:09.000Z</time>
      </trkpt>
      <trkpt lat="27.832381" lon="86.74537">
        <ele>3318.2</ele>
        <time>2022-10-22T06:18:11.000Z</time>
      </trkpt>
      <trkpt lat="27.832362" lon="86.745402">
        <ele>3318.2</ele>
        <time>2022-10-22T06:18:13.000Z</time>
      </trkpt>
      <trkpt lat="27.832358" lon="86.74544">
        <ele>3318.4</ele>
        <time>2022-10-22T06:18:16.000Z</time>
      </trkpt>
      <trkpt lat="27.832342" lon="86.745453">
        <ele>3318.2</ele>
        <time>2022-10-22T06:18:19.000Z</time>
      </trkpt>
      <trkpt lat="27.832323" lon="86.745466">
        <ele>3318</ele>
        <time>2022-10-22T06:18:21.000Z</time>
      </trkpt>
      <trkpt lat="27.832326" lon="86.745498">
        <ele>3318</ele>
        <time>2022-10-22T06:18:23.000Z</time>
      </trkpt>
      <trkpt lat="27.832323" lon="86.745523">
        <ele>3318</ele>
        <time>2022-10-22T06:18:25.000Z</time>
      </trkpt>
      <trkpt lat="27.832314" lon="86.745574">
        <ele>3318.2</ele>
        <time>2022-10-22T06:18:27.000Z</time>
      </trkpt>
      <trkpt lat="27.832278" lon="86.74553">
        <ele>3318.2</ele>
        <time>2022-10-22T06:18:30.000Z</time>
      </trkpt>
      <trkpt lat="27.83225" lon="86.745504">
        <ele>3318.2</ele>
        <time>2022-10-22T06:18:32.000Z</time>
      </trkpt>
      <trkpt lat="27.832237" lon="86.745485">
        <ele>3318.2</ele>
        <time>2022-10-22T06:18:34.000Z</time>
      </trkpt>
      <trkpt lat="27.83223" lon="86.74544">
        <ele>3318</ele>
        <time>2022-10-22T06:18:37.000Z</time>
      </trkpt>
      <trkpt lat="27.832224" lon="86.745414">
        <ele>3318</ele>
        <time>2022-10-22T06:18:38.000Z</time>
      </trkpt>
      <trkpt lat="27.832218" lon="86.745389">
        <ele>3318</ele>
        <time>2022-10-22T06:18:40.000Z</time>
      </trkpt>
      <trkpt lat="27.832234" lon="86.745363">
        <ele>3318</ele>
        <time>2022-10-22T06:18:42.000Z</time>
      </trkpt>
      <trkpt lat="27.832266" lon="86.745344">
        <ele>3318</ele>
        <time>2022-10-22T06:18:43.000Z</time>
      </trkpt>
      <trkpt lat="27.832291" lon="86.745338">
        <ele>3318</ele>
        <time>2022-10-22T06:18:44.000Z</time>
      </trkpt>
      <trkpt lat="27.832336" lon="86.745325">
        <ele>3318</ele>
        <time>2022-10-22T06:18:45.000Z</time>
      </trkpt>
      <trkpt lat="27.832358" lon="86.745318">
        <ele>3317.8</ele>
        <time>2022-10-22T06:18:46.000Z</time>
      </trkpt>
      <trkpt lat="27.832384" lon="86.745299">
        <ele>3317.8</ele>
        <time>2022-10-22T06:18:47.000Z</time>
      </trkpt>
      <trkpt lat="27.832413" lon="86.745318">
        <ele>3318</ele>
        <time>2022-10-22T06:18:50.000Z</time>
      </trkpt>
      <trkpt lat="27.832438" lon="86.745331">
        <ele>3318.4</ele>
        <time>2022-10-22T06:18:55.000Z</time>
      </trkpt>
      <trkpt lat="27.832458" lon="86.745344">
        <ele>3318.6</ele>
        <time>2022-10-22T06:18:57.000Z</time>
      </trkpt>
      <trkpt lat="27.832477" lon="86.745357">
        <ele>3318.6</ele>
        <time>2022-10-22T06:19:06.000Z</time>
      </trkpt>
      <trkpt lat="27.832464" lon="86.745338">
        <ele>3318.6</ele>
        <time>2022-10-22T06:19:19.000Z</time>
      </trkpt>
      <trkpt lat="27.832474" lon="86.745318">
        <ele>3318.6</ele>
        <time>2022-10-22T06:19:22.000Z</time>
      </trkpt>
      <trkpt lat="27.832454" lon="86.745325">
        <ele>3318.6</ele>
        <time>2022-10-22T06:19:26.000Z</time>
      </trkpt>
      <trkpt lat="27.832429" lon="86.745306">
        <ele>3319.2</ele>
        <time>2022-10-22T06:20:04.000Z</time>
      </trkpt>
      <trkpt lat="27.832413" lon="86.745293">
        <ele>3319.2</ele>
        <time>2022-10-22T06:20:05.000Z</time>
      </trkpt>
      <trkpt lat="27.83239" lon="86.745254">
        <ele>3319</ele>
        <time>2022-10-22T06:20:07.000Z</time>
      </trkpt>
      <trkpt lat="27.832358" lon="86.745242">
        <ele>3318.6</ele>
        <time>2022-10-22T06:20:09.000Z</time>
      </trkpt>
      <trkpt lat="27.832333" lon="86.745222">
        <ele>3318.6</ele>
        <time>2022-10-22T06:20:11.000Z</time>
      </trkpt>
      <trkpt lat="27.83232" lon="86.745203">
        <ele>3318.6</ele>
        <time>2022-10-22T06:20:12.000Z</time>
      </trkpt>
      <trkpt lat="27.83231" lon="86.745184">
        <ele>3319</ele>
        <time>2022-10-22T06:20:16.000Z</time>
      </trkpt>
      <trkpt lat="27.832294" lon="86.745171">
        <ele>3319</ele>
        <time>2022-10-22T06:20:25.000Z</time>
      </trkpt>
      <trkpt lat="27.832278" lon="86.745139">
        <ele>3321.2</ele>
        <time>2022-10-22T06:25:12.000Z</time>
      </trkpt>
      <trkpt lat="27.832403" lon="86.745107">
        <ele>3321.2</ele>
        <time>2022-10-22T06:25:43.000Z</time>
      </trkpt>
      <trkpt lat="27.832378" lon="86.745107">
        <ele>3321.2</ele>
        <time>2022-10-22T06:25:46.000Z</time>
      </trkpt>
      <trkpt lat="27.832352" lon="86.745146">
        <ele>3321.2</ele>
        <time>2022-10-22T06:25:51.000Z</time>
      </trkpt>
      <trkpt lat="27.832358" lon="86.745165">
        <ele>3321.2</ele>
        <time>2022-10-22T06:25:53.000Z</time>
      </trkpt>
      <trkpt lat="27.832336" lon="86.745165">
        <ele>3321.2</ele>
        <time>2022-10-22T06:25:55.000Z</time>
      </trkpt>
      <trkpt lat="27.832336" lon="86.745139">
        <ele>3321.2</ele>
        <time>2022-10-22T06:25:56.000Z</time>
      </trkpt>
      <trkpt lat="27.832349" lon="86.745101">
        <ele>3321.2</ele>
        <time>2022-10-22T06:25:58.000Z</time>
      </trkpt>
      <trkpt lat="27.832355" lon="86.74512">
        <ele>3321.4</ele>
        <time>2022-10-22T06:26:04.000Z</time>
      </trkpt>
      <trkpt lat="27.832381" lon="86.74512">
        <ele>3321</ele>
        <time>2022-10-22T06:26:08.000Z</time>
      </trkpt>
      <trkpt lat="27.8324" lon="86.74512">
        <ele>3321</ele>
        <time>2022-10-22T06:26:09.000Z</time>
      </trkpt>
      <trkpt lat="27.832435" lon="86.745107">
        <ele>3321</ele>
        <time>2022-10-22T06:26:16.000Z</time>
      </trkpt>
      <trkpt lat="27.8324" lon="86.745139">
        <ele>3321.4</ele>
        <time>2022-10-22T06:26:21.000Z</time>
      </trkpt>
      <trkpt lat="27.832381" lon="86.745158">
        <ele>3321.4</ele>
        <time>2022-10-22T06:26:22.000Z</time>
      </trkpt>
      <trkpt lat="27.832387" lon="86.745178">
        <ele>3321.4</ele>
        <time>2022-10-22T06:26:26.000Z</time>
      </trkpt>
      <trkpt lat="27.8324" lon="86.745203">
        <ele>3321.6</ele>
        <time>2022-10-22T06:26:31.000Z</time>
      </trkpt>
      <trkpt lat="27.832349" lon="86.745184">
        <ele>3321</ele>
        <time>2022-10-22T06:29:26.000Z</time>
      </trkpt>
      <trkpt lat="27.83233" lon="86.74519">
        <ele>3321</ele>
        <time>2022-10-22T06:29:29.000Z</time>
      </trkpt>
      <trkpt lat="27.832307" lon="86.745203">
        <ele>3321.4</ele>
        <time>2022-10-22T06:29:31.000Z</time>
      </trkpt>
      <trkpt lat="27.832288" lon="86.74519">
        <ele>3321.4</ele>
        <time>2022-10-22T06:29:34.000Z</time>
      </trkpt>
      <trkpt lat="27.832282" lon="86.74521">
        <ele>3321.4</ele>
        <time>2022-10-22T06:29:36.000Z</time>
      </trkpt>
      <trkpt lat="27.832291" lon="86.74519">
        <ele>3321</ele>
        <time>2022-10-22T06:29:40.000Z</time>
      </trkpt>
      <trkpt lat="27.832307" lon="86.745178">
        <ele>3321.4</ele>
        <time>2022-10-22T06:29:45.000Z</time>
      </trkpt>
      <trkpt lat="27.832307" lon="86.745203">
        <ele>3321</ele>
        <time>2022-10-22T06:29:48.000Z</time>
      </trkpt>
      <trkpt lat="27.832307" lon="86.745178">
        <ele>3321</ele>
        <time>2022-10-22T06:29:52.000Z</time>
      </trkpt>
      <trkpt lat="27.832285" lon="86.745184">
        <ele>3321.2</ele>
        <time>2022-10-22T06:29:57.000Z</time>
      </trkpt>
      <trkpt lat="27.832307" lon="86.745178">
        <ele>3321.2</ele>
        <time>2022-10-22T06:30:03.000Z</time>
      </trkpt>
      <trkpt lat="27.83232" lon="86.745158">
        <ele>3321.4</ele>
        <time>2022-10-22T06:30:06.000Z</time>
      </trkpt>
      <trkpt lat="27.83231" lon="86.745184">
        <ele>3321.2</ele>
        <time>2022-10-22T06:30:08.000Z</time>
      </trkpt>
      <trkpt lat="27.832301" lon="86.74521">
        <ele>3321.4</ele>
        <time>2022-10-22T06:30:10.000Z</time>
      </trkpt>
      <trkpt lat="27.832301" lon="86.745184">
        <ele>3321</ele>
        <time>2022-10-22T06:30:16.000Z</time>
      </trkpt>
      <trkpt lat="27.83231" lon="86.745165">
        <ele>3320.8</ele>
        <time>2022-10-22T06:30:19.000Z</time>
      </trkpt>
      <trkpt lat="27.832317" lon="86.745146">
        <ele>3321.2</ele>
        <time>2022-10-22T06:30:22.000Z</time>
      </trkpt>
      <trkpt lat="27.83232" lon="86.745178">
        <ele>3320.6</ele>
        <time>2022-10-22T06:30:27.000Z</time>
      </trkpt>
      <trkpt lat="27.832301" lon="86.745203">
        <ele>3320.6</ele>
        <time>2022-10-22T06:30:36.000Z</time>
      </trkpt>
      <trkpt lat="27.832278" lon="86.745203">
        <ele>3321</ele>
        <time>2022-10-22T06:30:38.000Z</time>
      </trkpt>
      <trkpt lat="27.832246" lon="86.745203">
        <ele>3321.2</ele>
        <time>2022-10-22T06:30:40.000Z</time>
      </trkpt>
      <trkpt lat="27.832237" lon="86.745165">
        <ele>3321</ele>
        <time>2022-10-22T06:30:44.000Z</time>
      </trkpt>
      <trkpt lat="27.832211" lon="86.745165">
        <ele>3320.8</ele>
        <time>2022-10-22T06:30:47.000Z</time>
      </trkpt>
      <trkpt lat="27.832198" lon="86.745139">
        <ele>3320.2</ele>
        <time>2022-10-22T06:30:50.000Z</time>
      </trkpt>
      <trkpt lat="27.832192" lon="86.74512">
        <ele>3320</ele>
        <time>2022-10-22T06:30:52.000Z</time>
      </trkpt>
      <trkpt lat="27.832186" lon="86.745101">
        <ele>3320.8</ele>
        <time>2022-10-22T06:30:55.000Z</time>
      </trkpt>
      <trkpt lat="27.832208" lon="86.745107">
        <ele>3320.8</ele>
        <time>2022-10-22T06:31:00.000Z</time>
      </trkpt>
      <trkpt lat="27.832227" lon="86.74512">
        <ele>3320.8</ele>
        <time>2022-10-22T06:31:01.000Z</time>
      </trkpt>
      <trkpt lat="27.832256" lon="86.745133">
        <ele>3320.4</ele>
        <time>2022-10-22T06:31:04.000Z</time>
      </trkpt>
      <trkpt lat="27.83224" lon="86.745107">
        <ele>3321.2</ele>
        <time>2022-10-22T06:31:10.000Z</time>
      </trkpt>
      <trkpt lat="27.832246" lon="86.745126">
        <ele>3320.8</ele>
        <time>2022-10-22T06:31:15.000Z</time>
      </trkpt>
      <trkpt lat="27.832253" lon="86.745165">
        <ele>3321</ele>
        <time>2022-10-22T06:31:23.000Z</time>
      </trkpt>
      <trkpt lat="27.832272" lon="86.745171">
        <ele>3321.2</ele>
        <time>2022-10-22T06:31:53.000Z</time>
      </trkpt>
      <trkpt lat="27.832291" lon="86.745184">
        <ele>3321</ele>
        <time>2022-10-22T06:31:54.000Z</time>
      </trkpt>
      <trkpt lat="27.832301" lon="86.745203">
        <ele>3321</ele>
        <time>2022-10-22T06:31:55.000Z</time>
      </trkpt>
      <trkpt lat="27.832333" lon="86.745216">
        <ele>3321</ele>
        <time>2022-10-22T06:31:57.000Z</time>
      </trkpt>
      <trkpt lat="27.832358" lon="86.745222">
        <ele>3321</ele>
        <time>2022-10-22T06:32:01.000Z</time>
      </trkpt>
      <trkpt lat="27.832336" lon="86.74521">
        <ele>3322.2</ele>
        <time>2022-10-22T06:33:29.000Z</time>
      </trkpt>
      <trkpt lat="27.832326" lon="86.74519">
        <ele>3322.2</ele>
        <time>2022-10-22T06:33:30.000Z</time>
      </trkpt>
      <trkpt lat="27.832307" lon="86.745171">
        <ele>3322.2</ele>
        <time>2022-10-22T06:33:32.000Z</time>
      </trkpt>
      <trkpt lat="27.832291" lon="86.745158">
        <ele>3322.4</ele>
        <time>2022-10-22T06:33:34.000Z</time>
      </trkpt>
      <trkpt lat="27.832282" lon="86.745139">
        <ele>3322.6</ele>
        <time>2022-10-22T06:33:35.000Z</time>
      </trkpt>
      <trkpt lat="27.832259" lon="86.745126">
        <ele>3322.6</ele>
        <time>2022-10-22T06:33:37.000Z</time>
      </trkpt>
      <trkpt lat="27.83224" lon="86.745133">
        <ele>3322.6</ele>
        <time>2022-10-22T06:33:40.000Z</time>
      </trkpt>
      <trkpt lat="27.832221" lon="86.74512">
        <ele>3322</ele>
        <time>2022-10-22T06:33:44.000Z</time>
      </trkpt>
      <trkpt lat="27.832198" lon="86.745107">
        <ele>3321.4</ele>
        <time>2022-10-22T06:33:46.000Z</time>
      </trkpt>
      <trkpt lat="27.832182" lon="86.74512">
        <ele>3321.2</ele>
        <time>2022-10-22T06:33:51.000Z</time>
      </trkpt>
      <trkpt lat="27.832176" lon="86.745139">
        <ele>3321.4</ele>
        <time>2022-10-22T06:33:58.000Z</time>
      </trkpt>
      <trkpt lat="27.832166" lon="86.745165">
        <ele>3321.2</ele>
        <time>2022-10-22T06:34:01.000Z</time>
      </trkpt>
      <trkpt lat="27.83215" lon="86.745184">
        <ele>3320.6</ele>
        <time>2022-10-22T06:34:04.000Z</time>
      </trkpt>
      <trkpt lat="27.832141" lon="86.74521">
        <ele>3319.6</ele>
        <time>2022-10-22T06:34:06.000Z</time>
      </trkpt>
      <trkpt lat="27.832128" lon="86.745229">
        <ele>3319.8</ele>
        <time>2022-10-22T06:34:09.000Z</time>
      </trkpt>
      <trkpt lat="27.832122" lon="86.745261">
        <ele>3319.6</ele>
        <time>2022-10-22T06:34:11.000Z</time>
      </trkpt>
      <trkpt lat="27.832118" lon="86.745286">
        <ele>3319.4</ele>
        <time>2022-10-22T06:34:13.000Z</time>
      </trkpt>
      <trkpt lat="27.832102" lon="86.745299">
        <ele>3319</ele>
        <time>2022-10-22T06:34:19.000Z</time>
      </trkpt>
      <trkpt lat="27.832096" lon="86.745318">
        <ele>3318.6</ele>
        <time>2022-10-22T06:34:20.000Z</time>
      </trkpt>
      <trkpt lat="27.83208" lon="86.745331">
        <ele>3318.2</ele>
        <time>2022-10-22T06:34:22.000Z</time>
      </trkpt>
      <trkpt lat="27.832074" lon="86.745363">
        <ele>3318</ele>
        <time>2022-10-22T06:34:24.000Z</time>
      </trkpt>
      <trkpt lat="27.832054" lon="86.745376">
        <ele>3317.2</ele>
        <time>2022-10-22T06:34:27.000Z</time>
      </trkpt>
      <trkpt lat="27.832048" lon="86.745402">
        <ele>3317.2</ele>
        <time>2022-10-22T06:34:30.000Z</time>
      </trkpt>
      <trkpt lat="27.832038" lon="86.745421">
        <ele>3317</ele>
        <time>2022-10-22T06:34:33.000Z</time>
      </trkpt>
      <trkpt lat="27.832029" lon="86.745446">
        <ele>3317</ele>
        <time>2022-10-22T06:34:35.000Z</time>
      </trkpt>
      <trkpt lat="27.832016" lon="86.745466">
        <ele>3316.8</ele>
        <time>2022-10-22T06:34:37.000Z</time>
      </trkpt>
      <trkpt lat="27.832003" lon="86.745485">
        <ele>3316.4</ele>
        <time>2022-10-22T06:34:39.000Z</time>
      </trkpt>
      <trkpt lat="27.831994" lon="86.745504">
        <ele>3316.8</ele>
        <time>2022-10-22T06:34:41.000Z</time>
      </trkpt>
      <trkpt lat="27.831987" lon="86.74553">
        <ele>3316.6</ele>
        <time>2022-10-22T06:34:44.000Z</time>
      </trkpt>
      <trkpt lat="27.831978" lon="86.745555">
        <ele>3316.4</ele>
        <time>2022-10-22T06:34:46.000Z</time>
      </trkpt>
      <trkpt lat="27.831965" lon="86.745574">
        <ele>3315.8</ele>
        <time>2022-10-22T06:34:51.000Z</time>
      </trkpt>
      <trkpt lat="27.831952" lon="86.745606">
        <ele>3316.8</ele>
        <time>2022-10-22T06:34:54.000Z</time>
      </trkpt>
      <trkpt lat="27.831942" lon="86.745638">
        <ele>3318.2</ele>
        <time>2022-10-22T06:34:58.000Z</time>
      </trkpt>
      <trkpt lat="27.831933" lon="86.745658">
        <ele>3318.4</ele>
        <time>2022-10-22T06:35:02.000Z</time>
      </trkpt>
      <trkpt lat="27.831923" lon="86.745683">
        <ele>3318.8</ele>
        <time>2022-10-22T06:35:06.000Z</time>
      </trkpt>
      <trkpt lat="27.83191" lon="86.745715">
        <ele>3318.4</ele>
        <time>2022-10-22T06:35:09.000Z</time>
      </trkpt>
      <trkpt lat="27.831894" lon="86.745728">
        <ele>3318</ele>
        <time>2022-10-22T06:35:11.000Z</time>
      </trkpt>
      <trkpt lat="27.831872" lon="86.745773">
        <ele>3318.6</ele>
        <time>2022-10-22T06:35:16.000Z</time>
      </trkpt>
      <trkpt lat="27.831862" lon="86.745798">
        <ele>3319.6</ele>
        <time>2022-10-22T06:35:19.000Z</time>
      </trkpt>
      <trkpt lat="27.831859" lon="86.745824">
        <ele>3319.6</ele>
        <time>2022-10-22T06:35:21.000Z</time>
      </trkpt>
      <trkpt lat="27.83185" lon="86.745843">
        <ele>3319</ele>
        <time>2022-10-22T06:35:23.000Z</time>
      </trkpt>
      <trkpt lat="27.831834" lon="86.745862">
        <ele>3319.4</ele>
        <time>2022-10-22T06:35:25.000Z</time>
      </trkpt>
      <trkpt lat="27.831824" lon="86.745888">
        <ele>3320</ele>
        <time>2022-10-22T06:35:27.000Z</time>
      </trkpt>
      <trkpt lat="27.831811" lon="86.745914">
        <ele>3320.4</ele>
        <time>2022-10-22T06:35:30.000Z</time>
      </trkpt>
      <trkpt lat="27.831795" lon="86.745933">
        <ele>3321.2</ele>
        <time>2022-10-22T06:35:33.000Z</time>
      </trkpt>
      <trkpt lat="27.831779" lon="86.745958">
        <ele>3321.8</ele>
        <time>2022-10-22T06:35:37.000Z</time>
      </trkpt>
      <trkpt lat="27.83177" lon="86.745984">
        <ele>3322</ele>
        <time>2022-10-22T06:35:40.000Z</time>
      </trkpt>
      <trkpt lat="27.831763" lon="86.746003">
        <ele>3322.4</ele>
        <time>2022-10-22T06:35:42.000Z</time>
      </trkpt>
      <trkpt lat="27.831747" lon="86.746016">
        <ele>3322.4</ele>
        <time>2022-10-22T06:35:44.000Z</time>
      </trkpt>
      <trkpt lat="27.831731" lon="86.746042">
        <ele>3322.6</ele>
        <time>2022-10-22T06:35:47.000Z</time>
      </trkpt>
      <trkpt lat="27.831715" lon="86.746061">
        <ele>3323</ele>
        <time>2022-10-22T06:35:50.000Z</time>
      </trkpt>
      <trkpt lat="27.831706" lon="86.746086">
        <ele>3323.4</ele>
        <time>2022-10-22T06:35:53.000Z</time>
      </trkpt>
      <trkpt lat="27.831693" lon="86.746118">
        <ele>3323.2</ele>
        <time>2022-10-22T06:35:56.000Z</time>
      </trkpt>
      <trkpt lat="27.831683" lon="86.746138">
        <ele>3322.8</ele>
        <time>2022-10-22T06:36:02.000Z</time>
      </trkpt>
      <trkpt lat="27.831677" lon="86.746157">
        <ele>3321.6</ele>
        <time>2022-10-22T06:36:07.000Z</time>
      </trkpt>
      <trkpt lat="27.831664" lon="86.746176">
        <ele>3320.8</ele>
        <time>2022-10-22T06:37:53.000Z</time>
      </trkpt>
      <trkpt lat="27.831658" lon="86.746214">
        <ele>3320.2</ele>
        <time>2022-10-22T06:37:59.000Z</time>
      </trkpt>
      <trkpt lat="27.831654" lon="86.74624">
        <ele>3320.2</ele>
        <time>2022-10-22T06:38:01.000Z</time>
      </trkpt>
      <trkpt lat="27.831661" lon="86.746259">
        <ele>3320.2</ele>
        <time>2022-10-22T06:38:03.000Z</time>
      </trkpt>
      <trkpt lat="27.83167" lon="86.746285">
        <ele>3320.4</ele>
        <time>2022-10-22T06:38:06.000Z</time>
      </trkpt>
      <trkpt lat="27.831686" lon="86.74631">
        <ele>3320.4</ele>
        <time>2022-10-22T06:38:09.000Z</time>
      </trkpt>
      <trkpt lat="27.831696" lon="86.74633">
        <ele>3320.4</ele>
        <time>2022-10-22T06:38:11.000Z</time>
      </trkpt>
      <trkpt lat="27.831702" lon="86.746355">
        <ele>3320.6</ele>
        <time>2022-10-22T06:38:15.000Z</time>
      </trkpt>
      <trkpt lat="27.831712" lon="86.746374">
        <ele>3320.6</ele>
        <time>2022-10-22T06:38:21.000Z</time>
      </trkpt>
      <trkpt lat="27.831725" lon="86.746394">
        <ele>3320.6</ele>
        <time>2022-10-22T06:38:24.000Z</time>
      </trkpt>
      <trkpt lat="27.831738" lon="86.746413">
        <ele>3320.8</ele>
        <time>2022-10-22T06:38:27.000Z</time>
      </trkpt>
      <trkpt lat="27.831744" lon="86.746432">
        <ele>3321</ele>
        <time>2022-10-22T06:38:29.000Z</time>
      </trkpt>
      <trkpt lat="27.83176" lon="86.746445">
        <ele>3321</ele>
        <time>2022-10-22T06:38:31.000Z</time>
      </trkpt>
      <trkpt lat="27.83177" lon="86.74647">
        <ele>3320.8</ele>
        <time>2022-10-22T06:38:33.000Z</time>
      </trkpt>
      <trkpt lat="27.831782" lon="86.74649">
        <ele>3321.2</ele>
        <time>2022-10-22T06:38:36.000Z</time>
      </trkpt>
      <trkpt lat="27.831802" lon="86.746509">
        <ele>3320.8</ele>
        <time>2022-10-22T06:38:39.000Z</time>
      </trkpt>
      <trkpt lat="27.831814" lon="86.746528">
        <ele>3321.2</ele>
        <time>2022-10-22T06:38:42.000Z</time>
      </trkpt>
      <trkpt lat="27.83183" lon="86.746554">
        <ele>3321.4</ele>
        <time>2022-10-22T06:38:46.000Z</time>
      </trkpt>
      <trkpt lat="27.83185" lon="86.746573">
        <ele>3321.4</ele>
        <time>2022-10-22T06:38:48.000Z</time>
      </trkpt>
      <trkpt lat="27.831862" lon="86.746592">
        <ele>3321.6</ele>
        <time>2022-10-22T06:38:51.000Z</time>
      </trkpt>
      <trkpt lat="27.831882" lon="86.746598">
        <ele>3321.8</ele>
        <time>2022-10-22T06:38:54.000Z</time>
      </trkpt>
      <trkpt lat="27.831904" lon="86.746605">
        <ele>3322</ele>
        <time>2022-10-22T06:38:57.000Z</time>
      </trkpt>
      <trkpt lat="27.831926" lon="86.746605">
        <ele>3322.6</ele>
        <time>2022-10-22T06:39:01.000Z</time>
      </trkpt>
      <trkpt lat="27.831946" lon="86.746605">
        <ele>3322.6</ele>
        <time>2022-10-22T06:39:03.000Z</time>
      </trkpt>
      <trkpt lat="27.831968" lon="86.746611">
        <ele>3322.4</ele>
        <time>2022-10-22T06:39:06.000Z</time>
      </trkpt>
      <trkpt lat="27.83199" lon="86.746618">
        <ele>3322.8</ele>
        <time>2022-10-22T06:39:10.000Z</time>
      </trkpt>
      <trkpt lat="27.832013" lon="86.746637">
        <ele>3323.6</ele>
        <time>2022-10-22T06:39:15.000Z</time>
      </trkpt>
      <trkpt lat="27.832032" lon="86.746643">
        <ele>3324.2</ele>
        <time>2022-10-22T06:39:25.000Z</time>
      </trkpt>
      <trkpt lat="27.832051" lon="86.746643">
        <ele>3324.2</ele>
        <time>2022-10-22T06:39:29.000Z</time>
      </trkpt>
      <trkpt lat="27.832118" lon="86.746675">
        <ele>3327</ele>
        <time>2022-10-22T06:40:59.000Z</time>
      </trkpt>
      <trkpt lat="27.832138" lon="86.746682">
        <ele>3327</ele>
        <time>2022-10-22T06:41:01.000Z</time>
      </trkpt>
      <trkpt lat="27.832122" lon="86.746707">
        <ele>3329</ele>
        <time>2022-10-22T06:44:07.000Z</time>
      </trkpt>
      <trkpt lat="27.832131" lon="86.746726">
        <ele>3329.2</ele>
        <time>2022-10-22T06:44:10.000Z</time>
      </trkpt>
      <trkpt lat="27.832138" lon="86.746752">
        <ele>3329.2</ele>
        <time>2022-10-22T06:44:28.000Z</time>
      </trkpt>
      <trkpt lat="27.832122" lon="86.746765">
        <ele>3328.8</ele>
        <time>2022-10-22T06:44:42.000Z</time>
      </trkpt>
      <trkpt lat="27.832093" lon="86.74679">
        <ele>3329.2</ele>
        <time>2022-10-22T06:45:58.000Z</time>
      </trkpt>
      <trkpt lat="27.832109" lon="86.746803">
        <ele>3329</ele>
        <time>2022-10-22T06:46:02.000Z</time>
      </trkpt>
      <trkpt lat="27.832128" lon="86.746803">
        <ele>3330</ele>
        <time>2022-10-22T06:46:38.000Z</time>
      </trkpt>
      <trkpt lat="27.83215" lon="86.746797">
        <ele>3329.8</ele>
        <time>2022-10-22T06:46:43.000Z</time>
      </trkpt>
      <trkpt lat="27.832118" lon="86.746797">
        <ele>3329.4</ele>
        <time>2022-10-22T06:47:33.000Z</time>
      </trkpt>
      <trkpt lat="27.832099" lon="86.746803">
        <ele>3329.4</ele>
        <time>2022-10-22T06:47:36.000Z</time>
      </trkpt>
      <trkpt lat="27.83208" lon="86.746816">
        <ele>3329.6</ele>
        <time>2022-10-22T06:47:39.000Z</time>
      </trkpt>
      <trkpt lat="27.832058" lon="86.746835">
        <ele>3329.6</ele>
        <time>2022-10-22T06:47:42.000Z</time>
      </trkpt>
      <trkpt lat="27.832061" lon="86.746867">
        <ele>3329.4</ele>
        <time>2022-10-22T06:47:44.000Z</time>
      </trkpt>
      <trkpt lat="27.83207" lon="86.746886">
        <ele>3329.6</ele>
        <time>2022-10-22T06:47:54.000Z</time>
      </trkpt>
      <trkpt lat="27.832061" lon="86.746867">
        <ele>3329</ele>
        <time>2022-10-22T06:47:57.000Z</time>
      </trkpt>
      <trkpt lat="27.832054" lon="86.746848">
        <ele>3329.4</ele>
        <time>2022-10-22T06:48:00.000Z</time>
      </trkpt>
      <trkpt lat="27.832048" lon="86.746829">
        <ele>3329.6</ele>
        <time>2022-10-22T06:48:03.000Z</time>
      </trkpt>
      <trkpt lat="27.83208" lon="86.746765">
        <ele>3330.2</ele>
        <time>2022-10-22T06:49:28.000Z</time>
      </trkpt>
      <trkpt lat="27.832109" lon="86.746771">
        <ele>3330.4</ele>
        <time>2022-10-22T06:49:32.000Z</time>
      </trkpt>
      <trkpt lat="27.832128" lon="86.746771">
        <ele>3330.4</ele>
        <time>2022-10-22T06:49:36.000Z</time>
      </trkpt>
      <trkpt lat="27.832134" lon="86.74679">
        <ele>3330.4</ele>
        <time>2022-10-22T06:49:38.000Z</time>
      </trkpt>
      <trkpt lat="27.832093" lon="86.746733">
        <ele>3332.6</ele>
        <time>2022-10-22T06:52:13.000Z</time>
      </trkpt>
      <trkpt lat="27.832112" lon="86.746733">
        <ele>3332.8</ele>
        <time>2022-10-22T06:52:15.000Z</time>
      </trkpt>
      <trkpt lat="27.832134" lon="86.746739">
        <ele>3333.2</ele>
        <time>2022-10-22T06:52:17.000Z</time>
      </trkpt>
      <trkpt lat="27.83216" lon="86.746752">
        <ele>3333.6</ele>
        <time>2022-10-22T06:52:19.000Z</time>
      </trkpt>
      <trkpt lat="27.832186" lon="86.746752">
        <ele>3334.4</ele>
        <time>2022-10-22T06:52:22.000Z</time>
      </trkpt>
      <trkpt lat="27.832208" lon="86.746752">
        <ele>3334.4</ele>
        <time>2022-10-22T06:52:25.000Z</time>
      </trkpt>
      <trkpt lat="27.83223" lon="86.746758">
        <ele>3335</ele>
        <time>2022-10-22T06:52:29.000Z</time>
      </trkpt>
      <trkpt lat="27.83225" lon="86.746752">
        <ele>3335.6</ele>
        <time>2022-10-22T06:52:35.000Z</time>
      </trkpt>
      <trkpt lat="27.832278" lon="86.746752">
        <ele>3337.8</ele>
        <time>2022-10-22T06:52:53.000Z</time>
      </trkpt>
      <trkpt lat="27.832301" lon="86.746758">
        <ele>3337.6</ele>
        <time>2022-10-22T06:52:56.000Z</time>
      </trkpt>
      <trkpt lat="27.832333" lon="86.746758">
        <ele>3338</ele>
        <time>2022-10-22T06:53:00.000Z</time>
      </trkpt>
      <trkpt lat="27.832349" lon="86.746771">
        <ele>3338.6</ele>
        <time>2022-10-22T06:53:03.000Z</time>
      </trkpt>
      <trkpt lat="27.832352" lon="86.746797">
        <ele>3339.2</ele>
        <time>2022-10-22T06:53:08.000Z</time>
      </trkpt>
      <trkpt lat="27.832378" lon="86.746803">
        <ele>3339.6</ele>
        <time>2022-10-22T06:53:13.000Z</time>
      </trkpt>
      <trkpt lat="27.8324" lon="86.746835">
        <ele>3340</ele>
        <time>2022-10-22T06:53:15.000Z</time>
      </trkpt>
      <trkpt lat="27.832419" lon="86.746848">
        <ele>3340.2</ele>
        <time>2022-10-22T06:53:19.000Z</time>
      </trkpt>
      <trkpt lat="27.832429" lon="86.746867">
        <ele>3340.4</ele>
        <time>2022-10-22T06:53:22.000Z</time>
      </trkpt>
      <trkpt lat="27.832429" lon="86.746893">
        <ele>3341</ele>
        <time>2022-10-22T06:53:26.000Z</time>
      </trkpt>
      <trkpt lat="27.832435" lon="86.746918">
        <ele>3341</ele>
        <time>2022-10-22T06:53:28.000Z</time>
      </trkpt>
      <trkpt lat="27.832451" lon="86.746931">
        <ele>3341.6</ele>
        <time>2022-10-22T06:53:31.000Z</time>
      </trkpt>
      <trkpt lat="27.832458" lon="86.74695">
        <ele>3342.2</ele>
        <time>2022-10-22T06:53:35.000Z</time>
      </trkpt>
      <trkpt lat="27.832474" lon="86.746963">
        <ele>3343.6</ele>
        <time>2022-10-22T06:53:43.000Z</time>
      </trkpt>
      <trkpt lat="27.832467" lon="86.746989">
        <ele>3344</ele>
        <time>2022-10-22T06:53:48.000Z</time>
      </trkpt>
      <trkpt lat="27.832486" lon="86.747008">
        <ele>3344.4</ele>
        <time>2022-10-22T06:53:52.000Z</time>
      </trkpt>
      <trkpt lat="27.832493" lon="86.747027">
        <ele>3344.6</ele>
        <time>2022-10-22T06:53:56.000Z</time>
      </trkpt>
      <trkpt lat="27.832509" lon="86.74704">
        <ele>3345.8</ele>
        <time>2022-10-22T06:54:01.000Z</time>
      </trkpt>
      <trkpt lat="27.832528" lon="86.747046">
        <ele>3346</ele>
        <time>2022-10-22T06:54:05.000Z</time>
      </trkpt>
      <trkpt lat="27.832544" lon="86.747066">
        <ele>3346.4</ele>
        <time>2022-10-22T06:54:10.000Z</time>
      </trkpt>
      <trkpt lat="27.832557" lon="86.747085">
        <ele>3346.4</ele>
        <time>2022-10-22T06:54:13.000Z</time>
      </trkpt>
      <trkpt lat="27.83257" lon="86.747104">
        <ele>3346.8</ele>
        <time>2022-10-22T06:54:16.000Z</time>
      </trkpt>
      <trkpt lat="27.832586" lon="86.747117">
        <ele>3347.4</ele>
        <time>2022-10-22T06:54:17.000Z</time>
      </trkpt>
      <trkpt lat="27.832605" lon="86.74713">
        <ele>3349</ele>
        <time>2022-10-22T06:54:28.000Z</time>
      </trkpt>
      <trkpt lat="27.832634" lon="86.747136">
        <ele>3349.4</ele>
        <time>2022-10-22T06:54:30.000Z</time>
      </trkpt>
      <trkpt lat="27.832646" lon="86.747155">
        <ele>3349.2</ele>
        <time>2022-10-22T06:54:32.000Z</time>
      </trkpt>
      <trkpt lat="27.832643" lon="86.747187">
        <ele>3349.4</ele>
        <time>2022-10-22T06:54:36.000Z</time>
      </trkpt>
      <trkpt lat="27.832634" lon="86.747206">
        <ele>3349.6</ele>
        <time>2022-10-22T06:54:40.000Z</time>
      </trkpt>
      <trkpt lat="27.832624" lon="86.747226">
        <ele>3349.4</ele>
        <time>2022-10-22T06:54:42.000Z</time>
      </trkpt>
      <trkpt lat="27.832621" lon="86.747251">
        <ele>3350</ele>
        <time>2022-10-22T06:54:48.000Z</time>
      </trkpt>
      <trkpt lat="27.832624" lon="86.747277">
        <ele>3350.6</ele>
        <time>2022-10-22T06:54:51.000Z</time>
      </trkpt>
      <trkpt lat="27.832634" lon="86.747309">
        <ele>3350.8</ele>
        <time>2022-10-22T06:54:56.000Z</time>
      </trkpt>
      <trkpt lat="27.832634" lon="86.747347">
        <ele>3351.4</ele>
        <time>2022-10-22T06:55:02.000Z</time>
      </trkpt>
      <trkpt lat="27.832624" lon="86.747373">
        <ele>3352</ele>
        <time>2022-10-22T06:55:07.000Z</time>
      </trkpt>
      <trkpt lat="27.832624" lon="86.747398">
        <ele>3352.4</ele>
        <time>2022-10-22T06:55:12.000Z</time>
      </trkpt>
      <trkpt lat="27.832621" lon="86.747424">
        <ele>3352.8</ele>
        <time>2022-10-22T06:55:15.000Z</time>
      </trkpt>
      <trkpt lat="27.832614" lon="86.74745">
        <ele>3354.2</ele>
        <time>2022-10-22T06:55:25.000Z</time>
      </trkpt>
      <trkpt lat="27.832608" lon="86.747469">
        <ele>3354.6</ele>
        <time>2022-10-22T06:55:28.000Z</time>
      </trkpt>
      <trkpt lat="27.832598" lon="86.747488">
        <ele>3356.4</ele>
        <time>2022-10-22T06:55:38.000Z</time>
      </trkpt>
      <trkpt lat="27.832595" lon="86.747514">
        <ele>3356.8</ele>
        <time>2022-10-22T06:55:43.000Z</time>
      </trkpt>
      <trkpt lat="27.832605" lon="86.74759">
        <ele>3360.4</ele>
        <time>2022-10-22T06:56:29.000Z</time>
      </trkpt>
      <trkpt lat="27.832595" lon="86.74761">
        <ele>3360.6</ele>
        <time>2022-10-22T06:56:31.000Z</time>
      </trkpt>
      <trkpt lat="27.832592" lon="86.747635">
        <ele>3360.8</ele>
        <time>2022-10-22T06:56:33.000Z</time>
      </trkpt>
      <trkpt lat="27.832592" lon="86.747674">
        <ele>3361.2</ele>
        <time>2022-10-22T06:56:35.000Z</time>
      </trkpt>
      <trkpt lat="27.832582" lon="86.747706">
        <ele>3361.4</ele>
        <time>2022-10-22T06:56:37.000Z</time>
      </trkpt>
      <trkpt lat="27.83256" lon="86.747712">
        <ele>3361.6</ele>
        <time>2022-10-22T06:56:40.000Z</time>
      </trkpt>
      <trkpt lat="27.83256" lon="86.747744">
        <ele>3362</ele>
        <time>2022-10-22T06:56:49.000Z</time>
      </trkpt>
      <trkpt lat="27.83255" lon="86.747782">
        <ele>3362.4</ele>
        <time>2022-10-22T06:56:54.000Z</time>
      </trkpt>
      <trkpt lat="27.832541" lon="86.747808">
        <ele>3362.8</ele>
        <time>2022-10-22T06:56:58.000Z</time>
      </trkpt>
      <trkpt lat="27.832538" lon="86.747834">
        <ele>3363.2</ele>
        <time>2022-10-22T06:57:01.000Z</time>
      </trkpt>
      <trkpt lat="27.832518" lon="86.747846">
        <ele>3364</ele>
        <time>2022-10-22T06:57:05.000Z</time>
      </trkpt>
      <trkpt lat="27.832509" lon="86.747866">
        <ele>3364</ele>
        <time>2022-10-22T06:57:07.000Z</time>
      </trkpt>
      <trkpt lat="27.832493" lon="86.747891">
        <ele>3363.4</ele>
        <time>2022-10-22T06:57:10.000Z</time>
      </trkpt>
      <trkpt lat="27.832486" lon="86.74791">
        <ele>3363.4</ele>
        <time>2022-10-22T06:57:12.000Z</time>
      </trkpt>
      <trkpt lat="27.832477" lon="86.74793">
        <ele>3363.6</ele>
        <time>2022-10-22T06:57:15.000Z</time>
      </trkpt>
      <trkpt lat="27.832474" lon="86.747955">
        <ele>3364</ele>
        <time>2022-10-22T06:57:18.000Z</time>
      </trkpt>
      <trkpt lat="27.832467" lon="86.747987">
        <ele>3364.4</ele>
        <time>2022-10-22T06:57:22.000Z</time>
      </trkpt>
      <trkpt lat="27.832461" lon="86.748019">
        <ele>3364.8</ele>
        <time>2022-10-22T06:57:25.000Z</time>
      </trkpt>
      <trkpt lat="27.832458" lon="86.748045">
        <ele>3365.2</ele>
        <time>2022-10-22T06:57:28.000Z</time>
      </trkpt>
      <trkpt lat="27.832458" lon="86.74807">
        <ele>3365.4</ele>
        <time>2022-10-22T06:57:30.000Z</time>
      </trkpt>
      <trkpt lat="27.832454" lon="86.748102">
        <ele>3365.8</ele>
        <time>2022-10-22T06:57:35.000Z</time>
      </trkpt>
      <trkpt lat="27.832448" lon="86.748122">
        <ele>3366.2</ele>
        <time>2022-10-22T06:57:39.000Z</time>
      </trkpt>
      <trkpt lat="27.832448" lon="86.748147">
        <ele>3367</ele>
        <time>2022-10-22T06:57:43.000Z</time>
      </trkpt>
      <trkpt lat="27.832461" lon="86.748179">
        <ele>3367.6</ele>
        <time>2022-10-22T06:57:47.000Z</time>
      </trkpt>
      <trkpt lat="27.832454" lon="86.748205">
        <ele>3368.4</ele>
        <time>2022-10-22T06:57:52.000Z</time>
      </trkpt>
      <trkpt lat="27.832458" lon="86.74823">
        <ele>3368.4</ele>
        <time>2022-10-22T06:57:56.000Z</time>
      </trkpt>
      <trkpt lat="27.832461" lon="86.748256">
        <ele>3368.4</ele>
        <time>2022-10-22T06:57:59.000Z</time>
      </trkpt>
      <trkpt lat="27.832461" lon="86.748282">
        <ele>3368.8</ele>
        <time>2022-10-22T06:58:03.000Z</time>
      </trkpt>
      <trkpt lat="27.832461" lon="86.748307">
        <ele>3369</ele>
        <time>2022-10-22T06:58:06.000Z</time>
      </trkpt>
      <trkpt lat="27.832467" lon="86.748326">
        <ele>3369.2</ele>
        <time>2022-10-22T06:58:09.000Z</time>
      </trkpt>
      <trkpt lat="27.832477" lon="86.748358">
        <ele>3369</ele>
        <time>2022-10-22T06:58:13.000Z</time>
      </trkpt>
      <trkpt lat="27.832486" lon="86.74839">
        <ele>3369.6</ele>
        <time>2022-10-22T06:58:18.000Z</time>
      </trkpt>
      <trkpt lat="27.832496" lon="86.748416">
        <ele>3370</ele>
        <time>2022-10-22T06:58:21.000Z</time>
      </trkpt>
      <trkpt lat="27.832518" lon="86.748435">
        <ele>3371</ele>
        <time>2022-10-22T06:58:27.000Z</time>
      </trkpt>
      <trkpt lat="27.832538" lon="86.748442">
        <ele>3371.2</ele>
        <time>2022-10-22T06:58:33.000Z</time>
      </trkpt>
      <trkpt lat="27.832531" lon="86.748461">
        <ele>3372</ele>
        <time>2022-10-22T06:58:38.000Z</time>
      </trkpt>
      <trkpt lat="27.83255" lon="86.74848">
        <ele>3373</ele>
        <time>2022-10-22T06:59:11.000Z</time>
      </trkpt>
      <trkpt lat="27.83256" lon="86.748499">
        <ele>3373</ele>
        <time>2022-10-22T06:59:12.000Z</time>
      </trkpt>
      <trkpt lat="27.832579" lon="86.748518">
        <ele>3373.2</ele>
        <time>2022-10-22T06:59:14.000Z</time>
      </trkpt>
      <trkpt lat="27.832586" lon="86.748544">
        <ele>3373.2</ele>
        <time>2022-10-22T06:59:15.000Z</time>
      </trkpt>
      <trkpt lat="27.832598" lon="86.748563">
        <ele>3373.6</ele>
        <time>2022-10-22T06:59:17.000Z</time>
      </trkpt>
      <trkpt lat="27.832608" lon="86.748589">
        <ele>3374.4</ele>
        <time>2022-10-22T06:59:19.000Z</time>
      </trkpt>
      <trkpt lat="27.832624" lon="86.748614">
        <ele>3374.6</ele>
        <time>2022-10-22T06:59:22.000Z</time>
      </trkpt>
      <trkpt lat="27.832624" lon="86.74864">
        <ele>3374.8</ele>
        <time>2022-10-22T06:59:25.000Z</time>
      </trkpt>
      <trkpt lat="27.832627" lon="86.748666">
        <ele>3374.6</ele>
        <time>2022-10-22T06:59:27.000Z</time>
      </trkpt>
      <trkpt lat="27.832637" lon="86.748685">
        <ele>3374.6</ele>
        <time>2022-10-22T06:59:29.000Z</time>
      </trkpt>
      <trkpt lat="27.832637" lon="86.748717">
        <ele>3374.6</ele>
        <time>2022-10-22T06:59:31.000Z</time>
      </trkpt>
      <trkpt lat="27.832646" lon="86.748736">
        <ele>3374.8</ele>
        <time>2022-10-22T06:59:32.000Z</time>
      </trkpt>
      <trkpt lat="27.832653" lon="86.748762">
        <ele>3374.8</ele>
        <time>2022-10-22T06:59:35.000Z</time>
      </trkpt>
      <trkpt lat="27.83265" lon="86.748787">
        <ele>3374.8</ele>
        <time>2022-10-22T06:59:37.000Z</time>
      </trkpt>
      <trkpt lat="27.83265" lon="86.748813">
        <ele>3375.2</ele>
        <time>2022-10-22T06:59:40.000Z</time>
      </trkpt>
      <trkpt lat="27.832672" lon="86.748826">
        <ele>3375.8</ele>
        <time>2022-10-22T06:59:45.000Z</time>
      </trkpt>
      <trkpt lat="27.832678" lon="86.748858">
        <ele>3376.6</ele>
        <time>2022-10-22T06:59:49.000Z</time>
      </trkpt>
      <trkpt lat="27.832685" lon="86.748877">
        <ele>3377</ele>
        <time>2022-10-22T06:59:53.000Z</time>
      </trkpt>
      <trkpt lat="27.832694" lon="86.748896">
        <ele>3377.2</ele>
        <time>2022-10-22T06:59:59.000Z</time>
      </trkpt>
      <trkpt lat="27.832714" lon="86.748896">
        <ele>3377.6</ele>
        <time>2022-10-22T07:00:05.000Z</time>
      </trkpt>
      <trkpt lat="27.832726" lon="86.748934">
        <ele>3378.6</ele>
        <time>2022-10-22T07:00:10.000Z</time>
      </trkpt>
      <trkpt lat="27.832736" lon="86.748954">
        <ele>3379.4</ele>
        <time>2022-10-22T07:00:16.000Z</time>
      </trkpt>
      <trkpt lat="27.832755" lon="86.74896">
        <ele>3379.4</ele>
        <time>2022-10-22T07:00:18.000Z</time>
      </trkpt>
      <trkpt lat="27.832778" lon="86.748973">
        <ele>3379.8</ele>
        <time>2022-10-22T07:00:22.000Z</time>
      </trkpt>
      <trkpt lat="27.832797" lon="86.748973">
        <ele>3381</ele>
        <time>2022-10-22T07:00:28.000Z</time>
      </trkpt>
      <trkpt lat="27.832803" lon="86.748992">
        <ele>3380.8</ele>
        <time>2022-10-22T07:00:31.000Z</time>
      </trkpt>
      <trkpt lat="27.832813" lon="86.749011">
        <ele>3381.2</ele>
        <time>2022-10-22T07:00:35.000Z</time>
      </trkpt>
      <trkpt lat="27.832829" lon="86.749024">
        <ele>3381.2</ele>
        <time>2022-10-22T07:00:38.000Z</time>
      </trkpt>
      <trkpt lat="27.832845" lon="86.749037">
        <ele>3381.6</ele>
        <time>2022-10-22T07:00:42.000Z</time>
      </trkpt>
      <trkpt lat="27.832864" lon="86.74903">
        <ele>3381.8</ele>
        <time>2022-10-22T07:00:46.000Z</time>
      </trkpt>
      <trkpt lat="27.832874" lon="86.749056">
        <ele>3382.6</ele>
        <time>2022-10-22T07:00:51.000Z</time>
      </trkpt>
      <trkpt lat="27.832886" lon="86.749075">
        <ele>3382.6</ele>
        <time>2022-10-22T07:00:53.000Z</time>
      </trkpt>
      <trkpt lat="27.832899" lon="86.749094">
        <ele>3382.8</ele>
        <time>2022-10-22T07:01:03.000Z</time>
      </trkpt>
      <trkpt lat="27.832912" lon="86.749114">
        <ele>3383.4</ele>
        <time>2022-10-22T07:01:09.000Z</time>
      </trkpt>
      <trkpt lat="27.832918" lon="86.749133">
        <ele>3385</ele>
        <time>2022-10-22T07:01:16.000Z</time>
      </trkpt>
      <trkpt lat="27.832925" lon="86.749152">
        <ele>3385.2</ele>
        <time>2022-10-22T07:01:19.000Z</time>
      </trkpt>
      <trkpt lat="27.832925" lon="86.749178">
        <ele>3386</ele>
        <time>2022-10-22T07:01:24.000Z</time>
      </trkpt>
      <trkpt lat="27.832925" lon="86.74921">
        <ele>3386.6</ele>
        <time>2022-10-22T07:01:31.000Z</time>
      </trkpt>
      <trkpt lat="27.832928" lon="86.749235">
        <ele>3386.6</ele>
        <time>2022-10-22T07:01:36.000Z</time>
      </trkpt>
      <trkpt lat="27.832931" lon="86.749261">
        <ele>3386.8</ele>
        <time>2022-10-22T07:01:38.000Z</time>
      </trkpt>
      <trkpt lat="27.832944" lon="86.749299">
        <ele>3388</ele>
        <time>2022-10-22T07:01:44.000Z</time>
      </trkpt>
      <trkpt lat="27.83295" lon="86.749318">
        <ele>3388.2</ele>
        <time>2022-10-22T07:01:48.000Z</time>
      </trkpt>
      <trkpt lat="27.832944" lon="86.749338">
        <ele>3388.6</ele>
        <time>2022-10-22T07:01:50.000Z</time>
      </trkpt>
      <trkpt lat="27.832934" lon="86.749357">
        <ele>3389</ele>
        <time>2022-10-22T07:01:53.000Z</time>
      </trkpt>
      <trkpt lat="27.832954" lon="86.749395">
        <ele>3389.4</ele>
        <time>2022-10-22T07:01:55.000Z</time>
      </trkpt>
      <trkpt lat="27.832947" lon="86.749421">
        <ele>3389.8</ele>
        <time>2022-10-22T07:01:57.000Z</time>
      </trkpt>
      <trkpt lat="27.832944" lon="86.749453">
        <ele>3390.8</ele>
        <time>2022-10-22T07:02:05.000Z</time>
      </trkpt>
      <trkpt lat="27.832934" lon="86.749472">
        <ele>3391.4</ele>
        <time>2022-10-22T07:02:07.000Z</time>
      </trkpt>
      <trkpt lat="27.832938" lon="86.749498">
        <ele>3391.8</ele>
        <time>2022-10-22T07:02:13.000Z</time>
      </trkpt>
      <trkpt lat="27.832954" lon="86.74951">
        <ele>3394</ele>
        <time>2022-10-22T07:02:30.000Z</time>
      </trkpt>
      <trkpt lat="27.832966" lon="86.74953">
        <ele>3395</ele>
        <time>2022-10-22T07:02:35.000Z</time>
      </trkpt>
      <trkpt lat="27.832973" lon="86.749549">
        <ele>3395.8</ele>
        <time>2022-10-22T07:02:51.000Z</time>
      </trkpt>
      <trkpt lat="27.832979" lon="86.749568">
        <ele>3396.8</ele>
        <time>2022-10-22T07:02:55.000Z</time>
      </trkpt>
      <trkpt lat="27.832992" lon="86.749587">
        <ele>3397</ele>
        <time>2022-10-22T07:03:01.000Z</time>
      </trkpt>
      <trkpt lat="27.832995" lon="86.749613">
        <ele>3397.2</ele>
        <time>2022-10-22T07:03:04.000Z</time>
      </trkpt>
      <trkpt lat="27.833011" lon="86.749626">
        <ele>3398.2</ele>
        <time>2022-10-22T07:03:08.000Z</time>
      </trkpt>
      <trkpt lat="27.833005" lon="86.749651">
        <ele>3398.2</ele>
        <time>2022-10-22T07:03:10.000Z</time>
      </trkpt>
      <trkpt lat="27.832986" lon="86.749664">
        <ele>3398.2</ele>
        <time>2022-10-22T07:03:13.000Z</time>
      </trkpt>
      <trkpt lat="27.832963" lon="86.749677">
        <ele>3399</ele>
        <time>2022-10-22T07:03:19.000Z</time>
      </trkpt>
      <trkpt lat="27.832947" lon="86.74969">
        <ele>3399.2</ele>
        <time>2022-10-22T07:03:28.000Z</time>
      </trkpt>
      <trkpt lat="27.832966" lon="86.749709">
        <ele>3400</ele>
        <time>2022-10-22T07:03:35.000Z</time>
      </trkpt>
      <trkpt lat="27.832973" lon="86.749728">
        <ele>3400</ele>
        <time>2022-10-22T07:03:37.000Z</time>
      </trkpt>
      <trkpt lat="27.832992" lon="86.749741">
        <ele>3400.6</ele>
        <time>2022-10-22T07:03:40.000Z</time>
      </trkpt>
      <trkpt lat="27.833008" lon="86.749754">
        <ele>3401.4</ele>
        <time>2022-10-22T07:03:45.000Z</time>
      </trkpt>
      <trkpt lat="27.833021" lon="86.749773">
        <ele>3401.6</ele>
        <time>2022-10-22T07:03:48.000Z</time>
      </trkpt>
      <trkpt lat="27.833014" lon="86.749792">
        <ele>3403.6</ele>
        <time>2022-10-22T07:03:55.000Z</time>
      </trkpt>
      <trkpt lat="27.833008" lon="86.749818">
        <ele>3404.4</ele>
        <time>2022-10-22T07:03:59.000Z</time>
      </trkpt>
      <trkpt lat="27.833002" lon="86.74985">
        <ele>3404.8</ele>
        <time>2022-10-22T07:04:05.000Z</time>
      </trkpt>
      <trkpt lat="27.833021" lon="86.749869">
        <ele>3406</ele>
        <time>2022-10-22T07:04:12.000Z</time>
      </trkpt>
      <trkpt lat="27.833034" lon="86.749888">
        <ele>3406.6</ele>
        <time>2022-10-22T07:04:17.000Z</time>
      </trkpt>
      <trkpt lat="27.83305" lon="86.749901">
        <ele>3406.6</ele>
        <time>2022-10-22T07:04:20.000Z</time>
      </trkpt>
      <trkpt lat="27.833056" lon="86.749926">
        <ele>3408.2</ele>
        <time>2022-10-22T07:04:30.000Z</time>
      </trkpt>
      <trkpt lat="27.833066" lon="86.749946">
        <ele>3408.8</ele>
        <time>2022-10-22T07:04:35.000Z</time>
      </trkpt>
      <trkpt lat="27.833062" lon="86.749971">
        <ele>3410</ele>
        <time>2022-10-22T07:04:44.000Z</time>
      </trkpt>
      <trkpt lat="27.833053" lon="86.74999">
        <ele>3411.4</ele>
        <time>2022-10-22T07:04:52.000Z</time>
      </trkpt>
      <trkpt lat="27.833046" lon="86.75001">
        <ele>3411.6</ele>
        <time>2022-10-22T07:04:57.000Z</time>
      </trkpt>
      <trkpt lat="27.83305" lon="86.750035">
        <ele>3412.8</ele>
        <time>2022-10-22T07:05:02.000Z</time>
      </trkpt>
      <trkpt lat="27.83305" lon="86.750061">
        <ele>3413.4</ele>
        <time>2022-10-22T07:05:07.000Z</time>
      </trkpt>
      <trkpt lat="27.83303" lon="86.750061">
        <ele>3414.2</ele>
        <time>2022-10-22T07:05:12.000Z</time>
      </trkpt>
      <trkpt lat="27.833037" lon="86.750086">
        <ele>3414.6</ele>
        <time>2022-10-22T07:05:16.000Z</time>
      </trkpt>
      <trkpt lat="27.833037" lon="86.750112">
        <ele>3417.8</ele>
        <time>2022-10-22T07:11:15.000Z</time>
      </trkpt>
      <trkpt lat="27.833046" lon="86.750131">
        <ele>3417.8</ele>
        <time>2022-10-22T07:11:16.000Z</time>
      </trkpt>
      <trkpt lat="27.833062" lon="86.75015">
        <ele>3418.4</ele>
        <time>2022-10-22T07:11:19.000Z</time>
      </trkpt>
      <trkpt lat="27.833082" lon="86.750144">
        <ele>3419</ele>
        <time>2022-10-22T07:11:26.000Z</time>
      </trkpt>
      <trkpt lat="27.833094" lon="86.750125">
        <ele>3420</ele>
        <time>2022-10-22T07:11:33.000Z</time>
      </trkpt>
      <trkpt lat="27.833091" lon="86.750099">
        <ele>3420.2</ele>
        <time>2022-10-22T07:11:37.000Z</time>
      </trkpt>
      <trkpt lat="27.833094" lon="86.750074">
        <ele>3421</ele>
        <time>2022-10-22T07:11:42.000Z</time>
      </trkpt>
      <trkpt lat="27.833085" lon="86.750054">
        <ele>3422</ele>
        <time>2022-10-22T07:11:48.000Z</time>
      </trkpt>
      <trkpt lat="27.833104" lon="86.750035">
        <ele>3422.8</ele>
        <time>2022-10-22T07:11:53.000Z</time>
      </trkpt>
      <trkpt lat="27.83311" lon="86.750016">
        <ele>3423.6</ele>
        <time>2022-10-22T07:11:59.000Z</time>
      </trkpt>
      <trkpt lat="27.833136" lon="86.750016">
        <ele>3424.2</ele>
        <time>2022-10-22T07:12:03.000Z</time>
      </trkpt>
      <trkpt lat="27.833155" lon="86.750029">
        <ele>3424.4</ele>
        <time>2022-10-22T07:12:07.000Z</time>
      </trkpt>
      <trkpt lat="27.833165" lon="86.750054">
        <ele>3425</ele>
        <time>2022-10-22T07:12:10.000Z</time>
      </trkpt>
      <trkpt lat="27.833158" lon="86.750074">
        <ele>3426.6</ele>
        <time>2022-10-22T07:12:18.000Z</time>
      </trkpt>
      <trkpt lat="27.833165" lon="86.750093">
        <ele>3426.8</ele>
        <time>2022-10-22T07:12:21.000Z</time>
      </trkpt>
      <trkpt lat="27.833178" lon="86.750112">
        <ele>3427.8</ele>
        <time>2022-10-22T07:12:26.000Z</time>
      </trkpt>
      <trkpt lat="27.833178" lon="86.750086">
        <ele>3428.4</ele>
        <time>2022-10-22T07:12:34.000Z</time>
      </trkpt>
      <trkpt lat="27.83319" lon="86.750067">
        <ele>3429</ele>
        <time>2022-10-22T07:12:38.000Z</time>
      </trkpt>
      <trkpt lat="27.833213" lon="86.750067">
        <ele>3429.6</ele>
        <time>2022-10-22T07:12:45.000Z</time>
      </trkpt>
      <trkpt lat="27.833235" lon="86.750067">
        <ele>3429.8</ele>
        <time>2022-10-22T07:12:50.000Z</time>
      </trkpt>
      <trkpt lat="27.833251" lon="86.750054">
        <ele>3430</ele>
        <time>2022-10-22T07:12:54.000Z</time>
      </trkpt>
      <trkpt lat="27.833264" lon="86.750035">
        <ele>3430.4</ele>
        <time>2022-10-22T07:12:59.000Z</time>
      </trkpt>
      <trkpt lat="27.83329" lon="86.750029">
        <ele>3431.8</ele>
        <time>2022-10-22T07:13:07.000Z</time>
      </trkpt>
      <trkpt lat="27.833309" lon="86.750016">
        <ele>3432.6</ele>
        <time>2022-10-22T07:13:13.000Z</time>
      </trkpt>
      <trkpt lat="27.833331" lon="86.74999">
        <ele>3433.2</ele>
        <time>2022-10-22T07:13:19.000Z</time>
      </trkpt>
      <trkpt lat="27.83335" lon="86.74999">
        <ele>3433.6</ele>
        <time>2022-10-22T07:13:22.000Z</time>
      </trkpt>
      <trkpt lat="27.83336" lon="86.75001">
        <ele>3434.4</ele>
        <time>2022-10-22T07:13:29.000Z</time>
      </trkpt>
      <trkpt lat="27.833366" lon="86.750035">
        <ele>3435.4</ele>
        <time>2022-10-22T07:13:37.000Z</time>
      </trkpt>
      <trkpt lat="27.833373" lon="86.750061">
        <ele>3436.2</ele>
        <time>2022-10-22T07:13:42.000Z</time>
      </trkpt>
      <trkpt lat="27.83337" lon="86.750086">
        <ele>3436.4</ele>
        <time>2022-10-22T07:13:45.000Z</time>
      </trkpt>
      <trkpt lat="27.833373" lon="86.750112">
        <ele>3437.6</ele>
        <time>2022-10-22T07:13:51.000Z</time>
      </trkpt>
      <trkpt lat="27.833354" lon="86.750125">
        <ele>3438.2</ele>
        <time>2022-10-22T07:13:54.000Z</time>
      </trkpt>
      <trkpt lat="27.833344" lon="86.750144">
        <ele>3438.6</ele>
        <time>2022-10-22T07:13:58.000Z</time>
      </trkpt>
      <trkpt lat="27.833341" lon="86.75017">
        <ele>3439</ele>
        <time>2022-10-22T07:14:01.000Z</time>
      </trkpt>
      <trkpt lat="27.833334" lon="86.750189">
        <ele>3439.8</ele>
        <time>2022-10-22T07:14:07.000Z</time>
      </trkpt>
      <trkpt lat="27.833325" lon="86.750208">
        <ele>3440.2</ele>
        <time>2022-10-22T07:14:15.000Z</time>
      </trkpt>
      <trkpt lat="27.833309" lon="86.750227">
        <ele>3442.6</ele>
        <time>2022-10-22T07:15:16.000Z</time>
      </trkpt>
      <trkpt lat="27.833312" lon="86.750253">
        <ele>3443</ele>
        <time>2022-10-22T07:15:18.000Z</time>
      </trkpt>
      <trkpt lat="27.833322" lon="86.750272">
        <ele>3443.2</ele>
        <time>2022-10-22T07:15:20.000Z</time>
      </trkpt>
      <trkpt lat="27.833322" lon="86.750298">
        <ele>3443.2</ele>
        <time>2022-10-22T07:15:22.000Z</time>
      </trkpt>
      <trkpt lat="27.833325" lon="86.750323">
        <ele>3444</ele>
        <time>2022-10-22T07:15:24.000Z</time>
      </trkpt>
      <trkpt lat="27.833334" lon="86.750342">
        <ele>3444.6</ele>
        <time>2022-10-22T07:15:28.000Z</time>
      </trkpt>
      <trkpt lat="27.833338" lon="86.750368">
        <ele>3444.8</ele>
        <time>2022-10-22T07:15:31.000Z</time>
      </trkpt>
      <trkpt lat="27.83335" lon="86.750387">
        <ele>3445.4</ele>
        <time>2022-10-22T07:15:36.000Z</time>
      </trkpt>
      <trkpt lat="27.83336" lon="86.750406">
        <ele>3445.8</ele>
        <time>2022-10-22T07:15:39.000Z</time>
      </trkpt>
      <trkpt lat="27.83337" lon="86.750426">
        <ele>3446.6</ele>
        <time>2022-10-22T07:15:43.000Z</time>
      </trkpt>
      <trkpt lat="27.833379" lon="86.750451">
        <ele>3447</ele>
        <time>2022-10-22T07:15:49.000Z</time>
      </trkpt>
      <trkpt lat="27.833392" lon="86.75047">
        <ele>3447.8</ele>
        <time>2022-10-22T07:15:55.000Z</time>
      </trkpt>
      <trkpt lat="27.833402" lon="86.75049">
        <ele>3448.2</ele>
        <time>2022-10-22T07:16:00.000Z</time>
      </trkpt>
      <trkpt lat="27.833421" lon="86.750509">
        <ele>3449</ele>
        <time>2022-10-22T07:16:06.000Z</time>
      </trkpt>
      <trkpt lat="27.83343" lon="86.750528">
        <ele>3449.4</ele>
        <time>2022-10-22T07:16:09.000Z</time>
      </trkpt>
      <trkpt lat="27.833443" lon="86.750547">
        <ele>3449.6</ele>
        <time>2022-10-22T07:16:14.000Z</time>
      </trkpt>
      <trkpt lat="27.83345" lon="86.750566">
        <ele>3450.2</ele>
        <time>2022-10-22T07:16:17.000Z</time>
      </trkpt>
      <trkpt lat="27.833459" lon="86.750586">
        <ele>3450</ele>
        <time>2022-10-22T07:16:22.000Z</time>
      </trkpt>
      <trkpt lat="27.833469" lon="86.750611">
        <ele>3451</ele>
        <time>2022-10-22T07:16:28.000Z</time>
      </trkpt>
      <trkpt lat="27.833472" lon="86.750643">
        <ele>3451.8</ele>
        <time>2022-10-22T07:16:37.000Z</time>
      </trkpt>
      <trkpt lat="27.833488" lon="86.750656">
        <ele>3453</ele>
        <time>2022-10-22T07:16:47.000Z</time>
      </trkpt>
      <trkpt lat="27.833494" lon="86.750682">
        <ele>3453.8</ele>
        <time>2022-10-22T07:16:52.000Z</time>
      </trkpt>
      <trkpt lat="27.833488" lon="86.750701">
        <ele>3454.8</ele>
        <time>2022-10-22T07:17:01.000Z</time>
      </trkpt>
      <trkpt lat="27.833485" lon="86.750726">
        <ele>3455.4</ele>
        <time>2022-10-22T07:17:05.000Z</time>
      </trkpt>
      <trkpt lat="27.833469" lon="86.750739">
        <ele>3456</ele>
        <time>2022-10-22T07:17:10.000Z</time>
      </trkpt>
      <trkpt lat="27.833459" lon="86.750758">
        <ele>3456.2</ele>
        <time>2022-10-22T07:17:13.000Z</time>
      </trkpt>
      <trkpt lat="27.833469" lon="86.750784">
        <ele>3457.4</ele>
        <time>2022-10-22T07:17:19.000Z</time>
      </trkpt>
      <trkpt lat="27.833475" lon="86.750803">
        <ele>3458</ele>
        <time>2022-10-22T07:17:22.000Z</time>
      </trkpt>
      <trkpt lat="27.833482" lon="86.750822">
        <ele>3458.4</ele>
        <time>2022-10-22T07:17:27.000Z</time>
      </trkpt>
      <trkpt lat="27.833488" lon="86.750842">
        <ele>3459.4</ele>
        <time>2022-10-22T07:17:31.000Z</time>
      </trkpt>
      <trkpt lat="27.833462" lon="86.750842">
        <ele>3458.2</ele>
        <time>2022-10-22T07:19:34.000Z</time>
      </trkpt>
      <trkpt lat="27.833478" lon="86.750861">
        <ele>3458.6</ele>
        <time>2022-10-22T07:20:35.000Z</time>
      </trkpt>
      <trkpt lat="27.833494" lon="86.75088">
        <ele>3458.8</ele>
        <time>2022-10-22T07:20:38.000Z</time>
      </trkpt>
      <trkpt lat="27.833514" lon="86.750899">
        <ele>3459.6</ele>
        <time>2022-10-22T07:20:41.000Z</time>
      </trkpt>
      <trkpt lat="27.83353" lon="86.750886">
        <ele>3461.2</ele>
        <time>2022-10-22T07:20:51.000Z</time>
      </trkpt>
      <trkpt lat="27.83353" lon="86.750861">
        <ele>3461.2</ele>
        <time>2022-10-22T07:20:56.000Z</time>
      </trkpt>
      <trkpt lat="27.833526" lon="86.750829">
        <ele>3462</ele>
        <time>2022-10-22T07:20:59.000Z</time>
      </trkpt>
      <trkpt lat="27.833533" lon="86.75081">
        <ele>3462.2</ele>
        <time>2022-10-22T07:21:02.000Z</time>
      </trkpt>
      <trkpt lat="27.833526" lon="86.750784">
        <ele>3462.6</ele>
        <time>2022-10-22T07:21:05.000Z</time>
      </trkpt>
      <trkpt lat="27.83351" lon="86.750765">
        <ele>3462.6</ele>
        <time>2022-10-22T07:21:07.000Z</time>
      </trkpt>
      <trkpt lat="27.833514" lon="86.750739">
        <ele>3463.4</ele>
        <time>2022-10-22T07:21:10.000Z</time>
      </trkpt>
      <trkpt lat="27.83352" lon="86.75072">
        <ele>3463.6</ele>
        <time>2022-10-22T07:21:15.000Z</time>
      </trkpt>
      <trkpt lat="27.83353" lon="86.750701">
        <ele>3464.6</ele>
        <time>2022-10-22T07:21:23.000Z</time>
      </trkpt>
      <trkpt lat="27.833549" lon="86.750694">
        <ele>3465.2</ele>
        <time>2022-10-22T07:21:28.000Z</time>
      </trkpt>
      <trkpt lat="27.833568" lon="86.750688">
        <ele>3466</ele>
        <time>2022-10-22T07:21:32.000Z</time>
      </trkpt>
      <trkpt lat="27.833587" lon="86.750669">
        <ele>3466.2</ele>
        <time>2022-10-22T07:21:36.000Z</time>
      </trkpt>
      <trkpt lat="27.833606" lon="86.750662">
        <ele>3466.8</ele>
        <time>2022-10-22T07:21:40.000Z</time>
      </trkpt>
      <trkpt lat="27.833622" lon="86.75065">
        <ele>3467.4</ele>
        <time>2022-10-22T07:21:44.000Z</time>
      </trkpt>
      <trkpt lat="27.833632" lon="86.75063">
        <ele>3467.8</ele>
        <time>2022-10-22T07:21:46.000Z</time>
      </trkpt>
      <trkpt lat="27.833638" lon="86.750611">
        <ele>3467.8</ele>
        <time>2022-10-22T07:21:51.000Z</time>
      </trkpt>
      <trkpt lat="27.833651" lon="86.750592">
        <ele>3468.2</ele>
        <time>2022-10-22T07:21:55.000Z</time>
      </trkpt>
      <trkpt lat="27.833667" lon="86.750579">
        <ele>3468.6</ele>
        <time>2022-10-22T07:21:58.000Z</time>
      </trkpt>
      <trkpt lat="27.83368" lon="86.75056">
        <ele>3469</ele>
        <time>2022-10-22T07:22:02.000Z</time>
      </trkpt>
      <trkpt lat="27.833686" lon="86.750541">
        <ele>3469.4</ele>
        <time>2022-10-22T07:22:05.000Z</time>
      </trkpt>
      <trkpt lat="27.833706" lon="86.750528">
        <ele>3469.8</ele>
        <time>2022-10-22T07:22:09.000Z</time>
      </trkpt>
      <trkpt lat="27.833728" lon="86.750528">
        <ele>3470</ele>
        <time>2022-10-22T07:22:11.000Z</time>
      </trkpt>
      <trkpt lat="27.833734" lon="86.750547">
        <ele>3470.8</ele>
        <time>2022-10-22T07:22:15.000Z</time>
      </trkpt>
      <trkpt lat="27.833741" lon="86.750566">
        <ele>3471</ele>
        <time>2022-10-22T07:22:17.000Z</time>
      </trkpt>
      <trkpt lat="27.833741" lon="86.750592">
        <ele>3471.2</ele>
        <time>2022-10-22T07:22:20.000Z</time>
      </trkpt>
      <trkpt lat="27.833731" lon="86.750611">
        <ele>3471.6</ele>
        <time>2022-10-22T07:22:26.000Z</time>
      </trkpt>
      <trkpt lat="27.833731" lon="86.750643">
        <ele>3471.6</ele>
        <time>2022-10-22T07:22:30.000Z</time>
      </trkpt>
      <trkpt lat="27.833738" lon="86.750662">
        <ele>3472</ele>
        <time>2022-10-22T07:22:32.000Z</time>
      </trkpt>
      <trkpt lat="27.833744" lon="86.750688">
        <ele>3472</ele>
        <time>2022-10-22T07:22:34.000Z</time>
      </trkpt>
      <trkpt lat="27.833754" lon="86.750726">
        <ele>3474</ele>
        <time>2022-10-22T07:23:26.000Z</time>
      </trkpt>
      <trkpt lat="27.83377" lon="86.750758">
        <ele>3474.6</ele>
        <time>2022-10-22T07:23:29.000Z</time>
      </trkpt>
      <trkpt lat="27.833786" lon="86.750778">
        <ele>3474.8</ele>
        <time>2022-10-22T07:23:32.000Z</time>
      </trkpt>
      <trkpt lat="27.833792" lon="86.750803">
        <ele>3475.2</ele>
        <time>2022-10-22T07:23:35.000Z</time>
      </trkpt>
      <trkpt lat="27.833798" lon="86.750822">
        <ele>3475.8</ele>
        <time>2022-10-22T07:23:39.000Z</time>
      </trkpt>
      <trkpt lat="27.833795" lon="86.750848">
        <ele>3476.2</ele>
        <time>2022-10-22T07:23:42.000Z</time>
      </trkpt>
      <trkpt lat="27.833805" lon="86.750867">
        <ele>3476.8</ele>
        <time>2022-10-22T07:23:46.000Z</time>
      </trkpt>
      <trkpt lat="27.833811" lon="86.750886">
        <ele>3476.8</ele>
        <time>2022-10-22T07:23:48.000Z</time>
      </trkpt>
      <trkpt lat="27.833811" lon="86.750918">
        <ele>3477</ele>
        <time>2022-10-22T07:23:53.000Z</time>
      </trkpt>
      <trkpt lat="27.833811" lon="86.750944">
        <ele>3477.6</ele>
        <time>2022-10-22T07:24:00.000Z</time>
      </trkpt>
      <trkpt lat="27.833818" lon="86.750963">
        <ele>3477.8</ele>
        <time>2022-10-22T07:24:03.000Z</time>
      </trkpt>
      <trkpt lat="27.833827" lon="86.750982">
        <ele>3478.6</ele>
        <time>2022-10-22T07:24:08.000Z</time>
      </trkpt>
      <trkpt lat="27.833827" lon="86.751008">
        <ele>3478.8</ele>
        <time>2022-10-22T07:24:11.000Z</time>
      </trkpt>
      <trkpt lat="27.83384" lon="86.751027">
        <ele>3479.2</ele>
        <time>2022-10-22T07:24:15.000Z</time>
      </trkpt>
      <trkpt lat="27.83385" lon="86.751046">
        <ele>3479.2</ele>
        <time>2022-10-22T07:24:18.000Z</time>
      </trkpt>
      <trkpt lat="27.833856" lon="86.751066">
        <ele>3479.8</ele>
        <time>2022-10-22T07:24:21.000Z</time>
      </trkpt>
      <trkpt lat="27.833862" lon="86.751091">
        <ele>3480</ele>
        <time>2022-10-22T07:24:26.000Z</time>
      </trkpt>
      <trkpt lat="27.833875" lon="86.751117">
        <ele>3480.6</ele>
        <time>2022-10-22T07:24:30.000Z</time>
      </trkpt>
      <trkpt lat="27.833882" lon="86.751136">
        <ele>3480.8</ele>
        <time>2022-10-22T07:24:34.000Z</time>
      </trkpt>
      <trkpt lat="27.833891" lon="86.751155">
        <ele>3481.2</ele>
        <time>2022-10-22T07:24:36.000Z</time>
      </trkpt>
      <trkpt lat="27.833901" lon="86.751174">
        <ele>3481.4</ele>
        <time>2022-10-22T07:24:39.000Z</time>
      </trkpt>
      <trkpt lat="27.83391" lon="86.751206">
        <ele>3482.2</ele>
        <time>2022-10-22T07:24:43.000Z</time>
      </trkpt>
      <trkpt lat="27.833914" lon="86.751238">
        <ele>3482.2</ele>
        <time>2022-10-22T07:24:50.000Z</time>
      </trkpt>
      <trkpt lat="27.833917" lon="86.751264">
        <ele>3482.8</ele>
        <time>2022-10-22T07:24:56.000Z</time>
      </trkpt>
      <trkpt lat="27.833942" lon="86.751302">
        <ele>3483.4</ele>
        <time>2022-10-22T07:25:03.000Z</time>
      </trkpt>
      <trkpt lat="27.833949" lon="86.751322">
        <ele>3483.8</ele>
        <time>2022-10-22T07:25:07.000Z</time>
      </trkpt>
      <trkpt lat="27.833962" lon="86.751341">
        <ele>3484.8</ele>
        <time>2022-10-22T07:25:12.000Z</time>
      </trkpt>
      <trkpt lat="27.833962" lon="86.751366">
        <ele>3486</ele>
        <time>2022-10-22T07:25:17.000Z</time>
      </trkpt>
      <trkpt lat="27.833965" lon="86.751398">
        <ele>3486.2</ele>
        <time>2022-10-22T07:25:22.000Z</time>
      </trkpt>
      <trkpt lat="27.833971" lon="86.751418">
        <ele>3486.6</ele>
        <time>2022-10-22T07:25:26.000Z</time>
      </trkpt>
      <trkpt lat="27.833965" lon="86.751437">
        <ele>3487.4</ele>
        <time>2022-10-22T07:25:29.000Z</time>
      </trkpt>
      <trkpt lat="27.833958" lon="86.751456">
        <ele>3487.4</ele>
        <time>2022-10-22T07:25:32.000Z</time>
      </trkpt>
      <trkpt lat="27.833968" lon="86.751482">
        <ele>3488</ele>
        <time>2022-10-22T07:25:37.000Z</time>
      </trkpt>
      <trkpt lat="27.833978" lon="86.751501">
        <ele>3488.6</ele>
        <time>2022-10-22T07:25:41.000Z</time>
      </trkpt>
      <trkpt lat="27.833971" lon="86.75152">
        <ele>3489</ele>
        <time>2022-10-22T07:25:45.000Z</time>
      </trkpt>
      <trkpt lat="27.833978" lon="86.751539">
        <ele>3489.6</ele>
        <time>2022-10-22T07:25:49.000Z</time>
      </trkpt>
      <trkpt lat="27.833978" lon="86.751565">
        <ele>3490.4</ele>
        <time>2022-10-22T07:25:55.000Z</time>
      </trkpt>
      <trkpt lat="27.833984" lon="86.751597">
        <ele>3491.4</ele>
        <time>2022-10-22T07:25:58.000Z</time>
      </trkpt>
      <trkpt lat="27.833984" lon="86.751622">
        <ele>3491</ele>
        <time>2022-10-22T07:26:03.000Z</time>
      </trkpt>
      <trkpt lat="27.833984" lon="86.751654">
        <ele>3491.6</ele>
        <time>2022-10-22T07:26:07.000Z</time>
      </trkpt>
      <trkpt lat="27.833981" lon="86.75168">
        <ele>3491.8</ele>
        <time>2022-10-22T07:26:11.000Z</time>
      </trkpt>
      <trkpt lat="27.833974" lon="86.751699">
        <ele>3492</ele>
        <time>2022-10-22T07:26:14.000Z</time>
      </trkpt>
      <trkpt lat="27.833968" lon="86.751718">
        <ele>3492</ele>
        <time>2022-10-22T07:26:16.000Z</time>
      </trkpt>
      <trkpt lat="27.833958" lon="86.751738">
        <ele>3492.6</ele>
        <time>2022-10-22T07:26:21.000Z</time>
      </trkpt>
      <trkpt lat="27.833965" lon="86.751757">
        <ele>3492.8</ele>
        <time>2022-10-22T07:26:25.000Z</time>
      </trkpt>
      <trkpt lat="27.833968" lon="86.751782">
        <ele>3493.6</ele>
        <time>2022-10-22T07:26:30.000Z</time>
      </trkpt>
      <trkpt lat="27.833978" lon="86.751808">
        <ele>3494</ele>
        <time>2022-10-22T07:26:35.000Z</time>
      </trkpt>
      <trkpt lat="27.833987" lon="86.751834">
        <ele>3495</ele>
        <time>2022-10-22T07:26:42.000Z</time>
      </trkpt>
      <trkpt lat="27.834003" lon="86.751846">
        <ele>3496.2</ele>
        <time>2022-10-22T07:26:47.000Z</time>
      </trkpt>
      <trkpt lat="27.834013" lon="86.751872">
        <ele>3496.8</ele>
        <time>2022-10-22T07:26:54.000Z</time>
      </trkpt>
      <trkpt lat="27.834019" lon="86.751891">
        <ele>3498</ele>
        <time>2022-10-22T07:27:01.000Z</time>
      </trkpt>
      <trkpt lat="27.834026" lon="86.75191">
        <ele>3498.4</ele>
        <time>2022-10-22T07:27:05.000Z</time>
      </trkpt>
      <trkpt lat="27.834032" lon="86.75193">
        <ele>3499.8</ele>
        <time>2022-10-22T07:27:11.000Z</time>
      </trkpt>
      <trkpt lat="27.834035" lon="86.751955">
        <ele>3500</ele>
        <time>2022-10-22T07:27:16.000Z</time>
      </trkpt>
      <trkpt lat="27.834035" lon="86.751981">
        <ele>3500.4</ele>
        <time>2022-10-22T07:27:20.000Z</time>
      </trkpt>
      <trkpt lat="27.834035" lon="86.752006">
        <ele>3500.4</ele>
        <time>2022-10-22T07:27:23.000Z</time>
      </trkpt>
      <trkpt lat="27.834035" lon="86.752032">
        <ele>3500.8</ele>
        <time>2022-10-22T07:27:25.000Z</time>
      </trkpt>
      <trkpt lat="27.834032" lon="86.752058">
        <ele>3501</ele>
        <time>2022-10-22T07:27:29.000Z</time>
      </trkpt>
      <trkpt lat="27.834029" lon="86.752083">
        <ele>3501</ele>
        <time>2022-10-22T07:27:31.000Z</time>
      </trkpt>
      <trkpt lat="27.834029" lon="86.752109">
        <ele>3501</ele>
        <time>2022-10-22T07:27:34.000Z</time>
      </trkpt>
      <trkpt lat="27.834022" lon="86.752128">
        <ele>3500.8</ele>
        <time>2022-10-22T07:27:37.000Z</time>
      </trkpt>
      <trkpt lat="27.834019" lon="86.752154">
        <ele>3501.2</ele>
        <time>2022-10-22T07:27:41.000Z</time>
      </trkpt>
      <trkpt lat="27.833974" lon="86.752237">
        <ele>3505.2</ele>
        <time>2022-10-22T07:31:43.000Z</time>
      </trkpt>
      <trkpt lat="27.833984" lon="86.752256">
        <ele>3505.6</ele>
        <time>2022-10-22T07:31:45.000Z</time>
      </trkpt>
      <trkpt lat="27.83399" lon="86.752288">
        <ele>3506</ele>
        <time>2022-10-22T07:31:47.000Z</time>
      </trkpt>
      <trkpt lat="27.833997" lon="86.752314">
        <ele>3506</ele>
        <time>2022-10-22T07:31:49.000Z</time>
      </trkpt>
      <trkpt lat="27.834006" lon="86.752333">
        <ele>3506.6</ele>
        <time>2022-10-22T07:31:51.000Z</time>
      </trkpt>
      <trkpt lat="27.83401" lon="86.752358">
        <ele>3506.8</ele>
        <time>2022-10-22T07:31:53.000Z</time>
      </trkpt>
      <trkpt lat="27.834048" lon="86.75239">
        <ele>3511.2</ele>
        <time>2022-10-22T07:32:47.000Z</time>
      </trkpt>
      <trkpt lat="27.834058" lon="86.752365">
        <ele>3511.8</ele>
        <time>2022-10-22T07:32:49.000Z</time>
      </trkpt>
      <trkpt lat="27.834074" lon="86.752339">
        <ele>3511.8</ele>
        <time>2022-10-22T07:32:51.000Z</time>
      </trkpt>
      <trkpt lat="27.834086" lon="86.752314">
        <ele>3512.2</ele>
        <time>2022-10-22T07:32:53.000Z</time>
      </trkpt>
      <trkpt lat="27.834099" lon="86.752294">
        <ele>3512.2</ele>
        <time>2022-10-22T07:32:55.000Z</time>
      </trkpt>
      <trkpt lat="27.834118" lon="86.752288">
        <ele>3513</ele>
        <time>2022-10-22T07:32:58.000Z</time>
      </trkpt>
      <trkpt lat="27.834125" lon="86.752307">
        <ele>3513.4</ele>
        <time>2022-10-22T07:33:04.000Z</time>
      </trkpt>
      <trkpt lat="27.834134" lon="86.752326">
        <ele>3514.4</ele>
        <time>2022-10-22T07:33:09.000Z</time>
      </trkpt>
      <trkpt lat="27.83415" lon="86.752339">
        <ele>3515</ele>
        <time>2022-10-22T07:33:15.000Z</time>
      </trkpt>
      <trkpt lat="27.834157" lon="86.752358">
        <ele>3515.2</ele>
        <time>2022-10-22T07:33:19.000Z</time>
      </trkpt>
      <trkpt lat="27.834157" lon="86.75239">
        <ele>3516</ele>
        <time>2022-10-22T07:33:24.000Z</time>
      </trkpt>
      <trkpt lat="27.83417" lon="86.75241">
        <ele>3517.4</ele>
        <time>2022-10-22T07:33:30.000Z</time>
      </trkpt>
      <trkpt lat="27.834176" lon="86.752429">
        <ele>3518.4</ele>
        <time>2022-10-22T07:33:33.000Z</time>
      </trkpt>
      <trkpt lat="27.834192" lon="86.752448">
        <ele>3518.8</ele>
        <time>2022-10-22T07:33:37.000Z</time>
      </trkpt>
      <trkpt lat="27.834198" lon="86.752467">
        <ele>3519</ele>
        <time>2022-10-22T07:33:41.000Z</time>
      </trkpt>
      <trkpt lat="27.834205" lon="86.752486">
        <ele>3520.4</ele>
        <time>2022-10-22T07:33:48.000Z</time>
      </trkpt>
      <trkpt lat="27.834208" lon="86.752512">
        <ele>3520.4</ele>
        <time>2022-10-22T07:33:52.000Z</time>
      </trkpt>
      <trkpt lat="27.834214" lon="86.752531">
        <ele>3521.6</ele>
        <time>2022-10-22T07:33:58.000Z</time>
      </trkpt>
      <trkpt lat="27.834221" lon="86.752557">
        <ele>3522.6</ele>
        <time>2022-10-22T07:34:05.000Z</time>
      </trkpt>
      <trkpt lat="27.834221" lon="86.752589">
        <ele>3523.8</ele>
        <time>2022-10-22T07:34:13.000Z</time>
      </trkpt>
      <trkpt lat="27.834221" lon="86.752614">
        <ele>3525</ele>
        <time>2022-10-22T07:34:20.000Z</time>
      </trkpt>
      <trkpt lat="27.834234" lon="86.752634">
        <ele>3526.2</ele>
        <time>2022-10-22T07:34:25.000Z</time>
      </trkpt>
      <trkpt lat="27.834214" lon="86.75264">
        <ele>3526.6</ele>
        <time>2022-10-22T07:34:35.000Z</time>
      </trkpt>
      <trkpt lat="27.834195" lon="86.752653">
        <ele>3528.4</ele>
        <time>2022-10-22T07:35:32.000Z</time>
      </trkpt>
      <trkpt lat="27.834198" lon="86.752678">
        <ele>3529.2</ele>
        <time>2022-10-22T07:35:34.000Z</time>
      </trkpt>
      <trkpt lat="27.834208" lon="86.75271">
        <ele>3529</ele>
        <time>2022-10-22T07:35:36.000Z</time>
      </trkpt>
      <trkpt lat="27.834214" lon="86.75273">
        <ele>3529</ele>
        <time>2022-10-22T07:35:38.000Z</time>
      </trkpt>
      <trkpt lat="27.834224" lon="86.752768">
        <ele>3529.6</ele>
        <time>2022-10-22T07:35:41.000Z</time>
      </trkpt>
      <trkpt lat="27.834243" lon="86.752762">
        <ele>3529.6</ele>
        <time>2022-10-22T07:35:50.000Z</time>
      </trkpt>
      <trkpt lat="27.834246" lon="86.752736">
        <ele>3530</ele>
        <time>2022-10-22T07:35:53.000Z</time>
      </trkpt>
      <trkpt lat="27.834278" lon="86.752691">
        <ele>3533.2</ele>
        <time>2022-10-22T07:36:25.000Z</time>
      </trkpt>
      <trkpt lat="27.834298" lon="86.752672">
        <ele>3534</ele>
        <time>2022-10-22T07:36:28.000Z</time>
      </trkpt>
      <trkpt lat="27.834317" lon="86.752646">
        <ele>3534</ele>
        <time>2022-10-22T07:36:30.000Z</time>
      </trkpt>
      <trkpt lat="27.834339" lon="86.752634">
        <ele>3534.2</ele>
        <time>2022-10-22T07:36:32.000Z</time>
      </trkpt>
      <trkpt lat="27.834358" lon="86.752646">
        <ele>3534.4</ele>
        <time>2022-10-22T07:36:38.000Z</time>
      </trkpt>
      <trkpt lat="27.834371" lon="86.752666">
        <ele>3535</ele>
        <time>2022-10-22T07:36:40.000Z</time>
      </trkpt>
      <trkpt lat="27.834374" lon="86.752691">
        <ele>3535.6</ele>
        <time>2022-10-22T07:36:45.000Z</time>
      </trkpt>
      <trkpt lat="27.834381" lon="86.75271">
        <ele>3536.2</ele>
        <time>2022-10-22T07:36:49.000Z</time>
      </trkpt>
      <trkpt lat="27.834387" lon="86.75273">
        <ele>3536.8</ele>
        <time>2022-10-22T07:37:04.000Z</time>
      </trkpt>
      <trkpt lat="27.834384" lon="86.752755">
        <ele>3536.8</ele>
        <time>2022-10-22T07:37:09.000Z</time>
      </trkpt>
      <trkpt lat="27.834394" lon="86.752774">
        <ele>3537</ele>
        <time>2022-10-22T07:37:13.000Z</time>
      </trkpt>
      <trkpt lat="27.834397" lon="86.7528">
        <ele>3537.6</ele>
        <time>2022-10-22T07:37:16.000Z</time>
      </trkpt>
      <trkpt lat="27.834397" lon="86.752826">
        <ele>3538</ele>
        <time>2022-10-22T07:37:19.000Z</time>
      </trkpt>
      <trkpt lat="27.834403" lon="86.752851">
        <ele>3539</ele>
        <time>2022-10-22T07:37:26.000Z</time>
      </trkpt>
      <trkpt lat="27.834403" lon="86.752877">
        <ele>3539.4</ele>
        <time>2022-10-22T07:37:30.000Z</time>
      </trkpt>
      <trkpt lat="27.834397" lon="86.752896">
        <ele>3540</ele>
        <time>2022-10-22T07:37:34.000Z</time>
      </trkpt>
      <trkpt lat="27.8344" lon="86.752922">
        <ele>3541</ele>
        <time>2022-10-22T07:37:39.000Z</time>
      </trkpt>
      <trkpt lat="27.834403" lon="86.752947">
        <ele>3541.2</ele>
        <time>2022-10-22T07:37:43.000Z</time>
      </trkpt>
      <trkpt lat="27.834403" lon="86.752973">
        <ele>3542</ele>
        <time>2022-10-22T07:37:49.000Z</time>
      </trkpt>
      <trkpt lat="27.834422" lon="86.752966">
        <ele>3543.6</ele>
        <time>2022-10-22T07:38:00.000Z</time>
      </trkpt>
      <trkpt lat="27.834442" lon="86.752947">
        <ele>3544.4</ele>
        <time>2022-10-22T07:38:05.000Z</time>
      </trkpt>
      <trkpt lat="27.834458" lon="86.752928">
        <ele>3545</ele>
        <time>2022-10-22T07:38:09.000Z</time>
      </trkpt>
      <trkpt lat="27.834464" lon="86.752909">
        <ele>3545.2</ele>
        <time>2022-10-22T07:38:13.000Z</time>
      </trkpt>
      <trkpt lat="27.834477" lon="86.75289">
        <ele>3545.8</ele>
        <time>2022-10-22T07:38:17.000Z</time>
      </trkpt>
      <trkpt lat="27.834496" lon="86.752877">
        <ele>3546.8</ele>
        <time>2022-10-22T07:38:22.000Z</time>
      </trkpt>
      <trkpt lat="27.834512" lon="86.752864">
        <ele>3548</ele>
        <time>2022-10-22T07:38:29.000Z</time>
      </trkpt>
      <trkpt lat="27.834525" lon="86.752845">
        <ele>3548.4</ele>
        <time>2022-10-22T07:38:32.000Z</time>
      </trkpt>
      <trkpt lat="27.834541" lon="86.752864">
        <ele>3549</ele>
        <time>2022-10-22T07:38:39.000Z</time>
      </trkpt>
      <trkpt lat="27.834538" lon="86.75289">
        <ele>3549.6</ele>
        <time>2022-10-22T07:38:43.000Z</time>
      </trkpt>
      <trkpt lat="27.834534" lon="86.752915">
        <ele>3550.4</ele>
        <time>2022-10-22T07:38:49.000Z</time>
      </trkpt>
      <trkpt lat="27.834525" lon="86.752934">
        <ele>3550.6</ele>
        <time>2022-10-22T07:38:54.000Z</time>
      </trkpt>
      <trkpt lat="27.834525" lon="86.75296">
        <ele>3551.6</ele>
        <time>2022-10-22T07:39:01.000Z</time>
      </trkpt>
      <trkpt lat="27.834518" lon="86.752986">
        <ele>3552.2</ele>
        <time>2022-10-22T07:39:08.000Z</time>
      </trkpt>
      <trkpt lat="27.834522" lon="86.753011">
        <ele>3552.8</ele>
        <time>2022-10-22T07:39:14.000Z</time>
      </trkpt>
      <trkpt lat="27.834525" lon="86.753037">
        <ele>3553.6</ele>
        <time>2022-10-22T07:39:21.000Z</time>
      </trkpt>
      <trkpt lat="27.834534" lon="86.753062">
        <ele>3554.6</ele>
        <time>2022-10-22T07:39:26.000Z</time>
      </trkpt>
      <trkpt lat="27.834534" lon="86.753088">
        <ele>3555</ele>
        <time>2022-10-22T07:39:31.000Z</time>
      </trkpt>
      <trkpt lat="27.834531" lon="86.753114">
        <ele>3555.6</ele>
        <time>2022-10-22T07:39:36.000Z</time>
      </trkpt>
      <trkpt lat="27.834534" lon="86.753146">
        <ele>3557.2</ele>
        <time>2022-10-22T07:39:44.000Z</time>
      </trkpt>
      <trkpt lat="27.83455" lon="86.753165">
        <ele>3557.2</ele>
        <time>2022-10-22T07:39:48.000Z</time>
      </trkpt>
      <trkpt lat="27.83455" lon="86.75319">
        <ele>3558.2</ele>
        <time>2022-10-22T07:39:53.000Z</time>
      </trkpt>
      <trkpt lat="27.834544" lon="86.75321">
        <ele>3558.8</ele>
        <time>2022-10-22T07:40:00.000Z</time>
      </trkpt>
      <trkpt lat="27.83455" lon="86.753235">
        <ele>3559.6</ele>
        <time>2022-10-22T07:40:04.000Z</time>
      </trkpt>
      <trkpt lat="27.83455" lon="86.753261">
        <ele>3559.8</ele>
        <time>2022-10-22T07:40:08.000Z</time>
      </trkpt>
      <trkpt lat="27.83455" lon="86.753286">
        <ele>3561</ele>
        <time>2022-10-22T07:40:14.000Z</time>
      </trkpt>
      <trkpt lat="27.83456" lon="86.753306">
        <ele>3561.2</ele>
        <time>2022-10-22T07:40:19.000Z</time>
      </trkpt>
      <trkpt lat="27.834566" lon="86.753325">
        <ele>3563</ele>
        <time>2022-10-22T07:40:27.000Z</time>
      </trkpt>
      <trkpt lat="27.834573" lon="86.753344">
        <ele>3563.4</ele>
        <time>2022-10-22T07:40:30.000Z</time>
      </trkpt>
      <trkpt lat="27.834586" lon="86.753363">
        <ele>3564.4</ele>
        <time>2022-10-22T07:40:36.000Z</time>
      </trkpt>
      <trkpt lat="27.834592" lon="86.753382">
        <ele>3564.8</ele>
        <time>2022-10-22T07:40:41.000Z</time>
      </trkpt>
      <trkpt lat="27.834605" lon="86.753402">
        <ele>3565.8</ele>
        <time>2022-10-22T07:40:49.000Z</time>
      </trkpt>
      <trkpt lat="27.834614" lon="86.753421">
        <ele>3566.2</ele>
        <time>2022-10-22T07:40:54.000Z</time>
      </trkpt>
      <trkpt lat="27.834621" lon="86.75344">
        <ele>3567</ele>
        <time>2022-10-22T07:41:02.000Z</time>
      </trkpt>
      <trkpt lat="27.83463" lon="86.753459">
        <ele>3567.8</ele>
        <time>2022-10-22T07:41:05.000Z</time>
      </trkpt>
      <trkpt lat="27.834646" lon="86.753472">
        <ele>3568.6</ele>
        <time>2022-10-22T07:41:09.000Z</time>
      </trkpt>
      <trkpt lat="27.834653" lon="86.753491">
        <ele>3569</ele>
        <time>2022-10-22T07:41:14.000Z</time>
      </trkpt>
      <trkpt lat="27.834659" lon="86.75351">
        <ele>3569.4</ele>
        <time>2022-10-22T07:41:20.000Z</time>
      </trkpt>
      <trkpt lat="27.834672" lon="86.75353">
        <ele>3570.2</ele>
        <time>2022-10-22T07:41:27.000Z</time>
      </trkpt>
      <trkpt lat="27.834672" lon="86.753555">
        <ele>3570.8</ele>
        <time>2022-10-22T07:41:31.000Z</time>
      </trkpt>
      <trkpt lat="27.834694" lon="86.753542">
        <ele>3574.2</ele>
        <time>2022-10-22T07:42:01.000Z</time>
      </trkpt>
      <trkpt lat="27.834701" lon="86.753517">
        <ele>3574.6</ele>
        <time>2022-10-22T07:42:03.000Z</time>
      </trkpt>
      <trkpt lat="27.834707" lon="86.753485">
        <ele>3574.8</ele>
        <time>2022-10-22T07:42:05.000Z</time>
      </trkpt>
      <trkpt lat="27.834714" lon="86.753446">
        <ele>3575.4</ele>
        <time>2022-10-22T07:42:08.000Z</time>
      </trkpt>
      <trkpt lat="27.83472" lon="86.753427">
        <ele>3575.6</ele>
        <time>2022-10-22T07:42:10.000Z</time>
      </trkpt>
      <trkpt lat="27.834723" lon="86.753402">
        <ele>3575.8</ele>
        <time>2022-10-22T07:42:15.000Z</time>
      </trkpt>
      <trkpt lat="27.83473" lon="86.753382">
        <ele>3576.2</ele>
        <time>2022-10-22T07:42:19.000Z</time>
      </trkpt>
      <trkpt lat="27.834733" lon="86.753357">
        <ele>3579.2</ele>
        <time>2022-10-22T07:43:20.000Z</time>
      </trkpt>
      <trkpt lat="27.834749" lon="86.753325">
        <ele>3579.2</ele>
        <time>2022-10-22T07:43:23.000Z</time>
      </trkpt>
      <trkpt lat="27.834768" lon="86.753306">
        <ele>3579.8</ele>
        <time>2022-10-22T07:43:26.000Z</time>
      </trkpt>
      <trkpt lat="27.834784" lon="86.753286">
        <ele>3580.2</ele>
        <time>2022-10-22T07:43:28.000Z</time>
      </trkpt>
      <trkpt lat="27.834803" lon="86.753306">
        <ele>3580.6</ele>
        <time>2022-10-22T07:43:32.000Z</time>
      </trkpt>
      <trkpt lat="27.834797" lon="86.753331">
        <ele>3581.8</ele>
        <time>2022-10-22T07:43:37.000Z</time>
      </trkpt>
      <trkpt lat="27.834797" lon="86.753357">
        <ele>3582.2</ele>
        <time>2022-10-22T07:43:40.000Z</time>
      </trkpt>
      <trkpt lat="27.834813" lon="86.75337">
        <ele>3582.8</ele>
        <time>2022-10-22T07:43:45.000Z</time>
      </trkpt>
      <trkpt lat="27.834819" lon="86.753389">
        <ele>3583.8</ele>
        <time>2022-10-22T07:43:49.000Z</time>
      </trkpt>
      <trkpt lat="27.834829" lon="86.753408">
        <ele>3584.2</ele>
        <time>2022-10-22T07:43:54.000Z</time>
      </trkpt>
      <trkpt lat="27.834835" lon="86.753427">
        <ele>3585</ele>
        <time>2022-10-22T07:43:58.000Z</time>
      </trkpt>
      <trkpt lat="27.834851" lon="86.753446">
        <ele>3586.2</ele>
        <time>2022-10-22T07:44:05.000Z</time>
      </trkpt>
      <trkpt lat="27.834854" lon="86.753472">
        <ele>3586.6</ele>
        <time>2022-10-22T07:44:10.000Z</time>
      </trkpt>
      <trkpt lat="27.83488" lon="86.753517">
        <ele>3588.4</ele>
        <time>2022-10-22T07:45:36.000Z</time>
      </trkpt>
      <trkpt lat="27.834883" lon="86.753542">
        <ele>3588.6</ele>
        <time>2022-10-22T07:45:38.000Z</time>
      </trkpt>
      <trkpt lat="27.834886" lon="86.753568">
        <ele>3589.2</ele>
        <time>2022-10-22T07:45:41.000Z</time>
      </trkpt>
      <trkpt lat="27.834893" lon="86.7536">
        <ele>3591</ele>
        <time>2022-10-22T07:46:19.000Z</time>
      </trkpt>
      <trkpt lat="27.834893" lon="86.753626">
        <ele>3591</ele>
        <time>2022-10-22T07:46:21.000Z</time>
      </trkpt>
      <trkpt lat="27.834893" lon="86.753658">
        <ele>3591.8</ele>
        <time>2022-10-22T07:46:23.000Z</time>
      </trkpt>
      <trkpt lat="27.834893" lon="86.753683">
        <ele>3592</ele>
        <time>2022-10-22T07:46:25.000Z</time>
      </trkpt>
      <trkpt lat="27.834899" lon="86.753715">
        <ele>3592</ele>
        <time>2022-10-22T07:46:27.000Z</time>
      </trkpt>
      <trkpt lat="27.834893" lon="86.753741">
        <ele>3592.4</ele>
        <time>2022-10-22T07:46:29.000Z</time>
      </trkpt>
      <trkpt lat="27.834886" lon="86.753766">
        <ele>3593.2</ele>
        <time>2022-10-22T07:46:34.000Z</time>
      </trkpt>
      <trkpt lat="27.83489" lon="86.753792">
        <ele>3593.6</ele>
        <time>2022-10-22T07:46:37.000Z</time>
      </trkpt>
      <trkpt lat="27.834886" lon="86.753818">
        <ele>3594.8</ele>
        <time>2022-10-22T07:46:41.000Z</time>
      </trkpt>
      <trkpt lat="27.834899" lon="86.753837">
        <ele>3595.2</ele>
        <time>2022-10-22T07:46:46.000Z</time>
      </trkpt>
      <trkpt lat="27.834893" lon="86.753856">
        <ele>3595.4</ele>
        <time>2022-10-22T07:46:49.000Z</time>
      </trkpt>
      <trkpt lat="27.834899" lon="86.753875">
        <ele>3596.4</ele>
        <time>2022-10-22T07:46:55.000Z</time>
      </trkpt>
      <trkpt lat="27.834899" lon="86.753901">
        <ele>3597.2</ele>
        <time>2022-10-22T07:47:00.000Z</time>
      </trkpt>
      <trkpt lat="27.834893" lon="86.753926">
        <ele>3598.2</ele>
        <time>2022-10-22T07:47:07.000Z</time>
      </trkpt>
      <trkpt lat="27.834893" lon="86.753952">
        <ele>3598.6</ele>
        <time>2022-10-22T07:47:11.000Z</time>
      </trkpt>
      <trkpt lat="27.834893" lon="86.753978">
        <ele>3599.2</ele>
        <time>2022-10-22T07:47:16.000Z</time>
      </trkpt>
      <trkpt lat="27.834893" lon="86.754003">
        <ele>3600.8</ele>
        <time>2022-10-22T07:47:23.000Z</time>
      </trkpt>
      <trkpt lat="27.834899" lon="86.754022">
        <ele>3600.6</ele>
        <time>2022-10-22T07:47:28.000Z</time>
      </trkpt>
      <trkpt lat="27.834902" lon="86.754054">
        <ele>3601.8</ele>
        <time>2022-10-22T07:47:36.000Z</time>
      </trkpt>
      <trkpt lat="27.834902" lon="86.75408">
        <ele>3602.8</ele>
        <time>2022-10-22T07:47:43.000Z</time>
      </trkpt>
      <trkpt lat="27.834902" lon="86.754106">
        <ele>3603.2</ele>
        <time>2022-10-22T07:47:48.000Z</time>
      </trkpt>
      <trkpt lat="27.834893" lon="86.754125">
        <ele>3603.6</ele>
        <time>2022-10-22T07:47:54.000Z</time>
      </trkpt>
      <trkpt lat="27.834899" lon="86.754144">
        <ele>3604.4</ele>
        <time>2022-10-22T07:47:57.000Z</time>
      </trkpt>
      <trkpt lat="27.834915" lon="86.754163">
        <ele>3605</ele>
        <time>2022-10-22T07:48:02.000Z</time>
      </trkpt>
      <trkpt lat="27.834918" lon="86.754189">
        <ele>3605.4</ele>
        <time>2022-10-22T07:48:05.000Z</time>
      </trkpt>
      <trkpt lat="27.834922" lon="86.754214">
        <ele>3605.6</ele>
        <time>2022-10-22T07:48:10.000Z</time>
      </trkpt>
      <trkpt lat="27.834928" lon="86.754234">
        <ele>3606.2</ele>
        <time>2022-10-22T07:48:15.000Z</time>
      </trkpt>
      <trkpt lat="27.834928" lon="86.754259">
        <ele>3607</ele>
        <time>2022-10-22T07:48:20.000Z</time>
      </trkpt>
      <trkpt lat="27.834928" lon="86.754285">
        <ele>3608.2</ele>
        <time>2022-10-22T07:48:25.000Z</time>
      </trkpt>
      <trkpt lat="27.834928" lon="86.75431">
        <ele>3608.4</ele>
        <time>2022-10-22T07:48:29.000Z</time>
      </trkpt>
      <trkpt lat="27.834931" lon="86.754336">
        <ele>3609.8</ele>
        <time>2022-10-22T07:48:33.000Z</time>
      </trkpt>
      <trkpt lat="27.834931" lon="86.754362">
        <ele>3610.4</ele>
        <time>2022-10-22T07:48:42.000Z</time>
      </trkpt>
      <trkpt lat="27.834925" lon="86.754394">
        <ele>3616</ele>
        <time>2022-10-22T07:58:58.000Z</time>
      </trkpt>
      <trkpt lat="27.834931" lon="86.754413">
        <ele>3616.2</ele>
        <time>2022-10-22T07:58:59.000Z</time>
      </trkpt>
      <trkpt lat="27.834931" lon="86.754438">
        <ele>3616.6</ele>
        <time>2022-10-22T07:59:01.000Z</time>
      </trkpt>
      <trkpt lat="27.834931" lon="86.754464">
        <ele>3616.6</ele>
        <time>2022-10-22T07:59:02.000Z</time>
      </trkpt>
      <trkpt lat="27.834931" lon="86.754496">
        <ele>3617</ele>
        <time>2022-10-22T07:59:04.000Z</time>
      </trkpt>
      <trkpt lat="27.834931" lon="86.754534">
        <ele>3617.4</ele>
        <time>2022-10-22T07:59:07.000Z</time>
      </trkpt>
      <trkpt lat="27.834925" lon="86.754554">
        <ele>3618.6</ele>
        <time>2022-10-22T07:59:10.000Z</time>
      </trkpt>
      <trkpt lat="27.834922" lon="86.754579">
        <ele>3619</ele>
        <time>2022-10-22T07:59:14.000Z</time>
      </trkpt>
      <trkpt lat="27.834922" lon="86.754611">
        <ele>3619</ele>
        <time>2022-10-22T07:59:17.000Z</time>
      </trkpt>
      <trkpt lat="27.834922" lon="86.754637">
        <ele>3619.4</ele>
        <time>2022-10-22T07:59:21.000Z</time>
      </trkpt>
      <trkpt lat="27.834922" lon="86.754662">
        <ele>3619.8</ele>
        <time>2022-10-22T07:59:24.000Z</time>
      </trkpt>
      <trkpt lat="27.834934" lon="86.754643">
        <ele>3622.4</ele>
        <time>2022-10-22T08:00:12.000Z</time>
      </trkpt>
      <trkpt lat="27.834947" lon="86.754624">
        <ele>3622.4</ele>
        <time>2022-10-22T08:00:14.000Z</time>
      </trkpt>
      <trkpt lat="27.83495" lon="86.754592">
        <ele>3622.8</ele>
        <time>2022-10-22T08:00:16.000Z</time>
      </trkpt>
      <trkpt lat="27.83496" lon="86.754573">
        <ele>3623.2</ele>
        <time>2022-10-22T08:00:18.000Z</time>
      </trkpt>
      <trkpt lat="27.834973" lon="86.754547">
        <ele>3623.6</ele>
        <time>2022-10-22T08:00:20.000Z</time>
      </trkpt>
      <trkpt lat="27.834976" lon="86.754522">
        <ele>3624</ele>
        <time>2022-10-22T08:00:23.000Z</time>
      </trkpt>
      <trkpt lat="27.834998" lon="86.754515">
        <ele>3624.8</ele>
        <time>2022-10-22T08:00:27.000Z</time>
      </trkpt>
      <trkpt lat="27.835011" lon="86.754496">
        <ele>3625.8</ele>
        <time>2022-10-22T08:00:32.000Z</time>
      </trkpt>
      <trkpt lat="27.835018" lon="86.754477">
        <ele>3626.2</ele>
        <time>2022-10-22T08:00:36.000Z</time>
      </trkpt>
      <trkpt lat="27.835034" lon="86.754458">
        <ele>3627.2</ele>
        <time>2022-10-22T08:00:42.000Z</time>
      </trkpt>
      <trkpt lat="27.835046" lon="86.754438">
        <ele>3627.8</ele>
        <time>2022-10-22T08:00:46.000Z</time>
      </trkpt>
      <trkpt lat="27.835062" lon="86.754426">
        <ele>3629.6</ele>
        <time>2022-10-22T08:00:52.000Z</time>
      </trkpt>
      <trkpt lat="27.835078" lon="86.754413">
        <ele>3630</ele>
        <time>2022-10-22T08:00:57.000Z</time>
      </trkpt>
      <trkpt lat="27.835091" lon="86.754394">
        <ele>3630</ele>
        <time>2022-10-22T08:01:00.000Z</time>
      </trkpt>
      <trkpt lat="27.835107" lon="86.754381">
        <ele>3631</ele>
        <time>2022-10-22T08:01:05.000Z</time>
      </trkpt>
      <trkpt lat="27.83512" lon="86.754362">
        <ele>3631.6</ele>
        <time>2022-10-22T08:01:11.000Z</time>
      </trkpt>
      <trkpt lat="27.835136" lon="86.754349">
        <ele>3632</ele>
        <time>2022-10-22T08:01:15.000Z</time>
      </trkpt>
      <trkpt lat="27.835152" lon="86.754336">
        <ele>3632.6</ele>
        <time>2022-10-22T08:01:20.000Z</time>
      </trkpt>
      <trkpt lat="27.835171" lon="86.754317">
        <ele>3633.4</ele>
        <time>2022-10-22T08:01:24.000Z</time>
      </trkpt>
      <trkpt lat="27.835187" lon="86.754304">
        <ele>3633.8</ele>
        <time>2022-10-22T08:01:30.000Z</time>
      </trkpt>
      <trkpt lat="27.8352" lon="86.754285">
        <ele>3635</ele>
        <time>2022-10-22T08:01:35.000Z</time>
      </trkpt>
      <trkpt lat="27.835219" lon="86.754272">
        <ele>3635.4</ele>
        <time>2022-10-22T08:01:41.000Z</time>
      </trkpt>
      <trkpt lat="27.835235" lon="86.754259">
        <ele>3636.4</ele>
        <time>2022-10-22T08:01:46.000Z</time>
      </trkpt>
      <trkpt lat="27.835245" lon="86.75424">
        <ele>3636.6</ele>
        <time>2022-10-22T08:01:49.000Z</time>
      </trkpt>
      <trkpt lat="27.835261" lon="86.754227">
        <ele>3637.4</ele>
        <time>2022-10-22T08:01:54.000Z</time>
      </trkpt>
      <trkpt lat="27.835277" lon="86.754214">
        <ele>3638.4</ele>
        <time>2022-10-22T08:01:59.000Z</time>
      </trkpt>
      <trkpt lat="27.835283" lon="86.754195">
        <ele>3638.8</ele>
        <time>2022-10-22T08:02:02.000Z</time>
      </trkpt>
      <trkpt lat="27.835299" lon="86.754182">
        <ele>3639.4</ele>
        <time>2022-10-22T08:02:06.000Z</time>
      </trkpt>
      <trkpt lat="27.835318" lon="86.754202">
        <ele>3639.8</ele>
        <time>2022-10-22T08:02:11.000Z</time>
      </trkpt>
      <trkpt lat="27.835315" lon="86.754227">
        <ele>3639.6</ele>
        <time>2022-10-22T08:02:14.000Z</time>
      </trkpt>
      <trkpt lat="27.835306" lon="86.754246">
        <ele>3639.8</ele>
        <time>2022-10-22T08:02:17.000Z</time>
      </trkpt>
      <trkpt lat="27.835299" lon="86.754266">
        <ele>3640.8</ele>
        <time>2022-10-22T08:02:20.000Z</time>
      </trkpt>
      <trkpt lat="27.835299" lon="86.754298">
        <ele>3641.2</ele>
        <time>2022-10-22T08:02:25.000Z</time>
      </trkpt>
      <trkpt lat="27.835302" lon="86.754323">
        <ele>3642</ele>
        <time>2022-10-22T08:02:30.000Z</time>
      </trkpt>
      <trkpt lat="27.835299" lon="86.754349">
        <ele>3642</ele>
        <time>2022-10-22T08:02:33.000Z</time>
      </trkpt>
      <trkpt lat="27.835296" lon="86.754374">
        <ele>3642.2</ele>
        <time>2022-10-22T08:02:35.000Z</time>
      </trkpt>
      <trkpt lat="27.835293" lon="86.7544">
        <ele>3642.4</ele>
        <time>2022-10-22T08:02:39.000Z</time>
      </trkpt>
      <trkpt lat="27.835293" lon="86.754426">
        <ele>3642.4</ele>
        <time>2022-10-22T08:02:42.000Z</time>
      </trkpt>
      <trkpt lat="27.835296" lon="86.754458">
        <ele>3643</ele>
        <time>2022-10-22T08:02:46.000Z</time>
      </trkpt>
      <trkpt lat="27.835293" lon="86.754483">
        <ele>3643.2</ele>
        <time>2022-10-22T08:02:50.000Z</time>
      </trkpt>
      <trkpt lat="27.835293" lon="86.754509">
        <ele>3643.4</ele>
        <time>2022-10-22T08:02:53.000Z</time>
      </trkpt>
      <trkpt lat="27.835293" lon="86.754534">
        <ele>3643.8</ele>
        <time>2022-10-22T08:02:57.000Z</time>
      </trkpt>
      <trkpt lat="27.83529" lon="86.75456">
        <ele>3645.2</ele>
        <time>2022-10-22T08:03:02.000Z</time>
      </trkpt>
      <trkpt lat="27.835296" lon="86.754586">
        <ele>3645.8</ele>
        <time>2022-10-22T08:03:06.000Z</time>
      </trkpt>
      <trkpt lat="27.835315" lon="86.754573">
        <ele>3646.2</ele>
        <time>2022-10-22T08:03:13.000Z</time>
      </trkpt>
      <trkpt lat="27.835322" lon="86.754554">
        <ele>3646.6</ele>
        <time>2022-10-22T08:03:16.000Z</time>
      </trkpt>
      <trkpt lat="27.835334" lon="86.754534">
        <ele>3647.6</ele>
        <time>2022-10-22T08:03:22.000Z</time>
      </trkpt>
      <trkpt lat="27.835344" lon="86.754515">
        <ele>3647.8</ele>
        <time>2022-10-22T08:03:25.000Z</time>
      </trkpt>
      <trkpt lat="27.83535" lon="86.754483">
        <ele>3649</ele>
        <time>2022-10-22T08:03:32.000Z</time>
      </trkpt>
      <trkpt lat="27.835357" lon="86.754464">
        <ele>3649.4</ele>
        <time>2022-10-22T08:03:36.000Z</time>
      </trkpt>
      <trkpt lat="27.835379" lon="86.754477">
        <ele>3650</ele>
        <time>2022-10-22T08:03:40.000Z</time>
      </trkpt>
      <trkpt lat="27.835386" lon="86.754502">
        <ele>3650</ele>
        <time>2022-10-22T08:03:43.000Z</time>
      </trkpt>
      <trkpt lat="27.835386" lon="86.754534">
        <ele>3650.2</ele>
        <time>2022-10-22T08:03:48.000Z</time>
      </trkpt>
      <trkpt lat="27.835389" lon="86.75456">
        <ele>3651</ele>
        <time>2022-10-22T08:03:54.000Z</time>
      </trkpt>
      <trkpt lat="27.835395" lon="86.754579">
        <ele>3651.4</ele>
        <time>2022-10-22T08:03:57.000Z</time>
      </trkpt>
      <trkpt lat="27.835395" lon="86.754611">
        <ele>3652.4</ele>
        <time>2022-10-22T08:04:05.000Z</time>
      </trkpt>
      <trkpt lat="27.835395" lon="86.754637">
        <ele>3653</ele>
        <time>2022-10-22T08:04:12.000Z</time>
      </trkpt>
      <trkpt lat="27.835402" lon="86.754656">
        <ele>3654.2</ele>
        <time>2022-10-22T08:04:16.000Z</time>
      </trkpt>
      <trkpt lat="27.835405" lon="86.754682">
        <ele>3655</ele>
        <time>2022-10-22T08:04:22.000Z</time>
      </trkpt>
      <trkpt lat="27.835405" lon="86.754707">
        <ele>3655.8</ele>
        <time>2022-10-22T08:04:29.000Z</time>
      </trkpt>
      <trkpt lat="27.835405" lon="86.754733">
        <ele>3657.2</ele>
        <time>2022-10-22T08:04:37.000Z</time>
      </trkpt>
      <trkpt lat="27.835398" lon="86.754752">
        <ele>3658</ele>
        <time>2022-10-22T08:04:43.000Z</time>
      </trkpt>
      <trkpt lat="27.835398" lon="86.754778">
        <ele>3658.4</ele>
        <time>2022-10-22T08:04:50.000Z</time>
      </trkpt>
      <trkpt lat="27.835405" lon="86.754797">
        <ele>3659.6</ele>
        <time>2022-10-22T08:04:57.000Z</time>
      </trkpt>
      <trkpt lat="27.835408" lon="86.754822">
        <ele>3660.6</ele>
        <time>2022-10-22T08:05:02.000Z</time>
      </trkpt>
      <trkpt lat="27.835421" lon="86.754842">
        <ele>3660.8</ele>
        <time>2022-10-22T08:05:07.000Z</time>
      </trkpt>
      <trkpt lat="27.835427" lon="86.754861">
        <ele>3661.2</ele>
        <time>2022-10-22T08:05:10.000Z</time>
      </trkpt>
      <trkpt lat="27.835434" lon="86.75488">
        <ele>3661.8</ele>
        <time>2022-10-22T08:05:14.000Z</time>
      </trkpt>
      <trkpt lat="27.835434" lon="86.754906">
        <ele>3662.4</ele>
        <time>2022-10-22T08:05:20.000Z</time>
      </trkpt>
      <trkpt lat="27.835427" lon="86.754931">
        <ele>3662.6</ele>
        <time>2022-10-22T08:05:24.000Z</time>
      </trkpt>
      <trkpt lat="27.83543" lon="86.754957">
        <ele>3663.8</ele>
        <time>2022-10-22T08:05:30.000Z</time>
      </trkpt>
      <trkpt lat="27.835437" lon="86.754976">
        <ele>3663.6</ele>
        <time>2022-10-22T08:05:32.000Z</time>
      </trkpt>
      <trkpt lat="27.835437" lon="86.755008">
        <ele>3663.8</ele>
        <time>2022-10-22T08:05:37.000Z</time>
      </trkpt>
      <trkpt lat="27.835443" lon="86.755034">
        <ele>3664.8</ele>
        <time>2022-10-22T08:05:42.000Z</time>
      </trkpt>
      <trkpt lat="27.835456" lon="86.755078">
        <ele>3665.2</ele>
        <time>2022-10-22T08:05:49.000Z</time>
      </trkpt>
      <trkpt lat="27.835462" lon="86.755098">
        <ele>3665.6</ele>
        <time>2022-10-22T08:05:52.000Z</time>
      </trkpt>
      <trkpt lat="27.835469" lon="86.75513">
        <ele>3666.6</ele>
        <time>2022-10-22T08:05:58.000Z</time>
      </trkpt>
      <trkpt lat="27.835472" lon="86.755155">
        <ele>3667</ele>
        <time>2022-10-22T08:06:03.000Z</time>
      </trkpt>
      <trkpt lat="27.835475" lon="86.755181">
        <ele>3667.8</ele>
        <time>2022-10-22T08:06:09.000Z</time>
      </trkpt>
      <trkpt lat="27.835482" lon="86.755206">
        <ele>3668.2</ele>
        <time>2022-10-22T08:06:15.000Z</time>
      </trkpt>
      <trkpt lat="27.835475" lon="86.755226">
        <ele>3669.2</ele>
        <time>2022-10-22T08:06:19.000Z</time>
      </trkpt>
      <trkpt lat="27.835475" lon="86.755251">
        <ele>3669.6</ele>
        <time>2022-10-22T08:06:22.000Z</time>
      </trkpt>
      <trkpt lat="27.835475" lon="86.755277">
        <ele>3669.8</ele>
        <time>2022-10-22T08:06:26.000Z</time>
      </trkpt>
      <trkpt lat="27.835472" lon="86.755302">
        <ele>3670.6</ele>
        <time>2022-10-22T08:06:29.000Z</time>
      </trkpt>
      <trkpt lat="27.835462" lon="86.755328">
        <ele>3670</ele>
        <time>2022-10-22T08:06:32.000Z</time>
      </trkpt>
      <trkpt lat="27.835456" lon="86.755354">
        <ele>3670.8</ele>
        <time>2022-10-22T08:06:36.000Z</time>
      </trkpt>
      <trkpt lat="27.835456" lon="86.755379">
        <ele>3671.2</ele>
        <time>2022-10-22T08:06:40.000Z</time>
      </trkpt>
      <trkpt lat="27.835459" lon="86.755405">
        <ele>3671.4</ele>
        <time>2022-10-22T08:06:44.000Z</time>
      </trkpt>
      <trkpt lat="27.835456" lon="86.75543">
        <ele>3672.2</ele>
        <time>2022-10-22T08:06:49.000Z</time>
      </trkpt>
      <trkpt lat="27.835459" lon="86.755456">
        <ele>3672.2</ele>
        <time>2022-10-22T08:06:53.000Z</time>
      </trkpt>
      <trkpt lat="27.835456" lon="86.755488">
        <ele>3672.6</ele>
        <time>2022-10-22T08:06:57.000Z</time>
      </trkpt>
      <trkpt lat="27.83545" lon="86.755507">
        <ele>3672.8</ele>
        <time>2022-10-22T08:07:02.000Z</time>
      </trkpt>
      <trkpt lat="27.835459" lon="86.755526">
        <ele>3673</ele>
        <time>2022-10-22T08:07:05.000Z</time>
      </trkpt>
      <trkpt lat="27.835453" lon="86.755546">
        <ele>3673.8</ele>
        <time>2022-10-22T08:07:09.000Z</time>
      </trkpt>
      <trkpt lat="27.83545" lon="86.755571">
        <ele>3674.4</ele>
        <time>2022-10-22T08:07:13.000Z</time>
      </trkpt>
      <trkpt lat="27.835446" lon="86.755597">
        <ele>3674.8</ele>
        <time>2022-10-22T08:07:21.000Z</time>
      </trkpt>
      <trkpt lat="27.83544" lon="86.755616">
        <ele>3676.2</ele>
        <time>2022-10-22T08:07:29.000Z</time>
      </trkpt>
      <trkpt lat="27.835437" lon="86.755648">
        <ele>3676.4</ele>
        <time>2022-10-22T08:07:34.000Z</time>
      </trkpt>
      <trkpt lat="27.835434" lon="86.755674">
        <ele>3676.6</ele>
        <time>2022-10-22T08:07:39.000Z</time>
      </trkpt>
      <trkpt lat="27.835437" lon="86.755699">
        <ele>3677</ele>
        <time>2022-10-22T08:07:42.000Z</time>
      </trkpt>
      <trkpt lat="27.835437" lon="86.755725">
        <ele>3677.2</ele>
        <time>2022-10-22T08:07:46.000Z</time>
      </trkpt>
      <trkpt lat="27.835437" lon="86.75575">
        <ele>3678.4</ele>
        <time>2022-10-22T08:07:51.000Z</time>
      </trkpt>
      <trkpt lat="27.83544" lon="86.755776">
        <ele>3678.8</ele>
        <time>2022-10-22T08:07:55.000Z</time>
      </trkpt>
      <trkpt lat="27.83544" lon="86.755808">
        <ele>3679.4</ele>
        <time>2022-10-22T08:08:00.000Z</time>
      </trkpt>
      <trkpt lat="27.835437" lon="86.755834">
        <ele>3680</ele>
        <time>2022-10-22T08:08:04.000Z</time>
      </trkpt>
      <trkpt lat="27.835437" lon="86.755859">
        <ele>3680.2</ele>
        <time>2022-10-22T08:08:08.000Z</time>
      </trkpt>
      <trkpt lat="27.835446" lon="86.755885">
        <ele>3680.6</ele>
        <time>2022-10-22T08:08:12.000Z</time>
      </trkpt>
      <trkpt lat="27.835446" lon="86.755923">
        <ele>3681.4</ele>
        <time>2022-10-22T08:08:16.000Z</time>
      </trkpt>
      <trkpt lat="27.83544" lon="86.755949">
        <ele>3681.6</ele>
        <time>2022-10-22T08:08:20.000Z</time>
      </trkpt>
      <trkpt lat="27.835437" lon="86.755974">
        <ele>3681.8</ele>
        <time>2022-10-22T08:08:23.000Z</time>
      </trkpt>
      <trkpt lat="27.835427" lon="86.755994">
        <ele>3682.4</ele>
        <time>2022-10-22T08:08:27.000Z</time>
      </trkpt>
      <trkpt lat="27.835421" lon="86.756019">
        <ele>3682.4</ele>
        <time>2022-10-22T08:08:30.000Z</time>
      </trkpt>
      <trkpt lat="27.835408" lon="86.756045">
        <ele>3682.2</ele>
        <time>2022-10-22T08:08:33.000Z</time>
      </trkpt>
      <trkpt lat="27.835395" lon="86.756064">
        <ele>3683</ele>
        <time>2022-10-22T08:08:37.000Z</time>
      </trkpt>
      <trkpt lat="27.835389" lon="86.756083">
        <ele>3682.8</ele>
        <time>2022-10-22T08:08:39.000Z</time>
      </trkpt>
      <trkpt lat="27.835373" lon="86.756102">
        <ele>3683</ele>
        <time>2022-10-22T08:08:42.000Z</time>
      </trkpt>
      <trkpt lat="27.835366" lon="86.756122">
        <ele>3683.6</ele>
        <time>2022-10-22T08:08:44.000Z</time>
      </trkpt>
      <trkpt lat="27.835357" lon="86.756141">
        <ele>3683.6</ele>
        <time>2022-10-22T08:08:47.000Z</time>
      </trkpt>
      <trkpt lat="27.83535" lon="86.75616">
        <ele>3684</ele>
        <time>2022-10-22T08:08:49.000Z</time>
      </trkpt>
      <trkpt lat="27.83535" lon="86.756186">
        <ele>3684.4</ele>
        <time>2022-10-22T08:08:54.000Z</time>
      </trkpt>
      <trkpt lat="27.835344" lon="86.756211">
        <ele>3684.8</ele>
        <time>2022-10-22T08:08:57.000Z</time>
      </trkpt>
      <trkpt lat="27.835344" lon="86.756243">
        <ele>3685.4</ele>
        <time>2022-10-22T08:09:01.000Z</time>
      </trkpt>
      <trkpt lat="27.835354" lon="86.756262">
        <ele>3685.6</ele>
        <time>2022-10-22T08:09:05.000Z</time>
      </trkpt>
      <trkpt lat="27.835363" lon="86.756288">
        <ele>3686</ele>
        <time>2022-10-22T08:09:08.000Z</time>
      </trkpt>
      <trkpt lat="27.835373" lon="86.756307">
        <ele>3686.6</ele>
        <time>2022-10-22T08:09:11.000Z</time>
      </trkpt>
      <trkpt lat="27.835376" lon="86.756333">
        <ele>3686.8</ele>
        <time>2022-10-22T08:09:13.000Z</time>
      </trkpt>
      <trkpt lat="27.835379" lon="86.756358">
        <ele>3687</ele>
        <time>2022-10-22T08:09:16.000Z</time>
      </trkpt>
      <trkpt lat="27.83537" lon="86.756384">
        <ele>3687.4</ele>
        <time>2022-10-22T08:09:22.000Z</time>
      </trkpt>
      <trkpt lat="27.83537" lon="86.75641">
        <ele>3687.4</ele>
        <time>2022-10-22T08:09:24.000Z</time>
      </trkpt>
      <trkpt lat="27.83537" lon="86.756442">
        <ele>3687.4</ele>
        <time>2022-10-22T08:09:27.000Z</time>
      </trkpt>
      <trkpt lat="27.835373" lon="86.756467">
        <ele>3687.4</ele>
        <time>2022-10-22T08:09:31.000Z</time>
      </trkpt>
      <trkpt lat="27.835379" lon="86.756486">
        <ele>3687.4</ele>
        <time>2022-10-22T08:09:33.000Z</time>
      </trkpt>
      <trkpt lat="27.835379" lon="86.756518">
        <ele>3687.8</ele>
        <time>2022-10-22T08:09:36.000Z</time>
      </trkpt>
      <trkpt lat="27.835379" lon="86.756544">
        <ele>3687.8</ele>
        <time>2022-10-22T08:09:40.000Z</time>
      </trkpt>
      <trkpt lat="27.835379" lon="86.75657">
        <ele>3688.4</ele>
        <time>2022-10-22T08:09:43.000Z</time>
      </trkpt>
      <trkpt lat="27.835376" lon="86.756602">
        <ele>3688.2</ele>
        <time>2022-10-22T08:09:46.000Z</time>
      </trkpt>
      <trkpt lat="27.835373" lon="86.756627">
        <ele>3688.6</ele>
        <time>2022-10-22T08:09:50.000Z</time>
      </trkpt>
      <trkpt lat="27.83537" lon="86.756653">
        <ele>3689</ele>
        <time>2022-10-22T08:09:53.000Z</time>
      </trkpt>
      <trkpt lat="27.835363" lon="86.756678">
        <ele>3689.4</ele>
        <time>2022-10-22T08:09:56.000Z</time>
      </trkpt>
      <trkpt lat="27.83536" lon="86.756704">
        <ele>3689.6</ele>
        <time>2022-10-22T08:09:59.000Z</time>
      </trkpt>
      <trkpt lat="27.835363" lon="86.75673">
        <ele>3690</ele>
        <time>2022-10-22T08:10:02.000Z</time>
      </trkpt>
      <trkpt lat="27.83536" lon="86.756755">
        <ele>3690.4</ele>
        <time>2022-10-22T08:10:05.000Z</time>
      </trkpt>
      <trkpt lat="27.83536" lon="86.756781">
        <ele>3690.6</ele>
        <time>2022-10-22T08:10:09.000Z</time>
      </trkpt>
      <trkpt lat="27.835357" lon="86.756806">
        <ele>3691.2</ele>
        <time>2022-10-22T08:10:12.000Z</time>
      </trkpt>
      <trkpt lat="27.835357" lon="86.756838">
        <ele>3691.4</ele>
        <time>2022-10-22T08:10:16.000Z</time>
      </trkpt>
      <trkpt lat="27.83535" lon="86.756858">
        <ele>3691.8</ele>
        <time>2022-10-22T08:10:20.000Z</time>
      </trkpt>
      <trkpt lat="27.83535" lon="86.756883">
        <ele>3692.2</ele>
        <time>2022-10-22T08:10:23.000Z</time>
      </trkpt>
      <trkpt lat="27.83535" lon="86.756915">
        <ele>3693</ele>
        <time>2022-10-22T08:10:28.000Z</time>
      </trkpt>
      <trkpt lat="27.835344" lon="86.756934">
        <ele>3693</ele>
        <time>2022-10-22T08:10:30.000Z</time>
      </trkpt>
      <trkpt lat="27.835331" lon="86.75696">
        <ele>3693.8</ele>
        <time>2022-10-22T08:10:34.000Z</time>
      </trkpt>
      <trkpt lat="27.835322" lon="86.756979">
        <ele>3694</ele>
        <time>2022-10-22T08:10:39.000Z</time>
      </trkpt>
      <trkpt lat="27.835315" lon="86.757005">
        <ele>3694.4</ele>
        <time>2022-10-22T08:10:43.000Z</time>
      </trkpt>
      <trkpt lat="27.835309" lon="86.757024">
        <ele>3695.4</ele>
        <time>2022-10-22T08:10:47.000Z</time>
      </trkpt>
      <trkpt lat="27.835309" lon="86.75705">
        <ele>3695.6</ele>
        <time>2022-10-22T08:10:50.000Z</time>
      </trkpt>
      <trkpt lat="27.835309" lon="86.757075">
        <ele>3695.6</ele>
        <time>2022-10-22T08:10:54.000Z</time>
      </trkpt>
      <trkpt lat="27.835318" lon="86.757094">
        <ele>3695.4</ele>
        <time>2022-10-22T08:10:58.000Z</time>
      </trkpt>
      <trkpt lat="27.835328" lon="86.757114">
        <ele>3695.8</ele>
        <time>2022-10-22T08:11:01.000Z</time>
      </trkpt>
      <trkpt lat="27.835334" lon="86.757133">
        <ele>3696.8</ele>
        <time>2022-10-22T08:11:06.000Z</time>
      </trkpt>
      <trkpt lat="27.835347" lon="86.757158">
        <ele>3697</ele>
        <time>2022-10-22T08:11:11.000Z</time>
      </trkpt>
      <trkpt lat="27.835357" lon="86.757178">
        <ele>3697.4</ele>
        <time>2022-10-22T08:11:15.000Z</time>
      </trkpt>
      <trkpt lat="27.835357" lon="86.757203">
        <ele>3698</ele>
        <time>2022-10-22T08:11:19.000Z</time>
      </trkpt>
      <trkpt lat="27.835357" lon="86.757235">
        <ele>3698.4</ele>
        <time>2022-10-22T08:11:25.000Z</time>
      </trkpt>
      <trkpt lat="27.83535" lon="86.757254">
        <ele>3699.4</ele>
        <time>2022-10-22T08:11:30.000Z</time>
      </trkpt>
      <trkpt lat="27.83535" lon="86.75728">
        <ele>3700</ele>
        <time>2022-10-22T08:11:33.000Z</time>
      </trkpt>
      <trkpt lat="27.835344" lon="86.757299">
        <ele>3700.6</ele>
        <time>2022-10-22T08:11:37.000Z</time>
      </trkpt>
      <trkpt lat="27.835347" lon="86.757325">
        <ele>3700.8</ele>
        <time>2022-10-22T08:11:42.000Z</time>
      </trkpt>
      <trkpt lat="27.835344" lon="86.757357">
        <ele>3701.2</ele>
        <time>2022-10-22T08:11:47.000Z</time>
      </trkpt>
      <trkpt lat="27.835331" lon="86.757376">
        <ele>3701.6</ele>
        <time>2022-10-22T08:11:51.000Z</time>
      </trkpt>
      <trkpt lat="27.835331" lon="86.757408">
        <ele>3702</ele>
        <time>2022-10-22T08:11:55.000Z</time>
      </trkpt>
      <trkpt lat="27.835328" lon="86.757434">
        <ele>3702.4</ele>
        <time>2022-10-22T08:11:59.000Z</time>
      </trkpt>
      <trkpt lat="27.835318" lon="86.757453">
        <ele>3702.6</ele>
        <time>2022-10-22T08:12:03.000Z</time>
      </trkpt>
      <trkpt lat="27.835318" lon="86.757478">
        <ele>3703.2</ele>
        <time>2022-10-22T08:12:06.000Z</time>
      </trkpt>
      <trkpt lat="27.835325" lon="86.75751">
        <ele>3703.2</ele>
        <time>2022-10-22T08:12:12.000Z</time>
      </trkpt>
      <trkpt lat="27.835328" lon="86.757536">
        <ele>3703.8</ele>
        <time>2022-10-22T08:12:16.000Z</time>
      </trkpt>
      <trkpt lat="27.835322" lon="86.757555">
        <ele>3704.6</ele>
        <time>2022-10-22T08:12:20.000Z</time>
      </trkpt>
      <trkpt lat="27.835306" lon="86.757568">
        <ele>3705</ele>
        <time>2022-10-22T08:12:28.000Z</time>
      </trkpt>
      <trkpt lat="27.835306" lon="86.757594">
        <ele>3704.6</ele>
        <time>2022-10-22T08:12:32.000Z</time>
      </trkpt>
      <trkpt lat="27.835306" lon="86.757619">
        <ele>3704.6</ele>
        <time>2022-10-22T08:12:37.000Z</time>
      </trkpt>
      <trkpt lat="27.835302" lon="86.757645">
        <ele>3704.6</ele>
        <time>2022-10-22T08:12:40.000Z</time>
      </trkpt>
      <trkpt lat="27.835306" lon="86.75767">
        <ele>3705.6</ele>
        <time>2022-10-22T08:12:44.000Z</time>
      </trkpt>
      <trkpt lat="27.835299" lon="86.75769">
        <ele>3706.2</ele>
        <time>2022-10-22T08:12:48.000Z</time>
      </trkpt>
      <trkpt lat="27.83529" lon="86.757715">
        <ele>3706.6</ele>
        <time>2022-10-22T08:12:53.000Z</time>
      </trkpt>
      <trkpt lat="27.83528" lon="86.757734">
        <ele>3707.4</ele>
        <time>2022-10-22T08:12:59.000Z</time>
      </trkpt>
      <trkpt lat="27.835277" lon="86.75776">
        <ele>3708</ele>
        <time>2022-10-22T08:13:04.000Z</time>
      </trkpt>
      <trkpt lat="27.83528" lon="86.757792">
        <ele>3708.2</ele>
        <time>2022-10-22T08:13:09.000Z</time>
      </trkpt>
      <trkpt lat="27.835286" lon="86.757818">
        <ele>3709.2</ele>
        <time>2022-10-22T08:13:14.000Z</time>
      </trkpt>
      <trkpt lat="27.83529" lon="86.757843">
        <ele>3709.4</ele>
        <time>2022-10-22T08:13:17.000Z</time>
      </trkpt>
      <trkpt lat="27.835277" lon="86.757869">
        <ele>3710.4</ele>
        <time>2022-10-22T08:13:22.000Z</time>
      </trkpt>
      <trkpt lat="27.835277" lon="86.757894">
        <ele>3711</ele>
        <time>2022-10-22T08:13:28.000Z</time>
      </trkpt>
      <trkpt lat="27.835267" lon="86.757914">
        <ele>3711.2</ele>
        <time>2022-10-22T08:13:31.000Z</time>
      </trkpt>
      <trkpt lat="27.835261" lon="86.757933">
        <ele>3712</ele>
        <time>2022-10-22T08:13:34.000Z</time>
      </trkpt>
      <trkpt lat="27.835258" lon="86.757958">
        <ele>3712.2</ele>
        <time>2022-10-22T08:13:39.000Z</time>
      </trkpt>
      <trkpt lat="27.835258" lon="86.75799">
        <ele>3712.6</ele>
        <time>2022-10-22T08:13:43.000Z</time>
      </trkpt>
      <trkpt lat="27.83527" lon="86.75801">
        <ele>3712.6</ele>
        <time>2022-10-22T08:13:46.000Z</time>
      </trkpt>
      <trkpt lat="27.835277" lon="86.758035">
        <ele>3713</ele>
        <time>2022-10-22T08:13:50.000Z</time>
      </trkpt>
      <trkpt lat="27.83529" lon="86.758054">
        <ele>3713.4</ele>
        <time>2022-10-22T08:13:52.000Z</time>
      </trkpt>
      <trkpt lat="27.835296" lon="86.758074">
        <ele>3713.4</ele>
        <time>2022-10-22T08:13:54.000Z</time>
      </trkpt>
      <trkpt lat="27.835302" lon="86.758093">
        <ele>3713.6</ele>
        <time>2022-10-22T08:13:58.000Z</time>
      </trkpt>
      <trkpt lat="27.835315" lon="86.758112">
        <ele>3714</ele>
        <time>2022-10-22T08:14:00.000Z</time>
      </trkpt>
      <trkpt lat="27.835315" lon="86.758138">
        <ele>3714.2</ele>
        <time>2022-10-22T08:14:04.000Z</time>
      </trkpt>
      <trkpt lat="27.835322" lon="86.758157">
        <ele>3714.2</ele>
        <time>2022-10-22T08:14:07.000Z</time>
      </trkpt>
      <trkpt lat="27.835334" lon="86.758176">
        <ele>3714.8</ele>
        <time>2022-10-22T08:14:12.000Z</time>
      </trkpt>
      <trkpt lat="27.835328" lon="86.758195">
        <ele>3715.6</ele>
        <time>2022-10-22T08:14:16.000Z</time>
      </trkpt>
      <trkpt lat="27.835322" lon="86.758214">
        <ele>3716.4</ele>
        <time>2022-10-22T08:14:24.000Z</time>
      </trkpt>
      <trkpt lat="27.835318" lon="86.75824">
        <ele>3716.6</ele>
        <time>2022-10-22T08:14:26.000Z</time>
      </trkpt>
      <trkpt lat="27.835315" lon="86.758266">
        <ele>3716.8</ele>
        <time>2022-10-22T08:14:31.000Z</time>
      </trkpt>
      <trkpt lat="27.835325" lon="86.758285">
        <ele>3717.8</ele>
        <time>2022-10-22T08:14:35.000Z</time>
      </trkpt>
      <trkpt lat="27.835325" lon="86.758317">
        <ele>3717.6</ele>
        <time>2022-10-22T08:14:38.000Z</time>
      </trkpt>
      <trkpt lat="27.835318" lon="86.758336">
        <ele>3717.8</ele>
        <time>2022-10-22T08:14:42.000Z</time>
      </trkpt>
      <trkpt lat="27.835309" lon="86.758355">
        <ele>3718.4</ele>
        <time>2022-10-22T08:14:46.000Z</time>
      </trkpt>
      <trkpt lat="27.835302" lon="86.758387">
        <ele>3718.6</ele>
        <time>2022-10-22T08:14:50.000Z</time>
      </trkpt>
      <trkpt lat="27.83529" lon="86.758406">
        <ele>3719.6</ele>
        <time>2022-10-22T08:14:56.000Z</time>
      </trkpt>
      <trkpt lat="27.83529" lon="86.758464">
        <ele>3720.6</ele>
        <time>2022-10-22T08:15:05.000Z</time>
      </trkpt>
      <trkpt lat="27.83528" lon="86.758483">
        <ele>3721.4</ele>
        <time>2022-10-22T08:15:12.000Z</time>
      </trkpt>
      <trkpt lat="27.835267" lon="86.758509">
        <ele>3722.2</ele>
        <time>2022-10-22T08:15:17.000Z</time>
      </trkpt>
      <trkpt lat="27.835248" lon="86.758509">
        <ele>3722.8</ele>
        <time>2022-10-22T08:15:26.000Z</time>
      </trkpt>
      <trkpt lat="27.835251" lon="86.758534">
        <ele>3723.4</ele>
        <time>2022-10-22T08:15:41.000Z</time>
      </trkpt>
      <trkpt lat="27.835251" lon="86.758566">
        <ele>3723.4</ele>
        <time>2022-10-22T08:15:43.000Z</time>
      </trkpt>
      <trkpt lat="27.835251" lon="86.758592">
        <ele>3723.2</ele>
        <time>2022-10-22T08:15:45.000Z</time>
      </trkpt>
      <trkpt lat="27.835261" lon="86.758611">
        <ele>3723.4</ele>
        <time>2022-10-22T08:15:48.000Z</time>
      </trkpt>
      <trkpt lat="27.835267" lon="86.75863">
        <ele>3723.4</ele>
        <time>2022-10-22T08:15:50.000Z</time>
      </trkpt>
      <trkpt lat="27.835277" lon="86.75865">
        <ele>3723.8</ele>
        <time>2022-10-22T08:15:53.000Z</time>
      </trkpt>
      <trkpt lat="27.83528" lon="86.758675">
        <ele>3724.4</ele>
        <time>2022-10-22T08:15:58.000Z</time>
      </trkpt>
      <trkpt lat="27.83527" lon="86.758707">
        <ele>3725.6</ele>
        <time>2022-10-22T08:16:03.000Z</time>
      </trkpt>
      <trkpt lat="27.835264" lon="86.758726">
        <ele>3726.4</ele>
        <time>2022-10-22T08:16:07.000Z</time>
      </trkpt>
      <trkpt lat="27.83527" lon="86.758746">
        <ele>3726.8</ele>
        <time>2022-10-22T08:16:12.000Z</time>
      </trkpt>
      <trkpt lat="27.835264" lon="86.758765">
        <ele>3728</ele>
        <time>2022-10-22T08:16:20.000Z</time>
      </trkpt>
      <trkpt lat="27.835264" lon="86.75879">
        <ele>3728.6</ele>
        <time>2022-10-22T08:16:25.000Z</time>
      </trkpt>
      <trkpt lat="27.835258" lon="86.75881">
        <ele>3728.8</ele>
        <time>2022-10-22T08:16:28.000Z</time>
      </trkpt>
      <trkpt lat="27.835242" lon="86.758829">
        <ele>3729.6</ele>
        <time>2022-10-22T08:16:34.000Z</time>
      </trkpt>
      <trkpt lat="27.835229" lon="86.758848">
        <ele>3729.8</ele>
        <time>2022-10-22T08:16:39.000Z</time>
      </trkpt>
      <trkpt lat="27.835226" lon="86.758874">
        <ele>3730.2</ele>
        <time>2022-10-22T08:16:47.000Z</time>
      </trkpt>
      <trkpt lat="27.83521" lon="86.758893">
        <ele>3730.4</ele>
        <time>2022-10-22T08:16:50.000Z</time>
      </trkpt>
      <trkpt lat="27.8352" lon="86.758912">
        <ele>3730.4</ele>
        <time>2022-10-22T08:16:54.000Z</time>
      </trkpt>
      <trkpt lat="27.835197" lon="86.75895">
        <ele>3731.6</ele>
        <time>2022-10-22T08:17:31.000Z</time>
      </trkpt>
      <trkpt lat="27.835194" lon="86.758989">
        <ele>3732.2</ele>
        <time>2022-10-22T08:17:34.000Z</time>
      </trkpt>
      <trkpt lat="27.835187" lon="86.759008">
        <ele>3732.8</ele>
        <time>2022-10-22T08:17:36.000Z</time>
      </trkpt>
      <trkpt lat="27.835187" lon="86.75904">
        <ele>3732.8</ele>
        <time>2022-10-22T08:17:38.000Z</time>
      </trkpt>
      <trkpt lat="27.835187" lon="86.759066">
        <ele>3732.8</ele>
        <time>2022-10-22T08:17:40.000Z</time>
      </trkpt>
      <trkpt lat="27.835187" lon="86.759091">
        <ele>3733.4</ele>
        <time>2022-10-22T08:17:47.000Z</time>
      </trkpt>
      <trkpt lat="27.83519" lon="86.759117">
        <ele>3734.4</ele>
        <time>2022-10-22T08:17:52.000Z</time>
      </trkpt>
      <trkpt lat="27.835194" lon="86.759142">
        <ele>3734.8</ele>
        <time>2022-10-22T08:17:57.000Z</time>
      </trkpt>
      <trkpt lat="27.835197" lon="86.759168">
        <ele>3735.2</ele>
        <time>2022-10-22T08:18:02.000Z</time>
      </trkpt>
      <trkpt lat="27.8352" lon="86.759194">
        <ele>3736</ele>
        <time>2022-10-22T08:18:07.000Z</time>
      </trkpt>
      <trkpt lat="27.835203" lon="86.759219">
        <ele>3736.8</ele>
        <time>2022-10-22T08:18:12.000Z</time>
      </trkpt>
      <trkpt lat="27.835203" lon="86.759245">
        <ele>3737.2</ele>
        <time>2022-10-22T08:18:18.000Z</time>
      </trkpt>
      <trkpt lat="27.835206" lon="86.75927">
        <ele>3737.6</ele>
        <time>2022-10-22T08:18:22.000Z</time>
      </trkpt>
      <trkpt lat="27.835216" lon="86.759302">
        <ele>3738.8</ele>
        <time>2022-10-22T08:18:29.000Z</time>
      </trkpt>
      <trkpt lat="27.835219" lon="86.759328">
        <ele>3741</ele>
        <time>2022-10-22T08:20:01.000Z</time>
      </trkpt>
      <trkpt lat="27.835226" lon="86.759354">
        <ele>3741.4</ele>
        <time>2022-10-22T08:20:03.000Z</time>
      </trkpt>
      <trkpt lat="27.835219" lon="86.759379">
        <ele>3741.8</ele>
        <time>2022-10-22T08:20:05.000Z</time>
      </trkpt>
      <trkpt lat="27.835219" lon="86.759405">
        <ele>3742.2</ele>
        <time>2022-10-22T08:20:08.000Z</time>
      </trkpt>
      <trkpt lat="27.835213" lon="86.759424">
        <ele>3742.4</ele>
        <time>2022-10-22T08:20:09.000Z</time>
      </trkpt>
      <trkpt lat="27.835203" lon="86.759443">
        <ele>3742.6</ele>
        <time>2022-10-22T08:20:13.000Z</time>
      </trkpt>
      <trkpt lat="27.83519" lon="86.759462">
        <ele>3743.4</ele>
        <time>2022-10-22T08:20:17.000Z</time>
      </trkpt>
      <trkpt lat="27.835197" lon="86.759488">
        <ele>3743.8</ele>
        <time>2022-10-22T08:20:19.000Z</time>
      </trkpt>
      <trkpt lat="27.8352" lon="86.759514">
        <ele>3743.8</ele>
        <time>2022-10-22T08:20:21.000Z</time>
      </trkpt>
      <trkpt lat="27.835197" lon="86.759539">
        <ele>3744.4</ele>
        <time>2022-10-22T08:20:25.000Z</time>
      </trkpt>
      <trkpt lat="27.835178" lon="86.759552">
        <ele>3745.2</ele>
        <time>2022-10-22T08:20:31.000Z</time>
      </trkpt>
      <trkpt lat="27.835162" lon="86.759578">
        <ele>3746</ele>
        <time>2022-10-22T08:20:37.000Z</time>
      </trkpt>
      <trkpt lat="27.835142" lon="86.75959">
        <ele>3746.4</ele>
        <time>2022-10-22T08:20:45.000Z</time>
      </trkpt>
      <trkpt lat="27.835136" lon="86.759616">
        <ele>3746</ele>
        <time>2022-10-22T08:20:51.000Z</time>
      </trkpt>
      <trkpt lat="27.835126" lon="86.759642">
        <ele>3747</ele>
        <time>2022-10-22T08:20:58.000Z</time>
      </trkpt>
      <trkpt lat="27.83512" lon="86.759661">
        <ele>3747.4</ele>
        <time>2022-10-22T08:21:01.000Z</time>
      </trkpt>
      <trkpt lat="27.835107" lon="86.75968">
        <ele>3747.8</ele>
        <time>2022-10-22T08:21:04.000Z</time>
      </trkpt>
      <trkpt lat="27.835091" lon="86.759699">
        <ele>3747.8</ele>
        <time>2022-10-22T08:21:06.000Z</time>
      </trkpt>
      <trkpt lat="27.835078" lon="86.759718">
        <ele>3748.2</ele>
        <time>2022-10-22T08:21:08.000Z</time>
      </trkpt>
      <trkpt lat="27.835072" lon="86.759738">
        <ele>3748.6</ele>
        <time>2022-10-22T08:21:10.000Z</time>
      </trkpt>
      <trkpt lat="27.835066" lon="86.759757">
        <ele>3748.8</ele>
        <time>2022-10-22T08:21:15.000Z</time>
      </trkpt>
      <trkpt lat="27.835053" lon="86.759776">
        <ele>3749.2</ele>
        <time>2022-10-22T08:21:17.000Z</time>
      </trkpt>
      <trkpt lat="27.83504" lon="86.759795">
        <ele>3749.8</ele>
        <time>2022-10-22T08:21:21.000Z</time>
      </trkpt>
      <trkpt lat="27.835027" lon="86.759814">
        <ele>3750.2</ele>
        <time>2022-10-22T08:21:24.000Z</time>
      </trkpt>
      <trkpt lat="27.835011" lon="86.759827">
        <ele>3750.8</ele>
        <time>2022-10-22T08:21:29.000Z</time>
      </trkpt>
      <trkpt lat="27.835014" lon="86.759859">
        <ele>3752.2</ele>
        <time>2022-10-22T08:21:35.000Z</time>
      </trkpt>
      <trkpt lat="27.835027" lon="86.759878">
        <ele>3753</ele>
        <time>2022-10-22T08:21:39.000Z</time>
      </trkpt>
      <trkpt lat="27.835037" lon="86.759904">
        <ele>3752.4</ele>
        <time>2022-10-22T08:21:44.000Z</time>
      </trkpt>
      <trkpt lat="27.835046" lon="86.759923">
        <ele>3752.8</ele>
        <time>2022-10-22T08:21:47.000Z</time>
      </trkpt>
      <trkpt lat="27.835053" lon="86.759949">
        <ele>3753.2</ele>
        <time>2022-10-22T08:21:51.000Z</time>
      </trkpt>
      <trkpt lat="27.835069" lon="86.759974">
        <ele>3753.8</ele>
        <time>2022-10-22T08:21:56.000Z</time>
      </trkpt>
      <trkpt lat="27.835091" lon="86.759994">
        <ele>3754</ele>
        <time>2022-10-22T08:22:02.000Z</time>
      </trkpt>
      <trkpt lat="27.835098" lon="86.760019">
        <ele>3754.6</ele>
        <time>2022-10-22T08:22:05.000Z</time>
      </trkpt>
      <trkpt lat="27.83511" lon="86.760038">
        <ele>3754.6</ele>
        <time>2022-10-22T08:22:08.000Z</time>
      </trkpt>
      <trkpt lat="27.835117" lon="86.760058">
        <ele>3755.2</ele>
        <time>2022-10-22T08:22:10.000Z</time>
      </trkpt>
      <trkpt lat="27.83512" lon="86.760083">
        <ele>3756.4</ele>
        <time>2022-10-22T08:22:16.000Z</time>
      </trkpt>
      <trkpt lat="27.835126" lon="86.760102">
        <ele>3756.4</ele>
        <time>2022-10-22T08:22:18.000Z</time>
      </trkpt>
      <trkpt lat="27.835139" lon="86.760122">
        <ele>3756.6</ele>
        <time>2022-10-22T08:22:23.000Z</time>
      </trkpt>
      <trkpt lat="27.835146" lon="86.760141">
        <ele>3756.6</ele>
        <time>2022-10-22T08:22:25.000Z</time>
      </trkpt>
      <trkpt lat="27.835158" lon="86.76016">
        <ele>3757.6</ele>
        <time>2022-10-22T08:22:32.000Z</time>
      </trkpt>
      <trkpt lat="27.835165" lon="86.760179">
        <ele>3758</ele>
        <time>2022-10-22T08:22:36.000Z</time>
      </trkpt>
      <trkpt lat="27.835168" lon="86.760211">
        <ele>3759</ele>
        <time>2022-10-22T08:22:42.000Z</time>
      </trkpt>
      <trkpt lat="27.835181" lon="86.76023">
        <ele>3759.6</ele>
        <time>2022-10-22T08:22:48.000Z</time>
      </trkpt>
      <trkpt lat="27.835197" lon="86.760243">
        <ele>3759.8</ele>
        <time>2022-10-22T08:22:51.000Z</time>
      </trkpt>
      <trkpt lat="27.835203" lon="86.760262">
        <ele>3760</ele>
        <time>2022-10-22T08:22:54.000Z</time>
      </trkpt>
      <trkpt lat="27.835206" lon="86.760294">
        <ele>3760.6</ele>
        <time>2022-10-22T08:22:58.000Z</time>
      </trkpt>
      <trkpt lat="27.83521" lon="86.76032">
        <ele>3760.8</ele>
        <time>2022-10-22T08:23:02.000Z</time>
      </trkpt>
      <trkpt lat="27.835216" lon="86.760339">
        <ele>3761</ele>
        <time>2022-10-22T08:23:05.000Z</time>
      </trkpt>
      <trkpt lat="27.83521" lon="86.760371">
        <ele>3761.8</ele>
        <time>2022-10-22T08:23:13.000Z</time>
      </trkpt>
      <trkpt lat="27.835194" lon="86.760384">
        <ele>3762.4</ele>
        <time>2022-10-22T08:23:18.000Z</time>
      </trkpt>
      <trkpt lat="27.835178" lon="86.760397">
        <ele>3763</ele>
        <time>2022-10-22T08:23:23.000Z</time>
      </trkpt>
      <trkpt lat="27.835184" lon="86.760416">
        <ele>3763</ele>
        <time>2022-10-22T08:23:26.000Z</time>
      </trkpt>
      <trkpt lat="27.835206" lon="86.760422">
        <ele>3764</ele>
        <time>2022-10-22T08:23:33.000Z</time>
      </trkpt>
      <trkpt lat="27.835219" lon="86.760442">
        <ele>3765.2</ele>
        <time>2022-10-22T08:23:40.000Z</time>
      </trkpt>
      <trkpt lat="27.835219" lon="86.760467">
        <ele>3765.4</ele>
        <time>2022-10-22T08:23:44.000Z</time>
      </trkpt>
      <trkpt lat="27.835203" lon="86.76048">
        <ele>3766.2</ele>
        <time>2022-10-22T08:23:49.000Z</time>
      </trkpt>
      <trkpt lat="27.83519" lon="86.760499">
        <ele>3766.2</ele>
        <time>2022-10-22T08:23:51.000Z</time>
      </trkpt>
      <trkpt lat="27.83519" lon="86.760531">
        <ele>3766.6</ele>
        <time>2022-10-22T08:23:58.000Z</time>
      </trkpt>
      <trkpt lat="27.835197" lon="86.76055">
        <ele>3767.2</ele>
        <time>2022-10-22T08:24:05.000Z</time>
      </trkpt>
      <trkpt lat="27.835203" lon="86.76057">
        <ele>3767.6</ele>
        <time>2022-10-22T08:24:09.000Z</time>
      </trkpt>
      <trkpt lat="27.83521" lon="86.760595">
        <ele>3768.8</ele>
        <time>2022-10-22T08:24:17.000Z</time>
      </trkpt>
      <trkpt lat="27.835203" lon="86.760614">
        <ele>3770</ele>
        <time>2022-10-22T08:24:22.000Z</time>
      </trkpt>
      <trkpt lat="27.83519" lon="86.760634">
        <ele>3770.2</ele>
        <time>2022-10-22T08:24:26.000Z</time>
      </trkpt>
      <trkpt lat="27.83519" lon="86.760659">
        <ele>3770.8</ele>
        <time>2022-10-22T08:24:33.000Z</time>
      </trkpt>
      <trkpt lat="27.83519" lon="86.760691">
        <ele>3771</ele>
        <time>2022-10-22T08:24:36.000Z</time>
      </trkpt>
      <trkpt lat="27.835178" lon="86.760717">
        <ele>3772</ele>
        <time>2022-10-22T08:24:42.000Z</time>
      </trkpt>
      <trkpt lat="27.835168" lon="86.760736">
        <ele>3772.6</ele>
        <time>2022-10-22T08:24:47.000Z</time>
      </trkpt>
      <trkpt lat="27.835168" lon="86.760768">
        <ele>3773</ele>
        <time>2022-10-22T08:24:52.000Z</time>
      </trkpt>
      <trkpt lat="27.835149" lon="86.760787">
        <ele>3773.2</ele>
        <time>2022-10-22T08:24:56.000Z</time>
      </trkpt>
      <trkpt lat="27.835142" lon="86.760806">
        <ele>3773.4</ele>
        <time>2022-10-22T08:24:58.000Z</time>
      </trkpt>
      <trkpt lat="27.835139" lon="86.760832">
        <ele>3774.4</ele>
        <time>2022-10-22T08:25:02.000Z</time>
      </trkpt>
      <trkpt lat="27.83512" lon="86.760832">
        <ele>3774.2</ele>
        <time>2022-10-22T08:25:07.000Z</time>
      </trkpt>
      <trkpt lat="27.835107" lon="86.760851">
        <ele>3774.8</ele>
        <time>2022-10-22T08:25:09.000Z</time>
      </trkpt>
      <trkpt lat="27.835098" lon="86.76087">
        <ele>3775</ele>
        <time>2022-10-22T08:25:13.000Z</time>
      </trkpt>
      <trkpt lat="27.835088" lon="86.76089">
        <ele>3775.4</ele>
        <time>2022-10-22T08:25:17.000Z</time>
      </trkpt>
      <trkpt lat="27.835094" lon="86.760915">
        <ele>3776</ele>
        <time>2022-10-22T08:25:23.000Z</time>
      </trkpt>
      <trkpt lat="27.835091" lon="86.760941">
        <ele>3776.6</ele>
        <time>2022-10-22T08:25:27.000Z</time>
      </trkpt>
      <trkpt lat="27.835072" lon="86.760966">
        <ele>3777</ele>
        <time>2022-10-22T08:25:32.000Z</time>
      </trkpt>
      <trkpt lat="27.835053" lon="86.760979">
        <ele>3777</ele>
        <time>2022-10-22T08:25:35.000Z</time>
      </trkpt>
      <trkpt lat="27.83503" lon="86.760986">
        <ele>3778</ele>
        <time>2022-10-22T08:25:39.000Z</time>
      </trkpt>
      <trkpt lat="27.835011" lon="86.760992">
        <ele>3778.2</ele>
        <time>2022-10-22T08:25:42.000Z</time>
      </trkpt>
      <trkpt lat="27.835005" lon="86.761011">
        <ele>3778.2</ele>
        <time>2022-10-22T08:25:45.000Z</time>
      </trkpt>
      <trkpt lat="27.834992" lon="86.761037">
        <ele>3779.4</ele>
        <time>2022-10-22T08:26:29.000Z</time>
      </trkpt>
      <trkpt lat="27.834992" lon="86.761062">
        <ele>3779.2</ele>
        <time>2022-10-22T08:26:31.000Z</time>
      </trkpt>
      <trkpt lat="27.834998" lon="86.761101">
        <ele>3779.8</ele>
        <time>2022-10-22T08:26:35.000Z</time>
      </trkpt>
      <trkpt lat="27.835002" lon="86.761126">
        <ele>3779.8</ele>
        <time>2022-10-22T08:26:38.000Z</time>
      </trkpt>
      <trkpt lat="27.835008" lon="86.761152">
        <ele>3781</ele>
        <time>2022-10-22T08:27:07.000Z</time>
      </trkpt>
      <trkpt lat="27.835011" lon="86.761184">
        <ele>3781.2</ele>
        <time>2022-10-22T08:27:09.000Z</time>
      </trkpt>
      <trkpt lat="27.835021" lon="86.76121">
        <ele>3781.4</ele>
        <time>2022-10-22T08:27:11.000Z</time>
      </trkpt>
      <trkpt lat="27.835034" lon="86.761229">
        <ele>3782</ele>
        <time>2022-10-22T08:27:13.000Z</time>
      </trkpt>
      <trkpt lat="27.83504" lon="86.761248">
        <ele>3782</ele>
        <time>2022-10-22T08:27:14.000Z</time>
      </trkpt>
      <trkpt lat="27.835056" lon="86.761267">
        <ele>3782</ele>
        <time>2022-10-22T08:27:19.000Z</time>
      </trkpt>
      <trkpt lat="27.835066" lon="86.761286">
        <ele>3782.2</ele>
        <time>2022-10-22T08:27:24.000Z</time>
      </trkpt>
      <trkpt lat="27.835075" lon="86.761306">
        <ele>3783</ele>
        <time>2022-10-22T08:27:29.000Z</time>
      </trkpt>
      <trkpt lat="27.835082" lon="86.761325">
        <ele>3783.6</ele>
        <time>2022-10-22T08:27:33.000Z</time>
      </trkpt>
      <trkpt lat="27.835091" lon="86.761344">
        <ele>3784.6</ele>
        <time>2022-10-22T08:27:37.000Z</time>
      </trkpt>
      <trkpt lat="27.835098" lon="86.761363">
        <ele>3784.6</ele>
        <time>2022-10-22T08:27:40.000Z</time>
      </trkpt>
      <trkpt lat="27.835091" lon="86.761382">
        <ele>3785.4</ele>
        <time>2022-10-22T08:27:47.000Z</time>
      </trkpt>
      <trkpt lat="27.835091" lon="86.761408">
        <ele>3786.2</ele>
        <time>2022-10-22T08:27:54.000Z</time>
      </trkpt>
      <trkpt lat="27.835098" lon="86.761427">
        <ele>3786.8</ele>
        <time>2022-10-22T08:27:58.000Z</time>
      </trkpt>
      <trkpt lat="27.835107" lon="86.761446">
        <ele>3787.2</ele>
        <time>2022-10-22T08:28:02.000Z</time>
      </trkpt>
      <trkpt lat="27.835107" lon="86.761472">
        <ele>3787.6</ele>
        <time>2022-10-22T08:28:09.000Z</time>
      </trkpt>
      <trkpt lat="27.835114" lon="86.761491">
        <ele>3788.6</ele>
        <time>2022-10-22T08:28:13.000Z</time>
      </trkpt>
      <trkpt lat="27.835123" lon="86.76151">
        <ele>3789.2</ele>
        <time>2022-10-22T08:28:18.000Z</time>
      </trkpt>
      <trkpt lat="27.835126" lon="86.761536">
        <ele>3790</ele>
        <time>2022-10-22T08:28:24.000Z</time>
      </trkpt>
      <trkpt lat="27.835123" lon="86.761562">
        <ele>3790.2</ele>
        <time>2022-10-22T08:28:28.000Z</time>
      </trkpt>
      <trkpt lat="27.835117" lon="86.761581">
        <ele>3790.4</ele>
        <time>2022-10-22T08:28:31.000Z</time>
      </trkpt>
      <trkpt lat="27.835101" lon="86.761594">
        <ele>3790.2</ele>
        <time>2022-10-22T08:28:36.000Z</time>
      </trkpt>
      <trkpt lat="27.835107" lon="86.761619">
        <ele>3791</ele>
        <time>2022-10-22T08:28:41.000Z</time>
      </trkpt>
      <trkpt lat="27.835114" lon="86.761645">
        <ele>3792</ele>
        <time>2022-10-22T08:28:49.000Z</time>
      </trkpt>
      <trkpt lat="27.835117" lon="86.76167">
        <ele>3794.4</ele>
        <time>2022-10-22T08:29:05.000Z</time>
      </trkpt>
      <trkpt lat="27.83511" lon="86.76169">
        <ele>3794.6</ele>
        <time>2022-10-22T08:29:09.000Z</time>
      </trkpt>
      <trkpt lat="27.835117" lon="86.761709">
        <ele>3794.8</ele>
        <time>2022-10-22T08:29:11.000Z</time>
      </trkpt>
      <trkpt lat="27.83511" lon="86.761734">
        <ele>3795.6</ele>
        <time>2022-10-22T08:29:15.000Z</time>
      </trkpt>
      <trkpt lat="27.83511" lon="86.76176">
        <ele>3796.2</ele>
        <time>2022-10-22T08:29:20.000Z</time>
      </trkpt>
      <trkpt lat="27.835101" lon="86.761786">
        <ele>3796.6</ele>
        <time>2022-10-22T08:29:23.000Z</time>
      </trkpt>
      <trkpt lat="27.835098" lon="86.761811">
        <ele>3797.2</ele>
        <time>2022-10-22T08:29:27.000Z</time>
      </trkpt>
      <trkpt lat="27.835078" lon="86.761824">
        <ele>3797.4</ele>
        <time>2022-10-22T08:29:32.000Z</time>
      </trkpt>
      <trkpt lat="27.835066" lon="86.761843">
        <ele>3798.2</ele>
        <time>2022-10-22T08:29:35.000Z</time>
      </trkpt>
      <trkpt lat="27.835053" lon="86.761862">
        <ele>3798</ele>
        <time>2022-10-22T08:29:39.000Z</time>
      </trkpt>
      <trkpt lat="27.83504" lon="86.761882">
        <ele>3798.2</ele>
        <time>2022-10-22T08:29:41.000Z</time>
      </trkpt>
      <trkpt lat="27.83503" lon="86.761907">
        <ele>3799</ele>
        <time>2022-10-22T08:29:46.000Z</time>
      </trkpt>
      <trkpt lat="27.835037" lon="86.761933">
        <ele>3799</ele>
        <time>2022-10-22T08:29:47.000Z</time>
      </trkpt>
      <trkpt lat="27.83504" lon="86.761958">
        <ele>3799</ele>
        <time>2022-10-22T08:29:48.000Z</time>
      </trkpt>
      <trkpt lat="27.83504" lon="86.76199">
        <ele>3799.8</ele>
        <time>2022-10-22T08:29:53.000Z</time>
      </trkpt>
      <trkpt lat="27.835011" lon="86.762003">
        <ele>3800.6</ele>
        <time>2022-10-22T08:29:59.000Z</time>
      </trkpt>
      <trkpt lat="27.834992" lon="86.76201">
        <ele>3800.8</ele>
        <time>2022-10-22T08:30:04.000Z</time>
      </trkpt>
      <trkpt lat="27.834986" lon="86.762029">
        <ele>3802.6</ele>
        <time>2022-10-22T08:30:16.000Z</time>
      </trkpt>
      <trkpt lat="27.834979" lon="86.762048">
        <ele>3803.4</ele>
        <time>2022-10-22T08:30:20.000Z</time>
      </trkpt>
      <trkpt lat="27.834989" lon="86.762067">
        <ele>3803.6</ele>
        <time>2022-10-22T08:30:25.000Z</time>
      </trkpt>
      <trkpt lat="27.834992" lon="86.762093">
        <ele>3803.8</ele>
        <time>2022-10-22T08:30:29.000Z</time>
      </trkpt>
      <trkpt lat="27.835002" lon="86.762118">
        <ele>3803.8</ele>
        <time>2022-10-22T08:30:33.000Z</time>
      </trkpt>
      <trkpt lat="27.835018" lon="86.762131">
        <ele>3804.2</ele>
        <time>2022-10-22T08:30:37.000Z</time>
      </trkpt>
      <trkpt lat="27.835024" lon="86.762157">
        <ele>3804.2</ele>
        <time>2022-10-22T08:30:40.000Z</time>
      </trkpt>
      <trkpt lat="27.835027" lon="86.762182">
        <ele>3805</ele>
        <time>2022-10-22T08:30:47.000Z</time>
      </trkpt>
      <trkpt lat="27.835027" lon="86.762208">
        <ele>3805.4</ele>
        <time>2022-10-22T08:30:50.000Z</time>
      </trkpt>
      <trkpt lat="27.83503" lon="86.76224">
        <ele>3806.4</ele>
        <time>2022-10-22T08:30:58.000Z</time>
      </trkpt>
      <trkpt lat="27.835037" lon="86.762259">
        <ele>3806.4</ele>
        <time>2022-10-22T08:31:01.000Z</time>
      </trkpt>
      <trkpt lat="27.83504" lon="86.762285">
        <ele>3807</ele>
        <time>2022-10-22T08:31:05.000Z</time>
      </trkpt>
      <trkpt lat="27.83504" lon="86.762317">
        <ele>3807.4</ele>
        <time>2022-10-22T08:31:10.000Z</time>
      </trkpt>
      <trkpt lat="27.83505" lon="86.762336">
        <ele>3808</ele>
        <time>2022-10-22T08:31:14.000Z</time>
      </trkpt>
      <trkpt lat="27.835062" lon="86.762362">
        <ele>3808.4</ele>
        <time>2022-10-22T08:31:17.000Z</time>
      </trkpt>
      <trkpt lat="27.835078" lon="86.762374">
        <ele>3808.6</ele>
        <time>2022-10-22T08:31:22.000Z</time>
      </trkpt>
      <trkpt lat="27.835088" lon="86.7624">
        <ele>3809.6</ele>
        <time>2022-10-22T08:31:28.000Z</time>
      </trkpt>
      <trkpt lat="27.835091" lon="86.762426">
        <ele>3810.2</ele>
        <time>2022-10-22T08:31:36.000Z</time>
      </trkpt>
      <trkpt lat="27.835094" lon="86.762451">
        <ele>3811.2</ele>
        <time>2022-10-22T08:31:42.000Z</time>
      </trkpt>
      <trkpt lat="27.835107" lon="86.762477">
        <ele>3811.4</ele>
        <time>2022-10-22T08:31:48.000Z</time>
      </trkpt>
      <trkpt lat="27.835101" lon="86.762496">
        <ele>3812.2</ele>
        <time>2022-10-22T08:31:52.000Z</time>
      </trkpt>
      <trkpt lat="27.835094" lon="86.762515">
        <ele>3812.2</ele>
        <time>2022-10-22T08:31:54.000Z</time>
      </trkpt>
      <trkpt lat="27.835078" lon="86.762528">
        <ele>3813.8</ele>
        <time>2022-10-22T08:32:02.000Z</time>
      </trkpt>
      <trkpt lat="27.835085" lon="86.762547">
        <ele>3814</ele>
        <time>2022-10-22T08:32:08.000Z</time>
      </trkpt>
      <trkpt lat="27.835078" lon="86.762573">
        <ele>3814.6</ele>
        <time>2022-10-22T08:32:13.000Z</time>
      </trkpt>
      <trkpt lat="27.835088" lon="86.762598">
        <ele>3815.6</ele>
        <time>2022-10-22T08:32:26.000Z</time>
      </trkpt>
      <trkpt lat="27.835082" lon="86.762618">
        <ele>3815.8</ele>
        <time>2022-10-22T08:32:29.000Z</time>
      </trkpt>
      <trkpt lat="27.835075" lon="86.762637">
        <ele>3816</ele>
        <time>2022-10-22T08:32:32.000Z</time>
      </trkpt>
      <trkpt lat="27.835059" lon="86.76265">
        <ele>3817</ele>
        <time>2022-10-22T08:32:36.000Z</time>
      </trkpt>
      <trkpt lat="27.83505" lon="86.762675">
        <ele>3817.4</ele>
        <time>2022-10-22T08:32:44.000Z</time>
      </trkpt>
      <trkpt lat="27.835021" lon="86.762682">
        <ele>3819.6</ele>
        <time>2022-10-22T08:35:59.000Z</time>
      </trkpt>
      <trkpt lat="27.835008" lon="86.762701">
        <ele>3819.8</ele>
        <time>2022-10-22T08:36:01.000Z</time>
      </trkpt>
      <trkpt lat="27.834998" lon="86.76272">
        <ele>3819.8</ele>
        <time>2022-10-22T08:36:02.000Z</time>
      </trkpt>
      <trkpt lat="27.834986" lon="86.762746">
        <ele>3819.6</ele>
        <time>2022-10-22T08:36:04.000Z</time>
      </trkpt>
      <trkpt lat="27.834973" lon="86.762765">
        <ele>3820.4</ele>
        <time>2022-10-22T08:36:06.000Z</time>
      </trkpt>
      <trkpt lat="27.834979" lon="86.762784">
        <ele>3821.2</ele>
        <time>2022-10-22T08:36:13.000Z</time>
      </trkpt>
      <trkpt lat="27.834998" lon="86.762784">
        <ele>3822</ele>
        <time>2022-10-22T08:36:19.000Z</time>
      </trkpt>
      <trkpt lat="27.835018" lon="86.762784">
        <ele>3822.2</ele>
        <time>2022-10-22T08:36:25.000Z</time>
      </trkpt>
      <trkpt lat="27.835021" lon="86.76281">
        <ele>3823.6</ele>
        <time>2022-10-22T08:36:30.000Z</time>
      </trkpt>
      <trkpt lat="27.835005" lon="86.762822">
        <ele>3824</ele>
        <time>2022-10-22T08:36:35.000Z</time>
      </trkpt>
      <trkpt lat="27.834992" lon="86.762842">
        <ele>3824.6</ele>
        <time>2022-10-22T08:36:39.000Z</time>
      </trkpt>
      <trkpt lat="27.834973" lon="86.762861">
        <ele>3825</ele>
        <time>2022-10-22T08:36:44.000Z</time>
      </trkpt>
      <trkpt lat="27.834957" lon="86.76288">
        <ele>3825.4</ele>
        <time>2022-10-22T08:36:47.000Z</time>
      </trkpt>
      <trkpt lat="27.834941" lon="86.762893">
        <ele>3825.4</ele>
        <time>2022-10-22T08:36:51.000Z</time>
      </trkpt>
      <trkpt lat="27.834934" lon="86.762912">
        <ele>3826.4</ele>
        <time>2022-10-22T08:36:58.000Z</time>
      </trkpt>
      <trkpt lat="27.834941" lon="86.762931">
        <ele>3826.8</ele>
        <time>2022-10-22T08:37:03.000Z</time>
      </trkpt>
      <trkpt lat="27.83496" lon="86.762944">
        <ele>3827.6</ele>
        <time>2022-10-22T08:37:10.000Z</time>
      </trkpt>
      <trkpt lat="27.83497" lon="86.762963">
        <ele>3827.8</ele>
        <time>2022-10-22T08:37:13.000Z</time>
      </trkpt>
      <trkpt lat="27.834986" lon="86.762976">
        <ele>3829.4</ele>
        <time>2022-10-22T08:37:19.000Z</time>
      </trkpt>
      <trkpt lat="27.834992" lon="86.762995">
        <ele>3829.8</ele>
        <time>2022-10-22T08:37:26.000Z</time>
      </trkpt>
      <trkpt lat="27.835002" lon="86.763014">
        <ele>3830.8</ele>
        <time>2022-10-22T08:37:35.000Z</time>
      </trkpt>
      <trkpt lat="27.835002" lon="86.76304">
        <ele>3831.4</ele>
        <time>2022-10-22T08:37:38.000Z</time>
      </trkpt>
      <trkpt lat="27.834995" lon="86.763059">
        <ele>3831.6</ele>
        <time>2022-10-22T08:37:42.000Z</time>
      </trkpt>
      <trkpt lat="27.834998" lon="86.763085">
        <ele>3832</ele>
        <time>2022-10-22T08:37:47.000Z</time>
      </trkpt>
      <trkpt lat="27.835005" lon="86.76311">
        <ele>3832.8</ele>
        <time>2022-10-22T08:37:51.000Z</time>
      </trkpt>
      <trkpt lat="27.835018" lon="86.76313">
        <ele>3833.6</ele>
        <time>2022-10-22T08:37:57.000Z</time>
      </trkpt>
      <trkpt lat="27.835021" lon="86.763162">
        <ele>3833.8</ele>
        <time>2022-10-22T08:38:01.000Z</time>
      </trkpt>
      <trkpt lat="27.835018" lon="86.763194">
        <ele>3834.8</ele>
        <time>2022-10-22T08:38:09.000Z</time>
      </trkpt>
      <trkpt lat="27.835014" lon="86.763219">
        <ele>3836</ele>
        <time>2022-10-22T08:38:17.000Z</time>
      </trkpt>
      <trkpt lat="27.835018" lon="86.763245">
        <ele>3836.8</ele>
        <time>2022-10-22T08:38:22.000Z</time>
      </trkpt>
      <trkpt lat="27.835037" lon="86.763251">
        <ele>3837</ele>
        <time>2022-10-22T08:38:28.000Z</time>
      </trkpt>
      <trkpt lat="27.835059" lon="86.763258">
        <ele>3837.2</ele>
        <time>2022-10-22T08:38:33.000Z</time>
      </trkpt>
      <trkpt lat="27.835078" lon="86.763258">
        <ele>3838.2</ele>
        <time>2022-10-22T08:38:38.000Z</time>
      </trkpt>
      <trkpt lat="27.835094" lon="86.76327">
        <ele>3838.8</ele>
        <time>2022-10-22T08:38:45.000Z</time>
      </trkpt>
      <trkpt lat="27.835114" lon="86.763258">
        <ele>3839.2</ele>
        <time>2022-10-22T08:38:53.000Z</time>
      </trkpt>
      <trkpt lat="27.835126" lon="86.763277">
        <ele>3839.4</ele>
        <time>2022-10-22T08:38:56.000Z</time>
      </trkpt>
      <trkpt lat="27.835142" lon="86.76329">
        <ele>3839.8</ele>
        <time>2022-10-22T08:38:59.000Z</time>
      </trkpt>
      <trkpt lat="27.835155" lon="86.763309">
        <ele>3840.6</ele>
        <time>2022-10-22T08:39:03.000Z</time>
      </trkpt>
      <trkpt lat="27.835178" lon="86.763315">
        <ele>3841.2</ele>
        <time>2022-10-22T08:39:07.000Z</time>
      </trkpt>
      <trkpt lat="27.835184" lon="86.763334">
        <ele>3841.2</ele>
        <time>2022-10-22T08:39:10.000Z</time>
      </trkpt>
      <trkpt lat="27.835187" lon="86.76336">
        <ele>3841.4</ele>
        <time>2022-10-22T08:39:14.000Z</time>
      </trkpt>
      <trkpt lat="27.83519" lon="86.763392">
        <ele>3842.6</ele>
        <time>2022-10-22T08:39:22.000Z</time>
      </trkpt>
      <trkpt lat="27.835197" lon="86.763411">
        <ele>3843</ele>
        <time>2022-10-22T08:39:27.000Z</time>
      </trkpt>
      <trkpt lat="27.835203" lon="86.763437">
        <ele>3844.2</ele>
        <time>2022-10-22T08:39:32.000Z</time>
      </trkpt>
      <trkpt lat="27.835216" lon="86.763456">
        <ele>3844.6</ele>
        <time>2022-10-22T08:39:36.000Z</time>
      </trkpt>
      <trkpt lat="27.83521" lon="86.763475">
        <ele>3845</ele>
        <time>2022-10-22T08:39:49.000Z</time>
      </trkpt>
      <trkpt lat="27.835216" lon="86.763494">
        <ele>3846.8</ele>
        <time>2022-10-22T08:40:27.000Z</time>
      </trkpt>
      <trkpt lat="27.835213" lon="86.763526">
        <ele>3846.4</ele>
        <time>2022-10-22T08:40:29.000Z</time>
      </trkpt>
      <trkpt lat="27.835216" lon="86.763552">
        <ele>3846.4</ele>
        <time>2022-10-22T08:40:31.000Z</time>
      </trkpt>
      <trkpt lat="27.835216" lon="86.76359">
        <ele>3847</ele>
        <time>2022-10-22T08:40:33.000Z</time>
      </trkpt>
      <trkpt lat="27.83521" lon="86.763635">
        <ele>3847.4</ele>
        <time>2022-10-22T08:40:35.000Z</time>
      </trkpt>
      <trkpt lat="27.835216" lon="86.763654">
        <ele>3846.6</ele>
        <time>2022-10-22T08:40:39.000Z</time>
      </trkpt>
      <trkpt lat="27.835226" lon="86.763674">
        <ele>3847.4</ele>
        <time>2022-10-22T08:40:43.000Z</time>
      </trkpt>
      <trkpt lat="27.835235" lon="86.763693">
        <ele>3848.2</ele>
        <time>2022-10-22T08:40:47.000Z</time>
      </trkpt>
      <trkpt lat="27.835248" lon="86.763712">
        <ele>3848.2</ele>
        <time>2022-10-22T08:40:50.000Z</time>
      </trkpt>
      <trkpt lat="27.835251" lon="86.763738">
        <ele>3849</ele>
        <time>2022-10-22T08:40:55.000Z</time>
      </trkpt>
      <trkpt lat="27.835258" lon="86.763757">
        <ele>3849.2</ele>
        <time>2022-10-22T08:40:57.000Z</time>
      </trkpt>
      <trkpt lat="27.835258" lon="86.763789">
        <ele>3849.6</ele>
        <time>2022-10-22T08:41:02.000Z</time>
      </trkpt>
      <trkpt lat="27.835274" lon="86.763808">
        <ele>3850.4</ele>
        <time>2022-10-22T08:41:06.000Z</time>
      </trkpt>
      <trkpt lat="27.835277" lon="86.76384">
        <ele>3850.8</ele>
        <time>2022-10-22T08:41:09.000Z</time>
      </trkpt>
      <trkpt lat="27.835277" lon="86.763866">
        <ele>3851.2</ele>
        <time>2022-10-22T08:41:13.000Z</time>
      </trkpt>
      <trkpt lat="27.835286" lon="86.763885">
        <ele>3851.6</ele>
        <time>2022-10-22T08:41:17.000Z</time>
      </trkpt>
      <trkpt lat="27.835286" lon="86.76391">
        <ele>3852.4</ele>
        <time>2022-10-22T08:41:21.000Z</time>
      </trkpt>
      <trkpt lat="27.835277" lon="86.76393">
        <ele>3852.8</ele>
        <time>2022-10-22T08:41:26.000Z</time>
      </trkpt>
      <trkpt lat="27.83527" lon="86.763949">
        <ele>3853.6</ele>
        <time>2022-10-22T08:41:29.000Z</time>
      </trkpt>
      <trkpt lat="27.835267" lon="86.763974">
        <ele>3854</ele>
        <time>2022-10-22T08:41:33.000Z</time>
      </trkpt>
      <trkpt lat="27.835261" lon="86.763994">
        <ele>3854.6</ele>
        <time>2022-10-22T08:41:36.000Z</time>
      </trkpt>
      <trkpt lat="27.835251" lon="86.764013">
        <ele>3855.2</ele>
        <time>2022-10-22T08:41:40.000Z</time>
      </trkpt>
      <trkpt lat="27.835251" lon="86.764038">
        <ele>3855.2</ele>
        <time>2022-10-22T08:41:43.000Z</time>
      </trkpt>
      <trkpt lat="27.835245" lon="86.764064">
        <ele>3855.6</ele>
        <time>2022-10-22T08:41:48.000Z</time>
      </trkpt>
      <trkpt lat="27.835238" lon="86.76409">
        <ele>3855.6</ele>
        <time>2022-10-22T08:41:51.000Z</time>
      </trkpt>
      <trkpt lat="27.835232" lon="86.764109">
        <ele>3856.2</ele>
        <time>2022-10-22T08:41:55.000Z</time>
      </trkpt>
      <trkpt lat="27.835226" lon="86.764134">
        <ele>3856.4</ele>
        <time>2022-10-22T08:41:59.000Z</time>
      </trkpt>
      <trkpt lat="27.835222" lon="86.76416">
        <ele>3857.2</ele>
        <time>2022-10-22T08:42:02.000Z</time>
      </trkpt>
      <trkpt lat="27.835216" lon="86.764186">
        <ele>3857.2</ele>
        <time>2022-10-22T08:42:06.000Z</time>
      </trkpt>
      <trkpt lat="27.83521" lon="86.764205">
        <ele>3858.4</ele>
        <time>2022-10-22T08:42:09.000Z</time>
      </trkpt>
      <trkpt lat="27.835203" lon="86.764224">
        <ele>3858.4</ele>
        <time>2022-10-22T08:42:12.000Z</time>
      </trkpt>
      <trkpt lat="27.835187" lon="86.764243">
        <ele>3858.6</ele>
        <time>2022-10-22T08:42:15.000Z</time>
      </trkpt>
      <trkpt lat="27.835168" lon="86.764262">
        <ele>3859</ele>
        <time>2022-10-22T08:42:19.000Z</time>
      </trkpt>
      <trkpt lat="27.835152" lon="86.764282">
        <ele>3859.4</ele>
        <time>2022-10-22T08:42:23.000Z</time>
      </trkpt>
      <trkpt lat="27.835139" lon="86.764307">
        <ele>3859.6</ele>
        <time>2022-10-22T08:42:27.000Z</time>
      </trkpt>
      <trkpt lat="27.835158" lon="86.764326">
        <ele>3861</ele>
        <time>2022-10-22T08:42:35.000Z</time>
      </trkpt>
      <trkpt lat="27.835181" lon="86.76432">
        <ele>3861.4</ele>
        <time>2022-10-22T08:42:41.000Z</time>
      </trkpt>
      <trkpt lat="27.835206" lon="86.764294">
        <ele>3862.4</ele>
        <time>2022-10-22T08:43:13.000Z</time>
      </trkpt>
      <trkpt lat="27.835226" lon="86.764282">
        <ele>3862.6</ele>
        <time>2022-10-22T08:43:15.000Z</time>
      </trkpt>
      <trkpt lat="27.835245" lon="86.764269">
        <ele>3863.2</ele>
        <time>2022-10-22T08:43:17.000Z</time>
      </trkpt>
      <trkpt lat="27.83527" lon="86.76425">
        <ele>3863.4</ele>
        <time>2022-10-22T08:43:19.000Z</time>
      </trkpt>
      <trkpt lat="27.83529" lon="86.76423">
        <ele>3863.4</ele>
        <time>2022-10-22T08:43:21.000Z</time>
      </trkpt>
      <trkpt lat="27.835306" lon="86.764211">
        <ele>3863.4</ele>
        <time>2022-10-22T08:43:23.000Z</time>
      </trkpt>
      <trkpt lat="27.835325" lon="86.764198">
        <ele>3863.6</ele>
        <time>2022-10-22T08:43:26.000Z</time>
      </trkpt>
      <trkpt lat="27.835338" lon="86.764173">
        <ele>3863.8</ele>
        <time>2022-10-22T08:43:29.000Z</time>
      </trkpt>
      <trkpt lat="27.835357" lon="86.764166">
        <ele>3864.4</ele>
        <time>2022-10-22T08:43:34.000Z</time>
      </trkpt>
      <trkpt lat="27.835373" lon="86.764147">
        <ele>3864</ele>
        <time>2022-10-22T08:43:37.000Z</time>
      </trkpt>
      <trkpt lat="27.835382" lon="86.764128">
        <ele>3864.6</ele>
        <time>2022-10-22T08:43:39.000Z</time>
      </trkpt>
      <trkpt lat="27.835398" lon="86.764115">
        <ele>3865</ele>
        <time>2022-10-22T08:43:42.000Z</time>
      </trkpt>
      <trkpt lat="27.835408" lon="86.764096">
        <ele>3865</ele>
        <time>2022-10-22T08:43:44.000Z</time>
      </trkpt>
      <trkpt lat="27.835427" lon="86.764083">
        <ele>3865.6</ele>
        <time>2022-10-22T08:43:47.000Z</time>
      </trkpt>
      <trkpt lat="27.83545" lon="86.764077">
        <ele>3865.6</ele>
        <time>2022-10-22T08:43:50.000Z</time>
      </trkpt>
      <trkpt lat="27.835469" lon="86.76407">
        <ele>3866.6</ele>
        <time>2022-10-22T08:43:54.000Z</time>
      </trkpt>
      <trkpt lat="27.835488" lon="86.764051">
        <ele>3867</ele>
        <time>2022-10-22T08:43:58.000Z</time>
      </trkpt>
      <trkpt lat="27.835507" lon="86.764051">
        <ele>3867.4</ele>
        <time>2022-10-22T08:44:03.000Z</time>
      </trkpt>
      <trkpt lat="27.835526" lon="86.764051">
        <ele>3868.4</ele>
        <time>2022-10-22T08:44:07.000Z</time>
      </trkpt>
      <trkpt lat="27.835546" lon="86.764051">
        <ele>3868.6</ele>
        <time>2022-10-22T08:44:12.000Z</time>
      </trkpt>
      <trkpt lat="27.835565" lon="86.764051">
        <ele>3868.4</ele>
        <time>2022-10-22T08:44:17.000Z</time>
      </trkpt>
      <trkpt lat="27.835584" lon="86.764051">
        <ele>3868</ele>
        <time>2022-10-22T08:44:20.000Z</time>
      </trkpt>
      <trkpt lat="27.835613" lon="86.76409">
        <ele>3868.4</ele>
        <time>2022-10-22T08:45:54.000Z</time>
      </trkpt>
      <trkpt lat="27.835619" lon="86.764128">
        <ele>3868.6</ele>
        <time>2022-10-22T08:45:56.000Z</time>
      </trkpt>
      <trkpt lat="27.835626" lon="86.764147">
        <ele>3868.4</ele>
        <time>2022-10-22T08:45:57.000Z</time>
      </trkpt>
      <trkpt lat="27.835635" lon="86.764173">
        <ele>3868.4</ele>
        <time>2022-10-22T08:45:59.000Z</time>
      </trkpt>
      <trkpt lat="27.835638" lon="86.764198">
        <ele>3867.8</ele>
        <time>2022-10-22T08:46:01.000Z</time>
      </trkpt>
      <trkpt lat="27.835642" lon="86.764224">
        <ele>3867.6</ele>
        <time>2022-10-22T08:46:02.000Z</time>
      </trkpt>
      <trkpt lat="27.835648" lon="86.764243">
        <ele>3867.6</ele>
        <time>2022-10-22T08:46:04.000Z</time>
      </trkpt>
      <trkpt lat="27.835654" lon="86.764269">
        <ele>3867.4</ele>
        <time>2022-10-22T08:46:06.000Z</time>
      </trkpt>
      <trkpt lat="27.835654" lon="86.764294">
        <ele>3866.6</ele>
        <time>2022-10-22T08:46:11.000Z</time>
      </trkpt>
      <trkpt lat="27.835648" lon="86.764314">
        <ele>3866.8</ele>
        <time>2022-10-22T08:46:13.000Z</time>
      </trkpt>
      <trkpt lat="27.835654" lon="86.764346">
        <ele>3867.2</ele>
        <time>2022-10-22T08:46:23.000Z</time>
      </trkpt>
      <trkpt lat="27.835658" lon="86.764371">
        <ele>3866.6</ele>
        <time>2022-10-22T08:46:26.000Z</time>
      </trkpt>
      <trkpt lat="27.835664" lon="86.764397">
        <ele>3866.6</ele>
        <time>2022-10-22T08:46:29.000Z</time>
      </trkpt>
      <trkpt lat="27.835674" lon="86.764422">
        <ele>3866.4</ele>
        <time>2022-10-22T08:46:32.000Z</time>
      </trkpt>
      <trkpt lat="27.835667" lon="86.764442">
        <ele>3866.2</ele>
        <time>2022-10-22T08:46:34.000Z</time>
      </trkpt>
      <trkpt lat="27.835664" lon="86.764467">
        <ele>3866.4</ele>
        <time>2022-10-22T08:46:36.000Z</time>
      </trkpt>
      <trkpt lat="27.835674" lon="86.764506">
        <ele>3868.6</ele>
        <time>2022-10-23T02:34:24.000Z</time>
      </trkpt>
      <trkpt lat="27.835693" lon="86.764512">
        <ele>3868.6</ele>
        <time>2022-10-23T02:34:25.000Z</time>
      </trkpt>
      <trkpt lat="27.835712" lon="86.764518">
        <ele>3868.8</ele>
        <time>2022-10-23T02:34:26.000Z</time>
      </trkpt>
      <trkpt lat="27.835747" lon="86.764531">
        <ele>3868.8</ele>
        <time>2022-10-23T02:34:28.000Z</time>
      </trkpt>
      <trkpt lat="27.835766" lon="86.764544">
        <ele>3868.8</ele>
        <time>2022-10-23T02:34:29.000Z</time>
      </trkpt>
      <trkpt lat="27.835786" lon="86.76455">
        <ele>3868.6</ele>
        <time>2022-10-23T02:34:30.000Z</time>
      </trkpt>
      <trkpt lat="27.835805" lon="86.764557">
        <ele>3868.6</ele>
        <time>2022-10-23T02:34:31.000Z</time>
      </trkpt>
      <trkpt lat="27.83583" lon="86.764563">
        <ele>3868.4</ele>
        <time>2022-10-23T02:34:33.000Z</time>
      </trkpt>
      <trkpt lat="27.835853" lon="86.764563">
        <ele>3868.2</ele>
        <time>2022-10-23T02:34:35.000Z</time>
      </trkpt>
      <trkpt lat="27.835872" lon="86.76457">
        <ele>3867.8</ele>
        <time>2022-10-23T02:34:37.000Z</time>
      </trkpt>
      <trkpt lat="27.835888" lon="86.764582">
        <ele>3867.6</ele>
        <time>2022-10-23T02:34:39.000Z</time>
      </trkpt>
      <trkpt lat="27.835907" lon="86.764595">
        <ele>3867.4</ele>
        <time>2022-10-23T02:34:41.000Z</time>
      </trkpt>
      <trkpt lat="27.83593" lon="86.764608">
        <ele>3867</ele>
        <time>2022-10-23T02:34:44.000Z</time>
      </trkpt>
      <trkpt lat="27.835942" lon="86.764627">
        <ele>3867</ele>
        <time>2022-10-23T02:34:46.000Z</time>
      </trkpt>
      <trkpt lat="27.835958" lon="86.764646">
        <ele>3866.4</ele>
        <time>2022-10-23T02:34:49.000Z</time>
      </trkpt>
      <trkpt lat="27.835974" lon="86.764659">
        <ele>3866.2</ele>
        <time>2022-10-23T02:34:51.000Z</time>
      </trkpt>
      <trkpt lat="27.83599" lon="86.764672">
        <ele>3865.6</ele>
        <time>2022-10-23T02:34:53.000Z</time>
      </trkpt>
      <trkpt lat="27.836013" lon="86.764685">
        <ele>3865.4</ele>
        <time>2022-10-23T02:34:56.000Z</time>
      </trkpt>
      <trkpt lat="27.836019" lon="86.764704">
        <ele>3865.2</ele>
        <time>2022-10-23T02:34:57.000Z</time>
      </trkpt>
      <trkpt lat="27.836042" lon="86.764717">
        <ele>3864.8</ele>
        <time>2022-10-23T02:35:00.000Z</time>
      </trkpt>
      <trkpt lat="27.836061" lon="86.764742">
        <ele>3864.2</ele>
        <time>2022-10-23T02:35:03.000Z</time>
      </trkpt>
      <trkpt lat="27.836074" lon="86.764762">
        <ele>3863.8</ele>
        <time>2022-10-23T02:35:05.000Z</time>
      </trkpt>
      <trkpt lat="27.836086" lon="86.764787">
        <ele>3863.8</ele>
        <time>2022-10-23T02:35:07.000Z</time>
      </trkpt>
      <trkpt lat="27.836096" lon="86.764806">
        <ele>3863.4</ele>
        <time>2022-10-23T02:35:09.000Z</time>
      </trkpt>
      <trkpt lat="27.836099" lon="86.764832">
        <ele>3863.2</ele>
        <time>2022-10-23T02:35:11.000Z</time>
      </trkpt>
      <trkpt lat="27.836102" lon="86.764858">
        <ele>3863</ele>
        <time>2022-10-23T02:35:13.000Z</time>
      </trkpt>
      <trkpt lat="27.836112" lon="86.764883">
        <ele>3862.4</ele>
        <time>2022-10-23T02:35:15.000Z</time>
      </trkpt>
      <trkpt lat="27.836115" lon="86.764909">
        <ele>3862.4</ele>
        <time>2022-10-23T02:35:17.000Z</time>
      </trkpt>
      <trkpt lat="27.836125" lon="86.764928">
        <ele>3862.2</ele>
        <time>2022-10-23T02:35:19.000Z</time>
      </trkpt>
      <trkpt lat="27.836131" lon="86.764947">
        <ele>3861.8</ele>
        <time>2022-10-23T02:35:20.000Z</time>
      </trkpt>
      <trkpt lat="27.836141" lon="86.764966">
        <ele>3862</ele>
        <time>2022-10-23T02:35:22.000Z</time>
      </trkpt>
      <trkpt lat="27.836147" lon="86.764992">
        <ele>3861.8</ele>
        <time>2022-10-23T02:35:24.000Z</time>
      </trkpt>
      <trkpt lat="27.836157" lon="86.765018">
        <ele>3861.8</ele>
        <time>2022-10-23T02:35:27.000Z</time>
      </trkpt>
      <trkpt lat="27.83617" lon="86.765037">
        <ele>3861.8</ele>
        <time>2022-10-23T02:35:29.000Z</time>
      </trkpt>
      <trkpt lat="27.836189" lon="86.76505">
        <ele>3861.6</ele>
        <time>2022-10-23T02:35:31.000Z</time>
      </trkpt>
      <trkpt lat="27.836195" lon="86.765069">
        <ele>3861.8</ele>
        <time>2022-10-23T02:35:32.000Z</time>
      </trkpt>
      <trkpt lat="27.836208" lon="86.765088">
        <ele>3861.6</ele>
        <time>2022-10-23T02:35:34.000Z</time>
      </trkpt>
      <trkpt lat="27.836218" lon="86.765114">
        <ele>3861</ele>
        <time>2022-10-23T02:35:36.000Z</time>
      </trkpt>
      <trkpt lat="27.83624" lon="86.765139">
        <ele>3860.6</ele>
        <time>2022-10-23T02:35:39.000Z</time>
      </trkpt>
      <trkpt lat="27.836256" lon="86.765158">
        <ele>3860.6</ele>
        <time>2022-10-23T02:35:43.000Z</time>
      </trkpt>
      <trkpt lat="27.836259" lon="86.765184">
        <ele>3860</ele>
        <time>2022-10-23T02:35:46.000Z</time>
      </trkpt>
      <trkpt lat="27.836269" lon="86.765203">
        <ele>3859.6</ele>
        <time>2022-10-23T02:35:50.000Z</time>
      </trkpt>
      <trkpt lat="27.836278" lon="86.765222">
        <ele>3859.4</ele>
        <time>2022-10-23T02:35:52.000Z</time>
      </trkpt>
      <trkpt lat="27.836288" lon="86.765248">
        <ele>3858.8</ele>
        <time>2022-10-23T02:35:55.000Z</time>
      </trkpt>
      <trkpt lat="27.836298" lon="86.765267">
        <ele>3858.6</ele>
        <time>2022-10-23T02:35:57.000Z</time>
      </trkpt>
      <trkpt lat="27.836301" lon="86.765299">
        <ele>3857.8</ele>
        <time>2022-10-23T02:36:00.000Z</time>
      </trkpt>
      <trkpt lat="27.836307" lon="86.765318">
        <ele>3857.6</ele>
        <time>2022-10-23T02:36:02.000Z</time>
      </trkpt>
      <trkpt lat="27.83631" lon="86.765344">
        <ele>3856.8</ele>
        <time>2022-10-23T02:36:04.000Z</time>
      </trkpt>
      <trkpt lat="27.83632" lon="86.765376">
        <ele>3856.2</ele>
        <time>2022-10-23T02:36:07.000Z</time>
      </trkpt>
      <trkpt lat="27.83633" lon="86.765395">
        <ele>3855.6</ele>
        <time>2022-10-23T02:36:10.000Z</time>
      </trkpt>
      <trkpt lat="27.836333" lon="86.765421">
        <ele>3855.4</ele>
        <time>2022-10-23T02:36:13.000Z</time>
      </trkpt>
      <trkpt lat="27.836333" lon="86.765446">
        <ele>3854.4</ele>
        <time>2022-10-23T02:36:18.000Z</time>
      </trkpt>
      <trkpt lat="27.836342" lon="86.765466">
        <ele>3854.2</ele>
        <time>2022-10-23T02:36:20.000Z</time>
      </trkpt>
      <trkpt lat="27.836358" lon="86.765478">
        <ele>3853.6</ele>
        <time>2022-10-23T02:36:24.000Z</time>
      </trkpt>
      <trkpt lat="27.836378" lon="86.765498">
        <ele>3853</ele>
        <time>2022-10-23T02:36:27.000Z</time>
      </trkpt>
      <trkpt lat="27.836387" lon="86.765517">
        <ele>3852.4</ele>
        <time>2022-10-23T02:36:30.000Z</time>
      </trkpt>
      <trkpt lat="27.83639" lon="86.765542">
        <ele>3852</ele>
        <time>2022-10-23T02:36:32.000Z</time>
      </trkpt>
      <trkpt lat="27.836406" lon="86.765555">
        <ele>3851.2</ele>
        <time>2022-10-23T02:36:36.000Z</time>
      </trkpt>
      <trkpt lat="27.836413" lon="86.765574">
        <ele>3851</ele>
        <time>2022-10-23T02:36:37.000Z</time>
      </trkpt>
      <trkpt lat="27.836435" lon="86.765587">
        <ele>3850.2</ele>
        <time>2022-10-23T02:36:40.000Z</time>
      </trkpt>
      <trkpt lat="27.836448" lon="86.765613">
        <ele>3849.8</ele>
        <time>2022-10-23T02:36:43.000Z</time>
      </trkpt>
      <trkpt lat="27.836467" lon="86.765626">
        <ele>3848.8</ele>
        <time>2022-10-23T02:36:47.000Z</time>
      </trkpt>
      <trkpt lat="27.836483" lon="86.765645">
        <ele>3848.2</ele>
        <time>2022-10-23T02:36:51.000Z</time>
      </trkpt>
      <trkpt lat="27.836502" lon="86.765664">
        <ele>3848</ele>
        <time>2022-10-23T02:36:54.000Z</time>
      </trkpt>
      <trkpt lat="27.836518" lon="86.765683">
        <ele>3847.8</ele>
        <time>2022-10-23T02:36:57.000Z</time>
      </trkpt>
      <trkpt lat="27.836531" lon="86.765702">
        <ele>3847.2</ele>
        <time>2022-10-23T02:37:00.000Z</time>
      </trkpt>
      <trkpt lat="27.836547" lon="86.765722">
        <ele>3847.2</ele>
        <time>2022-10-23T02:37:03.000Z</time>
      </trkpt>
      <trkpt lat="27.83656" lon="86.765741">
        <ele>3847</ele>
        <time>2022-10-23T02:37:06.000Z</time>
      </trkpt>
      <trkpt lat="27.836579" lon="86.765754">
        <ele>3846.8</ele>
        <time>2022-10-23T02:37:09.000Z</time>
      </trkpt>
      <trkpt lat="27.836598" lon="86.76576">
        <ele>3846.6</ele>
        <time>2022-10-23T02:37:12.000Z</time>
      </trkpt>
      <trkpt lat="27.836614" lon="86.765779">
        <ele>3846.6</ele>
        <time>2022-10-23T02:37:15.000Z</time>
      </trkpt>
      <trkpt lat="27.836637" lon="86.765786">
        <ele>3846.2</ele>
        <time>2022-10-23T02:37:18.000Z</time>
      </trkpt>
      <trkpt lat="27.836659" lon="86.765792">
        <ele>3846.2</ele>
        <time>2022-10-23T02:37:21.000Z</time>
      </trkpt>
      <trkpt lat="27.836678" lon="86.765792">
        <ele>3846</ele>
        <time>2022-10-23T02:37:23.000Z</time>
      </trkpt>
      <trkpt lat="27.836701" lon="86.765798">
        <ele>3846</ele>
        <time>2022-10-23T02:37:26.000Z</time>
      </trkpt>
      <trkpt lat="27.836717" lon="86.765811">
        <ele>3845.6</ele>
        <time>2022-10-23T02:37:29.000Z</time>
      </trkpt>
      <trkpt lat="27.836739" lon="86.765811">
        <ele>3845.4</ele>
        <time>2022-10-23T02:37:32.000Z</time>
      </trkpt>
      <trkpt lat="27.836762" lon="86.765818">
        <ele>3844.6</ele>
        <time>2022-10-23T02:37:35.000Z</time>
      </trkpt>
      <trkpt lat="27.836787" lon="86.765824">
        <ele>3844.6</ele>
        <time>2022-10-23T02:37:38.000Z</time>
      </trkpt>
      <trkpt lat="27.836806" lon="86.765824">
        <ele>3844.4</ele>
        <time>2022-10-23T02:37:40.000Z</time>
      </trkpt>
      <trkpt lat="27.836829" lon="86.76583">
        <ele>3844</ele>
        <time>2022-10-23T02:37:43.000Z</time>
      </trkpt>
      <trkpt lat="27.836851" lon="86.765837">
        <ele>3843.8</ele>
        <time>2022-10-23T02:37:46.000Z</time>
      </trkpt>
      <trkpt lat="27.83687" lon="86.765843">
        <ele>3843.6</ele>
        <time>2022-10-23T02:37:48.000Z</time>
      </trkpt>
      <trkpt lat="27.836883" lon="86.765862">
        <ele>3843.6</ele>
        <time>2022-10-23T02:37:49.000Z</time>
      </trkpt>
      <trkpt lat="27.836899" lon="86.765882">
        <ele>3843.4</ele>
        <time>2022-10-23T02:37:51.000Z</time>
      </trkpt>
      <trkpt lat="27.836906" lon="86.765901">
        <ele>3843.4</ele>
        <time>2022-10-23T02:37:52.000Z</time>
      </trkpt>
      <trkpt lat="27.836925" lon="86.765933">
        <ele>3843.4</ele>
        <time>2022-10-23T02:37:55.000Z</time>
      </trkpt>
      <trkpt lat="27.836944" lon="86.765952">
        <ele>3843.4</ele>
        <time>2022-10-23T02:37:59.000Z</time>
      </trkpt>
      <trkpt lat="27.83695" lon="86.765978">
        <ele>3843.4</ele>
        <time>2022-10-23T02:38:01.000Z</time>
      </trkpt>
      <trkpt lat="27.836963" lon="86.765997">
        <ele>3843.2</ele>
        <time>2022-10-23T02:38:03.000Z</time>
      </trkpt>
      <trkpt lat="27.836976" lon="86.766022">
        <ele>3843.2</ele>
        <time>2022-10-23T02:38:05.000Z</time>
      </trkpt>
      <trkpt lat="27.836992" lon="86.766042">
        <ele>3842.8</ele>
        <time>2022-10-23T02:38:08.000Z</time>
      </trkpt>
      <trkpt lat="27.837005" lon="86.766061">
        <ele>3842.4</ele>
        <time>2022-10-23T02:38:10.000Z</time>
      </trkpt>
      <trkpt lat="27.837027" lon="86.76608">
        <ele>3842.6</ele>
        <time>2022-10-23T02:38:13.000Z</time>
      </trkpt>
      <trkpt lat="27.837046" lon="86.766099">
        <ele>3842.8</ele>
        <time>2022-10-23T02:38:15.000Z</time>
      </trkpt>
      <trkpt lat="27.837062" lon="86.766112">
        <ele>3842.8</ele>
        <time>2022-10-23T02:38:18.000Z</time>
      </trkpt>
      <trkpt lat="27.837085" lon="86.766112">
        <ele>3842.8</ele>
        <time>2022-10-23T02:38:21.000Z</time>
      </trkpt>
      <trkpt lat="27.837104" lon="86.766131">
        <ele>3842.8</ele>
        <time>2022-10-23T02:38:23.000Z</time>
      </trkpt>
      <trkpt lat="27.837123" lon="86.766118">
        <ele>3842.6</ele>
        <time>2022-10-23T02:38:26.000Z</time>
      </trkpt>
      <trkpt lat="27.837142" lon="86.766112">
        <ele>3842.6</ele>
        <time>2022-10-23T02:38:28.000Z</time>
      </trkpt>
      <trkpt lat="27.837165" lon="86.766112">
        <ele>3842.4</ele>
        <time>2022-10-23T02:38:31.000Z</time>
      </trkpt>
      <trkpt lat="27.837184" lon="86.766112">
        <ele>3841.6</ele>
        <time>2022-10-23T02:38:34.000Z</time>
      </trkpt>
      <trkpt lat="27.837206" lon="86.766118">
        <ele>3841.4</ele>
        <time>2022-10-23T02:38:37.000Z</time>
      </trkpt>
      <trkpt lat="27.837226" lon="86.766131">
        <ele>3840.6</ele>
        <time>2022-10-23T02:38:41.000Z</time>
      </trkpt>
      <trkpt lat="27.837245" lon="86.766138">
        <ele>3840.2</ele>
        <time>2022-10-23T02:38:44.000Z</time>
      </trkpt>
      <trkpt lat="27.837261" lon="86.76615">
        <ele>3839.4</ele>
        <time>2022-10-23T02:38:47.000Z</time>
      </trkpt>
      <trkpt lat="27.837277" lon="86.76617">
        <ele>3839.2</ele>
        <time>2022-10-23T02:38:50.000Z</time>
      </trkpt>
      <trkpt lat="27.837293" lon="86.766182">
        <ele>3838.6</ele>
        <time>2022-10-23T02:38:53.000Z</time>
      </trkpt>
      <trkpt lat="27.837322" lon="86.766189">
        <ele>3838.4</ele>
        <time>2022-10-23T02:38:56.000Z</time>
      </trkpt>
      <trkpt lat="27.837347" lon="86.766195">
        <ele>3837.8</ele>
        <time>2022-10-23T02:38:59.000Z</time>
      </trkpt>
      <trkpt lat="27.837376" lon="86.766208">
        <ele>3837.2</ele>
        <time>2022-10-23T02:39:02.000Z</time>
      </trkpt>
      <trkpt lat="27.837395" lon="86.766221">
        <ele>3836.4</ele>
        <time>2022-10-23T02:39:05.000Z</time>
      </trkpt>
      <trkpt lat="27.837411" lon="86.766234">
        <ele>3836.2</ele>
        <time>2022-10-23T02:39:08.000Z</time>
      </trkpt>
      <trkpt lat="27.837418" lon="86.766259">
        <ele>3835.8</ele>
        <time>2022-10-23T02:39:10.000Z</time>
      </trkpt>
      <trkpt lat="27.837418" lon="86.766291">
        <ele>3835</ele>
        <time>2022-10-23T02:39:15.000Z</time>
      </trkpt>
      <trkpt lat="27.837421" lon="86.766317">
        <ele>3834</ele>
        <time>2022-10-23T02:39:20.000Z</time>
      </trkpt>
      <trkpt lat="27.837424" lon="86.766342">
        <ele>3833.8</ele>
        <time>2022-10-23T02:39:23.000Z</time>
      </trkpt>
      <trkpt lat="27.837421" lon="86.766368">
        <ele>3833</ele>
        <time>2022-10-23T02:39:26.000Z</time>
      </trkpt>
      <trkpt lat="27.837421" lon="86.766394">
        <ele>3832.8</ele>
        <time>2022-10-23T02:39:29.000Z</time>
      </trkpt>
      <trkpt lat="27.83743" lon="86.766419">
        <ele>3831.8</ele>
        <time>2022-10-23T02:39:31.000Z</time>
      </trkpt>
      <trkpt lat="27.837443" lon="86.766438">
        <ele>3831.8</ele>
        <time>2022-10-23T02:39:34.000Z</time>
      </trkpt>
      <trkpt lat="27.837456" lon="86.766464">
        <ele>3831.2</ele>
        <time>2022-10-23T02:39:36.000Z</time>
      </trkpt>
      <trkpt lat="27.837482" lon="86.766477">
        <ele>3830.6</ele>
        <time>2022-10-23T02:39:38.000Z</time>
      </trkpt>
      <trkpt lat="27.837498" lon="86.766496">
        <ele>3830.4</ele>
        <time>2022-10-23T02:39:40.000Z</time>
      </trkpt>
      <trkpt lat="27.837507" lon="86.766515">
        <ele>3830.2</ele>
        <time>2022-10-23T02:39:42.000Z</time>
      </trkpt>
      <trkpt lat="27.837498" lon="86.766534">
        <ele>3829.6</ele>
        <time>2022-10-23T02:39:45.000Z</time>
      </trkpt>
      <trkpt lat="27.83751" lon="86.766566">
        <ele>3829.2</ele>
        <time>2022-10-23T02:39:49.000Z</time>
      </trkpt>
      <trkpt lat="27.83752" lon="86.766586">
        <ele>3828.4</ele>
        <time>2022-10-23T02:39:51.000Z</time>
      </trkpt>
      <trkpt lat="27.837514" lon="86.766611">
        <ele>3827.6</ele>
        <time>2022-10-23T02:39:55.000Z</time>
      </trkpt>
      <trkpt lat="27.83751" lon="86.766637">
        <ele>3827.4</ele>
        <time>2022-10-23T02:39:59.000Z</time>
      </trkpt>
      <trkpt lat="27.83751" lon="86.766662">
        <ele>3827</ele>
        <time>2022-10-23T02:40:01.000Z</time>
      </trkpt>
      <trkpt lat="27.83751" lon="86.766694">
        <ele>3826.4</ele>
        <time>2022-10-23T02:40:05.000Z</time>
      </trkpt>
      <trkpt lat="27.83752" lon="86.766726">
        <ele>3825.4</ele>
        <time>2022-10-23T02:40:09.000Z</time>
      </trkpt>
      <trkpt lat="27.837539" lon="86.766739">
        <ele>3824.8</ele>
        <time>2022-10-23T02:40:12.000Z</time>
      </trkpt>
      <trkpt lat="27.837552" lon="86.766765">
        <ele>3824.4</ele>
        <time>2022-10-23T02:40:15.000Z</time>
      </trkpt>
      <trkpt lat="27.837558" lon="86.766784">
        <ele>3823.8</ele>
        <time>2022-10-23T02:40:18.000Z</time>
      </trkpt>
      <trkpt lat="27.837558" lon="86.76681">
        <ele>3823.6</ele>
        <time>2022-10-23T02:40:20.000Z</time>
      </trkpt>
      <trkpt lat="27.837565" lon="86.766835">
        <ele>3823</ele>
        <time>2022-10-23T02:40:23.000Z</time>
      </trkpt>
      <trkpt lat="27.837565" lon="86.766861">
        <ele>3822.6</ele>
        <time>2022-10-23T02:40:26.000Z</time>
      </trkpt>
      <trkpt lat="27.837587" lon="86.766874">
        <ele>3820.8</ele>
        <time>2022-10-23T02:40:34.000Z</time>
      </trkpt>
      <trkpt lat="27.83759" lon="86.766899">
        <ele>3820</ele>
        <time>2022-10-23T02:40:38.000Z</time>
      </trkpt>
      <trkpt lat="27.8376" lon="86.766925">
        <ele>3819.4</ele>
        <time>2022-10-23T02:40:42.000Z</time>
      </trkpt>
      <trkpt lat="27.837606" lon="86.766944">
        <ele>3818.6</ele>
        <time>2022-10-23T02:40:45.000Z</time>
      </trkpt>
      <trkpt lat="27.837603" lon="86.76697">
        <ele>3818.2</ele>
        <time>2022-10-23T02:40:48.000Z</time>
      </trkpt>
      <trkpt lat="27.83761" lon="86.766989">
        <ele>3817.4</ele>
        <time>2022-10-23T02:40:52.000Z</time>
      </trkpt>
      <trkpt lat="27.837616" lon="86.767008">
        <ele>3816.6</ele>
        <time>2022-10-23T02:40:54.000Z</time>
      </trkpt>
      <trkpt lat="27.83761" lon="86.767034">
        <ele>3816</ele>
        <time>2022-10-23T02:40:59.000Z</time>
      </trkpt>
      <trkpt lat="27.837603" lon="86.767053">
        <ele>3815.4</ele>
        <time>2022-10-23T02:41:01.000Z</time>
      </trkpt>
      <trkpt lat="27.83761" lon="86.767072">
        <ele>3814.4</ele>
        <time>2022-10-23T02:41:05.000Z</time>
      </trkpt>
      <trkpt lat="27.83761" lon="86.767104">
        <ele>3813.8</ele>
        <time>2022-10-23T02:41:08.000Z</time>
      </trkpt>
      <trkpt lat="27.837616" lon="86.767123">
        <ele>3813.2</ele>
        <time>2022-10-23T02:41:10.000Z</time>
      </trkpt>
      <trkpt lat="27.837619" lon="86.767149">
        <ele>3812.6</ele>
        <time>2022-10-23T02:41:13.000Z</time>
      </trkpt>
      <trkpt lat="27.837638" lon="86.767162">
        <ele>3810.8</ele>
        <time>2022-10-23T02:41:24.000Z</time>
      </trkpt>
      <trkpt lat="27.837638" lon="86.767194">
        <ele>3809.8</ele>
        <time>2022-10-23T02:41:30.000Z</time>
      </trkpt>
      <trkpt lat="27.837651" lon="86.767213">
        <ele>3808.8</ele>
        <time>2022-10-23T02:41:33.000Z</time>
      </trkpt>
      <trkpt lat="27.837661" lon="86.767232">
        <ele>3808.2</ele>
        <time>2022-10-23T02:41:37.000Z</time>
      </trkpt>
      <trkpt lat="27.83767" lon="86.767251">
        <ele>3807.2</ele>
        <time>2022-10-23T02:41:40.000Z</time>
      </trkpt>
      <trkpt lat="27.837683" lon="86.76727">
        <ele>3806.4</ele>
        <time>2022-10-23T02:41:44.000Z</time>
      </trkpt>
      <trkpt lat="27.83769" lon="86.76729">
        <ele>3806</ele>
        <time>2022-10-23T02:41:47.000Z</time>
      </trkpt>
      <trkpt lat="27.837702" lon="86.767309">
        <ele>3805.2</ele>
        <time>2022-10-23T02:41:51.000Z</time>
      </trkpt>
      <trkpt lat="27.837709" lon="86.767334">
        <ele>3804.8</ele>
        <time>2022-10-23T02:41:53.000Z</time>
      </trkpt>
      <trkpt lat="27.837715" lon="86.76736">
        <ele>3804.4</ele>
        <time>2022-10-23T02:41:55.000Z</time>
      </trkpt>
      <trkpt lat="27.837722" lon="86.767392">
        <ele>3803.8</ele>
        <time>2022-10-23T02:41:59.000Z</time>
      </trkpt>
      <trkpt lat="27.837738" lon="86.767405">
        <ele>3803.8</ele>
        <time>2022-10-23T02:42:00.000Z</time>
      </trkpt>
      <trkpt lat="27.83775" lon="86.767424">
        <ele>3803</ele>
        <time>2022-10-23T02:42:04.000Z</time>
      </trkpt>
      <trkpt lat="27.837757" lon="86.767443">
        <ele>3802.8</ele>
        <time>2022-10-23T02:42:06.000Z</time>
      </trkpt>
      <trkpt lat="27.83776" lon="86.767469">
        <ele>3801.6</ele>
        <time>2022-10-23T02:42:10.000Z</time>
      </trkpt>
      <trkpt lat="27.83775" lon="86.767488">
        <ele>3801.2</ele>
        <time>2022-10-23T02:42:12.000Z</time>
      </trkpt>
      <trkpt lat="27.83775" lon="86.767526">
        <ele>3800.6</ele>
        <time>2022-10-23T02:42:16.000Z</time>
      </trkpt>
      <trkpt lat="27.837747" lon="86.767558">
        <ele>3799.8</ele>
        <time>2022-10-23T02:42:21.000Z</time>
      </trkpt>
      <trkpt lat="27.837754" lon="86.767578">
        <ele>3799.4</ele>
        <time>2022-10-23T02:42:24.000Z</time>
      </trkpt>
      <trkpt lat="27.83776" lon="86.767603">
        <ele>3798.8</ele>
        <time>2022-10-23T02:42:26.000Z</time>
      </trkpt>
      <trkpt lat="27.83775" lon="86.767622">
        <ele>3798.4</ele>
        <time>2022-10-23T02:42:29.000Z</time>
      </trkpt>
      <trkpt lat="27.83776" lon="86.767648">
        <ele>3798.2</ele>
        <time>2022-10-23T02:42:31.000Z</time>
      </trkpt>
      <trkpt lat="27.837754" lon="86.767667">
        <ele>3797.8</ele>
        <time>2022-10-23T02:42:33.000Z</time>
      </trkpt>
      <trkpt lat="27.837741" lon="86.767686">
        <ele>3797.4</ele>
        <time>2022-10-23T02:42:35.000Z</time>
      </trkpt>
      <trkpt lat="27.837728" lon="86.767706">
        <ele>3797.2</ele>
        <time>2022-10-23T02:42:38.000Z</time>
      </trkpt>
      <trkpt lat="27.837712" lon="86.767718">
        <ele>3796.6</ele>
        <time>2022-10-23T02:42:40.000Z</time>
      </trkpt>
      <trkpt lat="27.837706" lon="86.767738">
        <ele>3796.4</ele>
        <time>2022-10-23T02:42:42.000Z</time>
      </trkpt>
      <trkpt lat="27.837693" lon="86.767757">
        <ele>3796.2</ele>
        <time>2022-10-23T02:42:44.000Z</time>
      </trkpt>
      <trkpt lat="27.837683" lon="86.767776">
        <ele>3795.6</ele>
        <time>2022-10-23T02:42:48.000Z</time>
      </trkpt>
      <trkpt lat="27.83768" lon="86.767802">
        <ele>3795</ele>
        <time>2022-10-23T02:42:51.000Z</time>
      </trkpt>
      <trkpt lat="27.837674" lon="86.767821">
        <ele>3794</ele>
        <time>2022-10-23T02:42:55.000Z</time>
      </trkpt>
      <trkpt lat="27.837674" lon="86.767846">
        <ele>3793.2</ele>
        <time>2022-10-23T02:42:58.000Z</time>
      </trkpt>
      <trkpt lat="27.837683" lon="86.767878">
        <ele>3793</ele>
        <time>2022-10-23T02:43:01.000Z</time>
      </trkpt>
      <trkpt lat="27.837693" lon="86.767898">
        <ele>3792.8</ele>
        <time>2022-10-23T02:43:04.000Z</time>
      </trkpt>
      <trkpt lat="27.837699" lon="86.767917">
        <ele>3792.2</ele>
        <time>2022-10-23T02:43:06.000Z</time>
      </trkpt>
      <trkpt lat="27.837693" lon="86.767936">
        <ele>3792.6</ele>
        <time>2022-10-23T02:43:10.000Z</time>
      </trkpt>
      <trkpt lat="27.837683" lon="86.767968">
        <ele>3791.2</ele>
        <time>2022-10-23T02:43:14.000Z</time>
      </trkpt>
      <trkpt lat="27.83768" lon="86.768006">
        <ele>3790</ele>
        <time>2022-10-23T02:43:18.000Z</time>
      </trkpt>
      <trkpt lat="27.837664" lon="86.768038">
        <ele>3789.6</ele>
        <time>2022-10-23T02:43:21.000Z</time>
      </trkpt>
      <trkpt lat="27.837654" lon="86.768058">
        <ele>3789.4</ele>
        <time>2022-10-23T02:43:25.000Z</time>
      </trkpt>
      <trkpt lat="27.837661" lon="86.768077">
        <ele>3788.6</ele>
        <time>2022-10-23T02:43:28.000Z</time>
      </trkpt>
      <trkpt lat="27.837664" lon="86.768102">
        <ele>3788.6</ele>
        <time>2022-10-23T02:43:30.000Z</time>
      </trkpt>
      <trkpt lat="27.837658" lon="86.768134">
        <ele>3788.2</ele>
        <time>2022-10-23T02:43:33.000Z</time>
      </trkpt>
      <trkpt lat="27.837651" lon="86.768166">
        <ele>3787.6</ele>
        <time>2022-10-23T02:43:45.000Z</time>
      </trkpt>
      <trkpt lat="27.837651" lon="86.768198">
        <ele>3786.8</ele>
        <time>2022-10-23T02:43:48.000Z</time>
      </trkpt>
      <trkpt lat="27.837645" lon="86.768218">
        <ele>3786.4</ele>
        <time>2022-10-23T02:43:50.000Z</time>
      </trkpt>
      <trkpt lat="27.837635" lon="86.768237">
        <ele>3785.4</ele>
        <time>2022-10-23T02:43:54.000Z</time>
      </trkpt>
      <trkpt lat="27.837638" lon="86.768275">
        <ele>3785.2</ele>
        <time>2022-10-23T02:43:57.000Z</time>
      </trkpt>
      <trkpt lat="27.837645" lon="86.768294">
        <ele>3784</ele>
        <time>2022-10-23T02:44:02.000Z</time>
      </trkpt>
      <trkpt lat="27.837667" lon="86.768314">
        <ele>3783.2</ele>
        <time>2022-10-23T02:44:06.000Z</time>
      </trkpt>
      <trkpt lat="27.83768" lon="86.768333">
        <ele>3782.6</ele>
        <time>2022-10-23T02:44:11.000Z</time>
      </trkpt>
      <trkpt lat="27.83768" lon="86.768358">
        <ele>3781.8</ele>
        <time>2022-10-23T02:44:14.000Z</time>
      </trkpt>
      <trkpt lat="27.83769" lon="86.768378">
        <ele>3781.2</ele>
        <time>2022-10-23T02:44:16.000Z</time>
      </trkpt>
      <trkpt lat="27.837693" lon="86.768403">
        <ele>3781</ele>
        <time>2022-10-23T02:44:19.000Z</time>
      </trkpt>
      <trkpt lat="27.837702" lon="86.768435">
        <ele>3780.4</ele>
        <time>2022-10-23T02:44:23.000Z</time>
      </trkpt>
      <trkpt lat="27.837722" lon="86.768442">
        <ele>3779.8</ele>
        <time>2022-10-23T02:44:26.000Z</time>
      </trkpt>
      <trkpt lat="27.837734" lon="86.768461">
        <ele>3779.4</ele>
        <time>2022-10-23T02:44:29.000Z</time>
      </trkpt>
      <trkpt lat="27.837747" lon="86.76848">
        <ele>3778.8</ele>
        <time>2022-10-23T02:44:32.000Z</time>
      </trkpt>
      <trkpt lat="27.83777" lon="86.768499">
        <ele>3778.6</ele>
        <time>2022-10-23T02:44:35.000Z</time>
      </trkpt>
      <trkpt lat="27.837786" lon="86.768518">
        <ele>3778.6</ele>
        <time>2022-10-23T02:44:37.000Z</time>
      </trkpt>
      <trkpt lat="27.837808" lon="86.768531">
        <ele>3777.6</ele>
        <time>2022-10-23T02:44:40.000Z</time>
      </trkpt>
      <trkpt lat="27.837824" lon="86.768544">
        <ele>3777.4</ele>
        <time>2022-10-23T02:44:43.000Z</time>
      </trkpt>
      <trkpt lat="27.83784" lon="86.768557">
        <ele>3777.4</ele>
        <time>2022-10-23T02:44:46.000Z</time>
      </trkpt>
      <trkpt lat="27.837866" lon="86.768563">
        <ele>3777</ele>
        <time>2022-10-23T02:44:50.000Z</time>
      </trkpt>
      <trkpt lat="27.837888" lon="86.768563">
        <ele>3776.6</ele>
        <time>2022-10-23T02:44:53.000Z</time>
      </trkpt>
      <trkpt lat="27.83791" lon="86.768576">
        <ele>3776.2</ele>
        <time>2022-10-23T02:44:56.000Z</time>
      </trkpt>
      <trkpt lat="27.83793" lon="86.76857">
        <ele>3775.6</ele>
        <time>2022-10-23T02:44:58.000Z</time>
      </trkpt>
      <trkpt lat="27.837978" lon="86.768563">
        <ele>3775.2</ele>
        <time>2022-10-23T02:45:04.000Z</time>
      </trkpt>
      <trkpt lat="27.837997" lon="86.768557">
        <ele>3774.8</ele>
        <time>2022-10-23T02:45:07.000Z</time>
      </trkpt>
      <trkpt lat="27.838016" lon="86.768563">
        <ele>3774.8</ele>
        <time>2022-10-23T02:45:09.000Z</time>
      </trkpt>
      <trkpt lat="27.838038" lon="86.768563">
        <ele>3774.8</ele>
        <time>2022-10-23T02:45:11.000Z</time>
      </trkpt>
      <trkpt lat="27.838058" lon="86.76857">
        <ele>3774.4</ele>
        <time>2022-10-23T02:45:13.000Z</time>
      </trkpt>
      <trkpt lat="27.838077" lon="86.76857">
        <ele>3774.2</ele>
        <time>2022-10-23T02:45:15.000Z</time>
      </trkpt>
      <trkpt lat="27.838096" lon="86.768582">
        <ele>3774.2</ele>
        <time>2022-10-23T02:45:17.000Z</time>
      </trkpt>
      <trkpt lat="27.838109" lon="86.768602">
        <ele>3774.2</ele>
        <time>2022-10-23T02:45:19.000Z</time>
      </trkpt>
      <trkpt lat="27.838131" lon="86.768602">
        <ele>3774.2</ele>
        <time>2022-10-23T02:45:21.000Z</time>
      </trkpt>
      <trkpt lat="27.83815" lon="86.768608">
        <ele>3773.8</ele>
        <time>2022-10-23T02:45:23.000Z</time>
      </trkpt>
      <trkpt lat="27.83817" lon="86.768621">
        <ele>3773.6</ele>
        <time>2022-10-23T02:45:25.000Z</time>
      </trkpt>
      <trkpt lat="27.838192" lon="86.768634">
        <ele>3773.2</ele>
        <time>2022-10-23T02:45:27.000Z</time>
      </trkpt>
      <trkpt lat="27.838214" lon="86.768646">
        <ele>3773.6</ele>
        <time>2022-10-23T02:45:29.000Z</time>
      </trkpt>
      <trkpt lat="27.83824" lon="86.768653">
        <ele>3773</ele>
        <time>2022-10-23T02:45:31.000Z</time>
      </trkpt>
      <trkpt lat="27.838262" lon="86.768678">
        <ele>3772.8</ele>
        <time>2022-10-23T02:45:33.000Z</time>
      </trkpt>
      <trkpt lat="27.838294" lon="86.768691">
        <ele>3773</ele>
        <time>2022-10-23T02:45:35.000Z</time>
      </trkpt>
      <trkpt lat="27.838304" lon="86.768717">
        <ele>3772.6</ele>
        <time>2022-10-23T02:45:37.000Z</time>
      </trkpt>
      <trkpt lat="27.838317" lon="86.768736">
        <ele>3772.2</ele>
        <time>2022-10-23T02:45:39.000Z</time>
      </trkpt>
      <trkpt lat="27.83833" lon="86.768755">
        <ele>3771.8</ele>
        <time>2022-10-23T02:45:41.000Z</time>
      </trkpt>
      <trkpt lat="27.838349" lon="86.768768">
        <ele>3771.6</ele>
        <time>2022-10-23T02:45:43.000Z</time>
      </trkpt>
      <trkpt lat="27.838368" lon="86.768774">
        <ele>3771</ele>
        <time>2022-10-23T02:45:46.000Z</time>
      </trkpt>
      <trkpt lat="27.838374" lon="86.768794">
        <ele>3770.8</ele>
        <time>2022-10-23T02:45:48.000Z</time>
      </trkpt>
      <trkpt lat="27.838394" lon="86.7688">
        <ele>3770.4</ele>
        <time>2022-10-23T02:45:50.000Z</time>
      </trkpt>
      <trkpt lat="27.838416" lon="86.768806">
        <ele>3770</ele>
        <time>2022-10-23T02:45:53.000Z</time>
      </trkpt>
      <trkpt lat="27.838435" lon="86.768819">
        <ele>3769.6</ele>
        <time>2022-10-23T02:45:55.000Z</time>
      </trkpt>
      <trkpt lat="27.838458" lon="86.768819">
        <ele>3769.4</ele>
        <time>2022-10-23T02:45:57.000Z</time>
      </trkpt>
      <trkpt lat="27.838474" lon="86.768838">
        <ele>3768.4</ele>
        <time>2022-10-23T02:46:00.000Z</time>
      </trkpt>
      <trkpt lat="27.838496" lon="86.768838">
        <ele>3768</ele>
        <time>2022-10-23T02:46:03.000Z</time>
      </trkpt>
      <trkpt lat="27.838522" lon="86.768838">
        <ele>3767.6</ele>
        <time>2022-10-23T02:46:06.000Z</time>
      </trkpt>
      <trkpt lat="27.838544" lon="86.768838">
        <ele>3767.2</ele>
        <time>2022-10-23T02:46:12.000Z</time>
      </trkpt>
      <trkpt lat="27.838566" lon="86.768838">
        <ele>3766.6</ele>
        <time>2022-10-23T02:46:15.000Z</time>
      </trkpt>
      <trkpt lat="27.838589" lon="86.768845">
        <ele>3766</ele>
        <time>2022-10-23T02:46:17.000Z</time>
      </trkpt>
      <trkpt lat="27.838611" lon="86.768845">
        <ele>3765.4</ele>
        <time>2022-10-23T02:46:20.000Z</time>
      </trkpt>
      <trkpt lat="27.838634" lon="86.768851">
        <ele>3764.8</ele>
        <time>2022-10-23T02:46:22.000Z</time>
      </trkpt>
      <trkpt lat="27.838653" lon="86.768858">
        <ele>3764.6</ele>
        <time>2022-10-23T02:46:24.000Z</time>
      </trkpt>
      <trkpt lat="27.838662" lon="86.768877">
        <ele>3764.6</ele>
        <time>2022-10-23T02:46:25.000Z</time>
      </trkpt>
      <trkpt lat="27.838685" lon="86.768896">
        <ele>3763.8</ele>
        <time>2022-10-23T02:46:28.000Z</time>
      </trkpt>
      <trkpt lat="27.838694" lon="86.768915">
        <ele>3763.6</ele>
        <time>2022-10-23T02:46:30.000Z</time>
      </trkpt>
      <trkpt lat="27.838691" lon="86.768941">
        <ele>3763.2</ele>
        <time>2022-10-23T02:46:33.000Z</time>
      </trkpt>
      <trkpt lat="27.838691" lon="86.768966">
        <ele>3762.6</ele>
        <time>2022-10-23T02:46:35.000Z</time>
      </trkpt>
      <trkpt lat="27.838694" lon="86.768992">
        <ele>3762.6</ele>
        <time>2022-10-23T02:46:37.000Z</time>
      </trkpt>
      <trkpt lat="27.838701" lon="86.769011">
        <ele>3761.8</ele>
        <time>2022-10-23T02:46:40.000Z</time>
      </trkpt>
      <trkpt lat="27.838704" lon="86.769037">
        <ele>3760.8</ele>
        <time>2022-10-23T02:46:43.000Z</time>
      </trkpt>
      <trkpt lat="27.838723" lon="86.769056">
        <ele>3760.2</ele>
        <time>2022-10-23T02:46:47.000Z</time>
      </trkpt>
      <trkpt lat="27.838736" lon="86.769075">
        <ele>3759.8</ele>
        <time>2022-10-23T02:46:49.000Z</time>
      </trkpt>
      <trkpt lat="27.838752" lon="86.769088">
        <ele>3759.4</ele>
        <time>2022-10-23T02:46:52.000Z</time>
      </trkpt>
      <trkpt lat="27.838765" lon="86.769107">
        <ele>3759</ele>
        <time>2022-10-23T02:46:54.000Z</time>
      </trkpt>
      <trkpt lat="27.838771" lon="86.769126">
        <ele>3758.2</ele>
        <time>2022-10-23T02:46:58.000Z</time>
      </trkpt>
      <trkpt lat="27.838778" lon="86.769152">
        <ele>3757.2</ele>
        <time>2022-10-23T02:47:01.000Z</time>
      </trkpt>
      <trkpt lat="27.838778" lon="86.769178">
        <ele>3756.8</ele>
        <time>2022-10-23T02:47:04.000Z</time>
      </trkpt>
      <trkpt lat="27.838781" lon="86.769203">
        <ele>3756</ele>
        <time>2022-10-23T02:47:06.000Z</time>
      </trkpt>
      <trkpt lat="27.83879" lon="86.769235">
        <ele>3755.6</ele>
        <time>2022-10-23T02:47:09.000Z</time>
      </trkpt>
      <trkpt lat="27.838784" lon="86.769254">
        <ele>3755.2</ele>
        <time>2022-10-23T02:47:12.000Z</time>
      </trkpt>
      <trkpt lat="27.838778" lon="86.76928">
        <ele>3754.8</ele>
        <time>2022-10-23T02:47:14.000Z</time>
      </trkpt>
      <trkpt lat="27.838765" lon="86.769299">
        <ele>3754</ele>
        <time>2022-10-23T02:47:17.000Z</time>
      </trkpt>
      <trkpt lat="27.838752" lon="86.769325">
        <ele>3753.2</ele>
        <time>2022-10-23T02:47:19.000Z</time>
      </trkpt>
      <trkpt lat="27.838736" lon="86.76935">
        <ele>3752.6</ele>
        <time>2022-10-23T02:47:22.000Z</time>
      </trkpt>
      <trkpt lat="27.838736" lon="86.769376">
        <ele>3751.6</ele>
        <time>2022-10-23T02:47:26.000Z</time>
      </trkpt>
      <trkpt lat="27.838736" lon="86.769402">
        <ele>3750.8</ele>
        <time>2022-10-23T02:47:29.000Z</time>
      </trkpt>
      <trkpt lat="27.838733" lon="86.769427">
        <ele>3750.4</ele>
        <time>2022-10-23T02:47:31.000Z</time>
      </trkpt>
      <trkpt lat="27.838733" lon="86.769453">
        <ele>3749.6</ele>
        <time>2022-10-23T02:47:35.000Z</time>
      </trkpt>
      <trkpt lat="27.838726" lon="86.769478">
        <ele>3749.2</ele>
        <time>2022-10-23T02:47:37.000Z</time>
      </trkpt>
      <trkpt lat="27.838726" lon="86.76951">
        <ele>3748</ele>
        <time>2022-10-23T02:47:41.000Z</time>
      </trkpt>
      <trkpt lat="27.838736" lon="86.769536">
        <ele>3747.4</ele>
        <time>2022-10-23T02:47:43.000Z</time>
      </trkpt>
      <trkpt lat="27.838752" lon="86.769555">
        <ele>3747.2</ele>
        <time>2022-10-23T02:47:45.000Z</time>
      </trkpt>
      <trkpt lat="27.838768" lon="86.769574">
        <ele>3747</ele>
        <time>2022-10-23T02:47:47.000Z</time>
      </trkpt>
      <trkpt lat="27.838784" lon="86.769594">
        <ele>3746.4</ele>
        <time>2022-10-23T02:47:49.000Z</time>
      </trkpt>
      <trkpt lat="27.838803" lon="86.769606">
        <ele>3746.2</ele>
        <time>2022-10-23T02:47:51.000Z</time>
      </trkpt>
      <trkpt lat="27.838816" lon="86.769632">
        <ele>3746.4</ele>
        <time>2022-10-23T02:47:53.000Z</time>
      </trkpt>
      <trkpt lat="27.838838" lon="86.769651">
        <ele>3746</ele>
        <time>2022-10-23T02:47:56.000Z</time>
      </trkpt>
      <trkpt lat="27.838851" lon="86.76967">
        <ele>3746</ele>
        <time>2022-10-23T02:47:58.000Z</time>
      </trkpt>
      <trkpt lat="27.838874" lon="86.769677">
        <ele>3745.8</ele>
        <time>2022-10-23T02:48:01.000Z</time>
      </trkpt>
      <trkpt lat="27.838893" lon="86.76967">
        <ele>3745.8</ele>
        <time>2022-10-23T02:48:03.000Z</time>
      </trkpt>
      <trkpt lat="27.838915" lon="86.76967">
        <ele>3745.8</ele>
        <time>2022-10-23T02:48:06.000Z</time>
      </trkpt>
      <trkpt lat="27.838934" lon="86.76969">
        <ele>3745.4</ele>
        <time>2022-10-23T02:48:09.000Z</time>
      </trkpt>
      <trkpt lat="27.83895" lon="86.769709">
        <ele>3745.4</ele>
        <time>2022-10-23T02:48:11.000Z</time>
      </trkpt>
      <trkpt lat="27.83897" lon="86.769728">
        <ele>3744.8</ele>
        <time>2022-10-23T02:48:14.000Z</time>
      </trkpt>
      <trkpt lat="27.838986" lon="86.769747">
        <ele>3744.6</ele>
        <time>2022-10-23T02:48:16.000Z</time>
      </trkpt>
      <trkpt lat="27.838992" lon="86.769773">
        <ele>3744.2</ele>
        <time>2022-10-23T02:48:18.000Z</time>
      </trkpt>
      <trkpt lat="27.839005" lon="86.769798">
        <ele>3744</ele>
        <time>2022-10-23T02:48:20.000Z</time>
      </trkpt>
      <trkpt lat="27.839021" lon="86.76983">
        <ele>3743.8</ele>
        <time>2022-10-23T02:48:23.000Z</time>
      </trkpt>
      <trkpt lat="27.83904" lon="86.76985">
        <ele>3743.8</ele>
        <time>2022-10-23T02:48:25.000Z</time>
      </trkpt>
      <trkpt lat="27.839043" lon="86.769875">
        <ele>3743.6</ele>
        <time>2022-10-23T02:48:27.000Z</time>
      </trkpt>
      <trkpt lat="27.83905" lon="86.769894">
        <ele>3743.6</ele>
        <time>2022-10-23T02:48:29.000Z</time>
      </trkpt>
      <trkpt lat="27.839053" lon="86.76992">
        <ele>3743.8</ele>
        <time>2022-10-23T02:48:31.000Z</time>
      </trkpt>
      <trkpt lat="27.839059" lon="86.769946">
        <ele>3743.4</ele>
        <time>2022-10-23T02:48:33.000Z</time>
      </trkpt>
      <trkpt lat="27.839075" lon="86.769958">
        <ele>3743</ele>
        <time>2022-10-23T02:48:35.000Z</time>
      </trkpt>
      <trkpt lat="27.839088" lon="86.769984">
        <ele>3742.8</ele>
        <time>2022-10-23T02:48:37.000Z</time>
      </trkpt>
      <trkpt lat="27.83911" lon="86.770003">
        <ele>3742.6</ele>
        <time>2022-10-23T02:48:40.000Z</time>
      </trkpt>
      <trkpt lat="27.83912" lon="86.770022">
        <ele>3742.6</ele>
        <time>2022-10-23T02:48:42.000Z</time>
      </trkpt>
      <trkpt lat="27.839123" lon="86.770061">
        <ele>3742.4</ele>
        <time>2022-10-23T02:48:45.000Z</time>
      </trkpt>
      <trkpt lat="27.839133" lon="86.770086">
        <ele>3741.4</ele>
        <time>2022-10-23T02:48:48.000Z</time>
      </trkpt>
      <trkpt lat="27.839139" lon="86.770106">
        <ele>3740.8</ele>
        <time>2022-10-23T02:48:50.000Z</time>
      </trkpt>
      <trkpt lat="27.839146" lon="86.770125">
        <ele>3740.4</ele>
        <time>2022-10-23T02:48:53.000Z</time>
      </trkpt>
      <trkpt lat="27.839162" lon="86.770144">
        <ele>3740</ele>
        <time>2022-10-23T02:48:55.000Z</time>
      </trkpt>
      <trkpt lat="27.839178" lon="86.770157">
        <ele>3740</ele>
        <time>2022-10-23T02:48:57.000Z</time>
      </trkpt>
      <trkpt lat="27.839194" lon="86.770182">
        <ele>3739.6</ele>
        <time>2022-10-23T02:49:00.000Z</time>
      </trkpt>
      <trkpt lat="27.839213" lon="86.770202">
        <ele>3739.6</ele>
        <time>2022-10-23T02:49:04.000Z</time>
      </trkpt>
      <trkpt lat="27.839229" lon="86.770221">
        <ele>3739.6</ele>
        <time>2022-10-23T02:49:06.000Z</time>
      </trkpt>
      <trkpt lat="27.839254" lon="86.770227">
        <ele>3739.6</ele>
        <time>2022-10-23T02:49:08.000Z</time>
      </trkpt>
      <trkpt lat="27.83928" lon="86.770227">
        <ele>3739.6</ele>
        <time>2022-10-23T02:49:11.000Z</time>
      </trkpt>
      <trkpt lat="27.839299" lon="86.770234">
        <ele>3739.6</ele>
        <time>2022-10-23T02:49:16.000Z</time>
      </trkpt>
      <trkpt lat="27.839322" lon="86.770259">
        <ele>3739.6</ele>
        <time>2022-10-23T02:49:58.000Z</time>
      </trkpt>
      <trkpt lat="27.839331" lon="86.770285">
        <ele>3739.4</ele>
        <time>2022-10-23T02:50:00.000Z</time>
      </trkpt>
      <trkpt lat="27.839341" lon="86.77031">
        <ele>3739.4</ele>
        <time>2022-10-23T02:50:02.000Z</time>
      </trkpt>
      <trkpt lat="27.839354" lon="86.77033">
        <ele>3739.2</ele>
        <time>2022-10-23T02:50:04.000Z</time>
      </trkpt>
      <trkpt lat="27.83936" lon="86.770349">
        <ele>3739.2</ele>
        <time>2022-10-23T02:50:05.000Z</time>
      </trkpt>
      <trkpt lat="27.839376" lon="86.770381">
        <ele>3739.2</ele>
        <time>2022-10-23T02:50:07.000Z</time>
      </trkpt>
      <trkpt lat="27.839389" lon="86.7704">
        <ele>3739.2</ele>
        <time>2022-10-23T02:50:09.000Z</time>
      </trkpt>
      <trkpt lat="27.839398" lon="86.770426">
        <ele>3738.8</ele>
        <time>2022-10-23T02:50:11.000Z</time>
      </trkpt>
      <trkpt lat="27.839421" lon="86.770445">
        <ele>3739.2</ele>
        <time>2022-10-23T02:50:14.000Z</time>
      </trkpt>
      <trkpt lat="27.83943" lon="86.770464">
        <ele>3739.2</ele>
        <time>2022-10-23T02:50:15.000Z</time>
      </trkpt>
      <trkpt lat="27.839437" lon="86.770483">
        <ele>3738.8</ele>
        <time>2022-10-23T02:50:17.000Z</time>
      </trkpt>
      <trkpt lat="27.83944" lon="86.770515">
        <ele>3738.8</ele>
        <time>2022-10-23T02:50:19.000Z</time>
      </trkpt>
      <trkpt lat="27.839446" lon="86.770541">
        <ele>3738.6</ele>
        <time>2022-10-23T02:50:21.000Z</time>
      </trkpt>
      <trkpt lat="27.839459" lon="86.77056">
        <ele>3738.6</ele>
        <time>2022-10-23T02:50:23.000Z</time>
      </trkpt>
      <trkpt lat="27.839456" lon="86.770592">
        <ele>3738.6</ele>
        <time>2022-10-23T02:50:25.000Z</time>
      </trkpt>
      <trkpt lat="27.839459" lon="86.770618">
        <ele>3738.4</ele>
        <time>2022-10-23T02:50:27.000Z</time>
      </trkpt>
      <trkpt lat="27.839466" lon="86.770637">
        <ele>3738.2</ele>
        <time>2022-10-23T02:50:29.000Z</time>
      </trkpt>
      <trkpt lat="27.839466" lon="86.770662">
        <ele>3738.2</ele>
        <time>2022-10-23T02:50:31.000Z</time>
      </trkpt>
      <trkpt lat="27.839466" lon="86.770688">
        <ele>3738.2</ele>
        <time>2022-10-23T02:50:33.000Z</time>
      </trkpt>
      <trkpt lat="27.839466" lon="86.770714">
        <ele>3737.6</ele>
        <time>2022-10-23T02:50:35.000Z</time>
      </trkpt>
      <trkpt lat="27.839466" lon="86.770746">
        <ele>3737.6</ele>
        <time>2022-10-23T02:50:37.000Z</time>
      </trkpt>
      <trkpt lat="27.839466" lon="86.770778">
        <ele>3737.4</ele>
        <time>2022-10-23T02:50:40.000Z</time>
      </trkpt>
      <trkpt lat="27.839469" lon="86.770803">
        <ele>3737.4</ele>
        <time>2022-10-23T02:50:42.000Z</time>
      </trkpt>
      <trkpt lat="27.839475" lon="86.770829">
        <ele>3737.6</ele>
        <time>2022-10-23T02:50:44.000Z</time>
      </trkpt>
      <trkpt lat="27.839478" lon="86.770867">
        <ele>3737.2</ele>
        <time>2022-10-23T02:50:47.000Z</time>
      </trkpt>
      <trkpt lat="27.839478" lon="86.770899">
        <ele>3737.4</ele>
        <time>2022-10-23T02:50:50.000Z</time>
      </trkpt>
      <trkpt lat="27.839478" lon="86.770938">
        <ele>3737.4</ele>
        <time>2022-10-23T02:50:53.000Z</time>
      </trkpt>
      <trkpt lat="27.839488" lon="86.770957">
        <ele>3737.6</ele>
        <time>2022-10-23T02:50:56.000Z</time>
      </trkpt>
      <trkpt lat="27.839491" lon="86.770989">
        <ele>3737.8</ele>
        <time>2022-10-23T02:50:59.000Z</time>
      </trkpt>
      <trkpt lat="27.839507" lon="86.771002">
        <ele>3738</ele>
        <time>2022-10-23T02:51:01.000Z</time>
      </trkpt>
      <trkpt lat="27.83951" lon="86.771027">
        <ele>3738.4</ele>
        <time>2022-10-23T02:51:04.000Z</time>
      </trkpt>
      <trkpt lat="27.83952" lon="86.771059">
        <ele>3738.6</ele>
        <time>2022-10-23T02:51:07.000Z</time>
      </trkpt>
      <trkpt lat="27.839536" lon="86.771072">
        <ele>3738.8</ele>
        <time>2022-10-23T02:51:10.000Z</time>
      </trkpt>
      <trkpt lat="27.839555" lon="86.771072">
        <ele>3739</ele>
        <time>2022-10-23T02:51:12.000Z</time>
      </trkpt>
      <trkpt lat="27.839584" lon="86.771066">
        <ele>3739</ele>
        <time>2022-10-23T02:51:15.000Z</time>
      </trkpt>
      <trkpt lat="27.83961" lon="86.771066">
        <ele>3739.2</ele>
        <time>2022-10-23T02:51:17.000Z</time>
      </trkpt>
      <trkpt lat="27.839629" lon="86.771072">
        <ele>3739.6</ele>
        <time>2022-10-23T02:51:19.000Z</time>
      </trkpt>
      <trkpt lat="27.839648" lon="86.771078">
        <ele>3739.6</ele>
        <time>2022-10-23T02:51:23.000Z</time>
      </trkpt>
      <trkpt lat="27.839664" lon="86.771098">
        <ele>3739.8</ele>
        <time>2022-10-23T02:51:25.000Z</time>
      </trkpt>
      <trkpt lat="27.839683" lon="86.771104">
        <ele>3739.8</ele>
        <time>2022-10-23T02:51:28.000Z</time>
      </trkpt>
      <trkpt lat="27.839702" lon="86.771117">
        <ele>3740</ele>
        <time>2022-10-23T02:51:31.000Z</time>
      </trkpt>
      <trkpt lat="27.839728" lon="86.771123">
        <ele>3740.6</ele>
        <time>2022-10-23T02:51:34.000Z</time>
      </trkpt>
      <trkpt lat="27.839747" lon="86.771149">
        <ele>3740.8</ele>
        <time>2022-10-23T02:51:36.000Z</time>
      </trkpt>
      <trkpt lat="27.839763" lon="86.771162">
        <ele>3741</ele>
        <time>2022-10-23T02:51:38.000Z</time>
      </trkpt>
      <trkpt lat="27.839776" lon="86.771181">
        <ele>3741</ele>
        <time>2022-10-23T02:51:40.000Z</time>
      </trkpt>
      <trkpt lat="27.839789" lon="86.7712">
        <ele>3741.2</ele>
        <time>2022-10-23T02:51:44.000Z</time>
      </trkpt>
      <trkpt lat="27.839808" lon="86.771219">
        <ele>3741.2</ele>
        <time>2022-10-23T02:51:47.000Z</time>
      </trkpt>
      <trkpt lat="27.839824" lon="86.771232">
        <ele>3741.6</ele>
        <time>2022-10-23T02:51:50.000Z</time>
      </trkpt>
      <trkpt lat="27.83984" lon="86.771258">
        <ele>3741.6</ele>
        <time>2022-10-23T02:51:53.000Z</time>
      </trkpt>
      <trkpt lat="27.839846" lon="86.771277">
        <ele>3742.2</ele>
        <time>2022-10-23T02:51:55.000Z</time>
      </trkpt>
      <trkpt lat="27.839853" lon="86.771296">
        <ele>3742.2</ele>
        <time>2022-10-23T02:51:57.000Z</time>
      </trkpt>
      <trkpt lat="27.839862" lon="86.771315">
        <ele>3742</ele>
        <time>2022-10-23T02:51:59.000Z</time>
      </trkpt>
      <trkpt lat="27.839869" lon="86.771341">
        <ele>3741.6</ele>
        <time>2022-10-23T02:52:01.000Z</time>
      </trkpt>
      <trkpt lat="27.839875" lon="86.771373">
        <ele>3741.4</ele>
        <time>2022-10-23T02:52:04.000Z</time>
      </trkpt>
      <trkpt lat="27.839888" lon="86.771392">
        <ele>3741.6</ele>
        <time>2022-10-23T02:52:07.000Z</time>
      </trkpt>
      <trkpt lat="27.839907" lon="86.771411">
        <ele>3741.4</ele>
        <time>2022-10-23T02:52:10.000Z</time>
      </trkpt>
      <trkpt lat="27.83993" lon="86.771424">
        <ele>3741.6</ele>
        <time>2022-10-23T02:52:13.000Z</time>
      </trkpt>
      <trkpt lat="27.839952" lon="86.771424">
        <ele>3741.6</ele>
        <time>2022-10-23T02:52:15.000Z</time>
      </trkpt>
      <trkpt lat="27.839974" lon="86.77143">
        <ele>3741.4</ele>
        <time>2022-10-23T02:52:17.000Z</time>
      </trkpt>
      <trkpt lat="27.839994" lon="86.771437">
        <ele>3741.6</ele>
        <time>2022-10-23T02:52:19.000Z</time>
      </trkpt>
      <trkpt lat="27.840013" lon="86.771456">
        <ele>3742</ele>
        <time>2022-10-23T02:52:21.000Z</time>
      </trkpt>
      <trkpt lat="27.840035" lon="86.771475">
        <ele>3741.6</ele>
        <time>2022-10-23T02:52:24.000Z</time>
      </trkpt>
      <trkpt lat="27.840058" lon="86.771494">
        <ele>3741.4</ele>
        <time>2022-10-23T02:52:26.000Z</time>
      </trkpt>
      <trkpt lat="27.840083" lon="86.771501">
        <ele>3741.2</ele>
        <time>2022-10-23T02:52:29.000Z</time>
      </trkpt>
      <trkpt lat="27.840099" lon="86.77152">
        <ele>3741</ele>
        <time>2022-10-23T02:52:31.000Z</time>
      </trkpt>
      <trkpt lat="27.840118" lon="86.771539">
        <ele>3741.2</ele>
        <time>2022-10-23T02:52:33.000Z</time>
      </trkpt>
      <trkpt lat="27.840141" lon="86.771552">
        <ele>3741</ele>
        <time>2022-10-23T02:52:36.000Z</time>
      </trkpt>
      <trkpt lat="27.840154" lon="86.771571">
        <ele>3741</ele>
        <time>2022-10-23T02:52:38.000Z</time>
      </trkpt>
      <trkpt lat="27.840166" lon="86.77159">
        <ele>3741</ele>
        <time>2022-10-23T02:52:40.000Z</time>
      </trkpt>
      <trkpt lat="27.840176" lon="86.77161">
        <ele>3740.4</ele>
        <time>2022-10-23T02:52:42.000Z</time>
      </trkpt>
      <trkpt lat="27.840192" lon="86.771622">
        <ele>3740.4</ele>
        <time>2022-10-23T02:52:44.000Z</time>
      </trkpt>
      <trkpt lat="27.840211" lon="86.771635">
        <ele>3740.6</ele>
        <time>2022-10-23T02:52:47.000Z</time>
      </trkpt>
      <trkpt lat="27.840234" lon="86.771635">
        <ele>3740.6</ele>
        <time>2022-10-23T02:52:50.000Z</time>
      </trkpt>
      <trkpt lat="27.840253" lon="86.771642">
        <ele>3740.6</ele>
        <time>2022-10-23T02:52:52.000Z</time>
      </trkpt>
      <trkpt lat="27.840275" lon="86.771642">
        <ele>3741.2</ele>
        <time>2022-10-23T02:52:58.000Z</time>
      </trkpt>
      <trkpt lat="27.840294" lon="86.771642">
        <ele>3741.6</ele>
        <time>2022-10-23T02:53:01.000Z</time>
      </trkpt>
      <trkpt lat="27.84033" lon="86.771661">
        <ele>3741.4</ele>
        <time>2022-10-23T02:53:03.000Z</time>
      </trkpt>
      <trkpt lat="27.840358" lon="86.771674">
        <ele>3741.6</ele>
        <time>2022-10-23T02:53:05.000Z</time>
      </trkpt>
      <trkpt lat="27.840368" lon="86.771693">
        <ele>3741.4</ele>
        <time>2022-10-23T02:53:06.000Z</time>
      </trkpt>
      <trkpt lat="27.84039" lon="86.771699">
        <ele>3741.4</ele>
        <time>2022-10-23T02:53:08.000Z</time>
      </trkpt>
      <trkpt lat="27.840403" lon="86.771718">
        <ele>3741.6</ele>
        <time>2022-10-23T02:53:11.000Z</time>
      </trkpt>
      <trkpt lat="27.840416" lon="86.771738">
        <ele>3742.4</ele>
        <time>2022-10-23T02:53:13.000Z</time>
      </trkpt>
      <trkpt lat="27.840429" lon="86.771757">
        <ele>3742.8</ele>
        <time>2022-10-23T02:53:17.000Z</time>
      </trkpt>
      <trkpt lat="27.840435" lon="86.771776">
        <ele>3743.2</ele>
        <time>2022-10-23T02:53:20.000Z</time>
      </trkpt>
      <trkpt lat="27.840454" lon="86.771795">
        <ele>3743.8</ele>
        <time>2022-10-23T02:53:23.000Z</time>
      </trkpt>
      <trkpt lat="27.840467" lon="86.771814">
        <ele>3743.8</ele>
        <time>2022-10-23T02:53:25.000Z</time>
      </trkpt>
      <trkpt lat="27.84048" lon="86.771834">
        <ele>3743.8</ele>
        <time>2022-10-23T02:53:27.000Z</time>
      </trkpt>
      <trkpt lat="27.84049" lon="86.771853">
        <ele>3743.8</ele>
        <time>2022-10-23T02:53:29.000Z</time>
      </trkpt>
      <trkpt lat="27.840509" lon="86.771872">
        <ele>3743.8</ele>
        <time>2022-10-23T02:53:32.000Z</time>
      </trkpt>
      <trkpt lat="27.840522" lon="86.771891">
        <ele>3743.8</ele>
        <time>2022-10-23T02:53:34.000Z</time>
      </trkpt>
      <trkpt lat="27.840544" lon="86.771898">
        <ele>3743.8</ele>
        <time>2022-10-23T02:53:38.000Z</time>
      </trkpt>
      <trkpt lat="27.84056" lon="86.77191">
        <ele>3744</ele>
        <time>2022-10-23T02:53:40.000Z</time>
      </trkpt>
      <trkpt lat="27.840573" lon="86.77193">
        <ele>3743.8</ele>
        <time>2022-10-23T02:53:42.000Z</time>
      </trkpt>
      <trkpt lat="27.840598" lon="86.771942">
        <ele>3743.8</ele>
        <time>2022-10-23T02:53:45.000Z</time>
      </trkpt>
      <trkpt lat="27.840618" lon="86.771955">
        <ele>3743.8</ele>
        <time>2022-10-23T02:53:47.000Z</time>
      </trkpt>
      <trkpt lat="27.84064" lon="86.771968">
        <ele>3743.8</ele>
        <time>2022-10-23T02:53:49.000Z</time>
      </trkpt>
      <trkpt lat="27.840659" lon="86.771987">
        <ele>3743.4</ele>
        <time>2022-10-23T02:53:52.000Z</time>
      </trkpt>
      <trkpt lat="27.840682" lon="86.772019">
        <ele>3743</ele>
        <time>2022-10-23T02:53:55.000Z</time>
      </trkpt>
      <trkpt lat="27.840701" lon="86.772051">
        <ele>3742.8</ele>
        <time>2022-10-23T02:53:58.000Z</time>
      </trkpt>
      <trkpt lat="27.840717" lon="86.772064">
        <ele>3742.8</ele>
        <time>2022-10-23T02:54:00.000Z</time>
      </trkpt>
      <trkpt lat="27.84073" lon="86.77209">
        <ele>3742.8</ele>
        <time>2022-10-23T02:54:03.000Z</time>
      </trkpt>
      <trkpt lat="27.840742" lon="86.772109">
        <ele>3743</ele>
        <time>2022-10-23T02:54:05.000Z</time>
      </trkpt>
      <trkpt lat="27.840749" lon="86.772128">
        <ele>3743</ele>
        <time>2022-10-23T02:54:07.000Z</time>
      </trkpt>
      <trkpt lat="27.840762" lon="86.772147">
        <ele>3742.8</ele>
        <time>2022-10-23T02:54:10.000Z</time>
      </trkpt>
      <trkpt lat="27.840774" lon="86.772166">
        <ele>3742.6</ele>
        <time>2022-10-23T02:54:12.000Z</time>
      </trkpt>
      <trkpt lat="27.840797" lon="86.772186">
        <ele>3742.6</ele>
        <time>2022-10-23T02:54:15.000Z</time>
      </trkpt>
      <trkpt lat="27.840806" lon="86.772211">
        <ele>3742.6</ele>
        <time>2022-10-23T02:54:17.000Z</time>
      </trkpt>
      <trkpt lat="27.840816" lon="86.77223">
        <ele>3742.8</ele>
        <time>2022-10-23T02:54:20.000Z</time>
      </trkpt>
      <trkpt lat="27.840826" lon="86.77225">
        <ele>3742.6</ele>
        <time>2022-10-23T02:54:22.000Z</time>
      </trkpt>
      <trkpt lat="27.840832" lon="86.772269">
        <ele>3742.8</ele>
        <time>2022-10-23T02:54:24.000Z</time>
      </trkpt>
      <trkpt lat="27.840838" lon="86.772294">
        <ele>3743</ele>
        <time>2022-10-23T02:54:26.000Z</time>
      </trkpt>
      <trkpt lat="27.840861" lon="86.772307">
        <ele>3743.2</ele>
        <time>2022-10-23T02:54:29.000Z</time>
      </trkpt>
      <trkpt lat="27.84088" lon="86.772326">
        <ele>3743.2</ele>
        <time>2022-10-23T02:54:31.000Z</time>
      </trkpt>
      <trkpt lat="27.840906" lon="86.772339">
        <ele>3743.2</ele>
        <time>2022-10-23T02:54:34.000Z</time>
      </trkpt>
      <trkpt lat="27.840925" lon="86.772352">
        <ele>3743.2</ele>
        <time>2022-10-23T02:54:36.000Z</time>
      </trkpt>
      <trkpt lat="27.840947" lon="86.772371">
        <ele>3743.6</ele>
        <time>2022-10-23T02:54:39.000Z</time>
      </trkpt>
      <trkpt lat="27.840966" lon="86.772384">
        <ele>3743</ele>
        <time>2022-10-23T02:54:41.000Z</time>
      </trkpt>
      <trkpt lat="27.840986" lon="86.77241">
        <ele>3742.8</ele>
        <time>2022-10-23T02:54:44.000Z</time>
      </trkpt>
      <trkpt lat="27.841008" lon="86.772422">
        <ele>3742.8</ele>
        <time>2022-10-23T02:54:46.000Z</time>
      </trkpt>
      <trkpt lat="27.841027" lon="86.772435">
        <ele>3742.6</ele>
        <time>2022-10-23T02:54:48.000Z</time>
      </trkpt>
      <trkpt lat="27.841046" lon="86.772454">
        <ele>3742.2</ele>
        <time>2022-10-23T02:54:50.000Z</time>
      </trkpt>
      <trkpt lat="27.841062" lon="86.772467">
        <ele>3742</ele>
        <time>2022-10-23T02:54:52.000Z</time>
      </trkpt>
      <trkpt lat="27.841072" lon="86.772486">
        <ele>3742.2</ele>
        <time>2022-10-23T02:54:54.000Z</time>
      </trkpt>
      <trkpt lat="27.841085" lon="86.772506">
        <ele>3741.8</ele>
        <time>2022-10-23T02:54:56.000Z</time>
      </trkpt>
      <trkpt lat="27.841088" lon="86.772531">
        <ele>3741.4</ele>
        <time>2022-10-23T02:54:58.000Z</time>
      </trkpt>
      <trkpt lat="27.841101" lon="86.772582">
        <ele>3741.2</ele>
        <time>2022-10-23T02:55:02.000Z</time>
      </trkpt>
      <trkpt lat="27.841107" lon="86.772614">
        <ele>3741.2</ele>
        <time>2022-10-23T02:55:04.000Z</time>
      </trkpt>
      <trkpt lat="27.841117" lon="86.772634">
        <ele>3741.6</ele>
        <time>2022-10-23T02:55:06.000Z</time>
      </trkpt>
      <trkpt lat="27.84113" lon="86.772653">
        <ele>3741.6</ele>
        <time>2022-10-23T02:55:08.000Z</time>
      </trkpt>
      <trkpt lat="27.841139" lon="86.772672">
        <ele>3742</ele>
        <time>2022-10-23T02:55:10.000Z</time>
      </trkpt>
      <trkpt lat="27.841146" lon="86.772698">
        <ele>3742</ele>
        <time>2022-10-23T02:55:12.000Z</time>
      </trkpt>
      <trkpt lat="27.841158" lon="86.772723">
        <ele>3742</ele>
        <time>2022-10-23T02:55:14.000Z</time>
      </trkpt>
      <trkpt lat="27.841168" lon="86.772742">
        <ele>3742</ele>
        <time>2022-10-23T02:55:16.000Z</time>
      </trkpt>
      <trkpt lat="27.841174" lon="86.772768">
        <ele>3742</ele>
        <time>2022-10-23T02:55:18.000Z</time>
      </trkpt>
      <trkpt lat="27.841181" lon="86.772787">
        <ele>3742</ele>
        <time>2022-10-23T02:55:20.000Z</time>
      </trkpt>
      <trkpt lat="27.841184" lon="86.772813">
        <ele>3742.2</ele>
        <time>2022-10-23T02:55:22.000Z</time>
      </trkpt>
      <trkpt lat="27.8412" lon="86.772832">
        <ele>3742</ele>
        <time>2022-10-23T02:55:25.000Z</time>
      </trkpt>
      <trkpt lat="27.841206" lon="86.772858">
        <ele>3742</ele>
        <time>2022-10-23T02:55:27.000Z</time>
      </trkpt>
      <trkpt lat="27.841222" lon="86.77287">
        <ele>3742.2</ele>
        <time>2022-10-23T02:55:30.000Z</time>
      </trkpt>
      <trkpt lat="27.841229" lon="86.77289">
        <ele>3742.2</ele>
        <time>2022-10-23T02:55:31.000Z</time>
      </trkpt>
      <trkpt lat="27.841245" lon="86.772902">
        <ele>3742.4</ele>
        <time>2022-10-23T02:55:33.000Z</time>
      </trkpt>
      <trkpt lat="27.841258" lon="86.772922">
        <ele>3742.4</ele>
        <time>2022-10-23T02:55:35.000Z</time>
      </trkpt>
      <trkpt lat="27.841274" lon="86.772941">
        <ele>3742.6</ele>
        <time>2022-10-23T02:55:37.000Z</time>
      </trkpt>
      <trkpt lat="27.841293" lon="86.77296">
        <ele>3743</ele>
        <time>2022-10-23T02:55:40.000Z</time>
      </trkpt>
      <trkpt lat="27.841312" lon="86.772973">
        <ele>3743.2</ele>
        <time>2022-10-23T02:55:43.000Z</time>
      </trkpt>
      <trkpt lat="27.841331" lon="86.772973">
        <ele>3743.4</ele>
        <time>2022-10-23T02:55:46.000Z</time>
      </trkpt>
      <trkpt lat="27.841354" lon="86.772979">
        <ele>3744.2</ele>
        <time>2022-10-23T02:55:49.000Z</time>
      </trkpt>
      <trkpt lat="27.841373" lon="86.773005">
        <ele>3744.2</ele>
        <time>2022-10-23T02:55:52.000Z</time>
      </trkpt>
      <trkpt lat="27.841386" lon="86.773024">
        <ele>3744.2</ele>
        <time>2022-10-23T02:55:54.000Z</time>
      </trkpt>
      <trkpt lat="27.841405" lon="86.77303">
        <ele>3743.8</ele>
        <time>2022-10-23T02:55:56.000Z</time>
      </trkpt>
      <trkpt lat="27.841421" lon="86.77305">
        <ele>3743.8</ele>
        <time>2022-10-23T02:55:58.000Z</time>
      </trkpt>
      <trkpt lat="27.841446" lon="86.773062">
        <ele>3744</ele>
        <time>2022-10-23T02:56:01.000Z</time>
      </trkpt>
      <trkpt lat="27.841456" lon="86.773088">
        <ele>3743.8</ele>
        <time>2022-10-23T02:56:03.000Z</time>
      </trkpt>
      <trkpt lat="27.841475" lon="86.773101">
        <ele>3743.8</ele>
        <time>2022-10-23T02:56:05.000Z</time>
      </trkpt>
      <trkpt lat="27.841491" lon="86.77312">
        <ele>3743.8</ele>
        <time>2022-10-23T02:56:07.000Z</time>
      </trkpt>
      <trkpt lat="27.841504" lon="86.773139">
        <ele>3744</ele>
        <time>2022-10-23T02:56:09.000Z</time>
      </trkpt>
      <trkpt lat="27.841514" lon="86.773158">
        <ele>3744</ele>
        <time>2022-10-23T02:56:11.000Z</time>
      </trkpt>
      <trkpt lat="27.841523" lon="86.773178">
        <ele>3743.8</ele>
        <time>2022-10-23T02:56:13.000Z</time>
      </trkpt>
      <trkpt lat="27.841536" lon="86.773203">
        <ele>3743.6</ele>
        <time>2022-10-23T02:56:15.000Z</time>
      </trkpt>
      <trkpt lat="27.841549" lon="86.773222">
        <ele>3743.6</ele>
        <time>2022-10-23T02:56:17.000Z</time>
      </trkpt>
      <trkpt lat="27.841562" lon="86.773248">
        <ele>3743.4</ele>
        <time>2022-10-23T02:56:19.000Z</time>
      </trkpt>
      <trkpt lat="27.841571" lon="86.773267">
        <ele>3743.4</ele>
        <time>2022-10-23T02:56:21.000Z</time>
      </trkpt>
      <trkpt lat="27.841578" lon="86.773286">
        <ele>3743.4</ele>
        <time>2022-10-23T02:56:22.000Z</time>
      </trkpt>
      <trkpt lat="27.84159" lon="86.773306">
        <ele>3743.6</ele>
        <time>2022-10-23T02:56:24.000Z</time>
      </trkpt>
      <trkpt lat="27.8416" lon="86.773331">
        <ele>3743.6</ele>
        <time>2022-10-23T02:56:26.000Z</time>
      </trkpt>
      <trkpt lat="27.84161" lon="86.77335">
        <ele>3743.4</ele>
        <time>2022-10-23T02:56:28.000Z</time>
      </trkpt>
      <trkpt lat="27.841616" lon="86.77337">
        <ele>3743.6</ele>
        <time>2022-10-23T02:56:30.000Z</time>
      </trkpt>
      <trkpt lat="27.841622" lon="86.773389">
        <ele>3743.6</ele>
        <time>2022-10-23T02:56:32.000Z</time>
      </trkpt>
      <trkpt lat="27.841638" lon="86.773408">
        <ele>3743.6</ele>
        <time>2022-10-23T02:56:34.000Z</time>
      </trkpt>
      <trkpt lat="27.841648" lon="86.773427">
        <ele>3743.6</ele>
        <time>2022-10-23T02:56:36.000Z</time>
      </trkpt>
      <trkpt lat="27.841654" lon="86.773459">
        <ele>3743.6</ele>
        <time>2022-10-23T02:56:39.000Z</time>
      </trkpt>
      <trkpt lat="27.841661" lon="86.773491">
        <ele>3743.8</ele>
        <time>2022-10-23T02:56:42.000Z</time>
      </trkpt>
      <trkpt lat="27.841664" lon="86.773517">
        <ele>3744.2</ele>
        <time>2022-10-23T02:56:44.000Z</time>
      </trkpt>
      <trkpt lat="27.841664" lon="86.773542">
        <ele>3744.2</ele>
        <time>2022-10-23T02:56:47.000Z</time>
      </trkpt>
      <trkpt lat="27.841674" lon="86.773562">
        <ele>3744.2</ele>
        <time>2022-10-23T02:56:49.000Z</time>
      </trkpt>
      <trkpt lat="27.841693" lon="86.773574">
        <ele>3744.2</ele>
        <time>2022-10-23T02:56:52.000Z</time>
      </trkpt>
      <trkpt lat="27.841709" lon="86.7736">
        <ele>3744.8</ele>
        <time>2022-10-23T02:56:55.000Z</time>
      </trkpt>
      <trkpt lat="27.841722" lon="86.773619">
        <ele>3744.4</ele>
        <time>2022-10-23T02:56:58.000Z</time>
      </trkpt>
      <trkpt lat="27.841728" lon="86.773638">
        <ele>3744</ele>
        <time>2022-10-23T02:57:01.000Z</time>
      </trkpt>
      <trkpt lat="27.841744" lon="86.773664">
        <ele>3744.4</ele>
        <time>2022-10-23T02:57:04.000Z</time>
      </trkpt>
      <trkpt lat="27.841754" lon="86.77369">
        <ele>3744.4</ele>
        <time>2022-10-23T02:57:07.000Z</time>
      </trkpt>
      <trkpt lat="27.841763" lon="86.773722">
        <ele>3744.6</ele>
        <time>2022-10-23T02:57:10.000Z</time>
      </trkpt>
      <trkpt lat="27.841782" lon="86.773734">
        <ele>3745.2</ele>
        <time>2022-10-23T02:57:14.000Z</time>
      </trkpt>
      <trkpt lat="27.841802" lon="86.773741">
        <ele>3745.4</ele>
        <time>2022-10-23T02:57:17.000Z</time>
      </trkpt>
      <trkpt lat="27.841824" lon="86.773747">
        <ele>3746</ele>
        <time>2022-10-23T02:57:20.000Z</time>
      </trkpt>
      <trkpt lat="27.841843" lon="86.773766">
        <ele>3746</ele>
        <time>2022-10-23T02:57:23.000Z</time>
      </trkpt>
      <trkpt lat="27.841856" lon="86.773786">
        <ele>3746.4</ele>
        <time>2022-10-23T02:57:25.000Z</time>
      </trkpt>
      <trkpt lat="27.841878" lon="86.773805">
        <ele>3746.6</ele>
        <time>2022-10-23T02:57:28.000Z</time>
      </trkpt>
      <trkpt lat="27.841891" lon="86.773824">
        <ele>3746.8</ele>
        <time>2022-10-23T02:57:31.000Z</time>
      </trkpt>
      <trkpt lat="27.841894" lon="86.77385">
        <ele>3746.8</ele>
        <time>2022-10-23T02:57:33.000Z</time>
      </trkpt>
      <trkpt lat="27.841904" lon="86.773875">
        <ele>3747</ele>
        <time>2022-10-23T02:57:36.000Z</time>
      </trkpt>
      <trkpt lat="27.841914" lon="86.773894">
        <ele>3747.2</ele>
        <time>2022-10-23T02:57:38.000Z</time>
      </trkpt>
      <trkpt lat="27.841923" lon="86.773914">
        <ele>3747.2</ele>
        <time>2022-10-23T02:57:40.000Z</time>
      </trkpt>
      <trkpt lat="27.841939" lon="86.773933">
        <ele>3747.4</ele>
        <time>2022-10-23T02:57:43.000Z</time>
      </trkpt>
      <trkpt lat="27.841958" lon="86.773958">
        <ele>3747.4</ele>
        <time>2022-10-23T02:57:46.000Z</time>
      </trkpt>
      <trkpt lat="27.841971" lon="86.773978">
        <ele>3748</ele>
        <time>2022-10-23T02:57:49.000Z</time>
      </trkpt>
      <trkpt lat="27.841984" lon="86.773997">
        <ele>3748</ele>
        <time>2022-10-23T02:57:51.000Z</time>
      </trkpt>
      <trkpt lat="27.842" lon="86.774016">
        <ele>3748</ele>
        <time>2022-10-23T02:57:54.000Z</time>
      </trkpt>
      <trkpt lat="27.842006" lon="86.774035">
        <ele>3748.2</ele>
        <time>2022-10-23T02:57:56.000Z</time>
      </trkpt>
      <trkpt lat="27.842022" lon="86.774054">
        <ele>3748.4</ele>
        <time>2022-10-23T02:57:59.000Z</time>
      </trkpt>
      <trkpt lat="27.842029" lon="86.774074">
        <ele>3748.6</ele>
        <time>2022-10-23T02:58:01.000Z</time>
      </trkpt>
      <trkpt lat="27.842042" lon="86.774093">
        <ele>3748.4</ele>
        <time>2022-10-23T02:58:04.000Z</time>
      </trkpt>
      <trkpt lat="27.842061" lon="86.774112">
        <ele>3748.8</ele>
        <time>2022-10-23T02:58:07.000Z</time>
      </trkpt>
      <trkpt lat="27.84208" lon="86.774112">
        <ele>3749.4</ele>
        <time>2022-10-23T02:58:10.000Z</time>
      </trkpt>
      <trkpt lat="27.842099" lon="86.774118">
        <ele>3749.4</ele>
        <time>2022-10-23T02:58:13.000Z</time>
      </trkpt>
      <trkpt lat="27.842118" lon="86.774118">
        <ele>3749.8</ele>
        <time>2022-10-23T02:58:16.000Z</time>
      </trkpt>
      <trkpt lat="27.842141" lon="86.774118">
        <ele>3750.2</ele>
        <time>2022-10-23T02:58:19.000Z</time>
      </trkpt>
      <trkpt lat="27.842157" lon="86.774138">
        <ele>3750.6</ele>
        <time>2022-10-23T02:58:23.000Z</time>
      </trkpt>
      <trkpt lat="27.842166" lon="86.774157">
        <ele>3750.6</ele>
        <time>2022-10-23T02:58:25.000Z</time>
      </trkpt>
      <trkpt lat="27.842186" lon="86.774176">
        <ele>3751</ele>
        <time>2022-10-23T02:58:28.000Z</time>
      </trkpt>
      <trkpt lat="27.842198" lon="86.774202">
        <ele>3751</ele>
        <time>2022-10-23T02:58:31.000Z</time>
      </trkpt>
      <trkpt lat="27.842208" lon="86.774221">
        <ele>3751.2</ele>
        <time>2022-10-23T02:58:34.000Z</time>
      </trkpt>
      <trkpt lat="27.842221" lon="86.77424">
        <ele>3751.2</ele>
        <time>2022-10-23T02:58:37.000Z</time>
      </trkpt>
      <trkpt lat="27.842224" lon="86.774272">
        <ele>3751.2</ele>
        <time>2022-10-23T02:58:40.000Z</time>
      </trkpt>
      <trkpt lat="27.842237" lon="86.774291">
        <ele>3751.4</ele>
        <time>2022-10-23T02:58:43.000Z</time>
      </trkpt>
      <trkpt lat="27.842253" lon="86.77431">
        <ele>3751.4</ele>
        <time>2022-10-23T02:58:47.000Z</time>
      </trkpt>
      <trkpt lat="27.842266" lon="86.77433">
        <ele>3751.6</ele>
        <time>2022-10-23T02:58:50.000Z</time>
      </trkpt>
      <trkpt lat="27.842278" lon="86.774355">
        <ele>3752</ele>
        <time>2022-10-23T02:58:53.000Z</time>
      </trkpt>
      <trkpt lat="27.842298" lon="86.774368">
        <ele>3752.2</ele>
        <time>2022-10-23T02:58:56.000Z</time>
      </trkpt>
      <trkpt lat="27.842317" lon="86.774374">
        <ele>3752.2</ele>
        <time>2022-10-23T02:58:59.000Z</time>
      </trkpt>
      <trkpt lat="27.842336" lon="86.774381">
        <ele>3752.6</ele>
        <time>2022-10-23T02:59:02.000Z</time>
      </trkpt>
      <trkpt lat="27.842355" lon="86.7744">
        <ele>3753.2</ele>
        <time>2022-10-23T02:59:05.000Z</time>
      </trkpt>
      <trkpt lat="27.842374" lon="86.774406">
        <ele>3753.4</ele>
        <time>2022-10-23T02:59:09.000Z</time>
      </trkpt>
      <trkpt lat="27.842397" lon="86.774406">
        <ele>3754</ele>
        <time>2022-10-23T02:59:12.000Z</time>
      </trkpt>
      <trkpt lat="27.842416" lon="86.774432">
        <ele>3754.4</ele>
        <time>2022-10-23T02:59:15.000Z</time>
      </trkpt>
      <trkpt lat="27.842432" lon="86.774445">
        <ele>3754.4</ele>
        <time>2022-10-23T02:59:18.000Z</time>
      </trkpt>
      <trkpt lat="27.842451" lon="86.77447">
        <ele>3754.6</ele>
        <time>2022-10-23T02:59:21.000Z</time>
      </trkpt>
      <trkpt lat="27.84247" lon="86.77449">
        <ele>3754.8</ele>
        <time>2022-10-23T02:59:24.000Z</time>
      </trkpt>
      <trkpt lat="27.842483" lon="86.774509">
        <ele>3755.2</ele>
        <time>2022-10-23T02:59:28.000Z</time>
      </trkpt>
      <trkpt lat="27.842502" lon="86.774528">
        <ele>3755.2</ele>
        <time>2022-10-23T02:59:32.000Z</time>
      </trkpt>
      <trkpt lat="27.842525" lon="86.774541">
        <ele>3755.2</ele>
        <time>2022-10-23T02:59:36.000Z</time>
      </trkpt>
      <trkpt lat="27.842544" lon="86.77456">
        <ele>3755.8</ele>
        <time>2022-10-23T02:59:39.000Z</time>
      </trkpt>
      <trkpt lat="27.842566" lon="86.774566">
        <ele>3756</ele>
        <time>2022-10-23T02:59:42.000Z</time>
      </trkpt>
      <trkpt lat="27.842586" lon="86.774573">
        <ele>3756.4</ele>
        <time>2022-10-23T02:59:45.000Z</time>
      </trkpt>
      <trkpt lat="27.842598" lon="86.774592">
        <ele>3756.8</ele>
        <time>2022-10-23T02:59:48.000Z</time>
      </trkpt>
      <trkpt lat="27.842621" lon="86.774598">
        <ele>3757</ele>
        <time>2022-10-23T02:59:51.000Z</time>
      </trkpt>
      <trkpt lat="27.842637" lon="86.774618">
        <ele>3757</ele>
        <time>2022-10-23T02:59:54.000Z</time>
      </trkpt>
      <trkpt lat="27.842646" lon="86.774637">
        <ele>3758</ele>
        <time>2022-10-23T02:59:57.000Z</time>
      </trkpt>
      <trkpt lat="27.842662" lon="86.77465">
        <ele>3757.4</ele>
        <time>2022-10-23T03:00:00.000Z</time>
      </trkpt>
      <trkpt lat="27.842678" lon="86.774669">
        <ele>3757.6</ele>
        <time>2022-10-23T03:00:03.000Z</time>
      </trkpt>
      <trkpt lat="27.842698" lon="86.774669">
        <ele>3757.6</ele>
        <time>2022-10-23T03:00:05.000Z</time>
      </trkpt>
      <trkpt lat="27.842717" lon="86.774669">
        <ele>3757.6</ele>
        <time>2022-10-23T03:00:08.000Z</time>
      </trkpt>
      <trkpt lat="27.842736" lon="86.774675">
        <ele>3758.4</ele>
        <time>2022-10-23T03:00:12.000Z</time>
      </trkpt>
      <trkpt lat="27.842758" lon="86.774682">
        <ele>3758.6</ele>
        <time>2022-10-23T03:00:15.000Z</time>
      </trkpt>
      <trkpt lat="27.842774" lon="86.774701">
        <ele>3758.6</ele>
        <time>2022-10-23T03:00:19.000Z</time>
      </trkpt>
      <trkpt lat="27.8428" lon="86.774701">
        <ele>3759</ele>
        <time>2022-10-23T03:00:22.000Z</time>
      </trkpt>
      <trkpt lat="27.842816" lon="86.774714">
        <ele>3758.8</ele>
        <time>2022-10-23T03:00:24.000Z</time>
      </trkpt>
      <trkpt lat="27.842832" lon="86.774726">
        <ele>3759.4</ele>
        <time>2022-10-23T03:00:26.000Z</time>
      </trkpt>
      <trkpt lat="27.842854" lon="86.774739">
        <ele>3759.6</ele>
        <time>2022-10-23T03:00:29.000Z</time>
      </trkpt>
      <trkpt lat="27.84287" lon="86.774758">
        <ele>3759.8</ele>
        <time>2022-10-23T03:00:31.000Z</time>
      </trkpt>
      <trkpt lat="27.842883" lon="86.774778">
        <ele>3760.2</ele>
        <time>2022-10-23T03:00:34.000Z</time>
      </trkpt>
      <trkpt lat="27.842902" lon="86.77479">
        <ele>3760.6</ele>
        <time>2022-10-23T03:00:37.000Z</time>
      </trkpt>
      <trkpt lat="27.842915" lon="86.77481">
        <ele>3760.4</ele>
        <time>2022-10-23T03:00:39.000Z</time>
      </trkpt>
      <trkpt lat="27.842925" lon="86.774829">
        <ele>3760.8</ele>
        <time>2022-10-23T03:00:41.000Z</time>
      </trkpt>
      <trkpt lat="27.842944" lon="86.774842">
        <ele>3761.2</ele>
        <time>2022-10-23T03:00:44.000Z</time>
      </trkpt>
      <trkpt lat="27.842963" lon="86.774848">
        <ele>3761.2</ele>
        <time>2022-10-23T03:00:47.000Z</time>
      </trkpt>
      <trkpt lat="27.842979" lon="86.774867">
        <ele>3761</ele>
        <time>2022-10-23T03:00:49.000Z</time>
      </trkpt>
      <trkpt lat="27.842998" lon="86.774886">
        <ele>3761.4</ele>
        <time>2022-10-23T03:00:52.000Z</time>
      </trkpt>
      <trkpt lat="27.843011" lon="86.774912">
        <ele>3761.4</ele>
        <time>2022-10-23T03:00:55.000Z</time>
      </trkpt>
      <trkpt lat="27.843008" lon="86.774938">
        <ele>3761.6</ele>
        <time>2022-10-23T03:00:59.000Z</time>
      </trkpt>
      <trkpt lat="27.843008" lon="86.774963">
        <ele>3761.8</ele>
        <time>2022-10-23T03:01:02.000Z</time>
      </trkpt>
      <trkpt lat="27.843027" lon="86.774989">
        <ele>3762.2</ele>
        <time>2022-10-23T03:01:05.000Z</time>
      </trkpt>
      <trkpt lat="27.843043" lon="86.775008">
        <ele>3762.4</ele>
        <time>2022-10-23T03:01:09.000Z</time>
      </trkpt>
      <trkpt lat="27.843056" lon="86.775027">
        <ele>3762.6</ele>
        <time>2022-10-23T03:01:12.000Z</time>
      </trkpt>
      <trkpt lat="27.843066" lon="86.775046">
        <ele>3763</ele>
        <time>2022-10-23T03:01:15.000Z</time>
      </trkpt>
      <trkpt lat="27.843072" lon="86.775066">
        <ele>3763</ele>
        <time>2022-10-23T03:01:17.000Z</time>
      </trkpt>
      <trkpt lat="27.843082" lon="86.775091">
        <ele>3763</ele>
        <time>2022-10-23T03:01:20.000Z</time>
      </trkpt>
      <trkpt lat="27.843088" lon="86.77511">
        <ele>3763</ele>
        <time>2022-10-23T03:01:22.000Z</time>
      </trkpt>
      <trkpt lat="27.843094" lon="86.77513">
        <ele>3762.8</ele>
        <time>2022-10-23T03:01:25.000Z</time>
      </trkpt>
      <trkpt lat="27.843101" lon="86.775162">
        <ele>3762.6</ele>
        <time>2022-10-23T03:01:27.000Z</time>
      </trkpt>
      <trkpt lat="27.843104" lon="86.775194">
        <ele>3762.8</ele>
        <time>2022-10-23T03:01:30.000Z</time>
      </trkpt>
      <trkpt lat="27.84311" lon="86.775213">
        <ele>3762.8</ele>
        <time>2022-10-23T03:01:32.000Z</time>
      </trkpt>
      <trkpt lat="27.843114" lon="86.775238">
        <ele>3762.8</ele>
        <time>2022-10-23T03:01:34.000Z</time>
      </trkpt>
      <trkpt lat="27.84313" lon="86.775251">
        <ele>3762.8</ele>
        <time>2022-10-23T03:01:37.000Z</time>
      </trkpt>
      <trkpt lat="27.843139" lon="86.775277">
        <ele>3763</ele>
        <time>2022-10-23T03:01:39.000Z</time>
      </trkpt>
      <trkpt lat="27.843146" lon="86.775296">
        <ele>3763.4</ele>
        <time>2022-10-23T03:01:41.000Z</time>
      </trkpt>
      <trkpt lat="27.843152" lon="86.775315">
        <ele>3763.6</ele>
        <time>2022-10-23T03:01:43.000Z</time>
      </trkpt>
      <trkpt lat="27.843133" lon="86.775315">
        <ele>3763.6</ele>
        <time>2022-10-23T03:02:22.000Z</time>
      </trkpt>
      <trkpt lat="27.84313" lon="86.775347">
        <ele>3765</ele>
        <time>2022-10-23T03:09:24.000Z</time>
      </trkpt>
      <trkpt lat="27.843136" lon="86.775366">
        <ele>3764.8</ele>
        <time>2022-10-23T03:09:26.000Z</time>
      </trkpt>
      <trkpt lat="27.843142" lon="86.775398">
        <ele>3764.8</ele>
        <time>2022-10-23T03:09:28.000Z</time>
      </trkpt>
      <trkpt lat="27.843142" lon="86.77543">
        <ele>3764.8</ele>
        <time>2022-10-23T03:09:30.000Z</time>
      </trkpt>
      <trkpt lat="27.843149" lon="86.775462">
        <ele>3764.8</ele>
        <time>2022-10-23T03:09:32.000Z</time>
      </trkpt>
      <trkpt lat="27.843162" lon="86.775482">
        <ele>3764.6</ele>
        <time>2022-10-23T03:09:35.000Z</time>
      </trkpt>
      <trkpt lat="27.843174" lon="86.775507">
        <ele>3764.8</ele>
        <time>2022-10-23T03:09:38.000Z</time>
      </trkpt>
      <trkpt lat="27.843184" lon="86.775533">
        <ele>3765</ele>
        <time>2022-10-23T03:09:42.000Z</time>
      </trkpt>
      <trkpt lat="27.84319" lon="86.775552">
        <ele>3765</ele>
        <time>2022-10-23T03:09:44.000Z</time>
      </trkpt>
      <trkpt lat="27.84321" lon="86.775558">
        <ele>3765.4</ele>
        <time>2022-10-23T03:09:47.000Z</time>
      </trkpt>
      <trkpt lat="27.843219" lon="86.775584">
        <ele>3765.4</ele>
        <time>2022-10-23T03:09:50.000Z</time>
      </trkpt>
      <trkpt lat="27.843229" lon="86.775603">
        <ele>3766.2</ele>
        <time>2022-10-23T03:09:53.000Z</time>
      </trkpt>
      <trkpt lat="27.843222" lon="86.775629">
        <ele>3766.2</ele>
        <time>2022-10-23T03:09:56.000Z</time>
      </trkpt>
      <trkpt lat="27.843229" lon="86.775661">
        <ele>3766.8</ele>
        <time>2022-10-23T03:09:59.000Z</time>
      </trkpt>
      <trkpt lat="27.843229" lon="86.775686">
        <ele>3767</ele>
        <time>2022-10-23T03:10:03.000Z</time>
      </trkpt>
      <trkpt lat="27.843229" lon="86.775718">
        <ele>3767.2</ele>
        <time>2022-10-23T03:10:06.000Z</time>
      </trkpt>
      <trkpt lat="27.843222" lon="86.775744">
        <ele>3767.6</ele>
        <time>2022-10-23T03:10:09.000Z</time>
      </trkpt>
      <trkpt lat="27.843219" lon="86.77577">
        <ele>3767.6</ele>
        <time>2022-10-23T03:10:12.000Z</time>
      </trkpt>
      <trkpt lat="27.843216" lon="86.775795">
        <ele>3767.6</ele>
        <time>2022-10-23T03:10:16.000Z</time>
      </trkpt>
      <trkpt lat="27.843219" lon="86.775821">
        <ele>3767</ele>
        <time>2022-10-23T03:10:20.000Z</time>
      </trkpt>
      <trkpt lat="27.843219" lon="86.775846">
        <ele>3766.2</ele>
        <time>2022-10-23T03:10:23.000Z</time>
      </trkpt>
      <trkpt lat="27.843219" lon="86.775872">
        <ele>3766.2</ele>
        <time>2022-10-23T03:10:25.000Z</time>
      </trkpt>
      <trkpt lat="27.843213" lon="86.775891">
        <ele>3766</ele>
        <time>2022-10-23T03:10:28.000Z</time>
      </trkpt>
      <trkpt lat="27.843203" lon="86.775917">
        <ele>3765.8</ele>
        <time>2022-10-23T03:10:30.000Z</time>
      </trkpt>
      <trkpt lat="27.843194" lon="86.775949">
        <ele>3765.4</ele>
        <time>2022-10-23T03:10:33.000Z</time>
      </trkpt>
      <trkpt lat="27.843181" lon="86.775968">
        <ele>3765</ele>
        <time>2022-10-23T03:10:36.000Z</time>
      </trkpt>
      <trkpt lat="27.843165" lon="86.775981">
        <ele>3765</ele>
        <time>2022-10-23T03:10:38.000Z</time>
      </trkpt>
      <trkpt lat="27.843184" lon="86.775994">
        <ele>3765.4</ele>
        <time>2022-10-23T03:10:41.000Z</time>
      </trkpt>
      <trkpt lat="27.8432" lon="86.776006">
        <ele>3765.2</ele>
        <time>2022-10-23T03:10:43.000Z</time>
      </trkpt>
      <trkpt lat="27.843216" lon="86.776026">
        <ele>3765.2</ele>
        <time>2022-10-23T03:10:46.000Z</time>
      </trkpt>
      <trkpt lat="27.843238" lon="86.776045">
        <ele>3765.4</ele>
        <time>2022-10-23T03:10:49.000Z</time>
      </trkpt>
      <trkpt lat="27.843248" lon="86.776064">
        <ele>3765.4</ele>
        <time>2022-10-23T03:10:50.000Z</time>
      </trkpt>
      <trkpt lat="27.843267" lon="86.776083">
        <ele>3765.8</ele>
        <time>2022-10-23T03:10:53.000Z</time>
      </trkpt>
      <trkpt lat="27.843274" lon="86.776102">
        <ele>3765.8</ele>
        <time>2022-10-23T03:10:54.000Z</time>
      </trkpt>
      <trkpt lat="27.843293" lon="86.776122">
        <ele>3765.8</ele>
        <time>2022-10-23T03:10:57.000Z</time>
      </trkpt>
      <trkpt lat="27.843293" lon="86.776154">
        <ele>3766</ele>
        <time>2022-10-23T03:11:00.000Z</time>
      </trkpt>
      <trkpt lat="27.843296" lon="86.776179">
        <ele>3766</ele>
        <time>2022-10-23T03:11:02.000Z</time>
      </trkpt>
      <trkpt lat="27.843309" lon="86.776198">
        <ele>3766.4</ele>
        <time>2022-10-23T03:11:05.000Z</time>
      </trkpt>
      <trkpt lat="27.843328" lon="86.776218">
        <ele>3766.6</ele>
        <time>2022-10-23T03:11:09.000Z</time>
      </trkpt>
      <trkpt lat="27.843334" lon="86.776237">
        <ele>3767.2</ele>
        <time>2022-10-23T03:11:13.000Z</time>
      </trkpt>
      <trkpt lat="27.843354" lon="86.776243">
        <ele>3768</ele>
        <time>2022-10-23T03:11:19.000Z</time>
      </trkpt>
      <trkpt lat="27.843363" lon="86.776262">
        <ele>3768.4</ele>
        <time>2022-10-23T03:11:22.000Z</time>
      </trkpt>
      <trkpt lat="27.843382" lon="86.776269">
        <ele>3768.8</ele>
        <time>2022-10-23T03:11:26.000Z</time>
      </trkpt>
      <trkpt lat="27.843392" lon="86.776288">
        <ele>3769.4</ele>
        <time>2022-10-23T03:11:30.000Z</time>
      </trkpt>
      <trkpt lat="27.843402" lon="86.776307">
        <ele>3769.4</ele>
        <time>2022-10-23T03:11:32.000Z</time>
      </trkpt>
      <trkpt lat="27.843411" lon="86.776326">
        <ele>3769.2</ele>
        <time>2022-10-23T03:11:34.000Z</time>
      </trkpt>
      <trkpt lat="27.843421" lon="86.776346">
        <ele>3769</ele>
        <time>2022-10-23T03:11:36.000Z</time>
      </trkpt>
      <trkpt lat="27.84344" lon="86.776365">
        <ele>3768.6</ele>
        <time>2022-10-23T03:11:39.000Z</time>
      </trkpt>
      <trkpt lat="27.84345" lon="86.776384">
        <ele>3768.4</ele>
        <time>2022-10-23T03:11:42.000Z</time>
      </trkpt>
      <trkpt lat="27.843459" lon="86.776403">
        <ele>3768.4</ele>
        <time>2022-10-23T03:11:44.000Z</time>
      </trkpt>
      <trkpt lat="27.843469" lon="86.776422">
        <ele>3768.8</ele>
        <time>2022-10-23T03:11:46.000Z</time>
      </trkpt>
      <trkpt lat="27.843478" lon="86.776442">
        <ele>3768.4</ele>
        <time>2022-10-23T03:11:48.000Z</time>
      </trkpt>
      <trkpt lat="27.843491" lon="86.776467">
        <ele>3768.4</ele>
        <time>2022-10-23T03:11:50.000Z</time>
      </trkpt>
      <trkpt lat="27.84351" lon="86.776486">
        <ele>3768.2</ele>
        <time>2022-10-23T03:11:53.000Z</time>
      </trkpt>
      <trkpt lat="27.843526" lon="86.776499">
        <ele>3768.2</ele>
        <time>2022-10-23T03:11:55.000Z</time>
      </trkpt>
      <trkpt lat="27.843549" lon="86.776512">
        <ele>3768.2</ele>
        <time>2022-10-23T03:11:58.000Z</time>
      </trkpt>
      <trkpt lat="27.843568" lon="86.776518">
        <ele>3768.2</ele>
        <time>2022-10-23T03:12:00.000Z</time>
      </trkpt>
      <trkpt lat="27.843581" lon="86.776538">
        <ele>3768.2</ele>
        <time>2022-10-23T03:12:02.000Z</time>
      </trkpt>
      <trkpt lat="27.8436" lon="86.776544">
        <ele>3768.2</ele>
        <time>2022-10-23T03:12:04.000Z</time>
      </trkpt>
      <trkpt lat="27.843616" lon="86.776557">
        <ele>3768.2</ele>
        <time>2022-10-23T03:12:06.000Z</time>
      </trkpt>
      <trkpt lat="27.843629" lon="86.776576">
        <ele>3768.2</ele>
        <time>2022-10-23T03:12:08.000Z</time>
      </trkpt>
      <trkpt lat="27.843645" lon="86.776595">
        <ele>3769</ele>
        <time>2022-10-23T03:12:11.000Z</time>
      </trkpt>
      <trkpt lat="27.843667" lon="86.776614">
        <ele>3768.8</ele>
        <time>2022-10-23T03:12:14.000Z</time>
      </trkpt>
      <trkpt lat="27.84369" lon="86.776627">
        <ele>3768.8</ele>
        <time>2022-10-23T03:12:17.000Z</time>
      </trkpt>
      <trkpt lat="27.843709" lon="86.77664">
        <ele>3769</ele>
        <time>2022-10-23T03:12:20.000Z</time>
      </trkpt>
      <trkpt lat="27.843722" lon="86.776659">
        <ele>3769</ele>
        <time>2022-10-23T03:12:22.000Z</time>
      </trkpt>
      <trkpt lat="27.843738" lon="86.776672">
        <ele>3769</ele>
        <time>2022-10-23T03:12:24.000Z</time>
      </trkpt>
      <trkpt lat="27.843757" lon="86.776685">
        <ele>3769</ele>
        <time>2022-10-23T03:12:27.000Z</time>
      </trkpt>
      <trkpt lat="27.84377" lon="86.776704">
        <ele>3769.2</ele>
        <time>2022-10-23T03:12:29.000Z</time>
      </trkpt>
      <trkpt lat="27.843786" lon="86.776717">
        <ele>3769.4</ele>
        <time>2022-10-23T03:12:32.000Z</time>
      </trkpt>
      <trkpt lat="27.843798" lon="86.776736">
        <ele>3769.4</ele>
        <time>2022-10-23T03:12:34.000Z</time>
      </trkpt>
      <trkpt lat="27.843814" lon="86.776749">
        <ele>3769.6</ele>
        <time>2022-10-23T03:12:36.000Z</time>
      </trkpt>
      <trkpt lat="27.843834" lon="86.776762">
        <ele>3769.6</ele>
        <time>2022-10-23T03:12:39.000Z</time>
      </trkpt>
      <trkpt lat="27.84384" lon="86.776781">
        <ele>3770</ele>
        <time>2022-10-23T03:12:41.000Z</time>
      </trkpt>
      <trkpt lat="27.843862" lon="86.776794">
        <ele>3770.2</ele>
        <time>2022-10-23T03:12:44.000Z</time>
      </trkpt>
      <trkpt lat="27.843872" lon="86.776813">
        <ele>3770.4</ele>
        <time>2022-10-23T03:12:46.000Z</time>
      </trkpt>
      <trkpt lat="27.843888" lon="86.776826">
        <ele>3770.2</ele>
        <time>2022-10-23T03:12:48.000Z</time>
      </trkpt>
      <trkpt lat="27.843904" lon="86.776838">
        <ele>3770.4</ele>
        <time>2022-10-23T03:12:50.000Z</time>
      </trkpt>
      <trkpt lat="27.843917" lon="86.776858">
        <ele>3770.4</ele>
        <time>2022-10-23T03:12:52.000Z</time>
      </trkpt>
      <trkpt lat="27.843933" lon="86.77687">
        <ele>3770.8</ele>
        <time>2022-10-23T03:12:55.000Z</time>
      </trkpt>
      <trkpt lat="27.843949" lon="86.776883">
        <ele>3770.8</ele>
        <time>2022-10-23T03:12:58.000Z</time>
      </trkpt>
      <trkpt lat="27.843965" lon="86.776896">
        <ele>3770.8</ele>
        <time>2022-10-23T03:13:00.000Z</time>
      </trkpt>
      <trkpt lat="27.843984" lon="86.776902">
        <ele>3771.4</ele>
        <time>2022-10-23T03:13:03.000Z</time>
      </trkpt>
      <trkpt lat="27.844003" lon="86.776909">
        <ele>3771.6</ele>
        <time>2022-10-23T03:13:06.000Z</time>
      </trkpt>
      <trkpt lat="27.844026" lon="86.776922">
        <ele>3771.6</ele>
        <time>2022-10-23T03:13:09.000Z</time>
      </trkpt>
      <trkpt lat="27.844035" lon="86.776941">
        <ele>3771.8</ele>
        <time>2022-10-23T03:13:11.000Z</time>
      </trkpt>
      <trkpt lat="27.844054" lon="86.776954">
        <ele>3772</ele>
        <time>2022-10-23T03:13:14.000Z</time>
      </trkpt>
      <trkpt lat="27.844067" lon="86.776973">
        <ele>3772.4</ele>
        <time>2022-10-23T03:13:17.000Z</time>
      </trkpt>
      <trkpt lat="27.844093" lon="86.776986">
        <ele>3772.8</ele>
        <time>2022-10-23T03:13:20.000Z</time>
      </trkpt>
      <trkpt lat="27.844112" lon="86.776992">
        <ele>3772.8</ele>
        <time>2022-10-23T03:13:22.000Z</time>
      </trkpt>
      <trkpt lat="27.844138" lon="86.777011">
        <ele>3773</ele>
        <time>2022-10-23T03:13:25.000Z</time>
      </trkpt>
      <trkpt lat="27.844163" lon="86.777024">
        <ele>3773</ele>
        <time>2022-10-23T03:13:28.000Z</time>
      </trkpt>
      <trkpt lat="27.844186" lon="86.777037">
        <ele>3773</ele>
        <time>2022-10-23T03:13:31.000Z</time>
      </trkpt>
      <trkpt lat="27.844205" lon="86.777043">
        <ele>3773</ele>
        <time>2022-10-23T03:13:33.000Z</time>
      </trkpt>
      <trkpt lat="27.844221" lon="86.777056">
        <ele>3773.2</ele>
        <time>2022-10-23T03:13:35.000Z</time>
      </trkpt>
      <trkpt lat="27.844234" lon="86.777075">
        <ele>3773.6</ele>
        <time>2022-10-23T03:13:38.000Z</time>
      </trkpt>
      <trkpt lat="27.84425" lon="86.777094">
        <ele>3773.6</ele>
        <time>2022-10-23T03:13:41.000Z</time>
      </trkpt>
      <trkpt lat="27.844262" lon="86.777114">
        <ele>3773.8</ele>
        <time>2022-10-23T03:13:43.000Z</time>
      </trkpt>
      <trkpt lat="27.844282" lon="86.77712">
        <ele>3774</ele>
        <time>2022-10-23T03:13:45.000Z</time>
      </trkpt>
      <trkpt lat="27.844304" lon="86.777133">
        <ele>3774.2</ele>
        <time>2022-10-23T03:13:48.000Z</time>
      </trkpt>
      <trkpt lat="27.844326" lon="86.777139">
        <ele>3774.6</ele>
        <time>2022-10-23T03:13:51.000Z</time>
      </trkpt>
      <trkpt lat="27.844342" lon="86.777152">
        <ele>3774.6</ele>
        <time>2022-10-23T03:13:54.000Z</time>
      </trkpt>
      <trkpt lat="27.844352" lon="86.777171">
        <ele>3774.8</ele>
        <time>2022-10-23T03:13:57.000Z</time>
      </trkpt>
      <trkpt lat="27.844368" lon="86.777184">
        <ele>3775</ele>
        <time>2022-10-23T03:14:01.000Z</time>
      </trkpt>
      <trkpt lat="27.844378" lon="86.77721">
        <ele>3775.6</ele>
        <time>2022-10-23T03:14:12.000Z</time>
      </trkpt>
      <trkpt lat="27.844397" lon="86.777216">
        <ele>3776.2</ele>
        <time>2022-10-23T03:15:34.000Z</time>
      </trkpt>
      <trkpt lat="27.844416" lon="86.777242">
        <ele>3776.2</ele>
        <time>2022-10-23T03:15:54.000Z</time>
      </trkpt>
      <trkpt lat="27.844426" lon="86.777261">
        <ele>3776.2</ele>
        <time>2022-10-23T03:15:55.000Z</time>
      </trkpt>
      <trkpt lat="27.844451" lon="86.77728">
        <ele>3775.8</ele>
        <time>2022-10-23T03:15:57.000Z</time>
      </trkpt>
      <trkpt lat="27.844474" lon="86.777299">
        <ele>3776.2</ele>
        <time>2022-10-23T03:15:59.000Z</time>
      </trkpt>
      <trkpt lat="27.844496" lon="86.777318">
        <ele>3775.8</ele>
        <time>2022-10-23T03:16:01.000Z</time>
      </trkpt>
      <trkpt lat="27.844522" lon="86.777338">
        <ele>3776.2</ele>
        <time>2022-10-23T03:16:03.000Z</time>
      </trkpt>
      <trkpt lat="27.844541" lon="86.777344">
        <ele>3775.6</ele>
        <time>2022-10-23T03:16:06.000Z</time>
      </trkpt>
      <trkpt lat="27.84456" lon="86.77735">
        <ele>3775.8</ele>
        <time>2022-10-23T03:16:08.000Z</time>
      </trkpt>
      <trkpt lat="27.844579" lon="86.777357">
        <ele>3775.8</ele>
        <time>2022-10-23T03:16:10.000Z</time>
      </trkpt>
      <trkpt lat="27.844598" lon="86.77737">
        <ele>3775.8</ele>
        <time>2022-10-23T03:16:12.000Z</time>
      </trkpt>
      <trkpt lat="27.844621" lon="86.77737">
        <ele>3776.4</ele>
        <time>2022-10-23T03:16:15.000Z</time>
      </trkpt>
      <trkpt lat="27.844643" lon="86.77737">
        <ele>3776.4</ele>
        <time>2022-10-23T03:16:18.000Z</time>
      </trkpt>
      <trkpt lat="27.844669" lon="86.77737">
        <ele>3776</ele>
        <time>2022-10-23T03:16:21.000Z</time>
      </trkpt>
      <trkpt lat="27.844691" lon="86.777357">
        <ele>3776.4</ele>
        <time>2022-10-23T03:16:24.000Z</time>
      </trkpt>
      <trkpt lat="27.844707" lon="86.77737">
        <ele>3776.6</ele>
        <time>2022-10-23T03:16:26.000Z</time>
      </trkpt>
      <trkpt lat="27.844726" lon="86.777382">
        <ele>3776.4</ele>
        <time>2022-10-23T03:16:28.000Z</time>
      </trkpt>
      <trkpt lat="27.844752" lon="86.777389">
        <ele>3776.6</ele>
        <time>2022-10-23T03:16:31.000Z</time>
      </trkpt>
      <trkpt lat="27.844771" lon="86.777395">
        <ele>3776.8</ele>
        <time>2022-10-23T03:16:33.000Z</time>
      </trkpt>
      <trkpt lat="27.8448" lon="86.777402">
        <ele>3776.8</ele>
        <time>2022-10-23T03:16:37.000Z</time>
      </trkpt>
      <trkpt lat="27.844822" lon="86.777421">
        <ele>3777.4</ele>
        <time>2022-10-23T03:16:40.000Z</time>
      </trkpt>
      <trkpt lat="27.844848" lon="86.777434">
        <ele>3777.4</ele>
        <time>2022-10-23T03:16:43.000Z</time>
      </trkpt>
      <trkpt lat="27.844867" lon="86.77744">
        <ele>3777.4</ele>
        <time>2022-10-23T03:16:45.000Z</time>
      </trkpt>
      <trkpt lat="27.844883" lon="86.777453">
        <ele>3777.4</ele>
        <time>2022-10-23T03:16:47.000Z</time>
      </trkpt>
      <trkpt lat="27.844906" lon="86.777459">
        <ele>3777.8</ele>
        <time>2022-10-23T03:16:50.000Z</time>
      </trkpt>
      <trkpt lat="27.844931" lon="86.777466">
        <ele>3777.8</ele>
        <time>2022-10-23T03:16:52.000Z</time>
      </trkpt>
      <trkpt lat="27.844957" lon="86.777478">
        <ele>3777.8</ele>
        <time>2022-10-23T03:16:54.000Z</time>
      </trkpt>
      <trkpt lat="27.844973" lon="86.777498">
        <ele>3777.8</ele>
        <time>2022-10-23T03:16:56.000Z</time>
      </trkpt>
      <trkpt lat="27.844992" lon="86.777504">
        <ele>3777.8</ele>
        <time>2022-10-23T03:16:58.000Z</time>
      </trkpt>
      <trkpt lat="27.845014" lon="86.77751">
        <ele>3777.8</ele>
        <time>2022-10-23T03:17:00.000Z</time>
      </trkpt>
      <trkpt lat="27.845034" lon="86.77753">
        <ele>3777.8</ele>
        <time>2022-10-23T03:17:02.000Z</time>
      </trkpt>
      <trkpt lat="27.845056" lon="86.777536">
        <ele>3778</ele>
        <time>2022-10-23T03:17:05.000Z</time>
      </trkpt>
      <trkpt lat="27.845075" lon="86.777536">
        <ele>3777.8</ele>
        <time>2022-10-23T03:17:07.000Z</time>
      </trkpt>
      <trkpt lat="27.845104" lon="86.777542">
        <ele>3777.8</ele>
        <time>2022-10-23T03:17:10.000Z</time>
      </trkpt>
      <trkpt lat="27.84513" lon="86.777542">
        <ele>3778.6</ele>
        <time>2022-10-23T03:17:14.000Z</time>
      </trkpt>
      <trkpt lat="27.845149" lon="86.777555">
        <ele>3779</ele>
        <time>2022-10-23T03:17:18.000Z</time>
      </trkpt>
      <trkpt lat="27.845162" lon="86.777574">
        <ele>3779</ele>
        <time>2022-10-23T03:17:21.000Z</time>
      </trkpt>
      <trkpt lat="27.845184" lon="86.777587">
        <ele>3779</ele>
        <time>2022-10-23T03:17:25.000Z</time>
      </trkpt>
      <trkpt lat="27.84521" lon="86.7776">
        <ele>3779.6</ele>
        <time>2022-10-23T03:17:29.000Z</time>
      </trkpt>
      <trkpt lat="27.845229" lon="86.777619">
        <ele>3779.8</ele>
        <time>2022-10-23T03:17:32.000Z</time>
      </trkpt>
      <trkpt lat="27.845254" lon="86.777632">
        <ele>3779.8</ele>
        <time>2022-10-23T03:17:35.000Z</time>
      </trkpt>
      <trkpt lat="27.845277" lon="86.777651">
        <ele>3780</ele>
        <time>2022-10-23T03:17:38.000Z</time>
      </trkpt>
      <trkpt lat="27.845296" lon="86.777664">
        <ele>3780.4</ele>
        <time>2022-10-23T03:17:41.000Z</time>
      </trkpt>
      <trkpt lat="27.845315" lon="86.777677">
        <ele>3780.4</ele>
        <time>2022-10-23T03:17:44.000Z</time>
      </trkpt>
      <trkpt lat="27.845331" lon="86.777696">
        <ele>3780.4</ele>
        <time>2022-10-23T03:17:46.000Z</time>
      </trkpt>
      <trkpt lat="27.845347" lon="86.777709">
        <ele>3780.6</ele>
        <time>2022-10-23T03:17:48.000Z</time>
      </trkpt>
      <trkpt lat="27.845366" lon="86.777715">
        <ele>3780.6</ele>
        <time>2022-10-23T03:17:50.000Z</time>
      </trkpt>
      <trkpt lat="27.845392" lon="86.777728">
        <ele>3780.6</ele>
        <time>2022-10-23T03:17:53.000Z</time>
      </trkpt>
      <trkpt lat="27.845408" lon="86.777741">
        <ele>3781.2</ele>
        <time>2022-10-23T03:17:55.000Z</time>
      </trkpt>
      <trkpt lat="27.845427" lon="86.777747">
        <ele>3781.2</ele>
        <time>2022-10-23T03:17:57.000Z</time>
      </trkpt>
      <trkpt lat="27.845446" lon="86.777754">
        <ele>3781.2</ele>
        <time>2022-10-23T03:17:59.000Z</time>
      </trkpt>
      <trkpt lat="27.845462" lon="86.777773">
        <ele>3781.2</ele>
        <time>2022-10-23T03:18:01.000Z</time>
      </trkpt>
      <trkpt lat="27.845485" lon="86.777779">
        <ele>3781.6</ele>
        <time>2022-10-23T03:18:04.000Z</time>
      </trkpt>
      <trkpt lat="27.845507" lon="86.777786">
        <ele>3781.8</ele>
        <time>2022-10-23T03:18:07.000Z</time>
      </trkpt>
      <trkpt lat="27.845523" lon="86.777798">
        <ele>3781.8</ele>
        <time>2022-10-23T03:18:09.000Z</time>
      </trkpt>
      <trkpt lat="27.845536" lon="86.777818">
        <ele>3782</ele>
        <time>2022-10-23T03:18:11.000Z</time>
      </trkpt>
      <trkpt lat="27.845546" lon="86.777837">
        <ele>3782.2</ele>
        <time>2022-10-23T03:18:14.000Z</time>
      </trkpt>
      <trkpt lat="27.845565" lon="86.77785">
        <ele>3782.4</ele>
        <time>2022-10-23T03:18:17.000Z</time>
      </trkpt>
      <trkpt lat="27.845587" lon="86.777856">
        <ele>3782.8</ele>
        <time>2022-10-23T03:18:20.000Z</time>
      </trkpt>
      <trkpt lat="27.845606" lon="86.777862">
        <ele>3783</ele>
        <time>2022-10-23T03:18:22.000Z</time>
      </trkpt>
      <trkpt lat="27.845632" lon="86.777869">
        <ele>3783.2</ele>
        <time>2022-10-23T03:18:25.000Z</time>
      </trkpt>
      <trkpt lat="27.845654" lon="86.777875">
        <ele>3783.6</ele>
        <time>2022-10-23T03:18:28.000Z</time>
      </trkpt>
      <trkpt lat="27.845674" lon="86.777888">
        <ele>3783.6</ele>
        <time>2022-10-23T03:18:32.000Z</time>
      </trkpt>
      <trkpt lat="27.845696" lon="86.777894">
        <ele>3783.8</ele>
        <time>2022-10-23T03:18:35.000Z</time>
      </trkpt>
      <trkpt lat="27.845718" lon="86.777901">
        <ele>3783.6</ele>
        <time>2022-10-23T03:18:37.000Z</time>
      </trkpt>
      <trkpt lat="27.845741" lon="86.777901">
        <ele>3784.2</ele>
        <time>2022-10-23T03:18:40.000Z</time>
      </trkpt>
      <trkpt lat="27.84576" lon="86.777907">
        <ele>3784.2</ele>
        <time>2022-10-23T03:18:42.000Z</time>
      </trkpt>
      <trkpt lat="27.845789" lon="86.777914">
        <ele>3784.6</ele>
        <time>2022-10-23T03:18:46.000Z</time>
      </trkpt>
      <trkpt lat="27.845811" lon="86.777926">
        <ele>3784.8</ele>
        <time>2022-10-23T03:18:49.000Z</time>
      </trkpt>
      <trkpt lat="27.845827" lon="86.777939">
        <ele>3785.2</ele>
        <time>2022-10-23T03:18:51.000Z</time>
      </trkpt>
      <trkpt lat="27.845846" lon="86.777946">
        <ele>3785.2</ele>
        <time>2022-10-23T03:18:54.000Z</time>
      </trkpt>
      <trkpt lat="27.845869" lon="86.777946">
        <ele>3785.8</ele>
        <time>2022-10-23T03:18:57.000Z</time>
      </trkpt>
      <trkpt lat="27.845891" lon="86.777946">
        <ele>3785.6</ele>
        <time>2022-10-23T03:19:00.000Z</time>
      </trkpt>
      <trkpt lat="27.84591" lon="86.777952">
        <ele>3785.8</ele>
        <time>2022-10-23T03:19:02.000Z</time>
      </trkpt>
      <trkpt lat="27.84593" lon="86.777965">
        <ele>3785.8</ele>
        <time>2022-10-23T03:19:04.000Z</time>
      </trkpt>
      <trkpt lat="27.845949" lon="86.777978">
        <ele>3785.8</ele>
        <time>2022-10-23T03:19:06.000Z</time>
      </trkpt>
      <trkpt lat="27.845971" lon="86.777984">
        <ele>3786.4</ele>
        <time>2022-10-23T03:19:09.000Z</time>
      </trkpt>
      <trkpt lat="27.84599" lon="86.77799">
        <ele>3786.6</ele>
        <time>2022-10-23T03:19:12.000Z</time>
      </trkpt>
      <trkpt lat="27.846016" lon="86.778016">
        <ele>3786.6</ele>
        <time>2022-10-23T03:19:15.000Z</time>
      </trkpt>
      <trkpt lat="27.846032" lon="86.778029">
        <ele>3786.8</ele>
        <time>2022-10-23T03:19:18.000Z</time>
      </trkpt>
      <trkpt lat="27.846045" lon="86.778048">
        <ele>3786.6</ele>
        <time>2022-10-23T03:19:20.000Z</time>
      </trkpt>
      <trkpt lat="27.846064" lon="86.778054">
        <ele>3786.8</ele>
        <time>2022-10-23T03:19:22.000Z</time>
      </trkpt>
      <trkpt lat="27.84609" lon="86.778067">
        <ele>3787</ele>
        <time>2022-10-23T03:19:25.000Z</time>
      </trkpt>
      <trkpt lat="27.846109" lon="86.778074">
        <ele>3787</ele>
        <time>2022-10-23T03:19:27.000Z</time>
      </trkpt>
      <trkpt lat="27.846122" lon="86.778093">
        <ele>3787</ele>
        <time>2022-10-23T03:19:29.000Z</time>
      </trkpt>
      <trkpt lat="27.846141" lon="86.778106">
        <ele>3787</ele>
        <time>2022-10-23T03:19:32.000Z</time>
      </trkpt>
      <trkpt lat="27.84615" lon="86.778125">
        <ele>3787</ele>
        <time>2022-10-23T03:19:35.000Z</time>
      </trkpt>
      <trkpt lat="27.846173" lon="86.778125">
        <ele>3787</ele>
        <time>2022-10-23T03:19:38.000Z</time>
      </trkpt>
      <trkpt lat="27.846198" lon="86.778131">
        <ele>3786.8</ele>
        <time>2022-10-23T03:19:41.000Z</time>
      </trkpt>
      <trkpt lat="27.846218" lon="86.77815">
        <ele>3787</ele>
        <time>2022-10-23T03:19:44.000Z</time>
      </trkpt>
      <trkpt lat="27.846234" lon="86.778163">
        <ele>3787</ele>
        <time>2022-10-23T03:19:46.000Z</time>
      </trkpt>
      <trkpt lat="27.846253" lon="86.77817">
        <ele>3787.2</ele>
        <time>2022-10-23T03:19:49.000Z</time>
      </trkpt>
      <trkpt lat="27.846278" lon="86.778176">
        <ele>3787.6</ele>
        <time>2022-10-23T03:19:52.000Z</time>
      </trkpt>
      <trkpt lat="27.846304" lon="86.778195">
        <ele>3787.8</ele>
        <time>2022-10-23T03:19:55.000Z</time>
      </trkpt>
      <trkpt lat="27.84633" lon="86.778208">
        <ele>3788</ele>
        <time>2022-10-23T03:19:58.000Z</time>
      </trkpt>
      <trkpt lat="27.846355" lon="86.778214">
        <ele>3788.6</ele>
        <time>2022-10-23T03:20:02.000Z</time>
      </trkpt>
      <trkpt lat="27.846378" lon="86.778227">
        <ele>3788.6</ele>
        <time>2022-10-23T03:20:05.000Z</time>
      </trkpt>
      <trkpt lat="27.846394" lon="86.778246">
        <ele>3788.8</ele>
        <time>2022-10-23T03:20:08.000Z</time>
      </trkpt>
      <trkpt lat="27.84641" lon="86.778266">
        <ele>3789.2</ele>
        <time>2022-10-23T03:20:11.000Z</time>
      </trkpt>
      <trkpt lat="27.846426" lon="86.778285">
        <ele>3789.8</ele>
        <time>2022-10-23T03:20:14.000Z</time>
      </trkpt>
      <trkpt lat="27.846442" lon="86.778298">
        <ele>3789.8</ele>
        <time>2022-10-23T03:20:17.000Z</time>
      </trkpt>
      <trkpt lat="27.846464" lon="86.77831">
        <ele>3790.2</ele>
        <time>2022-10-23T03:20:20.000Z</time>
      </trkpt>
      <trkpt lat="27.846483" lon="86.77833">
        <ele>3790.2</ele>
        <time>2022-10-23T03:20:23.000Z</time>
      </trkpt>
      <trkpt lat="27.846499" lon="86.778342">
        <ele>3790.6</ele>
        <time>2022-10-23T03:20:26.000Z</time>
      </trkpt>
      <trkpt lat="27.846522" lon="86.778342">
        <ele>3790.8</ele>
        <time>2022-10-23T03:20:28.000Z</time>
      </trkpt>
      <trkpt lat="27.846534" lon="86.778362">
        <ele>3791</ele>
        <time>2022-10-23T03:20:30.000Z</time>
      </trkpt>
      <trkpt lat="27.846557" lon="86.778374">
        <ele>3791.2</ele>
        <time>2022-10-23T03:20:33.000Z</time>
      </trkpt>
      <trkpt lat="27.846576" lon="86.778387">
        <ele>3791.8</ele>
        <time>2022-10-23T03:20:37.000Z</time>
      </trkpt>
      <trkpt lat="27.846598" lon="86.778394">
        <ele>3792</ele>
        <time>2022-10-23T03:20:40.000Z</time>
      </trkpt>
      <trkpt lat="27.846614" lon="86.778406">
        <ele>3792</ele>
        <time>2022-10-23T03:20:42.000Z</time>
      </trkpt>
      <trkpt lat="27.846637" lon="86.778413">
        <ele>3792.2</ele>
        <time>2022-10-23T03:20:45.000Z</time>
      </trkpt>
      <trkpt lat="27.846656" lon="86.778413">
        <ele>3792.4</ele>
        <time>2022-10-23T03:20:48.000Z</time>
      </trkpt>
      <trkpt lat="27.846675" lon="86.778419">
        <ele>3793.2</ele>
        <time>2022-10-23T03:20:51.000Z</time>
      </trkpt>
      <trkpt lat="27.846704" lon="86.778432">
        <ele>3793.2</ele>
        <time>2022-10-23T03:20:54.000Z</time>
      </trkpt>
      <trkpt lat="27.84672" lon="86.778445">
        <ele>3793.4</ele>
        <time>2022-10-23T03:20:56.000Z</time>
      </trkpt>
      <trkpt lat="27.846739" lon="86.778451">
        <ele>3793.6</ele>
        <time>2022-10-23T03:20:59.000Z</time>
      </trkpt>
      <trkpt lat="27.846765" lon="86.778458">
        <ele>3793.8</ele>
        <time>2022-10-23T03:21:03.000Z</time>
      </trkpt>
      <trkpt lat="27.846787" lon="86.778464">
        <ele>3794.2</ele>
        <time>2022-10-23T03:21:06.000Z</time>
      </trkpt>
      <trkpt lat="27.846806" lon="86.778464">
        <ele>3794.2</ele>
        <time>2022-10-23T03:21:09.000Z</time>
      </trkpt>
      <trkpt lat="27.846829" lon="86.778464">
        <ele>3794.8</ele>
        <time>2022-10-23T03:21:11.000Z</time>
      </trkpt>
      <trkpt lat="27.846851" lon="86.77847">
        <ele>3794.8</ele>
        <time>2022-10-23T03:21:14.000Z</time>
      </trkpt>
      <trkpt lat="27.846867" lon="86.778483">
        <ele>3794.8</ele>
        <time>2022-10-23T03:21:16.000Z</time>
      </trkpt>
      <trkpt lat="27.846886" lon="86.778483">
        <ele>3795</ele>
        <time>2022-10-23T03:21:19.000Z</time>
      </trkpt>
      <trkpt lat="27.846912" lon="86.778496">
        <ele>3795.4</ele>
        <time>2022-10-23T03:21:23.000Z</time>
      </trkpt>
      <trkpt lat="27.846934" lon="86.778496">
        <ele>3795.2</ele>
        <time>2022-10-23T03:21:25.000Z</time>
      </trkpt>
      <trkpt lat="27.846954" lon="86.778502">
        <ele>3795.8</ele>
        <time>2022-10-23T03:21:29.000Z</time>
      </trkpt>
      <trkpt lat="27.846976" lon="86.778502">
        <ele>3796</ele>
        <time>2022-10-23T03:21:32.000Z</time>
      </trkpt>
      <trkpt lat="27.847002" lon="86.778509">
        <ele>3796.4</ele>
        <time>2022-10-23T03:21:36.000Z</time>
      </trkpt>
      <trkpt lat="27.847021" lon="86.778509">
        <ele>3796.8</ele>
        <time>2022-10-23T03:21:39.000Z</time>
      </trkpt>
      <trkpt lat="27.84704" lon="86.778509">
        <ele>3797.2</ele>
        <time>2022-10-23T03:21:42.000Z</time>
      </trkpt>
      <trkpt lat="27.847066" lon="86.778509">
        <ele>3797.2</ele>
        <time>2022-10-23T03:21:45.000Z</time>
      </trkpt>
      <trkpt lat="27.847085" lon="86.778522">
        <ele>3797.4</ele>
        <time>2022-10-23T03:21:47.000Z</time>
      </trkpt>
      <trkpt lat="27.847104" lon="86.778528">
        <ele>3797.8</ele>
        <time>2022-10-23T03:21:49.000Z</time>
      </trkpt>
      <trkpt lat="27.847123" lon="86.778534">
        <ele>3798</ele>
        <time>2022-10-23T03:21:51.000Z</time>
      </trkpt>
      <trkpt lat="27.847152" lon="86.778541">
        <ele>3798</ele>
        <time>2022-10-23T03:21:54.000Z</time>
      </trkpt>
      <trkpt lat="27.847174" lon="86.778541">
        <ele>3798</ele>
        <time>2022-10-23T03:21:56.000Z</time>
      </trkpt>
      <trkpt lat="27.847194" lon="86.778547">
        <ele>3797.8</ele>
        <time>2022-10-23T03:21:58.000Z</time>
      </trkpt>
      <trkpt lat="27.847216" lon="86.778566">
        <ele>3798</ele>
        <time>2022-10-23T03:22:00.000Z</time>
      </trkpt>
      <trkpt lat="27.847232" lon="86.778579">
        <ele>3798</ele>
        <time>2022-10-23T03:22:02.000Z</time>
      </trkpt>
      <trkpt lat="27.847254" lon="86.778586">
        <ele>3798.2</ele>
        <time>2022-10-23T03:22:04.000Z</time>
      </trkpt>
      <trkpt lat="27.84728" lon="86.778586">
        <ele>3798.2</ele>
        <time>2022-10-23T03:22:06.000Z</time>
      </trkpt>
      <trkpt lat="27.847302" lon="86.778586">
        <ele>3798.2</ele>
        <time>2022-10-23T03:22:08.000Z</time>
      </trkpt>
      <trkpt lat="27.847322" lon="86.778579">
        <ele>3798.6</ele>
        <time>2022-10-23T03:22:10.000Z</time>
      </trkpt>
      <trkpt lat="27.847341" lon="86.778579">
        <ele>3798.6</ele>
        <time>2022-10-23T03:22:12.000Z</time>
      </trkpt>
      <trkpt lat="27.84737" lon="86.778573">
        <ele>3798.8</ele>
        <time>2022-10-23T03:23:25.000Z</time>
      </trkpt>
      <trkpt lat="27.847395" lon="86.778573">
        <ele>3798.8</ele>
        <time>2022-10-23T03:23:27.000Z</time>
      </trkpt>
      <trkpt lat="27.847411" lon="86.778592">
        <ele>3798.6</ele>
        <time>2022-10-23T03:23:29.000Z</time>
      </trkpt>
      <trkpt lat="27.84743" lon="86.778611">
        <ele>3798.6</ele>
        <time>2022-10-23T03:23:31.000Z</time>
      </trkpt>
      <trkpt lat="27.847446" lon="86.778624">
        <ele>3798.4</ele>
        <time>2022-10-23T03:23:33.000Z</time>
      </trkpt>
      <trkpt lat="27.847462" lon="86.778643">
        <ele>3798</ele>
        <time>2022-10-23T03:23:35.000Z</time>
      </trkpt>
      <trkpt lat="27.847482" lon="86.778662">
        <ele>3798.2</ele>
        <time>2022-10-23T03:23:37.000Z</time>
      </trkpt>
      <trkpt lat="27.847507" lon="86.778682">
        <ele>3797.8</ele>
        <time>2022-10-23T03:23:39.000Z</time>
      </trkpt>
      <trkpt lat="27.847523" lon="86.778694">
        <ele>3798.2</ele>
        <time>2022-10-23T03:23:41.000Z</time>
      </trkpt>
      <trkpt lat="27.847542" lon="86.778701">
        <ele>3798.2</ele>
        <time>2022-10-23T03:23:43.000Z</time>
      </trkpt>
      <trkpt lat="27.847562" lon="86.778701">
        <ele>3798.2</ele>
        <time>2022-10-23T03:23:44.000Z</time>
      </trkpt>
      <trkpt lat="27.847584" lon="86.778701">
        <ele>3798.2</ele>
        <time>2022-10-23T03:23:46.000Z</time>
      </trkpt>
      <trkpt lat="27.847603" lon="86.778707">
        <ele>3798.4</ele>
        <time>2022-10-23T03:23:48.000Z</time>
      </trkpt>
      <trkpt lat="27.847648" lon="86.778707">
        <ele>3798.4</ele>
        <time>2022-10-23T03:23:50.000Z</time>
      </trkpt>
      <trkpt lat="27.847667" lon="86.778707">
        <ele>3798.4</ele>
        <time>2022-10-23T03:23:51.000Z</time>
      </trkpt>
      <trkpt lat="27.847686" lon="86.778701">
        <ele>3798.2</ele>
        <time>2022-10-23T03:23:53.000Z</time>
      </trkpt>
      <trkpt lat="27.847706" lon="86.778707">
        <ele>3798.4</ele>
        <time>2022-10-23T03:23:56.000Z</time>
      </trkpt>
      <trkpt lat="27.847728" lon="86.778707">
        <ele>3798.6</ele>
        <time>2022-10-23T03:23:59.000Z</time>
      </trkpt>
      <trkpt lat="27.847747" lon="86.778701">
        <ele>3798.6</ele>
        <time>2022-10-23T03:24:02.000Z</time>
      </trkpt>
      <trkpt lat="27.84777" lon="86.77872">
        <ele>3798.6</ele>
        <time>2022-10-23T03:24:05.000Z</time>
      </trkpt>
      <trkpt lat="27.847789" lon="86.778733">
        <ele>3798.8</ele>
        <time>2022-10-23T03:24:09.000Z</time>
      </trkpt>
      <trkpt lat="27.847811" lon="86.778739">
        <ele>3799.6</ele>
        <time>2022-10-23T03:24:12.000Z</time>
      </trkpt>
      <trkpt lat="27.84783" lon="86.778752">
        <ele>3799.8</ele>
        <time>2022-10-23T03:24:16.000Z</time>
      </trkpt>
      <trkpt lat="27.84785" lon="86.778752">
        <ele>3800.4</ele>
        <time>2022-10-23T03:24:19.000Z</time>
      </trkpt>
      <trkpt lat="27.847869" lon="86.778746">
        <ele>3800.8</ele>
        <time>2022-10-23T03:24:22.000Z</time>
      </trkpt>
      <trkpt lat="27.847891" lon="86.778746">
        <ele>3801.8</ele>
        <time>2022-10-23T03:24:25.000Z</time>
      </trkpt>
      <trkpt lat="27.84791" lon="86.778752">
        <ele>3801.8</ele>
        <time>2022-10-23T03:24:28.000Z</time>
      </trkpt>
      <trkpt lat="27.84793" lon="86.778752">
        <ele>3802.2</ele>
        <time>2022-10-23T03:24:31.000Z</time>
      </trkpt>
      <trkpt lat="27.847949" lon="86.778752">
        <ele>3802.8</ele>
        <time>2022-10-23T03:24:35.000Z</time>
      </trkpt>
      <trkpt lat="27.847971" lon="86.778752">
        <ele>3803</ele>
        <time>2022-10-23T03:24:38.000Z</time>
      </trkpt>
      <trkpt lat="27.847997" lon="86.778746">
        <ele>3803.2</ele>
        <time>2022-10-23T03:24:41.000Z</time>
      </trkpt>
      <trkpt lat="27.848016" lon="86.778746">
        <ele>3803.6</ele>
        <time>2022-10-23T03:24:49.000Z</time>
      </trkpt>
      <trkpt lat="27.848035" lon="86.778739">
        <ele>3803.6</ele>
        <time>2022-10-23T03:24:51.000Z</time>
      </trkpt>
      <trkpt lat="27.848058" lon="86.778752">
        <ele>3803.4</ele>
        <time>2022-10-23T03:24:53.000Z</time>
      </trkpt>
      <trkpt lat="27.848074" lon="86.778771">
        <ele>3802.6</ele>
        <time>2022-10-23T03:24:55.000Z</time>
      </trkpt>
      <trkpt lat="27.848086" lon="86.77879">
        <ele>3802.4</ele>
        <time>2022-10-23T03:24:57.000Z</time>
      </trkpt>
      <trkpt lat="27.848093" lon="86.778816">
        <ele>3802.4</ele>
        <time>2022-10-23T03:24:59.000Z</time>
      </trkpt>
      <trkpt lat="27.848106" lon="86.778861">
        <ele>3802</ele>
        <time>2022-10-23T03:25:04.000Z</time>
      </trkpt>
      <trkpt lat="27.848118" lon="86.77888">
        <ele>3802</ele>
        <time>2022-10-23T03:25:06.000Z</time>
      </trkpt>
      <trkpt lat="27.848134" lon="86.778893">
        <ele>3802.2</ele>
        <time>2022-10-23T03:25:08.000Z</time>
      </trkpt>
      <trkpt lat="27.84815" lon="86.778918">
        <ele>3802.2</ele>
        <time>2022-10-23T03:25:10.000Z</time>
      </trkpt>
      <trkpt lat="27.848173" lon="86.778925">
        <ele>3802.2</ele>
        <time>2022-10-23T03:25:12.000Z</time>
      </trkpt>
      <trkpt lat="27.848195" lon="86.778931">
        <ele>3802.6</ele>
        <time>2022-10-23T03:25:15.000Z</time>
      </trkpt>
      <trkpt lat="27.848211" lon="86.77895">
        <ele>3803</ele>
        <time>2022-10-23T03:25:17.000Z</time>
      </trkpt>
      <trkpt lat="27.848221" lon="86.778976">
        <ele>3803.4</ele>
        <time>2022-10-23T03:25:19.000Z</time>
      </trkpt>
      <trkpt lat="27.848234" lon="86.779008">
        <ele>3803.4</ele>
        <time>2022-10-23T03:25:21.000Z</time>
      </trkpt>
      <trkpt lat="27.848243" lon="86.779027">
        <ele>3803</ele>
        <time>2022-10-23T03:25:23.000Z</time>
      </trkpt>
      <trkpt lat="27.848253" lon="86.779046">
        <ele>3803</ele>
        <time>2022-10-23T03:25:25.000Z</time>
      </trkpt>
      <trkpt lat="27.848269" lon="86.779066">
        <ele>3802.6</ele>
        <time>2022-10-23T03:25:27.000Z</time>
      </trkpt>
      <trkpt lat="27.848278" lon="86.779085">
        <ele>3802.4</ele>
        <time>2022-10-23T03:25:29.000Z</time>
      </trkpt>
      <trkpt lat="27.848307" lon="86.779098">
        <ele>3802.2</ele>
        <time>2022-10-23T03:25:32.000Z</time>
      </trkpt>
      <trkpt lat="27.848317" lon="86.779117">
        <ele>3802</ele>
        <time>2022-10-23T03:25:34.000Z</time>
      </trkpt>
      <trkpt lat="27.848339" lon="86.77913">
        <ele>3801.4</ele>
        <time>2022-10-23T03:25:37.000Z</time>
      </trkpt>
      <trkpt lat="27.848365" lon="86.77913">
        <ele>3801</ele>
        <time>2022-10-23T03:25:40.000Z</time>
      </trkpt>
      <trkpt lat="27.848384" lon="86.779136">
        <ele>3800.8</ele>
        <time>2022-10-23T03:25:42.000Z</time>
      </trkpt>
      <trkpt lat="27.848413" lon="86.779136">
        <ele>3800.8</ele>
        <time>2022-10-23T03:25:44.000Z</time>
      </trkpt>
      <trkpt lat="27.848422" lon="86.779162">
        <ele>3800.8</ele>
        <time>2022-10-23T03:25:47.000Z</time>
      </trkpt>
      <trkpt lat="27.848432" lon="86.779181">
        <ele>3800.8</ele>
        <time>2022-10-23T03:25:58.000Z</time>
      </trkpt>
      <trkpt lat="27.848435" lon="86.779206">
        <ele>3800.4</ele>
        <time>2022-10-23T03:26:00.000Z</time>
      </trkpt>
      <trkpt lat="27.848451" lon="86.779226">
        <ele>3799.8</ele>
        <time>2022-10-23T03:26:03.000Z</time>
      </trkpt>
      <trkpt lat="27.848467" lon="86.779245">
        <ele>3799.4</ele>
        <time>2022-10-23T03:26:05.000Z</time>
      </trkpt>
      <trkpt lat="27.848486" lon="86.779251">
        <ele>3799.2</ele>
        <time>2022-10-23T03:26:07.000Z</time>
      </trkpt>
      <trkpt lat="27.848506" lon="86.779264">
        <ele>3798.8</ele>
        <time>2022-10-23T03:26:09.000Z</time>
      </trkpt>
      <trkpt lat="27.848512" lon="86.779283">
        <ele>3798.6</ele>
        <time>2022-10-23T03:26:10.000Z</time>
      </trkpt>
      <trkpt lat="27.848531" lon="86.77929">
        <ele>3798.6</ele>
        <time>2022-10-23T03:26:12.000Z</time>
      </trkpt>
      <trkpt lat="27.84855" lon="86.779315">
        <ele>3798.6</ele>
        <time>2022-10-23T03:26:15.000Z</time>
      </trkpt>
      <trkpt lat="27.848566" lon="86.779328">
        <ele>3798.6</ele>
        <time>2022-10-23T03:26:19.000Z</time>
      </trkpt>
      <trkpt lat="27.848586" lon="86.779341">
        <ele>3798.8</ele>
        <time>2022-10-23T03:26:21.000Z</time>
      </trkpt>
      <trkpt lat="27.848595" lon="86.77936">
        <ele>3798.6</ele>
        <time>2022-10-23T03:26:22.000Z</time>
      </trkpt>
      <trkpt lat="27.848611" lon="86.779373">
        <ele>3798.6</ele>
        <time>2022-10-23T03:26:24.000Z</time>
      </trkpt>
      <trkpt lat="27.848627" lon="86.779386">
        <ele>3798.4</ele>
        <time>2022-10-23T03:26:26.000Z</time>
      </trkpt>
      <trkpt lat="27.848634" lon="86.779405">
        <ele>3798.4</ele>
        <time>2022-10-23T03:26:27.000Z</time>
      </trkpt>
      <trkpt lat="27.848659" lon="86.779424">
        <ele>3798.4</ele>
        <time>2022-10-23T03:26:30.000Z</time>
      </trkpt>
      <trkpt lat="27.848675" lon="86.779437">
        <ele>3798.6</ele>
        <time>2022-10-23T03:26:32.000Z</time>
      </trkpt>
      <trkpt lat="27.848691" lon="86.77945">
        <ele>3798.4</ele>
        <time>2022-10-23T03:26:34.000Z</time>
      </trkpt>
      <trkpt lat="27.84871" lon="86.779462">
        <ele>3798.4</ele>
        <time>2022-10-23T03:26:37.000Z</time>
      </trkpt>
      <trkpt lat="27.848733" lon="86.779475">
        <ele>3798.4</ele>
        <time>2022-10-23T03:26:39.000Z</time>
      </trkpt>
      <trkpt lat="27.848762" lon="86.779482">
        <ele>3798.2</ele>
        <time>2022-10-23T03:26:42.000Z</time>
      </trkpt>
      <trkpt lat="27.848781" lon="86.779488">
        <ele>3798.2</ele>
        <time>2022-10-23T03:26:45.000Z</time>
      </trkpt>
      <trkpt lat="27.8488" lon="86.779501">
        <ele>3798</ele>
        <time>2022-10-23T03:26:47.000Z</time>
      </trkpt>
      <trkpt lat="27.84881" lon="86.77952">
        <ele>3798.2</ele>
        <time>2022-10-23T03:26:49.000Z</time>
      </trkpt>
      <trkpt lat="27.848838" lon="86.77952">
        <ele>3798.2</ele>
        <time>2022-10-23T03:26:52.000Z</time>
      </trkpt>
      <trkpt lat="27.848864" lon="86.779526">
        <ele>3798.4</ele>
        <time>2022-10-23T03:26:55.000Z</time>
      </trkpt>
      <trkpt lat="27.848893" lon="86.779533">
        <ele>3798</ele>
        <time>2022-10-23T03:26:58.000Z</time>
      </trkpt>
      <trkpt lat="27.848915" lon="86.779558">
        <ele>3797.4</ele>
        <time>2022-10-23T03:27:01.000Z</time>
      </trkpt>
      <trkpt lat="27.848931" lon="86.779578">
        <ele>3797.2</ele>
        <time>2022-10-23T03:27:03.000Z</time>
      </trkpt>
      <trkpt lat="27.84895" lon="86.779584">
        <ele>3797.2</ele>
        <time>2022-10-23T03:27:05.000Z</time>
      </trkpt>
      <trkpt lat="27.848973" lon="86.779597">
        <ele>3797.4</ele>
        <time>2022-10-23T03:27:08.000Z</time>
      </trkpt>
      <trkpt lat="27.848998" lon="86.779597">
        <ele>3797.4</ele>
        <time>2022-10-23T03:27:10.000Z</time>
      </trkpt>
      <trkpt lat="27.849018" lon="86.779603">
        <ele>3797.8</ele>
        <time>2022-10-23T03:27:13.000Z</time>
      </trkpt>
      <trkpt lat="27.849037" lon="86.779603">
        <ele>3798.2</ele>
        <time>2022-10-23T03:27:16.000Z</time>
      </trkpt>
      <trkpt lat="27.849056" lon="86.779603">
        <ele>3798</ele>
        <time>2022-10-23T03:27:18.000Z</time>
      </trkpt>
      <trkpt lat="27.849078" lon="86.779603">
        <ele>3798</ele>
        <time>2022-10-23T03:27:20.000Z</time>
      </trkpt>
      <trkpt lat="27.849107" lon="86.779597">
        <ele>3798</ele>
        <time>2022-10-23T03:27:22.000Z</time>
      </trkpt>
      <trkpt lat="27.849133" lon="86.779578">
        <ele>3798</ele>
        <time>2022-10-23T03:27:24.000Z</time>
      </trkpt>
      <trkpt lat="27.849155" lon="86.779578">
        <ele>3798.2</ele>
        <time>2022-10-23T03:27:26.000Z</time>
      </trkpt>
      <trkpt lat="27.849174" lon="86.779558">
        <ele>3798</ele>
        <time>2022-10-23T03:27:28.000Z</time>
      </trkpt>
      <trkpt lat="27.849197" lon="86.779558">
        <ele>3798.2</ele>
        <time>2022-10-23T03:27:30.000Z</time>
      </trkpt>
      <trkpt lat="27.849216" lon="86.779558">
        <ele>3798</ele>
        <time>2022-10-23T03:27:32.000Z</time>
      </trkpt>
      <trkpt lat="27.849238" lon="86.779558">
        <ele>3797.8</ele>
        <time>2022-10-23T03:27:34.000Z</time>
      </trkpt>
      <trkpt lat="27.849261" lon="86.779539">
        <ele>3797.8</ele>
        <time>2022-10-23T03:27:36.000Z</time>
      </trkpt>
      <trkpt lat="27.84928" lon="86.779533">
        <ele>3797.8</ele>
        <time>2022-10-23T03:27:38.000Z</time>
      </trkpt>
      <trkpt lat="27.849302" lon="86.77952">
        <ele>3797.8</ele>
        <time>2022-10-23T03:27:40.000Z</time>
      </trkpt>
      <trkpt lat="27.849328" lon="86.779501">
        <ele>3798</ele>
        <time>2022-10-23T03:27:43.000Z</time>
      </trkpt>
      <trkpt lat="27.849357" lon="86.779494">
        <ele>3798</ele>
        <time>2022-10-23T03:27:45.000Z</time>
      </trkpt>
      <trkpt lat="27.849376" lon="86.779482">
        <ele>3798</ele>
        <time>2022-10-23T03:27:47.000Z</time>
      </trkpt>
      <trkpt lat="27.849395" lon="86.779482">
        <ele>3798</ele>
        <time>2022-10-23T03:27:48.000Z</time>
      </trkpt>
      <trkpt lat="27.849418" lon="86.779462">
        <ele>3798</ele>
        <time>2022-10-23T03:27:50.000Z</time>
      </trkpt>
      <trkpt lat="27.849437" lon="86.779456">
        <ele>3798.2</ele>
        <time>2022-10-23T03:27:52.000Z</time>
      </trkpt>
      <trkpt lat="27.849456" lon="86.77945">
        <ele>3798.2</ele>
        <time>2022-10-23T03:27:54.000Z</time>
      </trkpt>
      <trkpt lat="27.849475" lon="86.77945">
        <ele>3798.4</ele>
        <time>2022-10-23T03:27:56.000Z</time>
      </trkpt>
      <trkpt lat="27.849498" lon="86.77945">
        <ele>3798.4</ele>
        <time>2022-10-23T03:27:58.000Z</time>
      </trkpt>
      <trkpt lat="27.849517" lon="86.779456">
        <ele>3798.2</ele>
        <time>2022-10-23T03:28:00.000Z</time>
      </trkpt>
      <trkpt lat="27.849539" lon="86.779456">
        <ele>3798.2</ele>
        <time>2022-10-23T03:28:02.000Z</time>
      </trkpt>
      <trkpt lat="27.849558" lon="86.77945">
        <ele>3798.2</ele>
        <time>2022-10-23T03:28:04.000Z</time>
      </trkpt>
      <trkpt lat="27.849584" lon="86.779456">
        <ele>3798.6</ele>
        <time>2022-10-23T03:28:07.000Z</time>
      </trkpt>
      <trkpt lat="27.849606" lon="86.779462">
        <ele>3798.6</ele>
        <time>2022-10-23T03:28:09.000Z</time>
      </trkpt>
      <trkpt lat="27.849626" lon="86.779462">
        <ele>3798.6</ele>
        <time>2022-10-23T03:28:10.000Z</time>
      </trkpt>
      <trkpt lat="27.849648" lon="86.779475">
        <ele>3798.6</ele>
        <time>2022-10-23T03:28:12.000Z</time>
      </trkpt>
      <trkpt lat="27.849674" lon="86.779488">
        <ele>3798.6</ele>
        <time>2022-10-23T03:28:14.000Z</time>
      </trkpt>
      <trkpt lat="27.849693" lon="86.779494">
        <ele>3799</ele>
        <time>2022-10-23T03:28:17.000Z</time>
      </trkpt>
      <trkpt lat="27.849706" lon="86.779514">
        <ele>3799</ele>
        <time>2022-10-23T03:28:19.000Z</time>
      </trkpt>
      <trkpt lat="27.849725" lon="86.77952">
        <ele>3798.2</ele>
        <time>2022-10-23T03:28:21.000Z</time>
      </trkpt>
      <trkpt lat="27.849744" lon="86.779526">
        <ele>3798.2</ele>
        <time>2022-10-23T03:28:24.000Z</time>
      </trkpt>
      <trkpt lat="27.849747" lon="86.779571">
        <ele>3797.8</ele>
        <time>2022-10-23T03:30:44.000Z</time>
      </trkpt>
      <trkpt lat="27.849773" lon="86.779578">
        <ele>3797.4</ele>
        <time>2022-10-23T03:30:46.000Z</time>
      </trkpt>
      <trkpt lat="27.849802" lon="86.779584">
        <ele>3797.4</ele>
        <time>2022-10-23T03:30:48.000Z</time>
      </trkpt>
      <trkpt lat="27.849818" lon="86.779597">
        <ele>3796.8</ele>
        <time>2022-10-23T03:30:49.000Z</time>
      </trkpt>
      <trkpt lat="27.849846" lon="86.779603">
        <ele>3796.6</ele>
        <time>2022-10-23T03:30:51.000Z</time>
      </trkpt>
      <trkpt lat="27.849872" lon="86.779603">
        <ele>3796.4</ele>
        <time>2022-10-23T03:30:53.000Z</time>
      </trkpt>
      <trkpt lat="27.849894" lon="86.77961">
        <ele>3796.4</ele>
        <time>2022-10-23T03:30:57.000Z</time>
      </trkpt>
      <trkpt lat="27.849914" lon="86.779616">
        <ele>3796.4</ele>
        <time>2022-10-23T03:31:01.000Z</time>
      </trkpt>
      <trkpt lat="27.849939" lon="86.779622">
        <ele>3796</ele>
        <time>2022-10-23T03:31:04.000Z</time>
      </trkpt>
      <trkpt lat="27.849962" lon="86.779635">
        <ele>3795.6</ele>
        <time>2022-10-23T03:31:07.000Z</time>
      </trkpt>
      <trkpt lat="27.849984" lon="86.779642">
        <ele>3795.4</ele>
        <time>2022-10-23T03:31:11.000Z</time>
      </trkpt>
      <trkpt lat="27.85001" lon="86.779642">
        <ele>3795.2</ele>
        <time>2022-10-23T03:31:13.000Z</time>
      </trkpt>
      <trkpt lat="27.850032" lon="86.779648">
        <ele>3796</ele>
        <time>2022-10-23T03:31:16.000Z</time>
      </trkpt>
      <trkpt lat="27.850051" lon="86.779654">
        <ele>3795.6</ele>
        <time>2022-10-23T03:31:18.000Z</time>
      </trkpt>
      <trkpt lat="27.85007" lon="86.779661">
        <ele>3794.6</ele>
        <time>2022-10-23T03:31:20.000Z</time>
      </trkpt>
      <trkpt lat="27.850096" lon="86.779661">
        <ele>3795.2</ele>
        <time>2022-10-23T03:31:22.000Z</time>
      </trkpt>
      <trkpt lat="27.850115" lon="86.779674">
        <ele>3795.4</ele>
        <time>2022-10-23T03:31:24.000Z</time>
      </trkpt>
      <trkpt lat="27.850134" lon="86.77968">
        <ele>3795.4</ele>
        <time>2022-10-23T03:31:26.000Z</time>
      </trkpt>
      <trkpt lat="27.850154" lon="86.779686">
        <ele>3795.4</ele>
        <time>2022-10-23T03:31:28.000Z</time>
      </trkpt>
      <trkpt lat="27.850173" lon="86.779686">
        <ele>3795.6</ele>
        <time>2022-10-23T03:31:30.000Z</time>
      </trkpt>
      <trkpt lat="27.850192" lon="86.779693">
        <ele>3795.6</ele>
        <time>2022-10-23T03:31:32.000Z</time>
      </trkpt>
      <trkpt lat="27.850211" lon="86.779699">
        <ele>3795.6</ele>
        <time>2022-10-23T03:31:34.000Z</time>
      </trkpt>
      <trkpt lat="27.850227" lon="86.779712">
        <ele>3796</ele>
        <time>2022-10-23T03:31:36.000Z</time>
      </trkpt>
      <trkpt lat="27.85025" lon="86.779712">
        <ele>3796.2</ele>
        <time>2022-10-23T03:31:40.000Z</time>
      </trkpt>
      <trkpt lat="27.850269" lon="86.779718">
        <ele>3796.4</ele>
        <time>2022-10-23T03:31:43.000Z</time>
      </trkpt>
      <trkpt lat="27.850291" lon="86.779718">
        <ele>3796.6</ele>
        <time>2022-10-23T03:31:45.000Z</time>
      </trkpt>
      <trkpt lat="27.850314" lon="86.779725">
        <ele>3797.2</ele>
        <time>2022-10-23T03:31:48.000Z</time>
      </trkpt>
      <trkpt lat="27.850339" lon="86.779725">
        <ele>3797.4</ele>
        <time>2022-10-23T03:31:51.000Z</time>
      </trkpt>
      <trkpt lat="27.850358" lon="86.779731">
        <ele>3797.6</ele>
        <time>2022-10-23T03:31:53.000Z</time>
      </trkpt>
      <trkpt lat="27.850378" lon="86.779738">
        <ele>3798</ele>
        <time>2022-10-23T03:31:56.000Z</time>
      </trkpt>
      <trkpt lat="27.850397" lon="86.779757">
        <ele>3797.8</ele>
        <time>2022-10-23T03:32:01.000Z</time>
      </trkpt>
      <trkpt lat="27.85041" lon="86.779776">
        <ele>3798.6</ele>
        <time>2022-10-23T03:32:05.000Z</time>
      </trkpt>
      <trkpt lat="27.850413" lon="86.779802">
        <ele>3798.2</ele>
        <time>2022-10-23T03:32:07.000Z</time>
      </trkpt>
      <trkpt lat="27.850422" lon="86.779834">
        <ele>3798.2</ele>
        <time>2022-10-23T03:32:09.000Z</time>
      </trkpt>
      <trkpt lat="27.850429" lon="86.779853">
        <ele>3798.2</ele>
        <time>2022-10-23T03:32:11.000Z</time>
      </trkpt>
      <trkpt lat="27.850438" lon="86.779878">
        <ele>3798.2</ele>
        <time>2022-10-23T03:32:13.000Z</time>
      </trkpt>
      <trkpt lat="27.850448" lon="86.779917">
        <ele>3798.2</ele>
        <time>2022-10-23T03:32:16.000Z</time>
      </trkpt>
      <trkpt lat="27.850458" lon="86.779942">
        <ele>3798.2</ele>
        <time>2022-10-23T03:32:18.000Z</time>
      </trkpt>
      <trkpt lat="27.850458" lon="86.779968">
        <ele>3798.2</ele>
        <time>2022-10-23T03:32:20.000Z</time>
      </trkpt>
      <trkpt lat="27.850461" lon="86.779994">
        <ele>3797.8</ele>
        <time>2022-10-23T03:32:22.000Z</time>
      </trkpt>
      <trkpt lat="27.850467" lon="86.780013">
        <ele>3798</ele>
        <time>2022-10-23T03:32:25.000Z</time>
      </trkpt>
      <trkpt lat="27.850477" lon="86.780032">
        <ele>3798.4</ele>
        <time>2022-10-23T03:32:27.000Z</time>
      </trkpt>
      <trkpt lat="27.850486" lon="86.780058">
        <ele>3800</ele>
        <time>2022-10-23T03:32:30.000Z</time>
      </trkpt>
      <trkpt lat="27.850493" lon="86.780077">
        <ele>3800</ele>
        <time>2022-10-23T03:32:32.000Z</time>
      </trkpt>
      <trkpt lat="27.850499" lon="86.780096">
        <ele>3800.2</ele>
        <time>2022-10-23T03:32:35.000Z</time>
      </trkpt>
      <trkpt lat="27.850506" lon="86.780115">
        <ele>3800.6</ele>
        <time>2022-10-23T03:32:37.000Z</time>
      </trkpt>
      <trkpt lat="27.850515" lon="86.780134">
        <ele>3800.6</ele>
        <time>2022-10-23T03:32:41.000Z</time>
      </trkpt>
      <trkpt lat="27.850522" lon="86.78016">
        <ele>3801.2</ele>
        <time>2022-10-23T03:32:44.000Z</time>
      </trkpt>
      <trkpt lat="27.850534" lon="86.780179">
        <ele>3801.8</ele>
        <time>2022-10-23T03:32:47.000Z</time>
      </trkpt>
      <trkpt lat="27.850544" lon="86.780198">
        <ele>3802.4</ele>
        <time>2022-10-23T03:32:50.000Z</time>
      </trkpt>
      <trkpt lat="27.850554" lon="86.780218">
        <ele>3802.6</ele>
        <time>2022-10-23T03:32:53.000Z</time>
      </trkpt>
      <trkpt lat="27.850557" lon="86.780243">
        <ele>3802.8</ele>
        <time>2022-10-23T03:32:56.000Z</time>
      </trkpt>
      <trkpt lat="27.850557" lon="86.780269">
        <ele>3802.8</ele>
        <time>2022-10-23T03:32:59.000Z</time>
      </trkpt>
      <trkpt lat="27.850557" lon="86.780294">
        <ele>3803.6</ele>
        <time>2022-10-23T03:33:03.000Z</time>
      </trkpt>
      <trkpt lat="27.85056" lon="86.78032">
        <ele>3804</ele>
        <time>2022-10-23T03:33:05.000Z</time>
      </trkpt>
      <trkpt lat="27.850566" lon="86.780352">
        <ele>3804.6</ele>
        <time>2022-10-23T03:33:08.000Z</time>
      </trkpt>
      <trkpt lat="27.85057" lon="86.780378">
        <ele>3805</ele>
        <time>2022-10-23T03:33:11.000Z</time>
      </trkpt>
      <trkpt lat="27.850576" lon="86.78041">
        <ele>3805.4</ele>
        <time>2022-10-23T03:33:14.000Z</time>
      </trkpt>
      <trkpt lat="27.850586" lon="86.780429">
        <ele>3805.8</ele>
        <time>2022-10-23T03:33:16.000Z</time>
      </trkpt>
      <trkpt lat="27.850598" lon="86.780448">
        <ele>3806.2</ele>
        <time>2022-10-23T03:33:19.000Z</time>
      </trkpt>
      <trkpt lat="27.850598" lon="86.780474">
        <ele>3807</ele>
        <time>2022-10-23T03:33:22.000Z</time>
      </trkpt>
      <trkpt lat="27.850608" lon="86.780493">
        <ele>3807.6</ele>
        <time>2022-10-23T03:33:25.000Z</time>
      </trkpt>
      <trkpt lat="27.850618" lon="86.780512">
        <ele>3808.6</ele>
        <time>2022-10-23T03:33:29.000Z</time>
      </trkpt>
      <trkpt lat="27.850624" lon="86.780538">
        <ele>3809.6</ele>
        <time>2022-10-23T03:33:35.000Z</time>
      </trkpt>
      <trkpt lat="27.85063" lon="86.780557">
        <ele>3810.4</ele>
        <time>2022-10-23T03:33:40.000Z</time>
      </trkpt>
      <trkpt lat="27.85064" lon="86.780576">
        <ele>3811.8</ele>
        <time>2022-10-23T03:33:48.000Z</time>
      </trkpt>
      <trkpt lat="27.85065" lon="86.780595">
        <ele>3812.8</ele>
        <time>2022-10-23T03:33:52.000Z</time>
      </trkpt>
      <trkpt lat="27.850672" lon="86.780602">
        <ele>3815.2</ele>
        <time>2022-10-23T03:34:47.000Z</time>
      </trkpt>
      <trkpt lat="27.850688" lon="86.780614">
        <ele>3815.4</ele>
        <time>2022-10-23T03:34:49.000Z</time>
      </trkpt>
      <trkpt lat="27.850698" lon="86.780646">
        <ele>3815.6</ele>
        <time>2022-10-23T03:34:51.000Z</time>
      </trkpt>
      <trkpt lat="27.850714" lon="86.780672">
        <ele>3816</ele>
        <time>2022-10-23T03:34:53.000Z</time>
      </trkpt>
      <trkpt lat="27.85073" lon="86.780691">
        <ele>3816.4</ele>
        <time>2022-10-23T03:34:55.000Z</time>
      </trkpt>
      <trkpt lat="27.850746" lon="86.78071">
        <ele>3816.4</ele>
        <time>2022-10-23T03:34:57.000Z</time>
      </trkpt>
      <trkpt lat="27.850768" lon="86.780749">
        <ele>3817.6</ele>
        <time>2022-10-23T03:35:03.000Z</time>
      </trkpt>
      <trkpt lat="27.850787" lon="86.780762">
        <ele>3817.8</ele>
        <time>2022-10-23T03:35:10.000Z</time>
      </trkpt>
      <trkpt lat="27.850797" lon="86.780794">
        <ele>3818.4</ele>
        <time>2022-10-23T03:38:41.000Z</time>
      </trkpt>
      <trkpt lat="27.85081" lon="86.780826">
        <ele>3819</ele>
        <time>2022-10-23T03:38:43.000Z</time>
      </trkpt>
      <trkpt lat="27.850819" lon="86.780851">
        <ele>3819.4</ele>
        <time>2022-10-23T03:38:45.000Z</time>
      </trkpt>
      <trkpt lat="27.850832" lon="86.780877">
        <ele>3819.4</ele>
        <time>2022-10-23T03:38:47.000Z</time>
      </trkpt>
      <trkpt lat="27.850838" lon="86.780896">
        <ele>3819.6</ele>
        <time>2022-10-23T03:38:49.000Z</time>
      </trkpt>
      <trkpt lat="27.850845" lon="86.780915">
        <ele>3819.6</ele>
        <time>2022-10-23T03:38:50.000Z</time>
      </trkpt>
      <trkpt lat="27.850845" lon="86.780947">
        <ele>3819.6</ele>
        <time>2022-10-23T03:38:53.000Z</time>
      </trkpt>
      <trkpt lat="27.850845" lon="86.780973">
        <ele>3819.6</ele>
        <time>2022-10-23T03:38:57.000Z</time>
      </trkpt>
      <trkpt lat="27.850854" lon="86.780992">
        <ele>3820</ele>
        <time>2022-10-23T03:38:59.000Z</time>
      </trkpt>
      <trkpt lat="27.850867" lon="86.781011">
        <ele>3820.2</ele>
        <time>2022-10-23T03:39:02.000Z</time>
      </trkpt>
      <trkpt lat="27.850877" lon="86.781037">
        <ele>3821.2</ele>
        <time>2022-10-23T03:39:04.000Z</time>
      </trkpt>
      <trkpt lat="27.850877" lon="86.781062">
        <ele>3820.8</ele>
        <time>2022-10-23T03:39:08.000Z</time>
      </trkpt>
      <trkpt lat="27.850886" lon="86.781082">
        <ele>3821.4</ele>
        <time>2022-10-23T03:39:11.000Z</time>
      </trkpt>
      <trkpt lat="27.85089" lon="86.781107">
        <ele>3822.2</ele>
        <time>2022-10-23T03:39:14.000Z</time>
      </trkpt>
      <trkpt lat="27.850896" lon="86.781126">
        <ele>3822.6</ele>
        <time>2022-10-23T03:39:17.000Z</time>
      </trkpt>
      <trkpt lat="27.850896" lon="86.781152">
        <ele>3823.2</ele>
        <time>2022-10-23T03:39:19.000Z</time>
      </trkpt>
      <trkpt lat="27.850902" lon="86.781171">
        <ele>3823.4</ele>
        <time>2022-10-23T03:39:22.000Z</time>
      </trkpt>
      <trkpt lat="27.850902" lon="86.781197">
        <ele>3823.8</ele>
        <time>2022-10-23T03:39:24.000Z</time>
      </trkpt>
      <trkpt lat="27.850922" lon="86.781229">
        <ele>3824.2</ele>
        <time>2022-10-23T03:39:27.000Z</time>
      </trkpt>
      <trkpt lat="27.850938" lon="86.781248">
        <ele>3824.4</ele>
        <time>2022-10-23T03:39:30.000Z</time>
      </trkpt>
      <trkpt lat="27.850954" lon="86.781261">
        <ele>3824.4</ele>
        <time>2022-10-23T03:39:32.000Z</time>
      </trkpt>
      <trkpt lat="27.850966" lon="86.78128">
        <ele>3824.2</ele>
        <time>2022-10-23T03:39:35.000Z</time>
      </trkpt>
      <trkpt lat="27.850982" lon="86.781293">
        <ele>3824</ele>
        <time>2022-10-23T03:39:37.000Z</time>
      </trkpt>
      <trkpt lat="27.850989" lon="86.781312">
        <ele>3824</ele>
        <time>2022-10-23T03:39:38.000Z</time>
      </trkpt>
      <trkpt lat="27.851005" lon="86.781331">
        <ele>3824.4</ele>
        <time>2022-10-23T03:39:40.000Z</time>
      </trkpt>
      <trkpt lat="27.851008" lon="86.781363">
        <ele>3824.4</ele>
        <time>2022-10-23T03:39:43.000Z</time>
      </trkpt>
      <trkpt lat="27.851018" lon="86.781382">
        <ele>3824.6</ele>
        <time>2022-10-23T03:39:45.000Z</time>
      </trkpt>
      <trkpt lat="27.851024" lon="86.781402">
        <ele>3825</ele>
        <time>2022-10-23T03:39:47.000Z</time>
      </trkpt>
      <trkpt lat="27.851034" lon="86.781427">
        <ele>3825.4</ele>
        <time>2022-10-23T03:39:49.000Z</time>
      </trkpt>
      <trkpt lat="27.851046" lon="86.781446">
        <ele>3825.4</ele>
        <time>2022-10-23T03:39:52.000Z</time>
      </trkpt>
      <trkpt lat="27.851062" lon="86.781466">
        <ele>3825.6</ele>
        <time>2022-10-23T03:39:54.000Z</time>
      </trkpt>
      <trkpt lat="27.851062" lon="86.781491">
        <ele>3826</ele>
        <time>2022-10-23T03:39:56.000Z</time>
      </trkpt>
      <trkpt lat="27.851075" lon="86.78151">
        <ele>3826.2</ele>
        <time>2022-10-23T03:39:58.000Z</time>
      </trkpt>
      <trkpt lat="27.851078" lon="86.781542">
        <ele>3826.2</ele>
        <time>2022-10-23T03:40:01.000Z</time>
      </trkpt>
      <trkpt lat="27.851088" lon="86.781562">
        <ele>3826.4</ele>
        <time>2022-10-23T03:40:03.000Z</time>
      </trkpt>
      <trkpt lat="27.851085" lon="86.781587">
        <ele>3826.4</ele>
        <time>2022-10-23T03:40:05.000Z</time>
      </trkpt>
      <trkpt lat="27.851078" lon="86.781606">
        <ele>3826.4</ele>
        <time>2022-10-23T03:40:07.000Z</time>
      </trkpt>
      <trkpt lat="27.851072" lon="86.781632">
        <ele>3826.8</ele>
        <time>2022-10-23T03:40:09.000Z</time>
      </trkpt>
      <trkpt lat="27.851062" lon="86.781651">
        <ele>3826</ele>
        <time>2022-10-23T03:40:11.000Z</time>
      </trkpt>
      <trkpt lat="27.851043" lon="86.78167">
        <ele>3826.2</ele>
        <time>2022-10-23T03:40:13.000Z</time>
      </trkpt>
      <trkpt lat="27.851034" lon="86.78169">
        <ele>3826</ele>
        <time>2022-10-23T03:40:15.000Z</time>
      </trkpt>
      <trkpt lat="27.851024" lon="86.781709">
        <ele>3826</ele>
        <time>2022-10-23T03:40:16.000Z</time>
      </trkpt>
      <trkpt lat="27.851008" lon="86.781728">
        <ele>3826</ele>
        <time>2022-10-23T03:40:18.000Z</time>
      </trkpt>
      <trkpt lat="27.850995" lon="86.78176">
        <ele>3825.8</ele>
        <time>2022-10-23T03:40:20.000Z</time>
      </trkpt>
      <trkpt lat="27.850989" lon="86.781786">
        <ele>3825.8</ele>
        <time>2022-10-23T03:40:22.000Z</time>
      </trkpt>
      <trkpt lat="27.850979" lon="86.781805">
        <ele>3825.6</ele>
        <time>2022-10-23T03:40:24.000Z</time>
      </trkpt>
      <trkpt lat="27.850976" lon="86.781837">
        <ele>3825.2</ele>
        <time>2022-10-23T03:40:26.000Z</time>
      </trkpt>
      <trkpt lat="27.850973" lon="86.781862">
        <ele>3825</ele>
        <time>2022-10-23T03:40:28.000Z</time>
      </trkpt>
      <trkpt lat="27.850957" lon="86.781882">
        <ele>3824.6</ele>
        <time>2022-10-23T03:40:34.000Z</time>
      </trkpt>
      <trkpt lat="27.850947" lon="86.781901">
        <ele>3824.6</ele>
        <time>2022-10-23T03:40:45.000Z</time>
      </trkpt>
      <trkpt lat="27.850944" lon="86.781926">
        <ele>3824</ele>
        <time>2022-10-23T03:40:50.000Z</time>
      </trkpt>
      <trkpt lat="27.850947" lon="86.781952">
        <ele>3824.4</ele>
        <time>2022-10-23T03:40:53.000Z</time>
      </trkpt>
      <trkpt lat="27.850954" lon="86.781978">
        <ele>3823.6</ele>
        <time>2022-10-23T03:41:00.000Z</time>
      </trkpt>
      <trkpt lat="27.850947" lon="86.781997">
        <ele>3823.6</ele>
        <time>2022-10-23T03:41:05.000Z</time>
      </trkpt>
      <trkpt lat="27.850925" lon="86.782003">
        <ele>3823.4</ele>
        <time>2022-10-23T03:41:09.000Z</time>
      </trkpt>
      <trkpt lat="27.850896" lon="86.782029">
        <ele>3824</ele>
        <time>2022-10-23T03:41:13.000Z</time>
      </trkpt>
      <trkpt lat="27.850915" lon="86.782035">
        <ele>3824</ele>
        <time>2022-10-23T03:41:14.000Z</time>
      </trkpt>
      <trkpt lat="27.850915" lon="86.782061">
        <ele>3824</ele>
        <time>2022-10-23T03:41:17.000Z</time>
      </trkpt>
      <trkpt lat="27.850918" lon="86.782086">
        <ele>3823.2</ele>
        <time>2022-10-23T03:41:20.000Z</time>
      </trkpt>
      <trkpt lat="27.850941" lon="86.782106">
        <ele>3823.2</ele>
        <time>2022-10-23T03:41:22.000Z</time>
      </trkpt>
      <trkpt lat="27.850957" lon="86.782118">
        <ele>3823.2</ele>
        <time>2022-10-23T03:41:24.000Z</time>
      </trkpt>
      <trkpt lat="27.850966" lon="86.782138">
        <ele>3823.2</ele>
        <time>2022-10-23T03:41:26.000Z</time>
      </trkpt>
      <trkpt lat="27.850973" lon="86.782157">
        <ele>3824</ele>
        <time>2022-10-23T03:41:30.000Z</time>
      </trkpt>
      <trkpt lat="27.850998" lon="86.782163">
        <ele>3824</ele>
        <time>2022-10-23T03:41:32.000Z</time>
      </trkpt>
      <trkpt lat="27.851018" lon="86.782163">
        <ele>3824</ele>
        <time>2022-10-23T03:41:33.000Z</time>
      </trkpt>
      <trkpt lat="27.85103" lon="86.782182">
        <ele>3824.2</ele>
        <time>2022-10-23T03:41:35.000Z</time>
      </trkpt>
      <trkpt lat="27.851043" lon="86.782202">
        <ele>3824.4</ele>
        <time>2022-10-23T03:41:37.000Z</time>
      </trkpt>
      <trkpt lat="27.851046" lon="86.782227">
        <ele>3825</ele>
        <time>2022-10-23T03:41:40.000Z</time>
      </trkpt>
      <trkpt lat="27.851053" lon="86.782259">
        <ele>3825.2</ele>
        <time>2022-10-23T03:41:43.000Z</time>
      </trkpt>
      <trkpt lat="27.851062" lon="86.782278">
        <ele>3825.4</ele>
        <time>2022-10-23T03:41:46.000Z</time>
      </trkpt>
      <trkpt lat="27.851062" lon="86.782304">
        <ele>3825.6</ele>
        <time>2022-10-23T03:41:48.000Z</time>
      </trkpt>
      <trkpt lat="27.851072" lon="86.782336">
        <ele>3826.2</ele>
        <time>2022-10-23T03:41:52.000Z</time>
      </trkpt>
      <trkpt lat="27.851075" lon="86.782362">
        <ele>3826.8</ele>
        <time>2022-10-23T03:41:56.000Z</time>
      </trkpt>
      <trkpt lat="27.851072" lon="86.782387">
        <ele>3827.4</ele>
        <time>2022-10-23T03:41:59.000Z</time>
      </trkpt>
      <trkpt lat="27.851075" lon="86.782413">
        <ele>3827.4</ele>
        <time>2022-10-23T03:42:01.000Z</time>
      </trkpt>
      <trkpt lat="27.851078" lon="86.782438">
        <ele>3827.4</ele>
        <time>2022-10-23T03:42:04.000Z</time>
      </trkpt>
      <trkpt lat="27.851088" lon="86.782458">
        <ele>3828.2</ele>
        <time>2022-10-23T03:42:06.000Z</time>
      </trkpt>
      <trkpt lat="27.851094" lon="86.782483">
        <ele>3828.4</ele>
        <time>2022-10-23T03:42:09.000Z</time>
      </trkpt>
      <trkpt lat="27.851101" lon="86.782502">
        <ele>3828.6</ele>
        <time>2022-10-23T03:42:12.000Z</time>
      </trkpt>
      <trkpt lat="27.851107" lon="86.782522">
        <ele>3828.6</ele>
        <time>2022-10-23T03:42:14.000Z</time>
      </trkpt>
      <trkpt lat="27.851114" lon="86.782541">
        <ele>3828.8</ele>
        <time>2022-10-23T03:42:16.000Z</time>
      </trkpt>
      <trkpt lat="27.851117" lon="86.782573">
        <ele>3829.4</ele>
        <time>2022-10-23T03:42:20.000Z</time>
      </trkpt>
      <trkpt lat="27.851136" lon="86.782592">
        <ele>3829.8</ele>
        <time>2022-10-23T03:42:24.000Z</time>
      </trkpt>
      <trkpt lat="27.851142" lon="86.782611">
        <ele>3829.8</ele>
        <time>2022-10-23T03:42:26.000Z</time>
      </trkpt>
      <trkpt lat="27.851152" lon="86.78263">
        <ele>3830.6</ele>
        <time>2022-10-23T03:42:30.000Z</time>
      </trkpt>
      <trkpt lat="27.851158" lon="86.782662">
        <ele>3831</ele>
        <time>2022-10-23T03:42:34.000Z</time>
      </trkpt>
      <trkpt lat="27.851165" lon="86.782682">
        <ele>3831.6</ele>
        <time>2022-10-23T03:42:39.000Z</time>
      </trkpt>
      <trkpt lat="27.851168" lon="86.782707">
        <ele>3831.8</ele>
        <time>2022-10-23T03:42:42.000Z</time>
      </trkpt>
      <trkpt lat="27.851174" lon="86.782733">
        <ele>3832.6</ele>
        <time>2022-10-23T03:42:47.000Z</time>
      </trkpt>
      <trkpt lat="27.851184" lon="86.782752">
        <ele>3832.8</ele>
        <time>2022-10-23T03:42:50.000Z</time>
      </trkpt>
      <trkpt lat="27.851194" lon="86.782771">
        <ele>3833.2</ele>
        <time>2022-10-23T03:42:53.000Z</time>
      </trkpt>
      <trkpt lat="27.851197" lon="86.782797">
        <ele>3834</ele>
        <time>2022-10-23T03:42:59.000Z</time>
      </trkpt>
      <trkpt lat="27.851194" lon="86.782822">
        <ele>3834.8</ele>
        <time>2022-10-23T03:43:05.000Z</time>
      </trkpt>
      <trkpt lat="27.851203" lon="86.782803">
        <ele>3835</ele>
        <time>2022-10-23T03:43:07.000Z</time>
      </trkpt>
      <trkpt lat="27.851219" lon="86.78279">
        <ele>3835.4</ele>
        <time>2022-10-23T03:43:11.000Z</time>
      </trkpt>
      <trkpt lat="27.851222" lon="86.782758">
        <ele>3836.2</ele>
        <time>2022-10-23T03:43:17.000Z</time>
      </trkpt>
      <trkpt lat="27.851226" lon="86.782733">
        <ele>3837.4</ele>
        <time>2022-10-23T03:43:23.000Z</time>
      </trkpt>
      <trkpt lat="27.851232" lon="86.782714">
        <ele>3838.2</ele>
        <time>2022-10-23T03:43:29.000Z</time>
      </trkpt>
      <trkpt lat="27.851242" lon="86.782694">
        <ele>3839.4</ele>
        <time>2022-10-23T03:43:37.000Z</time>
      </trkpt>
      <trkpt lat="27.851245" lon="86.782662">
        <ele>3839.8</ele>
        <time>2022-10-23T03:43:41.000Z</time>
      </trkpt>
      <trkpt lat="27.851245" lon="86.782637">
        <ele>3840.2</ele>
        <time>2022-10-23T03:43:44.000Z</time>
      </trkpt>
      <trkpt lat="27.851242" lon="86.782611">
        <ele>3839.8</ele>
        <time>2022-10-23T03:43:47.000Z</time>
      </trkpt>
      <trkpt lat="27.851235" lon="86.782586">
        <ele>3839.8</ele>
        <time>2022-10-23T03:43:50.000Z</time>
      </trkpt>
      <trkpt lat="27.851226" lon="86.78256">
        <ele>3840.2</ele>
        <time>2022-10-23T03:43:54.000Z</time>
      </trkpt>
      <trkpt lat="27.851213" lon="86.782541">
        <ele>3840.8</ele>
        <time>2022-10-23T03:44:00.000Z</time>
      </trkpt>
      <trkpt lat="27.851216" lon="86.782515">
        <ele>3841.8</ele>
        <time>2022-10-23T03:44:06.000Z</time>
      </trkpt>
      <trkpt lat="27.851235" lon="86.782522">
        <ele>3843.4</ele>
        <time>2022-10-23T03:44:33.000Z</time>
      </trkpt>
      <trkpt lat="27.851245" lon="86.782541">
        <ele>3843.6</ele>
        <time>2022-10-23T03:44:34.000Z</time>
      </trkpt>
      <trkpt lat="27.851274" lon="86.782554">
        <ele>3843.6</ele>
        <time>2022-10-23T03:44:36.000Z</time>
      </trkpt>
      <trkpt lat="27.851286" lon="86.782573">
        <ele>3844</ele>
        <time>2022-10-23T03:44:37.000Z</time>
      </trkpt>
      <trkpt lat="27.851306" lon="86.782598">
        <ele>3844.2</ele>
        <time>2022-10-23T03:44:39.000Z</time>
      </trkpt>
      <trkpt lat="27.851325" lon="86.782624">
        <ele>3844.4</ele>
        <time>2022-10-23T03:44:41.000Z</time>
      </trkpt>
      <trkpt lat="27.851331" lon="86.782643">
        <ele>3844.6</ele>
        <time>2022-10-23T03:44:43.000Z</time>
      </trkpt>
      <trkpt lat="27.851334" lon="86.782675">
        <ele>3845.2</ele>
        <time>2022-10-23T03:44:46.000Z</time>
      </trkpt>
      <trkpt lat="27.851328" lon="86.782701">
        <ele>3845.2</ele>
        <time>2022-10-23T03:44:48.000Z</time>
      </trkpt>
      <trkpt lat="27.851325" lon="86.782733">
        <ele>3845.2</ele>
        <time>2022-10-23T03:44:50.000Z</time>
      </trkpt>
      <trkpt lat="27.851315" lon="86.782752">
        <ele>3845.6</ele>
        <time>2022-10-23T03:44:52.000Z</time>
      </trkpt>
      <trkpt lat="27.851315" lon="86.782778">
        <ele>3845.8</ele>
        <time>2022-10-23T03:44:54.000Z</time>
      </trkpt>
      <trkpt lat="27.851312" lon="86.782803">
        <ele>3846.4</ele>
        <time>2022-10-23T03:44:57.000Z</time>
      </trkpt>
      <trkpt lat="27.851302" lon="86.78288">
        <ele>3848.2</ele>
        <time>2022-10-23T03:45:06.000Z</time>
      </trkpt>
      <trkpt lat="27.851309" lon="86.782906">
        <ele>3848.4</ele>
        <time>2022-10-23T03:45:08.000Z</time>
      </trkpt>
      <trkpt lat="27.851312" lon="86.782931">
        <ele>3848.4</ele>
        <time>2022-10-23T03:45:10.000Z</time>
      </trkpt>
      <trkpt lat="27.851322" lon="86.78295">
        <ele>3848.8</ele>
        <time>2022-10-23T03:45:12.000Z</time>
      </trkpt>
      <trkpt lat="27.851328" lon="86.78297">
        <ele>3849.2</ele>
        <time>2022-10-23T03:45:14.000Z</time>
      </trkpt>
      <trkpt lat="27.851338" lon="86.782989">
        <ele>3849.2</ele>
        <time>2022-10-23T03:45:17.000Z</time>
      </trkpt>
      <trkpt lat="27.851354" lon="86.783021">
        <ele>3849.6</ele>
        <time>2022-10-23T03:45:20.000Z</time>
      </trkpt>
      <trkpt lat="27.85136" lon="86.78304">
        <ele>3850.4</ele>
        <time>2022-10-23T03:45:22.000Z</time>
      </trkpt>
      <trkpt lat="27.851363" lon="86.783072">
        <ele>3850.4</ele>
        <time>2022-10-23T03:45:25.000Z</time>
      </trkpt>
      <trkpt lat="27.851363" lon="86.783098">
        <ele>3850.8</ele>
        <time>2022-10-23T03:45:27.000Z</time>
      </trkpt>
      <trkpt lat="27.851363" lon="86.78313">
        <ele>3851.6</ele>
        <time>2022-10-23T03:45:30.000Z</time>
      </trkpt>
      <trkpt lat="27.851363" lon="86.783155">
        <ele>3852.6</ele>
        <time>2022-10-23T03:45:33.000Z</time>
      </trkpt>
      <trkpt lat="27.85136" lon="86.783181">
        <ele>3853</ele>
        <time>2022-10-23T03:45:36.000Z</time>
      </trkpt>
      <trkpt lat="27.85137" lon="86.7832">
        <ele>3853.4</ele>
        <time>2022-10-23T03:45:39.000Z</time>
      </trkpt>
      <trkpt lat="27.851392" lon="86.7832">
        <ele>3854.6</ele>
        <time>2022-10-23T03:45:43.000Z</time>
      </trkpt>
      <trkpt lat="27.851402" lon="86.783219">
        <ele>3855.6</ele>
        <time>2022-10-23T03:45:45.000Z</time>
      </trkpt>
      <trkpt lat="27.851402" lon="86.783251">
        <ele>3857.4</ele>
        <time>2022-10-23T03:45:57.000Z</time>
      </trkpt>
      <trkpt lat="27.85145" lon="86.783264">
        <ele>3859</ele>
        <time>2022-10-23T03:47:28.000Z</time>
      </trkpt>
      <trkpt lat="27.851462" lon="86.78329">
        <ele>3859.8</ele>
        <time>2022-10-23T03:47:31.000Z</time>
      </trkpt>
      <trkpt lat="27.851475" lon="86.783309">
        <ele>3859.8</ele>
        <time>2022-10-23T03:47:33.000Z</time>
      </trkpt>
      <trkpt lat="27.851494" lon="86.783328">
        <ele>3860</ele>
        <time>2022-10-23T03:47:36.000Z</time>
      </trkpt>
      <trkpt lat="27.851504" lon="86.783347">
        <ele>3861.2</ele>
        <time>2022-10-23T03:48:04.000Z</time>
      </trkpt>
      <trkpt lat="27.851514" lon="86.783366">
        <ele>3861.6</ele>
        <time>2022-10-23T03:48:05.000Z</time>
      </trkpt>
      <trkpt lat="27.85153" lon="86.783392">
        <ele>3862</ele>
        <time>2022-10-23T03:48:07.000Z</time>
      </trkpt>
      <trkpt lat="27.851539" lon="86.783411">
        <ele>3862.2</ele>
        <time>2022-10-23T03:48:08.000Z</time>
      </trkpt>
      <trkpt lat="27.851552" lon="86.78343">
        <ele>3862.6</ele>
        <time>2022-10-23T03:48:10.000Z</time>
      </trkpt>
      <trkpt lat="27.851558" lon="86.78345">
        <ele>3862.6</ele>
        <time>2022-10-23T03:48:11.000Z</time>
      </trkpt>
      <trkpt lat="27.851574" lon="86.783469">
        <ele>3863</ele>
        <time>2022-10-23T03:48:13.000Z</time>
      </trkpt>
      <trkpt lat="27.851581" lon="86.783488">
        <ele>3863.2</ele>
        <time>2022-10-23T03:48:15.000Z</time>
      </trkpt>
      <trkpt lat="27.851603" lon="86.783507">
        <ele>3863.6</ele>
        <time>2022-10-23T03:48:21.000Z</time>
      </trkpt>
      <trkpt lat="27.851613" lon="86.783526">
        <ele>3864.2</ele>
        <time>2022-10-23T03:48:24.000Z</time>
      </trkpt>
      <trkpt lat="27.851629" lon="86.783539">
        <ele>3864.6</ele>
        <time>2022-10-23T03:48:27.000Z</time>
      </trkpt>
      <trkpt lat="27.851648" lon="86.783565">
        <ele>3865.6</ele>
        <time>2022-10-23T03:48:31.000Z</time>
      </trkpt>
      <trkpt lat="27.851654" lon="86.783584">
        <ele>3865.6</ele>
        <time>2022-10-23T03:48:34.000Z</time>
      </trkpt>
      <trkpt lat="27.851664" lon="86.783616">
        <ele>3866</ele>
        <time>2022-10-23T03:48:39.000Z</time>
      </trkpt>
      <trkpt lat="27.85167" lon="86.783635">
        <ele>3866</ele>
        <time>2022-10-23T03:48:42.000Z</time>
      </trkpt>
      <trkpt lat="27.85168" lon="86.783661">
        <ele>3866.2</ele>
        <time>2022-10-23T03:48:46.000Z</time>
      </trkpt>
      <trkpt lat="27.851693" lon="86.783686">
        <ele>3867</ele>
        <time>2022-10-23T03:48:50.000Z</time>
      </trkpt>
      <trkpt lat="27.851709" lon="86.783699">
        <ele>3867.2</ele>
        <time>2022-10-23T03:48:54.000Z</time>
      </trkpt>
      <trkpt lat="27.851728" lon="86.783725">
        <ele>3868.2</ele>
        <time>2022-10-23T03:48:59.000Z</time>
      </trkpt>
      <trkpt lat="27.851747" lon="86.783744">
        <ele>3868.8</ele>
        <time>2022-10-23T03:49:04.000Z</time>
      </trkpt>
      <trkpt lat="27.85176" lon="86.783763">
        <ele>3869.6</ele>
        <time>2022-10-23T03:49:07.000Z</time>
      </trkpt>
      <trkpt lat="27.851779" lon="86.783776">
        <ele>3870.6</ele>
        <time>2022-10-23T03:49:13.000Z</time>
      </trkpt>
      <trkpt lat="27.851798" lon="86.783789">
        <ele>3870.8</ele>
        <time>2022-10-23T03:49:18.000Z</time>
      </trkpt>
      <trkpt lat="27.851818" lon="86.783808">
        <ele>3872</ele>
        <time>2022-10-23T03:49:22.000Z</time>
      </trkpt>
      <trkpt lat="27.851827" lon="86.783827">
        <ele>3872.2</ele>
        <time>2022-10-23T03:49:26.000Z</time>
      </trkpt>
      <trkpt lat="27.85185" lon="86.783834">
        <ele>3873.2</ele>
        <time>2022-10-23T03:49:32.000Z</time>
      </trkpt>
      <trkpt lat="27.851862" lon="86.783853">
        <ele>3874</ele>
        <time>2022-10-23T03:49:36.000Z</time>
      </trkpt>
      <trkpt lat="27.851882" lon="86.783866">
        <ele>3875.2</ele>
        <time>2022-10-23T03:49:42.000Z</time>
      </trkpt>
      <trkpt lat="27.851894" lon="86.783885">
        <ele>3875.4</ele>
        <time>2022-10-23T03:49:46.000Z</time>
      </trkpt>
      <trkpt lat="27.85191" lon="86.783904">
        <ele>3876.2</ele>
        <time>2022-10-23T03:49:53.000Z</time>
      </trkpt>
      <trkpt lat="27.85192" lon="86.783923">
        <ele>3876.6</ele>
        <time>2022-10-23T03:49:57.000Z</time>
      </trkpt>
      <trkpt lat="27.851939" lon="86.783936">
        <ele>3877.4</ele>
        <time>2022-10-23T03:50:02.000Z</time>
      </trkpt>
      <trkpt lat="27.851942" lon="86.783962">
        <ele>3878.2</ele>
        <time>2022-10-23T03:50:06.000Z</time>
      </trkpt>
      <trkpt lat="27.851958" lon="86.783974">
        <ele>3878.4</ele>
        <time>2022-10-23T03:50:09.000Z</time>
      </trkpt>
      <trkpt lat="27.851978" lon="86.783981">
        <ele>3879</ele>
        <time>2022-10-23T03:50:15.000Z</time>
      </trkpt>
      <trkpt lat="27.851994" lon="86.783994">
        <ele>3880.4</ele>
        <time>2022-10-23T03:50:19.000Z</time>
      </trkpt>
      <trkpt lat="27.852006" lon="86.784013">
        <ele>3880.4</ele>
        <time>2022-10-23T03:50:22.000Z</time>
      </trkpt>
      <trkpt lat="27.852016" lon="86.784032">
        <ele>3880.6</ele>
        <time>2022-10-23T03:50:25.000Z</time>
      </trkpt>
      <trkpt lat="27.852016" lon="86.784058">
        <ele>3880.6</ele>
        <time>2022-10-23T03:50:27.000Z</time>
      </trkpt>
      <trkpt lat="27.852016" lon="86.78409">
        <ele>3880.4</ele>
        <time>2022-10-23T03:50:31.000Z</time>
      </trkpt>
      <trkpt lat="27.852022" lon="86.784122">
        <ele>3880.6</ele>
        <time>2022-10-23T03:50:35.000Z</time>
      </trkpt>
      <trkpt lat="27.852016" lon="86.784141">
        <ele>3880.4</ele>
        <time>2022-10-23T03:50:37.000Z</time>
      </trkpt>
      <trkpt lat="27.852026" lon="86.784166">
        <ele>3880.6</ele>
        <time>2022-10-23T03:50:40.000Z</time>
      </trkpt>
      <trkpt lat="27.852038" lon="86.784186">
        <ele>3880.8</ele>
        <time>2022-10-23T03:50:45.000Z</time>
      </trkpt>
      <trkpt lat="27.852042" lon="86.784211">
        <ele>3881.2</ele>
        <time>2022-10-23T03:50:48.000Z</time>
      </trkpt>
      <trkpt lat="27.852051" lon="86.78423">
        <ele>3882.4</ele>
        <time>2022-10-23T03:50:54.000Z</time>
      </trkpt>
      <trkpt lat="27.852064" lon="86.78425">
        <ele>3883.2</ele>
        <time>2022-10-23T03:50:58.000Z</time>
      </trkpt>
      <trkpt lat="27.852086" lon="86.78425">
        <ele>3884</ele>
        <time>2022-10-23T03:51:04.000Z</time>
      </trkpt>
      <trkpt lat="27.852106" lon="86.784262">
        <ele>3885.2</ele>
        <time>2022-10-23T03:51:10.000Z</time>
      </trkpt>
      <trkpt lat="27.852118" lon="86.784282">
        <ele>3886</ele>
        <time>2022-10-23T03:51:15.000Z</time>
      </trkpt>
      <trkpt lat="27.852134" lon="86.784301">
        <ele>3887.6</ele>
        <time>2022-10-23T03:51:24.000Z</time>
      </trkpt>
      <trkpt lat="27.852138" lon="86.784326">
        <ele>3889.4</ele>
        <time>2022-10-23T03:51:48.000Z</time>
      </trkpt>
      <trkpt lat="27.852157" lon="86.784346">
        <ele>3889.6</ele>
        <time>2022-10-23T03:51:51.000Z</time>
      </trkpt>
      <trkpt lat="27.852163" lon="86.784365">
        <ele>3890.4</ele>
        <time>2022-10-23T03:51:53.000Z</time>
      </trkpt>
      <trkpt lat="27.852176" lon="86.784384">
        <ele>3890.4</ele>
        <time>2022-10-23T03:51:56.000Z</time>
      </trkpt>
      <trkpt lat="27.852186" lon="86.784403">
        <ele>3891.4</ele>
        <time>2022-10-23T03:51:58.000Z</time>
      </trkpt>
      <trkpt lat="27.852205" lon="86.784416">
        <ele>3892</ele>
        <time>2022-10-23T03:52:04.000Z</time>
      </trkpt>
      <trkpt lat="27.852224" lon="86.784422">
        <ele>3893.4</ele>
        <time>2022-10-23T03:52:09.000Z</time>
      </trkpt>
      <trkpt lat="27.852243" lon="86.784429">
        <ele>3894</ele>
        <time>2022-10-23T03:52:14.000Z</time>
      </trkpt>
      <trkpt lat="27.852259" lon="86.784442">
        <ele>3894.6</ele>
        <time>2022-10-23T03:52:18.000Z</time>
      </trkpt>
      <trkpt lat="27.852288" lon="86.784454">
        <ele>3897.2</ele>
        <time>2022-10-23T03:53:01.000Z</time>
      </trkpt>
      <trkpt lat="27.85231" lon="86.784461">
        <ele>3897</ele>
        <time>2022-10-23T03:53:02.000Z</time>
      </trkpt>
      <trkpt lat="27.852336" lon="86.784486">
        <ele>3897.4</ele>
        <time>2022-10-23T03:53:04.000Z</time>
      </trkpt>
      <trkpt lat="27.852358" lon="86.784506">
        <ele>3898</ele>
        <time>2022-10-23T03:53:06.000Z</time>
      </trkpt>
      <trkpt lat="27.852368" lon="86.784525">
        <ele>3898.2</ele>
        <time>2022-10-23T03:53:07.000Z</time>
      </trkpt>
      <trkpt lat="27.852394" lon="86.78455">
        <ele>3898.4</ele>
        <time>2022-10-23T03:53:09.000Z</time>
      </trkpt>
      <trkpt lat="27.852413" lon="86.784563">
        <ele>3898.6</ele>
        <time>2022-10-23T03:53:13.000Z</time>
      </trkpt>
      <trkpt lat="27.852419" lon="86.784582">
        <ele>3899</ele>
        <time>2022-10-23T03:53:24.000Z</time>
      </trkpt>
      <trkpt lat="27.852438" lon="86.784589">
        <ele>3898.8</ele>
        <time>2022-10-23T03:53:27.000Z</time>
      </trkpt>
      <trkpt lat="27.852454" lon="86.784608">
        <ele>3898.8</ele>
        <time>2022-10-23T03:53:30.000Z</time>
      </trkpt>
      <trkpt lat="27.852477" lon="86.784614">
        <ele>3899</ele>
        <time>2022-10-23T03:53:34.000Z</time>
      </trkpt>
      <trkpt lat="27.852493" lon="86.784627">
        <ele>3900.2</ele>
        <time>2022-10-23T03:54:31.000Z</time>
      </trkpt>
      <trkpt lat="27.852502" lon="86.784646">
        <ele>3899.6</ele>
        <time>2022-10-23T03:54:33.000Z</time>
      </trkpt>
      <trkpt lat="27.852522" lon="86.784646">
        <ele>3900.2</ele>
        <time>2022-10-23T03:54:35.000Z</time>
      </trkpt>
      <trkpt lat="27.852541" lon="86.784653">
        <ele>3900</ele>
        <time>2022-10-23T03:54:37.000Z</time>
      </trkpt>
      <trkpt lat="27.852563" lon="86.784666">
        <ele>3900.2</ele>
        <time>2022-10-23T03:54:39.000Z</time>
      </trkpt>
      <trkpt lat="27.852589" lon="86.784678">
        <ele>3900.8</ele>
        <time>2022-10-23T03:54:42.000Z</time>
      </trkpt>
      <trkpt lat="27.852614" lon="86.784685">
        <ele>3901</ele>
        <time>2022-10-23T03:54:45.000Z</time>
      </trkpt>
      <trkpt lat="27.852634" lon="86.784698">
        <ele>3901.2</ele>
        <time>2022-10-23T03:54:48.000Z</time>
      </trkpt>
      <trkpt lat="27.852646" lon="86.784723">
        <ele>3901.4</ele>
        <time>2022-10-23T03:54:50.000Z</time>
      </trkpt>
      <trkpt lat="27.852662" lon="86.784736">
        <ele>3901.8</ele>
        <time>2022-10-23T03:54:52.000Z</time>
      </trkpt>
      <trkpt lat="27.852675" lon="86.784762">
        <ele>3902.2</ele>
        <time>2022-10-23T03:54:55.000Z</time>
      </trkpt>
      <trkpt lat="27.852691" lon="86.784774">
        <ele>3902.4</ele>
        <time>2022-10-23T03:54:57.000Z</time>
      </trkpt>
      <trkpt lat="27.852726" lon="86.784806">
        <ele>3903.4</ele>
        <time>2022-10-23T03:55:03.000Z</time>
      </trkpt>
      <trkpt lat="27.852742" lon="86.784826">
        <ele>3904</ele>
        <time>2022-10-23T03:55:07.000Z</time>
      </trkpt>
      <trkpt lat="27.852752" lon="86.784845">
        <ele>3904</ele>
        <time>2022-10-23T03:55:10.000Z</time>
      </trkpt>
      <trkpt lat="27.85279" lon="86.784877">
        <ele>3907.4</ele>
        <time>2022-10-23T03:55:56.000Z</time>
      </trkpt>
      <trkpt lat="27.852819" lon="86.784883">
        <ele>3907.4</ele>
        <time>2022-10-23T03:55:58.000Z</time>
      </trkpt>
      <trkpt lat="27.852854" lon="86.784896">
        <ele>3907.8</ele>
        <time>2022-10-23T03:56:00.000Z</time>
      </trkpt>
      <trkpt lat="27.85288" lon="86.784915">
        <ele>3908</ele>
        <time>2022-10-23T03:56:02.000Z</time>
      </trkpt>
      <trkpt lat="27.852906" lon="86.784928">
        <ele>3908.2</ele>
        <time>2022-10-23T03:56:04.000Z</time>
      </trkpt>
      <trkpt lat="27.852922" lon="86.784941">
        <ele>3908.8</ele>
        <time>2022-10-23T03:56:05.000Z</time>
      </trkpt>
      <trkpt lat="27.852934" lon="86.78496">
        <ele>3909</ele>
        <time>2022-10-23T03:56:08.000Z</time>
      </trkpt>
      <trkpt lat="27.85295" lon="86.784973">
        <ele>3909.2</ele>
        <time>2022-10-23T03:56:10.000Z</time>
      </trkpt>
      <trkpt lat="27.852976" lon="86.784979">
        <ele>3909.6</ele>
        <time>2022-10-23T03:56:14.000Z</time>
      </trkpt>
      <trkpt lat="27.853005" lon="86.784998">
        <ele>3909.6</ele>
        <time>2022-10-23T03:56:17.000Z</time>
      </trkpt>
      <trkpt lat="27.853027" lon="86.785011">
        <ele>3909.6</ele>
        <time>2022-10-23T03:56:19.000Z</time>
      </trkpt>
      <trkpt lat="27.853053" lon="86.785024">
        <ele>3909.6</ele>
        <time>2022-10-23T03:56:22.000Z</time>
      </trkpt>
      <trkpt lat="27.853069" lon="86.785043">
        <ele>3910</ele>
        <time>2022-10-23T03:56:24.000Z</time>
      </trkpt>
      <trkpt lat="27.853088" lon="86.78505">
        <ele>3910</ele>
        <time>2022-10-23T03:56:26.000Z</time>
      </trkpt>
      <trkpt lat="27.853107" lon="86.785075">
        <ele>3910.2</ele>
        <time>2022-10-23T03:56:29.000Z</time>
      </trkpt>
      <trkpt lat="27.85312" lon="86.785094">
        <ele>3910.8</ele>
        <time>2022-10-23T03:56:32.000Z</time>
      </trkpt>
      <trkpt lat="27.853126" lon="86.785114">
        <ele>3910.8</ele>
        <time>2022-10-23T03:56:33.000Z</time>
      </trkpt>
      <trkpt lat="27.853139" lon="86.785133">
        <ele>3911</ele>
        <time>2022-10-23T03:56:36.000Z</time>
      </trkpt>
      <trkpt lat="27.853142" lon="86.785158">
        <ele>3911</ele>
        <time>2022-10-23T03:56:38.000Z</time>
      </trkpt>
      <trkpt lat="27.853158" lon="86.785178">
        <ele>3911.4</ele>
        <time>2022-10-23T03:56:41.000Z</time>
      </trkpt>
      <trkpt lat="27.853174" lon="86.785197">
        <ele>3911.4</ele>
        <time>2022-10-23T03:56:44.000Z</time>
      </trkpt>
      <trkpt lat="27.85319" lon="86.78521">
        <ele>3912</ele>
        <time>2022-10-23T03:56:47.000Z</time>
      </trkpt>
      <trkpt lat="27.85321" lon="86.785235">
        <ele>3912.4</ele>
        <time>2022-10-23T03:56:51.000Z</time>
      </trkpt>
      <trkpt lat="27.853216" lon="86.785254">
        <ele>3913.2</ele>
        <time>2022-10-23T03:56:54.000Z</time>
      </trkpt>
      <trkpt lat="27.853222" lon="86.78528">
        <ele>3913.2</ele>
        <time>2022-10-23T03:56:57.000Z</time>
      </trkpt>
      <trkpt lat="27.853226" lon="86.785312">
        <ele>3913.2</ele>
        <time>2022-10-23T03:56:59.000Z</time>
      </trkpt>
      <trkpt lat="27.853248" lon="86.785338">
        <ele>3913.2</ele>
        <time>2022-10-23T03:57:02.000Z</time>
      </trkpt>
      <trkpt lat="27.853258" lon="86.785357">
        <ele>3913.2</ele>
        <time>2022-10-23T03:57:04.000Z</time>
      </trkpt>
      <trkpt lat="27.853267" lon="86.785376">
        <ele>3913.8</ele>
        <time>2022-10-23T03:57:07.000Z</time>
      </trkpt>
      <trkpt lat="27.853277" lon="86.785402">
        <ele>3914</ele>
        <time>2022-10-23T03:57:09.000Z</time>
      </trkpt>
      <trkpt lat="27.85327" lon="86.785421">
        <ele>3914.2</ele>
        <time>2022-10-23T03:57:11.000Z</time>
      </trkpt>
      <trkpt lat="27.853264" lon="86.785446">
        <ele>3914</ele>
        <time>2022-10-23T03:57:14.000Z</time>
      </trkpt>
      <trkpt lat="27.853258" lon="86.785472">
        <ele>3914</ele>
        <time>2022-10-23T03:57:16.000Z</time>
      </trkpt>
      <trkpt lat="27.853251" lon="86.785491">
        <ele>3914</ele>
        <time>2022-10-23T03:57:19.000Z</time>
      </trkpt>
      <trkpt lat="27.853238" lon="86.785517">
        <ele>3914.2</ele>
        <time>2022-10-23T03:57:22.000Z</time>
      </trkpt>
      <trkpt lat="27.853222" lon="86.785536">
        <ele>3915</ele>
        <time>2022-10-23T03:57:26.000Z</time>
      </trkpt>
      <trkpt lat="27.853213" lon="86.785562">
        <ele>3915</ele>
        <time>2022-10-23T03:57:29.000Z</time>
      </trkpt>
      <trkpt lat="27.8532" lon="86.785581">
        <ele>3915.2</ele>
        <time>2022-10-23T03:57:33.000Z</time>
      </trkpt>
      <trkpt lat="27.85319" lon="86.7856">
        <ele>3916</ele>
        <time>2022-10-23T03:57:36.000Z</time>
      </trkpt>
      <trkpt lat="27.853181" lon="86.785619">
        <ele>3916.4</ele>
        <time>2022-10-23T03:57:40.000Z</time>
      </trkpt>
      <trkpt lat="27.853187" lon="86.785638">
        <ele>3917.2</ele>
        <time>2022-10-23T03:57:45.000Z</time>
      </trkpt>
      <trkpt lat="27.853187" lon="86.78567">
        <ele>3918.4</ele>
        <time>2022-10-23T03:57:52.000Z</time>
      </trkpt>
      <trkpt lat="27.853171" lon="86.78569">
        <ele>3919.2</ele>
        <time>2022-10-23T03:57:57.000Z</time>
      </trkpt>
      <trkpt lat="27.853155" lon="86.785702">
        <ele>3920</ele>
        <time>2022-10-23T03:58:01.000Z</time>
      </trkpt>
      <trkpt lat="27.853139" lon="86.785722">
        <ele>3920.2</ele>
        <time>2022-10-23T03:58:04.000Z</time>
      </trkpt>
      <trkpt lat="27.85312" lon="86.785734">
        <ele>3921</ele>
        <time>2022-10-23T03:58:08.000Z</time>
      </trkpt>
      <trkpt lat="27.853104" lon="86.785754">
        <ele>3921.4</ele>
        <time>2022-10-23T03:58:11.000Z</time>
      </trkpt>
      <trkpt lat="27.853088" lon="86.785773">
        <ele>3922</ele>
        <time>2022-10-23T03:58:14.000Z</time>
      </trkpt>
      <trkpt lat="27.853082" lon="86.785792">
        <ele>3922</ele>
        <time>2022-10-23T03:58:17.000Z</time>
      </trkpt>
      <trkpt lat="27.853075" lon="86.785818">
        <ele>3922</ele>
        <time>2022-10-23T03:58:20.000Z</time>
      </trkpt>
      <trkpt lat="27.853069" lon="86.785837">
        <ele>3922</ele>
        <time>2022-10-23T03:58:23.000Z</time>
      </trkpt>
      <trkpt lat="27.853069" lon="86.785869">
        <ele>3922.6</ele>
        <time>2022-10-23T03:59:01.000Z</time>
      </trkpt>
      <trkpt lat="27.853075" lon="86.785888">
        <ele>3922.4</ele>
        <time>2022-10-23T03:59:09.000Z</time>
      </trkpt>
      <trkpt lat="27.853082" lon="86.78592">
        <ele>3922.4</ele>
        <time>2022-10-23T03:59:11.000Z</time>
      </trkpt>
      <trkpt lat="27.853088" lon="86.785952">
        <ele>3922.6</ele>
        <time>2022-10-23T03:59:13.000Z</time>
      </trkpt>
      <trkpt lat="27.853104" lon="86.785978">
        <ele>3922.8</ele>
        <time>2022-10-23T03:59:15.000Z</time>
      </trkpt>
      <trkpt lat="27.853114" lon="86.785997">
        <ele>3922.8</ele>
        <time>2022-10-23T03:59:16.000Z</time>
      </trkpt>
      <trkpt lat="27.85312" lon="86.786016">
        <ele>3922.8</ele>
        <time>2022-10-23T03:59:17.000Z</time>
      </trkpt>
      <trkpt lat="27.85313" lon="86.786042">
        <ele>3922.8</ele>
        <time>2022-10-23T03:59:19.000Z</time>
      </trkpt>
      <trkpt lat="27.853133" lon="86.786067">
        <ele>3922.6</ele>
        <time>2022-10-23T03:59:21.000Z</time>
      </trkpt>
      <trkpt lat="27.853139" lon="86.786086">
        <ele>3922.8</ele>
        <time>2022-10-23T03:59:23.000Z</time>
      </trkpt>
      <trkpt lat="27.853146" lon="86.786112">
        <ele>3922.8</ele>
        <time>2022-10-23T03:59:25.000Z</time>
      </trkpt>
      <trkpt lat="27.853133" lon="86.786131">
        <ele>3923.2</ele>
        <time>2022-10-23T04:00:44.000Z</time>
      </trkpt>
      <trkpt lat="27.853155" lon="86.786157">
        <ele>3923.4</ele>
        <time>2022-10-23T04:00:46.000Z</time>
      </trkpt>
      <trkpt lat="27.853171" lon="86.786176">
        <ele>3923.6</ele>
        <time>2022-10-23T04:00:48.000Z</time>
      </trkpt>
      <trkpt lat="27.853187" lon="86.786195">
        <ele>3923.4</ele>
        <time>2022-10-23T04:00:50.000Z</time>
      </trkpt>
      <trkpt lat="27.853206" lon="86.786214">
        <ele>3924</ele>
        <time>2022-10-23T04:00:52.000Z</time>
      </trkpt>
      <trkpt lat="27.853213" lon="86.786234">
        <ele>3924</ele>
        <time>2022-10-23T04:00:53.000Z</time>
      </trkpt>
      <trkpt lat="27.853232" lon="86.786253">
        <ele>3924.2</ele>
        <time>2022-10-23T04:00:56.000Z</time>
      </trkpt>
      <trkpt lat="27.853238" lon="86.786272">
        <ele>3924.2</ele>
        <time>2022-10-23T04:00:57.000Z</time>
      </trkpt>
      <trkpt lat="27.853251" lon="86.786291">
        <ele>3924.2</ele>
        <time>2022-10-23T04:01:00.000Z</time>
      </trkpt>
      <trkpt lat="27.853261" lon="86.786323">
        <ele>3924.2</ele>
        <time>2022-10-23T04:01:02.000Z</time>
      </trkpt>
      <trkpt lat="27.853267" lon="86.786349">
        <ele>3924.2</ele>
        <time>2022-10-23T04:01:04.000Z</time>
      </trkpt>
      <trkpt lat="27.85328" lon="86.786374">
        <ele>3924</ele>
        <time>2022-10-23T04:01:07.000Z</time>
      </trkpt>
      <trkpt lat="27.853293" lon="86.786394">
        <ele>3923.8</ele>
        <time>2022-10-23T04:01:09.000Z</time>
      </trkpt>
      <trkpt lat="27.853306" lon="86.786413">
        <ele>3924.2</ele>
        <time>2022-10-23T04:01:11.000Z</time>
      </trkpt>
      <trkpt lat="27.853318" lon="86.786438">
        <ele>3924.2</ele>
        <time>2022-10-23T04:01:13.000Z</time>
      </trkpt>
      <trkpt lat="27.853338" lon="86.786451">
        <ele>3924.2</ele>
        <time>2022-10-23T04:01:16.000Z</time>
      </trkpt>
      <trkpt lat="27.853347" lon="86.786477">
        <ele>3924.4</ele>
        <time>2022-10-23T04:01:18.000Z</time>
      </trkpt>
      <trkpt lat="27.853347" lon="86.786509">
        <ele>3924.8</ele>
        <time>2022-10-23T04:01:21.000Z</time>
      </trkpt>
      <trkpt lat="27.853347" lon="86.786534">
        <ele>3924.8</ele>
        <time>2022-10-23T04:01:24.000Z</time>
      </trkpt>
      <trkpt lat="27.853341" lon="86.786554">
        <ele>3924.8</ele>
        <time>2022-10-23T04:01:27.000Z</time>
      </trkpt>
      <trkpt lat="27.853331" lon="86.786573">
        <ele>3924.8</ele>
        <time>2022-10-23T04:01:29.000Z</time>
      </trkpt>
      <trkpt lat="27.853325" lon="86.786598">
        <ele>3924.2</ele>
        <time>2022-10-23T04:01:31.000Z</time>
      </trkpt>
      <trkpt lat="27.853318" lon="86.786624">
        <ele>3924.2</ele>
        <time>2022-10-23T04:01:33.000Z</time>
      </trkpt>
      <trkpt lat="27.853309" lon="86.78665">
        <ele>3924.8</ele>
        <time>2022-10-23T04:01:35.000Z</time>
      </trkpt>
      <trkpt lat="27.853309" lon="86.786675">
        <ele>3924.8</ele>
        <time>2022-10-23T04:01:37.000Z</time>
      </trkpt>
      <trkpt lat="27.853306" lon="86.786707">
        <ele>3925</ele>
        <time>2022-10-23T04:01:40.000Z</time>
      </trkpt>
      <trkpt lat="27.853299" lon="86.786726">
        <ele>3925</ele>
        <time>2022-10-23T04:01:43.000Z</time>
      </trkpt>
      <trkpt lat="27.853293" lon="86.786746">
        <ele>3925.2</ele>
        <time>2022-10-23T04:01:44.000Z</time>
      </trkpt>
      <trkpt lat="27.853299" lon="86.786771">
        <ele>3925.6</ele>
        <time>2022-10-23T04:01:47.000Z</time>
      </trkpt>
      <trkpt lat="27.853306" lon="86.786797">
        <ele>3925.6</ele>
        <time>2022-10-23T04:01:50.000Z</time>
      </trkpt>
      <trkpt lat="27.853328" lon="86.786822">
        <ele>3925.2</ele>
        <time>2022-10-23T04:01:53.000Z</time>
      </trkpt>
      <trkpt lat="27.853347" lon="86.786829">
        <ele>3925.2</ele>
        <time>2022-10-23T04:01:55.000Z</time>
      </trkpt>
      <trkpt lat="27.85337" lon="86.786848">
        <ele>3925.6</ele>
        <time>2022-10-23T04:01:58.000Z</time>
      </trkpt>
      <trkpt lat="27.853379" lon="86.786874">
        <ele>3925.8</ele>
        <time>2022-10-23T04:02:00.000Z</time>
      </trkpt>
      <trkpt lat="27.853398" lon="86.786893">
        <ele>3925.8</ele>
        <time>2022-10-23T04:02:02.000Z</time>
      </trkpt>
      <trkpt lat="27.853408" lon="86.786918">
        <ele>3926</ele>
        <time>2022-10-23T04:02:04.000Z</time>
      </trkpt>
      <trkpt lat="27.853411" lon="86.78695">
        <ele>3926.2</ele>
        <time>2022-10-23T04:02:06.000Z</time>
      </trkpt>
      <trkpt lat="27.853421" lon="86.78697">
        <ele>3926.2</ele>
        <time>2022-10-23T04:02:08.000Z</time>
      </trkpt>
      <trkpt lat="27.853427" lon="86.786989">
        <ele>3926.2</ele>
        <time>2022-10-23T04:02:10.000Z</time>
      </trkpt>
      <trkpt lat="27.85344" lon="86.787008">
        <ele>3926.2</ele>
        <time>2022-10-23T04:02:12.000Z</time>
      </trkpt>
      <trkpt lat="27.853446" lon="86.787034">
        <ele>3926.6</ele>
        <time>2022-10-23T04:02:14.000Z</time>
      </trkpt>
      <trkpt lat="27.853453" lon="86.787072">
        <ele>3926.8</ele>
        <time>2022-10-23T04:02:17.000Z</time>
      </trkpt>
      <trkpt lat="27.853459" lon="86.787104">
        <ele>3926.8</ele>
        <time>2022-10-23T04:02:20.000Z</time>
      </trkpt>
      <trkpt lat="27.853466" lon="86.78713">
        <ele>3927</ele>
        <time>2022-10-23T04:02:23.000Z</time>
      </trkpt>
      <trkpt lat="27.853475" lon="86.787162">
        <ele>3926.8</ele>
        <time>2022-10-23T04:02:26.000Z</time>
      </trkpt>
      <trkpt lat="27.853485" lon="86.787181">
        <ele>3926.6</ele>
        <time>2022-10-23T04:02:28.000Z</time>
      </trkpt>
      <trkpt lat="27.853491" lon="86.787206">
        <ele>3926.2</ele>
        <time>2022-10-23T04:02:31.000Z</time>
      </trkpt>
      <trkpt lat="27.853507" lon="86.787226">
        <ele>3926</ele>
        <time>2022-10-23T04:02:33.000Z</time>
      </trkpt>
      <trkpt lat="27.853526" lon="86.787245">
        <ele>3925.8</ele>
        <time>2022-10-23T04:02:35.000Z</time>
      </trkpt>
      <trkpt lat="27.853546" lon="86.78727">
        <ele>3926</ele>
        <time>2022-10-23T04:02:37.000Z</time>
      </trkpt>
      <trkpt lat="27.853565" lon="86.787302">
        <ele>3925.8</ele>
        <time>2022-10-23T04:02:40.000Z</time>
      </trkpt>
      <trkpt lat="27.853574" lon="86.787322">
        <ele>3925.8</ele>
        <time>2022-10-23T04:02:42.000Z</time>
      </trkpt>
      <trkpt lat="27.853581" lon="86.787347">
        <ele>3925.8</ele>
        <time>2022-10-23T04:02:44.000Z</time>
      </trkpt>
      <trkpt lat="27.853584" lon="86.787379">
        <ele>3925.6</ele>
        <time>2022-10-23T04:02:47.000Z</time>
      </trkpt>
      <trkpt lat="27.853587" lon="86.787418">
        <ele>3925.6</ele>
        <time>2022-10-23T04:02:50.000Z</time>
      </trkpt>
      <trkpt lat="27.85359" lon="86.787443">
        <ele>3925.6</ele>
        <time>2022-10-23T04:02:53.000Z</time>
      </trkpt>
      <trkpt lat="27.853594" lon="86.787469">
        <ele>3925.8</ele>
        <time>2022-10-23T04:02:55.000Z</time>
      </trkpt>
      <trkpt lat="27.8536" lon="86.787488">
        <ele>3925.8</ele>
        <time>2022-10-23T04:02:57.000Z</time>
      </trkpt>
      <trkpt lat="27.853606" lon="86.787507">
        <ele>3925.8</ele>
        <time>2022-10-23T04:02:58.000Z</time>
      </trkpt>
      <trkpt lat="27.853613" lon="86.787546">
        <ele>3925.8</ele>
        <time>2022-10-23T04:03:01.000Z</time>
      </trkpt>
      <trkpt lat="27.853622" lon="86.787565">
        <ele>3926</ele>
        <time>2022-10-23T04:03:03.000Z</time>
      </trkpt>
      <trkpt lat="27.853629" lon="86.787597">
        <ele>3926</ele>
        <time>2022-10-23T04:03:05.000Z</time>
      </trkpt>
      <trkpt lat="27.853638" lon="86.787616">
        <ele>3926</ele>
        <time>2022-10-23T04:03:07.000Z</time>
      </trkpt>
      <trkpt lat="27.853648" lon="86.787642">
        <ele>3926</ele>
        <time>2022-10-23T04:03:09.000Z</time>
      </trkpt>
      <trkpt lat="27.853654" lon="86.787667">
        <ele>3925.4</ele>
        <time>2022-10-23T04:03:11.000Z</time>
      </trkpt>
      <trkpt lat="27.853664" lon="86.787686">
        <ele>3924.8</ele>
        <time>2022-10-23T04:03:13.000Z</time>
      </trkpt>
      <trkpt lat="27.853677" lon="86.787706">
        <ele>3924.4</ele>
        <time>2022-10-23T04:03:15.000Z</time>
      </trkpt>
      <trkpt lat="27.853696" lon="86.787718">
        <ele>3924</ele>
        <time>2022-10-23T04:03:20.000Z</time>
      </trkpt>
      <trkpt lat="27.853706" lon="86.787738">
        <ele>3924</ele>
        <time>2022-10-23T04:03:22.000Z</time>
      </trkpt>
      <trkpt lat="27.853725" lon="86.78775">
        <ele>3923</ele>
        <time>2022-10-23T04:03:25.000Z</time>
      </trkpt>
      <trkpt lat="27.853747" lon="86.787763">
        <ele>3922.2</ele>
        <time>2022-10-23T04:03:28.000Z</time>
      </trkpt>
      <trkpt lat="27.853766" lon="86.787776">
        <ele>3922</ele>
        <time>2022-10-23T04:03:30.000Z</time>
      </trkpt>
      <trkpt lat="27.853789" lon="86.787789">
        <ele>3922</ele>
        <time>2022-10-23T04:03:33.000Z</time>
      </trkpt>
      <trkpt lat="27.853805" lon="86.787814">
        <ele>3922.2</ele>
        <time>2022-10-23T04:03:37.000Z</time>
      </trkpt>
      <trkpt lat="27.853814" lon="86.787834">
        <ele>3922.6</ele>
        <time>2022-10-23T04:03:40.000Z</time>
      </trkpt>
      <trkpt lat="27.853824" lon="86.787859">
        <ele>3922.6</ele>
        <time>2022-10-23T04:03:43.000Z</time>
      </trkpt>
      <trkpt lat="27.853818" lon="86.787878">
        <ele>3921.8</ele>
        <time>2022-10-23T04:03:46.000Z</time>
      </trkpt>
      <trkpt lat="27.853808" lon="86.787898">
        <ele>3921.6</ele>
        <time>2022-10-23T04:03:48.000Z</time>
      </trkpt>
      <trkpt lat="27.853798" lon="86.787923">
        <ele>3921.6</ele>
        <time>2022-10-23T04:03:51.000Z</time>
      </trkpt>
      <trkpt lat="27.853789" lon="86.787949">
        <ele>3921.6</ele>
        <time>2022-10-23T04:03:53.000Z</time>
      </trkpt>
      <trkpt lat="27.853786" lon="86.787974">
        <ele>3922.2</ele>
        <time>2022-10-23T04:03:56.000Z</time>
      </trkpt>
      <trkpt lat="27.853779" lon="86.788">
        <ele>3922.6</ele>
        <time>2022-10-23T04:03:59.000Z</time>
      </trkpt>
      <trkpt lat="27.853773" lon="86.788026">
        <ele>3922</ele>
        <time>2022-10-23T04:04:02.000Z</time>
      </trkpt>
      <trkpt lat="27.853763" lon="86.788045">
        <ele>3921.8</ele>
        <time>2022-10-23T04:04:04.000Z</time>
      </trkpt>
      <trkpt lat="27.853747" lon="86.78807">
        <ele>3921.8</ele>
        <time>2022-10-23T04:04:06.000Z</time>
      </trkpt>
      <trkpt lat="27.853734" lon="86.788096">
        <ele>3920.6</ele>
        <time>2022-10-23T04:04:08.000Z</time>
      </trkpt>
      <trkpt lat="27.853715" lon="86.788115">
        <ele>3920.4</ele>
        <time>2022-10-23T04:04:10.000Z</time>
      </trkpt>
      <trkpt lat="27.853702" lon="86.788141">
        <ele>3920</ele>
        <time>2022-10-23T04:04:12.000Z</time>
      </trkpt>
      <trkpt lat="27.853683" lon="86.78816">
        <ele>3919.8</ele>
        <time>2022-10-23T04:04:15.000Z</time>
      </trkpt>
      <trkpt lat="27.853667" lon="86.788179">
        <ele>3919.6</ele>
        <time>2022-10-23T04:04:17.000Z</time>
      </trkpt>
      <trkpt lat="27.853648" lon="86.788211">
        <ele>3918.8</ele>
        <time>2022-10-23T04:04:20.000Z</time>
      </trkpt>
      <trkpt lat="27.853638" lon="86.78823">
        <ele>3918.4</ele>
        <time>2022-10-23T04:04:22.000Z</time>
      </trkpt>
      <trkpt lat="27.853629" lon="86.788256">
        <ele>3917.8</ele>
        <time>2022-10-23T04:04:24.000Z</time>
      </trkpt>
      <trkpt lat="27.853622" lon="86.788282">
        <ele>3917.8</ele>
        <time>2022-10-23T04:04:26.000Z</time>
      </trkpt>
      <trkpt lat="27.853622" lon="86.788307">
        <ele>3918</ele>
        <time>2022-10-23T04:04:28.000Z</time>
      </trkpt>
      <trkpt lat="27.853622" lon="86.788333">
        <ele>3918</ele>
        <time>2022-10-23T04:04:30.000Z</time>
      </trkpt>
      <trkpt lat="27.853635" lon="86.788352">
        <ele>3918.2</ele>
        <time>2022-10-23T04:04:33.000Z</time>
      </trkpt>
      <trkpt lat="27.853635" lon="86.788378">
        <ele>3918.6</ele>
        <time>2022-10-23T04:04:35.000Z</time>
      </trkpt>
      <trkpt lat="27.853629" lon="86.788397">
        <ele>3918.8</ele>
        <time>2022-10-23T04:04:37.000Z</time>
      </trkpt>
      <trkpt lat="27.853622" lon="86.788416">
        <ele>3918.8</ele>
        <time>2022-10-23T04:04:39.000Z</time>
      </trkpt>
      <trkpt lat="27.853616" lon="86.788435">
        <ele>3918.8</ele>
        <time>2022-10-23T04:04:41.000Z</time>
      </trkpt>
      <trkpt lat="27.853606" lon="86.788461">
        <ele>3918.4</ele>
        <time>2022-10-23T04:04:43.000Z</time>
      </trkpt>
      <trkpt lat="27.8536" lon="86.788493">
        <ele>3918.4</ele>
        <time>2022-10-23T04:04:46.000Z</time>
      </trkpt>
      <trkpt lat="27.853597" lon="86.788531">
        <ele>3918.2</ele>
        <time>2022-10-23T04:04:50.000Z</time>
      </trkpt>
      <trkpt lat="27.853587" lon="86.78855">
        <ele>3917.4</ele>
        <time>2022-10-23T04:04:57.000Z</time>
      </trkpt>
      <trkpt lat="27.853587" lon="86.788576">
        <ele>3917.4</ele>
        <time>2022-10-23T04:05:02.000Z</time>
      </trkpt>
      <trkpt lat="27.85359" lon="86.788602">
        <ele>3917.2</ele>
        <time>2022-10-23T04:05:05.000Z</time>
      </trkpt>
      <trkpt lat="27.85361" lon="86.788653">
        <ele>3916.4</ele>
        <time>2022-10-23T04:05:10.000Z</time>
      </trkpt>
      <trkpt lat="27.853616" lon="86.788672">
        <ele>3916.2</ele>
        <time>2022-10-23T04:05:13.000Z</time>
      </trkpt>
      <trkpt lat="27.853622" lon="86.788698">
        <ele>3916</ele>
        <time>2022-10-23T04:05:16.000Z</time>
      </trkpt>
      <trkpt lat="27.853635" lon="86.788717">
        <ele>3916</ele>
        <time>2022-10-23T04:05:19.000Z</time>
      </trkpt>
      <trkpt lat="27.853645" lon="86.788742">
        <ele>3915.6</ele>
        <time>2022-10-23T04:05:22.000Z</time>
      </trkpt>
      <trkpt lat="27.853648" lon="86.788768">
        <ele>3915.2</ele>
        <time>2022-10-23T04:05:25.000Z</time>
      </trkpt>
      <trkpt lat="27.853654" lon="86.788787">
        <ele>3914.8</ele>
        <time>2022-10-23T04:05:30.000Z</time>
      </trkpt>
      <trkpt lat="27.85367" lon="86.788819">
        <ele>3914.8</ele>
        <time>2022-10-23T04:05:55.000Z</time>
      </trkpt>
      <trkpt lat="27.85369" lon="86.788838">
        <ele>3914.6</ele>
        <time>2022-10-23T04:05:57.000Z</time>
      </trkpt>
      <trkpt lat="27.853702" lon="86.788858">
        <ele>3914.2</ele>
        <time>2022-10-23T04:05:58.000Z</time>
      </trkpt>
      <trkpt lat="27.853718" lon="86.78887">
        <ele>3914.2</ele>
        <time>2022-10-23T04:05:59.000Z</time>
      </trkpt>
      <trkpt lat="27.853734" lon="86.78889">
        <ele>3914.2</ele>
        <time>2022-10-23T04:06:00.000Z</time>
      </trkpt>
      <trkpt lat="27.85376" lon="86.788915">
        <ele>3914.8</ele>
        <time>2022-10-23T04:06:02.000Z</time>
      </trkpt>
      <trkpt lat="27.853773" lon="86.788934">
        <ele>3915</ele>
        <time>2022-10-23T04:06:03.000Z</time>
      </trkpt>
      <trkpt lat="27.853789" lon="86.788954">
        <ele>3915</ele>
        <time>2022-10-23T04:06:06.000Z</time>
      </trkpt>
      <trkpt lat="27.853802" lon="86.788973">
        <ele>3915</ele>
        <time>2022-10-23T04:06:08.000Z</time>
      </trkpt>
      <trkpt lat="27.853818" lon="86.788998">
        <ele>3914.4</ele>
        <time>2022-10-23T04:06:11.000Z</time>
      </trkpt>
      <trkpt lat="27.853824" lon="86.789024">
        <ele>3914.6</ele>
        <time>2022-10-23T04:06:13.000Z</time>
      </trkpt>
      <trkpt lat="27.85384" lon="86.78905">
        <ele>3914.6</ele>
        <time>2022-10-23T04:06:16.000Z</time>
      </trkpt>
      <trkpt lat="27.853862" lon="86.789069">
        <ele>3914.4</ele>
        <time>2022-10-23T04:06:19.000Z</time>
      </trkpt>
      <trkpt lat="27.853869" lon="86.789094">
        <ele>3914.4</ele>
        <time>2022-10-23T04:06:22.000Z</time>
      </trkpt>
      <trkpt lat="27.853875" lon="86.789114">
        <ele>3913.8</ele>
        <time>2022-10-23T04:06:26.000Z</time>
      </trkpt>
      <trkpt lat="27.853882" lon="86.789139">
        <ele>3913.6</ele>
        <time>2022-10-23T04:06:36.000Z</time>
      </trkpt>
      <trkpt lat="27.853901" lon="86.789165">
        <ele>3913.6</ele>
        <time>2022-10-23T04:06:42.000Z</time>
      </trkpt>
      <trkpt lat="27.85391" lon="86.789184">
        <ele>3912.8</ele>
        <time>2022-10-23T04:06:48.000Z</time>
      </trkpt>
      <trkpt lat="27.853917" lon="86.78921">
        <ele>3913</ele>
        <time>2022-10-23T04:06:54.000Z</time>
      </trkpt>
      <trkpt lat="27.853936" lon="86.789229">
        <ele>3912</ele>
        <time>2022-10-23T04:06:57.000Z</time>
      </trkpt>
      <trkpt lat="27.853949" lon="86.789248">
        <ele>3911.8</ele>
        <time>2022-10-23T04:06:59.000Z</time>
      </trkpt>
      <trkpt lat="27.853958" lon="86.789267">
        <ele>3911.2</ele>
        <time>2022-10-23T04:07:01.000Z</time>
      </trkpt>
      <trkpt lat="27.853968" lon="86.789286">
        <ele>3911.2</ele>
        <time>2022-10-23T04:07:03.000Z</time>
      </trkpt>
      <trkpt lat="27.853994" lon="86.789306">
        <ele>3911</ele>
        <time>2022-10-23T04:07:06.000Z</time>
      </trkpt>
      <trkpt lat="27.854006" lon="86.789325">
        <ele>3911</ele>
        <time>2022-10-23T04:07:08.000Z</time>
      </trkpt>
      <trkpt lat="27.854019" lon="86.789344">
        <ele>3911</ele>
        <time>2022-10-23T04:07:10.000Z</time>
      </trkpt>
      <trkpt lat="27.854032" lon="86.789363">
        <ele>3911</ele>
        <time>2022-10-23T04:07:11.000Z</time>
      </trkpt>
      <trkpt lat="27.854045" lon="86.789389">
        <ele>3911.2</ele>
        <time>2022-10-23T04:07:13.000Z</time>
      </trkpt>
      <trkpt lat="27.854058" lon="86.789408">
        <ele>3911.2</ele>
        <time>2022-10-23T04:07:14.000Z</time>
      </trkpt>
      <trkpt lat="27.854074" lon="86.789427">
        <ele>3911.2</ele>
        <time>2022-10-23T04:07:16.000Z</time>
      </trkpt>
      <trkpt lat="27.85408" lon="86.789446">
        <ele>3911.2</ele>
        <time>2022-10-23T04:07:17.000Z</time>
      </trkpt>
      <trkpt lat="27.854093" lon="86.789466">
        <ele>3911.2</ele>
        <time>2022-10-23T04:07:20.000Z</time>
      </trkpt>
      <trkpt lat="27.854099" lon="86.789485">
        <ele>3911</ele>
        <time>2022-10-23T04:07:21.000Z</time>
      </trkpt>
      <trkpt lat="27.854102" lon="86.78951">
        <ele>3910.8</ele>
        <time>2022-10-23T04:07:25.000Z</time>
      </trkpt>
      <trkpt lat="27.854112" lon="86.78953">
        <ele>3911.2</ele>
        <time>2022-10-23T04:07:27.000Z</time>
      </trkpt>
      <trkpt lat="27.854125" lon="86.789549">
        <ele>3910.8</ele>
        <time>2022-10-23T04:07:29.000Z</time>
      </trkpt>
      <trkpt lat="27.854134" lon="86.789574">
        <ele>3910.6</ele>
        <time>2022-10-23T04:07:31.000Z</time>
      </trkpt>
      <trkpt lat="27.854147" lon="86.789594">
        <ele>3910.8</ele>
        <time>2022-10-23T04:07:33.000Z</time>
      </trkpt>
      <trkpt lat="27.85416" lon="86.789613">
        <ele>3910.6</ele>
        <time>2022-10-23T04:07:35.000Z</time>
      </trkpt>
      <trkpt lat="27.854166" lon="86.789645">
        <ele>3910</ele>
        <time>2022-10-23T04:07:38.000Z</time>
      </trkpt>
      <trkpt lat="27.854179" lon="86.789664">
        <ele>3909.8</ele>
        <time>2022-10-23T04:07:40.000Z</time>
      </trkpt>
      <trkpt lat="27.854192" lon="86.789683">
        <ele>3910.4</ele>
        <time>2022-10-23T04:07:42.000Z</time>
      </trkpt>
      <trkpt lat="27.854205" lon="86.789702">
        <ele>3910.6</ele>
        <time>2022-10-23T04:07:45.000Z</time>
      </trkpt>
      <trkpt lat="27.854211" lon="86.789728">
        <ele>3910.6</ele>
        <time>2022-10-23T04:07:47.000Z</time>
      </trkpt>
      <trkpt lat="27.854218" lon="86.789747">
        <ele>3910.6</ele>
        <time>2022-10-23T04:07:49.000Z</time>
      </trkpt>
      <trkpt lat="27.854227" lon="86.789766">
        <ele>3910.6</ele>
        <time>2022-10-23T04:07:51.000Z</time>
      </trkpt>
      <trkpt lat="27.854237" lon="86.789792">
        <ele>3910.6</ele>
        <time>2022-10-23T04:07:54.000Z</time>
      </trkpt>
      <trkpt lat="27.854243" lon="86.789811">
        <ele>3910.6</ele>
        <time>2022-10-23T04:07:56.000Z</time>
      </trkpt>
      <trkpt lat="27.85425" lon="86.789843">
        <ele>3910.8</ele>
        <time>2022-10-23T04:07:59.000Z</time>
      </trkpt>
      <trkpt lat="27.854246" lon="86.789869">
        <ele>3911</ele>
        <time>2022-10-23T04:08:02.000Z</time>
      </trkpt>
      <trkpt lat="27.854253" lon="86.789888">
        <ele>3911.2</ele>
        <time>2022-10-23T04:08:04.000Z</time>
      </trkpt>
      <trkpt lat="27.854256" lon="86.78992">
        <ele>3911.6</ele>
        <time>2022-10-23T04:08:07.000Z</time>
      </trkpt>
      <trkpt lat="27.854259" lon="86.789946">
        <ele>3911.6</ele>
        <time>2022-10-23T04:08:10.000Z</time>
      </trkpt>
      <trkpt lat="27.854262" lon="86.789971">
        <ele>3911.8</ele>
        <time>2022-10-23T04:08:12.000Z</time>
      </trkpt>
      <trkpt lat="27.854269" lon="86.78999">
        <ele>3912</ele>
        <time>2022-10-23T04:08:15.000Z</time>
      </trkpt>
      <trkpt lat="27.854272" lon="86.790016">
        <ele>3912</ele>
        <time>2022-10-23T04:08:17.000Z</time>
      </trkpt>
      <trkpt lat="27.854282" lon="86.790042">
        <ele>3912</ele>
        <time>2022-10-23T04:08:20.000Z</time>
      </trkpt>
      <trkpt lat="27.854256" lon="86.790067">
        <ele>3912.2</ele>
        <time>2022-10-23T04:14:47.000Z</time>
      </trkpt>
      <trkpt lat="27.854266" lon="86.790093">
        <ele>3913</ele>
        <time>2022-10-23T04:14:49.000Z</time>
      </trkpt>
      <trkpt lat="27.854272" lon="86.790118">
        <ele>3912.8</ele>
        <time>2022-10-23T04:14:50.000Z</time>
      </trkpt>
      <trkpt lat="27.854282" lon="86.790144">
        <ele>3913</ele>
        <time>2022-10-23T04:14:53.000Z</time>
      </trkpt>
      <trkpt lat="27.854301" lon="86.790163">
        <ele>3913.2</ele>
        <time>2022-10-23T04:14:55.000Z</time>
      </trkpt>
      <trkpt lat="27.854323" lon="86.790176">
        <ele>3913.4</ele>
        <time>2022-10-23T04:14:57.000Z</time>
      </trkpt>
      <trkpt lat="27.854352" lon="86.790221">
        <ele>3913.6</ele>
        <time>2022-10-23T04:15:04.000Z</time>
      </trkpt>
      <trkpt lat="27.854362" lon="86.790246">
        <ele>3914.2</ele>
        <time>2022-10-23T04:15:07.000Z</time>
      </trkpt>
      <trkpt lat="27.854374" lon="86.790266">
        <ele>3914.4</ele>
        <time>2022-10-23T04:15:10.000Z</time>
      </trkpt>
      <trkpt lat="27.854384" lon="86.790291">
        <ele>3914.6</ele>
        <time>2022-10-23T04:15:12.000Z</time>
      </trkpt>
      <trkpt lat="27.8544" lon="86.790317">
        <ele>3914.6</ele>
        <time>2022-10-23T04:15:15.000Z</time>
      </trkpt>
      <trkpt lat="27.854394" lon="86.790336">
        <ele>3914.4</ele>
        <time>2022-10-23T04:15:17.000Z</time>
      </trkpt>
      <trkpt lat="27.85439" lon="86.790362">
        <ele>3914.4</ele>
        <time>2022-10-23T04:15:19.000Z</time>
      </trkpt>
      <trkpt lat="27.85439" lon="86.790387">
        <ele>3914.6</ele>
        <time>2022-10-23T04:15:21.000Z</time>
      </trkpt>
      <trkpt lat="27.85439" lon="86.790413">
        <ele>3915</ele>
        <time>2022-10-23T04:15:23.000Z</time>
      </trkpt>
      <trkpt lat="27.854387" lon="86.790438">
        <ele>3915</ele>
        <time>2022-10-23T04:15:25.000Z</time>
      </trkpt>
      <trkpt lat="27.854384" lon="86.790464">
        <ele>3915</ele>
        <time>2022-10-23T04:15:28.000Z</time>
      </trkpt>
      <trkpt lat="27.85439" lon="86.790483">
        <ele>3914.8</ele>
        <time>2022-10-23T04:15:30.000Z</time>
      </trkpt>
      <trkpt lat="27.85441" lon="86.790502">
        <ele>3916.6</ele>
        <time>2022-10-23T04:15:39.000Z</time>
      </trkpt>
      <trkpt lat="27.854416" lon="86.790522">
        <ele>3917</ele>
        <time>2022-10-23T04:15:42.000Z</time>
      </trkpt>
      <trkpt lat="27.854435" lon="86.790534">
        <ele>3917.8</ele>
        <time>2022-10-23T04:15:45.000Z</time>
      </trkpt>
      <trkpt lat="27.854458" lon="86.790541">
        <ele>3917.6</ele>
        <time>2022-10-23T04:15:48.000Z</time>
      </trkpt>
      <trkpt lat="27.85448" lon="86.79056">
        <ele>3917.8</ele>
        <time>2022-10-23T04:15:51.000Z</time>
      </trkpt>
      <trkpt lat="27.854502" lon="86.790579">
        <ele>3918</ele>
        <time>2022-10-23T04:15:57.000Z</time>
      </trkpt>
      <trkpt lat="27.854522" lon="86.790598">
        <ele>3918.4</ele>
        <time>2022-10-23T04:15:59.000Z</time>
      </trkpt>
      <trkpt lat="27.854531" lon="86.790618">
        <ele>3919.4</ele>
        <time>2022-10-23T04:16:02.000Z</time>
      </trkpt>
      <trkpt lat="27.854538" lon="86.790637">
        <ele>3919.4</ele>
        <time>2022-10-23T04:16:04.000Z</time>
      </trkpt>
      <trkpt lat="27.854554" lon="86.790656">
        <ele>3919.6</ele>
        <time>2022-10-23T04:16:07.000Z</time>
      </trkpt>
      <trkpt lat="27.85456" lon="86.790675">
        <ele>3919.8</ele>
        <time>2022-10-23T04:16:10.000Z</time>
      </trkpt>
      <trkpt lat="27.854579" lon="86.790688">
        <ele>3921.2</ele>
        <time>2022-10-23T04:16:17.000Z</time>
      </trkpt>
      <trkpt lat="27.854589" lon="86.790714">
        <ele>3921.8</ele>
        <time>2022-10-23T04:16:20.000Z</time>
      </trkpt>
      <trkpt lat="27.854608" lon="86.790726">
        <ele>3922</ele>
        <time>2022-10-23T04:16:25.000Z</time>
      </trkpt>
      <trkpt lat="27.854624" lon="86.790746">
        <ele>3922.6</ele>
        <time>2022-10-23T04:16:29.000Z</time>
      </trkpt>
      <trkpt lat="27.85464" lon="86.790758">
        <ele>3923</ele>
        <time>2022-10-23T04:16:32.000Z</time>
      </trkpt>
      <trkpt lat="27.854659" lon="86.790771">
        <ele>3923.4</ele>
        <time>2022-10-23T04:16:35.000Z</time>
      </trkpt>
      <trkpt lat="27.854678" lon="86.790778">
        <ele>3924</ele>
        <time>2022-10-23T04:16:38.000Z</time>
      </trkpt>
      <trkpt lat="27.854701" lon="86.790797">
        <ele>3924.4</ele>
        <time>2022-10-23T04:16:42.000Z</time>
      </trkpt>
      <trkpt lat="27.854723" lon="86.790803">
        <ele>3924.4</ele>
        <time>2022-10-23T04:16:45.000Z</time>
      </trkpt>
      <trkpt lat="27.854746" lon="86.790822">
        <ele>3925.2</ele>
        <time>2022-10-23T04:16:50.000Z</time>
      </trkpt>
      <trkpt lat="27.854755" lon="86.790842">
        <ele>3926</ele>
        <time>2022-10-23T04:16:53.000Z</time>
      </trkpt>
      <trkpt lat="27.854774" lon="86.790835">
        <ele>3926.2</ele>
        <time>2022-10-23T04:16:58.000Z</time>
      </trkpt>
      <trkpt lat="27.854797" lon="86.790835">
        <ele>3927.2</ele>
        <time>2022-10-23T04:17:03.000Z</time>
      </trkpt>
      <trkpt lat="27.854806" lon="86.790854">
        <ele>3927.6</ele>
        <time>2022-10-23T04:17:09.000Z</time>
      </trkpt>
      <trkpt lat="27.854819" lon="86.790874">
        <ele>3928.4</ele>
        <time>2022-10-23T04:17:14.000Z</time>
      </trkpt>
      <trkpt lat="27.854842" lon="86.79088">
        <ele>3929</ele>
        <time>2022-10-23T04:17:20.000Z</time>
      </trkpt>
      <trkpt lat="27.854861" lon="86.790886">
        <ele>3929.8</ele>
        <time>2022-10-23T04:17:24.000Z</time>
      </trkpt>
      <trkpt lat="27.854886" lon="86.790893">
        <ele>3929.8</ele>
        <time>2022-10-23T04:17:27.000Z</time>
      </trkpt>
      <trkpt lat="27.854906" lon="86.790912">
        <ele>3930.2</ele>
        <time>2022-10-23T04:17:30.000Z</time>
      </trkpt>
      <trkpt lat="27.854928" lon="86.790918">
        <ele>3930.4</ele>
        <time>2022-10-23T04:17:34.000Z</time>
      </trkpt>
      <trkpt lat="27.854944" lon="86.790938">
        <ele>3931</ele>
        <time>2022-10-23T04:17:37.000Z</time>
      </trkpt>
      <trkpt lat="27.854963" lon="86.790944">
        <ele>3931.2</ele>
        <time>2022-10-23T04:17:40.000Z</time>
      </trkpt>
      <trkpt lat="27.854973" lon="86.790963">
        <ele>3931.2</ele>
        <time>2022-10-23T04:17:42.000Z</time>
      </trkpt>
      <trkpt lat="27.854986" lon="86.790982">
        <ele>3931.8</ele>
        <time>2022-10-23T04:17:45.000Z</time>
      </trkpt>
      <trkpt lat="27.855008" lon="86.791002">
        <ele>3932.2</ele>
        <time>2022-10-23T04:17:49.000Z</time>
      </trkpt>
      <trkpt lat="27.855024" lon="86.791021">
        <ele>3932.8</ele>
        <time>2022-10-23T04:17:52.000Z</time>
      </trkpt>
      <trkpt lat="27.85504" lon="86.791034">
        <ele>3932.8</ele>
        <time>2022-10-23T04:17:55.000Z</time>
      </trkpt>
      <trkpt lat="27.855062" lon="86.791046">
        <ele>3933.4</ele>
        <time>2022-10-23T04:17:58.000Z</time>
      </trkpt>
      <trkpt lat="27.855078" lon="86.791059">
        <ele>3934.2</ele>
        <time>2022-10-23T04:18:02.000Z</time>
      </trkpt>
      <trkpt lat="27.855098" lon="86.791072">
        <ele>3934.6</ele>
        <time>2022-10-23T04:18:05.000Z</time>
      </trkpt>
      <trkpt lat="27.855117" lon="86.791091">
        <ele>3935.2</ele>
        <time>2022-10-23T04:18:09.000Z</time>
      </trkpt>
      <trkpt lat="27.855133" lon="86.791117">
        <ele>3936.2</ele>
        <time>2022-10-23T04:18:13.000Z</time>
      </trkpt>
      <trkpt lat="27.855139" lon="86.791136">
        <ele>3936.2</ele>
        <time>2022-10-23T04:18:16.000Z</time>
      </trkpt>
      <trkpt lat="27.855142" lon="86.791162">
        <ele>3936.4</ele>
        <time>2022-10-23T04:18:18.000Z</time>
      </trkpt>
      <trkpt lat="27.855139" lon="86.7912">
        <ele>3936.2</ele>
        <time>2022-10-23T04:18:21.000Z</time>
      </trkpt>
      <trkpt lat="27.855149" lon="86.791219">
        <ele>3936.4</ele>
        <time>2022-10-23T04:18:24.000Z</time>
      </trkpt>
      <trkpt lat="27.855162" lon="86.791238">
        <ele>3936.6</ele>
        <time>2022-10-23T04:18:26.000Z</time>
      </trkpt>
      <trkpt lat="27.855174" lon="86.791258">
        <ele>3936.4</ele>
        <time>2022-10-23T04:18:29.000Z</time>
      </trkpt>
      <trkpt lat="27.855184" lon="86.791277">
        <ele>3936.8</ele>
        <time>2022-10-23T04:18:32.000Z</time>
      </trkpt>
      <trkpt lat="27.855197" lon="86.791296">
        <ele>3936.8</ele>
        <time>2022-10-23T04:18:34.000Z</time>
      </trkpt>
      <trkpt lat="27.855206" lon="86.791315">
        <ele>3937.4</ele>
        <time>2022-10-23T04:18:36.000Z</time>
      </trkpt>
      <trkpt lat="27.855226" lon="86.791334">
        <ele>3937.6</ele>
        <time>2022-10-23T04:18:40.000Z</time>
      </trkpt>
      <trkpt lat="27.855229" lon="86.79136">
        <ele>3937.6</ele>
        <time>2022-10-23T04:18:42.000Z</time>
      </trkpt>
      <trkpt lat="27.855235" lon="86.791379">
        <ele>3937.8</ele>
        <time>2022-10-23T04:18:45.000Z</time>
      </trkpt>
      <trkpt lat="27.855245" lon="86.791398">
        <ele>3937.8</ele>
        <time>2022-10-23T04:18:47.000Z</time>
      </trkpt>
      <trkpt lat="27.855261" lon="86.791418">
        <ele>3938.4</ele>
        <time>2022-10-23T04:18:50.000Z</time>
      </trkpt>
      <trkpt lat="27.855274" lon="86.791437">
        <ele>3938.4</ele>
        <time>2022-10-23T04:18:52.000Z</time>
      </trkpt>
      <trkpt lat="27.855283" lon="86.791456">
        <ele>3938.6</ele>
        <time>2022-10-23T04:18:55.000Z</time>
      </trkpt>
      <trkpt lat="27.855293" lon="86.791482">
        <ele>3938.6</ele>
        <time>2022-10-23T04:18:58.000Z</time>
      </trkpt>
      <trkpt lat="27.855312" lon="86.791501">
        <ele>3938.6</ele>
        <time>2022-10-23T04:19:01.000Z</time>
      </trkpt>
      <trkpt lat="27.855315" lon="86.791526">
        <ele>3938.2</ele>
        <time>2022-10-23T04:19:47.000Z</time>
      </trkpt>
      <trkpt lat="27.855325" lon="86.791552">
        <ele>3938.2</ele>
        <time>2022-10-23T04:19:49.000Z</time>
      </trkpt>
      <trkpt lat="27.855334" lon="86.791571">
        <ele>3938.4</ele>
        <time>2022-10-23T04:19:51.000Z</time>
      </trkpt>
      <trkpt lat="27.855341" lon="86.791597">
        <ele>3938.4</ele>
        <time>2022-10-23T04:19:53.000Z</time>
      </trkpt>
      <trkpt lat="27.855357" lon="86.79161">
        <ele>3939.2</ele>
        <time>2022-10-23T04:19:57.000Z</time>
      </trkpt>
      <trkpt lat="27.855376" lon="86.791616">
        <ele>3939.4</ele>
        <time>2022-10-23T04:20:00.000Z</time>
      </trkpt>
      <trkpt lat="27.855395" lon="86.791629">
        <ele>3939.8</ele>
        <time>2022-10-23T04:20:02.000Z</time>
      </trkpt>
      <trkpt lat="27.855414" lon="86.791648">
        <ele>3940.4</ele>
        <time>2022-10-23T04:20:06.000Z</time>
      </trkpt>
      <trkpt lat="27.855427" lon="86.791674">
        <ele>3940.6</ele>
        <time>2022-10-23T04:20:08.000Z</time>
      </trkpt>
      <trkpt lat="27.855443" lon="86.791693">
        <ele>3940.4</ele>
        <time>2022-10-23T04:20:11.000Z</time>
      </trkpt>
      <trkpt lat="27.855453" lon="86.791712">
        <ele>3941</ele>
        <time>2022-10-23T04:20:13.000Z</time>
      </trkpt>
      <trkpt lat="27.855466" lon="86.791731">
        <ele>3941.4</ele>
        <time>2022-10-23T04:20:16.000Z</time>
      </trkpt>
      <trkpt lat="27.855485" lon="86.791738">
        <ele>3941.8</ele>
        <time>2022-10-23T04:20:19.000Z</time>
      </trkpt>
      <trkpt lat="27.855504" lon="86.791757">
        <ele>3941.8</ele>
        <time>2022-10-23T04:20:22.000Z</time>
      </trkpt>
      <trkpt lat="27.855526" lon="86.791757">
        <ele>3942.2</ele>
        <time>2022-10-23T04:20:25.000Z</time>
      </trkpt>
      <trkpt lat="27.855546" lon="86.79175">
        <ele>3943.4</ele>
        <time>2022-10-23T04:20:30.000Z</time>
      </trkpt>
      <trkpt lat="27.855565" lon="86.79175">
        <ele>3943.4</ele>
        <time>2022-10-23T04:20:35.000Z</time>
      </trkpt>
      <trkpt lat="27.855584" lon="86.791738">
        <ele>3944.4</ele>
        <time>2022-10-23T04:20:38.000Z</time>
      </trkpt>
      <trkpt lat="27.8556" lon="86.79175">
        <ele>3944.6</ele>
        <time>2022-10-23T04:20:41.000Z</time>
      </trkpt>
      <trkpt lat="27.855616" lon="86.791763">
        <ele>3945.2</ele>
        <time>2022-10-23T04:20:44.000Z</time>
      </trkpt>
      <trkpt lat="27.855635" lon="86.79177">
        <ele>3945.4</ele>
        <time>2022-10-23T04:20:47.000Z</time>
      </trkpt>
      <trkpt lat="27.855654" lon="86.791763">
        <ele>3945.6</ele>
        <time>2022-10-23T04:20:49.000Z</time>
      </trkpt>
      <trkpt lat="27.85568" lon="86.791763">
        <ele>3945.8</ele>
        <time>2022-10-23T04:20:52.000Z</time>
      </trkpt>
      <trkpt lat="27.855699" lon="86.791776">
        <ele>3945.8</ele>
        <time>2022-10-23T04:20:55.000Z</time>
      </trkpt>
      <trkpt lat="27.855722" lon="86.791776">
        <ele>3946.6</ele>
        <time>2022-10-23T04:20:58.000Z</time>
      </trkpt>
      <trkpt lat="27.855741" lon="86.791789">
        <ele>3947.4</ele>
        <time>2022-10-23T04:21:01.000Z</time>
      </trkpt>
      <trkpt lat="27.855763" lon="86.791795">
        <ele>3947.6</ele>
        <time>2022-10-23T04:21:04.000Z</time>
      </trkpt>
      <trkpt lat="27.855782" lon="86.791808">
        <ele>3947.4</ele>
        <time>2022-10-23T04:21:08.000Z</time>
      </trkpt>
      <trkpt lat="27.855802" lon="86.791834">
        <ele>3947.4</ele>
        <time>2022-10-23T04:21:11.000Z</time>
      </trkpt>
      <trkpt lat="27.855821" lon="86.791846">
        <ele>3947.4</ele>
        <time>2022-10-23T04:21:14.000Z</time>
      </trkpt>
      <trkpt lat="27.855843" lon="86.791872">
        <ele>3947.6</ele>
        <time>2022-10-23T04:21:17.000Z</time>
      </trkpt>
      <trkpt lat="27.855859" lon="86.791885">
        <ele>3947.6</ele>
        <time>2022-10-23T04:21:20.000Z</time>
      </trkpt>
      <trkpt lat="27.855869" lon="86.79191">
        <ele>3947.8</ele>
        <time>2022-10-23T04:21:22.000Z</time>
      </trkpt>
      <trkpt lat="27.855878" lon="86.79193">
        <ele>3948</ele>
        <time>2022-10-23T04:21:25.000Z</time>
      </trkpt>
      <trkpt lat="27.855885" lon="86.791949">
        <ele>3948</ele>
        <time>2022-10-23T04:21:27.000Z</time>
      </trkpt>
      <trkpt lat="27.855901" lon="86.791968">
        <ele>3948.4</ele>
        <time>2022-10-23T04:21:30.000Z</time>
      </trkpt>
      <trkpt lat="27.855907" lon="86.791987">
        <ele>3948.4</ele>
        <time>2022-10-23T04:21:31.000Z</time>
      </trkpt>
      <trkpt lat="27.855933" lon="86.792">
        <ele>3948.6</ele>
        <time>2022-10-23T04:21:34.000Z</time>
      </trkpt>
      <trkpt lat="27.855958" lon="86.792013">
        <ele>3949</ele>
        <time>2022-10-23T04:21:37.000Z</time>
      </trkpt>
      <trkpt lat="27.855974" lon="86.792026">
        <ele>3949</ele>
        <time>2022-10-23T04:21:39.000Z</time>
      </trkpt>
      <trkpt lat="27.85599" lon="86.792038">
        <ele>3949</ele>
        <time>2022-10-23T04:21:42.000Z</time>
      </trkpt>
      <trkpt lat="27.856013" lon="86.792051">
        <ele>3949.4</ele>
        <time>2022-10-23T04:21:45.000Z</time>
      </trkpt>
      <trkpt lat="27.856032" lon="86.79207">
        <ele>3949.6</ele>
        <time>2022-10-23T04:21:48.000Z</time>
      </trkpt>
      <trkpt lat="27.856051" lon="86.79207">
        <ele>3949.8</ele>
        <time>2022-10-23T04:21:51.000Z</time>
      </trkpt>
      <trkpt lat="27.856077" lon="86.792083">
        <ele>3950.4</ele>
        <time>2022-10-23T04:21:54.000Z</time>
      </trkpt>
      <trkpt lat="27.856096" lon="86.79209">
        <ele>3950.6</ele>
        <time>2022-10-23T04:21:56.000Z</time>
      </trkpt>
      <trkpt lat="27.856115" lon="86.792096">
        <ele>3950.6</ele>
        <time>2022-10-23T04:21:59.000Z</time>
      </trkpt>
      <trkpt lat="27.856131" lon="86.792109">
        <ele>3950.6</ele>
        <time>2022-10-23T04:22:01.000Z</time>
      </trkpt>
      <trkpt lat="27.85615" lon="86.792115">
        <ele>3950.6</ele>
        <time>2022-10-23T04:22:03.000Z</time>
      </trkpt>
      <trkpt lat="27.856166" lon="86.792128">
        <ele>3950.6</ele>
        <time>2022-10-23T04:22:05.000Z</time>
      </trkpt>
      <trkpt lat="27.856186" lon="86.792134">
        <ele>3950.6</ele>
        <time>2022-10-23T04:22:07.000Z</time>
      </trkpt>
      <trkpt lat="27.856202" lon="86.792147">
        <ele>3950.6</ele>
        <time>2022-10-23T04:22:09.000Z</time>
      </trkpt>
      <trkpt lat="27.856221" lon="86.79216">
        <ele>3951</ele>
        <time>2022-10-23T04:22:13.000Z</time>
      </trkpt>
      <trkpt lat="27.85624" lon="86.792166">
        <ele>3952</ele>
        <time>2022-10-23T04:22:19.000Z</time>
      </trkpt>
      <trkpt lat="27.856253" lon="86.792186">
        <ele>3952.2</ele>
        <time>2022-10-23T04:22:22.000Z</time>
      </trkpt>
      <trkpt lat="27.856272" lon="86.792192">
        <ele>3952.6</ele>
        <time>2022-10-23T04:22:25.000Z</time>
      </trkpt>
      <trkpt lat="27.856282" lon="86.792211">
        <ele>3953.2</ele>
        <time>2022-10-23T04:22:28.000Z</time>
      </trkpt>
      <trkpt lat="27.856288" lon="86.79223">
        <ele>3953</ele>
        <time>2022-10-23T04:22:30.000Z</time>
      </trkpt>
      <trkpt lat="27.856288" lon="86.792262">
        <ele>3953.6</ele>
        <time>2022-10-23T04:22:36.000Z</time>
      </trkpt>
      <trkpt lat="27.856282" lon="86.792282">
        <ele>3953.4</ele>
        <time>2022-10-23T04:22:38.000Z</time>
      </trkpt>
      <trkpt lat="27.856275" lon="86.792307">
        <ele>3953.4</ele>
        <time>2022-10-23T04:22:40.000Z</time>
      </trkpt>
      <trkpt lat="27.856266" lon="86.792326">
        <ele>3953.2</ele>
        <time>2022-10-23T04:22:43.000Z</time>
      </trkpt>
      <trkpt lat="27.856259" lon="86.792346">
        <ele>3953.4</ele>
        <time>2022-10-23T04:22:44.000Z</time>
      </trkpt>
      <trkpt lat="27.856246" lon="86.792371">
        <ele>3953.8</ele>
        <time>2022-10-23T04:22:47.000Z</time>
      </trkpt>
      <trkpt lat="27.856237" lon="86.79239">
        <ele>3953.8</ele>
        <time>2022-10-23T04:22:49.000Z</time>
      </trkpt>
      <trkpt lat="27.856218" lon="86.79241">
        <ele>3954.2</ele>
        <time>2022-10-23T04:22:52.000Z</time>
      </trkpt>
      <trkpt lat="27.856202" lon="86.792422">
        <ele>3954.4</ele>
        <time>2022-10-23T04:22:54.000Z</time>
      </trkpt>
      <trkpt lat="27.856176" lon="86.792435">
        <ele>3954.4</ele>
        <time>2022-10-23T04:22:58.000Z</time>
      </trkpt>
      <trkpt lat="27.85616" lon="86.792454">
        <ele>3954.2</ele>
        <time>2022-10-23T04:23:01.000Z</time>
      </trkpt>
      <trkpt lat="27.85615" lon="86.792474">
        <ele>3954.8</ele>
        <time>2022-10-23T04:23:03.000Z</time>
      </trkpt>
      <trkpt lat="27.856141" lon="86.792506">
        <ele>3954.4</ele>
        <time>2022-10-23T04:23:07.000Z</time>
      </trkpt>
      <trkpt lat="27.856128" lon="86.792525">
        <ele>3955</ele>
        <time>2022-10-23T04:23:10.000Z</time>
      </trkpt>
      <trkpt lat="27.856118" lon="86.792544">
        <ele>3955</ele>
        <time>2022-10-23T04:23:12.000Z</time>
      </trkpt>
      <trkpt lat="27.856106" lon="86.792563">
        <ele>3955</ele>
        <time>2022-10-23T04:23:15.000Z</time>
      </trkpt>
      <trkpt lat="27.856102" lon="86.792589">
        <ele>3956.2</ele>
        <time>2022-10-23T04:23:18.000Z</time>
      </trkpt>
      <trkpt lat="27.856096" lon="86.792608">
        <ele>3956.2</ele>
        <time>2022-10-23T04:23:21.000Z</time>
      </trkpt>
      <trkpt lat="27.85609" lon="86.792627">
        <ele>3956.8</ele>
        <time>2022-10-23T04:23:23.000Z</time>
      </trkpt>
      <trkpt lat="27.85608" lon="86.792666">
        <ele>3956.8</ele>
        <time>2022-10-23T04:23:26.000Z</time>
      </trkpt>
      <trkpt lat="27.85607" lon="86.792685">
        <ele>3957</ele>
        <time>2022-10-23T04:23:29.000Z</time>
      </trkpt>
      <trkpt lat="27.856064" lon="86.79271">
        <ele>3957</ele>
        <time>2022-10-23T04:23:31.000Z</time>
      </trkpt>
      <trkpt lat="27.856061" lon="86.792742">
        <ele>3957</ele>
        <time>2022-10-23T04:23:34.000Z</time>
      </trkpt>
      <trkpt lat="27.856051" lon="86.792768">
        <ele>3956.8</ele>
        <time>2022-10-23T04:23:37.000Z</time>
      </trkpt>
      <trkpt lat="27.856042" lon="86.792787">
        <ele>3957</ele>
        <time>2022-10-23T04:23:39.000Z</time>
      </trkpt>
      <trkpt lat="27.856032" lon="86.792806">
        <ele>3956.8</ele>
        <time>2022-10-23T04:23:41.000Z</time>
      </trkpt>
      <trkpt lat="27.856029" lon="86.792832">
        <ele>3956.8</ele>
        <time>2022-10-23T04:23:43.000Z</time>
      </trkpt>
      <trkpt lat="27.856029" lon="86.792864">
        <ele>3957</ele>
        <time>2022-10-23T04:23:46.000Z</time>
      </trkpt>
      <trkpt lat="27.856029" lon="86.792902">
        <ele>3957</ele>
        <time>2022-10-23T04:23:50.000Z</time>
      </trkpt>
      <trkpt lat="27.856019" lon="86.792922">
        <ele>3957</ele>
        <time>2022-10-23T04:23:54.000Z</time>
      </trkpt>
      <trkpt lat="27.856032" lon="86.792954">
        <ele>3957.4</ele>
        <time>2022-10-23T04:25:31.000Z</time>
      </trkpt>
      <trkpt lat="27.856019" lon="86.792986">
        <ele>3957.8</ele>
        <time>2022-10-23T04:25:33.000Z</time>
      </trkpt>
      <trkpt lat="27.856016" lon="86.793024">
        <ele>3958</ele>
        <time>2022-10-23T04:25:35.000Z</time>
      </trkpt>
      <trkpt lat="27.85601" lon="86.79305">
        <ele>3958</ele>
        <time>2022-10-23T04:25:37.000Z</time>
      </trkpt>
      <trkpt lat="27.856006" lon="86.793082">
        <ele>3957.4</ele>
        <time>2022-10-23T04:25:39.000Z</time>
      </trkpt>
      <trkpt lat="27.856" lon="86.793101">
        <ele>3957.4</ele>
        <time>2022-10-23T04:25:40.000Z</time>
      </trkpt>
      <trkpt lat="27.855984" lon="86.793114">
        <ele>3957.8</ele>
        <time>2022-10-23T04:25:42.000Z</time>
      </trkpt>
      <trkpt lat="27.855981" lon="86.793139">
        <ele>3958.2</ele>
        <time>2022-10-23T04:25:44.000Z</time>
      </trkpt>
      <trkpt lat="27.855981" lon="86.793165">
        <ele>3958</ele>
        <time>2022-10-23T04:25:47.000Z</time>
      </trkpt>
      <trkpt lat="27.855987" lon="86.79319">
        <ele>3958.2</ele>
        <time>2022-10-23T04:25:50.000Z</time>
      </trkpt>
      <trkpt lat="27.856003" lon="86.793216">
        <ele>3958.2</ele>
        <time>2022-10-23T04:25:56.000Z</time>
      </trkpt>
      <trkpt lat="27.856029" lon="86.793222">
        <ele>3958.6</ele>
        <time>2022-10-23T04:25:59.000Z</time>
      </trkpt>
      <trkpt lat="27.856042" lon="86.793242">
        <ele>3959.2</ele>
        <time>2022-10-23T04:26:02.000Z</time>
      </trkpt>
      <trkpt lat="27.856058" lon="86.793261">
        <ele>3959.6</ele>
        <time>2022-10-23T04:26:05.000Z</time>
      </trkpt>
      <trkpt lat="27.856077" lon="86.793267">
        <ele>3960.2</ele>
        <time>2022-10-23T04:26:08.000Z</time>
      </trkpt>
      <trkpt lat="27.856093" lon="86.79328">
        <ele>3960.2</ele>
        <time>2022-10-23T04:26:11.000Z</time>
      </trkpt>
      <trkpt lat="27.856112" lon="86.793299">
        <ele>3960.4</ele>
        <time>2022-10-23T04:26:14.000Z</time>
      </trkpt>
      <trkpt lat="27.856128" lon="86.793312">
        <ele>3961</ele>
        <time>2022-10-23T04:26:17.000Z</time>
      </trkpt>
      <trkpt lat="27.856147" lon="86.793318">
        <ele>3961.2</ele>
        <time>2022-10-23T04:26:19.000Z</time>
      </trkpt>
      <trkpt lat="27.85616" lon="86.793338">
        <ele>3961.4</ele>
        <time>2022-10-23T04:26:21.000Z</time>
      </trkpt>
      <trkpt lat="27.856179" lon="86.79335">
        <ele>3961.6</ele>
        <time>2022-10-23T04:26:24.000Z</time>
      </trkpt>
      <trkpt lat="27.856198" lon="86.793363">
        <ele>3962.2</ele>
        <time>2022-10-23T04:26:27.000Z</time>
      </trkpt>
      <trkpt lat="27.856218" lon="86.793382">
        <ele>3962.2</ele>
        <time>2022-10-23T04:26:30.000Z</time>
      </trkpt>
      <trkpt lat="27.856237" lon="86.793395">
        <ele>3962.4</ele>
        <time>2022-10-23T04:26:33.000Z</time>
      </trkpt>
      <trkpt lat="27.856262" lon="86.793414">
        <ele>3962.6</ele>
        <time>2022-10-23T04:26:36.000Z</time>
      </trkpt>
      <trkpt lat="27.856282" lon="86.793421">
        <ele>3962.8</ele>
        <time>2022-10-23T04:26:39.000Z</time>
      </trkpt>
      <trkpt lat="27.856301" lon="86.793427">
        <ele>3962.8</ele>
        <time>2022-10-23T04:26:41.000Z</time>
      </trkpt>
      <trkpt lat="27.85632" lon="86.793427">
        <ele>3962.6</ele>
        <time>2022-10-23T04:26:43.000Z</time>
      </trkpt>
      <trkpt lat="27.856339" lon="86.793427">
        <ele>3962.6</ele>
        <time>2022-10-23T04:26:45.000Z</time>
      </trkpt>
      <trkpt lat="27.856365" lon="86.793421">
        <ele>3962.6</ele>
        <time>2022-10-23T04:26:48.000Z</time>
      </trkpt>
      <trkpt lat="27.856387" lon="86.793414">
        <ele>3963.2</ele>
        <time>2022-10-23T04:26:51.000Z</time>
      </trkpt>
      <trkpt lat="27.856406" lon="86.793421">
        <ele>3963.4</ele>
        <time>2022-10-23T04:26:59.000Z</time>
      </trkpt>
      <trkpt lat="27.856435" lon="86.793421">
        <ele>3963.2</ele>
        <time>2022-10-23T04:27:02.000Z</time>
      </trkpt>
      <trkpt lat="27.856464" lon="86.793421">
        <ele>3962.8</ele>
        <time>2022-10-23T04:27:05.000Z</time>
      </trkpt>
      <trkpt lat="27.856486" lon="86.793414">
        <ele>3962.8</ele>
        <time>2022-10-23T04:27:16.000Z</time>
      </trkpt>
      <trkpt lat="27.856506" lon="86.793402">
        <ele>3962.8</ele>
        <time>2022-10-23T04:27:18.000Z</time>
      </trkpt>
      <trkpt lat="27.856528" lon="86.793402">
        <ele>3962.8</ele>
        <time>2022-10-23T04:27:20.000Z</time>
      </trkpt>
      <trkpt lat="27.85655" lon="86.793395">
        <ele>3963.2</ele>
        <time>2022-10-23T04:27:23.000Z</time>
      </trkpt>
      <trkpt lat="27.85656" lon="86.793414">
        <ele>3963.4</ele>
        <time>2022-10-23T04:27:26.000Z</time>
      </trkpt>
      <trkpt lat="27.85657" lon="86.79344">
        <ele>3964.4</ele>
        <time>2022-10-23T04:27:31.000Z</time>
      </trkpt>
      <trkpt lat="27.856586" lon="86.793466">
        <ele>3964.4</ele>
        <time>2022-10-23T04:27:33.000Z</time>
      </trkpt>
      <trkpt lat="27.856595" lon="86.793485">
        <ele>3964.4</ele>
        <time>2022-10-23T04:27:36.000Z</time>
      </trkpt>
      <trkpt lat="27.856608" lon="86.79351">
        <ele>3964.4</ele>
        <time>2022-10-23T04:27:38.000Z</time>
      </trkpt>
      <trkpt lat="27.856618" lon="86.793536">
        <ele>3964.6</ele>
        <time>2022-10-23T04:27:41.000Z</time>
      </trkpt>
      <trkpt lat="27.856637" lon="86.793549">
        <ele>3965.6</ele>
        <time>2022-10-23T04:27:48.000Z</time>
      </trkpt>
      <trkpt lat="27.856656" lon="86.793555">
        <ele>3966.4</ele>
        <time>2022-10-23T04:27:52.000Z</time>
      </trkpt>
      <trkpt lat="27.856675" lon="86.793555">
        <ele>3967.4</ele>
        <time>2022-10-23T04:27:57.000Z</time>
      </trkpt>
      <trkpt lat="27.856694" lon="86.793549">
        <ele>3968</ele>
        <time>2022-10-23T04:28:01.000Z</time>
      </trkpt>
      <trkpt lat="27.856714" lon="86.793542">
        <ele>3969</ele>
        <time>2022-10-23T04:28:05.000Z</time>
      </trkpt>
      <trkpt lat="27.856733" lon="86.793549">
        <ele>3969.2</ele>
        <time>2022-10-23T04:28:10.000Z</time>
      </trkpt>
      <trkpt lat="27.856752" lon="86.793555">
        <ele>3970.2</ele>
        <time>2022-10-23T04:28:15.000Z</time>
      </trkpt>
      <trkpt lat="27.856774" lon="86.793574">
        <ele>3971.8</ele>
        <time>2022-10-23T04:28:22.000Z</time>
      </trkpt>
      <trkpt lat="27.856794" lon="86.793594">
        <ele>3972.2</ele>
        <time>2022-10-23T04:28:27.000Z</time>
      </trkpt>
      <trkpt lat="27.856813" lon="86.7936">
        <ele>3973.4</ele>
        <time>2022-10-23T04:28:33.000Z</time>
      </trkpt>
      <trkpt lat="27.856832" lon="86.793613">
        <ele>3973.6</ele>
        <time>2022-10-23T04:28:37.000Z</time>
      </trkpt>
      <trkpt lat="27.856858" lon="86.7936">
        <ele>3974.4</ele>
        <time>2022-10-23T04:28:42.000Z</time>
      </trkpt>
      <trkpt lat="27.856877" lon="86.7936">
        <ele>3974.2</ele>
        <time>2022-10-23T04:28:45.000Z</time>
      </trkpt>
      <trkpt lat="27.856896" lon="86.793594">
        <ele>3974.4</ele>
        <time>2022-10-23T04:28:48.000Z</time>
      </trkpt>
      <trkpt lat="27.856915" lon="86.7936">
        <ele>3974.8</ele>
        <time>2022-10-23T04:28:51.000Z</time>
      </trkpt>
      <trkpt lat="27.856938" lon="86.793594">
        <ele>3975.2</ele>
        <time>2022-10-23T04:28:54.000Z</time>
      </trkpt>
      <trkpt lat="27.856957" lon="86.793587">
        <ele>3975.6</ele>
        <time>2022-10-23T04:28:57.000Z</time>
      </trkpt>
      <trkpt lat="27.856976" lon="86.793587">
        <ele>3975.8</ele>
        <time>2022-10-23T04:29:00.000Z</time>
      </trkpt>
      <trkpt lat="27.856992" lon="86.7936">
        <ele>3976.4</ele>
        <time>2022-10-23T04:29:03.000Z</time>
      </trkpt>
      <trkpt lat="27.857008" lon="86.793613">
        <ele>3976.8</ele>
        <time>2022-10-23T04:29:05.000Z</time>
      </trkpt>
      <trkpt lat="27.85703" lon="86.793632">
        <ele>3976.8</ele>
        <time>2022-10-23T04:29:08.000Z</time>
      </trkpt>
      <trkpt lat="27.85705" lon="86.793638">
        <ele>3976.6</ele>
        <time>2022-10-23T04:29:10.000Z</time>
      </trkpt>
      <trkpt lat="27.857072" lon="86.793658">
        <ele>3976.4</ele>
        <time>2022-10-23T04:29:13.000Z</time>
      </trkpt>
      <trkpt lat="27.857082" lon="86.793677">
        <ele>3976</ele>
        <time>2022-10-23T04:29:16.000Z</time>
      </trkpt>
      <trkpt lat="27.857088" lon="86.793696">
        <ele>3976</ele>
        <time>2022-10-23T04:29:17.000Z</time>
      </trkpt>
      <trkpt lat="27.857104" lon="86.793709">
        <ele>3976.6</ele>
        <time>2022-10-23T04:29:20.000Z</time>
      </trkpt>
      <trkpt lat="27.85712" lon="86.793734">
        <ele>3976.8</ele>
        <time>2022-10-23T04:29:23.000Z</time>
      </trkpt>
      <trkpt lat="27.85713" lon="86.793754">
        <ele>3977.6</ele>
        <time>2022-10-23T04:29:26.000Z</time>
      </trkpt>
      <trkpt lat="27.857139" lon="86.793773">
        <ele>3978</ele>
        <time>2022-10-23T04:29:29.000Z</time>
      </trkpt>
      <trkpt lat="27.857155" lon="86.79376">
        <ele>3978.2</ele>
        <time>2022-10-23T04:29:32.000Z</time>
      </trkpt>
      <trkpt lat="27.857181" lon="86.793754">
        <ele>3978.2</ele>
        <time>2022-10-23T04:29:35.000Z</time>
      </trkpt>
      <trkpt lat="27.8572" lon="86.793741">
        <ele>3978.2</ele>
        <time>2022-10-23T04:29:41.000Z</time>
      </trkpt>
      <trkpt lat="27.8572" lon="86.793715">
        <ele>3978.2</ele>
        <time>2022-10-23T04:29:51.000Z</time>
      </trkpt>
      <trkpt lat="27.85719" lon="86.793696">
        <ele>3979</ele>
        <time>2022-10-23T04:30:02.000Z</time>
      </trkpt>
      <trkpt lat="27.857171" lon="86.793702">
        <ele>3979</ele>
        <time>2022-10-23T04:30:07.000Z</time>
      </trkpt>
      <trkpt lat="27.857171" lon="86.793734">
        <ele>3978.8</ele>
        <time>2022-10-23T04:30:14.000Z</time>
      </trkpt>
      <trkpt lat="27.857174" lon="86.793709">
        <ele>3978.8</ele>
        <time>2022-10-23T04:30:18.000Z</time>
      </trkpt>
      <trkpt lat="27.857181" lon="86.793754">
        <ele>3977.8</ele>
        <time>2022-10-23T04:36:47.000Z</time>
      </trkpt>
      <trkpt lat="27.857184" lon="86.793786">
        <ele>3978</ele>
        <time>2022-10-23T04:36:55.000Z</time>
      </trkpt>
      <trkpt lat="27.857162" lon="86.793773">
        <ele>3980.4</ele>
        <time>2022-10-23T04:49:52.000Z</time>
      </trkpt>
      <trkpt lat="27.857174" lon="86.793754">
        <ele>3980.6</ele>
        <time>2022-10-23T04:49:55.000Z</time>
      </trkpt>
      <trkpt lat="27.857427" lon="86.793856">
        <ele>3980.8</ele>
        <time>2022-10-23T04:50:10.000Z</time>
      </trkpt>
      <trkpt lat="27.857408" lon="86.793837">
        <ele>3980.8</ele>
        <time>2022-10-23T04:50:12.000Z</time>
      </trkpt>
      <trkpt lat="27.857389" lon="86.793824">
        <ele>3980.8</ele>
        <time>2022-10-23T04:50:15.000Z</time>
      </trkpt>
      <trkpt lat="27.857373" lon="86.793843">
        <ele>3980.6</ele>
        <time>2022-10-23T04:50:17.000Z</time>
      </trkpt>
      <trkpt lat="27.857366" lon="86.793824">
        <ele>3980.8</ele>
        <time>2022-10-23T04:50:19.000Z</time>
      </trkpt>
      <trkpt lat="27.857328" lon="86.793824">
        <ele>3980.8</ele>
        <time>2022-10-23T04:50:21.000Z</time>
      </trkpt>
      <trkpt lat="27.857274" lon="86.793798">
        <ele>3980.8</ele>
        <time>2022-10-23T04:50:22.000Z</time>
      </trkpt>
      <trkpt lat="27.857242" lon="86.793747">
        <ele>3980.8</ele>
        <time>2022-10-23T04:50:23.000Z</time>
      </trkpt>
      <trkpt lat="27.857219" lon="86.793709">
        <ele>3981.2</ele>
        <time>2022-10-23T04:50:24.000Z</time>
      </trkpt>
      <trkpt lat="27.857184" lon="86.793722">
        <ele>3981.2</ele>
        <time>2022-10-23T04:50:26.000Z</time>
      </trkpt>
      <trkpt lat="27.857158" lon="86.793715">
        <ele>3981.2</ele>
        <time>2022-10-23T04:50:27.000Z</time>
      </trkpt>
      <trkpt lat="27.857142" lon="86.793734">
        <ele>3981.4</ele>
        <time>2022-10-23T04:50:28.000Z</time>
      </trkpt>
      <trkpt lat="27.85712" lon="86.793734">
        <ele>3981.4</ele>
        <time>2022-10-23T04:50:31.000Z</time>
      </trkpt>
      <trkpt lat="27.857104" lon="86.793722">
        <ele>3981.4</ele>
        <time>2022-10-23T04:50:32.000Z</time>
      </trkpt>
      <trkpt lat="27.857117" lon="86.793747">
        <ele>3981.4</ele>
        <time>2022-10-23T04:50:34.000Z</time>
      </trkpt>
      <trkpt lat="27.857104" lon="86.793715">
        <ele>3981.6</ele>
        <time>2022-10-23T04:50:38.000Z</time>
      </trkpt>
      <trkpt lat="27.857139" lon="86.793696">
        <ele>3981.4</ele>
        <time>2022-10-23T04:50:42.000Z</time>
      </trkpt>
      <trkpt lat="27.857165" lon="86.793715">
        <ele>3981</ele>
        <time>2022-10-23T04:50:49.000Z</time>
      </trkpt>
      <trkpt lat="27.857184" lon="86.793715">
        <ele>3981.4</ele>
        <time>2022-10-23T04:50:50.000Z</time>
      </trkpt>
      <trkpt lat="27.85719" lon="86.793696">
        <ele>3981.2</ele>
        <time>2022-10-23T04:50:56.000Z</time>
      </trkpt>
      <trkpt lat="27.857181" lon="86.793664">
        <ele>3981.2</ele>
        <time>2022-10-23T04:51:11.000Z</time>
      </trkpt>
      <trkpt lat="27.857184" lon="86.793638">
        <ele>3981.8</ele>
        <time>2022-10-23T04:51:13.000Z</time>
      </trkpt>
      <trkpt lat="27.857203" lon="86.793626">
        <ele>3982</ele>
        <time>2022-10-23T04:51:15.000Z</time>
      </trkpt>
      <trkpt lat="27.857206" lon="86.7936">
        <ele>3981.8</ele>
        <time>2022-10-23T04:51:17.000Z</time>
      </trkpt>
      <trkpt lat="27.85719" lon="86.793587">
        <ele>3982.2</ele>
        <time>2022-10-23T04:51:21.000Z</time>
      </trkpt>
      <trkpt lat="27.857165" lon="86.793587">
        <ele>3981.2</ele>
        <time>2022-10-23T04:51:25.000Z</time>
      </trkpt>
      <trkpt lat="27.857139" lon="86.793587">
        <ele>3981.2</ele>
        <time>2022-10-23T04:51:27.000Z</time>
      </trkpt>
      <trkpt lat="27.85713" lon="86.793613">
        <ele>3981.2</ele>
        <time>2022-10-23T04:51:29.000Z</time>
      </trkpt>
      <trkpt lat="27.85712" lon="86.793658">
        <ele>3981.2</ele>
        <time>2022-10-23T04:51:30.000Z</time>
      </trkpt>
      <trkpt lat="27.857114" lon="86.793677">
        <ele>3981.2</ele>
        <time>2022-10-23T04:51:31.000Z</time>
      </trkpt>
      <trkpt lat="27.857126" lon="86.793702">
        <ele>3981.2</ele>
        <time>2022-10-23T04:51:32.000Z</time>
      </trkpt>
      <trkpt lat="27.857126" lon="86.793677">
        <ele>3981.2</ele>
        <time>2022-10-23T04:51:33.000Z</time>
      </trkpt>
      <trkpt lat="27.857104" lon="86.793702">
        <ele>3981.4</ele>
        <time>2022-10-23T04:51:36.000Z</time>
      </trkpt>
      <trkpt lat="27.857123" lon="86.793696">
        <ele>3981.4</ele>
        <time>2022-10-23T04:51:41.000Z</time>
      </trkpt>
      <trkpt lat="27.857139" lon="86.793683">
        <ele>3981.4</ele>
        <time>2022-10-23T04:51:42.000Z</time>
      </trkpt>
      <trkpt lat="27.857139" lon="86.793715">
        <ele>3981.2</ele>
        <time>2022-10-23T04:51:48.000Z</time>
      </trkpt>
      <trkpt lat="27.857149" lon="86.793741">
        <ele>3981.2</ele>
        <time>2022-10-23T04:51:51.000Z</time>
      </trkpt>
      <trkpt lat="27.85713" lon="86.793747">
        <ele>3979.8</ele>
        <time>2022-10-23T04:52:14.000Z</time>
      </trkpt>
      <trkpt lat="27.857149" lon="86.793741">
        <ele>3979.6</ele>
        <time>2022-10-23T04:52:44.000Z</time>
      </trkpt>
      <trkpt lat="27.857171" lon="86.793734">
        <ele>3980.4</ele>
        <time>2022-10-23T04:53:27.000Z</time>
      </trkpt>
      <trkpt lat="27.857184" lon="86.793709">
        <ele>3981</ele>
        <time>2022-10-23T04:54:48.000Z</time>
      </trkpt>
      <trkpt lat="27.857184" lon="86.793747">
        <ele>3981</ele>
        <time>2022-10-23T04:54:50.000Z</time>
      </trkpt>
      <trkpt lat="27.857203" lon="86.793773">
        <ele>3981</ele>
        <time>2022-10-23T04:54:51.000Z</time>
      </trkpt>
      <trkpt lat="27.857203" lon="86.793741">
        <ele>3980.8</ele>
        <time>2022-10-23T04:54:57.000Z</time>
      </trkpt>
      <trkpt lat="27.857216" lon="86.793747">
        <ele>3981.2</ele>
        <time>2022-10-23T04:55:06.000Z</time>
      </trkpt>
      <trkpt lat="27.857197" lon="86.79376">
        <ele>3981.2</ele>
        <time>2022-10-23T04:55:19.000Z</time>
      </trkpt>
      <trkpt lat="27.857219" lon="86.793741">
        <ele>3980.8</ele>
        <time>2022-10-23T04:55:26.000Z</time>
      </trkpt>
      <trkpt lat="27.857226" lon="86.793722">
        <ele>3980.8</ele>
        <time>2022-10-23T04:55:29.000Z</time>
      </trkpt>
      <trkpt lat="27.857213" lon="86.793702">
        <ele>3980.8</ele>
        <time>2022-10-23T04:55:33.000Z</time>
      </trkpt>
      <trkpt lat="27.85719" lon="86.793683">
        <ele>3980.8</ele>
        <time>2022-10-23T04:55:35.000Z</time>
      </trkpt>
      <trkpt lat="27.857194" lon="86.793709">
        <ele>3980.8</ele>
        <time>2022-10-23T04:55:36.000Z</time>
      </trkpt>
      <trkpt lat="27.857174" lon="86.793715">
        <ele>3980.6</ele>
        <time>2022-10-23T04:55:41.000Z</time>
      </trkpt>
      <trkpt lat="27.857174" lon="86.793741">
        <ele>3980.8</ele>
        <time>2022-10-23T04:55:43.000Z</time>
      </trkpt>
      <trkpt lat="27.857168" lon="86.793773">
        <ele>3980.8</ele>
        <time>2022-10-23T04:55:44.000Z</time>
      </trkpt>
      <trkpt lat="27.857162" lon="86.793798">
        <ele>3980.8</ele>
        <time>2022-10-23T04:55:45.000Z</time>
      </trkpt>
      <trkpt lat="27.857152" lon="86.793824">
        <ele>3981</ele>
        <time>2022-10-23T04:55:46.000Z</time>
      </trkpt>
      <trkpt lat="27.857136" lon="86.793837">
        <ele>3980.8</ele>
        <time>2022-10-23T04:55:48.000Z</time>
      </trkpt>
      <trkpt lat="27.857133" lon="86.793862">
        <ele>3980.8</ele>
        <time>2022-10-23T04:55:50.000Z</time>
      </trkpt>
      <trkpt lat="27.857142" lon="86.793843">
        <ele>3981</ele>
        <time>2022-10-23T04:55:54.000Z</time>
      </trkpt>
      <trkpt lat="27.857149" lon="86.793824">
        <ele>3980.8</ele>
        <time>2022-10-23T04:55:58.000Z</time>
      </trkpt>
      <trkpt lat="27.857146" lon="86.793862">
        <ele>3981</ele>
        <time>2022-10-23T04:56:01.000Z</time>
      </trkpt>
      <trkpt lat="27.857136" lon="86.793882">
        <ele>3981</ele>
        <time>2022-10-23T04:56:02.000Z</time>
      </trkpt>
      <trkpt lat="27.857136" lon="86.793843">
        <ele>3981</ele>
        <time>2022-10-23T04:56:03.000Z</time>
      </trkpt>
      <trkpt lat="27.857152" lon="86.793773">
        <ele>3980.8</ele>
        <time>2022-10-23T04:56:04.000Z</time>
      </trkpt>
      <trkpt lat="27.857149" lon="86.793747">
        <ele>3980.8</ele>
        <time>2022-10-23T04:56:07.000Z</time>
      </trkpt>
      <trkpt lat="27.857142" lon="86.793722">
        <ele>3980.8</ele>
        <time>2022-10-23T04:56:10.000Z</time>
      </trkpt>
      <trkpt lat="27.857165" lon="86.793696">
        <ele>3980.8</ele>
        <time>2022-10-23T04:56:13.000Z</time>
      </trkpt>
      <trkpt lat="27.857165" lon="86.793664">
        <ele>3980.8</ele>
        <time>2022-10-23T04:56:15.000Z</time>
      </trkpt>
      <trkpt lat="27.85719" lon="86.793613">
        <ele>3980.8</ele>
        <time>2022-10-23T04:56:16.000Z</time>
      </trkpt>
      <trkpt lat="27.857197" lon="86.793562">
        <ele>3981</ele>
        <time>2022-10-23T04:56:19.000Z</time>
      </trkpt>
      <trkpt lat="27.857216" lon="86.793555">
        <ele>3981</ele>
        <time>2022-10-23T04:56:22.000Z</time>
      </trkpt>
      <trkpt lat="27.857235" lon="86.793555">
        <ele>3981</ele>
        <time>2022-10-23T04:56:25.000Z</time>
      </trkpt>
      <trkpt lat="27.857242" lon="86.793574">
        <ele>3981</ele>
        <time>2022-10-23T04:56:26.000Z</time>
      </trkpt>
      <trkpt lat="27.857261" lon="86.793555">
        <ele>3981</ele>
        <time>2022-10-23T04:56:27.000Z</time>
      </trkpt>
      <trkpt lat="27.857274" lon="86.793574">
        <ele>3981</ele>
        <time>2022-10-23T04:56:29.000Z</time>
      </trkpt>
      <trkpt lat="27.85727" lon="86.793613">
        <ele>3981.2</ele>
        <time>2022-10-23T04:56:30.000Z</time>
      </trkpt>
      <trkpt lat="27.85728" lon="86.793658">
        <ele>3981.2</ele>
        <time>2022-10-23T04:56:32.000Z</time>
      </trkpt>
      <trkpt lat="27.857299" lon="86.79367">
        <ele>3981.2</ele>
        <time>2022-10-23T04:56:34.000Z</time>
      </trkpt>
      <trkpt lat="27.857296" lon="86.793696">
        <ele>3981.2</ele>
        <time>2022-10-23T04:56:35.000Z</time>
      </trkpt>
      <trkpt lat="27.85728" lon="86.793747">
        <ele>3981.4</ele>
        <time>2022-10-23T04:56:36.000Z</time>
      </trkpt>
      <trkpt lat="27.857261" lon="86.793747">
        <ele>3980.8</ele>
        <time>2022-10-23T04:56:42.000Z</time>
      </trkpt>
      <trkpt lat="27.857261" lon="86.793779">
        <ele>3980.8</ele>
        <time>2022-10-23T04:56:44.000Z</time>
      </trkpt>
      <trkpt lat="27.85728" lon="86.793786">
        <ele>3981</ele>
        <time>2022-10-23T04:56:45.000Z</time>
      </trkpt>
      <trkpt lat="27.857299" lon="86.793798">
        <ele>3981</ele>
        <time>2022-10-23T04:56:47.000Z</time>
      </trkpt>
      <trkpt lat="27.857286" lon="86.793818">
        <ele>3980.8</ele>
        <time>2022-10-23T04:56:49.000Z</time>
      </trkpt>
      <trkpt lat="27.857254" lon="86.793843">
        <ele>3980.8</ele>
        <time>2022-10-23T04:56:51.000Z</time>
      </trkpt>
      <trkpt lat="27.857264" lon="86.793875">
        <ele>3980.6</ele>
        <time>2022-10-23T04:56:52.000Z</time>
      </trkpt>
      <trkpt lat="27.85727" lon="86.793901">
        <ele>3980.6</ele>
        <time>2022-10-23T04:56:53.000Z</time>
      </trkpt>
      <trkpt lat="27.857274" lon="86.793933">
        <ele>3980.6</ele>
        <time>2022-10-23T04:56:54.000Z</time>
      </trkpt>
      <trkpt lat="27.857254" lon="86.793907">
        <ele>3980.8</ele>
        <time>2022-10-23T04:57:02.000Z</time>
      </trkpt>
      <trkpt lat="27.857261" lon="86.793875">
        <ele>3980.8</ele>
        <time>2022-10-23T04:57:03.000Z</time>
      </trkpt>
      <trkpt lat="27.857261" lon="86.793843">
        <ele>3981</ele>
        <time>2022-10-23T04:57:04.000Z</time>
      </trkpt>
      <trkpt lat="27.857274" lon="86.793792">
        <ele>3980.8</ele>
        <time>2022-10-23T04:57:06.000Z</time>
      </trkpt>
      <trkpt lat="27.857293" lon="86.793792">
        <ele>3980.8</ele>
        <time>2022-10-23T04:57:08.000Z</time>
      </trkpt>
      <trkpt lat="27.857312" lon="86.793773">
        <ele>3980.6</ele>
        <time>2022-10-23T04:57:10.000Z</time>
      </trkpt>
      <trkpt lat="27.857325" lon="86.793754">
        <ele>3980.6</ele>
        <time>2022-10-23T04:57:12.000Z</time>
      </trkpt>
      <trkpt lat="27.857344" lon="86.793754">
        <ele>3980.8</ele>
        <time>2022-10-23T04:57:17.000Z</time>
      </trkpt>
      <trkpt lat="27.85735" lon="86.793722">
        <ele>3980.8</ele>
        <time>2022-10-23T04:57:19.000Z</time>
      </trkpt>
      <trkpt lat="27.85735" lon="86.793683">
        <ele>3980.8</ele>
        <time>2022-10-23T04:57:21.000Z</time>
      </trkpt>
      <trkpt lat="27.85736" lon="86.793709">
        <ele>3980.8</ele>
        <time>2022-10-23T04:57:29.000Z</time>
      </trkpt>
      <trkpt lat="27.857334" lon="86.793754">
        <ele>3980.8</ele>
        <time>2022-10-23T04:57:30.000Z</time>
      </trkpt>
      <trkpt lat="27.857341" lon="86.793792">
        <ele>3980.8</ele>
        <time>2022-10-23T04:57:31.000Z</time>
      </trkpt>
      <trkpt lat="27.857357" lon="86.793824">
        <ele>3980.8</ele>
        <time>2022-10-23T04:57:32.000Z</time>
      </trkpt>
      <trkpt lat="27.857392" lon="86.793824">
        <ele>3980.8</ele>
        <time>2022-10-23T04:57:33.000Z</time>
      </trkpt>
      <trkpt lat="27.857402" lon="86.793792">
        <ele>3980.8</ele>
        <time>2022-10-23T04:57:34.000Z</time>
      </trkpt>
      <trkpt lat="27.857347" lon="86.793754">
        <ele>3981.2</ele>
        <time>2022-10-23T04:57:35.000Z</time>
      </trkpt>
      <trkpt lat="27.857312" lon="86.79376">
        <ele>3981.2</ele>
        <time>2022-10-23T04:57:36.000Z</time>
      </trkpt>
      <trkpt lat="27.857283" lon="86.793754">
        <ele>3980.8</ele>
        <time>2022-10-23T04:57:38.000Z</time>
      </trkpt>
      <trkpt lat="27.857267" lon="86.793779">
        <ele>3980.8</ele>
        <time>2022-10-23T04:57:39.000Z</time>
      </trkpt>
      <trkpt lat="27.857254" lon="86.793824">
        <ele>3980.8</ele>
        <time>2022-10-23T04:57:41.000Z</time>
      </trkpt>
      <trkpt lat="27.857245" lon="86.793862">
        <ele>3980.8</ele>
        <time>2022-10-23T04:57:42.000Z</time>
      </trkpt>
      <trkpt lat="27.857264" lon="86.793869">
        <ele>3981.2</ele>
        <time>2022-10-23T04:57:44.000Z</time>
      </trkpt>
      <trkpt lat="27.857238" lon="86.793869">
        <ele>3981.2</ele>
        <time>2022-10-23T04:57:49.000Z</time>
      </trkpt>
      <trkpt lat="27.857242" lon="86.793894">
        <ele>3980.8</ele>
        <time>2022-10-23T04:57:52.000Z</time>
      </trkpt>
      <trkpt lat="27.857222" lon="86.793894">
        <ele>3980.8</ele>
        <time>2022-10-23T04:57:54.000Z</time>
      </trkpt>
      <trkpt lat="27.857203" lon="86.793894">
        <ele>3980.4</ele>
        <time>2022-10-23T04:57:57.000Z</time>
      </trkpt>
      <trkpt lat="27.85719" lon="86.793875">
        <ele>3980.6</ele>
        <time>2022-10-23T04:57:59.000Z</time>
      </trkpt>
      <trkpt lat="27.857194" lon="86.793805">
        <ele>3980.2</ele>
        <time>2022-10-23T04:59:22.000Z</time>
      </trkpt>
      <trkpt lat="27.857219" lon="86.793824">
        <ele>3980</ele>
        <time>2022-10-23T04:59:24.000Z</time>
      </trkpt>
      <trkpt lat="27.857242" lon="86.793843">
        <ele>3980</ele>
        <time>2022-10-23T04:59:26.000Z</time>
      </trkpt>
      <trkpt lat="27.85727" lon="86.793862">
        <ele>3980</ele>
        <time>2022-10-23T04:59:28.000Z</time>
      </trkpt>
      <trkpt lat="27.857293" lon="86.793882">
        <ele>3980</ele>
        <time>2022-10-23T04:59:30.000Z</time>
      </trkpt>
      <trkpt lat="27.857309" lon="86.793901">
        <ele>3980</ele>
        <time>2022-10-23T04:59:32.000Z</time>
      </trkpt>
      <trkpt lat="27.857328" lon="86.79392">
        <ele>3980.8</ele>
        <time>2022-10-23T04:59:35.000Z</time>
      </trkpt>
      <trkpt lat="27.857347" lon="86.793933">
        <ele>3980.8</ele>
        <time>2022-10-23T04:59:37.000Z</time>
      </trkpt>
      <trkpt lat="27.85737" lon="86.793939">
        <ele>3981.6</ele>
        <time>2022-10-23T04:59:40.000Z</time>
      </trkpt>
      <trkpt lat="27.857389" lon="86.793946">
        <ele>3981.6</ele>
        <time>2022-10-23T04:59:42.000Z</time>
      </trkpt>
      <trkpt lat="27.857408" lon="86.793958">
        <ele>3981.6</ele>
        <time>2022-10-23T04:59:45.000Z</time>
      </trkpt>
      <trkpt lat="27.857418" lon="86.793978">
        <ele>3982.4</ele>
        <time>2022-10-23T04:59:48.000Z</time>
      </trkpt>
      <trkpt lat="27.857437" lon="86.79399">
        <ele>3982.8</ele>
        <time>2022-10-23T04:59:54.000Z</time>
      </trkpt>
      <trkpt lat="27.85745" lon="86.793971">
        <ele>3983.2</ele>
        <time>2022-10-23T04:59:59.000Z</time>
      </trkpt>
      <trkpt lat="27.857469" lon="86.793971">
        <ele>3984</ele>
        <time>2022-10-23T05:00:03.000Z</time>
      </trkpt>
      <trkpt lat="27.857488" lon="86.793971">
        <ele>3984.4</ele>
        <time>2022-10-23T05:00:06.000Z</time>
      </trkpt>
      <trkpt lat="27.857507" lon="86.793984">
        <ele>3984.8</ele>
        <time>2022-10-23T05:00:10.000Z</time>
      </trkpt>
      <trkpt lat="27.85752" lon="86.794003">
        <ele>3984.8</ele>
        <time>2022-10-23T05:00:13.000Z</time>
      </trkpt>
      <trkpt lat="27.857533" lon="86.794022">
        <ele>3984.6</ele>
        <time>2022-10-23T05:00:15.000Z</time>
      </trkpt>
      <trkpt lat="27.857552" lon="86.794042">
        <ele>3984.4</ele>
        <time>2022-10-23T05:00:18.000Z</time>
      </trkpt>
      <trkpt lat="27.857568" lon="86.794054">
        <ele>3984.2</ele>
        <time>2022-10-23T05:00:20.000Z</time>
      </trkpt>
      <trkpt lat="27.857587" lon="86.794074">
        <ele>3983.8</ele>
        <time>2022-10-23T05:00:23.000Z</time>
      </trkpt>
      <trkpt lat="27.857606" lon="86.794093">
        <ele>3983.8</ele>
        <time>2022-10-23T05:00:26.000Z</time>
      </trkpt>
      <trkpt lat="27.857622" lon="86.794106">
        <ele>3983.6</ele>
        <time>2022-10-23T05:00:28.000Z</time>
      </trkpt>
      <trkpt lat="27.857642" lon="86.794118">
        <ele>3983.6</ele>
        <time>2022-10-23T05:00:31.000Z</time>
      </trkpt>
      <trkpt lat="27.857658" lon="86.794131">
        <ele>3983.8</ele>
        <time>2022-10-23T05:00:33.000Z</time>
      </trkpt>
      <trkpt lat="27.85768" lon="86.794144">
        <ele>3983.6</ele>
        <time>2022-10-23T05:00:36.000Z</time>
      </trkpt>
      <trkpt lat="27.857706" lon="86.79415">
        <ele>3983.8</ele>
        <time>2022-10-23T05:00:39.000Z</time>
      </trkpt>
      <trkpt lat="27.857725" lon="86.794144">
        <ele>3984.2</ele>
        <time>2022-10-23T05:00:42.000Z</time>
      </trkpt>
      <trkpt lat="27.85775" lon="86.79415">
        <ele>3984.2</ele>
        <time>2022-10-23T05:00:46.000Z</time>
      </trkpt>
      <trkpt lat="27.857773" lon="86.79417">
        <ele>3984.8</ele>
        <time>2022-10-23T05:00:49.000Z</time>
      </trkpt>
      <trkpt lat="27.857795" lon="86.794176">
        <ele>3985.2</ele>
        <time>2022-10-23T05:00:52.000Z</time>
      </trkpt>
      <trkpt lat="27.857818" lon="86.794189">
        <ele>3985.4</ele>
        <time>2022-10-23T05:00:55.000Z</time>
      </trkpt>
      <trkpt lat="27.857834" lon="86.794214">
        <ele>3985.6</ele>
        <time>2022-10-23T05:00:58.000Z</time>
      </trkpt>
      <trkpt lat="27.857856" lon="86.794234">
        <ele>3986</ele>
        <time>2022-10-23T05:01:01.000Z</time>
      </trkpt>
      <trkpt lat="27.857869" lon="86.794253">
        <ele>3986.4</ele>
        <time>2022-10-23T05:01:04.000Z</time>
      </trkpt>
      <trkpt lat="27.857885" lon="86.794266">
        <ele>3986.4</ele>
        <time>2022-10-23T05:01:07.000Z</time>
      </trkpt>
      <trkpt lat="27.857904" lon="86.794291">
        <ele>3987</ele>
        <time>2022-10-23T05:01:47.000Z</time>
      </trkpt>
      <trkpt lat="27.85792" lon="86.79431">
        <ele>3987.2</ele>
        <time>2022-10-23T05:01:51.000Z</time>
      </trkpt>
      <trkpt lat="27.857936" lon="86.79433">
        <ele>3987.6</ele>
        <time>2022-10-23T05:02:00.000Z</time>
      </trkpt>
      <trkpt lat="27.857962" lon="86.794342">
        <ele>3987.6</ele>
        <time>2022-10-23T05:02:12.000Z</time>
      </trkpt>
      <trkpt lat="27.857987" lon="86.794349">
        <ele>3987.8</ele>
        <time>2022-10-23T05:02:14.000Z</time>
      </trkpt>
      <trkpt lat="27.858016" lon="86.794355">
        <ele>3987.8</ele>
        <time>2022-10-23T05:02:16.000Z</time>
      </trkpt>
      <trkpt lat="27.858038" lon="86.794368">
        <ele>3987.8</ele>
        <time>2022-10-23T05:02:18.000Z</time>
      </trkpt>
      <trkpt lat="27.858067" lon="86.794368">
        <ele>3988</ele>
        <time>2022-10-23T05:02:20.000Z</time>
      </trkpt>
      <trkpt lat="27.858086" lon="86.794368">
        <ele>3988</ele>
        <time>2022-10-23T05:02:22.000Z</time>
      </trkpt>
      <trkpt lat="27.858115" lon="86.794374">
        <ele>3987.6</ele>
        <time>2022-10-23T05:02:25.000Z</time>
      </trkpt>
      <trkpt lat="27.858134" lon="86.794394">
        <ele>3988</ele>
        <time>2022-10-23T05:02:45.000Z</time>
      </trkpt>
      <trkpt lat="27.858144" lon="86.794413">
        <ele>3988</ele>
        <time>2022-10-23T05:02:46.000Z</time>
      </trkpt>
      <trkpt lat="27.858163" lon="86.794432">
        <ele>3988</ele>
        <time>2022-10-23T05:02:48.000Z</time>
      </trkpt>
      <trkpt lat="27.858186" lon="86.794438">
        <ele>3988</ele>
        <time>2022-10-23T05:02:50.000Z</time>
      </trkpt>
      <trkpt lat="27.858205" lon="86.794458">
        <ele>3988</ele>
        <time>2022-10-23T05:02:52.000Z</time>
      </trkpt>
      <trkpt lat="27.85823" lon="86.794464">
        <ele>3988</ele>
        <time>2022-10-23T05:02:55.000Z</time>
      </trkpt>
      <trkpt lat="27.858253" lon="86.794477">
        <ele>3988</ele>
        <time>2022-10-23T05:03:21.000Z</time>
      </trkpt>
      <trkpt lat="27.858269" lon="86.794496">
        <ele>3988</ele>
        <time>2022-10-23T05:03:23.000Z</time>
      </trkpt>
      <trkpt lat="27.858298" lon="86.794509">
        <ele>3987.8</ele>
        <time>2022-10-23T05:03:25.000Z</time>
      </trkpt>
      <trkpt lat="27.85832" lon="86.794534">
        <ele>3988.2</ele>
        <time>2022-10-23T05:03:27.000Z</time>
      </trkpt>
      <trkpt lat="27.858342" lon="86.794547">
        <ele>3987.8</ele>
        <time>2022-10-23T05:03:29.000Z</time>
      </trkpt>
      <trkpt lat="27.858368" lon="86.794554">
        <ele>3987.8</ele>
        <time>2022-10-23T05:03:32.000Z</time>
      </trkpt>
      <trkpt lat="27.85839" lon="86.794573">
        <ele>3987.8</ele>
        <time>2022-10-23T05:03:34.000Z</time>
      </trkpt>
      <trkpt lat="27.858413" lon="86.794579">
        <ele>3987.6</ele>
        <time>2022-10-23T05:03:36.000Z</time>
      </trkpt>
      <trkpt lat="27.858432" lon="86.794592">
        <ele>3988</ele>
        <time>2022-10-23T05:03:38.000Z</time>
      </trkpt>
      <trkpt lat="27.858451" lon="86.794598">
        <ele>3988.8</ele>
        <time>2022-10-23T05:03:40.000Z</time>
      </trkpt>
      <trkpt lat="27.85847" lon="86.794618">
        <ele>3988.8</ele>
        <time>2022-10-23T05:03:42.000Z</time>
      </trkpt>
      <trkpt lat="27.858493" lon="86.794624">
        <ele>3988.8</ele>
        <time>2022-10-23T05:03:45.000Z</time>
      </trkpt>
      <trkpt lat="27.858512" lon="86.794611">
        <ele>3989.2</ele>
        <time>2022-10-23T05:03:50.000Z</time>
      </trkpt>
      <trkpt lat="27.858531" lon="86.794598">
        <ele>3990</ele>
        <time>2022-10-23T05:03:55.000Z</time>
      </trkpt>
      <trkpt lat="27.858554" lon="86.794611">
        <ele>3990.2</ele>
        <time>2022-10-23T05:03:58.000Z</time>
      </trkpt>
      <trkpt lat="27.858573" lon="86.794611">
        <ele>3990.4</ele>
        <time>2022-10-23T05:04:00.000Z</time>
      </trkpt>
      <trkpt lat="27.858592" lon="86.794618">
        <ele>3990.8</ele>
        <time>2022-10-23T05:04:03.000Z</time>
      </trkpt>
      <trkpt lat="27.858614" lon="86.794618">
        <ele>3991</ele>
        <time>2022-10-23T05:04:05.000Z</time>
      </trkpt>
      <trkpt lat="27.858637" lon="86.794624">
        <ele>3991.4</ele>
        <time>2022-10-23T05:04:08.000Z</time>
      </trkpt>
      <trkpt lat="27.858659" lon="86.794637">
        <ele>3992</ele>
        <time>2022-10-23T05:04:11.000Z</time>
      </trkpt>
      <trkpt lat="27.858672" lon="86.794656">
        <ele>3992</ele>
        <time>2022-10-23T05:04:13.000Z</time>
      </trkpt>
      <trkpt lat="27.858694" lon="86.794662">
        <ele>3992</ele>
        <time>2022-10-23T05:04:16.000Z</time>
      </trkpt>
      <trkpt lat="27.858714" lon="86.794662">
        <ele>3992.2</ele>
        <time>2022-10-23T05:04:18.000Z</time>
      </trkpt>
      <trkpt lat="27.858736" lon="86.794656">
        <ele>3992.2</ele>
        <time>2022-10-23T05:04:21.000Z</time>
      </trkpt>
      <trkpt lat="27.858758" lon="86.794656">
        <ele>3993.2</ele>
        <time>2022-10-23T05:04:24.000Z</time>
      </trkpt>
      <trkpt lat="27.858778" lon="86.794662">
        <ele>3993.2</ele>
        <time>2022-10-23T05:04:26.000Z</time>
      </trkpt>
      <trkpt lat="27.858803" lon="86.794675">
        <ele>3993.4</ele>
        <time>2022-10-23T05:04:29.000Z</time>
      </trkpt>
      <trkpt lat="27.858826" lon="86.794688">
        <ele>3993.4</ele>
        <time>2022-10-23T05:04:31.000Z</time>
      </trkpt>
      <trkpt lat="27.858842" lon="86.794707">
        <ele>3992.6</ele>
        <time>2022-10-23T05:04:34.000Z</time>
      </trkpt>
      <trkpt lat="27.858854" lon="86.794726">
        <ele>3992.8</ele>
        <time>2022-10-23T05:04:36.000Z</time>
      </trkpt>
      <trkpt lat="27.85888" lon="86.794739">
        <ele>3993.2</ele>
        <time>2022-10-23T05:04:39.000Z</time>
      </trkpt>
      <trkpt lat="27.858902" lon="86.794746">
        <ele>3993.4</ele>
        <time>2022-10-23T05:04:42.000Z</time>
      </trkpt>
      <trkpt lat="27.858925" lon="86.794746">
        <ele>3993.4</ele>
        <time>2022-10-23T05:04:45.000Z</time>
      </trkpt>
      <trkpt lat="27.85895" lon="86.794752">
        <ele>3993.6</ele>
        <time>2022-10-23T05:04:48.000Z</time>
      </trkpt>
      <trkpt lat="27.858966" lon="86.794765">
        <ele>3994</ele>
        <time>2022-10-23T05:04:50.000Z</time>
      </trkpt>
      <trkpt lat="27.858992" lon="86.794771">
        <ele>3994.6</ele>
        <time>2022-10-23T05:04:53.000Z</time>
      </trkpt>
      <trkpt lat="27.859011" lon="86.794784">
        <ele>3994.8</ele>
        <time>2022-10-23T05:04:56.000Z</time>
      </trkpt>
      <trkpt lat="27.85903" lon="86.794784">
        <ele>3995</ele>
        <time>2022-10-23T05:04:58.000Z</time>
      </trkpt>
      <trkpt lat="27.859075" lon="86.794797">
        <ele>3995.2</ele>
        <time>2022-10-23T05:05:03.000Z</time>
      </trkpt>
      <trkpt lat="27.859104" lon="86.794797">
        <ele>3995.8</ele>
        <time>2022-10-23T05:05:06.000Z</time>
      </trkpt>
      <trkpt lat="27.85913" lon="86.794797">
        <ele>3996</ele>
        <time>2022-10-23T05:05:09.000Z</time>
      </trkpt>
      <trkpt lat="27.859146" lon="86.79481">
        <ele>3995.8</ele>
        <time>2022-10-23T05:05:13.000Z</time>
      </trkpt>
      <trkpt lat="27.859155" lon="86.794835">
        <ele>3995.4</ele>
        <time>2022-10-23T05:05:16.000Z</time>
      </trkpt>
      <trkpt lat="27.859162" lon="86.794854">
        <ele>3995.4</ele>
        <time>2022-10-23T05:05:18.000Z</time>
      </trkpt>
      <trkpt lat="27.859181" lon="86.794861">
        <ele>3995.4</ele>
        <time>2022-10-23T05:05:20.000Z</time>
      </trkpt>
      <trkpt lat="27.859197" lon="86.794874">
        <ele>3995.2</ele>
        <time>2022-10-23T05:05:22.000Z</time>
      </trkpt>
      <trkpt lat="27.859222" lon="86.794893">
        <ele>3994.6</ele>
        <time>2022-10-23T05:05:25.000Z</time>
      </trkpt>
      <trkpt lat="27.859245" lon="86.794906">
        <ele>3994.6</ele>
        <time>2022-10-23T05:05:28.000Z</time>
      </trkpt>
      <trkpt lat="27.859251" lon="86.794925">
        <ele>3994.6</ele>
        <time>2022-10-23T05:05:29.000Z</time>
      </trkpt>
      <trkpt lat="27.859274" lon="86.794938">
        <ele>3995</ele>
        <time>2022-10-23T05:05:32.000Z</time>
      </trkpt>
      <trkpt lat="27.859293" lon="86.794944">
        <ele>3995.4</ele>
        <time>2022-10-23T05:05:35.000Z</time>
      </trkpt>
      <trkpt lat="27.859312" lon="86.79495">
        <ele>3995.4</ele>
        <time>2022-10-23T05:05:45.000Z</time>
      </trkpt>
      <trkpt lat="27.859328" lon="86.79497">
        <ele>3995.4</ele>
        <time>2022-10-23T05:05:47.000Z</time>
      </trkpt>
      <trkpt lat="27.859344" lon="86.794982">
        <ele>3995.4</ele>
        <time>2022-10-23T05:05:50.000Z</time>
      </trkpt>
      <trkpt lat="27.859363" lon="86.794995">
        <ele>3995.4</ele>
        <time>2022-10-23T05:05:52.000Z</time>
      </trkpt>
      <trkpt lat="27.859382" lon="86.795008">
        <ele>3995.6</ele>
        <time>2022-10-23T05:05:54.000Z</time>
      </trkpt>
      <trkpt lat="27.859408" lon="86.795014">
        <ele>3996.6</ele>
        <time>2022-10-23T05:05:57.000Z</time>
      </trkpt>
      <trkpt lat="27.859427" lon="86.795014">
        <ele>3996.8</ele>
        <time>2022-10-23T05:05:59.000Z</time>
      </trkpt>
      <trkpt lat="27.859446" lon="86.795014">
        <ele>3997</ele>
        <time>2022-10-23T05:06:02.000Z</time>
      </trkpt>
      <trkpt lat="27.859469" lon="86.795008">
        <ele>3997.8</ele>
        <time>2022-10-23T05:06:04.000Z</time>
      </trkpt>
      <trkpt lat="27.859488" lon="86.795014">
        <ele>3998.4</ele>
        <time>2022-10-23T05:06:07.000Z</time>
      </trkpt>
      <trkpt lat="27.859514" lon="86.795014">
        <ele>3998.6</ele>
        <time>2022-10-23T05:06:10.000Z</time>
      </trkpt>
      <trkpt lat="27.859523" lon="86.795034">
        <ele>3998.8</ele>
        <time>2022-10-23T05:06:12.000Z</time>
      </trkpt>
      <trkpt lat="27.859536" lon="86.795053">
        <ele>3999.4</ele>
        <time>2022-10-23T05:06:14.000Z</time>
      </trkpt>
      <trkpt lat="27.859555" lon="86.795066">
        <ele>3999.6</ele>
        <time>2022-10-23T05:06:17.000Z</time>
      </trkpt>
      <trkpt lat="27.859574" lon="86.795066">
        <ele>4000.6</ele>
        <time>2022-10-23T05:06:20.000Z</time>
      </trkpt>
      <trkpt lat="27.859597" lon="86.795066">
        <ele>4000.2</ele>
        <time>2022-10-23T05:06:23.000Z</time>
      </trkpt>
      <trkpt lat="27.859619" lon="86.795059">
        <ele>4000.8</ele>
        <time>2022-10-23T05:06:26.000Z</time>
      </trkpt>
      <trkpt lat="27.859638" lon="86.795059">
        <ele>4000.6</ele>
        <time>2022-10-23T05:06:28.000Z</time>
      </trkpt>
      <trkpt lat="27.859658" lon="86.795059">
        <ele>4000.8</ele>
        <time>2022-10-23T05:06:32.000Z</time>
      </trkpt>
      <trkpt lat="27.859677" lon="86.795053">
        <ele>4000.2</ele>
        <time>2022-10-23T05:06:35.000Z</time>
      </trkpt>
      <trkpt lat="27.859702" lon="86.795053">
        <ele>4000.8</ele>
        <time>2022-10-23T05:06:38.000Z</time>
      </trkpt>
      <trkpt lat="27.859722" lon="86.795053">
        <ele>4001</ele>
        <time>2022-10-23T05:06:40.000Z</time>
      </trkpt>
      <trkpt lat="27.859741" lon="86.795053">
        <ele>4001.4</ele>
        <time>2022-10-23T05:06:42.000Z</time>
      </trkpt>
      <trkpt lat="27.859763" lon="86.795053">
        <ele>4001.2</ele>
        <time>2022-10-23T05:06:44.000Z</time>
      </trkpt>
      <trkpt lat="27.859782" lon="86.795046">
        <ele>4001.2</ele>
        <time>2022-10-23T05:06:46.000Z</time>
      </trkpt>
      <trkpt lat="27.859802" lon="86.795053">
        <ele>4001.2</ele>
        <time>2022-10-23T05:06:48.000Z</time>
      </trkpt>
      <trkpt lat="27.859824" lon="86.795053">
        <ele>4001</ele>
        <time>2022-10-23T05:06:50.000Z</time>
      </trkpt>
      <trkpt lat="27.859843" lon="86.795053">
        <ele>4000.8</ele>
        <time>2022-10-23T05:06:52.000Z</time>
      </trkpt>
      <trkpt lat="27.859862" lon="86.795059">
        <ele>4000.8</ele>
        <time>2022-10-23T05:06:57.000Z</time>
      </trkpt>
      <trkpt lat="27.859885" lon="86.795066">
        <ele>4000.8</ele>
        <time>2022-10-23T05:07:00.000Z</time>
      </trkpt>
      <trkpt lat="27.859904" lon="86.795066">
        <ele>4000.8</ele>
        <time>2022-10-23T05:07:02.000Z</time>
      </trkpt>
      <trkpt lat="27.85992" lon="86.795085">
        <ele>4000.8</ele>
        <time>2022-10-23T05:07:04.000Z</time>
      </trkpt>
      <trkpt lat="27.859939" lon="86.795091">
        <ele>4001.4</ele>
        <time>2022-10-23T05:07:07.000Z</time>
      </trkpt>
      <trkpt lat="27.859952" lon="86.79511">
        <ele>4001.6</ele>
        <time>2022-10-23T05:07:10.000Z</time>
      </trkpt>
      <trkpt lat="27.859971" lon="86.795123">
        <ele>4002</ele>
        <time>2022-10-23T05:07:13.000Z</time>
      </trkpt>
      <trkpt lat="27.85999" lon="86.795142">
        <ele>4002.8</ele>
        <time>2022-10-23T05:07:16.000Z</time>
      </trkpt>
      <trkpt lat="27.860003" lon="86.795168">
        <ele>4003</ele>
        <time>2022-10-23T05:07:19.000Z</time>
      </trkpt>
      <trkpt lat="27.860016" lon="86.795187">
        <ele>4003</ele>
        <time>2022-10-23T05:07:21.000Z</time>
      </trkpt>
      <trkpt lat="27.860029" lon="86.795206">
        <ele>4002.8</ele>
        <time>2022-10-23T05:07:23.000Z</time>
      </trkpt>
      <trkpt lat="27.860048" lon="86.795226">
        <ele>4002.4</ele>
        <time>2022-10-23T05:07:26.000Z</time>
      </trkpt>
      <trkpt lat="27.860061" lon="86.795245">
        <ele>4002.2</ele>
        <time>2022-10-23T05:07:28.000Z</time>
      </trkpt>
      <trkpt lat="27.86008" lon="86.795251">
        <ele>4002</ele>
        <time>2022-10-23T05:07:30.000Z</time>
      </trkpt>
      <trkpt lat="27.860099" lon="86.795264">
        <ele>4002.4</ele>
        <time>2022-10-23T05:07:32.000Z</time>
      </trkpt>
      <trkpt lat="27.860118" lon="86.79527">
        <ele>4001.6</ele>
        <time>2022-10-23T05:07:34.000Z</time>
      </trkpt>
      <trkpt lat="27.860134" lon="86.79529">
        <ele>4001.4</ele>
        <time>2022-10-23T05:07:36.000Z</time>
      </trkpt>
      <trkpt lat="27.860154" lon="86.795296">
        <ele>4001.6</ele>
        <time>2022-10-23T05:07:38.000Z</time>
      </trkpt>
      <trkpt lat="27.860173" lon="86.795309">
        <ele>4001.6</ele>
        <time>2022-10-23T05:07:40.000Z</time>
      </trkpt>
      <trkpt lat="27.860189" lon="86.795322">
        <ele>4001.2</ele>
        <time>2022-10-23T05:07:42.000Z</time>
      </trkpt>
      <trkpt lat="27.860211" lon="86.795334">
        <ele>4000.6</ele>
        <time>2022-10-23T05:07:45.000Z</time>
      </trkpt>
      <trkpt lat="27.86023" lon="86.795347">
        <ele>4000.4</ele>
        <time>2022-10-23T05:07:47.000Z</time>
      </trkpt>
      <trkpt lat="27.860253" lon="86.795366">
        <ele>4000.4</ele>
        <time>2022-10-23T05:07:49.000Z</time>
      </trkpt>
      <trkpt lat="27.860269" lon="86.795379">
        <ele>4000.8</ele>
        <time>2022-10-23T05:07:51.000Z</time>
      </trkpt>
      <trkpt lat="27.860288" lon="86.795386">
        <ele>4000.8</ele>
        <time>2022-10-23T05:07:53.000Z</time>
      </trkpt>
      <trkpt lat="27.86031" lon="86.795392">
        <ele>4000.6</ele>
        <time>2022-10-23T05:07:55.000Z</time>
      </trkpt>
      <trkpt lat="27.860333" lon="86.795411">
        <ele>4000.8</ele>
        <time>2022-10-23T05:07:57.000Z</time>
      </trkpt>
      <trkpt lat="27.860355" lon="86.795418">
        <ele>4000.6</ele>
        <time>2022-10-23T05:07:59.000Z</time>
      </trkpt>
      <trkpt lat="27.860378" lon="86.795424">
        <ele>4000.2</ele>
        <time>2022-10-23T05:08:02.000Z</time>
      </trkpt>
      <trkpt lat="27.860394" lon="86.795443">
        <ele>4000.6</ele>
        <time>2022-10-23T05:08:04.000Z</time>
      </trkpt>
      <trkpt lat="27.860413" lon="86.795462">
        <ele>4000.4</ele>
        <time>2022-10-23T05:08:07.000Z</time>
      </trkpt>
      <trkpt lat="27.860426" lon="86.795482">
        <ele>4000.4</ele>
        <time>2022-10-23T05:08:09.000Z</time>
      </trkpt>
      <trkpt lat="27.860448" lon="86.795488">
        <ele>4000.8</ele>
        <time>2022-10-23T05:08:11.000Z</time>
      </trkpt>
      <trkpt lat="27.860464" lon="86.795501">
        <ele>4000.8</ele>
        <time>2022-10-23T05:08:13.000Z</time>
      </trkpt>
      <trkpt lat="27.860474" lon="86.79552">
        <ele>4000.8</ele>
        <time>2022-10-23T05:08:14.000Z</time>
      </trkpt>
      <trkpt lat="27.86049" lon="86.795533">
        <ele>4000.8</ele>
        <time>2022-10-23T05:08:16.000Z</time>
      </trkpt>
      <trkpt lat="27.860509" lon="86.795546">
        <ele>4001</ele>
        <time>2022-10-23T05:08:18.000Z</time>
      </trkpt>
      <trkpt lat="27.860528" lon="86.795552">
        <ele>4000.8</ele>
        <time>2022-10-23T05:08:20.000Z</time>
      </trkpt>
      <trkpt lat="27.860541" lon="86.795571">
        <ele>4000.6</ele>
        <time>2022-10-23T05:08:22.000Z</time>
      </trkpt>
      <trkpt lat="27.860557" lon="86.79559">
        <ele>4001</ele>
        <time>2022-10-23T05:08:24.000Z</time>
      </trkpt>
      <trkpt lat="27.860576" lon="86.795603">
        <ele>4001</ele>
        <time>2022-10-23T05:08:26.000Z</time>
      </trkpt>
      <trkpt lat="27.860592" lon="86.795622">
        <ele>4000.6</ele>
        <time>2022-10-23T05:08:28.000Z</time>
      </trkpt>
      <trkpt lat="27.860608" lon="86.795642">
        <ele>4000.8</ele>
        <time>2022-10-23T05:08:30.000Z</time>
      </trkpt>
      <trkpt lat="27.860624" lon="86.795654">
        <ele>4000.8</ele>
        <time>2022-10-23T05:08:32.000Z</time>
      </trkpt>
      <trkpt lat="27.860643" lon="86.79568">
        <ele>4000.8</ele>
        <time>2022-10-23T05:08:35.000Z</time>
      </trkpt>
      <trkpt lat="27.860662" lon="86.795699">
        <ele>4001.4</ele>
        <time>2022-10-23T05:08:38.000Z</time>
      </trkpt>
      <trkpt lat="27.860675" lon="86.795718">
        <ele>4001.4</ele>
        <time>2022-10-23T05:08:40.000Z</time>
      </trkpt>
      <trkpt lat="27.860688" lon="86.795744">
        <ele>4001.6</ele>
        <time>2022-10-23T05:08:43.000Z</time>
      </trkpt>
      <trkpt lat="27.860704" lon="86.795763">
        <ele>4001.8</ele>
        <time>2022-10-23T05:08:45.000Z</time>
      </trkpt>
      <trkpt lat="27.860717" lon="86.795782">
        <ele>4002.2</ele>
        <time>2022-10-23T05:08:48.000Z</time>
      </trkpt>
      <trkpt lat="27.86073" lon="86.795802">
        <ele>4002.6</ele>
        <time>2022-10-23T05:08:50.000Z</time>
      </trkpt>
      <trkpt lat="27.860739" lon="86.795821">
        <ele>4003</ele>
        <time>2022-10-23T05:08:53.000Z</time>
      </trkpt>
      <trkpt lat="27.860746" lon="86.79584">
        <ele>4003.2</ele>
        <time>2022-10-23T05:08:57.000Z</time>
      </trkpt>
      <trkpt lat="27.860739" lon="86.795821">
        <ele>4003</ele>
        <time>2022-10-23T05:09:07.000Z</time>
      </trkpt>
      <trkpt lat="27.860726" lon="86.795802">
        <ele>4002.6</ele>
        <time>2022-10-23T05:09:11.000Z</time>
      </trkpt>
      <trkpt lat="27.860717" lon="86.795782">
        <ele>4003</ele>
        <time>2022-10-23T05:09:15.000Z</time>
      </trkpt>
      <trkpt lat="27.860742" lon="86.795814">
        <ele>4003.4</ele>
        <time>2022-10-23T05:10:15.000Z</time>
      </trkpt>
      <trkpt lat="27.860765" lon="86.795846">
        <ele>4003.2</ele>
        <time>2022-10-23T05:10:17.000Z</time>
      </trkpt>
      <trkpt lat="27.860787" lon="86.795866">
        <ele>4003.6</ele>
        <time>2022-10-23T05:10:19.000Z</time>
      </trkpt>
      <trkpt lat="27.860797" lon="86.795885">
        <ele>4003.8</ele>
        <time>2022-10-23T05:10:20.000Z</time>
      </trkpt>
      <trkpt lat="27.860819" lon="86.795917">
        <ele>4004</ele>
        <time>2022-10-23T05:10:22.000Z</time>
      </trkpt>
      <trkpt lat="27.860835" lon="86.795936">
        <ele>4004.2</ele>
        <time>2022-10-23T05:10:24.000Z</time>
      </trkpt>
      <trkpt lat="27.860854" lon="86.795968">
        <ele>4005.2</ele>
        <time>2022-10-23T05:12:00.000Z</time>
      </trkpt>
      <trkpt lat="27.860877" lon="86.796">
        <ele>4005.4</ele>
        <time>2022-10-23T05:12:03.000Z</time>
      </trkpt>
      <trkpt lat="27.860896" lon="86.796013">
        <ele>4005.4</ele>
        <time>2022-10-23T05:12:05.000Z</time>
      </trkpt>
      <trkpt lat="27.860912" lon="86.796038">
        <ele>4005.4</ele>
        <time>2022-10-23T05:12:07.000Z</time>
      </trkpt>
      <trkpt lat="27.860918" lon="86.796058">
        <ele>4005.8</ele>
        <time>2022-10-23T05:12:09.000Z</time>
      </trkpt>
      <trkpt lat="27.860925" lon="86.796083">
        <ele>4006.2</ele>
        <time>2022-10-23T05:12:11.000Z</time>
      </trkpt>
      <trkpt lat="27.860928" lon="86.796115">
        <ele>4005</ele>
        <time>2022-10-23T05:12:18.000Z</time>
      </trkpt>
      <trkpt lat="27.860947" lon="86.796134">
        <ele>4004.2</ele>
        <time>2022-10-23T05:12:46.000Z</time>
      </trkpt>
      <trkpt lat="27.860963" lon="86.79616">
        <ele>4004.4</ele>
        <time>2022-10-23T05:12:48.000Z</time>
      </trkpt>
      <trkpt lat="27.860976" lon="86.796186">
        <ele>4004.2</ele>
        <time>2022-10-23T05:12:50.000Z</time>
      </trkpt>
      <trkpt lat="27.860982" lon="86.796205">
        <ele>4004.2</ele>
        <time>2022-10-23T05:12:51.000Z</time>
      </trkpt>
      <trkpt lat="27.860992" lon="86.796224">
        <ele>4004.2</ele>
        <time>2022-10-23T05:12:53.000Z</time>
      </trkpt>
      <trkpt lat="27.861002" lon="86.796243">
        <ele>4004.2</ele>
        <time>2022-10-23T05:12:54.000Z</time>
      </trkpt>
      <trkpt lat="27.861021" lon="86.796256">
        <ele>4003.6</ele>
        <time>2022-10-23T05:12:59.000Z</time>
      </trkpt>
      <trkpt lat="27.86104" lon="86.796262">
        <ele>4003.4</ele>
        <time>2022-10-23T05:13:02.000Z</time>
      </trkpt>
      <trkpt lat="27.861059" lon="86.796262">
        <ele>4002.8</ele>
        <time>2022-10-23T05:13:05.000Z</time>
      </trkpt>
      <trkpt lat="27.861069" lon="86.796282">
        <ele>4002.6</ele>
        <time>2022-10-23T05:13:10.000Z</time>
      </trkpt>
      <trkpt lat="27.861078" lon="86.796301">
        <ele>4001.4</ele>
        <time>2022-10-23T05:13:18.000Z</time>
      </trkpt>
      <trkpt lat="27.861091" lon="86.79632">
        <ele>4001</ele>
        <time>2022-10-23T05:13:21.000Z</time>
      </trkpt>
      <trkpt lat="27.861098" lon="86.796339">
        <ele>4000.2</ele>
        <time>2022-10-23T05:13:24.000Z</time>
      </trkpt>
      <trkpt lat="27.86112" lon="86.796358">
        <ele>3999.2</ele>
        <time>2022-10-23T05:13:27.000Z</time>
      </trkpt>
      <trkpt lat="27.861146" lon="86.796371">
        <ele>3999.2</ele>
        <time>2022-10-23T05:13:29.000Z</time>
      </trkpt>
      <trkpt lat="27.861165" lon="86.796397">
        <ele>3999.4</ele>
        <time>2022-10-23T05:13:31.000Z</time>
      </trkpt>
      <trkpt lat="27.86119" lon="86.79641">
        <ele>3999.2</ele>
        <time>2022-10-23T05:13:33.000Z</time>
      </trkpt>
      <trkpt lat="27.861206" lon="86.796422">
        <ele>3998.4</ele>
        <time>2022-10-23T05:13:35.000Z</time>
      </trkpt>
      <trkpt lat="27.861229" lon="86.796442">
        <ele>3998</ele>
        <time>2022-10-23T05:13:37.000Z</time>
      </trkpt>
      <trkpt lat="27.861245" lon="86.796461">
        <ele>3998.4</ele>
        <time>2022-10-23T05:13:39.000Z</time>
      </trkpt>
      <trkpt lat="27.861267" lon="86.79648">
        <ele>3998</ele>
        <time>2022-10-23T05:13:41.000Z</time>
      </trkpt>
      <trkpt lat="27.861283" lon="86.796499">
        <ele>3997.8</ele>
        <time>2022-10-23T05:13:43.000Z</time>
      </trkpt>
      <trkpt lat="27.861293" lon="86.796518">
        <ele>3997.8</ele>
        <time>2022-10-23T05:13:45.000Z</time>
      </trkpt>
      <trkpt lat="27.861312" lon="86.796525">
        <ele>3997.8</ele>
        <time>2022-10-23T05:13:56.000Z</time>
      </trkpt>
      <trkpt lat="27.861334" lon="86.796531">
        <ele>3997.2</ele>
        <time>2022-10-23T05:13:58.000Z</time>
      </trkpt>
      <trkpt lat="27.86135" lon="86.796544">
        <ele>3997</ele>
        <time>2022-10-23T05:14:00.000Z</time>
      </trkpt>
      <trkpt lat="27.861373" lon="86.796563">
        <ele>3997.6</ele>
        <time>2022-10-23T05:14:03.000Z</time>
      </trkpt>
      <trkpt lat="27.861392" lon="86.79657">
        <ele>3997.6</ele>
        <time>2022-10-23T05:14:05.000Z</time>
      </trkpt>
      <trkpt lat="27.861411" lon="86.796576">
        <ele>3997</ele>
        <time>2022-10-23T05:14:07.000Z</time>
      </trkpt>
      <trkpt lat="27.861424" lon="86.796595">
        <ele>3997</ele>
        <time>2022-10-23T05:14:09.000Z</time>
      </trkpt>
      <trkpt lat="27.86144" lon="86.796621">
        <ele>3997.6</ele>
        <time>2022-10-23T05:14:12.000Z</time>
      </trkpt>
      <trkpt lat="27.861453" lon="86.796646">
        <ele>3997.2</ele>
        <time>2022-10-23T05:14:14.000Z</time>
      </trkpt>
      <trkpt lat="27.861466" lon="86.796672">
        <ele>3998</ele>
        <time>2022-10-23T05:14:17.000Z</time>
      </trkpt>
      <trkpt lat="27.861478" lon="86.796691">
        <ele>3997.8</ele>
        <time>2022-10-23T05:14:19.000Z</time>
      </trkpt>
      <trkpt lat="27.861498" lon="86.796717">
        <ele>3997.2</ele>
        <time>2022-10-23T05:14:22.000Z</time>
      </trkpt>
      <trkpt lat="27.861514" lon="86.79673">
        <ele>3997.2</ele>
        <time>2022-10-23T05:14:24.000Z</time>
      </trkpt>
      <trkpt lat="27.861533" lon="86.796742">
        <ele>3997.2</ele>
        <time>2022-10-23T05:14:26.000Z</time>
      </trkpt>
      <trkpt lat="27.861546" lon="86.796762">
        <ele>3997.4</ele>
        <time>2022-10-23T05:14:28.000Z</time>
      </trkpt>
      <trkpt lat="27.861562" lon="86.796774">
        <ele>3997.8</ele>
        <time>2022-10-23T05:14:30.000Z</time>
      </trkpt>
      <trkpt lat="27.861581" lon="86.796794">
        <ele>3997.8</ele>
        <time>2022-10-23T05:14:32.000Z</time>
      </trkpt>
      <trkpt lat="27.861597" lon="86.796806">
        <ele>3997.6</ele>
        <time>2022-10-23T05:14:34.000Z</time>
      </trkpt>
      <trkpt lat="27.86161" lon="86.796832">
        <ele>3998</ele>
        <time>2022-10-23T05:14:36.000Z</time>
      </trkpt>
      <trkpt lat="27.861616" lon="86.796851">
        <ele>3997.2</ele>
        <time>2022-10-23T05:14:38.000Z</time>
      </trkpt>
      <trkpt lat="27.861626" lon="86.79687">
        <ele>3997.4</ele>
        <time>2022-10-23T05:14:40.000Z</time>
      </trkpt>
      <trkpt lat="27.861638" lon="86.79689">
        <ele>3997.6</ele>
        <time>2022-10-23T05:14:42.000Z</time>
      </trkpt>
      <trkpt lat="27.861651" lon="86.796915">
        <ele>3998</ele>
        <time>2022-10-23T05:14:45.000Z</time>
      </trkpt>
      <trkpt lat="27.86167" lon="86.796922">
        <ele>3998.2</ele>
        <time>2022-10-23T05:14:52.000Z</time>
      </trkpt>
      <trkpt lat="27.86168" lon="86.796941">
        <ele>3999.2</ele>
        <time>2022-10-23T05:14:55.000Z</time>
      </trkpt>
      <trkpt lat="27.861686" lon="86.79696">
        <ele>3999.6</ele>
        <time>2022-10-23T05:14:57.000Z</time>
      </trkpt>
      <trkpt lat="27.861702" lon="86.79703">
        <ele>3998.4</ele>
        <time>2022-10-23T05:15:05.000Z</time>
      </trkpt>
      <trkpt lat="27.861706" lon="86.797056">
        <ele>3999.2</ele>
        <time>2022-10-23T05:15:08.000Z</time>
      </trkpt>
      <trkpt lat="27.861712" lon="86.797075">
        <ele>3999.4</ele>
        <time>2022-10-23T05:15:10.000Z</time>
      </trkpt>
      <trkpt lat="27.861728" lon="86.797094">
        <ele>4000</ele>
        <time>2022-10-23T05:15:13.000Z</time>
      </trkpt>
      <trkpt lat="27.861741" lon="86.797114">
        <ele>3999.4</ele>
        <time>2022-10-23T05:15:16.000Z</time>
      </trkpt>
      <trkpt lat="27.86175" lon="86.797133">
        <ele>3998.8</ele>
        <time>2022-10-23T05:15:19.000Z</time>
      </trkpt>
      <trkpt lat="27.86176" lon="86.797152">
        <ele>3998.4</ele>
        <time>2022-10-23T05:15:21.000Z</time>
      </trkpt>
      <trkpt lat="27.861773" lon="86.797178">
        <ele>3998</ele>
        <time>2022-10-23T05:15:25.000Z</time>
      </trkpt>
      <trkpt lat="27.861798" lon="86.797216">
        <ele>3997.8</ele>
        <time>2022-10-23T05:15:31.000Z</time>
      </trkpt>
      <trkpt lat="27.861811" lon="86.797235">
        <ele>3997.4</ele>
        <time>2022-10-23T05:15:33.000Z</time>
      </trkpt>
      <trkpt lat="27.86183" lon="86.797248">
        <ele>3996.6</ele>
        <time>2022-10-23T05:15:36.000Z</time>
      </trkpt>
      <trkpt lat="27.86184" lon="86.797267">
        <ele>3996.4</ele>
        <time>2022-10-23T05:16:39.000Z</time>
      </trkpt>
      <trkpt lat="27.861859" lon="86.797274">
        <ele>3996.2</ele>
        <time>2022-10-23T05:16:40.000Z</time>
      </trkpt>
      <trkpt lat="27.861891" lon="86.797293">
        <ele>3995.8</ele>
        <time>2022-10-23T05:16:42.000Z</time>
      </trkpt>
      <trkpt lat="27.861917" lon="86.797312">
        <ele>3995.6</ele>
        <time>2022-10-23T05:16:44.000Z</time>
      </trkpt>
      <trkpt lat="27.861936" lon="86.797331">
        <ele>3995.4</ele>
        <time>2022-10-23T05:16:46.000Z</time>
      </trkpt>
      <trkpt lat="27.861955" lon="86.797357">
        <ele>3995.6</ele>
        <time>2022-10-23T05:16:48.000Z</time>
      </trkpt>
      <trkpt lat="27.861968" lon="86.797376">
        <ele>3995.8</ele>
        <time>2022-10-23T05:16:50.000Z</time>
      </trkpt>
      <trkpt lat="27.861978" lon="86.797395">
        <ele>3996.4</ele>
        <time>2022-10-23T05:16:52.000Z</time>
      </trkpt>
      <trkpt lat="27.86199" lon="86.797414">
        <ele>3996.4</ele>
        <time>2022-10-23T05:16:54.000Z</time>
      </trkpt>
      <trkpt lat="27.862006" lon="86.797434">
        <ele>3996.4</ele>
        <time>2022-10-23T05:16:56.000Z</time>
      </trkpt>
      <trkpt lat="27.86201" lon="86.797466">
        <ele>3996.2</ele>
        <time>2022-10-23T05:16:59.000Z</time>
      </trkpt>
      <trkpt lat="27.86201" lon="86.797491">
        <ele>3996.2</ele>
        <time>2022-10-23T05:17:02.000Z</time>
      </trkpt>
      <trkpt lat="27.862003" lon="86.79751">
        <ele>3996.8</ele>
        <time>2022-10-23T05:17:05.000Z</time>
      </trkpt>
      <trkpt lat="27.861997" lon="86.797536">
        <ele>3996.8</ele>
        <time>2022-10-23T05:17:07.000Z</time>
      </trkpt>
      <trkpt lat="27.861997" lon="86.797562">
        <ele>3997</ele>
        <time>2022-10-23T05:17:10.000Z</time>
      </trkpt>
      <trkpt lat="27.861997" lon="86.797587">
        <ele>3997.6</ele>
        <time>2022-10-23T05:17:12.000Z</time>
      </trkpt>
      <trkpt lat="27.862003" lon="86.797606">
        <ele>3997.4</ele>
        <time>2022-10-23T05:17:15.000Z</time>
      </trkpt>
      <trkpt lat="27.861997" lon="86.797632">
        <ele>3997</ele>
        <time>2022-10-23T05:17:20.000Z</time>
      </trkpt>
      <trkpt lat="27.86199" lon="86.797664">
        <ele>3995</ele>
        <time>2022-10-23T05:17:27.000Z</time>
      </trkpt>
      <trkpt lat="27.861987" lon="86.79769">
        <ele>3994.8</ele>
        <time>2022-10-23T05:17:31.000Z</time>
      </trkpt>
      <trkpt lat="27.861994" lon="86.797715">
        <ele>3994</ele>
        <time>2022-10-23T05:17:34.000Z</time>
      </trkpt>
      <trkpt lat="27.862003" lon="86.797734">
        <ele>3993.6</ele>
        <time>2022-10-23T05:17:37.000Z</time>
      </trkpt>
      <trkpt lat="27.86201" lon="86.797754">
        <ele>3992.8</ele>
        <time>2022-10-23T05:17:39.000Z</time>
      </trkpt>
      <trkpt lat="27.862019" lon="86.797773">
        <ele>3992.4</ele>
        <time>2022-10-23T05:17:45.000Z</time>
      </trkpt>
      <trkpt lat="27.862029" lon="86.797792">
        <ele>3991.8</ele>
        <time>2022-10-23T05:17:48.000Z</time>
      </trkpt>
      <trkpt lat="27.86207" lon="86.797811">
        <ele>3991.4</ele>
        <time>2022-10-23T05:18:42.000Z</time>
      </trkpt>
      <trkpt lat="27.86209" lon="86.79783">
        <ele>3991.2</ele>
        <time>2022-10-23T05:18:44.000Z</time>
      </trkpt>
      <trkpt lat="27.862115" lon="86.797837">
        <ele>3991.2</ele>
        <time>2022-10-23T05:18:46.000Z</time>
      </trkpt>
      <trkpt lat="27.862131" lon="86.79785">
        <ele>3991.6</ele>
        <time>2022-10-23T05:18:48.000Z</time>
      </trkpt>
      <trkpt lat="27.862154" lon="86.797875">
        <ele>3991.2</ele>
        <time>2022-10-23T05:18:50.000Z</time>
      </trkpt>
      <trkpt lat="27.86217" lon="86.797888">
        <ele>3990.8</ele>
        <time>2022-10-23T05:18:52.000Z</time>
      </trkpt>
      <trkpt lat="27.862182" lon="86.797914">
        <ele>3990.4</ele>
        <time>2022-10-23T05:18:54.000Z</time>
      </trkpt>
      <trkpt lat="27.862176" lon="86.797933">
        <ele>3990.2</ele>
        <time>2022-10-23T05:18:56.000Z</time>
      </trkpt>
      <trkpt lat="27.86217" lon="86.797952">
        <ele>3990.2</ele>
        <time>2022-10-23T05:18:57.000Z</time>
      </trkpt>
      <trkpt lat="27.862166" lon="86.79799">
        <ele>3989.4</ele>
        <time>2022-10-23T05:19:00.000Z</time>
      </trkpt>
      <trkpt lat="27.862147" lon="86.79801">
        <ele>3989.4</ele>
        <time>2022-10-23T05:19:03.000Z</time>
      </trkpt>
      <trkpt lat="27.862138" lon="86.798035">
        <ele>3989.8</ele>
        <time>2022-10-23T05:19:05.000Z</time>
      </trkpt>
      <trkpt lat="27.862128" lon="86.798054">
        <ele>3989.8</ele>
        <time>2022-10-23T05:19:08.000Z</time>
      </trkpt>
      <trkpt lat="27.862134" lon="86.79808">
        <ele>3989.4</ele>
        <time>2022-10-23T05:19:10.000Z</time>
      </trkpt>
      <trkpt lat="27.862141" lon="86.798106">
        <ele>3989</ele>
        <time>2022-10-23T05:19:12.000Z</time>
      </trkpt>
      <trkpt lat="27.862157" lon="86.798118">
        <ele>3989</ele>
        <time>2022-10-23T05:19:14.000Z</time>
      </trkpt>
      <trkpt lat="27.862176" lon="86.798125">
        <ele>3989</ele>
        <time>2022-10-23T05:19:16.000Z</time>
      </trkpt>
      <trkpt lat="27.862192" lon="86.798144">
        <ele>3989.4</ele>
        <time>2022-10-23T05:19:18.000Z</time>
      </trkpt>
      <trkpt lat="27.862211" lon="86.798157">
        <ele>3988.8</ele>
        <time>2022-10-23T05:19:21.000Z</time>
      </trkpt>
      <trkpt lat="27.862227" lon="86.79817">
        <ele>3988.8</ele>
        <time>2022-10-23T05:19:23.000Z</time>
      </trkpt>
      <trkpt lat="27.86225" lon="86.798182">
        <ele>3989</ele>
        <time>2022-10-23T05:19:25.000Z</time>
      </trkpt>
      <trkpt lat="27.862272" lon="86.798195">
        <ele>3988.6</ele>
        <time>2022-10-23T05:19:27.000Z</time>
      </trkpt>
      <trkpt lat="27.862294" lon="86.798202">
        <ele>3988.6</ele>
        <time>2022-10-23T05:19:29.000Z</time>
      </trkpt>
      <trkpt lat="27.862301" lon="86.798221">
        <ele>3988.8</ele>
        <time>2022-10-23T05:19:30.000Z</time>
      </trkpt>
      <trkpt lat="27.862314" lon="86.79824">
        <ele>3988.8</ele>
        <time>2022-10-23T05:19:32.000Z</time>
      </trkpt>
      <trkpt lat="27.86232" lon="86.798266">
        <ele>3989</ele>
        <time>2022-10-23T05:19:34.000Z</time>
      </trkpt>
      <trkpt lat="27.862326" lon="86.798285">
        <ele>3989</ele>
        <time>2022-10-23T05:19:36.000Z</time>
      </trkpt>
      <trkpt lat="27.86233" lon="86.798317">
        <ele>3989</ele>
        <time>2022-10-23T05:19:38.000Z</time>
      </trkpt>
      <trkpt lat="27.862336" lon="86.798342">
        <ele>3988.8</ele>
        <time>2022-10-23T05:19:41.000Z</time>
      </trkpt>
      <trkpt lat="27.862352" lon="86.798362">
        <ele>3988.8</ele>
        <time>2022-10-23T05:19:48.000Z</time>
      </trkpt>
      <trkpt lat="27.862358" lon="86.798381">
        <ele>3988.8</ele>
        <time>2022-10-23T05:19:49.000Z</time>
      </trkpt>
      <trkpt lat="27.862374" lon="86.7984">
        <ele>3988.6</ele>
        <time>2022-10-23T05:19:51.000Z</time>
      </trkpt>
      <trkpt lat="27.862381" lon="86.798419">
        <ele>3989.2</ele>
        <time>2022-10-23T05:19:53.000Z</time>
      </trkpt>
      <trkpt lat="27.862387" lon="86.798438">
        <ele>3989</ele>
        <time>2022-10-23T05:19:55.000Z</time>
      </trkpt>
      <trkpt lat="27.86239" lon="86.798464">
        <ele>3988.4</ele>
        <time>2022-10-23T05:19:57.000Z</time>
      </trkpt>
      <trkpt lat="27.8624" lon="86.79849">
        <ele>3988.8</ele>
        <time>2022-10-23T05:20:00.000Z</time>
      </trkpt>
      <trkpt lat="27.86241" lon="86.798509">
        <ele>3987.8</ele>
        <time>2022-10-23T05:20:02.000Z</time>
      </trkpt>
      <trkpt lat="27.862419" lon="86.798528">
        <ele>3987.4</ele>
        <time>2022-10-23T05:20:04.000Z</time>
      </trkpt>
      <trkpt lat="27.862426" lon="86.798547">
        <ele>3987.2</ele>
        <time>2022-10-23T05:20:06.000Z</time>
      </trkpt>
      <trkpt lat="27.862432" lon="86.798566">
        <ele>3987.2</ele>
        <time>2022-10-23T05:20:08.000Z</time>
      </trkpt>
      <trkpt lat="27.862442" lon="86.798592">
        <ele>3986.4</ele>
        <time>2022-10-23T05:20:10.000Z</time>
      </trkpt>
      <trkpt lat="27.862448" lon="86.798618">
        <ele>3986.2</ele>
        <time>2022-10-23T05:20:12.000Z</time>
      </trkpt>
      <trkpt lat="27.862464" lon="86.798637">
        <ele>3985.8</ele>
        <time>2022-10-23T05:20:15.000Z</time>
      </trkpt>
      <trkpt lat="27.862477" lon="86.798662">
        <ele>3985.8</ele>
        <time>2022-10-23T05:20:17.000Z</time>
      </trkpt>
      <trkpt lat="27.862493" lon="86.798675">
        <ele>3985.4</ele>
        <time>2022-10-23T05:20:19.000Z</time>
      </trkpt>
      <trkpt lat="27.862509" lon="86.798688">
        <ele>3985.2</ele>
        <time>2022-10-23T05:20:21.000Z</time>
      </trkpt>
      <trkpt lat="27.862525" lon="86.798714">
        <ele>3984.8</ele>
        <time>2022-10-23T05:20:23.000Z</time>
      </trkpt>
      <trkpt lat="27.862544" lon="86.798739">
        <ele>3984.8</ele>
        <time>2022-10-23T05:20:26.000Z</time>
      </trkpt>
      <trkpt lat="27.862563" lon="86.798758">
        <ele>3984.2</ele>
        <time>2022-10-23T05:20:29.000Z</time>
      </trkpt>
      <trkpt lat="27.862579" lon="86.798778">
        <ele>3984.2</ele>
        <time>2022-10-23T05:20:31.000Z</time>
      </trkpt>
      <trkpt lat="27.862598" lon="86.79879">
        <ele>3984.2</ele>
        <time>2022-10-23T05:20:33.000Z</time>
      </trkpt>
      <trkpt lat="27.862618" lon="86.798803">
        <ele>3984.4</ele>
        <time>2022-10-23T05:20:35.000Z</time>
      </trkpt>
      <trkpt lat="27.86263" lon="86.798822">
        <ele>3984.2</ele>
        <time>2022-10-23T05:20:37.000Z</time>
      </trkpt>
      <trkpt lat="27.86264" lon="86.798848">
        <ele>3983.6</ele>
        <time>2022-10-23T05:20:40.000Z</time>
      </trkpt>
      <trkpt lat="27.862653" lon="86.798867">
        <ele>3983.6</ele>
        <time>2022-10-23T05:20:42.000Z</time>
      </trkpt>
      <trkpt lat="27.862669" lon="86.798899">
        <ele>3984.2</ele>
        <time>2022-10-23T05:20:45.000Z</time>
      </trkpt>
      <trkpt lat="27.862685" lon="86.798918">
        <ele>3984.6</ele>
        <time>2022-10-23T05:20:49.000Z</time>
      </trkpt>
      <trkpt lat="27.862701" lon="86.798938">
        <ele>3984.2</ele>
        <time>2022-10-23T05:20:51.000Z</time>
      </trkpt>
      <trkpt lat="27.862723" lon="86.79895">
        <ele>3984.2</ele>
        <time>2022-10-23T05:20:53.000Z</time>
      </trkpt>
      <trkpt lat="27.862742" lon="86.798963">
        <ele>3984.4</ele>
        <time>2022-10-23T05:20:55.000Z</time>
      </trkpt>
      <trkpt lat="27.862755" lon="86.798982">
        <ele>3984</ele>
        <time>2022-10-23T05:20:57.000Z</time>
      </trkpt>
      <trkpt lat="27.862774" lon="86.798995">
        <ele>3984</ele>
        <time>2022-10-23T05:20:59.000Z</time>
      </trkpt>
      <trkpt lat="27.862794" lon="86.799021">
        <ele>3984</ele>
        <time>2022-10-23T05:21:01.000Z</time>
      </trkpt>
      <trkpt lat="27.862816" lon="86.799027">
        <ele>3984.4</ele>
        <time>2022-10-23T05:21:03.000Z</time>
      </trkpt>
      <trkpt lat="27.862838" lon="86.79904">
        <ele>3984</ele>
        <time>2022-10-23T05:21:06.000Z</time>
      </trkpt>
      <trkpt lat="27.862842" lon="86.799066">
        <ele>3983.8</ele>
        <time>2022-10-23T05:21:08.000Z</time>
      </trkpt>
      <trkpt lat="27.862858" lon="86.799098">
        <ele>3983</ele>
        <time>2022-10-23T05:21:11.000Z</time>
      </trkpt>
      <trkpt lat="27.86287" lon="86.799123">
        <ele>3982.6</ele>
        <time>2022-10-23T05:21:14.000Z</time>
      </trkpt>
      <trkpt lat="27.86288" lon="86.799149">
        <ele>3982.6</ele>
        <time>2022-10-23T05:21:16.000Z</time>
      </trkpt>
      <trkpt lat="27.862883" lon="86.799174">
        <ele>3982.2</ele>
        <time>2022-10-23T05:21:18.000Z</time>
      </trkpt>
      <trkpt lat="27.862902" lon="86.799194">
        <ele>3982</ele>
        <time>2022-10-23T05:21:21.000Z</time>
      </trkpt>
      <trkpt lat="27.862912" lon="86.799219">
        <ele>3982</ele>
        <time>2022-10-23T05:21:24.000Z</time>
      </trkpt>
      <trkpt lat="27.862915" lon="86.799245">
        <ele>3982.4</ele>
        <time>2022-10-23T05:21:27.000Z</time>
      </trkpt>
      <trkpt lat="27.862918" lon="86.79927">
        <ele>3983.2</ele>
        <time>2022-10-23T05:21:29.000Z</time>
      </trkpt>
      <trkpt lat="27.862922" lon="86.799296">
        <ele>3983.8</ele>
        <time>2022-10-23T05:21:31.000Z</time>
      </trkpt>
      <trkpt lat="27.862931" lon="86.799315">
        <ele>3984.2</ele>
        <time>2022-10-23T05:21:34.000Z</time>
      </trkpt>
      <trkpt lat="27.862941" lon="86.799334">
        <ele>3985</ele>
        <time>2022-10-23T05:21:36.000Z</time>
      </trkpt>
      <trkpt lat="27.862954" lon="86.799354">
        <ele>3984.6</ele>
        <time>2022-10-23T05:21:39.000Z</time>
      </trkpt>
      <trkpt lat="27.86296" lon="86.799373">
        <ele>3984.6</ele>
        <time>2022-10-23T05:21:40.000Z</time>
      </trkpt>
      <trkpt lat="27.862982" lon="86.799392">
        <ele>3985</ele>
        <time>2022-10-23T05:21:43.000Z</time>
      </trkpt>
      <trkpt lat="27.863002" lon="86.799405">
        <ele>3984.4</ele>
        <time>2022-10-23T05:21:46.000Z</time>
      </trkpt>
      <trkpt lat="27.863018" lon="86.799418">
        <ele>3984.4</ele>
        <time>2022-10-23T05:21:48.000Z</time>
      </trkpt>
      <trkpt lat="27.863034" lon="86.799437">
        <ele>3985</ele>
        <time>2022-10-23T05:21:51.000Z</time>
      </trkpt>
      <trkpt lat="27.86304" lon="86.799462">
        <ele>3985</ele>
        <time>2022-10-23T05:21:53.000Z</time>
      </trkpt>
      <trkpt lat="27.863059" lon="86.799494">
        <ele>3985.2</ele>
        <time>2022-10-23T05:21:56.000Z</time>
      </trkpt>
      <trkpt lat="27.863075" lon="86.799507">
        <ele>3985.6</ele>
        <time>2022-10-23T05:21:59.000Z</time>
      </trkpt>
      <trkpt lat="27.863101" lon="86.799514">
        <ele>3985.4</ele>
        <time>2022-10-23T05:22:02.000Z</time>
      </trkpt>
      <trkpt lat="27.86312" lon="86.79952">
        <ele>3985.4</ele>
        <time>2022-10-23T05:22:04.000Z</time>
      </trkpt>
      <trkpt lat="27.863139" lon="86.79952">
        <ele>3985.4</ele>
        <time>2022-10-23T05:22:06.000Z</time>
      </trkpt>
      <trkpt lat="27.863158" lon="86.799533">
        <ele>3986</ele>
        <time>2022-10-23T05:22:09.000Z</time>
      </trkpt>
      <trkpt lat="27.863181" lon="86.799539">
        <ele>3986.4</ele>
        <time>2022-10-23T05:22:13.000Z</time>
      </trkpt>
      <trkpt lat="27.8632" lon="86.799546">
        <ele>3987.4</ele>
        <time>2022-10-23T05:22:17.000Z</time>
      </trkpt>
      <trkpt lat="27.863219" lon="86.799546">
        <ele>3987.6</ele>
        <time>2022-10-23T05:22:22.000Z</time>
      </trkpt>
      <trkpt lat="27.863238" lon="86.799552">
        <ele>3988</ele>
        <time>2022-10-23T05:22:25.000Z</time>
      </trkpt>
      <trkpt lat="27.863254" lon="86.799571">
        <ele>3989.4</ele>
        <time>2022-10-23T05:22:30.000Z</time>
      </trkpt>
      <trkpt lat="27.86327" lon="86.799584">
        <ele>3989.8</ele>
        <time>2022-10-23T05:22:36.000Z</time>
      </trkpt>
      <trkpt lat="27.863293" lon="86.799597">
        <ele>3990.6</ele>
        <time>2022-10-23T05:22:41.000Z</time>
      </trkpt>
      <trkpt lat="27.863306" lon="86.799616">
        <ele>3990.6</ele>
        <time>2022-10-23T05:22:44.000Z</time>
      </trkpt>
      <trkpt lat="27.863312" lon="86.799635">
        <ele>3990.8</ele>
        <time>2022-10-23T05:22:47.000Z</time>
      </trkpt>
      <trkpt lat="27.863322" lon="86.799654">
        <ele>3991.2</ele>
        <time>2022-10-23T05:22:50.000Z</time>
      </trkpt>
      <trkpt lat="27.863341" lon="86.799667">
        <ele>3992</ele>
        <time>2022-10-23T05:22:55.000Z</time>
      </trkpt>
      <trkpt lat="27.863357" lon="86.799693">
        <ele>3992.4</ele>
        <time>2022-10-23T05:22:59.000Z</time>
      </trkpt>
      <trkpt lat="27.863379" lon="86.799699">
        <ele>3993</ele>
        <time>2022-10-23T05:23:04.000Z</time>
      </trkpt>
      <trkpt lat="27.863398" lon="86.799712">
        <ele>3993.4</ele>
        <time>2022-10-23T05:23:08.000Z</time>
      </trkpt>
      <trkpt lat="27.863411" lon="86.799731">
        <ele>3993.6</ele>
        <time>2022-10-23T05:23:12.000Z</time>
      </trkpt>
      <trkpt lat="27.863427" lon="86.79975">
        <ele>3994.4</ele>
        <time>2022-10-23T05:23:18.000Z</time>
      </trkpt>
      <trkpt lat="27.863434" lon="86.79977">
        <ele>3994.8</ele>
        <time>2022-10-23T05:23:21.000Z</time>
      </trkpt>
      <trkpt lat="27.86345" lon="86.799789">
        <ele>3994.6</ele>
        <time>2022-10-23T05:23:25.000Z</time>
      </trkpt>
      <trkpt lat="27.863469" lon="86.799814">
        <ele>3996</ele>
        <time>2022-10-23T05:23:31.000Z</time>
      </trkpt>
      <trkpt lat="27.863485" lon="86.799834">
        <ele>3995.8</ele>
        <time>2022-10-23T05:23:34.000Z</time>
      </trkpt>
      <trkpt lat="27.863494" lon="86.799853">
        <ele>3995.8</ele>
        <time>2022-10-23T05:23:36.000Z</time>
      </trkpt>
      <trkpt lat="27.863514" lon="86.799872">
        <ele>3995.8</ele>
        <time>2022-10-23T05:23:40.000Z</time>
      </trkpt>
      <trkpt lat="27.863536" lon="86.799878">
        <ele>3996.2</ele>
        <time>2022-10-23T05:23:44.000Z</time>
      </trkpt>
      <trkpt lat="27.863549" lon="86.799898">
        <ele>3996.2</ele>
        <time>2022-10-23T05:23:46.000Z</time>
      </trkpt>
      <trkpt lat="27.863568" lon="86.799904">
        <ele>3996.4</ele>
        <time>2022-10-23T05:23:49.000Z</time>
      </trkpt>
      <trkpt lat="27.863584" lon="86.799917">
        <ele>3996.2</ele>
        <time>2022-10-23T05:23:51.000Z</time>
      </trkpt>
      <trkpt lat="27.863594" lon="86.799936">
        <ele>3995.8</ele>
        <time>2022-10-23T05:23:53.000Z</time>
      </trkpt>
      <trkpt lat="27.863606" lon="86.799955">
        <ele>3995.6</ele>
        <time>2022-10-23T05:23:56.000Z</time>
      </trkpt>
      <trkpt lat="27.86361" lon="86.799981">
        <ele>3995.6</ele>
        <time>2022-10-23T05:23:58.000Z</time>
      </trkpt>
      <trkpt lat="27.863619" lon="86.8">
        <ele>3995.8</ele>
        <time>2022-10-23T05:24:01.000Z</time>
      </trkpt>
      <trkpt lat="27.863626" lon="86.800019">
        <ele>3995.8</ele>
        <time>2022-10-23T05:24:03.000Z</time>
      </trkpt>
      <trkpt lat="27.863635" lon="86.800038">
        <ele>3996</ele>
        <time>2022-10-23T05:24:06.000Z</time>
      </trkpt>
      <trkpt lat="27.863645" lon="86.800058">
        <ele>3996</ele>
        <time>2022-10-23T05:24:08.000Z</time>
      </trkpt>
      <trkpt lat="27.863645" lon="86.80009">
        <ele>3996.6</ele>
        <time>2022-10-23T05:24:11.000Z</time>
      </trkpt>
      <trkpt lat="27.863664" lon="86.800102">
        <ele>3996.8</ele>
        <time>2022-10-23T05:24:15.000Z</time>
      </trkpt>
      <trkpt lat="27.863674" lon="86.800128">
        <ele>3996.6</ele>
        <time>2022-10-23T05:24:18.000Z</time>
      </trkpt>
      <trkpt lat="27.863677" lon="86.800154">
        <ele>3996.2</ele>
        <time>2022-10-23T05:24:21.000Z</time>
      </trkpt>
      <trkpt lat="27.86368" lon="86.800179">
        <ele>3996</ele>
        <time>2022-10-23T05:24:23.000Z</time>
      </trkpt>
      <trkpt lat="27.863686" lon="86.800198">
        <ele>3995.8</ele>
        <time>2022-10-23T05:24:25.000Z</time>
      </trkpt>
      <trkpt lat="27.863696" lon="86.800224">
        <ele>3995.4</ele>
        <time>2022-10-23T05:24:27.000Z</time>
      </trkpt>
      <trkpt lat="27.863702" lon="86.80025">
        <ele>3995.2</ele>
        <time>2022-10-23T05:24:29.000Z</time>
      </trkpt>
      <trkpt lat="27.863712" lon="86.800275">
        <ele>3995</ele>
        <time>2022-10-23T05:24:32.000Z</time>
      </trkpt>
      <trkpt lat="27.863715" lon="86.800301">
        <ele>3995.2</ele>
        <time>2022-10-23T05:24:34.000Z</time>
      </trkpt>
      <trkpt lat="27.863722" lon="86.800326">
        <ele>3995.2</ele>
        <time>2022-10-23T05:24:36.000Z</time>
      </trkpt>
      <trkpt lat="27.863728" lon="86.800346">
        <ele>3995.4</ele>
        <time>2022-10-23T05:24:39.000Z</time>
      </trkpt>
      <trkpt lat="27.863731" lon="86.800371">
        <ele>3995.4</ele>
        <time>2022-10-23T05:24:41.000Z</time>
      </trkpt>
      <trkpt lat="27.863744" lon="86.800397">
        <ele>3995.4</ele>
        <time>2022-10-23T05:25:07.000Z</time>
      </trkpt>
      <trkpt lat="27.863754" lon="86.800416">
        <ele>3995.6</ele>
        <time>2022-10-23T05:25:08.000Z</time>
      </trkpt>
      <trkpt lat="27.863773" lon="86.800435">
        <ele>3995.6</ele>
        <time>2022-10-23T05:25:10.000Z</time>
      </trkpt>
      <trkpt lat="27.863786" lon="86.800454">
        <ele>3995.6</ele>
        <time>2022-10-23T05:25:12.000Z</time>
      </trkpt>
      <trkpt lat="27.863808" lon="86.800474">
        <ele>3996.2</ele>
        <time>2022-10-23T05:25:14.000Z</time>
      </trkpt>
      <trkpt lat="27.863827" lon="86.800493">
        <ele>3996.2</ele>
        <time>2022-10-23T05:25:16.000Z</time>
      </trkpt>
      <trkpt lat="27.863843" lon="86.800512">
        <ele>3997</ele>
        <time>2022-10-23T05:25:19.000Z</time>
      </trkpt>
      <trkpt lat="27.863846" lon="86.800538">
        <ele>3997</ele>
        <time>2022-10-23T05:25:21.000Z</time>
      </trkpt>
      <trkpt lat="27.863859" lon="86.800557">
        <ele>3997.2</ele>
        <time>2022-10-23T05:25:24.000Z</time>
      </trkpt>
      <trkpt lat="27.863866" lon="86.800576">
        <ele>3997.2</ele>
        <time>2022-10-23T05:25:26.000Z</time>
      </trkpt>
      <trkpt lat="27.863885" lon="86.800589">
        <ele>3997.4</ele>
        <time>2022-10-23T05:25:30.000Z</time>
      </trkpt>
      <trkpt lat="27.863894" lon="86.800608">
        <ele>3997.4</ele>
        <time>2022-10-23T05:25:32.000Z</time>
      </trkpt>
      <trkpt lat="27.863907" lon="86.800627">
        <ele>3997.2</ele>
        <time>2022-10-23T05:25:34.000Z</time>
      </trkpt>
      <trkpt lat="27.863923" lon="86.800653">
        <ele>3996.8</ele>
        <time>2022-10-23T05:25:36.000Z</time>
      </trkpt>
      <trkpt lat="27.863936" lon="86.800685">
        <ele>3997.2</ele>
        <time>2022-10-23T05:25:39.000Z</time>
      </trkpt>
      <trkpt lat="27.863946" lon="86.800704">
        <ele>3998.2</ele>
        <time>2022-10-23T05:25:42.000Z</time>
      </trkpt>
      <trkpt lat="27.863952" lon="86.800723">
        <ele>3998.4</ele>
        <time>2022-10-23T05:25:44.000Z</time>
      </trkpt>
      <trkpt lat="27.863974" lon="86.80073">
        <ele>3998.2</ele>
        <time>2022-10-23T05:25:47.000Z</time>
      </trkpt>
      <trkpt lat="27.864" lon="86.800742">
        <ele>3998.4</ele>
        <time>2022-10-23T05:25:50.000Z</time>
      </trkpt>
      <trkpt lat="27.864022" lon="86.800768">
        <ele>3998.2</ele>
        <time>2022-10-23T05:25:53.000Z</time>
      </trkpt>
      <trkpt lat="27.864045" lon="86.800781">
        <ele>3997.8</ele>
        <time>2022-10-23T05:25:56.000Z</time>
      </trkpt>
      <trkpt lat="27.864061" lon="86.800794">
        <ele>3998.4</ele>
        <time>2022-10-23T05:25:59.000Z</time>
      </trkpt>
      <trkpt lat="27.86408" lon="86.800813">
        <ele>3998.8</ele>
        <time>2022-10-23T05:26:03.000Z</time>
      </trkpt>
      <trkpt lat="27.864099" lon="86.800832">
        <ele>3998.6</ele>
        <time>2022-10-23T05:26:07.000Z</time>
      </trkpt>
      <trkpt lat="27.864112" lon="86.800851">
        <ele>3998.6</ele>
        <time>2022-10-23T05:26:09.000Z</time>
      </trkpt>
      <trkpt lat="27.864131" lon="86.800864">
        <ele>3999.4</ele>
        <time>2022-10-23T05:26:13.000Z</time>
      </trkpt>
      <trkpt lat="27.86415" lon="86.80087">
        <ele>3999</ele>
        <time>2022-10-23T05:26:15.000Z</time>
      </trkpt>
      <trkpt lat="27.864163" lon="86.80089">
        <ele>3999.2</ele>
        <time>2022-10-23T05:26:18.000Z</time>
      </trkpt>
      <trkpt lat="27.864182" lon="86.800896">
        <ele>3999.2</ele>
        <time>2022-10-23T05:26:21.000Z</time>
      </trkpt>
      <trkpt lat="27.864202" lon="86.800902">
        <ele>3999.8</ele>
        <time>2022-10-23T05:26:24.000Z</time>
      </trkpt>
      <trkpt lat="27.864221" lon="86.800902">
        <ele>3999.8</ele>
        <time>2022-10-23T05:26:26.000Z</time>
      </trkpt>
      <trkpt lat="27.864234" lon="86.800922">
        <ele>4000.4</ele>
        <time>2022-10-23T05:26:28.000Z</time>
      </trkpt>
      <trkpt lat="27.864253" lon="86.800922">
        <ele>4000.2</ele>
        <time>2022-10-23T05:26:49.000Z</time>
      </trkpt>
      <trkpt lat="27.864275" lon="86.800934">
        <ele>4000.4</ele>
        <time>2022-10-23T05:26:51.000Z</time>
      </trkpt>
      <trkpt lat="27.864294" lon="86.800941">
        <ele>4000.6</ele>
        <time>2022-10-23T05:26:53.000Z</time>
      </trkpt>
      <trkpt lat="27.86432" lon="86.800954">
        <ele>4000.6</ele>
        <time>2022-10-23T05:26:55.000Z</time>
      </trkpt>
      <trkpt lat="27.864342" lon="86.800973">
        <ele>4000.6</ele>
        <time>2022-10-23T05:26:57.000Z</time>
      </trkpt>
      <trkpt lat="27.864365" lon="86.800979">
        <ele>4001.4</ele>
        <time>2022-10-23T05:27:00.000Z</time>
      </trkpt>
      <trkpt lat="27.86439" lon="86.800992">
        <ele>4001.6</ele>
        <time>2022-10-23T05:27:03.000Z</time>
      </trkpt>
      <trkpt lat="27.86441" lon="86.801005">
        <ele>4001.8</ele>
        <time>2022-10-23T05:27:06.000Z</time>
      </trkpt>
      <trkpt lat="27.864429" lon="86.801011">
        <ele>4002.8</ele>
        <time>2022-10-23T05:27:09.000Z</time>
      </trkpt>
      <trkpt lat="27.864448" lon="86.801018">
        <ele>4002.6</ele>
        <time>2022-10-23T05:27:12.000Z</time>
      </trkpt>
      <trkpt lat="27.86447" lon="86.801024">
        <ele>4003</ele>
        <time>2022-10-23T05:27:15.000Z</time>
      </trkpt>
      <trkpt lat="27.86449" lon="86.80103">
        <ele>4003.8</ele>
        <time>2022-10-23T05:27:17.000Z</time>
      </trkpt>
      <trkpt lat="27.864509" lon="86.801043">
        <ele>4003.8</ele>
        <time>2022-10-23T05:27:20.000Z</time>
      </trkpt>
      <trkpt lat="27.864528" lon="86.80105">
        <ele>4004</ele>
        <time>2022-10-23T05:27:22.000Z</time>
      </trkpt>
      <trkpt lat="27.864547" lon="86.801056">
        <ele>4003.2</ele>
        <time>2022-10-23T05:27:25.000Z</time>
      </trkpt>
      <trkpt lat="27.86457" lon="86.801056">
        <ele>4003.8</ele>
        <time>2022-10-23T05:27:27.000Z</time>
      </trkpt>
      <trkpt lat="27.864598" lon="86.801069">
        <ele>4003</ele>
        <time>2022-10-23T05:27:30.000Z</time>
      </trkpt>
      <trkpt lat="27.864618" lon="86.801082">
        <ele>4003</ele>
        <time>2022-10-23T05:27:32.000Z</time>
      </trkpt>
      <trkpt lat="27.86463" lon="86.801101">
        <ele>4003.2</ele>
        <time>2022-10-23T05:27:34.000Z</time>
      </trkpt>
      <trkpt lat="27.86464" lon="86.80112">
        <ele>4003</ele>
        <time>2022-10-23T05:27:36.000Z</time>
      </trkpt>
      <trkpt lat="27.864643" lon="86.801146">
        <ele>4002.8</ele>
        <time>2022-10-23T05:27:40.000Z</time>
      </trkpt>
      <trkpt lat="27.86465" lon="86.801165">
        <ele>4002.8</ele>
        <time>2022-10-23T05:27:41.000Z</time>
      </trkpt>
      <trkpt lat="27.864653" lon="86.80119">
        <ele>4002.2</ele>
        <time>2022-10-23T05:27:43.000Z</time>
      </trkpt>
      <trkpt lat="27.864656" lon="86.801216">
        <ele>4002</ele>
        <time>2022-10-23T05:27:45.000Z</time>
      </trkpt>
      <trkpt lat="27.864659" lon="86.801248">
        <ele>4001.2</ele>
        <time>2022-10-23T05:27:47.000Z</time>
      </trkpt>
      <trkpt lat="27.864666" lon="86.801267">
        <ele>4001.4</ele>
        <time>2022-10-23T05:27:51.000Z</time>
      </trkpt>
      <trkpt lat="27.864675" lon="86.801286">
        <ele>4002</ele>
        <time>2022-10-23T05:27:53.000Z</time>
      </trkpt>
      <trkpt lat="27.864701" lon="86.801293">
        <ele>4002.4</ele>
        <time>2022-10-23T05:27:57.000Z</time>
      </trkpt>
      <trkpt lat="27.864726" lon="86.801299">
        <ele>4002.8</ele>
        <time>2022-10-23T05:28:00.000Z</time>
      </trkpt>
      <trkpt lat="27.864746" lon="86.801306">
        <ele>4003</ele>
        <time>2022-10-23T05:28:04.000Z</time>
      </trkpt>
      <trkpt lat="27.864755" lon="86.801325">
        <ele>4002.4</ele>
        <time>2022-10-23T05:28:07.000Z</time>
      </trkpt>
      <trkpt lat="27.864778" lon="86.801331">
        <ele>4002</ele>
        <time>2022-10-23T05:28:11.000Z</time>
      </trkpt>
      <trkpt lat="27.864797" lon="86.80135">
        <ele>4001.2</ele>
        <time>2022-10-23T05:28:15.000Z</time>
      </trkpt>
      <trkpt lat="27.864816" lon="86.80137">
        <ele>4000.6</ele>
        <time>2022-10-23T05:28:18.000Z</time>
      </trkpt>
      <trkpt lat="27.864832" lon="86.801382">
        <ele>3999.4</ele>
        <time>2022-10-23T05:28:21.000Z</time>
      </trkpt>
      <trkpt lat="27.864838" lon="86.801408">
        <ele>3999.2</ele>
        <time>2022-10-23T05:28:24.000Z</time>
      </trkpt>
      <trkpt lat="27.864851" lon="86.801427">
        <ele>3998.6</ele>
        <time>2022-10-23T05:28:27.000Z</time>
      </trkpt>
      <trkpt lat="27.864864" lon="86.801453">
        <ele>3997.8</ele>
        <time>2022-10-23T05:28:30.000Z</time>
      </trkpt>
      <trkpt lat="27.864883" lon="86.801485">
        <ele>3997.6</ele>
        <time>2022-10-23T05:28:33.000Z</time>
      </trkpt>
      <trkpt lat="27.864899" lon="86.801517">
        <ele>3997.4</ele>
        <time>2022-10-23T05:28:36.000Z</time>
      </trkpt>
      <trkpt lat="27.864902" lon="86.801542">
        <ele>3997.4</ele>
        <time>2022-10-23T05:28:38.000Z</time>
      </trkpt>
      <trkpt lat="27.864909" lon="86.801562">
        <ele>3997.4</ele>
        <time>2022-10-23T05:28:40.000Z</time>
      </trkpt>
      <trkpt lat="27.864922" lon="86.801581">
        <ele>3997.6</ele>
        <time>2022-10-23T05:28:42.000Z</time>
      </trkpt>
      <trkpt lat="27.864934" lon="86.801606">
        <ele>3997.8</ele>
        <time>2022-10-23T05:28:44.000Z</time>
      </trkpt>
      <trkpt lat="27.864954" lon="86.801626">
        <ele>3998</ele>
        <time>2022-10-23T05:28:47.000Z</time>
      </trkpt>
      <trkpt lat="27.86497" lon="86.801645">
        <ele>3998.6</ele>
        <time>2022-10-23T05:28:50.000Z</time>
      </trkpt>
      <trkpt lat="27.864982" lon="86.801664">
        <ele>3998.6</ele>
        <time>2022-10-23T05:28:52.000Z</time>
      </trkpt>
      <trkpt lat="27.864989" lon="86.80169">
        <ele>3998.2</ele>
        <time>2022-10-23T05:28:55.000Z</time>
      </trkpt>
      <trkpt lat="27.865008" lon="86.801715">
        <ele>3998</ele>
        <time>2022-10-23T05:28:59.000Z</time>
      </trkpt>
      <trkpt lat="27.86503" lon="86.801722">
        <ele>3998.2</ele>
        <time>2022-10-23T05:29:01.000Z</time>
      </trkpt>
      <trkpt lat="27.865046" lon="86.801734">
        <ele>3998.2</ele>
        <time>2022-10-23T05:29:03.000Z</time>
      </trkpt>
      <trkpt lat="27.865059" lon="86.80176">
        <ele>3998.4</ele>
        <time>2022-10-23T05:29:06.000Z</time>
      </trkpt>
      <trkpt lat="27.865082" lon="86.801773">
        <ele>3999</ele>
        <time>2022-10-23T05:29:10.000Z</time>
      </trkpt>
      <trkpt lat="27.865104" lon="86.801773">
        <ele>3998.8</ele>
        <time>2022-10-23T05:29:13.000Z</time>
      </trkpt>
      <trkpt lat="27.865126" lon="86.801779">
        <ele>3999</ele>
        <time>2022-10-23T05:29:16.000Z</time>
      </trkpt>
      <trkpt lat="27.865142" lon="86.801798">
        <ele>4000.2</ele>
        <time>2022-10-23T05:29:19.000Z</time>
      </trkpt>
      <trkpt lat="27.865158" lon="86.801818">
        <ele>4000.4</ele>
        <time>2022-10-23T05:29:22.000Z</time>
      </trkpt>
      <trkpt lat="27.865171" lon="86.801837">
        <ele>4000.4</ele>
        <time>2022-10-23T05:29:24.000Z</time>
      </trkpt>
      <trkpt lat="27.865187" lon="86.801856">
        <ele>4000.6</ele>
        <time>2022-10-23T05:29:27.000Z</time>
      </trkpt>
      <trkpt lat="27.865206" lon="86.801875">
        <ele>4000.6</ele>
        <time>2022-10-23T05:29:29.000Z</time>
      </trkpt>
      <trkpt lat="27.865226" lon="86.801888">
        <ele>4001</ele>
        <time>2022-10-23T05:29:32.000Z</time>
      </trkpt>
      <trkpt lat="27.865242" lon="86.801901">
        <ele>4001</ele>
        <time>2022-10-23T05:29:34.000Z</time>
      </trkpt>
      <trkpt lat="27.865258" lon="86.80192">
        <ele>4001.2</ele>
        <time>2022-10-23T05:29:37.000Z</time>
      </trkpt>
      <trkpt lat="27.865277" lon="86.801926">
        <ele>4001.2</ele>
        <time>2022-10-23T05:29:40.000Z</time>
      </trkpt>
      <trkpt lat="27.865293" lon="86.801939">
        <ele>4002</ele>
        <time>2022-10-23T05:29:43.000Z</time>
      </trkpt>
      <trkpt lat="27.865309" lon="86.801958">
        <ele>4002.4</ele>
        <time>2022-10-23T05:29:47.000Z</time>
      </trkpt>
      <trkpt lat="27.865331" lon="86.801965">
        <ele>4003.2</ele>
        <time>2022-10-23T05:29:54.000Z</time>
      </trkpt>
      <trkpt lat="27.865347" lon="86.801978">
        <ele>4004.4</ele>
        <time>2022-10-23T05:30:01.000Z</time>
      </trkpt>
      <trkpt lat="27.865357" lon="86.801997">
        <ele>4005.4</ele>
        <time>2022-10-23T05:30:06.000Z</time>
      </trkpt>
      <trkpt lat="27.865373" lon="86.80201">
        <ele>4006.2</ele>
        <time>2022-10-23T05:30:11.000Z</time>
      </trkpt>
      <trkpt lat="27.865395" lon="86.802022">
        <ele>4006.4</ele>
        <time>2022-10-23T05:30:15.000Z</time>
      </trkpt>
      <trkpt lat="27.865411" lon="86.802042">
        <ele>4006.6</ele>
        <time>2022-10-23T05:30:19.000Z</time>
      </trkpt>
      <trkpt lat="27.865424" lon="86.802061">
        <ele>4006.6</ele>
        <time>2022-10-23T05:30:22.000Z</time>
      </trkpt>
      <trkpt lat="27.865443" lon="86.802061">
        <ele>4007</ele>
        <time>2022-10-23T05:30:25.000Z</time>
      </trkpt>
      <trkpt lat="27.865453" lon="86.80208">
        <ele>4007</ele>
        <time>2022-10-23T05:30:29.000Z</time>
      </trkpt>
      <trkpt lat="27.865475" lon="86.802093">
        <ele>4008</ele>
        <time>2022-10-23T05:32:36.000Z</time>
      </trkpt>
      <trkpt lat="27.865501" lon="86.802099">
        <ele>4008.4</ele>
        <time>2022-10-23T05:32:38.000Z</time>
      </trkpt>
      <trkpt lat="27.86552" lon="86.802106">
        <ele>4008.8</ele>
        <time>2022-10-23T05:32:40.000Z</time>
      </trkpt>
      <trkpt lat="27.865539" lon="86.802125">
        <ele>4009.2</ele>
        <time>2022-10-23T05:32:42.000Z</time>
      </trkpt>
      <trkpt lat="27.865558" lon="86.802138">
        <ele>4009.8</ele>
        <time>2022-10-23T05:32:47.000Z</time>
      </trkpt>
      <trkpt lat="27.865581" lon="86.802144">
        <ele>4010.2</ele>
        <time>2022-10-23T05:32:51.000Z</time>
      </trkpt>
      <trkpt lat="27.865603" lon="86.802157">
        <ele>4010.8</ele>
        <time>2022-10-23T05:32:55.000Z</time>
      </trkpt>
      <trkpt lat="27.865622" lon="86.802163">
        <ele>4011.2</ele>
        <time>2022-10-23T05:32:58.000Z</time>
      </trkpt>
      <trkpt lat="27.865645" lon="86.80217">
        <ele>4011.4</ele>
        <time>2022-10-23T05:33:01.000Z</time>
      </trkpt>
      <trkpt lat="27.865664" lon="86.802176">
        <ele>4011.8</ele>
        <time>2022-10-23T05:33:04.000Z</time>
      </trkpt>
      <trkpt lat="27.86569" lon="86.802182">
        <ele>4012.2</ele>
        <time>2022-10-23T05:33:07.000Z</time>
      </trkpt>
      <trkpt lat="27.865709" lon="86.802195">
        <ele>4012.4</ele>
        <time>2022-10-23T05:33:10.000Z</time>
      </trkpt>
      <trkpt lat="27.865731" lon="86.802202">
        <ele>4012.8</ele>
        <time>2022-10-23T05:33:14.000Z</time>
      </trkpt>
      <trkpt lat="27.86575" lon="86.802214">
        <ele>4013.2</ele>
        <time>2022-10-23T05:33:18.000Z</time>
      </trkpt>
      <trkpt lat="27.86577" lon="86.802221">
        <ele>4013.4</ele>
        <time>2022-10-23T05:33:21.000Z</time>
      </trkpt>
      <trkpt lat="27.865789" lon="86.802234">
        <ele>4014.2</ele>
        <time>2022-10-23T05:33:26.000Z</time>
      </trkpt>
      <trkpt lat="27.865805" lon="86.802246">
        <ele>4014.8</ele>
        <time>2022-10-23T05:33:30.000Z</time>
      </trkpt>
      <trkpt lat="27.865821" lon="86.802259">
        <ele>4015.4</ele>
        <time>2022-10-23T05:33:34.000Z</time>
      </trkpt>
      <trkpt lat="27.86583" lon="86.802278">
        <ele>4015.4</ele>
        <time>2022-10-23T05:33:36.000Z</time>
      </trkpt>
      <trkpt lat="27.86585" lon="86.802298">
        <ele>4016.2</ele>
        <time>2022-10-23T05:33:41.000Z</time>
      </trkpt>
      <trkpt lat="27.865856" lon="86.802323">
        <ele>4016.2</ele>
        <time>2022-10-23T05:33:44.000Z</time>
      </trkpt>
      <trkpt lat="27.865869" lon="86.802342">
        <ele>4016.2</ele>
        <time>2022-10-23T05:33:47.000Z</time>
      </trkpt>
      <trkpt lat="27.865878" lon="86.802368">
        <ele>4016.2</ele>
        <time>2022-10-23T05:33:50.000Z</time>
      </trkpt>
      <trkpt lat="27.865891" lon="86.802394">
        <ele>4017</ele>
        <time>2022-10-23T05:33:54.000Z</time>
      </trkpt>
      <trkpt lat="27.865901" lon="86.802419">
        <ele>4017.4</ele>
        <time>2022-10-23T05:33:58.000Z</time>
      </trkpt>
      <trkpt lat="27.86591" lon="86.802438">
        <ele>4017</ele>
        <time>2022-10-23T05:34:01.000Z</time>
      </trkpt>
      <trkpt lat="27.865926" lon="86.802451">
        <ele>4017.6</ele>
        <time>2022-10-23T05:34:05.000Z</time>
      </trkpt>
      <trkpt lat="27.865942" lon="86.80247">
        <ele>4018.6</ele>
        <time>2022-10-23T05:34:09.000Z</time>
      </trkpt>
      <trkpt lat="27.865965" lon="86.802477">
        <ele>4019.6</ele>
        <time>2022-10-23T05:34:14.000Z</time>
      </trkpt>
      <trkpt lat="27.865971" lon="86.802496">
        <ele>4020</ele>
        <time>2022-10-23T05:34:17.000Z</time>
      </trkpt>
      <trkpt lat="27.865981" lon="86.802515">
        <ele>4020.8</ele>
        <time>2022-10-23T05:34:21.000Z</time>
      </trkpt>
      <trkpt lat="27.865997" lon="86.802528">
        <ele>4021.2</ele>
        <time>2022-10-23T05:34:25.000Z</time>
      </trkpt>
      <trkpt lat="27.866019" lon="86.802534">
        <ele>4021.4</ele>
        <time>2022-10-23T05:34:31.000Z</time>
      </trkpt>
      <trkpt lat="27.866038" lon="86.802534">
        <ele>4022</ele>
        <time>2022-10-23T05:34:34.000Z</time>
      </trkpt>
      <trkpt lat="27.866058" lon="86.802554">
        <ele>4022.6</ele>
        <time>2022-10-23T05:34:39.000Z</time>
      </trkpt>
      <trkpt lat="27.866077" lon="86.802566">
        <ele>4022.8</ele>
        <time>2022-10-23T05:34:43.000Z</time>
      </trkpt>
      <trkpt lat="27.866093" lon="86.802592">
        <ele>4023.4</ele>
        <time>2022-10-23T05:34:47.000Z</time>
      </trkpt>
      <trkpt lat="27.866106" lon="86.802611">
        <ele>4023.4</ele>
        <time>2022-10-23T05:34:51.000Z</time>
      </trkpt>
      <trkpt lat="27.866112" lon="86.802637">
        <ele>4023.6</ele>
        <time>2022-10-23T05:34:54.000Z</time>
      </trkpt>
      <trkpt lat="27.866131" lon="86.80265">
        <ele>4024.2</ele>
        <time>2022-10-23T05:34:58.000Z</time>
      </trkpt>
      <trkpt lat="27.866157" lon="86.802682">
        <ele>4025</ele>
        <time>2022-10-23T05:35:03.000Z</time>
      </trkpt>
      <trkpt lat="27.866173" lon="86.802694">
        <ele>4025.2</ele>
        <time>2022-10-23T05:35:06.000Z</time>
      </trkpt>
      <trkpt lat="27.866186" lon="86.802714">
        <ele>4024.6</ele>
        <time>2022-10-23T05:35:08.000Z</time>
      </trkpt>
      <trkpt lat="27.866198" lon="86.802733">
        <ele>4024.4</ele>
        <time>2022-10-23T05:35:11.000Z</time>
      </trkpt>
      <trkpt lat="27.866205" lon="86.802752">
        <ele>4024.4</ele>
        <time>2022-10-23T05:35:12.000Z</time>
      </trkpt>
      <trkpt lat="27.866214" lon="86.802771">
        <ele>4024.2</ele>
        <time>2022-10-23T05:35:15.000Z</time>
      </trkpt>
      <trkpt lat="27.866221" lon="86.80279">
        <ele>4024.2</ele>
        <time>2022-10-23T05:35:17.000Z</time>
      </trkpt>
      <trkpt lat="27.866237" lon="86.80281">
        <ele>4024.2</ele>
        <time>2022-10-23T05:35:19.000Z</time>
      </trkpt>
      <trkpt lat="27.866243" lon="86.802835">
        <ele>4023.8</ele>
        <time>2022-10-23T05:35:21.000Z</time>
      </trkpt>
      <trkpt lat="27.866253" lon="86.802867">
        <ele>4023.6</ele>
        <time>2022-10-23T05:35:24.000Z</time>
      </trkpt>
      <trkpt lat="27.866269" lon="86.80288">
        <ele>4023.8</ele>
        <time>2022-10-23T05:35:26.000Z</time>
      </trkpt>
      <trkpt lat="27.866278" lon="86.802899">
        <ele>4023.6</ele>
        <time>2022-10-23T05:35:29.000Z</time>
      </trkpt>
      <trkpt lat="27.866288" lon="86.802925">
        <ele>4023.8</ele>
        <time>2022-10-23T05:35:31.000Z</time>
      </trkpt>
      <trkpt lat="27.866301" lon="86.80295">
        <ele>4023.8</ele>
        <time>2022-10-23T05:35:34.000Z</time>
      </trkpt>
      <trkpt lat="27.866317" lon="86.802963">
        <ele>4024</ele>
        <time>2022-10-23T05:35:38.000Z</time>
      </trkpt>
      <trkpt lat="27.866336" lon="86.802989">
        <ele>4024.6</ele>
        <time>2022-10-23T05:35:42.000Z</time>
      </trkpt>
      <trkpt lat="27.866358" lon="86.802989">
        <ele>4024.8</ele>
        <time>2022-10-23T05:35:45.000Z</time>
      </trkpt>
      <trkpt lat="27.866374" lon="86.802976">
        <ele>4025.2</ele>
        <time>2022-10-23T05:35:49.000Z</time>
      </trkpt>
      <trkpt lat="27.86639" lon="86.802989">
        <ele>4026.2</ele>
        <time>2022-10-23T05:36:04.000Z</time>
      </trkpt>
      <trkpt lat="27.866406" lon="86.803002">
        <ele>4027.2</ele>
        <time>2022-10-23T05:36:12.000Z</time>
      </trkpt>
      <trkpt lat="27.866416" lon="86.803027">
        <ele>4027.4</ele>
        <time>2022-10-23T05:36:17.000Z</time>
      </trkpt>
      <trkpt lat="27.866432" lon="86.803046">
        <ele>4028.6</ele>
        <time>2022-10-23T05:36:22.000Z</time>
      </trkpt>
      <trkpt lat="27.866438" lon="86.803066">
        <ele>4028.4</ele>
        <time>2022-10-23T05:36:24.000Z</time>
      </trkpt>
      <trkpt lat="27.866454" lon="86.803085">
        <ele>4029.2</ele>
        <time>2022-10-23T05:36:28.000Z</time>
      </trkpt>
      <trkpt lat="27.866474" lon="86.80311">
        <ele>4029</ele>
        <time>2022-10-23T05:36:33.000Z</time>
      </trkpt>
      <trkpt lat="27.866493" lon="86.80313">
        <ele>4030.2</ele>
        <time>2022-10-23T05:36:38.000Z</time>
      </trkpt>
      <trkpt lat="27.866509" lon="86.803149">
        <ele>4030.6</ele>
        <time>2022-10-23T05:36:42.000Z</time>
      </trkpt>
      <trkpt lat="27.866518" lon="86.803168">
        <ele>4031.2</ele>
        <time>2022-10-23T05:36:46.000Z</time>
      </trkpt>
      <trkpt lat="27.866538" lon="86.803174">
        <ele>4031.6</ele>
        <time>2022-10-23T05:36:50.000Z</time>
      </trkpt>
      <trkpt lat="27.866547" lon="86.803194">
        <ele>4032.2</ele>
        <time>2022-10-23T05:36:52.000Z</time>
      </trkpt>
      <trkpt lat="27.866563" lon="86.803206">
        <ele>4032.4</ele>
        <time>2022-10-23T05:36:55.000Z</time>
      </trkpt>
      <trkpt lat="27.866582" lon="86.803226">
        <ele>4033.4</ele>
        <time>2022-10-23T05:37:00.000Z</time>
      </trkpt>
      <trkpt lat="27.866602" lon="86.803232">
        <ele>4033.6</ele>
        <time>2022-10-23T05:37:03.000Z</time>
      </trkpt>
      <trkpt lat="27.866614" lon="86.803251">
        <ele>4034.4</ele>
        <time>2022-10-23T05:37:08.000Z</time>
      </trkpt>
      <trkpt lat="27.866634" lon="86.803264">
        <ele>4034.8</ele>
        <time>2022-10-23T05:37:12.000Z</time>
      </trkpt>
      <trkpt lat="27.866653" lon="86.80327">
        <ele>4035.4</ele>
        <time>2022-10-23T05:37:16.000Z</time>
      </trkpt>
      <trkpt lat="27.866666" lon="86.80329">
        <ele>4036</ele>
        <time>2022-10-23T05:37:20.000Z</time>
      </trkpt>
      <trkpt lat="27.866675" lon="86.803309">
        <ele>4036.6</ele>
        <time>2022-10-23T05:37:22.000Z</time>
      </trkpt>
      <trkpt lat="27.866685" lon="86.803328">
        <ele>4036.4</ele>
        <time>2022-10-23T05:37:26.000Z</time>
      </trkpt>
      <trkpt lat="27.866694" lon="86.803347">
        <ele>4036.8</ele>
        <time>2022-10-23T05:37:28.000Z</time>
      </trkpt>
      <trkpt lat="27.86671" lon="86.80336">
        <ele>4036.8</ele>
        <time>2022-10-23T05:37:31.000Z</time>
      </trkpt>
      <trkpt lat="27.866726" lon="86.803386">
        <ele>4037.2</ele>
        <time>2022-10-23T05:37:34.000Z</time>
      </trkpt>
      <trkpt lat="27.866742" lon="86.803398">
        <ele>4038</ele>
        <time>2022-10-23T05:37:37.000Z</time>
      </trkpt>
      <trkpt lat="27.866765" lon="86.803411">
        <ele>4038</ele>
        <time>2022-10-23T05:37:41.000Z</time>
      </trkpt>
      <trkpt lat="27.866781" lon="86.803424">
        <ele>4038.2</ele>
        <time>2022-10-23T05:37:44.000Z</time>
      </trkpt>
      <trkpt lat="27.866803" lon="86.803437">
        <ele>4038.6</ele>
        <time>2022-10-23T05:37:48.000Z</time>
      </trkpt>
      <trkpt lat="27.866822" lon="86.80345">
        <ele>4038.8</ele>
        <time>2022-10-23T05:37:52.000Z</time>
      </trkpt>
      <trkpt lat="27.866832" lon="86.803469">
        <ele>4039.4</ele>
        <time>2022-10-23T05:37:54.000Z</time>
      </trkpt>
      <trkpt lat="27.866851" lon="86.803488">
        <ele>4039.8</ele>
        <time>2022-10-23T05:37:59.000Z</time>
      </trkpt>
      <trkpt lat="27.866858" lon="86.803507">
        <ele>4040.2</ele>
        <time>2022-10-23T05:38:01.000Z</time>
      </trkpt>
      <trkpt lat="27.86687" lon="86.803526">
        <ele>4040.6</ele>
        <time>2022-10-23T05:38:04.000Z</time>
      </trkpt>
      <trkpt lat="27.866874" lon="86.803552">
        <ele>4040.8</ele>
        <time>2022-10-23T05:38:07.000Z</time>
      </trkpt>
      <trkpt lat="27.866883" lon="86.803571">
        <ele>4040.8</ele>
        <time>2022-10-23T05:38:10.000Z</time>
      </trkpt>
      <trkpt lat="27.86689" lon="86.80359">
        <ele>4041</ele>
        <time>2022-10-23T05:38:13.000Z</time>
      </trkpt>
      <trkpt lat="27.866896" lon="86.80361">
        <ele>4041</ele>
        <time>2022-10-23T05:38:16.000Z</time>
      </trkpt>
      <trkpt lat="27.866902" lon="86.803629">
        <ele>4041.4</ele>
        <time>2022-10-23T05:38:18.000Z</time>
      </trkpt>
      <trkpt lat="27.866909" lon="86.803654">
        <ele>4042</ele>
        <time>2022-10-23T05:38:22.000Z</time>
      </trkpt>
      <trkpt lat="27.866925" lon="86.803674">
        <ele>4041.6</ele>
        <time>2022-10-23T05:38:26.000Z</time>
      </trkpt>
      <trkpt lat="27.866938" lon="86.803706">
        <ele>4041.8</ele>
        <time>2022-10-23T05:38:29.000Z</time>
      </trkpt>
      <trkpt lat="27.86695" lon="86.803725">
        <ele>4041.8</ele>
        <time>2022-10-23T05:38:32.000Z</time>
      </trkpt>
      <trkpt lat="27.86696" lon="86.803744">
        <ele>4042</ele>
        <time>2022-10-23T05:38:34.000Z</time>
      </trkpt>
      <trkpt lat="27.866976" lon="86.803763">
        <ele>4043.4</ele>
        <time>2022-10-23T05:38:41.000Z</time>
      </trkpt>
      <trkpt lat="27.866989" lon="86.803782">
        <ele>4043</ele>
        <time>2022-10-23T05:38:44.000Z</time>
      </trkpt>
      <trkpt lat="27.867005" lon="86.803795">
        <ele>4042.8</ele>
        <time>2022-10-23T05:38:47.000Z</time>
      </trkpt>
      <trkpt lat="27.867021" lon="86.803821">
        <ele>4042.8</ele>
        <time>2022-10-23T05:38:50.000Z</time>
      </trkpt>
      <trkpt lat="27.867037" lon="86.803834">
        <ele>4042.8</ele>
        <time>2022-10-23T05:38:53.000Z</time>
      </trkpt>
      <trkpt lat="27.86705" lon="86.803853">
        <ele>4043.6</ele>
        <time>2022-10-23T05:38:56.000Z</time>
      </trkpt>
      <trkpt lat="27.867056" lon="86.803878">
        <ele>4043.6</ele>
        <time>2022-10-23T05:38:58.000Z</time>
      </trkpt>
      <trkpt lat="27.867056" lon="86.803904">
        <ele>4044</ele>
        <time>2022-10-23T05:39:01.000Z</time>
      </trkpt>
      <trkpt lat="27.867062" lon="86.80393">
        <ele>4044.6</ele>
        <time>2022-10-23T05:39:06.000Z</time>
      </trkpt>
      <trkpt lat="27.867069" lon="86.803949">
        <ele>4045</ele>
        <time>2022-10-23T05:39:08.000Z</time>
      </trkpt>
      <trkpt lat="27.867078" lon="86.803968">
        <ele>4045</ele>
        <time>2022-10-23T05:39:11.000Z</time>
      </trkpt>
      <trkpt lat="27.867082" lon="86.803994">
        <ele>4045</ele>
        <time>2022-10-23T05:39:13.000Z</time>
      </trkpt>
      <trkpt lat="27.867085" lon="86.804019">
        <ele>4045.4</ele>
        <time>2022-10-23T05:39:16.000Z</time>
      </trkpt>
      <trkpt lat="27.867091" lon="86.804045">
        <ele>4045.8</ele>
        <time>2022-10-23T05:39:20.000Z</time>
      </trkpt>
      <trkpt lat="27.867098" lon="86.80407">
        <ele>4046</ele>
        <time>2022-10-23T05:39:23.000Z</time>
      </trkpt>
      <trkpt lat="27.867117" lon="86.80409">
        <ele>4046.6</ele>
        <time>2022-10-23T05:39:28.000Z</time>
      </trkpt>
      <trkpt lat="27.867123" lon="86.804109">
        <ele>4047.6</ele>
        <time>2022-10-23T05:39:31.000Z</time>
      </trkpt>
      <trkpt lat="27.867139" lon="86.804122">
        <ele>4047.8</ele>
        <time>2022-10-23T05:39:34.000Z</time>
      </trkpt>
      <trkpt lat="27.867152" lon="86.804141">
        <ele>4048.4</ele>
        <time>2022-10-23T05:39:38.000Z</time>
      </trkpt>
      <trkpt lat="27.867162" lon="86.80416">
        <ele>4048.8</ele>
        <time>2022-10-23T05:39:42.000Z</time>
      </trkpt>
      <trkpt lat="27.867168" lon="86.804179">
        <ele>4049</ele>
        <time>2022-10-23T05:39:46.000Z</time>
      </trkpt>
      <trkpt lat="27.867184" lon="86.804192">
        <ele>4049.6</ele>
        <time>2022-10-23T05:39:49.000Z</time>
      </trkpt>
      <trkpt lat="27.867194" lon="86.804218">
        <ele>4050</ele>
        <time>2022-10-23T05:39:54.000Z</time>
      </trkpt>
      <trkpt lat="27.867203" lon="86.804237">
        <ele>4051</ele>
        <time>2022-10-23T05:40:03.000Z</time>
      </trkpt>
      <trkpt lat="27.867219" lon="86.804262">
        <ele>4052.2</ele>
        <time>2022-10-23T05:40:10.000Z</time>
      </trkpt>
      <trkpt lat="27.867232" lon="86.804282">
        <ele>4053.2</ele>
        <time>2022-10-23T05:40:15.000Z</time>
      </trkpt>
      <trkpt lat="27.867238" lon="86.804307">
        <ele>4053.8</ele>
        <time>2022-10-23T05:40:23.000Z</time>
      </trkpt>
      <trkpt lat="27.867254" lon="86.80432">
        <ele>4055.6</ele>
        <time>2022-10-23T05:40:33.000Z</time>
      </trkpt>
      <trkpt lat="27.86727" lon="86.804339">
        <ele>4056.2</ele>
        <time>2022-10-23T05:40:39.000Z</time>
      </trkpt>
      <trkpt lat="27.86729" lon="86.804346">
        <ele>4056.8</ele>
        <time>2022-10-23T05:40:45.000Z</time>
      </trkpt>
      <trkpt lat="27.867309" lon="86.804358">
        <ele>4057.6</ele>
        <time>2022-10-23T05:40:50.000Z</time>
      </trkpt>
      <trkpt lat="27.867322" lon="86.804378">
        <ele>4057.8</ele>
        <time>2022-10-23T05:40:56.000Z</time>
      </trkpt>
      <trkpt lat="27.867338" lon="86.80439">
        <ele>4058.2</ele>
        <time>2022-10-23T05:41:00.000Z</time>
      </trkpt>
      <trkpt lat="27.867274" lon="86.804429">
        <ele>4060.6</ele>
        <time>2022-10-23T05:51:04.000Z</time>
      </trkpt>
      <trkpt lat="27.86729" lon="86.804448">
        <ele>4061</ele>
        <time>2022-10-23T05:51:06.000Z</time>
      </trkpt>
      <trkpt lat="27.867312" lon="86.804467">
        <ele>4061.4</ele>
        <time>2022-10-23T05:51:08.000Z</time>
      </trkpt>
      <trkpt lat="27.867331" lon="86.804486">
        <ele>4061.8</ele>
        <time>2022-10-23T05:51:10.000Z</time>
      </trkpt>
      <trkpt lat="27.86735" lon="86.804506">
        <ele>4061.8</ele>
        <time>2022-10-23T05:51:12.000Z</time>
      </trkpt>
      <trkpt lat="27.86737" lon="86.804512">
        <ele>4062</ele>
        <time>2022-10-23T05:51:14.000Z</time>
      </trkpt>
      <trkpt lat="27.867379" lon="86.804538">
        <ele>4062.8</ele>
        <time>2022-10-23T05:51:17.000Z</time>
      </trkpt>
      <trkpt lat="27.867395" lon="86.80455">
        <ele>4062.8</ele>
        <time>2022-10-23T05:51:22.000Z</time>
      </trkpt>
      <trkpt lat="27.867402" lon="86.804576">
        <ele>4063.8</ele>
        <time>2022-10-23T05:51:26.000Z</time>
      </trkpt>
      <trkpt lat="27.867424" lon="86.804589">
        <ele>4063.8</ele>
        <time>2022-10-23T05:51:30.000Z</time>
      </trkpt>
      <trkpt lat="27.86744" lon="86.804602">
        <ele>4064.6</ele>
        <time>2022-10-23T05:51:33.000Z</time>
      </trkpt>
      <trkpt lat="27.867456" lon="86.804627">
        <ele>4064.6</ele>
        <time>2022-10-23T05:51:36.000Z</time>
      </trkpt>
      <trkpt lat="27.867472" lon="86.804646">
        <ele>4064.8</ele>
        <time>2022-10-23T05:51:40.000Z</time>
      </trkpt>
      <trkpt lat="27.867488" lon="86.804666">
        <ele>4065.2</ele>
        <time>2022-10-23T05:51:44.000Z</time>
      </trkpt>
      <trkpt lat="27.867504" lon="86.804678">
        <ele>4066.2</ele>
        <time>2022-10-23T05:51:51.000Z</time>
      </trkpt>
      <trkpt lat="27.867526" lon="86.804685">
        <ele>4066.8</ele>
        <time>2022-10-23T05:51:56.000Z</time>
      </trkpt>
      <trkpt lat="27.867539" lon="86.804704">
        <ele>4066.8</ele>
        <time>2022-10-23T05:51:59.000Z</time>
      </trkpt>
      <trkpt lat="27.867555" lon="86.804717">
        <ele>4067.8</ele>
        <time>2022-10-23T05:52:03.000Z</time>
      </trkpt>
      <trkpt lat="27.867565" lon="86.804736">
        <ele>4067.6</ele>
        <time>2022-10-23T05:52:06.000Z</time>
      </trkpt>
      <trkpt lat="27.867578" lon="86.804755">
        <ele>4068.2</ele>
        <time>2022-10-23T05:52:10.000Z</time>
      </trkpt>
      <trkpt lat="27.867584" lon="86.804781">
        <ele>4068.6</ele>
        <time>2022-10-23T05:52:14.000Z</time>
      </trkpt>
      <trkpt lat="27.867597" lon="86.8048">
        <ele>4068.8</ele>
        <time>2022-10-23T05:52:18.000Z</time>
      </trkpt>
      <trkpt lat="27.867606" lon="86.804819">
        <ele>4069.2</ele>
        <time>2022-10-23T05:52:21.000Z</time>
      </trkpt>
      <trkpt lat="27.867619" lon="86.804838">
        <ele>4069.6</ele>
        <time>2022-10-23T05:52:25.000Z</time>
      </trkpt>
      <trkpt lat="27.867635" lon="86.804858">
        <ele>4070.2</ele>
        <time>2022-10-23T05:52:28.000Z</time>
      </trkpt>
      <trkpt lat="27.867635" lon="86.804883">
        <ele>4070.4</ele>
        <time>2022-10-23T05:52:31.000Z</time>
      </trkpt>
      <trkpt lat="27.867629" lon="86.804902">
        <ele>4070.6</ele>
        <time>2022-10-23T05:52:34.000Z</time>
      </trkpt>
      <trkpt lat="27.867622" lon="86.804934">
        <ele>4070.6</ele>
        <time>2022-10-23T05:52:38.000Z</time>
      </trkpt>
      <trkpt lat="27.867619" lon="86.80496">
        <ele>4071.2</ele>
        <time>2022-10-23T05:52:42.000Z</time>
      </trkpt>
      <trkpt lat="27.867629" lon="86.804986">
        <ele>4071.2</ele>
        <time>2022-10-23T05:52:45.000Z</time>
      </trkpt>
      <trkpt lat="27.867635" lon="86.805005">
        <ele>4071.6</ele>
        <time>2022-10-23T05:52:48.000Z</time>
      </trkpt>
      <trkpt lat="27.867648" lon="86.805024">
        <ele>4072.2</ele>
        <time>2022-10-23T05:52:51.000Z</time>
      </trkpt>
      <trkpt lat="27.867654" lon="86.805043">
        <ele>4071.8</ele>
        <time>2022-10-23T05:52:54.000Z</time>
      </trkpt>
      <trkpt lat="27.867667" lon="86.805062">
        <ele>4072</ele>
        <time>2022-10-23T05:53:00.000Z</time>
      </trkpt>
      <trkpt lat="27.867686" lon="86.805075">
        <ele>4072.6</ele>
        <time>2022-10-23T05:53:05.000Z</time>
      </trkpt>
      <trkpt lat="27.867696" lon="86.805094">
        <ele>4073</ele>
        <time>2022-10-23T05:53:08.000Z</time>
      </trkpt>
      <trkpt lat="27.867715" lon="86.805107">
        <ele>4073.8</ele>
        <time>2022-10-23T05:53:13.000Z</time>
      </trkpt>
      <trkpt lat="27.867728" lon="86.805133">
        <ele>4075</ele>
        <time>2022-10-23T05:53:19.000Z</time>
      </trkpt>
      <trkpt lat="27.867741" lon="86.805152">
        <ele>4075</ele>
        <time>2022-10-23T05:53:26.000Z</time>
      </trkpt>
      <trkpt lat="27.86775" lon="86.805171">
        <ele>4075.6</ele>
        <time>2022-10-23T05:53:30.000Z</time>
      </trkpt>
      <trkpt lat="27.867766" lon="86.805197">
        <ele>4076.4</ele>
        <time>2022-10-23T05:53:39.000Z</time>
      </trkpt>
      <trkpt lat="27.867805" lon="86.80528">
        <ele>4079.2</ele>
        <time>2022-10-23T05:54:32.000Z</time>
      </trkpt>
      <trkpt lat="27.867814" lon="86.805312">
        <ele>4079.2</ele>
        <time>2022-10-23T05:54:35.000Z</time>
      </trkpt>
      <trkpt lat="27.867821" lon="86.805331">
        <ele>4079.4</ele>
        <time>2022-10-23T05:54:36.000Z</time>
      </trkpt>
      <trkpt lat="27.867824" lon="86.805357">
        <ele>4080</ele>
        <time>2022-10-23T05:54:38.000Z</time>
      </trkpt>
      <trkpt lat="27.867834" lon="86.805382">
        <ele>4080.2</ele>
        <time>2022-10-23T05:54:40.000Z</time>
      </trkpt>
      <trkpt lat="27.86784" lon="86.805402">
        <ele>4080.6</ele>
        <time>2022-10-23T05:54:43.000Z</time>
      </trkpt>
      <trkpt lat="27.867846" lon="86.805421">
        <ele>4080.8</ele>
        <time>2022-10-23T05:54:46.000Z</time>
      </trkpt>
      <trkpt lat="27.867837" lon="86.80544">
        <ele>4080.6</ele>
        <time>2022-10-23T05:54:50.000Z</time>
      </trkpt>
      <trkpt lat="27.86784" lon="86.805466">
        <ele>4081.4</ele>
        <time>2022-10-23T05:54:54.000Z</time>
      </trkpt>
      <trkpt lat="27.867843" lon="86.805491">
        <ele>4081.8</ele>
        <time>2022-10-23T05:54:58.000Z</time>
      </trkpt>
      <trkpt lat="27.867827" lon="86.80553">
        <ele>4082.6</ele>
        <time>2022-10-23T05:55:03.000Z</time>
      </trkpt>
      <trkpt lat="27.867818" lon="86.805549">
        <ele>4082.6</ele>
        <time>2022-10-23T05:55:07.000Z</time>
      </trkpt>
      <trkpt lat="27.867808" lon="86.805568">
        <ele>4083</ele>
        <time>2022-10-23T05:55:11.000Z</time>
      </trkpt>
      <trkpt lat="27.867808" lon="86.805594">
        <ele>4083.2</ele>
        <time>2022-10-23T05:55:14.000Z</time>
      </trkpt>
      <trkpt lat="27.867798" lon="86.805613">
        <ele>4083.6</ele>
        <time>2022-10-23T05:55:18.000Z</time>
      </trkpt>
      <trkpt lat="27.867789" lon="86.805632">
        <ele>4083.8</ele>
        <time>2022-10-23T05:55:48.000Z</time>
      </trkpt>
      <trkpt lat="27.867779" lon="86.805664">
        <ele>4084</ele>
        <time>2022-10-23T05:55:50.000Z</time>
      </trkpt>
      <trkpt lat="27.867766" lon="86.805696">
        <ele>4084</ele>
        <time>2022-10-23T05:55:52.000Z</time>
      </trkpt>
      <trkpt lat="27.867757" lon="86.805728">
        <ele>4084.2</ele>
        <time>2022-10-23T05:55:54.000Z</time>
      </trkpt>
      <trkpt lat="27.867754" lon="86.805754">
        <ele>4084.8</ele>
        <time>2022-10-23T05:55:57.000Z</time>
      </trkpt>
      <trkpt lat="27.867766" lon="86.805773">
        <ele>4084.6</ele>
        <time>2022-10-23T05:56:02.000Z</time>
      </trkpt>
      <trkpt lat="27.867773" lon="86.805792">
        <ele>4085.6</ele>
        <time>2022-10-23T05:56:07.000Z</time>
      </trkpt>
      <trkpt lat="27.867795" lon="86.805792">
        <ele>4085.6</ele>
        <time>2022-10-23T05:56:13.000Z</time>
      </trkpt>
      <trkpt lat="27.867805" lon="86.805811">
        <ele>4086</ele>
        <time>2022-10-23T05:56:16.000Z</time>
      </trkpt>
      <trkpt lat="27.867821" lon="86.805824">
        <ele>4086.8</ele>
        <time>2022-10-23T05:56:22.000Z</time>
      </trkpt>
      <trkpt lat="27.867834" lon="86.80585">
        <ele>4088</ele>
        <time>2022-10-23T05:56:28.000Z</time>
      </trkpt>
      <trkpt lat="27.86785" lon="86.805862">
        <ele>4088.6</ele>
        <time>2022-10-23T05:56:34.000Z</time>
      </trkpt>
      <trkpt lat="27.867869" lon="86.805875">
        <ele>4089.2</ele>
        <time>2022-10-23T05:56:41.000Z</time>
      </trkpt>
      <trkpt lat="27.867888" lon="86.805875">
        <ele>4089.8</ele>
        <time>2022-10-23T05:56:46.000Z</time>
      </trkpt>
      <trkpt lat="27.867898" lon="86.805894">
        <ele>4090.2</ele>
        <time>2022-10-23T05:56:50.000Z</time>
      </trkpt>
      <trkpt lat="27.867914" lon="86.805907">
        <ele>4091.4</ele>
        <time>2022-10-23T05:56:57.000Z</time>
      </trkpt>
      <trkpt lat="27.867926" lon="86.805926">
        <ele>4091.2</ele>
        <time>2022-10-23T05:57:01.000Z</time>
      </trkpt>
      <trkpt lat="27.867942" lon="86.805939">
        <ele>4092.4</ele>
        <time>2022-10-23T05:57:09.000Z</time>
      </trkpt>
      <trkpt lat="27.867942" lon="86.805965">
        <ele>4093</ele>
        <time>2022-10-23T05:57:21.000Z</time>
      </trkpt>
      <trkpt lat="27.867949" lon="86.80599">
        <ele>4094.4</ele>
        <time>2022-10-23T05:57:27.000Z</time>
      </trkpt>
      <trkpt lat="27.867955" lon="86.80601">
        <ele>4094.4</ele>
        <time>2022-10-23T05:57:29.000Z</time>
      </trkpt>
      <trkpt lat="27.867936" lon="86.806029">
        <ele>4095.4</ele>
        <time>2022-10-23T05:57:33.000Z</time>
      </trkpt>
      <trkpt lat="27.867926" lon="86.806048">
        <ele>4096</ele>
        <time>2022-10-23T05:57:37.000Z</time>
      </trkpt>
      <trkpt lat="27.867917" lon="86.806067">
        <ele>4096</ele>
        <time>2022-10-23T05:57:40.000Z</time>
      </trkpt>
      <trkpt lat="27.86792" lon="86.806093">
        <ele>4096.6</ele>
        <time>2022-10-23T05:57:44.000Z</time>
      </trkpt>
      <trkpt lat="27.867914" lon="86.806125">
        <ele>4097</ele>
        <time>2022-10-23T05:57:47.000Z</time>
      </trkpt>
      <trkpt lat="27.867917" lon="86.80615">
        <ele>4098</ele>
        <time>2022-10-23T05:57:53.000Z</time>
      </trkpt>
      <trkpt lat="27.867926" lon="86.80617">
        <ele>4098</ele>
        <time>2022-10-23T05:57:57.000Z</time>
      </trkpt>
      <trkpt lat="27.867936" lon="86.806189">
        <ele>4098.6</ele>
        <time>2022-10-23T05:58:00.000Z</time>
      </trkpt>
      <trkpt lat="27.867942" lon="86.806208">
        <ele>4098.8</ele>
        <time>2022-10-23T05:58:02.000Z</time>
      </trkpt>
      <trkpt lat="27.867942" lon="86.806234">
        <ele>4099.2</ele>
        <time>2022-10-23T05:58:07.000Z</time>
      </trkpt>
      <trkpt lat="27.867946" lon="86.806259">
        <ele>4100</ele>
        <time>2022-10-23T05:58:10.000Z</time>
      </trkpt>
      <trkpt lat="27.867946" lon="86.806285">
        <ele>4100</ele>
        <time>2022-10-23T05:58:13.000Z</time>
      </trkpt>
      <trkpt lat="27.867942" lon="86.806323">
        <ele>4100.8</ele>
        <time>2022-10-23T05:58:17.000Z</time>
      </trkpt>
      <trkpt lat="27.867946" lon="86.806349">
        <ele>4100.2</ele>
        <time>2022-10-23T05:58:21.000Z</time>
      </trkpt>
      <trkpt lat="27.867946" lon="86.806374">
        <ele>4099.8</ele>
        <time>2022-10-23T05:58:23.000Z</time>
      </trkpt>
      <trkpt lat="27.867939" lon="86.806394">
        <ele>4100.2</ele>
        <time>2022-10-23T05:58:26.000Z</time>
      </trkpt>
      <trkpt lat="27.867942" lon="86.806419">
        <ele>4100.8</ele>
        <time>2022-10-23T05:58:28.000Z</time>
      </trkpt>
      <trkpt lat="27.867939" lon="86.806445">
        <ele>4100.4</ele>
        <time>2022-10-23T05:58:31.000Z</time>
      </trkpt>
      <trkpt lat="27.867942" lon="86.80647">
        <ele>4102</ele>
        <time>2022-10-23T05:58:56.000Z</time>
      </trkpt>
      <trkpt lat="27.867958" lon="86.80649">
        <ele>4102</ele>
        <time>2022-10-23T05:58:58.000Z</time>
      </trkpt>
      <trkpt lat="27.867968" lon="86.806509">
        <ele>4103.2</ele>
        <time>2022-10-23T05:59:00.000Z</time>
      </trkpt>
      <trkpt lat="27.867974" lon="86.806528">
        <ele>4103.2</ele>
        <time>2022-10-23T05:59:01.000Z</time>
      </trkpt>
      <trkpt lat="27.867984" lon="86.806566">
        <ele>4102.6</ele>
        <time>2022-10-23T05:59:03.000Z</time>
      </trkpt>
      <trkpt lat="27.867981" lon="86.806605">
        <ele>4102.4</ele>
        <time>2022-10-23T05:59:05.000Z</time>
      </trkpt>
      <trkpt lat="27.867962" lon="86.806624">
        <ele>4102.4</ele>
        <time>2022-10-23T05:59:07.000Z</time>
      </trkpt>
      <trkpt lat="27.867955" lon="86.806643">
        <ele>4102.6</ele>
        <time>2022-10-23T05:59:09.000Z</time>
      </trkpt>
      <trkpt lat="27.867974" lon="86.806656">
        <ele>4102.4</ele>
        <time>2022-10-23T05:59:12.000Z</time>
      </trkpt>
      <trkpt lat="27.86799" lon="86.806669">
        <ele>4102.2</ele>
        <time>2022-10-23T05:59:14.000Z</time>
      </trkpt>
      <trkpt lat="27.868006" lon="86.806688">
        <ele>4102.4</ele>
        <time>2022-10-23T05:59:16.000Z</time>
      </trkpt>
      <trkpt lat="27.868026" lon="86.806701">
        <ele>4102.2</ele>
        <time>2022-10-23T05:59:18.000Z</time>
      </trkpt>
      <trkpt lat="27.868045" lon="86.806701">
        <ele>4102.2</ele>
        <time>2022-10-23T05:59:20.000Z</time>
      </trkpt>
      <trkpt lat="27.86807" lon="86.806707">
        <ele>4101.8</ele>
        <time>2022-10-23T05:59:22.000Z</time>
      </trkpt>
      <trkpt lat="27.868086" lon="86.80672">
        <ele>4102.2</ele>
        <time>2022-10-23T05:59:24.000Z</time>
      </trkpt>
      <trkpt lat="27.868112" lon="86.806733">
        <ele>4101.6</ele>
        <time>2022-10-23T05:59:27.000Z</time>
      </trkpt>
      <trkpt lat="27.868115" lon="86.806771">
        <ele>4101.4</ele>
        <time>2022-10-23T05:59:30.000Z</time>
      </trkpt>
      <trkpt lat="27.868112" lon="86.80681">
        <ele>4101.2</ele>
        <time>2022-10-23T05:59:33.000Z</time>
      </trkpt>
      <trkpt lat="27.868099" lon="86.806829">
        <ele>4101.4</ele>
        <time>2022-10-23T05:59:36.000Z</time>
      </trkpt>
      <trkpt lat="27.86809" lon="86.806854">
        <ele>4101.6</ele>
        <time>2022-10-23T05:59:38.000Z</time>
      </trkpt>
      <trkpt lat="27.868083" lon="86.80688">
        <ele>4101.2</ele>
        <time>2022-10-23T05:59:40.000Z</time>
      </trkpt>
      <trkpt lat="27.868074" lon="86.806899">
        <ele>4101.4</ele>
        <time>2022-10-23T05:59:42.000Z</time>
      </trkpt>
      <trkpt lat="27.868074" lon="86.806925">
        <ele>4101.4</ele>
        <time>2022-10-23T05:59:44.000Z</time>
      </trkpt>
      <trkpt lat="27.86807" lon="86.80695">
        <ele>4101.4</ele>
        <time>2022-10-23T05:59:47.000Z</time>
      </trkpt>
      <trkpt lat="27.868074" lon="86.806976">
        <ele>4100.8</ele>
        <time>2022-10-23T05:59:50.000Z</time>
      </trkpt>
      <trkpt lat="27.86808" lon="86.807002">
        <ele>4101.2</ele>
        <time>2022-10-23T05:59:53.000Z</time>
      </trkpt>
      <trkpt lat="27.868083" lon="86.807027">
        <ele>4101.4</ele>
        <time>2022-10-23T05:59:55.000Z</time>
      </trkpt>
      <trkpt lat="27.868086" lon="86.807053">
        <ele>4101.2</ele>
        <time>2022-10-23T05:59:57.000Z</time>
      </trkpt>
      <trkpt lat="27.86808" lon="86.807085">
        <ele>4101.6</ele>
        <time>2022-10-23T05:59:59.000Z</time>
      </trkpt>
      <trkpt lat="27.868074" lon="86.807117">
        <ele>4102.2</ele>
        <time>2022-10-23T06:00:02.000Z</time>
      </trkpt>
      <trkpt lat="27.868064" lon="86.807142">
        <ele>4101.8</ele>
        <time>2022-10-23T06:00:05.000Z</time>
      </trkpt>
      <trkpt lat="27.868064" lon="86.807168">
        <ele>4101.6</ele>
        <time>2022-10-23T06:00:07.000Z</time>
      </trkpt>
      <trkpt lat="27.868067" lon="86.807206">
        <ele>4101.6</ele>
        <time>2022-10-23T06:00:11.000Z</time>
      </trkpt>
      <trkpt lat="27.868077" lon="86.807226">
        <ele>4101.2</ele>
        <time>2022-10-23T06:00:15.000Z</time>
      </trkpt>
      <trkpt lat="27.868077" lon="86.807258">
        <ele>4101.8</ele>
        <time>2022-10-23T06:00:18.000Z</time>
      </trkpt>
      <trkpt lat="27.868067" lon="86.807283">
        <ele>4102</ele>
        <time>2022-10-23T06:00:21.000Z</time>
      </trkpt>
      <trkpt lat="27.868064" lon="86.807315">
        <ele>4102</ele>
        <time>2022-10-23T06:00:25.000Z</time>
      </trkpt>
      <trkpt lat="27.868064" lon="86.807341">
        <ele>4101.6</ele>
        <time>2022-10-23T06:00:28.000Z</time>
      </trkpt>
      <trkpt lat="27.868064" lon="86.807366">
        <ele>4101.6</ele>
        <time>2022-10-23T06:00:30.000Z</time>
      </trkpt>
      <trkpt lat="27.868064" lon="86.807398">
        <ele>4102.4</ele>
        <time>2022-10-23T06:00:33.000Z</time>
      </trkpt>
      <trkpt lat="27.868064" lon="86.807437">
        <ele>4102.8</ele>
        <time>2022-10-23T06:00:36.000Z</time>
      </trkpt>
      <trkpt lat="27.868067" lon="86.807462">
        <ele>4102.6</ele>
        <time>2022-10-23T06:00:40.000Z</time>
      </trkpt>
      <trkpt lat="27.868074" lon="86.807488">
        <ele>4102.8</ele>
        <time>2022-10-23T06:00:43.000Z</time>
      </trkpt>
      <trkpt lat="27.868086" lon="86.807507">
        <ele>4103.2</ele>
        <time>2022-10-23T06:00:46.000Z</time>
      </trkpt>
      <trkpt lat="27.868093" lon="86.807533">
        <ele>4103.2</ele>
        <time>2022-10-23T06:00:48.000Z</time>
      </trkpt>
      <trkpt lat="27.868112" lon="86.807546">
        <ele>4102.8</ele>
        <time>2022-10-23T06:00:51.000Z</time>
      </trkpt>
      <trkpt lat="27.868131" lon="86.807565">
        <ele>4102.8</ele>
        <time>2022-10-23T06:00:54.000Z</time>
      </trkpt>
      <trkpt lat="27.868144" lon="86.807584">
        <ele>4102.4</ele>
        <time>2022-10-23T06:00:57.000Z</time>
      </trkpt>
      <trkpt lat="27.86815" lon="86.807603">
        <ele>4102.8</ele>
        <time>2022-10-23T06:00:59.000Z</time>
      </trkpt>
      <trkpt lat="27.868154" lon="86.807635">
        <ele>4102.6</ele>
        <time>2022-10-23T06:01:02.000Z</time>
      </trkpt>
      <trkpt lat="27.868157" lon="86.807674">
        <ele>4102.6</ele>
        <time>2022-10-23T06:01:05.000Z</time>
      </trkpt>
      <trkpt lat="27.86815" lon="86.807699">
        <ele>4103.4</ele>
        <time>2022-10-23T06:01:08.000Z</time>
      </trkpt>
      <trkpt lat="27.86815" lon="86.807725">
        <ele>4104</ele>
        <time>2022-10-23T06:01:10.000Z</time>
      </trkpt>
      <trkpt lat="27.868157" lon="86.807757">
        <ele>4103.4</ele>
        <time>2022-10-23T06:01:13.000Z</time>
      </trkpt>
      <trkpt lat="27.868166" lon="86.807782">
        <ele>4103.2</ele>
        <time>2022-10-23T06:01:16.000Z</time>
      </trkpt>
      <trkpt lat="27.868176" lon="86.807802">
        <ele>4103.2</ele>
        <time>2022-10-23T06:01:18.000Z</time>
      </trkpt>
      <trkpt lat="27.868192" lon="86.807821">
        <ele>4102.4</ele>
        <time>2022-10-23T06:01:21.000Z</time>
      </trkpt>
      <trkpt lat="27.868205" lon="86.807846">
        <ele>4102</ele>
        <time>2022-10-23T06:01:23.000Z</time>
      </trkpt>
      <trkpt lat="27.868221" lon="86.807872">
        <ele>4102.4</ele>
        <time>2022-10-23T06:01:26.000Z</time>
      </trkpt>
      <trkpt lat="27.86823" lon="86.807891">
        <ele>4102.4</ele>
        <time>2022-10-23T06:01:28.000Z</time>
      </trkpt>
      <trkpt lat="27.86824" lon="86.807917">
        <ele>4101.8</ele>
        <time>2022-10-23T06:01:31.000Z</time>
      </trkpt>
      <trkpt lat="27.868253" lon="86.807936">
        <ele>4102.2</ele>
        <time>2022-10-23T06:01:33.000Z</time>
      </trkpt>
      <trkpt lat="27.868259" lon="86.807955">
        <ele>4102.2</ele>
        <time>2022-10-23T06:01:35.000Z</time>
      </trkpt>
      <trkpt lat="27.868272" lon="86.807974">
        <ele>4102</ele>
        <time>2022-10-23T06:01:37.000Z</time>
      </trkpt>
      <trkpt lat="27.868272" lon="86.808">
        <ele>4101.8</ele>
        <time>2022-10-23T06:01:39.000Z</time>
      </trkpt>
      <trkpt lat="27.868282" lon="86.808032">
        <ele>4101.8</ele>
        <time>2022-10-23T06:01:42.000Z</time>
      </trkpt>
      <trkpt lat="27.868288" lon="86.808051">
        <ele>4101.8</ele>
        <time>2022-10-23T06:01:44.000Z</time>
      </trkpt>
      <trkpt lat="27.868294" lon="86.80807">
        <ele>4101.4</ele>
        <time>2022-10-23T06:01:46.000Z</time>
      </trkpt>
      <trkpt lat="27.868304" lon="86.80809">
        <ele>4101.4</ele>
        <time>2022-10-23T06:01:48.000Z</time>
      </trkpt>
      <trkpt lat="27.86831" lon="86.808115">
        <ele>4101.6</ele>
        <time>2022-10-23T06:01:50.000Z</time>
      </trkpt>
      <trkpt lat="27.868314" lon="86.808141">
        <ele>4101.6</ele>
        <time>2022-10-23T06:01:53.000Z</time>
      </trkpt>
      <trkpt lat="27.86832" lon="86.80816">
        <ele>4101.4</ele>
        <time>2022-10-23T06:01:55.000Z</time>
      </trkpt>
      <trkpt lat="27.86833" lon="86.808179">
        <ele>4101.4</ele>
        <time>2022-10-23T06:01:57.000Z</time>
      </trkpt>
      <trkpt lat="27.868333" lon="86.808205">
        <ele>4101.4</ele>
        <time>2022-10-23T06:01:59.000Z</time>
      </trkpt>
      <trkpt lat="27.868336" lon="86.80823">
        <ele>4101.6</ele>
        <time>2022-10-23T06:02:01.000Z</time>
      </trkpt>
      <trkpt lat="27.868342" lon="86.80825">
        <ele>4101.8</ele>
        <time>2022-10-23T06:02:03.000Z</time>
      </trkpt>
      <trkpt lat="27.868346" lon="86.808282">
        <ele>4101.6</ele>
        <time>2022-10-23T06:02:06.000Z</time>
      </trkpt>
      <trkpt lat="27.868352" lon="86.808301">
        <ele>4101.6</ele>
        <time>2022-10-23T06:02:08.000Z</time>
      </trkpt>
      <trkpt lat="27.868349" lon="86.808326">
        <ele>4101.6</ele>
        <time>2022-10-23T06:02:11.000Z</time>
      </trkpt>
      <trkpt lat="27.868352" lon="86.808352">
        <ele>4101.8</ele>
        <time>2022-10-23T06:02:13.000Z</time>
      </trkpt>
      <trkpt lat="27.868358" lon="86.808378">
        <ele>4101.6</ele>
        <time>2022-10-23T06:02:16.000Z</time>
      </trkpt>
      <trkpt lat="27.868365" lon="86.80841">
        <ele>4100.8</ele>
        <time>2022-10-23T06:02:18.000Z</time>
      </trkpt>
      <trkpt lat="27.868371" lon="86.808435">
        <ele>4100.8</ele>
        <time>2022-10-23T06:02:20.000Z</time>
      </trkpt>
      <trkpt lat="27.868371" lon="86.808467">
        <ele>4101</ele>
        <time>2022-10-23T06:02:24.000Z</time>
      </trkpt>
      <trkpt lat="27.868368" lon="86.808499">
        <ele>4100.8</ele>
        <time>2022-10-23T06:02:27.000Z</time>
      </trkpt>
      <trkpt lat="27.868368" lon="86.808525">
        <ele>4100.4</ele>
        <time>2022-10-23T06:02:29.000Z</time>
      </trkpt>
      <trkpt lat="27.868362" lon="86.80855">
        <ele>4100.6</ele>
        <time>2022-10-23T06:02:33.000Z</time>
      </trkpt>
      <trkpt lat="27.868362" lon="86.808589">
        <ele>4101.2</ele>
        <time>2022-10-23T06:02:36.000Z</time>
      </trkpt>
      <trkpt lat="27.868355" lon="86.808614">
        <ele>4102</ele>
        <time>2022-10-23T06:02:39.000Z</time>
      </trkpt>
      <trkpt lat="27.868358" lon="86.80864">
        <ele>4102</ele>
        <time>2022-10-23T06:02:41.000Z</time>
      </trkpt>
      <trkpt lat="27.868371" lon="86.808666">
        <ele>4101.2</ele>
        <time>2022-10-23T06:02:44.000Z</time>
      </trkpt>
      <trkpt lat="27.868374" lon="86.808691">
        <ele>4102.2</ele>
        <time>2022-10-23T06:02:53.000Z</time>
      </trkpt>
      <trkpt lat="27.868381" lon="86.80871">
        <ele>4101.8</ele>
        <time>2022-10-23T06:02:56.000Z</time>
      </trkpt>
      <trkpt lat="27.868381" lon="86.808736">
        <ele>4101.6</ele>
        <time>2022-10-23T06:02:59.000Z</time>
      </trkpt>
      <trkpt lat="27.868374" lon="86.808755">
        <ele>4101.4</ele>
        <time>2022-10-23T06:03:04.000Z</time>
      </trkpt>
      <trkpt lat="27.868381" lon="86.808774">
        <ele>4101.6</ele>
        <time>2022-10-23T06:03:12.000Z</time>
      </trkpt>
      <trkpt lat="27.868384" lon="86.8088">
        <ele>4101.4</ele>
        <time>2022-10-23T06:03:14.000Z</time>
      </trkpt>
      <trkpt lat="27.86839" lon="86.808832">
        <ele>4101.4</ele>
        <time>2022-10-23T06:03:17.000Z</time>
      </trkpt>
      <trkpt lat="27.868394" lon="86.80887">
        <ele>4101.2</ele>
        <time>2022-10-23T06:03:21.000Z</time>
      </trkpt>
      <trkpt lat="27.86841" lon="86.80889">
        <ele>4101.2</ele>
        <time>2022-10-23T06:03:24.000Z</time>
      </trkpt>
      <trkpt lat="27.868422" lon="86.808909">
        <ele>4100.8</ele>
        <time>2022-10-23T06:03:26.000Z</time>
      </trkpt>
      <trkpt lat="27.868442" lon="86.808922">
        <ele>4100.8</ele>
        <time>2022-10-23T06:03:29.000Z</time>
      </trkpt>
      <trkpt lat="27.868461" lon="86.808947">
        <ele>4101.2</ele>
        <time>2022-10-23T06:03:32.000Z</time>
      </trkpt>
      <trkpt lat="27.86847" lon="86.808966">
        <ele>4101.6</ele>
        <time>2022-10-23T06:03:35.000Z</time>
      </trkpt>
      <trkpt lat="27.86848" lon="86.808992">
        <ele>4101.4</ele>
        <time>2022-10-23T06:03:38.000Z</time>
      </trkpt>
      <trkpt lat="27.86848" lon="86.80903">
        <ele>4101.4</ele>
        <time>2022-10-23T06:03:41.000Z</time>
      </trkpt>
      <trkpt lat="27.868464" lon="86.80905">
        <ele>4101.2</ele>
        <time>2022-10-23T06:03:44.000Z</time>
      </trkpt>
      <trkpt lat="27.868467" lon="86.809075">
        <ele>4100.8</ele>
        <time>2022-10-23T06:03:47.000Z</time>
      </trkpt>
      <trkpt lat="27.868477" lon="86.809094">
        <ele>4100.6</ele>
        <time>2022-10-23T06:03:50.000Z</time>
      </trkpt>
      <trkpt lat="27.868483" lon="86.80912">
        <ele>4100.8</ele>
        <time>2022-10-23T06:03:52.000Z</time>
      </trkpt>
      <trkpt lat="27.86849" lon="86.809146">
        <ele>4101</ele>
        <time>2022-10-23T06:03:55.000Z</time>
      </trkpt>
      <trkpt lat="27.868486" lon="86.809171">
        <ele>4101.2</ele>
        <time>2022-10-23T06:04:54.000Z</time>
      </trkpt>
      <trkpt lat="27.868493" lon="86.80919">
        <ele>4101.2</ele>
        <time>2022-10-23T06:04:55.000Z</time>
      </trkpt>
      <trkpt lat="27.868499" lon="86.809229">
        <ele>4101.2</ele>
        <time>2022-10-23T06:04:57.000Z</time>
      </trkpt>
      <trkpt lat="27.868512" lon="86.809254">
        <ele>4101</ele>
        <time>2022-10-23T06:04:59.000Z</time>
      </trkpt>
      <trkpt lat="27.868534" lon="86.809306">
        <ele>4101.2</ele>
        <time>2022-10-23T06:05:02.000Z</time>
      </trkpt>
      <trkpt lat="27.868554" lon="86.809318">
        <ele>4101.4</ele>
        <time>2022-10-23T06:05:04.000Z</time>
      </trkpt>
      <trkpt lat="27.868563" lon="86.809344">
        <ele>4100.8</ele>
        <time>2022-10-23T06:05:06.000Z</time>
      </trkpt>
      <trkpt lat="27.86857" lon="86.80937">
        <ele>4100.8</ele>
        <time>2022-10-23T06:05:08.000Z</time>
      </trkpt>
      <trkpt lat="27.868573" lon="86.809395">
        <ele>4101.4</ele>
        <time>2022-10-23T06:05:11.000Z</time>
      </trkpt>
      <trkpt lat="27.86857" lon="86.809421">
        <ele>4101.4</ele>
        <time>2022-10-23T06:05:13.000Z</time>
      </trkpt>
      <trkpt lat="27.868576" lon="86.809446">
        <ele>4102</ele>
        <time>2022-10-23T06:05:16.000Z</time>
      </trkpt>
      <trkpt lat="27.868589" lon="86.809466">
        <ele>4101.8</ele>
        <time>2022-10-23T06:05:18.000Z</time>
      </trkpt>
      <trkpt lat="27.868608" lon="86.809485">
        <ele>4102</ele>
        <time>2022-10-23T06:05:21.000Z</time>
      </trkpt>
      <trkpt lat="27.868614" lon="86.809504">
        <ele>4102.2</ele>
        <time>2022-10-23T06:05:23.000Z</time>
      </trkpt>
      <trkpt lat="27.868627" lon="86.809523">
        <ele>4102.6</ele>
        <time>2022-10-23T06:05:25.000Z</time>
      </trkpt>
      <trkpt lat="27.86863" lon="86.809549">
        <ele>4102.4</ele>
        <time>2022-10-23T06:05:27.000Z</time>
      </trkpt>
      <trkpt lat="27.86864" lon="86.809581">
        <ele>4103</ele>
        <time>2022-10-23T06:05:30.000Z</time>
      </trkpt>
      <trkpt lat="27.868659" lon="86.809594">
        <ele>4103.4</ele>
        <time>2022-10-23T06:05:33.000Z</time>
      </trkpt>
      <trkpt lat="27.868675" lon="86.809606">
        <ele>4103.2</ele>
        <time>2022-10-23T06:05:36.000Z</time>
      </trkpt>
      <trkpt lat="27.868694" lon="86.809626">
        <ele>4104</ele>
        <time>2022-10-23T06:05:39.000Z</time>
      </trkpt>
      <trkpt lat="27.868707" lon="86.809645">
        <ele>4104.2</ele>
        <time>2022-10-23T06:05:42.000Z</time>
      </trkpt>
      <trkpt lat="27.86872" lon="86.809664">
        <ele>4104.4</ele>
        <time>2022-10-23T06:05:45.000Z</time>
      </trkpt>
      <trkpt lat="27.86873" lon="86.809683">
        <ele>4105</ele>
        <time>2022-10-23T06:05:53.000Z</time>
      </trkpt>
      <trkpt lat="27.868749" lon="86.809702">
        <ele>4106.2</ele>
        <time>2022-10-23T06:05:59.000Z</time>
      </trkpt>
      <trkpt lat="27.868758" lon="86.809722">
        <ele>4106.4</ele>
        <time>2022-10-23T06:06:03.000Z</time>
      </trkpt>
      <trkpt lat="27.868771" lon="86.809741">
        <ele>4107.2</ele>
        <time>2022-10-23T06:06:06.000Z</time>
      </trkpt>
      <trkpt lat="27.86879" lon="86.80976">
        <ele>4107.2</ele>
        <time>2022-10-23T06:06:09.000Z</time>
      </trkpt>
      <trkpt lat="27.8688" lon="86.809779">
        <ele>4107.4</ele>
        <time>2022-10-23T06:06:11.000Z</time>
      </trkpt>
      <trkpt lat="27.868813" lon="86.809798">
        <ele>4107.8</ele>
        <time>2022-10-23T06:06:15.000Z</time>
      </trkpt>
      <trkpt lat="27.868819" lon="86.809818">
        <ele>4108</ele>
        <time>2022-10-23T06:06:17.000Z</time>
      </trkpt>
      <trkpt lat="27.868826" lon="86.809837">
        <ele>4109</ele>
        <time>2022-10-23T06:06:21.000Z</time>
      </trkpt>
      <trkpt lat="27.868845" lon="86.809862">
        <ele>4108.2</ele>
        <time>2022-10-23T06:06:25.000Z</time>
      </trkpt>
      <trkpt lat="27.868858" lon="86.809882">
        <ele>4108.4</ele>
        <time>2022-10-23T06:06:30.000Z</time>
      </trkpt>
      <trkpt lat="27.868874" lon="86.809901">
        <ele>4109</ele>
        <time>2022-10-23T06:06:32.000Z</time>
      </trkpt>
      <trkpt lat="27.86889" lon="86.80992">
        <ele>4108.6</ele>
        <time>2022-10-23T06:06:35.000Z</time>
      </trkpt>
      <trkpt lat="27.868899" lon="86.809939">
        <ele>4108.6</ele>
        <time>2022-10-23T06:06:37.000Z</time>
      </trkpt>
      <trkpt lat="27.868918" lon="86.809952">
        <ele>4108.6</ele>
        <time>2022-10-23T06:06:40.000Z</time>
      </trkpt>
      <trkpt lat="27.868934" lon="86.809978">
        <ele>4108.4</ele>
        <time>2022-10-23T06:06:43.000Z</time>
      </trkpt>
      <trkpt lat="27.868954" lon="86.809997">
        <ele>4108.2</ele>
        <time>2022-10-23T06:06:46.000Z</time>
      </trkpt>
      <trkpt lat="27.868963" lon="86.810016">
        <ele>4108</ele>
        <time>2022-10-23T06:06:48.000Z</time>
      </trkpt>
      <trkpt lat="27.868973" lon="86.810035">
        <ele>4107.6</ele>
        <time>2022-10-23T06:06:50.000Z</time>
      </trkpt>
      <trkpt lat="27.868979" lon="86.810061">
        <ele>4107.4</ele>
        <time>2022-10-23T06:06:53.000Z</time>
      </trkpt>
      <trkpt lat="27.868986" lon="86.81008">
        <ele>4107.6</ele>
        <time>2022-10-23T06:06:55.000Z</time>
      </trkpt>
      <trkpt lat="27.868992" lon="86.810112">
        <ele>4108.2</ele>
        <time>2022-10-23T06:06:58.000Z</time>
      </trkpt>
      <trkpt lat="27.868995" lon="86.810138">
        <ele>4108.2</ele>
        <time>2022-10-23T06:07:01.000Z</time>
      </trkpt>
      <trkpt lat="27.869008" lon="86.810163">
        <ele>4107.6</ele>
        <time>2022-10-23T06:07:04.000Z</time>
      </trkpt>
      <trkpt lat="27.869018" lon="86.810182">
        <ele>4107.6</ele>
        <time>2022-10-23T06:07:06.000Z</time>
      </trkpt>
      <trkpt lat="27.869024" lon="86.810221">
        <ele>4107.2</ele>
        <time>2022-10-23T06:07:09.000Z</time>
      </trkpt>
      <trkpt lat="27.869037" lon="86.81024">
        <ele>4107</ele>
        <time>2022-10-23T06:07:12.000Z</time>
      </trkpt>
      <trkpt lat="27.869043" lon="86.810266">
        <ele>4107</ele>
        <time>2022-10-23T06:07:14.000Z</time>
      </trkpt>
      <trkpt lat="27.86905" lon="86.810298">
        <ele>4107</ele>
        <time>2022-10-23T06:07:17.000Z</time>
      </trkpt>
      <trkpt lat="27.86905" lon="86.810323">
        <ele>4106.4</ele>
        <time>2022-10-23T06:07:20.000Z</time>
      </trkpt>
      <trkpt lat="27.869046" lon="86.810349">
        <ele>4106.4</ele>
        <time>2022-10-23T06:07:22.000Z</time>
      </trkpt>
      <trkpt lat="27.86904" lon="86.810374">
        <ele>4106.4</ele>
        <time>2022-10-23T06:07:26.000Z</time>
      </trkpt>
      <trkpt lat="27.869056" lon="86.810387">
        <ele>4106.2</ele>
        <time>2022-10-23T06:07:29.000Z</time>
      </trkpt>
      <trkpt lat="27.869069" lon="86.810406">
        <ele>4106.2</ele>
        <time>2022-10-23T06:07:32.000Z</time>
      </trkpt>
      <trkpt lat="27.869075" lon="86.810426">
        <ele>4105.6</ele>
        <time>2022-10-23T06:07:34.000Z</time>
      </trkpt>
      <trkpt lat="27.869094" lon="86.810432">
        <ele>4105.4</ele>
        <time>2022-10-23T06:07:38.000Z</time>
      </trkpt>
      <trkpt lat="27.869114" lon="86.810445">
        <ele>4105</ele>
        <time>2022-10-23T06:07:53.000Z</time>
      </trkpt>
      <trkpt lat="27.86913" lon="86.810464">
        <ele>4104.2</ele>
        <time>2022-10-23T06:07:56.000Z</time>
      </trkpt>
      <trkpt lat="27.869146" lon="86.810477">
        <ele>4104.2</ele>
        <time>2022-10-23T06:07:59.000Z</time>
      </trkpt>
      <trkpt lat="27.869165" lon="86.810496">
        <ele>4104.6</ele>
        <time>2022-10-23T06:08:02.000Z</time>
      </trkpt>
      <trkpt lat="27.869184" lon="86.810515">
        <ele>4104.2</ele>
        <time>2022-10-23T06:08:05.000Z</time>
      </trkpt>
      <trkpt lat="27.869203" lon="86.810522">
        <ele>4104.2</ele>
        <time>2022-10-23T06:08:08.000Z</time>
      </trkpt>
      <trkpt lat="27.869216" lon="86.810541">
        <ele>4104.4</ele>
        <time>2022-10-23T06:08:11.000Z</time>
      </trkpt>
      <trkpt lat="27.869235" lon="86.81056">
        <ele>4103.2</ele>
        <time>2022-10-23T06:08:34.000Z</time>
      </trkpt>
      <trkpt lat="27.869258" lon="86.810579">
        <ele>4102.8</ele>
        <time>2022-10-23T06:08:36.000Z</time>
      </trkpt>
      <trkpt lat="27.869277" lon="86.810598">
        <ele>4102.4</ele>
        <time>2022-10-23T06:08:38.000Z</time>
      </trkpt>
      <trkpt lat="27.869296" lon="86.810624">
        <ele>4102.4</ele>
        <time>2022-10-23T06:08:40.000Z</time>
      </trkpt>
      <trkpt lat="27.869315" lon="86.81063">
        <ele>4102.2</ele>
        <time>2022-10-23T06:08:42.000Z</time>
      </trkpt>
      <trkpt lat="27.869334" lon="86.810643">
        <ele>4102.8</ele>
        <time>2022-10-23T06:08:44.000Z</time>
      </trkpt>
      <trkpt lat="27.869347" lon="86.810662">
        <ele>4102.4</ele>
        <time>2022-10-23T06:08:46.000Z</time>
      </trkpt>
      <trkpt lat="27.869366" lon="86.810675">
        <ele>4102.8</ele>
        <time>2022-10-23T06:08:48.000Z</time>
      </trkpt>
      <trkpt lat="27.869382" lon="86.810694">
        <ele>4103</ele>
        <time>2022-10-23T06:08:50.000Z</time>
      </trkpt>
      <trkpt lat="27.869405" lon="86.810707">
        <ele>4103</ele>
        <time>2022-10-23T06:08:53.000Z</time>
      </trkpt>
      <trkpt lat="27.869418" lon="86.810733">
        <ele>4103.6</ele>
        <time>2022-10-23T06:08:56.000Z</time>
      </trkpt>
      <trkpt lat="27.869434" lon="86.810746">
        <ele>4103.4</ele>
        <time>2022-10-23T06:08:58.000Z</time>
      </trkpt>
      <trkpt lat="27.869453" lon="86.810758">
        <ele>4102.8</ele>
        <time>2022-10-23T06:09:01.000Z</time>
      </trkpt>
      <trkpt lat="27.869466" lon="86.810778">
        <ele>4102.6</ele>
        <time>2022-10-23T06:09:03.000Z</time>
      </trkpt>
      <trkpt lat="27.869485" lon="86.81079">
        <ele>4102.8</ele>
        <time>2022-10-23T06:09:06.000Z</time>
      </trkpt>
      <trkpt lat="27.869504" lon="86.810816">
        <ele>4102.8</ele>
        <time>2022-10-23T06:09:09.000Z</time>
      </trkpt>
      <trkpt lat="27.869523" lon="86.810835">
        <ele>4103.2</ele>
        <time>2022-10-23T06:09:12.000Z</time>
      </trkpt>
      <trkpt lat="27.869536" lon="86.810861">
        <ele>4102.8</ele>
        <time>2022-10-23T06:09:14.000Z</time>
      </trkpt>
      <trkpt lat="27.869558" lon="86.810874">
        <ele>4103.6</ele>
        <time>2022-10-23T06:09:18.000Z</time>
      </trkpt>
      <trkpt lat="27.869581" lon="86.810893">
        <ele>4103.6</ele>
        <time>2022-10-23T06:09:21.000Z</time>
      </trkpt>
      <trkpt lat="27.86959" lon="86.810918">
        <ele>4103.6</ele>
        <time>2022-10-23T06:09:24.000Z</time>
      </trkpt>
      <trkpt lat="27.8696" lon="86.810938">
        <ele>4103.8</ele>
        <time>2022-10-23T06:09:26.000Z</time>
      </trkpt>
      <trkpt lat="27.869616" lon="86.810957">
        <ele>4104.4</ele>
        <time>2022-10-23T06:09:30.000Z</time>
      </trkpt>
      <trkpt lat="27.869622" lon="86.810976">
        <ele>4104.8</ele>
        <time>2022-10-23T06:09:31.000Z</time>
      </trkpt>
      <trkpt lat="27.869632" lon="86.810995">
        <ele>4105.8</ele>
        <time>2022-10-23T06:09:35.000Z</time>
      </trkpt>
      <trkpt lat="27.869651" lon="86.811002">
        <ele>4105.6</ele>
        <time>2022-10-23T06:09:39.000Z</time>
      </trkpt>
      <trkpt lat="27.869667" lon="86.811014">
        <ele>4105.4</ele>
        <time>2022-10-23T06:09:41.000Z</time>
      </trkpt>
      <trkpt lat="27.86969" lon="86.811014">
        <ele>4106.2</ele>
        <time>2022-10-23T06:09:45.000Z</time>
      </trkpt>
      <trkpt lat="27.869702" lon="86.811034">
        <ele>4106.6</ele>
        <time>2022-10-23T06:09:48.000Z</time>
      </trkpt>
      <trkpt lat="27.869722" lon="86.811053">
        <ele>4106.4</ele>
        <time>2022-10-23T06:09:51.000Z</time>
      </trkpt>
      <trkpt lat="27.869738" lon="86.811072">
        <ele>4105.8</ele>
        <time>2022-10-23T06:09:54.000Z</time>
      </trkpt>
      <trkpt lat="27.869763" lon="86.811072">
        <ele>4106.2</ele>
        <time>2022-10-23T06:09:57.000Z</time>
      </trkpt>
      <trkpt lat="27.869786" lon="86.811072">
        <ele>4106.6</ele>
        <time>2022-10-23T06:10:01.000Z</time>
      </trkpt>
      <trkpt lat="27.869802" lon="86.811059">
        <ele>4106.4</ele>
        <time>2022-10-23T06:10:04.000Z</time>
      </trkpt>
      <trkpt lat="27.869814" lon="86.81104">
        <ele>4106.6</ele>
        <time>2022-10-23T06:10:06.000Z</time>
      </trkpt>
      <trkpt lat="27.869837" lon="86.811034">
        <ele>4107.2</ele>
        <time>2022-10-23T06:10:09.000Z</time>
      </trkpt>
      <trkpt lat="27.869856" lon="86.811034">
        <ele>4107.4</ele>
        <time>2022-10-23T06:10:11.000Z</time>
      </trkpt>
      <trkpt lat="27.869882" lon="86.81104">
        <ele>4107.2</ele>
        <time>2022-10-23T06:10:15.000Z</time>
      </trkpt>
      <trkpt lat="27.869904" lon="86.811053">
        <ele>4107.4</ele>
        <time>2022-10-23T06:10:18.000Z</time>
      </trkpt>
      <trkpt lat="27.869923" lon="86.811053">
        <ele>4107.4</ele>
        <time>2022-10-23T06:10:20.000Z</time>
      </trkpt>
      <trkpt lat="27.869949" lon="86.811053">
        <ele>4107.6</ele>
        <time>2022-10-23T06:10:23.000Z</time>
      </trkpt>
      <trkpt lat="27.869971" lon="86.811059">
        <ele>4107.6</ele>
        <time>2022-10-23T06:10:26.000Z</time>
      </trkpt>
      <trkpt lat="27.86999" lon="86.811072">
        <ele>4107.8</ele>
        <time>2022-10-23T06:10:29.000Z</time>
      </trkpt>
      <trkpt lat="27.870013" lon="86.811091">
        <ele>4108.4</ele>
        <time>2022-10-23T06:10:32.000Z</time>
      </trkpt>
      <trkpt lat="27.870032" lon="86.811072">
        <ele>4108.4</ele>
        <time>2022-10-23T06:10:35.000Z</time>
      </trkpt>
      <trkpt lat="27.870042" lon="86.811091">
        <ele>4108.6</ele>
        <time>2022-10-23T06:10:37.000Z</time>
      </trkpt>
      <trkpt lat="27.870058" lon="86.81111">
        <ele>4109.4</ele>
        <time>2022-10-23T06:10:40.000Z</time>
      </trkpt>
      <trkpt lat="27.87008" lon="86.81111">
        <ele>4109.4</ele>
        <time>2022-10-23T06:10:43.000Z</time>
      </trkpt>
      <trkpt lat="27.870099" lon="86.811117">
        <ele>4109.4</ele>
        <time>2022-10-23T06:10:45.000Z</time>
      </trkpt>
      <trkpt lat="27.870118" lon="86.81113">
        <ele>4109.4</ele>
        <time>2022-10-23T06:10:47.000Z</time>
      </trkpt>
      <trkpt lat="27.870134" lon="86.811149">
        <ele>4109.2</ele>
        <time>2022-10-23T06:10:49.000Z</time>
      </trkpt>
      <trkpt lat="27.87015" lon="86.811168">
        <ele>4109</ele>
        <time>2022-10-23T06:10:51.000Z</time>
      </trkpt>
      <trkpt lat="27.87017" lon="86.811187">
        <ele>4109</ele>
        <time>2022-10-23T06:10:54.000Z</time>
      </trkpt>
      <trkpt lat="27.870186" lon="86.8112">
        <ele>4108.4</ele>
        <time>2022-10-23T06:10:56.000Z</time>
      </trkpt>
      <trkpt lat="27.870202" lon="86.811213">
        <ele>4109</ele>
        <time>2022-10-23T06:10:58.000Z</time>
      </trkpt>
      <trkpt lat="27.870224" lon="86.811226">
        <ele>4109.4</ele>
        <time>2022-10-23T06:11:01.000Z</time>
      </trkpt>
      <trkpt lat="27.870243" lon="86.811251">
        <ele>4109</ele>
        <time>2022-10-23T06:11:04.000Z</time>
      </trkpt>
      <trkpt lat="27.870266" lon="86.81127">
        <ele>4109.2</ele>
        <time>2022-10-23T06:11:07.000Z</time>
      </trkpt>
      <trkpt lat="27.870278" lon="86.81129">
        <ele>4109.2</ele>
        <time>2022-10-23T06:11:09.000Z</time>
      </trkpt>
      <trkpt lat="27.870298" lon="86.811309">
        <ele>4109</ele>
        <time>2022-10-23T06:11:12.000Z</time>
      </trkpt>
      <trkpt lat="27.87031" lon="86.811328">
        <ele>4109.6</ele>
        <time>2022-10-23T06:11:14.000Z</time>
      </trkpt>
      <trkpt lat="27.87033" lon="86.811347">
        <ele>4110.2</ele>
        <time>2022-10-23T06:11:17.000Z</time>
      </trkpt>
      <trkpt lat="27.870346" lon="86.811366">
        <ele>4110.2</ele>
        <time>2022-10-23T06:11:19.000Z</time>
      </trkpt>
      <trkpt lat="27.870362" lon="86.811379">
        <ele>4110.4</ele>
        <time>2022-10-23T06:11:21.000Z</time>
      </trkpt>
      <trkpt lat="27.870381" lon="86.811392">
        <ele>4111.2</ele>
        <time>2022-10-23T06:11:24.000Z</time>
      </trkpt>
      <trkpt lat="27.870397" lon="86.811411">
        <ele>4111</ele>
        <time>2022-10-23T06:11:27.000Z</time>
      </trkpt>
      <trkpt lat="27.870416" lon="86.811418">
        <ele>4111.2</ele>
        <time>2022-10-23T06:11:29.000Z</time>
      </trkpt>
      <trkpt lat="27.870435" lon="86.811424">
        <ele>4110.8</ele>
        <time>2022-10-23T06:11:31.000Z</time>
      </trkpt>
      <trkpt lat="27.870458" lon="86.811437">
        <ele>4110.8</ele>
        <time>2022-10-23T06:11:34.000Z</time>
      </trkpt>
      <trkpt lat="27.870474" lon="86.81145">
        <ele>4111</ele>
        <time>2022-10-23T06:11:36.000Z</time>
      </trkpt>
      <trkpt lat="27.870499" lon="86.81145">
        <ele>4110.8</ele>
        <time>2022-10-23T06:11:39.000Z</time>
      </trkpt>
      <trkpt lat="27.870522" lon="86.811456">
        <ele>4111.2</ele>
        <time>2022-10-23T06:11:42.000Z</time>
      </trkpt>
      <trkpt lat="27.870541" lon="86.811462">
        <ele>4111</ele>
        <time>2022-10-23T06:11:44.000Z</time>
      </trkpt>
      <trkpt lat="27.87056" lon="86.811462">
        <ele>4110.6</ele>
        <time>2022-10-23T06:11:47.000Z</time>
      </trkpt>
      <trkpt lat="27.870586" lon="86.811456">
        <ele>4111.8</ele>
        <time>2022-10-23T06:11:50.000Z</time>
      </trkpt>
      <trkpt lat="27.870605" lon="86.811462">
        <ele>4112.2</ele>
        <time>2022-10-23T06:11:52.000Z</time>
      </trkpt>
      <trkpt lat="27.870627" lon="86.811469">
        <ele>4112.8</ele>
        <time>2022-10-23T06:11:56.000Z</time>
      </trkpt>
      <trkpt lat="27.870646" lon="86.811469">
        <ele>4113</ele>
        <time>2022-10-23T06:11:58.000Z</time>
      </trkpt>
      <trkpt lat="27.870669" lon="86.811469">
        <ele>4113.2</ele>
        <time>2022-10-23T06:12:01.000Z</time>
      </trkpt>
      <trkpt lat="27.870688" lon="86.811469">
        <ele>4113.2</ele>
        <time>2022-10-23T06:12:03.000Z</time>
      </trkpt>
      <trkpt lat="27.870701" lon="86.811488">
        <ele>4113.6</ele>
        <time>2022-10-23T06:12:05.000Z</time>
      </trkpt>
      <trkpt lat="27.870717" lon="86.811501">
        <ele>4113.2</ele>
        <time>2022-10-23T06:12:08.000Z</time>
      </trkpt>
      <trkpt lat="27.870742" lon="86.811514">
        <ele>4113.8</ele>
        <time>2022-10-23T06:12:11.000Z</time>
      </trkpt>
      <trkpt lat="27.870752" lon="86.811533">
        <ele>4113.8</ele>
        <time>2022-10-23T06:12:13.000Z</time>
      </trkpt>
      <trkpt lat="27.870774" lon="86.811546">
        <ele>4113.8</ele>
        <time>2022-10-23T06:12:16.000Z</time>
      </trkpt>
      <trkpt lat="27.870794" lon="86.811546">
        <ele>4113.8</ele>
        <time>2022-10-23T06:12:18.000Z</time>
      </trkpt>
      <trkpt lat="27.870813" lon="86.811552">
        <ele>4114.2</ele>
        <time>2022-10-23T06:12:20.000Z</time>
      </trkpt>
      <trkpt lat="27.870832" lon="86.811558">
        <ele>4114.4</ele>
        <time>2022-10-23T06:12:23.000Z</time>
      </trkpt>
      <trkpt lat="27.870845" lon="86.811578">
        <ele>4114.6</ele>
        <time>2022-10-23T06:12:25.000Z</time>
      </trkpt>
      <trkpt lat="27.870864" lon="86.81159">
        <ele>4114.8</ele>
        <time>2022-10-23T06:12:28.000Z</time>
      </trkpt>
      <trkpt lat="27.870886" lon="86.81159">
        <ele>4115.4</ele>
        <time>2022-10-23T06:12:32.000Z</time>
      </trkpt>
      <trkpt lat="27.870909" lon="86.81161">
        <ele>4115.8</ele>
        <time>2022-10-23T06:12:36.000Z</time>
      </trkpt>
      <trkpt lat="27.870931" lon="86.811616">
        <ele>4115.6</ele>
        <time>2022-10-23T06:12:39.000Z</time>
      </trkpt>
      <trkpt lat="27.870954" lon="86.811622">
        <ele>4115.8</ele>
        <time>2022-10-23T06:12:42.000Z</time>
      </trkpt>
      <trkpt lat="27.870973" lon="86.811629">
        <ele>4116</ele>
        <time>2022-10-23T06:12:45.000Z</time>
      </trkpt>
      <trkpt lat="27.870986" lon="86.811648">
        <ele>4115.8</ele>
        <time>2022-10-23T06:12:47.000Z</time>
      </trkpt>
      <trkpt lat="27.871011" lon="86.811654">
        <ele>4115.6</ele>
        <time>2022-10-23T06:12:50.000Z</time>
      </trkpt>
      <trkpt lat="27.87103" lon="86.811674">
        <ele>4116.2</ele>
        <time>2022-10-23T06:12:53.000Z</time>
      </trkpt>
      <trkpt lat="27.871043" lon="86.811693">
        <ele>4116.2</ele>
        <time>2022-10-23T06:12:55.000Z</time>
      </trkpt>
      <trkpt lat="27.871066" lon="86.811693">
        <ele>4115.8</ele>
        <time>2022-10-23T06:12:57.000Z</time>
      </trkpt>
      <trkpt lat="27.871088" lon="86.811706">
        <ele>4116.4</ele>
        <time>2022-10-23T06:13:00.000Z</time>
      </trkpt>
      <trkpt lat="27.871107" lon="86.811706">
        <ele>4116.6</ele>
        <time>2022-10-23T06:13:02.000Z</time>
      </trkpt>
      <trkpt lat="27.871126" lon="86.811706">
        <ele>4116.6</ele>
        <time>2022-10-23T06:13:05.000Z</time>
      </trkpt>
      <trkpt lat="27.871146" lon="86.811725">
        <ele>4117.2</ele>
        <time>2022-10-23T06:13:11.000Z</time>
      </trkpt>
      <trkpt lat="27.871165" lon="86.811744">
        <ele>4116.4</ele>
        <time>2022-10-23T06:13:14.000Z</time>
      </trkpt>
      <trkpt lat="27.871178" lon="86.81177">
        <ele>4116.6</ele>
        <time>2022-10-23T06:13:16.000Z</time>
      </trkpt>
      <trkpt lat="27.871194" lon="86.811782">
        <ele>4116.6</ele>
        <time>2022-10-23T06:13:18.000Z</time>
      </trkpt>
      <trkpt lat="27.871213" lon="86.811795">
        <ele>4116.2</ele>
        <time>2022-10-23T06:13:21.000Z</time>
      </trkpt>
      <trkpt lat="27.871235" lon="86.811814">
        <ele>4116.2</ele>
        <time>2022-10-23T06:13:23.000Z</time>
      </trkpt>
      <trkpt lat="27.871254" lon="86.811814">
        <ele>4116.8</ele>
        <time>2022-10-23T06:13:25.000Z</time>
      </trkpt>
      <trkpt lat="27.87127" lon="86.811834">
        <ele>4117</ele>
        <time>2022-10-23T06:13:27.000Z</time>
      </trkpt>
      <trkpt lat="27.87129" lon="86.811853">
        <ele>4117.6</ele>
        <time>2022-10-23T06:13:29.000Z</time>
      </trkpt>
      <trkpt lat="27.871309" lon="86.811885">
        <ele>4117.6</ele>
        <time>2022-10-23T06:13:32.000Z</time>
      </trkpt>
      <trkpt lat="27.871328" lon="86.811891">
        <ele>4117.4</ele>
        <time>2022-10-23T06:13:35.000Z</time>
      </trkpt>
      <trkpt lat="27.871347" lon="86.811891">
        <ele>4117.6</ele>
        <time>2022-10-23T06:13:37.000Z</time>
      </trkpt>
      <trkpt lat="27.871366" lon="86.811891">
        <ele>4117.8</ele>
        <time>2022-10-23T06:13:39.000Z</time>
      </trkpt>
      <trkpt lat="27.871382" lon="86.811904">
        <ele>4117.6</ele>
        <time>2022-10-23T06:13:41.000Z</time>
      </trkpt>
      <trkpt lat="27.871405" lon="86.811923">
        <ele>4117.6</ele>
        <time>2022-10-23T06:13:43.000Z</time>
      </trkpt>
      <trkpt lat="27.871427" lon="86.811942">
        <ele>4117.4</ele>
        <time>2022-10-23T06:13:46.000Z</time>
      </trkpt>
      <trkpt lat="27.87145" lon="86.811949">
        <ele>4117</ele>
        <time>2022-10-23T06:13:49.000Z</time>
      </trkpt>
      <trkpt lat="27.871472" lon="86.811955">
        <ele>4117.6</ele>
        <time>2022-10-23T06:13:52.000Z</time>
      </trkpt>
      <trkpt lat="27.871491" lon="86.811968">
        <ele>4117.8</ele>
        <time>2022-10-23T06:13:54.000Z</time>
      </trkpt>
      <trkpt lat="27.87151" lon="86.811968">
        <ele>4117.8</ele>
        <time>2022-10-23T06:13:56.000Z</time>
      </trkpt>
      <trkpt lat="27.871533" lon="86.811981">
        <ele>4118</ele>
        <time>2022-10-23T06:13:59.000Z</time>
      </trkpt>
      <trkpt lat="27.871558" lon="86.812006">
        <ele>4118.4</ele>
        <time>2022-10-23T06:14:02.000Z</time>
      </trkpt>
      <trkpt lat="27.871578" lon="86.812013">
        <ele>4118.4</ele>
        <time>2022-10-23T06:14:04.000Z</time>
      </trkpt>
      <trkpt lat="27.871597" lon="86.812019">
        <ele>4118.8</ele>
        <time>2022-10-23T06:14:07.000Z</time>
      </trkpt>
      <trkpt lat="27.871622" lon="86.812026">
        <ele>4119.2</ele>
        <time>2022-10-23T06:14:10.000Z</time>
      </trkpt>
      <trkpt lat="27.871638" lon="86.812045">
        <ele>4119.4</ele>
        <time>2022-10-23T06:14:13.000Z</time>
      </trkpt>
      <trkpt lat="27.871658" lon="86.812064">
        <ele>4119.2</ele>
        <time>2022-10-23T06:14:15.000Z</time>
      </trkpt>
      <trkpt lat="27.871664" lon="86.81209">
        <ele>4119.6</ele>
        <time>2022-10-23T06:14:17.000Z</time>
      </trkpt>
      <trkpt lat="27.871677" lon="86.812109">
        <ele>4119.6</ele>
        <time>2022-10-23T06:14:20.000Z</time>
      </trkpt>
      <trkpt lat="27.87169" lon="86.812128">
        <ele>4120.4</ele>
        <time>2022-10-23T06:14:23.000Z</time>
      </trkpt>
      <trkpt lat="27.871709" lon="86.812134">
        <ele>4120.2</ele>
        <time>2022-10-23T06:14:25.000Z</time>
      </trkpt>
      <trkpt lat="27.871728" lon="86.812134">
        <ele>4120.2</ele>
        <time>2022-10-23T06:14:27.000Z</time>
      </trkpt>
      <trkpt lat="27.871747" lon="86.812134">
        <ele>4120.4</ele>
        <time>2022-10-23T06:14:29.000Z</time>
      </trkpt>
      <trkpt lat="27.871766" lon="86.812141">
        <ele>4120.4</ele>
        <time>2022-10-23T06:14:31.000Z</time>
      </trkpt>
      <trkpt lat="27.871792" lon="86.812147">
        <ele>4120.6</ele>
        <time>2022-10-23T06:14:34.000Z</time>
      </trkpt>
      <trkpt lat="27.871814" lon="86.812147">
        <ele>4120.6</ele>
        <time>2022-10-23T06:14:36.000Z</time>
      </trkpt>
      <trkpt lat="27.871837" lon="86.812154">
        <ele>4121</ele>
        <time>2022-10-23T06:14:39.000Z</time>
      </trkpt>
      <trkpt lat="27.871856" lon="86.812166">
        <ele>4121</ele>
        <time>2022-10-23T06:14:41.000Z</time>
      </trkpt>
      <trkpt lat="27.871878" lon="86.812166">
        <ele>4121.4</ele>
        <time>2022-10-23T06:14:44.000Z</time>
      </trkpt>
      <trkpt lat="27.871898" lon="86.812173">
        <ele>4121.2</ele>
        <time>2022-10-23T06:14:47.000Z</time>
      </trkpt>
      <trkpt lat="27.871917" lon="86.812179">
        <ele>4121.2</ele>
        <time>2022-10-23T06:14:49.000Z</time>
      </trkpt>
      <trkpt lat="27.871936" lon="86.812179">
        <ele>4121.8</ele>
        <time>2022-10-23T06:14:51.000Z</time>
      </trkpt>
      <trkpt lat="27.871958" lon="86.812186">
        <ele>4121.8</ele>
        <time>2022-10-23T06:14:54.000Z</time>
      </trkpt>
      <trkpt lat="27.871971" lon="86.812205">
        <ele>4121.8</ele>
        <time>2022-10-23T06:14:56.000Z</time>
      </trkpt>
      <trkpt lat="27.87201" lon="86.81223">
        <ele>4123</ele>
        <time>2022-10-23T06:15:04.000Z</time>
      </trkpt>
      <trkpt lat="27.872032" lon="86.81223">
        <ele>4123</ele>
        <time>2022-10-23T06:15:07.000Z</time>
      </trkpt>
      <trkpt lat="27.872058" lon="86.81223">
        <ele>4122.8</ele>
        <time>2022-10-23T06:15:27.000Z</time>
      </trkpt>
      <trkpt lat="27.872048" lon="86.81225">
        <ele>4125.6</ele>
        <time>2022-10-23T06:16:55.000Z</time>
      </trkpt>
      <trkpt lat="27.872074" lon="86.812269">
        <ele>4126</ele>
        <time>2022-10-23T06:16:57.000Z</time>
      </trkpt>
      <trkpt lat="27.872096" lon="86.812288">
        <ele>4125.6</ele>
        <time>2022-10-23T06:16:59.000Z</time>
      </trkpt>
      <trkpt lat="27.872122" lon="86.812307">
        <ele>4126</ele>
        <time>2022-10-23T06:17:01.000Z</time>
      </trkpt>
      <trkpt lat="27.872147" lon="86.812326">
        <ele>4125.6</ele>
        <time>2022-10-23T06:17:03.000Z</time>
      </trkpt>
      <trkpt lat="27.872173" lon="86.812333">
        <ele>4125.4</ele>
        <time>2022-10-23T06:17:05.000Z</time>
      </trkpt>
      <trkpt lat="27.872195" lon="86.812339">
        <ele>4125.4</ele>
        <time>2022-10-23T06:17:07.000Z</time>
      </trkpt>
      <trkpt lat="27.872214" lon="86.812346">
        <ele>4125.6</ele>
        <time>2022-10-23T06:17:09.000Z</time>
      </trkpt>
      <trkpt lat="27.872224" lon="86.812365">
        <ele>4126.2</ele>
        <time>2022-10-23T06:17:10.000Z</time>
      </trkpt>
      <trkpt lat="27.872243" lon="86.812384">
        <ele>4126.4</ele>
        <time>2022-10-23T06:17:13.000Z</time>
      </trkpt>
      <trkpt lat="27.872253" lon="86.812403">
        <ele>4126.6</ele>
        <time>2022-10-23T06:17:15.000Z</time>
      </trkpt>
      <trkpt lat="27.872275" lon="86.81241">
        <ele>4127.2</ele>
        <time>2022-10-23T06:17:18.000Z</time>
      </trkpt>
      <trkpt lat="27.872298" lon="86.812422">
        <ele>4128.2</ele>
        <time>2022-10-23T06:17:21.000Z</time>
      </trkpt>
      <trkpt lat="27.872317" lon="86.812422">
        <ele>4128.2</ele>
        <time>2022-10-23T06:17:23.000Z</time>
      </trkpt>
      <trkpt lat="27.872339" lon="86.812429">
        <ele>4128.4</ele>
        <time>2022-10-23T06:17:25.000Z</time>
      </trkpt>
      <trkpt lat="27.872365" lon="86.812429">
        <ele>4128.2</ele>
        <time>2022-10-23T06:17:27.000Z</time>
      </trkpt>
      <trkpt lat="27.872384" lon="86.812429">
        <ele>4128.8</ele>
        <time>2022-10-23T06:17:29.000Z</time>
      </trkpt>
      <trkpt lat="27.872403" lon="86.812429">
        <ele>4128.8</ele>
        <time>2022-10-23T06:17:31.000Z</time>
      </trkpt>
      <trkpt lat="27.872426" lon="86.812422">
        <ele>4129.6</ele>
        <time>2022-10-23T06:17:35.000Z</time>
      </trkpt>
      <trkpt lat="27.872448" lon="86.812416">
        <ele>4129.6</ele>
        <time>2022-10-23T06:17:37.000Z</time>
      </trkpt>
      <trkpt lat="27.87247" lon="86.812416">
        <ele>4129.6</ele>
        <time>2022-10-23T06:17:39.000Z</time>
      </trkpt>
      <trkpt lat="27.872486" lon="86.812429">
        <ele>4129.2</ele>
        <time>2022-10-23T06:17:41.000Z</time>
      </trkpt>
      <trkpt lat="27.872512" lon="86.812429">
        <ele>4129.6</ele>
        <time>2022-10-23T06:17:43.000Z</time>
      </trkpt>
      <trkpt lat="27.872531" lon="86.812422">
        <ele>4130</ele>
        <time>2022-10-23T06:17:45.000Z</time>
      </trkpt>
      <trkpt lat="27.872547" lon="86.812442">
        <ele>4130</ele>
        <time>2022-10-23T06:17:47.000Z</time>
      </trkpt>
      <trkpt lat="27.87257" lon="86.812448">
        <ele>4129.8</ele>
        <time>2022-10-23T06:17:50.000Z</time>
      </trkpt>
      <trkpt lat="27.872589" lon="86.812461">
        <ele>4129.8</ele>
        <time>2022-10-23T06:17:53.000Z</time>
      </trkpt>
      <trkpt lat="27.872598" lon="86.812486">
        <ele>4130</ele>
        <time>2022-10-23T06:17:55.000Z</time>
      </trkpt>
      <trkpt lat="27.872621" lon="86.812506">
        <ele>4130</ele>
        <time>2022-10-23T06:17:58.000Z</time>
      </trkpt>
      <trkpt lat="27.872643" lon="86.812518">
        <ele>4130.2</ele>
        <time>2022-10-23T06:18:00.000Z</time>
      </trkpt>
      <trkpt lat="27.872666" lon="86.812538">
        <ele>4130.8</ele>
        <time>2022-10-23T06:18:03.000Z</time>
      </trkpt>
      <trkpt lat="27.872675" lon="86.812563">
        <ele>4130.8</ele>
        <time>2022-10-23T06:18:05.000Z</time>
      </trkpt>
      <trkpt lat="27.872694" lon="86.812582">
        <ele>4131.2</ele>
        <time>2022-10-23T06:18:08.000Z</time>
      </trkpt>
      <trkpt lat="27.872707" lon="86.812602">
        <ele>4131.4</ele>
        <time>2022-10-23T06:18:10.000Z</time>
      </trkpt>
      <trkpt lat="27.872726" lon="86.812614">
        <ele>4131.6</ele>
        <time>2022-10-23T06:18:13.000Z</time>
      </trkpt>
      <trkpt lat="27.872746" lon="86.812621">
        <ele>4131.8</ele>
        <time>2022-10-23T06:18:15.000Z</time>
      </trkpt>
      <trkpt lat="27.872768" lon="86.812627">
        <ele>4132.4</ele>
        <time>2022-10-23T06:18:19.000Z</time>
      </trkpt>
      <trkpt lat="27.872787" lon="86.812627">
        <ele>4132.4</ele>
        <time>2022-10-23T06:18:22.000Z</time>
      </trkpt>
      <trkpt lat="27.87281" lon="86.812627">
        <ele>4132</ele>
        <time>2022-10-23T06:18:25.000Z</time>
      </trkpt>
      <trkpt lat="27.872794" lon="86.81264">
        <ele>4132.6</ele>
        <time>2022-10-23T06:18:29.000Z</time>
      </trkpt>
      <trkpt lat="27.872813" lon="86.812653">
        <ele>4132.2</ele>
        <time>2022-10-23T06:18:54.000Z</time>
      </trkpt>
      <trkpt lat="27.872838" lon="86.812666">
        <ele>4132</ele>
        <time>2022-10-23T06:18:57.000Z</time>
      </trkpt>
      <trkpt lat="27.872854" lon="86.812678">
        <ele>4132.2</ele>
        <time>2022-10-23T06:18:59.000Z</time>
      </trkpt>
      <trkpt lat="27.872874" lon="86.812691">
        <ele>4132.4</ele>
        <time>2022-10-23T06:19:01.000Z</time>
      </trkpt>
      <trkpt lat="27.872893" lon="86.812717">
        <ele>4133.2</ele>
        <time>2022-10-23T06:19:03.000Z</time>
      </trkpt>
      <trkpt lat="27.872912" lon="86.812723">
        <ele>4133</ele>
        <time>2022-10-23T06:19:05.000Z</time>
      </trkpt>
      <trkpt lat="27.872934" lon="86.81273">
        <ele>4133</ele>
        <time>2022-10-23T06:19:08.000Z</time>
      </trkpt>
      <trkpt lat="27.87296" lon="86.81273">
        <ele>4133</ele>
        <time>2022-10-23T06:19:11.000Z</time>
      </trkpt>
      <trkpt lat="27.872982" lon="86.812736">
        <ele>4133.2</ele>
        <time>2022-10-23T06:19:13.000Z</time>
      </trkpt>
      <trkpt lat="27.873002" lon="86.812736">
        <ele>4133.4</ele>
        <time>2022-10-23T06:19:15.000Z</time>
      </trkpt>
      <trkpt lat="27.873021" lon="86.81273">
        <ele>4133.4</ele>
        <time>2022-10-23T06:19:17.000Z</time>
      </trkpt>
      <trkpt lat="27.873046" lon="86.812736">
        <ele>4133.4</ele>
        <time>2022-10-23T06:19:20.000Z</time>
      </trkpt>
      <trkpt lat="27.873066" lon="86.812742">
        <ele>4134</ele>
        <time>2022-10-23T06:19:23.000Z</time>
      </trkpt>
      <trkpt lat="27.873091" lon="86.812742">
        <ele>4134.2</ele>
        <time>2022-10-23T06:19:26.000Z</time>
      </trkpt>
      <trkpt lat="27.87311" lon="86.812762">
        <ele>4134.2</ele>
        <time>2022-10-23T06:19:28.000Z</time>
      </trkpt>
      <trkpt lat="27.87313" lon="86.812762">
        <ele>4134.2</ele>
        <time>2022-10-23T06:19:30.000Z</time>
      </trkpt>
      <trkpt lat="27.873152" lon="86.812768">
        <ele>4134</ele>
        <time>2022-10-23T06:19:33.000Z</time>
      </trkpt>
      <trkpt lat="27.873171" lon="86.812768">
        <ele>4134</ele>
        <time>2022-10-23T06:19:36.000Z</time>
      </trkpt>
      <trkpt lat="27.873194" lon="86.812768">
        <ele>4134.4</ele>
        <time>2022-10-23T06:19:39.000Z</time>
      </trkpt>
      <trkpt lat="27.873216" lon="86.812768">
        <ele>4135</ele>
        <time>2022-10-23T06:19:42.000Z</time>
      </trkpt>
      <trkpt lat="27.873238" lon="86.812774">
        <ele>4135</ele>
        <time>2022-10-23T06:19:45.000Z</time>
      </trkpt>
      <trkpt lat="27.873264" lon="86.812781">
        <ele>4136.2</ele>
        <time>2022-10-23T06:19:48.000Z</time>
      </trkpt>
      <trkpt lat="27.873277" lon="86.8128">
        <ele>4136.6</ele>
        <time>2022-10-23T06:19:50.000Z</time>
      </trkpt>
      <trkpt lat="27.873302" lon="86.812806">
        <ele>4136.2</ele>
        <time>2022-10-23T06:19:53.000Z</time>
      </trkpt>
      <trkpt lat="27.873322" lon="86.812813">
        <ele>4136</ele>
        <time>2022-10-23T06:19:56.000Z</time>
      </trkpt>
      <trkpt lat="27.873344" lon="86.812826">
        <ele>4136.2</ele>
        <time>2022-10-23T06:19:59.000Z</time>
      </trkpt>
      <trkpt lat="27.873363" lon="86.812826">
        <ele>4136.2</ele>
        <time>2022-10-23T06:20:02.000Z</time>
      </trkpt>
      <trkpt lat="27.873382" lon="86.812826">
        <ele>4136.8</ele>
        <time>2022-10-23T06:20:05.000Z</time>
      </trkpt>
      <trkpt lat="27.873405" lon="86.812826">
        <ele>4136.6</ele>
        <time>2022-10-23T06:20:08.000Z</time>
      </trkpt>
      <trkpt lat="27.873427" lon="86.812813">
        <ele>4136.8</ele>
        <time>2022-10-23T06:20:11.000Z</time>
      </trkpt>
      <trkpt lat="27.87345" lon="86.812806">
        <ele>4137.4</ele>
        <time>2022-10-23T06:20:14.000Z</time>
      </trkpt>
      <trkpt lat="27.873475" lon="86.812787">
        <ele>4137.4</ele>
        <time>2022-10-23T06:20:17.000Z</time>
      </trkpt>
      <trkpt lat="27.873494" lon="86.812787">
        <ele>4137.4</ele>
        <time>2022-10-23T06:20:19.000Z</time>
      </trkpt>
      <trkpt lat="27.873517" lon="86.812774">
        <ele>4137.4</ele>
        <time>2022-10-23T06:20:21.000Z</time>
      </trkpt>
      <trkpt lat="27.873539" lon="86.812774">
        <ele>4137.4</ele>
        <time>2022-10-23T06:20:23.000Z</time>
      </trkpt>
      <trkpt lat="27.873568" lon="86.812774">
        <ele>4137.6</ele>
        <time>2022-10-23T06:20:26.000Z</time>
      </trkpt>
      <trkpt lat="27.873587" lon="86.812774">
        <ele>4137.4</ele>
        <time>2022-10-23T06:20:28.000Z</time>
      </trkpt>
      <trkpt lat="27.873606" lon="86.812781">
        <ele>4137</ele>
        <time>2022-10-23T06:20:30.000Z</time>
      </trkpt>
      <trkpt lat="27.873629" lon="86.8128">
        <ele>4137.8</ele>
        <time>2022-10-23T06:20:33.000Z</time>
      </trkpt>
      <trkpt lat="27.873654" lon="86.812806">
        <ele>4138</ele>
        <time>2022-10-23T06:20:37.000Z</time>
      </trkpt>
      <trkpt lat="27.873674" lon="86.812806">
        <ele>4138</ele>
        <time>2022-10-23T06:20:39.000Z</time>
      </trkpt>
      <trkpt lat="27.873693" lon="86.812806">
        <ele>4137.2</ele>
        <time>2022-10-23T06:20:41.000Z</time>
      </trkpt>
      <trkpt lat="27.873712" lon="86.812813">
        <ele>4137.2</ele>
        <time>2022-10-23T06:20:43.000Z</time>
      </trkpt>
      <trkpt lat="27.873734" lon="86.812826">
        <ele>4137.2</ele>
        <time>2022-10-23T06:20:45.000Z</time>
      </trkpt>
      <trkpt lat="27.873754" lon="86.812826">
        <ele>4137.2</ele>
        <time>2022-10-23T06:20:47.000Z</time>
      </trkpt>
      <trkpt lat="27.873779" lon="86.812819">
        <ele>4137.6</ele>
        <time>2022-10-23T06:20:50.000Z</time>
      </trkpt>
      <trkpt lat="27.873802" lon="86.812819">
        <ele>4137.6</ele>
        <time>2022-10-23T06:20:52.000Z</time>
      </trkpt>
      <trkpt lat="27.873827" lon="86.812819">
        <ele>4138</ele>
        <time>2022-10-23T06:20:55.000Z</time>
      </trkpt>
      <trkpt lat="27.873846" lon="86.812813">
        <ele>4138.6</ele>
        <time>2022-10-23T06:20:58.000Z</time>
      </trkpt>
      <trkpt lat="27.873872" lon="86.812806">
        <ele>4139.2</ele>
        <time>2022-10-23T06:21:01.000Z</time>
      </trkpt>
      <trkpt lat="27.873894" lon="86.812806">
        <ele>4139.4</ele>
        <time>2022-10-23T06:21:04.000Z</time>
      </trkpt>
      <trkpt lat="27.87392" lon="86.812806">
        <ele>4140</ele>
        <time>2022-10-23T06:21:07.000Z</time>
      </trkpt>
      <trkpt lat="27.873939" lon="86.812806">
        <ele>4140.2</ele>
        <time>2022-10-23T06:21:09.000Z</time>
      </trkpt>
      <trkpt lat="27.873962" lon="86.812819">
        <ele>4141.2</ele>
        <time>2022-10-23T06:21:12.000Z</time>
      </trkpt>
      <trkpt lat="27.873981" lon="86.812819">
        <ele>4141.4</ele>
        <time>2022-10-23T06:21:15.000Z</time>
      </trkpt>
      <trkpt lat="27.874003" lon="86.812826">
        <ele>4141.4</ele>
        <time>2022-10-23T06:21:17.000Z</time>
      </trkpt>
      <trkpt lat="27.874019" lon="86.812838">
        <ele>4141</ele>
        <time>2022-10-23T06:21:19.000Z</time>
      </trkpt>
      <trkpt lat="27.874045" lon="86.812838">
        <ele>4141.2</ele>
        <time>2022-10-23T06:21:22.000Z</time>
      </trkpt>
      <trkpt lat="27.874064" lon="86.812845">
        <ele>4141.2</ele>
        <time>2022-10-23T06:21:24.000Z</time>
      </trkpt>
      <trkpt lat="27.874086" lon="86.812826">
        <ele>4141.8</ele>
        <time>2022-10-23T06:21:27.000Z</time>
      </trkpt>
      <trkpt lat="27.874106" lon="86.812819">
        <ele>4141.8</ele>
        <time>2022-10-23T06:21:29.000Z</time>
      </trkpt>
      <trkpt lat="27.874134" lon="86.812838">
        <ele>4142.6</ele>
        <time>2022-10-23T06:21:32.000Z</time>
      </trkpt>
      <trkpt lat="27.87416" lon="86.812851">
        <ele>4142.4</ele>
        <time>2022-10-23T06:21:35.000Z</time>
      </trkpt>
      <trkpt lat="27.874179" lon="86.812864">
        <ele>4142.4</ele>
        <time>2022-10-23T06:21:38.000Z</time>
      </trkpt>
      <trkpt lat="27.874202" lon="86.812883">
        <ele>4142.4</ele>
        <time>2022-10-23T06:21:41.000Z</time>
      </trkpt>
      <trkpt lat="27.874227" lon="86.812896">
        <ele>4142.4</ele>
        <time>2022-10-23T06:21:44.000Z</time>
      </trkpt>
      <trkpt lat="27.874246" lon="86.812922">
        <ele>4142.6</ele>
        <time>2022-10-23T06:21:47.000Z</time>
      </trkpt>
      <trkpt lat="27.874272" lon="86.812928">
        <ele>4142.6</ele>
        <time>2022-10-23T06:21:50.000Z</time>
      </trkpt>
      <trkpt lat="27.874294" lon="86.812922">
        <ele>4142.4</ele>
        <time>2022-10-23T06:21:53.000Z</time>
      </trkpt>
      <trkpt lat="27.874317" lon="86.812922">
        <ele>4142.4</ele>
        <time>2022-10-23T06:21:55.000Z</time>
      </trkpt>
      <trkpt lat="27.874333" lon="86.812909">
        <ele>4142.4</ele>
        <time>2022-10-23T06:21:57.000Z</time>
      </trkpt>
      <trkpt lat="27.874358" lon="86.812902">
        <ele>4142.8</ele>
        <time>2022-10-23T06:22:00.000Z</time>
      </trkpt>
      <trkpt lat="27.874384" lon="86.812896">
        <ele>4142.8</ele>
        <time>2022-10-23T06:22:04.000Z</time>
      </trkpt>
      <trkpt lat="27.874406" lon="86.812896">
        <ele>4143.2</ele>
        <time>2022-10-23T06:22:07.000Z</time>
      </trkpt>
      <trkpt lat="27.874429" lon="86.812896">
        <ele>4143.8</ele>
        <time>2022-10-23T06:22:10.000Z</time>
      </trkpt>
      <trkpt lat="27.874451" lon="86.81289">
        <ele>4144</ele>
        <time>2022-10-23T06:22:14.000Z</time>
      </trkpt>
      <trkpt lat="27.874477" lon="86.81289">
        <ele>4144</ele>
        <time>2022-10-23T06:22:18.000Z</time>
      </trkpt>
      <trkpt lat="27.874499" lon="86.81289">
        <ele>4144</ele>
        <time>2022-10-23T06:22:21.000Z</time>
      </trkpt>
      <trkpt lat="27.874522" lon="86.81289">
        <ele>4144</ele>
        <time>2022-10-23T06:22:24.000Z</time>
      </trkpt>
      <trkpt lat="27.874541" lon="86.812883">
        <ele>4144.2</ele>
        <time>2022-10-23T06:22:27.000Z</time>
      </trkpt>
      <trkpt lat="27.874566" lon="86.81289">
        <ele>4145</ele>
        <time>2022-10-23T06:22:31.000Z</time>
      </trkpt>
      <trkpt lat="27.874586" lon="86.81289">
        <ele>4145.4</ele>
        <time>2022-10-23T06:22:35.000Z</time>
      </trkpt>
      <trkpt lat="27.874605" lon="86.81289">
        <ele>4145.8</ele>
        <time>2022-10-23T06:22:38.000Z</time>
      </trkpt>
      <trkpt lat="27.874627" lon="86.81289">
        <ele>4145.8</ele>
        <time>2022-10-23T06:22:42.000Z</time>
      </trkpt>
      <trkpt lat="27.874646" lon="86.81289">
        <ele>4146.6</ele>
        <time>2022-10-23T06:22:45.000Z</time>
      </trkpt>
      <trkpt lat="27.874672" lon="86.812896">
        <ele>4146.6</ele>
        <time>2022-10-23T06:22:48.000Z</time>
      </trkpt>
      <trkpt lat="27.874701" lon="86.812902">
        <ele>4146.2</ele>
        <time>2022-10-23T06:22:51.000Z</time>
      </trkpt>
      <trkpt lat="27.874726" lon="86.812922">
        <ele>4146.2</ele>
        <time>2022-10-23T06:22:54.000Z</time>
      </trkpt>
      <trkpt lat="27.874749" lon="86.812934">
        <ele>4146.4</ele>
        <time>2022-10-23T06:22:57.000Z</time>
      </trkpt>
      <trkpt lat="27.874768" lon="86.812947">
        <ele>4146.6</ele>
        <time>2022-10-23T06:23:00.000Z</time>
      </trkpt>
      <trkpt lat="27.874784" lon="86.81296">
        <ele>4147</ele>
        <time>2022-10-23T06:23:02.000Z</time>
      </trkpt>
      <trkpt lat="27.874806" lon="86.812966">
        <ele>4147.2</ele>
        <time>2022-10-23T06:23:05.000Z</time>
      </trkpt>
      <trkpt lat="27.874826" lon="86.812973">
        <ele>4147.4</ele>
        <time>2022-10-23T06:23:08.000Z</time>
      </trkpt>
      <trkpt lat="27.874845" lon="86.812986">
        <ele>4147.4</ele>
        <time>2022-10-23T06:23:11.000Z</time>
      </trkpt>
      <trkpt lat="27.874864" lon="86.812986">
        <ele>4148.8</ele>
        <time>2022-10-23T06:23:17.000Z</time>
      </trkpt>
      <trkpt lat="27.874883" lon="86.812998">
        <ele>4148.4</ele>
        <time>2022-10-23T06:23:20.000Z</time>
      </trkpt>
      <trkpt lat="27.874902" lon="86.813011">
        <ele>4149</ele>
        <time>2022-10-23T06:23:24.000Z</time>
      </trkpt>
      <trkpt lat="27.874925" lon="86.813011">
        <ele>4149.6</ele>
        <time>2022-10-23T06:23:27.000Z</time>
      </trkpt>
      <trkpt lat="27.874944" lon="86.813018">
        <ele>4149.4</ele>
        <time>2022-10-23T06:23:30.000Z</time>
      </trkpt>
      <trkpt lat="27.874966" lon="86.813018">
        <ele>4149.8</ele>
        <time>2022-10-23T06:23:33.000Z</time>
      </trkpt>
      <trkpt lat="27.874986" lon="86.813037">
        <ele>4150</ele>
        <time>2022-10-23T06:23:38.000Z</time>
      </trkpt>
      <trkpt lat="27.875002" lon="86.81305">
        <ele>4149.6</ele>
        <time>2022-10-23T06:23:43.000Z</time>
      </trkpt>
      <trkpt lat="27.874992" lon="86.813075">
        <ele>4149.6</ele>
        <time>2022-10-23T06:23:49.000Z</time>
      </trkpt>
      <trkpt lat="27.875018" lon="86.813088">
        <ele>4149.6</ele>
        <time>2022-10-23T06:25:40.000Z</time>
      </trkpt>
      <trkpt lat="27.875043" lon="86.813094">
        <ele>4149.6</ele>
        <time>2022-10-23T06:25:42.000Z</time>
      </trkpt>
      <trkpt lat="27.875072" lon="86.813094">
        <ele>4150.2</ele>
        <time>2022-10-23T06:25:44.000Z</time>
      </trkpt>
      <trkpt lat="27.875091" lon="86.813101">
        <ele>4150.6</ele>
        <time>2022-10-23T06:25:46.000Z</time>
      </trkpt>
      <trkpt lat="27.875114" lon="86.813094">
        <ele>4151.4</ele>
        <time>2022-10-23T06:25:49.000Z</time>
      </trkpt>
      <trkpt lat="27.875136" lon="86.813107">
        <ele>4152</ele>
        <time>2022-10-23T06:25:52.000Z</time>
      </trkpt>
      <trkpt lat="27.875152" lon="86.813126">
        <ele>4152</ele>
        <time>2022-10-23T06:25:55.000Z</time>
      </trkpt>
      <trkpt lat="27.875174" lon="86.813139">
        <ele>4152.6</ele>
        <time>2022-10-23T06:25:59.000Z</time>
      </trkpt>
      <trkpt lat="27.875187" lon="86.813158">
        <ele>4152.6</ele>
        <time>2022-10-23T06:26:01.000Z</time>
      </trkpt>
      <trkpt lat="27.875206" lon="86.813165">
        <ele>4152.2</ele>
        <time>2022-10-23T06:26:04.000Z</time>
      </trkpt>
      <trkpt lat="27.875226" lon="86.813178">
        <ele>4152</ele>
        <time>2022-10-23T06:26:07.000Z</time>
      </trkpt>
      <trkpt lat="27.875245" lon="86.813184">
        <ele>4152.4</ele>
        <time>2022-10-23T06:26:09.000Z</time>
      </trkpt>
      <trkpt lat="27.875267" lon="86.813171">
        <ele>4151.8</ele>
        <time>2022-10-23T06:26:12.000Z</time>
      </trkpt>
      <trkpt lat="27.875286" lon="86.813171">
        <ele>4152.2</ele>
        <time>2022-10-23T06:26:15.000Z</time>
      </trkpt>
      <trkpt lat="27.875306" lon="86.813165">
        <ele>4152.8</ele>
        <time>2022-10-23T06:26:18.000Z</time>
      </trkpt>
      <trkpt lat="27.875325" lon="86.813165">
        <ele>4153.6</ele>
        <time>2022-10-23T06:26:22.000Z</time>
      </trkpt>
      <trkpt lat="27.875341" lon="86.813178">
        <ele>4154.4</ele>
        <time>2022-10-23T06:26:30.000Z</time>
      </trkpt>
      <trkpt lat="27.87536" lon="86.813178">
        <ele>4155.4</ele>
        <time>2022-10-23T06:26:34.000Z</time>
      </trkpt>
      <trkpt lat="27.875379" lon="86.813171">
        <ele>4155.6</ele>
        <time>2022-10-23T06:26:37.000Z</time>
      </trkpt>
      <trkpt lat="27.875405" lon="86.813171">
        <ele>4156.2</ele>
        <time>2022-10-23T06:26:41.000Z</time>
      </trkpt>
      <trkpt lat="27.875424" lon="86.813178">
        <ele>4156.4</ele>
        <time>2022-10-23T06:26:44.000Z</time>
      </trkpt>
      <trkpt lat="27.875443" lon="86.813184">
        <ele>4156.2</ele>
        <time>2022-10-23T06:26:47.000Z</time>
      </trkpt>
      <trkpt lat="27.875462" lon="86.813184">
        <ele>4157</ele>
        <time>2022-10-23T06:26:51.000Z</time>
      </trkpt>
      <trkpt lat="27.875482" lon="86.813184">
        <ele>4158</ele>
        <time>2022-10-23T06:26:55.000Z</time>
      </trkpt>
      <trkpt lat="27.875501" lon="86.813197">
        <ele>4158</ele>
        <time>2022-10-23T06:26:58.000Z</time>
      </trkpt>
      <trkpt lat="27.875523" lon="86.81321">
        <ele>4157.6</ele>
        <time>2022-10-23T06:27:01.000Z</time>
      </trkpt>
      <trkpt lat="27.875549" lon="86.813216">
        <ele>4158.6</ele>
        <time>2022-10-23T06:27:27.000Z</time>
      </trkpt>
      <trkpt lat="27.875574" lon="86.813222">
        <ele>4157.8</ele>
        <time>2022-10-23T06:27:29.000Z</time>
      </trkpt>
      <trkpt lat="27.875603" lon="86.813216">
        <ele>4157.6</ele>
        <time>2022-10-23T06:27:31.000Z</time>
      </trkpt>
      <trkpt lat="27.875632" lon="86.813216">
        <ele>4157.6</ele>
        <time>2022-10-23T06:27:33.000Z</time>
      </trkpt>
      <trkpt lat="27.875658" lon="86.813216">
        <ele>4157.8</ele>
        <time>2022-10-23T06:27:35.000Z</time>
      </trkpt>
      <trkpt lat="27.87568" lon="86.81321">
        <ele>4157.8</ele>
        <time>2022-10-23T06:27:38.000Z</time>
      </trkpt>
      <trkpt lat="27.875699" lon="86.813216">
        <ele>4157.8</ele>
        <time>2022-10-23T06:27:41.000Z</time>
      </trkpt>
      <trkpt lat="27.875718" lon="86.813222">
        <ele>4158.6</ele>
        <time>2022-10-23T06:27:44.000Z</time>
      </trkpt>
      <trkpt lat="27.875731" lon="86.813242">
        <ele>4159.2</ele>
        <time>2022-10-23T06:27:48.000Z</time>
      </trkpt>
      <trkpt lat="27.87575" lon="86.813216">
        <ele>4159.8</ele>
        <time>2022-10-23T06:27:51.000Z</time>
      </trkpt>
      <trkpt lat="27.87577" lon="86.81321">
        <ele>4159.4</ele>
        <time>2022-10-23T06:27:53.000Z</time>
      </trkpt>
      <trkpt lat="27.875789" lon="86.813222">
        <ele>4160.8</ele>
        <time>2022-10-23T06:27:57.000Z</time>
      </trkpt>
      <trkpt lat="27.875808" lon="86.813222">
        <ele>4161.4</ele>
        <time>2022-10-23T06:28:00.000Z</time>
      </trkpt>
      <trkpt lat="27.87583" lon="86.813216">
        <ele>4162</ele>
        <time>2022-10-23T06:28:04.000Z</time>
      </trkpt>
      <trkpt lat="27.87585" lon="86.813216">
        <ele>4161.6</ele>
        <time>2022-10-23T06:28:07.000Z</time>
      </trkpt>
      <trkpt lat="27.875878" lon="86.81321">
        <ele>4161.2</ele>
        <time>2022-10-23T06:28:11.000Z</time>
      </trkpt>
      <trkpt lat="27.875898" lon="86.813203">
        <ele>4160.4</ele>
        <time>2022-10-23T06:28:14.000Z</time>
      </trkpt>
      <trkpt lat="27.875917" lon="86.813203">
        <ele>4159.8</ele>
        <time>2022-10-23T06:28:16.000Z</time>
      </trkpt>
      <trkpt lat="27.875936" lon="86.81321">
        <ele>4159.4</ele>
        <time>2022-10-23T06:28:18.000Z</time>
      </trkpt>
      <trkpt lat="27.875955" lon="86.813235">
        <ele>4159.4</ele>
        <time>2022-10-23T06:28:21.000Z</time>
      </trkpt>
      <trkpt lat="27.875971" lon="86.813254">
        <ele>4159.6</ele>
        <time>2022-10-23T06:28:24.000Z</time>
      </trkpt>
      <trkpt lat="27.875981" lon="86.81328">
        <ele>4160</ele>
        <time>2022-10-23T06:28:27.000Z</time>
      </trkpt>
      <trkpt lat="27.875997" lon="86.813299">
        <ele>4161</ele>
        <time>2022-10-23T06:28:30.000Z</time>
      </trkpt>
      <trkpt lat="27.876006" lon="86.813318">
        <ele>4161.4</ele>
        <time>2022-10-23T06:28:32.000Z</time>
      </trkpt>
      <trkpt lat="27.876022" lon="86.813338">
        <ele>4161.6</ele>
        <time>2022-10-23T06:28:36.000Z</time>
      </trkpt>
      <trkpt lat="27.876045" lon="86.813357">
        <ele>4161.8</ele>
        <time>2022-10-23T06:28:44.000Z</time>
      </trkpt>
      <trkpt lat="27.876061" lon="86.813376">
        <ele>4162.6</ele>
        <time>2022-10-23T06:28:47.000Z</time>
      </trkpt>
      <trkpt lat="27.87608" lon="86.813382">
        <ele>4162.6</ele>
        <time>2022-10-23T06:28:50.000Z</time>
      </trkpt>
      <trkpt lat="27.876099" lon="86.813382">
        <ele>4162.6</ele>
        <time>2022-10-23T06:28:52.000Z</time>
      </trkpt>
      <trkpt lat="27.876115" lon="86.813402">
        <ele>4162.8</ele>
        <time>2022-10-23T06:28:54.000Z</time>
      </trkpt>
      <trkpt lat="27.876138" lon="86.813408">
        <ele>4163.4</ele>
        <time>2022-10-23T06:28:57.000Z</time>
      </trkpt>
      <trkpt lat="27.876157" lon="86.813421">
        <ele>4163.2</ele>
        <time>2022-10-23T06:29:00.000Z</time>
      </trkpt>
      <trkpt lat="27.876176" lon="86.813421">
        <ele>4163.2</ele>
        <time>2022-10-23T06:29:03.000Z</time>
      </trkpt>
      <trkpt lat="27.876195" lon="86.813434">
        <ele>4163.6</ele>
        <time>2022-10-23T06:29:06.000Z</time>
      </trkpt>
      <trkpt lat="27.876218" lon="86.813434">
        <ele>4163.8</ele>
        <time>2022-10-23T06:29:09.000Z</time>
      </trkpt>
      <trkpt lat="27.876237" lon="86.81344">
        <ele>4164</ele>
        <time>2022-10-23T06:29:12.000Z</time>
      </trkpt>
      <trkpt lat="27.876259" lon="86.813446">
        <ele>4164.2</ele>
        <time>2022-10-23T06:29:15.000Z</time>
      </trkpt>
      <trkpt lat="27.876288" lon="86.813459">
        <ele>4164.8</ele>
        <time>2022-10-23T06:29:19.000Z</time>
      </trkpt>
      <trkpt lat="27.876307" lon="86.813478">
        <ele>4165</ele>
        <time>2022-10-23T06:29:22.000Z</time>
      </trkpt>
      <trkpt lat="27.876326" lon="86.813485">
        <ele>4165.6</ele>
        <time>2022-10-23T06:29:26.000Z</time>
      </trkpt>
      <trkpt lat="27.876342" lon="86.813498">
        <ele>4165.6</ele>
        <time>2022-10-23T06:29:29.000Z</time>
      </trkpt>
      <trkpt lat="27.876352" lon="86.813517">
        <ele>4165.6</ele>
        <time>2022-10-23T06:29:31.000Z</time>
      </trkpt>
      <trkpt lat="27.876368" lon="86.813536">
        <ele>4166</ele>
        <time>2022-10-23T06:29:35.000Z</time>
      </trkpt>
      <trkpt lat="27.876381" lon="86.813555">
        <ele>4166.8</ele>
        <time>2022-10-23T06:29:37.000Z</time>
      </trkpt>
      <trkpt lat="27.8764" lon="86.813562">
        <ele>4167.2</ele>
        <time>2022-10-23T06:29:41.000Z</time>
      </trkpt>
      <trkpt lat="27.876419" lon="86.813568">
        <ele>4167.6</ele>
        <time>2022-10-23T06:29:45.000Z</time>
      </trkpt>
      <trkpt lat="27.876442" lon="86.813581">
        <ele>4167.4</ele>
        <time>2022-10-23T06:29:49.000Z</time>
      </trkpt>
      <trkpt lat="27.876458" lon="86.8136">
        <ele>4167.6</ele>
        <time>2022-10-23T06:29:53.000Z</time>
      </trkpt>
      <trkpt lat="27.876477" lon="86.8136">
        <ele>4168.4</ele>
        <time>2022-10-23T06:29:56.000Z</time>
      </trkpt>
      <trkpt lat="27.876496" lon="86.813613">
        <ele>4168.6</ele>
        <time>2022-10-23T06:30:00.000Z</time>
      </trkpt>
      <trkpt lat="27.876506" lon="86.813632">
        <ele>4168.6</ele>
        <time>2022-10-23T06:30:02.000Z</time>
      </trkpt>
      <trkpt lat="27.876525" lon="86.813651">
        <ele>4168.6</ele>
        <time>2022-10-23T06:30:06.000Z</time>
      </trkpt>
      <trkpt lat="27.876541" lon="86.81367">
        <ele>4169.4</ele>
        <time>2022-10-23T06:30:10.000Z</time>
      </trkpt>
      <trkpt lat="27.876557" lon="86.813683">
        <ele>4170</ele>
        <time>2022-10-23T06:30:14.000Z</time>
      </trkpt>
      <trkpt lat="27.876579" lon="86.813696">
        <ele>4170.4</ele>
        <time>2022-10-23T06:30:19.000Z</time>
      </trkpt>
      <trkpt lat="27.876595" lon="86.813715">
        <ele>4170.8</ele>
        <time>2022-10-23T06:30:22.000Z</time>
      </trkpt>
      <trkpt lat="27.876611" lon="86.813728">
        <ele>4171.4</ele>
        <time>2022-10-23T06:30:27.000Z</time>
      </trkpt>
      <trkpt lat="27.87663" lon="86.813741">
        <ele>4172.6</ele>
        <time>2022-10-23T06:30:32.000Z</time>
      </trkpt>
      <trkpt lat="27.876646" lon="86.81376">
        <ele>4173.4</ele>
        <time>2022-10-23T06:30:36.000Z</time>
      </trkpt>
      <trkpt lat="27.876666" lon="86.813766">
        <ele>4173.8</ele>
        <time>2022-10-23T06:30:39.000Z</time>
      </trkpt>
      <trkpt lat="27.876685" lon="86.813779">
        <ele>4174</ele>
        <time>2022-10-23T06:30:44.000Z</time>
      </trkpt>
      <trkpt lat="27.876701" lon="86.813792">
        <ele>4175</ele>
        <time>2022-10-23T06:30:48.000Z</time>
      </trkpt>
      <trkpt lat="27.87672" lon="86.813798">
        <ele>4175.2</ele>
        <time>2022-10-23T06:30:52.000Z</time>
      </trkpt>
      <trkpt lat="27.876739" lon="86.813798">
        <ele>4175.4</ele>
        <time>2022-10-23T06:30:56.000Z</time>
      </trkpt>
      <trkpt lat="27.876762" lon="86.813798">
        <ele>4176.2</ele>
        <time>2022-10-23T06:31:00.000Z</time>
      </trkpt>
      <trkpt lat="27.876781" lon="86.813798">
        <ele>4176.8</ele>
        <time>2022-10-23T06:31:04.000Z</time>
      </trkpt>
      <trkpt lat="27.8768" lon="86.813792">
        <ele>4177.4</ele>
        <time>2022-10-23T06:31:08.000Z</time>
      </trkpt>
      <trkpt lat="27.876819" lon="86.813779">
        <ele>4177.2</ele>
        <time>2022-10-23T06:31:11.000Z</time>
      </trkpt>
      <trkpt lat="27.876838" lon="86.813779">
        <ele>4177.2</ele>
        <time>2022-10-23T06:31:14.000Z</time>
      </trkpt>
      <trkpt lat="27.876851" lon="86.813798">
        <ele>4177.6</ele>
        <time>2022-10-23T06:31:16.000Z</time>
      </trkpt>
      <trkpt lat="27.876874" lon="86.813805">
        <ele>4177.2</ele>
        <time>2022-10-23T06:31:20.000Z</time>
      </trkpt>
      <trkpt lat="27.876893" lon="86.813818">
        <ele>4177.2</ele>
        <time>2022-10-23T06:31:23.000Z</time>
      </trkpt>
      <trkpt lat="27.876912" lon="86.813818">
        <ele>4177.6</ele>
        <time>2022-10-23T06:31:27.000Z</time>
      </trkpt>
      <trkpt lat="27.876928" lon="86.81383">
        <ele>4177.8</ele>
        <time>2022-10-23T06:31:30.000Z</time>
      </trkpt>
      <trkpt lat="27.876941" lon="86.81385">
        <ele>4177.6</ele>
        <time>2022-10-23T06:31:33.000Z</time>
      </trkpt>
      <trkpt lat="27.876944" lon="86.813875">
        <ele>4177.8</ele>
        <time>2022-10-23T06:31:36.000Z</time>
      </trkpt>
      <trkpt lat="27.87695" lon="86.813894">
        <ele>4178</ele>
        <time>2022-10-23T06:31:39.000Z</time>
      </trkpt>
      <trkpt lat="27.876957" lon="86.81392">
        <ele>4178.2</ele>
        <time>2022-10-23T06:31:42.000Z</time>
      </trkpt>
      <trkpt lat="27.876963" lon="86.813952">
        <ele>4178.4</ele>
        <time>2022-10-23T06:31:47.000Z</time>
      </trkpt>
      <trkpt lat="27.876973" lon="86.813971">
        <ele>4178.4</ele>
        <time>2022-10-23T06:31:50.000Z</time>
      </trkpt>
      <trkpt lat="27.876979" lon="86.81399">
        <ele>4179</ele>
        <time>2022-10-23T06:31:53.000Z</time>
      </trkpt>
      <trkpt lat="27.876998" lon="86.81399">
        <ele>4178.4</ele>
        <time>2022-10-23T06:32:17.000Z</time>
      </trkpt>
      <trkpt lat="27.877027" lon="86.814003">
        <ele>4178.6</ele>
        <time>2022-10-23T06:32:20.000Z</time>
      </trkpt>
      <trkpt lat="27.877056" lon="86.81401">
        <ele>4179.4</ele>
        <time>2022-10-23T06:32:23.000Z</time>
      </trkpt>
      <trkpt lat="27.877075" lon="86.814016">
        <ele>4179.6</ele>
        <time>2022-10-23T06:32:25.000Z</time>
      </trkpt>
      <trkpt lat="27.877101" lon="86.81401">
        <ele>4180.4</ele>
        <time>2022-10-23T06:32:29.000Z</time>
      </trkpt>
      <trkpt lat="27.87712" lon="86.814016">
        <ele>4181.4</ele>
        <time>2022-10-23T06:32:32.000Z</time>
      </trkpt>
      <trkpt lat="27.877142" lon="86.814016">
        <ele>4181.8</ele>
        <time>2022-10-23T06:32:35.000Z</time>
      </trkpt>
      <trkpt lat="27.877162" lon="86.814016">
        <ele>4182</ele>
        <time>2022-10-23T06:32:38.000Z</time>
      </trkpt>
      <trkpt lat="27.877184" lon="86.814016">
        <ele>4181.8</ele>
        <time>2022-10-23T06:32:41.000Z</time>
      </trkpt>
      <trkpt lat="27.877206" lon="86.81401">
        <ele>4183</ele>
        <time>2022-10-23T06:32:45.000Z</time>
      </trkpt>
      <trkpt lat="27.877226" lon="86.81401">
        <ele>4183</ele>
        <time>2022-10-23T06:32:49.000Z</time>
      </trkpt>
      <trkpt lat="27.877242" lon="86.81399">
        <ele>4182</ele>
        <time>2022-10-23T06:32:53.000Z</time>
      </trkpt>
      <trkpt lat="27.877261" lon="86.814016">
        <ele>4183.2</ele>
        <time>2022-10-23T06:33:11.000Z</time>
      </trkpt>
      <trkpt lat="27.87727" lon="86.814042">
        <ele>4183</ele>
        <time>2022-10-23T06:33:13.000Z</time>
      </trkpt>
      <trkpt lat="27.877286" lon="86.814054">
        <ele>4182</ele>
        <time>2022-10-23T06:33:15.000Z</time>
      </trkpt>
      <trkpt lat="27.877309" lon="86.814074">
        <ele>4181.2</ele>
        <time>2022-10-23T06:33:17.000Z</time>
      </trkpt>
      <trkpt lat="27.877334" lon="86.81408">
        <ele>4181</ele>
        <time>2022-10-23T06:33:19.000Z</time>
      </trkpt>
      <trkpt lat="27.87735" lon="86.814093">
        <ele>4181.6</ele>
        <time>2022-10-23T06:33:21.000Z</time>
      </trkpt>
      <trkpt lat="27.87737" lon="86.814099">
        <ele>4181.6</ele>
        <time>2022-10-23T06:33:23.000Z</time>
      </trkpt>
      <trkpt lat="27.877389" lon="86.814118">
        <ele>4183.4</ele>
        <time>2022-10-23T06:33:26.000Z</time>
      </trkpt>
      <trkpt lat="27.877408" lon="86.814131">
        <ele>4183.2</ele>
        <time>2022-10-23T06:33:28.000Z</time>
      </trkpt>
      <trkpt lat="27.877434" lon="86.81415">
        <ele>4182</ele>
        <time>2022-10-23T06:33:31.000Z</time>
      </trkpt>
      <trkpt lat="27.877459" lon="86.814163">
        <ele>4182.8</ele>
        <time>2022-10-23T06:33:34.000Z</time>
      </trkpt>
      <trkpt lat="27.877478" lon="86.81417">
        <ele>4183.4</ele>
        <time>2022-10-23T06:33:36.000Z</time>
      </trkpt>
      <trkpt lat="27.877498" lon="86.814176">
        <ele>4183.6</ele>
        <time>2022-10-23T06:33:39.000Z</time>
      </trkpt>
      <trkpt lat="27.877514" lon="86.814189">
        <ele>4184</ele>
        <time>2022-10-23T06:33:41.000Z</time>
      </trkpt>
      <trkpt lat="27.877542" lon="86.814202">
        <ele>4183.8</ele>
        <time>2022-10-23T06:33:44.000Z</time>
      </trkpt>
      <trkpt lat="27.877568" lon="86.814208">
        <ele>4183.6</ele>
        <time>2022-10-23T06:33:46.000Z</time>
      </trkpt>
      <trkpt lat="27.877597" lon="86.814214">
        <ele>4183</ele>
        <time>2022-10-23T06:33:48.000Z</time>
      </trkpt>
      <trkpt lat="27.87761" lon="86.814234">
        <ele>4183</ele>
        <time>2022-10-23T06:33:50.000Z</time>
      </trkpt>
      <trkpt lat="27.877622" lon="86.814214">
        <ele>4183</ele>
        <time>2022-10-23T06:33:52.000Z</time>
      </trkpt>
      <trkpt lat="27.877654" lon="86.814208">
        <ele>4183.6</ele>
        <time>2022-10-23T06:33:55.000Z</time>
      </trkpt>
      <trkpt lat="27.877674" lon="86.814202">
        <ele>4183.2</ele>
        <time>2022-10-23T06:33:58.000Z</time>
      </trkpt>
      <trkpt lat="27.877693" lon="86.814202">
        <ele>4184.8</ele>
        <time>2022-10-23T06:34:03.000Z</time>
      </trkpt>
      <trkpt lat="27.877715" lon="86.814195">
        <ele>4185</ele>
        <time>2022-10-23T06:34:06.000Z</time>
      </trkpt>
      <trkpt lat="27.877738" lon="86.814189">
        <ele>4186</ele>
        <time>2022-10-23T06:34:10.000Z</time>
      </trkpt>
      <trkpt lat="27.877763" lon="86.814195">
        <ele>4186</ele>
        <time>2022-10-23T06:34:13.000Z</time>
      </trkpt>
      <trkpt lat="27.877782" lon="86.814195">
        <ele>4186</ele>
        <time>2022-10-23T06:34:15.000Z</time>
      </trkpt>
      <trkpt lat="27.877802" lon="86.814202">
        <ele>4185.4</ele>
        <time>2022-10-23T06:34:18.000Z</time>
      </trkpt>
      <trkpt lat="27.877824" lon="86.814208">
        <ele>4185.6</ele>
        <time>2022-10-23T06:34:21.000Z</time>
      </trkpt>
      <trkpt lat="27.877853" lon="86.814214">
        <ele>4185.6</ele>
        <time>2022-10-23T06:34:31.000Z</time>
      </trkpt>
      <trkpt lat="27.877872" lon="86.814208">
        <ele>4185.4</ele>
        <time>2022-10-23T06:34:33.000Z</time>
      </trkpt>
      <trkpt lat="27.877898" lon="86.814202">
        <ele>4185.4</ele>
        <time>2022-10-23T06:34:36.000Z</time>
      </trkpt>
      <trkpt lat="27.877914" lon="86.814189">
        <ele>4185.4</ele>
        <time>2022-10-23T06:34:38.000Z</time>
      </trkpt>
      <trkpt lat="27.877939" lon="86.814176">
        <ele>4186.4</ele>
        <time>2022-10-23T06:34:41.000Z</time>
      </trkpt>
      <trkpt lat="27.877962" lon="86.81417">
        <ele>4186.4</ele>
        <time>2022-10-23T06:34:43.000Z</time>
      </trkpt>
      <trkpt lat="27.877981" lon="86.814176">
        <ele>4185.6</ele>
        <time>2022-10-23T06:34:45.000Z</time>
      </trkpt>
      <trkpt lat="27.877994" lon="86.814195">
        <ele>4184.8</ele>
        <time>2022-10-23T06:35:26.000Z</time>
      </trkpt>
      <trkpt lat="27.878016" lon="86.814189">
        <ele>4185.2</ele>
        <time>2022-10-23T06:35:28.000Z</time>
      </trkpt>
      <trkpt lat="27.878045" lon="86.814176">
        <ele>4184.8</ele>
        <time>2022-10-23T06:35:30.000Z</time>
      </trkpt>
      <trkpt lat="27.878067" lon="86.81417">
        <ele>4185</ele>
        <time>2022-10-23T06:35:32.000Z</time>
      </trkpt>
      <trkpt lat="27.878096" lon="86.814157">
        <ele>4186.2</ele>
        <time>2022-10-23T06:35:35.000Z</time>
      </trkpt>
      <trkpt lat="27.878115" lon="86.814138">
        <ele>4185</ele>
        <time>2022-10-23T06:35:38.000Z</time>
      </trkpt>
      <trkpt lat="27.878138" lon="86.814125">
        <ele>4184.4</ele>
        <time>2022-10-23T06:35:41.000Z</time>
      </trkpt>
      <trkpt lat="27.878163" lon="86.814112">
        <ele>4184.4</ele>
        <time>2022-10-23T06:35:44.000Z</time>
      </trkpt>
      <trkpt lat="27.878179" lon="86.814093">
        <ele>4184.4</ele>
        <time>2022-10-23T06:35:46.000Z</time>
      </trkpt>
      <trkpt lat="27.878202" lon="86.814086">
        <ele>4184.6</ele>
        <time>2022-10-23T06:35:49.000Z</time>
      </trkpt>
      <trkpt lat="27.878221" lon="86.81408">
        <ele>4184.4</ele>
        <time>2022-10-23T06:35:51.000Z</time>
      </trkpt>
      <trkpt lat="27.87824" lon="86.814054">
        <ele>4184.4</ele>
        <time>2022-10-23T06:35:53.000Z</time>
      </trkpt>
      <trkpt lat="27.878253" lon="86.814035">
        <ele>4183.8</ele>
        <time>2022-10-23T06:35:56.000Z</time>
      </trkpt>
      <trkpt lat="27.878259" lon="86.81401">
        <ele>4184.4</ele>
        <time>2022-10-23T06:35:58.000Z</time>
      </trkpt>
      <trkpt lat="27.878282" lon="86.813997">
        <ele>4184.2</ele>
        <time>2022-10-23T06:36:01.000Z</time>
      </trkpt>
      <trkpt lat="27.878304" lon="86.81399">
        <ele>4184.6</ele>
        <time>2022-10-23T06:36:04.000Z</time>
      </trkpt>
      <trkpt lat="27.878323" lon="86.81399">
        <ele>4184.6</ele>
        <time>2022-10-23T06:36:06.000Z</time>
      </trkpt>
      <trkpt lat="27.878342" lon="86.81399">
        <ele>4184.4</ele>
        <time>2022-10-23T06:36:08.000Z</time>
      </trkpt>
      <trkpt lat="27.878371" lon="86.813997">
        <ele>4184</ele>
        <time>2022-10-23T06:36:11.000Z</time>
      </trkpt>
      <trkpt lat="27.878394" lon="86.81399">
        <ele>4183.8</ele>
        <time>2022-10-23T06:36:14.000Z</time>
      </trkpt>
      <trkpt lat="27.87841" lon="86.813978">
        <ele>4184</ele>
        <time>2022-10-23T06:36:16.000Z</time>
      </trkpt>
      <trkpt lat="27.878429" lon="86.813971">
        <ele>4184.8</ele>
        <time>2022-10-23T06:36:20.000Z</time>
      </trkpt>
      <trkpt lat="27.878454" lon="86.813965">
        <ele>4185</ele>
        <time>2022-10-23T06:36:23.000Z</time>
      </trkpt>
      <trkpt lat="27.87848" lon="86.813978">
        <ele>4185.4</ele>
        <time>2022-10-23T06:36:26.000Z</time>
      </trkpt>
      <trkpt lat="27.878502" lon="86.813997">
        <ele>4186.2</ele>
        <time>2022-10-23T06:36:29.000Z</time>
      </trkpt>
      <trkpt lat="27.878522" lon="86.81401">
        <ele>4186.2</ele>
        <time>2022-10-23T06:36:32.000Z</time>
      </trkpt>
      <trkpt lat="27.878598" lon="86.814029">
        <ele>4186.8</ele>
        <time>2022-10-23T06:38:37.000Z</time>
      </trkpt>
      <trkpt lat="27.878582" lon="86.814016">
        <ele>4186.8</ele>
        <time>2022-10-23T06:38:38.000Z</time>
      </trkpt>
      <trkpt lat="27.87855" lon="86.814016">
        <ele>4186.8</ele>
        <time>2022-10-23T06:38:44.000Z</time>
      </trkpt>
      <trkpt lat="27.878566" lon="86.814035">
        <ele>4186.4</ele>
        <time>2022-10-23T06:38:47.000Z</time>
      </trkpt>
      <trkpt lat="27.878586" lon="86.814029">
        <ele>4187</ele>
        <time>2022-10-23T06:38:51.000Z</time>
      </trkpt>
      <trkpt lat="27.878611" lon="86.814035">
        <ele>4187.6</ele>
        <time>2022-10-23T06:38:56.000Z</time>
      </trkpt>
      <trkpt lat="27.878627" lon="86.814054">
        <ele>4185.6</ele>
        <time>2022-10-23T06:39:22.000Z</time>
      </trkpt>
      <trkpt lat="27.878611" lon="86.814042">
        <ele>4186.8</ele>
        <time>2022-10-23T06:39:32.000Z</time>
      </trkpt>
      <trkpt lat="27.87863" lon="86.814054">
        <ele>4187.8</ele>
        <time>2022-10-23T06:39:36.000Z</time>
      </trkpt>
      <trkpt lat="27.87865" lon="86.814074">
        <ele>4187.6</ele>
        <time>2022-10-23T06:39:39.000Z</time>
      </trkpt>
      <trkpt lat="27.878669" lon="86.814086">
        <ele>4187</ele>
        <time>2022-10-23T06:39:42.000Z</time>
      </trkpt>
      <trkpt lat="27.878688" lon="86.814086">
        <ele>4187.8</ele>
        <time>2022-10-23T06:39:46.000Z</time>
      </trkpt>
      <trkpt lat="27.878714" lon="86.814112">
        <ele>4186.8</ele>
        <time>2022-10-23T06:41:16.000Z</time>
      </trkpt>
      <trkpt lat="27.878736" lon="86.814131">
        <ele>4186.6</ele>
        <time>2022-10-23T06:41:18.000Z</time>
      </trkpt>
      <trkpt lat="27.878749" lon="86.81415">
        <ele>4186.8</ele>
        <time>2022-10-23T06:41:19.000Z</time>
      </trkpt>
      <trkpt lat="27.878774" lon="86.81417">
        <ele>4186.8</ele>
        <time>2022-10-23T06:41:21.000Z</time>
      </trkpt>
      <trkpt lat="27.8788" lon="86.814189">
        <ele>4186.8</ele>
        <time>2022-10-23T06:41:23.000Z</time>
      </trkpt>
      <trkpt lat="27.878819" lon="86.814208">
        <ele>4186.8</ele>
        <time>2022-10-23T06:41:25.000Z</time>
      </trkpt>
      <trkpt lat="27.878838" lon="86.814214">
        <ele>4187</ele>
        <time>2022-10-23T06:41:27.000Z</time>
      </trkpt>
      <trkpt lat="27.878854" lon="86.814234">
        <ele>4186.8</ele>
        <time>2022-10-23T06:41:29.000Z</time>
      </trkpt>
      <trkpt lat="27.878874" lon="86.814246">
        <ele>4186.2</ele>
        <time>2022-10-23T06:41:31.000Z</time>
      </trkpt>
      <trkpt lat="27.87889" lon="86.814272">
        <ele>4186.2</ele>
        <time>2022-10-23T06:41:33.000Z</time>
      </trkpt>
      <trkpt lat="27.878909" lon="86.814278">
        <ele>4187.2</ele>
        <time>2022-10-23T06:41:35.000Z</time>
      </trkpt>
      <trkpt lat="27.878928" lon="86.814285">
        <ele>4187</ele>
        <time>2022-10-23T06:41:37.000Z</time>
      </trkpt>
      <trkpt lat="27.878944" lon="86.814298">
        <ele>4186.8</ele>
        <time>2022-10-23T06:41:39.000Z</time>
      </trkpt>
      <trkpt lat="27.878963" lon="86.814317">
        <ele>4186.8</ele>
        <time>2022-10-23T06:41:41.000Z</time>
      </trkpt>
      <trkpt lat="27.878979" lon="86.814336">
        <ele>4186.8</ele>
        <time>2022-10-23T06:41:43.000Z</time>
      </trkpt>
      <trkpt lat="27.878989" lon="86.814355">
        <ele>4186.2</ele>
        <time>2022-10-23T06:41:44.000Z</time>
      </trkpt>
      <trkpt lat="27.879005" lon="86.814374">
        <ele>4185.6</ele>
        <time>2022-10-23T06:41:47.000Z</time>
      </trkpt>
      <trkpt lat="27.879011" lon="86.814394">
        <ele>4186</ele>
        <time>2022-10-23T06:41:48.000Z</time>
      </trkpt>
      <trkpt lat="27.879034" lon="86.814426">
        <ele>4185.4</ele>
        <time>2022-10-23T06:41:51.000Z</time>
      </trkpt>
      <trkpt lat="27.879053" lon="86.814445">
        <ele>4185.4</ele>
        <time>2022-10-23T06:41:54.000Z</time>
      </trkpt>
      <trkpt lat="27.879072" lon="86.814458">
        <ele>4185.2</ele>
        <time>2022-10-23T06:41:56.000Z</time>
      </trkpt>
      <trkpt lat="27.879088" lon="86.814477">
        <ele>4185.6</ele>
        <time>2022-10-23T06:41:58.000Z</time>
      </trkpt>
      <trkpt lat="27.879107" lon="86.81449">
        <ele>4185.6</ele>
        <time>2022-10-23T06:42:00.000Z</time>
      </trkpt>
      <trkpt lat="27.879126" lon="86.814509">
        <ele>4185.2</ele>
        <time>2022-10-23T06:42:02.000Z</time>
      </trkpt>
      <trkpt lat="27.879149" lon="86.814522">
        <ele>4185.4</ele>
        <time>2022-10-23T06:42:05.000Z</time>
      </trkpt>
      <trkpt lat="27.879174" lon="86.814534">
        <ele>4185.8</ele>
        <time>2022-10-23T06:42:08.000Z</time>
      </trkpt>
      <trkpt lat="27.879194" lon="86.81456">
        <ele>4186.4</ele>
        <time>2022-10-23T06:42:11.000Z</time>
      </trkpt>
      <trkpt lat="27.879213" lon="86.814586">
        <ele>4186.8</ele>
        <time>2022-10-23T06:42:15.000Z</time>
      </trkpt>
      <trkpt lat="27.879232" lon="86.814598">
        <ele>4187.6</ele>
        <time>2022-10-23T06:42:18.000Z</time>
      </trkpt>
      <trkpt lat="27.879251" lon="86.814624">
        <ele>4188</ele>
        <time>2022-10-23T06:42:21.000Z</time>
      </trkpt>
      <trkpt lat="27.879267" lon="86.814637">
        <ele>4188</ele>
        <time>2022-10-23T06:42:24.000Z</time>
      </trkpt>
      <trkpt lat="27.879283" lon="86.81465">
        <ele>4188.2</ele>
        <time>2022-10-23T06:42:26.000Z</time>
      </trkpt>
      <trkpt lat="27.879296" lon="86.814669">
        <ele>4188.2</ele>
        <time>2022-10-23T06:42:28.000Z</time>
      </trkpt>
      <trkpt lat="27.879322" lon="86.814682">
        <ele>4188.8</ele>
        <time>2022-10-23T06:42:31.000Z</time>
      </trkpt>
      <trkpt lat="27.879341" lon="86.814694">
        <ele>4189.2</ele>
        <time>2022-10-23T06:42:34.000Z</time>
      </trkpt>
      <trkpt lat="27.879354" lon="86.81472">
        <ele>4189.2</ele>
        <time>2022-10-23T06:42:36.000Z</time>
      </trkpt>
      <trkpt lat="27.879373" lon="86.814746">
        <ele>4189.2</ele>
        <time>2022-10-23T06:42:39.000Z</time>
      </trkpt>
      <trkpt lat="27.879395" lon="86.814771">
        <ele>4189.2</ele>
        <time>2022-10-23T06:42:42.000Z</time>
      </trkpt>
      <trkpt lat="27.879411" lon="86.81479">
        <ele>4189.4</ele>
        <time>2022-10-23T06:42:45.000Z</time>
      </trkpt>
      <trkpt lat="27.87943" lon="86.814822">
        <ele>4189.8</ele>
        <time>2022-10-23T06:42:48.000Z</time>
      </trkpt>
      <trkpt lat="27.879443" lon="86.814842">
        <ele>4189.6</ele>
        <time>2022-10-23T06:42:51.000Z</time>
      </trkpt>
      <trkpt lat="27.879462" lon="86.814867">
        <ele>4189.6</ele>
        <time>2022-10-23T06:42:54.000Z</time>
      </trkpt>
      <trkpt lat="27.879485" lon="86.814886">
        <ele>4190.6</ele>
        <time>2022-10-23T06:42:58.000Z</time>
      </trkpt>
      <trkpt lat="27.879494" lon="86.814906">
        <ele>4190.8</ele>
        <time>2022-10-23T06:43:00.000Z</time>
      </trkpt>
      <trkpt lat="27.87951" lon="86.814925">
        <ele>4191</ele>
        <time>2022-10-23T06:43:03.000Z</time>
      </trkpt>
      <trkpt lat="27.879523" lon="86.814944">
        <ele>4191.4</ele>
        <time>2022-10-23T06:43:05.000Z</time>
      </trkpt>
      <trkpt lat="27.879542" lon="86.814963">
        <ele>4191.4</ele>
        <time>2022-10-23T06:43:08.000Z</time>
      </trkpt>
      <trkpt lat="27.879552" lon="86.814982">
        <ele>4191</ele>
        <time>2022-10-23T06:43:10.000Z</time>
      </trkpt>
      <trkpt lat="27.879565" lon="86.815002">
        <ele>4190.8</ele>
        <time>2022-10-23T06:43:12.000Z</time>
      </trkpt>
      <trkpt lat="27.879578" lon="86.815027">
        <ele>4190.8</ele>
        <time>2022-10-23T06:43:14.000Z</time>
      </trkpt>
      <trkpt lat="27.879597" lon="86.81504">
        <ele>4190.4</ele>
        <time>2022-10-23T06:43:17.000Z</time>
      </trkpt>
      <trkpt lat="27.879622" lon="86.815046">
        <ele>4190.6</ele>
        <time>2022-10-23T06:43:20.000Z</time>
      </trkpt>
      <trkpt lat="27.879645" lon="86.815046">
        <ele>4191.2</ele>
        <time>2022-10-23T06:43:23.000Z</time>
      </trkpt>
      <trkpt lat="27.879667" lon="86.81504">
        <ele>4191.8</ele>
        <time>2022-10-23T06:43:26.000Z</time>
      </trkpt>
      <trkpt lat="27.879693" lon="86.81504">
        <ele>4192.4</ele>
        <time>2022-10-23T06:43:29.000Z</time>
      </trkpt>
      <trkpt lat="27.879709" lon="86.815053">
        <ele>4193</ele>
        <time>2022-10-23T06:43:31.000Z</time>
      </trkpt>
      <trkpt lat="27.879731" lon="86.815066">
        <ele>4192.8</ele>
        <time>2022-10-23T06:43:34.000Z</time>
      </trkpt>
      <trkpt lat="27.879747" lon="86.815078">
        <ele>4193.4</ele>
        <time>2022-10-23T06:43:36.000Z</time>
      </trkpt>
      <trkpt lat="27.87977" lon="86.815085">
        <ele>4194</ele>
        <time>2022-10-23T06:43:39.000Z</time>
      </trkpt>
      <trkpt lat="27.879782" lon="86.815104">
        <ele>4194.6</ele>
        <time>2022-10-23T06:43:41.000Z</time>
      </trkpt>
      <trkpt lat="27.879798" lon="86.815117">
        <ele>4194</ele>
        <time>2022-10-23T06:43:43.000Z</time>
      </trkpt>
      <trkpt lat="27.879808" lon="86.815142">
        <ele>4194.2</ele>
        <time>2022-10-23T06:43:45.000Z</time>
      </trkpt>
      <trkpt lat="27.879814" lon="86.815162">
        <ele>4195</ele>
        <time>2022-10-23T06:43:47.000Z</time>
      </trkpt>
      <trkpt lat="27.879824" lon="86.815181">
        <ele>4194.8</ele>
        <time>2022-10-23T06:43:49.000Z</time>
      </trkpt>
      <trkpt lat="27.87984" lon="86.815194">
        <ele>4194.4</ele>
        <time>2022-10-23T06:43:51.000Z</time>
      </trkpt>
      <trkpt lat="27.879859" lon="86.8152">
        <ele>4194.4</ele>
        <time>2022-10-23T06:43:53.000Z</time>
      </trkpt>
      <trkpt lat="27.879878" lon="86.815206">
        <ele>4194</ele>
        <time>2022-10-23T06:43:55.000Z</time>
      </trkpt>
      <trkpt lat="27.879894" lon="86.815219">
        <ele>4194</ele>
        <time>2022-10-23T06:43:57.000Z</time>
      </trkpt>
      <trkpt lat="27.879914" lon="86.815232">
        <ele>4194.4</ele>
        <time>2022-10-23T06:44:00.000Z</time>
      </trkpt>
      <trkpt lat="27.879933" lon="86.815245">
        <ele>4194.2</ele>
        <time>2022-10-23T06:44:03.000Z</time>
      </trkpt>
      <trkpt lat="27.879952" lon="86.815251">
        <ele>4193.6</ele>
        <time>2022-10-23T06:44:05.000Z</time>
      </trkpt>
      <trkpt lat="27.879971" lon="86.815251">
        <ele>4193.2</ele>
        <time>2022-10-23T06:44:08.000Z</time>
      </trkpt>
      <trkpt lat="27.879987" lon="86.81527">
        <ele>4193</ele>
        <time>2022-10-23T06:44:11.000Z</time>
      </trkpt>
      <trkpt lat="27.879978" lon="86.815251">
        <ele>4192.6</ele>
        <time>2022-10-23T06:44:18.000Z</time>
      </trkpt>
      <trkpt lat="27.87999" lon="86.81527">
        <ele>4194.2</ele>
        <time>2022-10-23T06:44:36.000Z</time>
      </trkpt>
      <trkpt lat="27.88001" lon="86.815283">
        <ele>4194.2</ele>
        <time>2022-10-23T06:44:41.000Z</time>
      </trkpt>
      <trkpt lat="27.879974" lon="86.815302">
        <ele>4194.8</ele>
        <time>2022-10-23T06:53:54.000Z</time>
      </trkpt>
      <trkpt lat="27.88" lon="86.815322">
        <ele>4194.8</ele>
        <time>2022-10-23T06:53:56.000Z</time>
      </trkpt>
      <trkpt lat="27.880016" lon="86.815341">
        <ele>4194.8</ele>
        <time>2022-10-23T06:53:58.000Z</time>
      </trkpt>
      <trkpt lat="27.880035" lon="86.815354">
        <ele>4195</ele>
        <time>2022-10-23T06:54:04.000Z</time>
      </trkpt>
      <trkpt lat="27.880048" lon="86.815379">
        <ele>4194.4</ele>
        <time>2022-10-23T06:54:31.000Z</time>
      </trkpt>
      <trkpt lat="27.880058" lon="86.815418">
        <ele>4194.4</ele>
        <time>2022-10-23T06:54:34.000Z</time>
      </trkpt>
      <trkpt lat="27.880067" lon="86.815443">
        <ele>4194.2</ele>
        <time>2022-10-23T06:54:36.000Z</time>
      </trkpt>
      <trkpt lat="27.880074" lon="86.815469">
        <ele>4194.2</ele>
        <time>2022-10-23T06:54:38.000Z</time>
      </trkpt>
      <trkpt lat="27.880077" lon="86.815501">
        <ele>4195.2</ele>
        <time>2022-10-23T06:54:41.000Z</time>
      </trkpt>
      <trkpt lat="27.880086" lon="86.815526">
        <ele>4195.2</ele>
        <time>2022-10-23T06:54:44.000Z</time>
      </trkpt>
      <trkpt lat="27.880093" lon="86.815552">
        <ele>4196.4</ele>
        <time>2022-10-23T06:54:46.000Z</time>
      </trkpt>
      <trkpt lat="27.880118" lon="86.815584">
        <ele>4194.2</ele>
        <time>2022-10-23T06:57:11.000Z</time>
      </trkpt>
      <trkpt lat="27.880128" lon="86.815603">
        <ele>4193.8</ele>
        <time>2022-10-23T06:57:12.000Z</time>
      </trkpt>
      <trkpt lat="27.880138" lon="86.815635">
        <ele>4193.8</ele>
        <time>2022-10-23T06:57:14.000Z</time>
      </trkpt>
      <trkpt lat="27.880144" lon="86.815667">
        <ele>4193.4</ele>
        <time>2022-10-23T06:57:16.000Z</time>
      </trkpt>
      <trkpt lat="27.880154" lon="86.815699">
        <ele>4192</ele>
        <time>2022-10-23T06:57:18.000Z</time>
      </trkpt>
      <trkpt lat="27.88016" lon="86.815738">
        <ele>4192</ele>
        <time>2022-10-23T06:57:20.000Z</time>
      </trkpt>
      <trkpt lat="27.880157" lon="86.815763">
        <ele>4191.8</ele>
        <time>2022-10-23T06:57:24.000Z</time>
      </trkpt>
      <trkpt lat="27.880147" lon="86.815782">
        <ele>4192</ele>
        <time>2022-10-23T06:57:27.000Z</time>
      </trkpt>
      <trkpt lat="27.880144" lon="86.815808">
        <ele>4191.8</ele>
        <time>2022-10-23T06:57:31.000Z</time>
      </trkpt>
      <trkpt lat="27.88015" lon="86.815827">
        <ele>4192.4</ele>
        <time>2022-10-23T06:57:38.000Z</time>
      </trkpt>
      <trkpt lat="27.88016" lon="86.815859">
        <ele>4193</ele>
        <time>2022-10-23T06:57:42.000Z</time>
      </trkpt>
      <trkpt lat="27.88017" lon="86.815878">
        <ele>4193.6</ele>
        <time>2022-10-23T06:57:45.000Z</time>
      </trkpt>
      <trkpt lat="27.880179" lon="86.815898">
        <ele>4194</ele>
        <time>2022-10-23T06:57:46.000Z</time>
      </trkpt>
      <trkpt lat="27.880195" lon="86.81591">
        <ele>4194.4</ele>
        <time>2022-10-23T06:57:48.000Z</time>
      </trkpt>
      <trkpt lat="27.880211" lon="86.815923">
        <ele>4194.2</ele>
        <time>2022-10-23T06:57:51.000Z</time>
      </trkpt>
      <trkpt lat="27.880224" lon="86.815942">
        <ele>4193.4</ele>
        <time>2022-10-23T06:57:53.000Z</time>
      </trkpt>
      <trkpt lat="27.880237" lon="86.815962">
        <ele>4193.4</ele>
        <time>2022-10-23T06:57:58.000Z</time>
      </trkpt>
      <trkpt lat="27.88025" lon="86.815981">
        <ele>4193.4</ele>
        <time>2022-10-23T06:58:02.000Z</time>
      </trkpt>
      <trkpt lat="27.880256" lon="86.816">
        <ele>4193</ele>
        <time>2022-10-23T06:58:05.000Z</time>
      </trkpt>
      <trkpt lat="27.880259" lon="86.816026">
        <ele>4192.6</ele>
        <time>2022-10-23T06:58:10.000Z</time>
      </trkpt>
      <trkpt lat="27.880275" lon="86.816045">
        <ele>4191.8</ele>
        <time>2022-10-23T06:58:13.000Z</time>
      </trkpt>
      <trkpt lat="27.880288" lon="86.81607">
        <ele>4191.4</ele>
        <time>2022-10-23T06:58:15.000Z</time>
      </trkpt>
      <trkpt lat="27.880298" lon="86.816096">
        <ele>4190.8</ele>
        <time>2022-10-23T06:58:17.000Z</time>
      </trkpt>
      <trkpt lat="27.880304" lon="86.816115">
        <ele>4191</ele>
        <time>2022-10-23T06:58:21.000Z</time>
      </trkpt>
      <trkpt lat="27.88031" lon="86.816134">
        <ele>4191</ele>
        <time>2022-10-23T06:58:25.000Z</time>
      </trkpt>
      <trkpt lat="27.880326" lon="86.816147">
        <ele>4190.4</ele>
        <time>2022-10-23T06:58:31.000Z</time>
      </trkpt>
      <trkpt lat="27.880342" lon="86.816173">
        <ele>4190.4</ele>
        <time>2022-10-23T06:58:36.000Z</time>
      </trkpt>
      <trkpt lat="27.880362" lon="86.816192">
        <ele>4189.4</ele>
        <time>2022-10-23T06:58:40.000Z</time>
      </trkpt>
      <trkpt lat="27.880371" lon="86.81623">
        <ele>4189.6</ele>
        <time>2022-10-23T06:58:42.000Z</time>
      </trkpt>
      <trkpt lat="27.880378" lon="86.816262">
        <ele>4189.4</ele>
        <time>2022-10-23T06:58:44.000Z</time>
      </trkpt>
      <trkpt lat="27.880384" lon="86.816294">
        <ele>4188.6</ele>
        <time>2022-10-23T06:58:46.000Z</time>
      </trkpt>
      <trkpt lat="27.880397" lon="86.81632">
        <ele>4188.2</ele>
        <time>2022-10-23T06:58:48.000Z</time>
      </trkpt>
      <trkpt lat="27.880403" lon="86.816339">
        <ele>4188.2</ele>
        <time>2022-10-23T06:58:49.000Z</time>
      </trkpt>
      <trkpt lat="27.88041" lon="86.816358">
        <ele>4189</ele>
        <time>2022-10-23T06:58:51.000Z</time>
      </trkpt>
      <trkpt lat="27.880413" lon="86.816384">
        <ele>4189</ele>
        <time>2022-10-23T06:58:53.000Z</time>
      </trkpt>
      <trkpt lat="27.880419" lon="86.816416">
        <ele>4189</ele>
        <time>2022-10-23T06:58:55.000Z</time>
      </trkpt>
      <trkpt lat="27.880419" lon="86.816442">
        <ele>4189.2</ele>
        <time>2022-10-23T06:58:57.000Z</time>
      </trkpt>
      <trkpt lat="27.880429" lon="86.816467">
        <ele>4189.8</ele>
        <time>2022-10-23T06:58:59.000Z</time>
      </trkpt>
      <trkpt lat="27.880438" lon="86.816493">
        <ele>4190</ele>
        <time>2022-10-23T06:59:01.000Z</time>
      </trkpt>
      <trkpt lat="27.880445" lon="86.816512">
        <ele>4190.6</ele>
        <time>2022-10-23T06:59:03.000Z</time>
      </trkpt>
      <trkpt lat="27.880454" lon="86.816531">
        <ele>4190.2</ele>
        <time>2022-10-23T06:59:05.000Z</time>
      </trkpt>
      <trkpt lat="27.880464" lon="86.81655">
        <ele>4190</ele>
        <time>2022-10-23T06:59:08.000Z</time>
      </trkpt>
      <trkpt lat="27.880474" lon="86.816576">
        <ele>4188.6</ele>
        <time>2022-10-23T06:59:11.000Z</time>
      </trkpt>
      <trkpt lat="27.880483" lon="86.816595">
        <ele>4189</ele>
        <time>2022-10-23T06:59:13.000Z</time>
      </trkpt>
      <trkpt lat="27.88049" lon="86.816621">
        <ele>4187.4</ele>
        <time>2022-10-23T06:59:15.000Z</time>
      </trkpt>
      <trkpt lat="27.880496" lon="86.81664">
        <ele>4186.8</ele>
        <time>2022-10-23T06:59:17.000Z</time>
      </trkpt>
      <trkpt lat="27.880506" lon="86.816666">
        <ele>4186.6</ele>
        <time>2022-10-23T06:59:19.000Z</time>
      </trkpt>
      <trkpt lat="27.880515" lon="86.816691">
        <ele>4186.6</ele>
        <time>2022-10-23T06:59:21.000Z</time>
      </trkpt>
      <trkpt lat="27.880518" lon="86.816717">
        <ele>4184.8</ele>
        <time>2022-10-23T06:59:25.000Z</time>
      </trkpt>
      <trkpt lat="27.880525" lon="86.816742">
        <ele>4184.4</ele>
        <time>2022-10-23T06:59:27.000Z</time>
      </trkpt>
      <trkpt lat="27.880528" lon="86.816768">
        <ele>4184</ele>
        <time>2022-10-23T06:59:29.000Z</time>
      </trkpt>
      <trkpt lat="27.880534" lon="86.816794">
        <ele>4183.4</ele>
        <time>2022-10-23T06:59:32.000Z</time>
      </trkpt>
      <trkpt lat="27.880538" lon="86.816819">
        <ele>4183</ele>
        <time>2022-10-23T06:59:35.000Z</time>
      </trkpt>
      <trkpt lat="27.880557" lon="86.816826">
        <ele>4180.4</ele>
        <time>2022-10-23T06:59:41.000Z</time>
      </trkpt>
      <trkpt lat="27.880576" lon="86.816838">
        <ele>4178.8</ele>
        <time>2022-10-23T06:59:46.000Z</time>
      </trkpt>
      <trkpt lat="27.880582" lon="86.816858">
        <ele>4177.8</ele>
        <time>2022-10-23T06:59:49.000Z</time>
      </trkpt>
      <trkpt lat="27.880595" lon="86.816877">
        <ele>4176.8</ele>
        <time>2022-10-23T06:59:55.000Z</time>
      </trkpt>
      <trkpt lat="27.880602" lon="86.816896">
        <ele>4176.8</ele>
        <time>2022-10-23T07:00:02.000Z</time>
      </trkpt>
      <trkpt lat="27.880621" lon="86.816902">
        <ele>4175.8</ele>
        <time>2022-10-23T07:00:07.000Z</time>
      </trkpt>
      <trkpt lat="27.880637" lon="86.816915">
        <ele>4174.4</ele>
        <time>2022-10-23T07:00:11.000Z</time>
      </trkpt>
      <trkpt lat="27.880646" lon="86.816934">
        <ele>4174.2</ele>
        <time>2022-10-23T07:00:13.000Z</time>
      </trkpt>
      <trkpt lat="27.880656" lon="86.816954">
        <ele>4173.4</ele>
        <time>2022-10-23T07:00:16.000Z</time>
      </trkpt>
      <trkpt lat="27.880637" lon="86.816979">
        <ele>4171.2</ele>
        <time>2022-10-23T07:00:37.000Z</time>
      </trkpt>
      <trkpt lat="27.880621" lon="86.816998">
        <ele>4171.2</ele>
        <time>2022-10-23T07:00:39.000Z</time>
      </trkpt>
      <trkpt lat="27.880614" lon="86.817018">
        <ele>4171.8</ele>
        <time>2022-10-23T07:00:40.000Z</time>
      </trkpt>
      <trkpt lat="27.880598" lon="86.81705">
        <ele>4172.2</ele>
        <time>2022-10-23T07:00:42.000Z</time>
      </trkpt>
      <trkpt lat="27.880592" lon="86.817069">
        <ele>4171.6</ele>
        <time>2022-10-23T07:00:44.000Z</time>
      </trkpt>
      <trkpt lat="27.880579" lon="86.817088">
        <ele>4171.8</ele>
        <time>2022-10-23T07:00:49.000Z</time>
      </trkpt>
      <trkpt lat="27.880582" lon="86.817114">
        <ele>4171.6</ele>
        <time>2022-10-23T07:00:52.000Z</time>
      </trkpt>
      <trkpt lat="27.880582" lon="86.817139">
        <ele>4171.4</ele>
        <time>2022-10-23T07:00:54.000Z</time>
      </trkpt>
      <trkpt lat="27.880586" lon="86.817171">
        <ele>4170.8</ele>
        <time>2022-10-23T07:00:57.000Z</time>
      </trkpt>
      <trkpt lat="27.880586" lon="86.817197">
        <ele>4170.4</ele>
        <time>2022-10-23T07:01:00.000Z</time>
      </trkpt>
      <trkpt lat="27.880582" lon="86.817222">
        <ele>4170.8</ele>
        <time>2022-10-23T07:01:03.000Z</time>
      </trkpt>
      <trkpt lat="27.880592" lon="86.817248">
        <ele>4169.8</ele>
        <time>2022-10-23T07:01:15.000Z</time>
      </trkpt>
      <trkpt lat="27.880605" lon="86.817267">
        <ele>4169</ele>
        <time>2022-10-23T07:01:20.000Z</time>
      </trkpt>
      <trkpt lat="27.880621" lon="86.817286">
        <ele>4168.6</ele>
        <time>2022-10-23T07:01:24.000Z</time>
      </trkpt>
      <trkpt lat="27.88064" lon="86.817274">
        <ele>4168.4</ele>
        <time>2022-10-23T07:01:27.000Z</time>
      </trkpt>
      <trkpt lat="27.880659" lon="86.817286">
        <ele>4168.8</ele>
        <time>2022-10-23T07:01:32.000Z</time>
      </trkpt>
      <trkpt lat="27.880675" lon="86.817274">
        <ele>4168.6</ele>
        <time>2022-10-23T07:01:35.000Z</time>
      </trkpt>
      <trkpt lat="27.880691" lon="86.817286">
        <ele>4168.2</ele>
        <time>2022-10-23T07:01:37.000Z</time>
      </trkpt>
      <trkpt lat="27.880714" lon="86.817293">
        <ele>4168.8</ele>
        <time>2022-10-23T07:01:40.000Z</time>
      </trkpt>
      <trkpt lat="27.88073" lon="86.817306">
        <ele>4168.8</ele>
        <time>2022-10-23T07:01:43.000Z</time>
      </trkpt>
      <trkpt lat="27.880755" lon="86.817312">
        <ele>4170</ele>
        <time>2022-10-23T07:01:47.000Z</time>
      </trkpt>
      <trkpt lat="27.880771" lon="86.817331">
        <ele>4170</ele>
        <time>2022-10-23T07:01:50.000Z</time>
      </trkpt>
      <trkpt lat="27.880781" lon="86.81735">
        <ele>4169.8</ele>
        <time>2022-10-23T07:01:53.000Z</time>
      </trkpt>
      <trkpt lat="27.880787" lon="86.817376">
        <ele>4170.4</ele>
        <time>2022-10-23T07:01:56.000Z</time>
      </trkpt>
      <trkpt lat="27.880803" lon="86.817389">
        <ele>4170.2</ele>
        <time>2022-10-23T07:02:01.000Z</time>
      </trkpt>
      <trkpt lat="27.880797" lon="86.817408">
        <ele>4170.8</ele>
        <time>2022-10-23T07:02:04.000Z</time>
      </trkpt>
      <trkpt lat="27.880797" lon="86.817434">
        <ele>4171.2</ele>
        <time>2022-10-23T07:02:08.000Z</time>
      </trkpt>
      <trkpt lat="27.880803" lon="86.817459">
        <ele>4171.2</ele>
        <time>2022-10-23T07:02:10.000Z</time>
      </trkpt>
      <trkpt lat="27.880803" lon="86.817491">
        <ele>4171.2</ele>
        <time>2022-10-23T07:02:13.000Z</time>
      </trkpt>
      <trkpt lat="27.880797" lon="86.81751">
        <ele>4171.6</ele>
        <time>2022-10-23T07:02:16.000Z</time>
      </trkpt>
      <trkpt lat="27.880797" lon="86.817536">
        <ele>4171.4</ele>
        <time>2022-10-23T07:02:19.000Z</time>
      </trkpt>
      <trkpt lat="27.88079" lon="86.817555">
        <ele>4172</ele>
        <time>2022-10-23T07:02:23.000Z</time>
      </trkpt>
      <trkpt lat="27.880781" lon="86.817574">
        <ele>4172</ele>
        <time>2022-10-23T07:02:25.000Z</time>
      </trkpt>
      <trkpt lat="27.880758" lon="86.817581">
        <ele>4172.6</ele>
        <time>2022-10-23T07:02:29.000Z</time>
      </trkpt>
      <trkpt lat="27.880739" lon="86.817594">
        <ele>4172.8</ele>
        <time>2022-10-23T07:02:33.000Z</time>
      </trkpt>
      <trkpt lat="27.880723" lon="86.817613">
        <ele>4172.8</ele>
        <time>2022-10-23T07:02:37.000Z</time>
      </trkpt>
      <trkpt lat="27.880704" lon="86.817626">
        <ele>4173.8</ele>
        <time>2022-10-23T07:02:41.000Z</time>
      </trkpt>
      <trkpt lat="27.880688" lon="86.817645">
        <ele>4174</ele>
        <time>2022-10-23T07:02:45.000Z</time>
      </trkpt>
      <trkpt lat="27.880675" lon="86.817664">
        <ele>4176</ele>
        <time>2022-10-23T07:02:56.000Z</time>
      </trkpt>
      <trkpt lat="27.880656" lon="86.817658">
        <ele>4176</ele>
        <time>2022-10-23T07:03:00.000Z</time>
      </trkpt>
      <trkpt lat="27.88064" lon="86.81767">
        <ele>4177</ele>
        <time>2022-10-23T07:03:05.000Z</time>
      </trkpt>
      <trkpt lat="27.88063" lon="86.81769">
        <ele>4177.6</ele>
        <time>2022-10-23T07:03:11.000Z</time>
      </trkpt>
      <trkpt lat="27.880614" lon="86.817709">
        <ele>4178.2</ele>
        <time>2022-10-23T07:03:22.000Z</time>
      </trkpt>
      <trkpt lat="27.880605" lon="86.817728">
        <ele>4178.6</ele>
        <time>2022-10-23T07:03:27.000Z</time>
      </trkpt>
      <trkpt lat="27.880586" lon="86.817734">
        <ele>4179.4</ele>
        <time>2022-10-23T07:03:33.000Z</time>
      </trkpt>
      <trkpt lat="27.880566" lon="86.817741">
        <ele>4179.6</ele>
        <time>2022-10-23T07:03:38.000Z</time>
      </trkpt>
      <trkpt lat="27.880547" lon="86.817747">
        <ele>4180.4</ele>
        <time>2022-10-23T07:03:42.000Z</time>
      </trkpt>
      <trkpt lat="27.880528" lon="86.817766">
        <ele>4180.8</ele>
        <time>2022-10-23T07:03:47.000Z</time>
      </trkpt>
      <trkpt lat="27.880509" lon="86.817773">
        <ele>4183.4</ele>
        <time>2022-10-23T07:03:52.000Z</time>
      </trkpt>
      <trkpt lat="27.88049" lon="86.817773">
        <ele>4182.6</ele>
        <time>2022-10-23T07:03:56.000Z</time>
      </trkpt>
      <trkpt lat="27.88047" lon="86.817786">
        <ele>4181.6</ele>
        <time>2022-10-23T07:04:01.000Z</time>
      </trkpt>
      <trkpt lat="27.880464" lon="86.817805">
        <ele>4182.8</ele>
        <time>2022-10-23T07:04:06.000Z</time>
      </trkpt>
      <trkpt lat="27.880458" lon="86.817824">
        <ele>4183.6</ele>
        <time>2022-10-23T07:04:12.000Z</time>
      </trkpt>
      <trkpt lat="27.880464" lon="86.817843">
        <ele>4185.2</ele>
        <time>2022-10-23T07:04:18.000Z</time>
      </trkpt>
      <trkpt lat="27.880483" lon="86.81783">
        <ele>4184.4</ele>
        <time>2022-10-23T07:04:23.000Z</time>
      </trkpt>
      <trkpt lat="27.880502" lon="86.817843">
        <ele>4185.4</ele>
        <time>2022-10-23T07:04:28.000Z</time>
      </trkpt>
      <trkpt lat="27.880499" lon="86.817869">
        <ele>4185.2</ele>
        <time>2022-10-23T07:04:37.000Z</time>
      </trkpt>
      <trkpt lat="27.880499" lon="86.817894">
        <ele>4186.4</ele>
        <time>2022-10-23T07:04:45.000Z</time>
      </trkpt>
      <trkpt lat="27.880499" lon="86.81792">
        <ele>4186.6</ele>
        <time>2022-10-23T07:04:49.000Z</time>
      </trkpt>
      <trkpt lat="27.880496" lon="86.817946">
        <ele>4188.2</ele>
        <time>2022-10-23T07:04:56.000Z</time>
      </trkpt>
      <trkpt lat="27.880499" lon="86.817971">
        <ele>4188.2</ele>
        <time>2022-10-23T07:04:59.000Z</time>
      </trkpt>
      <trkpt lat="27.880496" lon="86.818003">
        <ele>4189.2</ele>
        <time>2022-10-23T07:05:06.000Z</time>
      </trkpt>
      <trkpt lat="27.880512" lon="86.818016">
        <ele>4190</ele>
        <time>2022-10-23T07:05:12.000Z</time>
      </trkpt>
      <trkpt lat="27.880525" lon="86.818042">
        <ele>4191.8</ele>
        <time>2022-10-23T07:05:42.000Z</time>
      </trkpt>
      <trkpt lat="27.880538" lon="86.818067">
        <ele>4192.8</ele>
        <time>2022-10-23T07:05:44.000Z</time>
      </trkpt>
      <trkpt lat="27.880544" lon="86.818099">
        <ele>4193.8</ele>
        <time>2022-10-23T07:05:47.000Z</time>
      </trkpt>
      <trkpt lat="27.880554" lon="86.818131">
        <ele>4193.8</ele>
        <time>2022-10-23T07:05:49.000Z</time>
      </trkpt>
      <trkpt lat="27.880563" lon="86.818163">
        <ele>4193.8</ele>
        <time>2022-10-23T07:05:53.000Z</time>
      </trkpt>
      <trkpt lat="27.880573" lon="86.818182">
        <ele>4194.4</ele>
        <time>2022-10-23T07:05:57.000Z</time>
      </trkpt>
      <trkpt lat="27.880582" lon="86.818202">
        <ele>4194.6</ele>
        <time>2022-10-23T07:06:00.000Z</time>
      </trkpt>
      <trkpt lat="27.880592" lon="86.818182">
        <ele>4195.4</ele>
        <time>2022-10-23T07:06:06.000Z</time>
      </trkpt>
      <trkpt lat="27.880592" lon="86.81815">
        <ele>4195.8</ele>
        <time>2022-10-23T07:06:12.000Z</time>
      </trkpt>
      <trkpt lat="27.880605" lon="86.818131">
        <ele>4197</ele>
        <time>2022-10-23T07:06:19.000Z</time>
      </trkpt>
      <trkpt lat="27.880598" lon="86.818106">
        <ele>4197.6</ele>
        <time>2022-10-23T07:06:23.000Z</time>
      </trkpt>
      <trkpt lat="27.880608" lon="86.81808">
        <ele>4198</ele>
        <time>2022-10-23T07:06:28.000Z</time>
      </trkpt>
      <trkpt lat="27.88063" lon="86.81808">
        <ele>4198</ele>
        <time>2022-10-23T07:06:32.000Z</time>
      </trkpt>
      <trkpt lat="27.880637" lon="86.818099">
        <ele>4198.6</ele>
        <time>2022-10-23T07:06:36.000Z</time>
      </trkpt>
      <trkpt lat="27.880643" lon="86.818118">
        <ele>4199</ele>
        <time>2022-10-23T07:06:42.000Z</time>
      </trkpt>
      <trkpt lat="27.880653" lon="86.818138">
        <ele>4200</ele>
        <time>2022-10-23T07:06:49.000Z</time>
      </trkpt>
      <trkpt lat="27.880656" lon="86.81817">
        <ele>4200.8</ele>
        <time>2022-10-23T07:06:53.000Z</time>
      </trkpt>
      <trkpt lat="27.880659" lon="86.818202">
        <ele>4201.2</ele>
        <time>2022-10-23T07:06:59.000Z</time>
      </trkpt>
      <trkpt lat="27.880659" lon="86.818227">
        <ele>4201.8</ele>
        <time>2022-10-23T07:07:06.000Z</time>
      </trkpt>
      <trkpt lat="27.880666" lon="86.818246">
        <ele>4201.8</ele>
        <time>2022-10-23T07:07:10.000Z</time>
      </trkpt>
      <trkpt lat="27.880672" lon="86.818266">
        <ele>4202</ele>
        <time>2022-10-23T07:07:14.000Z</time>
      </trkpt>
      <trkpt lat="27.880672" lon="86.818291">
        <ele>4203</ele>
        <time>2022-10-23T07:07:20.000Z</time>
      </trkpt>
      <trkpt lat="27.880675" lon="86.818323">
        <ele>4203.8</ele>
        <time>2022-10-23T07:07:27.000Z</time>
      </trkpt>
      <trkpt lat="27.880682" lon="86.818342">
        <ele>4204.4</ele>
        <time>2022-10-23T07:07:36.000Z</time>
      </trkpt>
      <trkpt lat="27.880694" lon="86.818362">
        <ele>4205.4</ele>
        <time>2022-10-23T07:07:42.000Z</time>
      </trkpt>
      <trkpt lat="27.880714" lon="86.818381">
        <ele>4205.6</ele>
        <time>2022-10-23T07:07:49.000Z</time>
      </trkpt>
      <trkpt lat="27.880726" lon="86.8184">
        <ele>4205.8</ele>
        <time>2022-10-23T07:07:54.000Z</time>
      </trkpt>
      <trkpt lat="27.880736" lon="86.818419">
        <ele>4206.2</ele>
        <time>2022-10-23T07:07:59.000Z</time>
      </trkpt>
      <trkpt lat="27.880742" lon="86.818438">
        <ele>4206.6</ele>
        <time>2022-10-23T07:08:02.000Z</time>
      </trkpt>
      <trkpt lat="27.880762" lon="86.818451">
        <ele>4207.2</ele>
        <time>2022-10-23T07:08:08.000Z</time>
      </trkpt>
      <trkpt lat="27.880774" lon="86.818477">
        <ele>4207.8</ele>
        <time>2022-10-23T07:08:13.000Z</time>
      </trkpt>
      <trkpt lat="27.880784" lon="86.818496">
        <ele>4208.4</ele>
        <time>2022-10-23T07:08:19.000Z</time>
      </trkpt>
      <trkpt lat="27.880794" lon="86.818522">
        <ele>4209</ele>
        <time>2022-10-23T07:08:24.000Z</time>
      </trkpt>
      <trkpt lat="27.8808" lon="86.818541">
        <ele>4209.2</ele>
        <time>2022-10-23T07:08:30.000Z</time>
      </trkpt>
      <trkpt lat="27.880806" lon="86.81856">
        <ele>4209.6</ele>
        <time>2022-10-23T07:08:33.000Z</time>
      </trkpt>
      <trkpt lat="27.880813" lon="86.818586">
        <ele>4210.6</ele>
        <time>2022-10-23T07:08:38.000Z</time>
      </trkpt>
      <trkpt lat="27.880822" lon="86.818605">
        <ele>4210.6</ele>
        <time>2022-10-23T07:08:41.000Z</time>
      </trkpt>
      <trkpt lat="27.880835" lon="86.818624">
        <ele>4211.8</ele>
        <time>2022-10-23T07:08:48.000Z</time>
      </trkpt>
      <trkpt lat="27.880845" lon="86.818643">
        <ele>4212.2</ele>
        <time>2022-10-23T07:08:52.000Z</time>
      </trkpt>
      <trkpt lat="27.880861" lon="86.818656">
        <ele>4212.8</ele>
        <time>2022-10-23T07:08:59.000Z</time>
      </trkpt>
      <trkpt lat="27.88087" lon="86.818675">
        <ele>4213.2</ele>
        <time>2022-10-23T07:09:04.000Z</time>
      </trkpt>
      <trkpt lat="27.880874" lon="86.818701">
        <ele>4214.2</ele>
        <time>2022-10-23T07:09:11.000Z</time>
      </trkpt>
      <trkpt lat="27.88088" lon="86.81872">
        <ele>4214.6</ele>
        <time>2022-10-23T07:09:18.000Z</time>
      </trkpt>
      <trkpt lat="27.880886" lon="86.818739">
        <ele>4215.2</ele>
        <time>2022-10-23T07:09:26.000Z</time>
      </trkpt>
      <trkpt lat="27.880886" lon="86.818765">
        <ele>4216</ele>
        <time>2022-10-23T07:09:29.000Z</time>
      </trkpt>
      <trkpt lat="27.880896" lon="86.818784">
        <ele>4215.8</ele>
        <time>2022-10-23T07:09:34.000Z</time>
      </trkpt>
      <trkpt lat="27.880906" lon="86.818803">
        <ele>4216</ele>
        <time>2022-10-23T07:09:36.000Z</time>
      </trkpt>
      <trkpt lat="27.880925" lon="86.818822">
        <ele>4216.2</ele>
        <time>2022-10-23T07:09:40.000Z</time>
      </trkpt>
      <trkpt lat="27.880931" lon="86.818842">
        <ele>4217</ele>
        <time>2022-10-23T07:09:42.000Z</time>
      </trkpt>
      <trkpt lat="27.880944" lon="86.818861">
        <ele>4216.6</ele>
        <time>2022-10-23T07:09:46.000Z</time>
      </trkpt>
      <trkpt lat="27.88095" lon="86.81888">
        <ele>4216.8</ele>
        <time>2022-10-23T07:09:48.000Z</time>
      </trkpt>
      <trkpt lat="27.88096" lon="86.818899">
        <ele>4217.4</ele>
        <time>2022-10-23T07:09:51.000Z</time>
      </trkpt>
      <trkpt lat="27.880966" lon="86.818918">
        <ele>4217.4</ele>
        <time>2022-10-23T07:09:54.000Z</time>
      </trkpt>
      <trkpt lat="27.880979" lon="86.818938">
        <ele>4217.8</ele>
        <time>2022-10-23T07:09:58.000Z</time>
      </trkpt>
      <trkpt lat="27.880986" lon="86.818957">
        <ele>4218</ele>
        <time>2022-10-23T07:10:00.000Z</time>
      </trkpt>
      <trkpt lat="27.880995" lon="86.818976">
        <ele>4218</ele>
        <time>2022-10-23T07:10:04.000Z</time>
      </trkpt>
      <trkpt lat="27.881002" lon="86.818995">
        <ele>4218.4</ele>
        <time>2022-10-23T07:10:07.000Z</time>
      </trkpt>
      <trkpt lat="27.881018" lon="86.819014">
        <ele>4219.2</ele>
        <time>2022-10-23T07:10:11.000Z</time>
      </trkpt>
      <trkpt lat="27.881027" lon="86.819034">
        <ele>4219</ele>
        <time>2022-10-23T07:10:14.000Z</time>
      </trkpt>
      <trkpt lat="27.88104" lon="86.819053">
        <ele>4219</ele>
        <time>2022-10-23T07:10:18.000Z</time>
      </trkpt>
      <trkpt lat="27.88105" lon="86.819072">
        <ele>4220.8</ele>
        <time>2022-10-23T07:10:23.000Z</time>
      </trkpt>
      <trkpt lat="27.881059" lon="86.819091">
        <ele>4221</ele>
        <time>2022-10-23T07:10:27.000Z</time>
      </trkpt>
      <trkpt lat="27.881075" lon="86.819117">
        <ele>4221.2</ele>
        <time>2022-10-23T07:10:31.000Z</time>
      </trkpt>
      <trkpt lat="27.881085" lon="86.819136">
        <ele>4221.2</ele>
        <time>2022-10-23T07:10:35.000Z</time>
      </trkpt>
      <trkpt lat="27.881091" lon="86.819155">
        <ele>4221.2</ele>
        <time>2022-10-23T07:10:38.000Z</time>
      </trkpt>
      <trkpt lat="27.88111" lon="86.819174">
        <ele>4221.8</ele>
        <time>2022-10-23T07:10:42.000Z</time>
      </trkpt>
      <trkpt lat="27.88112" lon="86.8192">
        <ele>4222.4</ele>
        <time>2022-10-23T07:10:47.000Z</time>
      </trkpt>
      <trkpt lat="27.881133" lon="86.819219">
        <ele>4222</ele>
        <time>2022-10-23T07:10:52.000Z</time>
      </trkpt>
      <trkpt lat="27.881142" lon="86.819238">
        <ele>4222.2</ele>
        <time>2022-10-23T07:10:56.000Z</time>
      </trkpt>
      <trkpt lat="27.881149" lon="86.819258">
        <ele>4223.4</ele>
        <time>2022-10-23T07:11:02.000Z</time>
      </trkpt>
      <trkpt lat="27.881162" lon="86.819277">
        <ele>4223.4</ele>
        <time>2022-10-23T07:11:05.000Z</time>
      </trkpt>
      <trkpt lat="27.881171" lon="86.819296">
        <ele>4223.8</ele>
        <time>2022-10-23T07:11:11.000Z</time>
      </trkpt>
      <trkpt lat="27.881178" lon="86.819315">
        <ele>4224.6</ele>
        <time>2022-10-23T07:11:15.000Z</time>
      </trkpt>
      <trkpt lat="27.881194" lon="86.819328">
        <ele>4225</ele>
        <time>2022-10-23T07:11:20.000Z</time>
      </trkpt>
      <trkpt lat="27.881203" lon="86.819354">
        <ele>4225.8</ele>
        <time>2022-10-23T07:11:27.000Z</time>
      </trkpt>
      <trkpt lat="27.881206" lon="86.819379">
        <ele>4226.6</ele>
        <time>2022-10-23T07:11:33.000Z</time>
      </trkpt>
      <trkpt lat="27.881213" lon="86.819398">
        <ele>4226.8</ele>
        <time>2022-10-23T07:11:37.000Z</time>
      </trkpt>
      <trkpt lat="27.881229" lon="86.819418">
        <ele>4227.2</ele>
        <time>2022-10-23T07:11:44.000Z</time>
      </trkpt>
      <trkpt lat="27.881238" lon="86.819437">
        <ele>4227.4</ele>
        <time>2022-10-23T07:11:47.000Z</time>
      </trkpt>
      <trkpt lat="27.881254" lon="86.81945">
        <ele>4227.6</ele>
        <time>2022-10-23T07:11:52.000Z</time>
      </trkpt>
      <trkpt lat="27.881267" lon="86.819469">
        <ele>4228.2</ele>
        <time>2022-10-23T07:11:57.000Z</time>
      </trkpt>
      <trkpt lat="27.881309" lon="86.819488">
        <ele>4230.2</ele>
        <time>2022-10-23T07:14:53.000Z</time>
      </trkpt>
      <trkpt lat="27.881322" lon="86.819552">
        <ele>4229.8</ele>
        <time>2022-10-23T07:15:37.000Z</time>
      </trkpt>
      <trkpt lat="27.881328" lon="86.819578">
        <ele>4230.6</ele>
        <time>2022-10-23T07:15:39.000Z</time>
      </trkpt>
      <trkpt lat="27.881331" lon="86.81961">
        <ele>4230.6</ele>
        <time>2022-10-23T07:15:41.000Z</time>
      </trkpt>
      <trkpt lat="27.881341" lon="86.819635">
        <ele>4230.4</ele>
        <time>2022-10-23T07:15:43.000Z</time>
      </trkpt>
      <trkpt lat="27.881347" lon="86.819667">
        <ele>4231.2</ele>
        <time>2022-10-23T07:15:45.000Z</time>
      </trkpt>
      <trkpt lat="27.881354" lon="86.819686">
        <ele>4231.2</ele>
        <time>2022-10-23T07:15:48.000Z</time>
      </trkpt>
      <trkpt lat="27.881363" lon="86.819712">
        <ele>4231.6</ele>
        <time>2022-10-23T07:15:51.000Z</time>
      </trkpt>
      <trkpt lat="27.88137" lon="86.819738">
        <ele>4232.4</ele>
        <time>2022-10-23T07:15:56.000Z</time>
      </trkpt>
      <trkpt lat="27.881366" lon="86.819763">
        <ele>4232.6</ele>
        <time>2022-10-23T07:15:59.000Z</time>
      </trkpt>
      <trkpt lat="27.88137" lon="86.819789">
        <ele>4232.8</ele>
        <time>2022-10-23T07:16:03.000Z</time>
      </trkpt>
      <trkpt lat="27.881379" lon="86.819808">
        <ele>4233.4</ele>
        <time>2022-10-23T07:16:08.000Z</time>
      </trkpt>
      <trkpt lat="27.881386" lon="86.819834">
        <ele>4233.6</ele>
        <time>2022-10-23T07:16:12.000Z</time>
      </trkpt>
      <trkpt lat="27.881389" lon="86.819859">
        <ele>4235.2</ele>
        <time>2022-10-23T07:16:18.000Z</time>
      </trkpt>
      <trkpt lat="27.881398" lon="86.819878">
        <ele>4235.2</ele>
        <time>2022-10-23T07:16:22.000Z</time>
      </trkpt>
      <trkpt lat="27.881414" lon="86.819891">
        <ele>4235.4</ele>
        <time>2022-10-23T07:16:27.000Z</time>
      </trkpt>
      <trkpt lat="27.88143" lon="86.81991">
        <ele>4236</ele>
        <time>2022-10-23T07:16:31.000Z</time>
      </trkpt>
      <trkpt lat="27.881446" lon="86.819923">
        <ele>4236.4</ele>
        <time>2022-10-23T07:16:37.000Z</time>
      </trkpt>
      <trkpt lat="27.881462" lon="86.819949">
        <ele>4237.2</ele>
        <time>2022-10-23T07:16:42.000Z</time>
      </trkpt>
      <trkpt lat="27.881475" lon="86.819968">
        <ele>4237.8</ele>
        <time>2022-10-23T07:16:47.000Z</time>
      </trkpt>
      <trkpt lat="27.881482" lon="86.819987">
        <ele>4238</ele>
        <time>2022-10-23T07:16:49.000Z</time>
      </trkpt>
      <trkpt lat="27.881494" lon="86.820006">
        <ele>4239</ele>
        <time>2022-10-23T07:16:55.000Z</time>
      </trkpt>
      <trkpt lat="27.881501" lon="86.820026">
        <ele>4239</ele>
        <time>2022-10-23T07:16:59.000Z</time>
      </trkpt>
      <trkpt lat="27.88152" lon="86.820038">
        <ele>4239.6</ele>
        <time>2022-10-23T07:17:04.000Z</time>
      </trkpt>
      <trkpt lat="27.881536" lon="86.820058">
        <ele>4239.8</ele>
        <time>2022-10-23T07:17:09.000Z</time>
      </trkpt>
      <trkpt lat="27.881546" lon="86.820077">
        <ele>4240.2</ele>
        <time>2022-10-23T07:17:12.000Z</time>
      </trkpt>
      <trkpt lat="27.881568" lon="86.82009">
        <ele>4240.8</ele>
        <time>2022-10-23T07:17:17.000Z</time>
      </trkpt>
      <trkpt lat="27.881578" lon="86.820115">
        <ele>4242</ele>
        <time>2022-10-23T07:17:19.000Z</time>
      </trkpt>
      <trkpt lat="27.881594" lon="86.820128">
        <ele>4242</ele>
        <time>2022-10-23T07:17:24.000Z</time>
      </trkpt>
      <trkpt lat="27.8816" lon="86.820154">
        <ele>4242.2</ele>
        <time>2022-10-23T07:17:28.000Z</time>
      </trkpt>
      <trkpt lat="27.881606" lon="86.820173">
        <ele>4243</ele>
        <time>2022-10-23T07:17:32.000Z</time>
      </trkpt>
      <trkpt lat="27.881616" lon="86.820192">
        <ele>4243</ele>
        <time>2022-10-23T07:17:34.000Z</time>
      </trkpt>
      <trkpt lat="27.881619" lon="86.820224">
        <ele>4243</ele>
        <time>2022-10-23T07:17:38.000Z</time>
      </trkpt>
      <trkpt lat="27.88161" lon="86.820243">
        <ele>4243.4</ele>
        <time>2022-10-23T07:17:42.000Z</time>
      </trkpt>
      <trkpt lat="27.8816" lon="86.820269">
        <ele>4244</ele>
        <time>2022-10-23T07:17:45.000Z</time>
      </trkpt>
      <trkpt lat="27.881594" lon="86.820288">
        <ele>4244.6</ele>
        <time>2022-10-23T07:17:50.000Z</time>
      </trkpt>
      <trkpt lat="27.881597" lon="86.820314">
        <ele>4245.4</ele>
        <time>2022-10-23T07:17:54.000Z</time>
      </trkpt>
      <trkpt lat="27.881597" lon="86.820346">
        <ele>4245.8</ele>
        <time>2022-10-23T07:17:59.000Z</time>
      </trkpt>
      <trkpt lat="27.881603" lon="86.820365">
        <ele>4246.2</ele>
        <time>2022-10-23T07:18:03.000Z</time>
      </trkpt>
      <trkpt lat="27.88161" lon="86.820384">
        <ele>4246.2</ele>
        <time>2022-10-23T07:18:05.000Z</time>
      </trkpt>
      <trkpt lat="27.881626" lon="86.820397">
        <ele>4246.4</ele>
        <time>2022-10-23T07:18:10.000Z</time>
      </trkpt>
      <trkpt lat="27.881635" lon="86.820422">
        <ele>4246.2</ele>
        <time>2022-10-23T07:18:13.000Z</time>
      </trkpt>
      <trkpt lat="27.881648" lon="86.820442">
        <ele>4246.8</ele>
        <time>2022-10-23T07:18:17.000Z</time>
      </trkpt>
      <trkpt lat="27.881664" lon="86.820454">
        <ele>4247.2</ele>
        <time>2022-10-23T07:18:21.000Z</time>
      </trkpt>
      <trkpt lat="27.88167" lon="86.820474">
        <ele>4247.4</ele>
        <time>2022-10-23T07:18:23.000Z</time>
      </trkpt>
      <trkpt lat="27.88168" lon="86.820493">
        <ele>4248.2</ele>
        <time>2022-10-23T07:18:27.000Z</time>
      </trkpt>
      <trkpt lat="27.88169" lon="86.820512">
        <ele>4249.4</ele>
        <time>2022-10-23T07:18:30.000Z</time>
      </trkpt>
      <trkpt lat="27.881699" lon="86.820531">
        <ele>4249.8</ele>
        <time>2022-10-23T07:18:33.000Z</time>
      </trkpt>
      <trkpt lat="27.881702" lon="86.820557">
        <ele>4250.4</ele>
        <time>2022-10-23T07:18:37.000Z</time>
      </trkpt>
      <trkpt lat="27.881699" lon="86.820582">
        <ele>4250.4</ele>
        <time>2022-10-23T07:18:41.000Z</time>
      </trkpt>
      <trkpt lat="27.881693" lon="86.820608">
        <ele>4251</ele>
        <time>2022-10-23T07:18:45.000Z</time>
      </trkpt>
      <trkpt lat="27.88169" lon="86.820634">
        <ele>4250.6</ele>
        <time>2022-10-23T07:18:48.000Z</time>
      </trkpt>
      <trkpt lat="27.881683" lon="86.820653">
        <ele>4251</ele>
        <time>2022-10-23T07:18:50.000Z</time>
      </trkpt>
      <trkpt lat="27.881677" lon="86.820672">
        <ele>4251.2</ele>
        <time>2022-10-23T07:18:53.000Z</time>
      </trkpt>
      <trkpt lat="27.88167" lon="86.820691">
        <ele>4250.8</ele>
        <time>2022-10-23T07:18:56.000Z</time>
      </trkpt>
      <trkpt lat="27.881667" lon="86.820717">
        <ele>4251.2</ele>
        <time>2022-10-23T07:19:00.000Z</time>
      </trkpt>
      <trkpt lat="27.881664" lon="86.820742">
        <ele>4251.8</ele>
        <time>2022-10-23T07:19:02.000Z</time>
      </trkpt>
      <trkpt lat="27.881664" lon="86.820768">
        <ele>4252.4</ele>
        <time>2022-10-23T07:19:06.000Z</time>
      </trkpt>
      <trkpt lat="27.881664" lon="86.8208">
        <ele>4252</ele>
        <time>2022-10-23T07:19:09.000Z</time>
      </trkpt>
      <trkpt lat="27.881661" lon="86.820826">
        <ele>4252</ele>
        <time>2022-10-23T07:19:12.000Z</time>
      </trkpt>
      <trkpt lat="27.881664" lon="86.820864">
        <ele>4253</ele>
        <time>2022-10-23T07:19:16.000Z</time>
      </trkpt>
      <trkpt lat="27.881661" lon="86.82089">
        <ele>4253</ele>
        <time>2022-10-23T07:19:20.000Z</time>
      </trkpt>
      <trkpt lat="27.881661" lon="86.820915">
        <ele>4253.4</ele>
        <time>2022-10-23T07:19:23.000Z</time>
      </trkpt>
      <trkpt lat="27.881677" lon="86.820941">
        <ele>4253.4</ele>
        <time>2022-10-23T07:19:27.000Z</time>
      </trkpt>
      <trkpt lat="27.881686" lon="86.82096">
        <ele>4253.8</ele>
        <time>2022-10-23T07:19:30.000Z</time>
      </trkpt>
      <trkpt lat="27.881686" lon="86.820992">
        <ele>4254</ele>
        <time>2022-10-23T07:19:34.000Z</time>
      </trkpt>
      <trkpt lat="27.881686" lon="86.821018">
        <ele>4254.8</ele>
        <time>2022-10-23T07:19:38.000Z</time>
      </trkpt>
      <trkpt lat="27.88169" lon="86.821043">
        <ele>4255.8</ele>
        <time>2022-10-23T07:19:43.000Z</time>
      </trkpt>
      <trkpt lat="27.88168" lon="86.821069">
        <ele>4256.8</ele>
        <time>2022-10-23T07:19:46.000Z</time>
      </trkpt>
      <trkpt lat="27.88167" lon="86.821088">
        <ele>4257.8</ele>
        <time>2022-10-23T07:19:50.000Z</time>
      </trkpt>
      <trkpt lat="27.881664" lon="86.821107">
        <ele>4258.4</ele>
        <time>2022-10-23T07:19:53.000Z</time>
      </trkpt>
      <trkpt lat="27.88167" lon="86.821126">
        <ele>4258.2</ele>
        <time>2022-10-23T07:19:57.000Z</time>
      </trkpt>
      <trkpt lat="27.881677" lon="86.821146">
        <ele>4257.8</ele>
        <time>2022-10-23T07:19:59.000Z</time>
      </trkpt>
      <trkpt lat="27.881686" lon="86.821165">
        <ele>4257</ele>
        <time>2022-10-23T07:20:02.000Z</time>
      </trkpt>
      <trkpt lat="27.881683" lon="86.82119">
        <ele>4257.6</ele>
        <time>2022-10-23T07:20:12.000Z</time>
      </trkpt>
      <trkpt lat="27.881702" lon="86.821222">
        <ele>4256.2</ele>
        <time>2022-10-23T07:20:28.000Z</time>
      </trkpt>
      <trkpt lat="27.881718" lon="86.821248">
        <ele>4256</ele>
        <time>2022-10-23T07:20:30.000Z</time>
      </trkpt>
      <trkpt lat="27.881725" lon="86.821267">
        <ele>4256</ele>
        <time>2022-10-23T07:20:31.000Z</time>
      </trkpt>
      <trkpt lat="27.881744" lon="86.82128">
        <ele>4256.2</ele>
        <time>2022-10-23T07:20:33.000Z</time>
      </trkpt>
      <trkpt lat="27.88175" lon="86.821299">
        <ele>4256.2</ele>
        <time>2022-10-23T07:20:34.000Z</time>
      </trkpt>
      <trkpt lat="27.88177" lon="86.821312">
        <ele>4256.2</ele>
        <time>2022-10-23T07:20:38.000Z</time>
      </trkpt>
      <trkpt lat="27.881786" lon="86.821325">
        <ele>4257</ele>
        <time>2022-10-23T07:20:41.000Z</time>
      </trkpt>
      <trkpt lat="27.881795" lon="86.821344">
        <ele>4257.6</ele>
        <time>2022-10-23T07:20:44.000Z</time>
      </trkpt>
      <trkpt lat="27.881808" lon="86.821363">
        <ele>4258.2</ele>
        <time>2022-10-23T07:20:53.000Z</time>
      </trkpt>
      <trkpt lat="27.881811" lon="86.821389">
        <ele>4259.4</ele>
        <time>2022-10-23T07:20:57.000Z</time>
      </trkpt>
      <trkpt lat="27.881818" lon="86.821421">
        <ele>4259.2</ele>
        <time>2022-10-23T07:21:02.000Z</time>
      </trkpt>
      <trkpt lat="27.881824" lon="86.82144">
        <ele>4259.8</ele>
        <time>2022-10-23T07:21:06.000Z</time>
      </trkpt>
      <trkpt lat="27.88183" lon="86.821466">
        <ele>4260.6</ele>
        <time>2022-10-23T07:21:11.000Z</time>
      </trkpt>
      <trkpt lat="27.881846" lon="86.821478">
        <ele>4261</ele>
        <time>2022-10-23T07:21:16.000Z</time>
      </trkpt>
      <trkpt lat="27.881856" lon="86.821498">
        <ele>4262.2</ele>
        <time>2022-10-23T07:21:20.000Z</time>
      </trkpt>
      <trkpt lat="27.881862" lon="86.821517">
        <ele>4263.4</ele>
        <time>2022-10-23T07:21:27.000Z</time>
      </trkpt>
      <trkpt lat="27.881882" lon="86.821536">
        <ele>4263.6</ele>
        <time>2022-10-23T07:21:36.000Z</time>
      </trkpt>
      <trkpt lat="27.881901" lon="86.821542">
        <ele>4265.2</ele>
        <time>2022-10-23T07:21:42.000Z</time>
      </trkpt>
      <trkpt lat="27.881917" lon="86.821562">
        <ele>4266.6</ele>
        <time>2022-10-23T07:21:48.000Z</time>
      </trkpt>
      <trkpt lat="27.881926" lon="86.821581">
        <ele>4267.8</ele>
        <time>2022-10-23T07:21:52.000Z</time>
      </trkpt>
      <trkpt lat="27.881926" lon="86.821606">
        <ele>4268.4</ele>
        <time>2022-10-23T07:21:56.000Z</time>
      </trkpt>
      <trkpt lat="27.881933" lon="86.821638">
        <ele>4266</ele>
        <time>2022-10-23T07:22:00.000Z</time>
      </trkpt>
      <trkpt lat="27.881936" lon="86.821664">
        <ele>4265.8</ele>
        <time>2022-10-23T07:22:03.000Z</time>
      </trkpt>
      <trkpt lat="27.881952" lon="86.821683">
        <ele>4265.4</ele>
        <time>2022-10-23T07:22:14.000Z</time>
      </trkpt>
      <trkpt lat="27.881981" lon="86.821709">
        <ele>4265.8</ele>
        <time>2022-10-23T07:22:33.000Z</time>
      </trkpt>
      <trkpt lat="27.881997" lon="86.821722">
        <ele>4265.2</ele>
        <time>2022-10-23T07:22:36.000Z</time>
      </trkpt>
      <trkpt lat="27.882006" lon="86.821741">
        <ele>4265</ele>
        <time>2022-10-23T07:23:36.000Z</time>
      </trkpt>
      <trkpt lat="27.882032" lon="86.82176">
        <ele>4263.4</ele>
        <time>2022-10-23T07:24:15.000Z</time>
      </trkpt>
      <trkpt lat="27.882048" lon="86.821773">
        <ele>4263.6</ele>
        <time>2022-10-23T07:24:16.000Z</time>
      </trkpt>
      <trkpt lat="27.882083" lon="86.821786">
        <ele>4263.6</ele>
        <time>2022-10-23T07:24:18.000Z</time>
      </trkpt>
      <trkpt lat="27.882109" lon="86.821798">
        <ele>4262.8</ele>
        <time>2022-10-23T07:24:20.000Z</time>
      </trkpt>
      <trkpt lat="27.882131" lon="86.821805">
        <ele>4262.8</ele>
        <time>2022-10-23T07:24:22.000Z</time>
      </trkpt>
      <trkpt lat="27.882154" lon="86.821805">
        <ele>4262.6</ele>
        <time>2022-10-23T07:24:25.000Z</time>
      </trkpt>
      <trkpt lat="27.882173" lon="86.821818">
        <ele>4261.6</ele>
        <time>2022-10-23T07:24:42.000Z</time>
      </trkpt>
      <trkpt lat="27.882192" lon="86.821824">
        <ele>4261.6</ele>
        <time>2022-10-23T07:24:43.000Z</time>
      </trkpt>
      <trkpt lat="27.882221" lon="86.82183">
        <ele>4262</ele>
        <time>2022-10-23T07:24:45.000Z</time>
      </trkpt>
      <trkpt lat="27.882246" lon="86.821843">
        <ele>4261.8</ele>
        <time>2022-10-23T07:24:47.000Z</time>
      </trkpt>
      <trkpt lat="27.882272" lon="86.821856">
        <ele>4261.6</ele>
        <time>2022-10-23T07:24:49.000Z</time>
      </trkpt>
      <trkpt lat="27.882298" lon="86.821869">
        <ele>4260.8</ele>
        <time>2022-10-23T07:24:51.000Z</time>
      </trkpt>
      <trkpt lat="27.882323" lon="86.821882">
        <ele>4261.4</ele>
        <time>2022-10-23T07:24:53.000Z</time>
      </trkpt>
      <trkpt lat="27.882333" lon="86.821901">
        <ele>4261</ele>
        <time>2022-10-23T07:24:55.000Z</time>
      </trkpt>
      <trkpt lat="27.882352" lon="86.82192">
        <ele>4261.2</ele>
        <time>2022-10-23T07:24:58.000Z</time>
      </trkpt>
      <trkpt lat="27.882394" lon="86.821952">
        <ele>4261.8</ele>
        <time>2022-10-23T07:25:02.000Z</time>
      </trkpt>
      <trkpt lat="27.882416" lon="86.821958">
        <ele>4261</ele>
        <time>2022-10-23T07:25:05.000Z</time>
      </trkpt>
      <trkpt lat="27.882442" lon="86.821971">
        <ele>4261</ele>
        <time>2022-10-23T07:25:07.000Z</time>
      </trkpt>
      <trkpt lat="27.882464" lon="86.821971">
        <ele>4260.8</ele>
        <time>2022-10-23T07:25:09.000Z</time>
      </trkpt>
      <trkpt lat="27.88249" lon="86.821978">
        <ele>4261</ele>
        <time>2022-10-23T07:25:11.000Z</time>
      </trkpt>
      <trkpt lat="27.882509" lon="86.821984">
        <ele>4260.4</ele>
        <time>2022-10-23T07:25:13.000Z</time>
      </trkpt>
      <trkpt lat="27.882534" lon="86.821997">
        <ele>4259.4</ele>
        <time>2022-10-23T07:25:36.000Z</time>
      </trkpt>
      <trkpt lat="27.88256" lon="86.822016">
        <ele>4259</ele>
        <time>2022-10-23T07:25:38.000Z</time>
      </trkpt>
      <trkpt lat="27.882592" lon="86.822022">
        <ele>4259</ele>
        <time>2022-10-23T07:25:40.000Z</time>
      </trkpt>
      <trkpt lat="27.882621" lon="86.822029">
        <ele>4259</ele>
        <time>2022-10-23T07:25:42.000Z</time>
      </trkpt>
      <trkpt lat="27.88265" lon="86.822035">
        <ele>4258.6</ele>
        <time>2022-10-23T07:25:44.000Z</time>
      </trkpt>
      <trkpt lat="27.882675" lon="86.822054">
        <ele>4258.4</ele>
        <time>2022-10-23T07:25:46.000Z</time>
      </trkpt>
      <trkpt lat="27.882698" lon="86.822067">
        <ele>4258.2</ele>
        <time>2022-10-23T07:25:48.000Z</time>
      </trkpt>
      <trkpt lat="27.88272" lon="86.82208">
        <ele>4258.2</ele>
        <time>2022-10-23T07:25:50.000Z</time>
      </trkpt>
      <trkpt lat="27.882739" lon="86.822099">
        <ele>4258.4</ele>
        <time>2022-10-23T07:25:52.000Z</time>
      </trkpt>
      <trkpt lat="27.882758" lon="86.822112">
        <ele>4258.2</ele>
        <time>2022-10-23T07:25:54.000Z</time>
      </trkpt>
      <trkpt lat="27.882781" lon="86.822131">
        <ele>4257.8</ele>
        <time>2022-10-23T07:25:56.000Z</time>
      </trkpt>
      <trkpt lat="27.882803" lon="86.822144">
        <ele>4257.8</ele>
        <time>2022-10-23T07:25:58.000Z</time>
      </trkpt>
      <trkpt lat="27.882822" lon="86.822157">
        <ele>4258.2</ele>
        <time>2022-10-23T07:26:00.000Z</time>
      </trkpt>
      <trkpt lat="27.882842" lon="86.82217">
        <ele>4257.8</ele>
        <time>2022-10-23T07:26:02.000Z</time>
      </trkpt>
      <trkpt lat="27.882858" lon="86.822182">
        <ele>4258.4</ele>
        <time>2022-10-23T07:26:04.000Z</time>
      </trkpt>
      <trkpt lat="27.882877" lon="86.822195">
        <ele>4258.6</ele>
        <time>2022-10-23T07:26:06.000Z</time>
      </trkpt>
      <trkpt lat="27.882896" lon="86.822214">
        <ele>4258.8</ele>
        <time>2022-10-23T07:26:49.000Z</time>
      </trkpt>
      <trkpt lat="27.882918" lon="86.822221">
        <ele>4258.6</ele>
        <time>2022-10-23T07:26:51.000Z</time>
      </trkpt>
      <trkpt lat="27.882941" lon="86.822234">
        <ele>4259</ele>
        <time>2022-10-23T07:26:53.000Z</time>
      </trkpt>
      <trkpt lat="27.88297" lon="86.822253">
        <ele>4259.4</ele>
        <time>2022-10-23T07:26:55.000Z</time>
      </trkpt>
      <trkpt lat="27.882998" lon="86.822259">
        <ele>4259.4</ele>
        <time>2022-10-23T07:26:57.000Z</time>
      </trkpt>
      <trkpt lat="27.883021" lon="86.822272">
        <ele>4259.2</ele>
        <time>2022-10-23T07:27:00.000Z</time>
      </trkpt>
      <trkpt lat="27.883046" lon="86.822272">
        <ele>4259.6</ele>
        <time>2022-10-23T07:27:03.000Z</time>
      </trkpt>
      <trkpt lat="27.883069" lon="86.822278">
        <ele>4259.2</ele>
        <time>2022-10-23T07:27:06.000Z</time>
      </trkpt>
      <trkpt lat="27.883085" lon="86.822291">
        <ele>4259</ele>
        <time>2022-10-23T07:27:08.000Z</time>
      </trkpt>
      <trkpt lat="27.883104" lon="86.822291">
        <ele>4259.6</ele>
        <time>2022-10-23T07:27:10.000Z</time>
      </trkpt>
      <trkpt lat="27.88313" lon="86.822298">
        <ele>4259.2</ele>
        <time>2022-10-23T07:27:13.000Z</time>
      </trkpt>
      <trkpt lat="27.883155" lon="86.822304">
        <ele>4260.4</ele>
        <time>2022-10-23T07:27:16.000Z</time>
      </trkpt>
      <trkpt lat="27.883174" lon="86.822304">
        <ele>4260</ele>
        <time>2022-10-23T07:27:18.000Z</time>
      </trkpt>
      <trkpt lat="27.883194" lon="86.82231">
        <ele>4260</ele>
        <time>2022-10-23T07:27:21.000Z</time>
      </trkpt>
      <trkpt lat="27.883203" lon="86.82233">
        <ele>4259.8</ele>
        <time>2022-10-23T07:27:23.000Z</time>
      </trkpt>
      <trkpt lat="27.883222" lon="86.822342">
        <ele>4260.4</ele>
        <time>2022-10-23T07:27:26.000Z</time>
      </trkpt>
      <trkpt lat="27.883242" lon="86.822355">
        <ele>4259.6</ele>
        <time>2022-10-23T07:27:29.000Z</time>
      </trkpt>
      <trkpt lat="27.883254" lon="86.822374">
        <ele>4259.8</ele>
        <time>2022-10-23T07:27:31.000Z</time>
      </trkpt>
      <trkpt lat="27.883264" lon="86.822394">
        <ele>4260.4</ele>
        <time>2022-10-23T07:27:33.000Z</time>
      </trkpt>
      <trkpt lat="27.883277" lon="86.822413">
        <ele>4260.4</ele>
        <time>2022-10-23T07:27:35.000Z</time>
      </trkpt>
      <trkpt lat="27.883293" lon="86.822426">
        <ele>4260</ele>
        <time>2022-10-23T07:27:37.000Z</time>
      </trkpt>
      <trkpt lat="27.883312" lon="86.822438">
        <ele>4260.6</ele>
        <time>2022-10-23T07:27:40.000Z</time>
      </trkpt>
      <trkpt lat="27.883328" lon="86.822451">
        <ele>4260.8</ele>
        <time>2022-10-23T07:27:53.000Z</time>
      </trkpt>
      <trkpt lat="27.883344" lon="86.822464">
        <ele>4260.8</ele>
        <time>2022-10-23T07:27:56.000Z</time>
      </trkpt>
      <trkpt lat="27.883363" lon="86.82247">
        <ele>4260.6</ele>
        <time>2022-10-23T07:27:58.000Z</time>
      </trkpt>
      <trkpt lat="27.883386" lon="86.822477">
        <ele>4260</ele>
        <time>2022-10-23T07:28:01.000Z</time>
      </trkpt>
      <trkpt lat="27.883402" lon="86.82249">
        <ele>4260.6</ele>
        <time>2022-10-23T07:28:03.000Z</time>
      </trkpt>
      <trkpt lat="27.883424" lon="86.822496">
        <ele>4260.6</ele>
        <time>2022-10-23T07:28:06.000Z</time>
      </trkpt>
      <trkpt lat="27.883443" lon="86.822509">
        <ele>4260.6</ele>
        <time>2022-10-23T07:28:08.000Z</time>
      </trkpt>
      <trkpt lat="27.883466" lon="86.822515">
        <ele>4260.6</ele>
        <time>2022-10-23T07:28:11.000Z</time>
      </trkpt>
      <trkpt lat="27.883485" lon="86.822534">
        <ele>4260.6</ele>
        <time>2022-10-23T07:28:13.000Z</time>
      </trkpt>
      <trkpt lat="27.883501" lon="86.822547">
        <ele>4260.6</ele>
        <time>2022-10-23T07:28:15.000Z</time>
      </trkpt>
      <trkpt lat="27.883526" lon="86.82256">
        <ele>4261.2</ele>
        <time>2022-10-23T07:28:18.000Z</time>
      </trkpt>
      <trkpt lat="27.883542" lon="86.822579">
        <ele>4261.6</ele>
        <time>2022-10-23T07:28:20.000Z</time>
      </trkpt>
      <trkpt lat="27.883565" lon="86.822592">
        <ele>4262.2</ele>
        <time>2022-10-23T07:28:23.000Z</time>
      </trkpt>
      <trkpt lat="27.883584" lon="86.822611">
        <ele>4262</ele>
        <time>2022-10-23T07:28:25.000Z</time>
      </trkpt>
      <trkpt lat="27.883603" lon="86.822624">
        <ele>4261.6</ele>
        <time>2022-10-23T07:28:28.000Z</time>
      </trkpt>
      <trkpt lat="27.883622" lon="86.822637">
        <ele>4262.2</ele>
        <time>2022-10-23T07:28:30.000Z</time>
      </trkpt>
      <trkpt lat="27.883632" lon="86.822656">
        <ele>4262.6</ele>
        <time>2022-10-23T07:28:32.000Z</time>
      </trkpt>
      <trkpt lat="27.883651" lon="86.822669">
        <ele>4262.6</ele>
        <time>2022-10-23T07:28:35.000Z</time>
      </trkpt>
      <trkpt lat="27.883661" lon="86.822688">
        <ele>4262.6</ele>
        <time>2022-10-23T07:28:37.000Z</time>
      </trkpt>
      <trkpt lat="27.883677" lon="86.822707">
        <ele>4263.4</ele>
        <time>2022-10-23T07:28:40.000Z</time>
      </trkpt>
      <trkpt lat="27.883693" lon="86.822726">
        <ele>4264</ele>
        <time>2022-10-23T07:28:43.000Z</time>
      </trkpt>
      <trkpt lat="27.883712" lon="86.822739">
        <ele>4264</ele>
        <time>2022-10-23T07:28:46.000Z</time>
      </trkpt>
      <trkpt lat="27.883725" lon="86.822758">
        <ele>4264.4</ele>
        <time>2022-10-23T07:28:49.000Z</time>
      </trkpt>
      <trkpt lat="27.883738" lon="86.822778">
        <ele>4264.2</ele>
        <time>2022-10-23T07:28:51.000Z</time>
      </trkpt>
      <trkpt lat="27.883763" lon="86.822784">
        <ele>4265.2</ele>
        <time>2022-10-23T07:28:54.000Z</time>
      </trkpt>
      <trkpt lat="27.883779" lon="86.822797">
        <ele>4265</ele>
        <time>2022-10-23T07:28:57.000Z</time>
      </trkpt>
      <trkpt lat="27.883786" lon="86.822816">
        <ele>4265</ele>
        <time>2022-10-23T07:28:59.000Z</time>
      </trkpt>
      <trkpt lat="27.883811" lon="86.822822">
        <ele>4265.6</ele>
        <time>2022-10-23T07:29:02.000Z</time>
      </trkpt>
      <trkpt lat="27.88383" lon="86.822835">
        <ele>4265.8</ele>
        <time>2022-10-23T07:29:05.000Z</time>
      </trkpt>
      <trkpt lat="27.883843" lon="86.822854">
        <ele>4266</ele>
        <time>2022-10-23T07:29:08.000Z</time>
      </trkpt>
      <trkpt lat="27.883856" lon="86.822874">
        <ele>4266.2</ele>
        <time>2022-10-23T07:29:10.000Z</time>
      </trkpt>
      <trkpt lat="27.883862" lon="86.822893">
        <ele>4266.2</ele>
        <time>2022-10-23T07:29:12.000Z</time>
      </trkpt>
      <trkpt lat="27.883878" lon="86.822912">
        <ele>4266.8</ele>
        <time>2022-10-23T07:29:15.000Z</time>
      </trkpt>
      <trkpt lat="27.883894" lon="86.822925">
        <ele>4267</ele>
        <time>2022-10-23T07:29:17.000Z</time>
      </trkpt>
      <trkpt lat="27.883917" lon="86.822938">
        <ele>4267.6</ele>
        <time>2022-10-23T07:29:21.000Z</time>
      </trkpt>
      <trkpt lat="27.883946" lon="86.822944">
        <ele>4268</ele>
        <time>2022-10-23T07:29:25.000Z</time>
      </trkpt>
      <trkpt lat="27.883962" lon="86.822957">
        <ele>4268.2</ele>
        <time>2022-10-23T07:29:27.000Z</time>
      </trkpt>
      <trkpt lat="27.883984" lon="86.82297">
        <ele>4267.8</ele>
        <time>2022-10-23T07:29:30.000Z</time>
      </trkpt>
      <trkpt lat="27.884" lon="86.822982">
        <ele>4267.8</ele>
        <time>2022-10-23T07:29:32.000Z</time>
      </trkpt>
      <trkpt lat="27.884019" lon="86.822989">
        <ele>4267.8</ele>
        <time>2022-10-23T07:29:34.000Z</time>
      </trkpt>
      <trkpt lat="27.884042" lon="86.822995">
        <ele>4268</ele>
        <time>2022-10-23T07:29:37.000Z</time>
      </trkpt>
      <trkpt lat="27.884064" lon="86.822995">
        <ele>4268</ele>
        <time>2022-10-23T07:29:39.000Z</time>
      </trkpt>
      <trkpt lat="27.884083" lon="86.823008">
        <ele>4268.2</ele>
        <time>2022-10-23T07:29:41.000Z</time>
      </trkpt>
      <trkpt lat="27.884102" lon="86.823008">
        <ele>4268.2</ele>
        <time>2022-10-23T07:29:43.000Z</time>
      </trkpt>
      <trkpt lat="27.884122" lon="86.823021">
        <ele>4268.8</ele>
        <time>2022-10-23T07:29:46.000Z</time>
      </trkpt>
      <trkpt lat="27.884147" lon="86.823027">
        <ele>4268.8</ele>
        <time>2022-10-23T07:29:48.000Z</time>
      </trkpt>
      <trkpt lat="27.88416" lon="86.823053">
        <ele>4269</ele>
        <time>2022-10-23T07:29:50.000Z</time>
      </trkpt>
      <trkpt lat="27.88417" lon="86.823072">
        <ele>4268.6</ele>
        <time>2022-10-23T07:29:54.000Z</time>
      </trkpt>
      <trkpt lat="27.884182" lon="86.823091">
        <ele>4268.4</ele>
        <time>2022-10-23T07:29:56.000Z</time>
      </trkpt>
      <trkpt lat="27.884198" lon="86.823104">
        <ele>4268</ele>
        <time>2022-10-23T07:29:59.000Z</time>
      </trkpt>
      <trkpt lat="27.884211" lon="86.82313">
        <ele>4268.4</ele>
        <time>2022-10-23T07:30:07.000Z</time>
      </trkpt>
      <trkpt lat="27.88423" lon="86.823142">
        <ele>4268.2</ele>
        <time>2022-10-23T07:30:09.000Z</time>
      </trkpt>
      <trkpt lat="27.884253" lon="86.823155">
        <ele>4268.2</ele>
        <time>2022-10-23T07:30:12.000Z</time>
      </trkpt>
      <trkpt lat="27.884262" lon="86.823181">
        <ele>4268.2</ele>
        <time>2022-10-23T07:30:14.000Z</time>
      </trkpt>
      <trkpt lat="27.884282" lon="86.823206">
        <ele>4268.4</ele>
        <time>2022-10-23T07:30:17.000Z</time>
      </trkpt>
      <trkpt lat="27.884291" lon="86.823226">
        <ele>4268.6</ele>
        <time>2022-10-23T07:30:20.000Z</time>
      </trkpt>
      <trkpt lat="27.884298" lon="86.823245">
        <ele>4269</ele>
        <time>2022-10-23T07:30:22.000Z</time>
      </trkpt>
      <trkpt lat="27.88432" lon="86.823258">
        <ele>4269.2</ele>
        <time>2022-10-23T07:30:25.000Z</time>
      </trkpt>
      <trkpt lat="27.884342" lon="86.823283">
        <ele>4268.8</ele>
        <time>2022-10-23T07:30:28.000Z</time>
      </trkpt>
      <trkpt lat="27.884346" lon="86.823309">
        <ele>4269.6</ele>
        <time>2022-10-23T07:30:32.000Z</time>
      </trkpt>
      <trkpt lat="27.884355" lon="86.823334">
        <ele>4269.6</ele>
        <time>2022-10-23T07:30:34.000Z</time>
      </trkpt>
      <trkpt lat="27.884365" lon="86.823354">
        <ele>4269.8</ele>
        <time>2022-10-23T07:30:37.000Z</time>
      </trkpt>
      <trkpt lat="27.884371" lon="86.823373">
        <ele>4269.8</ele>
        <time>2022-10-23T07:30:39.000Z</time>
      </trkpt>
      <trkpt lat="27.884387" lon="86.823392">
        <ele>4270.2</ele>
        <time>2022-10-23T07:30:42.000Z</time>
      </trkpt>
      <trkpt lat="27.884397" lon="86.823411">
        <ele>4270.8</ele>
        <time>2022-10-23T07:30:44.000Z</time>
      </trkpt>
      <trkpt lat="27.884419" lon="86.823424">
        <ele>4270.8</ele>
        <time>2022-10-23T07:30:48.000Z</time>
      </trkpt>
      <trkpt lat="27.884435" lon="86.823443">
        <ele>4270.8</ele>
        <time>2022-10-23T07:30:50.000Z</time>
      </trkpt>
      <trkpt lat="27.884458" lon="86.82345">
        <ele>4270.8</ele>
        <time>2022-10-23T07:30:53.000Z</time>
      </trkpt>
      <trkpt lat="27.88447" lon="86.823482">
        <ele>4270.8</ele>
        <time>2022-10-23T07:30:56.000Z</time>
      </trkpt>
      <trkpt lat="27.884477" lon="86.823501">
        <ele>4271.2</ele>
        <time>2022-10-23T07:30:59.000Z</time>
      </trkpt>
      <trkpt lat="27.884486" lon="86.82352">
        <ele>4271.6</ele>
        <time>2022-10-23T07:31:02.000Z</time>
      </trkpt>
      <trkpt lat="27.884496" lon="86.823539">
        <ele>4271.6</ele>
        <time>2022-10-23T07:31:05.000Z</time>
      </trkpt>
      <trkpt lat="27.884502" lon="86.823565">
        <ele>4271.8</ele>
        <time>2022-10-23T07:31:08.000Z</time>
      </trkpt>
      <trkpt lat="27.884515" lon="86.823584">
        <ele>4271.8</ele>
        <time>2022-10-23T07:31:11.000Z</time>
      </trkpt>
      <trkpt lat="27.884528" lon="86.82361">
        <ele>4272</ele>
        <time>2022-10-23T07:31:13.000Z</time>
      </trkpt>
      <trkpt lat="27.884531" lon="86.823642">
        <ele>4272.2</ele>
        <time>2022-10-23T07:31:17.000Z</time>
      </trkpt>
      <trkpt lat="27.884544" lon="86.823661">
        <ele>4272.2</ele>
        <time>2022-10-23T07:31:20.000Z</time>
      </trkpt>
      <trkpt lat="27.884566" lon="86.823667">
        <ele>4272.8</ele>
        <time>2022-10-23T07:31:23.000Z</time>
      </trkpt>
      <trkpt lat="27.88457" lon="86.823693">
        <ele>4272.4</ele>
        <time>2022-10-23T07:31:26.000Z</time>
      </trkpt>
      <trkpt lat="27.884579" lon="86.823718">
        <ele>4272.4</ele>
        <time>2022-10-23T07:31:29.000Z</time>
      </trkpt>
      <trkpt lat="27.884586" lon="86.823738">
        <ele>4273</ele>
        <time>2022-10-23T07:31:32.000Z</time>
      </trkpt>
      <trkpt lat="27.884589" lon="86.823763">
        <ele>4273.2</ele>
        <time>2022-10-23T07:31:36.000Z</time>
      </trkpt>
      <trkpt lat="27.884598" lon="86.823789">
        <ele>4273.4</ele>
        <time>2022-10-23T07:31:39.000Z</time>
      </trkpt>
      <trkpt lat="27.884602" lon="86.823814">
        <ele>4274.2</ele>
        <time>2022-10-23T07:31:43.000Z</time>
      </trkpt>
      <trkpt lat="27.884608" lon="86.82384">
        <ele>4274.2</ele>
        <time>2022-10-23T07:31:46.000Z</time>
      </trkpt>
      <trkpt lat="27.884624" lon="86.823859">
        <ele>4274.4</ele>
        <time>2022-10-23T07:31:51.000Z</time>
      </trkpt>
      <trkpt lat="27.88463" lon="86.823885">
        <ele>4274.6</ele>
        <time>2022-10-23T07:31:55.000Z</time>
      </trkpt>
      <trkpt lat="27.884637" lon="86.823904">
        <ele>4275.4</ele>
        <time>2022-10-23T07:32:00.000Z</time>
      </trkpt>
      <trkpt lat="27.884643" lon="86.823923">
        <ele>4275.6</ele>
        <time>2022-10-23T07:32:03.000Z</time>
      </trkpt>
      <trkpt lat="27.88465" lon="86.823949">
        <ele>4276.2</ele>
        <time>2022-10-23T07:32:09.000Z</time>
      </trkpt>
      <trkpt lat="27.884656" lon="86.823968">
        <ele>4276.4</ele>
        <time>2022-10-23T07:32:13.000Z</time>
      </trkpt>
      <trkpt lat="27.884656" lon="86.824">
        <ele>4277</ele>
        <time>2022-10-23T07:32:19.000Z</time>
      </trkpt>
      <trkpt lat="27.884662" lon="86.824019">
        <ele>4278</ele>
        <time>2022-10-23T07:32:23.000Z</time>
      </trkpt>
      <trkpt lat="27.884675" lon="86.824038">
        <ele>4278.4</ele>
        <time>2022-10-23T07:32:28.000Z</time>
      </trkpt>
      <trkpt lat="27.884691" lon="86.824058">
        <ele>4279</ele>
        <time>2022-10-23T07:32:35.000Z</time>
      </trkpt>
      <trkpt lat="27.88471" lon="86.824064">
        <ele>4279.8</ele>
        <time>2022-10-23T07:32:43.000Z</time>
      </trkpt>
      <trkpt lat="27.884723" lon="86.824083">
        <ele>4280.4</ele>
        <time>2022-10-23T07:32:48.000Z</time>
      </trkpt>
      <trkpt lat="27.884733" lon="86.824109">
        <ele>4281.8</ele>
        <time>2022-10-23T07:32:56.000Z</time>
      </trkpt>
      <trkpt lat="27.884749" lon="86.824122">
        <ele>4281.8</ele>
        <time>2022-10-23T07:33:01.000Z</time>
      </trkpt>
      <trkpt lat="27.884765" lon="86.824134">
        <ele>4282.6</ele>
        <time>2022-10-23T07:33:06.000Z</time>
      </trkpt>
      <trkpt lat="27.884784" lon="86.824141">
        <ele>4282.6</ele>
        <time>2022-10-23T07:33:11.000Z</time>
      </trkpt>
      <trkpt lat="27.884803" lon="86.824141">
        <ele>4283.4</ele>
        <time>2022-10-23T07:33:15.000Z</time>
      </trkpt>
      <trkpt lat="27.884816" lon="86.82416">
        <ele>4286.6</ele>
        <time>2022-10-23T07:33:53.000Z</time>
      </trkpt>
      <trkpt lat="27.884832" lon="86.824173">
        <ele>4287.2</ele>
        <time>2022-10-23T07:33:55.000Z</time>
      </trkpt>
      <trkpt lat="27.884848" lon="86.824186">
        <ele>4287</ele>
        <time>2022-10-23T07:33:57.000Z</time>
      </trkpt>
      <trkpt lat="27.884864" lon="86.824205">
        <ele>4287.2</ele>
        <time>2022-10-23T07:34:01.000Z</time>
      </trkpt>
      <trkpt lat="27.884864" lon="86.824179">
        <ele>4288.2</ele>
        <time>2022-10-23T07:37:31.000Z</time>
      </trkpt>
      <trkpt lat="27.884874" lon="86.824205">
        <ele>4288.2</ele>
        <time>2022-10-23T07:37:32.000Z</time>
      </trkpt>
      <trkpt lat="27.884877" lon="86.824243">
        <ele>4288.8</ele>
        <time>2022-10-23T07:37:34.000Z</time>
      </trkpt>
      <trkpt lat="27.884886" lon="86.824275">
        <ele>4289</ele>
        <time>2022-10-23T07:37:36.000Z</time>
      </trkpt>
      <trkpt lat="27.884899" lon="86.824307">
        <ele>4289.2</ele>
        <time>2022-10-23T07:37:38.000Z</time>
      </trkpt>
      <trkpt lat="27.884906" lon="86.824333">
        <ele>4289.2</ele>
        <time>2022-10-23T07:37:39.000Z</time>
      </trkpt>
      <trkpt lat="27.884918" lon="86.824371">
        <ele>4289.4</ele>
        <time>2022-10-23T07:37:41.000Z</time>
      </trkpt>
      <trkpt lat="27.884944" lon="86.824384">
        <ele>4291</ele>
        <time>2022-10-23T07:38:10.000Z</time>
      </trkpt>
      <trkpt lat="27.884966" lon="86.824397">
        <ele>4291</ele>
        <time>2022-10-23T07:38:12.000Z</time>
      </trkpt>
      <trkpt lat="27.884989" lon="86.824397">
        <ele>4291.6</ele>
        <time>2022-10-23T07:38:14.000Z</time>
      </trkpt>
      <trkpt lat="27.885011" lon="86.824403">
        <ele>4291.8</ele>
        <time>2022-10-23T07:38:17.000Z</time>
      </trkpt>
      <trkpt lat="27.88503" lon="86.82441">
        <ele>4293</ele>
        <time>2022-10-23T07:38:22.000Z</time>
      </trkpt>
      <trkpt lat="27.885011" lon="86.82441">
        <ele>4293.4</ele>
        <time>2022-10-23T07:40:12.000Z</time>
      </trkpt>
      <trkpt lat="27.88503" lon="86.824435">
        <ele>4293.6</ele>
        <time>2022-10-23T07:40:14.000Z</time>
      </trkpt>
      <trkpt lat="27.885056" lon="86.824454">
        <ele>4293.6</ele>
        <time>2022-10-23T07:40:16.000Z</time>
      </trkpt>
      <trkpt lat="27.885075" lon="86.824474">
        <ele>4293.4</ele>
        <time>2022-10-23T07:40:18.000Z</time>
      </trkpt>
      <trkpt lat="27.885098" lon="86.824493">
        <ele>4293.4</ele>
        <time>2022-10-23T07:40:20.000Z</time>
      </trkpt>
      <trkpt lat="27.885123" lon="86.824518">
        <ele>4293.6</ele>
        <time>2022-10-23T07:40:22.000Z</time>
      </trkpt>
      <trkpt lat="27.885142" lon="86.824531">
        <ele>4294.2</ele>
        <time>2022-10-23T07:40:25.000Z</time>
      </trkpt>
      <trkpt lat="27.885158" lon="86.824544">
        <ele>4293.6</ele>
        <time>2022-10-23T07:40:27.000Z</time>
      </trkpt>
      <trkpt lat="27.885174" lon="86.824557">
        <ele>4293.4</ele>
        <time>2022-10-23T07:40:29.000Z</time>
      </trkpt>
      <trkpt lat="27.8852" lon="86.824563">
        <ele>4294</ele>
        <time>2022-10-23T07:40:32.000Z</time>
      </trkpt>
      <trkpt lat="27.885222" lon="86.824576">
        <ele>4294</ele>
        <time>2022-10-23T07:40:35.000Z</time>
      </trkpt>
      <trkpt lat="27.885238" lon="86.824595">
        <ele>4294</ele>
        <time>2022-10-23T07:40:37.000Z</time>
      </trkpt>
      <trkpt lat="27.885258" lon="86.824614">
        <ele>4293.8</ele>
        <time>2022-10-23T07:40:40.000Z</time>
      </trkpt>
      <trkpt lat="27.88527" lon="86.824634">
        <ele>4293.8</ele>
        <time>2022-10-23T07:40:42.000Z</time>
      </trkpt>
      <trkpt lat="27.88529" lon="86.82464">
        <ele>4293.6</ele>
        <time>2022-10-23T07:40:44.000Z</time>
      </trkpt>
      <trkpt lat="27.885309" lon="86.824646">
        <ele>4293.6</ele>
        <time>2022-10-23T07:40:46.000Z</time>
      </trkpt>
      <trkpt lat="27.885328" lon="86.824659">
        <ele>4293.8</ele>
        <time>2022-10-23T07:40:49.000Z</time>
      </trkpt>
      <trkpt lat="27.885344" lon="86.824678">
        <ele>4294.2</ele>
        <time>2022-10-23T07:40:51.000Z</time>
      </trkpt>
      <trkpt lat="27.88536" lon="86.824691">
        <ele>4294.8</ele>
        <time>2022-10-23T07:40:54.000Z</time>
      </trkpt>
      <trkpt lat="27.885379" lon="86.824704">
        <ele>4294.8</ele>
        <time>2022-10-23T07:40:56.000Z</time>
      </trkpt>
      <trkpt lat="27.885398" lon="86.824723">
        <ele>4295.6</ele>
        <time>2022-10-23T07:40:59.000Z</time>
      </trkpt>
      <trkpt lat="27.885414" lon="86.824742">
        <ele>4297</ele>
        <time>2022-10-23T07:41:02.000Z</time>
      </trkpt>
      <trkpt lat="27.885434" lon="86.824762">
        <ele>4297</ele>
        <time>2022-10-23T07:41:05.000Z</time>
      </trkpt>
      <trkpt lat="27.885456" lon="86.824774">
        <ele>4296.4</ele>
        <time>2022-10-23T07:41:08.000Z</time>
      </trkpt>
      <trkpt lat="27.885475" lon="86.824794">
        <ele>4296.2</ele>
        <time>2022-10-23T07:41:10.000Z</time>
      </trkpt>
      <trkpt lat="27.885494" lon="86.8248">
        <ele>4296.2</ele>
        <time>2022-10-23T07:41:12.000Z</time>
      </trkpt>
      <trkpt lat="27.88551" lon="86.824813">
        <ele>4295.8</ele>
        <time>2022-10-23T07:41:14.000Z</time>
      </trkpt>
      <trkpt lat="27.885523" lon="86.824832">
        <ele>4295.8</ele>
        <time>2022-10-23T07:41:16.000Z</time>
      </trkpt>
      <trkpt lat="27.885542" lon="86.824845">
        <ele>4296.4</ele>
        <time>2022-10-23T07:41:19.000Z</time>
      </trkpt>
      <trkpt lat="27.885558" lon="86.824858">
        <ele>4296.6</ele>
        <time>2022-10-23T07:41:21.000Z</time>
      </trkpt>
      <trkpt lat="27.885581" lon="86.82487">
        <ele>4296.6</ele>
        <time>2022-10-23T07:41:24.000Z</time>
      </trkpt>
      <trkpt lat="27.8856" lon="86.82489">
        <ele>4296.2</ele>
        <time>2022-10-23T07:41:27.000Z</time>
      </trkpt>
      <trkpt lat="27.885616" lon="86.824902">
        <ele>4296.2</ele>
        <time>2022-10-23T07:41:29.000Z</time>
      </trkpt>
      <trkpt lat="27.885632" lon="86.824915">
        <ele>4296.2</ele>
        <time>2022-10-23T07:41:31.000Z</time>
      </trkpt>
      <trkpt lat="27.885642" lon="86.824934">
        <ele>4296.6</ele>
        <time>2022-10-23T07:41:34.000Z</time>
      </trkpt>
      <trkpt lat="27.885661" lon="86.824954">
        <ele>4298</ele>
        <time>2022-10-23T07:41:37.000Z</time>
      </trkpt>
      <trkpt lat="27.885683" lon="86.82496">
        <ele>4299.2</ele>
        <time>2022-10-23T07:41:41.000Z</time>
      </trkpt>
      <trkpt lat="27.885706" lon="86.824966">
        <ele>4299</ele>
        <time>2022-10-23T07:41:44.000Z</time>
      </trkpt>
      <trkpt lat="27.885728" lon="86.824973">
        <ele>4299</ele>
        <time>2022-10-23T07:41:47.000Z</time>
      </trkpt>
      <trkpt lat="27.88575" lon="86.824992">
        <ele>4298.6</ele>
        <time>2022-10-23T07:41:50.000Z</time>
      </trkpt>
      <trkpt lat="27.88577" lon="86.824998">
        <ele>4298</ele>
        <time>2022-10-23T07:41:52.000Z</time>
      </trkpt>
      <trkpt lat="27.885792" lon="86.825005">
        <ele>4298.2</ele>
        <time>2022-10-23T07:41:55.000Z</time>
      </trkpt>
      <trkpt lat="27.885814" lon="86.825018">
        <ele>4298.6</ele>
        <time>2022-10-23T07:41:58.000Z</time>
      </trkpt>
      <trkpt lat="27.88583" lon="86.825037">
        <ele>4298.2</ele>
        <time>2022-10-23T07:42:00.000Z</time>
      </trkpt>
      <trkpt lat="27.885856" lon="86.825043">
        <ele>4298.4</ele>
        <time>2022-10-23T07:42:03.000Z</time>
      </trkpt>
      <trkpt lat="27.885875" lon="86.82505">
        <ele>4298.6</ele>
        <time>2022-10-23T07:42:06.000Z</time>
      </trkpt>
      <trkpt lat="27.885894" lon="86.825056">
        <ele>4299</ele>
        <time>2022-10-23T07:42:09.000Z</time>
      </trkpt>
      <trkpt lat="27.88591" lon="86.825069">
        <ele>4299</ele>
        <time>2022-10-23T07:42:11.000Z</time>
      </trkpt>
      <trkpt lat="27.885936" lon="86.825082">
        <ele>4298.6</ele>
        <time>2022-10-23T07:42:14.000Z</time>
      </trkpt>
      <trkpt lat="27.885958" lon="86.825094">
        <ele>4298.4</ele>
        <time>2022-10-23T07:42:17.000Z</time>
      </trkpt>
      <trkpt lat="27.885974" lon="86.825114">
        <ele>4298.2</ele>
        <time>2022-10-23T07:42:19.000Z</time>
      </trkpt>
      <trkpt lat="27.885997" lon="86.825133">
        <ele>4297.6</ele>
        <time>2022-10-23T07:42:22.000Z</time>
      </trkpt>
      <trkpt lat="27.886016" lon="86.825139">
        <ele>4297.6</ele>
        <time>2022-10-23T07:42:25.000Z</time>
      </trkpt>
      <trkpt lat="27.886035" lon="86.825152">
        <ele>4297.6</ele>
        <time>2022-10-23T07:42:27.000Z</time>
      </trkpt>
      <trkpt lat="27.886054" lon="86.825171">
        <ele>4298.2</ele>
        <time>2022-10-23T07:42:31.000Z</time>
      </trkpt>
      <trkpt lat="27.886074" lon="86.82519">
        <ele>4298.4</ele>
        <time>2022-10-23T07:42:34.000Z</time>
      </trkpt>
      <trkpt lat="27.886093" lon="86.825203">
        <ele>4298.8</ele>
        <time>2022-10-23T07:42:36.000Z</time>
      </trkpt>
      <trkpt lat="27.886109" lon="86.825216">
        <ele>4299.4</ele>
        <time>2022-10-23T07:42:40.000Z</time>
      </trkpt>
      <trkpt lat="27.886125" lon="86.825229">
        <ele>4300</ele>
        <time>2022-10-23T07:42:42.000Z</time>
      </trkpt>
      <trkpt lat="27.886144" lon="86.825242">
        <ele>4299.8</ele>
        <time>2022-10-23T07:42:45.000Z</time>
      </trkpt>
      <trkpt lat="27.886163" lon="86.825254">
        <ele>4300</ele>
        <time>2022-10-23T07:42:48.000Z</time>
      </trkpt>
      <trkpt lat="27.886186" lon="86.825274">
        <ele>4300.6</ele>
        <time>2022-10-23T07:42:51.000Z</time>
      </trkpt>
      <trkpt lat="27.886205" lon="86.82528">
        <ele>4301</ele>
        <time>2022-10-23T07:42:54.000Z</time>
      </trkpt>
      <trkpt lat="27.886224" lon="86.825286">
        <ele>4301.2</ele>
        <time>2022-10-23T07:42:57.000Z</time>
      </trkpt>
      <trkpt lat="27.886243" lon="86.825299">
        <ele>4301.6</ele>
        <time>2022-10-23T07:42:59.000Z</time>
      </trkpt>
      <trkpt lat="27.886259" lon="86.825312">
        <ele>4301.6</ele>
        <time>2022-10-23T07:43:02.000Z</time>
      </trkpt>
      <trkpt lat="27.886285" lon="86.825318">
        <ele>4301.2</ele>
        <time>2022-10-23T07:43:06.000Z</time>
      </trkpt>
      <trkpt lat="27.886307" lon="86.825338">
        <ele>4302.4</ele>
        <time>2022-10-23T07:43:10.000Z</time>
      </trkpt>
      <trkpt lat="27.886323" lon="86.82535">
        <ele>4302.6</ele>
        <time>2022-10-23T07:43:14.000Z</time>
      </trkpt>
      <trkpt lat="27.886339" lon="86.82537">
        <ele>4302.6</ele>
        <time>2022-10-23T07:43:18.000Z</time>
      </trkpt>
      <trkpt lat="27.886352" lon="86.825389">
        <ele>4303.4</ele>
        <time>2022-10-23T07:43:21.000Z</time>
      </trkpt>
      <trkpt lat="27.886368" lon="86.825402">
        <ele>4303.8</ele>
        <time>2022-10-23T07:43:24.000Z</time>
      </trkpt>
      <trkpt lat="27.886384" lon="86.825414">
        <ele>4303.8</ele>
        <time>2022-10-23T07:43:27.000Z</time>
      </trkpt>
      <trkpt lat="27.886397" lon="86.825434">
        <ele>4304.2</ele>
        <time>2022-10-23T07:43:30.000Z</time>
      </trkpt>
      <trkpt lat="27.886413" lon="86.825446">
        <ele>4304.8</ele>
        <time>2022-10-23T07:43:34.000Z</time>
      </trkpt>
      <trkpt lat="27.886413" lon="86.825472">
        <ele>4305.4</ele>
        <time>2022-10-23T07:43:37.000Z</time>
      </trkpt>
      <trkpt lat="27.886429" lon="86.825491">
        <ele>4305.2</ele>
        <time>2022-10-23T07:43:41.000Z</time>
      </trkpt>
      <trkpt lat="27.886442" lon="86.82551">
        <ele>4305.2</ele>
        <time>2022-10-23T07:43:43.000Z</time>
      </trkpt>
      <trkpt lat="27.886458" lon="86.825523">
        <ele>4304.8</ele>
        <time>2022-10-23T07:43:46.000Z</time>
      </trkpt>
      <trkpt lat="27.886474" lon="86.825536">
        <ele>4304.6</ele>
        <time>2022-10-23T07:43:49.000Z</time>
      </trkpt>
      <trkpt lat="27.886486" lon="86.825555">
        <ele>4304.8</ele>
        <time>2022-10-23T07:43:52.000Z</time>
      </trkpt>
      <trkpt lat="27.886506" lon="86.825562">
        <ele>4305.4</ele>
        <time>2022-10-23T07:43:55.000Z</time>
      </trkpt>
      <trkpt lat="27.886522" lon="86.825574">
        <ele>4305</ele>
        <time>2022-10-23T07:43:58.000Z</time>
      </trkpt>
      <trkpt lat="27.886538" lon="86.825594">
        <ele>4305</ele>
        <time>2022-10-23T07:44:01.000Z</time>
      </trkpt>
      <trkpt lat="27.886557" lon="86.825606">
        <ele>4304.8</ele>
        <time>2022-10-23T07:44:04.000Z</time>
      </trkpt>
      <trkpt lat="27.88657" lon="86.825626">
        <ele>4305.4</ele>
        <time>2022-10-23T07:44:06.000Z</time>
      </trkpt>
      <trkpt lat="27.886589" lon="86.825632">
        <ele>4305.4</ele>
        <time>2022-10-23T07:44:09.000Z</time>
      </trkpt>
      <trkpt lat="27.886605" lon="86.825645">
        <ele>4305.6</ele>
        <time>2022-10-23T07:44:11.000Z</time>
      </trkpt>
      <trkpt lat="27.88663" lon="86.825651">
        <ele>4305</ele>
        <time>2022-10-23T07:44:14.000Z</time>
      </trkpt>
      <trkpt lat="27.88665" lon="86.825658">
        <ele>4305.2</ele>
        <time>2022-10-23T07:44:17.000Z</time>
      </trkpt>
      <trkpt lat="27.886669" lon="86.82567">
        <ele>4305.2</ele>
        <time>2022-10-23T07:44:25.000Z</time>
      </trkpt>
      <trkpt lat="27.886694" lon="86.825683">
        <ele>4305.2</ele>
        <time>2022-10-23T07:44:28.000Z</time>
      </trkpt>
      <trkpt lat="27.886714" lon="86.825683">
        <ele>4304.8</ele>
        <time>2022-10-23T07:44:30.000Z</time>
      </trkpt>
      <trkpt lat="27.886736" lon="86.82569">
        <ele>4305</ele>
        <time>2022-10-23T07:44:32.000Z</time>
      </trkpt>
      <trkpt lat="27.886758" lon="86.82569">
        <ele>4304.8</ele>
        <time>2022-10-23T07:44:34.000Z</time>
      </trkpt>
      <trkpt lat="27.886781" lon="86.82569">
        <ele>4304</ele>
        <time>2022-10-23T07:44:36.000Z</time>
      </trkpt>
      <trkpt lat="27.88681" lon="86.82569">
        <ele>4304.2</ele>
        <time>2022-10-23T07:44:38.000Z</time>
      </trkpt>
      <trkpt lat="27.886829" lon="86.82569">
        <ele>4304.2</ele>
        <time>2022-10-23T07:44:40.000Z</time>
      </trkpt>
      <trkpt lat="27.886848" lon="86.825696">
        <ele>4304.2</ele>
        <time>2022-10-23T07:44:43.000Z</time>
      </trkpt>
      <trkpt lat="27.886864" lon="86.825709">
        <ele>4303.8</ele>
        <time>2022-10-23T07:44:45.000Z</time>
      </trkpt>
      <trkpt lat="27.88688" lon="86.825722">
        <ele>4303.8</ele>
        <time>2022-10-23T07:44:48.000Z</time>
      </trkpt>
      <trkpt lat="27.886902" lon="86.825734">
        <ele>4303.6</ele>
        <time>2022-10-23T07:44:51.000Z</time>
      </trkpt>
      <trkpt lat="27.886918" lon="86.825747">
        <ele>4303.6</ele>
        <time>2022-10-23T07:44:53.000Z</time>
      </trkpt>
      <trkpt lat="27.886941" lon="86.825754">
        <ele>4302.8</ele>
        <time>2022-10-23T07:44:56.000Z</time>
      </trkpt>
      <trkpt lat="27.88696" lon="86.82576">
        <ele>4303.6</ele>
        <time>2022-10-23T07:44:58.000Z</time>
      </trkpt>
      <trkpt lat="27.886998" lon="86.825786">
        <ele>4303.4</ele>
        <time>2022-10-23T07:45:04.000Z</time>
      </trkpt>
      <trkpt lat="27.887021" lon="86.825798">
        <ele>4303.2</ele>
        <time>2022-10-23T07:45:07.000Z</time>
      </trkpt>
      <trkpt lat="27.887046" lon="86.825811">
        <ele>4302.8</ele>
        <time>2022-10-23T07:45:10.000Z</time>
      </trkpt>
      <trkpt lat="27.887062" lon="86.825824">
        <ele>4302.8</ele>
        <time>2022-10-23T07:45:12.000Z</time>
      </trkpt>
      <trkpt lat="27.887082" lon="86.82583">
        <ele>4303.2</ele>
        <time>2022-10-23T07:45:15.000Z</time>
      </trkpt>
      <trkpt lat="27.887101" lon="86.825843">
        <ele>4303</ele>
        <time>2022-10-23T07:45:18.000Z</time>
      </trkpt>
      <trkpt lat="27.887117" lon="86.825856">
        <ele>4303</ele>
        <time>2022-10-23T07:45:20.000Z</time>
      </trkpt>
      <trkpt lat="27.887136" lon="86.825875">
        <ele>4303.2</ele>
        <time>2022-10-23T07:45:23.000Z</time>
      </trkpt>
      <trkpt lat="27.887158" lon="86.825888">
        <ele>4303</ele>
        <time>2022-10-23T07:45:26.000Z</time>
      </trkpt>
      <trkpt lat="27.887181" lon="86.825894">
        <ele>4303</ele>
        <time>2022-10-23T07:45:29.000Z</time>
      </trkpt>
      <trkpt lat="27.887197" lon="86.825907">
        <ele>4303</ele>
        <time>2022-10-23T07:45:31.000Z</time>
      </trkpt>
      <trkpt lat="27.887222" lon="86.825914">
        <ele>4303.8</ele>
        <time>2022-10-23T07:45:34.000Z</time>
      </trkpt>
      <trkpt lat="27.887248" lon="86.82592">
        <ele>4303.8</ele>
        <time>2022-10-23T07:45:38.000Z</time>
      </trkpt>
      <trkpt lat="27.887267" lon="86.825933">
        <ele>4304.2</ele>
        <time>2022-10-23T07:45:42.000Z</time>
      </trkpt>
      <trkpt lat="27.887286" lon="86.825952">
        <ele>4304.2</ele>
        <time>2022-10-23T07:45:45.000Z</time>
      </trkpt>
      <trkpt lat="27.887306" lon="86.825965">
        <ele>4304.4</ele>
        <time>2022-10-23T07:45:48.000Z</time>
      </trkpt>
      <trkpt lat="27.887325" lon="86.825971">
        <ele>4304.4</ele>
        <time>2022-10-23T07:45:50.000Z</time>
      </trkpt>
      <trkpt lat="27.887338" lon="86.82599">
        <ele>4304.6</ele>
        <time>2022-10-23T07:45:52.000Z</time>
      </trkpt>
      <trkpt lat="27.887357" lon="86.825997">
        <ele>4305</ele>
        <time>2022-10-23T07:45:55.000Z</time>
      </trkpt>
      <trkpt lat="27.887379" lon="86.826003">
        <ele>4305.2</ele>
        <time>2022-10-23T07:45:58.000Z</time>
      </trkpt>
      <trkpt lat="27.887405" lon="86.82601">
        <ele>4304.6</ele>
        <time>2022-10-23T07:46:01.000Z</time>
      </trkpt>
      <trkpt lat="27.887421" lon="86.826022">
        <ele>4304.4</ele>
        <time>2022-10-23T07:46:03.000Z</time>
      </trkpt>
      <trkpt lat="27.887446" lon="86.826035">
        <ele>4304.2</ele>
        <time>2022-10-23T07:46:06.000Z</time>
      </trkpt>
      <trkpt lat="27.887466" lon="86.826042">
        <ele>4304.4</ele>
        <time>2022-10-23T07:46:09.000Z</time>
      </trkpt>
      <trkpt lat="27.887485" lon="86.826048">
        <ele>4304.2</ele>
        <time>2022-10-23T07:46:11.000Z</time>
      </trkpt>
      <trkpt lat="27.88751" lon="86.826048">
        <ele>4303.8</ele>
        <time>2022-10-23T07:46:14.000Z</time>
      </trkpt>
      <trkpt lat="27.887533" lon="86.826048">
        <ele>4304.6</ele>
        <time>2022-10-23T07:46:18.000Z</time>
      </trkpt>
      <trkpt lat="27.887552" lon="86.826048">
        <ele>4304.6</ele>
        <time>2022-10-23T07:46:21.000Z</time>
      </trkpt>
      <trkpt lat="27.887571" lon="86.826054">
        <ele>4304</ele>
        <time>2022-10-23T07:46:30.000Z</time>
      </trkpt>
      <trkpt lat="27.887603" lon="86.826067">
        <ele>4302.2</ele>
        <time>2022-10-23T07:46:54.000Z</time>
      </trkpt>
      <trkpt lat="27.887622" lon="86.826054">
        <ele>4302.2</ele>
        <time>2022-10-23T07:46:55.000Z</time>
      </trkpt>
      <trkpt lat="27.887638" lon="86.826067">
        <ele>4301.8</ele>
        <time>2022-10-23T07:46:56.000Z</time>
      </trkpt>
      <trkpt lat="27.887658" lon="86.826067">
        <ele>4301.8</ele>
        <time>2022-10-23T07:46:57.000Z</time>
      </trkpt>
      <trkpt lat="27.887693" lon="86.826067">
        <ele>4302</ele>
        <time>2022-10-23T07:46:59.000Z</time>
      </trkpt>
      <trkpt lat="27.887712" lon="86.826054">
        <ele>4301.2</ele>
        <time>2022-10-23T07:47:00.000Z</time>
      </trkpt>
      <trkpt lat="27.887731" lon="86.826054">
        <ele>4301</ele>
        <time>2022-10-23T07:47:01.000Z</time>
      </trkpt>
      <trkpt lat="27.887757" lon="86.826048">
        <ele>4301</ele>
        <time>2022-10-23T07:47:03.000Z</time>
      </trkpt>
      <trkpt lat="27.887776" lon="86.826042">
        <ele>4300.8</ele>
        <time>2022-10-23T07:47:05.000Z</time>
      </trkpt>
      <trkpt lat="27.887802" lon="86.826035">
        <ele>4300.4</ele>
        <time>2022-10-23T07:47:08.000Z</time>
      </trkpt>
      <trkpt lat="27.887818" lon="86.826022">
        <ele>4300.4</ele>
        <time>2022-10-23T07:47:10.000Z</time>
      </trkpt>
      <trkpt lat="27.887837" lon="86.82601">
        <ele>4300.4</ele>
        <time>2022-10-23T07:47:12.000Z</time>
      </trkpt>
      <trkpt lat="27.887856" lon="86.826022">
        <ele>4299.6</ele>
        <time>2022-10-23T07:47:14.000Z</time>
      </trkpt>
      <trkpt lat="27.887882" lon="86.826029">
        <ele>4299.4</ele>
        <time>2022-10-23T07:47:17.000Z</time>
      </trkpt>
      <trkpt lat="27.887904" lon="86.826022">
        <ele>4300</ele>
        <time>2022-10-23T07:47:20.000Z</time>
      </trkpt>
      <trkpt lat="27.887923" lon="86.82601">
        <ele>4299.6</ele>
        <time>2022-10-23T07:47:22.000Z</time>
      </trkpt>
      <trkpt lat="27.887946" lon="86.826022">
        <ele>4299.8</ele>
        <time>2022-10-23T07:47:24.000Z</time>
      </trkpt>
      <trkpt lat="27.887965" lon="86.826029">
        <ele>4299.8</ele>
        <time>2022-10-23T07:47:27.000Z</time>
      </trkpt>
      <trkpt lat="27.887984" lon="86.826029">
        <ele>4300.4</ele>
        <time>2022-10-23T07:47:29.000Z</time>
      </trkpt>
      <trkpt lat="27.888003" lon="86.826035">
        <ele>4300.4</ele>
        <time>2022-10-23T07:47:31.000Z</time>
      </trkpt>
      <trkpt lat="27.888022" lon="86.826035">
        <ele>4300.4</ele>
        <time>2022-10-23T07:47:33.000Z</time>
      </trkpt>
      <trkpt lat="27.888042" lon="86.826048">
        <ele>4301.4</ele>
        <time>2022-10-23T07:47:36.000Z</time>
      </trkpt>
      <trkpt lat="27.888058" lon="86.826067">
        <ele>4301.2</ele>
        <time>2022-10-23T07:47:38.000Z</time>
      </trkpt>
      <trkpt lat="27.888074" lon="86.82608">
        <ele>4302</ele>
        <time>2022-10-23T07:47:41.000Z</time>
      </trkpt>
      <trkpt lat="27.888096" lon="86.826086">
        <ele>4302.2</ele>
        <time>2022-10-23T07:47:44.000Z</time>
      </trkpt>
      <trkpt lat="27.888109" lon="86.826106">
        <ele>4301.8</ele>
        <time>2022-10-23T07:47:46.000Z</time>
      </trkpt>
      <trkpt lat="27.888125" lon="86.826118">
        <ele>4302.4</ele>
        <time>2022-10-23T07:47:49.000Z</time>
      </trkpt>
      <trkpt lat="27.888134" lon="86.826144">
        <ele>4302.2</ele>
        <time>2022-10-23T07:47:52.000Z</time>
      </trkpt>
      <trkpt lat="27.888144" lon="86.826163">
        <ele>4302.2</ele>
        <time>2022-10-23T07:47:55.000Z</time>
      </trkpt>
      <trkpt lat="27.888154" lon="86.826182">
        <ele>4302.2</ele>
        <time>2022-10-23T07:47:58.000Z</time>
      </trkpt>
      <trkpt lat="27.88817" lon="86.826195">
        <ele>4302.4</ele>
        <time>2022-10-23T07:48:01.000Z</time>
      </trkpt>
      <trkpt lat="27.888189" lon="86.826221">
        <ele>4301.4</ele>
        <time>2022-10-23T07:48:04.000Z</time>
      </trkpt>
      <trkpt lat="27.888205" lon="86.826234">
        <ele>4301</ele>
        <time>2022-10-23T07:48:07.000Z</time>
      </trkpt>
      <trkpt lat="27.888227" lon="86.826246">
        <ele>4301</ele>
        <time>2022-10-23T07:48:10.000Z</time>
      </trkpt>
      <trkpt lat="27.888234" lon="86.826266">
        <ele>4301.4</ele>
        <time>2022-10-23T07:48:11.000Z</time>
      </trkpt>
      <trkpt lat="27.888253" lon="86.826272">
        <ele>4301.2</ele>
        <time>2022-10-23T07:48:13.000Z</time>
      </trkpt>
      <trkpt lat="27.888269" lon="86.826285">
        <ele>4301.2</ele>
        <time>2022-10-23T07:48:15.000Z</time>
      </trkpt>
      <trkpt lat="27.888278" lon="86.826304">
        <ele>4301.2</ele>
        <time>2022-10-23T07:48:18.000Z</time>
      </trkpt>
      <trkpt lat="27.888288" lon="86.826323">
        <ele>4301.2</ele>
        <time>2022-10-23T07:48:21.000Z</time>
      </trkpt>
      <trkpt lat="27.88831" lon="86.82633">
        <ele>4300.2</ele>
        <time>2022-10-23T07:48:24.000Z</time>
      </trkpt>
      <trkpt lat="27.888333" lon="86.826342">
        <ele>4300.2</ele>
        <time>2022-10-23T07:48:26.000Z</time>
      </trkpt>
      <trkpt lat="27.888355" lon="86.826342">
        <ele>4300</ele>
        <time>2022-10-23T07:48:28.000Z</time>
      </trkpt>
      <trkpt lat="27.888384" lon="86.826355">
        <ele>4300</ele>
        <time>2022-10-23T07:48:31.000Z</time>
      </trkpt>
      <trkpt lat="27.88841" lon="86.826362">
        <ele>4300</ele>
        <time>2022-10-23T07:48:34.000Z</time>
      </trkpt>
      <trkpt lat="27.888432" lon="86.826368">
        <ele>4300</ele>
        <time>2022-10-23T07:48:37.000Z</time>
      </trkpt>
      <trkpt lat="27.888451" lon="86.826381">
        <ele>4299.8</ele>
        <time>2022-10-23T07:48:40.000Z</time>
      </trkpt>
      <trkpt lat="27.88847" lon="86.826387">
        <ele>4299.8</ele>
        <time>2022-10-23T07:48:43.000Z</time>
      </trkpt>
      <trkpt lat="27.88849" lon="86.826394">
        <ele>4299.6</ele>
        <time>2022-10-23T07:48:45.000Z</time>
      </trkpt>
      <trkpt lat="27.888512" lon="86.826394">
        <ele>4299.4</ele>
        <time>2022-10-23T07:48:48.000Z</time>
      </trkpt>
      <trkpt lat="27.888534" lon="86.826394">
        <ele>4299.2</ele>
        <time>2022-10-23T07:48:50.000Z</time>
      </trkpt>
      <trkpt lat="27.888557" lon="86.826406">
        <ele>4298.6</ele>
        <time>2022-10-23T07:48:52.000Z</time>
      </trkpt>
      <trkpt lat="27.888579" lon="86.826419">
        <ele>4298.6</ele>
        <time>2022-10-23T07:48:54.000Z</time>
      </trkpt>
      <trkpt lat="27.888595" lon="86.826438">
        <ele>4298.4</ele>
        <time>2022-10-23T07:48:56.000Z</time>
      </trkpt>
      <trkpt lat="27.888611" lon="86.826464">
        <ele>4298.6</ele>
        <time>2022-10-23T07:48:58.000Z</time>
      </trkpt>
      <trkpt lat="27.888624" lon="86.826483">
        <ele>4298.6</ele>
        <time>2022-10-23T07:49:01.000Z</time>
      </trkpt>
      <trkpt lat="27.88863" lon="86.826502">
        <ele>4298.8</ele>
        <time>2022-10-23T07:49:02.000Z</time>
      </trkpt>
      <trkpt lat="27.88865" lon="86.826522">
        <ele>4298.8</ele>
        <time>2022-10-23T07:49:05.000Z</time>
      </trkpt>
      <trkpt lat="27.888669" lon="86.826541">
        <ele>4298.8</ele>
        <time>2022-10-23T07:49:07.000Z</time>
      </trkpt>
      <trkpt lat="27.888688" lon="86.826554">
        <ele>4298.8</ele>
        <time>2022-10-23T07:49:09.000Z</time>
      </trkpt>
      <trkpt lat="27.888707" lon="86.826579">
        <ele>4298.8</ele>
        <time>2022-10-23T07:49:12.000Z</time>
      </trkpt>
      <trkpt lat="27.888726" lon="86.826598">
        <ele>4299.4</ele>
        <time>2022-10-23T07:49:15.000Z</time>
      </trkpt>
      <trkpt lat="27.888739" lon="86.826624">
        <ele>4299.4</ele>
        <time>2022-10-23T07:49:18.000Z</time>
      </trkpt>
      <trkpt lat="27.888755" lon="86.826643">
        <ele>4299.6</ele>
        <time>2022-10-23T07:49:21.000Z</time>
      </trkpt>
      <trkpt lat="27.888778" lon="86.826662">
        <ele>4299.6</ele>
        <time>2022-10-23T07:49:24.000Z</time>
      </trkpt>
      <trkpt lat="27.888797" lon="86.826669">
        <ele>4299.8</ele>
        <time>2022-10-23T07:49:26.000Z</time>
      </trkpt>
      <trkpt lat="27.888813" lon="86.826682">
        <ele>4300</ele>
        <time>2022-10-23T07:49:28.000Z</time>
      </trkpt>
      <trkpt lat="27.888835" lon="86.826701">
        <ele>4300.6</ele>
        <time>2022-10-23T07:49:31.000Z</time>
      </trkpt>
      <trkpt lat="27.888858" lon="86.826707">
        <ele>4301</ele>
        <time>2022-10-23T07:49:34.000Z</time>
      </trkpt>
      <trkpt lat="27.888877" lon="86.82672">
        <ele>4301</ele>
        <time>2022-10-23T07:49:37.000Z</time>
      </trkpt>
      <trkpt lat="27.888899" lon="86.826726">
        <ele>4301</ele>
        <time>2022-10-23T07:49:40.000Z</time>
      </trkpt>
      <trkpt lat="27.888915" lon="86.826746">
        <ele>4300.8</ele>
        <time>2022-10-23T07:49:42.000Z</time>
      </trkpt>
      <trkpt lat="27.888941" lon="86.826758">
        <ele>4300.6</ele>
        <time>2022-10-23T07:49:45.000Z</time>
      </trkpt>
      <trkpt lat="27.888954" lon="86.826778">
        <ele>4300.6</ele>
        <time>2022-10-23T07:49:47.000Z</time>
      </trkpt>
      <trkpt lat="27.888973" lon="86.82679">
        <ele>4300.6</ele>
        <time>2022-10-23T07:49:50.000Z</time>
      </trkpt>
      <trkpt lat="27.888992" lon="86.82681">
        <ele>4300.4</ele>
        <time>2022-10-23T07:49:53.000Z</time>
      </trkpt>
      <trkpt lat="27.888998" lon="86.826829">
        <ele>4300.4</ele>
        <time>2022-10-23T07:49:55.000Z</time>
      </trkpt>
      <trkpt lat="27.889021" lon="86.826842">
        <ele>4300</ele>
        <time>2022-10-23T07:49:58.000Z</time>
      </trkpt>
      <trkpt lat="27.889046" lon="86.826861">
        <ele>4300.8</ele>
        <time>2022-10-23T07:50:01.000Z</time>
      </trkpt>
      <trkpt lat="27.889069" lon="86.826867">
        <ele>4300.6</ele>
        <time>2022-10-23T07:50:03.000Z</time>
      </trkpt>
      <trkpt lat="27.889094" lon="86.826874">
        <ele>4300.6</ele>
        <time>2022-10-23T07:50:06.000Z</time>
      </trkpt>
      <trkpt lat="27.889114" lon="86.826899">
        <ele>4300.2</ele>
        <time>2022-10-23T07:50:09.000Z</time>
      </trkpt>
      <trkpt lat="27.88913" lon="86.826918">
        <ele>4301.2</ele>
        <time>2022-10-23T07:50:12.000Z</time>
      </trkpt>
      <trkpt lat="27.889146" lon="86.826938">
        <ele>4300.6</ele>
        <time>2022-10-23T07:50:15.000Z</time>
      </trkpt>
      <trkpt lat="27.889165" lon="86.826957">
        <ele>4300.6</ele>
        <time>2022-10-23T07:50:18.000Z</time>
      </trkpt>
      <trkpt lat="27.889181" lon="86.826976">
        <ele>4300.4</ele>
        <time>2022-10-23T07:50:20.000Z</time>
      </trkpt>
      <trkpt lat="27.889197" lon="86.826989">
        <ele>4300.6</ele>
        <time>2022-10-23T07:50:23.000Z</time>
      </trkpt>
      <trkpt lat="27.889213" lon="86.827021">
        <ele>4301.2</ele>
        <time>2022-10-23T07:50:26.000Z</time>
      </trkpt>
      <trkpt lat="27.889222" lon="86.82704">
        <ele>4300.4</ele>
        <time>2022-10-23T07:50:29.000Z</time>
      </trkpt>
      <trkpt lat="27.889232" lon="86.827059">
        <ele>4300.4</ele>
        <time>2022-10-23T07:50:31.000Z</time>
      </trkpt>
      <trkpt lat="27.889254" lon="86.827072">
        <ele>4301.4</ele>
        <time>2022-10-23T07:50:35.000Z</time>
      </trkpt>
      <trkpt lat="27.889264" lon="86.827098">
        <ele>4301.6</ele>
        <time>2022-10-23T07:50:38.000Z</time>
      </trkpt>
      <trkpt lat="27.889283" lon="86.82711">
        <ele>4301.8</ele>
        <time>2022-10-23T07:50:41.000Z</time>
      </trkpt>
      <trkpt lat="27.889302" lon="86.827136">
        <ele>4301.8</ele>
        <time>2022-10-23T07:50:44.000Z</time>
      </trkpt>
      <trkpt lat="27.889325" lon="86.827155">
        <ele>4301.6</ele>
        <time>2022-10-23T07:50:48.000Z</time>
      </trkpt>
      <trkpt lat="27.889331" lon="86.827174">
        <ele>4301.8</ele>
        <time>2022-10-23T07:50:50.000Z</time>
      </trkpt>
      <trkpt lat="27.889354" lon="86.827187">
        <ele>4301.6</ele>
        <time>2022-10-23T07:50:53.000Z</time>
      </trkpt>
      <trkpt lat="27.889373" lon="86.8272">
        <ele>4301.8</ele>
        <time>2022-10-23T07:50:56.000Z</time>
      </trkpt>
      <trkpt lat="27.889382" lon="86.827219">
        <ele>4301.8</ele>
        <time>2022-10-23T07:50:57.000Z</time>
      </trkpt>
      <trkpt lat="27.889405" lon="86.827232">
        <ele>4302</ele>
        <time>2022-10-23T07:51:00.000Z</time>
      </trkpt>
      <trkpt lat="27.889424" lon="86.827258">
        <ele>4302</ele>
        <time>2022-10-23T07:51:03.000Z</time>
      </trkpt>
      <trkpt lat="27.88944" lon="86.82727">
        <ele>4302.2</ele>
        <time>2022-10-23T07:51:06.000Z</time>
      </trkpt>
      <trkpt lat="27.889459" lon="86.827283">
        <ele>4303.4</ele>
        <time>2022-10-23T07:51:09.000Z</time>
      </trkpt>
      <trkpt lat="27.889475" lon="86.827302">
        <ele>4303.4</ele>
        <time>2022-10-23T07:51:11.000Z</time>
      </trkpt>
      <trkpt lat="27.889494" lon="86.827309">
        <ele>4303.8</ele>
        <time>2022-10-23T07:51:14.000Z</time>
      </trkpt>
      <trkpt lat="27.889514" lon="86.827315">
        <ele>4304</ele>
        <time>2022-10-23T07:51:16.000Z</time>
      </trkpt>
      <trkpt lat="27.889536" lon="86.827334">
        <ele>4304.6</ele>
        <time>2022-10-23T07:51:19.000Z</time>
      </trkpt>
      <trkpt lat="27.889558" lon="86.827341">
        <ele>4304.6</ele>
        <time>2022-10-23T07:51:22.000Z</time>
      </trkpt>
      <trkpt lat="27.889584" lon="86.827347">
        <ele>4304.8</ele>
        <time>2022-10-23T07:51:25.000Z</time>
      </trkpt>
      <trkpt lat="27.889603" lon="86.827354">
        <ele>4305</ele>
        <time>2022-10-23T07:51:28.000Z</time>
      </trkpt>
      <trkpt lat="27.889622" lon="86.82736">
        <ele>4305.4</ele>
        <time>2022-10-23T07:51:30.000Z</time>
      </trkpt>
      <trkpt lat="27.889642" lon="86.827373">
        <ele>4305.6</ele>
        <time>2022-10-23T07:51:33.000Z</time>
      </trkpt>
      <trkpt lat="27.889664" lon="86.827379">
        <ele>4305.4</ele>
        <time>2022-10-23T07:51:36.000Z</time>
      </trkpt>
      <trkpt lat="27.889686" lon="86.827386">
        <ele>4305.8</ele>
        <time>2022-10-23T07:51:39.000Z</time>
      </trkpt>
      <trkpt lat="27.889709" lon="86.827386">
        <ele>4306.6</ele>
        <time>2022-10-23T07:51:42.000Z</time>
      </trkpt>
      <trkpt lat="27.889731" lon="86.827405">
        <ele>4306.4</ele>
        <time>2022-10-23T07:51:46.000Z</time>
      </trkpt>
      <trkpt lat="27.889744" lon="86.827424">
        <ele>4306.6</ele>
        <time>2022-10-23T07:51:48.000Z</time>
      </trkpt>
      <trkpt lat="27.889763" lon="86.82743">
        <ele>4306</ele>
        <time>2022-10-23T07:51:51.000Z</time>
      </trkpt>
      <trkpt lat="27.889786" lon="86.827437">
        <ele>4306.6</ele>
        <time>2022-10-23T07:51:54.000Z</time>
      </trkpt>
      <trkpt lat="27.889805" lon="86.827456">
        <ele>4307</ele>
        <time>2022-10-23T07:51:57.000Z</time>
      </trkpt>
      <trkpt lat="27.889827" lon="86.827462">
        <ele>4307</ele>
        <time>2022-10-23T07:52:00.000Z</time>
      </trkpt>
      <trkpt lat="27.889846" lon="86.827475">
        <ele>4307.6</ele>
        <time>2022-10-23T07:52:03.000Z</time>
      </trkpt>
      <trkpt lat="27.889869" lon="86.827482">
        <ele>4307.8</ele>
        <time>2022-10-23T07:52:06.000Z</time>
      </trkpt>
      <trkpt lat="27.889885" lon="86.827501">
        <ele>4307.8</ele>
        <time>2022-10-23T07:52:09.000Z</time>
      </trkpt>
      <trkpt lat="27.889907" lon="86.827507">
        <ele>4307.6</ele>
        <time>2022-10-23T07:52:13.000Z</time>
      </trkpt>
      <trkpt lat="27.88993" lon="86.827514">
        <ele>4308</ele>
        <time>2022-10-23T07:52:16.000Z</time>
      </trkpt>
      <trkpt lat="27.889946" lon="86.827533">
        <ele>4307.8</ele>
        <time>2022-10-23T07:52:18.000Z</time>
      </trkpt>
      <trkpt lat="27.889962" lon="86.827546">
        <ele>4307.8</ele>
        <time>2022-10-23T07:52:21.000Z</time>
      </trkpt>
      <trkpt lat="27.889981" lon="86.827571">
        <ele>4307.8</ele>
        <time>2022-10-23T07:52:24.000Z</time>
      </trkpt>
      <trkpt lat="27.889997" lon="86.827584">
        <ele>4308</ele>
        <time>2022-10-23T07:52:27.000Z</time>
      </trkpt>
      <trkpt lat="27.890016" lon="86.827597">
        <ele>4308</ele>
        <time>2022-10-23T07:52:29.000Z</time>
      </trkpt>
      <trkpt lat="27.890038" lon="86.827616">
        <ele>4307.8</ele>
        <time>2022-10-23T07:52:32.000Z</time>
      </trkpt>
      <trkpt lat="27.890051" lon="86.827635">
        <ele>4307.8</ele>
        <time>2022-10-23T07:52:35.000Z</time>
      </trkpt>
      <trkpt lat="27.890077" lon="86.827654">
        <ele>4308</ele>
        <time>2022-10-23T07:52:38.000Z</time>
      </trkpt>
      <trkpt lat="27.890096" lon="86.827674">
        <ele>4308.6</ele>
        <time>2022-10-23T07:52:42.000Z</time>
      </trkpt>
      <trkpt lat="27.890102" lon="86.827693">
        <ele>4308.6</ele>
        <time>2022-10-23T07:52:44.000Z</time>
      </trkpt>
      <trkpt lat="27.890122" lon="86.827706">
        <ele>4308.8</ele>
        <time>2022-10-23T07:52:47.000Z</time>
      </trkpt>
      <trkpt lat="27.890144" lon="86.827712">
        <ele>4309.6</ele>
        <time>2022-10-23T07:52:51.000Z</time>
      </trkpt>
      <trkpt lat="27.890163" lon="86.827718">
        <ele>4309.6</ele>
        <time>2022-10-23T07:52:54.000Z</time>
      </trkpt>
      <trkpt lat="27.89017" lon="86.827738">
        <ele>4309.8</ele>
        <time>2022-10-23T07:52:56.000Z</time>
      </trkpt>
      <trkpt lat="27.890182" lon="86.827757">
        <ele>4309.6</ele>
        <time>2022-10-23T07:52:59.000Z</time>
      </trkpt>
      <trkpt lat="27.890198" lon="86.827776">
        <ele>4309.6</ele>
        <time>2022-10-23T07:53:02.000Z</time>
      </trkpt>
      <trkpt lat="27.890221" lon="86.827782">
        <ele>4309.8</ele>
        <time>2022-10-23T07:53:05.000Z</time>
      </trkpt>
      <trkpt lat="27.890237" lon="86.827795">
        <ele>4310</ele>
        <time>2022-10-23T07:53:07.000Z</time>
      </trkpt>
      <trkpt lat="27.89025" lon="86.827821">
        <ele>4310.4</ele>
        <time>2022-10-23T07:53:10.000Z</time>
      </trkpt>
      <trkpt lat="27.890256" lon="86.82784">
        <ele>4310.6</ele>
        <time>2022-10-23T07:53:13.000Z</time>
      </trkpt>
      <trkpt lat="27.890262" lon="86.827866">
        <ele>4310.8</ele>
        <time>2022-10-23T07:53:16.000Z</time>
      </trkpt>
      <trkpt lat="27.890282" lon="86.827878">
        <ele>4311.8</ele>
        <time>2022-10-23T07:53:19.000Z</time>
      </trkpt>
      <trkpt lat="27.890291" lon="86.827898">
        <ele>4312.4</ele>
        <time>2022-10-23T07:53:21.000Z</time>
      </trkpt>
      <trkpt lat="27.890307" lon="86.82791">
        <ele>4312.4</ele>
        <time>2022-10-23T07:53:24.000Z</time>
      </trkpt>
      <trkpt lat="27.890314" lon="86.82793">
        <ele>4312.2</ele>
        <time>2022-10-23T07:53:26.000Z</time>
      </trkpt>
      <trkpt lat="27.89033" lon="86.827949">
        <ele>4312.6</ele>
        <time>2022-10-23T07:53:30.000Z</time>
      </trkpt>
      <trkpt lat="27.890346" lon="86.827962">
        <ele>4312.6</ele>
        <time>2022-10-23T07:53:33.000Z</time>
      </trkpt>
      <trkpt lat="27.890352" lon="86.827981">
        <ele>4313.2</ele>
        <time>2022-10-23T07:53:35.000Z</time>
      </trkpt>
      <trkpt lat="27.890368" lon="86.827994">
        <ele>4313.4</ele>
        <time>2022-10-23T07:53:38.000Z</time>
      </trkpt>
      <trkpt lat="27.890387" lon="86.828">
        <ele>4313.2</ele>
        <time>2022-10-23T07:53:41.000Z</time>
      </trkpt>
      <trkpt lat="27.890403" lon="86.828019">
        <ele>4313</ele>
        <time>2022-10-23T07:53:43.000Z</time>
      </trkpt>
      <trkpt lat="27.890413" lon="86.828038">
        <ele>4313</ele>
        <time>2022-10-23T07:53:46.000Z</time>
      </trkpt>
      <trkpt lat="27.890422" lon="86.828058">
        <ele>4313</ele>
        <time>2022-10-23T07:53:49.000Z</time>
      </trkpt>
      <trkpt lat="27.890435" lon="86.828077">
        <ele>4313</ele>
        <time>2022-10-23T07:53:55.000Z</time>
      </trkpt>
      <trkpt lat="27.890454" lon="86.828096">
        <ele>4312.8</ele>
        <time>2022-10-23T07:53:58.000Z</time>
      </trkpt>
      <trkpt lat="27.890477" lon="86.828109">
        <ele>4312.8</ele>
        <time>2022-10-23T07:54:01.000Z</time>
      </trkpt>
      <trkpt lat="27.89049" lon="86.828128">
        <ele>4313</ele>
        <time>2022-10-23T07:54:03.000Z</time>
      </trkpt>
      <trkpt lat="27.890506" lon="86.828141">
        <ele>4313.4</ele>
        <time>2022-10-23T07:54:06.000Z</time>
      </trkpt>
      <trkpt lat="27.890525" lon="86.828154">
        <ele>4313.6</ele>
        <time>2022-10-23T07:54:08.000Z</time>
      </trkpt>
      <trkpt lat="27.890538" lon="86.828173">
        <ele>4313.6</ele>
        <time>2022-10-23T07:54:11.000Z</time>
      </trkpt>
      <trkpt lat="27.89055" lon="86.828192">
        <ele>4313.8</ele>
        <time>2022-10-23T07:54:14.000Z</time>
      </trkpt>
      <trkpt lat="27.890557" lon="86.828218">
        <ele>4314</ele>
        <time>2022-10-23T07:54:17.000Z</time>
      </trkpt>
      <trkpt lat="27.890566" lon="86.828237">
        <ele>4313.8</ele>
        <time>2022-10-23T07:54:19.000Z</time>
      </trkpt>
      <trkpt lat="27.890579" lon="86.828256">
        <ele>4314.4</ele>
        <time>2022-10-23T07:54:22.000Z</time>
      </trkpt>
      <trkpt lat="27.890595" lon="86.828269">
        <ele>4314.6</ele>
        <time>2022-10-23T07:54:25.000Z</time>
      </trkpt>
      <trkpt lat="27.890611" lon="86.828288">
        <ele>4315</ele>
        <time>2022-10-23T07:54:27.000Z</time>
      </trkpt>
      <trkpt lat="27.890634" lon="86.828294">
        <ele>4315</ele>
        <time>2022-10-23T07:54:30.000Z</time>
      </trkpt>
      <trkpt lat="27.890656" lon="86.828307">
        <ele>4315.6</ele>
        <time>2022-10-23T07:54:33.000Z</time>
      </trkpt>
      <trkpt lat="27.890672" lon="86.828326">
        <ele>4315.4</ele>
        <time>2022-10-23T07:54:35.000Z</time>
      </trkpt>
      <trkpt lat="27.890685" lon="86.828346">
        <ele>4316.2</ele>
        <time>2022-10-23T07:54:38.000Z</time>
      </trkpt>
      <trkpt lat="27.890701" lon="86.828358">
        <ele>4317.2</ele>
        <time>2022-10-23T07:54:41.000Z</time>
      </trkpt>
      <trkpt lat="27.89071" lon="86.828378">
        <ele>4317.2</ele>
        <time>2022-10-23T07:54:43.000Z</time>
      </trkpt>
      <trkpt lat="27.890723" lon="86.828397">
        <ele>4316.8</ele>
        <time>2022-10-23T07:54:46.000Z</time>
      </trkpt>
      <trkpt lat="27.890739" lon="86.828416">
        <ele>4317.2</ele>
        <time>2022-10-23T07:54:48.000Z</time>
      </trkpt>
      <trkpt lat="27.890758" lon="86.828435">
        <ele>4317.4</ele>
        <time>2022-10-23T07:54:51.000Z</time>
      </trkpt>
      <trkpt lat="27.890771" lon="86.828454">
        <ele>4317.2</ele>
        <time>2022-10-23T07:54:53.000Z</time>
      </trkpt>
      <trkpt lat="27.890787" lon="86.828474">
        <ele>4316.8</ele>
        <time>2022-10-23T07:54:56.000Z</time>
      </trkpt>
      <trkpt lat="27.890803" lon="86.828493">
        <ele>4317.4</ele>
        <time>2022-10-23T07:54:59.000Z</time>
      </trkpt>
      <trkpt lat="27.890816" lon="86.828512">
        <ele>4317</ele>
        <time>2022-10-23T07:55:02.000Z</time>
      </trkpt>
      <trkpt lat="27.890829" lon="86.828531">
        <ele>4317.6</ele>
        <time>2022-10-23T07:55:04.000Z</time>
      </trkpt>
      <trkpt lat="27.890845" lon="86.828544">
        <ele>4317.8</ele>
        <time>2022-10-23T07:55:06.000Z</time>
      </trkpt>
      <trkpt lat="27.890864" lon="86.82857">
        <ele>4318.4</ele>
        <time>2022-10-23T07:55:09.000Z</time>
      </trkpt>
      <trkpt lat="27.890883" lon="86.828582">
        <ele>4318.4</ele>
        <time>2022-10-23T07:55:12.000Z</time>
      </trkpt>
      <trkpt lat="27.890781" lon="86.828576">
        <ele>4318.8</ele>
        <time>2022-10-24T02:36:47.000Z</time>
      </trkpt>
      <trkpt lat="27.890771" lon="86.828557">
        <ele>4318.8</ele>
        <time>2022-10-24T02:36:48.000Z</time>
      </trkpt>
      <trkpt lat="27.890749" lon="86.828531">
        <ele>4318.8</ele>
        <time>2022-10-24T02:36:50.000Z</time>
      </trkpt>
      <trkpt lat="27.890736" lon="86.828512">
        <ele>4318.8</ele>
        <time>2022-10-24T02:36:51.000Z</time>
      </trkpt>
      <trkpt lat="27.89072" lon="86.828486">
        <ele>4318.6</ele>
        <time>2022-10-24T02:36:53.000Z</time>
      </trkpt>
      <trkpt lat="27.890704" lon="86.828467">
        <ele>4318.8</ele>
        <time>2022-10-24T02:36:55.000Z</time>
      </trkpt>
      <trkpt lat="27.890685" lon="86.828454">
        <ele>4318.6</ele>
        <time>2022-10-24T02:36:58.000Z</time>
      </trkpt>
      <trkpt lat="27.890672" lon="86.828435">
        <ele>4318.4</ele>
        <time>2022-10-24T02:37:00.000Z</time>
      </trkpt>
      <trkpt lat="27.890656" lon="86.828422">
        <ele>4318.4</ele>
        <time>2022-10-24T02:37:02.000Z</time>
      </trkpt>
      <trkpt lat="27.890643" lon="86.828397">
        <ele>4318</ele>
        <time>2022-10-24T02:37:05.000Z</time>
      </trkpt>
      <trkpt lat="27.890621" lon="86.828384">
        <ele>4318</ele>
        <time>2022-10-24T02:37:08.000Z</time>
      </trkpt>
      <trkpt lat="27.890605" lon="86.828371">
        <ele>4317.8</ele>
        <time>2022-10-24T02:37:10.000Z</time>
      </trkpt>
      <trkpt lat="27.890589" lon="86.828352">
        <ele>4317.8</ele>
        <time>2022-10-24T02:37:12.000Z</time>
      </trkpt>
      <trkpt lat="27.890566" lon="86.828339">
        <ele>4317.4</ele>
        <time>2022-10-24T02:37:15.000Z</time>
      </trkpt>
      <trkpt lat="27.89055" lon="86.828326">
        <ele>4317.4</ele>
        <time>2022-10-24T02:37:18.000Z</time>
      </trkpt>
      <trkpt lat="27.890534" lon="86.828314">
        <ele>4317</ele>
        <time>2022-10-24T02:37:20.000Z</time>
      </trkpt>
      <trkpt lat="27.890512" lon="86.828307">
        <ele>4317.4</ele>
        <time>2022-10-24T02:37:22.000Z</time>
      </trkpt>
      <trkpt lat="27.890493" lon="86.828301">
        <ele>4317</ele>
        <time>2022-10-24T02:37:24.000Z</time>
      </trkpt>
      <trkpt lat="27.890474" lon="86.828288">
        <ele>4317</ele>
        <time>2022-10-24T02:37:27.000Z</time>
      </trkpt>
      <trkpt lat="27.890464" lon="86.828269">
        <ele>4317</ele>
        <time>2022-10-24T02:37:28.000Z</time>
      </trkpt>
      <trkpt lat="27.890445" lon="86.828256">
        <ele>4316.8</ele>
        <time>2022-10-24T02:37:31.000Z</time>
      </trkpt>
      <trkpt lat="27.890419" lon="86.828237">
        <ele>4316.8</ele>
        <time>2022-10-24T02:37:34.000Z</time>
      </trkpt>
      <trkpt lat="27.890403" lon="86.828224">
        <ele>4316.2</ele>
        <time>2022-10-24T02:37:36.000Z</time>
      </trkpt>
      <trkpt lat="27.890387" lon="86.828211">
        <ele>4316.2</ele>
        <time>2022-10-24T02:37:38.000Z</time>
      </trkpt>
      <trkpt lat="27.890378" lon="86.828192">
        <ele>4316.6</ele>
        <time>2022-10-24T02:37:40.000Z</time>
      </trkpt>
      <trkpt lat="27.890365" lon="86.828173">
        <ele>4316</ele>
        <time>2022-10-24T02:37:42.000Z</time>
      </trkpt>
      <trkpt lat="27.890342" lon="86.828154">
        <ele>4316</ele>
        <time>2022-10-24T02:37:44.000Z</time>
      </trkpt>
      <trkpt lat="27.89033" lon="86.828128">
        <ele>4315.8</ele>
        <time>2022-10-24T02:37:47.000Z</time>
      </trkpt>
      <trkpt lat="27.890326" lon="86.828102">
        <ele>4315.6</ele>
        <time>2022-10-24T02:37:49.000Z</time>
      </trkpt>
      <trkpt lat="27.890323" lon="86.82807">
        <ele>4315.8</ele>
        <time>2022-10-24T02:37:52.000Z</time>
      </trkpt>
      <trkpt lat="27.89032" lon="86.828038">
        <ele>4315</ele>
        <time>2022-10-24T02:37:57.000Z</time>
      </trkpt>
      <trkpt lat="27.890307" lon="86.828019">
        <ele>4315.6</ele>
        <time>2022-10-24T02:38:00.000Z</time>
      </trkpt>
      <trkpt lat="27.890294" lon="86.828">
        <ele>4315.2</ele>
        <time>2022-10-24T02:38:02.000Z</time>
      </trkpt>
      <trkpt lat="27.890278" lon="86.827981">
        <ele>4315</ele>
        <time>2022-10-24T02:38:05.000Z</time>
      </trkpt>
      <trkpt lat="27.890269" lon="86.827962">
        <ele>4315</ele>
        <time>2022-10-24T02:38:07.000Z</time>
      </trkpt>
      <trkpt lat="27.890256" lon="86.827942">
        <ele>4314.2</ele>
        <time>2022-10-24T02:38:10.000Z</time>
      </trkpt>
      <trkpt lat="27.890237" lon="86.827917">
        <ele>4314.2</ele>
        <time>2022-10-24T02:38:13.000Z</time>
      </trkpt>
      <trkpt lat="27.890208" lon="86.827898">
        <ele>4313.4</ele>
        <time>2022-10-24T02:38:16.000Z</time>
      </trkpt>
      <trkpt lat="27.890198" lon="86.827872">
        <ele>4313.2</ele>
        <time>2022-10-24T02:38:18.000Z</time>
      </trkpt>
      <trkpt lat="27.890192" lon="86.827853">
        <ele>4313</ele>
        <time>2022-10-24T02:38:20.000Z</time>
      </trkpt>
      <trkpt lat="27.890186" lon="86.827834">
        <ele>4313</ele>
        <time>2022-10-24T02:38:22.000Z</time>
      </trkpt>
      <trkpt lat="27.89017" lon="86.827814">
        <ele>4312.4</ele>
        <time>2022-10-24T02:38:26.000Z</time>
      </trkpt>
      <trkpt lat="27.890157" lon="86.827795">
        <ele>4312.4</ele>
        <time>2022-10-24T02:38:28.000Z</time>
      </trkpt>
      <trkpt lat="27.890141" lon="86.827776">
        <ele>4312</ele>
        <time>2022-10-24T02:38:32.000Z</time>
      </trkpt>
      <trkpt lat="27.890128" lon="86.827757">
        <ele>4312.2</ele>
        <time>2022-10-24T02:38:39.000Z</time>
      </trkpt>
      <trkpt lat="27.890109" lon="86.827744">
        <ele>4311.6</ele>
        <time>2022-10-24T02:38:42.000Z</time>
      </trkpt>
      <trkpt lat="27.890086" lon="86.827731">
        <ele>4311.2</ele>
        <time>2022-10-24T02:38:45.000Z</time>
      </trkpt>
      <trkpt lat="27.890067" lon="86.827731">
        <ele>4311.2</ele>
        <time>2022-10-24T02:38:47.000Z</time>
      </trkpt>
      <trkpt lat="27.890051" lon="86.827712">
        <ele>4310.8</ele>
        <time>2022-10-24T02:38:49.000Z</time>
      </trkpt>
      <trkpt lat="27.890032" lon="86.827693">
        <ele>4310.6</ele>
        <time>2022-10-24T02:38:52.000Z</time>
      </trkpt>
      <trkpt lat="27.890016" lon="86.827674">
        <ele>4310.4</ele>
        <time>2022-10-24T02:38:54.000Z</time>
      </trkpt>
      <trkpt lat="27.889997" lon="86.827661">
        <ele>4310.2</ele>
        <time>2022-10-24T02:38:57.000Z</time>
      </trkpt>
      <trkpt lat="27.889987" lon="86.827642">
        <ele>4310.2</ele>
        <time>2022-10-24T02:38:59.000Z</time>
      </trkpt>
      <trkpt lat="27.889974" lon="86.827622">
        <ele>4309.8</ele>
        <time>2022-10-24T02:39:01.000Z</time>
      </trkpt>
      <trkpt lat="27.889962" lon="86.827603">
        <ele>4309.8</ele>
        <time>2022-10-24T02:39:03.000Z</time>
      </trkpt>
      <trkpt lat="27.889946" lon="86.82759">
        <ele>4309.8</ele>
        <time>2022-10-24T02:39:05.000Z</time>
      </trkpt>
      <trkpt lat="27.889923" lon="86.827578">
        <ele>4309.8</ele>
        <time>2022-10-24T02:39:08.000Z</time>
      </trkpt>
      <trkpt lat="27.889901" lon="86.827558">
        <ele>4309.8</ele>
        <time>2022-10-24T02:39:11.000Z</time>
      </trkpt>
      <trkpt lat="27.889882" lon="86.827552">
        <ele>4309.6</ele>
        <time>2022-10-24T02:39:13.000Z</time>
      </trkpt>
      <trkpt lat="27.889856" lon="86.827546">
        <ele>4309.6</ele>
        <time>2022-10-24T02:39:16.000Z</time>
      </trkpt>
      <trkpt lat="27.889837" lon="86.827539">
        <ele>4309.6</ele>
        <time>2022-10-24T02:39:18.000Z</time>
      </trkpt>
      <trkpt lat="27.889814" lon="86.827533">
        <ele>4309</ele>
        <time>2022-10-24T02:39:21.000Z</time>
      </trkpt>
      <trkpt lat="27.889798" lon="86.82752">
        <ele>4309</ele>
        <time>2022-10-24T02:39:23.000Z</time>
      </trkpt>
      <trkpt lat="27.889776" lon="86.827501">
        <ele>4308.8</ele>
        <time>2022-10-24T02:39:26.000Z</time>
      </trkpt>
      <trkpt lat="27.889757" lon="86.827482">
        <ele>4308.6</ele>
        <time>2022-10-24T02:39:29.000Z</time>
      </trkpt>
      <trkpt lat="27.889738" lon="86.827469">
        <ele>4308.6</ele>
        <time>2022-10-24T02:39:32.000Z</time>
      </trkpt>
      <trkpt lat="27.889715" lon="86.827456">
        <ele>4307.8</ele>
        <time>2022-10-24T02:39:35.000Z</time>
      </trkpt>
      <trkpt lat="27.889709" lon="86.827437">
        <ele>4308</ele>
        <time>2022-10-24T02:39:38.000Z</time>
      </trkpt>
      <trkpt lat="27.88969" lon="86.827424">
        <ele>4307.6</ele>
        <time>2022-10-24T02:39:58.000Z</time>
      </trkpt>
      <trkpt lat="27.889667" lon="86.827418">
        <ele>4307.6</ele>
        <time>2022-10-24T02:40:00.000Z</time>
      </trkpt>
      <trkpt lat="27.889645" lon="86.827405">
        <ele>4307.2</ele>
        <time>2022-10-24T02:40:02.000Z</time>
      </trkpt>
      <trkpt lat="27.889622" lon="86.827398">
        <ele>4307</ele>
        <time>2022-10-24T02:40:04.000Z</time>
      </trkpt>
      <trkpt lat="27.8896" lon="86.827386">
        <ele>4306.8</ele>
        <time>2022-10-24T02:40:06.000Z</time>
      </trkpt>
      <trkpt lat="27.889581" lon="86.827379">
        <ele>4306.6</ele>
        <time>2022-10-24T02:40:08.000Z</time>
      </trkpt>
      <trkpt lat="27.889562" lon="86.827379">
        <ele>4306.6</ele>
        <time>2022-10-24T02:40:10.000Z</time>
      </trkpt>
      <trkpt lat="27.889539" lon="86.827373">
        <ele>4306.6</ele>
        <time>2022-10-24T02:40:13.000Z</time>
      </trkpt>
      <trkpt lat="27.889523" lon="86.82736">
        <ele>4305.8</ele>
        <time>2022-10-24T02:40:15.000Z</time>
      </trkpt>
      <trkpt lat="27.889507" lon="86.827347">
        <ele>4305.8</ele>
        <time>2022-10-24T02:40:17.000Z</time>
      </trkpt>
      <trkpt lat="27.889485" lon="86.827322">
        <ele>4305.2</ele>
        <time>2022-10-24T02:40:20.000Z</time>
      </trkpt>
      <trkpt lat="27.889466" lon="86.827302">
        <ele>4305</ele>
        <time>2022-10-24T02:40:23.000Z</time>
      </trkpt>
      <trkpt lat="27.889446" lon="86.827283">
        <ele>4304.8</ele>
        <time>2022-10-24T02:40:25.000Z</time>
      </trkpt>
      <trkpt lat="27.889421" lon="86.82727">
        <ele>4304.4</ele>
        <time>2022-10-24T02:40:28.000Z</time>
      </trkpt>
      <trkpt lat="27.889398" lon="86.827258">
        <ele>4304</ele>
        <time>2022-10-24T02:40:31.000Z</time>
      </trkpt>
      <trkpt lat="27.889389" lon="86.827238">
        <ele>4304</ele>
        <time>2022-10-24T02:40:33.000Z</time>
      </trkpt>
      <trkpt lat="27.889382" lon="86.8272">
        <ele>4304.2</ele>
        <time>2022-10-24T02:40:53.000Z</time>
      </trkpt>
      <trkpt lat="27.889373" lon="86.827174">
        <ele>4304.2</ele>
        <time>2022-10-24T02:40:55.000Z</time>
      </trkpt>
      <trkpt lat="27.889363" lon="86.827155">
        <ele>4304.2</ele>
        <time>2022-10-24T02:40:56.000Z</time>
      </trkpt>
      <trkpt lat="27.88936" lon="86.827123">
        <ele>4304.2</ele>
        <time>2022-10-24T02:40:58.000Z</time>
      </trkpt>
      <trkpt lat="27.88935" lon="86.827098">
        <ele>4304.2</ele>
        <time>2022-10-24T02:41:00.000Z</time>
      </trkpt>
      <trkpt lat="27.889344" lon="86.827078">
        <ele>4304.4</ele>
        <time>2022-10-24T02:41:02.000Z</time>
      </trkpt>
      <trkpt lat="27.889363" lon="86.827072">
        <ele>4304.4</ele>
        <time>2022-10-24T02:41:13.000Z</time>
      </trkpt>
      <trkpt lat="27.889389" lon="86.827066">
        <ele>4304.4</ele>
        <time>2022-10-24T02:41:16.000Z</time>
      </trkpt>
      <trkpt lat="27.889398" lon="86.827046">
        <ele>4304.8</ele>
        <time>2022-10-24T02:41:18.000Z</time>
      </trkpt>
      <trkpt lat="27.889408" lon="86.827027">
        <ele>4305</ele>
        <time>2022-10-24T02:41:21.000Z</time>
      </trkpt>
      <trkpt lat="27.889414" lon="86.827002">
        <ele>4305</ele>
        <time>2022-10-24T02:41:23.000Z</time>
      </trkpt>
      <trkpt lat="27.889405" lon="86.826982">
        <ele>4305.2</ele>
        <time>2022-10-24T02:41:25.000Z</time>
      </trkpt>
      <trkpt lat="27.889402" lon="86.826957">
        <ele>4305.2</ele>
        <time>2022-10-24T02:41:27.000Z</time>
      </trkpt>
      <trkpt lat="27.889408" lon="86.826925">
        <ele>4305.8</ele>
        <time>2022-10-24T02:41:30.000Z</time>
      </trkpt>
      <trkpt lat="27.889418" lon="86.826906">
        <ele>4305.8</ele>
        <time>2022-10-24T02:41:33.000Z</time>
      </trkpt>
      <trkpt lat="27.88943" lon="86.826886">
        <ele>4306.2</ele>
        <time>2022-10-24T02:41:35.000Z</time>
      </trkpt>
      <trkpt lat="27.88945" lon="86.826874">
        <ele>4306.6</ele>
        <time>2022-10-24T02:41:38.000Z</time>
      </trkpt>
      <trkpt lat="27.889469" lon="86.826861">
        <ele>4306.6</ele>
        <time>2022-10-24T02:41:41.000Z</time>
      </trkpt>
      <trkpt lat="27.889478" lon="86.826842">
        <ele>4306.8</ele>
        <time>2022-10-24T02:41:43.000Z</time>
      </trkpt>
      <trkpt lat="27.889485" lon="86.826822">
        <ele>4306.8</ele>
        <time>2022-10-24T02:41:46.000Z</time>
      </trkpt>
      <trkpt lat="27.889491" lon="86.826803">
        <ele>4307</ele>
        <time>2022-10-24T02:41:48.000Z</time>
      </trkpt>
      <trkpt lat="27.889501" lon="86.826784">
        <ele>4307.2</ele>
        <time>2022-10-24T02:41:50.000Z</time>
      </trkpt>
      <trkpt lat="27.889514" lon="86.826765">
        <ele>4307.6</ele>
        <time>2022-10-24T02:41:53.000Z</time>
      </trkpt>
      <trkpt lat="27.88953" lon="86.826752">
        <ele>4307.6</ele>
        <time>2022-10-24T02:41:56.000Z</time>
      </trkpt>
      <trkpt lat="27.889539" lon="86.826726">
        <ele>4307.8</ele>
        <time>2022-10-24T02:42:00.000Z</time>
      </trkpt>
      <trkpt lat="27.889546" lon="86.826707">
        <ele>4307.8</ele>
        <time>2022-10-24T02:42:03.000Z</time>
      </trkpt>
      <trkpt lat="27.889549" lon="86.826682">
        <ele>4308.4</ele>
        <time>2022-10-24T02:42:08.000Z</time>
      </trkpt>
      <trkpt lat="27.889552" lon="86.82665">
        <ele>4309.6</ele>
        <time>2022-10-24T02:42:17.000Z</time>
      </trkpt>
      <trkpt lat="27.889571" lon="86.826637">
        <ele>4310.4</ele>
        <time>2022-10-24T02:42:24.000Z</time>
      </trkpt>
      <trkpt lat="27.889754" lon="86.826637">
        <ele>4319.6</ele>
        <time>2022-10-24T02:44:16.000Z</time>
      </trkpt>
      <trkpt lat="27.889782" lon="86.826637">
        <ele>4319.6</ele>
        <time>2022-10-24T02:44:19.000Z</time>
      </trkpt>
      <trkpt lat="27.889811" lon="86.82663">
        <ele>4320.2</ele>
        <time>2022-10-24T02:44:22.000Z</time>
      </trkpt>
      <trkpt lat="27.88983" lon="86.82663">
        <ele>4320.4</ele>
        <time>2022-10-24T02:44:24.000Z</time>
      </trkpt>
      <trkpt lat="27.88985" lon="86.826624">
        <ele>4321</ele>
        <time>2022-10-24T02:44:27.000Z</time>
      </trkpt>
      <trkpt lat="27.889891" lon="86.826592">
        <ele>4323.2</ele>
        <time>2022-10-24T02:45:49.000Z</time>
      </trkpt>
      <trkpt lat="27.889898" lon="86.826566">
        <ele>4323.4</ele>
        <time>2022-10-24T02:45:51.000Z</time>
      </trkpt>
      <trkpt lat="27.88991" lon="86.826502">
        <ele>4324.2</ele>
        <time>2022-10-24T02:47:26.000Z</time>
      </trkpt>
      <trkpt lat="27.88993" lon="86.82649">
        <ele>4325.2</ele>
        <time>2022-10-24T02:47:28.000Z</time>
      </trkpt>
      <trkpt lat="27.889949" lon="86.82647">
        <ele>4325</ele>
        <time>2022-10-24T02:47:31.000Z</time>
      </trkpt>
      <trkpt lat="27.889962" lon="86.826445">
        <ele>4325</ele>
        <time>2022-10-24T02:47:33.000Z</time>
      </trkpt>
      <trkpt lat="27.889978" lon="86.826432">
        <ele>4325</ele>
        <time>2022-10-24T02:47:35.000Z</time>
      </trkpt>
      <trkpt lat="27.889987" lon="86.826406">
        <ele>4325.8</ele>
        <time>2022-10-24T02:47:42.000Z</time>
      </trkpt>
      <trkpt lat="27.889997" lon="86.826387">
        <ele>4326.4</ele>
        <time>2022-10-24T02:47:47.000Z</time>
      </trkpt>
      <trkpt lat="27.889997" lon="86.826362">
        <ele>4326.6</ele>
        <time>2022-10-24T02:47:52.000Z</time>
      </trkpt>
      <trkpt lat="27.88999" lon="86.82633">
        <ele>4327.4</ele>
        <time>2022-10-24T02:47:57.000Z</time>
      </trkpt>
      <trkpt lat="27.889997" lon="86.82631">
        <ele>4327.6</ele>
        <time>2022-10-24T02:48:02.000Z</time>
      </trkpt>
      <trkpt lat="27.890016" lon="86.82631">
        <ele>4328.2</ele>
        <time>2022-10-24T02:48:07.000Z</time>
      </trkpt>
      <trkpt lat="27.890035" lon="86.826317">
        <ele>4328.6</ele>
        <time>2022-10-24T02:48:13.000Z</time>
      </trkpt>
      <trkpt lat="27.890048" lon="86.826291">
        <ele>4329.2</ele>
        <time>2022-10-24T02:48:19.000Z</time>
      </trkpt>
      <trkpt lat="27.890067" lon="86.826278">
        <ele>4330</ele>
        <time>2022-10-24T02:48:27.000Z</time>
      </trkpt>
      <trkpt lat="27.89008" lon="86.826253">
        <ele>4331</ele>
        <time>2022-10-24T02:48:36.000Z</time>
      </trkpt>
      <trkpt lat="27.89008" lon="86.826227">
        <ele>4331.4</ele>
        <time>2022-10-24T02:48:44.000Z</time>
      </trkpt>
      <trkpt lat="27.89008" lon="86.826202">
        <ele>4331.8</ele>
        <time>2022-10-24T02:48:50.000Z</time>
      </trkpt>
      <trkpt lat="27.890086" lon="86.826182">
        <ele>4332.2</ele>
        <time>2022-10-24T02:48:59.000Z</time>
      </trkpt>
      <trkpt lat="27.890093" lon="86.826163">
        <ele>4332.4</ele>
        <time>2022-10-24T02:49:03.000Z</time>
      </trkpt>
      <trkpt lat="27.890374" lon="86.826042">
        <ele>4347.6</ele>
        <time>2022-10-24T02:52:00.000Z</time>
      </trkpt>
      <trkpt lat="27.890394" lon="86.826029">
        <ele>4348.2</ele>
        <time>2022-10-24T02:52:03.000Z</time>
      </trkpt>
      <trkpt lat="27.890413" lon="86.826022">
        <ele>4348.2</ele>
        <time>2022-10-24T02:52:05.000Z</time>
      </trkpt>
      <trkpt lat="27.890429" lon="86.82601">
        <ele>4348.4</ele>
        <time>2022-10-24T02:52:07.000Z</time>
      </trkpt>
      <trkpt lat="27.890448" lon="86.826003">
        <ele>4349</ele>
        <time>2022-10-24T02:52:10.000Z</time>
      </trkpt>
      <trkpt lat="27.890467" lon="86.825997">
        <ele>4349.2</ele>
        <time>2022-10-24T02:52:17.000Z</time>
      </trkpt>
      <trkpt lat="27.890486" lon="86.82599">
        <ele>4350</ele>
        <time>2022-10-24T02:52:23.000Z</time>
      </trkpt>
      <trkpt lat="27.890502" lon="86.825971">
        <ele>4350.2</ele>
        <time>2022-10-24T02:52:29.000Z</time>
      </trkpt>
      <trkpt lat="27.890515" lon="86.825952">
        <ele>4351</ele>
        <time>2022-10-24T02:52:38.000Z</time>
      </trkpt>
      <trkpt lat="27.890608" lon="86.82585">
        <ele>4357.2</ele>
        <time>2022-10-24T02:53:57.000Z</time>
      </trkpt>
      <trkpt lat="27.89063" lon="86.82585">
        <ele>4357.4</ele>
        <time>2022-10-24T02:53:59.000Z</time>
      </trkpt>
      <trkpt lat="27.890653" lon="86.82585">
        <ele>4357.2</ele>
        <time>2022-10-24T02:54:01.000Z</time>
      </trkpt>
      <trkpt lat="27.890672" lon="86.82585">
        <ele>4357.2</ele>
        <time>2022-10-24T02:54:03.000Z</time>
      </trkpt>
      <trkpt lat="27.890691" lon="86.82585">
        <ele>4357.4</ele>
        <time>2022-10-24T02:54:05.000Z</time>
      </trkpt>
      <trkpt lat="27.89071" lon="86.82585">
        <ele>4357.8</ele>
        <time>2022-10-24T02:54:08.000Z</time>
      </trkpt>
      <trkpt lat="27.89073" lon="86.82585">
        <ele>4358.4</ele>
        <time>2022-10-24T02:54:14.000Z</time>
      </trkpt>
      <trkpt lat="27.890752" lon="86.825837">
        <ele>4358.8</ele>
        <time>2022-10-24T02:54:21.000Z</time>
      </trkpt>
      <trkpt lat="27.890736" lon="86.82585">
        <ele>4358.8</ele>
        <time>2022-10-24T02:57:35.000Z</time>
      </trkpt>
      <trkpt lat="27.890717" lon="86.825837">
        <ele>4358.6</ele>
        <time>2022-10-24T02:57:37.000Z</time>
      </trkpt>
      <trkpt lat="27.890694" lon="86.825837">
        <ele>4358</ele>
        <time>2022-10-24T02:57:43.000Z</time>
      </trkpt>
      <trkpt lat="27.890714" lon="86.825837">
        <ele>4358.2</ele>
        <time>2022-10-24T02:57:47.000Z</time>
      </trkpt>
      <trkpt lat="27.890736" lon="86.825837">
        <ele>4358.4</ele>
        <time>2022-10-24T02:57:50.000Z</time>
      </trkpt>
      <trkpt lat="27.890762" lon="86.825843">
        <ele>4358.4</ele>
        <time>2022-10-24T02:57:53.000Z</time>
      </trkpt>
      <trkpt lat="27.89079" lon="86.825837">
        <ele>4360</ele>
        <time>2022-10-24T03:00:12.000Z</time>
      </trkpt>
      <trkpt lat="27.890813" lon="86.825843">
        <ele>4360.6</ele>
        <time>2022-10-24T03:00:14.000Z</time>
      </trkpt>
      <trkpt lat="27.890835" lon="86.82585">
        <ele>4360.6</ele>
        <time>2022-10-24T03:00:16.000Z</time>
      </trkpt>
      <trkpt lat="27.890854" lon="86.825856">
        <ele>4360.8</ele>
        <time>2022-10-24T03:00:18.000Z</time>
      </trkpt>
      <trkpt lat="27.89087" lon="86.825869">
        <ele>4361</ele>
        <time>2022-10-24T03:00:19.000Z</time>
      </trkpt>
      <trkpt lat="27.890893" lon="86.825875">
        <ele>4361.4</ele>
        <time>2022-10-24T03:00:21.000Z</time>
      </trkpt>
      <trkpt lat="27.890909" lon="86.825888">
        <ele>4362.2</ele>
        <time>2022-10-24T03:00:26.000Z</time>
      </trkpt>
      <trkpt lat="27.890931" lon="86.825888">
        <ele>4362</ele>
        <time>2022-10-24T03:00:31.000Z</time>
      </trkpt>
      <trkpt lat="27.89095" lon="86.825907">
        <ele>4362.6</ele>
        <time>2022-10-24T03:00:36.000Z</time>
      </trkpt>
      <trkpt lat="27.89097" lon="86.825907">
        <ele>4363.2</ele>
        <time>2022-10-24T03:00:41.000Z</time>
      </trkpt>
      <trkpt lat="27.890989" lon="86.82592">
        <ele>4363.8</ele>
        <time>2022-10-24T03:00:46.000Z</time>
      </trkpt>
      <trkpt lat="27.891008" lon="86.825926">
        <ele>4364.4</ele>
        <time>2022-10-24T03:00:51.000Z</time>
      </trkpt>
      <trkpt lat="27.891027" lon="86.825933">
        <ele>4365</ele>
        <time>2022-10-24T03:00:55.000Z</time>
      </trkpt>
      <trkpt lat="27.891053" lon="86.825933">
        <ele>4365.2</ele>
        <time>2022-10-24T03:01:00.000Z</time>
      </trkpt>
      <trkpt lat="27.891072" lon="86.825933">
        <ele>4365.6</ele>
        <time>2022-10-24T03:01:06.000Z</time>
      </trkpt>
      <trkpt lat="27.891088" lon="86.825946">
        <ele>4365.6</ele>
        <time>2022-10-24T03:01:09.000Z</time>
      </trkpt>
      <trkpt lat="27.891107" lon="86.825946">
        <ele>4366.4</ele>
        <time>2022-10-24T03:01:13.000Z</time>
      </trkpt>
      <trkpt lat="27.891123" lon="86.825965">
        <ele>4367.4</ele>
        <time>2022-10-24T03:01:42.000Z</time>
      </trkpt>
      <trkpt lat="27.891142" lon="86.825971">
        <ele>4366.6</ele>
        <time>2022-10-24T03:01:46.000Z</time>
      </trkpt>
      <trkpt lat="27.891158" lon="86.825984">
        <ele>4366.6</ele>
        <time>2022-10-24T03:01:48.000Z</time>
      </trkpt>
      <trkpt lat="27.891178" lon="86.82599">
        <ele>4366.6</ele>
        <time>2022-10-24T03:01:54.000Z</time>
      </trkpt>
      <trkpt lat="27.891194" lon="86.826003">
        <ele>4367.8</ele>
        <time>2022-10-24T03:02:03.000Z</time>
      </trkpt>
      <trkpt lat="27.891213" lon="86.82601">
        <ele>4366.8</ele>
        <time>2022-10-24T03:02:07.000Z</time>
      </trkpt>
      <trkpt lat="27.891232" lon="86.826022">
        <ele>4366.6</ele>
        <time>2022-10-24T03:02:10.000Z</time>
      </trkpt>
      <trkpt lat="27.891248" lon="86.826035">
        <ele>4366.6</ele>
        <time>2022-10-24T03:02:13.000Z</time>
      </trkpt>
      <trkpt lat="27.891267" lon="86.826048">
        <ele>4366.4</ele>
        <time>2022-10-24T03:02:16.000Z</time>
      </trkpt>
      <trkpt lat="27.89129" lon="86.826067">
        <ele>4366</ele>
        <time>2022-10-24T03:02:21.000Z</time>
      </trkpt>
      <trkpt lat="27.891309" lon="86.826067">
        <ele>4366</ele>
        <time>2022-10-24T03:02:25.000Z</time>
      </trkpt>
      <trkpt lat="27.891328" lon="86.826074">
        <ele>4365.8</ele>
        <time>2022-10-24T03:02:29.000Z</time>
      </trkpt>
      <trkpt lat="27.891347" lon="86.826086">
        <ele>4365.8</ele>
        <time>2022-10-24T03:02:32.000Z</time>
      </trkpt>
      <trkpt lat="27.891366" lon="86.826093">
        <ele>4365.6</ele>
        <time>2022-10-24T03:02:37.000Z</time>
      </trkpt>
      <trkpt lat="27.891386" lon="86.826093">
        <ele>4365.6</ele>
        <time>2022-10-24T03:02:40.000Z</time>
      </trkpt>
      <trkpt lat="27.891398" lon="86.826112">
        <ele>4365.2</ele>
        <time>2022-10-24T03:02:43.000Z</time>
      </trkpt>
      <trkpt lat="27.891418" lon="86.826106">
        <ele>4365</ele>
        <time>2022-10-24T03:02:47.000Z</time>
      </trkpt>
      <trkpt lat="27.891437" lon="86.826106">
        <ele>4365</ele>
        <time>2022-10-24T03:02:50.000Z</time>
      </trkpt>
      <trkpt lat="27.891456" lon="86.826106">
        <ele>4365</ele>
        <time>2022-10-24T03:02:54.000Z</time>
      </trkpt>
      <trkpt lat="27.891475" lon="86.826106">
        <ele>4365.2</ele>
        <time>2022-10-24T03:02:59.000Z</time>
      </trkpt>
      <trkpt lat="27.891491" lon="86.826118">
        <ele>4365.2</ele>
        <time>2022-10-24T03:03:03.000Z</time>
      </trkpt>
      <trkpt lat="27.891507" lon="86.826131">
        <ele>4365.2</ele>
        <time>2022-10-24T03:03:07.000Z</time>
      </trkpt>
      <trkpt lat="27.891517" lon="86.82615">
        <ele>4365.2</ele>
        <time>2022-10-24T03:03:10.000Z</time>
      </trkpt>
      <trkpt lat="27.891539" lon="86.82615">
        <ele>4365.8</ele>
        <time>2022-10-24T03:03:14.000Z</time>
      </trkpt>
      <trkpt lat="27.891565" lon="86.82615">
        <ele>4366</ele>
        <time>2022-10-24T03:03:18.000Z</time>
      </trkpt>
      <trkpt lat="27.891584" lon="86.826157">
        <ele>4366.6</ele>
        <time>2022-10-24T03:03:24.000Z</time>
      </trkpt>
      <trkpt lat="27.891603" lon="86.826157">
        <ele>4366.6</ele>
        <time>2022-10-24T03:03:28.000Z</time>
      </trkpt>
      <trkpt lat="27.891622" lon="86.826163">
        <ele>4367.2</ele>
        <time>2022-10-24T03:03:34.000Z</time>
      </trkpt>
      <trkpt lat="27.891645" lon="86.82617">
        <ele>4367.6</ele>
        <time>2022-10-24T03:03:40.000Z</time>
      </trkpt>
      <trkpt lat="27.891664" lon="86.826163">
        <ele>4368</ele>
        <time>2022-10-24T03:03:45.000Z</time>
      </trkpt>
      <trkpt lat="27.891683" lon="86.826163">
        <ele>4368.6</ele>
        <time>2022-10-24T03:03:50.000Z</time>
      </trkpt>
      <trkpt lat="27.891706" lon="86.82617">
        <ele>4369.2</ele>
        <time>2022-10-24T03:03:56.000Z</time>
      </trkpt>
      <trkpt lat="27.891715" lon="86.826189">
        <ele>4369.4</ele>
        <time>2022-10-24T03:04:00.000Z</time>
      </trkpt>
      <trkpt lat="27.891734" lon="86.826189">
        <ele>4370.2</ele>
        <time>2022-10-24T03:04:07.000Z</time>
      </trkpt>
      <trkpt lat="27.891754" lon="86.82617">
        <ele>4371</ele>
        <time>2022-10-24T03:04:14.000Z</time>
      </trkpt>
      <trkpt lat="27.891766" lon="86.826189">
        <ele>4371</ele>
        <time>2022-10-24T03:04:19.000Z</time>
      </trkpt>
      <trkpt lat="27.891782" lon="86.826202">
        <ele>4372</ele>
        <time>2022-10-24T03:04:27.000Z</time>
      </trkpt>
      <trkpt lat="27.892144" lon="86.826394">
        <ele>4388</ele>
        <time>2022-10-24T03:07:26.000Z</time>
      </trkpt>
      <trkpt lat="27.89216" lon="86.826406">
        <ele>4388.4</ele>
        <time>2022-10-24T03:07:35.000Z</time>
      </trkpt>
      <trkpt lat="27.892179" lon="86.826426">
        <ele>4388.4</ele>
        <time>2022-10-24T03:07:38.000Z</time>
      </trkpt>
      <trkpt lat="27.892205" lon="86.826438">
        <ele>4388.8</ele>
        <time>2022-10-24T03:07:41.000Z</time>
      </trkpt>
      <trkpt lat="27.892224" lon="86.826464">
        <ele>4389.2</ele>
        <time>2022-10-24T03:07:44.000Z</time>
      </trkpt>
      <trkpt lat="27.892243" lon="86.82647">
        <ele>4389.8</ele>
        <time>2022-10-24T03:07:50.000Z</time>
      </trkpt>
      <trkpt lat="27.892259" lon="86.826483">
        <ele>4390.6</ele>
        <time>2022-10-24T03:07:58.000Z</time>
      </trkpt>
      <trkpt lat="27.892275" lon="86.826502">
        <ele>4391.4</ele>
        <time>2022-10-24T03:08:04.000Z</time>
      </trkpt>
      <trkpt lat="27.892294" lon="86.826509">
        <ele>4391.6</ele>
        <time>2022-10-24T03:08:10.000Z</time>
      </trkpt>
      <trkpt lat="27.89231" lon="86.826528">
        <ele>4391.8</ele>
        <time>2022-10-24T03:08:16.000Z</time>
      </trkpt>
      <trkpt lat="27.892534" lon="86.826675">
        <ele>4400.4</ele>
        <time>2022-10-24T03:10:05.000Z</time>
      </trkpt>
      <trkpt lat="27.892554" lon="86.826682">
        <ele>4400.4</ele>
        <time>2022-10-24T03:10:07.000Z</time>
      </trkpt>
      <trkpt lat="27.89257" lon="86.826701">
        <ele>4400.6</ele>
        <time>2022-10-24T03:10:09.000Z</time>
      </trkpt>
      <trkpt lat="27.892586" lon="86.826714">
        <ele>4400.6</ele>
        <time>2022-10-24T03:10:11.000Z</time>
      </trkpt>
      <trkpt lat="27.892611" lon="86.826726">
        <ele>4400.6</ele>
        <time>2022-10-24T03:10:14.000Z</time>
      </trkpt>
      <trkpt lat="27.892627" lon="86.826746">
        <ele>4401.4</ele>
        <time>2022-10-24T03:10:19.000Z</time>
      </trkpt>
      <trkpt lat="27.892646" lon="86.826752">
        <ele>4401.4</ele>
        <time>2022-10-24T03:10:24.000Z</time>
      </trkpt>
      <trkpt lat="27.892666" lon="86.826758">
        <ele>4402</ele>
        <time>2022-10-24T03:10:30.000Z</time>
      </trkpt>
      <trkpt lat="27.892688" lon="86.826765">
        <ele>4402.2</ele>
        <time>2022-10-24T03:10:37.000Z</time>
      </trkpt>
      <trkpt lat="27.892704" lon="86.826784">
        <ele>4403</ele>
        <time>2022-10-24T03:10:44.000Z</time>
      </trkpt>
      <trkpt lat="27.892726" lon="86.826797">
        <ele>4403.4</ele>
        <time>2022-10-24T03:10:53.000Z</time>
      </trkpt>
      <trkpt lat="27.892742" lon="86.82681">
        <ele>4404</ele>
        <time>2022-10-24T03:10:59.000Z</time>
      </trkpt>
      <trkpt lat="27.892758" lon="86.826822">
        <ele>4404.6</ele>
        <time>2022-10-24T03:11:05.000Z</time>
      </trkpt>
      <trkpt lat="27.892778" lon="86.826835">
        <ele>4405</ele>
        <time>2022-10-24T03:11:10.000Z</time>
      </trkpt>
      <trkpt lat="27.892797" lon="86.826842">
        <ele>4405.6</ele>
        <time>2022-10-24T03:11:16.000Z</time>
      </trkpt>
      <trkpt lat="27.892816" lon="86.826848">
        <ele>4406</ele>
        <time>2022-10-24T03:11:24.000Z</time>
      </trkpt>
      <trkpt lat="27.892832" lon="86.826867">
        <ele>4406.6</ele>
        <time>2022-10-24T03:11:30.000Z</time>
      </trkpt>
      <trkpt lat="27.892851" lon="86.826861">
        <ele>4406.8</ele>
        <time>2022-10-24T03:11:37.000Z</time>
      </trkpt>
      <trkpt lat="27.89287" lon="86.826861">
        <ele>4407.8</ele>
        <time>2022-10-24T03:11:45.000Z</time>
      </trkpt>
      <trkpt lat="27.89289" lon="86.826861">
        <ele>4408.4</ele>
        <time>2022-10-24T03:11:52.000Z</time>
      </trkpt>
      <trkpt lat="27.892909" lon="86.826861">
        <ele>4409.4</ele>
        <time>2022-10-24T03:12:00.000Z</time>
      </trkpt>
      <trkpt lat="27.892925" lon="86.826874">
        <ele>4410</ele>
        <time>2022-10-24T03:12:07.000Z</time>
      </trkpt>
      <trkpt lat="27.892944" lon="86.826874">
        <ele>4411</ele>
        <time>2022-10-24T03:12:14.000Z</time>
      </trkpt>
      <trkpt lat="27.892963" lon="86.82688">
        <ele>4412.4</ele>
        <time>2022-10-24T03:12:24.000Z</time>
      </trkpt>
      <trkpt lat="27.892982" lon="86.826886">
        <ele>4412.8</ele>
        <time>2022-10-24T03:12:32.000Z</time>
      </trkpt>
      <trkpt lat="27.892995" lon="86.826906">
        <ele>4413.4</ele>
        <time>2022-10-24T03:12:37.000Z</time>
      </trkpt>
      <trkpt lat="27.892995" lon="86.82688">
        <ele>4414.4</ele>
        <time>2022-10-24T03:12:48.000Z</time>
      </trkpt>
      <trkpt lat="27.893014" lon="86.826874">
        <ele>4415</ele>
        <time>2022-10-24T03:12:56.000Z</time>
      </trkpt>
      <trkpt lat="27.893043" lon="86.826874">
        <ele>4417.2</ele>
        <time>2022-10-24T03:13:45.000Z</time>
      </trkpt>
      <trkpt lat="27.893056" lon="86.826848">
        <ele>4417.2</ele>
        <time>2022-10-24T03:13:47.000Z</time>
      </trkpt>
      <trkpt lat="27.893075" lon="86.826822">
        <ele>4417</ele>
        <time>2022-10-24T03:13:50.000Z</time>
      </trkpt>
      <trkpt lat="27.893114" lon="86.82681">
        <ele>4418.4</ele>
        <time>2022-10-24T03:19:20.000Z</time>
      </trkpt>
      <trkpt lat="27.893126" lon="86.826835">
        <ele>4418.4</ele>
        <time>2022-10-24T03:19:22.000Z</time>
      </trkpt>
      <trkpt lat="27.893139" lon="86.826867">
        <ele>4418.4</ele>
        <time>2022-10-24T03:19:24.000Z</time>
      </trkpt>
      <trkpt lat="27.893155" lon="86.826886">
        <ele>4418.4</ele>
        <time>2022-10-24T03:19:26.000Z</time>
      </trkpt>
      <trkpt lat="27.893174" lon="86.826912">
        <ele>4418.8</ele>
        <time>2022-10-24T03:19:28.000Z</time>
      </trkpt>
      <trkpt lat="27.89319" lon="86.826938">
        <ele>4418.8</ele>
        <time>2022-10-24T03:19:31.000Z</time>
      </trkpt>
      <trkpt lat="27.893206" lon="86.826957">
        <ele>4418.8</ele>
        <time>2022-10-24T03:19:35.000Z</time>
      </trkpt>
      <trkpt lat="27.893216" lon="86.826976">
        <ele>4418.8</ele>
        <time>2022-10-24T03:19:38.000Z</time>
      </trkpt>
      <trkpt lat="27.893235" lon="86.826989">
        <ele>4419</ele>
        <time>2022-10-24T03:19:42.000Z</time>
      </trkpt>
      <trkpt lat="27.893248" lon="86.827008">
        <ele>4419.6</ele>
        <time>2022-10-24T03:19:47.000Z</time>
      </trkpt>
      <trkpt lat="27.893264" lon="86.827021">
        <ele>4419.8</ele>
        <time>2022-10-24T03:19:51.000Z</time>
      </trkpt>
      <trkpt lat="27.89328" lon="86.82704">
        <ele>4420.4</ele>
        <time>2022-10-24T03:19:55.000Z</time>
      </trkpt>
      <trkpt lat="27.893286" lon="86.827059">
        <ele>4420.4</ele>
        <time>2022-10-24T03:19:58.000Z</time>
      </trkpt>
      <trkpt lat="27.893299" lon="86.827078">
        <ele>4420.6</ele>
        <time>2022-10-24T03:20:02.000Z</time>
      </trkpt>
      <trkpt lat="27.893306" lon="86.827098">
        <ele>4420.8</ele>
        <time>2022-10-24T03:20:05.000Z</time>
      </trkpt>
      <trkpt lat="27.893315" lon="86.827117">
        <ele>4421.2</ele>
        <time>2022-10-24T03:20:10.000Z</time>
      </trkpt>
      <trkpt lat="27.893325" lon="86.827136">
        <ele>4421.4</ele>
        <time>2022-10-24T03:20:12.000Z</time>
      </trkpt>
      <trkpt lat="27.893341" lon="86.827149">
        <ele>4421.4</ele>
        <time>2022-10-24T03:20:15.000Z</time>
      </trkpt>
      <trkpt lat="27.89336" lon="86.827162">
        <ele>4421.6</ele>
        <time>2022-10-24T03:20:19.000Z</time>
      </trkpt>
      <trkpt lat="27.893373" lon="86.827181">
        <ele>4422.2</ele>
        <time>2022-10-24T03:20:23.000Z</time>
      </trkpt>
      <trkpt lat="27.893379" lon="86.8272">
        <ele>4422.2</ele>
        <time>2022-10-24T03:20:26.000Z</time>
      </trkpt>
      <trkpt lat="27.893392" lon="86.827219">
        <ele>4422.4</ele>
        <time>2022-10-24T03:20:29.000Z</time>
      </trkpt>
      <trkpt lat="27.893408" lon="86.827238">
        <ele>4422.4</ele>
        <time>2022-10-24T03:20:33.000Z</time>
      </trkpt>
      <trkpt lat="27.893418" lon="86.827258">
        <ele>4422.2</ele>
        <time>2022-10-24T03:20:36.000Z</time>
      </trkpt>
      <trkpt lat="27.893424" lon="86.827277">
        <ele>4422.4</ele>
        <time>2022-10-24T03:20:39.000Z</time>
      </trkpt>
      <trkpt lat="27.89343" lon="86.827296">
        <ele>4422.8</ele>
        <time>2022-10-24T03:20:41.000Z</time>
      </trkpt>
      <trkpt lat="27.893443" lon="86.827315">
        <ele>4422.4</ele>
        <time>2022-10-24T03:20:44.000Z</time>
      </trkpt>
      <trkpt lat="27.89345" lon="86.827334">
        <ele>4423.8</ele>
        <time>2022-10-24T03:20:47.000Z</time>
      </trkpt>
      <trkpt lat="27.893456" lon="86.827354">
        <ele>4422.8</ele>
        <time>2022-10-24T03:20:51.000Z</time>
      </trkpt>
      <trkpt lat="27.893462" lon="86.827379">
        <ele>4422.8</ele>
        <time>2022-10-24T03:20:55.000Z</time>
      </trkpt>
      <trkpt lat="27.893472" lon="86.827398">
        <ele>4422.8</ele>
        <time>2022-10-24T03:20:58.000Z</time>
      </trkpt>
      <trkpt lat="27.893475" lon="86.827424">
        <ele>4422.6</ele>
        <time>2022-10-24T03:21:01.000Z</time>
      </trkpt>
      <trkpt lat="27.893482" lon="86.827443">
        <ele>4422.8</ele>
        <time>2022-10-24T03:21:05.000Z</time>
      </trkpt>
      <trkpt lat="27.893491" lon="86.827462">
        <ele>4423</ele>
        <time>2022-10-24T03:21:08.000Z</time>
      </trkpt>
      <trkpt lat="27.89351" lon="86.827475">
        <ele>4423.4</ele>
        <time>2022-10-24T03:21:12.000Z</time>
      </trkpt>
      <trkpt lat="27.893523" lon="86.827494">
        <ele>4423.6</ele>
        <time>2022-10-24T03:21:16.000Z</time>
      </trkpt>
      <trkpt lat="27.893539" lon="86.827507">
        <ele>4424.4</ele>
        <time>2022-10-24T03:21:22.000Z</time>
      </trkpt>
      <trkpt lat="27.893539" lon="86.827533">
        <ele>4424.6</ele>
        <time>2022-10-24T03:21:25.000Z</time>
      </trkpt>
      <trkpt lat="27.893555" lon="86.827546">
        <ele>4425.2</ele>
        <time>2022-10-24T03:21:33.000Z</time>
      </trkpt>
      <trkpt lat="27.893574" lon="86.827552">
        <ele>4425.4</ele>
        <time>2022-10-24T03:21:38.000Z</time>
      </trkpt>
      <trkpt lat="27.893594" lon="86.827571">
        <ele>4425.8</ele>
        <time>2022-10-24T03:21:42.000Z</time>
      </trkpt>
      <trkpt lat="27.893613" lon="86.827584">
        <ele>4426.4</ele>
        <time>2022-10-24T03:21:49.000Z</time>
      </trkpt>
      <trkpt lat="27.89361" lon="86.827616">
        <ele>4427</ele>
        <time>2022-10-24T03:21:59.000Z</time>
      </trkpt>
      <trkpt lat="27.893616" lon="86.827635">
        <ele>4427.6</ele>
        <time>2022-10-24T03:22:07.000Z</time>
      </trkpt>
      <trkpt lat="27.893843" lon="86.827859">
        <ele>4439.6</ele>
        <time>2022-10-24T03:24:25.000Z</time>
      </trkpt>
      <trkpt lat="27.893869" lon="86.827872">
        <ele>4439.8</ele>
        <time>2022-10-24T03:24:28.000Z</time>
      </trkpt>
      <trkpt lat="27.893894" lon="86.827891">
        <ele>4439.8</ele>
        <time>2022-10-24T03:24:31.000Z</time>
      </trkpt>
      <trkpt lat="27.89391" lon="86.827904">
        <ele>4440</ele>
        <time>2022-10-24T03:24:33.000Z</time>
      </trkpt>
      <trkpt lat="27.89393" lon="86.82791">
        <ele>4440.4</ele>
        <time>2022-10-24T03:24:37.000Z</time>
      </trkpt>
      <trkpt lat="27.893939" lon="86.82793">
        <ele>4440.6</ele>
        <time>2022-10-24T03:24:41.000Z</time>
      </trkpt>
      <trkpt lat="27.893952" lon="86.827949">
        <ele>4441.6</ele>
        <time>2022-10-24T03:24:48.000Z</time>
      </trkpt>
      <trkpt lat="27.893955" lon="86.827974">
        <ele>4442.4</ele>
        <time>2022-10-24T03:24:55.000Z</time>
      </trkpt>
      <trkpt lat="27.893939" lon="86.827994">
        <ele>4442.6</ele>
        <time>2022-10-24T03:25:02.000Z</time>
      </trkpt>
      <trkpt lat="27.893933" lon="86.828013">
        <ele>4443</ele>
        <time>2022-10-24T03:25:09.000Z</time>
      </trkpt>
      <trkpt lat="27.893958" lon="86.828051">
        <ele>4444.4</ele>
        <time>2022-10-24T03:25:23.000Z</time>
      </trkpt>
      <trkpt lat="27.893942" lon="86.828038">
        <ele>4443.6</ele>
        <time>2022-10-24T03:25:50.000Z</time>
      </trkpt>
      <trkpt lat="27.89392" lon="86.828032">
        <ele>4444</ele>
        <time>2022-10-24T03:25:54.000Z</time>
      </trkpt>
      <trkpt lat="27.893987" lon="86.828058">
        <ele>4446</ele>
        <time>2022-10-24T03:29:13.000Z</time>
      </trkpt>
      <trkpt lat="27.894006" lon="86.828064">
        <ele>4446</ele>
        <time>2022-10-24T03:29:15.000Z</time>
      </trkpt>
      <trkpt lat="27.894026" lon="86.82807">
        <ele>4446.2</ele>
        <time>2022-10-24T03:29:17.000Z</time>
      </trkpt>
      <trkpt lat="27.894045" lon="86.828077">
        <ele>4446.2</ele>
        <time>2022-10-24T03:29:19.000Z</time>
      </trkpt>
      <trkpt lat="27.894061" lon="86.82809">
        <ele>4446.8</ele>
        <time>2022-10-24T03:29:21.000Z</time>
      </trkpt>
      <trkpt lat="27.894077" lon="86.828077">
        <ele>4446.8</ele>
        <time>2022-10-24T03:29:26.000Z</time>
      </trkpt>
      <trkpt lat="27.894083" lon="86.828058">
        <ele>4447.4</ele>
        <time>2022-10-24T03:29:33.000Z</time>
      </trkpt>
      <trkpt lat="27.894102" lon="86.828064">
        <ele>4448</ele>
        <time>2022-10-24T03:29:38.000Z</time>
      </trkpt>
      <trkpt lat="27.894112" lon="86.82809">
        <ele>4448.6</ele>
        <time>2022-10-24T03:29:46.000Z</time>
      </trkpt>
      <trkpt lat="27.894118" lon="86.82807">
        <ele>4449</ele>
        <time>2022-10-24T03:29:52.000Z</time>
      </trkpt>
      <trkpt lat="27.894122" lon="86.828038">
        <ele>4449.8</ele>
        <time>2022-10-24T03:30:01.000Z</time>
      </trkpt>
      <trkpt lat="27.894122" lon="86.828013">
        <ele>4450.4</ele>
        <time>2022-10-24T03:30:08.000Z</time>
      </trkpt>
      <trkpt lat="27.894125" lon="86.827987">
        <ele>4450.4</ele>
        <time>2022-10-24T03:30:12.000Z</time>
      </trkpt>
      <trkpt lat="27.894147" lon="86.827981">
        <ele>4451.2</ele>
        <time>2022-10-24T03:30:18.000Z</time>
      </trkpt>
      <trkpt lat="27.894166" lon="86.827994">
        <ele>4452</ele>
        <time>2022-10-24T03:30:30.000Z</time>
      </trkpt>
      <trkpt lat="27.894349" lon="86.828">
        <ele>4465</ele>
        <time>2022-10-24T03:33:37.000Z</time>
      </trkpt>
      <trkpt lat="27.894355" lon="86.828019">
        <ele>4464.6</ele>
        <time>2022-10-24T03:33:38.000Z</time>
      </trkpt>
      <trkpt lat="27.894374" lon="86.828038">
        <ele>4465.2</ele>
        <time>2022-10-24T03:33:41.000Z</time>
      </trkpt>
      <trkpt lat="27.894387" lon="86.828058">
        <ele>4465.6</ele>
        <time>2022-10-24T03:33:43.000Z</time>
      </trkpt>
      <trkpt lat="27.894403" lon="86.82807">
        <ele>4465.6</ele>
        <time>2022-10-24T03:33:45.000Z</time>
      </trkpt>
      <trkpt lat="27.894422" lon="86.82807">
        <ele>4466.4</ele>
        <time>2022-10-24T03:33:53.000Z</time>
      </trkpt>
      <trkpt lat="27.894429" lon="86.828051">
        <ele>4467.2</ele>
        <time>2022-10-24T03:34:00.000Z</time>
      </trkpt>
      <trkpt lat="27.894435" lon="86.828032">
        <ele>4467.6</ele>
        <time>2022-10-24T03:34:06.000Z</time>
      </trkpt>
      <trkpt lat="27.894442" lon="86.828">
        <ele>4467.6</ele>
        <time>2022-10-24T03:34:12.000Z</time>
      </trkpt>
      <trkpt lat="27.894451" lon="86.827981">
        <ele>4468</ele>
        <time>2022-10-24T03:34:18.000Z</time>
      </trkpt>
      <trkpt lat="27.894474" lon="86.827974">
        <ele>4469.8</ele>
        <time>2022-10-24T03:34:28.000Z</time>
      </trkpt>
      <trkpt lat="27.894486" lon="86.827994">
        <ele>4470.6</ele>
        <time>2022-10-24T03:34:37.000Z</time>
      </trkpt>
      <trkpt lat="27.894506" lon="86.828013">
        <ele>4471.6</ele>
        <time>2022-10-24T03:34:45.000Z</time>
      </trkpt>
      <trkpt lat="27.894522" lon="86.828032">
        <ele>4472.4</ele>
        <time>2022-10-24T03:34:53.000Z</time>
      </trkpt>
      <trkpt lat="27.894752" lon="86.827936">
        <ele>4487</ele>
        <time>2022-10-24T03:38:00.000Z</time>
      </trkpt>
      <trkpt lat="27.894774" lon="86.82793">
        <ele>4487.2</ele>
        <time>2022-10-24T03:38:03.000Z</time>
      </trkpt>
      <trkpt lat="27.894794" lon="86.82793">
        <ele>4487.2</ele>
        <time>2022-10-24T03:38:05.000Z</time>
      </trkpt>
      <trkpt lat="27.894816" lon="86.82793">
        <ele>4487.8</ele>
        <time>2022-10-24T03:38:08.000Z</time>
      </trkpt>
      <trkpt lat="27.894835" lon="86.82793">
        <ele>4487.8</ele>
        <time>2022-10-24T03:38:12.000Z</time>
      </trkpt>
      <trkpt lat="27.894851" lon="86.827942">
        <ele>4488.2</ele>
        <time>2022-10-24T03:38:19.000Z</time>
      </trkpt>
      <trkpt lat="27.894845" lon="86.827962">
        <ele>4488.8</ele>
        <time>2022-10-24T03:38:25.000Z</time>
      </trkpt>
      <trkpt lat="27.894861" lon="86.827974">
        <ele>4489.6</ele>
        <time>2022-10-24T03:38:35.000Z</time>
      </trkpt>
      <trkpt lat="27.89487" lon="86.827994">
        <ele>4489.8</ele>
        <time>2022-10-24T03:38:42.000Z</time>
      </trkpt>
      <trkpt lat="27.894883" lon="86.828013">
        <ele>4490.2</ele>
        <time>2022-10-24T03:38:46.000Z</time>
      </trkpt>
      <trkpt lat="27.894899" lon="86.828026">
        <ele>4491.4</ele>
        <time>2022-10-24T03:38:55.000Z</time>
      </trkpt>
      <trkpt lat="27.894922" lon="86.828026">
        <ele>4492</ele>
        <time>2022-10-24T03:39:01.000Z</time>
      </trkpt>
      <trkpt lat="27.894925" lon="86.828051">
        <ele>4492.8</ele>
        <time>2022-10-24T03:39:09.000Z</time>
      </trkpt>
      <trkpt lat="27.89497" lon="86.828032">
        <ele>4494.6</ele>
        <time>2022-10-24T03:46:08.000Z</time>
      </trkpt>
      <trkpt lat="27.894992" lon="86.828032">
        <ele>4495</ele>
        <time>2022-10-24T03:46:10.000Z</time>
      </trkpt>
      <trkpt lat="27.895011" lon="86.828026">
        <ele>4495.2</ele>
        <time>2022-10-24T03:46:12.000Z</time>
      </trkpt>
      <trkpt lat="27.89503" lon="86.828019">
        <ele>4495.6</ele>
        <time>2022-10-24T03:46:16.000Z</time>
      </trkpt>
      <trkpt lat="27.89505" lon="86.828026">
        <ele>4496.4</ele>
        <time>2022-10-24T03:46:22.000Z</time>
      </trkpt>
      <trkpt lat="27.895069" lon="86.828032">
        <ele>4496.6</ele>
        <time>2022-10-24T03:46:29.000Z</time>
      </trkpt>
      <trkpt lat="27.895091" lon="86.828038">
        <ele>4497.2</ele>
        <time>2022-10-24T03:46:36.000Z</time>
      </trkpt>
      <trkpt lat="27.89511" lon="86.828051">
        <ele>4498</ele>
        <time>2022-10-24T03:46:43.000Z</time>
      </trkpt>
      <trkpt lat="27.89513" lon="86.828051">
        <ele>4498.2</ele>
        <time>2022-10-24T03:46:47.000Z</time>
      </trkpt>
      <trkpt lat="27.895149" lon="86.828051">
        <ele>4498.8</ele>
        <time>2022-10-24T03:46:53.000Z</time>
      </trkpt>
      <trkpt lat="27.895171" lon="86.828058">
        <ele>4499.4</ele>
        <time>2022-10-24T03:47:00.000Z</time>
      </trkpt>
      <trkpt lat="27.89519" lon="86.828058">
        <ele>4500.2</ele>
        <time>2022-10-24T03:47:09.000Z</time>
      </trkpt>
      <trkpt lat="27.89521" lon="86.828064">
        <ele>4501</ele>
        <time>2022-10-24T03:47:16.000Z</time>
      </trkpt>
      <trkpt lat="27.895626" lon="86.828141">
        <ele>4518.8</ele>
        <time>2022-10-24T03:50:38.000Z</time>
      </trkpt>
      <trkpt lat="27.895645" lon="86.82816">
        <ele>4519</ele>
        <time>2022-10-24T03:50:41.000Z</time>
      </trkpt>
      <trkpt lat="27.895651" lon="86.828186">
        <ele>4519.4</ele>
        <time>2022-10-24T03:50:43.000Z</time>
      </trkpt>
      <trkpt lat="27.895661" lon="86.828211">
        <ele>4519.8</ele>
        <time>2022-10-24T03:50:46.000Z</time>
      </trkpt>
      <trkpt lat="27.895677" lon="86.828224">
        <ele>4520.6</ele>
        <time>2022-10-24T03:50:58.000Z</time>
      </trkpt>
      <trkpt lat="27.895696" lon="86.828224">
        <ele>4521.4</ele>
        <time>2022-10-24T03:51:05.000Z</time>
      </trkpt>
      <trkpt lat="27.895715" lon="86.828224">
        <ele>4522.2</ele>
        <time>2022-10-24T03:51:11.000Z</time>
      </trkpt>
      <trkpt lat="27.895885" lon="86.828301">
        <ele>4534.6</ele>
        <time>2022-10-24T03:54:33.000Z</time>
      </trkpt>
      <trkpt lat="27.895901" lon="86.828314">
        <ele>4534.6</ele>
        <time>2022-10-24T03:54:36.000Z</time>
      </trkpt>
      <trkpt lat="27.895926" lon="86.828333">
        <ele>4534.8</ele>
        <time>2022-10-24T03:54:40.000Z</time>
      </trkpt>
      <trkpt lat="27.896224" lon="86.828506">
        <ele>4553.2</ele>
        <time>2022-10-24T03:57:40.000Z</time>
      </trkpt>
      <trkpt lat="27.896221" lon="86.828531">
        <ele>4553</ele>
        <time>2022-10-24T03:57:43.000Z</time>
      </trkpt>
      <trkpt lat="27.896211" lon="86.828557">
        <ele>4553</ele>
        <time>2022-10-24T03:57:47.000Z</time>
      </trkpt>
      <trkpt lat="27.896218" lon="86.828582">
        <ele>4553.8</ele>
        <time>2022-10-24T03:57:52.000Z</time>
      </trkpt>
      <trkpt lat="27.896211" lon="86.828608">
        <ele>4554.8</ele>
        <time>2022-10-24T03:57:59.000Z</time>
      </trkpt>
      <trkpt lat="27.896205" lon="86.828627">
        <ele>4556.2</ele>
        <time>2022-10-24T03:58:07.000Z</time>
      </trkpt>
      <trkpt lat="27.896211" lon="86.828646">
        <ele>4556.4</ele>
        <time>2022-10-24T03:58:12.000Z</time>
      </trkpt>
      <trkpt lat="27.896454" lon="86.828902">
        <ele>4574</ele>
        <time>2022-10-24T04:01:25.000Z</time>
      </trkpt>
      <trkpt lat="27.896464" lon="86.828922">
        <ele>4574.2</ele>
        <time>2022-10-24T04:01:27.000Z</time>
      </trkpt>
      <trkpt lat="27.896474" lon="86.828941">
        <ele>4574.4</ele>
        <time>2022-10-24T04:01:29.000Z</time>
      </trkpt>
      <trkpt lat="27.896483" lon="86.828966">
        <ele>4574.6</ele>
        <time>2022-10-24T04:01:32.000Z</time>
      </trkpt>
      <trkpt lat="27.896493" lon="86.828986">
        <ele>4575.4</ele>
        <time>2022-10-24T04:01:37.000Z</time>
      </trkpt>
      <trkpt lat="27.896621" lon="86.829171">
        <ele>4584.6</ele>
        <time>2022-10-24T04:03:46.000Z</time>
      </trkpt>
      <trkpt lat="27.89664" lon="86.829152">
        <ele>4585</ele>
        <time>2022-10-24T04:03:48.000Z</time>
      </trkpt>
      <trkpt lat="27.896659" lon="86.829152">
        <ele>4585.4</ele>
        <time>2022-10-24T04:03:50.000Z</time>
      </trkpt>
      <trkpt lat="27.896678" lon="86.829152">
        <ele>4586</ele>
        <time>2022-10-24T04:03:52.000Z</time>
      </trkpt>
      <trkpt lat="27.896701" lon="86.829146">
        <ele>4586.2</ele>
        <time>2022-10-24T04:03:58.000Z</time>
      </trkpt>
      <trkpt lat="27.896723" lon="86.829152">
        <ele>4590.2</ele>
        <time>2022-10-24T04:12:13.000Z</time>
      </trkpt>
      <trkpt lat="27.896742" lon="86.829165">
        <ele>4590.2</ele>
        <time>2022-10-24T04:12:15.000Z</time>
      </trkpt>
      <trkpt lat="27.896762" lon="86.829152">
        <ele>4590.4</ele>
        <time>2022-10-24T04:12:17.000Z</time>
      </trkpt>
      <trkpt lat="27.896781" lon="86.829152">
        <ele>4590.2</ele>
        <time>2022-10-24T04:12:19.000Z</time>
      </trkpt>
      <trkpt lat="27.8968" lon="86.829152">
        <ele>4590.8</ele>
        <time>2022-10-24T04:12:36.000Z</time>
      </trkpt>
      <trkpt lat="27.896822" lon="86.829146">
        <ele>4591.6</ele>
        <time>2022-10-24T04:12:38.000Z</time>
      </trkpt>
      <trkpt lat="27.896848" lon="86.829139">
        <ele>4591.2</ele>
        <time>2022-10-24T04:12:40.000Z</time>
      </trkpt>
      <trkpt lat="27.896877" lon="86.829133">
        <ele>4591.6</ele>
        <time>2022-10-24T04:12:42.000Z</time>
      </trkpt>
      <trkpt lat="27.896899" lon="86.829133">
        <ele>4591.6</ele>
        <time>2022-10-24T04:12:44.000Z</time>
      </trkpt>
      <trkpt lat="27.896918" lon="86.829126">
        <ele>4592</ele>
        <time>2022-10-24T04:12:47.000Z</time>
      </trkpt>
      <trkpt lat="27.896938" lon="86.829133">
        <ele>4592.4</ele>
        <time>2022-10-24T04:12:52.000Z</time>
      </trkpt>
      <trkpt lat="27.896957" lon="86.829133">
        <ele>4592.6</ele>
        <time>2022-10-24T04:12:57.000Z</time>
      </trkpt>
      <trkpt lat="27.896976" lon="86.829133">
        <ele>4592.8</ele>
        <time>2022-10-24T04:13:03.000Z</time>
      </trkpt>
      <trkpt lat="27.896995" lon="86.829133">
        <ele>4593.4</ele>
        <time>2022-10-24T04:13:08.000Z</time>
      </trkpt>
      <trkpt lat="27.897014" lon="86.829126">
        <ele>4593.8</ele>
        <time>2022-10-24T04:13:15.000Z</time>
      </trkpt>
      <trkpt lat="27.897037" lon="86.82912">
        <ele>4594.4</ele>
        <time>2022-10-24T04:13:21.000Z</time>
      </trkpt>
      <trkpt lat="27.897056" lon="86.82912">
        <ele>4594.8</ele>
        <time>2022-10-24T04:13:28.000Z</time>
      </trkpt>
      <trkpt lat="27.897075" lon="86.82912">
        <ele>4595.4</ele>
        <time>2022-10-24T04:13:34.000Z</time>
      </trkpt>
      <trkpt lat="27.897446" lon="86.829178">
        <ele>4607.6</ele>
        <time>2022-10-24T04:16:02.000Z</time>
      </trkpt>
      <trkpt lat="27.897469" lon="86.829184">
        <ele>4607.6</ele>
        <time>2022-10-24T04:16:04.000Z</time>
      </trkpt>
      <trkpt lat="27.897488" lon="86.82919">
        <ele>4607.8</ele>
        <time>2022-10-24T04:16:06.000Z</time>
      </trkpt>
      <trkpt lat="27.89751" lon="86.82919">
        <ele>4607.8</ele>
        <time>2022-10-24T04:16:08.000Z</time>
      </trkpt>
      <trkpt lat="27.897533" lon="86.82919">
        <ele>4608</ele>
        <time>2022-10-24T04:16:10.000Z</time>
      </trkpt>
      <trkpt lat="27.897552" lon="86.82919">
        <ele>4608.2</ele>
        <time>2022-10-24T04:16:13.000Z</time>
      </trkpt>
      <trkpt lat="27.897571" lon="86.829203">
        <ele>4608.2</ele>
        <time>2022-10-24T04:16:18.000Z</time>
      </trkpt>
      <trkpt lat="27.89759" lon="86.82921">
        <ele>4609</ele>
        <time>2022-10-24T04:16:25.000Z</time>
      </trkpt>
      <trkpt lat="27.897613" lon="86.829216">
        <ele>4609.8</ele>
        <time>2022-10-24T04:16:31.000Z</time>
      </trkpt>
      <trkpt lat="27.897632" lon="86.829222">
        <ele>4611</ele>
        <time>2022-10-24T04:16:40.000Z</time>
      </trkpt>
      <trkpt lat="27.897651" lon="86.829222">
        <ele>4611.2</ele>
        <time>2022-10-24T04:16:47.000Z</time>
      </trkpt>
      <trkpt lat="27.89767" lon="86.829229">
        <ele>4612</ele>
        <time>2022-10-24T04:16:54.000Z</time>
      </trkpt>
      <trkpt lat="27.897693" lon="86.829229">
        <ele>4612.8</ele>
        <time>2022-10-24T04:17:00.000Z</time>
      </trkpt>
      <trkpt lat="27.897709" lon="86.829248">
        <ele>4613.2</ele>
        <time>2022-10-24T04:17:07.000Z</time>
      </trkpt>
      <trkpt lat="27.897725" lon="86.829261">
        <ele>4614</ele>
        <time>2022-10-24T04:17:18.000Z</time>
      </trkpt>
      <trkpt lat="27.897744" lon="86.829261">
        <ele>4614.8</ele>
        <time>2022-10-24T04:17:23.000Z</time>
      </trkpt>
      <trkpt lat="27.897763" lon="86.829267">
        <ele>4615.2</ele>
        <time>2022-10-24T04:17:31.000Z</time>
      </trkpt>
      <trkpt lat="27.897782" lon="86.829267">
        <ele>4615.8</ele>
        <time>2022-10-24T04:17:37.000Z</time>
      </trkpt>
      <trkpt lat="27.897792" lon="86.829286">
        <ele>4616.2</ele>
        <time>2022-10-24T04:17:42.000Z</time>
      </trkpt>
      <trkpt lat="27.897811" lon="86.829286">
        <ele>4617</ele>
        <time>2022-10-24T04:17:50.000Z</time>
      </trkpt>
      <trkpt lat="27.89783" lon="86.829286">
        <ele>4617.4</ele>
        <time>2022-10-24T04:17:55.000Z</time>
      </trkpt>
      <trkpt lat="27.89785" lon="86.829286">
        <ele>4617.8</ele>
        <time>2022-10-24T04:18:00.000Z</time>
      </trkpt>
      <trkpt lat="27.897869" lon="86.829286">
        <ele>4618.2</ele>
        <time>2022-10-24T04:18:05.000Z</time>
      </trkpt>
      <trkpt lat="27.897888" lon="86.829286">
        <ele>4618.4</ele>
        <time>2022-10-24T04:18:12.000Z</time>
      </trkpt>
      <trkpt lat="27.897907" lon="86.82928">
        <ele>4619</ele>
        <time>2022-10-24T04:18:17.000Z</time>
      </trkpt>
      <trkpt lat="27.897926" lon="86.829286">
        <ele>4619.6</ele>
        <time>2022-10-24T04:18:26.000Z</time>
      </trkpt>
      <trkpt lat="27.897949" lon="86.829286">
        <ele>4620.2</ele>
        <time>2022-10-24T04:18:32.000Z</time>
      </trkpt>
      <trkpt lat="27.897968" lon="86.829286">
        <ele>4620.8</ele>
        <time>2022-10-24T04:18:39.000Z</time>
      </trkpt>
      <trkpt lat="27.897987" lon="86.829286">
        <ele>4621.2</ele>
        <time>2022-10-24T04:18:45.000Z</time>
      </trkpt>
      <trkpt lat="27.898109" lon="86.829389">
        <ele>4630.2</ele>
        <time>2022-10-24T04:21:01.000Z</time>
      </trkpt>
      <trkpt lat="27.898128" lon="86.829389">
        <ele>4630.2</ele>
        <time>2022-10-24T04:21:03.000Z</time>
      </trkpt>
      <trkpt lat="27.898147" lon="86.829389">
        <ele>4630</ele>
        <time>2022-10-24T04:21:05.000Z</time>
      </trkpt>
      <trkpt lat="27.89817" lon="86.829389">
        <ele>4630.4</ele>
        <time>2022-10-24T04:21:07.000Z</time>
      </trkpt>
      <trkpt lat="27.898198" lon="86.829389">
        <ele>4631</ele>
        <time>2022-10-24T04:21:10.000Z</time>
      </trkpt>
      <trkpt lat="27.898218" lon="86.829382">
        <ele>4631.6</ele>
        <time>2022-10-24T04:21:16.000Z</time>
      </trkpt>
      <trkpt lat="27.898237" lon="86.829382">
        <ele>4632</ele>
        <time>2022-10-24T04:21:22.000Z</time>
      </trkpt>
      <trkpt lat="27.898256" lon="86.829382">
        <ele>4632.8</ele>
        <time>2022-10-24T04:21:28.000Z</time>
      </trkpt>
      <trkpt lat="27.898275" lon="86.829389">
        <ele>4633.4</ele>
        <time>2022-10-24T04:21:34.000Z</time>
      </trkpt>
      <trkpt lat="27.898291" lon="86.829408">
        <ele>4634.2</ele>
        <time>2022-10-24T04:21:41.000Z</time>
      </trkpt>
      <trkpt lat="27.898314" lon="86.829408">
        <ele>4634.6</ele>
        <time>2022-10-24T04:21:49.000Z</time>
      </trkpt>
      <trkpt lat="27.898336" lon="86.829408">
        <ele>4635.2</ele>
        <time>2022-10-24T04:21:54.000Z</time>
      </trkpt>
      <trkpt lat="27.898358" lon="86.829408">
        <ele>4636</ele>
        <time>2022-10-24T04:22:00.000Z</time>
      </trkpt>
      <trkpt lat="27.898378" lon="86.829408">
        <ele>4636.4</ele>
        <time>2022-10-24T04:22:06.000Z</time>
      </trkpt>
      <trkpt lat="27.898493" lon="86.829466">
        <ele>4642.2</ele>
        <time>2022-10-24T04:23:18.000Z</time>
      </trkpt>
      <trkpt lat="27.898515" lon="86.829459">
        <ele>4642.4</ele>
        <time>2022-10-24T04:23:20.000Z</time>
      </trkpt>
      <trkpt lat="27.898538" lon="86.829459">
        <ele>4642.6</ele>
        <time>2022-10-24T04:23:23.000Z</time>
      </trkpt>
      <trkpt lat="27.89856" lon="86.829466">
        <ele>4642.6</ele>
        <time>2022-10-24T04:23:25.000Z</time>
      </trkpt>
      <trkpt lat="27.898579" lon="86.829466">
        <ele>4643.2</ele>
        <time>2022-10-24T04:23:27.000Z</time>
      </trkpt>
      <trkpt lat="27.898598" lon="86.829459">
        <ele>4643.2</ele>
        <time>2022-10-24T04:23:32.000Z</time>
      </trkpt>
      <trkpt lat="27.898624" lon="86.829466">
        <ele>4644</ele>
        <time>2022-10-24T04:23:38.000Z</time>
      </trkpt>
      <trkpt lat="27.898643" lon="86.829466">
        <ele>4644.4</ele>
        <time>2022-10-24T04:23:43.000Z</time>
      </trkpt>
      <trkpt lat="27.898659" lon="86.829478">
        <ele>4644.8</ele>
        <time>2022-10-24T04:23:48.000Z</time>
      </trkpt>
      <trkpt lat="27.898682" lon="86.829485">
        <ele>4645.2</ele>
        <time>2022-10-24T04:23:54.000Z</time>
      </trkpt>
      <trkpt lat="27.898698" lon="86.829504">
        <ele>4645.6</ele>
        <time>2022-10-24T04:24:02.000Z</time>
      </trkpt>
      <trkpt lat="27.898717" lon="86.829498">
        <ele>4646.8</ele>
        <time>2022-10-24T04:24:07.000Z</time>
      </trkpt>
      <trkpt lat="27.898736" lon="86.829504">
        <ele>4647.2</ele>
        <time>2022-10-24T04:24:16.000Z</time>
      </trkpt>
      <trkpt lat="27.898752" lon="86.829523">
        <ele>4647.6</ele>
        <time>2022-10-24T04:24:23.000Z</time>
      </trkpt>
      <trkpt lat="27.898768" lon="86.82951">
        <ele>4648</ele>
        <time>2022-10-24T04:24:27.000Z</time>
      </trkpt>
      <trkpt lat="27.898794" lon="86.829504">
        <ele>4648.2</ele>
        <time>2022-10-24T04:24:33.000Z</time>
      </trkpt>
      <trkpt lat="27.898813" lon="86.829504">
        <ele>4649.4</ele>
        <time>2022-10-24T04:24:39.000Z</time>
      </trkpt>
      <trkpt lat="27.898835" lon="86.829498">
        <ele>4649</ele>
        <time>2022-10-24T04:24:42.000Z</time>
      </trkpt>
      <trkpt lat="27.898858" lon="86.829498">
        <ele>4649.4</ele>
        <time>2022-10-24T04:24:46.000Z</time>
      </trkpt>
      <trkpt lat="27.898877" lon="86.829504">
        <ele>4649.6</ele>
        <time>2022-10-24T04:24:49.000Z</time>
      </trkpt>
      <trkpt lat="27.898896" lon="86.82951">
        <ele>4649.6</ele>
        <time>2022-10-24T04:24:52.000Z</time>
      </trkpt>
      <trkpt lat="27.898912" lon="86.829523">
        <ele>4649.8</ele>
        <time>2022-10-24T04:24:57.000Z</time>
      </trkpt>
      <trkpt lat="27.898912" lon="86.829549">
        <ele>4652.6</ele>
        <time>2022-10-24T04:35:43.000Z</time>
      </trkpt>
      <trkpt lat="27.898934" lon="86.829536">
        <ele>4654.4</ele>
        <time>2022-10-24T04:39:04.000Z</time>
      </trkpt>
      <trkpt lat="27.89896" lon="86.82953">
        <ele>4654.2</ele>
        <time>2022-10-24T04:39:06.000Z</time>
      </trkpt>
      <trkpt lat="27.898979" lon="86.829536">
        <ele>4654.4</ele>
        <time>2022-10-24T04:39:08.000Z</time>
      </trkpt>
      <trkpt lat="27.899072" lon="86.82953">
        <ele>4657.4</ele>
        <time>2022-10-24T04:39:56.000Z</time>
      </trkpt>
      <trkpt lat="27.899094" lon="86.829536">
        <ele>4658</ele>
        <time>2022-10-24T04:39:59.000Z</time>
      </trkpt>
      <trkpt lat="27.89911" lon="86.829549">
        <ele>4658</ele>
        <time>2022-10-24T04:40:02.000Z</time>
      </trkpt>
      <trkpt lat="27.899418" lon="86.829536">
        <ele>4672.4</ele>
        <time>2022-10-24T04:42:44.000Z</time>
      </trkpt>
      <trkpt lat="27.89944" lon="86.829549">
        <ele>4672.6</ele>
        <time>2022-10-24T04:42:47.000Z</time>
      </trkpt>
      <trkpt lat="27.89945" lon="86.829574">
        <ele>4673.4</ele>
        <time>2022-10-24T04:42:50.000Z</time>
      </trkpt>
      <trkpt lat="27.899453" lon="86.8296">
        <ele>4674.2</ele>
        <time>2022-10-24T04:42:56.000Z</time>
      </trkpt>
      <trkpt lat="27.899446" lon="86.829626">
        <ele>4674</ele>
        <time>2022-10-24T04:43:01.000Z</time>
      </trkpt>
      <trkpt lat="27.89944" lon="86.829645">
        <ele>4675.4</ele>
        <time>2022-10-24T04:43:05.000Z</time>
      </trkpt>
      <trkpt lat="27.89944" lon="86.829677">
        <ele>4675.6</ele>
        <time>2022-10-24T04:43:12.000Z</time>
      </trkpt>
      <trkpt lat="27.899437" lon="86.829702">
        <ele>4677</ele>
        <time>2022-10-24T04:43:24.000Z</time>
      </trkpt>
      <trkpt lat="27.899437" lon="86.829728">
        <ele>4677.4</ele>
        <time>2022-10-24T04:43:30.000Z</time>
      </trkpt>
      <trkpt lat="27.899443" lon="86.829747">
        <ele>4678</ele>
        <time>2022-10-24T04:43:37.000Z</time>
      </trkpt>
      <trkpt lat="27.89945" lon="86.829766">
        <ele>4678.2</ele>
        <time>2022-10-24T04:43:41.000Z</time>
      </trkpt>
      <trkpt lat="27.899469" lon="86.829773">
        <ele>4678.8</ele>
        <time>2022-10-24T04:43:51.000Z</time>
      </trkpt>
      <trkpt lat="27.899488" lon="86.829773">
        <ele>4680</ele>
        <time>2022-10-24T04:43:58.000Z</time>
      </trkpt>
      <trkpt lat="27.89961" lon="86.829856">
        <ele>4689.2</ele>
        <time>2022-10-24T04:45:36.000Z</time>
      </trkpt>
      <trkpt lat="27.89961" lon="86.829882">
        <ele>4689.6</ele>
        <time>2022-10-24T04:45:40.000Z</time>
      </trkpt>
      <trkpt lat="27.899626" lon="86.829971">
        <ele>4693.2</ele>
        <time>2022-10-24T04:49:27.000Z</time>
      </trkpt>
      <trkpt lat="27.899651" lon="86.829958">
        <ele>4693.8</ele>
        <time>2022-10-24T04:49:30.000Z</time>
      </trkpt>
      <trkpt lat="27.899674" lon="86.829946">
        <ele>4693.8</ele>
        <time>2022-10-24T04:49:32.000Z</time>
      </trkpt>
      <trkpt lat="27.899693" lon="86.829946">
        <ele>4694</ele>
        <time>2022-10-24T04:49:34.000Z</time>
      </trkpt>
      <trkpt lat="27.899712" lon="86.829939">
        <ele>4694</ele>
        <time>2022-10-24T04:49:36.000Z</time>
      </trkpt>
      <trkpt lat="27.899718" lon="86.829958">
        <ele>4694.8</ele>
        <time>2022-10-24T04:49:40.000Z</time>
      </trkpt>
      <trkpt lat="27.899718" lon="86.829984">
        <ele>4696.8</ele>
        <time>2022-10-24T04:49:48.000Z</time>
      </trkpt>
      <trkpt lat="27.899715" lon="86.83001">
        <ele>4697</ele>
        <time>2022-10-24T04:49:54.000Z</time>
      </trkpt>
      <trkpt lat="27.899731" lon="86.830035">
        <ele>4697.6</ele>
        <time>2022-10-24T04:50:04.000Z</time>
      </trkpt>
      <trkpt lat="27.89975" lon="86.830035">
        <ele>4699.2</ele>
        <time>2022-10-24T04:50:13.000Z</time>
      </trkpt>
      <trkpt lat="27.89976" lon="86.830016">
        <ele>4699.4</ele>
        <time>2022-10-24T04:50:18.000Z</time>
      </trkpt>
      <trkpt lat="27.899779" lon="86.830016">
        <ele>4699.6</ele>
        <time>2022-10-24T04:50:24.000Z</time>
      </trkpt>
      <trkpt lat="27.899798" lon="86.83001">
        <ele>4700</ele>
        <time>2022-10-24T04:50:29.000Z</time>
      </trkpt>
      <trkpt lat="27.900054" lon="86.830291">
        <ele>4716.8</ele>
        <time>2022-10-24T05:00:21.000Z</time>
      </trkpt>
      <trkpt lat="27.900038" lon="86.830304">
        <ele>4716.8</ele>
        <time>2022-10-24T05:00:22.000Z</time>
      </trkpt>
      <trkpt lat="27.900019" lon="86.830323">
        <ele>4716.4</ele>
        <time>2022-10-24T05:00:25.000Z</time>
      </trkpt>
      <trkpt lat="27.900038" lon="86.830304">
        <ele>4716.8</ele>
        <time>2022-10-24T05:00:36.000Z</time>
      </trkpt>
      <trkpt lat="27.900051" lon="86.830285">
        <ele>4716.8</ele>
        <time>2022-10-24T05:00:43.000Z</time>
      </trkpt>
      <trkpt lat="27.900045" lon="86.830304">
        <ele>4716.8</ele>
        <time>2022-10-24T05:01:00.000Z</time>
      </trkpt>
      <trkpt lat="27.900035" lon="86.830323">
        <ele>4716.8</ele>
        <time>2022-10-24T05:01:01.000Z</time>
      </trkpt>
      <trkpt lat="27.90001" lon="86.830342">
        <ele>4716.6</ele>
        <time>2022-10-24T05:01:09.000Z</time>
      </trkpt>
      <trkpt lat="27.900022" lon="86.830323">
        <ele>4716.6</ele>
        <time>2022-10-24T05:01:12.000Z</time>
      </trkpt>
      <trkpt lat="27.900029" lon="86.830298">
        <ele>4716.6</ele>
        <time>2022-10-24T05:01:14.000Z</time>
      </trkpt>
      <trkpt lat="27.900048" lon="86.830285">
        <ele>4716.8</ele>
        <time>2022-10-24T05:01:17.000Z</time>
      </trkpt>
      <trkpt lat="27.900029" lon="86.830291">
        <ele>4717.2</ele>
        <time>2022-10-24T05:02:33.000Z</time>
      </trkpt>
      <trkpt lat="27.900013" lon="86.830317">
        <ele>4716.6</ele>
        <time>2022-10-24T05:02:36.000Z</time>
      </trkpt>
      <trkpt lat="27.900019" lon="86.830291">
        <ele>4716.8</ele>
        <time>2022-10-24T05:02:42.000Z</time>
      </trkpt>
      <trkpt lat="27.900035" lon="86.830278">
        <ele>4716.8</ele>
        <time>2022-10-24T05:02:44.000Z</time>
      </trkpt>
      <trkpt lat="27.900058" lon="86.830298">
        <ele>4723</ele>
        <time>2022-10-24T05:05:54.000Z</time>
      </trkpt>
      <trkpt lat="27.900067" lon="86.830317">
        <ele>4723.2</ele>
        <time>2022-10-24T05:05:56.000Z</time>
      </trkpt>
      <trkpt lat="27.900077" lon="86.830336">
        <ele>4723.4</ele>
        <time>2022-10-24T05:05:58.000Z</time>
      </trkpt>
      <trkpt lat="27.90008" lon="86.830362">
        <ele>4723.8</ele>
        <time>2022-10-24T05:06:00.000Z</time>
      </trkpt>
      <trkpt lat="27.900086" lon="86.830381">
        <ele>4724.6</ele>
        <time>2022-10-24T05:06:03.000Z</time>
      </trkpt>
      <trkpt lat="27.900096" lon="86.8304">
        <ele>4725.2</ele>
        <time>2022-10-24T05:06:08.000Z</time>
      </trkpt>
      <trkpt lat="27.900112" lon="86.830381">
        <ele>4724.6</ele>
        <time>2022-10-24T05:06:13.000Z</time>
      </trkpt>
      <trkpt lat="27.900128" lon="86.830394">
        <ele>4725.8</ele>
        <time>2022-10-24T05:06:18.000Z</time>
      </trkpt>
      <trkpt lat="27.900141" lon="86.830413">
        <ele>4726.8</ele>
        <time>2022-10-24T05:06:24.000Z</time>
      </trkpt>
      <trkpt lat="27.900352" lon="86.830592">
        <ele>4746</ele>
        <time>2022-10-24T05:09:18.000Z</time>
      </trkpt>
      <trkpt lat="27.900352" lon="86.830618">
        <ele>4746</ele>
        <time>2022-10-24T05:09:21.000Z</time>
      </trkpt>
      <trkpt lat="27.900346" lon="86.83065">
        <ele>4746.2</ele>
        <time>2022-10-24T05:09:23.000Z</time>
      </trkpt>
      <trkpt lat="27.900342" lon="86.830675">
        <ele>4746.8</ele>
        <time>2022-10-24T05:09:25.000Z</time>
      </trkpt>
      <trkpt lat="27.900352" lon="86.830694">
        <ele>4747</ele>
        <time>2022-10-24T05:09:33.000Z</time>
      </trkpt>
      <trkpt lat="27.900454" lon="86.830675">
        <ele>4753</ele>
        <time>2022-10-24T05:11:10.000Z</time>
      </trkpt>
      <trkpt lat="27.900454" lon="86.830714">
        <ele>4753</ele>
        <time>2022-10-24T05:11:13.000Z</time>
      </trkpt>
      <trkpt lat="27.900454" lon="86.830739">
        <ele>4753.8</ele>
        <time>2022-10-24T05:11:16.000Z</time>
      </trkpt>
      <trkpt lat="27.900454" lon="86.830765">
        <ele>4754</ele>
        <time>2022-10-24T05:11:18.000Z</time>
      </trkpt>
      <trkpt lat="27.900458" lon="86.83079">
        <ele>4754.6</ele>
        <time>2022-10-24T05:11:23.000Z</time>
      </trkpt>
      <trkpt lat="27.900464" lon="86.83081">
        <ele>4755</ele>
        <time>2022-10-24T05:11:29.000Z</time>
      </trkpt>
      <trkpt lat="27.900458" lon="86.830829">
        <ele>4755.8</ele>
        <time>2022-10-24T05:11:34.000Z</time>
      </trkpt>
      <trkpt lat="27.900477" lon="86.830835">
        <ele>4756.6</ele>
        <time>2022-10-24T05:11:44.000Z</time>
      </trkpt>
      <trkpt lat="27.900496" lon="86.830816">
        <ele>4756.8</ele>
        <time>2022-10-24T05:11:52.000Z</time>
      </trkpt>
      <trkpt lat="27.900512" lon="86.830835">
        <ele>4758.2</ele>
        <time>2022-10-24T05:11:58.000Z</time>
      </trkpt>
      <trkpt lat="27.900602" lon="86.830854">
        <ele>4765.4</ele>
        <time>2022-10-24T05:13:05.000Z</time>
      </trkpt>
      <trkpt lat="27.900595" lon="86.83088">
        <ele>4765.6</ele>
        <time>2022-10-24T05:13:07.000Z</time>
      </trkpt>
      <trkpt lat="27.900586" lon="86.830912">
        <ele>4765.8</ele>
        <time>2022-10-24T05:13:10.000Z</time>
      </trkpt>
      <trkpt lat="27.900582" lon="86.830938">
        <ele>4767</ele>
        <time>2022-10-24T05:13:12.000Z</time>
      </trkpt>
      <trkpt lat="27.900576" lon="86.830957">
        <ele>4766.6</ele>
        <time>2022-10-24T05:13:14.000Z</time>
      </trkpt>
      <trkpt lat="27.900576" lon="86.830989">
        <ele>4767.4</ele>
        <time>2022-10-24T05:13:23.000Z</time>
      </trkpt>
      <trkpt lat="27.900576" lon="86.831014">
        <ele>4767.6</ele>
        <time>2022-10-24T05:13:32.000Z</time>
      </trkpt>
      <trkpt lat="27.900573" lon="86.83104">
        <ele>4769</ele>
        <time>2022-10-24T05:13:36.000Z</time>
      </trkpt>
      <trkpt lat="27.900563" lon="86.831059">
        <ele>4769.6</ele>
        <time>2022-10-24T05:13:42.000Z</time>
      </trkpt>
      <trkpt lat="27.900557" lon="86.831078">
        <ele>4769.8</ele>
        <time>2022-10-24T05:13:45.000Z</time>
      </trkpt>
      <trkpt lat="27.900547" lon="86.831098">
        <ele>4770.2</ele>
        <time>2022-10-24T05:13:51.000Z</time>
      </trkpt>
      <trkpt lat="27.900538" lon="86.831117">
        <ele>4771</ele>
        <time>2022-10-24T05:13:57.000Z</time>
      </trkpt>
      <trkpt lat="27.900531" lon="86.831136">
        <ele>4771</ele>
        <time>2022-10-24T05:14:03.000Z</time>
      </trkpt>
      <trkpt lat="27.900544" lon="86.831245">
        <ele>4778</ele>
        <time>2022-10-24T05:16:38.000Z</time>
      </trkpt>
      <trkpt lat="27.90072" lon="86.831322">
        <ele>4793.4</ele>
        <time>2022-10-24T05:19:01.000Z</time>
      </trkpt>
      <trkpt lat="27.900746" lon="86.831315">
        <ele>4793.4</ele>
        <time>2022-10-24T05:19:04.000Z</time>
      </trkpt>
      <trkpt lat="27.900771" lon="86.831309">
        <ele>4793.8</ele>
        <time>2022-10-24T05:19:07.000Z</time>
      </trkpt>
      <trkpt lat="27.900787" lon="86.831296">
        <ele>4794.2</ele>
        <time>2022-10-24T05:19:11.000Z</time>
      </trkpt>
      <trkpt lat="27.90105" lon="86.831315">
        <ele>4808.8</ele>
        <time>2022-10-24T05:22:37.000Z</time>
      </trkpt>
      <trkpt lat="27.901069" lon="86.831322">
        <ele>4808.8</ele>
        <time>2022-10-24T05:22:39.000Z</time>
      </trkpt>
      <trkpt lat="27.901088" lon="86.831322">
        <ele>4809</ele>
        <time>2022-10-24T05:22:41.000Z</time>
      </trkpt>
      <trkpt lat="27.901107" lon="86.831322">
        <ele>4809</ele>
        <time>2022-10-24T05:22:43.000Z</time>
      </trkpt>
      <trkpt lat="27.901126" lon="86.831322">
        <ele>4809.4</ele>
        <time>2022-10-24T05:22:45.000Z</time>
      </trkpt>
      <trkpt lat="27.901146" lon="86.831322">
        <ele>4809.4</ele>
        <time>2022-10-24T05:22:48.000Z</time>
      </trkpt>
      <trkpt lat="27.901152" lon="86.831347">
        <ele>4811.2</ele>
        <time>2022-10-24T05:22:54.000Z</time>
      </trkpt>
      <trkpt lat="27.901149" lon="86.831373">
        <ele>4811.8</ele>
        <time>2022-10-24T05:23:02.000Z</time>
      </trkpt>
      <trkpt lat="27.901136" lon="86.831469">
        <ele>4816.8</ele>
        <time>2022-10-24T05:23:55.000Z</time>
      </trkpt>
      <trkpt lat="27.901133" lon="86.831494">
        <ele>4817</ele>
        <time>2022-10-24T05:23:58.000Z</time>
      </trkpt>
      <trkpt lat="27.90113" lon="86.83152">
        <ele>4817</ele>
        <time>2022-10-24T05:24:00.000Z</time>
      </trkpt>
      <trkpt lat="27.90113" lon="86.831546">
        <ele>4818.2</ele>
        <time>2022-10-24T05:24:03.000Z</time>
      </trkpt>
      <trkpt lat="27.901091" lon="86.831706">
        <ele>4821</ele>
        <time>2022-10-24T05:27:09.000Z</time>
      </trkpt>
      <trkpt lat="27.901197" lon="86.831802">
        <ele>4831.6</ele>
        <time>2022-10-24T05:30:44.000Z</time>
      </trkpt>
      <trkpt lat="27.901219" lon="86.831802">
        <ele>4831.6</ele>
        <time>2022-10-24T05:30:47.000Z</time>
      </trkpt>
      <trkpt lat="27.901242" lon="86.831808">
        <ele>4832</ele>
        <time>2022-10-24T05:30:50.000Z</time>
      </trkpt>
      <trkpt lat="27.901261" lon="86.831808">
        <ele>4832.6</ele>
        <time>2022-10-24T05:30:53.000Z</time>
      </trkpt>
      <trkpt lat="27.901488" lon="86.832006">
        <ele>4850</ele>
        <time>2022-10-24T05:33:59.000Z</time>
      </trkpt>
      <trkpt lat="27.901494" lon="86.832026">
        <ele>4850.4</ele>
        <time>2022-10-24T05:34:02.000Z</time>
      </trkpt>
      <trkpt lat="27.901501" lon="86.832045">
        <ele>4850.6</ele>
        <time>2022-10-24T05:34:05.000Z</time>
      </trkpt>
      <trkpt lat="27.901504" lon="86.832077">
        <ele>4851.2</ele>
        <time>2022-10-24T05:34:08.000Z</time>
      </trkpt>
      <trkpt lat="27.901501" lon="86.832102">
        <ele>4852.2</ele>
        <time>2022-10-24T05:34:17.000Z</time>
      </trkpt>
      <trkpt lat="27.901488" lon="86.832122">
        <ele>4852.8</ele>
        <time>2022-10-24T05:34:26.000Z</time>
      </trkpt>
      <trkpt lat="27.901494" lon="86.832141">
        <ele>4853.6</ele>
        <time>2022-10-24T05:34:31.000Z</time>
      </trkpt>
      <trkpt lat="27.901488" lon="86.83216">
        <ele>4854.4</ele>
        <time>2022-10-24T05:34:38.000Z</time>
      </trkpt>
      <trkpt lat="27.901507" lon="86.832166">
        <ele>4855.2</ele>
        <time>2022-10-24T05:34:51.000Z</time>
      </trkpt>
      <trkpt lat="27.901674" lon="86.832243">
        <ele>4868.4</ele>
        <time>2022-10-24T05:38:04.000Z</time>
      </trkpt>
      <trkpt lat="27.901699" lon="86.832243">
        <ele>4868.6</ele>
        <time>2022-10-24T05:38:07.000Z</time>
      </trkpt>
      <trkpt lat="27.901722" lon="86.832243">
        <ele>4869.4</ele>
        <time>2022-10-24T05:38:10.000Z</time>
      </trkpt>
      <trkpt lat="27.901744" lon="86.832243">
        <ele>4870</ele>
        <time>2022-10-24T05:38:12.000Z</time>
      </trkpt>
      <trkpt lat="27.901757" lon="86.832262">
        <ele>4870.2</ele>
        <time>2022-10-24T05:38:16.000Z</time>
      </trkpt>
      <trkpt lat="27.901754" lon="86.832288">
        <ele>4871</ele>
        <time>2022-10-24T05:38:24.000Z</time>
      </trkpt>
      <trkpt lat="27.901747" lon="86.832307">
        <ele>4871</ele>
        <time>2022-10-24T05:38:27.000Z</time>
      </trkpt>
      <trkpt lat="27.901754" lon="86.832326">
        <ele>4876.4</ele>
        <time>2022-10-24T05:46:55.000Z</time>
      </trkpt>
      <trkpt lat="27.901766" lon="86.832346">
        <ele>4877.4</ele>
        <time>2022-10-24T05:46:57.000Z</time>
      </trkpt>
      <trkpt lat="27.901792" lon="86.832346">
        <ele>4878</ele>
        <time>2022-10-24T05:47:00.000Z</time>
      </trkpt>
      <trkpt lat="27.901814" lon="86.832352">
        <ele>4878</ele>
        <time>2022-10-24T05:47:03.000Z</time>
      </trkpt>
      <trkpt lat="27.901824" lon="86.832378">
        <ele>4878.6</ele>
        <time>2022-10-24T05:47:07.000Z</time>
      </trkpt>
      <trkpt lat="27.901834" lon="86.832397">
        <ele>4880</ele>
        <time>2022-10-24T05:47:15.000Z</time>
      </trkpt>
      <trkpt lat="27.901853" lon="86.832397">
        <ele>4880.4</ele>
        <time>2022-10-24T05:47:23.000Z</time>
      </trkpt>
      <trkpt lat="27.901872" lon="86.832397">
        <ele>4881.4</ele>
        <time>2022-10-24T05:47:30.000Z</time>
      </trkpt>
      <trkpt lat="27.901885" lon="86.832422">
        <ele>4882.8</ele>
        <time>2022-10-24T05:47:40.000Z</time>
      </trkpt>
      <trkpt lat="27.901901" lon="86.832435">
        <ele>4883.2</ele>
        <time>2022-10-24T05:47:48.000Z</time>
      </trkpt>
      <trkpt lat="27.901891" lon="86.832461">
        <ele>4884.6</ele>
        <time>2022-10-24T05:47:56.000Z</time>
      </trkpt>
      <trkpt lat="27.901891" lon="86.832486">
        <ele>4886.2</ele>
        <time>2022-10-24T05:48:09.000Z</time>
      </trkpt>
      <trkpt lat="27.901898" lon="86.832506">
        <ele>4886.8</ele>
        <time>2022-10-24T05:48:16.000Z</time>
      </trkpt>
      <trkpt lat="27.902192" lon="86.832736">
        <ele>4905.8</ele>
        <time>2022-10-24T05:51:57.000Z</time>
      </trkpt>
      <trkpt lat="27.902214" lon="86.832742">
        <ele>4906</ele>
        <time>2022-10-24T05:52:00.000Z</time>
      </trkpt>
      <trkpt lat="27.90224" lon="86.832755">
        <ele>4906.4</ele>
        <time>2022-10-24T05:52:03.000Z</time>
      </trkpt>
      <trkpt lat="27.902253" lon="86.832774">
        <ele>4906.6</ele>
        <time>2022-10-24T05:52:05.000Z</time>
      </trkpt>
      <trkpt lat="27.902269" lon="86.832787">
        <ele>4907.6</ele>
        <time>2022-10-24T05:52:09.000Z</time>
      </trkpt>
      <trkpt lat="27.902288" lon="86.8328">
        <ele>4909.6</ele>
        <time>2022-10-24T05:52:20.000Z</time>
      </trkpt>
      <trkpt lat="27.902307" lon="86.832794">
        <ele>4910</ele>
        <time>2022-10-24T05:52:26.000Z</time>
      </trkpt>
      <trkpt lat="27.90233" lon="86.832794">
        <ele>4911.4</ele>
        <time>2022-10-24T05:52:33.000Z</time>
      </trkpt>
      <trkpt lat="27.902349" lon="86.8328">
        <ele>4912</ele>
        <time>2022-10-24T05:52:38.000Z</time>
      </trkpt>
      <trkpt lat="27.902355" lon="86.832819">
        <ele>4913</ele>
        <time>2022-10-24T05:52:44.000Z</time>
      </trkpt>
      <trkpt lat="27.902362" lon="86.832838">
        <ele>4913.6</ele>
        <time>2022-10-24T05:52:51.000Z</time>
      </trkpt>
      <trkpt lat="27.902371" lon="86.832858">
        <ele>4914</ele>
        <time>2022-10-24T05:52:57.000Z</time>
      </trkpt>
      <trkpt lat="27.902717" lon="86.833056">
        <ele>4933</ele>
        <time>2022-10-24T05:56:02.000Z</time>
      </trkpt>
      <trkpt lat="27.902742" lon="86.833056">
        <ele>4933</ele>
        <time>2022-10-24T05:56:05.000Z</time>
      </trkpt>
      <trkpt lat="27.902768" lon="86.833062">
        <ele>4933.4</ele>
        <time>2022-10-24T05:56:08.000Z</time>
      </trkpt>
      <trkpt lat="27.90279" lon="86.833062">
        <ele>4934</ele>
        <time>2022-10-24T05:56:11.000Z</time>
      </trkpt>
      <trkpt lat="27.90279" lon="86.833094">
        <ele>4935.2</ele>
        <time>2022-10-24T05:56:20.000Z</time>
      </trkpt>
      <trkpt lat="27.902864" lon="86.833146">
        <ele>4942.6</ele>
        <time>2022-10-24T05:59:41.000Z</time>
      </trkpt>
      <trkpt lat="27.902883" lon="86.833146">
        <ele>4943.2</ele>
        <time>2022-10-24T05:59:43.000Z</time>
      </trkpt>
      <trkpt lat="27.902906" lon="86.833139">
        <ele>4944</ele>
        <time>2022-10-24T05:59:46.000Z</time>
      </trkpt>
      <trkpt lat="27.902925" lon="86.833139">
        <ele>4944</ele>
        <time>2022-10-24T05:59:48.000Z</time>
      </trkpt>
      <trkpt lat="27.902944" lon="86.833146">
        <ele>4944.8</ele>
        <time>2022-10-24T05:59:52.000Z</time>
      </trkpt>
      <trkpt lat="27.903242" lon="86.833216">
        <ele>4960.6</ele>
        <time>2022-10-24T06:02:34.000Z</time>
      </trkpt>
      <trkpt lat="27.903248" lon="86.833235">
        <ele>4960.6</ele>
        <time>2022-10-24T06:02:37.000Z</time>
      </trkpt>
      <trkpt lat="27.903254" lon="86.833261">
        <ele>4961</ele>
        <time>2022-10-24T06:02:39.000Z</time>
      </trkpt>
      <trkpt lat="27.903395" lon="86.833376">
        <ele>4970.6</ele>
        <time>2022-10-24T06:04:14.000Z</time>
      </trkpt>
      <trkpt lat="27.903414" lon="86.833363">
        <ele>4971.2</ele>
        <time>2022-10-24T06:04:16.000Z</time>
      </trkpt>
      <trkpt lat="27.90344" lon="86.83335">
        <ele>4971.2</ele>
        <time>2022-10-24T06:04:19.000Z</time>
      </trkpt>
      <trkpt lat="27.903459" lon="86.833344">
        <ele>4970.8</ele>
        <time>2022-10-24T06:04:21.000Z</time>
      </trkpt>
      <trkpt lat="27.903482" lon="86.833344">
        <ele>4971.4</ele>
        <time>2022-10-24T06:04:25.000Z</time>
      </trkpt>
      <trkpt lat="27.903501" lon="86.83335">
        <ele>4972</ele>
        <time>2022-10-24T06:04:32.000Z</time>
      </trkpt>
      <trkpt lat="27.90352" lon="86.833344">
        <ele>4972.8</ele>
        <time>2022-10-24T06:04:38.000Z</time>
      </trkpt>
      <trkpt lat="27.903539" lon="86.833344">
        <ele>4974.2</ele>
        <time>2022-10-24T06:04:44.000Z</time>
      </trkpt>
      <trkpt lat="27.903558" lon="86.833344">
        <ele>4975</ele>
        <time>2022-10-24T06:04:51.000Z</time>
      </trkpt>
      <trkpt lat="27.903578" lon="86.83335">
        <ele>4975.4</ele>
        <time>2022-10-24T06:04:58.000Z</time>
      </trkpt>
      <trkpt lat="27.90377" lon="86.833414">
        <ele>4985.8</ele>
        <time>2022-10-24T06:07:45.000Z</time>
      </trkpt>
      <trkpt lat="27.903789" lon="86.833414">
        <ele>4986.4</ele>
        <time>2022-10-24T06:07:47.000Z</time>
      </trkpt>
      <trkpt lat="27.903808" lon="86.833421">
        <ele>4987</ele>
        <time>2022-10-24T06:07:49.000Z</time>
      </trkpt>
      <trkpt lat="27.90383" lon="86.833427">
        <ele>4987</ele>
        <time>2022-10-24T06:07:52.000Z</time>
      </trkpt>
      <trkpt lat="27.903846" lon="86.83344">
        <ele>4987.8</ele>
        <time>2022-10-24T06:07:58.000Z</time>
      </trkpt>
      <trkpt lat="27.903866" lon="86.83344">
        <ele>4988</ele>
        <time>2022-10-24T06:08:05.000Z</time>
      </trkpt>
      <trkpt lat="27.903888" lon="86.833434">
        <ele>4988.8</ele>
        <time>2022-10-24T06:08:11.000Z</time>
      </trkpt>
      <trkpt lat="27.903888" lon="86.833459">
        <ele>4990.6</ele>
        <time>2022-10-24T06:08:19.000Z</time>
      </trkpt>
      <trkpt lat="27.903878" lon="86.833478">
        <ele>4991</ele>
        <time>2022-10-24T06:08:26.000Z</time>
      </trkpt>
      <trkpt lat="27.903962" lon="86.833581">
        <ele>5001.8</ele>
        <time>2022-10-24T06:11:35.000Z</time>
      </trkpt>
      <trkpt lat="27.903978" lon="86.833594">
        <ele>5002.6</ele>
        <time>2022-10-24T06:11:37.000Z</time>
      </trkpt>
      <trkpt lat="27.903997" lon="86.8336">
        <ele>5003.8</ele>
        <time>2022-10-24T06:11:39.000Z</time>
      </trkpt>
      <trkpt lat="27.904016" lon="86.833619">
        <ele>5003.2</ele>
        <time>2022-10-24T06:11:42.000Z</time>
      </trkpt>
      <trkpt lat="27.904029" lon="86.833638">
        <ele>5004</ele>
        <time>2022-10-24T06:11:45.000Z</time>
      </trkpt>
      <trkpt lat="27.904237" lon="86.833933">
        <ele>5019.8</ele>
        <time>2022-10-24T06:15:05.000Z</time>
      </trkpt>
      <trkpt lat="27.904326" lon="86.834067">
        <ele>5026.4</ele>
        <time>2022-10-24T06:17:43.000Z</time>
      </trkpt>
      <trkpt lat="27.904349" lon="86.834086">
        <ele>5026</ele>
        <time>2022-10-24T06:17:46.000Z</time>
      </trkpt>
      <trkpt lat="27.904374" lon="86.834086">
        <ele>5026.4</ele>
        <time>2022-10-24T06:17:49.000Z</time>
      </trkpt>
      <trkpt lat="27.904394" lon="86.834093">
        <ele>5026.2</ele>
        <time>2022-10-24T06:17:51.000Z</time>
      </trkpt>
      <trkpt lat="27.904413" lon="86.834099">
        <ele>5026.6</ele>
        <time>2022-10-24T06:17:54.000Z</time>
      </trkpt>
      <trkpt lat="27.904429" lon="86.834112">
        <ele>5027.6</ele>
        <time>2022-10-24T06:18:01.000Z</time>
      </trkpt>
      <trkpt lat="27.904435" lon="86.834131">
        <ele>5028</ele>
        <time>2022-10-24T06:18:05.000Z</time>
      </trkpt>
      <trkpt lat="27.904454" lon="86.834144">
        <ele>5029.4</ele>
        <time>2022-10-24T06:18:14.000Z</time>
      </trkpt>
      <trkpt lat="27.90432" lon="86.834374">
        <ele>5044.6</ele>
        <time>2022-10-24T06:21:40.000Z</time>
      </trkpt>
      <trkpt lat="27.904336" lon="86.834387">
        <ele>5044.6</ele>
        <time>2022-10-24T06:21:43.000Z</time>
      </trkpt>
      <trkpt lat="27.904346" lon="86.834406">
        <ele>5044.6</ele>
        <time>2022-10-24T06:21:45.000Z</time>
      </trkpt>
      <trkpt lat="27.904362" lon="86.834419">
        <ele>5045.6</ele>
        <time>2022-10-24T06:21:48.000Z</time>
      </trkpt>
      <trkpt lat="27.904378" lon="86.834432">
        <ele>5047.2</ele>
        <time>2022-10-24T06:21:53.000Z</time>
      </trkpt>
      <trkpt lat="27.904378" lon="86.834458">
        <ele>5047.6</ele>
        <time>2022-10-24T06:22:00.000Z</time>
      </trkpt>
      <trkpt lat="27.904426" lon="86.834522">
        <ele>5054</ele>
        <time>2022-10-24T06:30:39.000Z</time>
      </trkpt>
      <trkpt lat="27.904675" lon="86.834778">
        <ele>5064.2</ele>
        <time>2022-10-24T06:33:33.000Z</time>
      </trkpt>
      <trkpt lat="27.904694" lon="86.834784">
        <ele>5067.2</ele>
        <time>2022-10-24T06:33:35.000Z</time>
      </trkpt>
      <trkpt lat="27.904707" lon="86.834803">
        <ele>5066.4</ele>
        <time>2022-10-24T06:33:37.000Z</time>
      </trkpt>
      <trkpt lat="27.904739" lon="86.834803">
        <ele>5067.8</ele>
        <time>2022-10-24T06:41:09.000Z</time>
      </trkpt>
      <trkpt lat="27.904701" lon="86.834746">
        <ele>5067.2</ele>
        <time>2022-10-24T06:42:52.000Z</time>
      </trkpt>
      <trkpt lat="27.904685" lon="86.834733">
        <ele>5067</ele>
        <time>2022-10-24T06:42:54.000Z</time>
      </trkpt>
      <trkpt lat="27.904666" lon="86.834714">
        <ele>5065.8</ele>
        <time>2022-10-24T06:42:57.000Z</time>
      </trkpt>
      <trkpt lat="27.904653" lon="86.834688">
        <ele>5065.2</ele>
        <time>2022-10-24T06:43:02.000Z</time>
      </trkpt>
      <trkpt lat="27.904672" lon="86.834701">
        <ele>5067</ele>
        <time>2022-10-24T06:43:48.000Z</time>
      </trkpt>
      <trkpt lat="27.904694" lon="86.834726">
        <ele>5067.6</ele>
        <time>2022-10-24T06:43:50.000Z</time>
      </trkpt>
      <trkpt lat="27.90471" lon="86.834739">
        <ele>5068.2</ele>
        <time>2022-10-24T06:43:52.000Z</time>
      </trkpt>
      <trkpt lat="27.90472" lon="86.834765">
        <ele>5067.6</ele>
        <time>2022-10-24T06:43:54.000Z</time>
      </trkpt>
      <trkpt lat="27.904733" lon="86.834784">
        <ele>5067.6</ele>
        <time>2022-10-24T06:43:56.000Z</time>
      </trkpt>
      <trkpt lat="27.904714" lon="86.834784">
        <ele>5069.4</ele>
        <time>2022-10-24T06:49:33.000Z</time>
      </trkpt>
      <trkpt lat="27.904691" lon="86.834778">
        <ele>5071.4</ele>
        <time>2022-10-24T06:57:00.000Z</time>
      </trkpt>
      <trkpt lat="27.904698" lon="86.834752">
        <ele>5071.6</ele>
        <time>2022-10-24T06:57:03.000Z</time>
      </trkpt>
      <trkpt lat="27.904685" lon="86.834733">
        <ele>5069.4</ele>
        <time>2022-10-24T06:57:08.000Z</time>
      </trkpt>
      <trkpt lat="27.904666" lon="86.834733">
        <ele>5070</ele>
        <time>2022-10-24T06:57:16.000Z</time>
      </trkpt>
      <trkpt lat="27.904694" lon="86.834746">
        <ele>5071.6</ele>
        <time>2022-10-24T06:58:19.000Z</time>
      </trkpt>
      <trkpt lat="27.904723" lon="86.834765">
        <ele>5072</ele>
        <time>2022-10-24T06:58:22.000Z</time>
      </trkpt>
      <trkpt lat="27.904752" lon="86.834771">
        <ele>5073.4</ele>
        <time>2022-10-24T06:58:26.000Z</time>
      </trkpt>
      <trkpt lat="27.904691" lon="86.834771">
        <ele>5076.2</ele>
        <time>2022-10-24T07:11:53.000Z</time>
      </trkpt>
      <trkpt lat="27.904698" lon="86.834701">
        <ele>5077.4</ele>
        <time>2022-10-24T07:12:55.000Z</time>
      </trkpt>
      <trkpt lat="27.904698" lon="86.834726">
        <ele>5078.6</ele>
        <time>2022-10-24T07:12:59.000Z</time>
      </trkpt>
      <trkpt lat="27.904691" lon="86.834746">
        <ele>5079.2</ele>
        <time>2022-10-24T07:13:03.000Z</time>
      </trkpt>
      <trkpt lat="27.904698" lon="86.834765">
        <ele>5080</ele>
        <time>2022-10-24T07:13:08.000Z</time>
      </trkpt>
      <trkpt lat="27.904714" lon="86.834752">
        <ele>5076.4</ele>
        <time>2022-10-24T07:14:28.000Z</time>
      </trkpt>
      <trkpt lat="27.904726" lon="86.834784">
        <ele>5083</ele>
        <time>2022-10-24T07:31:27.000Z</time>
      </trkpt>
      <trkpt lat="27.904707" lon="86.834726">
        <ele>5080.8</ele>
        <time>2022-10-24T07:32:07.000Z</time>
      </trkpt>
      <trkpt lat="27.904685" lon="86.834714">
        <ele>5080.2</ele>
        <time>2022-10-24T07:32:09.000Z</time>
      </trkpt>
      <trkpt lat="27.904666" lon="86.834714">
        <ele>5080.2</ele>
        <time>2022-10-24T07:32:12.000Z</time>
      </trkpt>
      <trkpt lat="27.904646" lon="86.834707">
        <ele>5080</ele>
        <time>2022-10-24T07:32:15.000Z</time>
      </trkpt>
      <trkpt lat="27.904614" lon="86.834682">
        <ele>5076.4</ele>
        <time>2022-10-24T07:32:46.000Z</time>
      </trkpt>
      <trkpt lat="27.904592" lon="86.834662">
        <ele>5075.2</ele>
        <time>2022-10-24T07:32:49.000Z</time>
      </trkpt>
      <trkpt lat="27.904573" lon="86.834656">
        <ele>5075.4</ele>
        <time>2022-10-24T07:32:51.000Z</time>
      </trkpt>
      <trkpt lat="27.90455" lon="86.83465">
        <ele>5074.4</ele>
        <time>2022-10-24T07:32:53.000Z</time>
      </trkpt>
      <trkpt lat="27.904528" lon="86.834643">
        <ele>5074.2</ele>
        <time>2022-10-24T07:32:55.000Z</time>
      </trkpt>
      <trkpt lat="27.904528" lon="86.834618">
        <ele>5073.6</ele>
        <time>2022-10-24T07:32:58.000Z</time>
      </trkpt>
      <trkpt lat="27.904512" lon="86.834605">
        <ele>5072.6</ele>
        <time>2022-10-24T07:33:05.000Z</time>
      </trkpt>
      <trkpt lat="27.904506" lon="86.834586">
        <ele>5072</ele>
        <time>2022-10-24T07:33:08.000Z</time>
      </trkpt>
      <trkpt lat="27.904496" lon="86.834566">
        <ele>5069.6</ele>
        <time>2022-10-24T07:33:32.000Z</time>
      </trkpt>
      <trkpt lat="27.904502" lon="86.834547">
        <ele>5069.8</ele>
        <time>2022-10-24T07:33:34.000Z</time>
      </trkpt>
      <trkpt lat="27.904486" lon="86.834522">
        <ele>5068.2</ele>
        <time>2022-10-24T07:33:38.000Z</time>
      </trkpt>
      <trkpt lat="27.904477" lon="86.834502">
        <ele>5068.2</ele>
        <time>2022-10-24T07:33:40.000Z</time>
      </trkpt>
      <trkpt lat="27.904458" lon="86.834496">
        <ele>5067.8</ele>
        <time>2022-10-24T07:33:43.000Z</time>
      </trkpt>
      <trkpt lat="27.904438" lon="86.834496">
        <ele>5069.2</ele>
        <time>2022-10-24T07:33:46.000Z</time>
      </trkpt>
      <trkpt lat="27.904422" lon="86.83447">
        <ele>5065.8</ele>
        <time>2022-10-24T07:33:49.000Z</time>
      </trkpt>
      <trkpt lat="27.904429" lon="86.834445">
        <ele>5064.8</ele>
        <time>2022-10-24T07:33:53.000Z</time>
      </trkpt>
      <trkpt lat="27.904422" lon="86.834426">
        <ele>5062.8</ele>
        <time>2022-10-24T07:33:57.000Z</time>
      </trkpt>
      <trkpt lat="27.904397" lon="86.834419">
        <ele>5062.8</ele>
        <time>2022-10-24T07:34:01.000Z</time>
      </trkpt>
      <trkpt lat="27.90439" lon="86.834394">
        <ele>5061.8</ele>
        <time>2022-10-24T07:34:08.000Z</time>
      </trkpt>
      <trkpt lat="27.904374" lon="86.834374">
        <ele>5059.8</ele>
        <time>2022-10-24T07:34:14.000Z</time>
      </trkpt>
      <trkpt lat="27.904365" lon="86.834355">
        <ele>5057.8</ele>
        <time>2022-10-24T07:34:19.000Z</time>
      </trkpt>
      <trkpt lat="27.904365" lon="86.83433">
        <ele>5056.8</ele>
        <time>2022-10-24T07:34:25.000Z</time>
      </trkpt>
      <trkpt lat="27.904378" lon="86.83431">
        <ele>5056.4</ele>
        <time>2022-10-24T07:34:29.000Z</time>
      </trkpt>
      <trkpt lat="27.904358" lon="86.83431">
        <ele>5055.4</ele>
        <time>2022-10-24T07:34:35.000Z</time>
      </trkpt>
      <trkpt lat="27.904339" lon="86.834304">
        <ele>5054.4</ele>
        <time>2022-10-24T07:34:39.000Z</time>
      </trkpt>
      <trkpt lat="27.904378" lon="86.834208">
        <ele>5048.8</ele>
        <time>2022-10-24T07:35:45.000Z</time>
      </trkpt>
      <trkpt lat="27.904394" lon="86.834195">
        <ele>5048.8</ele>
        <time>2022-10-24T07:35:46.000Z</time>
      </trkpt>
      <trkpt lat="27.904416" lon="86.834195">
        <ele>5048.2</ele>
        <time>2022-10-24T07:35:48.000Z</time>
      </trkpt>
      <trkpt lat="27.904435" lon="86.834182">
        <ele>5049</ele>
        <time>2022-10-24T07:35:50.000Z</time>
      </trkpt>
      <trkpt lat="27.904458" lon="86.83417">
        <ele>5049.2</ele>
        <time>2022-10-24T07:35:52.000Z</time>
      </trkpt>
      <trkpt lat="27.90448" lon="86.83415">
        <ele>5049</ele>
        <time>2022-10-24T07:35:54.000Z</time>
      </trkpt>
      <trkpt lat="27.904502" lon="86.83415">
        <ele>5047.8</ele>
        <time>2022-10-24T07:35:57.000Z</time>
      </trkpt>
      <trkpt lat="27.904509" lon="86.834131">
        <ele>5047.4</ele>
        <time>2022-10-24T07:36:02.000Z</time>
      </trkpt>
      <trkpt lat="27.90449" lon="86.834125">
        <ele>5046</ele>
        <time>2022-10-24T07:36:06.000Z</time>
      </trkpt>
      <trkpt lat="27.904474" lon="86.834106">
        <ele>5045.4</ele>
        <time>2022-10-24T07:36:15.000Z</time>
      </trkpt>
      <trkpt lat="27.904458" lon="86.834093">
        <ele>5044.8</ele>
        <time>2022-10-24T07:36:19.000Z</time>
      </trkpt>
      <trkpt lat="27.904435" lon="86.834093">
        <ele>5043.6</ele>
        <time>2022-10-24T07:36:22.000Z</time>
      </trkpt>
      <trkpt lat="27.904413" lon="86.834086">
        <ele>5042.8</ele>
        <time>2022-10-24T07:36:25.000Z</time>
      </trkpt>
      <trkpt lat="27.904394" lon="86.834086">
        <ele>5042.8</ele>
        <time>2022-10-24T07:36:28.000Z</time>
      </trkpt>
      <trkpt lat="27.904374" lon="86.834086">
        <ele>5042.6</ele>
        <time>2022-10-24T07:36:32.000Z</time>
      </trkpt>
      <trkpt lat="27.904355" lon="86.834086">
        <ele>5041.8</ele>
        <time>2022-10-24T07:36:36.000Z</time>
      </trkpt>
      <trkpt lat="27.904346" lon="86.834067">
        <ele>5041.2</ele>
        <time>2022-10-24T07:36:39.000Z</time>
      </trkpt>
      <trkpt lat="27.904326" lon="86.834067">
        <ele>5040.6</ele>
        <time>2022-10-24T07:36:47.000Z</time>
      </trkpt>
      <trkpt lat="27.904307" lon="86.834054">
        <ele>5039.8</ele>
        <time>2022-10-24T07:36:51.000Z</time>
      </trkpt>
      <trkpt lat="27.904294" lon="86.834035">
        <ele>5038.6</ele>
        <time>2022-10-24T07:36:55.000Z</time>
      </trkpt>
      <trkpt lat="27.904301" lon="86.834016">
        <ele>5037.2</ele>
        <time>2022-10-24T07:36:59.000Z</time>
      </trkpt>
      <trkpt lat="27.904307" lon="86.833997">
        <ele>5037</ele>
        <time>2022-10-24T07:37:01.000Z</time>
      </trkpt>
      <trkpt lat="27.904317" lon="86.833978">
        <ele>5037</ele>
        <time>2022-10-24T07:37:05.000Z</time>
      </trkpt>
      <trkpt lat="27.904298" lon="86.833971">
        <ele>5036.6</ele>
        <time>2022-10-24T07:37:09.000Z</time>
      </trkpt>
      <trkpt lat="27.904275" lon="86.833958">
        <ele>5036.4</ele>
        <time>2022-10-24T07:37:13.000Z</time>
      </trkpt>
      <trkpt lat="27.904269" lon="86.833939">
        <ele>5035.2</ele>
        <time>2022-10-24T07:37:19.000Z</time>
      </trkpt>
      <trkpt lat="27.904285" lon="86.833914">
        <ele>5034.2</ele>
        <time>2022-10-24T07:37:24.000Z</time>
      </trkpt>
      <trkpt lat="27.904262" lon="86.833907">
        <ele>5032.4</ele>
        <time>2022-10-24T07:37:30.000Z</time>
      </trkpt>
      <trkpt lat="27.904237" lon="86.833914">
        <ele>5031.6</ele>
        <time>2022-10-24T07:37:34.000Z</time>
      </trkpt>
      <trkpt lat="27.904214" lon="86.833901">
        <ele>5030.8</ele>
        <time>2022-10-24T07:37:38.000Z</time>
      </trkpt>
      <trkpt lat="27.904198" lon="86.833888">
        <ele>5029.6</ele>
        <time>2022-10-24T07:37:43.000Z</time>
      </trkpt>
      <trkpt lat="27.904202" lon="86.833862">
        <ele>5028.8</ele>
        <time>2022-10-24T07:37:47.000Z</time>
      </trkpt>
      <trkpt lat="27.904224" lon="86.83383">
        <ele>5028</ele>
        <time>2022-10-24T07:37:51.000Z</time>
      </trkpt>
      <trkpt lat="27.904234" lon="86.833811">
        <ele>5027.4</ele>
        <time>2022-10-24T07:37:57.000Z</time>
      </trkpt>
      <trkpt lat="27.904214" lon="86.833811">
        <ele>5027.4</ele>
        <time>2022-10-24T07:38:01.000Z</time>
      </trkpt>
      <trkpt lat="27.904154" lon="86.83376">
        <ele>5022</ele>
        <time>2022-10-24T07:39:38.000Z</time>
      </trkpt>
      <trkpt lat="27.904138" lon="86.833741">
        <ele>5022</ele>
        <time>2022-10-24T07:39:41.000Z</time>
      </trkpt>
      <trkpt lat="27.904125" lon="86.833709">
        <ele>5020.6</ele>
        <time>2022-10-24T07:39:44.000Z</time>
      </trkpt>
      <trkpt lat="27.904106" lon="86.83369">
        <ele>5019.8</ele>
        <time>2022-10-24T07:39:47.000Z</time>
      </trkpt>
      <trkpt lat="27.90408" lon="86.83369">
        <ele>5019</ele>
        <time>2022-10-24T07:39:51.000Z</time>
      </trkpt>
      <trkpt lat="27.904074" lon="86.833664">
        <ele>5017.6</ele>
        <time>2022-10-24T07:39:54.000Z</time>
      </trkpt>
      <trkpt lat="27.904051" lon="86.833664">
        <ele>5016.6</ele>
        <time>2022-10-24T07:39:58.000Z</time>
      </trkpt>
      <trkpt lat="27.904038" lon="86.833638">
        <ele>5015.4</ele>
        <time>2022-10-24T07:40:03.000Z</time>
      </trkpt>
      <trkpt lat="27.904019" lon="86.833632">
        <ele>5014.4</ele>
        <time>2022-10-24T07:40:08.000Z</time>
      </trkpt>
      <trkpt lat="27.904" lon="86.833619">
        <ele>5014</ele>
        <time>2022-10-24T07:40:11.000Z</time>
      </trkpt>
      <trkpt lat="27.903994" lon="86.8336">
        <ele>5013</ele>
        <time>2022-10-24T07:40:15.000Z</time>
      </trkpt>
      <trkpt lat="27.903971" lon="86.833594">
        <ele>5012.6</ele>
        <time>2022-10-24T07:40:19.000Z</time>
      </trkpt>
      <trkpt lat="27.903962" lon="86.833574">
        <ele>5011.2</ele>
        <time>2022-10-24T07:40:22.000Z</time>
      </trkpt>
      <trkpt lat="27.903962" lon="86.833549">
        <ele>5010.4</ele>
        <time>2022-10-24T07:40:26.000Z</time>
      </trkpt>
      <trkpt lat="27.903939" lon="86.833542">
        <ele>5009.6</ele>
        <time>2022-10-24T07:40:30.000Z</time>
      </trkpt>
      <trkpt lat="27.90392" lon="86.833542">
        <ele>5010.2</ele>
        <time>2022-10-24T07:40:32.000Z</time>
      </trkpt>
      <trkpt lat="27.903901" lon="86.833542">
        <ele>5010.2</ele>
        <time>2022-10-24T07:40:34.000Z</time>
      </trkpt>
      <trkpt lat="27.903882" lon="86.833536">
        <ele>5008.8</ele>
        <time>2022-10-24T07:40:37.000Z</time>
      </trkpt>
      <trkpt lat="27.903862" lon="86.83353">
        <ele>5007.4</ele>
        <time>2022-10-24T07:40:41.000Z</time>
      </trkpt>
      <trkpt lat="27.903843" lon="86.833517">
        <ele>5007</ele>
        <time>2022-10-24T07:40:45.000Z</time>
      </trkpt>
      <trkpt lat="27.903821" lon="86.833517">
        <ele>5006</ele>
        <time>2022-10-24T07:40:49.000Z</time>
      </trkpt>
      <trkpt lat="27.903798" lon="86.833517">
        <ele>5004.6</ele>
        <time>2022-10-24T07:40:53.000Z</time>
      </trkpt>
      <trkpt lat="27.903779" lon="86.83351">
        <ele>5003.8</ele>
        <time>2022-10-24T07:40:57.000Z</time>
      </trkpt>
      <trkpt lat="27.90376" lon="86.833504">
        <ele>5002.8</ele>
        <time>2022-10-24T07:41:01.000Z</time>
      </trkpt>
      <trkpt lat="27.903744" lon="86.833491">
        <ele>5003.2</ele>
        <time>2022-10-24T07:41:05.000Z</time>
      </trkpt>
      <trkpt lat="27.903747" lon="86.833466">
        <ele>5000.4</ele>
        <time>2022-10-24T07:41:08.000Z</time>
      </trkpt>
      <trkpt lat="27.903738" lon="86.83344">
        <ele>4999</ele>
        <time>2022-10-24T07:41:13.000Z</time>
      </trkpt>
      <trkpt lat="27.903718" lon="86.83344">
        <ele>4999.2</ele>
        <time>2022-10-24T07:41:17.000Z</time>
      </trkpt>
      <trkpt lat="27.903699" lon="86.83344">
        <ele>4999</ele>
        <time>2022-10-24T07:41:20.000Z</time>
      </trkpt>
      <trkpt lat="27.90368" lon="86.833434">
        <ele>4996.8</ele>
        <time>2022-10-24T07:41:25.000Z</time>
      </trkpt>
      <trkpt lat="27.903661" lon="86.833427">
        <ele>4996.8</ele>
        <time>2022-10-24T07:41:28.000Z</time>
      </trkpt>
      <trkpt lat="27.903638" lon="86.833434">
        <ele>4996.2</ele>
        <time>2022-10-24T07:41:32.000Z</time>
      </trkpt>
      <trkpt lat="27.903616" lon="86.83344">
        <ele>4995</ele>
        <time>2022-10-24T07:41:36.000Z</time>
      </trkpt>
      <trkpt lat="27.903603" lon="86.833421">
        <ele>4994.2</ele>
        <time>2022-10-24T07:41:39.000Z</time>
      </trkpt>
      <trkpt lat="27.903597" lon="86.833402">
        <ele>4993.2</ele>
        <time>2022-10-24T07:41:43.000Z</time>
      </trkpt>
      <trkpt lat="27.903574" lon="86.833402">
        <ele>4992.6</ele>
        <time>2022-10-24T07:41:47.000Z</time>
      </trkpt>
      <trkpt lat="27.903555" lon="86.833402">
        <ele>4992</ele>
        <time>2022-10-24T07:41:51.000Z</time>
      </trkpt>
      <trkpt lat="27.903536" lon="86.833402">
        <ele>4992</ele>
        <time>2022-10-24T07:41:54.000Z</time>
      </trkpt>
      <trkpt lat="27.903514" lon="86.833402">
        <ele>4991</ele>
        <time>2022-10-24T07:41:58.000Z</time>
      </trkpt>
      <trkpt lat="27.903494" lon="86.833402">
        <ele>4989.2</ele>
        <time>2022-10-24T07:42:02.000Z</time>
      </trkpt>
      <trkpt lat="27.903475" lon="86.833402">
        <ele>4989</ele>
        <time>2022-10-24T07:42:06.000Z</time>
      </trkpt>
      <trkpt lat="27.903459" lon="86.833414">
        <ele>4988.4</ele>
        <time>2022-10-24T07:42:09.000Z</time>
      </trkpt>
      <trkpt lat="27.90344" lon="86.833421">
        <ele>4987.8</ele>
        <time>2022-10-24T07:42:12.000Z</time>
      </trkpt>
      <trkpt lat="27.903418" lon="86.833421">
        <ele>4986.8</ele>
        <time>2022-10-24T07:42:16.000Z</time>
      </trkpt>
      <trkpt lat="27.903395" lon="86.833427">
        <ele>4986.2</ele>
        <time>2022-10-24T07:42:21.000Z</time>
      </trkpt>
      <trkpt lat="27.903376" lon="86.833434">
        <ele>4986.2</ele>
        <time>2022-10-24T07:42:24.000Z</time>
      </trkpt>
      <trkpt lat="27.903363" lon="86.833414">
        <ele>4983.2</ele>
        <time>2022-10-24T07:42:29.000Z</time>
      </trkpt>
      <trkpt lat="27.903363" lon="86.833389">
        <ele>4983.2</ele>
        <time>2022-10-24T07:42:32.000Z</time>
      </trkpt>
      <trkpt lat="27.903354" lon="86.833363">
        <ele>4982.8</ele>
        <time>2022-10-24T07:42:37.000Z</time>
      </trkpt>
      <trkpt lat="27.903344" lon="86.833344">
        <ele>4981.4</ele>
        <time>2022-10-24T07:42:42.000Z</time>
      </trkpt>
      <trkpt lat="27.903325" lon="86.833344">
        <ele>4981.4</ele>
        <time>2022-10-24T07:42:45.000Z</time>
      </trkpt>
      <trkpt lat="27.903306" lon="86.833344">
        <ele>4980.4</ele>
        <time>2022-10-24T07:42:49.000Z</time>
      </trkpt>
      <trkpt lat="27.903286" lon="86.833338">
        <ele>4978.6</ele>
        <time>2022-10-24T07:42:58.000Z</time>
      </trkpt>
      <trkpt lat="27.903277" lon="86.833318">
        <ele>4978</ele>
        <time>2022-10-24T07:43:00.000Z</time>
      </trkpt>
      <trkpt lat="27.903274" lon="86.833293">
        <ele>4977</ele>
        <time>2022-10-24T07:43:03.000Z</time>
      </trkpt>
      <trkpt lat="27.90327" lon="86.833267">
        <ele>4977.2</ele>
        <time>2022-10-24T07:43:05.000Z</time>
      </trkpt>
      <trkpt lat="27.903264" lon="86.833242">
        <ele>4976</ele>
        <time>2022-10-24T07:43:08.000Z</time>
      </trkpt>
      <trkpt lat="27.903245" lon="86.833235">
        <ele>4975.2</ele>
        <time>2022-10-24T07:43:11.000Z</time>
      </trkpt>
      <trkpt lat="27.903226" lon="86.833242">
        <ele>4975.2</ele>
        <time>2022-10-24T07:43:14.000Z</time>
      </trkpt>
      <trkpt lat="27.903206" lon="86.833254">
        <ele>4974.4</ele>
        <time>2022-10-24T07:43:17.000Z</time>
      </trkpt>
      <trkpt lat="27.903187" lon="86.833235">
        <ele>4973.2</ele>
        <time>2022-10-24T07:43:21.000Z</time>
      </trkpt>
      <trkpt lat="27.903165" lon="86.833229">
        <ele>4972</ele>
        <time>2022-10-24T07:43:27.000Z</time>
      </trkpt>
      <trkpt lat="27.903142" lon="86.833235">
        <ele>4971</ele>
        <time>2022-10-24T07:43:32.000Z</time>
      </trkpt>
      <trkpt lat="27.903123" lon="86.833229">
        <ele>4970.4</ele>
        <time>2022-10-24T07:43:38.000Z</time>
      </trkpt>
      <trkpt lat="27.903104" lon="86.833216">
        <ele>4968.6</ele>
        <time>2022-10-24T07:43:45.000Z</time>
      </trkpt>
      <trkpt lat="27.903088" lon="86.833203">
        <ele>4968.4</ele>
        <time>2022-10-24T07:43:48.000Z</time>
      </trkpt>
      <trkpt lat="27.903069" lon="86.833203">
        <ele>4967.8</ele>
        <time>2022-10-24T07:43:51.000Z</time>
      </trkpt>
      <trkpt lat="27.903008" lon="86.833216">
        <ele>4961.6</ele>
        <time>2022-10-24T07:45:04.000Z</time>
      </trkpt>
      <trkpt lat="27.902998" lon="86.833197">
        <ele>4960.8</ele>
        <time>2022-10-24T07:45:05.000Z</time>
      </trkpt>
      <trkpt lat="27.902979" lon="86.83319">
        <ele>4960.8</ele>
        <time>2022-10-24T07:45:07.000Z</time>
      </trkpt>
      <trkpt lat="27.902957" lon="86.83319">
        <ele>4961</ele>
        <time>2022-10-24T07:45:09.000Z</time>
      </trkpt>
      <trkpt lat="27.902938" lon="86.83319">
        <ele>4960.4</ele>
        <time>2022-10-24T07:45:11.000Z</time>
      </trkpt>
      <trkpt lat="27.902915" lon="86.83319">
        <ele>4960.2</ele>
        <time>2022-10-24T07:45:13.000Z</time>
      </trkpt>
      <trkpt lat="27.90289" lon="86.833184">
        <ele>4955.4</ele>
        <time>2022-10-24T07:45:41.000Z</time>
      </trkpt>
      <trkpt lat="27.902867" lon="86.833171">
        <ele>4955.4</ele>
        <time>2022-10-24T07:45:43.000Z</time>
      </trkpt>
      <trkpt lat="27.902848" lon="86.833158">
        <ele>4955.2</ele>
        <time>2022-10-24T07:45:45.000Z</time>
      </trkpt>
      <trkpt lat="27.902822" lon="86.833139">
        <ele>4953.8</ele>
        <time>2022-10-24T07:45:48.000Z</time>
      </trkpt>
      <trkpt lat="27.902816" lon="86.83312">
        <ele>4953.8</ele>
        <time>2022-10-24T07:45:49.000Z</time>
      </trkpt>
      <trkpt lat="27.902784" lon="86.833094">
        <ele>4952.4</ele>
        <time>2022-10-24T07:45:57.000Z</time>
      </trkpt>
      <trkpt lat="27.902765" lon="86.833094">
        <ele>4951.8</ele>
        <time>2022-10-24T07:46:00.000Z</time>
      </trkpt>
      <trkpt lat="27.902742" lon="86.833094">
        <ele>4950.2</ele>
        <time>2022-10-24T07:46:04.000Z</time>
      </trkpt>
      <trkpt lat="27.90272" lon="86.833094">
        <ele>4949.4</ele>
        <time>2022-10-24T07:46:07.000Z</time>
      </trkpt>
      <trkpt lat="27.902698" lon="86.833101">
        <ele>4949</ele>
        <time>2022-10-24T07:46:10.000Z</time>
      </trkpt>
      <trkpt lat="27.902678" lon="86.833107">
        <ele>4948</ele>
        <time>2022-10-24T07:46:13.000Z</time>
      </trkpt>
      <trkpt lat="27.902656" lon="86.833107">
        <ele>4946.6</ele>
        <time>2022-10-24T07:46:17.000Z</time>
      </trkpt>
      <trkpt lat="27.90264" lon="86.833094">
        <ele>4945.2</ele>
        <time>2022-10-24T07:46:22.000Z</time>
      </trkpt>
      <trkpt lat="27.902624" lon="86.833075">
        <ele>4945.4</ele>
        <time>2022-10-24T07:46:25.000Z</time>
      </trkpt>
      <trkpt lat="27.902608" lon="86.833062">
        <ele>4943.6</ele>
        <time>2022-10-24T07:46:29.000Z</time>
      </trkpt>
      <trkpt lat="27.902598" lon="86.833043">
        <ele>4942.2</ele>
        <time>2022-10-24T07:46:32.000Z</time>
      </trkpt>
      <trkpt lat="27.902579" lon="86.83303">
        <ele>4942.6</ele>
        <time>2022-10-24T07:46:36.000Z</time>
      </trkpt>
      <trkpt lat="27.90256" lon="86.833024">
        <ele>4942</ele>
        <time>2022-10-24T07:46:40.000Z</time>
      </trkpt>
      <trkpt lat="27.902554" lon="86.833005">
        <ele>4941.6</ele>
        <time>2022-10-24T07:46:42.000Z</time>
      </trkpt>
      <trkpt lat="27.902544" lon="86.832986">
        <ele>4940.6</ele>
        <time>2022-10-24T07:46:45.000Z</time>
      </trkpt>
      <trkpt lat="27.902528" lon="86.83296">
        <ele>4938.8</ele>
        <time>2022-10-24T07:46:50.000Z</time>
      </trkpt>
      <trkpt lat="27.902509" lon="86.832947">
        <ele>4938</ele>
        <time>2022-10-24T07:46:54.000Z</time>
      </trkpt>
      <trkpt lat="27.90249" lon="86.832934">
        <ele>4937</ele>
        <time>2022-10-24T07:46:58.000Z</time>
      </trkpt>
      <trkpt lat="27.90247" lon="86.832941">
        <ele>4936.8</ele>
        <time>2022-10-24T07:47:01.000Z</time>
      </trkpt>
      <trkpt lat="27.902448" lon="86.832941">
        <ele>4936</ele>
        <time>2022-10-24T07:47:05.000Z</time>
      </trkpt>
      <trkpt lat="27.902429" lon="86.832934">
        <ele>4934.2</ele>
        <time>2022-10-24T07:47:10.000Z</time>
      </trkpt>
      <trkpt lat="27.902422" lon="86.832915">
        <ele>4934.2</ele>
        <time>2022-10-24T07:47:12.000Z</time>
      </trkpt>
      <trkpt lat="27.90241" lon="86.832896">
        <ele>4932.2</ele>
        <time>2022-10-24T07:47:16.000Z</time>
      </trkpt>
      <trkpt lat="27.90239" lon="86.832883">
        <ele>4932.4</ele>
        <time>2022-10-24T07:47:21.000Z</time>
      </trkpt>
      <trkpt lat="27.902374" lon="86.83287">
        <ele>4930.8</ele>
        <time>2022-10-24T07:47:25.000Z</time>
      </trkpt>
      <trkpt lat="27.902368" lon="86.832845">
        <ele>4929.8</ele>
        <time>2022-10-24T07:47:29.000Z</time>
      </trkpt>
      <trkpt lat="27.902355" lon="86.832826">
        <ele>4928.4</ele>
        <time>2022-10-24T07:47:34.000Z</time>
      </trkpt>
      <trkpt lat="27.902336" lon="86.832832">
        <ele>4928.2</ele>
        <time>2022-10-24T07:47:38.000Z</time>
      </trkpt>
      <trkpt lat="27.902317" lon="86.832819">
        <ele>4927.6</ele>
        <time>2022-10-24T07:47:43.000Z</time>
      </trkpt>
      <trkpt lat="27.902294" lon="86.832826">
        <ele>4927.6</ele>
        <time>2022-10-24T07:47:47.000Z</time>
      </trkpt>
      <trkpt lat="27.902282" lon="86.832806">
        <ele>4924.2</ele>
        <time>2022-10-24T07:47:51.000Z</time>
      </trkpt>
      <trkpt lat="27.902269" lon="86.832787">
        <ele>4924.2</ele>
        <time>2022-10-24T07:47:56.000Z</time>
      </trkpt>
      <trkpt lat="27.90225" lon="86.832781">
        <ele>4923.2</ele>
        <time>2022-10-24T07:48:00.000Z</time>
      </trkpt>
      <trkpt lat="27.90223" lon="86.832787">
        <ele>4922.8</ele>
        <time>2022-10-24T07:48:03.000Z</time>
      </trkpt>
      <trkpt lat="27.902221" lon="86.832762">
        <ele>4921.8</ele>
        <time>2022-10-24T07:48:07.000Z</time>
      </trkpt>
      <trkpt lat="27.902214" lon="86.832742">
        <ele>4919.6</ele>
        <time>2022-10-24T07:48:10.000Z</time>
      </trkpt>
      <trkpt lat="27.902192" lon="86.832742">
        <ele>4920.4</ele>
        <time>2022-10-24T07:48:15.000Z</time>
      </trkpt>
      <trkpt lat="27.90217" lon="86.832736">
        <ele>4918.6</ele>
        <time>2022-10-24T07:48:19.000Z</time>
      </trkpt>
      <trkpt lat="27.902157" lon="86.832717">
        <ele>4917.2</ele>
        <time>2022-10-24T07:48:23.000Z</time>
      </trkpt>
      <trkpt lat="27.902134" lon="86.832717">
        <ele>4917.8</ele>
        <time>2022-10-24T07:48:26.000Z</time>
      </trkpt>
      <trkpt lat="27.902112" lon="86.832723">
        <ele>4917.2</ele>
        <time>2022-10-24T07:48:30.000Z</time>
      </trkpt>
      <trkpt lat="27.902093" lon="86.832717">
        <ele>4915.6</ele>
        <time>2022-10-24T07:48:33.000Z</time>
      </trkpt>
      <trkpt lat="27.902083" lon="86.832698">
        <ele>4913.8</ele>
        <time>2022-10-24T07:48:37.000Z</time>
      </trkpt>
      <trkpt lat="27.902083" lon="86.832672">
        <ele>4913</ele>
        <time>2022-10-24T07:48:40.000Z</time>
      </trkpt>
      <trkpt lat="27.902064" lon="86.832666">
        <ele>4913.4</ele>
        <time>2022-10-24T07:48:44.000Z</time>
      </trkpt>
      <trkpt lat="27.902045" lon="86.832659">
        <ele>4912.8</ele>
        <time>2022-10-24T07:48:47.000Z</time>
      </trkpt>
      <trkpt lat="27.902048" lon="86.832634">
        <ele>4911.6</ele>
        <time>2022-10-24T07:48:51.000Z</time>
      </trkpt>
      <trkpt lat="27.902026" lon="86.832634">
        <ele>4911.2</ele>
        <time>2022-10-24T07:48:58.000Z</time>
      </trkpt>
      <trkpt lat="27.902013" lon="86.832608">
        <ele>4908.4</ele>
        <time>2022-10-24T07:49:05.000Z</time>
      </trkpt>
      <trkpt lat="27.901994" lon="86.832602">
        <ele>4907.2</ele>
        <time>2022-10-24T07:49:11.000Z</time>
      </trkpt>
      <trkpt lat="27.901978" lon="86.832621">
        <ele>4907.2</ele>
        <time>2022-10-24T07:49:14.000Z</time>
      </trkpt>
      <trkpt lat="27.901958" lon="86.832621">
        <ele>4906.8</ele>
        <time>2022-10-24T07:49:19.000Z</time>
      </trkpt>
      <trkpt lat="27.901936" lon="86.832627">
        <ele>4906.2</ele>
        <time>2022-10-24T07:49:24.000Z</time>
      </trkpt>
      <trkpt lat="27.901926" lon="86.832608">
        <ele>4904</ele>
        <time>2022-10-24T07:49:28.000Z</time>
      </trkpt>
      <trkpt lat="27.901933" lon="86.832589">
        <ele>4903</ele>
        <time>2022-10-24T07:49:32.000Z</time>
      </trkpt>
      <trkpt lat="27.901933" lon="86.832563">
        <ele>4901.2</ele>
        <time>2022-10-24T07:49:38.000Z</time>
      </trkpt>
      <trkpt lat="27.901926" lon="86.832544">
        <ele>4901.2</ele>
        <time>2022-10-24T07:49:42.000Z</time>
      </trkpt>
      <trkpt lat="27.901923" lon="86.832518">
        <ele>4900.4</ele>
        <time>2022-10-24T07:49:48.000Z</time>
      </trkpt>
      <trkpt lat="27.901926" lon="86.832486">
        <ele>4899.4</ele>
        <time>2022-10-24T07:49:52.000Z</time>
      </trkpt>
      <trkpt lat="27.901914" lon="86.832467">
        <ele>4898.2</ele>
        <time>2022-10-24T07:50:01.000Z</time>
      </trkpt>
      <trkpt lat="27.901904" lon="86.832448">
        <ele>4897.2</ele>
        <time>2022-10-24T07:50:04.000Z</time>
      </trkpt>
      <trkpt lat="27.901885" lon="86.832467">
        <ele>4897.6</ele>
        <time>2022-10-24T07:50:08.000Z</time>
      </trkpt>
      <trkpt lat="27.901862" lon="86.832461">
        <ele>4896</ele>
        <time>2022-10-24T07:50:12.000Z</time>
      </trkpt>
      <trkpt lat="27.90185" lon="86.832442">
        <ele>4895</ele>
        <time>2022-10-24T07:50:16.000Z</time>
      </trkpt>
      <trkpt lat="27.90184" lon="86.832422">
        <ele>4894</ele>
        <time>2022-10-24T07:50:21.000Z</time>
      </trkpt>
      <trkpt lat="27.901821" lon="86.832429">
        <ele>4894</ele>
        <time>2022-10-24T07:50:25.000Z</time>
      </trkpt>
      <trkpt lat="27.901811" lon="86.83241">
        <ele>4893.2</ele>
        <time>2022-10-24T07:50:29.000Z</time>
      </trkpt>
      <trkpt lat="27.901792" lon="86.832403">
        <ele>4893.4</ele>
        <time>2022-10-24T07:50:33.000Z</time>
      </trkpt>
      <trkpt lat="27.90177" lon="86.83239">
        <ele>4892</ele>
        <time>2022-10-24T07:50:38.000Z</time>
      </trkpt>
      <trkpt lat="27.90177" lon="86.832365">
        <ele>4889.6</ele>
        <time>2022-10-24T07:50:42.000Z</time>
      </trkpt>
      <trkpt lat="27.90175" lon="86.832365">
        <ele>4888.6</ele>
        <time>2022-10-24T07:50:47.000Z</time>
      </trkpt>
      <trkpt lat="27.901744" lon="86.832346">
        <ele>4887.8</ele>
        <time>2022-10-24T07:50:52.000Z</time>
      </trkpt>
      <trkpt lat="27.90175" lon="86.83232">
        <ele>4887.2</ele>
        <time>2022-10-24T07:50:55.000Z</time>
      </trkpt>
      <trkpt lat="27.901754" lon="86.832288">
        <ele>4886.2</ele>
        <time>2022-10-24T07:50:59.000Z</time>
      </trkpt>
      <trkpt lat="27.901734" lon="86.832288">
        <ele>4887</ele>
        <time>2022-10-24T07:51:03.000Z</time>
      </trkpt>
      <trkpt lat="27.901718" lon="86.832301">
        <ele>4886.4</ele>
        <time>2022-10-24T07:51:06.000Z</time>
      </trkpt>
      <trkpt lat="27.901699" lon="86.832307">
        <ele>4885.6</ele>
        <time>2022-10-24T07:51:09.000Z</time>
      </trkpt>
      <trkpt lat="27.901674" lon="86.83232">
        <ele>4884.8</ele>
        <time>2022-10-24T07:51:13.000Z</time>
      </trkpt>
      <trkpt lat="27.901661" lon="86.832301">
        <ele>4882.8</ele>
        <time>2022-10-24T07:51:18.000Z</time>
      </trkpt>
      <trkpt lat="27.901664" lon="86.832275">
        <ele>4882</ele>
        <time>2022-10-24T07:51:21.000Z</time>
      </trkpt>
      <trkpt lat="27.901648" lon="86.832262">
        <ele>4881</ele>
        <time>2022-10-24T07:51:29.000Z</time>
      </trkpt>
      <trkpt lat="27.901626" lon="86.832269">
        <ele>4880</ele>
        <time>2022-10-24T07:51:33.000Z</time>
      </trkpt>
      <trkpt lat="27.901613" lon="86.83225">
        <ele>4878.8</ele>
        <time>2022-10-24T07:51:37.000Z</time>
      </trkpt>
      <trkpt lat="27.901594" lon="86.832262">
        <ele>4878.2</ele>
        <time>2022-10-24T07:51:41.000Z</time>
      </trkpt>
      <trkpt lat="27.901571" lon="86.832262">
        <ele>4876.8</ele>
        <time>2022-10-24T07:51:45.000Z</time>
      </trkpt>
      <trkpt lat="27.901568" lon="86.832237">
        <ele>4875.2</ele>
        <time>2022-10-24T07:51:48.000Z</time>
      </trkpt>
      <trkpt lat="27.901565" lon="86.832211">
        <ele>4874.4</ele>
        <time>2022-10-24T07:51:52.000Z</time>
      </trkpt>
      <trkpt lat="27.901558" lon="86.832192">
        <ele>4873.6</ele>
        <time>2022-10-24T07:51:59.000Z</time>
      </trkpt>
      <trkpt lat="27.901539" lon="86.832198">
        <ele>4873</ele>
        <time>2022-10-24T07:52:02.000Z</time>
      </trkpt>
      <trkpt lat="27.90152" lon="86.832211">
        <ele>4872.6</ele>
        <time>2022-10-24T07:52:06.000Z</time>
      </trkpt>
      <trkpt lat="27.901498" lon="86.832211">
        <ele>4872</ele>
        <time>2022-10-24T07:52:10.000Z</time>
      </trkpt>
      <trkpt lat="27.901488" lon="86.832192">
        <ele>4869.8</ele>
        <time>2022-10-24T07:52:15.000Z</time>
      </trkpt>
      <trkpt lat="27.901498" lon="86.832166">
        <ele>4869.4</ele>
        <time>2022-10-24T07:52:18.000Z</time>
      </trkpt>
      <trkpt lat="27.901488" lon="86.832102">
        <ele>4863.2</ele>
        <time>2022-10-24T07:53:09.000Z</time>
      </trkpt>
      <trkpt lat="27.901475" lon="86.832083">
        <ele>4862.6</ele>
        <time>2022-10-24T07:53:11.000Z</time>
      </trkpt>
      <trkpt lat="27.901462" lon="86.832064">
        <ele>4862.6</ele>
        <time>2022-10-24T07:53:13.000Z</time>
      </trkpt>
      <trkpt lat="27.901456" lon="86.832045">
        <ele>4862.4</ele>
        <time>2022-10-24T07:53:14.000Z</time>
      </trkpt>
      <trkpt lat="27.901443" lon="86.832026">
        <ele>4861.8</ele>
        <time>2022-10-24T07:53:16.000Z</time>
      </trkpt>
      <trkpt lat="27.901424" lon="86.832013">
        <ele>4860.6</ele>
        <time>2022-10-24T07:53:18.000Z</time>
      </trkpt>
      <trkpt lat="27.901405" lon="86.832006">
        <ele>4860.6</ele>
        <time>2022-10-24T07:53:21.000Z</time>
      </trkpt>
      <trkpt lat="27.901389" lon="86.831994">
        <ele>4859</ele>
        <time>2022-10-24T07:53:25.000Z</time>
      </trkpt>
      <trkpt lat="27.901386" lon="86.831968">
        <ele>4857.2</ele>
        <time>2022-10-24T07:53:29.000Z</time>
      </trkpt>
      <trkpt lat="27.90137" lon="86.831955">
        <ele>4856.4</ele>
        <time>2022-10-24T07:53:33.000Z</time>
      </trkpt>
      <trkpt lat="27.90135" lon="86.831942">
        <ele>4855.8</ele>
        <time>2022-10-24T07:53:37.000Z</time>
      </trkpt>
      <trkpt lat="27.901344" lon="86.831923">
        <ele>4854.4</ele>
        <time>2022-10-24T07:53:40.000Z</time>
      </trkpt>
      <trkpt lat="27.901347" lon="86.831891">
        <ele>4853.6</ele>
        <time>2022-10-24T07:53:45.000Z</time>
      </trkpt>
      <trkpt lat="27.901341" lon="86.831872">
        <ele>4852.2</ele>
        <time>2022-10-24T07:53:49.000Z</time>
      </trkpt>
      <trkpt lat="27.901334" lon="86.831853">
        <ele>4851.4</ele>
        <time>2022-10-24T07:53:51.000Z</time>
      </trkpt>
      <trkpt lat="27.901328" lon="86.831834">
        <ele>4850.4</ele>
        <time>2022-10-24T07:53:56.000Z</time>
      </trkpt>
      <trkpt lat="27.901309" lon="86.83184">
        <ele>4850</ele>
        <time>2022-10-24T07:53:59.000Z</time>
      </trkpt>
      <trkpt lat="27.901283" lon="86.831846">
        <ele>4849.2</ele>
        <time>2022-10-24T07:54:02.000Z</time>
      </trkpt>
      <trkpt lat="27.901267" lon="86.831834">
        <ele>4848.6</ele>
        <time>2022-10-24T07:54:05.000Z</time>
      </trkpt>
      <trkpt lat="27.901245" lon="86.831827">
        <ele>4847.8</ele>
        <time>2022-10-24T07:54:09.000Z</time>
      </trkpt>
      <trkpt lat="27.901226" lon="86.831821">
        <ele>4846.2</ele>
        <time>2022-10-24T07:54:13.000Z</time>
      </trkpt>
      <trkpt lat="27.901203" lon="86.831821">
        <ele>4846.2</ele>
        <time>2022-10-24T07:54:16.000Z</time>
      </trkpt>
      <trkpt lat="27.901184" lon="86.831821">
        <ele>4845.4</ele>
        <time>2022-10-24T07:54:19.000Z</time>
      </trkpt>
      <trkpt lat="27.901162" lon="86.831827">
        <ele>4845</ele>
        <time>2022-10-24T07:54:22.000Z</time>
      </trkpt>
      <trkpt lat="27.901155" lon="86.831808">
        <ele>4844</ele>
        <time>2022-10-24T07:54:24.000Z</time>
      </trkpt>
      <trkpt lat="27.901136" lon="86.831795">
        <ele>4842.6</ele>
        <time>2022-10-24T07:54:28.000Z</time>
      </trkpt>
      <trkpt lat="27.901117" lon="86.831789">
        <ele>4841.2</ele>
        <time>2022-10-24T07:54:32.000Z</time>
      </trkpt>
      <trkpt lat="27.901101" lon="86.83177">
        <ele>4840.6</ele>
        <time>2022-10-24T07:54:35.000Z</time>
      </trkpt>
      <trkpt lat="27.901098" lon="86.831744">
        <ele>4838.8</ele>
        <time>2022-10-24T07:54:39.000Z</time>
      </trkpt>
      <trkpt lat="27.901104" lon="86.831718">
        <ele>4838.6</ele>
        <time>2022-10-24T07:54:41.000Z</time>
      </trkpt>
      <trkpt lat="27.90111" lon="86.831686">
        <ele>4837.4</ele>
        <time>2022-10-24T07:54:45.000Z</time>
      </trkpt>
      <trkpt lat="27.90112" lon="86.831667">
        <ele>4836.6</ele>
        <time>2022-10-24T07:54:49.000Z</time>
      </trkpt>
      <trkpt lat="27.901126" lon="86.831642">
        <ele>4836.2</ele>
        <time>2022-10-24T07:54:52.000Z</time>
      </trkpt>
      <trkpt lat="27.901126" lon="86.83161">
        <ele>4834</ele>
        <time>2022-10-24T07:54:56.000Z</time>
      </trkpt>
      <trkpt lat="27.90112" lon="86.83159">
        <ele>4833.8</ele>
        <time>2022-10-24T07:54:59.000Z</time>
      </trkpt>
      <trkpt lat="27.901123" lon="86.831565">
        <ele>4832.6</ele>
        <time>2022-10-24T07:55:02.000Z</time>
      </trkpt>
      <trkpt lat="27.90113" lon="86.831533">
        <ele>4831.6</ele>
        <time>2022-10-24T07:55:06.000Z</time>
      </trkpt>
      <trkpt lat="27.901136" lon="86.831507">
        <ele>4831</ele>
        <time>2022-10-24T07:55:09.000Z</time>
      </trkpt>
      <trkpt lat="27.901146" lon="86.831488">
        <ele>4831</ele>
        <time>2022-10-24T07:55:11.000Z</time>
      </trkpt>
      <trkpt lat="27.901146" lon="86.831456">
        <ele>4829</ele>
        <time>2022-10-24T07:55:17.000Z</time>
      </trkpt>
      <trkpt lat="27.901152" lon="86.831437">
        <ele>4828.8</ele>
        <time>2022-10-24T07:55:21.000Z</time>
      </trkpt>
      <trkpt lat="27.901171" lon="86.831392">
        <ele>4827</ele>
        <time>2022-10-24T07:55:27.000Z</time>
      </trkpt>
      <trkpt lat="27.901178" lon="86.831366">
        <ele>4826.8</ele>
        <time>2022-10-24T07:55:30.000Z</time>
      </trkpt>
      <trkpt lat="27.901168" lon="86.831347">
        <ele>4824.8</ele>
        <time>2022-10-24T07:55:34.000Z</time>
      </trkpt>
      <trkpt lat="27.901146" lon="86.831354">
        <ele>4824.6</ele>
        <time>2022-10-24T07:55:37.000Z</time>
      </trkpt>
      <trkpt lat="27.90112" lon="86.831354">
        <ele>4824</ele>
        <time>2022-10-24T07:55:40.000Z</time>
      </trkpt>
      <trkpt lat="27.901101" lon="86.831354">
        <ele>4822.6</ele>
        <time>2022-10-24T07:55:43.000Z</time>
      </trkpt>
      <trkpt lat="27.901082" lon="86.831354">
        <ele>4822.6</ele>
        <time>2022-10-24T07:55:45.000Z</time>
      </trkpt>
      <trkpt lat="27.901062" lon="86.831334">
        <ele>4821</ele>
        <time>2022-10-24T07:55:49.000Z</time>
      </trkpt>
      <trkpt lat="27.90104" lon="86.831334">
        <ele>4820</ele>
        <time>2022-10-24T07:55:52.000Z</time>
      </trkpt>
      <trkpt lat="27.901021" lon="86.831334">
        <ele>4820.2</ele>
        <time>2022-10-24T07:55:54.000Z</time>
      </trkpt>
      <trkpt lat="27.901002" lon="86.831347">
        <ele>4818.8</ele>
        <time>2022-10-24T07:55:57.000Z</time>
      </trkpt>
      <trkpt lat="27.900979" lon="86.831354">
        <ele>4818.2</ele>
        <time>2022-10-24T07:56:00.000Z</time>
      </trkpt>
      <trkpt lat="27.90096" lon="86.831347">
        <ele>4816</ele>
        <time>2022-10-24T07:56:04.000Z</time>
      </trkpt>
      <trkpt lat="27.900947" lon="86.831328">
        <ele>4815.2</ele>
        <time>2022-10-24T07:56:09.000Z</time>
      </trkpt>
      <trkpt lat="27.900922" lon="86.831328">
        <ele>4814.6</ele>
        <time>2022-10-24T07:56:14.000Z</time>
      </trkpt>
      <trkpt lat="27.900899" lon="86.831328">
        <ele>4813.4</ele>
        <time>2022-10-24T07:56:18.000Z</time>
      </trkpt>
      <trkpt lat="27.900883" lon="86.831309">
        <ele>4812</ele>
        <time>2022-10-24T07:56:23.000Z</time>
      </trkpt>
      <trkpt lat="27.90089" lon="86.831283">
        <ele>4810.6</ele>
        <time>2022-10-24T07:56:28.000Z</time>
      </trkpt>
      <trkpt lat="27.90087" lon="86.831296">
        <ele>4803.2</ele>
        <time>2022-10-24T08:04:19.000Z</time>
      </trkpt>
      <trkpt lat="27.900854" lon="86.831309">
        <ele>4802.6</ele>
        <time>2022-10-24T08:04:21.000Z</time>
      </trkpt>
      <trkpt lat="27.900835" lon="86.831328">
        <ele>4802.4</ele>
        <time>2022-10-24T08:04:24.000Z</time>
      </trkpt>
      <trkpt lat="27.900819" lon="86.831347">
        <ele>4803.2</ele>
        <time>2022-10-24T08:04:26.000Z</time>
      </trkpt>
      <trkpt lat="27.9008" lon="86.831347">
        <ele>4801.8</ele>
        <time>2022-10-24T08:04:31.000Z</time>
      </trkpt>
      <trkpt lat="27.900784" lon="86.83136">
        <ele>4802.6</ele>
        <time>2022-10-24T08:04:33.000Z</time>
      </trkpt>
      <trkpt lat="27.900765" lon="86.831366">
        <ele>4801.6</ele>
        <time>2022-10-24T08:04:37.000Z</time>
      </trkpt>
      <trkpt lat="27.900742" lon="86.831373">
        <ele>4801.2</ele>
        <time>2022-10-24T08:04:40.000Z</time>
      </trkpt>
      <trkpt lat="27.900723" lon="86.831386">
        <ele>4800.6</ele>
        <time>2022-10-24T08:04:43.000Z</time>
      </trkpt>
      <trkpt lat="27.900704" lon="86.831392">
        <ele>4799</ele>
        <time>2022-10-24T08:04:46.000Z</time>
      </trkpt>
      <trkpt lat="27.900694" lon="86.831373">
        <ele>4797.2</ele>
        <time>2022-10-24T08:04:49.000Z</time>
      </trkpt>
      <trkpt lat="27.900694" lon="86.831347">
        <ele>4797</ele>
        <time>2022-10-24T08:04:55.000Z</time>
      </trkpt>
      <trkpt lat="27.900675" lon="86.831347">
        <ele>4794.6</ele>
        <time>2022-10-24T08:05:06.000Z</time>
      </trkpt>
      <trkpt lat="27.900659" lon="86.83136">
        <ele>4793.8</ele>
        <time>2022-10-24T08:05:10.000Z</time>
      </trkpt>
      <trkpt lat="27.900624" lon="86.831386">
        <ele>4792.6</ele>
        <time>2022-10-24T08:05:18.000Z</time>
      </trkpt>
      <trkpt lat="27.900618" lon="86.831366">
        <ele>4791.8</ele>
        <time>2022-10-24T08:05:21.000Z</time>
      </trkpt>
      <trkpt lat="27.900611" lon="86.831347">
        <ele>4789.8</ele>
        <time>2022-10-24T08:05:27.000Z</time>
      </trkpt>
      <trkpt lat="27.900589" lon="86.831347">
        <ele>4789</ele>
        <time>2022-10-24T08:05:33.000Z</time>
      </trkpt>
      <trkpt lat="27.90057" lon="86.83136">
        <ele>4788.2</ele>
        <time>2022-10-24T08:05:36.000Z</time>
      </trkpt>
      <trkpt lat="27.900554" lon="86.831347">
        <ele>4787.6</ele>
        <time>2022-10-24T08:05:39.000Z</time>
      </trkpt>
      <trkpt lat="27.900557" lon="86.831322">
        <ele>4787.4</ele>
        <time>2022-10-24T08:05:41.000Z</time>
      </trkpt>
      <trkpt lat="27.90056" lon="86.831296">
        <ele>4786.8</ele>
        <time>2022-10-24T08:05:44.000Z</time>
      </trkpt>
      <trkpt lat="27.90057" lon="86.83127">
        <ele>4786.6</ele>
        <time>2022-10-24T08:05:48.000Z</time>
      </trkpt>
      <trkpt lat="27.900579" lon="86.831251">
        <ele>4786.2</ele>
        <time>2022-10-24T08:05:51.000Z</time>
      </trkpt>
      <trkpt lat="27.900563" lon="86.831238">
        <ele>4784.2</ele>
        <time>2022-10-24T08:05:56.000Z</time>
      </trkpt>
      <trkpt lat="27.900554" lon="86.831213">
        <ele>4783.4</ele>
        <time>2022-10-24T08:06:01.000Z</time>
      </trkpt>
      <trkpt lat="27.90055" lon="86.831187">
        <ele>4782.4</ele>
        <time>2022-10-24T08:06:06.000Z</time>
      </trkpt>
      <trkpt lat="27.900554" lon="86.831162">
        <ele>4781.6</ele>
        <time>2022-10-24T08:06:09.000Z</time>
      </trkpt>
      <trkpt lat="27.90056" lon="86.831136">
        <ele>4781.2</ele>
        <time>2022-10-24T08:06:12.000Z</time>
      </trkpt>
      <trkpt lat="27.900563" lon="86.83111">
        <ele>4781</ele>
        <time>2022-10-24T08:06:17.000Z</time>
      </trkpt>
      <trkpt lat="27.90057" lon="86.831085">
        <ele>4779.8</ele>
        <time>2022-10-24T08:06:20.000Z</time>
      </trkpt>
      <trkpt lat="27.900586" lon="86.831059">
        <ele>4778.2</ele>
        <time>2022-10-24T08:06:32.000Z</time>
      </trkpt>
      <trkpt lat="27.900592" lon="86.83104">
        <ele>4778.2</ele>
        <time>2022-10-24T08:06:36.000Z</time>
      </trkpt>
      <trkpt lat="27.900602" lon="86.831014">
        <ele>4777.6</ele>
        <time>2022-10-24T08:06:39.000Z</time>
      </trkpt>
      <trkpt lat="27.900611" lon="86.830976">
        <ele>4777</ele>
        <time>2022-10-24T08:06:44.000Z</time>
      </trkpt>
      <trkpt lat="27.900618" lon="86.83095">
        <ele>4775.2</ele>
        <time>2022-10-24T08:06:49.000Z</time>
      </trkpt>
      <trkpt lat="27.900621" lon="86.830925">
        <ele>4774.8</ele>
        <time>2022-10-24T08:06:53.000Z</time>
      </trkpt>
      <trkpt lat="27.900624" lon="86.830899">
        <ele>4774.6</ele>
        <time>2022-10-24T08:06:56.000Z</time>
      </trkpt>
      <trkpt lat="27.90063" lon="86.83088">
        <ele>4774.4</ele>
        <time>2022-10-24T08:06:59.000Z</time>
      </trkpt>
      <trkpt lat="27.900634" lon="86.830854">
        <ele>4773.8</ele>
        <time>2022-10-24T08:07:02.000Z</time>
      </trkpt>
      <trkpt lat="27.90064" lon="86.830835">
        <ele>4773</ele>
        <time>2022-10-24T08:07:05.000Z</time>
      </trkpt>
      <trkpt lat="27.900621" lon="86.830835">
        <ele>4770.2</ele>
        <time>2022-10-24T08:07:09.000Z</time>
      </trkpt>
      <trkpt lat="27.900605" lon="86.830848">
        <ele>4770</ele>
        <time>2022-10-24T08:07:12.000Z</time>
      </trkpt>
      <trkpt lat="27.900586" lon="86.830854">
        <ele>4769.6</ele>
        <time>2022-10-24T08:07:16.000Z</time>
      </trkpt>
      <trkpt lat="27.900563" lon="86.830874">
        <ele>4769</ele>
        <time>2022-10-24T08:07:20.000Z</time>
      </trkpt>
      <trkpt lat="27.900541" lon="86.830874">
        <ele>4767.2</ele>
        <time>2022-10-24T08:07:23.000Z</time>
      </trkpt>
      <trkpt lat="27.900531" lon="86.830854">
        <ele>4766.6</ele>
        <time>2022-10-24T08:07:26.000Z</time>
      </trkpt>
      <trkpt lat="27.900515" lon="86.830842">
        <ele>4766</ele>
        <time>2022-10-24T08:07:31.000Z</time>
      </trkpt>
      <trkpt lat="27.900496" lon="86.830854">
        <ele>4763.6</ele>
        <time>2022-10-24T08:07:35.000Z</time>
      </trkpt>
      <trkpt lat="27.900477" lon="86.830842">
        <ele>4763.2</ele>
        <time>2022-10-24T08:07:38.000Z</time>
      </trkpt>
      <trkpt lat="27.900477" lon="86.830816">
        <ele>4764.2</ele>
        <time>2022-10-24T08:07:41.000Z</time>
      </trkpt>
      <trkpt lat="27.900474" lon="86.830778">
        <ele>4762.8</ele>
        <time>2022-10-24T08:07:53.000Z</time>
      </trkpt>
      <trkpt lat="27.900477" lon="86.830752">
        <ele>4762</ele>
        <time>2022-10-24T08:07:58.000Z</time>
      </trkpt>
      <trkpt lat="27.900474" lon="86.830688">
        <ele>4756.6</ele>
        <time>2022-10-24T08:09:14.000Z</time>
      </trkpt>
      <trkpt lat="27.900451" lon="86.830694">
        <ele>4756.6</ele>
        <time>2022-10-24T08:09:16.000Z</time>
      </trkpt>
      <trkpt lat="27.900426" lon="86.830694">
        <ele>4756</ele>
        <time>2022-10-24T08:09:18.000Z</time>
      </trkpt>
      <trkpt lat="27.900406" lon="86.830694">
        <ele>4755.4</ele>
        <time>2022-10-24T08:09:20.000Z</time>
      </trkpt>
      <trkpt lat="27.900384" lon="86.830694">
        <ele>4755</ele>
        <time>2022-10-24T08:09:22.000Z</time>
      </trkpt>
      <trkpt lat="27.900365" lon="86.830701">
        <ele>4754.6</ele>
        <time>2022-10-24T08:09:24.000Z</time>
      </trkpt>
      <trkpt lat="27.900349" lon="86.830688">
        <ele>4753.2</ele>
        <time>2022-10-24T08:09:29.000Z</time>
      </trkpt>
      <trkpt lat="27.900342" lon="86.830662">
        <ele>4752.8</ele>
        <time>2022-10-24T08:09:32.000Z</time>
      </trkpt>
      <trkpt lat="27.900342" lon="86.830637">
        <ele>4750.8</ele>
        <time>2022-10-24T08:09:38.000Z</time>
      </trkpt>
      <trkpt lat="27.900349" lon="86.830611">
        <ele>4750.8</ele>
        <time>2022-10-24T08:09:41.000Z</time>
      </trkpt>
      <trkpt lat="27.90033" lon="86.830605">
        <ele>4749</ele>
        <time>2022-10-24T08:09:48.000Z</time>
      </trkpt>
      <trkpt lat="27.900314" lon="86.830592">
        <ele>4747.2</ele>
        <time>2022-10-24T08:09:52.000Z</time>
      </trkpt>
      <trkpt lat="27.900307" lon="86.830573">
        <ele>4747.8</ele>
        <time>2022-10-24T08:09:56.000Z</time>
      </trkpt>
      <trkpt lat="27.900304" lon="86.830541">
        <ele>4747</ele>
        <time>2022-10-24T08:10:01.000Z</time>
      </trkpt>
      <trkpt lat="27.900298" lon="86.830522">
        <ele>4745.4</ele>
        <time>2022-10-24T08:10:04.000Z</time>
      </trkpt>
      <trkpt lat="27.900304" lon="86.830502">
        <ele>4745</ele>
        <time>2022-10-24T08:10:06.000Z</time>
      </trkpt>
      <trkpt lat="27.900304" lon="86.830477">
        <ele>4745</ele>
        <time>2022-10-24T08:10:09.000Z</time>
      </trkpt>
      <trkpt lat="27.900304" lon="86.830451">
        <ele>4744</ele>
        <time>2022-10-24T08:10:12.000Z</time>
      </trkpt>
      <trkpt lat="27.900294" lon="86.830432">
        <ele>4740.8</ele>
        <time>2022-10-24T08:10:18.000Z</time>
      </trkpt>
      <trkpt lat="27.900275" lon="86.830419">
        <ele>4740.2</ele>
        <time>2022-10-24T08:10:22.000Z</time>
      </trkpt>
      <trkpt lat="27.900259" lon="86.830432">
        <ele>4739.2</ele>
        <time>2022-10-24T08:10:25.000Z</time>
      </trkpt>
      <trkpt lat="27.900234" lon="86.830438">
        <ele>4739.4</ele>
        <time>2022-10-24T08:10:29.000Z</time>
      </trkpt>
      <trkpt lat="27.900227" lon="86.830419">
        <ele>4737.6</ele>
        <time>2022-10-24T08:10:33.000Z</time>
      </trkpt>
      <trkpt lat="27.900208" lon="86.830438">
        <ele>4737.6</ele>
        <time>2022-10-24T08:10:36.000Z</time>
      </trkpt>
      <trkpt lat="27.900189" lon="86.830458">
        <ele>4736.4</ele>
        <time>2022-10-24T08:10:41.000Z</time>
      </trkpt>
      <trkpt lat="27.900173" lon="86.830445">
        <ele>4736.4</ele>
        <time>2022-10-24T08:10:46.000Z</time>
      </trkpt>
      <trkpt lat="27.900166" lon="86.830419">
        <ele>4734.2</ele>
        <time>2022-10-24T08:10:50.000Z</time>
      </trkpt>
      <trkpt lat="27.90015" lon="86.830432">
        <ele>4733.2</ele>
        <time>2022-10-24T08:10:53.000Z</time>
      </trkpt>
      <trkpt lat="27.900128" lon="86.830438">
        <ele>4732.8</ele>
        <time>2022-10-24T08:10:57.000Z</time>
      </trkpt>
      <trkpt lat="27.900122" lon="86.830413">
        <ele>4731.6</ele>
        <time>2022-10-24T08:11:00.000Z</time>
      </trkpt>
      <trkpt lat="27.900115" lon="86.830394">
        <ele>4731.2</ele>
        <time>2022-10-24T08:11:04.000Z</time>
      </trkpt>
      <trkpt lat="27.900115" lon="86.830368">
        <ele>4731</ele>
        <time>2022-10-24T08:11:07.000Z</time>
      </trkpt>
      <trkpt lat="27.900102" lon="86.830342">
        <ele>4729.6</ele>
        <time>2022-10-24T08:11:11.000Z</time>
      </trkpt>
      <trkpt lat="27.900086" lon="86.830323">
        <ele>4728.6</ele>
        <time>2022-10-24T08:11:15.000Z</time>
      </trkpt>
      <trkpt lat="27.900074" lon="86.830304">
        <ele>4727.4</ele>
        <time>2022-10-24T08:11:17.000Z</time>
      </trkpt>
      <trkpt lat="27.900064" lon="86.830285">
        <ele>4726.4</ele>
        <time>2022-10-24T08:11:20.000Z</time>
      </trkpt>
      <trkpt lat="27.900045" lon="86.830285">
        <ele>4726.2</ele>
        <time>2022-10-24T08:11:24.000Z</time>
      </trkpt>
      <trkpt lat="27.900026" lon="86.830285">
        <ele>4725</ele>
        <time>2022-10-24T08:11:27.000Z</time>
      </trkpt>
      <trkpt lat="27.90001" lon="86.830272">
        <ele>4723.6</ele>
        <time>2022-10-24T08:11:31.000Z</time>
      </trkpt>
      <trkpt lat="27.900006" lon="86.830246">
        <ele>4723.6</ele>
        <time>2022-10-24T08:11:34.000Z</time>
      </trkpt>
      <trkpt lat="27.900006" lon="86.830221">
        <ele>4723.4</ele>
        <time>2022-10-24T08:11:37.000Z</time>
      </trkpt>
      <trkpt lat="27.9" lon="86.830202">
        <ele>4722.4</ele>
        <time>2022-10-24T08:11:41.000Z</time>
      </trkpt>
      <trkpt lat="27.899978" lon="86.830202">
        <ele>4721</ele>
        <time>2022-10-24T08:11:44.000Z</time>
      </trkpt>
      <trkpt lat="27.899955" lon="86.830202">
        <ele>4720.4</ele>
        <time>2022-10-24T08:11:47.000Z</time>
      </trkpt>
      <trkpt lat="27.899936" lon="86.830202">
        <ele>4719</ele>
        <time>2022-10-24T08:11:50.000Z</time>
      </trkpt>
      <trkpt lat="27.899923" lon="86.830182">
        <ele>4718.6</ele>
        <time>2022-10-24T08:11:52.000Z</time>
      </trkpt>
      <trkpt lat="27.899907" lon="86.83017">
        <ele>4719</ele>
        <time>2022-10-24T08:11:55.000Z</time>
      </trkpt>
      <trkpt lat="27.899907" lon="86.830144">
        <ele>4718.2</ele>
        <time>2022-10-24T08:11:57.000Z</time>
      </trkpt>
      <trkpt lat="27.899914" lon="86.830125">
        <ele>4718.4</ele>
        <time>2022-10-24T08:12:00.000Z</time>
      </trkpt>
      <trkpt lat="27.899907" lon="86.830106">
        <ele>4717.4</ele>
        <time>2022-10-24T08:12:03.000Z</time>
      </trkpt>
      <trkpt lat="27.899907" lon="86.83008">
        <ele>4716.4</ele>
        <time>2022-10-24T08:12:07.000Z</time>
      </trkpt>
      <trkpt lat="27.899907" lon="86.830054">
        <ele>4714.6</ele>
        <time>2022-10-24T08:12:11.000Z</time>
      </trkpt>
      <trkpt lat="27.899907" lon="86.830022">
        <ele>4714.6</ele>
        <time>2022-10-24T08:12:15.000Z</time>
      </trkpt>
      <trkpt lat="27.899885" lon="86.830022">
        <ele>4713.8</ele>
        <time>2022-10-24T08:12:19.000Z</time>
      </trkpt>
      <trkpt lat="27.899866" lon="86.830022">
        <ele>4713</ele>
        <time>2022-10-24T08:12:22.000Z</time>
      </trkpt>
      <trkpt lat="27.89984" lon="86.830022">
        <ele>4712</ele>
        <time>2022-10-24T08:12:26.000Z</time>
      </trkpt>
      <trkpt lat="27.899824" lon="86.830042">
        <ele>4710.4</ele>
        <time>2022-10-24T08:12:30.000Z</time>
      </trkpt>
      <trkpt lat="27.899798" lon="86.830048">
        <ele>4709.8</ele>
        <time>2022-10-24T08:12:35.000Z</time>
      </trkpt>
      <trkpt lat="27.899779" lon="86.830022">
        <ele>4709</ele>
        <time>2022-10-24T08:12:40.000Z</time>
      </trkpt>
      <trkpt lat="27.899776" lon="86.829997">
        <ele>4708.2</ele>
        <time>2022-10-24T08:12:44.000Z</time>
      </trkpt>
      <trkpt lat="27.899779" lon="86.829971">
        <ele>4708.2</ele>
        <time>2022-10-24T08:12:47.000Z</time>
      </trkpt>
      <trkpt lat="27.899776" lon="86.829946">
        <ele>4706.6</ele>
        <time>2022-10-24T08:12:51.000Z</time>
      </trkpt>
      <trkpt lat="27.899782" lon="86.829926">
        <ele>4705.8</ele>
        <time>2022-10-24T08:12:54.000Z</time>
      </trkpt>
      <trkpt lat="27.899773" lon="86.829907">
        <ele>4705.4</ele>
        <time>2022-10-24T08:12:58.000Z</time>
      </trkpt>
      <trkpt lat="27.899757" lon="86.82992">
        <ele>4704.2</ele>
        <time>2022-10-24T08:13:01.000Z</time>
      </trkpt>
      <trkpt lat="27.899738" lon="86.829926">
        <ele>4704.2</ele>
        <time>2022-10-24T08:13:06.000Z</time>
      </trkpt>
      <trkpt lat="27.899722" lon="86.829939">
        <ele>4703.8</ele>
        <time>2022-10-24T08:13:09.000Z</time>
      </trkpt>
      <trkpt lat="27.899702" lon="86.829946">
        <ele>4703</ele>
        <time>2022-10-24T08:13:13.000Z</time>
      </trkpt>
      <trkpt lat="27.899693" lon="86.829965">
        <ele>4702.8</ele>
        <time>2022-10-24T08:13:15.000Z</time>
      </trkpt>
      <trkpt lat="27.89968" lon="86.829946">
        <ele>4702</ele>
        <time>2022-10-24T08:13:18.000Z</time>
      </trkpt>
      <trkpt lat="27.89967" lon="86.829926">
        <ele>4702</ele>
        <time>2022-10-24T08:13:22.000Z</time>
      </trkpt>
      <trkpt lat="27.899667" lon="86.829901">
        <ele>4700.4</ele>
        <time>2022-10-24T08:13:26.000Z</time>
      </trkpt>
      <trkpt lat="27.899667" lon="86.829875">
        <ele>4697</ele>
        <time>2022-10-24T08:13:43.000Z</time>
      </trkpt>
      <trkpt lat="27.899667" lon="86.82985">
        <ele>4696.2</ele>
        <time>2022-10-24T08:13:45.000Z</time>
      </trkpt>
      <trkpt lat="27.899674" lon="86.829824">
        <ele>4696.8</ele>
        <time>2022-10-24T08:13:47.000Z</time>
      </trkpt>
      <trkpt lat="27.899638" lon="86.829786">
        <ele>4693</ele>
        <time>2022-10-24T08:16:01.000Z</time>
      </trkpt>
      <trkpt lat="27.899613" lon="86.829786">
        <ele>4692.2</ele>
        <time>2022-10-24T08:16:03.000Z</time>
      </trkpt>
      <trkpt lat="27.899587" lon="86.829779">
        <ele>4690.8</ele>
        <time>2022-10-24T08:16:06.000Z</time>
      </trkpt>
      <trkpt lat="27.899565" lon="86.829779">
        <ele>4690.8</ele>
        <time>2022-10-24T08:16:09.000Z</time>
      </trkpt>
      <trkpt lat="27.899542" lon="86.829786">
        <ele>4690.6</ele>
        <time>2022-10-24T08:16:12.000Z</time>
      </trkpt>
      <trkpt lat="27.899526" lon="86.829798">
        <ele>4690.4</ele>
        <time>2022-10-24T08:16:14.000Z</time>
      </trkpt>
      <trkpt lat="27.899514" lon="86.829779">
        <ele>4689.2</ele>
        <time>2022-10-24T08:16:17.000Z</time>
      </trkpt>
      <trkpt lat="27.899507" lon="86.829747">
        <ele>4688.2</ele>
        <time>2022-10-24T08:16:21.000Z</time>
      </trkpt>
      <trkpt lat="27.899494" lon="86.829722">
        <ele>4687.6</ele>
        <time>2022-10-24T08:16:25.000Z</time>
      </trkpt>
      <trkpt lat="27.899494" lon="86.829696">
        <ele>4687.4</ele>
        <time>2022-10-24T08:16:28.000Z</time>
      </trkpt>
      <trkpt lat="27.899504" lon="86.829677">
        <ele>4683</ele>
        <time>2022-10-24T08:17:07.000Z</time>
      </trkpt>
      <trkpt lat="27.899491" lon="86.829658">
        <ele>4682.6</ele>
        <time>2022-10-24T08:17:09.000Z</time>
      </trkpt>
      <trkpt lat="27.899475" lon="86.829638">
        <ele>4681.8</ele>
        <time>2022-10-24T08:17:11.000Z</time>
      </trkpt>
      <trkpt lat="27.899459" lon="86.829619">
        <ele>4681.2</ele>
        <time>2022-10-24T08:17:13.000Z</time>
      </trkpt>
      <trkpt lat="27.89944" lon="86.8296">
        <ele>4680.6</ele>
        <time>2022-10-24T08:17:16.000Z</time>
      </trkpt>
      <trkpt lat="27.899418" lon="86.829606">
        <ele>4680.6</ele>
        <time>2022-10-24T08:17:19.000Z</time>
      </trkpt>
      <trkpt lat="27.899414" lon="86.829581">
        <ele>4679.4</ele>
        <time>2022-10-24T08:17:22.000Z</time>
      </trkpt>
      <trkpt lat="27.899402" lon="86.829562">
        <ele>4677.8</ele>
        <time>2022-10-24T08:17:28.000Z</time>
      </trkpt>
      <trkpt lat="27.899405" lon="86.829536">
        <ele>4677.8</ele>
        <time>2022-10-24T08:17:30.000Z</time>
      </trkpt>
      <trkpt lat="27.899386" lon="86.829536">
        <ele>4676.4</ele>
        <time>2022-10-24T08:17:38.000Z</time>
      </trkpt>
      <trkpt lat="27.899363" lon="86.829542">
        <ele>4675.4</ele>
        <time>2022-10-24T08:17:41.000Z</time>
      </trkpt>
      <trkpt lat="27.89935" lon="86.829562">
        <ele>4674</ele>
        <time>2022-10-24T08:17:44.000Z</time>
      </trkpt>
      <trkpt lat="27.899318" lon="86.829568">
        <ele>4671.6</ele>
        <time>2022-10-24T08:18:52.000Z</time>
      </trkpt>
      <trkpt lat="27.89929" lon="86.829574">
        <ele>4671</ele>
        <time>2022-10-24T08:18:54.000Z</time>
      </trkpt>
      <trkpt lat="27.899251" lon="86.829587">
        <ele>4672</ele>
        <time>2022-10-24T08:18:56.000Z</time>
      </trkpt>
      <trkpt lat="27.899232" lon="86.829587">
        <ele>4672</ele>
        <time>2022-10-24T08:18:57.000Z</time>
      </trkpt>
      <trkpt lat="27.899203" lon="86.829587">
        <ele>4670.8</ele>
        <time>2022-10-24T08:18:59.000Z</time>
      </trkpt>
      <trkpt lat="27.899152" lon="86.829542">
        <ele>4664.8</ele>
        <time>2022-10-24T08:20:06.000Z</time>
      </trkpt>
      <trkpt lat="27.89911" lon="86.829536">
        <ele>4665.2</ele>
        <time>2022-10-24T08:20:30.000Z</time>
      </trkpt>
      <trkpt lat="27.899091" lon="86.829536">
        <ele>4664.8</ele>
        <time>2022-10-24T08:20:32.000Z</time>
      </trkpt>
      <trkpt lat="27.899072" lon="86.829536">
        <ele>4664.4</ele>
        <time>2022-10-24T08:20:34.000Z</time>
      </trkpt>
      <trkpt lat="27.899053" lon="86.82953">
        <ele>4664.4</ele>
        <time>2022-10-24T08:20:36.000Z</time>
      </trkpt>
      <trkpt lat="27.899034" lon="86.829542">
        <ele>4664.8</ele>
        <time>2022-10-24T08:20:41.000Z</time>
      </trkpt>
      <trkpt lat="27.899008" lon="86.829549">
        <ele>4664.4</ele>
        <time>2022-10-24T08:20:45.000Z</time>
      </trkpt>
      <trkpt lat="27.898992" lon="86.82953">
        <ele>4663.2</ele>
        <time>2022-10-24T08:20:49.000Z</time>
      </trkpt>
      <trkpt lat="27.898973" lon="86.829523">
        <ele>4663.2</ele>
        <time>2022-10-24T08:20:52.000Z</time>
      </trkpt>
      <trkpt lat="27.898957" lon="86.82951">
        <ele>4662.6</ele>
        <time>2022-10-24T08:20:54.000Z</time>
      </trkpt>
      <trkpt lat="27.898938" lon="86.829491">
        <ele>4661.6</ele>
        <time>2022-10-24T08:20:57.000Z</time>
      </trkpt>
      <trkpt lat="27.898922" lon="86.829466">
        <ele>4660.6</ele>
        <time>2022-10-24T08:21:00.000Z</time>
      </trkpt>
      <trkpt lat="27.898906" lon="86.829453">
        <ele>4659.8</ele>
        <time>2022-10-24T08:21:03.000Z</time>
      </trkpt>
      <trkpt lat="27.898886" lon="86.829453">
        <ele>4659.2</ele>
        <time>2022-10-24T08:21:06.000Z</time>
      </trkpt>
      <trkpt lat="27.898864" lon="86.829446">
        <ele>4659</ele>
        <time>2022-10-24T08:21:10.000Z</time>
      </trkpt>
      <trkpt lat="27.898845" lon="86.82944">
        <ele>4659.4</ele>
        <time>2022-10-24T08:21:13.000Z</time>
      </trkpt>
      <trkpt lat="27.898826" lon="86.829446">
        <ele>4658.8</ele>
        <time>2022-10-24T08:21:15.000Z</time>
      </trkpt>
      <trkpt lat="27.898806" lon="86.829446">
        <ele>4658.2</ele>
        <time>2022-10-24T08:21:17.000Z</time>
      </trkpt>
      <trkpt lat="27.898787" lon="86.829459">
        <ele>4657.4</ele>
        <time>2022-10-24T08:21:20.000Z</time>
      </trkpt>
      <trkpt lat="27.898771" lon="86.82944">
        <ele>4657.4</ele>
        <time>2022-10-24T08:21:25.000Z</time>
      </trkpt>
      <trkpt lat="27.898749" lon="86.829427">
        <ele>4655.8</ele>
        <time>2022-10-24T08:21:28.000Z</time>
      </trkpt>
      <trkpt lat="27.898723" lon="86.829421">
        <ele>4655.4</ele>
        <time>2022-10-24T08:21:31.000Z</time>
      </trkpt>
      <trkpt lat="27.898707" lon="86.829408">
        <ele>4655.4</ele>
        <time>2022-10-24T08:21:33.000Z</time>
      </trkpt>
      <trkpt lat="27.898694" lon="86.829389">
        <ele>4654</ele>
        <time>2022-10-24T08:21:36.000Z</time>
      </trkpt>
      <trkpt lat="27.898675" lon="86.829389">
        <ele>4653</ele>
        <time>2022-10-24T08:21:38.000Z</time>
      </trkpt>
      <trkpt lat="27.89865" lon="86.829389">
        <ele>4653</ele>
        <time>2022-10-24T08:21:41.000Z</time>
      </trkpt>
      <trkpt lat="27.89863" lon="86.829389">
        <ele>4652.4</ele>
        <time>2022-10-24T08:21:44.000Z</time>
      </trkpt>
      <trkpt lat="27.898608" lon="86.829389">
        <ele>4651.8</ele>
        <time>2022-10-24T08:21:47.000Z</time>
      </trkpt>
      <trkpt lat="27.898586" lon="86.829389">
        <ele>4651</ele>
        <time>2022-10-24T08:21:50.000Z</time>
      </trkpt>
      <trkpt lat="27.89856" lon="86.829376">
        <ele>4650.2</ele>
        <time>2022-10-24T08:21:54.000Z</time>
      </trkpt>
      <trkpt lat="27.898541" lon="86.829376">
        <ele>4649.4</ele>
        <time>2022-10-24T08:21:57.000Z</time>
      </trkpt>
      <trkpt lat="27.898518" lon="86.829382">
        <ele>4648.4</ele>
        <time>2022-10-24T08:21:59.000Z</time>
      </trkpt>
      <trkpt lat="27.898496" lon="86.829382">
        <ele>4647.6</ele>
        <time>2022-10-24T08:22:02.000Z</time>
      </trkpt>
      <trkpt lat="27.898477" lon="86.829376">
        <ele>4647.4</ele>
        <time>2022-10-24T08:22:04.000Z</time>
      </trkpt>
      <trkpt lat="27.898454" lon="86.829376">
        <ele>4648.2</ele>
        <time>2022-10-24T08:22:07.000Z</time>
      </trkpt>
      <trkpt lat="27.898432" lon="86.829363">
        <ele>4646.6</ele>
        <time>2022-10-24T08:22:12.000Z</time>
      </trkpt>
      <trkpt lat="27.898406" lon="86.829363">
        <ele>4646</ele>
        <time>2022-10-24T08:22:15.000Z</time>
      </trkpt>
      <trkpt lat="27.898387" lon="86.829363">
        <ele>4646</ele>
        <time>2022-10-24T08:22:17.000Z</time>
      </trkpt>
      <trkpt lat="27.898368" lon="86.829363">
        <ele>4646.6</ele>
        <time>2022-10-24T08:22:19.000Z</time>
      </trkpt>
      <trkpt lat="27.898346" lon="86.82935">
        <ele>4645.2</ele>
        <time>2022-10-24T08:22:22.000Z</time>
      </trkpt>
      <trkpt lat="27.898326" lon="86.82935">
        <ele>4644.6</ele>
        <time>2022-10-24T08:22:25.000Z</time>
      </trkpt>
      <trkpt lat="27.898307" lon="86.82935">
        <ele>4644.4</ele>
        <time>2022-10-24T08:22:28.000Z</time>
      </trkpt>
      <trkpt lat="27.898291" lon="86.829338">
        <ele>4645</ele>
        <time>2022-10-24T08:22:31.000Z</time>
      </trkpt>
      <trkpt lat="27.898272" lon="86.829331">
        <ele>4642</ele>
        <time>2022-10-24T08:22:36.000Z</time>
      </trkpt>
      <trkpt lat="27.898253" lon="86.829331">
        <ele>4641.8</ele>
        <time>2022-10-24T08:22:39.000Z</time>
      </trkpt>
      <trkpt lat="27.89823" lon="86.829331">
        <ele>4641.2</ele>
        <time>2022-10-24T08:22:42.000Z</time>
      </trkpt>
      <trkpt lat="27.898208" lon="86.829338">
        <ele>4641.4</ele>
        <time>2022-10-24T08:22:45.000Z</time>
      </trkpt>
      <trkpt lat="27.898186" lon="86.829331">
        <ele>4640.2</ele>
        <time>2022-10-24T08:22:49.000Z</time>
      </trkpt>
      <trkpt lat="27.898163" lon="86.829331">
        <ele>4639.4</ele>
        <time>2022-10-24T08:22:52.000Z</time>
      </trkpt>
      <trkpt lat="27.898144" lon="86.829331">
        <ele>4638.2</ele>
        <time>2022-10-24T08:22:55.000Z</time>
      </trkpt>
      <trkpt lat="27.898118" lon="86.829338">
        <ele>4638.6</ele>
        <time>2022-10-24T08:22:59.000Z</time>
      </trkpt>
      <trkpt lat="27.898096" lon="86.829331">
        <ele>4636.4</ele>
        <time>2022-10-24T08:23:03.000Z</time>
      </trkpt>
      <trkpt lat="27.89809" lon="86.829312">
        <ele>4635.8</ele>
        <time>2022-10-24T08:23:06.000Z</time>
      </trkpt>
      <trkpt lat="27.89807" lon="86.829312">
        <ele>4636.2</ele>
        <time>2022-10-24T08:23:09.000Z</time>
      </trkpt>
      <trkpt lat="27.898048" lon="86.829299">
        <ele>4635</ele>
        <time>2022-10-24T08:23:14.000Z</time>
      </trkpt>
      <trkpt lat="27.898029" lon="86.829299">
        <ele>4633.4</ele>
        <time>2022-10-24T08:23:17.000Z</time>
      </trkpt>
      <trkpt lat="27.89801" lon="86.829299">
        <ele>4633.4</ele>
        <time>2022-10-24T08:23:20.000Z</time>
      </trkpt>
      <trkpt lat="27.897987" lon="86.829299">
        <ele>4633.8</ele>
        <time>2022-10-24T08:23:23.000Z</time>
      </trkpt>
      <trkpt lat="27.897965" lon="86.829299">
        <ele>4633.2</ele>
        <time>2022-10-24T08:23:26.000Z</time>
      </trkpt>
      <trkpt lat="27.897942" lon="86.829306">
        <ele>4631.8</ele>
        <time>2022-10-24T08:23:30.000Z</time>
      </trkpt>
      <trkpt lat="27.89792" lon="86.829299">
        <ele>4631.4</ele>
        <time>2022-10-24T08:23:33.000Z</time>
      </trkpt>
      <trkpt lat="27.897901" lon="86.829299">
        <ele>4630.8</ele>
        <time>2022-10-24T08:23:35.000Z</time>
      </trkpt>
      <trkpt lat="27.897875" lon="86.829306">
        <ele>4630.8</ele>
        <time>2022-10-24T08:23:38.000Z</time>
      </trkpt>
      <trkpt lat="27.897856" lon="86.829299">
        <ele>4630</ele>
        <time>2022-10-24T08:23:41.000Z</time>
      </trkpt>
      <trkpt lat="27.897834" lon="86.829286">
        <ele>4629</ele>
        <time>2022-10-24T08:23:45.000Z</time>
      </trkpt>
      <trkpt lat="27.897814" lon="86.829286">
        <ele>4628.2</ele>
        <time>2022-10-24T08:23:48.000Z</time>
      </trkpt>
      <trkpt lat="27.897795" lon="86.82928">
        <ele>4627</ele>
        <time>2022-10-24T08:23:51.000Z</time>
      </trkpt>
      <trkpt lat="27.897776" lon="86.82928">
        <ele>4626.2</ele>
        <time>2022-10-24T08:23:54.000Z</time>
      </trkpt>
      <trkpt lat="27.897763" lon="86.829261">
        <ele>4626.4</ele>
        <time>2022-10-24T08:23:56.000Z</time>
      </trkpt>
      <trkpt lat="27.897744" lon="86.829248">
        <ele>4625</ele>
        <time>2022-10-24T08:24:01.000Z</time>
      </trkpt>
      <trkpt lat="27.897725" lon="86.829248">
        <ele>4625</ele>
        <time>2022-10-24T08:24:04.000Z</time>
      </trkpt>
      <trkpt lat="27.897706" lon="86.829242">
        <ele>4624.2</ele>
        <time>2022-10-24T08:24:07.000Z</time>
      </trkpt>
      <trkpt lat="27.897686" lon="86.829242">
        <ele>4623.6</ele>
        <time>2022-10-24T08:24:09.000Z</time>
      </trkpt>
      <trkpt lat="27.897664" lon="86.829229">
        <ele>4623.2</ele>
        <time>2022-10-24T08:24:13.000Z</time>
      </trkpt>
      <trkpt lat="27.897642" lon="86.829229">
        <ele>4621.8</ele>
        <time>2022-10-24T08:24:17.000Z</time>
      </trkpt>
      <trkpt lat="27.897619" lon="86.829222">
        <ele>4621.8</ele>
        <time>2022-10-24T08:24:22.000Z</time>
      </trkpt>
      <trkpt lat="27.897597" lon="86.829216">
        <ele>4621.2</ele>
        <time>2022-10-24T08:24:25.000Z</time>
      </trkpt>
      <trkpt lat="27.897578" lon="86.82921">
        <ele>4621.2</ele>
        <time>2022-10-24T08:24:32.000Z</time>
      </trkpt>
      <trkpt lat="27.897552" lon="86.82921">
        <ele>4619.8</ele>
        <time>2022-10-24T08:24:49.000Z</time>
      </trkpt>
      <trkpt lat="27.897526" lon="86.829216">
        <ele>4619.4</ele>
        <time>2022-10-24T08:24:51.000Z</time>
      </trkpt>
      <trkpt lat="27.897501" lon="86.829203">
        <ele>4619</ele>
        <time>2022-10-24T08:24:54.000Z</time>
      </trkpt>
      <trkpt lat="27.897482" lon="86.82919">
        <ele>4618.2</ele>
        <time>2022-10-24T08:24:56.000Z</time>
      </trkpt>
      <trkpt lat="27.897462" lon="86.82919">
        <ele>4618.4</ele>
        <time>2022-10-24T08:24:59.000Z</time>
      </trkpt>
      <trkpt lat="27.897443" lon="86.82919">
        <ele>4617.6</ele>
        <time>2022-10-24T08:25:02.000Z</time>
      </trkpt>
      <trkpt lat="27.897427" lon="86.829178">
        <ele>4617</ele>
        <time>2022-10-24T08:25:05.000Z</time>
      </trkpt>
      <trkpt lat="27.897408" lon="86.829184">
        <ele>4616.6</ele>
        <time>2022-10-24T08:25:09.000Z</time>
      </trkpt>
      <trkpt lat="27.897389" lon="86.829178">
        <ele>4616.2</ele>
        <time>2022-10-24T08:25:12.000Z</time>
      </trkpt>
      <trkpt lat="27.897366" lon="86.829178">
        <ele>4615.4</ele>
        <time>2022-10-24T08:25:15.000Z</time>
      </trkpt>
      <trkpt lat="27.897344" lon="86.829178">
        <ele>4615</ele>
        <time>2022-10-24T08:25:18.000Z</time>
      </trkpt>
      <trkpt lat="27.897318" lon="86.829184">
        <ele>4614.4</ele>
        <time>2022-10-24T08:25:21.000Z</time>
      </trkpt>
      <trkpt lat="27.897299" lon="86.82919">
        <ele>4614.4</ele>
        <time>2022-10-24T08:25:23.000Z</time>
      </trkpt>
      <trkpt lat="27.897254" lon="86.829184">
        <ele>4612.8</ele>
        <time>2022-10-24T08:25:29.000Z</time>
      </trkpt>
      <trkpt lat="27.897235" lon="86.82919">
        <ele>4612</ele>
        <time>2022-10-24T08:25:32.000Z</time>
      </trkpt>
      <trkpt lat="27.897213" lon="86.82919">
        <ele>4612</ele>
        <time>2022-10-24T08:25:35.000Z</time>
      </trkpt>
      <trkpt lat="27.897194" lon="86.829184">
        <ele>4611</ele>
        <time>2022-10-24T08:25:38.000Z</time>
      </trkpt>
      <trkpt lat="27.897174" lon="86.829184">
        <ele>4610.4</ele>
        <time>2022-10-24T08:25:41.000Z</time>
      </trkpt>
      <trkpt lat="27.897155" lon="86.829171">
        <ele>4610.2</ele>
        <time>2022-10-24T08:25:44.000Z</time>
      </trkpt>
      <trkpt lat="27.897149" lon="86.829152">
        <ele>4608.6</ele>
        <time>2022-10-24T08:25:46.000Z</time>
      </trkpt>
      <trkpt lat="27.897139" lon="86.829171">
        <ele>4609.6</ele>
        <time>2022-10-24T08:25:51.000Z</time>
      </trkpt>
      <trkpt lat="27.897117" lon="86.829171">
        <ele>4608.2</ele>
        <time>2022-10-24T08:25:54.000Z</time>
      </trkpt>
      <trkpt lat="27.897101" lon="86.829152">
        <ele>4606.4</ele>
        <time>2022-10-24T08:25:57.000Z</time>
      </trkpt>
      <trkpt lat="27.897091" lon="86.829133">
        <ele>4606.4</ele>
        <time>2022-10-24T08:26:01.000Z</time>
      </trkpt>
      <trkpt lat="27.897069" lon="86.829139">
        <ele>4605.6</ele>
        <time>2022-10-24T08:26:04.000Z</time>
      </trkpt>
      <trkpt lat="27.897046" lon="86.829146">
        <ele>4605.6</ele>
        <time>2022-10-24T08:26:07.000Z</time>
      </trkpt>
      <trkpt lat="27.897021" lon="86.829146">
        <ele>4605.4</ele>
        <time>2022-10-24T08:26:10.000Z</time>
      </trkpt>
      <trkpt lat="27.897002" lon="86.829146">
        <ele>4604.2</ele>
        <time>2022-10-24T08:26:12.000Z</time>
      </trkpt>
      <trkpt lat="27.896976" lon="86.829146">
        <ele>4603.8</ele>
        <time>2022-10-24T08:26:15.000Z</time>
      </trkpt>
      <trkpt lat="27.896957" lon="86.829146">
        <ele>4605.6</ele>
        <time>2022-10-24T08:26:17.000Z</time>
      </trkpt>
      <trkpt lat="27.896938" lon="86.829146">
        <ele>4604.8</ele>
        <time>2022-10-24T08:26:19.000Z</time>
      </trkpt>
      <trkpt lat="27.896915" lon="86.829152">
        <ele>4605</ele>
        <time>2022-10-24T08:26:22.000Z</time>
      </trkpt>
      <trkpt lat="27.89689" lon="86.829165">
        <ele>4602.4</ele>
        <time>2022-10-24T08:26:25.000Z</time>
      </trkpt>
      <trkpt lat="27.896867" lon="86.829171">
        <ele>4602.4</ele>
        <time>2022-10-24T08:26:28.000Z</time>
      </trkpt>
      <trkpt lat="27.896845" lon="86.829171">
        <ele>4601.6</ele>
        <time>2022-10-24T08:26:31.000Z</time>
      </trkpt>
      <trkpt lat="27.896826" lon="86.829171">
        <ele>4600.2</ele>
        <time>2022-10-24T08:26:34.000Z</time>
      </trkpt>
      <trkpt lat="27.896803" lon="86.829171">
        <ele>4599.8</ele>
        <time>2022-10-24T08:26:37.000Z</time>
      </trkpt>
      <trkpt lat="27.896787" lon="86.829152">
        <ele>4600.6</ele>
        <time>2022-10-24T08:26:39.000Z</time>
      </trkpt>
      <trkpt lat="27.896765" lon="86.829146">
        <ele>4599</ele>
        <time>2022-10-24T08:26:42.000Z</time>
      </trkpt>
      <trkpt lat="27.896739" lon="86.829152">
        <ele>4599.8</ele>
        <time>2022-10-24T08:26:45.000Z</time>
      </trkpt>
      <trkpt lat="27.89672" lon="86.829152">
        <ele>4600.2</ele>
        <time>2022-10-24T08:26:47.000Z</time>
      </trkpt>
      <trkpt lat="27.896694" lon="86.829165">
        <ele>4598.2</ele>
        <time>2022-10-24T08:26:50.000Z</time>
      </trkpt>
      <trkpt lat="27.896669" lon="86.829171">
        <ele>4597.6</ele>
        <time>2022-10-24T08:26:53.000Z</time>
      </trkpt>
      <trkpt lat="27.896653" lon="86.829184">
        <ele>4596.6</ele>
        <time>2022-10-24T08:27:01.000Z</time>
      </trkpt>
      <trkpt lat="27.896634" lon="86.82919">
        <ele>4596.6</ele>
        <time>2022-10-24T08:27:04.000Z</time>
      </trkpt>
      <trkpt lat="27.896624" lon="86.829165">
        <ele>4592.2</ele>
        <time>2022-10-24T08:28:07.000Z</time>
      </trkpt>
      <trkpt lat="27.896618" lon="86.829133">
        <ele>4592.2</ele>
        <time>2022-10-24T08:28:09.000Z</time>
      </trkpt>
      <trkpt lat="27.896611" lon="86.829107">
        <ele>4592.4</ele>
        <time>2022-10-24T08:28:11.000Z</time>
      </trkpt>
      <trkpt lat="27.896589" lon="86.829101">
        <ele>4592.2</ele>
        <time>2022-10-24T08:28:14.000Z</time>
      </trkpt>
      <trkpt lat="27.89657" lon="86.829101">
        <ele>4590.8</ele>
        <time>2022-10-24T08:28:16.000Z</time>
      </trkpt>
      <trkpt lat="27.896554" lon="86.829082">
        <ele>4589.8</ele>
        <time>2022-10-24T08:28:20.000Z</time>
      </trkpt>
      <trkpt lat="27.89655" lon="86.829056">
        <ele>4589</ele>
        <time>2022-10-24T08:28:23.000Z</time>
      </trkpt>
      <trkpt lat="27.896534" lon="86.829043">
        <ele>4588.2</ele>
        <time>2022-10-24T08:28:27.000Z</time>
      </trkpt>
      <trkpt lat="27.896515" lon="86.82905">
        <ele>4587.4</ele>
        <time>2022-10-24T08:28:31.000Z</time>
      </trkpt>
      <trkpt lat="27.896496" lon="86.82905">
        <ele>4586.8</ele>
        <time>2022-10-24T08:28:34.000Z</time>
      </trkpt>
      <trkpt lat="27.89648" lon="86.829062">
        <ele>4586.2</ele>
        <time>2022-10-24T08:28:37.000Z</time>
      </trkpt>
      <trkpt lat="27.896458" lon="86.82905">
        <ele>4585.2</ele>
        <time>2022-10-24T08:28:41.000Z</time>
      </trkpt>
      <trkpt lat="27.896451" lon="86.829024">
        <ele>4584.4</ele>
        <time>2022-10-24T08:28:44.000Z</time>
      </trkpt>
      <trkpt lat="27.896432" lon="86.829005">
        <ele>4583.6</ele>
        <time>2022-10-24T08:28:49.000Z</time>
      </trkpt>
      <trkpt lat="27.896426" lon="86.828979">
        <ele>4582.4</ele>
        <time>2022-10-24T08:28:53.000Z</time>
      </trkpt>
      <trkpt lat="27.896419" lon="86.828954">
        <ele>4581.6</ele>
        <time>2022-10-24T08:28:57.000Z</time>
      </trkpt>
      <trkpt lat="27.89641" lon="86.828934">
        <ele>4580.8</ele>
        <time>2022-10-24T08:29:01.000Z</time>
      </trkpt>
      <trkpt lat="27.89639" lon="86.828922">
        <ele>4580.6</ele>
        <time>2022-10-24T08:29:05.000Z</time>
      </trkpt>
      <trkpt lat="27.89639" lon="86.828896">
        <ele>4579.2</ele>
        <time>2022-10-24T08:29:08.000Z</time>
      </trkpt>
      <trkpt lat="27.896384" lon="86.82887">
        <ele>4578.4</ele>
        <time>2022-10-24T08:29:12.000Z</time>
      </trkpt>
      <trkpt lat="27.896381" lon="86.828845">
        <ele>4577.4</ele>
        <time>2022-10-24T08:29:16.000Z</time>
      </trkpt>
      <trkpt lat="27.89639" lon="86.828826">
        <ele>4577.6</ele>
        <time>2022-10-24T08:29:19.000Z</time>
      </trkpt>
      <trkpt lat="27.89639" lon="86.828794">
        <ele>4576.6</ele>
        <time>2022-10-24T08:29:22.000Z</time>
      </trkpt>
      <trkpt lat="27.896368" lon="86.828787">
        <ele>4575.6</ele>
        <time>2022-10-24T08:29:30.000Z</time>
      </trkpt>
      <trkpt lat="27.896365" lon="86.828755">
        <ele>4574.6</ele>
        <time>2022-10-24T08:29:34.000Z</time>
      </trkpt>
      <trkpt lat="27.896374" lon="86.828736">
        <ele>4573.8</ele>
        <time>2022-10-24T08:29:37.000Z</time>
      </trkpt>
      <trkpt lat="27.896374" lon="86.82871">
        <ele>4572.2</ele>
        <time>2022-10-24T08:29:41.000Z</time>
      </trkpt>
      <trkpt lat="27.896352" lon="86.828704">
        <ele>4571.6</ele>
        <time>2022-10-24T08:29:45.000Z</time>
      </trkpt>
      <trkpt lat="27.896333" lon="86.82871">
        <ele>4571.2</ele>
        <time>2022-10-24T08:29:48.000Z</time>
      </trkpt>
      <trkpt lat="27.896314" lon="86.828723">
        <ele>4570.2</ele>
        <time>2022-10-24T08:29:51.000Z</time>
      </trkpt>
      <trkpt lat="27.896291" lon="86.828723">
        <ele>4569.6</ele>
        <time>2022-10-24T08:29:54.000Z</time>
      </trkpt>
      <trkpt lat="27.896275" lon="86.82871">
        <ele>4568.8</ele>
        <time>2022-10-24T08:29:59.000Z</time>
      </trkpt>
      <trkpt lat="27.896256" lon="86.828723">
        <ele>4568.4</ele>
        <time>2022-10-24T08:30:03.000Z</time>
      </trkpt>
      <trkpt lat="27.89624" lon="86.82871">
        <ele>4568.4</ele>
        <time>2022-10-24T08:30:06.000Z</time>
      </trkpt>
      <trkpt lat="27.896234" lon="86.828691">
        <ele>4566.6</ele>
        <time>2022-10-24T08:30:11.000Z</time>
      </trkpt>
      <trkpt lat="27.89624" lon="86.828672">
        <ele>4567.4</ele>
        <time>2022-10-24T08:30:16.000Z</time>
      </trkpt>
      <trkpt lat="27.896221" lon="86.828666">
        <ele>4565.4</ele>
        <time>2022-10-24T08:30:22.000Z</time>
      </trkpt>
      <trkpt lat="27.896202" lon="86.828666">
        <ele>4564.8</ele>
        <time>2022-10-24T08:30:26.000Z</time>
      </trkpt>
      <trkpt lat="27.896211" lon="86.828634">
        <ele>4564.2</ele>
        <time>2022-10-24T08:30:31.000Z</time>
      </trkpt>
      <trkpt lat="27.896211" lon="86.828608">
        <ele>4563.4</ele>
        <time>2022-10-24T08:30:37.000Z</time>
      </trkpt>
      <trkpt lat="27.896214" lon="86.828582">
        <ele>4562.8</ele>
        <time>2022-10-24T08:30:40.000Z</time>
      </trkpt>
      <trkpt lat="27.896218" lon="86.828557">
        <ele>4562</ele>
        <time>2022-10-24T08:30:42.000Z</time>
      </trkpt>
      <trkpt lat="27.896198" lon="86.828557">
        <ele>4560.8</ele>
        <time>2022-10-24T08:30:47.000Z</time>
      </trkpt>
      <trkpt lat="27.896182" lon="86.82857">
        <ele>4560.2</ele>
        <time>2022-10-24T08:30:49.000Z</time>
      </trkpt>
      <trkpt lat="27.896163" lon="86.828576">
        <ele>4559.6</ele>
        <time>2022-10-24T08:30:52.000Z</time>
      </trkpt>
      <trkpt lat="27.89615" lon="86.828557">
        <ele>4558.8</ele>
        <time>2022-10-24T08:30:56.000Z</time>
      </trkpt>
      <trkpt lat="27.896154" lon="86.828531">
        <ele>4558</ele>
        <time>2022-10-24T08:31:00.000Z</time>
      </trkpt>
      <trkpt lat="27.89616" lon="86.828512">
        <ele>4557.8</ele>
        <time>2022-10-24T08:31:02.000Z</time>
      </trkpt>
      <trkpt lat="27.896141" lon="86.828512">
        <ele>4556.4</ele>
        <time>2022-10-24T08:31:07.000Z</time>
      </trkpt>
      <trkpt lat="27.896125" lon="86.828525">
        <ele>4556.4</ele>
        <time>2022-10-24T08:31:10.000Z</time>
      </trkpt>
      <trkpt lat="27.896102" lon="86.828531">
        <ele>4555.6</ele>
        <time>2022-10-24T08:31:13.000Z</time>
      </trkpt>
      <trkpt lat="27.896083" lon="86.828538">
        <ele>4554.8</ele>
        <time>2022-10-24T08:31:17.000Z</time>
      </trkpt>
      <trkpt lat="27.896064" lon="86.828531">
        <ele>4554</ele>
        <time>2022-10-24T08:31:22.000Z</time>
      </trkpt>
      <trkpt lat="27.896045" lon="86.828531">
        <ele>4553</ele>
        <time>2022-10-24T08:31:28.000Z</time>
      </trkpt>
      <trkpt lat="27.896026" lon="86.828525">
        <ele>4552.6</ele>
        <time>2022-10-24T08:31:32.000Z</time>
      </trkpt>
      <trkpt lat="27.896016" lon="86.828506">
        <ele>4551.4</ele>
        <time>2022-10-24T08:31:38.000Z</time>
      </trkpt>
      <trkpt lat="27.896006" lon="86.828486">
        <ele>4550.6</ele>
        <time>2022-10-24T08:31:42.000Z</time>
      </trkpt>
      <trkpt lat="27.896003" lon="86.828461">
        <ele>4550</ele>
        <time>2022-10-24T08:31:47.000Z</time>
      </trkpt>
      <trkpt lat="27.895997" lon="86.828435">
        <ele>4549.2</ele>
        <time>2022-10-24T08:31:50.000Z</time>
      </trkpt>
      <trkpt lat="27.89599" lon="86.828416">
        <ele>4547.8</ele>
        <time>2022-10-24T08:31:56.000Z</time>
      </trkpt>
      <trkpt lat="27.895997" lon="86.82839">
        <ele>4546.8</ele>
        <time>2022-10-24T08:31:59.000Z</time>
      </trkpt>
      <trkpt lat="27.89601" lon="86.828371">
        <ele>4546.2</ele>
        <time>2022-10-24T08:32:03.000Z</time>
      </trkpt>
      <trkpt lat="27.895994" lon="86.828358">
        <ele>4545.6</ele>
        <time>2022-10-24T08:32:07.000Z</time>
      </trkpt>
      <trkpt lat="27.895978" lon="86.828371">
        <ele>4545.4</ele>
        <time>2022-10-24T08:32:10.000Z</time>
      </trkpt>
      <trkpt lat="27.895971" lon="86.828352">
        <ele>4545.4</ele>
        <time>2022-10-24T08:32:12.000Z</time>
      </trkpt>
      <trkpt lat="27.895955" lon="86.828339">
        <ele>4543.6</ele>
        <time>2022-10-24T08:32:17.000Z</time>
      </trkpt>
      <trkpt lat="27.895933" lon="86.828339">
        <ele>4543</ele>
        <time>2022-10-24T08:32:21.000Z</time>
      </trkpt>
      <trkpt lat="27.895923" lon="86.828314">
        <ele>4542</ele>
        <time>2022-10-24T08:32:24.000Z</time>
      </trkpt>
      <trkpt lat="27.89593" lon="86.828294">
        <ele>4541.4</ele>
        <time>2022-10-24T08:32:28.000Z</time>
      </trkpt>
      <trkpt lat="27.895936" lon="86.828275">
        <ele>4540.6</ele>
        <time>2022-10-24T08:32:32.000Z</time>
      </trkpt>
      <trkpt lat="27.895914" lon="86.828269">
        <ele>4539.2</ele>
        <time>2022-10-24T08:32:37.000Z</time>
      </trkpt>
      <trkpt lat="27.895894" lon="86.828256">
        <ele>4538.2</ele>
        <time>2022-10-24T08:32:41.000Z</time>
      </trkpt>
      <trkpt lat="27.895872" lon="86.828262">
        <ele>4537.4</ele>
        <time>2022-10-24T08:32:45.000Z</time>
      </trkpt>
      <trkpt lat="27.895846" lon="86.828275">
        <ele>4537</ele>
        <time>2022-10-24T08:32:48.000Z</time>
      </trkpt>
      <trkpt lat="27.895824" lon="86.828288">
        <ele>4536.4</ele>
        <time>2022-10-24T08:32:52.000Z</time>
      </trkpt>
      <trkpt lat="27.895802" lon="86.828288">
        <ele>4535.8</ele>
        <time>2022-10-24T08:32:55.000Z</time>
      </trkpt>
      <trkpt lat="27.895792" lon="86.828269">
        <ele>4535</ele>
        <time>2022-10-24T08:32:57.000Z</time>
      </trkpt>
      <trkpt lat="27.89577" lon="86.828269">
        <ele>4534.2</ele>
        <time>2022-10-24T08:33:01.000Z</time>
      </trkpt>
      <trkpt lat="27.895747" lon="86.82825">
        <ele>4533.4</ele>
        <time>2022-10-24T08:33:06.000Z</time>
      </trkpt>
      <trkpt lat="27.895725" lon="86.82825">
        <ele>4532.4</ele>
        <time>2022-10-24T08:33:10.000Z</time>
      </trkpt>
      <trkpt lat="27.895706" lon="86.82825">
        <ele>4532.2</ele>
        <time>2022-10-24T08:33:13.000Z</time>
      </trkpt>
      <trkpt lat="27.89569" lon="86.828237">
        <ele>4531.6</ele>
        <time>2022-10-24T08:33:15.000Z</time>
      </trkpt>
      <trkpt lat="27.895696" lon="86.828211">
        <ele>4530.6</ele>
        <time>2022-10-24T08:33:19.000Z</time>
      </trkpt>
      <trkpt lat="27.895706" lon="86.828192">
        <ele>4529.8</ele>
        <time>2022-10-24T08:33:22.000Z</time>
      </trkpt>
      <trkpt lat="27.89568" lon="86.828192">
        <ele>4528.6</ele>
        <time>2022-10-24T08:33:28.000Z</time>
      </trkpt>
      <trkpt lat="27.895664" lon="86.828179">
        <ele>4528.2</ele>
        <time>2022-10-24T08:33:33.000Z</time>
      </trkpt>
      <trkpt lat="27.895658" lon="86.82816">
        <ele>4527.6</ele>
        <time>2022-10-24T08:33:36.000Z</time>
      </trkpt>
      <trkpt lat="27.895658" lon="86.828134">
        <ele>4525.4</ele>
        <time>2022-10-24T08:33:42.000Z</time>
      </trkpt>
      <trkpt lat="27.895638" lon="86.828141">
        <ele>4525.4</ele>
        <time>2022-10-24T08:33:46.000Z</time>
      </trkpt>
      <trkpt lat="27.895619" lon="86.828141">
        <ele>4525</ele>
        <time>2022-10-24T08:33:49.000Z</time>
      </trkpt>
      <trkpt lat="27.8956" lon="86.828134">
        <ele>4524.4</ele>
        <time>2022-10-24T08:33:52.000Z</time>
      </trkpt>
      <trkpt lat="27.895581" lon="86.828128">
        <ele>4523.6</ele>
        <time>2022-10-24T08:33:55.000Z</time>
      </trkpt>
      <trkpt lat="27.895558" lon="86.828115">
        <ele>4522.8</ele>
        <time>2022-10-24T08:33:59.000Z</time>
      </trkpt>
      <trkpt lat="27.895539" lon="86.828109">
        <ele>4522</ele>
        <time>2022-10-24T08:34:03.000Z</time>
      </trkpt>
      <trkpt lat="27.89552" lon="86.828109">
        <ele>4522</ele>
        <time>2022-10-24T08:34:06.000Z</time>
      </trkpt>
      <trkpt lat="27.895501" lon="86.828109">
        <ele>4521</ele>
        <time>2022-10-24T08:34:09.000Z</time>
      </trkpt>
      <trkpt lat="27.895478" lon="86.828109">
        <ele>4520.8</ele>
        <time>2022-10-24T08:34:12.000Z</time>
      </trkpt>
      <trkpt lat="27.895456" lon="86.828115">
        <ele>4520.4</ele>
        <time>2022-10-24T08:34:15.000Z</time>
      </trkpt>
      <trkpt lat="27.895437" lon="86.828102">
        <ele>4519.6</ele>
        <time>2022-10-24T08:34:20.000Z</time>
      </trkpt>
      <trkpt lat="27.895414" lon="86.828096">
        <ele>4518.4</ele>
        <time>2022-10-24T08:34:24.000Z</time>
      </trkpt>
      <trkpt lat="27.895389" lon="86.828096">
        <ele>4517.8</ele>
        <time>2022-10-24T08:34:29.000Z</time>
      </trkpt>
      <trkpt lat="27.895373" lon="86.828109">
        <ele>4517.6</ele>
        <time>2022-10-24T08:34:33.000Z</time>
      </trkpt>
      <trkpt lat="27.895354" lon="86.828109">
        <ele>4516.2</ele>
        <time>2022-10-24T08:34:36.000Z</time>
      </trkpt>
      <trkpt lat="27.895334" lon="86.828102">
        <ele>4515.2</ele>
        <time>2022-10-24T08:34:41.000Z</time>
      </trkpt>
      <trkpt lat="27.895312" lon="86.828102">
        <ele>4515.2</ele>
        <time>2022-10-24T08:34:46.000Z</time>
      </trkpt>
      <trkpt lat="27.895293" lon="86.828109">
        <ele>4514.4</ele>
        <time>2022-10-24T08:34:49.000Z</time>
      </trkpt>
      <trkpt lat="27.895283" lon="86.82809">
        <ele>4513.8</ele>
        <time>2022-10-24T08:34:53.000Z</time>
      </trkpt>
      <trkpt lat="27.895277" lon="86.82807">
        <ele>4513</ele>
        <time>2022-10-24T08:34:57.000Z</time>
      </trkpt>
      <trkpt lat="27.895242" lon="86.828058">
        <ele>4512</ele>
        <time>2022-10-24T08:35:04.000Z</time>
      </trkpt>
      <trkpt lat="27.895235" lon="86.828032">
        <ele>4510.6</ele>
        <time>2022-10-24T08:35:08.000Z</time>
      </trkpt>
      <trkpt lat="27.895216" lon="86.828032">
        <ele>4510.4</ele>
        <time>2022-10-24T08:35:12.000Z</time>
      </trkpt>
      <trkpt lat="27.8952" lon="86.828019">
        <ele>4509</ele>
        <time>2022-10-24T08:35:16.000Z</time>
      </trkpt>
      <trkpt lat="27.895178" lon="86.828019">
        <ele>4508.8</ele>
        <time>2022-10-24T08:35:19.000Z</time>
      </trkpt>
      <trkpt lat="27.895158" lon="86.828013">
        <ele>4508.4</ele>
        <time>2022-10-24T08:35:23.000Z</time>
      </trkpt>
      <trkpt lat="27.895142" lon="86.828">
        <ele>4507.8</ele>
        <time>2022-10-24T08:35:26.000Z</time>
      </trkpt>
      <trkpt lat="27.895123" lon="86.828">
        <ele>4507</ele>
        <time>2022-10-24T08:35:29.000Z</time>
      </trkpt>
      <trkpt lat="27.895104" lon="86.828">
        <ele>4506.8</ele>
        <time>2022-10-24T08:35:31.000Z</time>
      </trkpt>
      <trkpt lat="27.895082" lon="86.827994">
        <ele>4506.2</ele>
        <time>2022-10-24T08:35:34.000Z</time>
      </trkpt>
      <trkpt lat="27.895059" lon="86.827994">
        <ele>4505.6</ele>
        <time>2022-10-24T08:35:37.000Z</time>
      </trkpt>
      <trkpt lat="27.89504" lon="86.828">
        <ele>4504.8</ele>
        <time>2022-10-24T08:35:41.000Z</time>
      </trkpt>
      <trkpt lat="27.895024" lon="86.828013">
        <ele>4504.8</ele>
        <time>2022-10-24T08:35:43.000Z</time>
      </trkpt>
      <trkpt lat="27.895005" lon="86.828019">
        <ele>4505.2</ele>
        <time>2022-10-24T08:35:45.000Z</time>
      </trkpt>
      <trkpt lat="27.894986" lon="86.828019">
        <ele>4504</ele>
        <time>2022-10-24T08:35:48.000Z</time>
      </trkpt>
      <trkpt lat="27.89497" lon="86.828">
        <ele>4504</ele>
        <time>2022-10-24T08:35:51.000Z</time>
      </trkpt>
      <trkpt lat="27.894954" lon="86.827987">
        <ele>4502.4</ele>
        <time>2022-10-24T08:35:53.000Z</time>
      </trkpt>
      <trkpt lat="27.894934" lon="86.827981">
        <ele>4503</ele>
        <time>2022-10-24T08:35:56.000Z</time>
      </trkpt>
      <trkpt lat="27.894915" lon="86.827987">
        <ele>4502.8</ele>
        <time>2022-10-24T08:35:59.000Z</time>
      </trkpt>
      <trkpt lat="27.894899" lon="86.827974">
        <ele>4502.4</ele>
        <time>2022-10-24T08:36:03.000Z</time>
      </trkpt>
      <trkpt lat="27.894893" lon="86.827955">
        <ele>4500.6</ele>
        <time>2022-10-24T08:36:07.000Z</time>
      </trkpt>
      <trkpt lat="27.89487" lon="86.827949">
        <ele>4499</ele>
        <time>2022-10-24T08:36:34.000Z</time>
      </trkpt>
      <trkpt lat="27.894838" lon="86.827955">
        <ele>4497.8</ele>
        <time>2022-10-24T08:36:38.000Z</time>
      </trkpt>
      <trkpt lat="27.894816" lon="86.827955">
        <ele>4497.6</ele>
        <time>2022-10-24T08:36:41.000Z</time>
      </trkpt>
      <trkpt lat="27.894797" lon="86.827962">
        <ele>4497.6</ele>
        <time>2022-10-24T08:36:43.000Z</time>
      </trkpt>
      <trkpt lat="27.894781" lon="86.827981">
        <ele>4497.4</ele>
        <time>2022-10-24T08:36:47.000Z</time>
      </trkpt>
      <trkpt lat="27.894762" lon="86.827987">
        <ele>4496.2</ele>
        <time>2022-10-24T08:36:53.000Z</time>
      </trkpt>
      <trkpt lat="27.894746" lon="86.828">
        <ele>4495.2</ele>
        <time>2022-10-24T08:36:56.000Z</time>
      </trkpt>
      <trkpt lat="27.894733" lon="86.828019">
        <ele>4494.2</ele>
        <time>2022-10-24T08:37:03.000Z</time>
      </trkpt>
      <trkpt lat="27.894714" lon="86.828026">
        <ele>4494.2</ele>
        <time>2022-10-24T08:37:08.000Z</time>
      </trkpt>
      <trkpt lat="27.894694" lon="86.828026">
        <ele>4493.4</ele>
        <time>2022-10-24T08:37:12.000Z</time>
      </trkpt>
      <trkpt lat="27.894675" lon="86.828026">
        <ele>4492.8</ele>
        <time>2022-10-24T08:37:16.000Z</time>
      </trkpt>
      <trkpt lat="27.894656" lon="86.828026">
        <ele>4492.8</ele>
        <time>2022-10-24T08:37:21.000Z</time>
      </trkpt>
      <trkpt lat="27.894653" lon="86.827994">
        <ele>4491.2</ele>
        <time>2022-10-24T08:37:25.000Z</time>
      </trkpt>
      <trkpt lat="27.894637" lon="86.827981">
        <ele>4489.8</ele>
        <time>2022-10-24T08:37:30.000Z</time>
      </trkpt>
      <trkpt lat="27.894637" lon="86.827955">
        <ele>4488.6</ele>
        <time>2022-10-24T08:37:33.000Z</time>
      </trkpt>
      <trkpt lat="27.894614" lon="86.827949">
        <ele>4487.2</ele>
        <time>2022-10-24T08:37:41.000Z</time>
      </trkpt>
      <trkpt lat="27.894595" lon="86.827942">
        <ele>4486.6</ele>
        <time>2022-10-24T08:37:47.000Z</time>
      </trkpt>
      <trkpt lat="27.894576" lon="86.827962">
        <ele>4485.8</ele>
        <time>2022-10-24T08:37:51.000Z</time>
      </trkpt>
      <trkpt lat="27.89457" lon="86.827942">
        <ele>4484.2</ele>
        <time>2022-10-24T08:37:56.000Z</time>
      </trkpt>
      <trkpt lat="27.894576" lon="86.827917">
        <ele>4483.6</ele>
        <time>2022-10-24T08:38:01.000Z</time>
      </trkpt>
      <trkpt lat="27.894557" lon="86.82793">
        <ele>4482.6</ele>
        <time>2022-10-24T08:38:07.000Z</time>
      </trkpt>
      <trkpt lat="27.894509" lon="86.82791">
        <ele>4477.4</ele>
        <time>2022-10-24T08:38:58.000Z</time>
      </trkpt>
      <trkpt lat="27.894509" lon="86.827872">
        <ele>4477</ele>
        <time>2022-10-24T08:39:01.000Z</time>
      </trkpt>
      <trkpt lat="27.894499" lon="86.827853">
        <ele>4477</ele>
        <time>2022-10-24T08:39:04.000Z</time>
      </trkpt>
      <trkpt lat="27.894486" lon="86.827834">
        <ele>4476.6</ele>
        <time>2022-10-24T08:39:06.000Z</time>
      </trkpt>
      <trkpt lat="27.894467" lon="86.827827">
        <ele>4475.4</ele>
        <time>2022-10-24T08:39:11.000Z</time>
      </trkpt>
      <trkpt lat="27.894448" lon="86.827827">
        <ele>4475</ele>
        <time>2022-10-24T08:39:14.000Z</time>
      </trkpt>
      <trkpt lat="27.894429" lon="86.827834">
        <ele>4473.8</ele>
        <time>2022-10-24T08:39:19.000Z</time>
      </trkpt>
      <trkpt lat="27.89441" lon="86.827834">
        <ele>4472.8</ele>
        <time>2022-10-24T08:39:26.000Z</time>
      </trkpt>
      <trkpt lat="27.894397" lon="86.827853">
        <ele>4472.6</ele>
        <time>2022-10-24T08:39:29.000Z</time>
      </trkpt>
      <trkpt lat="27.894374" lon="86.827859">
        <ele>4471.6</ele>
        <time>2022-10-24T08:39:34.000Z</time>
      </trkpt>
      <trkpt lat="27.894368" lon="86.82784">
        <ele>4470.4</ele>
        <time>2022-10-24T08:39:39.000Z</time>
      </trkpt>
      <trkpt lat="27.894374" lon="86.827821">
        <ele>4470.2</ele>
        <time>2022-10-24T08:39:42.000Z</time>
      </trkpt>
      <trkpt lat="27.894368" lon="86.827802">
        <ele>4469.4</ele>
        <time>2022-10-24T08:39:45.000Z</time>
      </trkpt>
      <trkpt lat="27.894349" lon="86.827814">
        <ele>4468.6</ele>
        <time>2022-10-24T08:39:49.000Z</time>
      </trkpt>
      <trkpt lat="27.89433" lon="86.827827">
        <ele>4467.6</ele>
        <time>2022-10-24T08:39:53.000Z</time>
      </trkpt>
      <trkpt lat="27.89431" lon="86.827834">
        <ele>4467.2</ele>
        <time>2022-10-24T08:39:58.000Z</time>
      </trkpt>
      <trkpt lat="27.894291" lon="86.827834">
        <ele>4467</ele>
        <time>2022-10-24T08:40:02.000Z</time>
      </trkpt>
      <trkpt lat="27.894278" lon="86.827853">
        <ele>4466.2</ele>
        <time>2022-10-24T08:40:06.000Z</time>
      </trkpt>
      <trkpt lat="27.894259" lon="86.827859">
        <ele>4465.2</ele>
        <time>2022-10-24T08:40:11.000Z</time>
      </trkpt>
      <trkpt lat="27.89424" lon="86.827859">
        <ele>4464.6</ele>
        <time>2022-10-24T08:40:16.000Z</time>
      </trkpt>
      <trkpt lat="27.894221" lon="86.827866">
        <ele>4462.8</ele>
        <time>2022-10-24T08:40:24.000Z</time>
      </trkpt>
      <trkpt lat="27.894202" lon="86.827878">
        <ele>4462.4</ele>
        <time>2022-10-24T08:40:27.000Z</time>
      </trkpt>
      <trkpt lat="27.894189" lon="86.827898">
        <ele>4462.2</ele>
        <time>2022-10-24T08:40:32.000Z</time>
      </trkpt>
      <trkpt lat="27.89417" lon="86.827917">
        <ele>4460.8</ele>
        <time>2022-10-24T08:40:38.000Z</time>
      </trkpt>
      <trkpt lat="27.89415" lon="86.82793">
        <ele>4460.8</ele>
        <time>2022-10-24T08:40:41.000Z</time>
      </trkpt>
      <trkpt lat="27.894134" lon="86.827942">
        <ele>4460.8</ele>
        <time>2022-10-24T08:40:46.000Z</time>
      </trkpt>
      <trkpt lat="27.894125" lon="86.827962">
        <ele>4459.6</ele>
        <time>2022-10-24T08:40:50.000Z</time>
      </trkpt>
      <trkpt lat="27.894118" lon="86.827981">
        <ele>4459.8</ele>
        <time>2022-10-24T08:40:52.000Z</time>
      </trkpt>
      <trkpt lat="27.894102" lon="86.827994">
        <ele>4458.8</ele>
        <time>2022-10-24T08:40:56.000Z</time>
      </trkpt>
      <trkpt lat="27.89408" lon="86.828013">
        <ele>4458</ele>
        <time>2022-10-24T08:41:00.000Z</time>
      </trkpt>
      <trkpt lat="27.894058" lon="86.828026">
        <ele>4457</ele>
        <time>2022-10-24T08:41:04.000Z</time>
      </trkpt>
      <trkpt lat="27.894038" lon="86.828032">
        <ele>4457</ele>
        <time>2022-10-24T08:41:08.000Z</time>
      </trkpt>
      <trkpt lat="27.894019" lon="86.828019">
        <ele>4456.2</ele>
        <time>2022-10-24T08:41:12.000Z</time>
      </trkpt>
      <trkpt lat="27.89401" lon="86.828">
        <ele>4455</ele>
        <time>2022-10-24T08:41:15.000Z</time>
      </trkpt>
      <trkpt lat="27.89399" lon="86.827981">
        <ele>4454</ele>
        <time>2022-10-24T08:41:19.000Z</time>
      </trkpt>
      <trkpt lat="27.893968" lon="86.827962">
        <ele>4453.4</ele>
        <time>2022-10-24T08:41:23.000Z</time>
      </trkpt>
      <trkpt lat="27.893952" lon="86.827942">
        <ele>4453</ele>
        <time>2022-10-24T08:41:26.000Z</time>
      </trkpt>
      <trkpt lat="27.893942" lon="86.827917">
        <ele>4451.8</ele>
        <time>2022-10-24T08:41:29.000Z</time>
      </trkpt>
      <trkpt lat="27.893923" lon="86.82791">
        <ele>4451.4</ele>
        <time>2022-10-24T08:41:37.000Z</time>
      </trkpt>
      <trkpt lat="27.893907" lon="86.827898">
        <ele>4451</ele>
        <time>2022-10-24T08:41:42.000Z</time>
      </trkpt>
      <trkpt lat="27.893885" lon="86.827891">
        <ele>4450.8</ele>
        <time>2022-10-24T08:41:45.000Z</time>
      </trkpt>
      <trkpt lat="27.893869" lon="86.827872">
        <ele>4450.2</ele>
        <time>2022-10-24T08:41:49.000Z</time>
      </trkpt>
      <trkpt lat="27.893846" lon="86.827866">
        <ele>4449.4</ele>
        <time>2022-10-24T08:41:52.000Z</time>
      </trkpt>
      <trkpt lat="27.893824" lon="86.827859">
        <ele>4449.2</ele>
        <time>2022-10-24T08:41:56.000Z</time>
      </trkpt>
      <trkpt lat="27.893805" lon="86.827853">
        <ele>4448.6</ele>
        <time>2022-10-24T08:41:59.000Z</time>
      </trkpt>
      <trkpt lat="27.893789" lon="86.82784">
        <ele>4447.4</ele>
        <time>2022-10-24T08:42:02.000Z</time>
      </trkpt>
      <trkpt lat="27.893776" lon="86.827821">
        <ele>4447.2</ele>
        <time>2022-10-24T08:42:05.000Z</time>
      </trkpt>
      <trkpt lat="27.893776" lon="86.827795">
        <ele>4446.8</ele>
        <time>2022-10-24T08:42:07.000Z</time>
      </trkpt>
      <trkpt lat="27.89377" lon="86.827776">
        <ele>4446</ele>
        <time>2022-10-24T08:42:11.000Z</time>
      </trkpt>
      <trkpt lat="27.893747" lon="86.82777">
        <ele>4445</ele>
        <time>2022-10-24T08:42:15.000Z</time>
      </trkpt>
      <trkpt lat="27.893744" lon="86.827744">
        <ele>4444.4</ele>
        <time>2022-10-24T08:42:18.000Z</time>
      </trkpt>
      <trkpt lat="27.893725" lon="86.827731">
        <ele>4443.4</ele>
        <time>2022-10-24T08:42:23.000Z</time>
      </trkpt>
      <trkpt lat="27.893709" lon="86.827718">
        <ele>4443.4</ele>
        <time>2022-10-24T08:42:27.000Z</time>
      </trkpt>
      <trkpt lat="27.893706" lon="86.827693">
        <ele>4442.4</ele>
        <time>2022-10-24T08:42:37.000Z</time>
      </trkpt>
      <trkpt lat="27.893693" lon="86.827674">
        <ele>4440.2</ele>
        <time>2022-10-24T08:43:14.000Z</time>
      </trkpt>
      <trkpt lat="27.893674" lon="86.827661">
        <ele>4439.6</ele>
        <time>2022-10-24T08:43:16.000Z</time>
      </trkpt>
      <trkpt lat="27.893654" lon="86.827654">
        <ele>4438.8</ele>
        <time>2022-10-24T08:43:18.000Z</time>
      </trkpt>
      <trkpt lat="27.893645" lon="86.827635">
        <ele>4438.8</ele>
        <time>2022-10-24T08:43:19.000Z</time>
      </trkpt>
      <trkpt lat="27.893629" lon="86.827616">
        <ele>4438.4</ele>
        <time>2022-10-24T08:43:21.000Z</time>
      </trkpt>
      <trkpt lat="27.893616" lon="86.827597">
        <ele>4437.8</ele>
        <time>2022-10-24T08:43:23.000Z</time>
      </trkpt>
      <trkpt lat="27.8936" lon="86.827584">
        <ele>4437.6</ele>
        <time>2022-10-24T08:43:26.000Z</time>
      </trkpt>
      <trkpt lat="27.893587" lon="86.827558">
        <ele>4436.8</ele>
        <time>2022-10-24T08:43:29.000Z</time>
      </trkpt>
      <trkpt lat="27.893571" lon="86.827539">
        <ele>4436</ele>
        <time>2022-10-24T08:43:32.000Z</time>
      </trkpt>
      <trkpt lat="27.893565" lon="86.82752">
        <ele>4436</ele>
        <time>2022-10-24T08:43:33.000Z</time>
      </trkpt>
      <trkpt lat="27.893539" lon="86.827501">
        <ele>4435.6</ele>
        <time>2022-10-24T08:43:36.000Z</time>
      </trkpt>
      <trkpt lat="27.893523" lon="86.827482">
        <ele>4435.2</ele>
        <time>2022-10-24T08:43:38.000Z</time>
      </trkpt>
      <trkpt lat="27.893504" lon="86.827462">
        <ele>4434.6</ele>
        <time>2022-10-24T08:43:41.000Z</time>
      </trkpt>
      <trkpt lat="27.893498" lon="86.827443">
        <ele>4434.4</ele>
        <time>2022-10-24T08:43:42.000Z</time>
      </trkpt>
      <trkpt lat="27.893494" lon="86.827405">
        <ele>4434.2</ele>
        <time>2022-10-24T08:43:45.000Z</time>
      </trkpt>
      <trkpt lat="27.893488" lon="86.827386">
        <ele>4433.8</ele>
        <time>2022-10-24T08:43:47.000Z</time>
      </trkpt>
      <trkpt lat="27.893485" lon="86.82736">
        <ele>4433.6</ele>
        <time>2022-10-24T08:43:49.000Z</time>
      </trkpt>
      <trkpt lat="27.893491" lon="86.827341">
        <ele>4433.4</ele>
        <time>2022-10-24T08:43:52.000Z</time>
      </trkpt>
      <trkpt lat="27.893482" lon="86.827315">
        <ele>4433.2</ele>
        <time>2022-10-24T08:44:15.000Z</time>
      </trkpt>
      <trkpt lat="27.893475" lon="86.827296">
        <ele>4433.6</ele>
        <time>2022-10-24T08:44:16.000Z</time>
      </trkpt>
      <trkpt lat="27.893466" lon="86.827277">
        <ele>4433.6</ele>
        <time>2022-10-24T08:44:17.000Z</time>
      </trkpt>
      <trkpt lat="27.893456" lon="86.827258">
        <ele>4433.6</ele>
        <time>2022-10-24T08:44:18.000Z</time>
      </trkpt>
      <trkpt lat="27.89345" lon="86.827238">
        <ele>4433.6</ele>
        <time>2022-10-24T08:44:19.000Z</time>
      </trkpt>
      <trkpt lat="27.89343" lon="86.827219">
        <ele>4433.2</ele>
        <time>2022-10-24T08:44:21.000Z</time>
      </trkpt>
      <trkpt lat="27.893421" lon="86.8272">
        <ele>4433.2</ele>
        <time>2022-10-24T08:44:22.000Z</time>
      </trkpt>
      <trkpt lat="27.893402" lon="86.827174">
        <ele>4432.4</ele>
        <time>2022-10-24T08:44:24.000Z</time>
      </trkpt>
      <trkpt lat="27.893386" lon="86.827149">
        <ele>4432.4</ele>
        <time>2022-10-24T08:44:26.000Z</time>
      </trkpt>
      <trkpt lat="27.893366" lon="86.827123">
        <ele>4433</ele>
        <time>2022-10-24T08:44:28.000Z</time>
      </trkpt>
      <trkpt lat="27.893354" lon="86.827104">
        <ele>4433.2</ele>
        <time>2022-10-24T08:44:30.000Z</time>
      </trkpt>
      <trkpt lat="27.893338" lon="86.827078">
        <ele>4433</ele>
        <time>2022-10-24T08:44:32.000Z</time>
      </trkpt>
      <trkpt lat="27.893325" lon="86.827059">
        <ele>4432.4</ele>
        <time>2022-10-24T08:44:34.000Z</time>
      </trkpt>
      <trkpt lat="27.893312" lon="86.827034">
        <ele>4431.6</ele>
        <time>2022-10-24T08:44:36.000Z</time>
      </trkpt>
      <trkpt lat="27.893293" lon="86.827008">
        <ele>4431.6</ele>
        <time>2022-10-24T08:44:38.000Z</time>
      </trkpt>
      <trkpt lat="27.893274" lon="86.826989">
        <ele>4431.4</ele>
        <time>2022-10-24T08:44:40.000Z</time>
      </trkpt>
      <trkpt lat="27.893261" lon="86.826963">
        <ele>4430.6</ele>
        <time>2022-10-24T08:44:42.000Z</time>
      </trkpt>
      <trkpt lat="27.893242" lon="86.826944">
        <ele>4430.4</ele>
        <time>2022-10-24T08:44:44.000Z</time>
      </trkpt>
      <trkpt lat="27.893229" lon="86.826918">
        <ele>4430</ele>
        <time>2022-10-24T08:44:46.000Z</time>
      </trkpt>
      <trkpt lat="27.893213" lon="86.826899">
        <ele>4429.2</ele>
        <time>2022-10-24T08:44:48.000Z</time>
      </trkpt>
      <trkpt lat="27.893194" lon="86.82688">
        <ele>4429.2</ele>
        <time>2022-10-24T08:44:50.000Z</time>
      </trkpt>
      <trkpt lat="27.893181" lon="86.826861">
        <ele>4429.2</ele>
        <time>2022-10-24T08:44:52.000Z</time>
      </trkpt>
      <trkpt lat="27.893165" lon="86.826848">
        <ele>4429.2</ele>
        <time>2022-10-24T08:44:53.000Z</time>
      </trkpt>
      <trkpt lat="27.893146" lon="86.826835">
        <ele>4429.2</ele>
        <time>2022-10-24T08:44:55.000Z</time>
      </trkpt>
      <trkpt lat="27.893123" lon="86.826829">
        <ele>4429.2</ele>
        <time>2022-10-24T08:44:57.000Z</time>
      </trkpt>
      <trkpt lat="27.893101" lon="86.826835">
        <ele>4429.2</ele>
        <time>2022-10-24T08:44:59.000Z</time>
      </trkpt>
      <trkpt lat="27.893059" lon="86.826848">
        <ele>4426.8</ele>
        <time>2022-10-24T08:45:28.000Z</time>
      </trkpt>
      <trkpt lat="27.89304" lon="86.826842">
        <ele>4426.4</ele>
        <time>2022-10-24T08:45:30.000Z</time>
      </trkpt>
      <trkpt lat="27.893018" lon="86.826829">
        <ele>4425.6</ele>
        <time>2022-10-24T08:45:32.000Z</time>
      </trkpt>
      <trkpt lat="27.892995" lon="86.826822">
        <ele>4425.4</ele>
        <time>2022-10-24T08:45:34.000Z</time>
      </trkpt>
      <trkpt lat="27.89295" lon="86.826803">
        <ele>4425</ele>
        <time>2022-10-24T08:45:40.000Z</time>
      </trkpt>
      <trkpt lat="27.892928" lon="86.826797">
        <ele>4425</ele>
        <time>2022-10-24T08:45:44.000Z</time>
      </trkpt>
      <trkpt lat="27.892906" lon="86.82679">
        <ele>4423.8</ele>
        <time>2022-10-24T08:45:47.000Z</time>
      </trkpt>
      <trkpt lat="27.89289" lon="86.826778">
        <ele>4422.8</ele>
        <time>2022-10-24T08:45:51.000Z</time>
      </trkpt>
      <trkpt lat="27.892874" lon="86.826765">
        <ele>4423</ele>
        <time>2022-10-24T08:45:54.000Z</time>
      </trkpt>
      <trkpt lat="27.892851" lon="86.826758">
        <ele>4421.8</ele>
        <time>2022-10-24T08:45:57.000Z</time>
      </trkpt>
      <trkpt lat="27.892832" lon="86.826746">
        <ele>4421</ele>
        <time>2022-10-24T08:46:00.000Z</time>
      </trkpt>
      <trkpt lat="27.89281" lon="86.826726">
        <ele>4421.2</ele>
        <time>2022-10-24T08:46:03.000Z</time>
      </trkpt>
      <trkpt lat="27.89279" lon="86.82672">
        <ele>4420.2</ele>
        <time>2022-10-24T08:46:06.000Z</time>
      </trkpt>
      <trkpt lat="27.892768" lon="86.826714">
        <ele>4420.6</ele>
        <time>2022-10-24T08:46:10.000Z</time>
      </trkpt>
      <trkpt lat="27.892746" lon="86.826714">
        <ele>4419.8</ele>
        <time>2022-10-24T08:46:13.000Z</time>
      </trkpt>
      <trkpt lat="27.892723" lon="86.826707">
        <ele>4419.2</ele>
        <time>2022-10-24T08:46:17.000Z</time>
      </trkpt>
      <trkpt lat="27.892701" lon="86.826707">
        <ele>4418.6</ele>
        <time>2022-10-24T08:46:22.000Z</time>
      </trkpt>
      <trkpt lat="27.892682" lon="86.826701">
        <ele>4417.8</ele>
        <time>2022-10-24T08:46:25.000Z</time>
      </trkpt>
      <trkpt lat="27.892662" lon="86.826688">
        <ele>4416.2</ele>
        <time>2022-10-24T08:46:28.000Z</time>
      </trkpt>
      <trkpt lat="27.892643" lon="86.826682">
        <ele>4415.4</ele>
        <time>2022-10-24T08:46:31.000Z</time>
      </trkpt>
      <trkpt lat="27.892624" lon="86.826675">
        <ele>4415.2</ele>
        <time>2022-10-24T08:46:34.000Z</time>
      </trkpt>
      <trkpt lat="27.892598" lon="86.826675">
        <ele>4415</ele>
        <time>2022-10-24T08:46:43.000Z</time>
      </trkpt>
      <trkpt lat="27.892579" lon="86.826669">
        <ele>4413.6</ele>
        <time>2022-10-24T08:46:47.000Z</time>
      </trkpt>
      <trkpt lat="27.89256" lon="86.826662">
        <ele>4412.8</ele>
        <time>2022-10-24T08:46:51.000Z</time>
      </trkpt>
      <trkpt lat="27.892538" lon="86.826662">
        <ele>4411.6</ele>
        <time>2022-10-24T08:46:55.000Z</time>
      </trkpt>
      <trkpt lat="27.892518" lon="86.826662">
        <ele>4410.6</ele>
        <time>2022-10-24T08:47:00.000Z</time>
      </trkpt>
      <trkpt lat="27.892499" lon="86.826669">
        <ele>4410</ele>
        <time>2022-10-24T08:47:04.000Z</time>
      </trkpt>
      <trkpt lat="27.89248" lon="86.826662">
        <ele>4409.2</ele>
        <time>2022-10-24T08:47:08.000Z</time>
      </trkpt>
      <trkpt lat="27.892464" lon="86.82665">
        <ele>4408.2</ele>
        <time>2022-10-24T08:47:13.000Z</time>
      </trkpt>
      <trkpt lat="27.892442" lon="86.826643">
        <ele>4407</ele>
        <time>2022-10-24T08:47:18.000Z</time>
      </trkpt>
      <trkpt lat="27.892422" lon="86.82663">
        <ele>4406.4</ele>
        <time>2022-10-24T08:47:21.000Z</time>
      </trkpt>
      <trkpt lat="27.8924" lon="86.826611">
        <ele>4405.6</ele>
        <time>2022-10-24T08:47:25.000Z</time>
      </trkpt>
      <trkpt lat="27.892381" lon="86.826592">
        <ele>4405.2</ele>
        <time>2022-10-24T08:47:28.000Z</time>
      </trkpt>
      <trkpt lat="27.892362" lon="86.826586">
        <ele>4404.8</ele>
        <time>2022-10-24T08:47:31.000Z</time>
      </trkpt>
      <trkpt lat="27.892352" lon="86.826566">
        <ele>4404.4</ele>
        <time>2022-10-24T08:47:33.000Z</time>
      </trkpt>
      <trkpt lat="27.892333" lon="86.826554">
        <ele>4404</ele>
        <time>2022-10-24T08:47:36.000Z</time>
      </trkpt>
      <trkpt lat="27.892314" lon="86.826541">
        <ele>4403.8</ele>
        <time>2022-10-24T08:47:38.000Z</time>
      </trkpt>
      <trkpt lat="27.892294" lon="86.826528">
        <ele>4402.4</ele>
        <time>2022-10-24T08:47:41.000Z</time>
      </trkpt>
      <trkpt lat="27.892275" lon="86.826515">
        <ele>4402</ele>
        <time>2022-10-24T08:47:44.000Z</time>
      </trkpt>
      <trkpt lat="27.892256" lon="86.826509">
        <ele>4401.4</ele>
        <time>2022-10-24T08:47:48.000Z</time>
      </trkpt>
      <trkpt lat="27.892243" lon="86.82649">
        <ele>4401.4</ele>
        <time>2022-10-24T08:47:50.000Z</time>
      </trkpt>
      <trkpt lat="27.892221" lon="86.82647">
        <ele>4400.6</ele>
        <time>2022-10-24T08:47:55.000Z</time>
      </trkpt>
      <trkpt lat="27.892211" lon="86.826451">
        <ele>4399.6</ele>
        <time>2022-10-24T08:47:58.000Z</time>
      </trkpt>
      <trkpt lat="27.892195" lon="86.826438">
        <ele>4399.2</ele>
        <time>2022-10-24T08:48:01.000Z</time>
      </trkpt>
      <trkpt lat="27.892176" lon="86.826438">
        <ele>4399.6</ele>
        <time>2022-10-24T08:48:04.000Z</time>
      </trkpt>
      <trkpt lat="27.89216" lon="86.826426">
        <ele>4398</ele>
        <time>2022-10-24T08:48:07.000Z</time>
      </trkpt>
      <trkpt lat="27.89215" lon="86.826406">
        <ele>4397.4</ele>
        <time>2022-10-24T08:48:09.000Z</time>
      </trkpt>
      <trkpt lat="27.892131" lon="86.826394">
        <ele>4396.8</ele>
        <time>2022-10-24T08:48:13.000Z</time>
      </trkpt>
      <trkpt lat="27.892112" lon="86.8264">
        <ele>4396</ele>
        <time>2022-10-24T08:48:19.000Z</time>
      </trkpt>
      <trkpt lat="27.892093" lon="86.826394">
        <ele>4395.6</ele>
        <time>2022-10-24T08:48:22.000Z</time>
      </trkpt>
      <trkpt lat="27.892074" lon="86.826381">
        <ele>4394.6</ele>
        <time>2022-10-24T08:48:25.000Z</time>
      </trkpt>
      <trkpt lat="27.892064" lon="86.826362">
        <ele>4394.2</ele>
        <time>2022-10-24T08:48:27.000Z</time>
      </trkpt>
      <trkpt lat="27.892051" lon="86.826342">
        <ele>4394.2</ele>
        <time>2022-10-24T08:48:30.000Z</time>
      </trkpt>
      <trkpt lat="27.892035" lon="86.826323">
        <ele>4394.2</ele>
        <time>2022-10-24T08:48:34.000Z</time>
      </trkpt>
      <trkpt lat="27.892016" lon="86.82631">
        <ele>4392.8</ele>
        <time>2022-10-24T08:48:37.000Z</time>
      </trkpt>
      <trkpt lat="27.891994" lon="86.826304">
        <ele>4391.8</ele>
        <time>2022-10-24T08:48:41.000Z</time>
      </trkpt>
      <trkpt lat="27.891974" lon="86.826291">
        <ele>4391.6</ele>
        <time>2022-10-24T08:48:44.000Z</time>
      </trkpt>
      <trkpt lat="27.891955" lon="86.826278">
        <ele>4391.2</ele>
        <time>2022-10-24T08:48:47.000Z</time>
      </trkpt>
      <trkpt lat="27.891939" lon="86.826266">
        <ele>4390</ele>
        <time>2022-10-24T08:48:50.000Z</time>
      </trkpt>
      <trkpt lat="27.891923" lon="86.826253">
        <ele>4389.4</ele>
        <time>2022-10-24T08:48:53.000Z</time>
      </trkpt>
      <trkpt lat="27.891898" lon="86.826246">
        <ele>4388.2</ele>
        <time>2022-10-24T08:48:58.000Z</time>
      </trkpt>
      <trkpt lat="27.891878" lon="86.82624">
        <ele>4387.4</ele>
        <time>2022-10-24T08:49:01.000Z</time>
      </trkpt>
      <trkpt lat="27.891862" lon="86.826227">
        <ele>4387</ele>
        <time>2022-10-24T08:49:05.000Z</time>
      </trkpt>
      <trkpt lat="27.891843" lon="86.826227">
        <ele>4386.2</ele>
        <time>2022-10-24T08:49:08.000Z</time>
      </trkpt>
      <trkpt lat="27.891824" lon="86.826221">
        <ele>4386</ele>
        <time>2022-10-24T08:49:11.000Z</time>
      </trkpt>
      <trkpt lat="27.891802" lon="86.826234">
        <ele>4385.4</ele>
        <time>2022-10-24T08:49:19.000Z</time>
      </trkpt>
      <trkpt lat="27.891779" lon="86.826221">
        <ele>4384</ele>
        <time>2022-10-24T08:49:23.000Z</time>
      </trkpt>
      <trkpt lat="27.89176" lon="86.826208">
        <ele>4383.6</ele>
        <time>2022-10-24T08:49:26.000Z</time>
      </trkpt>
      <trkpt lat="27.891744" lon="86.826221">
        <ele>4383.4</ele>
        <time>2022-10-24T08:49:29.000Z</time>
      </trkpt>
      <trkpt lat="27.891725" lon="86.826208">
        <ele>4382.2</ele>
        <time>2022-10-24T08:49:33.000Z</time>
      </trkpt>
      <trkpt lat="27.891706" lon="86.826195">
        <ele>4382</ele>
        <time>2022-10-24T08:49:36.000Z</time>
      </trkpt>
      <trkpt lat="27.891686" lon="86.826189">
        <ele>4381.8</ele>
        <time>2022-10-24T08:49:39.000Z</time>
      </trkpt>
      <trkpt lat="27.891661" lon="86.826195">
        <ele>4381.2</ele>
        <time>2022-10-24T08:49:42.000Z</time>
      </trkpt>
      <trkpt lat="27.891635" lon="86.826189">
        <ele>4380.4</ele>
        <time>2022-10-24T08:49:48.000Z</time>
      </trkpt>
      <trkpt lat="27.89161" lon="86.826182">
        <ele>4379.8</ele>
        <time>2022-10-24T08:49:51.000Z</time>
      </trkpt>
      <trkpt lat="27.891584" lon="86.826182">
        <ele>4379.4</ele>
        <time>2022-10-24T08:49:54.000Z</time>
      </trkpt>
      <trkpt lat="27.891558" lon="86.826189">
        <ele>4379.2</ele>
        <time>2022-10-24T08:49:57.000Z</time>
      </trkpt>
      <trkpt lat="27.891539" lon="86.826195">
        <ele>4378.8</ele>
        <time>2022-10-24T08:49:59.000Z</time>
      </trkpt>
      <trkpt lat="27.891517" lon="86.826195">
        <ele>4378.8</ele>
        <time>2022-10-24T08:50:01.000Z</time>
      </trkpt>
      <trkpt lat="27.891494" lon="86.82617">
        <ele>4378.2</ele>
        <time>2022-10-24T08:50:04.000Z</time>
      </trkpt>
      <trkpt lat="27.891485" lon="86.82615">
        <ele>4378</ele>
        <time>2022-10-24T08:50:07.000Z</time>
      </trkpt>
      <trkpt lat="27.891475" lon="86.826131">
        <ele>4378</ele>
        <time>2022-10-24T08:50:08.000Z</time>
      </trkpt>
      <trkpt lat="27.891456" lon="86.826125">
        <ele>4378</ele>
        <time>2022-10-24T08:50:10.000Z</time>
      </trkpt>
      <trkpt lat="27.891437" lon="86.826125">
        <ele>4377.6</ele>
        <time>2022-10-24T08:50:12.000Z</time>
      </trkpt>
      <trkpt lat="27.891418" lon="86.826118">
        <ele>4377.2</ele>
        <time>2022-10-24T08:50:14.000Z</time>
      </trkpt>
      <trkpt lat="27.891398" lon="86.826125">
        <ele>4377</ele>
        <time>2022-10-24T08:50:16.000Z</time>
      </trkpt>
      <trkpt lat="27.891379" lon="86.826118">
        <ele>4377.6</ele>
        <time>2022-10-24T08:50:18.000Z</time>
      </trkpt>
      <trkpt lat="27.89136" lon="86.826112">
        <ele>4378</ele>
        <time>2022-10-24T08:50:21.000Z</time>
      </trkpt>
      <trkpt lat="27.891344" lon="86.826093">
        <ele>4378</ele>
        <time>2022-10-24T08:50:23.000Z</time>
      </trkpt>
      <trkpt lat="27.891318" lon="86.826086">
        <ele>4378</ele>
        <time>2022-10-24T08:50:26.000Z</time>
      </trkpt>
      <trkpt lat="27.891299" lon="86.82608">
        <ele>4377.6</ele>
        <time>2022-10-24T08:50:30.000Z</time>
      </trkpt>
      <trkpt lat="27.891277" lon="86.826074">
        <ele>4378.6</ele>
        <time>2022-10-24T08:50:36.000Z</time>
      </trkpt>
      <trkpt lat="27.891258" lon="86.826067">
        <ele>4378.6</ele>
        <time>2022-10-24T08:50:38.000Z</time>
      </trkpt>
      <trkpt lat="27.891245" lon="86.826048">
        <ele>4378.6</ele>
        <time>2022-10-24T08:50:40.000Z</time>
      </trkpt>
      <trkpt lat="27.891226" lon="86.826035">
        <ele>4378.4</ele>
        <time>2022-10-24T08:50:43.000Z</time>
      </trkpt>
      <trkpt lat="27.891203" lon="86.82601">
        <ele>4378.6</ele>
        <time>2022-10-24T08:50:46.000Z</time>
      </trkpt>
      <trkpt lat="27.891181" lon="86.825997">
        <ele>4378.8</ele>
        <time>2022-10-24T08:50:49.000Z</time>
      </trkpt>
      <trkpt lat="27.891162" lon="86.825971">
        <ele>4378.8</ele>
        <time>2022-10-24T08:50:52.000Z</time>
      </trkpt>
      <trkpt lat="27.891139" lon="86.825958">
        <ele>4378.4</ele>
        <time>2022-10-24T08:50:55.000Z</time>
      </trkpt>
      <trkpt lat="27.89112" lon="86.825952">
        <ele>4378.6</ele>
        <time>2022-10-24T08:50:58.000Z</time>
      </trkpt>
      <trkpt lat="27.891094" lon="86.825946">
        <ele>4378.2</ele>
        <time>2022-10-24T08:51:01.000Z</time>
      </trkpt>
      <trkpt lat="27.891069" lon="86.825952">
        <ele>4378.4</ele>
        <time>2022-10-24T08:51:04.000Z</time>
      </trkpt>
      <trkpt lat="27.891043" lon="86.825952">
        <ele>4378</ele>
        <time>2022-10-24T08:51:07.000Z</time>
      </trkpt>
      <trkpt lat="27.891024" lon="86.825952">
        <ele>4378</ele>
        <time>2022-10-24T08:51:10.000Z</time>
      </trkpt>
      <trkpt lat="27.890998" lon="86.825946">
        <ele>4377.4</ele>
        <time>2022-10-24T08:51:13.000Z</time>
      </trkpt>
      <trkpt lat="27.890982" lon="86.825926">
        <ele>4377.2</ele>
        <time>2022-10-24T08:51:16.000Z</time>
      </trkpt>
      <trkpt lat="27.890963" lon="86.82592">
        <ele>4375.8</ele>
        <time>2022-10-24T08:51:19.000Z</time>
      </trkpt>
      <trkpt lat="27.890941" lon="86.825914">
        <ele>4376</ele>
        <time>2022-10-24T08:51:22.000Z</time>
      </trkpt>
      <trkpt lat="27.890918" lon="86.825907">
        <ele>4375.6</ele>
        <time>2022-10-24T08:51:25.000Z</time>
      </trkpt>
      <trkpt lat="27.890896" lon="86.825888">
        <ele>4374.8</ele>
        <time>2022-10-24T08:51:28.000Z</time>
      </trkpt>
      <trkpt lat="27.890874" lon="86.825888">
        <ele>4374</ele>
        <time>2022-10-24T08:51:31.000Z</time>
      </trkpt>
      <trkpt lat="27.890854" lon="86.825888">
        <ele>4373.6</ele>
        <time>2022-10-24T08:51:34.000Z</time>
      </trkpt>
      <trkpt lat="27.890832" lon="86.825888">
        <ele>4373.4</ele>
        <time>2022-10-24T08:51:43.000Z</time>
      </trkpt>
      <trkpt lat="27.89081" lon="86.825894">
        <ele>4371.8</ele>
        <time>2022-10-24T08:51:47.000Z</time>
      </trkpt>
      <trkpt lat="27.890794" lon="86.825907">
        <ele>4370.8</ele>
        <time>2022-10-24T08:51:50.000Z</time>
      </trkpt>
      <trkpt lat="27.890774" lon="86.825907">
        <ele>4370</ele>
        <time>2022-10-24T08:51:54.000Z</time>
      </trkpt>
      <trkpt lat="27.890755" lon="86.825914">
        <ele>4369</ele>
        <time>2022-10-24T08:51:57.000Z</time>
      </trkpt>
      <trkpt lat="27.890736" lon="86.825914">
        <ele>4368</ele>
        <time>2022-10-24T08:52:01.000Z</time>
      </trkpt>
      <trkpt lat="27.89072" lon="86.825926">
        <ele>4367</ele>
        <time>2022-10-24T08:52:06.000Z</time>
      </trkpt>
      <trkpt lat="27.890701" lon="86.825926">
        <ele>4366.2</ele>
        <time>2022-10-24T08:52:09.000Z</time>
      </trkpt>
      <trkpt lat="27.890682" lon="86.825926">
        <ele>4366.6</ele>
        <time>2022-10-24T08:52:12.000Z</time>
      </trkpt>
      <trkpt lat="27.890662" lon="86.825933">
        <ele>4365.4</ele>
        <time>2022-10-24T08:52:19.000Z</time>
      </trkpt>
      <trkpt lat="27.890646" lon="86.825946">
        <ele>4365.4</ele>
        <time>2022-10-24T08:52:22.000Z</time>
      </trkpt>
      <trkpt lat="27.890624" lon="86.825952">
        <ele>4364.4</ele>
        <time>2022-10-24T08:52:26.000Z</time>
      </trkpt>
      <trkpt lat="27.890602" lon="86.825965">
        <ele>4363.8</ele>
        <time>2022-10-24T08:52:29.000Z</time>
      </trkpt>
      <trkpt lat="27.890579" lon="86.825971">
        <ele>4363.6</ele>
        <time>2022-10-24T08:52:32.000Z</time>
      </trkpt>
      <trkpt lat="27.890563" lon="86.82599">
        <ele>4363.4</ele>
        <time>2022-10-24T08:52:35.000Z</time>
      </trkpt>
      <trkpt lat="27.890541" lon="86.826003">
        <ele>4362.4</ele>
        <time>2022-10-24T08:52:39.000Z</time>
      </trkpt>
      <trkpt lat="27.890522" lon="86.82601">
        <ele>4361.6</ele>
        <time>2022-10-24T08:52:42.000Z</time>
      </trkpt>
      <trkpt lat="27.890499" lon="86.826022">
        <ele>4361.2</ele>
        <time>2022-10-24T08:52:45.000Z</time>
      </trkpt>
      <trkpt lat="27.89048" lon="86.826035">
        <ele>4360.4</ele>
        <time>2022-10-24T08:52:49.000Z</time>
      </trkpt>
      <trkpt lat="27.890458" lon="86.826042">
        <ele>4359.6</ele>
        <time>2022-10-24T08:52:53.000Z</time>
      </trkpt>
      <trkpt lat="27.890442" lon="86.826054">
        <ele>4359.2</ele>
        <time>2022-10-24T08:52:56.000Z</time>
      </trkpt>
      <trkpt lat="27.890422" lon="86.826067">
        <ele>4358.2</ele>
        <time>2022-10-24T08:52:59.000Z</time>
      </trkpt>
      <trkpt lat="27.890403" lon="86.826067">
        <ele>4357.6</ele>
        <time>2022-10-24T08:53:03.000Z</time>
      </trkpt>
      <trkpt lat="27.890397" lon="86.826086">
        <ele>4356.8</ele>
        <time>2022-10-24T08:53:09.000Z</time>
      </trkpt>
      <trkpt lat="27.890374" lon="86.826093">
        <ele>4353</ele>
        <time>2022-10-24T08:53:38.000Z</time>
      </trkpt>
      <trkpt lat="27.890349" lon="86.826112">
        <ele>4352.4</ele>
        <time>2022-10-24T08:53:40.000Z</time>
      </trkpt>
      <trkpt lat="27.890323" lon="86.826112">
        <ele>4351.6</ele>
        <time>2022-10-24T08:53:42.000Z</time>
      </trkpt>
      <trkpt lat="27.890294" lon="86.826118">
        <ele>4351.2</ele>
        <time>2022-10-24T08:53:44.000Z</time>
      </trkpt>
      <trkpt lat="27.890269" lon="86.826131">
        <ele>4350.8</ele>
        <time>2022-10-24T08:53:46.000Z</time>
      </trkpt>
      <trkpt lat="27.89025" lon="86.826131">
        <ele>4350.4</ele>
        <time>2022-10-24T08:53:48.000Z</time>
      </trkpt>
      <trkpt lat="27.890234" lon="86.826144">
        <ele>4349.2</ele>
        <time>2022-10-24T08:53:51.000Z</time>
      </trkpt>
      <trkpt lat="27.890214" lon="86.82615">
        <ele>4349.8</ele>
        <time>2022-10-24T08:53:53.000Z</time>
      </trkpt>
      <trkpt lat="27.890195" lon="86.826163">
        <ele>4348</ele>
        <time>2022-10-24T08:53:57.000Z</time>
      </trkpt>
      <trkpt lat="27.89017" lon="86.826163">
        <ele>4348.4</ele>
        <time>2022-10-24T08:54:00.000Z</time>
      </trkpt>
      <trkpt lat="27.89015" lon="86.82617">
        <ele>4346.8</ele>
        <time>2022-10-24T08:54:03.000Z</time>
      </trkpt>
      <trkpt lat="27.890144" lon="86.826189">
        <ele>4347.6</ele>
        <time>2022-10-24T08:54:06.000Z</time>
      </trkpt>
      <trkpt lat="27.890122" lon="86.826202">
        <ele>4346</ele>
        <time>2022-10-24T08:54:10.000Z</time>
      </trkpt>
      <trkpt lat="27.890115" lon="86.826221">
        <ele>4346</ele>
        <time>2022-10-24T08:54:13.000Z</time>
      </trkpt>
      <trkpt lat="27.890118" lon="86.826246">
        <ele>4345</ele>
        <time>2022-10-24T08:54:16.000Z</time>
      </trkpt>
      <trkpt lat="27.890125" lon="86.826266">
        <ele>4344.8</ele>
        <time>2022-10-24T08:54:18.000Z</time>
      </trkpt>
      <trkpt lat="27.890118" lon="86.826304">
        <ele>4343</ele>
        <time>2022-10-24T08:54:22.000Z</time>
      </trkpt>
      <trkpt lat="27.890099" lon="86.82631">
        <ele>4343.6</ele>
        <time>2022-10-24T08:54:25.000Z</time>
      </trkpt>
      <trkpt lat="27.890083" lon="86.826323">
        <ele>4341.8</ele>
        <time>2022-10-24T08:54:31.000Z</time>
      </trkpt>
      <trkpt lat="27.89007" lon="86.826342">
        <ele>4343</ele>
        <time>2022-10-24T08:54:33.000Z</time>
      </trkpt>
      <trkpt lat="27.890048" lon="86.826342">
        <ele>4342.4</ele>
        <time>2022-10-24T08:54:36.000Z</time>
      </trkpt>
      <trkpt lat="27.890026" lon="86.826342">
        <ele>4340.4</ele>
        <time>2022-10-24T08:54:39.000Z</time>
      </trkpt>
      <trkpt lat="27.89001" lon="86.82633">
        <ele>4341</ele>
        <time>2022-10-24T08:55:12.000Z</time>
      </trkpt>
      <trkpt lat="27.890006" lon="86.826362">
        <ele>4339.8</ele>
        <time>2022-10-24T08:55:14.000Z</time>
      </trkpt>
      <trkpt lat="27.890013" lon="86.826387">
        <ele>4339.4</ele>
        <time>2022-10-24T08:55:16.000Z</time>
      </trkpt>
      <trkpt lat="27.890022" lon="86.826406">
        <ele>4339.2</ele>
        <time>2022-10-24T08:55:18.000Z</time>
      </trkpt>
      <trkpt lat="27.890016" lon="86.826451">
        <ele>4339</ele>
        <time>2022-10-24T08:55:24.000Z</time>
      </trkpt>
      <trkpt lat="27.890013" lon="86.826477">
        <ele>4338</ele>
        <time>2022-10-24T08:55:29.000Z</time>
      </trkpt>
      <trkpt lat="27.890006" lon="86.826502">
        <ele>4337.4</ele>
        <time>2022-10-24T08:55:32.000Z</time>
      </trkpt>
      <trkpt lat="27.89" lon="86.826522">
        <ele>4336.8</ele>
        <time>2022-10-24T08:55:36.000Z</time>
      </trkpt>
      <trkpt lat="27.889997" lon="86.826554">
        <ele>4335.6</ele>
        <time>2022-10-24T08:55:39.000Z</time>
      </trkpt>
      <trkpt lat="27.889994" lon="86.826579">
        <ele>4335.2</ele>
        <time>2022-10-24T08:55:42.000Z</time>
      </trkpt>
      <trkpt lat="27.889987" lon="86.826611">
        <ele>4335</ele>
        <time>2022-10-24T08:55:45.000Z</time>
      </trkpt>
      <trkpt lat="27.889981" lon="86.826637">
        <ele>4334.8</ele>
        <time>2022-10-24T08:55:47.000Z</time>
      </trkpt>
      <trkpt lat="27.889968" lon="86.826662">
        <ele>4334.2</ele>
        <time>2022-10-24T08:55:49.000Z</time>
      </trkpt>
      <trkpt lat="27.889946" lon="86.826675">
        <ele>4333.8</ele>
        <time>2022-10-24T08:55:52.000Z</time>
      </trkpt>
      <trkpt lat="27.889926" lon="86.826682">
        <ele>4334</ele>
        <time>2022-10-24T08:55:54.000Z</time>
      </trkpt>
      <trkpt lat="27.889907" lon="86.826682">
        <ele>4333.8</ele>
        <time>2022-10-24T08:55:56.000Z</time>
      </trkpt>
      <trkpt lat="27.889882" lon="86.826688">
        <ele>4333.2</ele>
        <time>2022-10-24T08:56:00.000Z</time>
      </trkpt>
      <trkpt lat="27.889862" lon="86.826688">
        <ele>4333</ele>
        <time>2022-10-24T08:56:03.000Z</time>
      </trkpt>
      <trkpt lat="27.88984" lon="86.826688">
        <ele>4332.2</ele>
        <time>2022-10-24T08:56:07.000Z</time>
      </trkpt>
      <trkpt lat="27.889821" lon="86.826701">
        <ele>4331.4</ele>
        <time>2022-10-24T08:56:11.000Z</time>
      </trkpt>
      <trkpt lat="27.889802" lon="86.826701">
        <ele>4330.6</ele>
        <time>2022-10-24T08:56:14.000Z</time>
      </trkpt>
      <trkpt lat="27.889782" lon="86.826701">
        <ele>4329.6</ele>
        <time>2022-10-24T08:56:17.000Z</time>
      </trkpt>
      <trkpt lat="27.88976" lon="86.826707">
        <ele>4328.2</ele>
        <time>2022-10-24T08:56:22.000Z</time>
      </trkpt>
      <trkpt lat="27.889741" lon="86.826701">
        <ele>4327.2</ele>
        <time>2022-10-24T08:56:26.000Z</time>
      </trkpt>
      <trkpt lat="27.889718" lon="86.826701">
        <ele>4326.4</ele>
        <time>2022-10-24T08:56:29.000Z</time>
      </trkpt>
      <trkpt lat="27.889693" lon="86.826701">
        <ele>4325.6</ele>
        <time>2022-10-24T08:56:32.000Z</time>
      </trkpt>
      <trkpt lat="27.889677" lon="86.826688">
        <ele>4325.2</ele>
        <time>2022-10-24T08:56:35.000Z</time>
      </trkpt>
      <trkpt lat="27.889654" lon="86.826688">
        <ele>4324</ele>
        <time>2022-10-24T08:56:41.000Z</time>
      </trkpt>
      <trkpt lat="27.889632" lon="86.826688">
        <ele>4323.8</ele>
        <time>2022-10-24T08:56:44.000Z</time>
      </trkpt>
      <trkpt lat="27.889613" lon="86.826688">
        <ele>4322.8</ele>
        <time>2022-10-24T08:56:47.000Z</time>
      </trkpt>
      <trkpt lat="27.889606" lon="86.826707">
        <ele>4322.4</ele>
        <time>2022-10-24T08:56:51.000Z</time>
      </trkpt>
      <trkpt lat="27.889594" lon="86.826739">
        <ele>4321.6</ele>
        <time>2022-10-24T08:56:54.000Z</time>
      </trkpt>
      <trkpt lat="27.889584" lon="86.826758">
        <ele>4320.6</ele>
        <time>2022-10-24T08:56:57.000Z</time>
      </trkpt>
      <trkpt lat="27.889574" lon="86.826784">
        <ele>4320.2</ele>
        <time>2022-10-24T08:56:59.000Z</time>
      </trkpt>
      <trkpt lat="27.889565" lon="86.826803">
        <ele>4319.8</ele>
        <time>2022-10-24T08:57:01.000Z</time>
      </trkpt>
      <trkpt lat="27.889552" lon="86.826822">
        <ele>4319.6</ele>
        <time>2022-10-24T08:57:03.000Z</time>
      </trkpt>
      <trkpt lat="27.889542" lon="86.826842">
        <ele>4320.2</ele>
        <time>2022-10-24T08:57:05.000Z</time>
      </trkpt>
      <trkpt lat="27.889536" lon="86.826861">
        <ele>4320.2</ele>
        <time>2022-10-24T08:57:06.000Z</time>
      </trkpt>
      <trkpt lat="27.88952" lon="86.826886">
        <ele>4319.8</ele>
        <time>2022-10-24T08:57:09.000Z</time>
      </trkpt>
      <trkpt lat="27.88951" lon="86.826906">
        <ele>4319.6</ele>
        <time>2022-10-24T08:57:11.000Z</time>
      </trkpt>
      <trkpt lat="27.889485" lon="86.826918">
        <ele>4318.6</ele>
        <time>2022-10-24T08:57:14.000Z</time>
      </trkpt>
      <trkpt lat="27.889478" lon="86.826938">
        <ele>4318.8</ele>
        <time>2022-10-24T08:57:16.000Z</time>
      </trkpt>
      <trkpt lat="27.889469" lon="86.826963">
        <ele>4319</ele>
        <time>2022-10-24T08:57:19.000Z</time>
      </trkpt>
      <trkpt lat="27.889462" lon="86.826989">
        <ele>4318.8</ele>
        <time>2022-10-24T08:57:21.000Z</time>
      </trkpt>
      <trkpt lat="27.889456" lon="86.827008">
        <ele>4318</ele>
        <time>2022-10-24T08:57:23.000Z</time>
      </trkpt>
      <trkpt lat="27.889453" lon="86.827034">
        <ele>4317.2</ele>
        <time>2022-10-24T08:57:25.000Z</time>
      </trkpt>
      <trkpt lat="27.889453" lon="86.827059">
        <ele>4316.6</ele>
        <time>2022-10-24T08:57:27.000Z</time>
      </trkpt>
      <trkpt lat="27.889456" lon="86.827098">
        <ele>4317</ele>
        <time>2022-10-24T08:57:30.000Z</time>
      </trkpt>
      <trkpt lat="27.889453" lon="86.827136">
        <ele>4316.8</ele>
        <time>2022-10-24T08:57:33.000Z</time>
      </trkpt>
      <trkpt lat="27.88945" lon="86.827162">
        <ele>4316.6</ele>
        <time>2022-10-24T08:57:36.000Z</time>
      </trkpt>
      <trkpt lat="27.889456" lon="86.827187">
        <ele>4316.6</ele>
        <time>2022-10-24T08:57:38.000Z</time>
      </trkpt>
      <trkpt lat="27.889456" lon="86.827219">
        <ele>4316.2</ele>
        <time>2022-10-24T08:57:41.000Z</time>
      </trkpt>
      <trkpt lat="27.88945" lon="86.827245">
        <ele>4316</ele>
        <time>2022-10-24T08:57:44.000Z</time>
      </trkpt>
      <trkpt lat="27.88945" lon="86.82727">
        <ele>4315.2</ele>
        <time>2022-10-24T08:57:46.000Z</time>
      </trkpt>
      <trkpt lat="27.889469" lon="86.827283">
        <ele>4316.4</ele>
        <time>2022-10-24T08:57:49.000Z</time>
      </trkpt>
      <trkpt lat="27.889485" lon="86.827296">
        <ele>4316.6</ele>
        <time>2022-10-24T08:57:51.000Z</time>
      </trkpt>
      <trkpt lat="27.889504" lon="86.827296">
        <ele>4317.2</ele>
        <time>2022-10-24T08:57:53.000Z</time>
      </trkpt>
      <trkpt lat="27.88952" lon="86.827309">
        <ele>4317.4</ele>
        <time>2022-10-24T08:57:56.000Z</time>
      </trkpt>
      <trkpt lat="27.889539" lon="86.827334">
        <ele>4318.2</ele>
        <time>2022-10-24T08:58:00.000Z</time>
      </trkpt>
      <trkpt lat="27.889558" lon="86.827347">
        <ele>4317.8</ele>
        <time>2022-10-24T08:58:04.000Z</time>
      </trkpt>
      <trkpt lat="27.889581" lon="86.827354">
        <ele>4318.4</ele>
        <time>2022-10-24T08:58:08.000Z</time>
      </trkpt>
      <trkpt lat="27.8896" lon="86.827373">
        <ele>4318.6</ele>
        <time>2022-10-24T08:58:11.000Z</time>
      </trkpt>
      <trkpt lat="27.889622" lon="86.827373">
        <ele>4319</ele>
        <time>2022-10-24T08:58:15.000Z</time>
      </trkpt>
      <trkpt lat="27.889645" lon="86.827386">
        <ele>4319</ele>
        <time>2022-10-24T08:58:18.000Z</time>
      </trkpt>
      <trkpt lat="27.889667" lon="86.827392">
        <ele>4319.2</ele>
        <time>2022-10-24T08:58:22.000Z</time>
      </trkpt>
      <trkpt lat="27.88969" lon="86.827392">
        <ele>4319.2</ele>
        <time>2022-10-24T08:58:27.000Z</time>
      </trkpt>
      <trkpt lat="27.889709" lon="86.827386">
        <ele>4320</ele>
        <time>2022-10-24T08:58:31.000Z</time>
      </trkpt>
      <trkpt lat="27.889728" lon="86.827386">
        <ele>4320</ele>
        <time>2022-10-24T08:58:35.000Z</time>
      </trkpt>
      <trkpt lat="27.889754" lon="86.827405">
        <ele>4320.4</ele>
        <time>2022-10-24T08:58:52.000Z</time>
      </trkpt>
      <trkpt lat="27.88976" lon="86.827424">
        <ele>4320.2</ele>
        <time>2022-10-24T08:58:53.000Z</time>
      </trkpt>
      <trkpt lat="27.889779" lon="86.827437">
        <ele>4320.2</ele>
        <time>2022-10-24T08:58:55.000Z</time>
      </trkpt>
      <trkpt lat="27.889789" lon="86.827456">
        <ele>4320.4</ele>
        <time>2022-10-24T08:58:56.000Z</time>
      </trkpt>
      <trkpt lat="27.889808" lon="86.827462">
        <ele>4320.2</ele>
        <time>2022-10-24T08:58:58.000Z</time>
      </trkpt>
      <trkpt lat="27.889824" lon="86.827475">
        <ele>4320.6</ele>
        <time>2022-10-24T08:59:00.000Z</time>
      </trkpt>
      <trkpt lat="27.88984" lon="86.827494">
        <ele>4320.8</ele>
        <time>2022-10-24T08:59:03.000Z</time>
      </trkpt>
      <trkpt lat="27.889859" lon="86.827501">
        <ele>4321</ele>
        <time>2022-10-24T08:59:07.000Z</time>
      </trkpt>
      <trkpt lat="27.889882" lon="86.827507">
        <ele>4321.6</ele>
        <time>2022-10-24T08:59:10.000Z</time>
      </trkpt>
      <trkpt lat="27.889904" lon="86.82752">
        <ele>4321.8</ele>
        <time>2022-10-24T08:59:13.000Z</time>
      </trkpt>
      <trkpt lat="27.88992" lon="86.827533">
        <ele>4321.8</ele>
        <time>2022-10-24T08:59:15.000Z</time>
      </trkpt>
      <trkpt lat="27.889946" lon="86.827539">
        <ele>4321.8</ele>
        <time>2022-10-24T08:59:18.000Z</time>
      </trkpt>
      <trkpt lat="27.889965" lon="86.827552">
        <ele>4321.2</ele>
        <time>2022-10-24T08:59:21.000Z</time>
      </trkpt>
      <trkpt lat="27.889981" lon="86.827571">
        <ele>4321.4</ele>
        <time>2022-10-24T08:59:23.000Z</time>
      </trkpt>
      <trkpt lat="27.88999" lon="86.82759">
        <ele>4321.6</ele>
        <time>2022-10-24T08:59:25.000Z</time>
      </trkpt>
      <trkpt lat="27.890006" lon="86.827616">
        <ele>4321.6</ele>
        <time>2022-10-24T08:59:28.000Z</time>
      </trkpt>
      <trkpt lat="27.890026" lon="86.827629">
        <ele>4321.4</ele>
        <time>2022-10-24T08:59:31.000Z</time>
      </trkpt>
      <trkpt lat="27.890048" lon="86.827642">
        <ele>4321.6</ele>
        <time>2022-10-24T08:59:34.000Z</time>
      </trkpt>
      <trkpt lat="27.890061" lon="86.827661">
        <ele>4321.6</ele>
        <time>2022-10-24T08:59:36.000Z</time>
      </trkpt>
      <trkpt lat="27.890077" lon="86.827674">
        <ele>4321.6</ele>
        <time>2022-10-24T08:59:39.000Z</time>
      </trkpt>
      <trkpt lat="27.890096" lon="86.827693">
        <ele>4321.6</ele>
        <time>2022-10-24T08:59:41.000Z</time>
      </trkpt>
      <trkpt lat="27.890115" lon="86.827712">
        <ele>4322</ele>
        <time>2022-10-24T08:59:45.000Z</time>
      </trkpt>
      <trkpt lat="27.890134" lon="86.827718">
        <ele>4322.4</ele>
        <time>2022-10-24T08:59:49.000Z</time>
      </trkpt>
      <trkpt lat="27.890154" lon="86.827731">
        <ele>4322.4</ele>
        <time>2022-10-24T08:59:52.000Z</time>
      </trkpt>
      <trkpt lat="27.890176" lon="86.827744">
        <ele>4322.8</ele>
        <time>2022-10-24T08:59:56.000Z</time>
      </trkpt>
      <trkpt lat="27.890195" lon="86.827757">
        <ele>4322.8</ele>
        <time>2022-10-24T08:59:59.000Z</time>
      </trkpt>
      <trkpt lat="27.890205" lon="86.827776">
        <ele>4322.8</ele>
        <time>2022-10-24T09:00:01.000Z</time>
      </trkpt>
      <trkpt lat="27.890224" lon="86.827789">
        <ele>4323.2</ele>
        <time>2022-10-24T09:00:04.000Z</time>
      </trkpt>
      <trkpt lat="27.890243" lon="86.827802">
        <ele>4323.4</ele>
        <time>2022-10-24T09:00:08.000Z</time>
      </trkpt>
      <trkpt lat="27.89025" lon="86.827821">
        <ele>4323.4</ele>
        <time>2022-10-24T09:00:11.000Z</time>
      </trkpt>
      <trkpt lat="27.890259" lon="86.82784">
        <ele>4323.6</ele>
        <time>2022-10-24T09:00:14.000Z</time>
      </trkpt>
      <trkpt lat="27.890266" lon="86.827859">
        <ele>4323.8</ele>
        <time>2022-10-24T09:00:17.000Z</time>
      </trkpt>
      <trkpt lat="27.890275" lon="86.827878">
        <ele>4324.6</ele>
        <time>2022-10-24T09:00:20.000Z</time>
      </trkpt>
      <trkpt lat="27.890288" lon="86.827898">
        <ele>4324.8</ele>
        <time>2022-10-24T09:00:22.000Z</time>
      </trkpt>
      <trkpt lat="27.890294" lon="86.827917">
        <ele>4324.8</ele>
        <time>2022-10-24T09:00:25.000Z</time>
      </trkpt>
      <trkpt lat="27.890298" lon="86.827942">
        <ele>4325.2</ele>
        <time>2022-10-24T09:00:28.000Z</time>
      </trkpt>
      <trkpt lat="27.890317" lon="86.827955">
        <ele>4325.4</ele>
        <time>2022-10-24T09:00:33.000Z</time>
      </trkpt>
      <trkpt lat="27.89033" lon="86.827974">
        <ele>4325.6</ele>
        <time>2022-10-24T09:00:36.000Z</time>
      </trkpt>
      <trkpt lat="27.890355" lon="86.827987">
        <ele>4326.4</ele>
        <time>2022-10-24T09:00:40.000Z</time>
      </trkpt>
      <trkpt lat="27.890374" lon="86.827994">
        <ele>4326</ele>
        <time>2022-10-24T09:00:43.000Z</time>
      </trkpt>
      <trkpt lat="27.890384" lon="86.828013">
        <ele>4325.8</ele>
        <time>2022-10-24T09:00:45.000Z</time>
      </trkpt>
      <trkpt lat="27.8904" lon="86.828032">
        <ele>4326</ele>
        <time>2022-10-24T09:00:49.000Z</time>
      </trkpt>
      <trkpt lat="27.89041" lon="86.828051">
        <ele>4326</ele>
        <time>2022-10-24T09:00:51.000Z</time>
      </trkpt>
      <trkpt lat="27.890429" lon="86.828064">
        <ele>4326</ele>
        <time>2022-10-24T09:00:55.000Z</time>
      </trkpt>
      <trkpt lat="27.890445" lon="86.82809">
        <ele>4325.8</ele>
        <time>2022-10-24T09:00:58.000Z</time>
      </trkpt>
      <trkpt lat="27.890464" lon="86.828096">
        <ele>4325.8</ele>
        <time>2022-10-24T09:01:01.000Z</time>
      </trkpt>
      <trkpt lat="27.89048" lon="86.828109">
        <ele>4326.2</ele>
        <time>2022-10-24T09:01:04.000Z</time>
      </trkpt>
      <trkpt lat="27.890493" lon="86.828128">
        <ele>4326.2</ele>
        <time>2022-10-24T09:01:07.000Z</time>
      </trkpt>
      <trkpt lat="27.890512" lon="86.828147">
        <ele>4327</ele>
        <time>2022-10-24T09:01:11.000Z</time>
      </trkpt>
      <trkpt lat="27.890525" lon="86.828173">
        <ele>4327</ele>
        <time>2022-10-24T09:01:15.000Z</time>
      </trkpt>
      <trkpt lat="27.890541" lon="86.828192">
        <ele>4327</ele>
        <time>2022-10-24T09:01:19.000Z</time>
      </trkpt>
      <trkpt lat="27.890547" lon="86.828211">
        <ele>4327</ele>
        <time>2022-10-24T09:01:21.000Z</time>
      </trkpt>
      <trkpt lat="27.890557" lon="86.82823">
        <ele>4327.2</ele>
        <time>2022-10-24T09:01:24.000Z</time>
      </trkpt>
      <trkpt lat="27.890573" lon="86.82825">
        <ele>4327.6</ele>
        <time>2022-10-24T09:01:27.000Z</time>
      </trkpt>
      <trkpt lat="27.890592" lon="86.828262">
        <ele>4327.6</ele>
        <time>2022-10-24T09:01:31.000Z</time>
      </trkpt>
      <trkpt lat="27.890614" lon="86.828275">
        <ele>4327.8</ele>
        <time>2022-10-24T09:01:35.000Z</time>
      </trkpt>
      <trkpt lat="27.890634" lon="86.828288">
        <ele>4327.8</ele>
        <time>2022-10-24T09:01:38.000Z</time>
      </trkpt>
      <trkpt lat="27.89065" lon="86.828301">
        <ele>4328</ele>
        <time>2022-10-24T09:01:41.000Z</time>
      </trkpt>
      <trkpt lat="27.890672" lon="86.828326">
        <ele>4328.6</ele>
        <time>2022-10-24T09:01:45.000Z</time>
      </trkpt>
      <trkpt lat="27.890688" lon="86.828339">
        <ele>4329.2</ele>
        <time>2022-10-24T09:01:49.000Z</time>
      </trkpt>
      <trkpt lat="27.890707" lon="86.828358">
        <ele>4329.6</ele>
        <time>2022-10-24T09:01:52.000Z</time>
      </trkpt>
      <trkpt lat="27.89072" lon="86.828378">
        <ele>4329.2</ele>
        <time>2022-10-24T09:01:55.000Z</time>
      </trkpt>
      <trkpt lat="27.890736" lon="86.828397">
        <ele>4329.4</ele>
        <time>2022-10-24T09:01:58.000Z</time>
      </trkpt>
      <trkpt lat="27.890746" lon="86.828416">
        <ele>4329.8</ele>
        <time>2022-10-24T09:02:00.000Z</time>
      </trkpt>
      <trkpt lat="27.890765" lon="86.828429">
        <ele>4329.4</ele>
        <time>2022-10-24T09:02:04.000Z</time>
      </trkpt>
      <trkpt lat="27.890774" lon="86.828448">
        <ele>4329.6</ele>
        <time>2022-10-24T09:02:06.000Z</time>
      </trkpt>
      <trkpt lat="27.890781" lon="86.828467">
        <ele>4329.6</ele>
        <time>2022-10-24T09:02:09.000Z</time>
      </trkpt>
      <trkpt lat="27.890797" lon="86.828486">
        <ele>4329.6</ele>
        <time>2022-10-24T09:02:12.000Z</time>
      </trkpt>
      <trkpt lat="27.890816" lon="86.828506">
        <ele>4329.6</ele>
        <time>2022-10-24T09:02:15.000Z</time>
      </trkpt>
      <trkpt lat="27.890826" lon="86.828525">
        <ele>4329.6</ele>
        <time>2022-10-24T09:02:17.000Z</time>
      </trkpt>
      <trkpt lat="27.890842" lon="86.828538">
        <ele>4330.4</ele>
        <time>2022-10-24T09:02:20.000Z</time>
      </trkpt>
      <trkpt lat="27.891021" lon="86.828109">
        <ele>4324.6</ele>
        <time>2022-10-25T02:40:53.000Z</time>
      </trkpt>
      <trkpt lat="27.89103" lon="86.82809">
        <ele>4324.6</ele>
        <time>2022-10-25T02:40:55.000Z</time>
      </trkpt>
      <trkpt lat="27.89104" lon="86.828064">
        <ele>4324.6</ele>
        <time>2022-10-25T02:40:57.000Z</time>
      </trkpt>
      <trkpt lat="27.891056" lon="86.828038">
        <ele>4324.2</ele>
        <time>2022-10-25T02:40:59.000Z</time>
      </trkpt>
      <trkpt lat="27.891075" lon="86.828032">
        <ele>4324.2</ele>
        <time>2022-10-25T02:41:01.000Z</time>
      </trkpt>
      <trkpt lat="27.891091" lon="86.828019">
        <ele>4324.2</ele>
        <time>2022-10-25T02:41:03.000Z</time>
      </trkpt>
      <trkpt lat="27.891114" lon="86.828">
        <ele>4324.2</ele>
        <time>2022-10-25T02:41:06.000Z</time>
      </trkpt>
      <trkpt lat="27.891133" lon="86.827987">
        <ele>4324.2</ele>
        <time>2022-10-25T02:41:08.000Z</time>
      </trkpt>
      <trkpt lat="27.891152" lon="86.827962">
        <ele>4324.4</ele>
        <time>2022-10-25T02:41:10.000Z</time>
      </trkpt>
      <trkpt lat="27.891168" lon="86.827949">
        <ele>4324.2</ele>
        <time>2022-10-25T02:41:12.000Z</time>
      </trkpt>
      <trkpt lat="27.89119" lon="86.827942">
        <ele>4324.4</ele>
        <time>2022-10-25T02:41:15.000Z</time>
      </trkpt>
      <trkpt lat="27.89121" lon="86.82793">
        <ele>4324.2</ele>
        <time>2022-10-25T02:41:17.000Z</time>
      </trkpt>
      <trkpt lat="27.891219" lon="86.82791">
        <ele>4324.2</ele>
        <time>2022-10-25T02:41:19.000Z</time>
      </trkpt>
      <trkpt lat="27.891242" lon="86.827898">
        <ele>4324.2</ele>
        <time>2022-10-25T02:41:21.000Z</time>
      </trkpt>
      <trkpt lat="27.891258" lon="86.827878">
        <ele>4323.8</ele>
        <time>2022-10-25T02:41:23.000Z</time>
      </trkpt>
      <trkpt lat="27.891277" lon="86.827859">
        <ele>4323.6</ele>
        <time>2022-10-25T02:41:27.000Z</time>
      </trkpt>
      <trkpt lat="27.89128" lon="86.827834">
        <ele>4323.8</ele>
        <time>2022-10-25T02:41:30.000Z</time>
      </trkpt>
      <trkpt lat="27.89128" lon="86.827802">
        <ele>4323.8</ele>
        <time>2022-10-25T02:41:35.000Z</time>
      </trkpt>
      <trkpt lat="27.891277" lon="86.82777">
        <ele>4323.8</ele>
        <time>2022-10-25T02:41:38.000Z</time>
      </trkpt>
      <trkpt lat="27.891277" lon="86.827744">
        <ele>4324.2</ele>
        <time>2022-10-25T02:41:41.000Z</time>
      </trkpt>
      <trkpt lat="27.891283" lon="86.827718">
        <ele>4324.2</ele>
        <time>2022-10-25T02:41:44.000Z</time>
      </trkpt>
      <trkpt lat="27.891299" lon="86.827699">
        <ele>4324.6</ele>
        <time>2022-10-25T02:41:48.000Z</time>
      </trkpt>
      <trkpt lat="27.891306" lon="86.82768">
        <ele>4324.8</ele>
        <time>2022-10-25T02:41:51.000Z</time>
      </trkpt>
      <trkpt lat="27.891312" lon="86.827661">
        <ele>4325.6</ele>
        <time>2022-10-25T02:41:56.000Z</time>
      </trkpt>
      <trkpt lat="27.891322" lon="86.827642">
        <ele>4326</ele>
        <time>2022-10-25T02:41:59.000Z</time>
      </trkpt>
      <trkpt lat="27.891341" lon="86.827635">
        <ele>4326.6</ele>
        <time>2022-10-25T02:42:03.000Z</time>
      </trkpt>
      <trkpt lat="27.891318" lon="86.827635">
        <ele>4326.6</ele>
        <time>2022-10-25T02:42:09.000Z</time>
      </trkpt>
      <trkpt lat="27.891299" lon="86.827629">
        <ele>4326.6</ele>
        <time>2022-10-25T02:42:11.000Z</time>
      </trkpt>
      <trkpt lat="27.89128" lon="86.827622">
        <ele>4327.4</ele>
        <time>2022-10-25T02:42:18.000Z</time>
      </trkpt>
      <trkpt lat="27.891274" lon="86.827597">
        <ele>4327</ele>
        <time>2022-10-25T02:42:20.000Z</time>
      </trkpt>
      <trkpt lat="27.89127" lon="86.827571">
        <ele>4326.6</ele>
        <time>2022-10-25T02:42:23.000Z</time>
      </trkpt>
      <trkpt lat="27.891267" lon="86.827546">
        <ele>4326.6</ele>
        <time>2022-10-25T02:42:25.000Z</time>
      </trkpt>
      <trkpt lat="27.891254" lon="86.82752">
        <ele>4326.6</ele>
        <time>2022-10-25T02:42:28.000Z</time>
      </trkpt>
      <trkpt lat="27.891254" lon="86.827494">
        <ele>4327</ele>
        <time>2022-10-25T02:42:31.000Z</time>
      </trkpt>
      <trkpt lat="27.891254" lon="86.827469">
        <ele>4327.2</ele>
        <time>2022-10-25T02:42:33.000Z</time>
      </trkpt>
      <trkpt lat="27.891267" lon="86.827443">
        <ele>4327.2</ele>
        <time>2022-10-25T02:42:36.000Z</time>
      </trkpt>
      <trkpt lat="27.891286" lon="86.827424">
        <ele>4327.2</ele>
        <time>2022-10-25T02:42:39.000Z</time>
      </trkpt>
      <trkpt lat="27.891296" lon="86.827405">
        <ele>4327.4</ele>
        <time>2022-10-25T02:42:41.000Z</time>
      </trkpt>
      <trkpt lat="27.891312" lon="86.827392">
        <ele>4327.8</ele>
        <time>2022-10-25T02:42:46.000Z</time>
      </trkpt>
      <trkpt lat="27.891306" lon="86.827373">
        <ele>4328</ele>
        <time>2022-10-25T02:42:51.000Z</time>
      </trkpt>
      <trkpt lat="27.891302" lon="86.827347">
        <ele>4328.8</ele>
        <time>2022-10-25T02:42:54.000Z</time>
      </trkpt>
      <trkpt lat="27.891299" lon="86.827322">
        <ele>4329.6</ele>
        <time>2022-10-25T02:42:57.000Z</time>
      </trkpt>
      <trkpt lat="27.891293" lon="86.827302">
        <ele>4329.8</ele>
        <time>2022-10-25T02:43:02.000Z</time>
      </trkpt>
      <trkpt lat="27.89129" lon="86.827277">
        <ele>4329.8</ele>
        <time>2022-10-25T02:43:06.000Z</time>
      </trkpt>
      <trkpt lat="27.891277" lon="86.827258">
        <ele>4330.4</ele>
        <time>2022-10-25T02:43:11.000Z</time>
      </trkpt>
      <trkpt lat="27.89127" lon="86.827238">
        <ele>4330.4</ele>
        <time>2022-10-25T02:43:15.000Z</time>
      </trkpt>
      <trkpt lat="27.891267" lon="86.827206">
        <ele>4331</ele>
        <time>2022-10-25T02:43:20.000Z</time>
      </trkpt>
      <trkpt lat="27.891254" lon="86.827187">
        <ele>4330.8</ele>
        <time>2022-10-25T02:43:28.000Z</time>
      </trkpt>
      <trkpt lat="27.891238" lon="86.827174">
        <ele>4331</ele>
        <time>2022-10-25T02:43:31.000Z</time>
      </trkpt>
      <trkpt lat="27.891222" lon="86.827155">
        <ele>4331.4</ele>
        <time>2022-10-25T02:43:34.000Z</time>
      </trkpt>
      <trkpt lat="27.891213" lon="86.827123">
        <ele>4331.4</ele>
        <time>2022-10-25T02:43:37.000Z</time>
      </trkpt>
      <trkpt lat="27.89121" lon="86.827098">
        <ele>4332.4</ele>
        <time>2022-10-25T02:43:41.000Z</time>
      </trkpt>
      <trkpt lat="27.8912" lon="86.827078">
        <ele>4332.2</ele>
        <time>2022-10-25T02:43:43.000Z</time>
      </trkpt>
      <trkpt lat="27.891178" lon="86.827059">
        <ele>4331.4</ele>
        <time>2022-10-25T02:43:46.000Z</time>
      </trkpt>
      <trkpt lat="27.891162" lon="86.82704">
        <ele>4330.8</ele>
        <time>2022-10-25T02:43:48.000Z</time>
      </trkpt>
      <trkpt lat="27.891136" lon="86.827034">
        <ele>4330.4</ele>
        <time>2022-10-25T02:43:51.000Z</time>
      </trkpt>
      <trkpt lat="27.891126" lon="86.827002">
        <ele>4332.2</ele>
        <time>2022-10-25T02:44:23.000Z</time>
      </trkpt>
      <trkpt lat="27.89113" lon="86.826976">
        <ele>4332.4</ele>
        <time>2022-10-25T02:44:25.000Z</time>
      </trkpt>
      <trkpt lat="27.891123" lon="86.826957">
        <ele>4332.4</ele>
        <time>2022-10-25T02:44:26.000Z</time>
      </trkpt>
      <trkpt lat="27.89112" lon="86.826912">
        <ele>4332.8</ele>
        <time>2022-10-25T02:44:29.000Z</time>
      </trkpt>
      <trkpt lat="27.891114" lon="86.82688">
        <ele>4332.6</ele>
        <time>2022-10-25T02:44:31.000Z</time>
      </trkpt>
      <trkpt lat="27.891101" lon="86.826861">
        <ele>4333.6</ele>
        <time>2022-10-25T02:44:35.000Z</time>
      </trkpt>
      <trkpt lat="27.891091" lon="86.826842">
        <ele>4333.6</ele>
        <time>2022-10-25T02:44:37.000Z</time>
      </trkpt>
      <trkpt lat="27.891072" lon="86.826822">
        <ele>4334.2</ele>
        <time>2022-10-25T02:44:40.000Z</time>
      </trkpt>
      <trkpt lat="27.891069" lon="86.82679">
        <ele>4334.4</ele>
        <time>2022-10-25T02:44:44.000Z</time>
      </trkpt>
      <trkpt lat="27.891053" lon="86.826765">
        <ele>4335</ele>
        <time>2022-10-25T02:44:50.000Z</time>
      </trkpt>
      <trkpt lat="27.891046" lon="86.826739">
        <ele>4335.8</ele>
        <time>2022-10-25T02:44:55.000Z</time>
      </trkpt>
      <trkpt lat="27.89104" lon="86.82672">
        <ele>4335.4</ele>
        <time>2022-10-25T02:44:58.000Z</time>
      </trkpt>
      <trkpt lat="27.89103" lon="86.826701">
        <ele>4335.8</ele>
        <time>2022-10-25T02:45:01.000Z</time>
      </trkpt>
      <trkpt lat="27.891024" lon="86.826682">
        <ele>4336</ele>
        <time>2022-10-25T02:45:04.000Z</time>
      </trkpt>
      <trkpt lat="27.891014" lon="86.826662">
        <ele>4336.8</ele>
        <time>2022-10-25T02:45:10.000Z</time>
      </trkpt>
      <trkpt lat="27.891011" lon="86.826637">
        <ele>4337.2</ele>
        <time>2022-10-25T02:45:14.000Z</time>
      </trkpt>
      <trkpt lat="27.891002" lon="86.826611">
        <ele>4337.8</ele>
        <time>2022-10-25T02:45:21.000Z</time>
      </trkpt>
      <trkpt lat="27.890982" lon="86.826598">
        <ele>4338.8</ele>
        <time>2022-10-25T02:45:27.000Z</time>
      </trkpt>
      <trkpt lat="27.890966" lon="86.826586">
        <ele>4339</ele>
        <time>2022-10-25T02:45:33.000Z</time>
      </trkpt>
      <trkpt lat="27.890957" lon="86.826566">
        <ele>4339</ele>
        <time>2022-10-25T02:45:37.000Z</time>
      </trkpt>
      <trkpt lat="27.89095" lon="86.826547">
        <ele>4339.8</ele>
        <time>2022-10-25T02:45:43.000Z</time>
      </trkpt>
      <trkpt lat="27.890938" lon="86.826528">
        <ele>4340.2</ele>
        <time>2022-10-25T02:45:48.000Z</time>
      </trkpt>
      <trkpt lat="27.890934" lon="86.826502">
        <ele>4340.6</ele>
        <time>2022-10-25T02:45:55.000Z</time>
      </trkpt>
      <trkpt lat="27.890931" lon="86.826477">
        <ele>4341.4</ele>
        <time>2022-10-25T02:46:01.000Z</time>
      </trkpt>
      <trkpt lat="27.890922" lon="86.826451">
        <ele>4341.6</ele>
        <time>2022-10-25T02:46:08.000Z</time>
      </trkpt>
      <trkpt lat="27.890922" lon="86.826426">
        <ele>4342.4</ele>
        <time>2022-10-25T02:46:16.000Z</time>
      </trkpt>
      <trkpt lat="27.890915" lon="86.826406">
        <ele>4343</ele>
        <time>2022-10-25T02:46:23.000Z</time>
      </trkpt>
      <trkpt lat="27.890909" lon="86.826387">
        <ele>4343.8</ele>
        <time>2022-10-25T02:46:28.000Z</time>
      </trkpt>
      <trkpt lat="27.890893" lon="86.826368">
        <ele>4344</ele>
        <time>2022-10-25T02:46:34.000Z</time>
      </trkpt>
      <trkpt lat="27.89088" lon="86.826349">
        <ele>4344.8</ele>
        <time>2022-10-25T02:46:41.000Z</time>
      </trkpt>
      <trkpt lat="27.890874" lon="86.82633">
        <ele>4345</ele>
        <time>2022-10-25T02:46:46.000Z</time>
      </trkpt>
      <trkpt lat="27.890867" lon="86.82631">
        <ele>4346</ele>
        <time>2022-10-25T02:46:57.000Z</time>
      </trkpt>
      <trkpt lat="27.890854" lon="86.826291">
        <ele>4346.4</ele>
        <time>2022-10-25T02:47:01.000Z</time>
      </trkpt>
      <trkpt lat="27.89087" lon="86.826278">
        <ele>4346.8</ele>
        <time>2022-10-25T02:47:08.000Z</time>
      </trkpt>
      <trkpt lat="27.890893" lon="86.826285">
        <ele>4347.6</ele>
        <time>2022-10-25T02:47:15.000Z</time>
      </trkpt>
      <trkpt lat="27.890912" lon="86.826285">
        <ele>4348.6</ele>
        <time>2022-10-25T02:47:25.000Z</time>
      </trkpt>
      <trkpt lat="27.890931" lon="86.826278">
        <ele>4349.4</ele>
        <time>2022-10-25T02:47:31.000Z</time>
      </trkpt>
      <trkpt lat="27.89095" lon="86.826278">
        <ele>4350.2</ele>
        <time>2022-10-25T02:47:41.000Z</time>
      </trkpt>
      <trkpt lat="27.890973" lon="86.826278">
        <ele>4350.4</ele>
        <time>2022-10-25T02:47:47.000Z</time>
      </trkpt>
      <trkpt lat="27.890992" lon="86.826278">
        <ele>4351.4</ele>
        <time>2022-10-25T02:47:55.000Z</time>
      </trkpt>
      <trkpt lat="27.891008" lon="86.826266">
        <ele>4352</ele>
        <time>2022-10-25T02:48:02.000Z</time>
      </trkpt>
      <trkpt lat="27.891027" lon="86.826272">
        <ele>4352.6</ele>
        <time>2022-10-25T02:48:09.000Z</time>
      </trkpt>
      <trkpt lat="27.89105" lon="86.826266">
        <ele>4353.6</ele>
        <time>2022-10-25T02:48:19.000Z</time>
      </trkpt>
      <trkpt lat="27.891069" lon="86.826272">
        <ele>4354.4</ele>
        <time>2022-10-25T02:48:27.000Z</time>
      </trkpt>
      <trkpt lat="27.891078" lon="86.826253">
        <ele>4355.2</ele>
        <time>2022-10-25T02:48:35.000Z</time>
      </trkpt>
      <trkpt lat="27.891098" lon="86.826246">
        <ele>4356.4</ele>
        <time>2022-10-25T02:48:46.000Z</time>
      </trkpt>
      <trkpt lat="27.891117" lon="86.826246">
        <ele>4357</ele>
        <time>2022-10-25T02:48:55.000Z</time>
      </trkpt>
      <trkpt lat="27.891136" lon="86.82624">
        <ele>4357.4</ele>
        <time>2022-10-25T02:49:04.000Z</time>
      </trkpt>
      <trkpt lat="27.891155" lon="86.82624">
        <ele>4358.8</ele>
        <time>2022-10-25T02:49:12.000Z</time>
      </trkpt>
      <trkpt lat="27.891174" lon="86.826234">
        <ele>4359</ele>
        <time>2022-10-25T02:49:21.000Z</time>
      </trkpt>
      <trkpt lat="27.891194" lon="86.826234">
        <ele>4360</ele>
        <time>2022-10-25T02:49:28.000Z</time>
      </trkpt>
      <trkpt lat="27.891213" lon="86.826221">
        <ele>4363.6</ele>
        <time>2022-10-25T02:50:09.000Z</time>
      </trkpt>
      <trkpt lat="27.891238" lon="86.826208">
        <ele>4364.4</ele>
        <time>2022-10-25T02:50:11.000Z</time>
      </trkpt>
      <trkpt lat="27.891261" lon="86.826202">
        <ele>4364.4</ele>
        <time>2022-10-25T02:50:13.000Z</time>
      </trkpt>
      <trkpt lat="27.891286" lon="86.826202">
        <ele>4364.4</ele>
        <time>2022-10-25T02:50:15.000Z</time>
      </trkpt>
      <trkpt lat="27.891309" lon="86.826195">
        <ele>4365</ele>
        <time>2022-10-25T02:50:17.000Z</time>
      </trkpt>
      <trkpt lat="27.891328" lon="86.826189">
        <ele>4365</ele>
        <time>2022-10-25T02:50:20.000Z</time>
      </trkpt>
      <trkpt lat="27.89135" lon="86.826189">
        <ele>4365.4</ele>
        <time>2022-10-25T02:50:25.000Z</time>
      </trkpt>
      <trkpt lat="27.89137" lon="86.826182">
        <ele>4366</ele>
        <time>2022-10-25T02:50:30.000Z</time>
      </trkpt>
      <trkpt lat="27.891389" lon="86.826182">
        <ele>4366</ele>
        <time>2022-10-25T02:50:34.000Z</time>
      </trkpt>
      <trkpt lat="27.891408" lon="86.826189">
        <ele>4366.8</ele>
        <time>2022-10-25T02:50:38.000Z</time>
      </trkpt>
      <trkpt lat="27.891424" lon="86.82617">
        <ele>4367</ele>
        <time>2022-10-25T02:50:44.000Z</time>
      </trkpt>
      <trkpt lat="27.891443" lon="86.82617">
        <ele>4367.8</ele>
        <time>2022-10-25T02:50:50.000Z</time>
      </trkpt>
      <trkpt lat="27.891466" lon="86.82617">
        <ele>4367.8</ele>
        <time>2022-10-25T02:50:56.000Z</time>
      </trkpt>
      <trkpt lat="27.891482" lon="86.826157">
        <ele>4368.8</ele>
        <time>2022-10-25T02:51:07.000Z</time>
      </trkpt>
      <trkpt lat="27.891504" lon="86.826144">
        <ele>4369.4</ele>
        <time>2022-10-25T02:51:14.000Z</time>
      </trkpt>
      <trkpt lat="27.89152" lon="86.826131">
        <ele>4369.8</ele>
        <time>2022-10-25T02:51:22.000Z</time>
      </trkpt>
      <trkpt lat="27.89153" lon="86.826195">
        <ele>4369.8</ele>
        <time>2022-10-25T02:56:17.000Z</time>
      </trkpt>
      <trkpt lat="27.891549" lon="86.826182">
        <ele>4369.8</ele>
        <time>2022-10-25T02:56:19.000Z</time>
      </trkpt>
      <trkpt lat="27.891568" lon="86.82617">
        <ele>4370</ele>
        <time>2022-10-25T02:56:21.000Z</time>
      </trkpt>
      <trkpt lat="27.891597" lon="86.826157">
        <ele>4369.8</ele>
        <time>2022-10-25T02:56:24.000Z</time>
      </trkpt>
      <trkpt lat="27.891619" lon="86.82615">
        <ele>4370.6</ele>
        <time>2022-10-25T02:56:27.000Z</time>
      </trkpt>
      <trkpt lat="27.891638" lon="86.826157">
        <ele>4370.8</ele>
        <time>2022-10-25T02:56:31.000Z</time>
      </trkpt>
      <trkpt lat="27.891658" lon="86.826157">
        <ele>4371.4</ele>
        <time>2022-10-25T02:56:36.000Z</time>
      </trkpt>
      <trkpt lat="27.891677" lon="86.826157">
        <ele>4371.6</ele>
        <time>2022-10-25T02:56:40.000Z</time>
      </trkpt>
      <trkpt lat="27.891696" lon="86.826163">
        <ele>4372</ele>
        <time>2022-10-25T02:56:45.000Z</time>
      </trkpt>
      <trkpt lat="27.891709" lon="86.826182">
        <ele>4372.4</ele>
        <time>2022-10-25T02:56:49.000Z</time>
      </trkpt>
      <trkpt lat="27.891728" lon="86.826182">
        <ele>4373.2</ele>
        <time>2022-10-25T02:56:56.000Z</time>
      </trkpt>
      <trkpt lat="27.891744" lon="86.82617">
        <ele>4373.6</ele>
        <time>2022-10-25T02:57:01.000Z</time>
      </trkpt>
      <trkpt lat="27.891763" lon="86.82617">
        <ele>4374.2</ele>
        <time>2022-10-25T02:57:07.000Z</time>
      </trkpt>
      <trkpt lat="27.891776" lon="86.826189">
        <ele>4374.6</ele>
        <time>2022-10-25T02:57:11.000Z</time>
      </trkpt>
      <trkpt lat="27.891789" lon="86.82617">
        <ele>4375.6</ele>
        <time>2022-10-25T02:57:21.000Z</time>
      </trkpt>
      <trkpt lat="27.891808" lon="86.82617">
        <ele>4376.4</ele>
        <time>2022-10-25T02:57:28.000Z</time>
      </trkpt>
      <trkpt lat="27.891824" lon="86.826182">
        <ele>4377.4</ele>
        <time>2022-10-25T02:57:38.000Z</time>
      </trkpt>
      <trkpt lat="27.89184" lon="86.82617">
        <ele>4378</ele>
        <time>2022-10-25T02:57:44.000Z</time>
      </trkpt>
      <trkpt lat="27.891846" lon="86.826189">
        <ele>4378.2</ele>
        <time>2022-10-25T02:57:48.000Z</time>
      </trkpt>
      <trkpt lat="27.891866" lon="86.826189">
        <ele>4379</ele>
        <time>2022-10-25T02:57:55.000Z</time>
      </trkpt>
      <trkpt lat="27.891885" lon="86.826189">
        <ele>4379.8</ele>
        <time>2022-10-25T02:58:01.000Z</time>
      </trkpt>
      <trkpt lat="27.891901" lon="86.826202">
        <ele>4380.6</ele>
        <time>2022-10-25T02:58:09.000Z</time>
      </trkpt>
      <trkpt lat="27.89192" lon="86.826208">
        <ele>4381</ele>
        <time>2022-10-25T02:58:16.000Z</time>
      </trkpt>
      <trkpt lat="27.89193" lon="86.826227">
        <ele>4381.4</ele>
        <time>2022-10-25T02:58:20.000Z</time>
      </trkpt>
      <trkpt lat="27.891952" lon="86.826234">
        <ele>4382.2</ele>
        <time>2022-10-25T02:58:26.000Z</time>
      </trkpt>
      <trkpt lat="27.891968" lon="86.826246">
        <ele>4382.6</ele>
        <time>2022-10-25T02:58:31.000Z</time>
      </trkpt>
      <trkpt lat="27.89199" lon="86.826253">
        <ele>4383.4</ele>
        <time>2022-10-25T02:58:37.000Z</time>
      </trkpt>
      <trkpt lat="27.892003" lon="86.826272">
        <ele>4384</ele>
        <time>2022-10-25T02:58:42.000Z</time>
      </trkpt>
      <trkpt lat="27.892022" lon="86.826285">
        <ele>4384.2</ele>
        <time>2022-10-25T02:58:48.000Z</time>
      </trkpt>
      <trkpt lat="27.892038" lon="86.826304">
        <ele>4385</ele>
        <time>2022-10-25T02:58:55.000Z</time>
      </trkpt>
      <trkpt lat="27.892054" lon="86.826317">
        <ele>4385.2</ele>
        <time>2022-10-25T02:59:02.000Z</time>
      </trkpt>
      <trkpt lat="27.89207" lon="86.82633">
        <ele>4385.8</ele>
        <time>2022-10-25T02:59:06.000Z</time>
      </trkpt>
      <trkpt lat="27.892086" lon="86.826342">
        <ele>4386.6</ele>
        <time>2022-10-25T02:59:15.000Z</time>
      </trkpt>
      <trkpt lat="27.892093" lon="86.826323">
        <ele>4386.8</ele>
        <time>2022-10-25T02:59:19.000Z</time>
      </trkpt>
      <trkpt lat="27.892112" lon="86.82633">
        <ele>4387.6</ele>
        <time>2022-10-25T02:59:26.000Z</time>
      </trkpt>
      <trkpt lat="27.892125" lon="86.826349">
        <ele>4388</ele>
        <time>2022-10-25T02:59:31.000Z</time>
      </trkpt>
      <trkpt lat="27.892141" lon="86.826362">
        <ele>4388.6</ele>
        <time>2022-10-25T02:59:37.000Z</time>
      </trkpt>
      <trkpt lat="27.89215" lon="86.826381">
        <ele>4389.2</ele>
        <time>2022-10-25T02:59:41.000Z</time>
      </trkpt>
      <trkpt lat="27.89217" lon="86.826387">
        <ele>4390.2</ele>
        <time>2022-10-25T02:59:51.000Z</time>
      </trkpt>
      <trkpt lat="27.892186" lon="86.8264">
        <ele>4390.6</ele>
        <time>2022-10-25T02:59:57.000Z</time>
      </trkpt>
      <trkpt lat="27.892205" lon="86.826406">
        <ele>4391.4</ele>
        <time>2022-10-25T03:00:03.000Z</time>
      </trkpt>
      <trkpt lat="27.892211" lon="86.826426">
        <ele>4392.2</ele>
        <time>2022-10-25T03:00:08.000Z</time>
      </trkpt>
      <trkpt lat="27.89223" lon="86.826432">
        <ele>4392.6</ele>
        <time>2022-10-25T03:00:14.000Z</time>
      </trkpt>
      <trkpt lat="27.892246" lon="86.826445">
        <ele>4392.8</ele>
        <time>2022-10-25T03:00:19.000Z</time>
      </trkpt>
      <trkpt lat="27.892269" lon="86.826464">
        <ele>4393.6</ele>
        <time>2022-10-25T03:00:25.000Z</time>
      </trkpt>
      <trkpt lat="27.892288" lon="86.82647">
        <ele>4394.4</ele>
        <time>2022-10-25T03:00:32.000Z</time>
      </trkpt>
      <trkpt lat="27.892304" lon="86.826483">
        <ele>4394.8</ele>
        <time>2022-10-25T03:00:37.000Z</time>
      </trkpt>
      <trkpt lat="27.892317" lon="86.826502">
        <ele>4395.2</ele>
        <time>2022-10-25T03:00:40.000Z</time>
      </trkpt>
      <trkpt lat="27.892336" lon="86.826509">
        <ele>4395.2</ele>
        <time>2022-10-25T03:00:44.000Z</time>
      </trkpt>
      <trkpt lat="27.892352" lon="86.826522">
        <ele>4396</ele>
        <time>2022-10-25T03:00:49.000Z</time>
      </trkpt>
      <trkpt lat="27.892368" lon="86.826541">
        <ele>4396.2</ele>
        <time>2022-10-25T03:00:52.000Z</time>
      </trkpt>
      <trkpt lat="27.892384" lon="86.826554">
        <ele>4396.8</ele>
        <time>2022-10-25T03:00:57.000Z</time>
      </trkpt>
      <trkpt lat="27.892403" lon="86.82656">
        <ele>4397.2</ele>
        <time>2022-10-25T03:01:01.000Z</time>
      </trkpt>
      <trkpt lat="27.892422" lon="86.826566">
        <ele>4397.2</ele>
        <time>2022-10-25T03:01:06.000Z</time>
      </trkpt>
      <trkpt lat="27.892438" lon="86.826579">
        <ele>4397.8</ele>
        <time>2022-10-25T03:01:11.000Z</time>
      </trkpt>
      <trkpt lat="27.892454" lon="86.826592">
        <ele>4398.2</ele>
        <time>2022-10-25T03:01:16.000Z</time>
      </trkpt>
      <trkpt lat="27.89247" lon="86.826605">
        <ele>4398.6</ele>
        <time>2022-10-25T03:01:20.000Z</time>
      </trkpt>
      <trkpt lat="27.89249" lon="86.826605">
        <ele>4399.6</ele>
        <time>2022-10-25T03:01:27.000Z</time>
      </trkpt>
      <trkpt lat="27.892509" lon="86.826605">
        <ele>4400</ele>
        <time>2022-10-25T03:01:36.000Z</time>
      </trkpt>
      <trkpt lat="27.892531" lon="86.826611">
        <ele>4401.4</ele>
        <time>2022-10-25T03:01:44.000Z</time>
      </trkpt>
      <trkpt lat="27.892541" lon="86.82663">
        <ele>4402</ele>
        <time>2022-10-25T03:01:49.000Z</time>
      </trkpt>
      <trkpt lat="27.89256" lon="86.826637">
        <ele>4403.2</ele>
        <time>2022-10-25T03:01:54.000Z</time>
      </trkpt>
      <trkpt lat="27.892576" lon="86.826662">
        <ele>4402.6</ele>
        <time>2022-10-25T03:01:59.000Z</time>
      </trkpt>
      <trkpt lat="27.892595" lon="86.826669">
        <ele>4403.2</ele>
        <time>2022-10-25T03:02:03.000Z</time>
      </trkpt>
      <trkpt lat="27.892605" lon="86.826688">
        <ele>4403.2</ele>
        <time>2022-10-25T03:02:06.000Z</time>
      </trkpt>
      <trkpt lat="27.892611" lon="86.826707">
        <ele>4403.2</ele>
        <time>2022-10-25T03:02:08.000Z</time>
      </trkpt>
      <trkpt lat="27.89263" lon="86.82672">
        <ele>4404</ele>
        <time>2022-10-25T03:02:14.000Z</time>
      </trkpt>
      <trkpt lat="27.892653" lon="86.826726">
        <ele>4404.2</ele>
        <time>2022-10-25T03:02:19.000Z</time>
      </trkpt>
      <trkpt lat="27.892669" lon="86.826739">
        <ele>4404.6</ele>
        <time>2022-10-25T03:02:24.000Z</time>
      </trkpt>
      <trkpt lat="27.892688" lon="86.826746">
        <ele>4405.2</ele>
        <time>2022-10-25T03:02:29.000Z</time>
      </trkpt>
      <trkpt lat="27.892704" lon="86.826758">
        <ele>4406</ele>
        <time>2022-10-25T03:02:35.000Z</time>
      </trkpt>
      <trkpt lat="27.892723" lon="86.826765">
        <ele>4406.4</ele>
        <time>2022-10-25T03:02:41.000Z</time>
      </trkpt>
      <trkpt lat="27.892739" lon="86.826778">
        <ele>4406.8</ele>
        <time>2022-10-25T03:02:46.000Z</time>
      </trkpt>
      <trkpt lat="27.892755" lon="86.82679">
        <ele>4407</ele>
        <time>2022-10-25T03:02:50.000Z</time>
      </trkpt>
      <trkpt lat="27.892771" lon="86.826803">
        <ele>4407.6</ele>
        <time>2022-10-25T03:02:55.000Z</time>
      </trkpt>
      <trkpt lat="27.89279" lon="86.826822">
        <ele>4407.8</ele>
        <time>2022-10-25T03:03:00.000Z</time>
      </trkpt>
      <trkpt lat="27.89281" lon="86.826829">
        <ele>4408.6</ele>
        <time>2022-10-25T03:03:06.000Z</time>
      </trkpt>
      <trkpt lat="27.892829" lon="86.826835">
        <ele>4409.2</ele>
        <time>2022-10-25T03:03:13.000Z</time>
      </trkpt>
      <trkpt lat="27.892848" lon="86.826842">
        <ele>4409.6</ele>
        <time>2022-10-25T03:03:19.000Z</time>
      </trkpt>
      <trkpt lat="27.892867" lon="86.826842">
        <ele>4410.8</ele>
        <time>2022-10-25T03:03:27.000Z</time>
      </trkpt>
      <trkpt lat="27.892886" lon="86.826842">
        <ele>4410.4</ele>
        <time>2022-10-25T03:03:33.000Z</time>
      </trkpt>
      <trkpt lat="27.892906" lon="86.826842">
        <ele>4411.8</ele>
        <time>2022-10-25T03:03:40.000Z</time>
      </trkpt>
      <trkpt lat="27.892925" lon="86.826848">
        <ele>4412.2</ele>
        <time>2022-10-25T03:03:47.000Z</time>
      </trkpt>
      <trkpt lat="27.892944" lon="86.826861">
        <ele>4413.4</ele>
        <time>2022-10-25T03:03:54.000Z</time>
      </trkpt>
      <trkpt lat="27.892963" lon="86.826861">
        <ele>4413.6</ele>
        <time>2022-10-25T03:04:00.000Z</time>
      </trkpt>
      <trkpt lat="27.892982" lon="86.826867">
        <ele>4414.6</ele>
        <time>2022-10-25T03:04:08.000Z</time>
      </trkpt>
      <trkpt lat="27.89305" lon="86.826842">
        <ele>4419.6</ele>
        <time>2022-10-25T03:05:12.000Z</time>
      </trkpt>
      <trkpt lat="27.893075" lon="86.826842">
        <ele>4419.6</ele>
        <time>2022-10-25T03:05:14.000Z</time>
      </trkpt>
      <trkpt lat="27.893098" lon="86.826835">
        <ele>4419.8</ele>
        <time>2022-10-25T03:05:16.000Z</time>
      </trkpt>
      <trkpt lat="27.893123" lon="86.826822">
        <ele>4419.6</ele>
        <time>2022-10-25T03:05:19.000Z</time>
      </trkpt>
      <trkpt lat="27.893136" lon="86.826803">
        <ele>4419.6</ele>
        <time>2022-10-25T03:05:21.000Z</time>
      </trkpt>
      <trkpt lat="27.893158" lon="86.82679">
        <ele>4419</ele>
        <time>2022-10-25T03:05:26.000Z</time>
      </trkpt>
      <trkpt lat="27.893181" lon="86.826797">
        <ele>4418.6</ele>
        <time>2022-10-25T03:05:29.000Z</time>
      </trkpt>
      <trkpt lat="27.8932" lon="86.826803">
        <ele>4418</ele>
        <time>2022-10-25T03:05:33.000Z</time>
      </trkpt>
      <trkpt lat="27.893194" lon="86.826822">
        <ele>4418.2</ele>
        <time>2022-10-25T03:05:41.000Z</time>
      </trkpt>
      <trkpt lat="27.893213" lon="86.826822">
        <ele>4417.4</ele>
        <time>2022-10-25T03:06:01.000Z</time>
      </trkpt>
      <trkpt lat="27.893235" lon="86.826822">
        <ele>4417.4</ele>
        <time>2022-10-25T03:06:03.000Z</time>
      </trkpt>
      <trkpt lat="27.893258" lon="86.826829">
        <ele>4417.2</ele>
        <time>2022-10-25T03:06:05.000Z</time>
      </trkpt>
      <trkpt lat="27.893286" lon="86.826842">
        <ele>4417.2</ele>
        <time>2022-10-25T03:06:07.000Z</time>
      </trkpt>
      <trkpt lat="27.893312" lon="86.826848">
        <ele>4417.2</ele>
        <time>2022-10-25T03:06:09.000Z</time>
      </trkpt>
      <trkpt lat="27.893328" lon="86.826861">
        <ele>4417</ele>
        <time>2022-10-25T03:06:11.000Z</time>
      </trkpt>
      <trkpt lat="27.893347" lon="86.826867">
        <ele>4417</ele>
        <time>2022-10-25T03:06:13.000Z</time>
      </trkpt>
      <trkpt lat="27.893366" lon="86.826874">
        <ele>4416.6</ele>
        <time>2022-10-25T03:06:15.000Z</time>
      </trkpt>
      <trkpt lat="27.893386" lon="86.826874">
        <ele>4415.6</ele>
        <time>2022-10-25T03:06:18.000Z</time>
      </trkpt>
      <trkpt lat="27.893405" lon="86.82688">
        <ele>4414.8</ele>
        <time>2022-10-25T03:06:21.000Z</time>
      </trkpt>
      <trkpt lat="27.893424" lon="86.826886">
        <ele>4414.4</ele>
        <time>2022-10-25T03:06:23.000Z</time>
      </trkpt>
      <trkpt lat="27.89344" lon="86.826906">
        <ele>4414</ele>
        <time>2022-10-25T03:06:25.000Z</time>
      </trkpt>
      <trkpt lat="27.893459" lon="86.826912">
        <ele>4413.8</ele>
        <time>2022-10-25T03:06:27.000Z</time>
      </trkpt>
      <trkpt lat="27.893485" lon="86.826918">
        <ele>4413.6</ele>
        <time>2022-10-25T03:06:30.000Z</time>
      </trkpt>
      <trkpt lat="27.89351" lon="86.826925">
        <ele>4413.6</ele>
        <time>2022-10-25T03:06:33.000Z</time>
      </trkpt>
      <trkpt lat="27.893533" lon="86.826938">
        <ele>4413.2</ele>
        <time>2022-10-25T03:06:35.000Z</time>
      </trkpt>
      <trkpt lat="27.893552" lon="86.826944">
        <ele>4413.2</ele>
        <time>2022-10-25T03:06:43.000Z</time>
      </trkpt>
      <trkpt lat="27.893574" lon="86.82695">
        <ele>4413</ele>
        <time>2022-10-25T03:06:53.000Z</time>
      </trkpt>
      <trkpt lat="27.8936" lon="86.826957">
        <ele>4412.6</ele>
        <time>2022-10-25T03:06:56.000Z</time>
      </trkpt>
      <trkpt lat="27.893622" lon="86.826957">
        <ele>4412.6</ele>
        <time>2022-10-25T03:06:59.000Z</time>
      </trkpt>
      <trkpt lat="27.893642" lon="86.826957">
        <ele>4412.6</ele>
        <time>2022-10-25T03:07:01.000Z</time>
      </trkpt>
      <trkpt lat="27.89367" lon="86.826963">
        <ele>4412.2</ele>
        <time>2022-10-25T03:07:04.000Z</time>
      </trkpt>
      <trkpt lat="27.893696" lon="86.826963">
        <ele>4411.8</ele>
        <time>2022-10-25T03:07:07.000Z</time>
      </trkpt>
      <trkpt lat="27.893718" lon="86.826963">
        <ele>4411.8</ele>
        <time>2022-10-25T03:07:09.000Z</time>
      </trkpt>
      <trkpt lat="27.893744" lon="86.826957">
        <ele>4412.6</ele>
        <time>2022-10-25T03:07:12.000Z</time>
      </trkpt>
      <trkpt lat="27.89376" lon="86.826944">
        <ele>4412.2</ele>
        <time>2022-10-25T03:07:14.000Z</time>
      </trkpt>
      <trkpt lat="27.893779" lon="86.826918">
        <ele>4412.2</ele>
        <time>2022-10-25T03:07:17.000Z</time>
      </trkpt>
      <trkpt lat="27.893802" lon="86.826912">
        <ele>4412.6</ele>
        <time>2022-10-25T03:07:20.000Z</time>
      </trkpt>
      <trkpt lat="27.893821" lon="86.826899">
        <ele>4412.6</ele>
        <time>2022-10-25T03:07:23.000Z</time>
      </trkpt>
      <trkpt lat="27.893827" lon="86.82688">
        <ele>4412.8</ele>
        <time>2022-10-25T03:07:25.000Z</time>
      </trkpt>
      <trkpt lat="27.893834" lon="86.826861">
        <ele>4412.8</ele>
        <time>2022-10-25T03:07:27.000Z</time>
      </trkpt>
      <trkpt lat="27.89384" lon="86.826842">
        <ele>4412.8</ele>
        <time>2022-10-25T03:07:29.000Z</time>
      </trkpt>
      <trkpt lat="27.893856" lon="86.826822">
        <ele>4413</ele>
        <time>2022-10-25T03:07:32.000Z</time>
      </trkpt>
      <trkpt lat="27.893862" lon="86.826803">
        <ele>4413.4</ele>
        <time>2022-10-25T03:07:34.000Z</time>
      </trkpt>
      <trkpt lat="27.893875" lon="86.826784">
        <ele>4413.6</ele>
        <time>2022-10-25T03:07:37.000Z</time>
      </trkpt>
      <trkpt lat="27.893888" lon="86.826765">
        <ele>4414</ele>
        <time>2022-10-25T03:07:40.000Z</time>
      </trkpt>
      <trkpt lat="27.893904" lon="86.826752">
        <ele>4414.4</ele>
        <time>2022-10-25T03:07:43.000Z</time>
      </trkpt>
      <trkpt lat="27.89392" lon="86.82672">
        <ele>4414.6</ele>
        <time>2022-10-25T03:07:46.000Z</time>
      </trkpt>
      <trkpt lat="27.893936" lon="86.826707">
        <ele>4414.8</ele>
        <time>2022-10-25T03:07:49.000Z</time>
      </trkpt>
      <trkpt lat="27.893949" lon="86.826688">
        <ele>4415.4</ele>
        <time>2022-10-25T03:07:52.000Z</time>
      </trkpt>
      <trkpt lat="27.893968" lon="86.826669">
        <ele>4415.6</ele>
        <time>2022-10-25T03:07:57.000Z</time>
      </trkpt>
      <trkpt lat="27.893968" lon="86.826643">
        <ele>4416.4</ele>
        <time>2022-10-25T03:08:01.000Z</time>
      </trkpt>
      <trkpt lat="27.893987" lon="86.826624">
        <ele>4416.4</ele>
        <time>2022-10-25T03:08:04.000Z</time>
      </trkpt>
      <trkpt lat="27.894003" lon="86.826605">
        <ele>4417</ele>
        <time>2022-10-25T03:08:07.000Z</time>
      </trkpt>
      <trkpt lat="27.894022" lon="86.826592">
        <ele>4417.2</ele>
        <time>2022-10-25T03:08:11.000Z</time>
      </trkpt>
      <trkpt lat="27.894045" lon="86.826592">
        <ele>4417.2</ele>
        <time>2022-10-25T03:08:14.000Z</time>
      </trkpt>
      <trkpt lat="27.894067" lon="86.826566">
        <ele>4417.8</ele>
        <time>2022-10-25T03:08:17.000Z</time>
      </trkpt>
      <trkpt lat="27.894086" lon="86.82656">
        <ele>4417.8</ele>
        <time>2022-10-25T03:08:20.000Z</time>
      </trkpt>
      <trkpt lat="27.894106" lon="86.826547">
        <ele>4418</ele>
        <time>2022-10-25T03:08:23.000Z</time>
      </trkpt>
      <trkpt lat="27.894128" lon="86.826547">
        <ele>4418</ele>
        <time>2022-10-25T03:08:26.000Z</time>
      </trkpt>
      <trkpt lat="27.894147" lon="86.826541">
        <ele>4418.6</ele>
        <time>2022-10-25T03:08:29.000Z</time>
      </trkpt>
      <trkpt lat="27.894166" lon="86.826528">
        <ele>4418.8</ele>
        <time>2022-10-25T03:08:32.000Z</time>
      </trkpt>
      <trkpt lat="27.894186" lon="86.826522">
        <ele>4419</ele>
        <time>2022-10-25T03:08:35.000Z</time>
      </trkpt>
      <trkpt lat="27.894198" lon="86.826502">
        <ele>4419</ele>
        <time>2022-10-25T03:08:38.000Z</time>
      </trkpt>
      <trkpt lat="27.894202" lon="86.826477">
        <ele>4419</ele>
        <time>2022-10-25T03:08:40.000Z</time>
      </trkpt>
      <trkpt lat="27.894218" lon="86.826464">
        <ele>4419.4</ele>
        <time>2022-10-25T03:08:42.000Z</time>
      </trkpt>
      <trkpt lat="27.894237" lon="86.826445">
        <ele>4419.4</ele>
        <time>2022-10-25T03:08:45.000Z</time>
      </trkpt>
      <trkpt lat="27.894256" lon="86.826432">
        <ele>4419.6</ele>
        <time>2022-10-25T03:08:48.000Z</time>
      </trkpt>
      <trkpt lat="27.894278" lon="86.826419">
        <ele>4419.4</ele>
        <time>2022-10-25T03:08:51.000Z</time>
      </trkpt>
      <trkpt lat="27.894294" lon="86.8264">
        <ele>4419.6</ele>
        <time>2022-10-25T03:08:55.000Z</time>
      </trkpt>
      <trkpt lat="27.894317" lon="86.826394">
        <ele>4420.2</ele>
        <time>2022-10-25T03:08:58.000Z</time>
      </trkpt>
      <trkpt lat="27.894333" lon="86.826381">
        <ele>4420.2</ele>
        <time>2022-10-25T03:09:01.000Z</time>
      </trkpt>
      <trkpt lat="27.894342" lon="86.826362">
        <ele>4420.2</ele>
        <time>2022-10-25T03:09:03.000Z</time>
      </trkpt>
      <trkpt lat="27.894358" lon="86.826349">
        <ele>4420.2</ele>
        <time>2022-10-25T03:09:06.000Z</time>
      </trkpt>
      <trkpt lat="27.894378" lon="86.82633">
        <ele>4420.6</ele>
        <time>2022-10-25T03:09:09.000Z</time>
      </trkpt>
      <trkpt lat="27.894397" lon="86.826323">
        <ele>4420.6</ele>
        <time>2022-10-25T03:09:13.000Z</time>
      </trkpt>
      <trkpt lat="27.894416" lon="86.826304">
        <ele>4421.2</ele>
        <time>2022-10-25T03:09:18.000Z</time>
      </trkpt>
      <trkpt lat="27.894429" lon="86.826285">
        <ele>4421.4</ele>
        <time>2022-10-25T03:09:21.000Z</time>
      </trkpt>
      <trkpt lat="27.894448" lon="86.826278">
        <ele>4421.2</ele>
        <time>2022-10-25T03:09:24.000Z</time>
      </trkpt>
      <trkpt lat="27.894474" lon="86.826266">
        <ele>4421.4</ele>
        <time>2022-10-25T03:09:28.000Z</time>
      </trkpt>
      <trkpt lat="27.89449" lon="86.826246">
        <ele>4421.6</ele>
        <time>2022-10-25T03:09:31.000Z</time>
      </trkpt>
      <trkpt lat="27.894515" lon="86.826234">
        <ele>4421.8</ele>
        <time>2022-10-25T03:09:35.000Z</time>
      </trkpt>
      <trkpt lat="27.894531" lon="86.826221">
        <ele>4422.2</ele>
        <time>2022-10-25T03:09:38.000Z</time>
      </trkpt>
      <trkpt lat="27.89455" lon="86.826208">
        <ele>4422.4</ele>
        <time>2022-10-25T03:09:41.000Z</time>
      </trkpt>
      <trkpt lat="27.894566" lon="86.826195">
        <ele>4422.4</ele>
        <time>2022-10-25T03:09:44.000Z</time>
      </trkpt>
      <trkpt lat="27.894582" lon="86.826182">
        <ele>4422.6</ele>
        <time>2022-10-25T03:09:47.000Z</time>
      </trkpt>
      <trkpt lat="27.894589" lon="86.826157">
        <ele>4422.6</ele>
        <time>2022-10-25T03:09:50.000Z</time>
      </trkpt>
      <trkpt lat="27.894608" lon="86.826144">
        <ele>4423.2</ele>
        <time>2022-10-25T03:09:53.000Z</time>
      </trkpt>
      <trkpt lat="27.894627" lon="86.826131">
        <ele>4423.2</ele>
        <time>2022-10-25T03:09:56.000Z</time>
      </trkpt>
      <trkpt lat="27.894646" lon="86.826118">
        <ele>4423</ele>
        <time>2022-10-25T03:09:59.000Z</time>
      </trkpt>
      <trkpt lat="27.894672" lon="86.826112">
        <ele>4423.4</ele>
        <time>2022-10-25T03:10:02.000Z</time>
      </trkpt>
      <trkpt lat="27.894688" lon="86.826093">
        <ele>4423.6</ele>
        <time>2022-10-25T03:10:05.000Z</time>
      </trkpt>
      <trkpt lat="27.894714" lon="86.82608">
        <ele>4423.8</ele>
        <time>2022-10-25T03:10:09.000Z</time>
      </trkpt>
      <trkpt lat="27.894736" lon="86.826067">
        <ele>4424.2</ele>
        <time>2022-10-25T03:10:13.000Z</time>
      </trkpt>
      <trkpt lat="27.894752" lon="86.826054">
        <ele>4424.2</ele>
        <time>2022-10-25T03:10:16.000Z</time>
      </trkpt>
      <trkpt lat="27.894771" lon="86.826042">
        <ele>4424.6</ele>
        <time>2022-10-25T03:10:19.000Z</time>
      </trkpt>
      <trkpt lat="27.894794" lon="86.826035">
        <ele>4424.6</ele>
        <time>2022-10-25T03:10:22.000Z</time>
      </trkpt>
      <trkpt lat="27.894813" lon="86.826029">
        <ele>4424.6</ele>
        <time>2022-10-25T03:10:25.000Z</time>
      </trkpt>
      <trkpt lat="27.894832" lon="86.82601">
        <ele>4424.8</ele>
        <time>2022-10-25T03:10:28.000Z</time>
      </trkpt>
      <trkpt lat="27.894851" lon="86.826003">
        <ele>4424.8</ele>
        <time>2022-10-25T03:10:31.000Z</time>
      </trkpt>
      <trkpt lat="27.89487" lon="86.825997">
        <ele>4425.2</ele>
        <time>2022-10-25T03:10:34.000Z</time>
      </trkpt>
      <trkpt lat="27.894886" lon="86.825984">
        <ele>4425.4</ele>
        <time>2022-10-25T03:10:37.000Z</time>
      </trkpt>
      <trkpt lat="27.894902" lon="86.825971">
        <ele>4425</ele>
        <time>2022-10-25T03:10:39.000Z</time>
      </trkpt>
      <trkpt lat="27.894925" lon="86.825958">
        <ele>4425</ele>
        <time>2022-10-25T03:10:42.000Z</time>
      </trkpt>
      <trkpt lat="27.894944" lon="86.825946">
        <ele>4425.4</ele>
        <time>2022-10-25T03:10:45.000Z</time>
      </trkpt>
      <trkpt lat="27.894963" lon="86.825933">
        <ele>4425.4</ele>
        <time>2022-10-25T03:10:48.000Z</time>
      </trkpt>
      <trkpt lat="27.894982" lon="86.825926">
        <ele>4425.6</ele>
        <time>2022-10-25T03:10:51.000Z</time>
      </trkpt>
      <trkpt lat="27.895002" lon="86.825914">
        <ele>4425.8</ele>
        <time>2022-10-25T03:10:54.000Z</time>
      </trkpt>
      <trkpt lat="27.895021" lon="86.825907">
        <ele>4426</ele>
        <time>2022-10-25T03:10:57.000Z</time>
      </trkpt>
      <trkpt lat="27.89503" lon="86.825888">
        <ele>4426</ele>
        <time>2022-10-25T03:10:59.000Z</time>
      </trkpt>
      <trkpt lat="27.895046" lon="86.825875">
        <ele>4426.4</ele>
        <time>2022-10-25T03:11:02.000Z</time>
      </trkpt>
      <trkpt lat="27.895066" lon="86.825869">
        <ele>4426.6</ele>
        <time>2022-10-25T03:11:05.000Z</time>
      </trkpt>
      <trkpt lat="27.895082" lon="86.825856">
        <ele>4426.6</ele>
        <time>2022-10-25T03:11:08.000Z</time>
      </trkpt>
      <trkpt lat="27.895101" lon="86.825843">
        <ele>4427.2</ele>
        <time>2022-10-25T03:11:11.000Z</time>
      </trkpt>
      <trkpt lat="27.89512" lon="86.82583">
        <ele>4427.2</ele>
        <time>2022-10-25T03:11:14.000Z</time>
      </trkpt>
      <trkpt lat="27.895139" lon="86.825811">
        <ele>4426.8</ele>
        <time>2022-10-25T03:11:17.000Z</time>
      </trkpt>
      <trkpt lat="27.895155" lon="86.825798">
        <ele>4426.6</ele>
        <time>2022-10-25T03:11:20.000Z</time>
      </trkpt>
      <trkpt lat="27.895171" lon="86.825786">
        <ele>4426.6</ele>
        <time>2022-10-25T03:11:23.000Z</time>
      </trkpt>
      <trkpt lat="27.895187" lon="86.825773">
        <ele>4427</ele>
        <time>2022-10-25T03:11:26.000Z</time>
      </trkpt>
      <trkpt lat="27.89521" lon="86.82576">
        <ele>4427</ele>
        <time>2022-10-25T03:11:30.000Z</time>
      </trkpt>
      <trkpt lat="27.895229" lon="86.825734">
        <ele>4427.4</ele>
        <time>2022-10-25T03:11:34.000Z</time>
      </trkpt>
      <trkpt lat="27.895251" lon="86.825728">
        <ele>4427.8</ele>
        <time>2022-10-25T03:11:38.000Z</time>
      </trkpt>
      <trkpt lat="27.895267" lon="86.825709">
        <ele>4427.6</ele>
        <time>2022-10-25T03:11:42.000Z</time>
      </trkpt>
      <trkpt lat="27.89528" lon="86.82569">
        <ele>4427.8</ele>
        <time>2022-10-25T03:11:44.000Z</time>
      </trkpt>
      <trkpt lat="27.895302" lon="86.82567">
        <ele>4428</ele>
        <time>2022-10-25T03:11:48.000Z</time>
      </trkpt>
      <trkpt lat="27.895318" lon="86.825658">
        <ele>4428.4</ele>
        <time>2022-10-25T03:11:50.000Z</time>
      </trkpt>
      <trkpt lat="27.895338" lon="86.825645">
        <ele>4428</ele>
        <time>2022-10-25T03:11:53.000Z</time>
      </trkpt>
      <trkpt lat="27.895357" lon="86.825632">
        <ele>4428.4</ele>
        <time>2022-10-25T03:11:56.000Z</time>
      </trkpt>
      <trkpt lat="27.895379" lon="86.825613">
        <ele>4428.8</ele>
        <time>2022-10-25T03:12:00.000Z</time>
      </trkpt>
      <trkpt lat="27.895398" lon="86.825594">
        <ele>4428.8</ele>
        <time>2022-10-25T03:12:04.000Z</time>
      </trkpt>
      <trkpt lat="27.895405" lon="86.825574">
        <ele>4428.8</ele>
        <time>2022-10-25T03:12:06.000Z</time>
      </trkpt>
      <trkpt lat="27.895424" lon="86.825562">
        <ele>4429.4</ele>
        <time>2022-10-25T03:12:09.000Z</time>
      </trkpt>
      <trkpt lat="27.89544" lon="86.825549">
        <ele>4429.6</ele>
        <time>2022-10-25T03:12:12.000Z</time>
      </trkpt>
      <trkpt lat="27.895456" lon="86.825536">
        <ele>4430</ele>
        <time>2022-10-25T03:12:14.000Z</time>
      </trkpt>
      <trkpt lat="27.895478" lon="86.825523">
        <ele>4430.2</ele>
        <time>2022-10-25T03:12:18.000Z</time>
      </trkpt>
      <trkpt lat="27.895501" lon="86.82551">
        <ele>4430.2</ele>
        <time>2022-10-25T03:12:22.000Z</time>
      </trkpt>
      <trkpt lat="27.895517" lon="86.825498">
        <ele>4430.2</ele>
        <time>2022-10-25T03:12:25.000Z</time>
      </trkpt>
      <trkpt lat="27.895536" lon="86.825485">
        <ele>4430.2</ele>
        <time>2022-10-25T03:12:28.000Z</time>
      </trkpt>
      <trkpt lat="27.895555" lon="86.825472">
        <ele>4430.4</ele>
        <time>2022-10-25T03:12:31.000Z</time>
      </trkpt>
      <trkpt lat="27.895571" lon="86.825453">
        <ele>4430.8</ele>
        <time>2022-10-25T03:12:34.000Z</time>
      </trkpt>
      <trkpt lat="27.895587" lon="86.82544">
        <ele>4430.8</ele>
        <time>2022-10-25T03:12:37.000Z</time>
      </trkpt>
      <trkpt lat="27.89561" lon="86.825427">
        <ele>4431</ele>
        <time>2022-10-25T03:12:41.000Z</time>
      </trkpt>
      <trkpt lat="27.895626" lon="86.825408">
        <ele>4431.2</ele>
        <time>2022-10-25T03:12:44.000Z</time>
      </trkpt>
      <trkpt lat="27.895648" lon="86.825402">
        <ele>4431.6</ele>
        <time>2022-10-25T03:12:47.000Z</time>
      </trkpt>
      <trkpt lat="27.895667" lon="86.825389">
        <ele>4431.6</ele>
        <time>2022-10-25T03:12:50.000Z</time>
      </trkpt>
      <trkpt lat="27.895686" lon="86.82537">
        <ele>4431.6</ele>
        <time>2022-10-25T03:12:53.000Z</time>
      </trkpt>
      <trkpt lat="27.895706" lon="86.825357">
        <ele>4431.8</ele>
        <time>2022-10-25T03:12:56.000Z</time>
      </trkpt>
      <trkpt lat="27.895725" lon="86.82535">
        <ele>4431.8</ele>
        <time>2022-10-25T03:12:59.000Z</time>
      </trkpt>
      <trkpt lat="27.895738" lon="86.825331">
        <ele>4432.2</ele>
        <time>2022-10-25T03:13:03.000Z</time>
      </trkpt>
      <trkpt lat="27.89576" lon="86.825325">
        <ele>4432.6</ele>
        <time>2022-10-25T03:13:07.000Z</time>
      </trkpt>
      <trkpt lat="27.895773" lon="86.825299">
        <ele>4433.2</ele>
        <time>2022-10-25T03:13:11.000Z</time>
      </trkpt>
      <trkpt lat="27.895795" lon="86.825286">
        <ele>4433.4</ele>
        <time>2022-10-25T03:13:16.000Z</time>
      </trkpt>
      <trkpt lat="27.895814" lon="86.825274">
        <ele>4433.6</ele>
        <time>2022-10-25T03:13:20.000Z</time>
      </trkpt>
      <trkpt lat="27.89583" lon="86.825254">
        <ele>4433.4</ele>
        <time>2022-10-25T03:13:23.000Z</time>
      </trkpt>
      <trkpt lat="27.89585" lon="86.825235">
        <ele>4434.2</ele>
        <time>2022-10-25T03:13:27.000Z</time>
      </trkpt>
      <trkpt lat="27.895869" lon="86.825216">
        <ele>4434.2</ele>
        <time>2022-10-25T03:13:31.000Z</time>
      </trkpt>
      <trkpt lat="27.895885" lon="86.825203">
        <ele>4434.2</ele>
        <time>2022-10-25T03:13:34.000Z</time>
      </trkpt>
      <trkpt lat="27.895904" lon="86.82519">
        <ele>4434.2</ele>
        <time>2022-10-25T03:13:38.000Z</time>
      </trkpt>
      <trkpt lat="27.895917" lon="86.825171">
        <ele>4434.8</ele>
        <time>2022-10-25T03:13:40.000Z</time>
      </trkpt>
      <trkpt lat="27.895936" lon="86.825158">
        <ele>4434.4</ele>
        <time>2022-10-25T03:13:49.000Z</time>
      </trkpt>
      <trkpt lat="27.895955" lon="86.825152">
        <ele>4434.4</ele>
        <time>2022-10-25T03:13:51.000Z</time>
      </trkpt>
      <trkpt lat="27.895968" lon="86.825133">
        <ele>4434.6</ele>
        <time>2022-10-25T03:13:53.000Z</time>
      </trkpt>
      <trkpt lat="27.89599" lon="86.825126">
        <ele>4434.6</ele>
        <time>2022-10-25T03:13:56.000Z</time>
      </trkpt>
      <trkpt lat="27.896013" lon="86.82512">
        <ele>4434.6</ele>
        <time>2022-10-25T03:13:59.000Z</time>
      </trkpt>
      <trkpt lat="27.896035" lon="86.825114">
        <ele>4434.6</ele>
        <time>2022-10-25T03:14:02.000Z</time>
      </trkpt>
      <trkpt lat="27.896058" lon="86.825101">
        <ele>4434.2</ele>
        <time>2022-10-25T03:14:05.000Z</time>
      </trkpt>
      <trkpt lat="27.896083" lon="86.825101">
        <ele>4434.4</ele>
        <time>2022-10-25T03:14:08.000Z</time>
      </trkpt>
      <trkpt lat="27.896096" lon="86.825082">
        <ele>4434.6</ele>
        <time>2022-10-25T03:14:11.000Z</time>
      </trkpt>
      <trkpt lat="27.896112" lon="86.825069">
        <ele>4435</ele>
        <time>2022-10-25T03:14:13.000Z</time>
      </trkpt>
      <trkpt lat="27.896122" lon="86.82505">
        <ele>4435.8</ele>
        <time>2022-10-25T03:14:15.000Z</time>
      </trkpt>
      <trkpt lat="27.896138" lon="86.82503">
        <ele>4435.4</ele>
        <time>2022-10-25T03:14:18.000Z</time>
      </trkpt>
      <trkpt lat="27.896154" lon="86.825018">
        <ele>4435.8</ele>
        <time>2022-10-25T03:14:20.000Z</time>
      </trkpt>
      <trkpt lat="27.896173" lon="86.825011">
        <ele>4435.8</ele>
        <time>2022-10-25T03:14:22.000Z</time>
      </trkpt>
      <trkpt lat="27.896189" lon="86.824998">
        <ele>4435.8</ele>
        <time>2022-10-25T03:14:25.000Z</time>
      </trkpt>
      <trkpt lat="27.896211" lon="86.824979">
        <ele>4435.8</ele>
        <time>2022-10-25T03:14:28.000Z</time>
      </trkpt>
      <trkpt lat="27.896234" lon="86.824966">
        <ele>4435.2</ele>
        <time>2022-10-25T03:14:31.000Z</time>
      </trkpt>
      <trkpt lat="27.896256" lon="86.824954">
        <ele>4435.2</ele>
        <time>2022-10-25T03:14:34.000Z</time>
      </trkpt>
      <trkpt lat="27.896275" lon="86.824941">
        <ele>4435.2</ele>
        <time>2022-10-25T03:14:37.000Z</time>
      </trkpt>
      <trkpt lat="27.896291" lon="86.824928">
        <ele>4435</ele>
        <time>2022-10-25T03:14:40.000Z</time>
      </trkpt>
      <trkpt lat="27.896314" lon="86.824915">
        <ele>4435.2</ele>
        <time>2022-10-25T03:14:43.000Z</time>
      </trkpt>
      <trkpt lat="27.896336" lon="86.824915">
        <ele>4435.4</ele>
        <time>2022-10-25T03:14:46.000Z</time>
      </trkpt>
      <trkpt lat="27.896352" lon="86.824902">
        <ele>4435.2</ele>
        <time>2022-10-25T03:14:48.000Z</time>
      </trkpt>
      <trkpt lat="27.896371" lon="86.82489">
        <ele>4435.2</ele>
        <time>2022-10-25T03:14:51.000Z</time>
      </trkpt>
      <trkpt lat="27.89639" lon="86.824883">
        <ele>4435</ele>
        <time>2022-10-25T03:14:53.000Z</time>
      </trkpt>
      <trkpt lat="27.89641" lon="86.82489">
        <ele>4435.4</ele>
        <time>2022-10-25T03:14:58.000Z</time>
      </trkpt>
      <trkpt lat="27.896435" lon="86.824877">
        <ele>4435.4</ele>
        <time>2022-10-25T03:15:02.000Z</time>
      </trkpt>
      <trkpt lat="27.896454" lon="86.824858">
        <ele>4435.2</ele>
        <time>2022-10-25T03:15:05.000Z</time>
      </trkpt>
      <trkpt lat="27.896474" lon="86.824858">
        <ele>4435</ele>
        <time>2022-10-25T03:15:07.000Z</time>
      </trkpt>
      <trkpt lat="27.896499" lon="86.824845">
        <ele>4434.6</ele>
        <time>2022-10-25T03:15:10.000Z</time>
      </trkpt>
      <trkpt lat="27.896522" lon="86.824819">
        <ele>4434.6</ele>
        <time>2022-10-25T03:15:13.000Z</time>
      </trkpt>
      <trkpt lat="27.896544" lon="86.824813">
        <ele>4434.6</ele>
        <time>2022-10-25T03:15:16.000Z</time>
      </trkpt>
      <trkpt lat="27.896563" lon="86.8248">
        <ele>4435</ele>
        <time>2022-10-25T03:15:19.000Z</time>
      </trkpt>
      <trkpt lat="27.896586" lon="86.824794">
        <ele>4435</ele>
        <time>2022-10-25T03:15:22.000Z</time>
      </trkpt>
      <trkpt lat="27.896602" lon="86.824781">
        <ele>4435.2</ele>
        <time>2022-10-25T03:15:25.000Z</time>
      </trkpt>
      <trkpt lat="27.896624" lon="86.824768">
        <ele>4434.8</ele>
        <time>2022-10-25T03:15:28.000Z</time>
      </trkpt>
      <trkpt lat="27.896643" lon="86.824755">
        <ele>4434.8</ele>
        <time>2022-10-25T03:15:31.000Z</time>
      </trkpt>
      <trkpt lat="27.896662" lon="86.824742">
        <ele>4434.4</ele>
        <time>2022-10-25T03:15:33.000Z</time>
      </trkpt>
      <trkpt lat="27.896682" lon="86.82473">
        <ele>4435.2</ele>
        <time>2022-10-25T03:15:36.000Z</time>
      </trkpt>
      <trkpt lat="27.896698" lon="86.824717">
        <ele>4435</ele>
        <time>2022-10-25T03:15:39.000Z</time>
      </trkpt>
      <trkpt lat="27.896707" lon="86.824698">
        <ele>4435.2</ele>
        <time>2022-10-25T03:15:41.000Z</time>
      </trkpt>
      <trkpt lat="27.89672" lon="86.824678">
        <ele>4435</ele>
        <time>2022-10-25T03:15:44.000Z</time>
      </trkpt>
      <trkpt lat="27.89673" lon="86.824659">
        <ele>4435</ele>
        <time>2022-10-25T03:15:46.000Z</time>
      </trkpt>
      <trkpt lat="27.896742" lon="86.82464">
        <ele>4435.2</ele>
        <time>2022-10-25T03:15:49.000Z</time>
      </trkpt>
      <trkpt lat="27.896758" lon="86.824621">
        <ele>4435.6</ele>
        <time>2022-10-25T03:15:52.000Z</time>
      </trkpt>
      <trkpt lat="27.896774" lon="86.824602">
        <ele>4435.6</ele>
        <time>2022-10-25T03:15:55.000Z</time>
      </trkpt>
      <trkpt lat="27.89679" lon="86.824582">
        <ele>4435.6</ele>
        <time>2022-10-25T03:15:58.000Z</time>
      </trkpt>
      <trkpt lat="27.896803" lon="86.824563">
        <ele>4435.8</ele>
        <time>2022-10-25T03:16:02.000Z</time>
      </trkpt>
      <trkpt lat="27.89681" lon="86.824544">
        <ele>4436</ele>
        <time>2022-10-25T03:16:05.000Z</time>
      </trkpt>
      <trkpt lat="27.896816" lon="86.824525">
        <ele>4436</ele>
        <time>2022-10-25T03:16:08.000Z</time>
      </trkpt>
      <trkpt lat="27.896826" lon="86.824506">
        <ele>4436.4</ele>
        <time>2022-10-25T03:16:11.000Z</time>
      </trkpt>
      <trkpt lat="27.896832" lon="86.824486">
        <ele>4437.2</ele>
        <time>2022-10-25T03:16:14.000Z</time>
      </trkpt>
      <trkpt lat="27.896848" lon="86.824461">
        <ele>4437.4</ele>
        <time>2022-10-25T03:16:18.000Z</time>
      </trkpt>
      <trkpt lat="27.896867" lon="86.824442">
        <ele>4437.6</ele>
        <time>2022-10-25T03:17:06.000Z</time>
      </trkpt>
      <trkpt lat="27.89689" lon="86.824422">
        <ele>4438</ele>
        <time>2022-10-25T03:17:08.000Z</time>
      </trkpt>
      <trkpt lat="27.896915" lon="86.824403">
        <ele>4438.4</ele>
        <time>2022-10-25T03:17:10.000Z</time>
      </trkpt>
      <trkpt lat="27.896938" lon="86.824384">
        <ele>4438.4</ele>
        <time>2022-10-25T03:17:12.000Z</time>
      </trkpt>
      <trkpt lat="27.89696" lon="86.824371">
        <ele>4438.4</ele>
        <time>2022-10-25T03:17:14.000Z</time>
      </trkpt>
      <trkpt lat="27.896976" lon="86.824358">
        <ele>4438.8</ele>
        <time>2022-10-25T03:17:16.000Z</time>
      </trkpt>
      <trkpt lat="27.896992" lon="86.824346">
        <ele>4439.2</ele>
        <time>2022-10-25T03:17:18.000Z</time>
      </trkpt>
      <trkpt lat="27.897008" lon="86.824333">
        <ele>4439.2</ele>
        <time>2022-10-25T03:17:20.000Z</time>
      </trkpt>
      <trkpt lat="27.897027" lon="86.824326">
        <ele>4438.6</ele>
        <time>2022-10-25T03:17:23.000Z</time>
      </trkpt>
      <trkpt lat="27.897046" lon="86.82432">
        <ele>4438.4</ele>
        <time>2022-10-25T03:17:25.000Z</time>
      </trkpt>
      <trkpt lat="27.897069" lon="86.824301">
        <ele>4438.6</ele>
        <time>2022-10-25T03:17:28.000Z</time>
      </trkpt>
      <trkpt lat="27.897091" lon="86.824294">
        <ele>4438.4</ele>
        <time>2022-10-25T03:17:31.000Z</time>
      </trkpt>
      <trkpt lat="27.89711" lon="86.824275">
        <ele>4438.6</ele>
        <time>2022-10-25T03:17:34.000Z</time>
      </trkpt>
      <trkpt lat="27.89712" lon="86.824256">
        <ele>4438.4</ele>
        <time>2022-10-25T03:17:36.000Z</time>
      </trkpt>
      <trkpt lat="27.897133" lon="86.824237">
        <ele>4438.6</ele>
        <time>2022-10-25T03:17:39.000Z</time>
      </trkpt>
      <trkpt lat="27.897139" lon="86.824218">
        <ele>4439.2</ele>
        <time>2022-10-25T03:17:41.000Z</time>
      </trkpt>
      <trkpt lat="27.897149" lon="86.824186">
        <ele>4439.4</ele>
        <time>2022-10-25T03:17:44.000Z</time>
      </trkpt>
      <trkpt lat="27.897168" lon="86.824173">
        <ele>4439.6</ele>
        <time>2022-10-25T03:17:47.000Z</time>
      </trkpt>
      <trkpt lat="27.897184" lon="86.824147">
        <ele>4439.6</ele>
        <time>2022-10-25T03:17:50.000Z</time>
      </trkpt>
      <trkpt lat="27.8972" lon="86.824134">
        <ele>4439.6</ele>
        <time>2022-10-25T03:17:53.000Z</time>
      </trkpt>
      <trkpt lat="27.897222" lon="86.824128">
        <ele>4439.6</ele>
        <time>2022-10-25T03:17:56.000Z</time>
      </trkpt>
      <trkpt lat="27.897248" lon="86.824122">
        <ele>4439.6</ele>
        <time>2022-10-25T03:17:59.000Z</time>
      </trkpt>
      <trkpt lat="27.897264" lon="86.824109">
        <ele>4440.2</ele>
        <time>2022-10-25T03:18:02.000Z</time>
      </trkpt>
      <trkpt lat="27.89728" lon="86.824096">
        <ele>4440.2</ele>
        <time>2022-10-25T03:18:05.000Z</time>
      </trkpt>
      <trkpt lat="27.897296" lon="86.824083">
        <ele>4441</ele>
        <time>2022-10-25T03:18:08.000Z</time>
      </trkpt>
      <trkpt lat="27.897315" lon="86.824077">
        <ele>4441.2</ele>
        <time>2022-10-25T03:18:12.000Z</time>
      </trkpt>
      <trkpt lat="27.897334" lon="86.824064">
        <ele>4441.8</ele>
        <time>2022-10-25T03:18:15.000Z</time>
      </trkpt>
      <trkpt lat="27.89735" lon="86.824045">
        <ele>4442</ele>
        <time>2022-10-25T03:18:19.000Z</time>
      </trkpt>
      <trkpt lat="27.89736" lon="86.824026">
        <ele>4442.4</ele>
        <time>2022-10-25T03:18:21.000Z</time>
      </trkpt>
      <trkpt lat="27.897382" lon="86.824019">
        <ele>4441.8</ele>
        <time>2022-10-25T03:18:24.000Z</time>
      </trkpt>
      <trkpt lat="27.897402" lon="86.824013">
        <ele>4441.8</ele>
        <time>2022-10-25T03:18:27.000Z</time>
      </trkpt>
      <trkpt lat="27.897418" lon="86.824">
        <ele>4442.4</ele>
        <time>2022-10-25T03:18:30.000Z</time>
      </trkpt>
      <trkpt lat="27.897427" lon="86.823981">
        <ele>4442.4</ele>
        <time>2022-10-25T03:18:32.000Z</time>
      </trkpt>
      <trkpt lat="27.89744" lon="86.823962">
        <ele>4442.4</ele>
        <time>2022-10-25T03:18:44.000Z</time>
      </trkpt>
      <trkpt lat="27.897462" lon="86.823949">
        <ele>4442.6</ele>
        <time>2022-10-25T03:18:47.000Z</time>
      </trkpt>
      <trkpt lat="27.897482" lon="86.823949">
        <ele>4443</ele>
        <time>2022-10-25T03:18:50.000Z</time>
      </trkpt>
      <trkpt lat="27.897504" lon="86.823942">
        <ele>4443.2</ele>
        <time>2022-10-25T03:18:54.000Z</time>
      </trkpt>
      <trkpt lat="27.897526" lon="86.823936">
        <ele>4444</ele>
        <time>2022-10-25T03:18:58.000Z</time>
      </trkpt>
      <trkpt lat="27.897546" lon="86.82393">
        <ele>4444.2</ele>
        <time>2022-10-25T03:19:03.000Z</time>
      </trkpt>
      <trkpt lat="27.897568" lon="86.823923">
        <ele>4444.6</ele>
        <time>2022-10-25T03:19:06.000Z</time>
      </trkpt>
      <trkpt lat="27.897587" lon="86.823923">
        <ele>4444.2</ele>
        <time>2022-10-25T03:19:09.000Z</time>
      </trkpt>
      <trkpt lat="27.897597" lon="86.823904">
        <ele>4444.8</ele>
        <time>2022-10-25T03:19:11.000Z</time>
      </trkpt>
      <trkpt lat="27.897616" lon="86.823898">
        <ele>4445.2</ele>
        <time>2022-10-25T03:19:15.000Z</time>
      </trkpt>
      <trkpt lat="27.897635" lon="86.823891">
        <ele>4446</ele>
        <time>2022-10-25T03:21:31.000Z</time>
      </trkpt>
      <trkpt lat="27.897661" lon="86.823878">
        <ele>4445.8</ele>
        <time>2022-10-25T03:21:33.000Z</time>
      </trkpt>
      <trkpt lat="27.897683" lon="86.823859">
        <ele>4446</ele>
        <time>2022-10-25T03:21:35.000Z</time>
      </trkpt>
      <trkpt lat="27.897709" lon="86.823846">
        <ele>4446</ele>
        <time>2022-10-25T03:21:37.000Z</time>
      </trkpt>
      <trkpt lat="27.897722" lon="86.823827">
        <ele>4446</ele>
        <time>2022-10-25T03:21:38.000Z</time>
      </trkpt>
      <trkpt lat="27.897738" lon="86.823814">
        <ele>4446.2</ele>
        <time>2022-10-25T03:21:40.000Z</time>
      </trkpt>
      <trkpt lat="27.897757" lon="86.823802">
        <ele>4446.2</ele>
        <time>2022-10-25T03:21:43.000Z</time>
      </trkpt>
      <trkpt lat="27.897766" lon="86.823782">
        <ele>4446.6</ele>
        <time>2022-10-25T03:21:45.000Z</time>
      </trkpt>
      <trkpt lat="27.897779" lon="86.823763">
        <ele>4446.8</ele>
        <time>2022-10-25T03:21:48.000Z</time>
      </trkpt>
      <trkpt lat="27.897798" lon="86.82375">
        <ele>4447</ele>
        <time>2022-10-25T03:21:51.000Z</time>
      </trkpt>
      <trkpt lat="27.897814" lon="86.823738">
        <ele>4447</ele>
        <time>2022-10-25T03:21:55.000Z</time>
      </trkpt>
      <trkpt lat="27.89783" lon="86.823718">
        <ele>4447.6</ele>
        <time>2022-10-25T03:21:59.000Z</time>
      </trkpt>
      <trkpt lat="27.897843" lon="86.823699">
        <ele>4448.2</ele>
        <time>2022-10-25T03:22:02.000Z</time>
      </trkpt>
      <trkpt lat="27.897866" lon="86.823699">
        <ele>4448.4</ele>
        <time>2022-10-25T03:22:05.000Z</time>
      </trkpt>
      <trkpt lat="27.897882" lon="86.823686">
        <ele>4448.4</ele>
        <time>2022-10-25T03:22:08.000Z</time>
      </trkpt>
      <trkpt lat="27.897894" lon="86.823667">
        <ele>4448.4</ele>
        <time>2022-10-25T03:22:10.000Z</time>
      </trkpt>
      <trkpt lat="27.89791" lon="86.823648">
        <ele>4448.8</ele>
        <time>2022-10-25T03:22:13.000Z</time>
      </trkpt>
      <trkpt lat="27.897933" lon="86.823642">
        <ele>4449</ele>
        <time>2022-10-25T03:22:16.000Z</time>
      </trkpt>
      <trkpt lat="27.897952" lon="86.823642">
        <ele>4449.2</ele>
        <time>2022-10-25T03:22:19.000Z</time>
      </trkpt>
      <trkpt lat="27.897971" lon="86.823629">
        <ele>4449.2</ele>
        <time>2022-10-25T03:22:22.000Z</time>
      </trkpt>
      <trkpt lat="27.897987" lon="86.823616">
        <ele>4449.6</ele>
        <time>2022-10-25T03:22:26.000Z</time>
      </trkpt>
      <trkpt lat="27.897997" lon="86.82359">
        <ele>4449.8</ele>
        <time>2022-10-25T03:22:29.000Z</time>
      </trkpt>
      <trkpt lat="27.898013" lon="86.823578">
        <ele>4449.8</ele>
        <time>2022-10-25T03:22:33.000Z</time>
      </trkpt>
      <trkpt lat="27.898029" lon="86.823552">
        <ele>4450.8</ele>
        <time>2022-10-25T03:22:36.000Z</time>
      </trkpt>
      <trkpt lat="27.898042" lon="86.823533">
        <ele>4450.4</ele>
        <time>2022-10-25T03:22:39.000Z</time>
      </trkpt>
      <trkpt lat="27.898058" lon="86.82352">
        <ele>4450.6</ele>
        <time>2022-10-25T03:22:41.000Z</time>
      </trkpt>
      <trkpt lat="27.898077" lon="86.823501">
        <ele>4450.4</ele>
        <time>2022-10-25T03:22:44.000Z</time>
      </trkpt>
      <trkpt lat="27.898099" lon="86.823488">
        <ele>4450.4</ele>
        <time>2022-10-25T03:22:47.000Z</time>
      </trkpt>
      <trkpt lat="27.898118" lon="86.823482">
        <ele>4450.6</ele>
        <time>2022-10-25T03:22:51.000Z</time>
      </trkpt>
      <trkpt lat="27.898138" lon="86.823462">
        <ele>4451</ele>
        <time>2022-10-25T03:22:55.000Z</time>
      </trkpt>
      <trkpt lat="27.898154" lon="86.82345">
        <ele>4452</ele>
        <time>2022-10-25T03:23:01.000Z</time>
      </trkpt>
      <trkpt lat="27.898173" lon="86.823443">
        <ele>4450.8</ele>
        <time>2022-10-25T03:23:23.000Z</time>
      </trkpt>
      <trkpt lat="27.898182" lon="86.823411">
        <ele>4450.6</ele>
        <time>2022-10-25T03:23:25.000Z</time>
      </trkpt>
      <trkpt lat="27.898189" lon="86.823379">
        <ele>4450.8</ele>
        <time>2022-10-25T03:23:27.000Z</time>
      </trkpt>
      <trkpt lat="27.898208" lon="86.823347">
        <ele>4451.4</ele>
        <time>2022-10-25T03:23:30.000Z</time>
      </trkpt>
      <trkpt lat="27.898218" lon="86.823328">
        <ele>4451.4</ele>
        <time>2022-10-25T03:23:32.000Z</time>
      </trkpt>
      <trkpt lat="27.89823" lon="86.823309">
        <ele>4451.8</ele>
        <time>2022-10-25T03:23:34.000Z</time>
      </trkpt>
      <trkpt lat="27.898246" lon="86.823296">
        <ele>4451.8</ele>
        <time>2022-10-25T03:23:36.000Z</time>
      </trkpt>
      <trkpt lat="27.898266" lon="86.82329">
        <ele>4452.6</ele>
        <time>2022-10-25T03:23:39.000Z</time>
      </trkpt>
      <trkpt lat="27.898282" lon="86.82327">
        <ele>4453</ele>
        <time>2022-10-25T03:23:41.000Z</time>
      </trkpt>
      <trkpt lat="27.898301" lon="86.823258">
        <ele>4452.6</ele>
        <time>2022-10-25T03:23:43.000Z</time>
      </trkpt>
      <trkpt lat="27.89832" lon="86.823251">
        <ele>4452.4</ele>
        <time>2022-10-25T03:23:45.000Z</time>
      </trkpt>
      <trkpt lat="27.89833" lon="86.823232">
        <ele>4452.4</ele>
        <time>2022-10-25T03:23:46.000Z</time>
      </trkpt>
      <trkpt lat="27.898352" lon="86.823219">
        <ele>4452.6</ele>
        <time>2022-10-25T03:23:49.000Z</time>
      </trkpt>
      <trkpt lat="27.898368" lon="86.823206">
        <ele>4452.6</ele>
        <time>2022-10-25T03:23:51.000Z</time>
      </trkpt>
      <trkpt lat="27.898387" lon="86.823187">
        <ele>4453.2</ele>
        <time>2022-10-25T03:23:54.000Z</time>
      </trkpt>
      <trkpt lat="27.898406" lon="86.823174">
        <ele>4453</ele>
        <time>2022-10-25T03:23:56.000Z</time>
      </trkpt>
      <trkpt lat="27.898426" lon="86.823155">
        <ele>4453</ele>
        <time>2022-10-25T03:23:59.000Z</time>
      </trkpt>
      <trkpt lat="27.898448" lon="86.823142">
        <ele>4453.2</ele>
        <time>2022-10-25T03:24:02.000Z</time>
      </trkpt>
      <trkpt lat="27.898458" lon="86.823123">
        <ele>4453.8</ele>
        <time>2022-10-25T03:24:06.000Z</time>
      </trkpt>
      <trkpt lat="27.898474" lon="86.823104">
        <ele>4454.8</ele>
        <time>2022-10-25T03:24:09.000Z</time>
      </trkpt>
      <trkpt lat="27.898493" lon="86.823085">
        <ele>4454.8</ele>
        <time>2022-10-25T03:24:12.000Z</time>
      </trkpt>
      <trkpt lat="27.898509" lon="86.823072">
        <ele>4454.8</ele>
        <time>2022-10-25T03:24:14.000Z</time>
      </trkpt>
      <trkpt lat="27.898528" lon="86.823059">
        <ele>4455.4</ele>
        <time>2022-10-25T03:24:17.000Z</time>
      </trkpt>
      <trkpt lat="27.89855" lon="86.823053">
        <ele>4455.4</ele>
        <time>2022-10-25T03:24:20.000Z</time>
      </trkpt>
      <trkpt lat="27.898576" lon="86.823046">
        <ele>4455.4</ele>
        <time>2022-10-25T03:24:23.000Z</time>
      </trkpt>
      <trkpt lat="27.898586" lon="86.823027">
        <ele>4455.4</ele>
        <time>2022-10-25T03:24:26.000Z</time>
      </trkpt>
      <trkpt lat="27.898602" lon="86.823014">
        <ele>4456</ele>
        <time>2022-10-25T03:24:29.000Z</time>
      </trkpt>
      <trkpt lat="27.898614" lon="86.822995">
        <ele>4456.6</ele>
        <time>2022-10-25T03:24:32.000Z</time>
      </trkpt>
      <trkpt lat="27.898634" lon="86.822982">
        <ele>4456.8</ele>
        <time>2022-10-25T03:24:35.000Z</time>
      </trkpt>
      <trkpt lat="27.898656" lon="86.822976">
        <ele>4457.4</ele>
        <time>2022-10-25T03:24:39.000Z</time>
      </trkpt>
      <trkpt lat="27.898678" lon="86.822976">
        <ele>4457.4</ele>
        <time>2022-10-25T03:24:42.000Z</time>
      </trkpt>
      <trkpt lat="27.898701" lon="86.822976">
        <ele>4457.6</ele>
        <time>2022-10-25T03:24:46.000Z</time>
      </trkpt>
      <trkpt lat="27.898717" lon="86.822957">
        <ele>4458</ele>
        <time>2022-10-25T03:24:50.000Z</time>
      </trkpt>
      <trkpt lat="27.898739" lon="86.82295">
        <ele>4458</ele>
        <time>2022-10-25T03:24:53.000Z</time>
      </trkpt>
      <trkpt lat="27.898758" lon="86.82295">
        <ele>4457.6</ele>
        <time>2022-10-25T03:24:56.000Z</time>
      </trkpt>
      <trkpt lat="27.898781" lon="86.82295">
        <ele>4458</ele>
        <time>2022-10-25T03:24:59.000Z</time>
      </trkpt>
      <trkpt lat="27.898803" lon="86.822957">
        <ele>4458.6</ele>
        <time>2022-10-25T03:25:03.000Z</time>
      </trkpt>
      <trkpt lat="27.898822" lon="86.82295">
        <ele>4458.6</ele>
        <time>2022-10-25T03:25:06.000Z</time>
      </trkpt>
      <trkpt lat="27.898845" lon="86.822944">
        <ele>4458.6</ele>
        <time>2022-10-25T03:25:10.000Z</time>
      </trkpt>
      <trkpt lat="27.898848" lon="86.822912">
        <ele>4458.6</ele>
        <time>2022-10-25T03:25:15.000Z</time>
      </trkpt>
      <trkpt lat="27.898854" lon="86.822893">
        <ele>4458.8</ele>
        <time>2022-10-25T03:25:20.000Z</time>
      </trkpt>
      <trkpt lat="27.898867" lon="86.822874">
        <ele>4459.6</ele>
        <time>2022-10-25T03:25:26.000Z</time>
      </trkpt>
      <trkpt lat="27.898883" lon="86.822861">
        <ele>4459.8</ele>
        <time>2022-10-25T03:25:31.000Z</time>
      </trkpt>
      <trkpt lat="27.898906" lon="86.822854">
        <ele>4459.6</ele>
        <time>2022-10-25T03:25:34.000Z</time>
      </trkpt>
      <trkpt lat="27.898928" lon="86.822848">
        <ele>4459.4</ele>
        <time>2022-10-25T03:25:37.000Z</time>
      </trkpt>
      <trkpt lat="27.898947" lon="86.822848">
        <ele>4459.4</ele>
        <time>2022-10-25T03:25:39.000Z</time>
      </trkpt>
      <trkpt lat="27.898963" lon="86.822835">
        <ele>4459.6</ele>
        <time>2022-10-25T03:25:42.000Z</time>
      </trkpt>
      <trkpt lat="27.898982" lon="86.822822">
        <ele>4460</ele>
        <time>2022-10-25T03:25:45.000Z</time>
      </trkpt>
      <trkpt lat="27.899002" lon="86.822816">
        <ele>4460.8</ele>
        <time>2022-10-25T03:25:48.000Z</time>
      </trkpt>
      <trkpt lat="27.899021" lon="86.822816">
        <ele>4460.8</ele>
        <time>2022-10-25T03:25:50.000Z</time>
      </trkpt>
      <trkpt lat="27.89903" lon="86.822797">
        <ele>4460.4</ele>
        <time>2022-10-25T03:25:52.000Z</time>
      </trkpt>
      <trkpt lat="27.89905" lon="86.82279">
        <ele>4460.4</ele>
        <time>2022-10-25T03:25:56.000Z</time>
      </trkpt>
      <trkpt lat="27.899072" lon="86.822784">
        <ele>4461</ele>
        <time>2022-10-25T03:25:59.000Z</time>
      </trkpt>
      <trkpt lat="27.899094" lon="86.822771">
        <ele>4461.2</ele>
        <time>2022-10-25T03:26:04.000Z</time>
      </trkpt>
      <trkpt lat="27.899114" lon="86.822758">
        <ele>4460.8</ele>
        <time>2022-10-25T03:26:07.000Z</time>
      </trkpt>
      <trkpt lat="27.899133" lon="86.822746">
        <ele>4461.4</ele>
        <time>2022-10-25T03:26:18.000Z</time>
      </trkpt>
      <trkpt lat="27.899155" lon="86.822733">
        <ele>4461</ele>
        <time>2022-10-25T03:26:21.000Z</time>
      </trkpt>
      <trkpt lat="27.899168" lon="86.822714">
        <ele>4461</ele>
        <time>2022-10-25T03:26:23.000Z</time>
      </trkpt>
      <trkpt lat="27.899184" lon="86.822701">
        <ele>4461</ele>
        <time>2022-10-25T03:26:26.000Z</time>
      </trkpt>
      <trkpt lat="27.899203" lon="86.822688">
        <ele>4461</ele>
        <time>2022-10-25T03:26:28.000Z</time>
      </trkpt>
      <trkpt lat="27.899219" lon="86.822675">
        <ele>4460.8</ele>
        <time>2022-10-25T03:26:30.000Z</time>
      </trkpt>
      <trkpt lat="27.899245" lon="86.822675">
        <ele>4460.8</ele>
        <time>2022-10-25T03:26:33.000Z</time>
      </trkpt>
      <trkpt lat="27.89927" lon="86.822669">
        <ele>4460.8</ele>
        <time>2022-10-25T03:26:36.000Z</time>
      </trkpt>
      <trkpt lat="27.89929" lon="86.82265">
        <ele>4460.8</ele>
        <time>2022-10-25T03:26:40.000Z</time>
      </trkpt>
      <trkpt lat="27.899296" lon="86.82263">
        <ele>4460.8</ele>
        <time>2022-10-25T03:26:43.000Z</time>
      </trkpt>
      <trkpt lat="27.899309" lon="86.822611">
        <ele>4461.6</ele>
        <time>2022-10-25T03:26:48.000Z</time>
      </trkpt>
      <trkpt lat="27.899318" lon="86.822592">
        <ele>4462</ele>
        <time>2022-10-25T03:26:50.000Z</time>
      </trkpt>
      <trkpt lat="27.899341" lon="86.822579">
        <ele>4461.6</ele>
        <time>2022-10-25T03:26:53.000Z</time>
      </trkpt>
      <trkpt lat="27.899363" lon="86.822573">
        <ele>4461.4</ele>
        <time>2022-10-25T03:26:56.000Z</time>
      </trkpt>
      <trkpt lat="27.899386" lon="86.822573">
        <ele>4461.8</ele>
        <time>2022-10-25T03:26:59.000Z</time>
      </trkpt>
      <trkpt lat="27.899408" lon="86.822579">
        <ele>4462.6</ele>
        <time>2022-10-25T03:27:03.000Z</time>
      </trkpt>
      <trkpt lat="27.899427" lon="86.822573">
        <ele>4462.6</ele>
        <time>2022-10-25T03:27:07.000Z</time>
      </trkpt>
      <trkpt lat="27.899443" lon="86.822554">
        <ele>4462.8</ele>
        <time>2022-10-25T03:27:11.000Z</time>
      </trkpt>
      <trkpt lat="27.899462" lon="86.822541">
        <ele>4462.8</ele>
        <time>2022-10-25T03:27:14.000Z</time>
      </trkpt>
      <trkpt lat="27.899482" lon="86.822534">
        <ele>4462.6</ele>
        <time>2022-10-25T03:27:17.000Z</time>
      </trkpt>
      <trkpt lat="27.899501" lon="86.822528">
        <ele>4463</ele>
        <time>2022-10-25T03:27:20.000Z</time>
      </trkpt>
      <trkpt lat="27.89952" lon="86.822528">
        <ele>4463.2</ele>
        <time>2022-10-25T03:27:23.000Z</time>
      </trkpt>
      <trkpt lat="27.899533" lon="86.822509">
        <ele>4463.8</ele>
        <time>2022-10-25T03:27:28.000Z</time>
      </trkpt>
      <trkpt lat="27.899549" lon="86.822496">
        <ele>4464.4</ele>
        <time>2022-10-25T03:27:34.000Z</time>
      </trkpt>
      <trkpt lat="27.899558" lon="86.822477">
        <ele>4464.8</ele>
        <time>2022-10-25T03:27:37.000Z</time>
      </trkpt>
      <trkpt lat="27.899578" lon="86.82247">
        <ele>4465.2</ele>
        <time>2022-10-25T03:27:41.000Z</time>
      </trkpt>
      <trkpt lat="27.899597" lon="86.822458">
        <ele>4465.4</ele>
        <time>2022-10-25T03:27:46.000Z</time>
      </trkpt>
      <trkpt lat="27.899616" lon="86.822458">
        <ele>4466</ele>
        <time>2022-10-25T03:27:51.000Z</time>
      </trkpt>
      <trkpt lat="27.899632" lon="86.822438">
        <ele>4466.2</ele>
        <time>2022-10-25T03:27:55.000Z</time>
      </trkpt>
      <trkpt lat="27.899651" lon="86.822432">
        <ele>4466.2</ele>
        <time>2022-10-25T03:27:59.000Z</time>
      </trkpt>
      <trkpt lat="27.89967" lon="86.822426">
        <ele>4466.2</ele>
        <time>2022-10-25T03:28:02.000Z</time>
      </trkpt>
      <trkpt lat="27.89969" lon="86.822426">
        <ele>4466</ele>
        <time>2022-10-25T03:28:04.000Z</time>
      </trkpt>
      <trkpt lat="27.899709" lon="86.822426">
        <ele>4466.2</ele>
        <time>2022-10-25T03:28:08.000Z</time>
      </trkpt>
      <trkpt lat="27.899728" lon="86.822413">
        <ele>4466.4</ele>
        <time>2022-10-25T03:28:13.000Z</time>
      </trkpt>
      <trkpt lat="27.899747" lon="86.8224">
        <ele>4466</ele>
        <time>2022-10-25T03:28:18.000Z</time>
      </trkpt>
      <trkpt lat="27.899766" lon="86.822394">
        <ele>4466</ele>
        <time>2022-10-25T03:28:21.000Z</time>
      </trkpt>
      <trkpt lat="27.899786" lon="86.8224">
        <ele>4465.8</ele>
        <time>2022-10-25T03:28:24.000Z</time>
      </trkpt>
      <trkpt lat="27.899798" lon="86.822419">
        <ele>4466.4</ele>
        <time>2022-10-25T03:28:28.000Z</time>
      </trkpt>
      <trkpt lat="27.899818" lon="86.822426">
        <ele>4466.6</ele>
        <time>2022-10-25T03:28:32.000Z</time>
      </trkpt>
      <trkpt lat="27.899837" lon="86.822432">
        <ele>4466.8</ele>
        <time>2022-10-25T03:28:35.000Z</time>
      </trkpt>
      <trkpt lat="27.899856" lon="86.822432">
        <ele>4466.8</ele>
        <time>2022-10-25T03:28:39.000Z</time>
      </trkpt>
      <trkpt lat="27.899875" lon="86.822432">
        <ele>4466.4</ele>
        <time>2022-10-25T03:28:41.000Z</time>
      </trkpt>
      <trkpt lat="27.899898" lon="86.822432">
        <ele>4465.8</ele>
        <time>2022-10-25T03:28:44.000Z</time>
      </trkpt>
      <trkpt lat="27.899917" lon="86.822438">
        <ele>4466.4</ele>
        <time>2022-10-25T03:28:47.000Z</time>
      </trkpt>
      <trkpt lat="27.899936" lon="86.822438">
        <ele>4466.4</ele>
        <time>2022-10-25T03:28:50.000Z</time>
      </trkpt>
      <trkpt lat="27.899955" lon="86.822438">
        <ele>4466.4</ele>
        <time>2022-10-25T03:28:53.000Z</time>
      </trkpt>
      <trkpt lat="27.899978" lon="86.822432">
        <ele>4466.4</ele>
        <time>2022-10-25T03:28:57.000Z</time>
      </trkpt>
      <trkpt lat="27.899997" lon="86.822413">
        <ele>4466.6</ele>
        <time>2022-10-25T03:29:02.000Z</time>
      </trkpt>
      <trkpt lat="27.900003" lon="86.822387">
        <ele>4467.4</ele>
        <time>2022-10-25T03:29:05.000Z</time>
      </trkpt>
      <trkpt lat="27.90001" lon="86.822368">
        <ele>4468.2</ele>
        <time>2022-10-25T03:29:18.000Z</time>
      </trkpt>
      <trkpt lat="27.90001" lon="86.822342">
        <ele>4468</ele>
        <time>2022-10-25T03:29:21.000Z</time>
      </trkpt>
      <trkpt lat="27.90001" lon="86.822317">
        <ele>4467.8</ele>
        <time>2022-10-25T03:29:24.000Z</time>
      </trkpt>
      <trkpt lat="27.900016" lon="86.822298">
        <ele>4468.4</ele>
        <time>2022-10-25T03:29:29.000Z</time>
      </trkpt>
      <trkpt lat="27.900016" lon="86.822272">
        <ele>4469.2</ele>
        <time>2022-10-25T03:29:32.000Z</time>
      </trkpt>
      <trkpt lat="27.90001" lon="86.822253">
        <ele>4469.4</ele>
        <time>2022-10-25T03:29:36.000Z</time>
      </trkpt>
      <trkpt lat="27.90001" lon="86.822227">
        <ele>4469.2</ele>
        <time>2022-10-25T03:29:39.000Z</time>
      </trkpt>
      <trkpt lat="27.900019" lon="86.822202">
        <ele>4468.6</ele>
        <time>2022-10-25T03:29:42.000Z</time>
      </trkpt>
      <trkpt lat="27.900038" lon="86.822182">
        <ele>4468.6</ele>
        <time>2022-10-25T03:29:45.000Z</time>
      </trkpt>
      <trkpt lat="27.900054" lon="86.82217">
        <ele>4468.8</ele>
        <time>2022-10-25T03:29:48.000Z</time>
      </trkpt>
      <trkpt lat="27.900074" lon="86.822176">
        <ele>4469.2</ele>
        <time>2022-10-25T03:29:51.000Z</time>
      </trkpt>
      <trkpt lat="27.900093" lon="86.822182">
        <ele>4470.2</ele>
        <time>2022-10-25T03:29:55.000Z</time>
      </trkpt>
      <trkpt lat="27.900112" lon="86.822176">
        <ele>4470</ele>
        <time>2022-10-25T03:29:58.000Z</time>
      </trkpt>
      <trkpt lat="27.900128" lon="86.822157">
        <ele>4470.2</ele>
        <time>2022-10-25T03:30:01.000Z</time>
      </trkpt>
      <trkpt lat="27.900147" lon="86.82215">
        <ele>4470</ele>
        <time>2022-10-25T03:30:04.000Z</time>
      </trkpt>
      <trkpt lat="27.900166" lon="86.822138">
        <ele>4470</ele>
        <time>2022-10-25T03:30:07.000Z</time>
      </trkpt>
      <trkpt lat="27.900186" lon="86.822118">
        <ele>4470</ele>
        <time>2022-10-25T03:30:10.000Z</time>
      </trkpt>
      <trkpt lat="27.900205" lon="86.822106">
        <ele>4470.2</ele>
        <time>2022-10-25T03:30:13.000Z</time>
      </trkpt>
      <trkpt lat="27.900227" lon="86.822093">
        <ele>4470.4</ele>
        <time>2022-10-25T03:30:16.000Z</time>
      </trkpt>
      <trkpt lat="27.90025" lon="86.82208">
        <ele>4470.8</ele>
        <time>2022-10-25T03:30:19.000Z</time>
      </trkpt>
      <trkpt lat="27.900272" lon="86.822067">
        <ele>4470.8</ele>
        <time>2022-10-25T03:30:22.000Z</time>
      </trkpt>
      <trkpt lat="27.900288" lon="86.822054">
        <ele>4470.4</ele>
        <time>2022-10-25T03:30:25.000Z</time>
      </trkpt>
      <trkpt lat="27.900304" lon="86.822042">
        <ele>4470.4</ele>
        <time>2022-10-25T03:30:27.000Z</time>
      </trkpt>
      <trkpt lat="27.900326" lon="86.822035">
        <ele>4470.8</ele>
        <time>2022-10-25T03:30:30.000Z</time>
      </trkpt>
      <trkpt lat="27.900346" lon="86.822022">
        <ele>4471</ele>
        <time>2022-10-25T03:30:33.000Z</time>
      </trkpt>
      <trkpt lat="27.900362" lon="86.822003">
        <ele>4470.6</ele>
        <time>2022-10-25T03:30:35.000Z</time>
      </trkpt>
      <trkpt lat="27.900387" lon="86.82199">
        <ele>4470.2</ele>
        <time>2022-10-25T03:30:39.000Z</time>
      </trkpt>
      <trkpt lat="27.900406" lon="86.821984">
        <ele>4470.4</ele>
        <time>2022-10-25T03:30:41.000Z</time>
      </trkpt>
      <trkpt lat="27.900426" lon="86.82199">
        <ele>4470.4</ele>
        <time>2022-10-25T03:30:44.000Z</time>
      </trkpt>
      <trkpt lat="27.900448" lon="86.82199">
        <ele>4470.4</ele>
        <time>2022-10-25T03:30:47.000Z</time>
      </trkpt>
      <trkpt lat="27.900464" lon="86.821978">
        <ele>4470.4</ele>
        <time>2022-10-25T03:30:50.000Z</time>
      </trkpt>
      <trkpt lat="27.900483" lon="86.821958">
        <ele>4470</ele>
        <time>2022-10-25T03:30:53.000Z</time>
      </trkpt>
      <trkpt lat="27.900502" lon="86.821946">
        <ele>4470.4</ele>
        <time>2022-10-25T03:30:56.000Z</time>
      </trkpt>
      <trkpt lat="27.900522" lon="86.821933">
        <ele>4470.4</ele>
        <time>2022-10-25T03:30:59.000Z</time>
      </trkpt>
      <trkpt lat="27.900544" lon="86.82192">
        <ele>4471</ele>
        <time>2022-10-25T03:31:02.000Z</time>
      </trkpt>
      <trkpt lat="27.900563" lon="86.821907">
        <ele>4470.4</ele>
        <time>2022-10-25T03:31:05.000Z</time>
      </trkpt>
      <trkpt lat="27.900586" lon="86.821894">
        <ele>4470.6</ele>
        <time>2022-10-25T03:31:08.000Z</time>
      </trkpt>
      <trkpt lat="27.900602" lon="86.821882">
        <ele>4470.8</ele>
        <time>2022-10-25T03:31:10.000Z</time>
      </trkpt>
      <trkpt lat="27.900621" lon="86.821869">
        <ele>4471</ele>
        <time>2022-10-25T03:31:13.000Z</time>
      </trkpt>
      <trkpt lat="27.900643" lon="86.821862">
        <ele>4471.2</ele>
        <time>2022-10-25T03:31:16.000Z</time>
      </trkpt>
      <trkpt lat="27.90065" lon="86.821843">
        <ele>4471</ele>
        <time>2022-10-25T03:31:18.000Z</time>
      </trkpt>
      <trkpt lat="27.900669" lon="86.821824">
        <ele>4471.2</ele>
        <time>2022-10-25T03:31:22.000Z</time>
      </trkpt>
      <trkpt lat="27.900688" lon="86.821805">
        <ele>4471</ele>
        <time>2022-10-25T03:31:25.000Z</time>
      </trkpt>
      <trkpt lat="27.90071" lon="86.821798">
        <ele>4471.4</ele>
        <time>2022-10-25T03:31:28.000Z</time>
      </trkpt>
      <trkpt lat="27.90073" lon="86.821779">
        <ele>4471.4</ele>
        <time>2022-10-25T03:31:31.000Z</time>
      </trkpt>
      <trkpt lat="27.900742" lon="86.82176">
        <ele>4471.6</ele>
        <time>2022-10-25T03:31:33.000Z</time>
      </trkpt>
      <trkpt lat="27.900762" lon="86.821747">
        <ele>4471.4</ele>
        <time>2022-10-25T03:31:36.000Z</time>
      </trkpt>
      <trkpt lat="27.900778" lon="86.821734">
        <ele>4471.2</ele>
        <time>2022-10-25T03:31:39.000Z</time>
      </trkpt>
      <trkpt lat="27.900794" lon="86.821715">
        <ele>4471.2</ele>
        <time>2022-10-25T03:31:41.000Z</time>
      </trkpt>
      <trkpt lat="27.900813" lon="86.821709">
        <ele>4471.2</ele>
        <time>2022-10-25T03:31:44.000Z</time>
      </trkpt>
      <trkpt lat="27.900829" lon="86.821696">
        <ele>4471.4</ele>
        <time>2022-10-25T03:31:47.000Z</time>
      </trkpt>
      <trkpt lat="27.900835" lon="86.821677">
        <ele>4471.4</ele>
        <time>2022-10-25T03:31:48.000Z</time>
      </trkpt>
      <trkpt lat="27.900854" lon="86.821664">
        <ele>4471.8</ele>
        <time>2022-10-25T03:31:51.000Z</time>
      </trkpt>
      <trkpt lat="27.90087" lon="86.821645">
        <ele>4471.8</ele>
        <time>2022-10-25T03:31:54.000Z</time>
      </trkpt>
      <trkpt lat="27.900893" lon="86.821626">
        <ele>4471.8</ele>
        <time>2022-10-25T03:31:57.000Z</time>
      </trkpt>
      <trkpt lat="27.900909" lon="86.821606">
        <ele>4471.8</ele>
        <time>2022-10-25T03:32:00.000Z</time>
      </trkpt>
      <trkpt lat="27.900925" lon="86.821587">
        <ele>4471.8</ele>
        <time>2022-10-25T03:32:04.000Z</time>
      </trkpt>
      <trkpt lat="27.900938" lon="86.821562">
        <ele>4471.8</ele>
        <time>2022-10-25T03:32:08.000Z</time>
      </trkpt>
      <trkpt lat="27.900954" lon="86.821549">
        <ele>4472.4</ele>
        <time>2022-10-25T03:32:11.000Z</time>
      </trkpt>
      <trkpt lat="27.900973" lon="86.821523">
        <ele>4472.6</ele>
        <time>2022-10-25T03:32:14.000Z</time>
      </trkpt>
      <trkpt lat="27.900995" lon="86.82151">
        <ele>4472.4</ele>
        <time>2022-10-25T03:32:18.000Z</time>
      </trkpt>
      <trkpt lat="27.901018" lon="86.821498">
        <ele>4472.4</ele>
        <time>2022-10-25T03:32:21.000Z</time>
      </trkpt>
      <trkpt lat="27.90104" lon="86.821478">
        <ele>4472.4</ele>
        <time>2022-10-25T03:32:24.000Z</time>
      </trkpt>
      <trkpt lat="27.901062" lon="86.821459">
        <ele>4472.4</ele>
        <time>2022-10-25T03:32:28.000Z</time>
      </trkpt>
      <trkpt lat="27.901082" lon="86.821446">
        <ele>4472.2</ele>
        <time>2022-10-25T03:32:31.000Z</time>
      </trkpt>
      <trkpt lat="27.901101" lon="86.821427">
        <ele>4472.4</ele>
        <time>2022-10-25T03:32:34.000Z</time>
      </trkpt>
      <trkpt lat="27.90112" lon="86.821421">
        <ele>4472.4</ele>
        <time>2022-10-25T03:32:37.000Z</time>
      </trkpt>
      <trkpt lat="27.901136" lon="86.821408">
        <ele>4472.8</ele>
        <time>2022-10-25T03:32:39.000Z</time>
      </trkpt>
      <trkpt lat="27.901152" lon="86.821389">
        <ele>4473</ele>
        <time>2022-10-25T03:32:42.000Z</time>
      </trkpt>
      <trkpt lat="27.901168" lon="86.821363">
        <ele>4472.6</ele>
        <time>2022-10-25T03:32:45.000Z</time>
      </trkpt>
      <trkpt lat="27.901194" lon="86.821363">
        <ele>4472.4</ele>
        <time>2022-10-25T03:32:57.000Z</time>
      </trkpt>
      <trkpt lat="27.901216" lon="86.821363">
        <ele>4472.4</ele>
        <time>2022-10-25T03:32:59.000Z</time>
      </trkpt>
      <trkpt lat="27.901238" lon="86.821363">
        <ele>4472.6</ele>
        <time>2022-10-25T03:33:02.000Z</time>
      </trkpt>
      <trkpt lat="27.901258" lon="86.821357">
        <ele>4472.6</ele>
        <time>2022-10-25T03:33:04.000Z</time>
      </trkpt>
      <trkpt lat="27.90128" lon="86.821344">
        <ele>4472.6</ele>
        <time>2022-10-25T03:33:07.000Z</time>
      </trkpt>
      <trkpt lat="27.901296" lon="86.821325">
        <ele>4473</ele>
        <time>2022-10-25T03:33:10.000Z</time>
      </trkpt>
      <trkpt lat="27.901315" lon="86.821325">
        <ele>4473.2</ele>
        <time>2022-10-25T03:33:20.000Z</time>
      </trkpt>
      <trkpt lat="27.901338" lon="86.821312">
        <ele>4473.4</ele>
        <time>2022-10-25T03:33:24.000Z</time>
      </trkpt>
      <trkpt lat="27.901357" lon="86.821299">
        <ele>4474</ele>
        <time>2022-10-25T03:33:27.000Z</time>
      </trkpt>
      <trkpt lat="27.901376" lon="86.82128">
        <ele>4474</ele>
        <time>2022-10-25T03:33:30.000Z</time>
      </trkpt>
      <trkpt lat="27.901395" lon="86.821274">
        <ele>4474.2</ele>
        <time>2022-10-25T03:33:33.000Z</time>
      </trkpt>
      <trkpt lat="27.901411" lon="86.821248">
        <ele>4474.6</ele>
        <time>2022-10-25T03:33:36.000Z</time>
      </trkpt>
      <trkpt lat="27.901427" lon="86.821229">
        <ele>4474.4</ele>
        <time>2022-10-25T03:33:40.000Z</time>
      </trkpt>
      <trkpt lat="27.90144" lon="86.82121">
        <ele>4474.4</ele>
        <time>2022-10-25T03:33:43.000Z</time>
      </trkpt>
      <trkpt lat="27.901453" lon="86.82119">
        <ele>4474.6</ele>
        <time>2022-10-25T03:33:46.000Z</time>
      </trkpt>
      <trkpt lat="27.901475" lon="86.82119">
        <ele>4474.6</ele>
        <time>2022-10-25T03:33:49.000Z</time>
      </trkpt>
      <trkpt lat="27.901491" lon="86.821165">
        <ele>4475.2</ele>
        <time>2022-10-25T03:33:54.000Z</time>
      </trkpt>
      <trkpt lat="27.901507" lon="86.821146">
        <ele>4475.8</ele>
        <time>2022-10-25T03:33:58.000Z</time>
      </trkpt>
      <trkpt lat="27.90152" lon="86.821126">
        <ele>4476</ele>
        <time>2022-10-25T03:34:02.000Z</time>
      </trkpt>
      <trkpt lat="27.901536" lon="86.821114">
        <ele>4476</ele>
        <time>2022-10-25T03:34:06.000Z</time>
      </trkpt>
      <trkpt lat="27.901555" lon="86.821107">
        <ele>4476.6</ele>
        <time>2022-10-25T03:34:09.000Z</time>
      </trkpt>
      <trkpt lat="27.901578" lon="86.821088">
        <ele>4476.8</ele>
        <time>2022-10-25T03:34:13.000Z</time>
      </trkpt>
      <trkpt lat="27.901597" lon="86.821082">
        <ele>4477</ele>
        <time>2022-10-25T03:34:16.000Z</time>
      </trkpt>
      <trkpt lat="27.901622" lon="86.821069">
        <ele>4477.4</ele>
        <time>2022-10-25T03:34:20.000Z</time>
      </trkpt>
      <trkpt lat="27.901635" lon="86.82105">
        <ele>4477.4</ele>
        <time>2022-10-25T03:34:23.000Z</time>
      </trkpt>
      <trkpt lat="27.901658" lon="86.821037">
        <ele>4478</ele>
        <time>2022-10-25T03:34:27.000Z</time>
      </trkpt>
      <trkpt lat="27.901674" lon="86.821024">
        <ele>4478</ele>
        <time>2022-10-25T03:34:30.000Z</time>
      </trkpt>
      <trkpt lat="27.901693" lon="86.821005">
        <ele>4478</ele>
        <time>2022-10-25T03:34:34.000Z</time>
      </trkpt>
      <trkpt lat="27.901712" lon="86.820998">
        <ele>4478.4</ele>
        <time>2022-10-25T03:34:38.000Z</time>
      </trkpt>
      <trkpt lat="27.901731" lon="86.820986">
        <ele>4479</ele>
        <time>2022-10-25T03:34:42.000Z</time>
      </trkpt>
      <trkpt lat="27.901747" lon="86.820966">
        <ele>4479</ele>
        <time>2022-10-25T03:34:45.000Z</time>
      </trkpt>
      <trkpt lat="27.901766" lon="86.820954">
        <ele>4479</ele>
        <time>2022-10-25T03:34:49.000Z</time>
      </trkpt>
      <trkpt lat="27.901786" lon="86.820941">
        <ele>4479</ele>
        <time>2022-10-25T03:34:53.000Z</time>
      </trkpt>
      <trkpt lat="27.901802" lon="86.820928">
        <ele>4479.4</ele>
        <time>2022-10-25T03:34:56.000Z</time>
      </trkpt>
      <trkpt lat="27.901818" lon="86.820915">
        <ele>4480</ele>
        <time>2022-10-25T03:34:59.000Z</time>
      </trkpt>
      <trkpt lat="27.901834" lon="86.820902">
        <ele>4480</ele>
        <time>2022-10-25T03:35:02.000Z</time>
      </trkpt>
      <trkpt lat="27.90185" lon="86.82089">
        <ele>4480.2</ele>
        <time>2022-10-25T03:35:05.000Z</time>
      </trkpt>
      <trkpt lat="27.901869" lon="86.820883">
        <ele>4480.4</ele>
        <time>2022-10-25T03:35:08.000Z</time>
      </trkpt>
      <trkpt lat="27.901891" lon="86.820877">
        <ele>4480.2</ele>
        <time>2022-10-25T03:35:12.000Z</time>
      </trkpt>
      <trkpt lat="27.901914" lon="86.82087">
        <ele>4480.2</ele>
        <time>2022-10-25T03:35:16.000Z</time>
      </trkpt>
      <trkpt lat="27.901933" lon="86.820851">
        <ele>4480.8</ele>
        <time>2022-10-25T03:35:19.000Z</time>
      </trkpt>
      <trkpt lat="27.901949" lon="86.820838">
        <ele>4481.2</ele>
        <time>2022-10-25T03:35:22.000Z</time>
      </trkpt>
      <trkpt lat="27.901968" lon="86.820826">
        <ele>4480.8</ele>
        <time>2022-10-25T03:35:26.000Z</time>
      </trkpt>
      <trkpt lat="27.901978" lon="86.820806">
        <ele>4481.2</ele>
        <time>2022-10-25T03:35:29.000Z</time>
      </trkpt>
      <trkpt lat="27.901997" lon="86.820787">
        <ele>4481.4</ele>
        <time>2022-10-25T03:35:33.000Z</time>
      </trkpt>
      <trkpt lat="27.902013" lon="86.820768">
        <ele>4481.8</ele>
        <time>2022-10-25T03:35:36.000Z</time>
      </trkpt>
      <trkpt lat="27.902022" lon="86.820749">
        <ele>4482.2</ele>
        <time>2022-10-25T03:35:40.000Z</time>
      </trkpt>
      <trkpt lat="27.902029" lon="86.82073">
        <ele>4482.4</ele>
        <time>2022-10-25T03:35:43.000Z</time>
      </trkpt>
      <trkpt lat="27.902032" lon="86.820704">
        <ele>4482.8</ele>
        <time>2022-10-25T03:35:49.000Z</time>
      </trkpt>
      <trkpt lat="27.902051" lon="86.820691">
        <ele>4483.4</ele>
        <time>2022-10-25T03:35:56.000Z</time>
      </trkpt>
      <trkpt lat="27.902058" lon="86.820672">
        <ele>4483.4</ele>
        <time>2022-10-25T03:36:01.000Z</time>
      </trkpt>
      <trkpt lat="27.90208" lon="86.820646">
        <ele>4486.2</ele>
        <time>2022-10-25T03:41:03.000Z</time>
      </trkpt>
      <trkpt lat="27.902102" lon="86.820634">
        <ele>4486.2</ele>
        <time>2022-10-25T03:41:05.000Z</time>
      </trkpt>
      <trkpt lat="27.902128" lon="86.820608">
        <ele>4486.4</ele>
        <time>2022-10-25T03:41:07.000Z</time>
      </trkpt>
      <trkpt lat="27.90215" lon="86.820589">
        <ele>4486.4</ele>
        <time>2022-10-25T03:41:09.000Z</time>
      </trkpt>
      <trkpt lat="27.90217" lon="86.82057">
        <ele>4486.4</ele>
        <time>2022-10-25T03:41:11.000Z</time>
      </trkpt>
      <trkpt lat="27.902189" lon="86.820557">
        <ele>4486.6</ele>
        <time>2022-10-25T03:41:15.000Z</time>
      </trkpt>
      <trkpt lat="27.902208" lon="86.82055">
        <ele>4487</ele>
        <time>2022-10-25T03:41:24.000Z</time>
      </trkpt>
      <trkpt lat="27.90223" lon="86.820544">
        <ele>4487.2</ele>
        <time>2022-10-25T03:41:27.000Z</time>
      </trkpt>
      <trkpt lat="27.90225" lon="86.820531">
        <ele>4487</ele>
        <time>2022-10-25T03:41:30.000Z</time>
      </trkpt>
      <trkpt lat="27.902269" lon="86.820525">
        <ele>4487.6</ele>
        <time>2022-10-25T03:41:33.000Z</time>
      </trkpt>
      <trkpt lat="27.902288" lon="86.820518">
        <ele>4488</ele>
        <time>2022-10-25T03:41:37.000Z</time>
      </trkpt>
      <trkpt lat="27.902307" lon="86.820512">
        <ele>4488.6</ele>
        <time>2022-10-25T03:41:40.000Z</time>
      </trkpt>
      <trkpt lat="27.90233" lon="86.820506">
        <ele>4489</ele>
        <time>2022-10-25T03:41:44.000Z</time>
      </trkpt>
      <trkpt lat="27.902346" lon="86.820493">
        <ele>4489.2</ele>
        <time>2022-10-25T03:41:47.000Z</time>
      </trkpt>
      <trkpt lat="27.902358" lon="86.820474">
        <ele>4489.8</ele>
        <time>2022-10-25T03:41:50.000Z</time>
      </trkpt>
      <trkpt lat="27.902374" lon="86.820454">
        <ele>4490</ele>
        <time>2022-10-25T03:41:54.000Z</time>
      </trkpt>
      <trkpt lat="27.902394" lon="86.820442">
        <ele>4490</ele>
        <time>2022-10-25T03:41:57.000Z</time>
      </trkpt>
      <trkpt lat="27.90241" lon="86.820429">
        <ele>4490</ele>
        <time>2022-10-25T03:42:00.000Z</time>
      </trkpt>
      <trkpt lat="27.902432" lon="86.820422">
        <ele>4490.6</ele>
        <time>2022-10-25T03:42:03.000Z</time>
      </trkpt>
      <trkpt lat="27.902451" lon="86.82041">
        <ele>4490.6</ele>
        <time>2022-10-25T03:42:06.000Z</time>
      </trkpt>
      <trkpt lat="27.902467" lon="86.820397">
        <ele>4491</ele>
        <time>2022-10-25T03:42:09.000Z</time>
      </trkpt>
      <trkpt lat="27.90249" lon="86.82039">
        <ele>4491.2</ele>
        <time>2022-10-25T03:42:13.000Z</time>
      </trkpt>
      <trkpt lat="27.902512" lon="86.820384">
        <ele>4491.8</ele>
        <time>2022-10-25T03:42:17.000Z</time>
      </trkpt>
      <trkpt lat="27.902531" lon="86.820371">
        <ele>4491.4</ele>
        <time>2022-10-25T03:42:20.000Z</time>
      </trkpt>
      <trkpt lat="27.90255" lon="86.820365">
        <ele>4491.8</ele>
        <time>2022-10-25T03:42:27.000Z</time>
      </trkpt>
      <trkpt lat="27.902566" lon="86.820352">
        <ele>4491.8</ele>
        <time>2022-10-25T03:42:35.000Z</time>
      </trkpt>
      <trkpt lat="27.902589" lon="86.820352">
        <ele>4491.6</ele>
        <time>2022-10-25T03:42:37.000Z</time>
      </trkpt>
      <trkpt lat="27.902608" lon="86.820352">
        <ele>4491.2</ele>
        <time>2022-10-25T03:42:39.000Z</time>
      </trkpt>
      <trkpt lat="27.902627" lon="86.820346">
        <ele>4491.2</ele>
        <time>2022-10-25T03:42:41.000Z</time>
      </trkpt>
      <trkpt lat="27.90265" lon="86.820352">
        <ele>4491.2</ele>
        <time>2022-10-25T03:42:44.000Z</time>
      </trkpt>
      <trkpt lat="27.902672" lon="86.820346">
        <ele>4491</ele>
        <time>2022-10-25T03:42:47.000Z</time>
      </trkpt>
      <trkpt lat="27.902691" lon="86.820333">
        <ele>4491.2</ele>
        <time>2022-10-25T03:42:50.000Z</time>
      </trkpt>
      <trkpt lat="27.90271" lon="86.820333">
        <ele>4490.8</ele>
        <time>2022-10-25T03:42:53.000Z</time>
      </trkpt>
      <trkpt lat="27.90273" lon="86.820326">
        <ele>4490.2</ele>
        <time>2022-10-25T03:42:56.000Z</time>
      </trkpt>
      <trkpt lat="27.902755" lon="86.82032">
        <ele>4489.4</ele>
        <time>2022-10-25T03:43:00.000Z</time>
      </trkpt>
      <trkpt lat="27.902774" lon="86.820307">
        <ele>4489</ele>
        <time>2022-10-25T03:43:03.000Z</time>
      </trkpt>
      <trkpt lat="27.902797" lon="86.820307">
        <ele>4488.2</ele>
        <time>2022-10-25T03:43:06.000Z</time>
      </trkpt>
      <trkpt lat="27.902816" lon="86.820294">
        <ele>4487.6</ele>
        <time>2022-10-25T03:43:09.000Z</time>
      </trkpt>
      <trkpt lat="27.902835" lon="86.820294">
        <ele>4486.8</ele>
        <time>2022-10-25T03:43:11.000Z</time>
      </trkpt>
      <trkpt lat="27.902858" lon="86.820294">
        <ele>4486.6</ele>
        <time>2022-10-25T03:43:14.000Z</time>
      </trkpt>
      <trkpt lat="27.902877" lon="86.820307">
        <ele>4486.4</ele>
        <time>2022-10-25T03:43:16.000Z</time>
      </trkpt>
      <trkpt lat="27.902899" lon="86.820314">
        <ele>4486.6</ele>
        <time>2022-10-25T03:43:19.000Z</time>
      </trkpt>
      <trkpt lat="27.902918" lon="86.820314">
        <ele>4486.6</ele>
        <time>2022-10-25T03:43:21.000Z</time>
      </trkpt>
      <trkpt lat="27.902938" lon="86.820307">
        <ele>4486.4</ele>
        <time>2022-10-25T03:43:27.000Z</time>
      </trkpt>
      <trkpt lat="27.902957" lon="86.820294">
        <ele>4486.6</ele>
        <time>2022-10-25T03:43:31.000Z</time>
      </trkpt>
      <trkpt lat="27.902973" lon="86.820282">
        <ele>4486</ele>
        <time>2022-10-25T03:43:34.000Z</time>
      </trkpt>
      <trkpt lat="27.902995" lon="86.820275">
        <ele>4485.8</ele>
        <time>2022-10-25T03:43:40.000Z</time>
      </trkpt>
      <trkpt lat="27.903014" lon="86.820256">
        <ele>4485.4</ele>
        <time>2022-10-25T03:43:43.000Z</time>
      </trkpt>
      <trkpt lat="27.903034" lon="86.820243">
        <ele>4484.8</ele>
        <time>2022-10-25T03:43:47.000Z</time>
      </trkpt>
      <trkpt lat="27.903053" lon="86.82023">
        <ele>4485</ele>
        <time>2022-10-25T03:43:51.000Z</time>
      </trkpt>
      <trkpt lat="27.903072" lon="86.820211">
        <ele>4485.4</ele>
        <time>2022-10-25T03:43:55.000Z</time>
      </trkpt>
      <trkpt lat="27.903078" lon="86.820186">
        <ele>4485.6</ele>
        <time>2022-10-25T03:44:00.000Z</time>
      </trkpt>
      <trkpt lat="27.903098" lon="86.820166">
        <ele>4486.2</ele>
        <time>2022-10-25T03:45:48.000Z</time>
      </trkpt>
      <trkpt lat="27.90311" lon="86.820147">
        <ele>4486.4</ele>
        <time>2022-10-25T03:45:50.000Z</time>
      </trkpt>
      <trkpt lat="27.903146" lon="86.820096">
        <ele>4487.2</ele>
        <time>2022-10-25T03:45:57.000Z</time>
      </trkpt>
      <trkpt lat="27.903155" lon="86.820058">
        <ele>4487.8</ele>
        <time>2022-10-25T03:46:20.000Z</time>
      </trkpt>
      <trkpt lat="27.903162" lon="86.820032">
        <ele>4487.8</ele>
        <time>2022-10-25T03:46:22.000Z</time>
      </trkpt>
      <trkpt lat="27.903171" lon="86.82">
        <ele>4488.6</ele>
        <time>2022-10-25T03:46:24.000Z</time>
      </trkpt>
      <trkpt lat="27.903181" lon="86.819974">
        <ele>4489</ele>
        <time>2022-10-25T03:46:26.000Z</time>
      </trkpt>
      <trkpt lat="27.903184" lon="86.819949">
        <ele>4489.2</ele>
        <time>2022-10-25T03:46:29.000Z</time>
      </trkpt>
      <trkpt lat="27.90319" lon="86.81993">
        <ele>4490</ele>
        <time>2022-10-25T03:46:33.000Z</time>
      </trkpt>
      <trkpt lat="27.903197" lon="86.81991">
        <ele>4490.2</ele>
        <time>2022-10-25T03:46:37.000Z</time>
      </trkpt>
      <trkpt lat="27.903203" lon="86.819891">
        <ele>4490.6</ele>
        <time>2022-10-25T03:46:40.000Z</time>
      </trkpt>
      <trkpt lat="27.903206" lon="86.819859">
        <ele>4491.6</ele>
        <time>2022-10-25T03:46:47.000Z</time>
      </trkpt>
      <trkpt lat="27.903216" lon="86.81984">
        <ele>4492.6</ele>
        <time>2022-10-25T03:46:51.000Z</time>
      </trkpt>
      <trkpt lat="27.903222" lon="86.819814">
        <ele>4492.6</ele>
        <time>2022-10-25T03:46:54.000Z</time>
      </trkpt>
      <trkpt lat="27.903238" lon="86.819802">
        <ele>4492.6</ele>
        <time>2022-10-25T03:47:01.000Z</time>
      </trkpt>
      <trkpt lat="27.903254" lon="86.819776">
        <ele>4491.8</ele>
        <time>2022-10-25T03:48:07.000Z</time>
      </trkpt>
      <trkpt lat="27.903286" lon="86.819776">
        <ele>4492</ele>
        <time>2022-10-25T03:48:09.000Z</time>
      </trkpt>
      <trkpt lat="27.903315" lon="86.819763">
        <ele>4491.8</ele>
        <time>2022-10-25T03:48:11.000Z</time>
      </trkpt>
      <trkpt lat="27.903344" lon="86.81975">
        <ele>4491.4</ele>
        <time>2022-10-25T03:48:13.000Z</time>
      </trkpt>
      <trkpt lat="27.90337" lon="86.819738">
        <ele>4491.4</ele>
        <time>2022-10-25T03:48:15.000Z</time>
      </trkpt>
      <trkpt lat="27.903392" lon="86.819731">
        <ele>4490.8</ele>
        <time>2022-10-25T03:48:17.000Z</time>
      </trkpt>
      <trkpt lat="27.903411" lon="86.819725">
        <ele>4491</ele>
        <time>2022-10-25T03:48:20.000Z</time>
      </trkpt>
      <trkpt lat="27.90343" lon="86.819718">
        <ele>4491.8</ele>
        <time>2022-10-25T03:48:24.000Z</time>
      </trkpt>
      <trkpt lat="27.90344" lon="86.819693">
        <ele>4491.8</ele>
        <time>2022-10-25T03:48:27.000Z</time>
      </trkpt>
      <trkpt lat="27.90345" lon="86.819674">
        <ele>4492</ele>
        <time>2022-10-25T03:48:30.000Z</time>
      </trkpt>
      <trkpt lat="27.903462" lon="86.819654">
        <ele>4492</ele>
        <time>2022-10-25T03:48:33.000Z</time>
      </trkpt>
      <trkpt lat="27.903478" lon="86.819635">
        <ele>4492</ele>
        <time>2022-10-25T03:48:37.000Z</time>
      </trkpt>
      <trkpt lat="27.903485" lon="86.819616">
        <ele>4492.4</ele>
        <time>2022-10-25T03:48:40.000Z</time>
      </trkpt>
      <trkpt lat="27.903501" lon="86.819597">
        <ele>4492.8</ele>
        <time>2022-10-25T03:48:44.000Z</time>
      </trkpt>
      <trkpt lat="27.903523" lon="86.81959">
        <ele>4493.4</ele>
        <time>2022-10-25T03:48:48.000Z</time>
      </trkpt>
      <trkpt lat="27.903539" lon="86.819571">
        <ele>4494</ele>
        <time>2022-10-25T03:48:52.000Z</time>
      </trkpt>
      <trkpt lat="27.903558" lon="86.819552">
        <ele>4494.4</ele>
        <time>2022-10-25T03:48:57.000Z</time>
      </trkpt>
      <trkpt lat="27.903578" lon="86.819533">
        <ele>4494.4</ele>
        <time>2022-10-25T03:49:01.000Z</time>
      </trkpt>
      <trkpt lat="27.903594" lon="86.819514">
        <ele>4494.8</ele>
        <time>2022-10-25T03:49:05.000Z</time>
      </trkpt>
      <trkpt lat="27.90361" lon="86.819501">
        <ele>4494.4</ele>
        <time>2022-10-25T03:49:08.000Z</time>
      </trkpt>
      <trkpt lat="27.903616" lon="86.819482">
        <ele>4494.8</ele>
        <time>2022-10-25T03:49:11.000Z</time>
      </trkpt>
      <trkpt lat="27.903632" lon="86.819456">
        <ele>4494.8</ele>
        <time>2022-10-25T03:49:14.000Z</time>
      </trkpt>
      <trkpt lat="27.903651" lon="86.819443">
        <ele>4495.4</ele>
        <time>2022-10-25T03:49:17.000Z</time>
      </trkpt>
      <trkpt lat="27.903667" lon="86.81943">
        <ele>4494.6</ele>
        <time>2022-10-25T03:50:00.000Z</time>
      </trkpt>
      <trkpt lat="27.90369" lon="86.819411">
        <ele>4495</ele>
        <time>2022-10-25T03:50:02.000Z</time>
      </trkpt>
      <trkpt lat="27.903709" lon="86.819398">
        <ele>4495.2</ele>
        <time>2022-10-25T03:50:04.000Z</time>
      </trkpt>
      <trkpt lat="27.903718" lon="86.819379">
        <ele>4495.2</ele>
        <time>2022-10-25T03:50:05.000Z</time>
      </trkpt>
      <trkpt lat="27.903741" lon="86.819366">
        <ele>4495.8</ele>
        <time>2022-10-25T03:50:07.000Z</time>
      </trkpt>
      <trkpt lat="27.903763" lon="86.819354">
        <ele>4496</ele>
        <time>2022-10-25T03:50:09.000Z</time>
      </trkpt>
      <trkpt lat="27.903779" lon="86.819341">
        <ele>4496</ele>
        <time>2022-10-25T03:50:11.000Z</time>
      </trkpt>
      <trkpt lat="27.903798" lon="86.819328">
        <ele>4496</ele>
        <time>2022-10-25T03:50:14.000Z</time>
      </trkpt>
      <trkpt lat="27.903821" lon="86.819322">
        <ele>4496.2</ele>
        <time>2022-10-25T03:50:17.000Z</time>
      </trkpt>
      <trkpt lat="27.90384" lon="86.819315">
        <ele>4496.6</ele>
        <time>2022-10-25T03:50:20.000Z</time>
      </trkpt>
      <trkpt lat="27.903859" lon="86.819302">
        <ele>4496.6</ele>
        <time>2022-10-25T03:50:22.000Z</time>
      </trkpt>
      <trkpt lat="27.903878" lon="86.819302">
        <ele>4496</ele>
        <time>2022-10-25T03:50:24.000Z</time>
      </trkpt>
      <trkpt lat="27.903901" lon="86.819302">
        <ele>4496</ele>
        <time>2022-10-25T03:50:27.000Z</time>
      </trkpt>
      <trkpt lat="27.903917" lon="86.819315">
        <ele>4496</ele>
        <time>2022-10-25T03:50:29.000Z</time>
      </trkpt>
      <trkpt lat="27.903936" lon="86.819296">
        <ele>4496.6</ele>
        <time>2022-10-25T03:50:32.000Z</time>
      </trkpt>
      <trkpt lat="27.903958" lon="86.819277">
        <ele>4495.4</ele>
        <time>2022-10-25T03:50:36.000Z</time>
      </trkpt>
      <trkpt lat="27.903971" lon="86.819258">
        <ele>4495.2</ele>
        <time>2022-10-25T03:50:38.000Z</time>
      </trkpt>
      <trkpt lat="27.903987" lon="86.819245">
        <ele>4495.2</ele>
        <time>2022-10-25T03:50:40.000Z</time>
      </trkpt>
      <trkpt lat="27.904006" lon="86.819219">
        <ele>4494.8</ele>
        <time>2022-10-25T03:50:43.000Z</time>
      </trkpt>
      <trkpt lat="27.904026" lon="86.8192">
        <ele>4495.2</ele>
        <time>2022-10-25T03:50:47.000Z</time>
      </trkpt>
      <trkpt lat="27.904035" lon="86.819181">
        <ele>4495.4</ele>
        <time>2022-10-25T03:50:49.000Z</time>
      </trkpt>
      <trkpt lat="27.904058" lon="86.819168">
        <ele>4495.6</ele>
        <time>2022-10-25T03:50:52.000Z</time>
      </trkpt>
      <trkpt lat="27.904077" lon="86.819142">
        <ele>4496</ele>
        <time>2022-10-25T03:50:55.000Z</time>
      </trkpt>
      <trkpt lat="27.904096" lon="86.81913">
        <ele>4495.4</ele>
        <time>2022-10-25T03:50:58.000Z</time>
      </trkpt>
      <trkpt lat="27.904118" lon="86.819117">
        <ele>4495.6</ele>
        <time>2022-10-25T03:51:01.000Z</time>
      </trkpt>
      <trkpt lat="27.904144" lon="86.819104">
        <ele>4496.2</ele>
        <time>2022-10-25T03:51:04.000Z</time>
      </trkpt>
      <trkpt lat="27.904163" lon="86.819098">
        <ele>4496.2</ele>
        <time>2022-10-25T03:51:06.000Z</time>
      </trkpt>
      <trkpt lat="27.904189" lon="86.819091">
        <ele>4495.6</ele>
        <time>2022-10-25T03:51:09.000Z</time>
      </trkpt>
      <trkpt lat="27.904214" lon="86.819085">
        <ele>4496</ele>
        <time>2022-10-25T03:51:12.000Z</time>
      </trkpt>
      <trkpt lat="27.904234" lon="86.819091">
        <ele>4496</ele>
        <time>2022-10-25T03:51:14.000Z</time>
      </trkpt>
      <trkpt lat="27.904259" lon="86.819098">
        <ele>4495.8</ele>
        <time>2022-10-25T03:51:17.000Z</time>
      </trkpt>
      <trkpt lat="27.904285" lon="86.819104">
        <ele>4496.2</ele>
        <time>2022-10-25T03:51:21.000Z</time>
      </trkpt>
      <trkpt lat="27.904307" lon="86.819098">
        <ele>4495.6</ele>
        <time>2022-10-25T03:51:24.000Z</time>
      </trkpt>
      <trkpt lat="27.90433" lon="86.819104">
        <ele>4495.8</ele>
        <time>2022-10-25T03:51:27.000Z</time>
      </trkpt>
      <trkpt lat="27.904349" lon="86.819098">
        <ele>4496.4</ele>
        <time>2022-10-25T03:51:30.000Z</time>
      </trkpt>
      <trkpt lat="27.904371" lon="86.819091">
        <ele>4495.8</ele>
        <time>2022-10-25T03:51:33.000Z</time>
      </trkpt>
      <trkpt lat="27.904397" lon="86.819098">
        <ele>4495.6</ele>
        <time>2022-10-25T03:51:36.000Z</time>
      </trkpt>
      <trkpt lat="27.904419" lon="86.819098">
        <ele>4495</ele>
        <time>2022-10-25T03:51:39.000Z</time>
      </trkpt>
      <trkpt lat="27.904448" lon="86.819091">
        <ele>4495</ele>
        <time>2022-10-25T03:51:42.000Z</time>
      </trkpt>
      <trkpt lat="27.904467" lon="86.819091">
        <ele>4494.4</ele>
        <time>2022-10-25T03:51:45.000Z</time>
      </trkpt>
      <trkpt lat="27.904486" lon="86.819085">
        <ele>4494.2</ele>
        <time>2022-10-25T03:51:47.000Z</time>
      </trkpt>
      <trkpt lat="27.904506" lon="86.819072">
        <ele>4494</ele>
        <time>2022-10-25T03:51:50.000Z</time>
      </trkpt>
      <trkpt lat="27.904522" lon="86.819059">
        <ele>4494</ele>
        <time>2022-10-25T03:51:52.000Z</time>
      </trkpt>
      <trkpt lat="27.904544" lon="86.819046">
        <ele>4494</ele>
        <time>2022-10-25T03:51:56.000Z</time>
      </trkpt>
      <trkpt lat="27.904563" lon="86.819046">
        <ele>4495</ele>
        <time>2022-10-25T03:52:01.000Z</time>
      </trkpt>
      <trkpt lat="27.904586" lon="86.819034">
        <ele>4495.2</ele>
        <time>2022-10-25T03:52:05.000Z</time>
      </trkpt>
      <trkpt lat="27.904589" lon="86.819008">
        <ele>4495.8</ele>
        <time>2022-10-25T03:52:09.000Z</time>
      </trkpt>
      <trkpt lat="27.904592" lon="86.818982">
        <ele>4496</ele>
        <time>2022-10-25T03:52:13.000Z</time>
      </trkpt>
      <trkpt lat="27.904605" lon="86.818963">
        <ele>4496.4</ele>
        <time>2022-10-25T03:52:40.000Z</time>
      </trkpt>
      <trkpt lat="27.904621" lon="86.818938">
        <ele>4497.8</ele>
        <time>2022-10-25T03:52:42.000Z</time>
      </trkpt>
      <trkpt lat="27.904637" lon="86.818906">
        <ele>4497.2</ele>
        <time>2022-10-25T03:52:44.000Z</time>
      </trkpt>
      <trkpt lat="27.904662" lon="86.81888">
        <ele>4496.4</ele>
        <time>2022-10-25T03:52:46.000Z</time>
      </trkpt>
      <trkpt lat="27.904685" lon="86.818861">
        <ele>4496.2</ele>
        <time>2022-10-25T03:52:48.000Z</time>
      </trkpt>
      <trkpt lat="27.904704" lon="86.818848">
        <ele>4496.2</ele>
        <time>2022-10-25T03:52:50.000Z</time>
      </trkpt>
      <trkpt lat="27.90472" lon="86.818835">
        <ele>4496.2</ele>
        <time>2022-10-25T03:52:52.000Z</time>
      </trkpt>
      <trkpt lat="27.904726" lon="86.818816">
        <ele>4496.2</ele>
        <time>2022-10-25T03:52:54.000Z</time>
      </trkpt>
      <trkpt lat="27.904736" lon="86.818797">
        <ele>4496.4</ele>
        <time>2022-10-25T03:52:58.000Z</time>
      </trkpt>
      <trkpt lat="27.904736" lon="86.818771">
        <ele>4496.4</ele>
        <time>2022-10-25T03:53:00.000Z</time>
      </trkpt>
      <trkpt lat="27.904746" lon="86.818739">
        <ele>4496.6</ele>
        <time>2022-10-25T03:53:03.000Z</time>
      </trkpt>
      <trkpt lat="27.904762" lon="86.818726">
        <ele>4496.6</ele>
        <time>2022-10-25T03:53:06.000Z</time>
      </trkpt>
      <trkpt lat="27.904771" lon="86.818707">
        <ele>4496.2</ele>
        <time>2022-10-25T03:53:08.000Z</time>
      </trkpt>
      <trkpt lat="27.90479" lon="86.818701">
        <ele>4496.6</ele>
        <time>2022-10-25T03:53:11.000Z</time>
      </trkpt>
      <trkpt lat="27.90481" lon="86.818694">
        <ele>4497.4</ele>
        <time>2022-10-25T03:53:15.000Z</time>
      </trkpt>
      <trkpt lat="27.904829" lon="86.818688">
        <ele>4497.4</ele>
        <time>2022-10-25T03:53:19.000Z</time>
      </trkpt>
      <trkpt lat="27.904845" lon="86.818675">
        <ele>4497.8</ele>
        <time>2022-10-25T03:53:23.000Z</time>
      </trkpt>
      <trkpt lat="27.904864" lon="86.818656">
        <ele>4498</ele>
        <time>2022-10-25T03:53:26.000Z</time>
      </trkpt>
      <trkpt lat="27.904883" lon="86.81865">
        <ele>4497.8</ele>
        <time>2022-10-25T03:53:29.000Z</time>
      </trkpt>
      <trkpt lat="27.904902" lon="86.818637">
        <ele>4498.6</ele>
        <time>2022-10-25T03:53:32.000Z</time>
      </trkpt>
      <trkpt lat="27.904922" lon="86.818624">
        <ele>4498.2</ele>
        <time>2022-10-25T03:53:35.000Z</time>
      </trkpt>
      <trkpt lat="27.904944" lon="86.818618">
        <ele>4498.6</ele>
        <time>2022-10-25T03:53:39.000Z</time>
      </trkpt>
      <trkpt lat="27.904963" lon="86.818605">
        <ele>4498.6</ele>
        <time>2022-10-25T03:53:42.000Z</time>
      </trkpt>
      <trkpt lat="27.904982" lon="86.818605">
        <ele>4498.8</ele>
        <time>2022-10-25T03:53:48.000Z</time>
      </trkpt>
      <trkpt lat="27.905002" lon="86.818598">
        <ele>4498.8</ele>
        <time>2022-10-25T03:53:51.000Z</time>
      </trkpt>
      <trkpt lat="27.905021" lon="86.818586">
        <ele>4499</ele>
        <time>2022-10-25T03:53:55.000Z</time>
      </trkpt>
      <trkpt lat="27.90504" lon="86.818579">
        <ele>4499.6</ele>
        <time>2022-10-25T03:53:59.000Z</time>
      </trkpt>
      <trkpt lat="27.905059" lon="86.818579">
        <ele>4499.6</ele>
        <time>2022-10-25T03:54:03.000Z</time>
      </trkpt>
      <trkpt lat="27.905082" lon="86.818566">
        <ele>4500</ele>
        <time>2022-10-25T03:54:06.000Z</time>
      </trkpt>
      <trkpt lat="27.905101" lon="86.81856">
        <ele>4500.4</ele>
        <time>2022-10-25T03:54:09.000Z</time>
      </trkpt>
      <trkpt lat="27.905123" lon="86.818547">
        <ele>4500</ele>
        <time>2022-10-25T03:54:12.000Z</time>
      </trkpt>
      <trkpt lat="27.905142" lon="86.818541">
        <ele>4500.4</ele>
        <time>2022-10-25T03:54:15.000Z</time>
      </trkpt>
      <trkpt lat="27.905158" lon="86.818528">
        <ele>4500</ele>
        <time>2022-10-25T03:54:17.000Z</time>
      </trkpt>
      <trkpt lat="27.905181" lon="86.818522">
        <ele>4500</ele>
        <time>2022-10-25T03:54:20.000Z</time>
      </trkpt>
      <trkpt lat="27.9052" lon="86.818509">
        <ele>4500.6</ele>
        <time>2022-10-25T03:54:23.000Z</time>
      </trkpt>
      <trkpt lat="27.905219" lon="86.81849">
        <ele>4500.6</ele>
        <time>2022-10-25T03:54:27.000Z</time>
      </trkpt>
      <trkpt lat="27.905238" lon="86.818483">
        <ele>4501</ele>
        <time>2022-10-25T03:54:30.000Z</time>
      </trkpt>
      <trkpt lat="27.905258" lon="86.818477">
        <ele>4500.8</ele>
        <time>2022-10-25T03:54:33.000Z</time>
      </trkpt>
      <trkpt lat="27.905277" lon="86.818464">
        <ele>4500.8</ele>
        <time>2022-10-25T03:54:35.000Z</time>
      </trkpt>
      <trkpt lat="27.905296" lon="86.818464">
        <ele>4500.6</ele>
        <time>2022-10-25T03:54:38.000Z</time>
      </trkpt>
      <trkpt lat="27.905318" lon="86.818464">
        <ele>4501</ele>
        <time>2022-10-25T03:54:41.000Z</time>
      </trkpt>
      <trkpt lat="27.905344" lon="86.818464">
        <ele>4501.6</ele>
        <time>2022-10-25T03:54:45.000Z</time>
      </trkpt>
      <trkpt lat="27.905363" lon="86.818477">
        <ele>4501.4</ele>
        <time>2022-10-25T03:54:48.000Z</time>
      </trkpt>
      <trkpt lat="27.905382" lon="86.818477">
        <ele>4501.4</ele>
        <time>2022-10-25T03:54:51.000Z</time>
      </trkpt>
      <trkpt lat="27.905402" lon="86.818477">
        <ele>4501.4</ele>
        <time>2022-10-25T03:54:55.000Z</time>
      </trkpt>
      <trkpt lat="27.905418" lon="86.818464">
        <ele>4501.8</ele>
        <time>2022-10-25T03:54:58.000Z</time>
      </trkpt>
      <trkpt lat="27.90544" lon="86.818464">
        <ele>4502.6</ele>
        <time>2022-10-25T03:55:02.000Z</time>
      </trkpt>
      <trkpt lat="27.905459" lon="86.818464">
        <ele>4502.6</ele>
        <time>2022-10-25T03:55:04.000Z</time>
      </trkpt>
      <trkpt lat="27.905478" lon="86.818464">
        <ele>4502.4</ele>
        <time>2022-10-25T03:55:07.000Z</time>
      </trkpt>
      <trkpt lat="27.905501" lon="86.818464">
        <ele>4501.8</ele>
        <time>2022-10-25T03:55:10.000Z</time>
      </trkpt>
      <trkpt lat="27.90552" lon="86.818464">
        <ele>4502</ele>
        <time>2022-10-25T03:55:16.000Z</time>
      </trkpt>
      <trkpt lat="27.905539" lon="86.818477">
        <ele>4501.2</ele>
        <time>2022-10-25T03:55:18.000Z</time>
      </trkpt>
      <trkpt lat="27.905555" lon="86.818464">
        <ele>4501.2</ele>
        <time>2022-10-25T03:55:20.000Z</time>
      </trkpt>
      <trkpt lat="27.905578" lon="86.818458">
        <ele>4501.6</ele>
        <time>2022-10-25T03:55:23.000Z</time>
      </trkpt>
      <trkpt lat="27.905597" lon="86.818451">
        <ele>4501.6</ele>
        <time>2022-10-25T03:55:27.000Z</time>
      </trkpt>
      <trkpt lat="27.905613" lon="86.818438">
        <ele>4500.8</ele>
        <time>2022-10-25T03:55:31.000Z</time>
      </trkpt>
      <trkpt lat="27.905629" lon="86.818426">
        <ele>4501.8</ele>
        <time>2022-10-25T03:55:35.000Z</time>
      </trkpt>
      <trkpt lat="27.905645" lon="86.818406">
        <ele>4501.6</ele>
        <time>2022-10-25T03:55:41.000Z</time>
      </trkpt>
      <trkpt lat="27.905658" lon="86.818387">
        <ele>4502</ele>
        <time>2022-10-25T03:55:46.000Z</time>
      </trkpt>
      <trkpt lat="27.905677" lon="86.818374">
        <ele>4502</ele>
        <time>2022-10-25T03:55:50.000Z</time>
      </trkpt>
      <trkpt lat="27.905696" lon="86.818374">
        <ele>4503.4</ele>
        <time>2022-10-25T03:55:56.000Z</time>
      </trkpt>
      <trkpt lat="27.905715" lon="86.818362">
        <ele>4503.6</ele>
        <time>2022-10-25T03:56:01.000Z</time>
      </trkpt>
      <trkpt lat="27.905722" lon="86.818342">
        <ele>4503.8</ele>
        <time>2022-10-25T03:56:04.000Z</time>
      </trkpt>
      <trkpt lat="27.905741" lon="86.818336">
        <ele>4504.2</ele>
        <time>2022-10-25T03:56:09.000Z</time>
      </trkpt>
      <trkpt lat="27.905757" lon="86.818323">
        <ele>4504.4</ele>
        <time>2022-10-25T03:56:14.000Z</time>
      </trkpt>
      <trkpt lat="27.905773" lon="86.81831">
        <ele>4504.6</ele>
        <time>2022-10-25T03:56:17.000Z</time>
      </trkpt>
      <trkpt lat="27.905792" lon="86.818304">
        <ele>4504.6</ele>
        <time>2022-10-25T03:56:21.000Z</time>
      </trkpt>
      <trkpt lat="27.905808" lon="86.818291">
        <ele>4505.2</ele>
        <time>2022-10-25T03:56:25.000Z</time>
      </trkpt>
      <trkpt lat="27.905824" lon="86.818278">
        <ele>4505.4</ele>
        <time>2022-10-25T03:56:28.000Z</time>
      </trkpt>
      <trkpt lat="27.905837" lon="86.818259">
        <ele>4505.6</ele>
        <time>2022-10-25T03:56:31.000Z</time>
      </trkpt>
      <trkpt lat="27.905859" lon="86.818253">
        <ele>4506</ele>
        <time>2022-10-25T03:56:34.000Z</time>
      </trkpt>
      <trkpt lat="27.905875" lon="86.81824">
        <ele>4506.2</ele>
        <time>2022-10-25T03:56:37.000Z</time>
      </trkpt>
      <trkpt lat="27.905891" lon="86.818221">
        <ele>4506.2</ele>
        <time>2022-10-25T03:56:41.000Z</time>
      </trkpt>
      <trkpt lat="27.905907" lon="86.818208">
        <ele>4506.2</ele>
        <time>2022-10-25T03:56:45.000Z</time>
      </trkpt>
      <trkpt lat="27.905923" lon="86.818189">
        <ele>4506.4</ele>
        <time>2022-10-25T03:56:48.000Z</time>
      </trkpt>
      <trkpt lat="27.905939" lon="86.818176">
        <ele>4506.8</ele>
        <time>2022-10-25T03:56:51.000Z</time>
      </trkpt>
      <trkpt lat="27.905962" lon="86.818163">
        <ele>4507</ele>
        <time>2022-10-25T03:56:55.000Z</time>
      </trkpt>
      <trkpt lat="27.905978" lon="86.81815">
        <ele>4507.2</ele>
        <time>2022-10-25T03:56:58.000Z</time>
      </trkpt>
      <trkpt lat="27.906006" lon="86.818144">
        <ele>4507.4</ele>
        <time>2022-10-25T03:57:01.000Z</time>
      </trkpt>
      <trkpt lat="27.906029" lon="86.818138">
        <ele>4507.2</ele>
        <time>2022-10-25T03:57:04.000Z</time>
      </trkpt>
      <trkpt lat="27.906051" lon="86.818138">
        <ele>4507.4</ele>
        <time>2022-10-25T03:57:07.000Z</time>
      </trkpt>
      <trkpt lat="27.906074" lon="86.818131">
        <ele>4507.4</ele>
        <time>2022-10-25T03:57:10.000Z</time>
      </trkpt>
      <trkpt lat="27.906096" lon="86.818118">
        <ele>4507.4</ele>
        <time>2022-10-25T03:57:14.000Z</time>
      </trkpt>
      <trkpt lat="27.906106" lon="86.818099">
        <ele>4507.4</ele>
        <time>2022-10-25T03:57:16.000Z</time>
      </trkpt>
      <trkpt lat="27.906128" lon="86.818086">
        <ele>4507.2</ele>
        <time>2022-10-25T03:57:29.000Z</time>
      </trkpt>
      <trkpt lat="27.90615" lon="86.81808">
        <ele>4507</ele>
        <time>2022-10-25T03:57:31.000Z</time>
      </trkpt>
      <trkpt lat="27.906166" lon="86.818061">
        <ele>4507.2</ele>
        <time>2022-10-25T03:57:33.000Z</time>
      </trkpt>
      <trkpt lat="27.906189" lon="86.818048">
        <ele>4507.2</ele>
        <time>2022-10-25T03:57:36.000Z</time>
      </trkpt>
      <trkpt lat="27.906205" lon="86.818029">
        <ele>4507.2</ele>
        <time>2022-10-25T03:57:38.000Z</time>
      </trkpt>
      <trkpt lat="27.906224" lon="86.81801">
        <ele>4507.4</ele>
        <time>2022-10-25T03:57:41.000Z</time>
      </trkpt>
      <trkpt lat="27.906234" lon="86.81799">
        <ele>4507.4</ele>
        <time>2022-10-25T03:57:43.000Z</time>
      </trkpt>
      <trkpt lat="27.906253" lon="86.817978">
        <ele>4507.8</ele>
        <time>2022-10-25T03:57:46.000Z</time>
      </trkpt>
      <trkpt lat="27.906272" lon="86.817971">
        <ele>4508</ele>
        <time>2022-10-25T03:57:49.000Z</time>
      </trkpt>
      <trkpt lat="27.906294" lon="86.817965">
        <ele>4508</ele>
        <time>2022-10-25T03:57:52.000Z</time>
      </trkpt>
      <trkpt lat="27.906314" lon="86.817965">
        <ele>4508.2</ele>
        <time>2022-10-25T03:57:55.000Z</time>
      </trkpt>
      <trkpt lat="27.906336" lon="86.817952">
        <ele>4508</ele>
        <time>2022-10-25T03:57:58.000Z</time>
      </trkpt>
      <trkpt lat="27.906358" lon="86.817946">
        <ele>4508.2</ele>
        <time>2022-10-25T03:58:01.000Z</time>
      </trkpt>
      <trkpt lat="27.906374" lon="86.817933">
        <ele>4508.2</ele>
        <time>2022-10-25T03:58:04.000Z</time>
      </trkpt>
      <trkpt lat="27.906397" lon="86.817926">
        <ele>4508.2</ele>
        <time>2022-10-25T03:58:07.000Z</time>
      </trkpt>
      <trkpt lat="27.906422" lon="86.81792">
        <ele>4508.6</ele>
        <time>2022-10-25T03:58:11.000Z</time>
      </trkpt>
      <trkpt lat="27.906432" lon="86.817901">
        <ele>4509.4</ele>
        <time>2022-10-25T03:58:16.000Z</time>
      </trkpt>
      <trkpt lat="27.906461" lon="86.817894">
        <ele>4508.8</ele>
        <time>2022-10-25T03:58:40.000Z</time>
      </trkpt>
      <trkpt lat="27.906483" lon="86.817888">
        <ele>4509.2</ele>
        <time>2022-10-25T03:58:42.000Z</time>
      </trkpt>
      <trkpt lat="27.906509" lon="86.817882">
        <ele>4508.8</ele>
        <time>2022-10-25T03:58:44.000Z</time>
      </trkpt>
      <trkpt lat="27.906528" lon="86.817869">
        <ele>4508.8</ele>
        <time>2022-10-25T03:58:46.000Z</time>
      </trkpt>
      <trkpt lat="27.906547" lon="86.817862">
        <ele>4509.4</ele>
        <time>2022-10-25T03:58:49.000Z</time>
      </trkpt>
      <trkpt lat="27.906566" lon="86.81785">
        <ele>4509.2</ele>
        <time>2022-10-25T03:58:53.000Z</time>
      </trkpt>
      <trkpt lat="27.906582" lon="86.81783">
        <ele>4509.4</ele>
        <time>2022-10-25T03:58:55.000Z</time>
      </trkpt>
      <trkpt lat="27.906602" lon="86.817824">
        <ele>4509.6</ele>
        <time>2022-10-25T03:58:58.000Z</time>
      </trkpt>
      <trkpt lat="27.906611" lon="86.817805">
        <ele>4510</ele>
        <time>2022-10-25T03:59:01.000Z</time>
      </trkpt>
      <trkpt lat="27.906624" lon="86.817786">
        <ele>4509.4</ele>
        <time>2022-10-25T03:59:03.000Z</time>
      </trkpt>
      <trkpt lat="27.90664" lon="86.817773">
        <ele>4509.4</ele>
        <time>2022-10-25T03:59:06.000Z</time>
      </trkpt>
      <trkpt lat="27.906646" lon="86.817754">
        <ele>4509.6</ele>
        <time>2022-10-25T03:59:08.000Z</time>
      </trkpt>
      <trkpt lat="27.906659" lon="86.817734">
        <ele>4509.6</ele>
        <time>2022-10-25T03:59:12.000Z</time>
      </trkpt>
      <trkpt lat="27.906672" lon="86.817709">
        <ele>4510.2</ele>
        <time>2022-10-25T03:59:16.000Z</time>
      </trkpt>
      <trkpt lat="27.906688" lon="86.81769">
        <ele>4510.4</ele>
        <time>2022-10-25T03:59:20.000Z</time>
      </trkpt>
      <trkpt lat="27.906691" lon="86.817664">
        <ele>4510.4</ele>
        <time>2022-10-25T03:59:22.000Z</time>
      </trkpt>
      <trkpt lat="27.906707" lon="86.817651">
        <ele>4511</ele>
        <time>2022-10-25T03:59:25.000Z</time>
      </trkpt>
      <trkpt lat="27.906717" lon="86.817632">
        <ele>4511</ele>
        <time>2022-10-25T03:59:27.000Z</time>
      </trkpt>
      <trkpt lat="27.906726" lon="86.817613">
        <ele>4511</ele>
        <time>2022-10-25T03:59:30.000Z</time>
      </trkpt>
      <trkpt lat="27.906739" lon="86.817594">
        <ele>4511.6</ele>
        <time>2022-10-25T03:59:34.000Z</time>
      </trkpt>
      <trkpt lat="27.906749" lon="86.817574">
        <ele>4511.6</ele>
        <time>2022-10-25T03:59:37.000Z</time>
      </trkpt>
      <trkpt lat="27.906758" lon="86.817549">
        <ele>4511.6</ele>
        <time>2022-10-25T03:59:40.000Z</time>
      </trkpt>
      <trkpt lat="27.906778" lon="86.81753">
        <ele>4511.8</ele>
        <time>2022-10-25T03:59:44.000Z</time>
      </trkpt>
      <trkpt lat="27.90679" lon="86.81751">
        <ele>4511.8</ele>
        <time>2022-10-25T03:59:49.000Z</time>
      </trkpt>
      <trkpt lat="27.906797" lon="86.817491">
        <ele>4511.6</ele>
        <time>2022-10-25T03:59:52.000Z</time>
      </trkpt>
      <trkpt lat="27.906806" lon="86.817472">
        <ele>4512.2</ele>
        <time>2022-10-25T03:59:54.000Z</time>
      </trkpt>
      <trkpt lat="27.906819" lon="86.817453">
        <ele>4512</ele>
        <time>2022-10-25T03:59:57.000Z</time>
      </trkpt>
      <trkpt lat="27.906826" lon="86.817434">
        <ele>4511.6</ele>
        <time>2022-10-25T03:59:59.000Z</time>
      </trkpt>
      <trkpt lat="27.906842" lon="86.817421">
        <ele>4512</ele>
        <time>2022-10-25T04:00:02.000Z</time>
      </trkpt>
      <trkpt lat="27.906854" lon="86.817395">
        <ele>4511.6</ele>
        <time>2022-10-25T04:00:05.000Z</time>
      </trkpt>
      <trkpt lat="27.90687" lon="86.817376">
        <ele>4512</ele>
        <time>2022-10-25T04:00:09.000Z</time>
      </trkpt>
      <trkpt lat="27.90688" lon="86.817357">
        <ele>4512</ele>
        <time>2022-10-25T04:00:11.000Z</time>
      </trkpt>
      <trkpt lat="27.90689" lon="86.817338">
        <ele>4511.8</ele>
        <time>2022-10-25T04:00:14.000Z</time>
      </trkpt>
      <trkpt lat="27.906902" lon="86.817312">
        <ele>4512</ele>
        <time>2022-10-25T04:00:17.000Z</time>
      </trkpt>
      <trkpt lat="27.906925" lon="86.817306">
        <ele>4512.2</ele>
        <time>2022-10-25T04:00:31.000Z</time>
      </trkpt>
      <trkpt lat="27.906944" lon="86.817299">
        <ele>4512.2</ele>
        <time>2022-10-25T04:00:35.000Z</time>
      </trkpt>
      <trkpt lat="27.906963" lon="86.817216">
        <ele>4512.6</ele>
        <time>2022-10-25T04:05:28.000Z</time>
      </trkpt>
      <trkpt lat="27.906986" lon="86.81721">
        <ele>4513</ele>
        <time>2022-10-25T04:05:30.000Z</time>
      </trkpt>
      <trkpt lat="27.907008" lon="86.81721">
        <ele>4512.2</ele>
        <time>2022-10-25T04:05:32.000Z</time>
      </trkpt>
      <trkpt lat="27.907034" lon="86.817197">
        <ele>4512</ele>
        <time>2022-10-25T04:05:34.000Z</time>
      </trkpt>
      <trkpt lat="27.907053" lon="86.817184">
        <ele>4511.6</ele>
        <time>2022-10-25T04:05:36.000Z</time>
      </trkpt>
      <trkpt lat="27.907075" lon="86.817178">
        <ele>4511.6</ele>
        <time>2022-10-25T04:05:39.000Z</time>
      </trkpt>
      <trkpt lat="27.907094" lon="86.817171">
        <ele>4512</ele>
        <time>2022-10-25T04:05:41.000Z</time>
      </trkpt>
      <trkpt lat="27.907114" lon="86.817158">
        <ele>4512.2</ele>
        <time>2022-10-25T04:05:44.000Z</time>
      </trkpt>
      <trkpt lat="27.907133" lon="86.817146">
        <ele>4512.2</ele>
        <time>2022-10-25T04:05:47.000Z</time>
      </trkpt>
      <trkpt lat="27.907155" lon="86.817139">
        <ele>4512.4</ele>
        <time>2022-10-25T04:05:50.000Z</time>
      </trkpt>
      <trkpt lat="27.907171" lon="86.817126">
        <ele>4512.6</ele>
        <time>2022-10-25T04:05:52.000Z</time>
      </trkpt>
      <trkpt lat="27.907194" lon="86.817114">
        <ele>4512.6</ele>
        <time>2022-10-25T04:05:55.000Z</time>
      </trkpt>
      <trkpt lat="27.907216" lon="86.817107">
        <ele>4512.6</ele>
        <time>2022-10-25T04:05:58.000Z</time>
      </trkpt>
      <trkpt lat="27.907235" lon="86.817107">
        <ele>4513.4</ele>
        <time>2022-10-25T04:06:01.000Z</time>
      </trkpt>
      <trkpt lat="27.907254" lon="86.817101">
        <ele>4513.4</ele>
        <time>2022-10-25T04:06:03.000Z</time>
      </trkpt>
      <trkpt lat="27.907274" lon="86.817088">
        <ele>4512.8</ele>
        <time>2022-10-25T04:06:06.000Z</time>
      </trkpt>
      <trkpt lat="27.907293" lon="86.817088">
        <ele>4513</ele>
        <time>2022-10-25T04:06:08.000Z</time>
      </trkpt>
      <trkpt lat="27.907315" lon="86.817075">
        <ele>4512.6</ele>
        <time>2022-10-25T04:06:11.000Z</time>
      </trkpt>
      <trkpt lat="27.907334" lon="86.817069">
        <ele>4512.6</ele>
        <time>2022-10-25T04:06:14.000Z</time>
      </trkpt>
      <trkpt lat="27.907357" lon="86.817062">
        <ele>4512.8</ele>
        <time>2022-10-25T04:06:17.000Z</time>
      </trkpt>
      <trkpt lat="27.907373" lon="86.81705">
        <ele>4512.6</ele>
        <time>2022-10-25T04:06:19.000Z</time>
      </trkpt>
      <trkpt lat="27.907392" lon="86.81703">
        <ele>4512.6</ele>
        <time>2022-10-25T04:06:22.000Z</time>
      </trkpt>
      <trkpt lat="27.907411" lon="86.817024">
        <ele>4513</ele>
        <time>2022-10-25T04:06:25.000Z</time>
      </trkpt>
      <trkpt lat="27.907434" lon="86.817018">
        <ele>4513.4</ele>
        <time>2022-10-25T04:06:29.000Z</time>
      </trkpt>
      <trkpt lat="27.907456" lon="86.817011">
        <ele>4513.4</ele>
        <time>2022-10-25T04:06:33.000Z</time>
      </trkpt>
      <trkpt lat="27.907472" lon="86.816998">
        <ele>4513.6</ele>
        <time>2022-10-25T04:06:36.000Z</time>
      </trkpt>
      <trkpt lat="27.907494" lon="86.816986">
        <ele>4514.2</ele>
        <time>2022-10-25T04:06:40.000Z</time>
      </trkpt>
      <trkpt lat="27.907514" lon="86.816973">
        <ele>4514.2</ele>
        <time>2022-10-25T04:06:43.000Z</time>
      </trkpt>
      <trkpt lat="27.907533" lon="86.816954">
        <ele>4514.2</ele>
        <time>2022-10-25T04:06:46.000Z</time>
      </trkpt>
      <trkpt lat="27.907552" lon="86.816941">
        <ele>4514.4</ele>
        <time>2022-10-25T04:06:49.000Z</time>
      </trkpt>
      <trkpt lat="27.907568" lon="86.816928">
        <ele>4514.4</ele>
        <time>2022-10-25T04:06:52.000Z</time>
      </trkpt>
      <trkpt lat="27.907584" lon="86.816909">
        <ele>4514.6</ele>
        <time>2022-10-25T04:06:55.000Z</time>
      </trkpt>
      <trkpt lat="27.907603" lon="86.816902">
        <ele>4514.6</ele>
        <time>2022-10-25T04:06:59.000Z</time>
      </trkpt>
      <trkpt lat="27.907622" lon="86.816896">
        <ele>4515.8</ele>
        <time>2022-10-25T04:07:02.000Z</time>
      </trkpt>
      <trkpt lat="27.907638" lon="86.816877">
        <ele>4516.2</ele>
        <time>2022-10-25T04:07:05.000Z</time>
      </trkpt>
      <trkpt lat="27.907658" lon="86.81687">
        <ele>4516.2</ele>
        <time>2022-10-25T04:07:08.000Z</time>
      </trkpt>
      <trkpt lat="27.907674" lon="86.816858">
        <ele>4516.2</ele>
        <time>2022-10-25T04:07:11.000Z</time>
      </trkpt>
      <trkpt lat="27.907693" lon="86.816851">
        <ele>4516.6</ele>
        <time>2022-10-25T04:07:14.000Z</time>
      </trkpt>
      <trkpt lat="27.907709" lon="86.816838">
        <ele>4516</ele>
        <time>2022-10-25T04:07:17.000Z</time>
      </trkpt>
      <trkpt lat="27.907725" lon="86.816826">
        <ele>4516</ele>
        <time>2022-10-25T04:07:21.000Z</time>
      </trkpt>
      <trkpt lat="27.907741" lon="86.816813">
        <ele>4516.4</ele>
        <time>2022-10-25T04:07:25.000Z</time>
      </trkpt>
      <trkpt lat="27.90775" lon="86.816794">
        <ele>4516.8</ele>
        <time>2022-10-25T04:07:27.000Z</time>
      </trkpt>
      <trkpt lat="27.90777" lon="86.816774">
        <ele>4517.6</ele>
        <time>2022-10-25T04:07:31.000Z</time>
      </trkpt>
      <trkpt lat="27.907782" lon="86.816755">
        <ele>4517.8</ele>
        <time>2022-10-25T04:07:33.000Z</time>
      </trkpt>
      <trkpt lat="27.907802" lon="86.816736">
        <ele>4517.8</ele>
        <time>2022-10-25T04:07:37.000Z</time>
      </trkpt>
      <trkpt lat="27.907814" lon="86.816717">
        <ele>4517.8</ele>
        <time>2022-10-25T04:07:39.000Z</time>
      </trkpt>
      <trkpt lat="27.907834" lon="86.81671">
        <ele>4518</ele>
        <time>2022-10-25T04:07:43.000Z</time>
      </trkpt>
      <trkpt lat="27.907853" lon="86.816698">
        <ele>4518.6</ele>
        <time>2022-10-25T04:07:47.000Z</time>
      </trkpt>
      <trkpt lat="27.907869" lon="86.816678">
        <ele>4519.2</ele>
        <time>2022-10-25T04:07:51.000Z</time>
      </trkpt>
      <trkpt lat="27.907885" lon="86.816666">
        <ele>4519.2</ele>
        <time>2022-10-25T04:07:54.000Z</time>
      </trkpt>
      <trkpt lat="27.907904" lon="86.816653">
        <ele>4519.6</ele>
        <time>2022-10-25T04:07:58.000Z</time>
      </trkpt>
      <trkpt lat="27.90792" lon="86.816634">
        <ele>4519.6</ele>
        <time>2022-10-25T04:08:01.000Z</time>
      </trkpt>
      <trkpt lat="27.907939" lon="86.816621">
        <ele>4520.2</ele>
        <time>2022-10-25T04:08:05.000Z</time>
      </trkpt>
      <trkpt lat="27.907958" lon="86.816602">
        <ele>4520.8</ele>
        <time>2022-10-25T04:08:08.000Z</time>
      </trkpt>
      <trkpt lat="27.907971" lon="86.816582">
        <ele>4521</ele>
        <time>2022-10-25T04:08:11.000Z</time>
      </trkpt>
      <trkpt lat="27.90799" lon="86.816576">
        <ele>4521</ele>
        <time>2022-10-25T04:08:15.000Z</time>
      </trkpt>
      <trkpt lat="27.90801" lon="86.816557">
        <ele>4521.2</ele>
        <time>2022-10-25T04:08:19.000Z</time>
      </trkpt>
      <trkpt lat="27.908029" lon="86.816544">
        <ele>4521</ele>
        <time>2022-10-25T04:08:22.000Z</time>
      </trkpt>
      <trkpt lat="27.908048" lon="86.816531">
        <ele>4521.2</ele>
        <time>2022-10-25T04:08:25.000Z</time>
      </trkpt>
      <trkpt lat="27.908061" lon="86.816512">
        <ele>4521.6</ele>
        <time>2022-10-25T04:08:28.000Z</time>
      </trkpt>
      <trkpt lat="27.90808" lon="86.816506">
        <ele>4521.6</ele>
        <time>2022-10-25T04:08:31.000Z</time>
      </trkpt>
      <trkpt lat="27.908099" lon="86.816499">
        <ele>4521.8</ele>
        <time>2022-10-25T04:08:35.000Z</time>
      </trkpt>
      <trkpt lat="27.908115" lon="86.81648">
        <ele>4522.4</ele>
        <time>2022-10-25T04:08:39.000Z</time>
      </trkpt>
      <trkpt lat="27.908141" lon="86.816474">
        <ele>4522.8</ele>
        <time>2022-10-25T04:08:43.000Z</time>
      </trkpt>
      <trkpt lat="27.908163" lon="86.816474">
        <ele>4522.8</ele>
        <time>2022-10-25T04:08:46.000Z</time>
      </trkpt>
      <trkpt lat="27.908182" lon="86.816467">
        <ele>4522.4</ele>
        <time>2022-10-25T04:08:49.000Z</time>
      </trkpt>
      <trkpt lat="27.908202" lon="86.816454">
        <ele>4522.6</ele>
        <time>2022-10-25T04:08:53.000Z</time>
      </trkpt>
      <trkpt lat="27.908218" lon="86.816442">
        <ele>4523.2</ele>
        <time>2022-10-25T04:08:56.000Z</time>
      </trkpt>
      <trkpt lat="27.908237" lon="86.816429">
        <ele>4523.6</ele>
        <time>2022-10-25T04:09:01.000Z</time>
      </trkpt>
      <trkpt lat="27.90825" lon="86.816403">
        <ele>4523.6</ele>
        <time>2022-10-25T04:09:05.000Z</time>
      </trkpt>
      <trkpt lat="27.908266" lon="86.81639">
        <ele>4523.8</ele>
        <time>2022-10-25T04:09:08.000Z</time>
      </trkpt>
      <trkpt lat="27.908285" lon="86.816384">
        <ele>4524.2</ele>
        <time>2022-10-25T04:09:11.000Z</time>
      </trkpt>
      <trkpt lat="27.908304" lon="86.816378">
        <ele>4524.6</ele>
        <time>2022-10-25T04:09:14.000Z</time>
      </trkpt>
      <trkpt lat="27.908326" lon="86.816384">
        <ele>4524.6</ele>
        <time>2022-10-25T04:09:19.000Z</time>
      </trkpt>
      <trkpt lat="27.908346" lon="86.816371">
        <ele>4524.4</ele>
        <time>2022-10-25T04:09:29.000Z</time>
      </trkpt>
      <trkpt lat="27.908368" lon="86.816384">
        <ele>4524.6</ele>
        <time>2022-10-25T04:09:32.000Z</time>
      </trkpt>
      <trkpt lat="27.908387" lon="86.81639">
        <ele>4524.4</ele>
        <time>2022-10-25T04:09:35.000Z</time>
      </trkpt>
      <trkpt lat="27.908406" lon="86.816397">
        <ele>4525.2</ele>
        <time>2022-10-25T04:09:41.000Z</time>
      </trkpt>
      <trkpt lat="27.908426" lon="86.816384">
        <ele>4524.8</ele>
        <time>2022-10-25T04:09:45.000Z</time>
      </trkpt>
      <trkpt lat="27.908445" lon="86.816384">
        <ele>4525.4</ele>
        <time>2022-10-25T04:09:48.000Z</time>
      </trkpt>
      <trkpt lat="27.908467" lon="86.816378">
        <ele>4525.4</ele>
        <time>2022-10-25T04:09:51.000Z</time>
      </trkpt>
      <trkpt lat="27.908486" lon="86.816378">
        <ele>4525.6</ele>
        <time>2022-10-25T04:09:54.000Z</time>
      </trkpt>
      <trkpt lat="27.908506" lon="86.816384">
        <ele>4524.8</ele>
        <time>2022-10-25T04:09:56.000Z</time>
      </trkpt>
      <trkpt lat="27.908525" lon="86.816384">
        <ele>4524.8</ele>
        <time>2022-10-25T04:09:58.000Z</time>
      </trkpt>
      <trkpt lat="27.908544" lon="86.81639">
        <ele>4524.8</ele>
        <time>2022-10-25T04:10:01.000Z</time>
      </trkpt>
      <trkpt lat="27.908566" lon="86.816384">
        <ele>4524.4</ele>
        <time>2022-10-25T04:10:04.000Z</time>
      </trkpt>
      <trkpt lat="27.908589" lon="86.816384">
        <ele>4524</ele>
        <time>2022-10-25T04:10:07.000Z</time>
      </trkpt>
      <trkpt lat="27.908614" lon="86.816378">
        <ele>4524</ele>
        <time>2022-10-25T04:10:10.000Z</time>
      </trkpt>
      <trkpt lat="27.908624" lon="86.816358">
        <ele>4524.6</ele>
        <time>2022-10-25T04:10:13.000Z</time>
      </trkpt>
      <trkpt lat="27.908643" lon="86.816339">
        <ele>4524</ele>
        <time>2022-10-25T04:10:17.000Z</time>
      </trkpt>
      <trkpt lat="27.908662" lon="86.81632">
        <ele>4524.6</ele>
        <time>2022-10-25T04:10:21.000Z</time>
      </trkpt>
      <trkpt lat="27.908682" lon="86.816307">
        <ele>4524.6</ele>
        <time>2022-10-25T04:10:25.000Z</time>
      </trkpt>
      <trkpt lat="27.908698" lon="86.816294">
        <ele>4525</ele>
        <time>2022-10-25T04:10:29.000Z</time>
      </trkpt>
      <trkpt lat="27.908714" lon="86.816282">
        <ele>4525.6</ele>
        <time>2022-10-25T04:10:33.000Z</time>
      </trkpt>
      <trkpt lat="27.908723" lon="86.816262">
        <ele>4526.2</ele>
        <time>2022-10-25T04:10:37.000Z</time>
      </trkpt>
      <trkpt lat="27.908742" lon="86.816243">
        <ele>4526.8</ele>
        <time>2022-10-25T04:10:40.000Z</time>
      </trkpt>
      <trkpt lat="27.908762" lon="86.81623">
        <ele>4526</ele>
        <time>2022-10-25T04:10:43.000Z</time>
      </trkpt>
      <trkpt lat="27.908781" lon="86.816224">
        <ele>4526.4</ele>
        <time>2022-10-25T04:10:47.000Z</time>
      </trkpt>
      <trkpt lat="27.908803" lon="86.816205">
        <ele>4526.4</ele>
        <time>2022-10-25T04:10:50.000Z</time>
      </trkpt>
      <trkpt lat="27.908822" lon="86.816205">
        <ele>4526</ele>
        <time>2022-10-25T04:10:53.000Z</time>
      </trkpt>
      <trkpt lat="27.908838" lon="86.816218">
        <ele>4526.6</ele>
        <time>2022-10-25T04:10:55.000Z</time>
      </trkpt>
      <trkpt lat="27.908861" lon="86.816218">
        <ele>4526.6</ele>
        <time>2022-10-25T04:10:59.000Z</time>
      </trkpt>
      <trkpt lat="27.90888" lon="86.816205">
        <ele>4527.2</ele>
        <time>2022-10-25T04:11:04.000Z</time>
      </trkpt>
      <trkpt lat="27.908896" lon="86.816192">
        <ele>4527.6</ele>
        <time>2022-10-25T04:11:08.000Z</time>
      </trkpt>
      <trkpt lat="27.908912" lon="86.816179">
        <ele>4527.6</ele>
        <time>2022-10-25T04:11:12.000Z</time>
      </trkpt>
      <trkpt lat="27.908922" lon="86.81616">
        <ele>4527.8</ele>
        <time>2022-10-25T04:11:15.000Z</time>
      </trkpt>
      <trkpt lat="27.908941" lon="86.816147">
        <ele>4528.8</ele>
        <time>2022-10-25T04:11:20.000Z</time>
      </trkpt>
      <trkpt lat="27.908963" lon="86.816134">
        <ele>4529.2</ele>
        <time>2022-10-25T04:11:25.000Z</time>
      </trkpt>
      <trkpt lat="27.90897" lon="86.816115">
        <ele>4530</ele>
        <time>2022-10-25T04:11:28.000Z</time>
      </trkpt>
      <trkpt lat="27.908992" lon="86.816102">
        <ele>4529.8</ele>
        <time>2022-10-25T04:11:32.000Z</time>
      </trkpt>
      <trkpt lat="27.909014" lon="86.816096">
        <ele>4530.2</ele>
        <time>2022-10-25T04:11:37.000Z</time>
      </trkpt>
      <trkpt lat="27.909021" lon="86.816077">
        <ele>4530.4</ele>
        <time>2022-10-25T04:11:39.000Z</time>
      </trkpt>
      <trkpt lat="27.909043" lon="86.816064">
        <ele>4530.4</ele>
        <time>2022-10-25T04:11:42.000Z</time>
      </trkpt>
      <trkpt lat="27.909062" lon="86.816058">
        <ele>4530.4</ele>
        <time>2022-10-25T04:11:45.000Z</time>
      </trkpt>
      <trkpt lat="27.909078" lon="86.816038">
        <ele>4530</ele>
        <time>2022-10-25T04:11:48.000Z</time>
      </trkpt>
      <trkpt lat="27.909104" lon="86.816032">
        <ele>4530.2</ele>
        <time>2022-10-25T04:11:52.000Z</time>
      </trkpt>
      <trkpt lat="27.909123" lon="86.816019">
        <ele>4530.2</ele>
        <time>2022-10-25T04:11:55.000Z</time>
      </trkpt>
      <trkpt lat="27.909139" lon="86.816006">
        <ele>4530.2</ele>
        <time>2022-10-25T04:11:57.000Z</time>
      </trkpt>
      <trkpt lat="27.909162" lon="86.816">
        <ele>4530.2</ele>
        <time>2022-10-25T04:12:00.000Z</time>
      </trkpt>
      <trkpt lat="27.909184" lon="86.815994">
        <ele>4530.2</ele>
        <time>2022-10-25T04:12:03.000Z</time>
      </trkpt>
      <trkpt lat="27.909203" lon="86.815987">
        <ele>4530.4</ele>
        <time>2022-10-25T04:12:06.000Z</time>
      </trkpt>
      <trkpt lat="27.909219" lon="86.815974">
        <ele>4530.2</ele>
        <time>2022-10-25T04:12:09.000Z</time>
      </trkpt>
      <trkpt lat="27.909238" lon="86.815974">
        <ele>4530.4</ele>
        <time>2022-10-25T04:12:13.000Z</time>
      </trkpt>
      <trkpt lat="27.909254" lon="86.815955">
        <ele>4530.6</ele>
        <time>2022-10-25T04:12:16.000Z</time>
      </trkpt>
      <trkpt lat="27.909274" lon="86.815942">
        <ele>4531.4</ele>
        <time>2022-10-25T04:12:21.000Z</time>
      </trkpt>
      <trkpt lat="27.909293" lon="86.815923">
        <ele>4531.8</ele>
        <time>2022-10-25T04:12:25.000Z</time>
      </trkpt>
      <trkpt lat="27.909312" lon="86.815917">
        <ele>4532</ele>
        <time>2022-10-25T04:12:27.000Z</time>
      </trkpt>
      <trkpt lat="27.909331" lon="86.815917">
        <ele>4532.2</ele>
        <time>2022-10-25T04:12:30.000Z</time>
      </trkpt>
      <trkpt lat="27.90935" lon="86.81591">
        <ele>4532.4</ele>
        <time>2022-10-25T04:12:35.000Z</time>
      </trkpt>
      <trkpt lat="27.90937" lon="86.815898">
        <ele>4532.2</ele>
        <time>2022-10-25T04:12:44.000Z</time>
      </trkpt>
      <trkpt lat="27.909389" lon="86.815885">
        <ele>4533</ele>
        <time>2022-10-25T04:12:47.000Z</time>
      </trkpt>
      <trkpt lat="27.909411" lon="86.815898">
        <ele>4532.8</ele>
        <time>2022-10-25T04:12:50.000Z</time>
      </trkpt>
      <trkpt lat="27.909427" lon="86.81591">
        <ele>4533.4</ele>
        <time>2022-10-25T04:12:53.000Z</time>
      </trkpt>
      <trkpt lat="27.90943" lon="86.815936">
        <ele>4534.2</ele>
        <time>2022-10-25T04:12:56.000Z</time>
      </trkpt>
      <trkpt lat="27.909437" lon="86.815917">
        <ele>4535</ele>
        <time>2022-10-25T04:13:40.000Z</time>
      </trkpt>
      <trkpt lat="27.909446" lon="86.815898">
        <ele>4535.2</ele>
        <time>2022-10-25T04:13:42.000Z</time>
      </trkpt>
      <trkpt lat="27.909459" lon="86.815878">
        <ele>4535.4</ele>
        <time>2022-10-25T04:13:44.000Z</time>
      </trkpt>
      <trkpt lat="27.909472" lon="86.815859">
        <ele>4535.6</ele>
        <time>2022-10-25T04:13:47.000Z</time>
      </trkpt>
      <trkpt lat="27.909485" lon="86.81584">
        <ele>4535.2</ele>
        <time>2022-10-25T04:13:49.000Z</time>
      </trkpt>
      <trkpt lat="27.909507" lon="86.81584">
        <ele>4535</ele>
        <time>2022-10-25T04:13:52.000Z</time>
      </trkpt>
      <trkpt lat="27.90953" lon="86.815821">
        <ele>4535.4</ele>
        <time>2022-10-25T04:13:56.000Z</time>
      </trkpt>
      <trkpt lat="27.909546" lon="86.815808">
        <ele>4535.6</ele>
        <time>2022-10-25T04:13:59.000Z</time>
      </trkpt>
      <trkpt lat="27.909565" lon="86.815795">
        <ele>4535.8</ele>
        <time>2022-10-25T04:14:02.000Z</time>
      </trkpt>
      <trkpt lat="27.909581" lon="86.815782">
        <ele>4535.4</ele>
        <time>2022-10-25T04:14:05.000Z</time>
      </trkpt>
      <trkpt lat="27.909597" lon="86.815763">
        <ele>4536.8</ele>
        <time>2022-10-25T04:14:09.000Z</time>
      </trkpt>
      <trkpt lat="27.909616" lon="86.81575">
        <ele>4536.4</ele>
        <time>2022-10-25T04:14:13.000Z</time>
      </trkpt>
      <trkpt lat="27.909632" lon="86.815738">
        <ele>4536.6</ele>
        <time>2022-10-25T04:14:16.000Z</time>
      </trkpt>
      <trkpt lat="27.909651" lon="86.815725">
        <ele>4536.8</ele>
        <time>2022-10-25T04:14:20.000Z</time>
      </trkpt>
      <trkpt lat="27.909674" lon="86.815725">
        <ele>4537.6</ele>
        <time>2022-10-25T04:14:25.000Z</time>
      </trkpt>
      <trkpt lat="27.909696" lon="86.815718">
        <ele>4538.4</ele>
        <time>2022-10-25T04:14:31.000Z</time>
      </trkpt>
      <trkpt lat="27.909715" lon="86.815706">
        <ele>4539</ele>
        <time>2022-10-25T04:14:35.000Z</time>
      </trkpt>
      <trkpt lat="27.909734" lon="86.815699">
        <ele>4538.6</ele>
        <time>2022-10-25T04:14:39.000Z</time>
      </trkpt>
      <trkpt lat="27.909754" lon="86.81568">
        <ele>4538.6</ele>
        <time>2022-10-25T04:14:42.000Z</time>
      </trkpt>
      <trkpt lat="27.90977" lon="86.815667">
        <ele>4539.2</ele>
        <time>2022-10-25T04:14:46.000Z</time>
      </trkpt>
      <trkpt lat="27.909786" lon="86.815648">
        <ele>4539</ele>
        <time>2022-10-25T04:14:50.000Z</time>
      </trkpt>
      <trkpt lat="27.909805" lon="86.815629">
        <ele>4539.4</ele>
        <time>2022-10-25T04:14:55.000Z</time>
      </trkpt>
      <trkpt lat="27.909818" lon="86.81561">
        <ele>4540</ele>
        <time>2022-10-25T04:14:59.000Z</time>
      </trkpt>
      <trkpt lat="27.909824" lon="86.81559">
        <ele>4540</ele>
        <time>2022-10-25T04:15:04.000Z</time>
      </trkpt>
      <trkpt lat="27.90983" lon="86.815565">
        <ele>4540.2</ele>
        <time>2022-10-25T04:15:08.000Z</time>
      </trkpt>
      <trkpt lat="27.909837" lon="86.815539">
        <ele>4540.8</ele>
        <time>2022-10-25T04:15:13.000Z</time>
      </trkpt>
      <trkpt lat="27.909843" lon="86.81552">
        <ele>4541.4</ele>
        <time>2022-10-25T04:15:16.000Z</time>
      </trkpt>
      <trkpt lat="27.909862" lon="86.815501">
        <ele>4541.8</ele>
        <time>2022-10-25T04:15:21.000Z</time>
      </trkpt>
      <trkpt lat="27.909875" lon="86.815482">
        <ele>4542.4</ele>
        <time>2022-10-25T04:15:25.000Z</time>
      </trkpt>
      <trkpt lat="27.909894" lon="86.815475">
        <ele>4542</ele>
        <time>2022-10-25T04:15:29.000Z</time>
      </trkpt>
      <trkpt lat="27.909917" lon="86.815469">
        <ele>4543.2</ele>
        <time>2022-10-25T04:15:34.000Z</time>
      </trkpt>
      <trkpt lat="27.909936" lon="86.815462">
        <ele>4542.8</ele>
        <time>2022-10-25T04:15:39.000Z</time>
      </trkpt>
      <trkpt lat="27.909955" lon="86.81545">
        <ele>4542.8</ele>
        <time>2022-10-25T04:15:43.000Z</time>
      </trkpt>
      <trkpt lat="27.909974" lon="86.815443">
        <ele>4543.6</ele>
        <time>2022-10-25T04:15:47.000Z</time>
      </trkpt>
      <trkpt lat="27.909994" lon="86.81543">
        <ele>4543.4</ele>
        <time>2022-10-25T04:15:50.000Z</time>
      </trkpt>
      <trkpt lat="27.910013" lon="86.815424">
        <ele>4543.8</ele>
        <time>2022-10-25T04:15:55.000Z</time>
      </trkpt>
      <trkpt lat="27.910032" lon="86.815405">
        <ele>4545</ele>
        <time>2022-10-25T04:16:00.000Z</time>
      </trkpt>
      <trkpt lat="27.910054" lon="86.815398">
        <ele>4545</ele>
        <time>2022-10-25T04:16:05.000Z</time>
      </trkpt>
      <trkpt lat="27.910074" lon="86.815398">
        <ele>4545</ele>
        <time>2022-10-25T04:16:08.000Z</time>
      </trkpt>
      <trkpt lat="27.910096" lon="86.815392">
        <ele>4545.2</ele>
        <time>2022-10-25T04:16:13.000Z</time>
      </trkpt>
      <trkpt lat="27.910115" lon="86.815392">
        <ele>4545.8</ele>
        <time>2022-10-25T04:16:17.000Z</time>
      </trkpt>
      <trkpt lat="27.910134" lon="86.815386">
        <ele>4546.4</ele>
        <time>2022-10-25T04:16:22.000Z</time>
      </trkpt>
      <trkpt lat="27.910147" lon="86.815366">
        <ele>4546.8</ele>
        <time>2022-10-25T04:16:26.000Z</time>
      </trkpt>
      <trkpt lat="27.910166" lon="86.81536">
        <ele>4547</ele>
        <time>2022-10-25T04:16:30.000Z</time>
      </trkpt>
      <trkpt lat="27.910186" lon="86.815354">
        <ele>4547.8</ele>
        <time>2022-10-25T04:16:36.000Z</time>
      </trkpt>
      <trkpt lat="27.910205" lon="86.815341">
        <ele>4547.8</ele>
        <time>2022-10-25T04:16:42.000Z</time>
      </trkpt>
      <trkpt lat="27.910218" lon="86.815322">
        <ele>4548.6</ele>
        <time>2022-10-25T04:16:46.000Z</time>
      </trkpt>
      <trkpt lat="27.910237" lon="86.815322">
        <ele>4549.2</ele>
        <time>2022-10-25T04:16:50.000Z</time>
      </trkpt>
      <trkpt lat="27.910259" lon="86.815315">
        <ele>4549.6</ele>
        <time>2022-10-25T04:16:55.000Z</time>
      </trkpt>
      <trkpt lat="27.910282" lon="86.815302">
        <ele>4550.6</ele>
        <time>2022-10-25T04:16:59.000Z</time>
      </trkpt>
      <trkpt lat="27.910298" lon="86.81529">
        <ele>4550.2</ele>
        <time>2022-10-25T04:17:04.000Z</time>
      </trkpt>
      <trkpt lat="27.910317" lon="86.815277">
        <ele>4550.6</ele>
        <time>2022-10-25T04:17:10.000Z</time>
      </trkpt>
      <trkpt lat="27.910336" lon="86.81527">
        <ele>4551</ele>
        <time>2022-10-25T04:17:14.000Z</time>
      </trkpt>
      <trkpt lat="27.910349" lon="86.815251">
        <ele>4552</ele>
        <time>2022-10-25T04:17:19.000Z</time>
      </trkpt>
      <trkpt lat="27.910365" lon="86.815238">
        <ele>4552</ele>
        <time>2022-10-25T04:17:24.000Z</time>
      </trkpt>
      <trkpt lat="27.910374" lon="86.815219">
        <ele>4552</ele>
        <time>2022-10-25T04:17:29.000Z</time>
      </trkpt>
      <trkpt lat="27.91039" lon="86.815206">
        <ele>4552.6</ele>
        <time>2022-10-25T04:17:33.000Z</time>
      </trkpt>
      <trkpt lat="27.91041" lon="86.815194">
        <ele>4553.8</ele>
        <time>2022-10-25T04:17:39.000Z</time>
      </trkpt>
      <trkpt lat="27.910432" lon="86.815181">
        <ele>4553.6</ele>
        <time>2022-10-25T04:17:43.000Z</time>
      </trkpt>
      <trkpt lat="27.910448" lon="86.815168">
        <ele>4553.6</ele>
        <time>2022-10-25T04:17:46.000Z</time>
      </trkpt>
      <trkpt lat="27.910464" lon="86.815155">
        <ele>4553.8</ele>
        <time>2022-10-25T04:17:51.000Z</time>
      </trkpt>
      <trkpt lat="27.910483" lon="86.815142">
        <ele>4553.8</ele>
        <time>2022-10-25T04:17:55.000Z</time>
      </trkpt>
      <trkpt lat="27.910499" lon="86.81513">
        <ele>4554</ele>
        <time>2022-10-25T04:17:59.000Z</time>
      </trkpt>
      <trkpt lat="27.910518" lon="86.815117">
        <ele>4554.8</ele>
        <time>2022-10-25T04:18:03.000Z</time>
      </trkpt>
      <trkpt lat="27.910538" lon="86.815104">
        <ele>4555.2</ele>
        <time>2022-10-25T04:18:08.000Z</time>
      </trkpt>
      <trkpt lat="27.910557" lon="86.815091">
        <ele>4555.4</ele>
        <time>2022-10-25T04:18:12.000Z</time>
      </trkpt>
      <trkpt lat="27.910576" lon="86.815078">
        <ele>4556</ele>
        <time>2022-10-25T04:18:16.000Z</time>
      </trkpt>
      <trkpt lat="27.910595" lon="86.815066">
        <ele>4556</ele>
        <time>2022-10-25T04:18:19.000Z</time>
      </trkpt>
      <trkpt lat="27.910614" lon="86.815053">
        <ele>4556.2</ele>
        <time>2022-10-25T04:18:23.000Z</time>
      </trkpt>
      <trkpt lat="27.910634" lon="86.81504">
        <ele>4556</ele>
        <time>2022-10-25T04:18:27.000Z</time>
      </trkpt>
      <trkpt lat="27.910656" lon="86.815034">
        <ele>4556.4</ele>
        <time>2022-10-25T04:18:31.000Z</time>
      </trkpt>
      <trkpt lat="27.910672" lon="86.815008">
        <ele>4557</ele>
        <time>2022-10-25T04:18:36.000Z</time>
      </trkpt>
      <trkpt lat="27.910691" lon="86.815002">
        <ele>4557.2</ele>
        <time>2022-10-25T04:18:40.000Z</time>
      </trkpt>
      <trkpt lat="27.91071" lon="86.814989">
        <ele>4557.8</ele>
        <time>2022-10-25T04:18:45.000Z</time>
      </trkpt>
      <trkpt lat="27.910723" lon="86.81497">
        <ele>4558</ele>
        <time>2022-10-25T04:18:49.000Z</time>
      </trkpt>
      <trkpt lat="27.910742" lon="86.814957">
        <ele>4558.6</ele>
        <time>2022-10-25T04:18:54.000Z</time>
      </trkpt>
      <trkpt lat="27.910762" lon="86.81495">
        <ele>4559.2</ele>
        <time>2022-10-25T04:18:58.000Z</time>
      </trkpt>
      <trkpt lat="27.910784" lon="86.814931">
        <ele>4558.8</ele>
        <time>2022-10-25T04:19:02.000Z</time>
      </trkpt>
      <trkpt lat="27.9108" lon="86.814918">
        <ele>4558.8</ele>
        <time>2022-10-25T04:19:06.000Z</time>
      </trkpt>
      <trkpt lat="27.910816" lon="86.814906">
        <ele>4559.2</ele>
        <time>2022-10-25T04:19:11.000Z</time>
      </trkpt>
      <trkpt lat="27.910835" lon="86.814893">
        <ele>4559.6</ele>
        <time>2022-10-25T04:19:15.000Z</time>
      </trkpt>
      <trkpt lat="27.910854" lon="86.81488">
        <ele>4560.2</ele>
        <time>2022-10-25T04:19:19.000Z</time>
      </trkpt>
      <trkpt lat="27.910877" lon="86.814867">
        <ele>4560.2</ele>
        <time>2022-10-25T04:19:23.000Z</time>
      </trkpt>
      <trkpt lat="27.910893" lon="86.814854">
        <ele>4560.2</ele>
        <time>2022-10-25T04:19:27.000Z</time>
      </trkpt>
      <trkpt lat="27.910912" lon="86.814848">
        <ele>4560.8</ele>
        <time>2022-10-25T04:19:31.000Z</time>
      </trkpt>
      <trkpt lat="27.910931" lon="86.814835">
        <ele>4561</ele>
        <time>2022-10-25T04:19:36.000Z</time>
      </trkpt>
      <trkpt lat="27.91095" lon="86.814829">
        <ele>4561.4</ele>
        <time>2022-10-25T04:19:40.000Z</time>
      </trkpt>
      <trkpt lat="27.910963" lon="86.81481">
        <ele>4561.6</ele>
        <time>2022-10-25T04:19:44.000Z</time>
      </trkpt>
      <trkpt lat="27.910973" lon="86.81479">
        <ele>4562.2</ele>
        <time>2022-10-25T04:19:50.000Z</time>
      </trkpt>
      <trkpt lat="27.910989" lon="86.814771">
        <ele>4562.8</ele>
        <time>2022-10-25T04:19:55.000Z</time>
      </trkpt>
      <trkpt lat="27.911002" lon="86.814752">
        <ele>4563</ele>
        <time>2022-10-25T04:20:00.000Z</time>
      </trkpt>
      <trkpt lat="27.911008" lon="86.814733">
        <ele>4563.2</ele>
        <time>2022-10-25T04:20:03.000Z</time>
      </trkpt>
      <trkpt lat="27.911014" lon="86.814714">
        <ele>4564</ele>
        <time>2022-10-25T04:27:45.000Z</time>
      </trkpt>
      <trkpt lat="27.911043" lon="86.814694">
        <ele>4564.2</ele>
        <time>2022-10-25T04:27:47.000Z</time>
      </trkpt>
      <trkpt lat="27.911069" lon="86.814688">
        <ele>4564.2</ele>
        <time>2022-10-25T04:27:49.000Z</time>
      </trkpt>
      <trkpt lat="27.911091" lon="86.814682">
        <ele>4564</ele>
        <time>2022-10-25T04:27:51.000Z</time>
      </trkpt>
      <trkpt lat="27.911117" lon="86.814669">
        <ele>4564.2</ele>
        <time>2022-10-25T04:27:53.000Z</time>
      </trkpt>
      <trkpt lat="27.911136" lon="86.814669">
        <ele>4564.2</ele>
        <time>2022-10-25T04:27:55.000Z</time>
      </trkpt>
      <trkpt lat="27.911155" lon="86.81465">
        <ele>4564.6</ele>
        <time>2022-10-25T04:27:58.000Z</time>
      </trkpt>
      <trkpt lat="27.911171" lon="86.814637">
        <ele>4564.6</ele>
        <time>2022-10-25T04:28:02.000Z</time>
      </trkpt>
      <trkpt lat="27.91119" lon="86.814624">
        <ele>4564.8</ele>
        <time>2022-10-25T04:28:06.000Z</time>
      </trkpt>
      <trkpt lat="27.911206" lon="86.814611">
        <ele>4565</ele>
        <time>2022-10-25T04:28:09.000Z</time>
      </trkpt>
      <trkpt lat="27.911226" lon="86.814605">
        <ele>4564.8</ele>
        <time>2022-10-25T04:28:12.000Z</time>
      </trkpt>
      <trkpt lat="27.911248" lon="86.814598">
        <ele>4565.8</ele>
        <time>2022-10-25T04:28:16.000Z</time>
      </trkpt>
      <trkpt lat="27.911264" lon="86.814573">
        <ele>4565.6</ele>
        <time>2022-10-25T04:28:20.000Z</time>
      </trkpt>
      <trkpt lat="27.91128" lon="86.81456">
        <ele>4565.8</ele>
        <time>2022-10-25T04:28:24.000Z</time>
      </trkpt>
      <trkpt lat="27.911299" lon="86.814547">
        <ele>4565.8</ele>
        <time>2022-10-25T04:28:28.000Z</time>
      </trkpt>
      <trkpt lat="27.911315" lon="86.814528">
        <ele>4565.8</ele>
        <time>2022-10-25T04:28:32.000Z</time>
      </trkpt>
      <trkpt lat="27.911334" lon="86.814522">
        <ele>4566.2</ele>
        <time>2022-10-25T04:28:36.000Z</time>
      </trkpt>
      <trkpt lat="27.911354" lon="86.814496">
        <ele>4566.6</ele>
        <time>2022-10-25T04:28:40.000Z</time>
      </trkpt>
      <trkpt lat="27.911373" lon="86.814483">
        <ele>4566.6</ele>
        <time>2022-10-25T04:28:45.000Z</time>
      </trkpt>
      <trkpt lat="27.911389" lon="86.81447">
        <ele>4566.6</ele>
        <time>2022-10-25T04:28:48.000Z</time>
      </trkpt>
      <trkpt lat="27.911405" lon="86.814458">
        <ele>4567.2</ele>
        <time>2022-10-25T04:28:51.000Z</time>
      </trkpt>
      <trkpt lat="27.911421" lon="86.814445">
        <ele>4567.2</ele>
        <time>2022-10-25T04:28:55.000Z</time>
      </trkpt>
      <trkpt lat="27.911437" lon="86.814432">
        <ele>4568</ele>
        <time>2022-10-25T04:28:59.000Z</time>
      </trkpt>
      <trkpt lat="27.911446" lon="86.814413">
        <ele>4568</ele>
        <time>2022-10-25T04:29:01.000Z</time>
      </trkpt>
      <trkpt lat="27.911462" lon="86.8144">
        <ele>4568.2</ele>
        <time>2022-10-25T04:29:05.000Z</time>
      </trkpt>
      <trkpt lat="27.911478" lon="86.814387">
        <ele>4568.6</ele>
        <time>2022-10-25T04:29:09.000Z</time>
      </trkpt>
      <trkpt lat="27.911494" lon="86.814374">
        <ele>4568.8</ele>
        <time>2022-10-25T04:29:12.000Z</time>
      </trkpt>
      <trkpt lat="27.91151" lon="86.814362">
        <ele>4568.4</ele>
        <time>2022-10-25T04:29:15.000Z</time>
      </trkpt>
      <trkpt lat="27.911526" lon="86.814336">
        <ele>4568.6</ele>
        <time>2022-10-25T04:29:20.000Z</time>
      </trkpt>
      <trkpt lat="27.911542" lon="86.814323">
        <ele>4569.2</ele>
        <time>2022-10-25T04:29:24.000Z</time>
      </trkpt>
      <trkpt lat="27.911562" lon="86.814317">
        <ele>4569.4</ele>
        <time>2022-10-25T04:29:28.000Z</time>
      </trkpt>
      <trkpt lat="27.911584" lon="86.814298">
        <ele>4570</ele>
        <time>2022-10-25T04:29:32.000Z</time>
      </trkpt>
      <trkpt lat="27.9116" lon="86.814285">
        <ele>4570.2</ele>
        <time>2022-10-25T04:29:36.000Z</time>
      </trkpt>
      <trkpt lat="27.911619" lon="86.814259">
        <ele>4570.4</ele>
        <time>2022-10-25T04:29:40.000Z</time>
      </trkpt>
      <trkpt lat="27.911632" lon="86.81424">
        <ele>4570.8</ele>
        <time>2022-10-25T04:29:46.000Z</time>
      </trkpt>
      <trkpt lat="27.911648" lon="86.814214">
        <ele>4571</ele>
        <time>2022-10-25T04:29:50.000Z</time>
      </trkpt>
      <trkpt lat="27.911667" lon="86.814202">
        <ele>4571.6</ele>
        <time>2022-10-25T04:29:59.000Z</time>
      </trkpt>
      <trkpt lat="27.911686" lon="86.814189">
        <ele>4571.2</ele>
        <time>2022-10-25T04:30:01.000Z</time>
      </trkpt>
      <trkpt lat="27.911706" lon="86.81417">
        <ele>4571.6</ele>
        <time>2022-10-25T04:30:04.000Z</time>
      </trkpt>
      <trkpt lat="27.911725" lon="86.81415">
        <ele>4571.8</ele>
        <time>2022-10-25T04:30:07.000Z</time>
      </trkpt>
      <trkpt lat="27.911741" lon="86.814138">
        <ele>4571.8</ele>
        <time>2022-10-25T04:30:09.000Z</time>
      </trkpt>
      <trkpt lat="27.911763" lon="86.814118">
        <ele>4571.8</ele>
        <time>2022-10-25T04:30:13.000Z</time>
      </trkpt>
      <trkpt lat="27.911786" lon="86.814112">
        <ele>4572.6</ele>
        <time>2022-10-25T04:30:17.000Z</time>
      </trkpt>
      <trkpt lat="27.911802" lon="86.814099">
        <ele>4572.6</ele>
        <time>2022-10-25T04:30:20.000Z</time>
      </trkpt>
      <trkpt lat="27.911818" lon="86.814086">
        <ele>4572.6</ele>
        <time>2022-10-25T04:30:23.000Z</time>
      </trkpt>
      <trkpt lat="27.911837" lon="86.814074">
        <ele>4572.4</ele>
        <time>2022-10-25T04:30:27.000Z</time>
      </trkpt>
      <trkpt lat="27.911859" lon="86.814067">
        <ele>4573</ele>
        <time>2022-10-25T04:30:31.000Z</time>
      </trkpt>
      <trkpt lat="27.911885" lon="86.814054">
        <ele>4573.2</ele>
        <time>2022-10-25T04:30:35.000Z</time>
      </trkpt>
      <trkpt lat="27.911904" lon="86.814048">
        <ele>4573.2</ele>
        <time>2022-10-25T04:30:39.000Z</time>
      </trkpt>
      <trkpt lat="27.91192" lon="86.814035">
        <ele>4574</ele>
        <time>2022-10-25T04:30:43.000Z</time>
      </trkpt>
      <trkpt lat="27.911926" lon="86.814016">
        <ele>4574</ele>
        <time>2022-10-25T04:30:45.000Z</time>
      </trkpt>
      <trkpt lat="27.911946" lon="86.814003">
        <ele>4574.2</ele>
        <time>2022-10-25T04:30:50.000Z</time>
      </trkpt>
      <trkpt lat="27.911962" lon="86.81399">
        <ele>4574.4</ele>
        <time>2022-10-25T04:30:54.000Z</time>
      </trkpt>
      <trkpt lat="27.911974" lon="86.813971">
        <ele>4574.6</ele>
        <time>2022-10-25T04:30:56.000Z</time>
      </trkpt>
      <trkpt lat="27.91199" lon="86.813958">
        <ele>4574.6</ele>
        <time>2022-10-25T04:31:01.000Z</time>
      </trkpt>
      <trkpt lat="27.91201" lon="86.813952">
        <ele>4575.2</ele>
        <time>2022-10-25T04:31:04.000Z</time>
      </trkpt>
      <trkpt lat="27.912029" lon="86.813933">
        <ele>4575.2</ele>
        <time>2022-10-25T04:31:08.000Z</time>
      </trkpt>
      <trkpt lat="27.912051" lon="86.813926">
        <ele>4575.6</ele>
        <time>2022-10-25T04:31:13.000Z</time>
      </trkpt>
      <trkpt lat="27.912064" lon="86.813901">
        <ele>4576.2</ele>
        <time>2022-10-25T04:31:18.000Z</time>
      </trkpt>
      <trkpt lat="27.912074" lon="86.813882">
        <ele>4576.6</ele>
        <time>2022-10-25T04:31:23.000Z</time>
      </trkpt>
      <trkpt lat="27.91209" lon="86.813856">
        <ele>4577.4</ele>
        <time>2022-10-25T04:31:28.000Z</time>
      </trkpt>
      <trkpt lat="27.912109" lon="86.81385">
        <ele>4577.6</ele>
        <time>2022-10-25T04:31:33.000Z</time>
      </trkpt>
      <trkpt lat="27.912125" lon="86.813837">
        <ele>4577.6</ele>
        <time>2022-10-25T04:31:37.000Z</time>
      </trkpt>
      <trkpt lat="27.912147" lon="86.813837">
        <ele>4578</ele>
        <time>2022-10-25T04:31:41.000Z</time>
      </trkpt>
      <trkpt lat="27.91216" lon="86.813818">
        <ele>4578.4</ele>
        <time>2022-10-25T04:31:45.000Z</time>
      </trkpt>
      <trkpt lat="27.912179" lon="86.813805">
        <ele>4578.8</ele>
        <time>2022-10-25T04:31:50.000Z</time>
      </trkpt>
      <trkpt lat="27.912202" lon="86.813779">
        <ele>4579</ele>
        <time>2022-10-25T04:31:55.000Z</time>
      </trkpt>
      <trkpt lat="27.912218" lon="86.813766">
        <ele>4579.2</ele>
        <time>2022-10-25T04:32:01.000Z</time>
      </trkpt>
      <trkpt lat="27.912234" lon="86.813754">
        <ele>4579.6</ele>
        <time>2022-10-25T04:32:05.000Z</time>
      </trkpt>
      <trkpt lat="27.912237" lon="86.813728">
        <ele>4580</ele>
        <time>2022-10-25T04:32:07.000Z</time>
      </trkpt>
      <trkpt lat="27.912253" lon="86.813702">
        <ele>4579.6</ele>
        <time>2022-10-25T04:32:11.000Z</time>
      </trkpt>
      <trkpt lat="27.912272" lon="86.813702">
        <ele>4579.6</ele>
        <time>2022-10-25T04:32:15.000Z</time>
      </trkpt>
      <trkpt lat="27.912298" lon="86.813683">
        <ele>4581.2</ele>
        <time>2022-10-25T04:32:52.000Z</time>
      </trkpt>
      <trkpt lat="27.91233" lon="86.813651">
        <ele>4581.4</ele>
        <time>2022-10-25T04:33:15.000Z</time>
      </trkpt>
      <trkpt lat="27.912349" lon="86.813632">
        <ele>4581.4</ele>
        <time>2022-10-25T04:33:17.000Z</time>
      </trkpt>
      <trkpt lat="27.912368" lon="86.813613">
        <ele>4581.6</ele>
        <time>2022-10-25T04:33:19.000Z</time>
      </trkpt>
      <trkpt lat="27.91239" lon="86.813594">
        <ele>4581.8</ele>
        <time>2022-10-25T04:33:21.000Z</time>
      </trkpt>
      <trkpt lat="27.912406" lon="86.813574">
        <ele>4581.8</ele>
        <time>2022-10-25T04:33:23.000Z</time>
      </trkpt>
      <trkpt lat="27.912426" lon="86.813562">
        <ele>4582.6</ele>
        <time>2022-10-25T04:33:26.000Z</time>
      </trkpt>
      <trkpt lat="27.912445" lon="86.813555">
        <ele>4582.6</ele>
        <time>2022-10-25T04:33:30.000Z</time>
      </trkpt>
      <trkpt lat="27.912464" lon="86.813536">
        <ele>4583.2</ele>
        <time>2022-10-25T04:33:34.000Z</time>
      </trkpt>
      <trkpt lat="27.912483" lon="86.81353">
        <ele>4583.4</ele>
        <time>2022-10-25T04:33:38.000Z</time>
      </trkpt>
      <trkpt lat="27.912502" lon="86.813504">
        <ele>4584.2</ele>
        <time>2022-10-25T04:33:43.000Z</time>
      </trkpt>
      <trkpt lat="27.912515" lon="86.813485">
        <ele>4585.8</ele>
        <time>2022-10-25T04:33:47.000Z</time>
      </trkpt>
      <trkpt lat="27.912531" lon="86.813472">
        <ele>4585</ele>
        <time>2022-10-25T04:33:51.000Z</time>
      </trkpt>
      <trkpt lat="27.912541" lon="86.813453">
        <ele>4585.4</ele>
        <time>2022-10-25T04:33:54.000Z</time>
      </trkpt>
      <trkpt lat="27.912554" lon="86.813434">
        <ele>4585.8</ele>
        <time>2022-10-25T04:33:58.000Z</time>
      </trkpt>
      <trkpt lat="27.912566" lon="86.813414">
        <ele>4585.8</ele>
        <time>2022-10-25T04:34:01.000Z</time>
      </trkpt>
      <trkpt lat="27.912586" lon="86.813395">
        <ele>4585.8</ele>
        <time>2022-10-25T04:34:05.000Z</time>
      </trkpt>
      <trkpt lat="27.912595" lon="86.813376">
        <ele>4585.8</ele>
        <time>2022-10-25T04:34:07.000Z</time>
      </trkpt>
      <trkpt lat="27.912605" lon="86.813357">
        <ele>4585.8</ele>
        <time>2022-10-25T04:34:11.000Z</time>
      </trkpt>
      <trkpt lat="27.912618" lon="86.813338">
        <ele>4585.8</ele>
        <time>2022-10-25T04:34:14.000Z</time>
      </trkpt>
      <trkpt lat="27.912627" lon="86.813318">
        <ele>4585.8</ele>
        <time>2022-10-25T04:34:17.000Z</time>
      </trkpt>
      <trkpt lat="27.912637" lon="86.813299">
        <ele>4585.8</ele>
        <time>2022-10-25T04:34:19.000Z</time>
      </trkpt>
      <trkpt lat="27.912646" lon="86.81328">
        <ele>4585.6</ele>
        <time>2022-10-25T04:34:22.000Z</time>
      </trkpt>
      <trkpt lat="27.912656" lon="86.813254">
        <ele>4585.4</ele>
        <time>2022-10-25T04:34:25.000Z</time>
      </trkpt>
      <trkpt lat="27.912675" lon="86.813235">
        <ele>4585.6</ele>
        <time>2022-10-25T04:34:29.000Z</time>
      </trkpt>
      <trkpt lat="27.912682" lon="86.813216">
        <ele>4585.8</ele>
        <time>2022-10-25T04:34:31.000Z</time>
      </trkpt>
      <trkpt lat="27.912694" lon="86.813197">
        <ele>4585.6</ele>
        <time>2022-10-25T04:34:35.000Z</time>
      </trkpt>
      <trkpt lat="27.912704" lon="86.813178">
        <ele>4585.6</ele>
        <time>2022-10-25T04:34:38.000Z</time>
      </trkpt>
      <trkpt lat="27.912717" lon="86.813158">
        <ele>4585.4</ele>
        <time>2022-10-25T04:34:41.000Z</time>
      </trkpt>
      <trkpt lat="27.912726" lon="86.813139">
        <ele>4585</ele>
        <time>2022-10-25T04:34:43.000Z</time>
      </trkpt>
      <trkpt lat="27.912742" lon="86.813126">
        <ele>4585</ele>
        <time>2022-10-25T04:34:46.000Z</time>
      </trkpt>
      <trkpt lat="27.912758" lon="86.813107">
        <ele>4585.6</ele>
        <time>2022-10-25T04:34:50.000Z</time>
      </trkpt>
      <trkpt lat="27.912774" lon="86.813088">
        <ele>4585.8</ele>
        <time>2022-10-25T04:34:55.000Z</time>
      </trkpt>
      <trkpt lat="27.912787" lon="86.813062">
        <ele>4585.6</ele>
        <time>2022-10-25T04:34:59.000Z</time>
      </trkpt>
      <trkpt lat="27.912822" lon="86.813037">
        <ele>4586.8</ele>
        <time>2022-10-25T04:35:09.000Z</time>
      </trkpt>
      <trkpt lat="27.912829" lon="86.813018">
        <ele>4587.2</ele>
        <time>2022-10-25T04:35:12.000Z</time>
      </trkpt>
      <trkpt lat="27.912842" lon="86.812998">
        <ele>4588</ele>
        <time>2022-10-25T04:35:16.000Z</time>
      </trkpt>
      <trkpt lat="27.912854" lon="86.812979">
        <ele>4588.2</ele>
        <time>2022-10-25T04:35:19.000Z</time>
      </trkpt>
      <trkpt lat="27.912861" lon="86.81296">
        <ele>4588.4</ele>
        <time>2022-10-25T04:35:22.000Z</time>
      </trkpt>
      <trkpt lat="27.912874" lon="86.812941">
        <ele>4587.4</ele>
        <time>2022-10-25T04:35:25.000Z</time>
      </trkpt>
      <trkpt lat="27.91289" lon="86.812928">
        <ele>4587.2</ele>
        <time>2022-10-25T04:35:29.000Z</time>
      </trkpt>
      <trkpt lat="27.912899" lon="86.812909">
        <ele>4587.2</ele>
        <time>2022-10-25T04:35:31.000Z</time>
      </trkpt>
      <trkpt lat="27.912915" lon="86.812896">
        <ele>4587.6</ele>
        <time>2022-10-25T04:35:35.000Z</time>
      </trkpt>
      <trkpt lat="27.912934" lon="86.81289">
        <ele>4588.2</ele>
        <time>2022-10-25T04:35:39.000Z</time>
      </trkpt>
      <trkpt lat="27.912947" lon="86.812864">
        <ele>4589.4</ele>
        <time>2022-10-25T04:35:45.000Z</time>
      </trkpt>
      <trkpt lat="27.912966" lon="86.812864">
        <ele>4589</ele>
        <time>2022-10-25T04:35:49.000Z</time>
      </trkpt>
      <trkpt lat="27.912982" lon="86.812845">
        <ele>4589.8</ele>
        <time>2022-10-25T04:36:38.000Z</time>
      </trkpt>
      <trkpt lat="27.912995" lon="86.812826">
        <ele>4589.8</ele>
        <time>2022-10-25T04:36:39.000Z</time>
      </trkpt>
      <trkpt lat="27.913018" lon="86.812806">
        <ele>4589.8</ele>
        <time>2022-10-25T04:36:41.000Z</time>
      </trkpt>
      <trkpt lat="27.91304" lon="86.812787">
        <ele>4590.2</ele>
        <time>2022-10-25T04:36:43.000Z</time>
      </trkpt>
      <trkpt lat="27.913062" lon="86.812774">
        <ele>4590.2</ele>
        <time>2022-10-25T04:36:45.000Z</time>
      </trkpt>
      <trkpt lat="27.913082" lon="86.812749">
        <ele>4590.8</ele>
        <time>2022-10-25T04:36:48.000Z</time>
      </trkpt>
      <trkpt lat="27.913098" lon="86.812736">
        <ele>4591</ele>
        <time>2022-10-25T04:36:52.000Z</time>
      </trkpt>
      <trkpt lat="27.913117" lon="86.812723">
        <ele>4591.2</ele>
        <time>2022-10-25T04:36:56.000Z</time>
      </trkpt>
      <trkpt lat="27.913126" lon="86.812704">
        <ele>4591.2</ele>
        <time>2022-10-25T04:37:01.000Z</time>
      </trkpt>
      <trkpt lat="27.913136" lon="86.812685">
        <ele>4590.4</ele>
        <time>2022-10-25T04:37:42.000Z</time>
      </trkpt>
      <trkpt lat="27.913142" lon="86.812666">
        <ele>4590.4</ele>
        <time>2022-10-25T04:37:43.000Z</time>
      </trkpt>
      <trkpt lat="27.913155" lon="86.812646">
        <ele>4590.6</ele>
        <time>2022-10-25T04:37:45.000Z</time>
      </trkpt>
      <trkpt lat="27.913168" lon="86.812627">
        <ele>4590.6</ele>
        <time>2022-10-25T04:37:47.000Z</time>
      </trkpt>
      <trkpt lat="27.91319" lon="86.812608">
        <ele>4591.4</ele>
        <time>2022-10-25T04:37:50.000Z</time>
      </trkpt>
      <trkpt lat="27.91321" lon="86.812602">
        <ele>4591.4</ele>
        <time>2022-10-25T04:37:56.000Z</time>
      </trkpt>
      <trkpt lat="27.913226" lon="86.812582">
        <ele>4592.4</ele>
        <time>2022-10-25T04:38:00.000Z</time>
      </trkpt>
      <trkpt lat="27.913245" lon="86.812576">
        <ele>4592.4</ele>
        <time>2022-10-25T04:38:03.000Z</time>
      </trkpt>
      <trkpt lat="27.913264" lon="86.81257">
        <ele>4592.2</ele>
        <time>2022-10-25T04:38:06.000Z</time>
      </trkpt>
      <trkpt lat="27.913283" lon="86.81255">
        <ele>4592.4</ele>
        <time>2022-10-25T04:38:09.000Z</time>
      </trkpt>
      <trkpt lat="27.913302" lon="86.812544">
        <ele>4592.6</ele>
        <time>2022-10-25T04:38:13.000Z</time>
      </trkpt>
      <trkpt lat="27.913312" lon="86.812525">
        <ele>4592.8</ele>
        <time>2022-10-25T04:38:16.000Z</time>
      </trkpt>
      <trkpt lat="27.913331" lon="86.812518">
        <ele>4592.4</ele>
        <time>2022-10-25T04:38:18.000Z</time>
      </trkpt>
      <trkpt lat="27.913344" lon="86.812499">
        <ele>4592.4</ele>
        <time>2022-10-25T04:38:20.000Z</time>
      </trkpt>
      <trkpt lat="27.91336" lon="86.812486">
        <ele>4592.6</ele>
        <time>2022-10-25T04:38:23.000Z</time>
      </trkpt>
      <trkpt lat="27.913379" lon="86.81248">
        <ele>4592.6</ele>
        <time>2022-10-25T04:38:27.000Z</time>
      </trkpt>
      <trkpt lat="27.913395" lon="86.812467">
        <ele>4592.6</ele>
        <time>2022-10-25T04:38:30.000Z</time>
      </trkpt>
      <trkpt lat="27.913408" lon="86.812448">
        <ele>4592.6</ele>
        <time>2022-10-25T04:38:33.000Z</time>
      </trkpt>
      <trkpt lat="27.913427" lon="86.812429">
        <ele>4592</ele>
        <time>2022-10-25T04:38:36.000Z</time>
      </trkpt>
      <trkpt lat="27.913453" lon="86.812422">
        <ele>4592.4</ele>
        <time>2022-10-25T04:38:40.000Z</time>
      </trkpt>
      <trkpt lat="27.913472" lon="86.812422">
        <ele>4592.4</ele>
        <time>2022-10-25T04:38:43.000Z</time>
      </trkpt>
      <trkpt lat="27.913491" lon="86.812429">
        <ele>4592.2</ele>
        <time>2022-10-25T04:38:52.000Z</time>
      </trkpt>
      <trkpt lat="27.913514" lon="86.812422">
        <ele>4592.6</ele>
        <time>2022-10-25T04:38:55.000Z</time>
      </trkpt>
      <trkpt lat="27.91353" lon="86.812403">
        <ele>4592.2</ele>
        <time>2022-10-25T04:38:58.000Z</time>
      </trkpt>
      <trkpt lat="27.913536" lon="86.812384">
        <ele>4592.6</ele>
        <time>2022-10-25T04:39:00.000Z</time>
      </trkpt>
      <trkpt lat="27.913555" lon="86.812365">
        <ele>4592.2</ele>
        <time>2022-10-25T04:39:03.000Z</time>
      </trkpt>
      <trkpt lat="27.913574" lon="86.812346">
        <ele>4592.8</ele>
        <time>2022-10-25T04:39:06.000Z</time>
      </trkpt>
      <trkpt lat="27.91359" lon="86.812326">
        <ele>4592</ele>
        <time>2022-10-25T04:39:09.000Z</time>
      </trkpt>
      <trkpt lat="27.9136" lon="86.812307">
        <ele>4592</ele>
        <time>2022-10-25T04:39:10.000Z</time>
      </trkpt>
      <trkpt lat="27.913619" lon="86.812294">
        <ele>4592.2</ele>
        <time>2022-10-25T04:39:13.000Z</time>
      </trkpt>
      <trkpt lat="27.913642" lon="86.812288">
        <ele>4592</ele>
        <time>2022-10-25T04:39:16.000Z</time>
      </trkpt>
      <trkpt lat="27.913661" lon="86.812269">
        <ele>4592</ele>
        <time>2022-10-25T04:39:19.000Z</time>
      </trkpt>
      <trkpt lat="27.913677" lon="86.812256">
        <ele>4592.2</ele>
        <time>2022-10-25T04:39:21.000Z</time>
      </trkpt>
      <trkpt lat="27.913693" lon="86.812243">
        <ele>4592.4</ele>
        <time>2022-10-25T04:39:24.000Z</time>
      </trkpt>
      <trkpt lat="27.913702" lon="86.812224">
        <ele>4592.4</ele>
        <time>2022-10-25T04:39:26.000Z</time>
      </trkpt>
      <trkpt lat="27.913712" lon="86.812205">
        <ele>4592.4</ele>
        <time>2022-10-25T04:39:29.000Z</time>
      </trkpt>
      <trkpt lat="27.913725" lon="86.812186">
        <ele>4592.4</ele>
        <time>2022-10-25T04:39:31.000Z</time>
      </trkpt>
      <trkpt lat="27.913741" lon="86.812173">
        <ele>4592</ele>
        <time>2022-10-25T04:39:34.000Z</time>
      </trkpt>
      <trkpt lat="27.91376" lon="86.812166">
        <ele>4592.4</ele>
        <time>2022-10-25T04:39:37.000Z</time>
      </trkpt>
      <trkpt lat="27.913776" lon="86.812154">
        <ele>4592.4</ele>
        <time>2022-10-25T04:39:40.000Z</time>
      </trkpt>
      <trkpt lat="27.913789" lon="86.812134">
        <ele>4592.4</ele>
        <time>2022-10-25T04:39:43.000Z</time>
      </trkpt>
      <trkpt lat="27.913808" lon="86.812128">
        <ele>4592.8</ele>
        <time>2022-10-25T04:39:46.000Z</time>
      </trkpt>
      <trkpt lat="27.913827" lon="86.812122">
        <ele>4592.4</ele>
        <time>2022-10-25T04:39:50.000Z</time>
      </trkpt>
      <trkpt lat="27.91385" lon="86.812122">
        <ele>4593</ele>
        <time>2022-10-25T04:39:54.000Z</time>
      </trkpt>
      <trkpt lat="27.913869" lon="86.812122">
        <ele>4593</ele>
        <time>2022-10-25T04:39:58.000Z</time>
      </trkpt>
      <trkpt lat="27.913885" lon="86.812109">
        <ele>4593.8</ele>
        <time>2022-10-25T04:40:03.000Z</time>
      </trkpt>
      <trkpt lat="27.913891" lon="86.81209">
        <ele>4593.8</ele>
        <time>2022-10-25T04:40:08.000Z</time>
      </trkpt>
      <trkpt lat="27.913898" lon="86.81207">
        <ele>4593.2</ele>
        <time>2022-10-25T04:40:11.000Z</time>
      </trkpt>
      <trkpt lat="27.913907" lon="86.812051">
        <ele>4593.2</ele>
        <time>2022-10-25T04:40:14.000Z</time>
      </trkpt>
      <trkpt lat="27.913917" lon="86.812032">
        <ele>4593.2</ele>
        <time>2022-10-25T04:40:16.000Z</time>
      </trkpt>
      <trkpt lat="27.913923" lon="86.812013">
        <ele>4593.8</ele>
        <time>2022-10-25T04:40:20.000Z</time>
      </trkpt>
      <trkpt lat="27.91393" lon="86.811994">
        <ele>4593.6</ele>
        <time>2022-10-25T04:40:22.000Z</time>
      </trkpt>
      <trkpt lat="27.913946" lon="86.811974">
        <ele>4593</ele>
        <time>2022-10-25T04:40:26.000Z</time>
      </trkpt>
      <trkpt lat="27.913952" lon="86.811955">
        <ele>4593.4</ele>
        <time>2022-10-25T04:40:29.000Z</time>
      </trkpt>
      <trkpt lat="27.913971" lon="86.811949">
        <ele>4593.4</ele>
        <time>2022-10-25T04:40:34.000Z</time>
      </trkpt>
      <trkpt lat="27.913987" lon="86.811936">
        <ele>4594</ele>
        <time>2022-10-25T04:40:38.000Z</time>
      </trkpt>
      <trkpt lat="27.914006" lon="86.811923">
        <ele>4594.6</ele>
        <time>2022-10-25T04:40:42.000Z</time>
      </trkpt>
      <trkpt lat="27.914016" lon="86.811904">
        <ele>4595</ele>
        <time>2022-10-25T04:40:46.000Z</time>
      </trkpt>
      <trkpt lat="27.914032" lon="86.811891">
        <ele>4595</ele>
        <time>2022-10-25T04:40:50.000Z</time>
      </trkpt>
      <trkpt lat="27.914038" lon="86.811872">
        <ele>4595.2</ele>
        <time>2022-10-25T04:40:52.000Z</time>
      </trkpt>
      <trkpt lat="27.914054" lon="86.811853">
        <ele>4595.8</ele>
        <time>2022-10-25T04:41:02.000Z</time>
      </trkpt>
      <trkpt lat="27.914067" lon="86.811834">
        <ele>4595.6</ele>
        <time>2022-10-25T04:41:04.000Z</time>
      </trkpt>
      <trkpt lat="27.914096" lon="86.811821">
        <ele>4595</ele>
        <time>2022-10-25T04:41:07.000Z</time>
      </trkpt>
      <trkpt lat="27.914118" lon="86.811808">
        <ele>4594.4</ele>
        <time>2022-10-25T04:41:10.000Z</time>
      </trkpt>
      <trkpt lat="27.914128" lon="86.811789">
        <ele>4594.8</ele>
        <time>2022-10-25T04:41:12.000Z</time>
      </trkpt>
      <trkpt lat="27.914147" lon="86.811776">
        <ele>4594.4</ele>
        <time>2022-10-25T04:41:15.000Z</time>
      </trkpt>
      <trkpt lat="27.91417" lon="86.811757">
        <ele>4594.2</ele>
        <time>2022-10-25T04:41:18.000Z</time>
      </trkpt>
      <trkpt lat="27.914189" lon="86.811744">
        <ele>4594</ele>
        <time>2022-10-25T04:41:21.000Z</time>
      </trkpt>
      <trkpt lat="27.914208" lon="86.811738">
        <ele>4594</ele>
        <time>2022-10-25T04:41:24.000Z</time>
      </trkpt>
      <trkpt lat="27.91423" lon="86.811731">
        <ele>4594.2</ele>
        <time>2022-10-25T04:41:27.000Z</time>
      </trkpt>
      <trkpt lat="27.91425" lon="86.811731">
        <ele>4594</ele>
        <time>2022-10-25T04:41:37.000Z</time>
      </trkpt>
      <trkpt lat="27.914266" lon="86.811712">
        <ele>4592.8</ele>
        <time>2022-10-25T04:41:50.000Z</time>
      </trkpt>
      <trkpt lat="27.914288" lon="86.811706">
        <ele>4592.6</ele>
        <time>2022-10-25T04:41:52.000Z</time>
      </trkpt>
      <trkpt lat="27.914307" lon="86.811699">
        <ele>4592.6</ele>
        <time>2022-10-25T04:41:54.000Z</time>
      </trkpt>
      <trkpt lat="27.914326" lon="86.811693">
        <ele>4592.6</ele>
        <time>2022-10-25T04:41:56.000Z</time>
      </trkpt>
      <trkpt lat="27.914352" lon="86.811686">
        <ele>4592.6</ele>
        <time>2022-10-25T04:41:58.000Z</time>
      </trkpt>
      <trkpt lat="27.914374" lon="86.811667">
        <ele>4592.4</ele>
        <time>2022-10-25T04:42:02.000Z</time>
      </trkpt>
      <trkpt lat="27.914387" lon="86.811648">
        <ele>4592.4</ele>
        <time>2022-10-25T04:42:05.000Z</time>
      </trkpt>
      <trkpt lat="27.914406" lon="86.811629">
        <ele>4592.4</ele>
        <time>2022-10-25T04:42:08.000Z</time>
      </trkpt>
      <trkpt lat="27.914422" lon="86.811616">
        <ele>4592.4</ele>
        <time>2022-10-25T04:42:11.000Z</time>
      </trkpt>
      <trkpt lat="27.914445" lon="86.81161">
        <ele>4592</ele>
        <time>2022-10-25T04:42:14.000Z</time>
      </trkpt>
      <trkpt lat="27.914464" lon="86.811597">
        <ele>4592</ele>
        <time>2022-10-25T04:42:17.000Z</time>
      </trkpt>
      <trkpt lat="27.914483" lon="86.811584">
        <ele>4591.8</ele>
        <time>2022-10-25T04:42:20.000Z</time>
      </trkpt>
      <trkpt lat="27.914502" lon="86.811571">
        <ele>4592.4</ele>
        <time>2022-10-25T04:42:24.000Z</time>
      </trkpt>
      <trkpt lat="27.914512" lon="86.811552">
        <ele>4592.6</ele>
        <time>2022-10-25T04:42:26.000Z</time>
      </trkpt>
      <trkpt lat="27.914534" lon="86.811546">
        <ele>4592.6</ele>
        <time>2022-10-25T04:42:29.000Z</time>
      </trkpt>
      <trkpt lat="27.914557" lon="86.811539">
        <ele>4591.8</ele>
        <time>2022-10-25T04:42:32.000Z</time>
      </trkpt>
      <trkpt lat="27.914576" lon="86.811526">
        <ele>4591.2</ele>
        <time>2022-10-25T04:42:35.000Z</time>
      </trkpt>
      <trkpt lat="27.914592" lon="86.811514">
        <ele>4591.2</ele>
        <time>2022-10-25T04:42:37.000Z</time>
      </trkpt>
      <trkpt lat="27.914611" lon="86.811501">
        <ele>4590.8</ele>
        <time>2022-10-25T04:42:40.000Z</time>
      </trkpt>
      <trkpt lat="27.91463" lon="86.811494">
        <ele>4590.8</ele>
        <time>2022-10-25T04:42:43.000Z</time>
      </trkpt>
      <trkpt lat="27.91465" lon="86.811494">
        <ele>4591</ele>
        <time>2022-10-25T04:42:46.000Z</time>
      </trkpt>
      <trkpt lat="27.914675" lon="86.811494">
        <ele>4591.6</ele>
        <time>2022-10-25T04:42:50.000Z</time>
      </trkpt>
      <trkpt lat="27.914694" lon="86.811488">
        <ele>4591.8</ele>
        <time>2022-10-25T04:42:54.000Z</time>
      </trkpt>
      <trkpt lat="27.914707" lon="86.811469">
        <ele>4592</ele>
        <time>2022-10-25T04:42:56.000Z</time>
      </trkpt>
      <trkpt lat="27.914723" lon="86.81145">
        <ele>4591.8</ele>
        <time>2022-10-25T04:43:00.000Z</time>
      </trkpt>
      <trkpt lat="27.914739" lon="86.811437">
        <ele>4591.6</ele>
        <time>2022-10-25T04:43:02.000Z</time>
      </trkpt>
      <trkpt lat="27.914758" lon="86.811424">
        <ele>4591.6</ele>
        <time>2022-10-25T04:43:05.000Z</time>
      </trkpt>
      <trkpt lat="27.914774" lon="86.811411">
        <ele>4591.8</ele>
        <time>2022-10-25T04:43:10.000Z</time>
      </trkpt>
      <trkpt lat="27.914781" lon="86.811392">
        <ele>4591.6</ele>
        <time>2022-10-25T04:43:12.000Z</time>
      </trkpt>
      <trkpt lat="27.9148" lon="86.811379">
        <ele>4591</ele>
        <time>2022-10-25T04:43:15.000Z</time>
      </trkpt>
      <trkpt lat="27.914819" lon="86.811366">
        <ele>4591.2</ele>
        <time>2022-10-25T04:43:18.000Z</time>
      </trkpt>
      <trkpt lat="27.914829" lon="86.811347">
        <ele>4590.8</ele>
        <time>2022-10-25T04:43:20.000Z</time>
      </trkpt>
      <trkpt lat="27.914851" lon="86.811334">
        <ele>4590.4</ele>
        <time>2022-10-25T04:43:23.000Z</time>
      </trkpt>
      <trkpt lat="27.914864" lon="86.811315">
        <ele>4590</ele>
        <time>2022-10-25T04:43:25.000Z</time>
      </trkpt>
      <trkpt lat="27.914883" lon="86.811302">
        <ele>4590.2</ele>
        <time>2022-10-25T04:43:28.000Z</time>
      </trkpt>
      <trkpt lat="27.914902" lon="86.811296">
        <ele>4590</ele>
        <time>2022-10-25T04:43:31.000Z</time>
      </trkpt>
      <trkpt lat="27.914925" lon="86.81129">
        <ele>4590.2</ele>
        <time>2022-10-25T04:43:34.000Z</time>
      </trkpt>
      <trkpt lat="27.914947" lon="86.811277">
        <ele>4590.2</ele>
        <time>2022-10-25T04:43:37.000Z</time>
      </trkpt>
      <trkpt lat="27.914963" lon="86.811264">
        <ele>4590.2</ele>
        <time>2022-10-25T04:43:39.000Z</time>
      </trkpt>
      <trkpt lat="27.914989" lon="86.811251">
        <ele>4590</ele>
        <time>2022-10-25T04:43:43.000Z</time>
      </trkpt>
      <trkpt lat="27.915005" lon="86.811232">
        <ele>4590.4</ele>
        <time>2022-10-25T04:43:46.000Z</time>
      </trkpt>
      <trkpt lat="27.915027" lon="86.811219">
        <ele>4590.2</ele>
        <time>2022-10-25T04:43:49.000Z</time>
      </trkpt>
      <trkpt lat="27.915046" lon="86.811213">
        <ele>4589.6</ele>
        <time>2022-10-25T04:43:52.000Z</time>
      </trkpt>
      <trkpt lat="27.915066" lon="86.811194">
        <ele>4589.6</ele>
        <time>2022-10-25T04:43:55.000Z</time>
      </trkpt>
      <trkpt lat="27.915091" lon="86.811187">
        <ele>4590</ele>
        <time>2022-10-25T04:43:58.000Z</time>
      </trkpt>
      <trkpt lat="27.91511" lon="86.811187">
        <ele>4590.4</ele>
        <time>2022-10-25T04:44:01.000Z</time>
      </trkpt>
      <trkpt lat="27.91513" lon="86.811187">
        <ele>4590.4</ele>
        <time>2022-10-25T04:44:04.000Z</time>
      </trkpt>
      <trkpt lat="27.915152" lon="86.811187">
        <ele>4591</ele>
        <time>2022-10-25T04:44:07.000Z</time>
      </trkpt>
      <trkpt lat="27.915171" lon="86.811181">
        <ele>4591.2</ele>
        <time>2022-10-25T04:44:10.000Z</time>
      </trkpt>
      <trkpt lat="27.915197" lon="86.811155">
        <ele>4590.4</ele>
        <time>2022-10-25T04:44:46.000Z</time>
      </trkpt>
      <trkpt lat="27.915219" lon="86.811142">
        <ele>4590</ele>
        <time>2022-10-25T04:44:48.000Z</time>
      </trkpt>
      <trkpt lat="27.915248" lon="86.81113">
        <ele>4589.8</ele>
        <time>2022-10-25T04:44:50.000Z</time>
      </trkpt>
      <trkpt lat="27.915264" lon="86.81111">
        <ele>4589.8</ele>
        <time>2022-10-25T04:44:52.000Z</time>
      </trkpt>
      <trkpt lat="27.91529" lon="86.811098">
        <ele>4590.4</ele>
        <time>2022-10-25T04:44:54.000Z</time>
      </trkpt>
      <trkpt lat="27.915309" lon="86.811078">
        <ele>4589.8</ele>
        <time>2022-10-25T04:44:57.000Z</time>
      </trkpt>
      <trkpt lat="27.915357" lon="86.811059">
        <ele>4589</ele>
        <time>2022-10-25T04:45:03.000Z</time>
      </trkpt>
      <trkpt lat="27.915376" lon="86.811053">
        <ele>4589.2</ele>
        <time>2022-10-25T04:45:07.000Z</time>
      </trkpt>
      <trkpt lat="27.915392" lon="86.811034">
        <ele>4589.6</ele>
        <time>2022-10-25T04:45:10.000Z</time>
      </trkpt>
      <trkpt lat="27.915414" lon="86.811034">
        <ele>4589.2</ele>
        <time>2022-10-25T04:45:13.000Z</time>
      </trkpt>
      <trkpt lat="27.91543" lon="86.811021">
        <ele>4589.6</ele>
        <time>2022-10-25T04:45:16.000Z</time>
      </trkpt>
      <trkpt lat="27.91545" lon="86.811002">
        <ele>4589.6</ele>
        <time>2022-10-25T04:45:19.000Z</time>
      </trkpt>
      <trkpt lat="27.915469" lon="86.810995">
        <ele>4589.2</ele>
        <time>2022-10-25T04:45:22.000Z</time>
      </trkpt>
      <trkpt lat="27.915485" lon="86.810982">
        <ele>4589.6</ele>
        <time>2022-10-25T04:45:25.000Z</time>
      </trkpt>
      <trkpt lat="27.915504" lon="86.810976">
        <ele>4589.8</ele>
        <time>2022-10-25T04:45:28.000Z</time>
      </trkpt>
      <trkpt lat="27.91551" lon="86.81095">
        <ele>4590.2</ele>
        <time>2022-10-25T04:45:31.000Z</time>
      </trkpt>
      <trkpt lat="27.915526" lon="86.810938">
        <ele>4590.6</ele>
        <time>2022-10-25T04:45:35.000Z</time>
      </trkpt>
      <trkpt lat="27.915485" lon="86.810931">
        <ele>4589.2</ele>
        <time>2022-10-25T04:55:26.000Z</time>
      </trkpt>
      <trkpt lat="27.915498" lon="86.810912">
        <ele>4589</ele>
        <time>2022-10-25T04:55:27.000Z</time>
      </trkpt>
      <trkpt lat="27.915514" lon="86.81088">
        <ele>4589.2</ele>
        <time>2022-10-25T04:55:29.000Z</time>
      </trkpt>
      <trkpt lat="27.915523" lon="86.810861">
        <ele>4589.2</ele>
        <time>2022-10-25T04:55:31.000Z</time>
      </trkpt>
      <trkpt lat="27.91553" lon="86.810835">
        <ele>4589.2</ele>
        <time>2022-10-25T04:55:32.000Z</time>
      </trkpt>
      <trkpt lat="27.915546" lon="86.810803">
        <ele>4589.4</ele>
        <time>2022-10-25T04:55:34.000Z</time>
      </trkpt>
      <trkpt lat="27.915562" lon="86.810784">
        <ele>4589.8</ele>
        <time>2022-10-25T04:55:36.000Z</time>
      </trkpt>
      <trkpt lat="27.915568" lon="86.810758">
        <ele>4588.6</ele>
        <time>2022-10-25T04:55:39.000Z</time>
      </trkpt>
      <trkpt lat="27.915584" lon="86.810739">
        <ele>4588.6</ele>
        <time>2022-10-25T04:55:42.000Z</time>
      </trkpt>
      <trkpt lat="27.915603" lon="86.81072">
        <ele>4588.2</ele>
        <time>2022-10-25T04:55:45.000Z</time>
      </trkpt>
      <trkpt lat="27.915622" lon="86.810707">
        <ele>4588.2</ele>
        <time>2022-10-25T04:55:48.000Z</time>
      </trkpt>
      <trkpt lat="27.915638" lon="86.810694">
        <ele>4588.4</ele>
        <time>2022-10-25T04:55:52.000Z</time>
      </trkpt>
      <trkpt lat="27.915648" lon="86.810675">
        <ele>4588.6</ele>
        <time>2022-10-25T04:55:54.000Z</time>
      </trkpt>
      <trkpt lat="27.91567" lon="86.810637">
        <ele>4588.6</ele>
        <time>2022-10-25T04:55:58.000Z</time>
      </trkpt>
      <trkpt lat="27.915693" lon="86.810624">
        <ele>4588.6</ele>
        <time>2022-10-25T04:56:01.000Z</time>
      </trkpt>
      <trkpt lat="27.915712" lon="86.810605">
        <ele>4588.6</ele>
        <time>2022-10-25T04:56:04.000Z</time>
      </trkpt>
      <trkpt lat="27.915731" lon="86.810592">
        <ele>4588.6</ele>
        <time>2022-10-25T04:56:07.000Z</time>
      </trkpt>
      <trkpt lat="27.915754" lon="86.810579">
        <ele>4588.6</ele>
        <time>2022-10-25T04:56:10.000Z</time>
      </trkpt>
      <trkpt lat="27.915773" lon="86.81056">
        <ele>4589</ele>
        <time>2022-10-25T04:56:16.000Z</time>
      </trkpt>
      <trkpt lat="27.915792" lon="86.810547">
        <ele>4590</ele>
        <time>2022-10-25T04:56:20.000Z</time>
      </trkpt>
      <trkpt lat="27.915811" lon="86.810534">
        <ele>4590</ele>
        <time>2022-10-25T04:56:23.000Z</time>
      </trkpt>
      <trkpt lat="27.915821" lon="86.810515">
        <ele>4590</ele>
        <time>2022-10-25T04:56:25.000Z</time>
      </trkpt>
      <trkpt lat="27.915834" lon="86.810496">
        <ele>4590.8</ele>
        <time>2022-10-25T04:56:28.000Z</time>
      </trkpt>
      <trkpt lat="27.915846" lon="86.810477">
        <ele>4590.6</ele>
        <time>2022-10-25T04:56:30.000Z</time>
      </trkpt>
      <trkpt lat="27.915862" lon="86.810464">
        <ele>4590</ele>
        <time>2022-10-25T04:56:33.000Z</time>
      </trkpt>
      <trkpt lat="27.915875" lon="86.810445">
        <ele>4590</ele>
        <time>2022-10-25T04:56:36.000Z</time>
      </trkpt>
      <trkpt lat="27.915898" lon="86.810432">
        <ele>4590</ele>
        <time>2022-10-25T04:56:40.000Z</time>
      </trkpt>
      <trkpt lat="27.91592" lon="86.810432">
        <ele>4591.2</ele>
        <time>2022-10-25T04:56:45.000Z</time>
      </trkpt>
      <trkpt lat="27.915936" lon="86.810419">
        <ele>4591.6</ele>
        <time>2022-10-25T04:56:48.000Z</time>
      </trkpt>
      <trkpt lat="27.915949" lon="86.8104">
        <ele>4591.8</ele>
        <time>2022-10-25T04:56:51.000Z</time>
      </trkpt>
      <trkpt lat="27.915965" lon="86.810387">
        <ele>4592.6</ele>
        <time>2022-10-25T04:56:55.000Z</time>
      </trkpt>
      <trkpt lat="27.915981" lon="86.810374">
        <ele>4592</ele>
        <time>2022-10-25T04:56:57.000Z</time>
      </trkpt>
      <trkpt lat="27.916" lon="86.810362">
        <ele>4591.4</ele>
        <time>2022-10-25T04:57:00.000Z</time>
      </trkpt>
      <trkpt lat="27.916006" lon="86.810342">
        <ele>4592</ele>
        <time>2022-10-25T04:57:04.000Z</time>
      </trkpt>
      <trkpt lat="27.916016" lon="86.810323">
        <ele>4591.6</ele>
        <time>2022-10-25T04:57:06.000Z</time>
      </trkpt>
      <trkpt lat="27.916032" lon="86.81031">
        <ele>4591.8</ele>
        <time>2022-10-25T04:57:09.000Z</time>
      </trkpt>
      <trkpt lat="27.916054" lon="86.810304">
        <ele>4591.6</ele>
        <time>2022-10-25T04:57:12.000Z</time>
      </trkpt>
      <trkpt lat="27.916074" lon="86.810285">
        <ele>4592</ele>
        <time>2022-10-25T04:57:15.000Z</time>
      </trkpt>
      <trkpt lat="27.916096" lon="86.810278">
        <ele>4592</ele>
        <time>2022-10-25T04:57:18.000Z</time>
      </trkpt>
      <trkpt lat="27.916109" lon="86.810259">
        <ele>4591.8</ele>
        <time>2022-10-25T04:57:21.000Z</time>
      </trkpt>
      <trkpt lat="27.916125" lon="86.810246">
        <ele>4592.4</ele>
        <time>2022-10-25T04:57:24.000Z</time>
      </trkpt>
      <trkpt lat="27.916144" lon="86.81024">
        <ele>4592.4</ele>
        <time>2022-10-25T04:57:27.000Z</time>
      </trkpt>
      <trkpt lat="27.916163" lon="86.81024">
        <ele>4592.4</ele>
        <time>2022-10-25T04:57:30.000Z</time>
      </trkpt>
      <trkpt lat="27.916189" lon="86.810227">
        <ele>4592.6</ele>
        <time>2022-10-25T04:57:34.000Z</time>
      </trkpt>
      <trkpt lat="27.916208" lon="86.810208">
        <ele>4592.6</ele>
        <time>2022-10-25T04:57:38.000Z</time>
      </trkpt>
      <trkpt lat="27.91623" lon="86.810202">
        <ele>4593.2</ele>
        <time>2022-10-25T04:57:43.000Z</time>
      </trkpt>
      <trkpt lat="27.91624" lon="86.810182">
        <ele>4594</ele>
        <time>2022-10-25T04:57:47.000Z</time>
      </trkpt>
      <trkpt lat="27.91625" lon="86.810163">
        <ele>4594.4</ele>
        <time>2022-10-25T04:57:50.000Z</time>
      </trkpt>
      <trkpt lat="27.916269" lon="86.81015">
        <ele>4595</ele>
        <time>2022-10-25T04:57:54.000Z</time>
      </trkpt>
      <trkpt lat="27.916285" lon="86.810138">
        <ele>4596</ele>
        <time>2022-10-25T04:58:01.000Z</time>
      </trkpt>
      <trkpt lat="27.916291" lon="86.810118">
        <ele>4596.4</ele>
        <time>2022-10-25T04:58:04.000Z</time>
      </trkpt>
      <trkpt lat="27.916304" lon="86.810099">
        <ele>4597.4</ele>
        <time>2022-10-25T04:58:07.000Z</time>
      </trkpt>
      <trkpt lat="27.91632" lon="86.81008">
        <ele>4596.8</ele>
        <time>2022-10-25T04:58:11.000Z</time>
      </trkpt>
      <trkpt lat="27.916339" lon="86.810067">
        <ele>4597.4</ele>
        <time>2022-10-25T04:58:15.000Z</time>
      </trkpt>
      <trkpt lat="27.916355" lon="86.810048">
        <ele>4597.8</ele>
        <time>2022-10-25T04:58:18.000Z</time>
      </trkpt>
      <trkpt lat="27.916371" lon="86.810035">
        <ele>4598</ele>
        <time>2022-10-25T04:58:21.000Z</time>
      </trkpt>
      <trkpt lat="27.916387" lon="86.810022">
        <ele>4598.2</ele>
        <time>2022-10-25T04:58:24.000Z</time>
      </trkpt>
      <trkpt lat="27.9164" lon="86.810003">
        <ele>4597.8</ele>
        <time>2022-10-25T04:58:26.000Z</time>
      </trkpt>
      <trkpt lat="27.916419" lon="86.809997">
        <ele>4597.2</ele>
        <time>2022-10-25T04:58:30.000Z</time>
      </trkpt>
      <trkpt lat="27.916438" lon="86.809984">
        <ele>4597.2</ele>
        <time>2022-10-25T04:58:34.000Z</time>
      </trkpt>
      <trkpt lat="27.916448" lon="86.809965">
        <ele>4597.2</ele>
        <time>2022-10-25T04:58:36.000Z</time>
      </trkpt>
      <trkpt lat="27.916467" lon="86.809952">
        <ele>4597.6</ele>
        <time>2022-10-25T04:58:39.000Z</time>
      </trkpt>
      <trkpt lat="27.916493" lon="86.809939">
        <ele>4597</ele>
        <time>2022-10-25T04:58:43.000Z</time>
      </trkpt>
      <trkpt lat="27.916506" lon="86.80992">
        <ele>4597.6</ele>
        <time>2022-10-25T04:58:46.000Z</time>
      </trkpt>
      <trkpt lat="27.916525" lon="86.809914">
        <ele>4597.8</ele>
        <time>2022-10-25T04:58:49.000Z</time>
      </trkpt>
      <trkpt lat="27.916544" lon="86.809901">
        <ele>4598.2</ele>
        <time>2022-10-25T04:58:53.000Z</time>
      </trkpt>
      <trkpt lat="27.916563" lon="86.809888">
        <ele>4597.6</ele>
        <time>2022-10-25T04:58:56.000Z</time>
      </trkpt>
      <trkpt lat="27.916582" lon="86.809875">
        <ele>4597.6</ele>
        <time>2022-10-25T04:59:00.000Z</time>
      </trkpt>
      <trkpt lat="27.916602" lon="86.80985">
        <ele>4597.6</ele>
        <time>2022-10-25T04:59:04.000Z</time>
      </trkpt>
      <trkpt lat="27.916621" lon="86.80985">
        <ele>4598</ele>
        <time>2022-10-25T04:59:08.000Z</time>
      </trkpt>
      <trkpt lat="27.916637" lon="86.809837">
        <ele>4598.2</ele>
        <time>2022-10-25T04:59:11.000Z</time>
      </trkpt>
      <trkpt lat="27.916656" lon="86.809824">
        <ele>4598.4</ele>
        <time>2022-10-25T04:59:15.000Z</time>
      </trkpt>
      <trkpt lat="27.916675" lon="86.809805">
        <ele>4599</ele>
        <time>2022-10-25T04:59:43.000Z</time>
      </trkpt>
      <trkpt lat="27.916698" lon="86.809792">
        <ele>4599</ele>
        <time>2022-10-25T04:59:45.000Z</time>
      </trkpt>
      <trkpt lat="27.916726" lon="86.809779">
        <ele>4598.8</ele>
        <time>2022-10-25T04:59:47.000Z</time>
      </trkpt>
      <trkpt lat="27.916752" lon="86.809766">
        <ele>4598.4</ele>
        <time>2022-10-25T04:59:49.000Z</time>
      </trkpt>
      <trkpt lat="27.916781" lon="86.809754">
        <ele>4598.2</ele>
        <time>2022-10-25T04:59:51.000Z</time>
      </trkpt>
      <trkpt lat="27.9168" lon="86.809754">
        <ele>4598</ele>
        <time>2022-10-25T04:59:53.000Z</time>
      </trkpt>
      <trkpt lat="27.916819" lon="86.809747">
        <ele>4598</ele>
        <time>2022-10-25T04:59:56.000Z</time>
      </trkpt>
      <trkpt lat="27.916838" lon="86.809741">
        <ele>4598</ele>
        <time>2022-10-25T05:00:00.000Z</time>
      </trkpt>
      <trkpt lat="27.916877" lon="86.809709">
        <ele>4598.2</ele>
        <time>2022-10-25T05:00:51.000Z</time>
      </trkpt>
      <trkpt lat="27.916906" lon="86.80969">
        <ele>4598</ele>
        <time>2022-10-25T05:00:53.000Z</time>
      </trkpt>
      <trkpt lat="27.916928" lon="86.809677">
        <ele>4598</ele>
        <time>2022-10-25T05:00:55.000Z</time>
      </trkpt>
      <trkpt lat="27.91696" lon="86.80967">
        <ele>4598.2</ele>
        <time>2022-10-25T05:00:57.000Z</time>
      </trkpt>
      <trkpt lat="27.916982" lon="86.809664">
        <ele>4598.6</ele>
        <time>2022-10-25T05:00:59.000Z</time>
      </trkpt>
      <trkpt lat="27.916998" lon="86.809651">
        <ele>4598.6</ele>
        <time>2022-10-25T05:01:01.000Z</time>
      </trkpt>
      <trkpt lat="27.917018" lon="86.809645">
        <ele>4598.6</ele>
        <time>2022-10-25T05:01:04.000Z</time>
      </trkpt>
      <trkpt lat="27.917034" lon="86.809632">
        <ele>4598.8</ele>
        <time>2022-10-25T05:01:07.000Z</time>
      </trkpt>
      <trkpt lat="27.917056" lon="86.809626">
        <ele>4598.8</ele>
        <time>2022-10-25T05:01:10.000Z</time>
      </trkpt>
      <trkpt lat="27.917075" lon="86.809606">
        <ele>4598.8</ele>
        <time>2022-10-25T05:01:13.000Z</time>
      </trkpt>
      <trkpt lat="27.917091" lon="86.809594">
        <ele>4598.8</ele>
        <time>2022-10-25T05:01:16.000Z</time>
      </trkpt>
      <trkpt lat="27.917114" lon="86.809587">
        <ele>4598</ele>
        <time>2022-10-25T05:01:20.000Z</time>
      </trkpt>
      <trkpt lat="27.917133" lon="86.809568">
        <ele>4598.4</ele>
        <time>2022-10-25T05:01:23.000Z</time>
      </trkpt>
      <trkpt lat="27.917155" lon="86.809555">
        <ele>4599.2</ele>
        <time>2022-10-25T05:01:27.000Z</time>
      </trkpt>
      <trkpt lat="27.917174" lon="86.809549">
        <ele>4598.8</ele>
        <time>2022-10-25T05:01:30.000Z</time>
      </trkpt>
      <trkpt lat="27.917194" lon="86.809542">
        <ele>4599.2</ele>
        <time>2022-10-25T05:01:33.000Z</time>
      </trkpt>
      <trkpt lat="27.917216" lon="86.809523">
        <ele>4599.2</ele>
        <time>2022-10-25T05:01:36.000Z</time>
      </trkpt>
      <trkpt lat="27.917238" lon="86.80951">
        <ele>4599.2</ele>
        <time>2022-10-25T05:01:40.000Z</time>
      </trkpt>
      <trkpt lat="27.917258" lon="86.809504">
        <ele>4599.2</ele>
        <time>2022-10-25T05:01:43.000Z</time>
      </trkpt>
      <trkpt lat="27.917267" lon="86.809485">
        <ele>4599</ele>
        <time>2022-10-25T05:01:45.000Z</time>
      </trkpt>
      <trkpt lat="27.917283" lon="86.809472">
        <ele>4599</ele>
        <time>2022-10-25T05:01:48.000Z</time>
      </trkpt>
      <trkpt lat="27.917312" lon="86.809453">
        <ele>4599.2</ele>
        <time>2022-10-25T05:01:52.000Z</time>
      </trkpt>
      <trkpt lat="27.917331" lon="86.809453">
        <ele>4599.6</ele>
        <time>2022-10-25T05:01:55.000Z</time>
      </trkpt>
      <trkpt lat="27.917354" lon="86.809446">
        <ele>4599.2</ele>
        <time>2022-10-25T05:01:59.000Z</time>
      </trkpt>
      <trkpt lat="27.917376" lon="86.80944">
        <ele>4598.8</ele>
        <time>2022-10-25T05:02:02.000Z</time>
      </trkpt>
      <trkpt lat="27.917395" lon="86.809434">
        <ele>4598.4</ele>
        <time>2022-10-25T05:02:05.000Z</time>
      </trkpt>
      <trkpt lat="27.917414" lon="86.809427">
        <ele>4599</ele>
        <time>2022-10-25T05:02:08.000Z</time>
      </trkpt>
      <trkpt lat="27.917434" lon="86.809408">
        <ele>4599</ele>
        <time>2022-10-25T05:02:11.000Z</time>
      </trkpt>
      <trkpt lat="27.917453" lon="86.809402">
        <ele>4599.4</ele>
        <time>2022-10-25T05:02:16.000Z</time>
      </trkpt>
      <trkpt lat="27.917469" lon="86.809389">
        <ele>4598.6</ele>
        <time>2022-10-25T05:02:19.000Z</time>
      </trkpt>
      <trkpt lat="27.917482" lon="86.80937">
        <ele>4599.2</ele>
        <time>2022-10-25T05:02:22.000Z</time>
      </trkpt>
      <trkpt lat="27.917501" lon="86.809357">
        <ele>4599.2</ele>
        <time>2022-10-25T05:02:25.000Z</time>
      </trkpt>
      <trkpt lat="27.917517" lon="86.809331">
        <ele>4599.2</ele>
        <time>2022-10-25T05:02:29.000Z</time>
      </trkpt>
      <trkpt lat="27.917533" lon="86.809318">
        <ele>4599.4</ele>
        <time>2022-10-25T05:02:32.000Z</time>
      </trkpt>
      <trkpt lat="27.917549" lon="86.809306">
        <ele>4599.6</ele>
        <time>2022-10-25T05:02:35.000Z</time>
      </trkpt>
      <trkpt lat="27.917562" lon="86.809286">
        <ele>4600</ele>
        <time>2022-10-25T05:02:37.000Z</time>
      </trkpt>
      <trkpt lat="27.917574" lon="86.809267">
        <ele>4600.2</ele>
        <time>2022-10-25T05:02:40.000Z</time>
      </trkpt>
      <trkpt lat="27.91759" lon="86.809248">
        <ele>4600</ele>
        <time>2022-10-25T05:02:43.000Z</time>
      </trkpt>
      <trkpt lat="27.91761" lon="86.809242">
        <ele>4599.8</ele>
        <time>2022-10-25T05:02:46.000Z</time>
      </trkpt>
      <trkpt lat="27.917632" lon="86.809242">
        <ele>4600</ele>
        <time>2022-10-25T05:02:49.000Z</time>
      </trkpt>
      <trkpt lat="27.917654" lon="86.809235">
        <ele>4600.2</ele>
        <time>2022-10-25T05:02:53.000Z</time>
      </trkpt>
      <trkpt lat="27.91767" lon="86.809222">
        <ele>4600.6</ele>
        <time>2022-10-25T05:02:56.000Z</time>
      </trkpt>
      <trkpt lat="27.917683" lon="86.809203">
        <ele>4600.6</ele>
        <time>2022-10-25T05:02:59.000Z</time>
      </trkpt>
      <trkpt lat="27.917706" lon="86.80919">
        <ele>4601.2</ele>
        <time>2022-10-25T05:03:03.000Z</time>
      </trkpt>
      <trkpt lat="27.917718" lon="86.809171">
        <ele>4601.4</ele>
        <time>2022-10-25T05:03:05.000Z</time>
      </trkpt>
      <trkpt lat="27.917738" lon="86.809158">
        <ele>4601.4</ele>
        <time>2022-10-25T05:03:10.000Z</time>
      </trkpt>
      <trkpt lat="27.917754" lon="86.809133">
        <ele>4602.6</ele>
        <time>2022-10-25T05:03:15.000Z</time>
      </trkpt>
      <trkpt lat="27.917763" lon="86.809114">
        <ele>4602.4</ele>
        <time>2022-10-25T05:03:20.000Z</time>
      </trkpt>
      <trkpt lat="27.917782" lon="86.809094">
        <ele>4602.6</ele>
        <time>2022-10-25T05:03:24.000Z</time>
      </trkpt>
      <trkpt lat="27.917802" lon="86.809082">
        <ele>4603</ele>
        <time>2022-10-25T05:03:28.000Z</time>
      </trkpt>
      <trkpt lat="27.917818" lon="86.809056">
        <ele>4603.2</ele>
        <time>2022-10-25T05:03:33.000Z</time>
      </trkpt>
      <trkpt lat="27.91783" lon="86.809037">
        <ele>4603.2</ele>
        <time>2022-10-25T05:03:37.000Z</time>
      </trkpt>
      <trkpt lat="27.91785" lon="86.809024">
        <ele>4603.6</ele>
        <time>2022-10-25T05:03:40.000Z</time>
      </trkpt>
      <trkpt lat="27.917862" lon="86.809005">
        <ele>4603.6</ele>
        <time>2022-10-25T05:03:43.000Z</time>
      </trkpt>
      <trkpt lat="27.917878" lon="86.808992">
        <ele>4604</ele>
        <time>2022-10-25T05:03:46.000Z</time>
      </trkpt>
      <trkpt lat="27.917888" lon="86.808973">
        <ele>4604.2</ele>
        <time>2022-10-25T05:03:48.000Z</time>
      </trkpt>
      <trkpt lat="27.917907" lon="86.80896">
        <ele>4604.8</ele>
        <time>2022-10-25T05:03:53.000Z</time>
      </trkpt>
      <trkpt lat="27.917926" lon="86.808947">
        <ele>4604.8</ele>
        <time>2022-10-25T05:03:57.000Z</time>
      </trkpt>
      <trkpt lat="27.917936" lon="86.808928">
        <ele>4605</ele>
        <time>2022-10-25T05:04:00.000Z</time>
      </trkpt>
      <trkpt lat="27.917952" lon="86.808915">
        <ele>4605</ele>
        <time>2022-10-25T05:04:04.000Z</time>
      </trkpt>
      <trkpt lat="27.917971" lon="86.808909">
        <ele>4605.2</ele>
        <time>2022-10-25T05:04:08.000Z</time>
      </trkpt>
      <trkpt lat="27.917987" lon="86.808896">
        <ele>4605.4</ele>
        <time>2022-10-25T05:04:11.000Z</time>
      </trkpt>
      <trkpt lat="27.918006" lon="86.808883">
        <ele>4606.2</ele>
        <time>2022-10-25T05:04:15.000Z</time>
      </trkpt>
      <trkpt lat="27.918016" lon="86.808858">
        <ele>4606.2</ele>
        <time>2022-10-25T05:04:19.000Z</time>
      </trkpt>
      <trkpt lat="27.918038" lon="86.808838">
        <ele>4606</ele>
        <time>2022-10-25T05:04:23.000Z</time>
      </trkpt>
      <trkpt lat="27.918048" lon="86.808813">
        <ele>4606.8</ele>
        <time>2022-10-25T05:04:27.000Z</time>
      </trkpt>
      <trkpt lat="27.918064" lon="86.808794">
        <ele>4606.2</ele>
        <time>2022-10-25T05:04:31.000Z</time>
      </trkpt>
      <trkpt lat="27.918067" lon="86.808768">
        <ele>4606.4</ele>
        <time>2022-10-25T05:04:34.000Z</time>
      </trkpt>
      <trkpt lat="27.91808" lon="86.808749">
        <ele>4606.4</ele>
        <time>2022-10-25T05:04:38.000Z</time>
      </trkpt>
      <trkpt lat="27.918086" lon="86.80873">
        <ele>4606</ele>
        <time>2022-10-25T05:04:40.000Z</time>
      </trkpt>
      <trkpt lat="27.918106" lon="86.808717">
        <ele>4606.6</ele>
        <time>2022-10-25T05:04:44.000Z</time>
      </trkpt>
      <trkpt lat="27.918112" lon="86.808698">
        <ele>4606.6</ele>
        <time>2022-10-25T05:04:47.000Z</time>
      </trkpt>
      <trkpt lat="27.918128" lon="86.808678">
        <ele>4607.2</ele>
        <time>2022-10-25T05:04:52.000Z</time>
      </trkpt>
      <trkpt lat="27.918147" lon="86.808666">
        <ele>4607.4</ele>
        <time>2022-10-25T05:04:56.000Z</time>
      </trkpt>
      <trkpt lat="27.918182" lon="86.808634">
        <ele>4608.4</ele>
        <time>2022-10-25T05:05:05.000Z</time>
      </trkpt>
      <trkpt lat="27.918189" lon="86.808614">
        <ele>4608.4</ele>
        <time>2022-10-25T05:05:08.000Z</time>
      </trkpt>
      <trkpt lat="27.918205" lon="86.808595">
        <ele>4608.6</ele>
        <time>2022-10-25T05:05:13.000Z</time>
      </trkpt>
      <trkpt lat="27.918227" lon="86.808557">
        <ele>4609.8</ele>
        <time>2022-10-25T05:05:20.000Z</time>
      </trkpt>
      <trkpt lat="27.918237" lon="86.808538">
        <ele>4610.4</ele>
        <time>2022-10-25T05:05:24.000Z</time>
      </trkpt>
      <trkpt lat="27.918246" lon="86.808518">
        <ele>4611</ele>
        <time>2022-10-25T05:05:30.000Z</time>
      </trkpt>
      <trkpt lat="27.918285" lon="86.808474">
        <ele>4613.4</ele>
        <time>2022-10-25T05:06:38.000Z</time>
      </trkpt>
      <trkpt lat="27.918307" lon="86.808454">
        <ele>4613.4</ele>
        <time>2022-10-25T05:06:40.000Z</time>
      </trkpt>
      <trkpt lat="27.918333" lon="86.808448">
        <ele>4613.8</ele>
        <time>2022-10-25T05:06:42.000Z</time>
      </trkpt>
      <trkpt lat="27.918362" lon="86.808435">
        <ele>4614</ele>
        <time>2022-10-25T05:06:44.000Z</time>
      </trkpt>
      <trkpt lat="27.918384" lon="86.808416">
        <ele>4614.6</ele>
        <time>2022-10-25T05:06:46.000Z</time>
      </trkpt>
      <trkpt lat="27.918403" lon="86.808397">
        <ele>4615.6</ele>
        <time>2022-10-25T05:06:50.000Z</time>
      </trkpt>
      <trkpt lat="27.918419" lon="86.808378">
        <ele>4615.8</ele>
        <time>2022-10-25T05:06:53.000Z</time>
      </trkpt>
      <trkpt lat="27.918435" lon="86.808365">
        <ele>4616</ele>
        <time>2022-10-25T05:06:55.000Z</time>
      </trkpt>
      <trkpt lat="27.918451" lon="86.808352">
        <ele>4615.8</ele>
        <time>2022-10-25T05:06:58.000Z</time>
      </trkpt>
      <trkpt lat="27.918474" lon="86.808339">
        <ele>4616</ele>
        <time>2022-10-25T05:07:01.000Z</time>
      </trkpt>
      <trkpt lat="27.918496" lon="86.808326">
        <ele>4615.6</ele>
        <time>2022-10-25T05:07:04.000Z</time>
      </trkpt>
      <trkpt lat="27.918515" lon="86.80832">
        <ele>4615.6</ele>
        <time>2022-10-25T05:07:07.000Z</time>
      </trkpt>
      <trkpt lat="27.918538" lon="86.808314">
        <ele>4614.8</ele>
        <time>2022-10-25T05:07:11.000Z</time>
      </trkpt>
      <trkpt lat="27.918554" lon="86.808301">
        <ele>4615.6</ele>
        <time>2022-10-25T05:07:13.000Z</time>
      </trkpt>
      <trkpt lat="27.918573" lon="86.808288">
        <ele>4615.8</ele>
        <time>2022-10-25T05:07:16.000Z</time>
      </trkpt>
      <trkpt lat="27.918592" lon="86.808282">
        <ele>4615.8</ele>
        <time>2022-10-25T05:07:18.000Z</time>
      </trkpt>
      <trkpt lat="27.918611" lon="86.808275">
        <ele>4615.6</ele>
        <time>2022-10-25T05:07:21.000Z</time>
      </trkpt>
      <trkpt lat="27.918634" lon="86.808256">
        <ele>4615.8</ele>
        <time>2022-10-25T05:07:25.000Z</time>
      </trkpt>
      <trkpt lat="27.918653" lon="86.80825">
        <ele>4615.6</ele>
        <time>2022-10-25T05:07:27.000Z</time>
      </trkpt>
      <trkpt lat="27.918672" lon="86.808243">
        <ele>4616</ele>
        <time>2022-10-25T05:07:30.000Z</time>
      </trkpt>
      <trkpt lat="27.918691" lon="86.808243">
        <ele>4615.8</ele>
        <time>2022-10-25T05:07:33.000Z</time>
      </trkpt>
      <trkpt lat="27.918714" lon="86.808237">
        <ele>4615.2</ele>
        <time>2022-10-25T05:07:59.000Z</time>
      </trkpt>
      <trkpt lat="27.918733" lon="86.80823">
        <ele>4615.2</ele>
        <time>2022-10-25T05:08:01.000Z</time>
      </trkpt>
      <trkpt lat="27.918755" lon="86.808218">
        <ele>4614.8</ele>
        <time>2022-10-25T05:08:03.000Z</time>
      </trkpt>
      <trkpt lat="27.918771" lon="86.808205">
        <ele>4614.8</ele>
        <time>2022-10-25T05:08:04.000Z</time>
      </trkpt>
      <trkpt lat="27.9188" lon="86.808198">
        <ele>4614.8</ele>
        <time>2022-10-25T05:08:06.000Z</time>
      </trkpt>
      <trkpt lat="27.918819" lon="86.808192">
        <ele>4614.6</ele>
        <time>2022-10-25T05:08:08.000Z</time>
      </trkpt>
      <trkpt lat="27.918842" lon="86.808192">
        <ele>4614.6</ele>
        <time>2022-10-25T05:08:10.000Z</time>
      </trkpt>
      <trkpt lat="27.918858" lon="86.808205">
        <ele>4614.6</ele>
        <time>2022-10-25T05:08:14.000Z</time>
      </trkpt>
      <trkpt lat="27.918877" lon="86.808205">
        <ele>4615.4</ele>
        <time>2022-10-25T05:08:17.000Z</time>
      </trkpt>
      <trkpt lat="27.918902" lon="86.808211">
        <ele>4615.6</ele>
        <time>2022-10-25T05:08:20.000Z</time>
      </trkpt>
      <trkpt lat="27.918922" lon="86.808198">
        <ele>4616</ele>
        <time>2022-10-25T05:08:23.000Z</time>
      </trkpt>
      <trkpt lat="27.918944" lon="86.808198">
        <ele>4616</ele>
        <time>2022-10-25T05:08:26.000Z</time>
      </trkpt>
      <trkpt lat="27.918963" lon="86.808192">
        <ele>4616</ele>
        <time>2022-10-25T05:08:29.000Z</time>
      </trkpt>
      <trkpt lat="27.918979" lon="86.808179">
        <ele>4615.4</ele>
        <time>2022-10-25T05:08:31.000Z</time>
      </trkpt>
      <trkpt lat="27.919002" lon="86.808179">
        <ele>4615</ele>
        <time>2022-10-25T05:08:34.000Z</time>
      </trkpt>
      <trkpt lat="27.919021" lon="86.808173">
        <ele>4615</ele>
        <time>2022-10-25T05:08:36.000Z</time>
      </trkpt>
      <trkpt lat="27.919046" lon="86.808166">
        <ele>4615</ele>
        <time>2022-10-25T05:08:39.000Z</time>
      </trkpt>
      <trkpt lat="27.919069" lon="86.808166">
        <ele>4614.6</ele>
        <time>2022-10-25T05:08:41.000Z</time>
      </trkpt>
      <trkpt lat="27.919088" lon="86.808166">
        <ele>4614.6</ele>
        <time>2022-10-25T05:08:43.000Z</time>
      </trkpt>
      <trkpt lat="27.919107" lon="86.808166">
        <ele>4614.4</ele>
        <time>2022-10-25T05:08:45.000Z</time>
      </trkpt>
      <trkpt lat="27.919126" lon="86.808166">
        <ele>4614.4</ele>
        <time>2022-10-25T05:08:47.000Z</time>
      </trkpt>
      <trkpt lat="27.919146" lon="86.808166">
        <ele>4614.4</ele>
        <time>2022-10-25T05:08:49.000Z</time>
      </trkpt>
      <trkpt lat="27.919165" lon="86.80816">
        <ele>4614.4</ele>
        <time>2022-10-25T05:08:51.000Z</time>
      </trkpt>
      <trkpt lat="27.919187" lon="86.80816">
        <ele>4614.4</ele>
        <time>2022-10-25T05:08:53.000Z</time>
      </trkpt>
      <trkpt lat="27.91921" lon="86.80816">
        <ele>4614.2</ele>
        <time>2022-10-25T05:08:55.000Z</time>
      </trkpt>
      <trkpt lat="27.919232" lon="86.80816">
        <ele>4614.8</ele>
        <time>2022-10-25T05:08:58.000Z</time>
      </trkpt>
      <trkpt lat="27.919261" lon="86.80816">
        <ele>4614.8</ele>
        <time>2022-10-25T05:09:01.000Z</time>
      </trkpt>
      <trkpt lat="27.91928" lon="86.808154">
        <ele>4614.2</ele>
        <time>2022-10-25T05:09:03.000Z</time>
      </trkpt>
      <trkpt lat="27.919299" lon="86.808154">
        <ele>4613.4</ele>
        <time>2022-10-25T05:09:05.000Z</time>
      </trkpt>
      <trkpt lat="27.919318" lon="86.808141">
        <ele>4613.4</ele>
        <time>2022-10-25T05:09:07.000Z</time>
      </trkpt>
      <trkpt lat="27.919341" lon="86.808141">
        <ele>4613.4</ele>
        <time>2022-10-25T05:09:09.000Z</time>
      </trkpt>
      <trkpt lat="27.919366" lon="86.808134">
        <ele>4613.2</ele>
        <time>2022-10-25T05:09:12.000Z</time>
      </trkpt>
      <trkpt lat="27.919389" lon="86.808134">
        <ele>4613.2</ele>
        <time>2022-10-25T05:09:14.000Z</time>
      </trkpt>
      <trkpt lat="27.919414" lon="86.808128">
        <ele>4612.8</ele>
        <time>2022-10-25T05:09:16.000Z</time>
      </trkpt>
      <trkpt lat="27.919437" lon="86.808122">
        <ele>4612.8</ele>
        <time>2022-10-25T05:09:18.000Z</time>
      </trkpt>
      <trkpt lat="27.919456" lon="86.808122">
        <ele>4612.6</ele>
        <time>2022-10-25T05:09:21.000Z</time>
      </trkpt>
      <trkpt lat="27.919475" lon="86.808115">
        <ele>4612.4</ele>
        <time>2022-10-25T05:09:28.000Z</time>
      </trkpt>
      <trkpt lat="27.919494" lon="86.808102">
        <ele>4612.4</ele>
        <time>2022-10-25T05:09:32.000Z</time>
      </trkpt>
      <trkpt lat="27.919514" lon="86.808102">
        <ele>4612.2</ele>
        <time>2022-10-25T05:09:53.000Z</time>
      </trkpt>
      <trkpt lat="27.919546" lon="86.808102">
        <ele>4611.8</ele>
        <time>2022-10-25T05:09:55.000Z</time>
      </trkpt>
      <trkpt lat="27.919574" lon="86.808096">
        <ele>4611.6</ele>
        <time>2022-10-25T05:09:57.000Z</time>
      </trkpt>
      <trkpt lat="27.919606" lon="86.80809">
        <ele>4611.6</ele>
        <time>2022-10-25T05:09:59.000Z</time>
      </trkpt>
      <trkpt lat="27.919635" lon="86.808083">
        <ele>4611</ele>
        <time>2022-10-25T05:10:01.000Z</time>
      </trkpt>
      <trkpt lat="27.919658" lon="86.808077">
        <ele>4610.8</ele>
        <time>2022-10-25T05:10:03.000Z</time>
      </trkpt>
      <trkpt lat="27.919677" lon="86.80807">
        <ele>4610.4</ele>
        <time>2022-10-25T05:10:05.000Z</time>
      </trkpt>
      <trkpt lat="27.919702" lon="86.80807">
        <ele>4610</ele>
        <time>2022-10-25T05:10:08.000Z</time>
      </trkpt>
      <trkpt lat="27.919718" lon="86.808058">
        <ele>4610</ele>
        <time>2022-10-25T05:10:10.000Z</time>
      </trkpt>
      <trkpt lat="27.919738" lon="86.808058">
        <ele>4610</ele>
        <time>2022-10-25T05:10:12.000Z</time>
      </trkpt>
      <trkpt lat="27.919757" lon="86.808058">
        <ele>4609.8</ele>
        <time>2022-10-25T05:10:14.000Z</time>
      </trkpt>
      <trkpt lat="27.919776" lon="86.808058">
        <ele>4609.6</ele>
        <time>2022-10-25T05:10:16.000Z</time>
      </trkpt>
      <trkpt lat="27.919795" lon="86.808058">
        <ele>4609.6</ele>
        <time>2022-10-25T05:10:18.000Z</time>
      </trkpt>
      <trkpt lat="27.919814" lon="86.80807">
        <ele>4609.4</ele>
        <time>2022-10-25T05:10:21.000Z</time>
      </trkpt>
      <trkpt lat="27.919834" lon="86.80807">
        <ele>4609.6</ele>
        <time>2022-10-25T05:10:24.000Z</time>
      </trkpt>
      <trkpt lat="27.91985" lon="86.808058">
        <ele>4610</ele>
        <time>2022-10-25T05:10:26.000Z</time>
      </trkpt>
      <trkpt lat="27.919875" lon="86.808058">
        <ele>4610</ele>
        <time>2022-10-25T05:10:29.000Z</time>
      </trkpt>
      <trkpt lat="27.919894" lon="86.808058">
        <ele>4609.6</ele>
        <time>2022-10-25T05:10:31.000Z</time>
      </trkpt>
      <trkpt lat="27.919914" lon="86.808051">
        <ele>4610</ele>
        <time>2022-10-25T05:10:34.000Z</time>
      </trkpt>
      <trkpt lat="27.919933" lon="86.808058">
        <ele>4610</ele>
        <time>2022-10-25T05:10:36.000Z</time>
      </trkpt>
      <trkpt lat="27.919955" lon="86.808051">
        <ele>4610.2</ele>
        <time>2022-10-25T05:10:39.000Z</time>
      </trkpt>
      <trkpt lat="27.919974" lon="86.808051">
        <ele>4610.2</ele>
        <time>2022-10-25T05:10:42.000Z</time>
      </trkpt>
      <trkpt lat="27.919994" lon="86.808045">
        <ele>4610.6</ele>
        <time>2022-10-25T05:10:45.000Z</time>
      </trkpt>
      <trkpt lat="27.920013" lon="86.808045">
        <ele>4610.8</ele>
        <time>2022-10-25T05:10:47.000Z</time>
      </trkpt>
      <trkpt lat="27.920035" lon="86.808045">
        <ele>4611.4</ele>
        <time>2022-10-25T05:10:50.000Z</time>
      </trkpt>
      <trkpt lat="27.920054" lon="86.808045">
        <ele>4611.4</ele>
        <time>2022-10-25T05:10:52.000Z</time>
      </trkpt>
      <trkpt lat="27.920074" lon="86.808045">
        <ele>4611.4</ele>
        <time>2022-10-25T05:10:55.000Z</time>
      </trkpt>
      <trkpt lat="27.920096" lon="86.808045">
        <ele>4611.6</ele>
        <time>2022-10-25T05:10:58.000Z</time>
      </trkpt>
      <trkpt lat="27.920118" lon="86.808038">
        <ele>4611.8</ele>
        <time>2022-10-25T05:11:01.000Z</time>
      </trkpt>
      <trkpt lat="27.920138" lon="86.808038">
        <ele>4612.2</ele>
        <time>2022-10-25T05:11:05.000Z</time>
      </trkpt>
      <trkpt lat="27.92016" lon="86.808032">
        <ele>4612.4</ele>
        <time>2022-10-25T05:11:08.000Z</time>
      </trkpt>
      <trkpt lat="27.920186" lon="86.808038">
        <ele>4613</ele>
        <time>2022-10-25T05:11:11.000Z</time>
      </trkpt>
      <trkpt lat="27.920208" lon="86.808032">
        <ele>4613</ele>
        <time>2022-10-25T05:11:14.000Z</time>
      </trkpt>
      <trkpt lat="27.92023" lon="86.808032">
        <ele>4613</ele>
        <time>2022-10-25T05:11:17.000Z</time>
      </trkpt>
      <trkpt lat="27.92025" lon="86.808019">
        <ele>4613.2</ele>
        <time>2022-10-25T05:11:20.000Z</time>
      </trkpt>
      <trkpt lat="27.920272" lon="86.808006">
        <ele>4613.4</ele>
        <time>2022-10-25T05:11:24.000Z</time>
      </trkpt>
      <trkpt lat="27.920291" lon="86.808006">
        <ele>4614.6</ele>
        <time>2022-10-25T05:11:27.000Z</time>
      </trkpt>
      <trkpt lat="27.92031" lon="86.808006">
        <ele>4614.6</ele>
        <time>2022-10-25T05:11:30.000Z</time>
      </trkpt>
      <trkpt lat="27.92033" lon="86.808">
        <ele>4614.8</ele>
        <time>2022-10-25T05:11:34.000Z</time>
      </trkpt>
      <trkpt lat="27.920352" lon="86.807981">
        <ele>4614</ele>
        <time>2022-10-25T05:11:38.000Z</time>
      </trkpt>
      <trkpt lat="27.920374" lon="86.807974">
        <ele>4614</ele>
        <time>2022-10-25T05:11:41.000Z</time>
      </trkpt>
      <trkpt lat="27.920394" lon="86.807968">
        <ele>4613.4</ele>
        <time>2022-10-25T05:11:43.000Z</time>
      </trkpt>
      <trkpt lat="27.920419" lon="86.807962">
        <ele>4613.2</ele>
        <time>2022-10-25T05:11:46.000Z</time>
      </trkpt>
      <trkpt lat="27.920442" lon="86.807955">
        <ele>4613</ele>
        <time>2022-10-25T05:11:49.000Z</time>
      </trkpt>
      <trkpt lat="27.920461" lon="86.807955">
        <ele>4613</ele>
        <time>2022-10-25T05:11:52.000Z</time>
      </trkpt>
      <trkpt lat="27.92048" lon="86.807942">
        <ele>4613.8</ele>
        <time>2022-10-25T05:11:55.000Z</time>
      </trkpt>
      <trkpt lat="27.920502" lon="86.807936">
        <ele>4613.8</ele>
        <time>2022-10-25T05:11:58.000Z</time>
      </trkpt>
      <trkpt lat="27.920525" lon="86.807936">
        <ele>4613.6</ele>
        <time>2022-10-25T05:12:01.000Z</time>
      </trkpt>
      <trkpt lat="27.920547" lon="86.80793">
        <ele>4613.6</ele>
        <time>2022-10-25T05:12:04.000Z</time>
      </trkpt>
      <trkpt lat="27.920573" lon="86.80793">
        <ele>4613</ele>
        <time>2022-10-25T05:12:08.000Z</time>
      </trkpt>
      <trkpt lat="27.920598" lon="86.807923">
        <ele>4613</ele>
        <time>2022-10-25T05:12:11.000Z</time>
      </trkpt>
      <trkpt lat="27.920624" lon="86.807917">
        <ele>4613.6</ele>
        <time>2022-10-25T05:12:14.000Z</time>
      </trkpt>
      <trkpt lat="27.92064" lon="86.807904">
        <ele>4614</ele>
        <time>2022-10-25T05:12:17.000Z</time>
      </trkpt>
      <trkpt lat="27.920662" lon="86.807891">
        <ele>4614</ele>
        <time>2022-10-25T05:12:21.000Z</time>
      </trkpt>
      <trkpt lat="27.920691" lon="86.807885">
        <ele>4612.8</ele>
        <time>2022-10-25T05:12:25.000Z</time>
      </trkpt>
      <trkpt lat="27.920717" lon="86.807885">
        <ele>4612.4</ele>
        <time>2022-10-25T05:12:28.000Z</time>
      </trkpt>
      <trkpt lat="27.920739" lon="86.807878">
        <ele>4612.2</ele>
        <time>2022-10-25T05:12:31.000Z</time>
      </trkpt>
      <trkpt lat="27.920758" lon="86.807878">
        <ele>4612</ele>
        <time>2022-10-25T05:12:33.000Z</time>
      </trkpt>
      <trkpt lat="27.920778" lon="86.807891">
        <ele>4611.8</ele>
        <time>2022-10-25T05:12:36.000Z</time>
      </trkpt>
      <trkpt lat="27.9208" lon="86.807904">
        <ele>4611.2</ele>
        <time>2022-10-25T05:12:39.000Z</time>
      </trkpt>
      <trkpt lat="27.920816" lon="86.807917">
        <ele>4611.8</ele>
        <time>2022-10-25T05:12:42.000Z</time>
      </trkpt>
      <trkpt lat="27.920835" lon="86.807923">
        <ele>4612</ele>
        <time>2022-10-25T05:12:56.000Z</time>
      </trkpt>
      <trkpt lat="27.920851" lon="86.807936">
        <ele>4612</ele>
        <time>2022-10-25T05:12:59.000Z</time>
      </trkpt>
      <trkpt lat="27.920864" lon="86.807955">
        <ele>4611.8</ele>
        <time>2022-10-25T05:13:01.000Z</time>
      </trkpt>
      <trkpt lat="27.920883" lon="86.807942">
        <ele>4611.8</ele>
        <time>2022-10-25T05:13:03.000Z</time>
      </trkpt>
      <trkpt lat="27.92089" lon="86.807923">
        <ele>4611</ele>
        <time>2022-10-25T05:13:07.000Z</time>
      </trkpt>
      <trkpt lat="27.920909" lon="86.807904">
        <ele>4611.2</ele>
        <time>2022-10-25T05:13:09.000Z</time>
      </trkpt>
      <trkpt lat="27.920931" lon="86.807898">
        <ele>4611</ele>
        <time>2022-10-25T05:13:12.000Z</time>
      </trkpt>
      <trkpt lat="27.92095" lon="86.807891">
        <ele>4610.4</ele>
        <time>2022-10-25T05:13:15.000Z</time>
      </trkpt>
      <trkpt lat="27.92097" lon="86.807885">
        <ele>4610.2</ele>
        <time>2022-10-25T05:13:18.000Z</time>
      </trkpt>
      <trkpt lat="27.920992" lon="86.807878">
        <ele>4609.6</ele>
        <time>2022-10-25T05:13:24.000Z</time>
      </trkpt>
      <trkpt lat="27.921021" lon="86.807859">
        <ele>4609.4</ele>
        <time>2022-10-25T05:13:27.000Z</time>
      </trkpt>
      <trkpt lat="27.92104" lon="86.807853">
        <ele>4609</ele>
        <time>2022-10-25T05:13:30.000Z</time>
      </trkpt>
      <trkpt lat="27.921059" lon="86.807846">
        <ele>4608.6</ele>
        <time>2022-10-25T05:13:32.000Z</time>
      </trkpt>
      <trkpt lat="27.921075" lon="86.807834">
        <ele>4608.2</ele>
        <time>2022-10-25T05:13:34.000Z</time>
      </trkpt>
      <trkpt lat="27.921104" lon="86.807821">
        <ele>4607.8</ele>
        <time>2022-10-25T05:13:37.000Z</time>
      </trkpt>
      <trkpt lat="27.92113" lon="86.807821">
        <ele>4607.8</ele>
        <time>2022-10-25T05:13:40.000Z</time>
      </trkpt>
      <trkpt lat="27.921149" lon="86.807814">
        <ele>4607.4</ele>
        <time>2022-10-25T05:13:42.000Z</time>
      </trkpt>
      <trkpt lat="27.921168" lon="86.807814">
        <ele>4607.8</ele>
        <time>2022-10-25T05:13:44.000Z</time>
      </trkpt>
      <trkpt lat="27.921187" lon="86.807808">
        <ele>4607.4</ele>
        <time>2022-10-25T05:13:47.000Z</time>
      </trkpt>
      <trkpt lat="27.921206" lon="86.807808">
        <ele>4607</ele>
        <time>2022-10-25T05:13:51.000Z</time>
      </trkpt>
      <trkpt lat="27.921229" lon="86.807821">
        <ele>4607.4</ele>
        <time>2022-10-25T05:15:36.000Z</time>
      </trkpt>
      <trkpt lat="27.921261" lon="86.807821">
        <ele>4606.8</ele>
        <time>2022-10-25T05:15:38.000Z</time>
      </trkpt>
      <trkpt lat="27.921293" lon="86.807821">
        <ele>4607.2</ele>
        <time>2022-10-25T05:15:40.000Z</time>
      </trkpt>
      <trkpt lat="27.921322" lon="86.807821">
        <ele>4607.6</ele>
        <time>2022-10-25T05:15:42.000Z</time>
      </trkpt>
      <trkpt lat="27.921344" lon="86.807821">
        <ele>4607.8</ele>
        <time>2022-10-25T05:15:44.000Z</time>
      </trkpt>
      <trkpt lat="27.921363" lon="86.807821">
        <ele>4607.8</ele>
        <time>2022-10-25T05:15:47.000Z</time>
      </trkpt>
      <trkpt lat="27.921386" lon="86.807814">
        <ele>4607.8</ele>
        <time>2022-10-25T05:15:50.000Z</time>
      </trkpt>
      <trkpt lat="27.921405" lon="86.807808">
        <ele>4607.4</ele>
        <time>2022-10-25T05:15:53.000Z</time>
      </trkpt>
      <trkpt lat="27.921434" lon="86.807808">
        <ele>4606.8</ele>
        <time>2022-10-25T05:15:56.000Z</time>
      </trkpt>
      <trkpt lat="27.921453" lon="86.807814">
        <ele>4606.6</ele>
        <time>2022-10-25T05:15:58.000Z</time>
      </trkpt>
      <trkpt lat="27.921469" lon="86.807834">
        <ele>4607</ele>
        <time>2022-10-25T05:16:01.000Z</time>
      </trkpt>
      <trkpt lat="27.921485" lon="86.807821">
        <ele>4607</ele>
        <time>2022-10-25T05:16:04.000Z</time>
      </trkpt>
      <trkpt lat="27.921507" lon="86.807814">
        <ele>4606.2</ele>
        <time>2022-10-25T05:16:07.000Z</time>
      </trkpt>
      <trkpt lat="27.921526" lon="86.807814">
        <ele>4606</ele>
        <time>2022-10-25T05:16:09.000Z</time>
      </trkpt>
      <trkpt lat="27.921552" lon="86.807808">
        <ele>4605.6</ele>
        <time>2022-10-25T05:16:12.000Z</time>
      </trkpt>
      <trkpt lat="27.921574" lon="86.807808">
        <ele>4605.6</ele>
        <time>2022-10-25T05:16:14.000Z</time>
      </trkpt>
      <trkpt lat="27.9216" lon="86.807802">
        <ele>4605.4</ele>
        <time>2022-10-25T05:16:17.000Z</time>
      </trkpt>
      <trkpt lat="27.921626" lon="86.807802">
        <ele>4605</ele>
        <time>2022-10-25T05:16:20.000Z</time>
      </trkpt>
      <trkpt lat="27.921648" lon="86.807802">
        <ele>4605</ele>
        <time>2022-10-25T05:16:23.000Z</time>
      </trkpt>
      <trkpt lat="27.921674" lon="86.807795">
        <ele>4604.6</ele>
        <time>2022-10-25T05:16:26.000Z</time>
      </trkpt>
      <trkpt lat="27.92169" lon="86.807782">
        <ele>4605</ele>
        <time>2022-10-25T05:16:28.000Z</time>
      </trkpt>
      <trkpt lat="27.921715" lon="86.807782">
        <ele>4605</ele>
        <time>2022-10-25T05:16:31.000Z</time>
      </trkpt>
      <trkpt lat="27.921731" lon="86.807795">
        <ele>4604.6</ele>
        <time>2022-10-25T05:16:33.000Z</time>
      </trkpt>
      <trkpt lat="27.921754" lon="86.807795">
        <ele>4605.4</ele>
        <time>2022-10-25T05:16:36.000Z</time>
      </trkpt>
      <trkpt lat="27.92177" lon="86.807782">
        <ele>4605.4</ele>
        <time>2022-10-25T05:16:38.000Z</time>
      </trkpt>
      <trkpt lat="27.921789" lon="86.807776">
        <ele>4605.4</ele>
        <time>2022-10-25T05:16:41.000Z</time>
      </trkpt>
      <trkpt lat="27.921814" lon="86.80777">
        <ele>4604.6</ele>
        <time>2022-10-25T05:16:44.000Z</time>
      </trkpt>
      <trkpt lat="27.921837" lon="86.80777">
        <ele>4604.6</ele>
        <time>2022-10-25T05:16:47.000Z</time>
      </trkpt>
      <trkpt lat="27.921859" lon="86.807763">
        <ele>4604.6</ele>
        <time>2022-10-25T05:16:50.000Z</time>
      </trkpt>
      <trkpt lat="27.921878" lon="86.807763">
        <ele>4604.6</ele>
        <time>2022-10-25T05:16:52.000Z</time>
      </trkpt>
      <trkpt lat="27.921901" lon="86.807763">
        <ele>4605</ele>
        <time>2022-10-25T05:16:56.000Z</time>
      </trkpt>
      <trkpt lat="27.92192" lon="86.807776">
        <ele>4605.4</ele>
        <time>2022-10-25T05:16:59.000Z</time>
      </trkpt>
      <trkpt lat="27.921942" lon="86.807782">
        <ele>4606.2</ele>
        <time>2022-10-25T05:17:03.000Z</time>
      </trkpt>
      <trkpt lat="27.921962" lon="86.807782">
        <ele>4606.8</ele>
        <time>2022-10-25T05:17:06.000Z</time>
      </trkpt>
      <trkpt lat="27.921984" lon="86.807782">
        <ele>4606.2</ele>
        <time>2022-10-25T05:17:09.000Z</time>
      </trkpt>
      <trkpt lat="27.922003" lon="86.807776">
        <ele>4606.2</ele>
        <time>2022-10-25T05:17:12.000Z</time>
      </trkpt>
      <trkpt lat="27.922022" lon="86.807763">
        <ele>4605.8</ele>
        <time>2022-10-25T05:17:15.000Z</time>
      </trkpt>
      <trkpt lat="27.922048" lon="86.807763">
        <ele>4605.6</ele>
        <time>2022-10-25T05:17:18.000Z</time>
      </trkpt>
      <trkpt lat="27.922067" lon="86.807763">
        <ele>4605</ele>
        <time>2022-10-25T05:17:21.000Z</time>
      </trkpt>
      <trkpt lat="27.92209" lon="86.807757">
        <ele>4604.8</ele>
        <time>2022-10-25T05:17:24.000Z</time>
      </trkpt>
      <trkpt lat="27.922112" lon="86.807757">
        <ele>4604.2</ele>
        <time>2022-10-25T05:17:27.000Z</time>
      </trkpt>
      <trkpt lat="27.922134" lon="86.807757">
        <ele>4604.2</ele>
        <time>2022-10-25T05:17:30.000Z</time>
      </trkpt>
      <trkpt lat="27.922157" lon="86.807744">
        <ele>4604.4</ele>
        <time>2022-10-25T05:17:32.000Z</time>
      </trkpt>
      <trkpt lat="27.922179" lon="86.807757">
        <ele>4604.2</ele>
        <time>2022-10-25T05:17:35.000Z</time>
      </trkpt>
      <trkpt lat="27.922189" lon="86.807776">
        <ele>4605.6</ele>
        <time>2022-10-25T05:17:47.000Z</time>
      </trkpt>
      <trkpt lat="27.922205" lon="86.807763">
        <ele>4606.2</ele>
        <time>2022-10-25T05:18:38.000Z</time>
      </trkpt>
      <trkpt lat="27.922214" lon="86.807744">
        <ele>4606.2</ele>
        <time>2022-10-25T05:18:39.000Z</time>
      </trkpt>
      <trkpt lat="27.922237" lon="86.807725">
        <ele>4606.2</ele>
        <time>2022-10-25T05:18:41.000Z</time>
      </trkpt>
      <trkpt lat="27.922259" lon="86.807706">
        <ele>4606.6</ele>
        <time>2022-10-25T05:18:43.000Z</time>
      </trkpt>
      <trkpt lat="27.922278" lon="86.807686">
        <ele>4607.4</ele>
        <time>2022-10-25T05:18:45.000Z</time>
      </trkpt>
      <trkpt lat="27.922291" lon="86.807661">
        <ele>4607</ele>
        <time>2022-10-25T05:18:47.000Z</time>
      </trkpt>
      <trkpt lat="27.922298" lon="86.807642">
        <ele>4607.2</ele>
        <time>2022-10-25T05:18:51.000Z</time>
      </trkpt>
      <trkpt lat="27.92231" lon="86.807622">
        <ele>4607.4</ele>
        <time>2022-10-25T05:18:54.000Z</time>
      </trkpt>
      <trkpt lat="27.922326" lon="86.80761">
        <ele>4607.6</ele>
        <time>2022-10-25T05:18:56.000Z</time>
      </trkpt>
      <trkpt lat="27.922346" lon="86.80761">
        <ele>4608</ele>
        <time>2022-10-25T05:18:59.000Z</time>
      </trkpt>
      <trkpt lat="27.922365" lon="86.807597">
        <ele>4607.4</ele>
        <time>2022-10-25T05:19:03.000Z</time>
      </trkpt>
      <trkpt lat="27.922381" lon="86.807584">
        <ele>4607.2</ele>
        <time>2022-10-25T05:19:05.000Z</time>
      </trkpt>
      <trkpt lat="27.922403" lon="86.807578">
        <ele>4607.2</ele>
        <time>2022-10-25T05:19:13.000Z</time>
      </trkpt>
      <trkpt lat="27.922426" lon="86.807571">
        <ele>4607</ele>
        <time>2022-10-25T05:19:15.000Z</time>
      </trkpt>
      <trkpt lat="27.922445" lon="86.807571">
        <ele>4606.6</ele>
        <time>2022-10-25T05:19:17.000Z</time>
      </trkpt>
      <trkpt lat="27.922464" lon="86.807565">
        <ele>4606.8</ele>
        <time>2022-10-25T05:19:19.000Z</time>
      </trkpt>
      <trkpt lat="27.922486" lon="86.807558">
        <ele>4607</ele>
        <time>2022-10-25T05:19:23.000Z</time>
      </trkpt>
      <trkpt lat="27.922496" lon="86.807539">
        <ele>4607</ele>
        <time>2022-10-25T05:19:25.000Z</time>
      </trkpt>
      <trkpt lat="27.922515" lon="86.80752">
        <ele>4607</ele>
        <time>2022-10-25T05:19:28.000Z</time>
      </trkpt>
      <trkpt lat="27.922538" lon="86.807507">
        <ele>4607.8</ele>
        <time>2022-10-25T05:19:31.000Z</time>
      </trkpt>
      <trkpt lat="27.922557" lon="86.807501">
        <ele>4607.8</ele>
        <time>2022-10-25T05:19:33.000Z</time>
      </trkpt>
      <trkpt lat="27.922579" lon="86.807494">
        <ele>4607.8</ele>
        <time>2022-10-25T05:19:35.000Z</time>
      </trkpt>
      <trkpt lat="27.922598" lon="86.807494">
        <ele>4607.6</ele>
        <time>2022-10-25T05:19:37.000Z</time>
      </trkpt>
      <trkpt lat="27.922618" lon="86.807494">
        <ele>4607.2</ele>
        <time>2022-10-25T05:19:39.000Z</time>
      </trkpt>
      <trkpt lat="27.922643" lon="86.807494">
        <ele>4607.8</ele>
        <time>2022-10-25T05:19:42.000Z</time>
      </trkpt>
      <trkpt lat="27.922666" lon="86.807488">
        <ele>4607.8</ele>
        <time>2022-10-25T05:19:45.000Z</time>
      </trkpt>
      <trkpt lat="27.922688" lon="86.807488">
        <ele>4608.4</ele>
        <time>2022-10-25T05:19:48.000Z</time>
      </trkpt>
      <trkpt lat="27.922714" lon="86.807482">
        <ele>4608.6</ele>
        <time>2022-10-25T05:19:51.000Z</time>
      </trkpt>
      <trkpt lat="27.922736" lon="86.807475">
        <ele>4608.6</ele>
        <time>2022-10-25T05:19:54.000Z</time>
      </trkpt>
      <trkpt lat="27.922752" lon="86.807462">
        <ele>4608.8</ele>
        <time>2022-10-25T05:19:57.000Z</time>
      </trkpt>
      <trkpt lat="27.922778" lon="86.807456">
        <ele>4608.4</ele>
        <time>2022-10-25T05:20:00.000Z</time>
      </trkpt>
      <trkpt lat="27.922797" lon="86.807443">
        <ele>4608</ele>
        <time>2022-10-25T05:20:03.000Z</time>
      </trkpt>
      <trkpt lat="27.922819" lon="86.807437">
        <ele>4608</ele>
        <time>2022-10-25T05:20:06.000Z</time>
      </trkpt>
      <trkpt lat="27.922835" lon="86.807418">
        <ele>4608</ele>
        <time>2022-10-25T05:20:09.000Z</time>
      </trkpt>
      <trkpt lat="27.922854" lon="86.807411">
        <ele>4608.8</ele>
        <time>2022-10-25T05:20:13.000Z</time>
      </trkpt>
      <trkpt lat="27.922874" lon="86.807405">
        <ele>4608.8</ele>
        <time>2022-10-25T05:20:16.000Z</time>
      </trkpt>
      <trkpt lat="27.922896" lon="86.807405">
        <ele>4608.6</ele>
        <time>2022-10-25T05:20:19.000Z</time>
      </trkpt>
      <trkpt lat="27.922915" lon="86.807418">
        <ele>4608.8</ele>
        <time>2022-10-25T05:20:24.000Z</time>
      </trkpt>
      <trkpt lat="27.922941" lon="86.807418">
        <ele>4609.6</ele>
        <time>2022-10-25T05:20:28.000Z</time>
      </trkpt>
      <trkpt lat="27.92296" lon="86.807424">
        <ele>4610.2</ele>
        <time>2022-10-25T05:20:32.000Z</time>
      </trkpt>
      <trkpt lat="27.922982" lon="86.807424">
        <ele>4610.8</ele>
        <time>2022-10-25T05:20:37.000Z</time>
      </trkpt>
      <trkpt lat="27.923005" lon="86.807424">
        <ele>4610.2</ele>
        <time>2022-10-25T05:20:40.000Z</time>
      </trkpt>
      <trkpt lat="27.923021" lon="86.807411">
        <ele>4610.6</ele>
        <time>2022-10-25T05:20:42.000Z</time>
      </trkpt>
      <trkpt lat="27.923043" lon="86.807405">
        <ele>4610.8</ele>
        <time>2022-10-25T05:20:45.000Z</time>
      </trkpt>
      <trkpt lat="27.923062" lon="86.807398">
        <ele>4611</ele>
        <time>2022-10-25T05:20:47.000Z</time>
      </trkpt>
      <trkpt lat="27.923082" lon="86.807398">
        <ele>4611</ele>
        <time>2022-10-25T05:20:49.000Z</time>
      </trkpt>
      <trkpt lat="27.923101" lon="86.807398">
        <ele>4611.4</ele>
        <time>2022-10-25T05:20:52.000Z</time>
      </trkpt>
      <trkpt lat="27.92312" lon="86.807398">
        <ele>4611.4</ele>
        <time>2022-10-25T05:20:55.000Z</time>
      </trkpt>
      <trkpt lat="27.923136" lon="86.807386">
        <ele>4612</ele>
        <time>2022-10-25T05:20:58.000Z</time>
      </trkpt>
      <trkpt lat="27.923152" lon="86.807373">
        <ele>4611.8</ele>
        <time>2022-10-25T05:21:01.000Z</time>
      </trkpt>
      <trkpt lat="27.923174" lon="86.807366">
        <ele>4611.2</ele>
        <time>2022-10-25T05:21:04.000Z</time>
      </trkpt>
      <trkpt lat="27.92319" lon="86.807347">
        <ele>4611.2</ele>
        <time>2022-10-25T05:21:07.000Z</time>
      </trkpt>
      <trkpt lat="27.923213" lon="86.807341">
        <ele>4611.6</ele>
        <time>2022-10-25T05:21:24.000Z</time>
      </trkpt>
      <trkpt lat="27.923235" lon="86.807328">
        <ele>4611.6</ele>
        <time>2022-10-25T05:21:26.000Z</time>
      </trkpt>
      <trkpt lat="27.923258" lon="86.807315">
        <ele>4611.8</ele>
        <time>2022-10-25T05:21:28.000Z</time>
      </trkpt>
      <trkpt lat="27.92327" lon="86.807283">
        <ele>4611.8</ele>
        <time>2022-10-25T05:21:30.000Z</time>
      </trkpt>
      <trkpt lat="27.92328" lon="86.807264">
        <ele>4611.8</ele>
        <time>2022-10-25T05:21:31.000Z</time>
      </trkpt>
      <trkpt lat="27.923299" lon="86.807258">
        <ele>4612.2</ele>
        <time>2022-10-25T05:21:33.000Z</time>
      </trkpt>
      <trkpt lat="27.923318" lon="86.807251">
        <ele>4612.4</ele>
        <time>2022-10-25T05:21:35.000Z</time>
      </trkpt>
      <trkpt lat="27.923341" lon="86.807258">
        <ele>4612.2</ele>
        <time>2022-10-25T05:21:38.000Z</time>
      </trkpt>
      <trkpt lat="27.923354" lon="86.807277">
        <ele>4612.2</ele>
        <time>2022-10-25T05:21:40.000Z</time>
      </trkpt>
      <trkpt lat="27.923376" lon="86.807264">
        <ele>4611.6</ele>
        <time>2022-10-25T05:21:42.000Z</time>
      </trkpt>
      <trkpt lat="27.923398" lon="86.807264">
        <ele>4611.4</ele>
        <time>2022-10-25T05:21:45.000Z</time>
      </trkpt>
      <trkpt lat="27.923424" lon="86.807264">
        <ele>4610.6</ele>
        <time>2022-10-25T05:21:48.000Z</time>
      </trkpt>
      <trkpt lat="27.92345" lon="86.807251">
        <ele>4610.6</ele>
        <time>2022-10-25T05:21:51.000Z</time>
      </trkpt>
      <trkpt lat="27.923469" lon="86.807245">
        <ele>4610.4</ele>
        <time>2022-10-25T05:21:53.000Z</time>
      </trkpt>
      <trkpt lat="27.923491" lon="86.807251">
        <ele>4610.4</ele>
        <time>2022-10-25T05:21:56.000Z</time>
      </trkpt>
      <trkpt lat="27.92351" lon="86.807245">
        <ele>4610</ele>
        <time>2022-10-25T05:21:58.000Z</time>
      </trkpt>
      <trkpt lat="27.923533" lon="86.807245">
        <ele>4610</ele>
        <time>2022-10-25T05:22:01.000Z</time>
      </trkpt>
      <trkpt lat="27.923558" lon="86.807245">
        <ele>4609.8</ele>
        <time>2022-10-25T05:22:04.000Z</time>
      </trkpt>
      <trkpt lat="27.923584" lon="86.807251">
        <ele>4609.8</ele>
        <time>2022-10-25T05:22:07.000Z</time>
      </trkpt>
      <trkpt lat="27.923606" lon="86.807251">
        <ele>4609.6</ele>
        <time>2022-10-25T05:22:10.000Z</time>
      </trkpt>
      <trkpt lat="27.923626" lon="86.807245">
        <ele>4609.2</ele>
        <time>2022-10-25T05:22:12.000Z</time>
      </trkpt>
      <trkpt lat="27.923651" lon="86.807238">
        <ele>4609.6</ele>
        <time>2022-10-25T05:22:15.000Z</time>
      </trkpt>
      <trkpt lat="27.923677" lon="86.807219">
        <ele>4609.4</ele>
        <time>2022-10-25T05:22:17.000Z</time>
      </trkpt>
      <trkpt lat="27.923696" lon="86.807219">
        <ele>4609.4</ele>
        <time>2022-10-25T05:22:19.000Z</time>
      </trkpt>
      <trkpt lat="27.923715" lon="86.807213">
        <ele>4609.4</ele>
        <time>2022-10-25T05:22:21.000Z</time>
      </trkpt>
      <trkpt lat="27.923734" lon="86.807219">
        <ele>4609.4</ele>
        <time>2022-10-25T05:22:23.000Z</time>
      </trkpt>
      <trkpt lat="27.923757" lon="86.807226">
        <ele>4609.4</ele>
        <time>2022-10-25T05:22:25.000Z</time>
      </trkpt>
      <trkpt lat="27.923782" lon="86.807219">
        <ele>4609.4</ele>
        <time>2022-10-25T05:22:28.000Z</time>
      </trkpt>
      <trkpt lat="27.923805" lon="86.807219">
        <ele>4609.6</ele>
        <time>2022-10-25T05:22:31.000Z</time>
      </trkpt>
      <trkpt lat="27.923824" lon="86.807213">
        <ele>4610</ele>
        <time>2022-10-25T05:22:33.000Z</time>
      </trkpt>
      <trkpt lat="27.92385" lon="86.807206">
        <ele>4610</ele>
        <time>2022-10-25T05:22:36.000Z</time>
      </trkpt>
      <trkpt lat="27.923869" lon="86.8072">
        <ele>4610.4</ele>
        <time>2022-10-25T05:22:39.000Z</time>
      </trkpt>
      <trkpt lat="27.923885" lon="86.807187">
        <ele>4610.8</ele>
        <time>2022-10-25T05:22:41.000Z</time>
      </trkpt>
      <trkpt lat="27.923904" lon="86.807174">
        <ele>4611.6</ele>
        <time>2022-10-25T05:22:44.000Z</time>
      </trkpt>
      <trkpt lat="27.923926" lon="86.807174">
        <ele>4610.8</ele>
        <time>2022-10-25T05:22:55.000Z</time>
      </trkpt>
      <trkpt lat="27.923949" lon="86.807174">
        <ele>4609.4</ele>
        <time>2022-10-25T05:23:00.000Z</time>
      </trkpt>
      <trkpt lat="27.923968" lon="86.807162">
        <ele>4609</ele>
        <time>2022-10-25T05:23:03.000Z</time>
      </trkpt>
      <trkpt lat="27.923987" lon="86.807162">
        <ele>4608.2</ele>
        <time>2022-10-25T05:23:07.000Z</time>
      </trkpt>
      <trkpt lat="27.923997" lon="86.807142">
        <ele>4607.6</ele>
        <time>2022-10-25T05:23:10.000Z</time>
      </trkpt>
      <trkpt lat="27.924003" lon="86.807117">
        <ele>4607.2</ele>
        <time>2022-10-25T05:23:13.000Z</time>
      </trkpt>
      <trkpt lat="27.92401" lon="86.807091">
        <ele>4607.2</ele>
        <time>2022-10-25T05:23:17.000Z</time>
      </trkpt>
      <trkpt lat="27.924019" lon="86.807066">
        <ele>4607.2</ele>
        <time>2022-10-25T05:23:21.000Z</time>
      </trkpt>
      <trkpt lat="27.924035" lon="86.807053">
        <ele>4607.2</ele>
        <time>2022-10-25T05:23:23.000Z</time>
      </trkpt>
      <trkpt lat="27.924054" lon="86.807046">
        <ele>4607.8</ele>
        <time>2022-10-25T05:23:26.000Z</time>
      </trkpt>
      <trkpt lat="27.924074" lon="86.807027">
        <ele>4608.6</ele>
        <time>2022-10-25T05:23:34.000Z</time>
      </trkpt>
      <trkpt lat="27.924096" lon="86.807021">
        <ele>4608.6</ele>
        <time>2022-10-25T05:23:38.000Z</time>
      </trkpt>
      <trkpt lat="27.924115" lon="86.807027">
        <ele>4608.6</ele>
        <time>2022-10-25T05:23:43.000Z</time>
      </trkpt>
      <trkpt lat="27.924115" lon="86.807053">
        <ele>4608.6</ele>
        <time>2022-10-25T05:23:52.000Z</time>
      </trkpt>
      <trkpt lat="27.924154" lon="86.807059">
        <ele>4610.8</ele>
        <time>2022-10-25T05:24:38.000Z</time>
      </trkpt>
      <trkpt lat="27.924173" lon="86.807059">
        <ele>4611</ele>
        <time>2022-10-25T05:24:39.000Z</time>
      </trkpt>
      <trkpt lat="27.924202" lon="86.807059">
        <ele>4611</ele>
        <time>2022-10-25T05:24:41.000Z</time>
      </trkpt>
      <trkpt lat="27.924234" lon="86.807059">
        <ele>4611.6</ele>
        <time>2022-10-25T05:24:43.000Z</time>
      </trkpt>
      <trkpt lat="27.924259" lon="86.807053">
        <ele>4612.2</ele>
        <time>2022-10-25T05:24:45.000Z</time>
      </trkpt>
      <trkpt lat="27.924285" lon="86.807046">
        <ele>4611.8</ele>
        <time>2022-10-25T05:24:47.000Z</time>
      </trkpt>
      <trkpt lat="27.924304" lon="86.80704">
        <ele>4611.8</ele>
        <time>2022-10-25T05:24:52.000Z</time>
      </trkpt>
      <trkpt lat="27.924323" lon="86.80704">
        <ele>4613</ele>
        <time>2022-10-25T05:24:55.000Z</time>
      </trkpt>
      <trkpt lat="27.924346" lon="86.807046">
        <ele>4612.8</ele>
        <time>2022-10-25T05:25:06.000Z</time>
      </trkpt>
      <trkpt lat="27.924358" lon="86.807027">
        <ele>4613.2</ele>
        <time>2022-10-25T05:25:09.000Z</time>
      </trkpt>
      <trkpt lat="27.924368" lon="86.807008">
        <ele>4613</ele>
        <time>2022-10-25T05:25:12.000Z</time>
      </trkpt>
      <trkpt lat="27.924387" lon="86.807002">
        <ele>4613.2</ele>
        <time>2022-10-25T05:25:16.000Z</time>
      </trkpt>
      <trkpt lat="27.924384" lon="86.806976">
        <ele>4613.2</ele>
        <time>2022-10-25T05:25:24.000Z</time>
      </trkpt>
      <trkpt lat="27.924394" lon="86.80695">
        <ele>4613.6</ele>
        <time>2022-10-25T05:25:29.000Z</time>
      </trkpt>
      <trkpt lat="27.924403" lon="86.806931">
        <ele>4614.4</ele>
        <time>2022-10-25T05:25:35.000Z</time>
      </trkpt>
      <trkpt lat="27.924422" lon="86.806925">
        <ele>4614.6</ele>
        <time>2022-10-25T05:25:38.000Z</time>
      </trkpt>
      <trkpt lat="27.924442" lon="86.806918">
        <ele>4615.6</ele>
        <time>2022-10-25T05:25:42.000Z</time>
      </trkpt>
      <trkpt lat="27.924461" lon="86.806899">
        <ele>4615.6</ele>
        <time>2022-10-25T05:25:47.000Z</time>
      </trkpt>
      <trkpt lat="27.924483" lon="86.806893">
        <ele>4616.4</ele>
        <time>2022-10-25T05:25:51.000Z</time>
      </trkpt>
      <trkpt lat="27.924502" lon="86.806893">
        <ele>4616.4</ele>
        <time>2022-10-25T05:25:55.000Z</time>
      </trkpt>
      <trkpt lat="27.924522" lon="86.806886">
        <ele>4616.2</ele>
        <time>2022-10-25T05:25:58.000Z</time>
      </trkpt>
      <trkpt lat="27.92455" lon="86.80688">
        <ele>4615.8</ele>
        <time>2022-10-25T05:26:02.000Z</time>
      </trkpt>
      <trkpt lat="27.92457" lon="86.806867">
        <ele>4615.8</ele>
        <time>2022-10-25T05:26:05.000Z</time>
      </trkpt>
      <trkpt lat="27.924592" lon="86.806861">
        <ele>4615.6</ele>
        <time>2022-10-25T05:26:08.000Z</time>
      </trkpt>
      <trkpt lat="27.924611" lon="86.806854">
        <ele>4615.6</ele>
        <time>2022-10-25T05:26:11.000Z</time>
      </trkpt>
      <trkpt lat="27.924624" lon="86.806829">
        <ele>4615.6</ele>
        <time>2022-10-25T05:26:14.000Z</time>
      </trkpt>
      <trkpt lat="27.924643" lon="86.80681">
        <ele>4616.2</ele>
        <time>2022-10-25T05:26:18.000Z</time>
      </trkpt>
      <trkpt lat="27.924653" lon="86.80679">
        <ele>4615.8</ele>
        <time>2022-10-25T05:26:21.000Z</time>
      </trkpt>
      <trkpt lat="27.924669" lon="86.806778">
        <ele>4616.2</ele>
        <time>2022-10-25T05:26:24.000Z</time>
      </trkpt>
      <trkpt lat="27.924669" lon="86.806746">
        <ele>4616.4</ele>
        <time>2022-10-25T05:26:33.000Z</time>
      </trkpt>
      <trkpt lat="27.92465" lon="86.806746">
        <ele>4615.8</ele>
        <time>2022-10-25T05:27:24.000Z</time>
      </trkpt>
      <trkpt lat="27.924627" lon="86.806752">
        <ele>4615.6</ele>
        <time>2022-10-25T05:27:26.000Z</time>
      </trkpt>
      <trkpt lat="27.924605" lon="86.806752">
        <ele>4615.2</ele>
        <time>2022-10-25T05:27:29.000Z</time>
      </trkpt>
      <trkpt lat="27.924576" lon="86.806765">
        <ele>4613.8</ele>
        <time>2022-10-25T05:27:50.000Z</time>
      </trkpt>
      <trkpt lat="27.92455" lon="86.806765">
        <ele>4613.8</ele>
        <time>2022-10-25T05:27:52.000Z</time>
      </trkpt>
      <trkpt lat="27.924509" lon="86.806752">
        <ele>4613.2</ele>
        <time>2022-10-25T05:27:57.000Z</time>
      </trkpt>
      <trkpt lat="27.924483" lon="86.806765">
        <ele>4614</ele>
        <time>2022-10-25T05:28:35.000Z</time>
      </trkpt>
      <trkpt lat="27.924461" lon="86.806765">
        <ele>4614</ele>
        <time>2022-10-25T05:28:38.000Z</time>
      </trkpt>
      <trkpt lat="27.924445" lon="86.806752">
        <ele>4614</ele>
        <time>2022-10-25T05:28:40.000Z</time>
      </trkpt>
      <trkpt lat="27.924426" lon="86.806752">
        <ele>4614</ele>
        <time>2022-10-25T05:28:42.000Z</time>
      </trkpt>
      <trkpt lat="27.924403" lon="86.806752">
        <ele>4613.4</ele>
        <time>2022-10-25T05:28:45.000Z</time>
      </trkpt>
      <trkpt lat="27.924387" lon="86.806739">
        <ele>4610</ele>
        <time>2022-10-25T05:29:08.000Z</time>
      </trkpt>
      <trkpt lat="27.924365" lon="86.806733">
        <ele>4609.4</ele>
        <time>2022-10-25T05:29:10.000Z</time>
      </trkpt>
      <trkpt lat="27.924339" lon="86.806726">
        <ele>4609.2</ele>
        <time>2022-10-25T05:29:12.000Z</time>
      </trkpt>
      <trkpt lat="27.924314" lon="86.806726">
        <ele>4608.6</ele>
        <time>2022-10-25T05:29:14.000Z</time>
      </trkpt>
      <trkpt lat="27.924285" lon="86.80672">
        <ele>4608.8</ele>
        <time>2022-10-25T05:29:16.000Z</time>
      </trkpt>
      <trkpt lat="27.924266" lon="86.806707">
        <ele>4608</ele>
        <time>2022-10-25T05:29:18.000Z</time>
      </trkpt>
      <trkpt lat="27.924246" lon="86.806707">
        <ele>4608.4</ele>
        <time>2022-10-25T05:29:21.000Z</time>
      </trkpt>
      <trkpt lat="27.924224" lon="86.806701">
        <ele>4609.2</ele>
        <time>2022-10-25T05:29:24.000Z</time>
      </trkpt>
      <trkpt lat="27.924202" lon="86.806694">
        <ele>4608.6</ele>
        <time>2022-10-25T05:29:27.000Z</time>
      </trkpt>
      <trkpt lat="27.924182" lon="86.806694">
        <ele>4608.6</ele>
        <time>2022-10-25T05:29:30.000Z</time>
      </trkpt>
      <trkpt lat="27.924163" lon="86.806688">
        <ele>4608</ele>
        <time>2022-10-25T05:29:34.000Z</time>
      </trkpt>
      <trkpt lat="27.924144" lon="86.806682">
        <ele>4607.4</ele>
        <time>2022-10-25T05:29:45.000Z</time>
      </trkpt>
      <trkpt lat="27.924128" lon="86.806694">
        <ele>4607</ele>
        <time>2022-10-25T05:29:49.000Z</time>
      </trkpt>
      <trkpt lat="27.924109" lon="86.80672">
        <ele>4606.6</ele>
        <time>2022-10-25T05:29:55.000Z</time>
      </trkpt>
      <trkpt lat="27.924086" lon="86.806701">
        <ele>4604.6</ele>
        <time>2022-10-25T05:31:53.000Z</time>
      </trkpt>
      <trkpt lat="27.924061" lon="86.806688">
        <ele>4604.8</ele>
        <time>2022-10-25T05:31:55.000Z</time>
      </trkpt>
      <trkpt lat="27.924035" lon="86.806682">
        <ele>4604.2</ele>
        <time>2022-10-25T05:31:57.000Z</time>
      </trkpt>
      <trkpt lat="27.924013" lon="86.806662">
        <ele>4604.2</ele>
        <time>2022-10-25T05:31:59.000Z</time>
      </trkpt>
      <trkpt lat="27.923997" lon="86.80663">
        <ele>4604</ele>
        <time>2022-10-25T05:32:01.000Z</time>
      </trkpt>
      <trkpt lat="27.923974" lon="86.806618">
        <ele>4603.6</ele>
        <time>2022-10-25T05:32:04.000Z</time>
      </trkpt>
      <trkpt lat="27.923958" lon="86.806605">
        <ele>4602.8</ele>
        <time>2022-10-25T05:32:09.000Z</time>
      </trkpt>
      <trkpt lat="27.923946" lon="86.806586">
        <ele>4602.2</ele>
        <time>2022-10-25T05:32:13.000Z</time>
      </trkpt>
      <trkpt lat="27.92393" lon="86.806573">
        <ele>4601.6</ele>
        <time>2022-10-25T05:32:16.000Z</time>
      </trkpt>
      <trkpt lat="27.923917" lon="86.806547">
        <ele>4601.2</ele>
        <time>2022-10-25T05:32:19.000Z</time>
      </trkpt>
      <trkpt lat="27.923898" lon="86.806528">
        <ele>4601.2</ele>
        <time>2022-10-25T05:32:24.000Z</time>
      </trkpt>
      <trkpt lat="27.923888" lon="86.806509">
        <ele>4601</ele>
        <time>2022-10-25T05:32:26.000Z</time>
      </trkpt>
      <trkpt lat="27.923872" lon="86.806496">
        <ele>4599.8</ele>
        <time>2022-10-25T05:32:30.000Z</time>
      </trkpt>
      <trkpt lat="27.92385" lon="86.80649">
        <ele>4599.4</ele>
        <time>2022-10-25T05:32:52.000Z</time>
      </trkpt>
      <trkpt lat="27.92383" lon="86.80649">
        <ele>4598.6</ele>
        <time>2022-10-25T05:32:54.000Z</time>
      </trkpt>
      <trkpt lat="27.923824" lon="86.80647">
        <ele>4599.4</ele>
        <time>2022-10-25T05:32:56.000Z</time>
      </trkpt>
      <trkpt lat="27.923814" lon="86.806451">
        <ele>4599.4</ele>
        <time>2022-10-25T05:32:59.000Z</time>
      </trkpt>
      <trkpt lat="27.923808" lon="86.806432">
        <ele>4599</ele>
        <time>2022-10-25T05:33:01.000Z</time>
      </trkpt>
      <trkpt lat="27.923782" lon="86.806413">
        <ele>4597.8</ele>
        <time>2022-10-25T05:33:04.000Z</time>
      </trkpt>
      <trkpt lat="27.923757" lon="86.806413">
        <ele>4597.4</ele>
        <time>2022-10-25T05:33:07.000Z</time>
      </trkpt>
      <trkpt lat="27.923731" lon="86.806419">
        <ele>4597.2</ele>
        <time>2022-10-25T05:33:10.000Z</time>
      </trkpt>
      <trkpt lat="27.923712" lon="86.806419">
        <ele>4596.6</ele>
        <time>2022-10-25T05:33:12.000Z</time>
      </trkpt>
      <trkpt lat="27.923686" lon="86.806419">
        <ele>4596.2</ele>
        <time>2022-10-25T05:33:15.000Z</time>
      </trkpt>
      <trkpt lat="27.92367" lon="86.806406">
        <ele>4595.4</ele>
        <time>2022-10-25T05:33:17.000Z</time>
      </trkpt>
      <trkpt lat="27.923651" lon="86.806394">
        <ele>4595.4</ele>
        <time>2022-10-25T05:33:19.000Z</time>
      </trkpt>
      <trkpt lat="27.923629" lon="86.806387">
        <ele>4594.8</ele>
        <time>2022-10-25T05:33:22.000Z</time>
      </trkpt>
      <trkpt lat="27.923613" lon="86.806374">
        <ele>4594.8</ele>
        <time>2022-10-25T05:33:24.000Z</time>
      </trkpt>
      <trkpt lat="27.923606" lon="86.806355">
        <ele>4594.6</ele>
        <time>2022-10-25T05:33:27.000Z</time>
      </trkpt>
      <trkpt lat="27.92359" lon="86.806336">
        <ele>4594.8</ele>
        <time>2022-10-25T05:33:31.000Z</time>
      </trkpt>
      <trkpt lat="27.923581" lon="86.80631">
        <ele>4597</ele>
        <time>2022-10-25T05:33:36.000Z</time>
      </trkpt>
      <trkpt lat="27.92359" lon="86.806291">
        <ele>4597.8</ele>
        <time>2022-10-25T05:33:41.000Z</time>
      </trkpt>
      <trkpt lat="27.92361" lon="86.806291">
        <ele>4598.6</ele>
        <time>2022-10-25T05:33:48.000Z</time>
      </trkpt>
      <trkpt lat="27.923622" lon="86.806272">
        <ele>4598.6</ele>
        <time>2022-10-25T05:33:52.000Z</time>
      </trkpt>
      <trkpt lat="27.923642" lon="86.806259">
        <ele>4598.2</ele>
        <time>2022-10-25T05:33:57.000Z</time>
      </trkpt>
      <trkpt lat="27.923658" lon="86.806234">
        <ele>4598.4</ele>
        <time>2022-10-25T05:34:02.000Z</time>
      </trkpt>
      <trkpt lat="27.923664" lon="86.806214">
        <ele>4599.2</ele>
        <time>2022-10-25T05:34:07.000Z</time>
      </trkpt>
      <trkpt lat="27.923667" lon="86.806189">
        <ele>4600</ele>
        <time>2022-10-25T05:34:11.000Z</time>
      </trkpt>
      <trkpt lat="27.923677" lon="86.80617">
        <ele>4600</ele>
        <time>2022-10-25T05:34:14.000Z</time>
      </trkpt>
      <trkpt lat="27.923674" lon="86.806144">
        <ele>4600.4</ele>
        <time>2022-10-25T05:34:17.000Z</time>
      </trkpt>
      <trkpt lat="27.92368" lon="86.806125">
        <ele>4600</ele>
        <time>2022-10-25T05:34:22.000Z</time>
      </trkpt>
      <trkpt lat="27.923686" lon="86.806106">
        <ele>4600.6</ele>
        <time>2022-10-25T05:34:24.000Z</time>
      </trkpt>
      <trkpt lat="27.923706" lon="86.806099">
        <ele>4600.6</ele>
        <time>2022-10-25T05:34:28.000Z</time>
      </trkpt>
      <trkpt lat="27.923722" lon="86.806086">
        <ele>4601.2</ele>
        <time>2022-10-25T05:34:36.000Z</time>
      </trkpt>
      <trkpt lat="27.923728" lon="86.806067">
        <ele>4601.4</ele>
        <time>2022-10-25T05:34:39.000Z</time>
      </trkpt>
      <trkpt lat="27.923741" lon="86.806048">
        <ele>4601.4</ele>
        <time>2022-10-25T05:34:43.000Z</time>
      </trkpt>
      <trkpt lat="27.923757" lon="86.806029">
        <ele>4601.8</ele>
        <time>2022-10-25T05:34:46.000Z</time>
      </trkpt>
      <trkpt lat="27.923766" lon="86.80601">
        <ele>4602</ele>
        <time>2022-10-25T05:34:53.000Z</time>
      </trkpt>
      <trkpt lat="27.92376" lon="86.80599">
        <ele>4602</ele>
        <time>2022-10-25T05:34:56.000Z</time>
      </trkpt>
      <trkpt lat="27.923754" lon="86.805971">
        <ele>4601.4</ele>
        <time>2022-10-25T05:35:02.000Z</time>
      </trkpt>
      <trkpt lat="27.923747" lon="86.805952">
        <ele>4602.8</ele>
        <time>2022-10-25T05:35:07.000Z</time>
      </trkpt>
      <trkpt lat="27.923741" lon="86.805933">
        <ele>4603</ele>
        <time>2022-10-25T05:35:16.000Z</time>
      </trkpt>
      <trkpt lat="27.923859" lon="86.805747">
        <ele>4609.4</ele>
        <time>2022-10-25T05:36:33.000Z</time>
      </trkpt>
      <trkpt lat="27.923853" lon="86.805715">
        <ele>4609.2</ele>
        <time>2022-10-25T05:36:36.000Z</time>
      </trkpt>
      <trkpt lat="27.923869" lon="86.805696">
        <ele>4609.4</ele>
        <time>2022-10-25T05:36:40.000Z</time>
      </trkpt>
      <trkpt lat="27.923885" lon="86.805677">
        <ele>4609.8</ele>
        <time>2022-10-25T05:36:42.000Z</time>
      </trkpt>
      <trkpt lat="27.923878" lon="86.805658">
        <ele>4610</ele>
        <time>2022-10-25T05:36:45.000Z</time>
      </trkpt>
      <trkpt lat="27.923862" lon="86.805638">
        <ele>4610.2</ele>
        <time>2022-10-25T05:36:48.000Z</time>
      </trkpt>
      <trkpt lat="27.923843" lon="86.805638">
        <ele>4610.8</ele>
        <time>2022-10-25T05:37:00.000Z</time>
      </trkpt>
      <trkpt lat="27.923827" lon="86.805651">
        <ele>4611.2</ele>
        <time>2022-10-25T05:37:05.000Z</time>
      </trkpt>
      <trkpt lat="27.923808" lon="86.805658">
        <ele>4611.8</ele>
        <time>2022-10-25T05:37:11.000Z</time>
      </trkpt>
      <trkpt lat="27.923786" lon="86.805658">
        <ele>4611.8</ele>
        <time>2022-10-25T05:37:14.000Z</time>
      </trkpt>
      <trkpt lat="27.92376" lon="86.805664">
        <ele>4611.8</ele>
        <time>2022-10-25T05:37:47.000Z</time>
      </trkpt>
      <trkpt lat="27.923744" lon="86.805651">
        <ele>4611.6</ele>
        <time>2022-10-25T05:37:50.000Z</time>
      </trkpt>
      <trkpt lat="27.923728" lon="86.805638">
        <ele>4611.6</ele>
        <time>2022-10-25T05:37:52.000Z</time>
      </trkpt>
      <trkpt lat="27.923712" lon="86.805626">
        <ele>4611.8</ele>
        <time>2022-10-25T05:37:54.000Z</time>
      </trkpt>
      <trkpt lat="27.923709" lon="86.805651">
        <ele>4612.8</ele>
        <time>2022-10-25T05:39:15.000Z</time>
      </trkpt>
      <trkpt lat="27.923696" lon="86.805632">
        <ele>4612.8</ele>
        <time>2022-10-25T05:39:16.000Z</time>
      </trkpt>
      <trkpt lat="27.923677" lon="86.805626">
        <ele>4613</ele>
        <time>2022-10-25T05:39:18.000Z</time>
      </trkpt>
      <trkpt lat="27.923658" lon="86.8056">
        <ele>4612.8</ele>
        <time>2022-10-25T05:39:20.000Z</time>
      </trkpt>
      <trkpt lat="27.923648" lon="86.805619">
        <ele>4612.2</ele>
        <time>2022-10-25T05:39:23.000Z</time>
      </trkpt>
      <trkpt lat="27.923664" lon="86.805632">
        <ele>4612.2</ele>
        <time>2022-10-25T05:39:27.000Z</time>
      </trkpt>
      <trkpt lat="27.923686" lon="86.805638">
        <ele>4612.6</ele>
        <time>2022-10-25T05:39:30.000Z</time>
      </trkpt>
      <trkpt lat="27.923728" lon="86.805651">
        <ele>4612.8</ele>
        <time>2022-10-25T05:41:21.000Z</time>
      </trkpt>
      <trkpt lat="27.923709" lon="86.80567">
        <ele>4612.6</ele>
        <time>2022-10-25T05:41:23.000Z</time>
      </trkpt>
      <trkpt lat="27.923699" lon="86.80569">
        <ele>4612.6</ele>
        <time>2022-10-25T05:41:26.000Z</time>
      </trkpt>
      <trkpt lat="27.923677" lon="86.805702">
        <ele>4612</ele>
        <time>2022-10-25T05:41:31.000Z</time>
      </trkpt>
      <trkpt lat="27.923667" lon="86.805734">
        <ele>4612</ele>
        <time>2022-10-25T05:41:33.000Z</time>
      </trkpt>
      <trkpt lat="27.923651" lon="86.805747">
        <ele>4611.8</ele>
        <time>2022-10-25T05:41:35.000Z</time>
      </trkpt>
      <trkpt lat="27.923632" lon="86.805754">
        <ele>4611.8</ele>
        <time>2022-10-25T05:41:39.000Z</time>
      </trkpt>
      <trkpt lat="27.92361" lon="86.805754">
        <ele>4611.8</ele>
        <time>2022-10-25T05:41:41.000Z</time>
      </trkpt>
      <trkpt lat="27.923629" lon="86.805754">
        <ele>4611.8</ele>
        <time>2022-10-25T05:41:47.000Z</time>
      </trkpt>
      <trkpt lat="27.923677" lon="86.805792">
        <ele>4611.6</ele>
        <time>2022-10-25T05:42:38.000Z</time>
      </trkpt>
      <trkpt lat="27.92368" lon="86.805766">
        <ele>4612.8</ele>
        <time>2022-10-25T05:42:42.000Z</time>
      </trkpt>
      <trkpt lat="27.923674" lon="86.805747">
        <ele>4612.2</ele>
        <time>2022-10-25T05:42:43.000Z</time>
      </trkpt>
      <trkpt lat="27.92367" lon="86.805715">
        <ele>4612</ele>
        <time>2022-10-25T05:42:45.000Z</time>
      </trkpt>
      <trkpt lat="27.923686" lon="86.80569">
        <ele>4612.4</ele>
        <time>2022-10-25T05:42:47.000Z</time>
      </trkpt>
      <trkpt lat="27.92369" lon="86.805664">
        <ele>4612.2</ele>
        <time>2022-10-25T05:42:49.000Z</time>
      </trkpt>
      <trkpt lat="27.923699" lon="86.805638">
        <ele>4612</ele>
        <time>2022-10-25T05:42:51.000Z</time>
      </trkpt>
      <trkpt lat="27.923677" lon="86.805632">
        <ele>4612</ele>
        <time>2022-10-25T05:44:33.000Z</time>
      </trkpt>
      <trkpt lat="27.923667" lon="86.805651">
        <ele>4611.6</ele>
        <time>2022-10-25T06:02:11.000Z</time>
      </trkpt>
      <trkpt lat="27.923651" lon="86.805664">
        <ele>4611.6</ele>
        <time>2022-10-25T06:02:13.000Z</time>
      </trkpt>
      <trkpt lat="27.923638" lon="86.80569">
        <ele>4611</ele>
        <time>2022-10-25T06:02:16.000Z</time>
      </trkpt>
      <trkpt lat="27.923632" lon="86.805715">
        <ele>4611</ele>
        <time>2022-10-25T06:02:20.000Z</time>
      </trkpt>
      <trkpt lat="27.923622" lon="86.805734">
        <ele>4611</ele>
        <time>2022-10-25T06:02:22.000Z</time>
      </trkpt>
      <trkpt lat="27.9236" lon="86.805734">
        <ele>4611</ele>
        <time>2022-10-25T06:02:26.000Z</time>
      </trkpt>
      <trkpt lat="27.923606" lon="86.805754">
        <ele>4611</ele>
        <time>2022-10-25T06:02:33.000Z</time>
      </trkpt>
      <trkpt lat="27.923587" lon="86.805747">
        <ele>4610.8</ele>
        <time>2022-10-25T06:03:07.000Z</time>
      </trkpt>
      <trkpt lat="27.923565" lon="86.805754">
        <ele>4610.6</ele>
        <time>2022-10-25T06:03:40.000Z</time>
      </trkpt>
      <trkpt lat="27.923581" lon="86.805773">
        <ele>4610.6</ele>
        <time>2022-10-25T06:03:42.000Z</time>
      </trkpt>
      <trkpt lat="27.9236" lon="86.805779">
        <ele>4611.2</ele>
        <time>2022-10-25T06:03:47.000Z</time>
      </trkpt>
      <trkpt lat="27.923619" lon="86.805754">
        <ele>4610.4</ele>
        <time>2022-10-25T06:04:03.000Z</time>
      </trkpt>
      <trkpt lat="27.92361" lon="86.805728">
        <ele>4611.2</ele>
        <time>2022-10-25T06:04:09.000Z</time>
      </trkpt>
      <trkpt lat="27.923616" lon="86.805702">
        <ele>4611.2</ele>
        <time>2022-10-25T06:04:11.000Z</time>
      </trkpt>
      <trkpt lat="27.923626" lon="86.805677">
        <ele>4611.2</ele>
        <time>2022-10-25T06:04:13.000Z</time>
      </trkpt>
      <trkpt lat="27.923632" lon="86.805651">
        <ele>4611.2</ele>
        <time>2022-10-25T06:04:15.000Z</time>
      </trkpt>
      <trkpt lat="27.923638" lon="86.8056">
        <ele>4610.8</ele>
        <time>2022-10-25T06:04:19.000Z</time>
      </trkpt>
      <trkpt lat="27.923648" lon="86.805619">
        <ele>4610.6</ele>
        <time>2022-10-25T06:04:26.000Z</time>
      </trkpt>
      <trkpt lat="27.923686" lon="86.805626">
        <ele>4611.4</ele>
        <time>2022-10-25T06:06:41.000Z</time>
      </trkpt>
      <trkpt lat="27.923661" lon="86.805619">
        <ele>4612.4</ele>
        <time>2022-10-25T06:19:40.000Z</time>
      </trkpt>
      <trkpt lat="27.923642" lon="86.805632">
        <ele>4613.2</ele>
        <time>2022-10-25T06:19:44.000Z</time>
      </trkpt>
      <trkpt lat="27.923661" lon="86.805626">
        <ele>4612</ele>
        <time>2022-10-25T06:20:25.000Z</time>
      </trkpt>
      <trkpt lat="27.923715" lon="86.8056">
        <ele>4612</ele>
        <time>2022-10-25T06:20:31.000Z</time>
      </trkpt>
      <trkpt lat="27.923718" lon="86.805574">
        <ele>4613</ele>
        <time>2022-10-25T06:20:42.000Z</time>
      </trkpt>
      <trkpt lat="27.923725" lon="86.805549">
        <ele>4613.2</ele>
        <time>2022-10-25T06:20:46.000Z</time>
      </trkpt>
      <trkpt lat="27.923738" lon="86.80553">
        <ele>4613.4</ele>
        <time>2022-10-25T06:20:54.000Z</time>
      </trkpt>
      <trkpt lat="27.923747" lon="86.80551">
        <ele>4614</ele>
        <time>2022-10-25T06:20:59.000Z</time>
      </trkpt>
      <trkpt lat="27.923763" lon="86.805498">
        <ele>4614.6</ele>
        <time>2022-10-25T06:21:04.000Z</time>
      </trkpt>
      <trkpt lat="27.923779" lon="86.805478">
        <ele>4614.8</ele>
        <time>2022-10-25T06:21:07.000Z</time>
      </trkpt>
      <trkpt lat="27.923795" lon="86.805466">
        <ele>4614.8</ele>
        <time>2022-10-25T06:21:11.000Z</time>
      </trkpt>
      <trkpt lat="27.923814" lon="86.805459">
        <ele>4615.2</ele>
        <time>2022-10-25T06:21:15.000Z</time>
      </trkpt>
      <trkpt lat="27.923834" lon="86.80544">
        <ele>4615.6</ele>
        <time>2022-10-25T06:21:19.000Z</time>
      </trkpt>
      <trkpt lat="27.923853" lon="86.805434">
        <ele>4615.8</ele>
        <time>2022-10-25T06:21:25.000Z</time>
      </trkpt>
      <trkpt lat="27.923869" lon="86.805421">
        <ele>4616.2</ele>
        <time>2022-10-25T06:21:30.000Z</time>
      </trkpt>
      <trkpt lat="27.923888" lon="86.805421">
        <ele>4616.4</ele>
        <time>2022-10-25T06:21:36.000Z</time>
      </trkpt>
      <trkpt lat="27.923914" lon="86.805421">
        <ele>4617.2</ele>
        <time>2022-10-25T06:21:40.000Z</time>
      </trkpt>
      <trkpt lat="27.923933" lon="86.805402">
        <ele>4617.6</ele>
        <time>2022-10-25T06:21:46.000Z</time>
      </trkpt>
      <trkpt lat="27.923946" lon="86.805382">
        <ele>4617.8</ele>
        <time>2022-10-25T06:21:53.000Z</time>
      </trkpt>
      <trkpt lat="27.923962" lon="86.80537">
        <ele>4618.2</ele>
        <time>2022-10-25T06:21:58.000Z</time>
      </trkpt>
      <trkpt lat="27.923968" lon="86.80535">
        <ele>4618.6</ele>
        <time>2022-10-25T06:22:03.000Z</time>
      </trkpt>
      <trkpt lat="27.923984" lon="86.805338">
        <ele>4619.2</ele>
        <time>2022-10-25T06:22:09.000Z</time>
      </trkpt>
      <trkpt lat="27.923997" lon="86.805318">
        <ele>4619.8</ele>
        <time>2022-10-25T06:22:13.000Z</time>
      </trkpt>
      <trkpt lat="27.924013" lon="86.805306">
        <ele>4620.2</ele>
        <time>2022-10-25T06:22:19.000Z</time>
      </trkpt>
      <trkpt lat="27.924026" lon="86.80528">
        <ele>4621.2</ele>
        <time>2022-10-25T06:22:29.000Z</time>
      </trkpt>
      <trkpt lat="27.924045" lon="86.805274">
        <ele>4622</ele>
        <time>2022-10-25T06:22:35.000Z</time>
      </trkpt>
      <trkpt lat="27.924064" lon="86.805274">
        <ele>4622.2</ele>
        <time>2022-10-25T06:22:40.000Z</time>
      </trkpt>
      <trkpt lat="27.924083" lon="86.805274">
        <ele>4622.8</ele>
        <time>2022-10-25T06:22:45.000Z</time>
      </trkpt>
      <trkpt lat="27.924099" lon="86.805261">
        <ele>4623.6</ele>
        <time>2022-10-25T06:22:51.000Z</time>
      </trkpt>
      <trkpt lat="27.924106" lon="86.805242">
        <ele>4624.4</ele>
        <time>2022-10-25T06:22:55.000Z</time>
      </trkpt>
      <trkpt lat="27.924096" lon="86.805222">
        <ele>4624.4</ele>
        <time>2022-10-25T06:23:09.000Z</time>
      </trkpt>
      <trkpt lat="27.924102" lon="86.805203">
        <ele>4625.6</ele>
        <time>2022-10-25T06:23:13.000Z</time>
      </trkpt>
      <trkpt lat="27.924109" lon="86.805184">
        <ele>4626</ele>
        <time>2022-10-25T06:23:18.000Z</time>
      </trkpt>
      <trkpt lat="27.924115" lon="86.805158">
        <ele>4626.2</ele>
        <time>2022-10-25T06:23:22.000Z</time>
      </trkpt>
      <trkpt lat="27.924131" lon="86.805139">
        <ele>4626.8</ele>
        <time>2022-10-25T06:23:28.000Z</time>
      </trkpt>
      <trkpt lat="27.924154" lon="86.805133">
        <ele>4627</ele>
        <time>2022-10-25T06:23:34.000Z</time>
      </trkpt>
      <trkpt lat="27.924173" lon="86.805139">
        <ele>4627.6</ele>
        <time>2022-10-25T06:23:38.000Z</time>
      </trkpt>
      <trkpt lat="27.924192" lon="86.805139">
        <ele>4628.4</ele>
        <time>2022-10-25T06:23:45.000Z</time>
      </trkpt>
      <trkpt lat="27.924205" lon="86.80512">
        <ele>4628.6</ele>
        <time>2022-10-25T06:23:49.000Z</time>
      </trkpt>
      <trkpt lat="27.924214" lon="86.805101">
        <ele>4629.6</ele>
        <time>2022-10-25T06:23:56.000Z</time>
      </trkpt>
      <trkpt lat="27.924221" lon="86.805075">
        <ele>4629.8</ele>
        <time>2022-10-25T06:24:01.000Z</time>
      </trkpt>
      <trkpt lat="27.924246" lon="86.805062">
        <ele>4630.8</ele>
        <time>2022-10-25T06:24:31.000Z</time>
      </trkpt>
      <trkpt lat="27.924269" lon="86.805056">
        <ele>4631.4</ele>
        <time>2022-10-25T06:24:33.000Z</time>
      </trkpt>
      <trkpt lat="27.924288" lon="86.805056">
        <ele>4631.4</ele>
        <time>2022-10-25T06:24:35.000Z</time>
      </trkpt>
      <trkpt lat="27.924307" lon="86.805043">
        <ele>4631.6</ele>
        <time>2022-10-25T06:24:37.000Z</time>
      </trkpt>
      <trkpt lat="27.924326" lon="86.805037">
        <ele>4632</ele>
        <time>2022-10-25T06:24:40.000Z</time>
      </trkpt>
      <trkpt lat="27.924352" lon="86.805037">
        <ele>4632.2</ele>
        <time>2022-10-25T06:24:45.000Z</time>
      </trkpt>
      <trkpt lat="27.924371" lon="86.805043">
        <ele>4633</ele>
        <time>2022-10-25T06:24:50.000Z</time>
      </trkpt>
      <trkpt lat="27.92439" lon="86.805037">
        <ele>4633.6</ele>
        <time>2022-10-25T06:24:54.000Z</time>
      </trkpt>
      <trkpt lat="27.92441" lon="86.805043">
        <ele>4633.8</ele>
        <time>2022-10-25T06:24:58.000Z</time>
      </trkpt>
      <trkpt lat="27.924432" lon="86.805037">
        <ele>4634</ele>
        <time>2022-10-25T06:25:03.000Z</time>
      </trkpt>
      <trkpt lat="27.924451" lon="86.805037">
        <ele>4634.6</ele>
        <time>2022-10-25T06:25:07.000Z</time>
      </trkpt>
      <trkpt lat="27.92447" lon="86.80503">
        <ele>4634.8</ele>
        <time>2022-10-25T06:25:12.000Z</time>
      </trkpt>
      <trkpt lat="27.92449" lon="86.805024">
        <ele>4635.2</ele>
        <time>2022-10-25T06:25:17.000Z</time>
      </trkpt>
      <trkpt lat="27.924509" lon="86.805024">
        <ele>4635.4</ele>
        <time>2022-10-25T06:25:24.000Z</time>
      </trkpt>
      <trkpt lat="27.924531" lon="86.80503">
        <ele>4636.8</ele>
        <time>2022-10-25T06:25:54.000Z</time>
      </trkpt>
      <trkpt lat="27.924554" lon="86.80503">
        <ele>4637</ele>
        <time>2022-10-25T06:25:56.000Z</time>
      </trkpt>
      <trkpt lat="27.924576" lon="86.805037">
        <ele>4637.4</ele>
        <time>2022-10-25T06:25:58.000Z</time>
      </trkpt>
      <trkpt lat="27.924595" lon="86.805037">
        <ele>4637.6</ele>
        <time>2022-10-25T06:26:00.000Z</time>
      </trkpt>
      <trkpt lat="27.924614" lon="86.805037">
        <ele>4637.6</ele>
        <time>2022-10-25T06:26:02.000Z</time>
      </trkpt>
      <trkpt lat="27.924653" lon="86.805056">
        <ele>4637.8</ele>
        <time>2022-10-25T06:26:08.000Z</time>
      </trkpt>
      <trkpt lat="27.924672" lon="86.805056">
        <ele>4639</ele>
        <time>2022-10-25T06:26:12.000Z</time>
      </trkpt>
      <trkpt lat="27.924691" lon="86.805062">
        <ele>4639</ele>
        <time>2022-10-25T06:26:15.000Z</time>
      </trkpt>
      <trkpt lat="27.924714" lon="86.805069">
        <ele>4639.4</ele>
        <time>2022-10-25T06:26:20.000Z</time>
      </trkpt>
      <trkpt lat="27.924733" lon="86.805056">
        <ele>4639.4</ele>
        <time>2022-10-25T06:26:24.000Z</time>
      </trkpt>
      <trkpt lat="27.924752" lon="86.805056">
        <ele>4639.8</ele>
        <time>2022-10-25T06:26:27.000Z</time>
      </trkpt>
      <trkpt lat="27.924768" lon="86.805043">
        <ele>4639.8</ele>
        <time>2022-10-25T06:26:30.000Z</time>
      </trkpt>
      <trkpt lat="27.924778" lon="86.805024">
        <ele>4640.2</ele>
        <time>2022-10-25T06:26:33.000Z</time>
      </trkpt>
      <trkpt lat="27.92479" lon="86.805005">
        <ele>4640.2</ele>
        <time>2022-10-25T06:26:36.000Z</time>
      </trkpt>
      <trkpt lat="27.92481" lon="86.804998">
        <ele>4640.2</ele>
        <time>2022-10-25T06:26:39.000Z</time>
      </trkpt>
      <trkpt lat="27.924829" lon="86.804992">
        <ele>4640.6</ele>
        <time>2022-10-25T06:26:43.000Z</time>
      </trkpt>
      <trkpt lat="27.924851" lon="86.804992">
        <ele>4640.2</ele>
        <time>2022-10-25T06:26:47.000Z</time>
      </trkpt>
      <trkpt lat="27.924874" lon="86.804986">
        <ele>4640.8</ele>
        <time>2022-10-25T06:26:51.000Z</time>
      </trkpt>
      <trkpt lat="27.924893" lon="86.804986">
        <ele>4641.4</ele>
        <time>2022-10-25T06:26:55.000Z</time>
      </trkpt>
      <trkpt lat="27.924915" lon="86.804986">
        <ele>4641.6</ele>
        <time>2022-10-25T06:26:58.000Z</time>
      </trkpt>
      <trkpt lat="27.924941" lon="86.804979">
        <ele>4641.6</ele>
        <time>2022-10-25T06:27:02.000Z</time>
      </trkpt>
      <trkpt lat="27.92496" lon="86.804979">
        <ele>4641.8</ele>
        <time>2022-10-25T06:27:05.000Z</time>
      </trkpt>
      <trkpt lat="27.924979" lon="86.804979">
        <ele>4642.2</ele>
        <time>2022-10-25T06:27:08.000Z</time>
      </trkpt>
      <trkpt lat="27.924998" lon="86.804986">
        <ele>4642.4</ele>
        <time>2022-10-25T06:27:11.000Z</time>
      </trkpt>
      <trkpt lat="27.925021" lon="86.804986">
        <ele>4642.4</ele>
        <time>2022-10-25T06:27:14.000Z</time>
      </trkpt>
      <trkpt lat="27.925046" lon="86.804992">
        <ele>4642.2</ele>
        <time>2022-10-25T06:27:17.000Z</time>
      </trkpt>
      <trkpt lat="27.925069" lon="86.804992">
        <ele>4642.4</ele>
        <time>2022-10-25T06:27:21.000Z</time>
      </trkpt>
      <trkpt lat="27.925088" lon="86.804986">
        <ele>4642.2</ele>
        <time>2022-10-25T06:27:23.000Z</time>
      </trkpt>
      <trkpt lat="27.925107" lon="86.804979">
        <ele>4642.2</ele>
        <time>2022-10-25T06:27:26.000Z</time>
      </trkpt>
      <trkpt lat="27.92513" lon="86.804973">
        <ele>4642.8</ele>
        <time>2022-10-25T06:27:29.000Z</time>
      </trkpt>
      <trkpt lat="27.925149" lon="86.804973">
        <ele>4642.4</ele>
        <time>2022-10-25T06:27:32.000Z</time>
      </trkpt>
      <trkpt lat="27.925171" lon="86.804973">
        <ele>4642.4</ele>
        <time>2022-10-25T06:27:36.000Z</time>
      </trkpt>
      <trkpt lat="27.92519" lon="86.804973">
        <ele>4642.8</ele>
        <time>2022-10-25T06:27:39.000Z</time>
      </trkpt>
      <trkpt lat="27.92521" lon="86.804979">
        <ele>4643.2</ele>
        <time>2022-10-25T06:27:43.000Z</time>
      </trkpt>
      <trkpt lat="27.925226" lon="86.804992">
        <ele>4643.2</ele>
        <time>2022-10-25T06:27:46.000Z</time>
      </trkpt>
      <trkpt lat="27.925245" lon="86.804998">
        <ele>4643.6</ele>
        <time>2022-10-25T06:27:51.000Z</time>
      </trkpt>
      <trkpt lat="27.925261" lon="86.804986">
        <ele>4643.4</ele>
        <time>2022-10-25T06:27:57.000Z</time>
      </trkpt>
      <trkpt lat="27.925286" lon="86.804986">
        <ele>4644.6</ele>
        <time>2022-10-25T06:28:15.000Z</time>
      </trkpt>
      <trkpt lat="27.925315" lon="86.804986">
        <ele>4644.4</ele>
        <time>2022-10-25T06:28:17.000Z</time>
      </trkpt>
      <trkpt lat="27.925341" lon="86.804979">
        <ele>4645</ele>
        <time>2022-10-25T06:28:19.000Z</time>
      </trkpt>
      <trkpt lat="27.925363" lon="86.804973">
        <ele>4645.2</ele>
        <time>2022-10-25T06:28:21.000Z</time>
      </trkpt>
      <trkpt lat="27.925389" lon="86.80496">
        <ele>4645.6</ele>
        <time>2022-10-25T06:28:23.000Z</time>
      </trkpt>
      <trkpt lat="27.925408" lon="86.804954">
        <ele>4645.8</ele>
        <time>2022-10-25T06:28:28.000Z</time>
      </trkpt>
      <trkpt lat="27.925427" lon="86.804947">
        <ele>4645.8</ele>
        <time>2022-10-25T06:28:32.000Z</time>
      </trkpt>
      <trkpt lat="27.925443" lon="86.804934">
        <ele>4645.8</ele>
        <time>2022-10-25T06:28:35.000Z</time>
      </trkpt>
      <trkpt lat="27.925462" lon="86.804922">
        <ele>4646.6</ele>
        <time>2022-10-25T06:28:39.000Z</time>
      </trkpt>
      <trkpt lat="27.925482" lon="86.804934">
        <ele>4646.8</ele>
        <time>2022-10-25T06:28:41.000Z</time>
      </trkpt>
      <trkpt lat="27.925504" lon="86.804934">
        <ele>4646.8</ele>
        <time>2022-10-25T06:28:44.000Z</time>
      </trkpt>
      <trkpt lat="27.925523" lon="86.804934">
        <ele>4647.2</ele>
        <time>2022-10-25T06:28:47.000Z</time>
      </trkpt>
      <trkpt lat="27.925539" lon="86.804922">
        <ele>4647.2</ele>
        <time>2022-10-25T06:28:50.000Z</time>
      </trkpt>
      <trkpt lat="27.925558" lon="86.804922">
        <ele>4647.4</ele>
        <time>2022-10-25T06:28:54.000Z</time>
      </trkpt>
      <trkpt lat="27.925574" lon="86.804934">
        <ele>4648</ele>
        <time>2022-10-25T06:28:57.000Z</time>
      </trkpt>
      <trkpt lat="27.925594" lon="86.804941">
        <ele>4647.8</ele>
        <time>2022-10-25T06:29:00.000Z</time>
      </trkpt>
      <trkpt lat="27.925632" lon="86.804941">
        <ele>4648.2</ele>
        <time>2022-10-25T06:29:07.000Z</time>
      </trkpt>
      <trkpt lat="27.925654" lon="86.804947">
        <ele>4648.6</ele>
        <time>2022-10-25T06:29:11.000Z</time>
      </trkpt>
      <trkpt lat="27.925674" lon="86.804947">
        <ele>4648.8</ele>
        <time>2022-10-25T06:29:14.000Z</time>
      </trkpt>
      <trkpt lat="27.925693" lon="86.80496">
        <ele>4649</ele>
        <time>2022-10-25T06:29:18.000Z</time>
      </trkpt>
      <trkpt lat="27.925712" lon="86.80496">
        <ele>4649</ele>
        <time>2022-10-25T06:29:22.000Z</time>
      </trkpt>
      <trkpt lat="27.925728" lon="86.804973">
        <ele>4649.4</ele>
        <time>2022-10-25T06:29:25.000Z</time>
      </trkpt>
      <trkpt lat="27.92575" lon="86.80496">
        <ele>4650</ele>
        <time>2022-10-25T06:29:30.000Z</time>
      </trkpt>
      <trkpt lat="27.925766" lon="86.804947">
        <ele>4650.2</ele>
        <time>2022-10-25T06:29:35.000Z</time>
      </trkpt>
      <trkpt lat="27.925786" lon="86.804934">
        <ele>4651</ele>
        <time>2022-10-25T06:29:39.000Z</time>
      </trkpt>
      <trkpt lat="27.925805" lon="86.804934">
        <ele>4651</ele>
        <time>2022-10-25T06:29:43.000Z</time>
      </trkpt>
      <trkpt lat="27.925818" lon="86.804915">
        <ele>4651.6</ele>
        <time>2022-10-25T06:29:46.000Z</time>
      </trkpt>
      <trkpt lat="27.92584" lon="86.804915">
        <ele>4651.2</ele>
        <time>2022-10-25T06:29:50.000Z</time>
      </trkpt>
      <trkpt lat="27.925859" lon="86.804909">
        <ele>4651.6</ele>
        <time>2022-10-25T06:29:56.000Z</time>
      </trkpt>
      <trkpt lat="27.925866" lon="86.804883">
        <ele>4651.8</ele>
        <time>2022-10-25T06:30:00.000Z</time>
      </trkpt>
      <trkpt lat="27.925875" lon="86.804864">
        <ele>4652.4</ele>
        <time>2022-10-25T06:30:05.000Z</time>
      </trkpt>
      <trkpt lat="27.925885" lon="86.804845">
        <ele>4653.2</ele>
        <time>2022-10-25T06:30:10.000Z</time>
      </trkpt>
      <trkpt lat="27.925901" lon="86.804832">
        <ele>4654.6</ele>
        <time>2022-10-25T06:30:19.000Z</time>
      </trkpt>
      <trkpt lat="27.92592" lon="86.804826">
        <ele>4654.2</ele>
        <time>2022-10-25T06:30:25.000Z</time>
      </trkpt>
      <trkpt lat="27.925939" lon="86.804826">
        <ele>4654.6</ele>
        <time>2022-10-25T06:30:30.000Z</time>
      </trkpt>
      <trkpt lat="27.925962" lon="86.804806">
        <ele>4655.4</ele>
        <time>2022-10-25T06:30:37.000Z</time>
      </trkpt>
      <trkpt lat="27.925981" lon="86.804806">
        <ele>4655.2</ele>
        <time>2022-10-25T06:30:41.000Z</time>
      </trkpt>
      <trkpt lat="27.926" lon="86.804819">
        <ele>4655.6</ele>
        <time>2022-10-25T06:30:45.000Z</time>
      </trkpt>
      <trkpt lat="27.926019" lon="86.804806">
        <ele>4656.4</ele>
        <time>2022-10-25T06:30:51.000Z</time>
      </trkpt>
      <trkpt lat="27.926038" lon="86.8048">
        <ele>4657.2</ele>
        <time>2022-10-25T06:30:58.000Z</time>
      </trkpt>
      <trkpt lat="27.926054" lon="86.804787">
        <ele>4657.4</ele>
        <time>2022-10-25T06:31:05.000Z</time>
      </trkpt>
      <trkpt lat="27.92607" lon="86.8048">
        <ele>4657.6</ele>
        <time>2022-10-25T06:31:09.000Z</time>
      </trkpt>
      <trkpt lat="27.92608" lon="86.804819">
        <ele>4657.6</ele>
        <time>2022-10-25T06:31:13.000Z</time>
      </trkpt>
      <trkpt lat="27.926099" lon="86.804826">
        <ele>4658.4</ele>
        <time>2022-10-25T06:31:19.000Z</time>
      </trkpt>
      <trkpt lat="27.926118" lon="86.804826">
        <ele>4659.2</ele>
        <time>2022-10-25T06:31:25.000Z</time>
      </trkpt>
      <trkpt lat="27.926138" lon="86.804826">
        <ele>4659.2</ele>
        <time>2022-10-25T06:31:29.000Z</time>
      </trkpt>
      <trkpt lat="27.926157" lon="86.804819">
        <ele>4659.8</ele>
        <time>2022-10-25T06:31:34.000Z</time>
      </trkpt>
      <trkpt lat="27.926163" lon="86.8048">
        <ele>4660</ele>
        <time>2022-10-25T06:31:38.000Z</time>
      </trkpt>
      <trkpt lat="27.926182" lon="86.804794">
        <ele>4660</ele>
        <time>2022-10-25T06:31:42.000Z</time>
      </trkpt>
      <trkpt lat="27.926202" lon="86.8048">
        <ele>4660.2</ele>
        <time>2022-10-25T06:31:46.000Z</time>
      </trkpt>
      <trkpt lat="27.926221" lon="86.8048">
        <ele>4660.8</ele>
        <time>2022-10-25T06:31:54.000Z</time>
      </trkpt>
      <trkpt lat="27.926237" lon="86.804787">
        <ele>4661</ele>
        <time>2022-10-25T06:32:00.000Z</time>
      </trkpt>
      <trkpt lat="27.92624" lon="86.804762">
        <ele>4661.8</ele>
        <time>2022-10-25T06:32:04.000Z</time>
      </trkpt>
      <trkpt lat="27.926259" lon="86.804749">
        <ele>4661.8</ele>
        <time>2022-10-25T06:32:10.000Z</time>
      </trkpt>
      <trkpt lat="27.926298" lon="86.804749">
        <ele>4663.6</ele>
        <time>2022-10-25T06:32:40.000Z</time>
      </trkpt>
      <trkpt lat="27.926317" lon="86.804749">
        <ele>4664.2</ele>
        <time>2022-10-25T06:32:42.000Z</time>
      </trkpt>
      <trkpt lat="27.926336" lon="86.804742">
        <ele>4664.2</ele>
        <time>2022-10-25T06:32:44.000Z</time>
      </trkpt>
      <trkpt lat="27.926362" lon="86.804742">
        <ele>4664.4</ele>
        <time>2022-10-25T06:32:46.000Z</time>
      </trkpt>
      <trkpt lat="27.926387" lon="86.804736">
        <ele>4664.2</ele>
        <time>2022-10-25T06:32:48.000Z</time>
      </trkpt>
      <trkpt lat="27.926406" lon="86.804723">
        <ele>4664.8</ele>
        <time>2022-10-25T06:32:52.000Z</time>
      </trkpt>
      <trkpt lat="27.926422" lon="86.80471">
        <ele>4665.2</ele>
        <time>2022-10-25T06:32:58.000Z</time>
      </trkpt>
      <trkpt lat="27.926435" lon="86.804685">
        <ele>4666</ele>
        <time>2022-10-25T06:33:04.000Z</time>
      </trkpt>
      <trkpt lat="27.926454" lon="86.804672">
        <ele>4666.8</ele>
        <time>2022-10-25T06:33:10.000Z</time>
      </trkpt>
      <trkpt lat="27.926614" lon="86.804563">
        <ele>4672.6</ele>
        <time>2022-10-25T06:34:30.000Z</time>
      </trkpt>
      <trkpt lat="27.926637" lon="86.804563">
        <ele>4672.6</ele>
        <time>2022-10-25T06:34:33.000Z</time>
      </trkpt>
      <trkpt lat="27.926675" lon="86.804557">
        <ele>4675.2</ele>
        <time>2022-10-25T06:37:54.000Z</time>
      </trkpt>
      <trkpt lat="27.926694" lon="86.80455">
        <ele>4675.4</ele>
        <time>2022-10-25T06:37:56.000Z</time>
      </trkpt>
      <trkpt lat="27.926717" lon="86.804544">
        <ele>4675.6</ele>
        <time>2022-10-25T06:37:58.000Z</time>
      </trkpt>
      <trkpt lat="27.926739" lon="86.804538">
        <ele>4676.8</ele>
        <time>2022-10-25T06:38:00.000Z</time>
      </trkpt>
      <trkpt lat="27.926755" lon="86.804525">
        <ele>4676.8</ele>
        <time>2022-10-25T06:38:01.000Z</time>
      </trkpt>
      <trkpt lat="27.926771" lon="86.804512">
        <ele>4676.4</ele>
        <time>2022-10-25T06:38:04.000Z</time>
      </trkpt>
      <trkpt lat="27.926784" lon="86.804486">
        <ele>4677.2</ele>
        <time>2022-10-25T06:38:08.000Z</time>
      </trkpt>
      <trkpt lat="27.926803" lon="86.804499">
        <ele>4677.6</ele>
        <time>2022-10-25T06:38:12.000Z</time>
      </trkpt>
      <trkpt lat="27.926822" lon="86.804499">
        <ele>4678</ele>
        <time>2022-10-25T06:38:18.000Z</time>
      </trkpt>
      <trkpt lat="27.926832" lon="86.80448">
        <ele>4678.6</ele>
        <time>2022-10-25T06:38:22.000Z</time>
      </trkpt>
      <trkpt lat="27.926848" lon="86.804467">
        <ele>4679</ele>
        <time>2022-10-25T06:38:27.000Z</time>
      </trkpt>
      <trkpt lat="27.92687" lon="86.804461">
        <ele>4679.6</ele>
        <time>2022-10-25T06:38:32.000Z</time>
      </trkpt>
      <trkpt lat="27.926893" lon="86.804467">
        <ele>4679.8</ele>
        <time>2022-10-25T06:38:36.000Z</time>
      </trkpt>
      <trkpt lat="27.926912" lon="86.804474">
        <ele>4680</ele>
        <time>2022-10-25T06:38:46.000Z</time>
      </trkpt>
      <trkpt lat="27.926966" lon="86.804435">
        <ele>4683</ele>
        <time>2022-10-25T06:39:21.000Z</time>
      </trkpt>
      <trkpt lat="27.926992" lon="86.804422">
        <ele>4683</ele>
        <time>2022-10-25T06:39:24.000Z</time>
      </trkpt>
      <trkpt lat="27.927008" lon="86.804403">
        <ele>4683</ele>
        <time>2022-10-25T06:39:26.000Z</time>
      </trkpt>
      <trkpt lat="27.927027" lon="86.804397">
        <ele>4683.2</ele>
        <time>2022-10-25T06:39:28.000Z</time>
      </trkpt>
      <trkpt lat="27.927046" lon="86.804384">
        <ele>4683.6</ele>
        <time>2022-10-25T06:39:30.000Z</time>
      </trkpt>
      <trkpt lat="27.927066" lon="86.804378">
        <ele>4684</ele>
        <time>2022-10-25T06:39:35.000Z</time>
      </trkpt>
      <trkpt lat="27.927085" lon="86.804378">
        <ele>4684.6</ele>
        <time>2022-10-25T06:39:39.000Z</time>
      </trkpt>
      <trkpt lat="27.927104" lon="86.804378">
        <ele>4684.8</ele>
        <time>2022-10-25T06:39:45.000Z</time>
      </trkpt>
      <trkpt lat="27.927123" lon="86.804378">
        <ele>4684.6</ele>
        <time>2022-10-25T06:39:50.000Z</time>
      </trkpt>
      <trkpt lat="27.927139" lon="86.804365">
        <ele>4685.4</ele>
        <time>2022-10-25T06:39:54.000Z</time>
      </trkpt>
      <trkpt lat="27.927162" lon="86.804365">
        <ele>4685.6</ele>
        <time>2022-10-25T06:39:58.000Z</time>
      </trkpt>
      <trkpt lat="27.927178" lon="86.804378">
        <ele>4685.8</ele>
        <time>2022-10-25T06:40:03.000Z</time>
      </trkpt>
      <trkpt lat="27.927194" lon="86.80439">
        <ele>4686.2</ele>
        <time>2022-10-25T06:40:07.000Z</time>
      </trkpt>
      <trkpt lat="27.927213" lon="86.80439">
        <ele>4686.2</ele>
        <time>2022-10-25T06:40:15.000Z</time>
      </trkpt>
      <trkpt lat="27.927232" lon="86.80439">
        <ele>4686.6</ele>
        <time>2022-10-25T06:40:20.000Z</time>
      </trkpt>
      <trkpt lat="27.927251" lon="86.804384">
        <ele>4687.6</ele>
        <time>2022-10-25T06:40:25.000Z</time>
      </trkpt>
      <trkpt lat="27.92727" lon="86.804384">
        <ele>4688</ele>
        <time>2022-10-25T06:40:30.000Z</time>
      </trkpt>
      <trkpt lat="27.92729" lon="86.804378">
        <ele>4689.4</ele>
        <time>2022-10-25T06:40:35.000Z</time>
      </trkpt>
      <trkpt lat="27.927299" lon="86.804358">
        <ele>4689.4</ele>
        <time>2022-10-25T06:40:39.000Z</time>
      </trkpt>
      <trkpt lat="27.927322" lon="86.804358">
        <ele>4690.2</ele>
        <time>2022-10-25T06:40:45.000Z</time>
      </trkpt>
      <trkpt lat="27.927341" lon="86.804346">
        <ele>4690.4</ele>
        <time>2022-10-25T06:40:53.000Z</time>
      </trkpt>
      <trkpt lat="27.927363" lon="86.804352">
        <ele>4690.4</ele>
        <time>2022-10-25T06:40:58.000Z</time>
      </trkpt>
      <trkpt lat="27.927363" lon="86.804378">
        <ele>4690.8</ele>
        <time>2022-10-25T06:41:02.000Z</time>
      </trkpt>
      <trkpt lat="27.92737" lon="86.804403">
        <ele>4691.6</ele>
        <time>2022-10-25T06:41:10.000Z</time>
      </trkpt>
      <trkpt lat="27.927373" lon="86.804429">
        <ele>4692</ele>
        <time>2022-10-25T06:41:16.000Z</time>
      </trkpt>
      <trkpt lat="27.927379" lon="86.804448">
        <ele>4691.8</ele>
        <time>2022-10-25T06:41:23.000Z</time>
      </trkpt>
      <trkpt lat="27.927389" lon="86.804467">
        <ele>4693.2</ele>
        <time>2022-10-25T06:41:27.000Z</time>
      </trkpt>
      <trkpt lat="27.927395" lon="86.804486">
        <ele>4693.4</ele>
        <time>2022-10-25T06:41:34.000Z</time>
      </trkpt>
      <trkpt lat="27.927402" lon="86.804506">
        <ele>4693.4</ele>
        <time>2022-10-25T06:41:38.000Z</time>
      </trkpt>
      <trkpt lat="27.927418" lon="86.804518">
        <ele>4694</ele>
        <time>2022-10-25T06:41:45.000Z</time>
      </trkpt>
      <trkpt lat="27.927437" lon="86.804512">
        <ele>4694.2</ele>
        <time>2022-10-25T06:41:50.000Z</time>
      </trkpt>
      <trkpt lat="27.927456" lon="86.804518">
        <ele>4695</ele>
        <time>2022-10-25T06:41:56.000Z</time>
      </trkpt>
      <trkpt lat="27.927469" lon="86.804538">
        <ele>4695.4</ele>
        <time>2022-10-25T06:42:00.000Z</time>
      </trkpt>
      <trkpt lat="27.927485" lon="86.80455">
        <ele>4695.6</ele>
        <time>2022-10-25T06:42:07.000Z</time>
      </trkpt>
      <trkpt lat="27.927504" lon="86.80455">
        <ele>4696.4</ele>
        <time>2022-10-25T06:42:13.000Z</time>
      </trkpt>
      <trkpt lat="27.927514" lon="86.804576">
        <ele>4696.6</ele>
        <time>2022-10-25T06:42:19.000Z</time>
      </trkpt>
      <trkpt lat="27.92753" lon="86.804563">
        <ele>4697</ele>
        <time>2022-10-25T06:42:25.000Z</time>
      </trkpt>
      <trkpt lat="27.927731" lon="86.804614">
        <ele>4707.2</ele>
        <time>2022-10-25T06:45:27.000Z</time>
      </trkpt>
      <trkpt lat="27.927747" lon="86.804602">
        <ele>4707.2</ele>
        <time>2022-10-25T06:45:29.000Z</time>
      </trkpt>
      <trkpt lat="27.927766" lon="86.804595">
        <ele>4707.6</ele>
        <time>2022-10-25T06:45:32.000Z</time>
      </trkpt>
      <trkpt lat="27.927802" lon="86.804576">
        <ele>4708</ele>
        <time>2022-10-25T06:45:40.000Z</time>
      </trkpt>
      <trkpt lat="27.927818" lon="86.804563">
        <ele>4708.6</ele>
        <time>2022-10-25T06:45:44.000Z</time>
      </trkpt>
      <trkpt lat="27.92783" lon="86.804582">
        <ele>4708.8</ele>
        <time>2022-10-25T06:45:48.000Z</time>
      </trkpt>
      <trkpt lat="27.92785" lon="86.804589">
        <ele>4709.2</ele>
        <time>2022-10-25T06:45:52.000Z</time>
      </trkpt>
      <trkpt lat="27.927869" lon="86.804602">
        <ele>4709.6</ele>
        <time>2022-10-25T06:46:01.000Z</time>
      </trkpt>
      <trkpt lat="27.927866" lon="86.804627">
        <ele>4710.2</ele>
        <time>2022-10-25T06:46:07.000Z</time>
      </trkpt>
      <trkpt lat="27.927885" lon="86.804634">
        <ele>4710.6</ele>
        <time>2022-10-25T06:46:13.000Z</time>
      </trkpt>
      <trkpt lat="27.927904" lon="86.80464">
        <ele>4711.4</ele>
        <time>2022-10-25T06:46:21.000Z</time>
      </trkpt>
      <trkpt lat="27.92791" lon="86.804666">
        <ele>4712</ele>
        <time>2022-10-25T06:46:26.000Z</time>
      </trkpt>
      <trkpt lat="27.927926" lon="86.804678">
        <ele>4712</ele>
        <time>2022-10-25T06:46:31.000Z</time>
      </trkpt>
      <trkpt lat="27.927946" lon="86.804672">
        <ele>4712.4</ele>
        <time>2022-10-25T06:46:37.000Z</time>
      </trkpt>
      <trkpt lat="27.927962" lon="86.804646">
        <ele>4713.2</ele>
        <time>2022-10-25T06:46:45.000Z</time>
      </trkpt>
      <trkpt lat="27.927968" lon="86.804627">
        <ele>4713.4</ele>
        <time>2022-10-25T06:46:51.000Z</time>
      </trkpt>
      <trkpt lat="27.927978" lon="86.804602">
        <ele>4714.4</ele>
        <time>2022-10-25T06:46:59.000Z</time>
      </trkpt>
      <trkpt lat="27.927997" lon="86.804582">
        <ele>4714.6</ele>
        <time>2022-10-25T06:47:05.000Z</time>
      </trkpt>
      <trkpt lat="27.928016" lon="86.804589">
        <ele>4714.8</ele>
        <time>2022-10-25T06:47:11.000Z</time>
      </trkpt>
      <trkpt lat="27.928035" lon="86.804602">
        <ele>4715.6</ele>
        <time>2022-10-25T06:47:15.000Z</time>
      </trkpt>
      <trkpt lat="27.928038" lon="86.804627">
        <ele>4716</ele>
        <time>2022-10-25T06:47:21.000Z</time>
      </trkpt>
      <trkpt lat="27.928054" lon="86.80464">
        <ele>4718.4</ele>
        <time>2022-10-25T06:47:57.000Z</time>
      </trkpt>
      <trkpt lat="27.928064" lon="86.804659">
        <ele>4718.6</ele>
        <time>2022-10-25T06:47:58.000Z</time>
      </trkpt>
      <trkpt lat="27.92808" lon="86.804685">
        <ele>4719</ele>
        <time>2022-10-25T06:48:00.000Z</time>
      </trkpt>
      <trkpt lat="27.92809" lon="86.804704">
        <ele>4719.2</ele>
        <time>2022-10-25T06:48:01.000Z</time>
      </trkpt>
      <trkpt lat="27.928102" lon="86.804723">
        <ele>4719.2</ele>
        <time>2022-10-25T06:48:03.000Z</time>
      </trkpt>
      <trkpt lat="27.928109" lon="86.804742">
        <ele>4719.2</ele>
        <time>2022-10-25T06:48:04.000Z</time>
      </trkpt>
      <trkpt lat="27.928122" lon="86.804762">
        <ele>4719.8</ele>
        <time>2022-10-25T06:48:06.000Z</time>
      </trkpt>
      <trkpt lat="27.928131" lon="86.804781">
        <ele>4720.2</ele>
        <time>2022-10-25T06:48:10.000Z</time>
      </trkpt>
      <trkpt lat="27.928138" lon="86.8048">
        <ele>4720.6</ele>
        <time>2022-10-25T06:48:13.000Z</time>
      </trkpt>
      <trkpt lat="27.928195" lon="86.804794">
        <ele>4722.8</ele>
        <time>2022-10-25T06:49:08.000Z</time>
      </trkpt>
      <trkpt lat="27.928218" lon="86.804781">
        <ele>4722.6</ele>
        <time>2022-10-25T06:49:11.000Z</time>
      </trkpt>
      <trkpt lat="27.928275" lon="86.804774">
        <ele>4724.4</ele>
        <time>2022-10-25T06:53:47.000Z</time>
      </trkpt>
      <trkpt lat="27.928291" lon="86.804762">
        <ele>4724.8</ele>
        <time>2022-10-25T06:53:49.000Z</time>
      </trkpt>
      <trkpt lat="27.928314" lon="86.804749">
        <ele>4725.6</ele>
        <time>2022-10-25T06:53:52.000Z</time>
      </trkpt>
      <trkpt lat="27.928333" lon="86.804736">
        <ele>4725.8</ele>
        <time>2022-10-25T06:53:54.000Z</time>
      </trkpt>
      <trkpt lat="27.928349" lon="86.804717">
        <ele>4725.6</ele>
        <time>2022-10-25T06:53:56.000Z</time>
      </trkpt>
      <trkpt lat="27.928365" lon="86.804736">
        <ele>4725.6</ele>
        <time>2022-10-25T06:54:02.000Z</time>
      </trkpt>
      <trkpt lat="27.928355" lon="86.804755">
        <ele>4726.2</ele>
        <time>2022-10-25T06:54:06.000Z</time>
      </trkpt>
      <trkpt lat="27.928378" lon="86.804749">
        <ele>4726.6</ele>
        <time>2022-10-25T06:54:13.000Z</time>
      </trkpt>
      <trkpt lat="27.928397" lon="86.804749">
        <ele>4727.8</ele>
        <time>2022-10-25T06:54:22.000Z</time>
      </trkpt>
      <trkpt lat="27.928416" lon="86.804742">
        <ele>4727.8</ele>
        <time>2022-10-25T06:54:26.000Z</time>
      </trkpt>
      <trkpt lat="27.928435" lon="86.804736">
        <ele>4728.2</ele>
        <time>2022-10-25T06:54:33.000Z</time>
      </trkpt>
      <trkpt lat="27.928454" lon="86.804742">
        <ele>4728</ele>
        <time>2022-10-25T06:54:38.000Z</time>
      </trkpt>
      <trkpt lat="27.928474" lon="86.804755">
        <ele>4728.2</ele>
        <time>2022-10-25T06:54:44.000Z</time>
      </trkpt>
      <trkpt lat="27.928493" lon="86.804755">
        <ele>4728.8</ele>
        <time>2022-10-25T06:54:50.000Z</time>
      </trkpt>
      <trkpt lat="27.928691" lon="86.804627">
        <ele>4737.8</ele>
        <time>2022-10-25T06:57:05.000Z</time>
      </trkpt>
      <trkpt lat="27.929027" lon="86.804627">
        <ele>4750.8</ele>
        <time>2022-10-25T07:00:26.000Z</time>
      </trkpt>
      <trkpt lat="27.92905" lon="86.804627">
        <ele>4751</ele>
        <time>2022-10-25T07:00:29.000Z</time>
      </trkpt>
      <trkpt lat="27.929069" lon="86.80464">
        <ele>4750.8</ele>
        <time>2022-10-25T07:00:33.000Z</time>
      </trkpt>
      <trkpt lat="27.929306" lon="86.804646">
        <ele>4760.2</ele>
        <time>2022-10-25T07:03:39.000Z</time>
      </trkpt>
      <trkpt lat="27.929318" lon="86.804666">
        <ele>4760.6</ele>
        <time>2022-10-25T07:03:42.000Z</time>
      </trkpt>
      <trkpt lat="27.929338" lon="86.804666">
        <ele>4760.2</ele>
        <time>2022-10-25T07:03:45.000Z</time>
      </trkpt>
      <trkpt lat="27.929357" lon="86.804672">
        <ele>4760.6</ele>
        <time>2022-10-25T07:03:48.000Z</time>
      </trkpt>
      <trkpt lat="27.929376" lon="86.804678">
        <ele>4761</ele>
        <time>2022-10-25T07:03:56.000Z</time>
      </trkpt>
      <trkpt lat="27.929389" lon="86.804698">
        <ele>4761.4</ele>
        <time>2022-10-25T07:04:04.000Z</time>
      </trkpt>
      <trkpt lat="27.929437" lon="86.804749">
        <ele>4763.8</ele>
        <time>2022-10-25T07:04:45.000Z</time>
      </trkpt>
      <trkpt lat="27.929456" lon="86.804762">
        <ele>4764</ele>
        <time>2022-10-25T07:04:47.000Z</time>
      </trkpt>
      <trkpt lat="27.929469" lon="86.804781">
        <ele>4764</ele>
        <time>2022-10-25T07:04:49.000Z</time>
      </trkpt>
      <trkpt lat="27.929491" lon="86.804794">
        <ele>4764</ele>
        <time>2022-10-25T07:04:52.000Z</time>
      </trkpt>
      <trkpt lat="27.929507" lon="86.804806">
        <ele>4764.6</ele>
        <time>2022-10-25T07:04:56.000Z</time>
      </trkpt>
      <trkpt lat="27.92953" lon="86.804838">
        <ele>4765.4</ele>
        <time>2022-10-25T07:05:09.000Z</time>
      </trkpt>
      <trkpt lat="27.929549" lon="86.804845">
        <ele>4765.8</ele>
        <time>2022-10-25T07:05:16.000Z</time>
      </trkpt>
      <trkpt lat="27.929555" lon="86.804864">
        <ele>4765.8</ele>
        <time>2022-10-25T07:05:20.000Z</time>
      </trkpt>
      <trkpt lat="27.929574" lon="86.80487">
        <ele>4766.6</ele>
        <time>2022-10-25T07:05:27.000Z</time>
      </trkpt>
      <trkpt lat="27.92959" lon="86.804858">
        <ele>4767</ele>
        <time>2022-10-25T07:05:33.000Z</time>
      </trkpt>
      <trkpt lat="27.929603" lon="86.804838">
        <ele>4768</ele>
        <time>2022-10-25T07:05:42.000Z</time>
      </trkpt>
      <trkpt lat="27.929712" lon="86.804877">
        <ele>4773.6</ele>
        <time>2022-10-25T07:11:13.000Z</time>
      </trkpt>
      <trkpt lat="27.929706" lon="86.804858">
        <ele>4779.4</ele>
        <time>2022-10-25T07:21:07.000Z</time>
      </trkpt>
      <trkpt lat="27.929715" lon="86.804838">
        <ele>4779.6</ele>
        <time>2022-10-25T07:21:09.000Z</time>
      </trkpt>
      <trkpt lat="27.929728" lon="86.804819">
        <ele>4779.6</ele>
        <time>2022-10-25T07:21:12.000Z</time>
      </trkpt>
      <trkpt lat="27.929728" lon="86.804794">
        <ele>4780.2</ele>
        <time>2022-10-25T07:21:16.000Z</time>
      </trkpt>
      <trkpt lat="27.929718" lon="86.804774">
        <ele>4779.4</ele>
        <time>2022-10-25T07:21:21.000Z</time>
      </trkpt>
      <trkpt lat="27.929709" lon="86.804755">
        <ele>4779.4</ele>
        <time>2022-10-25T07:21:24.000Z</time>
      </trkpt>
      <trkpt lat="27.929702" lon="86.804736">
        <ele>4780.2</ele>
        <time>2022-10-25T07:21:29.000Z</time>
      </trkpt>
      <trkpt lat="27.929702" lon="86.80471">
        <ele>4781.4</ele>
        <time>2022-10-25T07:21:34.000Z</time>
      </trkpt>
      <trkpt lat="27.929718" lon="86.804698">
        <ele>4781.6</ele>
        <time>2022-10-25T07:21:42.000Z</time>
      </trkpt>
      <trkpt lat="27.929738" lon="86.80471">
        <ele>4781.8</ele>
        <time>2022-10-25T07:21:47.000Z</time>
      </trkpt>
      <trkpt lat="27.929754" lon="86.804723">
        <ele>4782.6</ele>
        <time>2022-10-25T07:21:55.000Z</time>
      </trkpt>
      <trkpt lat="27.929773" lon="86.804723">
        <ele>4783.2</ele>
        <time>2022-10-25T07:22:03.000Z</time>
      </trkpt>
      <trkpt lat="27.929789" lon="86.804736">
        <ele>4783.8</ele>
        <time>2022-10-25T07:22:08.000Z</time>
      </trkpt>
      <trkpt lat="27.929808" lon="86.804736">
        <ele>4784.6</ele>
        <time>2022-10-25T07:22:16.000Z</time>
      </trkpt>
      <trkpt lat="27.929827" lon="86.804742">
        <ele>4784.6</ele>
        <time>2022-10-25T07:22:21.000Z</time>
      </trkpt>
      <trkpt lat="27.929843" lon="86.804755">
        <ele>4784.8</ele>
        <time>2022-10-25T07:22:25.000Z</time>
      </trkpt>
      <trkpt lat="27.929866" lon="86.804762">
        <ele>4785.8</ele>
        <time>2022-10-25T07:22:31.000Z</time>
      </trkpt>
      <trkpt lat="27.929882" lon="86.804774">
        <ele>4786</ele>
        <time>2022-10-25T07:22:40.000Z</time>
      </trkpt>
      <trkpt lat="27.929901" lon="86.804781">
        <ele>4787</ele>
        <time>2022-10-25T07:22:47.000Z</time>
      </trkpt>
      <trkpt lat="27.929917" lon="86.8048">
        <ele>4787.4</ele>
        <time>2022-10-25T07:22:54.000Z</time>
      </trkpt>
      <trkpt lat="27.929933" lon="86.804819">
        <ele>4787.8</ele>
        <time>2022-10-25T07:23:02.000Z</time>
      </trkpt>
      <trkpt lat="27.929952" lon="86.804826">
        <ele>4788.4</ele>
        <time>2022-10-25T07:23:09.000Z</time>
      </trkpt>
      <trkpt lat="27.929965" lon="86.804845">
        <ele>4789.2</ele>
        <time>2022-10-25T07:23:17.000Z</time>
      </trkpt>
      <trkpt lat="27.929971" lon="86.804864">
        <ele>4789.8</ele>
        <time>2022-10-25T07:23:23.000Z</time>
      </trkpt>
      <trkpt lat="27.929997" lon="86.804883">
        <ele>4791.2</ele>
        <time>2022-10-25T07:23:57.000Z</time>
      </trkpt>
      <trkpt lat="27.930013" lon="86.804902">
        <ele>4791.8</ele>
        <time>2022-10-25T07:24:00.000Z</time>
      </trkpt>
      <trkpt lat="27.930032" lon="86.804915">
        <ele>4791.8</ele>
        <time>2022-10-25T07:24:03.000Z</time>
      </trkpt>
      <trkpt lat="27.930051" lon="86.804934">
        <ele>4792.4</ele>
        <time>2022-10-25T07:24:06.000Z</time>
      </trkpt>
      <trkpt lat="27.93007" lon="86.804922">
        <ele>4792.2</ele>
        <time>2022-10-25T07:24:12.000Z</time>
      </trkpt>
      <trkpt lat="27.93009" lon="86.804922">
        <ele>4792.6</ele>
        <time>2022-10-25T07:24:17.000Z</time>
      </trkpt>
      <trkpt lat="27.930304" lon="86.805107">
        <ele>4805</ele>
        <time>2022-10-25T07:26:57.000Z</time>
      </trkpt>
      <trkpt lat="27.930301" lon="86.805133">
        <ele>4805.2</ele>
        <time>2022-10-25T07:26:59.000Z</time>
      </trkpt>
      <trkpt lat="27.930307" lon="86.805158">
        <ele>4805.8</ele>
        <time>2022-10-25T07:27:02.000Z</time>
      </trkpt>
      <trkpt lat="27.930304" lon="86.805184">
        <ele>4805.4</ele>
        <time>2022-10-25T07:27:04.000Z</time>
      </trkpt>
      <trkpt lat="27.930301" lon="86.805216">
        <ele>4805.8</ele>
        <time>2022-10-25T07:27:09.000Z</time>
      </trkpt>
      <trkpt lat="27.93031" lon="86.805235">
        <ele>4806</ele>
        <time>2022-10-25T07:27:15.000Z</time>
      </trkpt>
      <trkpt lat="27.93033" lon="86.805235">
        <ele>4807.8</ele>
        <time>2022-10-25T07:27:29.000Z</time>
      </trkpt>
      <trkpt lat="27.930349" lon="86.805216">
        <ele>4808.2</ele>
        <time>2022-10-25T07:27:33.000Z</time>
      </trkpt>
      <trkpt lat="27.930362" lon="86.805197">
        <ele>4808</ele>
        <time>2022-10-25T07:27:37.000Z</time>
      </trkpt>
      <trkpt lat="27.930371" lon="86.805178">
        <ele>4808.4</ele>
        <time>2022-10-25T07:27:41.000Z</time>
      </trkpt>
      <trkpt lat="27.930374" lon="86.805152">
        <ele>4808.8</ele>
        <time>2022-10-25T07:27:46.000Z</time>
      </trkpt>
      <trkpt lat="27.93039" lon="86.805139">
        <ele>4809.2</ele>
        <time>2022-10-25T07:27:51.000Z</time>
      </trkpt>
      <trkpt lat="27.9304" lon="86.80512">
        <ele>4809.2</ele>
        <time>2022-10-25T07:27:55.000Z</time>
      </trkpt>
      <trkpt lat="27.930419" lon="86.805107">
        <ele>4809.2</ele>
        <time>2022-10-25T07:28:02.000Z</time>
      </trkpt>
      <trkpt lat="27.930438" lon="86.805107">
        <ele>4809.4</ele>
        <time>2022-10-25T07:28:07.000Z</time>
      </trkpt>
      <trkpt lat="27.930454" lon="86.805133">
        <ele>4810.2</ele>
        <time>2022-10-25T07:28:12.000Z</time>
      </trkpt>
      <trkpt lat="27.930474" lon="86.805133">
        <ele>4810.2</ele>
        <time>2022-10-25T07:28:21.000Z</time>
      </trkpt>
      <trkpt lat="27.930451" lon="86.805114">
        <ele>4809.2</ele>
        <time>2022-10-25T07:30:01.000Z</time>
      </trkpt>
      <trkpt lat="27.930432" lon="86.80512">
        <ele>4809.2</ele>
        <time>2022-10-25T07:30:03.000Z</time>
      </trkpt>
      <trkpt lat="27.930419" lon="86.805139">
        <ele>4809.4</ele>
        <time>2022-10-25T07:30:05.000Z</time>
      </trkpt>
      <trkpt lat="27.9304" lon="86.805146">
        <ele>4809.2</ele>
        <time>2022-10-25T07:30:08.000Z</time>
      </trkpt>
      <trkpt lat="27.930419" lon="86.805133">
        <ele>4809.4</ele>
        <time>2022-10-25T07:30:16.000Z</time>
      </trkpt>
      <trkpt lat="27.930442" lon="86.805133">
        <ele>4810.2</ele>
        <time>2022-10-25T07:30:20.000Z</time>
      </trkpt>
      <trkpt lat="27.930458" lon="86.805152">
        <ele>4812</ele>
        <time>2022-10-25T07:30:25.000Z</time>
      </trkpt>
      <trkpt lat="27.93047" lon="86.805171">
        <ele>4812.6</ele>
        <time>2022-10-25T07:30:52.000Z</time>
      </trkpt>
      <trkpt lat="27.93048" lon="86.805197">
        <ele>4813</ele>
        <time>2022-10-25T07:30:55.000Z</time>
      </trkpt>
      <trkpt lat="27.93049" lon="86.805216">
        <ele>4813</ele>
        <time>2022-10-25T07:30:57.000Z</time>
      </trkpt>
      <trkpt lat="27.930506" lon="86.805229">
        <ele>4813.2</ele>
        <time>2022-10-25T07:30:59.000Z</time>
      </trkpt>
      <trkpt lat="27.930522" lon="86.805242">
        <ele>4813.2</ele>
        <time>2022-10-25T07:31:02.000Z</time>
      </trkpt>
      <trkpt lat="27.930541" lon="86.805235">
        <ele>4813.2</ele>
        <time>2022-10-25T07:31:09.000Z</time>
      </trkpt>
      <trkpt lat="27.93056" lon="86.805242">
        <ele>4814</ele>
        <time>2022-10-25T07:31:15.000Z</time>
      </trkpt>
      <trkpt lat="27.930576" lon="86.805261">
        <ele>4814.8</ele>
        <time>2022-10-25T07:31:20.000Z</time>
      </trkpt>
      <trkpt lat="27.930592" lon="86.805242">
        <ele>4815.2</ele>
        <time>2022-10-25T07:31:28.000Z</time>
      </trkpt>
      <trkpt lat="27.930608" lon="86.805229">
        <ele>4815.8</ele>
        <time>2022-10-25T07:31:37.000Z</time>
      </trkpt>
      <trkpt lat="27.930627" lon="86.805222">
        <ele>4816</ele>
        <time>2022-10-25T07:31:43.000Z</time>
      </trkpt>
      <trkpt lat="27.930646" lon="86.805229">
        <ele>4816.2</ele>
        <time>2022-10-25T07:31:48.000Z</time>
      </trkpt>
      <trkpt lat="27.930662" lon="86.805216">
        <ele>4817.6</ele>
        <time>2022-10-25T07:32:00.000Z</time>
      </trkpt>
      <trkpt lat="27.930669" lon="86.805197">
        <ele>4818.2</ele>
        <time>2022-10-25T07:32:04.000Z</time>
      </trkpt>
      <trkpt lat="27.930688" lon="86.80519">
        <ele>4819.2</ele>
        <time>2022-10-25T07:32:10.000Z</time>
      </trkpt>
      <trkpt lat="27.930707" lon="86.805197">
        <ele>4818.8</ele>
        <time>2022-10-25T07:32:19.000Z</time>
      </trkpt>
      <trkpt lat="27.93087" lon="86.805056">
        <ele>4826.2</ele>
        <time>2022-10-25T07:34:01.000Z</time>
      </trkpt>
      <trkpt lat="27.930886" lon="86.805037">
        <ele>4826.4</ele>
        <time>2022-10-25T07:34:03.000Z</time>
      </trkpt>
      <trkpt lat="27.930902" lon="86.805018">
        <ele>4826.4</ele>
        <time>2022-10-25T07:34:05.000Z</time>
      </trkpt>
      <trkpt lat="27.930918" lon="86.804998">
        <ele>4827.4</ele>
        <time>2022-10-25T07:34:07.000Z</time>
      </trkpt>
      <trkpt lat="27.930934" lon="86.804979">
        <ele>4827.4</ele>
        <time>2022-10-25T07:34:09.000Z</time>
      </trkpt>
      <trkpt lat="27.930941" lon="86.80496">
        <ele>4827.4</ele>
        <time>2022-10-25T07:34:12.000Z</time>
      </trkpt>
      <trkpt lat="27.930963" lon="86.804915">
        <ele>4829</ele>
        <time>2022-10-25T07:35:17.000Z</time>
      </trkpt>
      <trkpt lat="27.930976" lon="86.804864">
        <ele>4828.4</ele>
        <time>2022-10-25T07:35:21.000Z</time>
      </trkpt>
      <trkpt lat="27.930986" lon="86.804838">
        <ele>4828.6</ele>
        <time>2022-10-25T07:35:23.000Z</time>
      </trkpt>
      <trkpt lat="27.930995" lon="86.804806">
        <ele>4828.6</ele>
        <time>2022-10-25T07:35:26.000Z</time>
      </trkpt>
      <trkpt lat="27.931005" lon="86.804787">
        <ele>4829.4</ele>
        <time>2022-10-25T07:35:30.000Z</time>
      </trkpt>
      <trkpt lat="27.931008" lon="86.804762">
        <ele>4829.4</ele>
        <time>2022-10-25T07:35:34.000Z</time>
      </trkpt>
      <trkpt lat="27.931008" lon="86.804736">
        <ele>4829.4</ele>
        <time>2022-10-25T07:35:42.000Z</time>
      </trkpt>
      <trkpt lat="27.931005" lon="86.80471">
        <ele>4831.2</ele>
        <time>2022-10-25T07:35:49.000Z</time>
      </trkpt>
      <trkpt lat="27.930995" lon="86.804685">
        <ele>4831.2</ele>
        <time>2022-10-25T07:35:56.000Z</time>
      </trkpt>
      <trkpt lat="27.930995" lon="86.804659">
        <ele>4833</ele>
        <time>2022-10-25T07:36:03.000Z</time>
      </trkpt>
      <trkpt lat="27.930986" lon="86.80464">
        <ele>4834</ele>
        <time>2022-10-25T07:37:16.000Z</time>
      </trkpt>
      <trkpt lat="27.930998" lon="86.804614">
        <ele>4834.6</ele>
        <time>2022-10-25T07:37:18.000Z</time>
      </trkpt>
      <trkpt lat="27.931005" lon="86.804589">
        <ele>4834.6</ele>
        <time>2022-10-25T07:37:20.000Z</time>
      </trkpt>
      <trkpt lat="27.931024" lon="86.804563">
        <ele>4834.6</ele>
        <time>2022-10-25T07:37:23.000Z</time>
      </trkpt>
      <trkpt lat="27.931037" lon="86.804544">
        <ele>4834.8</ele>
        <time>2022-10-25T07:37:25.000Z</time>
      </trkpt>
      <trkpt lat="27.931046" lon="86.804525">
        <ele>4834.4</ele>
        <time>2022-10-25T07:37:28.000Z</time>
      </trkpt>
      <trkpt lat="27.931046" lon="86.804499">
        <ele>4834</ele>
        <time>2022-10-25T07:37:37.000Z</time>
      </trkpt>
      <trkpt lat="27.931053" lon="86.80448">
        <ele>4834</ele>
        <time>2022-10-25T07:37:39.000Z</time>
      </trkpt>
      <trkpt lat="27.931062" lon="86.804461">
        <ele>4834</ele>
        <time>2022-10-25T07:37:45.000Z</time>
      </trkpt>
      <trkpt lat="27.931043" lon="86.804448">
        <ele>4833.8</ele>
        <time>2022-10-25T07:38:33.000Z</time>
      </trkpt>
      <trkpt lat="27.931024" lon="86.804461">
        <ele>4833.4</ele>
        <time>2022-10-25T07:38:35.000Z</time>
      </trkpt>
      <trkpt lat="27.931005" lon="86.804474">
        <ele>4833.8</ele>
        <time>2022-10-25T07:38:37.000Z</time>
      </trkpt>
      <trkpt lat="27.930982" lon="86.804474">
        <ele>4833.8</ele>
        <time>2022-10-25T07:38:39.000Z</time>
      </trkpt>
      <trkpt lat="27.930963" lon="86.804474">
        <ele>4833.2</ele>
        <time>2022-10-25T07:38:42.000Z</time>
      </trkpt>
      <trkpt lat="27.930944" lon="86.804467">
        <ele>4833.2</ele>
        <time>2022-10-25T07:38:47.000Z</time>
      </trkpt>
      <trkpt lat="27.930928" lon="86.80448">
        <ele>4833.4</ele>
        <time>2022-10-25T07:38:51.000Z</time>
      </trkpt>
      <trkpt lat="27.93095" lon="86.804467">
        <ele>4833.8</ele>
        <time>2022-10-25T07:40:52.000Z</time>
      </trkpt>
      <trkpt lat="27.93097" lon="86.804461">
        <ele>4833.8</ele>
        <time>2022-10-25T07:40:54.000Z</time>
      </trkpt>
      <trkpt lat="27.930995" lon="86.804461">
        <ele>4834</ele>
        <time>2022-10-25T07:40:57.000Z</time>
      </trkpt>
      <trkpt lat="27.931014" lon="86.804461">
        <ele>4834</ele>
        <time>2022-10-25T07:41:00.000Z</time>
      </trkpt>
      <trkpt lat="27.931037" lon="86.804467">
        <ele>4834</ele>
        <time>2022-10-25T07:41:04.000Z</time>
      </trkpt>
      <trkpt lat="27.931056" lon="86.80448">
        <ele>4834.6</ele>
        <time>2022-10-25T07:41:07.000Z</time>
      </trkpt>
      <trkpt lat="27.931075" lon="86.804486">
        <ele>4834.8</ele>
        <time>2022-10-25T07:41:11.000Z</time>
      </trkpt>
      <trkpt lat="27.931094" lon="86.804499">
        <ele>4834.8</ele>
        <time>2022-10-25T07:41:14.000Z</time>
      </trkpt>
      <trkpt lat="27.931114" lon="86.804486">
        <ele>4834.8</ele>
        <time>2022-10-25T07:41:17.000Z</time>
      </trkpt>
      <trkpt lat="27.931136" lon="86.804486">
        <ele>4835</ele>
        <time>2022-10-25T07:41:20.000Z</time>
      </trkpt>
      <trkpt lat="27.931155" lon="86.804486">
        <ele>4835</ele>
        <time>2022-10-25T07:41:23.000Z</time>
      </trkpt>
      <trkpt lat="27.931165" lon="86.804506">
        <ele>4835</ele>
        <time>2022-10-25T07:41:26.000Z</time>
      </trkpt>
      <trkpt lat="27.931174" lon="86.804525">
        <ele>4834.8</ele>
        <time>2022-10-25T07:41:30.000Z</time>
      </trkpt>
      <trkpt lat="27.931181" lon="86.804544">
        <ele>4835</ele>
        <time>2022-10-25T07:41:33.000Z</time>
      </trkpt>
      <trkpt lat="27.93119" lon="86.804563">
        <ele>4835.8</ele>
        <time>2022-10-25T07:41:38.000Z</time>
      </trkpt>
      <trkpt lat="27.931197" lon="86.804582">
        <ele>4835.8</ele>
        <time>2022-10-25T07:41:42.000Z</time>
      </trkpt>
      <trkpt lat="27.931213" lon="86.804602">
        <ele>4836.6</ele>
        <time>2022-10-25T07:41:46.000Z</time>
      </trkpt>
      <trkpt lat="27.931219" lon="86.804621">
        <ele>4836.2</ele>
        <time>2022-10-25T07:41:50.000Z</time>
      </trkpt>
      <trkpt lat="27.931229" lon="86.80464">
        <ele>4837.4</ele>
        <time>2022-10-25T07:41:53.000Z</time>
      </trkpt>
      <trkpt lat="27.931235" lon="86.804621">
        <ele>4835.2</ele>
        <time>2022-10-25T07:45:03.000Z</time>
      </trkpt>
      <trkpt lat="27.931222" lon="86.804595">
        <ele>4835.2</ele>
        <time>2022-10-25T07:45:05.000Z</time>
      </trkpt>
      <trkpt lat="27.931206" lon="86.804582">
        <ele>4834.2</ele>
        <time>2022-10-25T07:45:08.000Z</time>
      </trkpt>
      <trkpt lat="27.931187" lon="86.804595">
        <ele>4835</ele>
        <time>2022-10-25T07:45:11.000Z</time>
      </trkpt>
      <trkpt lat="27.931168" lon="86.804614">
        <ele>4834.4</ele>
        <time>2022-10-25T07:45:13.000Z</time>
      </trkpt>
      <trkpt lat="27.931146" lon="86.804634">
        <ele>4834.2</ele>
        <time>2022-10-25T07:45:16.000Z</time>
      </trkpt>
      <trkpt lat="27.931123" lon="86.804646">
        <ele>4835</ele>
        <time>2022-10-25T07:45:19.000Z</time>
      </trkpt>
      <trkpt lat="27.931107" lon="86.804659">
        <ele>4835.8</ele>
        <time>2022-10-25T07:45:25.000Z</time>
      </trkpt>
      <trkpt lat="27.931114" lon="86.804634">
        <ele>4835.4</ele>
        <time>2022-10-25T07:46:40.000Z</time>
      </trkpt>
      <trkpt lat="27.931136" lon="86.804614">
        <ele>4835.2</ele>
        <time>2022-10-25T07:46:42.000Z</time>
      </trkpt>
      <trkpt lat="27.931142" lon="86.804595">
        <ele>4835.2</ele>
        <time>2022-10-25T07:46:43.000Z</time>
      </trkpt>
      <trkpt lat="27.931142" lon="86.804563">
        <ele>4834.8</ele>
        <time>2022-10-25T07:46:45.000Z</time>
      </trkpt>
      <trkpt lat="27.931136" lon="86.804538">
        <ele>4834.8</ele>
        <time>2022-10-25T07:46:47.000Z</time>
      </trkpt>
      <trkpt lat="27.931133" lon="86.804512">
        <ele>4834.6</ele>
        <time>2022-10-25T07:46:49.000Z</time>
      </trkpt>
      <trkpt lat="27.931114" lon="86.804518">
        <ele>4834.4</ele>
        <time>2022-10-25T07:46:52.000Z</time>
      </trkpt>
      <trkpt lat="27.931101" lon="86.804538">
        <ele>4834.8</ele>
        <time>2022-10-25T07:47:05.000Z</time>
      </trkpt>
      <trkpt lat="27.931088" lon="86.804563">
        <ele>4834.8</ele>
        <time>2022-10-25T07:47:07.000Z</time>
      </trkpt>
      <trkpt lat="27.931075" lon="86.804589">
        <ele>4835.2</ele>
        <time>2022-10-25T07:47:09.000Z</time>
      </trkpt>
      <trkpt lat="27.931056" lon="86.804614">
        <ele>4835.4</ele>
        <time>2022-10-25T07:47:11.000Z</time>
      </trkpt>
      <trkpt lat="27.931034" lon="86.804621">
        <ele>4835</ele>
        <time>2022-10-25T07:47:13.000Z</time>
      </trkpt>
      <trkpt lat="27.931024" lon="86.804602">
        <ele>4836.4</ele>
        <time>2022-10-25T07:47:27.000Z</time>
      </trkpt>
      <trkpt lat="27.931037" lon="86.804582">
        <ele>4834.8</ele>
        <time>2022-10-25T07:48:23.000Z</time>
      </trkpt>
      <trkpt lat="27.931059" lon="86.804563">
        <ele>4834.4</ele>
        <time>2022-10-25T07:48:25.000Z</time>
      </trkpt>
      <trkpt lat="27.931078" lon="86.80455">
        <ele>4834.2</ele>
        <time>2022-10-25T07:48:27.000Z</time>
      </trkpt>
      <trkpt lat="27.931094" lon="86.804525">
        <ele>4834</ele>
        <time>2022-10-25T07:48:29.000Z</time>
      </trkpt>
      <trkpt lat="27.93111" lon="86.804512">
        <ele>4834.2</ele>
        <time>2022-10-25T07:48:31.000Z</time>
      </trkpt>
      <trkpt lat="27.931133" lon="86.804506">
        <ele>4834.4</ele>
        <time>2022-10-25T07:48:35.000Z</time>
      </trkpt>
      <trkpt lat="27.931107" lon="86.804499">
        <ele>4832.4</ele>
        <time>2022-10-25T07:58:18.000Z</time>
      </trkpt>
      <trkpt lat="27.931123" lon="86.804486">
        <ele>4832.6</ele>
        <time>2022-10-25T07:58:19.000Z</time>
      </trkpt>
      <trkpt lat="27.931152" lon="86.80448">
        <ele>4832.6</ele>
        <time>2022-10-25T07:58:21.000Z</time>
      </trkpt>
      <trkpt lat="27.931178" lon="86.80448">
        <ele>4832.6</ele>
        <time>2022-10-25T07:58:23.000Z</time>
      </trkpt>
      <trkpt lat="27.9312" lon="86.80448">
        <ele>4832.4</ele>
        <time>2022-10-25T07:58:25.000Z</time>
      </trkpt>
      <trkpt lat="27.931219" lon="86.80448">
        <ele>4832.4</ele>
        <time>2022-10-25T07:58:29.000Z</time>
      </trkpt>
      <trkpt lat="27.931226" lon="86.804461">
        <ele>4832.6</ele>
        <time>2022-10-25T07:58:35.000Z</time>
      </trkpt>
      <trkpt lat="27.931232" lon="86.804442">
        <ele>4832.8</ele>
        <time>2022-10-25T07:58:37.000Z</time>
      </trkpt>
      <trkpt lat="27.931258" lon="86.804442">
        <ele>4832.6</ele>
        <time>2022-10-25T07:58:40.000Z</time>
      </trkpt>
      <trkpt lat="27.931286" lon="86.804461">
        <ele>4833</ele>
        <time>2022-10-25T07:59:24.000Z</time>
      </trkpt>
      <trkpt lat="27.931315" lon="86.804461">
        <ele>4833</ele>
        <time>2022-10-25T07:59:26.000Z</time>
      </trkpt>
      <trkpt lat="27.931341" lon="86.804467">
        <ele>4833.2</ele>
        <time>2022-10-25T07:59:28.000Z</time>
      </trkpt>
      <trkpt lat="27.931366" lon="86.804474">
        <ele>4833.4</ele>
        <time>2022-10-25T07:59:30.000Z</time>
      </trkpt>
      <trkpt lat="27.931392" lon="86.80448">
        <ele>4833.2</ele>
        <time>2022-10-25T07:59:32.000Z</time>
      </trkpt>
      <trkpt lat="27.931408" lon="86.804499">
        <ele>4833.6</ele>
        <time>2022-10-25T07:59:35.000Z</time>
      </trkpt>
      <trkpt lat="27.931424" lon="86.804512">
        <ele>4834</ele>
        <time>2022-10-25T07:59:38.000Z</time>
      </trkpt>
      <trkpt lat="27.93143" lon="86.804486">
        <ele>4833.6</ele>
        <time>2022-10-25T07:59:48.000Z</time>
      </trkpt>
      <trkpt lat="27.931446" lon="86.804467">
        <ele>4834</ele>
        <time>2022-10-25T07:59:52.000Z</time>
      </trkpt>
      <trkpt lat="27.931494" lon="86.804435">
        <ele>4834.8</ele>
        <time>2022-10-25T08:00:33.000Z</time>
      </trkpt>
      <trkpt lat="27.931514" lon="86.804435">
        <ele>4835.2</ele>
        <time>2022-10-25T08:00:35.000Z</time>
      </trkpt>
      <trkpt lat="27.931536" lon="86.804429">
        <ele>4835.4</ele>
        <time>2022-10-25T08:00:37.000Z</time>
      </trkpt>
      <trkpt lat="27.931555" lon="86.804422">
        <ele>4835.2</ele>
        <time>2022-10-25T08:00:39.000Z</time>
      </trkpt>
      <trkpt lat="27.931578" lon="86.804403">
        <ele>4835.2</ele>
        <time>2022-10-25T08:00:41.000Z</time>
      </trkpt>
      <trkpt lat="27.9316" lon="86.804403">
        <ele>4835.2</ele>
        <time>2022-10-25T08:00:44.000Z</time>
      </trkpt>
      <trkpt lat="27.931619" lon="86.804403">
        <ele>4836</ele>
        <time>2022-10-25T08:00:47.000Z</time>
      </trkpt>
      <trkpt lat="27.931638" lon="86.804416">
        <ele>4836.4</ele>
        <time>2022-10-25T08:00:51.000Z</time>
      </trkpt>
      <trkpt lat="27.931654" lon="86.804397">
        <ele>4836.4</ele>
        <time>2022-10-25T08:00:56.000Z</time>
      </trkpt>
      <trkpt lat="27.931702" lon="86.804378">
        <ele>4837.8</ele>
        <time>2022-10-25T08:02:02.000Z</time>
      </trkpt>
      <trkpt lat="27.931725" lon="86.804378">
        <ele>4837.8</ele>
        <time>2022-10-25T08:02:04.000Z</time>
      </trkpt>
      <trkpt lat="27.931747" lon="86.804378">
        <ele>4838</ele>
        <time>2022-10-25T08:02:06.000Z</time>
      </trkpt>
      <trkpt lat="27.93177" lon="86.804378">
        <ele>4838.4</ele>
        <time>2022-10-25T08:02:08.000Z</time>
      </trkpt>
      <trkpt lat="27.931789" lon="86.804384">
        <ele>4838.6</ele>
        <time>2022-10-25T08:02:10.000Z</time>
      </trkpt>
      <trkpt lat="27.931808" lon="86.804384">
        <ele>4838.6</ele>
        <time>2022-10-25T08:02:13.000Z</time>
      </trkpt>
      <trkpt lat="27.931814" lon="86.804365">
        <ele>4839.4</ele>
        <time>2022-10-25T08:02:17.000Z</time>
      </trkpt>
      <trkpt lat="27.931821" lon="86.804346">
        <ele>4840</ele>
        <time>2022-10-25T08:02:21.000Z</time>
      </trkpt>
      <trkpt lat="27.931827" lon="86.804326">
        <ele>4839.6</ele>
        <time>2022-10-25T08:02:23.000Z</time>
      </trkpt>
      <trkpt lat="27.931846" lon="86.804314">
        <ele>4840.2</ele>
        <time>2022-10-25T08:02:27.000Z</time>
      </trkpt>
      <trkpt lat="27.931862" lon="86.804301">
        <ele>4839.6</ele>
        <time>2022-10-25T08:02:31.000Z</time>
      </trkpt>
      <trkpt lat="27.931869" lon="86.804282">
        <ele>4839.6</ele>
        <time>2022-10-25T08:02:33.000Z</time>
      </trkpt>
      <trkpt lat="27.931891" lon="86.804275">
        <ele>4839.6</ele>
        <time>2022-10-25T08:02:42.000Z</time>
      </trkpt>
      <trkpt lat="27.931914" lon="86.804269">
        <ele>4839.4</ele>
        <time>2022-10-25T08:02:45.000Z</time>
      </trkpt>
      <trkpt lat="27.931936" lon="86.804282">
        <ele>4839</ele>
        <time>2022-10-25T08:02:49.000Z</time>
      </trkpt>
      <trkpt lat="27.931958" lon="86.804275">
        <ele>4839</ele>
        <time>2022-10-25T08:02:52.000Z</time>
      </trkpt>
      <trkpt lat="27.931968" lon="86.804243">
        <ele>4838.8</ele>
        <time>2022-10-25T08:02:55.000Z</time>
      </trkpt>
      <trkpt lat="27.93199" lon="86.80423">
        <ele>4838.2</ele>
        <time>2022-10-25T08:02:58.000Z</time>
      </trkpt>
      <trkpt lat="27.932013" lon="86.804224">
        <ele>4838</ele>
        <time>2022-10-25T08:03:00.000Z</time>
      </trkpt>
      <trkpt lat="27.932032" lon="86.804205">
        <ele>4837.6</ele>
        <time>2022-10-25T08:03:03.000Z</time>
      </trkpt>
      <trkpt lat="27.932048" lon="86.804186">
        <ele>4836.8</ele>
        <time>2022-10-25T08:03:06.000Z</time>
      </trkpt>
      <trkpt lat="27.932054" lon="86.80416">
        <ele>4836.6</ele>
        <time>2022-10-25T08:03:08.000Z</time>
      </trkpt>
      <trkpt lat="27.932061" lon="86.804141">
        <ele>4836.2</ele>
        <time>2022-10-25T08:03:10.000Z</time>
      </trkpt>
      <trkpt lat="27.93207" lon="86.804122">
        <ele>4836</ele>
        <time>2022-10-25T08:03:12.000Z</time>
      </trkpt>
      <trkpt lat="27.932086" lon="86.804102">
        <ele>4836.6</ele>
        <time>2022-10-25T08:03:15.000Z</time>
      </trkpt>
      <trkpt lat="27.932096" lon="86.804083">
        <ele>4837</ele>
        <time>2022-10-25T08:03:17.000Z</time>
      </trkpt>
      <trkpt lat="27.932115" lon="86.804077">
        <ele>4838</ele>
        <time>2022-10-25T08:03:19.000Z</time>
      </trkpt>
      <trkpt lat="27.932134" lon="86.80407">
        <ele>4837</ele>
        <time>2022-10-25T08:03:22.000Z</time>
      </trkpt>
      <trkpt lat="27.93216" lon="86.80407">
        <ele>4837.4</ele>
        <time>2022-10-25T08:03:26.000Z</time>
      </trkpt>
      <trkpt lat="27.932182" lon="86.804064">
        <ele>4837.6</ele>
        <time>2022-10-25T08:03:29.000Z</time>
      </trkpt>
      <trkpt lat="27.932198" lon="86.804051">
        <ele>4838.4</ele>
        <time>2022-10-25T08:03:33.000Z</time>
      </trkpt>
      <trkpt lat="27.932218" lon="86.804038">
        <ele>4837.8</ele>
        <time>2022-10-25T08:03:36.000Z</time>
      </trkpt>
      <trkpt lat="27.932237" lon="86.804026">
        <ele>4838.6</ele>
        <time>2022-10-25T08:03:40.000Z</time>
      </trkpt>
      <trkpt lat="27.932256" lon="86.804019">
        <ele>4838.6</ele>
        <time>2022-10-25T08:03:43.000Z</time>
      </trkpt>
      <trkpt lat="27.932266" lon="86.803994">
        <ele>4838.8</ele>
        <time>2022-10-25T08:03:46.000Z</time>
      </trkpt>
      <trkpt lat="27.932278" lon="86.803968">
        <ele>4839.2</ele>
        <time>2022-10-25T08:03:51.000Z</time>
      </trkpt>
      <trkpt lat="27.932301" lon="86.803968">
        <ele>4839.4</ele>
        <time>2022-10-25T08:03:55.000Z</time>
      </trkpt>
      <trkpt lat="27.932317" lon="86.803981">
        <ele>4839.8</ele>
        <time>2022-10-25T08:03:59.000Z</time>
      </trkpt>
      <trkpt lat="27.932336" lon="86.803968">
        <ele>4840</ele>
        <time>2022-10-25T08:04:03.000Z</time>
      </trkpt>
      <trkpt lat="27.932355" lon="86.803962">
        <ele>4840.8</ele>
        <time>2022-10-25T08:04:08.000Z</time>
      </trkpt>
      <trkpt lat="27.932374" lon="86.803955">
        <ele>4841.4</ele>
        <time>2022-10-25T08:04:13.000Z</time>
      </trkpt>
      <trkpt lat="27.932394" lon="86.803962">
        <ele>4841</ele>
        <time>2022-10-25T08:04:17.000Z</time>
      </trkpt>
      <trkpt lat="27.932416" lon="86.803955">
        <ele>4842.4</ele>
        <time>2022-10-25T08:04:23.000Z</time>
      </trkpt>
      <trkpt lat="27.932435" lon="86.803949">
        <ele>4843.2</ele>
        <time>2022-10-25T08:04:28.000Z</time>
      </trkpt>
      <trkpt lat="27.932448" lon="86.80393">
        <ele>4843</ele>
        <time>2022-10-25T08:04:33.000Z</time>
      </trkpt>
      <trkpt lat="27.932464" lon="86.803917">
        <ele>4843.4</ele>
        <time>2022-10-25T08:04:39.000Z</time>
      </trkpt>
      <trkpt lat="27.932483" lon="86.80391">
        <ele>4844</ele>
        <time>2022-10-25T08:04:44.000Z</time>
      </trkpt>
      <trkpt lat="27.932502" lon="86.80391">
        <ele>4844.4</ele>
        <time>2022-10-25T08:04:48.000Z</time>
      </trkpt>
      <trkpt lat="27.932522" lon="86.80391">
        <ele>4844.2</ele>
        <time>2022-10-25T08:04:53.000Z</time>
      </trkpt>
      <trkpt lat="27.932534" lon="86.803891">
        <ele>4845.4</ele>
        <time>2022-10-25T08:04:57.000Z</time>
      </trkpt>
      <trkpt lat="27.932573" lon="86.803885">
        <ele>4845.6</ele>
        <time>2022-10-25T08:05:05.000Z</time>
      </trkpt>
      <trkpt lat="27.932595" lon="86.803878">
        <ele>4846.8</ele>
        <time>2022-10-25T08:05:10.000Z</time>
      </trkpt>
      <trkpt lat="27.932614" lon="86.803878">
        <ele>4847</ele>
        <time>2022-10-25T08:05:14.000Z</time>
      </trkpt>
      <trkpt lat="27.932634" lon="86.803878">
        <ele>4847.2</ele>
        <time>2022-10-25T08:05:18.000Z</time>
      </trkpt>
      <trkpt lat="27.932653" lon="86.803878">
        <ele>4847.2</ele>
        <time>2022-10-25T08:05:22.000Z</time>
      </trkpt>
      <trkpt lat="27.932672" lon="86.803885">
        <ele>4847.2</ele>
        <time>2022-10-25T08:05:25.000Z</time>
      </trkpt>
      <trkpt lat="27.932691" lon="86.803885">
        <ele>4847.8</ele>
        <time>2022-10-25T08:05:30.000Z</time>
      </trkpt>
      <trkpt lat="27.932714" lon="86.803878">
        <ele>4847.8</ele>
        <time>2022-10-25T08:05:34.000Z</time>
      </trkpt>
      <trkpt lat="27.932755" lon="86.803878">
        <ele>4848.4</ele>
        <time>2022-10-25T08:05:42.000Z</time>
      </trkpt>
      <trkpt lat="27.932771" lon="86.803891">
        <ele>4848.4</ele>
        <time>2022-10-25T08:05:46.000Z</time>
      </trkpt>
      <trkpt lat="27.93279" lon="86.803891">
        <ele>4849.2</ele>
        <time>2022-10-25T08:05:49.000Z</time>
      </trkpt>
      <trkpt lat="27.932813" lon="86.803904">
        <ele>4849.4</ele>
        <time>2022-10-25T08:05:53.000Z</time>
      </trkpt>
      <trkpt lat="27.932832" lon="86.803904">
        <ele>4850.2</ele>
        <time>2022-10-25T08:05:57.000Z</time>
      </trkpt>
      <trkpt lat="27.932851" lon="86.803904">
        <ele>4850.6</ele>
        <time>2022-10-25T08:06:01.000Z</time>
      </trkpt>
      <trkpt lat="27.93287" lon="86.803885">
        <ele>4850</ele>
        <time>2022-10-25T08:06:04.000Z</time>
      </trkpt>
      <trkpt lat="27.932893" lon="86.803885">
        <ele>4850</ele>
        <time>2022-10-25T08:06:08.000Z</time>
      </trkpt>
      <trkpt lat="27.932912" lon="86.803885">
        <ele>4849.4</ele>
        <time>2022-10-25T08:06:11.000Z</time>
      </trkpt>
      <trkpt lat="27.932934" lon="86.803885">
        <ele>4849.4</ele>
        <time>2022-10-25T08:06:15.000Z</time>
      </trkpt>
      <trkpt lat="27.93296" lon="86.803878">
        <ele>4849.4</ele>
        <time>2022-10-25T08:06:20.000Z</time>
      </trkpt>
      <trkpt lat="27.932979" lon="86.803866">
        <ele>4849.4</ele>
        <time>2022-10-25T08:06:25.000Z</time>
      </trkpt>
      <trkpt lat="27.932995" lon="86.803853">
        <ele>4849.8</ele>
        <time>2022-10-25T08:06:30.000Z</time>
      </trkpt>
      <trkpt lat="27.933011" lon="86.80384">
        <ele>4849.8</ele>
        <time>2022-10-25T08:06:34.000Z</time>
      </trkpt>
      <trkpt lat="27.93303" lon="86.803834">
        <ele>4850.2</ele>
        <time>2022-10-25T08:06:39.000Z</time>
      </trkpt>
      <trkpt lat="27.93305" lon="86.803846">
        <ele>4850</ele>
        <time>2022-10-25T08:06:44.000Z</time>
      </trkpt>
      <trkpt lat="27.933069" lon="86.803853">
        <ele>4850.8</ele>
        <time>2022-10-25T08:06:48.000Z</time>
      </trkpt>
      <trkpt lat="27.933091" lon="86.803853">
        <ele>4851.4</ele>
        <time>2022-10-25T08:06:53.000Z</time>
      </trkpt>
      <trkpt lat="27.93311" lon="86.803872">
        <ele>4851.4</ele>
        <time>2022-10-25T08:06:57.000Z</time>
      </trkpt>
      <trkpt lat="27.93313" lon="86.803878">
        <ele>4851</ele>
        <time>2022-10-25T08:07:00.000Z</time>
      </trkpt>
      <trkpt lat="27.933149" lon="86.803885">
        <ele>4851.6</ele>
        <time>2022-10-25T08:07:04.000Z</time>
      </trkpt>
      <trkpt lat="27.933162" lon="86.803904">
        <ele>4851.8</ele>
        <time>2022-10-25T08:07:07.000Z</time>
      </trkpt>
      <trkpt lat="27.933178" lon="86.803923">
        <ele>4852.2</ele>
        <time>2022-10-25T08:07:13.000Z</time>
      </trkpt>
      <trkpt lat="27.933187" lon="86.803942">
        <ele>4852.6</ele>
        <time>2022-10-25T08:07:16.000Z</time>
      </trkpt>
      <trkpt lat="27.93321" lon="86.803955">
        <ele>4852.6</ele>
        <time>2022-10-25T08:07:21.000Z</time>
      </trkpt>
      <trkpt lat="27.933226" lon="86.803968">
        <ele>4853.2</ele>
        <time>2022-10-25T08:07:25.000Z</time>
      </trkpt>
      <trkpt lat="27.933242" lon="86.803987">
        <ele>4853</ele>
        <time>2022-10-25T08:07:29.000Z</time>
      </trkpt>
      <trkpt lat="27.933261" lon="86.803994">
        <ele>4853.4</ele>
        <time>2022-10-25T08:07:34.000Z</time>
      </trkpt>
      <trkpt lat="27.93328" lon="86.803994">
        <ele>4853.8</ele>
        <time>2022-10-25T08:07:38.000Z</time>
      </trkpt>
      <trkpt lat="27.933299" lon="86.804">
        <ele>4854.2</ele>
        <time>2022-10-25T08:07:44.000Z</time>
      </trkpt>
      <trkpt lat="27.933318" lon="86.803981">
        <ele>4855.4</ele>
        <time>2022-10-25T08:07:50.000Z</time>
      </trkpt>
      <trkpt lat="27.933334" lon="86.803962">
        <ele>4856.2</ele>
        <time>2022-10-25T08:07:55.000Z</time>
      </trkpt>
      <trkpt lat="27.933354" lon="86.803968">
        <ele>4856.4</ele>
        <time>2022-10-25T08:08:00.000Z</time>
      </trkpt>
      <trkpt lat="27.93337" lon="86.803981">
        <ele>4856.2</ele>
        <time>2022-10-25T08:08:04.000Z</time>
      </trkpt>
      <trkpt lat="27.933382" lon="86.804">
        <ele>4857.2</ele>
        <time>2022-10-25T08:08:08.000Z</time>
      </trkpt>
      <trkpt lat="27.933402" lon="86.804006">
        <ele>4858</ele>
        <time>2022-10-25T08:08:12.000Z</time>
      </trkpt>
      <trkpt lat="27.933421" lon="86.804006">
        <ele>4858</ele>
        <time>2022-10-25T08:08:17.000Z</time>
      </trkpt>
      <trkpt lat="27.93344" lon="86.804026">
        <ele>4857.4</ele>
        <time>2022-10-25T08:08:21.000Z</time>
      </trkpt>
      <trkpt lat="27.933456" lon="86.804045">
        <ele>4857.2</ele>
        <time>2022-10-25T08:08:26.000Z</time>
      </trkpt>
      <trkpt lat="27.933475" lon="86.804051">
        <ele>4857.2</ele>
        <time>2022-10-25T08:08:31.000Z</time>
      </trkpt>
      <trkpt lat="27.933491" lon="86.804064">
        <ele>4857.4</ele>
        <time>2022-10-25T08:08:35.000Z</time>
      </trkpt>
      <trkpt lat="27.933504" lon="86.804083">
        <ele>4858</ele>
        <time>2022-10-25T08:08:39.000Z</time>
      </trkpt>
      <trkpt lat="27.93351" lon="86.804102">
        <ele>4858.2</ele>
        <time>2022-10-25T08:08:42.000Z</time>
      </trkpt>
      <trkpt lat="27.933526" lon="86.804115">
        <ele>4859</ele>
        <time>2022-10-25T08:08:46.000Z</time>
      </trkpt>
      <trkpt lat="27.933546" lon="86.804141">
        <ele>4859</ele>
        <time>2022-10-25T08:08:51.000Z</time>
      </trkpt>
      <trkpt lat="27.933555" lon="86.80416">
        <ele>4858.8</ele>
        <time>2022-10-25T08:08:55.000Z</time>
      </trkpt>
      <trkpt lat="27.933562" lon="86.804179">
        <ele>4858.6</ele>
        <time>2022-10-25T08:08:57.000Z</time>
      </trkpt>
      <trkpt lat="27.933578" lon="86.804198">
        <ele>4858.8</ele>
        <time>2022-10-25T08:09:06.000Z</time>
      </trkpt>
      <trkpt lat="27.933584" lon="86.804218">
        <ele>4858.6</ele>
        <time>2022-10-25T08:09:09.000Z</time>
      </trkpt>
      <trkpt lat="27.93359" lon="86.804243">
        <ele>4857.8</ele>
        <time>2022-10-25T08:09:42.000Z</time>
      </trkpt>
      <trkpt lat="27.933597" lon="86.804269">
        <ele>4857.8</ele>
        <time>2022-10-25T08:09:45.000Z</time>
      </trkpt>
      <trkpt lat="27.933622" lon="86.804288">
        <ele>4857.4</ele>
        <time>2022-10-25T08:09:48.000Z</time>
      </trkpt>
      <trkpt lat="27.933638" lon="86.804307">
        <ele>4857.2</ele>
        <time>2022-10-25T08:09:50.000Z</time>
      </trkpt>
      <trkpt lat="27.933648" lon="86.804326">
        <ele>4857.2</ele>
        <time>2022-10-25T08:09:53.000Z</time>
      </trkpt>
      <trkpt lat="27.933661" lon="86.804346">
        <ele>4857</ele>
        <time>2022-10-25T08:09:57.000Z</time>
      </trkpt>
      <trkpt lat="27.933677" lon="86.804358">
        <ele>4856.6</ele>
        <time>2022-10-25T08:10:00.000Z</time>
      </trkpt>
      <trkpt lat="27.933696" lon="86.804365">
        <ele>4856.6</ele>
        <time>2022-10-25T08:10:03.000Z</time>
      </trkpt>
      <trkpt lat="27.933706" lon="86.804384">
        <ele>4856.4</ele>
        <time>2022-10-25T08:10:04.000Z</time>
      </trkpt>
      <trkpt lat="27.933718" lon="86.804403">
        <ele>4855.8</ele>
        <time>2022-10-25T08:10:06.000Z</time>
      </trkpt>
      <trkpt lat="27.933744" lon="86.804416">
        <ele>4857</ele>
        <time>2022-10-25T08:10:09.000Z</time>
      </trkpt>
      <trkpt lat="27.933763" lon="86.804429">
        <ele>4856.6</ele>
        <time>2022-10-25T08:10:12.000Z</time>
      </trkpt>
      <trkpt lat="27.933782" lon="86.804435">
        <ele>4857</ele>
        <time>2022-10-25T08:10:14.000Z</time>
      </trkpt>
      <trkpt lat="27.933798" lon="86.804448">
        <ele>4857</ele>
        <time>2022-10-25T08:10:17.000Z</time>
      </trkpt>
      <trkpt lat="27.933814" lon="86.804467">
        <ele>4857</ele>
        <time>2022-10-25T08:10:24.000Z</time>
      </trkpt>
      <trkpt lat="27.933834" lon="86.80448">
        <ele>4857.2</ele>
        <time>2022-10-25T08:10:27.000Z</time>
      </trkpt>
      <trkpt lat="27.933843" lon="86.804499">
        <ele>4857.4</ele>
        <time>2022-10-25T08:10:29.000Z</time>
      </trkpt>
      <trkpt lat="27.933856" lon="86.804518">
        <ele>4857.4</ele>
        <time>2022-10-25T08:10:31.000Z</time>
      </trkpt>
      <trkpt lat="27.933859" lon="86.804544">
        <ele>4857.2</ele>
        <time>2022-10-25T08:10:34.000Z</time>
      </trkpt>
      <trkpt lat="27.933862" lon="86.804576">
        <ele>4857.8</ele>
        <time>2022-10-25T08:10:41.000Z</time>
      </trkpt>
      <trkpt lat="27.933875" lon="86.804595">
        <ele>4857.8</ele>
        <time>2022-10-25T08:10:44.000Z</time>
      </trkpt>
      <trkpt lat="27.933891" lon="86.804614">
        <ele>4857.4</ele>
        <time>2022-10-25T08:10:46.000Z</time>
      </trkpt>
      <trkpt lat="27.933907" lon="86.804627">
        <ele>4857.4</ele>
        <time>2022-10-25T08:10:48.000Z</time>
      </trkpt>
      <trkpt lat="27.933926" lon="86.804634">
        <ele>4857.8</ele>
        <time>2022-10-25T08:10:50.000Z</time>
      </trkpt>
      <trkpt lat="27.933949" lon="86.804634">
        <ele>4857.2</ele>
        <time>2022-10-25T08:10:53.000Z</time>
      </trkpt>
      <trkpt lat="27.933968" lon="86.804627">
        <ele>4856.4</ele>
        <time>2022-10-25T08:10:55.000Z</time>
      </trkpt>
      <trkpt lat="27.93399" lon="86.804627">
        <ele>4855.8</ele>
        <time>2022-10-25T08:10:57.000Z</time>
      </trkpt>
      <trkpt lat="27.93401" lon="86.804627">
        <ele>4855.4</ele>
        <time>2022-10-25T08:10:59.000Z</time>
      </trkpt>
      <trkpt lat="27.934032" lon="86.804627">
        <ele>4855.4</ele>
        <time>2022-10-25T08:11:01.000Z</time>
      </trkpt>
      <trkpt lat="27.934054" lon="86.804634">
        <ele>4855.4</ele>
        <time>2022-10-25T08:11:03.000Z</time>
      </trkpt>
      <trkpt lat="27.934077" lon="86.804646">
        <ele>4856.6</ele>
        <time>2022-10-25T08:11:06.000Z</time>
      </trkpt>
      <trkpt lat="27.934099" lon="86.804659">
        <ele>4856.6</ele>
        <time>2022-10-25T08:11:08.000Z</time>
      </trkpt>
      <trkpt lat="27.934118" lon="86.804666">
        <ele>4856.8</ele>
        <time>2022-10-25T08:11:10.000Z</time>
      </trkpt>
      <trkpt lat="27.934147" lon="86.804672">
        <ele>4856.2</ele>
        <time>2022-10-25T08:11:13.000Z</time>
      </trkpt>
      <trkpt lat="27.93417" lon="86.804678">
        <ele>4856</ele>
        <time>2022-10-25T08:11:15.000Z</time>
      </trkpt>
      <trkpt lat="27.934186" lon="86.804698">
        <ele>4856.8</ele>
        <time>2022-10-25T08:11:18.000Z</time>
      </trkpt>
      <trkpt lat="27.934205" lon="86.804704">
        <ele>4857.4</ele>
        <time>2022-10-25T08:11:21.000Z</time>
      </trkpt>
      <trkpt lat="27.934221" lon="86.804717">
        <ele>4857.4</ele>
        <time>2022-10-25T08:11:23.000Z</time>
      </trkpt>
      <trkpt lat="27.93424" lon="86.804736">
        <ele>4856.8</ele>
        <time>2022-10-25T08:11:26.000Z</time>
      </trkpt>
      <trkpt lat="27.934259" lon="86.804755">
        <ele>4856.8</ele>
        <time>2022-10-25T08:11:29.000Z</time>
      </trkpt>
      <trkpt lat="27.934282" lon="86.804762">
        <ele>4856</ele>
        <time>2022-10-25T08:11:32.000Z</time>
      </trkpt>
      <trkpt lat="27.934304" lon="86.804774">
        <ele>4856.2</ele>
        <time>2022-10-25T08:11:34.000Z</time>
      </trkpt>
      <trkpt lat="27.934323" lon="86.804774">
        <ele>4856.2</ele>
        <time>2022-10-25T08:11:36.000Z</time>
      </trkpt>
      <trkpt lat="27.934339" lon="86.804794">
        <ele>4856.4</ele>
        <time>2022-10-25T08:11:39.000Z</time>
      </trkpt>
      <trkpt lat="27.934355" lon="86.804806">
        <ele>4856.2</ele>
        <time>2022-10-25T08:11:42.000Z</time>
      </trkpt>
      <trkpt lat="27.934371" lon="86.804819">
        <ele>4856.4</ele>
        <time>2022-10-25T08:11:44.000Z</time>
      </trkpt>
      <trkpt lat="27.93439" lon="86.804826">
        <ele>4856.4</ele>
        <time>2022-10-25T08:11:46.000Z</time>
      </trkpt>
      <trkpt lat="27.93441" lon="86.804838">
        <ele>4856.2</ele>
        <time>2022-10-25T08:11:49.000Z</time>
      </trkpt>
      <trkpt lat="27.934429" lon="86.804858">
        <ele>4855.8</ele>
        <time>2022-10-25T08:11:52.000Z</time>
      </trkpt>
      <trkpt lat="27.934442" lon="86.804877">
        <ele>4855.6</ele>
        <time>2022-10-25T08:11:55.000Z</time>
      </trkpt>
      <trkpt lat="27.934464" lon="86.804883">
        <ele>4855.8</ele>
        <time>2022-10-25T08:11:58.000Z</time>
      </trkpt>
      <trkpt lat="27.934483" lon="86.804896">
        <ele>4855.8</ele>
        <time>2022-10-25T08:12:00.000Z</time>
      </trkpt>
      <trkpt lat="27.934499" lon="86.804915">
        <ele>4855.8</ele>
        <time>2022-10-25T08:12:04.000Z</time>
      </trkpt>
      <trkpt lat="27.934515" lon="86.804934">
        <ele>4855.2</ele>
        <time>2022-10-25T08:12:13.000Z</time>
      </trkpt>
      <trkpt lat="27.934534" lon="86.804941">
        <ele>4855</ele>
        <time>2022-10-25T08:12:16.000Z</time>
      </trkpt>
      <trkpt lat="27.93455" lon="86.804954">
        <ele>4854.6</ele>
        <time>2022-10-25T08:12:19.000Z</time>
      </trkpt>
      <trkpt lat="27.93456" lon="86.804973">
        <ele>4854.2</ele>
        <time>2022-10-25T08:12:22.000Z</time>
      </trkpt>
      <trkpt lat="27.934576" lon="86.804986">
        <ele>4854.6</ele>
        <time>2022-10-25T08:12:32.000Z</time>
      </trkpt>
      <trkpt lat="27.934592" lon="86.805005">
        <ele>4853.8</ele>
        <time>2022-10-25T08:12:37.000Z</time>
      </trkpt>
      <trkpt lat="27.934598" lon="86.805024">
        <ele>4853.8</ele>
        <time>2022-10-25T08:12:38.000Z</time>
      </trkpt>
      <trkpt lat="27.934614" lon="86.805056">
        <ele>4853.8</ele>
        <time>2022-10-25T08:12:42.000Z</time>
      </trkpt>
      <trkpt lat="27.934627" lon="86.805075">
        <ele>4853.6</ele>
        <time>2022-10-25T08:12:45.000Z</time>
      </trkpt>
      <trkpt lat="27.934634" lon="86.805094">
        <ele>4853.2</ele>
        <time>2022-10-25T08:12:46.000Z</time>
      </trkpt>
      <trkpt lat="27.93465" lon="86.805114">
        <ele>4853</ele>
        <time>2022-10-25T08:12:49.000Z</time>
      </trkpt>
      <trkpt lat="27.934659" lon="86.805133">
        <ele>4853</ele>
        <time>2022-10-25T08:12:51.000Z</time>
      </trkpt>
      <trkpt lat="27.934669" lon="86.805152">
        <ele>4853.2</ele>
        <time>2022-10-25T08:12:54.000Z</time>
      </trkpt>
      <trkpt lat="27.934691" lon="86.805158">
        <ele>4853.6</ele>
        <time>2022-10-25T08:12:57.000Z</time>
      </trkpt>
      <trkpt lat="27.934707" lon="86.805178">
        <ele>4853</ele>
        <time>2022-10-25T08:13:00.000Z</time>
      </trkpt>
      <trkpt lat="27.934726" lon="86.805197">
        <ele>4852.6</ele>
        <time>2022-10-25T08:13:04.000Z</time>
      </trkpt>
      <trkpt lat="27.934733" lon="86.805216">
        <ele>4852.4</ele>
        <time>2022-10-25T08:13:07.000Z</time>
      </trkpt>
      <trkpt lat="27.934742" lon="86.805235">
        <ele>4851.6</ele>
        <time>2022-10-25T08:13:11.000Z</time>
      </trkpt>
      <trkpt lat="27.934752" lon="86.805254">
        <ele>4851.4</ele>
        <time>2022-10-25T08:13:14.000Z</time>
      </trkpt>
      <trkpt lat="27.934758" lon="86.805274">
        <ele>4850.4</ele>
        <time>2022-10-25T08:13:19.000Z</time>
      </trkpt>
      <trkpt lat="27.934762" lon="86.805299">
        <ele>4850</ele>
        <time>2022-10-25T08:13:23.000Z</time>
      </trkpt>
      <trkpt lat="27.934771" lon="86.805318">
        <ele>4849.4</ele>
        <time>2022-10-25T08:13:27.000Z</time>
      </trkpt>
      <trkpt lat="27.934781" lon="86.805338">
        <ele>4849.2</ele>
        <time>2022-10-25T08:13:30.000Z</time>
      </trkpt>
      <trkpt lat="27.9348" lon="86.80535">
        <ele>4848.8</ele>
        <time>2022-10-25T08:13:32.000Z</time>
      </trkpt>
      <trkpt lat="27.934819" lon="86.80537">
        <ele>4848.6</ele>
        <time>2022-10-25T08:13:35.000Z</time>
      </trkpt>
      <trkpt lat="27.934845" lon="86.805382">
        <ele>4848.6</ele>
        <time>2022-10-25T08:13:38.000Z</time>
      </trkpt>
      <trkpt lat="27.934864" lon="86.805395">
        <ele>4848.6</ele>
        <time>2022-10-25T08:13:40.000Z</time>
      </trkpt>
      <trkpt lat="27.93489" lon="86.805402">
        <ele>4848.6</ele>
        <time>2022-10-25T08:13:43.000Z</time>
      </trkpt>
      <trkpt lat="27.934906" lon="86.805414">
        <ele>4849</ele>
        <time>2022-10-25T08:13:45.000Z</time>
      </trkpt>
      <trkpt lat="27.934918" lon="86.805434">
        <ele>4849.4</ele>
        <time>2022-10-25T08:13:48.000Z</time>
      </trkpt>
      <trkpt lat="27.934909" lon="86.805453">
        <ele>4849.4</ele>
        <time>2022-10-25T08:13:51.000Z</time>
      </trkpt>
      <trkpt lat="27.934912" lon="86.805478">
        <ele>4848.4</ele>
        <time>2022-10-25T08:16:09.000Z</time>
      </trkpt>
      <trkpt lat="27.934931" lon="86.805478">
        <ele>4848.6</ele>
        <time>2022-10-25T08:16:15.000Z</time>
      </trkpt>
      <trkpt lat="27.934912" lon="86.805459">
        <ele>4849.4</ele>
        <time>2022-10-25T08:16:19.000Z</time>
      </trkpt>
      <trkpt lat="27.934928" lon="86.80544">
        <ele>4848.4</ele>
        <time>2022-10-25T08:18:58.000Z</time>
      </trkpt>
      <trkpt lat="27.93495" lon="86.805459">
        <ele>4848.4</ele>
        <time>2022-10-25T08:19:00.000Z</time>
      </trkpt>
      <trkpt lat="27.93497" lon="86.805466">
        <ele>4848.4</ele>
        <time>2022-10-25T08:19:02.000Z</time>
      </trkpt>
      <trkpt lat="27.934989" lon="86.805472">
        <ele>4848.4</ele>
        <time>2022-10-25T08:19:04.000Z</time>
      </trkpt>
      <trkpt lat="27.935005" lon="86.805491">
        <ele>4848.6</ele>
        <time>2022-10-25T08:19:06.000Z</time>
      </trkpt>
      <trkpt lat="27.935021" lon="86.805504">
        <ele>4849.2</ele>
        <time>2022-10-25T08:19:10.000Z</time>
      </trkpt>
      <trkpt lat="27.93504" lon="86.80553">
        <ele>4849.4</ele>
        <time>2022-10-25T08:19:14.000Z</time>
      </trkpt>
      <trkpt lat="27.935056" lon="86.805542">
        <ele>4850.4</ele>
        <time>2022-10-25T08:19:17.000Z</time>
      </trkpt>
      <trkpt lat="27.935072" lon="86.805555">
        <ele>4850.4</ele>
        <time>2022-10-25T08:19:20.000Z</time>
      </trkpt>
      <trkpt lat="27.935078" lon="86.805574">
        <ele>4850.4</ele>
        <time>2022-10-25T08:19:22.000Z</time>
      </trkpt>
      <trkpt lat="27.935094" lon="86.805587">
        <ele>4850.4</ele>
        <time>2022-10-25T08:19:25.000Z</time>
      </trkpt>
      <trkpt lat="27.935117" lon="86.8056">
        <ele>4850.4</ele>
        <time>2022-10-25T08:19:28.000Z</time>
      </trkpt>
      <trkpt lat="27.935136" lon="86.805619">
        <ele>4850.4</ele>
        <time>2022-10-25T08:19:31.000Z</time>
      </trkpt>
      <trkpt lat="27.935152" lon="86.805638">
        <ele>4850.2</ele>
        <time>2022-10-25T08:19:34.000Z</time>
      </trkpt>
      <trkpt lat="27.935162" lon="86.805658">
        <ele>4850.2</ele>
        <time>2022-10-25T08:19:36.000Z</time>
      </trkpt>
      <trkpt lat="27.935178" lon="86.805677">
        <ele>4850</ele>
        <time>2022-10-25T08:19:39.000Z</time>
      </trkpt>
      <trkpt lat="27.935194" lon="86.80569">
        <ele>4850.2</ele>
        <time>2022-10-25T08:19:41.000Z</time>
      </trkpt>
      <trkpt lat="27.93521" lon="86.805702">
        <ele>4850.2</ele>
        <time>2022-10-25T08:19:44.000Z</time>
      </trkpt>
      <trkpt lat="27.935226" lon="86.805715">
        <ele>4850.8</ele>
        <time>2022-10-25T08:19:47.000Z</time>
      </trkpt>
      <trkpt lat="27.935235" lon="86.805734">
        <ele>4850.8</ele>
        <time>2022-10-25T08:19:49.000Z</time>
      </trkpt>
      <trkpt lat="27.935248" lon="86.805754">
        <ele>4850.2</ele>
        <time>2022-10-25T08:19:52.000Z</time>
      </trkpt>
      <trkpt lat="27.935258" lon="86.805773">
        <ele>4850.2</ele>
        <time>2022-10-25T08:19:54.000Z</time>
      </trkpt>
      <trkpt lat="27.935277" lon="86.805786">
        <ele>4851.4</ele>
        <time>2022-10-25T08:19:59.000Z</time>
      </trkpt>
      <trkpt lat="27.935296" lon="86.805811">
        <ele>4851</ele>
        <time>2022-10-25T08:20:02.000Z</time>
      </trkpt>
      <trkpt lat="27.935306" lon="86.80583">
        <ele>4850.2</ele>
        <time>2022-10-25T08:20:05.000Z</time>
      </trkpt>
      <trkpt lat="27.935306" lon="86.805856">
        <ele>4850.2</ele>
        <time>2022-10-25T08:20:08.000Z</time>
      </trkpt>
      <trkpt lat="27.935318" lon="86.805875">
        <ele>4850.2</ele>
        <time>2022-10-25T08:20:12.000Z</time>
      </trkpt>
      <trkpt lat="27.935344" lon="86.805869">
        <ele>4849.8</ele>
        <time>2022-10-25T08:21:59.000Z</time>
      </trkpt>
      <trkpt lat="27.935363" lon="86.805875">
        <ele>4849.8</ele>
        <time>2022-10-25T08:22:01.000Z</time>
      </trkpt>
      <trkpt lat="27.935379" lon="86.805888">
        <ele>4849.6</ele>
        <time>2022-10-25T08:22:03.000Z</time>
      </trkpt>
      <trkpt lat="27.935398" lon="86.805894">
        <ele>4849.2</ele>
        <time>2022-10-25T08:22:05.000Z</time>
      </trkpt>
      <trkpt lat="27.935418" lon="86.805901">
        <ele>4849.2</ele>
        <time>2022-10-25T08:22:07.000Z</time>
      </trkpt>
      <trkpt lat="27.935437" lon="86.805907">
        <ele>4848.8</ele>
        <time>2022-10-25T08:22:09.000Z</time>
      </trkpt>
      <trkpt lat="27.935456" lon="86.805914">
        <ele>4848.4</ele>
        <time>2022-10-25T08:22:11.000Z</time>
      </trkpt>
      <trkpt lat="27.935475" lon="86.805926">
        <ele>4848.4</ele>
        <time>2022-10-25T08:22:13.000Z</time>
      </trkpt>
      <trkpt lat="27.935494" lon="86.805933">
        <ele>4848.4</ele>
        <time>2022-10-25T08:22:15.000Z</time>
      </trkpt>
      <trkpt lat="27.935517" lon="86.805946">
        <ele>4848.4</ele>
        <time>2022-10-25T08:22:18.000Z</time>
      </trkpt>
      <trkpt lat="27.935536" lon="86.805946">
        <ele>4848.8</ele>
        <time>2022-10-25T08:22:20.000Z</time>
      </trkpt>
      <trkpt lat="27.935555" lon="86.805946">
        <ele>4848.2</ele>
        <time>2022-10-25T08:22:22.000Z</time>
      </trkpt>
      <trkpt lat="27.935574" lon="86.805946">
        <ele>4848.2</ele>
        <time>2022-10-25T08:22:24.000Z</time>
      </trkpt>
      <trkpt lat="27.935603" lon="86.805965">
        <ele>4848.8</ele>
        <time>2022-10-25T08:22:29.000Z</time>
      </trkpt>
      <trkpt lat="27.935626" lon="86.805978">
        <ele>4849</ele>
        <time>2022-10-25T08:22:32.000Z</time>
      </trkpt>
      <trkpt lat="27.935645" lon="86.805984">
        <ele>4848.8</ele>
        <time>2022-10-25T08:22:35.000Z</time>
      </trkpt>
      <trkpt lat="27.935658" lon="86.80601">
        <ele>4849.2</ele>
        <time>2022-10-25T08:22:38.000Z</time>
      </trkpt>
      <trkpt lat="27.935683" lon="86.806022">
        <ele>4850</ele>
        <time>2022-10-25T08:22:41.000Z</time>
      </trkpt>
      <trkpt lat="27.935706" lon="86.806035">
        <ele>4850.4</ele>
        <time>2022-10-25T08:22:44.000Z</time>
      </trkpt>
      <trkpt lat="27.935722" lon="86.806054">
        <ele>4851</ele>
        <time>2022-10-25T08:22:47.000Z</time>
      </trkpt>
      <trkpt lat="27.935744" lon="86.806067">
        <ele>4850</ele>
        <time>2022-10-25T08:22:50.000Z</time>
      </trkpt>
      <trkpt lat="27.93575" lon="86.806086">
        <ele>4850</ele>
        <time>2022-10-25T08:22:52.000Z</time>
      </trkpt>
      <trkpt lat="27.935773" lon="86.806099">
        <ele>4849.8</ele>
        <time>2022-10-25T08:22:55.000Z</time>
      </trkpt>
      <trkpt lat="27.935789" lon="86.806125">
        <ele>4850.2</ele>
        <time>2022-10-25T08:22:58.000Z</time>
      </trkpt>
      <trkpt lat="27.935802" lon="86.806144">
        <ele>4850.2</ele>
        <time>2022-10-25T08:23:01.000Z</time>
      </trkpt>
      <trkpt lat="27.935821" lon="86.806157">
        <ele>4850</ele>
        <time>2022-10-25T08:23:04.000Z</time>
      </trkpt>
      <trkpt lat="27.935834" lon="86.806176">
        <ele>4850.2</ele>
        <time>2022-10-25T08:23:07.000Z</time>
      </trkpt>
      <trkpt lat="27.935859" lon="86.806182">
        <ele>4850.2</ele>
        <time>2022-10-25T08:23:10.000Z</time>
      </trkpt>
      <trkpt lat="27.935878" lon="86.806189">
        <ele>4850.2</ele>
        <time>2022-10-25T08:23:12.000Z</time>
      </trkpt>
      <trkpt lat="27.935894" lon="86.806208">
        <ele>4850.4</ele>
        <time>2022-10-25T08:23:15.000Z</time>
      </trkpt>
      <trkpt lat="27.935914" lon="86.806214">
        <ele>4850</ele>
        <time>2022-10-25T08:23:18.000Z</time>
      </trkpt>
      <trkpt lat="27.935936" lon="86.806227">
        <ele>4849.4</ele>
        <time>2022-10-25T08:23:21.000Z</time>
      </trkpt>
      <trkpt lat="27.935955" lon="86.806234">
        <ele>4849.2</ele>
        <time>2022-10-25T08:23:24.000Z</time>
      </trkpt>
      <trkpt lat="27.935971" lon="86.806246">
        <ele>4848.8</ele>
        <time>2022-10-25T08:23:26.000Z</time>
      </trkpt>
      <trkpt lat="27.935994" lon="86.806259">
        <ele>4848.6</ele>
        <time>2022-10-25T08:23:29.000Z</time>
      </trkpt>
      <trkpt lat="27.936019" lon="86.806272">
        <ele>4848.2</ele>
        <time>2022-10-25T08:23:32.000Z</time>
      </trkpt>
      <trkpt lat="27.936038" lon="86.806291">
        <ele>4848.2</ele>
        <time>2022-10-25T08:23:34.000Z</time>
      </trkpt>
      <trkpt lat="27.936061" lon="86.806304">
        <ele>4848</ele>
        <time>2022-10-25T08:23:38.000Z</time>
      </trkpt>
      <trkpt lat="27.93607" lon="86.806323">
        <ele>4848.2</ele>
        <time>2022-10-25T08:23:40.000Z</time>
      </trkpt>
      <trkpt lat="27.936093" lon="86.80633">
        <ele>4848.2</ele>
        <time>2022-10-25T08:23:43.000Z</time>
      </trkpt>
      <trkpt lat="27.936118" lon="86.806342">
        <ele>4848.2</ele>
        <time>2022-10-25T08:23:46.000Z</time>
      </trkpt>
      <trkpt lat="27.936147" lon="86.806349">
        <ele>4848.4</ele>
        <time>2022-10-25T08:23:49.000Z</time>
      </trkpt>
      <trkpt lat="27.936163" lon="86.806368">
        <ele>4848.4</ele>
        <time>2022-10-25T08:23:51.000Z</time>
      </trkpt>
      <trkpt lat="27.936186" lon="86.806374">
        <ele>4848.4</ele>
        <time>2022-10-25T08:23:54.000Z</time>
      </trkpt>
      <trkpt lat="27.936208" lon="86.806381">
        <ele>4848.4</ele>
        <time>2022-10-25T08:23:56.000Z</time>
      </trkpt>
      <trkpt lat="27.936227" lon="86.806387">
        <ele>4848.2</ele>
        <time>2022-10-25T08:23:58.000Z</time>
      </trkpt>
      <trkpt lat="27.936246" lon="86.806406">
        <ele>4848</ele>
        <time>2022-10-25T08:24:01.000Z</time>
      </trkpt>
      <trkpt lat="27.936262" lon="86.806426">
        <ele>4847</ele>
        <time>2022-10-25T08:24:04.000Z</time>
      </trkpt>
      <trkpt lat="27.936285" lon="86.806432">
        <ele>4847.4</ele>
        <time>2022-10-25T08:24:07.000Z</time>
      </trkpt>
      <trkpt lat="27.936301" lon="86.806445">
        <ele>4847.8</ele>
        <time>2022-10-25T08:24:10.000Z</time>
      </trkpt>
      <trkpt lat="27.93632" lon="86.806451">
        <ele>4848.2</ele>
        <time>2022-10-25T08:24:14.000Z</time>
      </trkpt>
      <trkpt lat="27.936336" lon="86.806464">
        <ele>4849</ele>
        <time>2022-10-25T08:24:18.000Z</time>
      </trkpt>
      <trkpt lat="27.936355" lon="86.806483">
        <ele>4849.2</ele>
        <time>2022-10-25T08:24:22.000Z</time>
      </trkpt>
      <trkpt lat="27.936371" lon="86.806496">
        <ele>4849.8</ele>
        <time>2022-10-25T08:24:26.000Z</time>
      </trkpt>
      <trkpt lat="27.936387" lon="86.806509">
        <ele>4850</ele>
        <time>2022-10-25T08:24:29.000Z</time>
      </trkpt>
      <trkpt lat="27.936406" lon="86.806509">
        <ele>4850.6</ele>
        <time>2022-10-25T08:24:32.000Z</time>
      </trkpt>
      <trkpt lat="27.936426" lon="86.806522">
        <ele>4850.6</ele>
        <time>2022-10-25T08:24:35.000Z</time>
      </trkpt>
      <trkpt lat="27.936445" lon="86.806534">
        <ele>4850.2</ele>
        <time>2022-10-25T08:24:39.000Z</time>
      </trkpt>
      <trkpt lat="27.936464" lon="86.806547">
        <ele>4850.4</ele>
        <time>2022-10-25T08:24:43.000Z</time>
      </trkpt>
      <trkpt lat="27.936477" lon="86.806566">
        <ele>4850.2</ele>
        <time>2022-10-25T08:24:45.000Z</time>
      </trkpt>
      <trkpt lat="27.936486" lon="86.806586">
        <ele>4850.2</ele>
        <time>2022-10-25T08:24:48.000Z</time>
      </trkpt>
      <trkpt lat="27.936506" lon="86.806592">
        <ele>4850.2</ele>
        <time>2022-10-25T08:24:52.000Z</time>
      </trkpt>
      <trkpt lat="27.936522" lon="86.806605">
        <ele>4850.4</ele>
        <time>2022-10-25T08:24:55.000Z</time>
      </trkpt>
      <trkpt lat="27.936544" lon="86.806611">
        <ele>4850.4</ele>
        <time>2022-10-25T08:24:58.000Z</time>
      </trkpt>
      <trkpt lat="27.93657" lon="86.806618">
        <ele>4850.6</ele>
        <time>2022-10-25T08:25:02.000Z</time>
      </trkpt>
      <trkpt lat="27.936586" lon="86.80663">
        <ele>4850.6</ele>
        <time>2022-10-25T08:25:05.000Z</time>
      </trkpt>
      <trkpt lat="27.936605" lon="86.806643">
        <ele>4850.4</ele>
        <time>2022-10-25T08:25:07.000Z</time>
      </trkpt>
      <trkpt lat="27.936627" lon="86.80665">
        <ele>4850</ele>
        <time>2022-10-25T08:25:10.000Z</time>
      </trkpt>
      <trkpt lat="27.936646" lon="86.80665">
        <ele>4850</ele>
        <time>2022-10-25T08:25:12.000Z</time>
      </trkpt>
      <trkpt lat="27.936666" lon="86.806656">
        <ele>4850</ele>
        <time>2022-10-25T08:25:16.000Z</time>
      </trkpt>
      <trkpt lat="27.936691" lon="86.806662">
        <ele>4850.6</ele>
        <time>2022-10-25T08:25:19.000Z</time>
      </trkpt>
      <trkpt lat="27.936714" lon="86.806662">
        <ele>4850.8</ele>
        <time>2022-10-25T08:25:23.000Z</time>
      </trkpt>
      <trkpt lat="27.936736" lon="86.806656">
        <ele>4851.2</ele>
        <time>2022-10-25T08:25:26.000Z</time>
      </trkpt>
      <trkpt lat="27.936758" lon="86.806662">
        <ele>4850.8</ele>
        <time>2022-10-25T08:25:29.000Z</time>
      </trkpt>
      <trkpt lat="27.936784" lon="86.806656">
        <ele>4850.2</ele>
        <time>2022-10-25T08:26:02.000Z</time>
      </trkpt>
      <trkpt lat="27.936813" lon="86.806656">
        <ele>4849.6</ele>
        <time>2022-10-25T08:26:04.000Z</time>
      </trkpt>
      <trkpt lat="27.936838" lon="86.806656">
        <ele>4849.8</ele>
        <time>2022-10-25T08:26:06.000Z</time>
      </trkpt>
      <trkpt lat="27.936864" lon="86.80665">
        <ele>4850</ele>
        <time>2022-10-25T08:26:08.000Z</time>
      </trkpt>
      <trkpt lat="27.93689" lon="86.80665">
        <ele>4850</ele>
        <time>2022-10-25T08:26:10.000Z</time>
      </trkpt>
      <trkpt lat="27.936909" lon="86.806643">
        <ele>4850</ele>
        <time>2022-10-25T08:26:12.000Z</time>
      </trkpt>
      <trkpt lat="27.936928" lon="86.806643">
        <ele>4849.6</ele>
        <time>2022-10-25T08:26:15.000Z</time>
      </trkpt>
      <trkpt lat="27.93695" lon="86.806643">
        <ele>4850</ele>
        <time>2022-10-25T08:26:18.000Z</time>
      </trkpt>
      <trkpt lat="27.93697" lon="86.80663">
        <ele>4850</ele>
        <time>2022-10-25T08:26:20.000Z</time>
      </trkpt>
      <trkpt lat="27.936992" lon="86.806624">
        <ele>4850</ele>
        <time>2022-10-25T08:26:23.000Z</time>
      </trkpt>
      <trkpt lat="27.937014" lon="86.80663">
        <ele>4850.6</ele>
        <time>2022-10-25T08:26:25.000Z</time>
      </trkpt>
      <trkpt lat="27.93704" lon="86.806643">
        <ele>4850.4</ele>
        <time>2022-10-25T08:26:28.000Z</time>
      </trkpt>
      <trkpt lat="27.937066" lon="86.80665">
        <ele>4850</ele>
        <time>2022-10-25T08:26:32.000Z</time>
      </trkpt>
      <trkpt lat="27.937091" lon="86.806662">
        <ele>4850</ele>
        <time>2022-10-25T08:26:35.000Z</time>
      </trkpt>
      <trkpt lat="27.93711" lon="86.806682">
        <ele>4850.6</ele>
        <time>2022-10-25T08:26:38.000Z</time>
      </trkpt>
      <trkpt lat="27.937136" lon="86.806688">
        <ele>4850.6</ele>
        <time>2022-10-25T08:26:41.000Z</time>
      </trkpt>
      <trkpt lat="27.937155" lon="86.806694">
        <ele>4851</ele>
        <time>2022-10-25T08:26:44.000Z</time>
      </trkpt>
      <trkpt lat="27.937174" lon="86.806694">
        <ele>4851</ele>
        <time>2022-10-25T08:26:47.000Z</time>
      </trkpt>
      <trkpt lat="27.937194" lon="86.806688">
        <ele>4851.6</ele>
        <time>2022-10-25T08:26:51.000Z</time>
      </trkpt>
      <trkpt lat="27.937216" lon="86.806669">
        <ele>4851.4</ele>
        <time>2022-10-25T08:26:57.000Z</time>
      </trkpt>
      <trkpt lat="27.937238" lon="86.806656">
        <ele>4850.8</ele>
        <time>2022-10-25T08:27:01.000Z</time>
      </trkpt>
      <trkpt lat="27.937264" lon="86.806643">
        <ele>4850.8</ele>
        <time>2022-10-25T08:27:05.000Z</time>
      </trkpt>
      <trkpt lat="27.93728" lon="86.80663">
        <ele>4851.4</ele>
        <time>2022-10-25T08:27:08.000Z</time>
      </trkpt>
      <trkpt lat="27.937302" lon="86.80663">
        <ele>4851.4</ele>
        <time>2022-10-25T08:27:12.000Z</time>
      </trkpt>
      <trkpt lat="27.937331" lon="86.806643">
        <ele>4852.2</ele>
        <time>2022-10-25T08:27:36.000Z</time>
      </trkpt>
      <trkpt lat="27.93736" lon="86.806656">
        <ele>4852.4</ele>
        <time>2022-10-25T08:27:38.000Z</time>
      </trkpt>
      <trkpt lat="27.937386" lon="86.806669">
        <ele>4852.8</ele>
        <time>2022-10-25T08:27:40.000Z</time>
      </trkpt>
      <trkpt lat="27.937402" lon="86.806682">
        <ele>4853</ele>
        <time>2022-10-25T08:27:41.000Z</time>
      </trkpt>
      <trkpt lat="27.93743" lon="86.806688">
        <ele>4853</ele>
        <time>2022-10-25T08:27:43.000Z</time>
      </trkpt>
      <trkpt lat="27.93745" lon="86.806694">
        <ele>4853</ele>
        <time>2022-10-25T08:27:44.000Z</time>
      </trkpt>
      <trkpt lat="27.937469" lon="86.806701">
        <ele>4853</ele>
        <time>2022-10-25T08:27:46.000Z</time>
      </trkpt>
      <trkpt lat="27.937488" lon="86.806707">
        <ele>4853</ele>
        <time>2022-10-25T08:27:49.000Z</time>
      </trkpt>
      <trkpt lat="27.937507" lon="86.806726">
        <ele>4853.6</ele>
        <time>2022-10-25T08:27:52.000Z</time>
      </trkpt>
      <trkpt lat="27.93751" lon="86.806752">
        <ele>4853.6</ele>
        <time>2022-10-25T08:27:55.000Z</time>
      </trkpt>
      <trkpt lat="27.937533" lon="86.806771">
        <ele>4853.8</ele>
        <time>2022-10-25T08:27:57.000Z</time>
      </trkpt>
      <trkpt lat="27.937546" lon="86.80679">
        <ele>4854.2</ele>
        <time>2022-10-25T08:27:59.000Z</time>
      </trkpt>
      <trkpt lat="27.937552" lon="86.80681">
        <ele>4854.2</ele>
        <time>2022-10-25T08:28:02.000Z</time>
      </trkpt>
      <trkpt lat="27.937571" lon="86.806822">
        <ele>4854.2</ele>
        <time>2022-10-25T08:28:05.000Z</time>
      </trkpt>
      <trkpt lat="27.93759" lon="86.806829">
        <ele>4855</ele>
        <time>2022-10-25T08:28:09.000Z</time>
      </trkpt>
      <trkpt lat="27.93761" lon="86.806842">
        <ele>4855</ele>
        <time>2022-10-25T08:28:13.000Z</time>
      </trkpt>
      <trkpt lat="27.937629" lon="86.806848">
        <ele>4855</ele>
        <time>2022-10-25T08:28:17.000Z</time>
      </trkpt>
      <trkpt lat="27.937635" lon="86.806867">
        <ele>4855.2</ele>
        <time>2022-10-25T08:28:22.000Z</time>
      </trkpt>
      <trkpt lat="27.937638" lon="86.806893">
        <ele>4855.4</ele>
        <time>2022-10-25T08:28:25.000Z</time>
      </trkpt>
      <trkpt lat="27.937654" lon="86.806906">
        <ele>4855.4</ele>
        <time>2022-10-25T08:28:29.000Z</time>
      </trkpt>
      <trkpt lat="27.937674" lon="86.806918">
        <ele>4856.2</ele>
        <time>2022-10-25T08:28:33.000Z</time>
      </trkpt>
      <trkpt lat="27.937693" lon="86.806925">
        <ele>4855.6</ele>
        <time>2022-10-25T08:28:36.000Z</time>
      </trkpt>
      <trkpt lat="27.937712" lon="86.806938">
        <ele>4855</ele>
        <time>2022-10-25T08:28:40.000Z</time>
      </trkpt>
      <trkpt lat="27.937731" lon="86.806938">
        <ele>4855</ele>
        <time>2022-10-25T08:28:43.000Z</time>
      </trkpt>
      <trkpt lat="27.937747" lon="86.80695">
        <ele>4855.4</ele>
        <time>2022-10-25T08:28:47.000Z</time>
      </trkpt>
      <trkpt lat="27.93777" lon="86.806963">
        <ele>4855.4</ele>
        <time>2022-10-25T08:28:50.000Z</time>
      </trkpt>
      <trkpt lat="27.937789" lon="86.806976">
        <ele>4855.6</ele>
        <time>2022-10-25T08:28:55.000Z</time>
      </trkpt>
      <trkpt lat="27.937811" lon="86.806976">
        <ele>4856.4</ele>
        <time>2022-10-25T08:29:00.000Z</time>
      </trkpt>
      <trkpt lat="27.93783" lon="86.80697">
        <ele>4856.4</ele>
        <time>2022-10-25T08:29:05.000Z</time>
      </trkpt>
      <trkpt lat="27.937846" lon="86.80695">
        <ele>4856.6</ele>
        <time>2022-10-25T08:29:09.000Z</time>
      </trkpt>
      <trkpt lat="27.937869" lon="86.80695">
        <ele>4856.8</ele>
        <time>2022-10-25T08:29:13.000Z</time>
      </trkpt>
      <trkpt lat="27.937885" lon="86.806963">
        <ele>4856.8</ele>
        <time>2022-10-25T08:29:17.000Z</time>
      </trkpt>
      <trkpt lat="27.937904" lon="86.806976">
        <ele>4857.2</ele>
        <time>2022-10-25T08:29:22.000Z</time>
      </trkpt>
      <trkpt lat="27.937926" lon="86.80697">
        <ele>4857.8</ele>
        <time>2022-10-25T08:29:28.000Z</time>
      </trkpt>
      <trkpt lat="27.937946" lon="86.806963">
        <ele>4858.4</ele>
        <time>2022-10-25T08:29:33.000Z</time>
      </trkpt>
      <trkpt lat="27.937968" lon="86.806963">
        <ele>4858.6</ele>
        <time>2022-10-25T08:29:39.000Z</time>
      </trkpt>
      <trkpt lat="27.937987" lon="86.80697">
        <ele>4858.4</ele>
        <time>2022-10-25T08:29:41.000Z</time>
      </trkpt>
      <trkpt lat="27.938006" lon="86.806976">
        <ele>4858.6</ele>
        <time>2022-10-25T08:29:44.000Z</time>
      </trkpt>
      <trkpt lat="27.938026" lon="86.806976">
        <ele>4859.2</ele>
        <time>2022-10-25T08:29:48.000Z</time>
      </trkpt>
      <trkpt lat="27.938045" lon="86.806982">
        <ele>4859</ele>
        <time>2022-10-25T08:29:52.000Z</time>
      </trkpt>
      <trkpt lat="27.938061" lon="86.807002">
        <ele>4859.8</ele>
        <time>2022-10-25T08:29:55.000Z</time>
      </trkpt>
      <trkpt lat="27.93808" lon="86.807002">
        <ele>4859.8</ele>
        <time>2022-10-25T08:29:59.000Z</time>
      </trkpt>
      <trkpt lat="27.938099" lon="86.807008">
        <ele>4860</ele>
        <time>2022-10-25T08:30:02.000Z</time>
      </trkpt>
      <trkpt lat="27.938118" lon="86.807014">
        <ele>4859.8</ele>
        <time>2022-10-25T08:30:05.000Z</time>
      </trkpt>
      <trkpt lat="27.938141" lon="86.807014">
        <ele>4860</ele>
        <time>2022-10-25T08:30:08.000Z</time>
      </trkpt>
      <trkpt lat="27.93816" lon="86.807021">
        <ele>4860</ele>
        <time>2022-10-25T08:30:12.000Z</time>
      </trkpt>
      <trkpt lat="27.938182" lon="86.807014">
        <ele>4860.4</ele>
        <time>2022-10-25T08:30:15.000Z</time>
      </trkpt>
      <trkpt lat="27.938205" lon="86.807027">
        <ele>4859.8</ele>
        <time>2022-10-25T08:30:18.000Z</time>
      </trkpt>
      <trkpt lat="27.938224" lon="86.807053">
        <ele>4859.8</ele>
        <time>2022-10-25T08:30:21.000Z</time>
      </trkpt>
      <trkpt lat="27.938243" lon="86.807066">
        <ele>4860</ele>
        <time>2022-10-25T08:30:25.000Z</time>
      </trkpt>
      <trkpt lat="27.938262" lon="86.807066">
        <ele>4860</ele>
        <time>2022-10-25T08:30:28.000Z</time>
      </trkpt>
      <trkpt lat="27.938285" lon="86.807085">
        <ele>4860.4</ele>
        <time>2022-10-25T08:30:31.000Z</time>
      </trkpt>
      <trkpt lat="27.938304" lon="86.807098">
        <ele>4860.4</ele>
        <time>2022-10-25T08:30:35.000Z</time>
      </trkpt>
      <trkpt lat="27.938323" lon="86.807104">
        <ele>4860.6</ele>
        <time>2022-10-25T08:30:39.000Z</time>
      </trkpt>
      <trkpt lat="27.938339" lon="86.807123">
        <ele>4860.6</ele>
        <time>2022-10-25T08:30:43.000Z</time>
      </trkpt>
      <trkpt lat="27.938362" lon="86.807123">
        <ele>4860.8</ele>
        <time>2022-10-25T08:30:46.000Z</time>
      </trkpt>
      <trkpt lat="27.938368" lon="86.807078">
        <ele>4861</ele>
        <time>2022-10-25T08:33:52.000Z</time>
      </trkpt>
      <trkpt lat="27.938397" lon="86.807085">
        <ele>4861.2</ele>
        <time>2022-10-25T08:33:54.000Z</time>
      </trkpt>
      <trkpt lat="27.938426" lon="86.807098">
        <ele>4861.2</ele>
        <time>2022-10-25T08:33:56.000Z</time>
      </trkpt>
      <trkpt lat="27.938454" lon="86.807104">
        <ele>4861.4</ele>
        <time>2022-10-25T08:33:58.000Z</time>
      </trkpt>
      <trkpt lat="27.938483" lon="86.807117">
        <ele>4861.2</ele>
        <time>2022-10-25T08:34:00.000Z</time>
      </trkpt>
      <trkpt lat="27.938502" lon="86.807123">
        <ele>4861.2</ele>
        <time>2022-10-25T08:34:02.000Z</time>
      </trkpt>
      <trkpt lat="27.938522" lon="86.807136">
        <ele>4861.4</ele>
        <time>2022-10-25T08:34:05.000Z</time>
      </trkpt>
      <trkpt lat="27.93855" lon="86.807142">
        <ele>4861.4</ele>
        <time>2022-10-25T08:34:09.000Z</time>
      </trkpt>
      <trkpt lat="27.938563" lon="86.807162">
        <ele>4862</ele>
        <time>2022-10-25T08:34:11.000Z</time>
      </trkpt>
      <trkpt lat="27.938586" lon="86.807168">
        <ele>4862.2</ele>
        <time>2022-10-25T08:34:14.000Z</time>
      </trkpt>
      <trkpt lat="27.938605" lon="86.807168">
        <ele>4862</ele>
        <time>2022-10-25T08:34:18.000Z</time>
      </trkpt>
      <trkpt lat="27.938624" lon="86.807174">
        <ele>4862.2</ele>
        <time>2022-10-25T08:34:21.000Z</time>
      </trkpt>
      <trkpt lat="27.938643" lon="86.807181">
        <ele>4863</ele>
        <time>2022-10-25T08:34:25.000Z</time>
      </trkpt>
      <trkpt lat="27.938669" lon="86.807181">
        <ele>4863.4</ele>
        <time>2022-10-25T08:34:29.000Z</time>
      </trkpt>
      <trkpt lat="27.938688" lon="86.807187">
        <ele>4863.4</ele>
        <time>2022-10-25T08:34:33.000Z</time>
      </trkpt>
      <trkpt lat="27.938707" lon="86.807187">
        <ele>4863.8</ele>
        <time>2022-10-25T08:34:36.000Z</time>
      </trkpt>
      <trkpt lat="27.938733" lon="86.807181">
        <ele>4863.6</ele>
        <time>2022-10-25T08:34:40.000Z</time>
      </trkpt>
      <trkpt lat="27.938755" lon="86.807174">
        <ele>4863.8</ele>
        <time>2022-10-25T08:34:44.000Z</time>
      </trkpt>
      <trkpt lat="27.938774" lon="86.807174">
        <ele>4864.2</ele>
        <time>2022-10-25T08:34:47.000Z</time>
      </trkpt>
      <trkpt lat="27.938794" lon="86.807181">
        <ele>4864.2</ele>
        <time>2022-10-25T08:34:51.000Z</time>
      </trkpt>
      <trkpt lat="27.938813" lon="86.807181">
        <ele>4863.8</ele>
        <time>2022-10-25T08:34:55.000Z</time>
      </trkpt>
      <trkpt lat="27.938832" lon="86.807181">
        <ele>4863.8</ele>
        <time>2022-10-25T08:34:58.000Z</time>
      </trkpt>
      <trkpt lat="27.938874" lon="86.807187">
        <ele>4864.4</ele>
        <time>2022-10-25T08:35:05.000Z</time>
      </trkpt>
      <trkpt lat="27.938893" lon="86.807181">
        <ele>4864.4</ele>
        <time>2022-10-25T08:35:08.000Z</time>
      </trkpt>
      <trkpt lat="27.938918" lon="86.807187">
        <ele>4864.8</ele>
        <time>2022-10-25T08:35:12.000Z</time>
      </trkpt>
      <trkpt lat="27.938941" lon="86.807187">
        <ele>4864.8</ele>
        <time>2022-10-25T08:35:15.000Z</time>
      </trkpt>
      <trkpt lat="27.93896" lon="86.807187">
        <ele>4864.8</ele>
        <time>2022-10-25T08:35:17.000Z</time>
      </trkpt>
      <trkpt lat="27.939008" lon="86.807206">
        <ele>4864.4</ele>
        <time>2022-10-25T08:35:24.000Z</time>
      </trkpt>
      <trkpt lat="27.939027" lon="86.807219">
        <ele>4864.8</ele>
        <time>2022-10-25T08:35:27.000Z</time>
      </trkpt>
      <trkpt lat="27.93905" lon="86.807219">
        <ele>4865</ele>
        <time>2022-10-25T08:35:30.000Z</time>
      </trkpt>
      <trkpt lat="27.939069" lon="86.807226">
        <ele>4865</ele>
        <time>2022-10-25T08:35:33.000Z</time>
      </trkpt>
      <trkpt lat="27.939088" lon="86.807238">
        <ele>4865</ele>
        <time>2022-10-25T08:35:35.000Z</time>
      </trkpt>
      <trkpt lat="27.939107" lon="86.807251">
        <ele>4864.8</ele>
        <time>2022-10-25T08:35:38.000Z</time>
      </trkpt>
      <trkpt lat="27.93913" lon="86.807258">
        <ele>4865.2</ele>
        <time>2022-10-25T08:35:42.000Z</time>
      </trkpt>
      <trkpt lat="27.939152" lon="86.807264">
        <ele>4865.6</ele>
        <time>2022-10-25T08:35:45.000Z</time>
      </trkpt>
      <trkpt lat="27.939168" lon="86.807277">
        <ele>4865.6</ele>
        <time>2022-10-25T08:35:47.000Z</time>
      </trkpt>
      <trkpt lat="27.939187" lon="86.807283">
        <ele>4865.6</ele>
        <time>2022-10-25T08:35:51.000Z</time>
      </trkpt>
      <trkpt lat="27.93921" lon="86.807283">
        <ele>4865.6</ele>
        <time>2022-10-25T08:35:54.000Z</time>
      </trkpt>
      <trkpt lat="27.939232" lon="86.80729">
        <ele>4865.8</ele>
        <time>2022-10-25T08:35:58.000Z</time>
      </trkpt>
      <trkpt lat="27.939251" lon="86.807296">
        <ele>4866</ele>
        <time>2022-10-25T08:36:01.000Z</time>
      </trkpt>
      <trkpt lat="27.939277" lon="86.807302">
        <ele>4866.6</ele>
        <time>2022-10-25T08:36:05.000Z</time>
      </trkpt>
      <trkpt lat="27.93929" lon="86.807322">
        <ele>4866.4</ele>
        <time>2022-10-25T08:36:07.000Z</time>
      </trkpt>
      <trkpt lat="27.939306" lon="86.807334">
        <ele>4866.4</ele>
        <time>2022-10-25T08:36:10.000Z</time>
      </trkpt>
      <trkpt lat="27.939325" lon="86.807347">
        <ele>4866.4</ele>
        <time>2022-10-25T08:36:13.000Z</time>
      </trkpt>
      <trkpt lat="27.939338" lon="86.807366">
        <ele>4866.6</ele>
        <time>2022-10-25T08:36:15.000Z</time>
      </trkpt>
      <trkpt lat="27.939357" lon="86.807373">
        <ele>4866.8</ele>
        <time>2022-10-25T08:36:18.000Z</time>
      </trkpt>
      <trkpt lat="27.939379" lon="86.807386">
        <ele>4866.6</ele>
        <time>2022-10-25T08:36:22.000Z</time>
      </trkpt>
      <trkpt lat="27.939398" lon="86.807386">
        <ele>4866.8</ele>
        <time>2022-10-25T08:36:26.000Z</time>
      </trkpt>
      <trkpt lat="27.939424" lon="86.807398">
        <ele>4867.4</ele>
        <time>2022-10-25T08:36:30.000Z</time>
      </trkpt>
      <trkpt lat="27.939443" lon="86.807405">
        <ele>4867.4</ele>
        <time>2022-10-25T08:36:33.000Z</time>
      </trkpt>
      <trkpt lat="27.939466" lon="86.807405">
        <ele>4867.4</ele>
        <time>2022-10-25T08:36:38.000Z</time>
      </trkpt>
      <trkpt lat="27.939485" lon="86.807411">
        <ele>4867.4</ele>
        <time>2022-10-25T08:36:40.000Z</time>
      </trkpt>
      <trkpt lat="27.939504" lon="86.807418">
        <ele>4867.4</ele>
        <time>2022-10-25T08:36:43.000Z</time>
      </trkpt>
      <trkpt lat="27.939523" lon="86.807418">
        <ele>4867.4</ele>
        <time>2022-10-25T08:36:46.000Z</time>
      </trkpt>
      <trkpt lat="27.939542" lon="86.807424">
        <ele>4867.2</ele>
        <time>2022-10-25T08:36:48.000Z</time>
      </trkpt>
      <trkpt lat="27.939562" lon="86.807437">
        <ele>4867.6</ele>
        <time>2022-10-25T08:36:51.000Z</time>
      </trkpt>
      <trkpt lat="27.939581" lon="86.807443">
        <ele>4867.8</ele>
        <time>2022-10-25T08:36:55.000Z</time>
      </trkpt>
      <trkpt lat="27.939603" lon="86.80745">
        <ele>4867.6</ele>
        <time>2022-10-25T08:36:58.000Z</time>
      </trkpt>
      <trkpt lat="27.939622" lon="86.807456">
        <ele>4867.6</ele>
        <time>2022-10-25T08:37:01.000Z</time>
      </trkpt>
      <trkpt lat="27.939645" lon="86.807462">
        <ele>4868.2</ele>
        <time>2022-10-25T08:37:05.000Z</time>
      </trkpt>
      <trkpt lat="27.939664" lon="86.807482">
        <ele>4869</ele>
        <time>2022-10-25T08:37:08.000Z</time>
      </trkpt>
      <trkpt lat="27.939686" lon="86.807488">
        <ele>4868.4</ele>
        <time>2022-10-25T08:37:11.000Z</time>
      </trkpt>
      <trkpt lat="27.939706" lon="86.807507">
        <ele>4868.4</ele>
        <time>2022-10-25T08:37:15.000Z</time>
      </trkpt>
      <trkpt lat="27.939722" lon="86.80752">
        <ele>4868.4</ele>
        <time>2022-10-25T08:37:17.000Z</time>
      </trkpt>
      <trkpt lat="27.939744" lon="86.807526">
        <ele>4868</ele>
        <time>2022-10-25T08:37:20.000Z</time>
      </trkpt>
      <trkpt lat="27.939763" lon="86.807539">
        <ele>4868</ele>
        <time>2022-10-25T08:37:23.000Z</time>
      </trkpt>
      <trkpt lat="27.939786" lon="86.807558">
        <ele>4868.4</ele>
        <time>2022-10-25T08:37:26.000Z</time>
      </trkpt>
      <trkpt lat="27.939805" lon="86.807565">
        <ele>4868.6</ele>
        <time>2022-10-25T08:37:30.000Z</time>
      </trkpt>
      <trkpt lat="27.93983" lon="86.807558">
        <ele>4868.8</ele>
        <time>2022-10-25T08:37:34.000Z</time>
      </trkpt>
      <trkpt lat="27.939853" lon="86.807565">
        <ele>4868.8</ele>
        <time>2022-10-25T08:37:37.000Z</time>
      </trkpt>
      <trkpt lat="27.939872" lon="86.807578">
        <ele>4869.2</ele>
        <time>2022-10-25T08:37:42.000Z</time>
      </trkpt>
      <trkpt lat="27.939891" lon="86.807571">
        <ele>4869</ele>
        <time>2022-10-25T08:37:46.000Z</time>
      </trkpt>
      <trkpt lat="27.93991" lon="86.807546">
        <ele>4869.4</ele>
        <time>2022-10-25T08:37:50.000Z</time>
      </trkpt>
      <trkpt lat="27.939933" lon="86.807539">
        <ele>4870.2</ele>
        <time>2022-10-25T08:38:20.000Z</time>
      </trkpt>
      <trkpt lat="27.939962" lon="86.807546">
        <ele>4870.4</ele>
        <time>2022-10-25T08:38:23.000Z</time>
      </trkpt>
      <trkpt lat="27.93999" lon="86.807558">
        <ele>4871</ele>
        <time>2022-10-25T08:38:27.000Z</time>
      </trkpt>
      <trkpt lat="27.940042" lon="86.807533">
        <ele>4871.4</ele>
        <time>2022-10-25T08:40:54.000Z</time>
      </trkpt>
      <trkpt lat="27.940064" lon="86.807546">
        <ele>4871.4</ele>
        <time>2022-10-25T08:40:56.000Z</time>
      </trkpt>
      <trkpt lat="27.940083" lon="86.807558">
        <ele>4871.6</ele>
        <time>2022-10-25T08:40:58.000Z</time>
      </trkpt>
      <trkpt lat="27.940102" lon="86.807571">
        <ele>4871.6</ele>
        <time>2022-10-25T08:41:00.000Z</time>
      </trkpt>
      <trkpt lat="27.940122" lon="86.807578">
        <ele>4871.6</ele>
        <time>2022-10-25T08:41:02.000Z</time>
      </trkpt>
      <trkpt lat="27.940141" lon="86.807584">
        <ele>4872.6</ele>
        <time>2022-10-25T08:41:05.000Z</time>
      </trkpt>
      <trkpt lat="27.94016" lon="86.807597">
        <ele>4872.2</ele>
        <time>2022-10-25T08:41:10.000Z</time>
      </trkpt>
      <trkpt lat="27.940179" lon="86.807603">
        <ele>4872</ele>
        <time>2022-10-25T08:41:14.000Z</time>
      </trkpt>
      <trkpt lat="27.940202" lon="86.807616">
        <ele>4872</ele>
        <time>2022-10-25T08:41:18.000Z</time>
      </trkpt>
      <trkpt lat="27.940221" lon="86.807635">
        <ele>4872.6</ele>
        <time>2022-10-25T08:41:21.000Z</time>
      </trkpt>
      <trkpt lat="27.94024" lon="86.807648">
        <ele>4872.6</ele>
        <time>2022-10-25T08:41:24.000Z</time>
      </trkpt>
      <trkpt lat="27.940262" lon="86.807654">
        <ele>4872.8</ele>
        <time>2022-10-25T08:41:28.000Z</time>
      </trkpt>
      <trkpt lat="27.940288" lon="86.807661">
        <ele>4872.6</ele>
        <time>2022-10-25T08:41:32.000Z</time>
      </trkpt>
      <trkpt lat="27.940304" lon="86.80768">
        <ele>4872.6</ele>
        <time>2022-10-25T08:41:35.000Z</time>
      </trkpt>
      <trkpt lat="27.940326" lon="86.807686">
        <ele>4872.8</ele>
        <time>2022-10-25T08:41:40.000Z</time>
      </trkpt>
      <trkpt lat="27.940346" lon="86.807686">
        <ele>4873.2</ele>
        <time>2022-10-25T08:41:43.000Z</time>
      </trkpt>
      <trkpt lat="27.940365" lon="86.807693">
        <ele>4873.8</ele>
        <time>2022-10-25T08:41:47.000Z</time>
      </trkpt>
      <trkpt lat="27.940384" lon="86.807699">
        <ele>4873.8</ele>
        <time>2022-10-25T08:41:51.000Z</time>
      </trkpt>
      <trkpt lat="27.940406" lon="86.807706">
        <ele>4873.8</ele>
        <time>2022-10-25T08:41:55.000Z</time>
      </trkpt>
      <trkpt lat="27.940422" lon="86.807718">
        <ele>4873.8</ele>
        <time>2022-10-25T08:41:58.000Z</time>
      </trkpt>
      <trkpt lat="27.940442" lon="86.807725">
        <ele>4874.4</ele>
        <time>2022-10-25T08:42:02.000Z</time>
      </trkpt>
      <trkpt lat="27.940461" lon="86.807731">
        <ele>4874.6</ele>
        <time>2022-10-25T08:42:06.000Z</time>
      </trkpt>
      <trkpt lat="27.94048" lon="86.807731">
        <ele>4875</ele>
        <time>2022-10-25T08:42:10.000Z</time>
      </trkpt>
      <trkpt lat="27.940502" lon="86.807744">
        <ele>4875.2</ele>
        <time>2022-10-25T08:42:14.000Z</time>
      </trkpt>
      <trkpt lat="27.940518" lon="86.807757">
        <ele>4875.4</ele>
        <time>2022-10-25T08:42:17.000Z</time>
      </trkpt>
      <trkpt lat="27.940541" lon="86.807763">
        <ele>4875.8</ele>
        <time>2022-10-25T08:42:20.000Z</time>
      </trkpt>
      <trkpt lat="27.940566" lon="86.807776">
        <ele>4875.8</ele>
        <time>2022-10-25T08:42:24.000Z</time>
      </trkpt>
      <trkpt lat="27.940586" lon="86.807782">
        <ele>4875.8</ele>
        <time>2022-10-25T08:42:27.000Z</time>
      </trkpt>
      <trkpt lat="27.940605" lon="86.807795">
        <ele>4876</ele>
        <time>2022-10-25T08:42:31.000Z</time>
      </trkpt>
      <trkpt lat="27.940627" lon="86.807795">
        <ele>4876.2</ele>
        <time>2022-10-25T08:42:35.000Z</time>
      </trkpt>
      <trkpt lat="27.940646" lon="86.807802">
        <ele>4876.8</ele>
        <time>2022-10-25T08:42:38.000Z</time>
      </trkpt>
      <trkpt lat="27.940662" lon="86.807814">
        <ele>4876.8</ele>
        <time>2022-10-25T08:42:41.000Z</time>
      </trkpt>
      <trkpt lat="27.940685" lon="86.807814">
        <ele>4876.8</ele>
        <time>2022-10-25T08:42:45.000Z</time>
      </trkpt>
      <trkpt lat="27.940704" lon="86.807834">
        <ele>4877.2</ele>
        <time>2022-10-25T08:42:48.000Z</time>
      </trkpt>
      <trkpt lat="27.940726" lon="86.80784">
        <ele>4877.4</ele>
        <time>2022-10-25T08:42:53.000Z</time>
      </trkpt>
      <trkpt lat="27.940749" lon="86.807846">
        <ele>4878</ele>
        <time>2022-10-25T08:42:58.000Z</time>
      </trkpt>
      <trkpt lat="27.940768" lon="86.807853">
        <ele>4878</ele>
        <time>2022-10-25T08:43:01.000Z</time>
      </trkpt>
      <trkpt lat="27.940794" lon="86.807853">
        <ele>4878.2</ele>
        <time>2022-10-25T08:43:05.000Z</time>
      </trkpt>
      <trkpt lat="27.940819" lon="86.807859">
        <ele>4878.2</ele>
        <time>2022-10-25T08:43:09.000Z</time>
      </trkpt>
      <trkpt lat="27.940838" lon="86.807872">
        <ele>4878.8</ele>
        <time>2022-10-25T08:43:13.000Z</time>
      </trkpt>
      <trkpt lat="27.940864" lon="86.807878">
        <ele>4878.4</ele>
        <time>2022-10-25T08:43:16.000Z</time>
      </trkpt>
      <trkpt lat="27.940883" lon="86.807885">
        <ele>4878.4</ele>
        <time>2022-10-25T08:43:19.000Z</time>
      </trkpt>
      <trkpt lat="27.940906" lon="86.807898">
        <ele>4878.8</ele>
        <time>2022-10-25T08:43:23.000Z</time>
      </trkpt>
      <trkpt lat="27.940928" lon="86.807904">
        <ele>4879</ele>
        <time>2022-10-25T08:43:26.000Z</time>
      </trkpt>
      <trkpt lat="27.940941" lon="86.807923">
        <ele>4879</ele>
        <time>2022-10-25T08:43:28.000Z</time>
      </trkpt>
      <trkpt lat="27.94096" lon="86.807942">
        <ele>4879.2</ele>
        <time>2022-10-25T08:43:31.000Z</time>
      </trkpt>
      <trkpt lat="27.940982" lon="86.807955">
        <ele>4879</ele>
        <time>2022-10-25T08:43:34.000Z</time>
      </trkpt>
      <trkpt lat="27.940998" lon="86.807974">
        <ele>4879</ele>
        <time>2022-10-25T08:43:38.000Z</time>
      </trkpt>
      <trkpt lat="27.941018" lon="86.807994">
        <ele>4879</ele>
        <time>2022-10-25T08:43:41.000Z</time>
      </trkpt>
      <trkpt lat="27.941034" lon="86.808006">
        <ele>4878.8</ele>
        <time>2022-10-25T08:43:44.000Z</time>
      </trkpt>
      <trkpt lat="27.941056" lon="86.808013">
        <ele>4878.4</ele>
        <time>2022-10-25T08:43:47.000Z</time>
      </trkpt>
      <trkpt lat="27.941075" lon="86.808019">
        <ele>4878.4</ele>
        <time>2022-10-25T08:43:50.000Z</time>
      </trkpt>
      <trkpt lat="27.941094" lon="86.808019">
        <ele>4878.4</ele>
        <time>2022-10-25T08:43:53.000Z</time>
      </trkpt>
      <trkpt lat="27.941114" lon="86.808019">
        <ele>4878.6</ele>
        <time>2022-10-25T08:43:56.000Z</time>
      </trkpt>
      <trkpt lat="27.941136" lon="86.808032">
        <ele>4878.8</ele>
        <time>2022-10-25T08:44:00.000Z</time>
      </trkpt>
      <trkpt lat="27.941155" lon="86.808038">
        <ele>4879</ele>
        <time>2022-10-25T08:44:03.000Z</time>
      </trkpt>
      <trkpt lat="27.941174" lon="86.808038">
        <ele>4879.2</ele>
        <time>2022-10-25T08:44:06.000Z</time>
      </trkpt>
      <trkpt lat="27.941194" lon="86.808032">
        <ele>4879.6</ele>
        <time>2022-10-25T08:44:09.000Z</time>
      </trkpt>
      <trkpt lat="27.941213" lon="86.808045">
        <ele>4879.8</ele>
        <time>2022-10-25T08:44:12.000Z</time>
      </trkpt>
      <trkpt lat="27.941232" lon="86.808058">
        <ele>4880</ele>
        <time>2022-10-25T08:44:17.000Z</time>
      </trkpt>
      <trkpt lat="27.941251" lon="86.80807">
        <ele>4880.4</ele>
        <time>2022-10-25T08:44:21.000Z</time>
      </trkpt>
      <trkpt lat="27.94127" lon="86.808083">
        <ele>4880</ele>
        <time>2022-10-25T08:44:25.000Z</time>
      </trkpt>
      <trkpt lat="27.941296" lon="86.808083">
        <ele>4880.8</ele>
        <time>2022-10-25T08:44:29.000Z</time>
      </trkpt>
      <trkpt lat="27.941322" lon="86.808083">
        <ele>4881.4</ele>
        <time>2022-10-25T08:44:33.000Z</time>
      </trkpt>
      <trkpt lat="27.941338" lon="86.808096">
        <ele>4881.2</ele>
        <time>2022-10-25T08:44:36.000Z</time>
      </trkpt>
      <trkpt lat="27.941357" lon="86.808096">
        <ele>4881.2</ele>
        <time>2022-10-25T08:44:40.000Z</time>
      </trkpt>
      <trkpt lat="27.941376" lon="86.808102">
        <ele>4881.8</ele>
        <time>2022-10-25T08:44:58.000Z</time>
      </trkpt>
      <trkpt lat="27.941437" lon="86.808128">
        <ele>4881.8</ele>
        <time>2022-10-25T08:45:04.000Z</time>
      </trkpt>
      <trkpt lat="27.941456" lon="86.808141">
        <ele>4881.8</ele>
        <time>2022-10-25T08:45:06.000Z</time>
      </trkpt>
      <trkpt lat="27.941478" lon="86.808154">
        <ele>4882</ele>
        <time>2022-10-25T08:45:09.000Z</time>
      </trkpt>
      <trkpt lat="27.941494" lon="86.808166">
        <ele>4882</ele>
        <time>2022-10-25T08:45:13.000Z</time>
      </trkpt>
      <trkpt lat="27.94152" lon="86.808179">
        <ele>4882</ele>
        <time>2022-10-25T08:45:17.000Z</time>
      </trkpt>
      <trkpt lat="27.941539" lon="86.808192">
        <ele>4882.2</ele>
        <time>2022-10-25T08:45:19.000Z</time>
      </trkpt>
      <trkpt lat="27.941562" lon="86.808198">
        <ele>4882</ele>
        <time>2022-10-25T08:45:22.000Z</time>
      </trkpt>
      <trkpt lat="27.941597" lon="86.808218">
        <ele>4882.6</ele>
        <time>2022-10-25T08:45:26.000Z</time>
      </trkpt>
      <trkpt lat="27.941613" lon="86.80823">
        <ele>4882.8</ele>
        <time>2022-10-25T08:45:29.000Z</time>
      </trkpt>
      <trkpt lat="27.941632" lon="86.808243">
        <ele>4883</ele>
        <time>2022-10-25T08:45:32.000Z</time>
      </trkpt>
      <trkpt lat="27.941648" lon="86.808256">
        <ele>4883</ele>
        <time>2022-10-25T08:45:35.000Z</time>
      </trkpt>
      <trkpt lat="27.941664" lon="86.808275">
        <ele>4883.4</ele>
        <time>2022-10-25T08:45:38.000Z</time>
      </trkpt>
      <trkpt lat="27.94168" lon="86.808288">
        <ele>4883.4</ele>
        <time>2022-10-25T08:45:41.000Z</time>
      </trkpt>
      <trkpt lat="27.941702" lon="86.808301">
        <ele>4883.4</ele>
        <time>2022-10-25T08:45:45.000Z</time>
      </trkpt>
      <trkpt lat="27.941712" lon="86.80832">
        <ele>4883.6</ele>
        <time>2022-10-25T08:45:48.000Z</time>
      </trkpt>
      <trkpt lat="27.941731" lon="86.808326">
        <ele>4883.8</ele>
        <time>2022-10-25T08:45:52.000Z</time>
      </trkpt>
      <trkpt lat="27.941754" lon="86.808326">
        <ele>4883.8</ele>
        <time>2022-10-25T08:45:56.000Z</time>
      </trkpt>
      <trkpt lat="27.941773" lon="86.808339">
        <ele>4884.4</ele>
        <time>2022-10-25T08:45:59.000Z</time>
      </trkpt>
      <trkpt lat="27.941795" lon="86.808339">
        <ele>4884.8</ele>
        <time>2022-10-25T08:46:04.000Z</time>
      </trkpt>
      <trkpt lat="27.941811" lon="86.808358">
        <ele>4885</ele>
        <time>2022-10-25T08:46:07.000Z</time>
      </trkpt>
      <trkpt lat="27.941827" lon="86.808371">
        <ele>4884.8</ele>
        <time>2022-10-25T08:46:10.000Z</time>
      </trkpt>
      <trkpt lat="27.94185" lon="86.808378">
        <ele>4884.8</ele>
        <time>2022-10-25T08:46:14.000Z</time>
      </trkpt>
      <trkpt lat="27.941866" lon="86.80839">
        <ele>4885</ele>
        <time>2022-10-25T08:46:17.000Z</time>
      </trkpt>
      <trkpt lat="27.941891" lon="86.808403">
        <ele>4885</ele>
        <time>2022-10-25T08:46:20.000Z</time>
      </trkpt>
      <trkpt lat="27.941907" lon="86.808416">
        <ele>4885.2</ele>
        <time>2022-10-25T08:46:23.000Z</time>
      </trkpt>
      <trkpt lat="27.941923" lon="86.808435">
        <ele>4885.6</ele>
        <time>2022-10-25T08:46:27.000Z</time>
      </trkpt>
      <trkpt lat="27.941942" lon="86.808442">
        <ele>4885.6</ele>
        <time>2022-10-25T08:46:31.000Z</time>
      </trkpt>
      <trkpt lat="27.941962" lon="86.808454">
        <ele>4886.2</ele>
        <time>2022-10-25T08:46:36.000Z</time>
      </trkpt>
      <trkpt lat="27.941978" lon="86.808467">
        <ele>4886.2</ele>
        <time>2022-10-25T08:46:38.000Z</time>
      </trkpt>
      <trkpt lat="27.941997" lon="86.808486">
        <ele>4886.4</ele>
        <time>2022-10-25T08:46:42.000Z</time>
      </trkpt>
      <trkpt lat="27.942019" lon="86.808493">
        <ele>4886.4</ele>
        <time>2022-10-25T08:46:45.000Z</time>
      </trkpt>
      <trkpt lat="27.942038" lon="86.808499">
        <ele>4886.6</ele>
        <time>2022-10-25T08:46:49.000Z</time>
      </trkpt>
      <trkpt lat="27.942061" lon="86.808499">
        <ele>4887</ele>
        <time>2022-10-25T08:46:53.000Z</time>
      </trkpt>
      <trkpt lat="27.942077" lon="86.808512">
        <ele>4887.6</ele>
        <time>2022-10-25T08:46:55.000Z</time>
      </trkpt>
      <trkpt lat="27.942096" lon="86.808518">
        <ele>4887.6</ele>
        <time>2022-10-25T08:46:58.000Z</time>
      </trkpt>
      <trkpt lat="27.942115" lon="86.808531">
        <ele>4887.8</ele>
        <time>2022-10-25T08:47:01.000Z</time>
      </trkpt>
      <trkpt lat="27.942128" lon="86.80855">
        <ele>4887.8</ele>
        <time>2022-10-25T08:47:03.000Z</time>
      </trkpt>
      <trkpt lat="27.942147" lon="86.808563">
        <ele>4887.8</ele>
        <time>2022-10-25T08:47:06.000Z</time>
      </trkpt>
      <trkpt lat="27.94217" lon="86.80857">
        <ele>4888</ele>
        <time>2022-10-25T08:47:09.000Z</time>
      </trkpt>
      <trkpt lat="27.942186" lon="86.808589">
        <ele>4888</ele>
        <time>2022-10-25T08:47:12.000Z</time>
      </trkpt>
      <trkpt lat="27.942208" lon="86.808595">
        <ele>4888.4</ele>
        <time>2022-10-25T08:47:15.000Z</time>
      </trkpt>
      <trkpt lat="27.942224" lon="86.808608">
        <ele>4888.4</ele>
        <time>2022-10-25T08:47:19.000Z</time>
      </trkpt>
      <trkpt lat="27.942243" lon="86.808627">
        <ele>4888</ele>
        <time>2022-10-25T08:47:22.000Z</time>
      </trkpt>
      <trkpt lat="27.942266" lon="86.808646">
        <ele>4888.4</ele>
        <time>2022-10-25T08:47:25.000Z</time>
      </trkpt>
      <trkpt lat="27.942288" lon="86.808666">
        <ele>4888.4</ele>
        <time>2022-10-25T08:47:29.000Z</time>
      </trkpt>
      <trkpt lat="27.942307" lon="86.808685">
        <ele>4888.4</ele>
        <time>2022-10-25T08:47:33.000Z</time>
      </trkpt>
      <trkpt lat="27.942323" lon="86.80871">
        <ele>4888.8</ele>
        <time>2022-10-25T08:47:37.000Z</time>
      </trkpt>
      <trkpt lat="27.942342" lon="86.808723">
        <ele>4888.8</ele>
        <time>2022-10-25T08:47:40.000Z</time>
      </trkpt>
      <trkpt lat="27.942365" lon="86.808736">
        <ele>4889.4</ele>
        <time>2022-10-25T08:47:45.000Z</time>
      </trkpt>
      <trkpt lat="27.942381" lon="86.808749">
        <ele>4889.8</ele>
        <time>2022-10-25T08:47:48.000Z</time>
      </trkpt>
      <trkpt lat="27.942403" lon="86.808762">
        <ele>4890</ele>
        <time>2022-10-25T08:47:51.000Z</time>
      </trkpt>
      <trkpt lat="27.942419" lon="86.808774">
        <ele>4890</ele>
        <time>2022-10-25T08:47:54.000Z</time>
      </trkpt>
      <trkpt lat="27.942435" lon="86.808794">
        <ele>4889.8</ele>
        <time>2022-10-25T08:47:57.000Z</time>
      </trkpt>
      <trkpt lat="27.942454" lon="86.808813">
        <ele>4889.8</ele>
        <time>2022-10-25T08:48:01.000Z</time>
      </trkpt>
      <trkpt lat="27.942477" lon="86.808826">
        <ele>4889.4</ele>
        <time>2022-10-25T08:48:05.000Z</time>
      </trkpt>
      <trkpt lat="27.942499" lon="86.808826">
        <ele>4889.8</ele>
        <time>2022-10-25T08:48:09.000Z</time>
      </trkpt>
      <trkpt lat="27.942522" lon="86.808826">
        <ele>4890</ele>
        <time>2022-10-25T08:48:13.000Z</time>
      </trkpt>
      <trkpt lat="27.942541" lon="86.808826">
        <ele>4890.6</ele>
        <time>2022-10-25T08:48:16.000Z</time>
      </trkpt>
      <trkpt lat="27.942563" lon="86.808826">
        <ele>4890.4</ele>
        <time>2022-10-25T08:48:19.000Z</time>
      </trkpt>
      <trkpt lat="27.942586" lon="86.808838">
        <ele>4890.6</ele>
        <time>2022-10-25T08:48:22.000Z</time>
      </trkpt>
      <trkpt lat="27.942602" lon="86.808851">
        <ele>4890.4</ele>
        <time>2022-10-25T08:48:24.000Z</time>
      </trkpt>
      <trkpt lat="27.942624" lon="86.808858">
        <ele>4891</ele>
        <time>2022-10-25T08:48:27.000Z</time>
      </trkpt>
      <trkpt lat="27.942643" lon="86.80887">
        <ele>4890.6</ele>
        <time>2022-10-25T08:48:30.000Z</time>
      </trkpt>
      <trkpt lat="27.942662" lon="86.808877">
        <ele>4890.6</ele>
        <time>2022-10-25T08:48:32.000Z</time>
      </trkpt>
      <trkpt lat="27.942685" lon="86.808883">
        <ele>4891.2</ele>
        <time>2022-10-25T08:48:36.000Z</time>
      </trkpt>
      <trkpt lat="27.942704" lon="86.808883">
        <ele>4891.2</ele>
        <time>2022-10-25T08:48:40.000Z</time>
      </trkpt>
      <trkpt lat="27.942723" lon="86.80889">
        <ele>4891</ele>
        <time>2022-10-25T08:48:43.000Z</time>
      </trkpt>
      <trkpt lat="27.942746" lon="86.80889">
        <ele>4891.2</ele>
        <time>2022-10-25T08:48:47.000Z</time>
      </trkpt>
      <trkpt lat="27.942765" lon="86.80889">
        <ele>4891.8</ele>
        <time>2022-10-25T08:48:50.000Z</time>
      </trkpt>
      <trkpt lat="27.942787" lon="86.808909">
        <ele>4891.8</ele>
        <time>2022-10-25T08:48:53.000Z</time>
      </trkpt>
      <trkpt lat="27.94281" lon="86.808909">
        <ele>4891.8</ele>
        <time>2022-10-25T08:48:56.000Z</time>
      </trkpt>
      <trkpt lat="27.942829" lon="86.808915">
        <ele>4892.6</ele>
        <time>2022-10-25T08:49:06.000Z</time>
      </trkpt>
      <trkpt lat="27.942835" lon="86.80889">
        <ele>4896</ele>
        <time>2022-10-25T08:53:28.000Z</time>
      </trkpt>
      <trkpt lat="27.942861" lon="86.808896">
        <ele>4895.8</ele>
        <time>2022-10-25T08:53:30.000Z</time>
      </trkpt>
      <trkpt lat="27.94288" lon="86.808909">
        <ele>4896</ele>
        <time>2022-10-25T08:53:31.000Z</time>
      </trkpt>
      <trkpt lat="27.942896" lon="86.808922">
        <ele>4896</ele>
        <time>2022-10-25T08:53:32.000Z</time>
      </trkpt>
      <trkpt lat="27.942928" lon="86.808934">
        <ele>4896.2</ele>
        <time>2022-10-25T08:53:34.000Z</time>
      </trkpt>
      <trkpt lat="27.942944" lon="86.808947">
        <ele>4896.6</ele>
        <time>2022-10-25T08:53:35.000Z</time>
      </trkpt>
      <trkpt lat="27.94297" lon="86.80896">
        <ele>4896.6</ele>
        <time>2022-10-25T08:53:37.000Z</time>
      </trkpt>
      <trkpt lat="27.942989" lon="86.808966">
        <ele>4896.8</ele>
        <time>2022-10-25T08:53:41.000Z</time>
      </trkpt>
      <trkpt lat="27.943014" lon="86.808973">
        <ele>4896.8</ele>
        <time>2022-10-25T08:53:44.000Z</time>
      </trkpt>
      <trkpt lat="27.94303" lon="86.808992">
        <ele>4896.8</ele>
        <time>2022-10-25T08:53:47.000Z</time>
      </trkpt>
      <trkpt lat="27.943053" lon="86.809005">
        <ele>4897.2</ele>
        <time>2022-10-25T08:53:50.000Z</time>
      </trkpt>
      <trkpt lat="27.943075" lon="86.809011">
        <ele>4897.4</ele>
        <time>2022-10-25T08:53:54.000Z</time>
      </trkpt>
      <trkpt lat="27.943101" lon="86.809024">
        <ele>4897.4</ele>
        <time>2022-10-25T08:53:57.000Z</time>
      </trkpt>
      <trkpt lat="27.94312" lon="86.809037">
        <ele>4898</ele>
        <time>2022-10-25T08:54:00.000Z</time>
      </trkpt>
      <trkpt lat="27.943139" lon="86.80905">
        <ele>4897.2</ele>
        <time>2022-10-25T08:54:08.000Z</time>
      </trkpt>
      <trkpt lat="27.943152" lon="86.809075">
        <ele>4897.2</ele>
        <time>2022-10-25T08:54:44.000Z</time>
      </trkpt>
      <trkpt lat="27.943171" lon="86.809094">
        <ele>4897.2</ele>
        <time>2022-10-25T08:54:46.000Z</time>
      </trkpt>
      <trkpt lat="27.943187" lon="86.809107">
        <ele>4897.2</ele>
        <time>2022-10-25T08:54:47.000Z</time>
      </trkpt>
      <trkpt lat="27.943206" lon="86.809133">
        <ele>4897.4</ele>
        <time>2022-10-25T08:54:49.000Z</time>
      </trkpt>
      <trkpt lat="27.943229" lon="86.809152">
        <ele>4897.6</ele>
        <time>2022-10-25T08:54:51.000Z</time>
      </trkpt>
      <trkpt lat="27.943248" lon="86.809165">
        <ele>4897.6</ele>
        <time>2022-10-25T08:54:53.000Z</time>
      </trkpt>
      <trkpt lat="27.943267" lon="86.809184">
        <ele>4897.2</ele>
        <time>2022-10-25T08:54:56.000Z</time>
      </trkpt>
      <trkpt lat="27.94329" lon="86.809184">
        <ele>4897.4</ele>
        <time>2022-10-25T08:54:58.000Z</time>
      </trkpt>
      <trkpt lat="27.943338" lon="86.809197">
        <ele>4897.4</ele>
        <time>2022-10-25T08:55:03.000Z</time>
      </trkpt>
      <trkpt lat="27.943357" lon="86.809203">
        <ele>4897.6</ele>
        <time>2022-10-25T08:55:05.000Z</time>
      </trkpt>
      <trkpt lat="27.94337" lon="86.809222">
        <ele>4898.2</ele>
        <time>2022-10-25T08:55:08.000Z</time>
      </trkpt>
      <trkpt lat="27.943398" lon="86.809222">
        <ele>4899.6</ele>
        <time>2022-10-25T08:56:11.000Z</time>
      </trkpt>
      <trkpt lat="27.943424" lon="86.809229">
        <ele>4899.6</ele>
        <time>2022-10-25T08:56:13.000Z</time>
      </trkpt>
      <trkpt lat="27.94345" lon="86.809242">
        <ele>4899.4</ele>
        <time>2022-10-25T08:56:15.000Z</time>
      </trkpt>
      <trkpt lat="27.943469" lon="86.809267">
        <ele>4899.6</ele>
        <time>2022-10-25T08:56:17.000Z</time>
      </trkpt>
      <trkpt lat="27.943491" lon="86.80928">
        <ele>4899.6</ele>
        <time>2022-10-25T08:56:19.000Z</time>
      </trkpt>
      <trkpt lat="27.94351" lon="86.809286">
        <ele>4899.6</ele>
        <time>2022-10-25T08:56:22.000Z</time>
      </trkpt>
      <trkpt lat="27.94353" lon="86.809306">
        <ele>4899.8</ele>
        <time>2022-10-25T08:56:24.000Z</time>
      </trkpt>
      <trkpt lat="27.943549" lon="86.809318">
        <ele>4899.8</ele>
        <time>2022-10-25T08:56:27.000Z</time>
      </trkpt>
      <trkpt lat="27.943568" lon="86.809331">
        <ele>4899.6</ele>
        <time>2022-10-25T08:56:30.000Z</time>
      </trkpt>
      <trkpt lat="27.943587" lon="86.809331">
        <ele>4899.8</ele>
        <time>2022-10-25T08:56:33.000Z</time>
      </trkpt>
      <trkpt lat="27.943606" lon="86.809325">
        <ele>4900</ele>
        <time>2022-10-25T08:56:37.000Z</time>
      </trkpt>
      <trkpt lat="27.943635" lon="86.809331">
        <ele>4901.4</ele>
        <time>2022-10-25T08:57:08.000Z</time>
      </trkpt>
      <trkpt lat="27.943661" lon="86.809344">
        <ele>4901.2</ele>
        <time>2022-10-25T08:57:10.000Z</time>
      </trkpt>
      <trkpt lat="27.94369" lon="86.80935">
        <ele>4901</ele>
        <time>2022-10-25T08:57:12.000Z</time>
      </trkpt>
      <trkpt lat="27.943715" lon="86.809357">
        <ele>4901.2</ele>
        <time>2022-10-25T08:57:14.000Z</time>
      </trkpt>
      <trkpt lat="27.943741" lon="86.809363">
        <ele>4901.2</ele>
        <time>2022-10-25T08:57:16.000Z</time>
      </trkpt>
      <trkpt lat="27.943766" lon="86.80937">
        <ele>4901.2</ele>
        <time>2022-10-25T08:57:19.000Z</time>
      </trkpt>
      <trkpt lat="27.943782" lon="86.809382">
        <ele>4901.2</ele>
        <time>2022-10-25T08:57:21.000Z</time>
      </trkpt>
      <trkpt lat="27.943805" lon="86.809395">
        <ele>4901.2</ele>
        <time>2022-10-25T08:57:25.000Z</time>
      </trkpt>
      <trkpt lat="27.94383" lon="86.809408">
        <ele>4901.4</ele>
        <time>2022-10-25T08:57:28.000Z</time>
      </trkpt>
      <trkpt lat="27.94385" lon="86.809427">
        <ele>4901.8</ele>
        <time>2022-10-25T08:57:31.000Z</time>
      </trkpt>
      <trkpt lat="27.943872" lon="86.809446">
        <ele>4901.8</ele>
        <time>2022-10-25T08:57:34.000Z</time>
      </trkpt>
      <trkpt lat="27.943882" lon="86.809466">
        <ele>4902</ele>
        <time>2022-10-25T08:57:37.000Z</time>
      </trkpt>
      <trkpt lat="27.943898" lon="86.809478">
        <ele>4902.4</ele>
        <time>2022-10-25T08:57:40.000Z</time>
      </trkpt>
      <trkpt lat="27.943914" lon="86.809491">
        <ele>4902.4</ele>
        <time>2022-10-25T08:57:43.000Z</time>
      </trkpt>
      <trkpt lat="27.943926" lon="86.80951">
        <ele>4902.6</ele>
        <time>2022-10-25T08:57:45.000Z</time>
      </trkpt>
      <trkpt lat="27.943946" lon="86.809517">
        <ele>4902.6</ele>
        <time>2022-10-25T08:57:48.000Z</time>
      </trkpt>
      <trkpt lat="27.943971" lon="86.809523">
        <ele>4903</ele>
        <time>2022-10-25T08:57:51.000Z</time>
      </trkpt>
      <trkpt lat="27.94399" lon="86.809523">
        <ele>4902.6</ele>
        <time>2022-10-25T08:57:54.000Z</time>
      </trkpt>
      <trkpt lat="27.944013" lon="86.809523">
        <ele>4903.4</ele>
        <time>2022-10-25T08:57:58.000Z</time>
      </trkpt>
      <trkpt lat="27.944035" lon="86.809542">
        <ele>4903.4</ele>
        <time>2022-10-25T08:58:01.000Z</time>
      </trkpt>
      <trkpt lat="27.944054" lon="86.809562">
        <ele>4903.2</ele>
        <time>2022-10-25T08:58:04.000Z</time>
      </trkpt>
      <trkpt lat="27.944067" lon="86.809581">
        <ele>4903.4</ele>
        <time>2022-10-25T08:58:06.000Z</time>
      </trkpt>
      <trkpt lat="27.94409" lon="86.809587">
        <ele>4903.2</ele>
        <time>2022-10-25T08:58:10.000Z</time>
      </trkpt>
      <trkpt lat="27.944112" lon="86.809594">
        <ele>4903.2</ele>
        <time>2022-10-25T08:58:13.000Z</time>
      </trkpt>
      <trkpt lat="27.944131" lon="86.809587">
        <ele>4903.6</ele>
        <time>2022-10-25T08:58:16.000Z</time>
      </trkpt>
      <trkpt lat="27.94415" lon="86.809568">
        <ele>4903.8</ele>
        <time>2022-10-25T08:58:19.000Z</time>
      </trkpt>
      <trkpt lat="27.944173" lon="86.809581">
        <ele>4904</ele>
        <time>2022-10-25T08:58:22.000Z</time>
      </trkpt>
      <trkpt lat="27.944192" lon="86.809581">
        <ele>4904.2</ele>
        <time>2022-10-25T08:58:24.000Z</time>
      </trkpt>
      <trkpt lat="27.944211" lon="86.809594">
        <ele>4903.6</ele>
        <time>2022-10-25T08:58:27.000Z</time>
      </trkpt>
      <trkpt lat="27.94423" lon="86.8096">
        <ele>4903.8</ele>
        <time>2022-10-25T08:58:30.000Z</time>
      </trkpt>
      <trkpt lat="27.94425" lon="86.809606">
        <ele>4904.2</ele>
        <time>2022-10-25T08:58:33.000Z</time>
      </trkpt>
      <trkpt lat="27.944266" lon="86.809626">
        <ele>4904.2</ele>
        <time>2022-10-25T08:58:36.000Z</time>
      </trkpt>
      <trkpt lat="27.944285" lon="86.809638">
        <ele>4904.8</ele>
        <time>2022-10-25T08:58:40.000Z</time>
      </trkpt>
      <trkpt lat="27.944301" lon="86.809651">
        <ele>4904.8</ele>
        <time>2022-10-25T08:58:43.000Z</time>
      </trkpt>
      <trkpt lat="27.94432" lon="86.80967">
        <ele>4905.2</ele>
        <time>2022-10-25T08:58:46.000Z</time>
      </trkpt>
      <trkpt lat="27.944339" lon="86.809683">
        <ele>4905.4</ele>
        <time>2022-10-25T08:58:49.000Z</time>
      </trkpt>
      <trkpt lat="27.944358" lon="86.80969">
        <ele>4905.8</ele>
        <time>2022-10-25T08:58:53.000Z</time>
      </trkpt>
      <trkpt lat="27.944368" lon="86.809715">
        <ele>4906.2</ele>
        <time>2022-10-25T08:58:56.000Z</time>
      </trkpt>
      <trkpt lat="27.944387" lon="86.809722">
        <ele>4906.8</ele>
        <time>2022-10-25T08:59:00.000Z</time>
      </trkpt>
      <trkpt lat="27.94441" lon="86.809722">
        <ele>4906.8</ele>
        <time>2022-10-25T08:59:03.000Z</time>
      </trkpt>
      <trkpt lat="27.944419" lon="86.809747">
        <ele>4906.8</ele>
        <time>2022-10-25T08:59:05.000Z</time>
      </trkpt>
      <trkpt lat="27.944438" lon="86.80976">
        <ele>4907.2</ele>
        <time>2022-10-25T08:59:09.000Z</time>
      </trkpt>
      <trkpt lat="27.944461" lon="86.80976">
        <ele>4907.2</ele>
        <time>2022-10-25T08:59:12.000Z</time>
      </trkpt>
      <trkpt lat="27.94448" lon="86.809779">
        <ele>4907.2</ele>
        <time>2022-10-25T08:59:15.000Z</time>
      </trkpt>
      <trkpt lat="27.944499" lon="86.809792">
        <ele>4907.6</ele>
        <time>2022-10-25T08:59:19.000Z</time>
      </trkpt>
      <trkpt lat="27.944518" lon="86.809805">
        <ele>4908</ele>
        <time>2022-10-25T08:59:22.000Z</time>
      </trkpt>
      <trkpt lat="27.944538" lon="86.809818">
        <ele>4908.6</ele>
        <time>2022-10-25T08:59:25.000Z</time>
      </trkpt>
      <trkpt lat="27.94456" lon="86.80983">
        <ele>4908.2</ele>
        <time>2022-10-25T08:59:28.000Z</time>
      </trkpt>
      <trkpt lat="27.944576" lon="86.809843">
        <ele>4908.6</ele>
        <time>2022-10-25T08:59:31.000Z</time>
      </trkpt>
      <trkpt lat="27.944595" lon="86.80985">
        <ele>4908.2</ele>
        <time>2022-10-25T08:59:35.000Z</time>
      </trkpt>
      <trkpt lat="27.944618" lon="86.809862">
        <ele>4908.2</ele>
        <time>2022-10-25T08:59:38.000Z</time>
      </trkpt>
      <trkpt lat="27.94464" lon="86.809869">
        <ele>4908.2</ele>
        <time>2022-10-25T08:59:41.000Z</time>
      </trkpt>
      <trkpt lat="27.944653" lon="86.809888">
        <ele>4908</ele>
        <time>2022-10-25T08:59:43.000Z</time>
      </trkpt>
      <trkpt lat="27.944669" lon="86.809901">
        <ele>4908</ele>
        <time>2022-10-25T08:59:45.000Z</time>
      </trkpt>
      <trkpt lat="27.944691" lon="86.809901">
        <ele>4908.6</ele>
        <time>2022-10-25T08:59:48.000Z</time>
      </trkpt>
      <trkpt lat="27.94471" lon="86.809914">
        <ele>4908.6</ele>
        <time>2022-10-25T08:59:51.000Z</time>
      </trkpt>
      <trkpt lat="27.944726" lon="86.809926">
        <ele>4908.4</ele>
        <time>2022-10-25T08:59:53.000Z</time>
      </trkpt>
      <trkpt lat="27.944749" lon="86.809939">
        <ele>4908.6</ele>
        <time>2022-10-25T08:59:56.000Z</time>
      </trkpt>
      <trkpt lat="27.944768" lon="86.809939">
        <ele>4908.6</ele>
        <time>2022-10-25T08:59:58.000Z</time>
      </trkpt>
      <trkpt lat="27.94479" lon="86.809939">
        <ele>4908.8</ele>
        <time>2022-10-25T09:00:02.000Z</time>
      </trkpt>
      <trkpt lat="27.94481" lon="86.809946">
        <ele>4908.8</ele>
        <time>2022-10-25T09:00:04.000Z</time>
      </trkpt>
      <trkpt lat="27.944832" lon="86.809946">
        <ele>4908.8</ele>
        <time>2022-10-25T09:00:07.000Z</time>
      </trkpt>
      <trkpt lat="27.944848" lon="86.809958">
        <ele>4908.8</ele>
        <time>2022-10-25T09:00:10.000Z</time>
      </trkpt>
      <trkpt lat="27.94487" lon="86.809965">
        <ele>4909.2</ele>
        <time>2022-10-25T09:00:13.000Z</time>
      </trkpt>
      <trkpt lat="27.94489" lon="86.809965">
        <ele>4909.2</ele>
        <time>2022-10-25T09:00:16.000Z</time>
      </trkpt>
      <trkpt lat="27.944915" lon="86.809965">
        <ele>4909.2</ele>
        <time>2022-10-25T09:00:19.000Z</time>
      </trkpt>
      <trkpt lat="27.944934" lon="86.809965">
        <ele>4910</ele>
        <time>2022-10-25T09:00:23.000Z</time>
      </trkpt>
      <trkpt lat="27.944957" lon="86.809965">
        <ele>4910</ele>
        <time>2022-10-25T09:00:26.000Z</time>
      </trkpt>
      <trkpt lat="27.944976" lon="86.809978">
        <ele>4910.6</ele>
        <time>2022-10-25T09:00:29.000Z</time>
      </trkpt>
      <trkpt lat="27.944995" lon="86.80999">
        <ele>4910.6</ele>
        <time>2022-10-25T09:00:32.000Z</time>
      </trkpt>
      <trkpt lat="27.945018" lon="86.810003">
        <ele>4910.4</ele>
        <time>2022-10-25T09:00:35.000Z</time>
      </trkpt>
      <trkpt lat="27.945034" lon="86.810016">
        <ele>4910.4</ele>
        <time>2022-10-25T09:00:38.000Z</time>
      </trkpt>
      <trkpt lat="27.945053" lon="86.810029">
        <ele>4910.6</ele>
        <time>2022-10-25T09:00:41.000Z</time>
      </trkpt>
      <trkpt lat="27.945075" lon="86.810035">
        <ele>4910.6</ele>
        <time>2022-10-25T09:00:44.000Z</time>
      </trkpt>
      <trkpt lat="27.945098" lon="86.810035">
        <ele>4910.6</ele>
        <time>2022-10-25T09:00:47.000Z</time>
      </trkpt>
      <trkpt lat="27.94512" lon="86.810035">
        <ele>4911.2</ele>
        <time>2022-10-25T09:00:51.000Z</time>
      </trkpt>
      <trkpt lat="27.945142" lon="86.810042">
        <ele>4911</ele>
        <time>2022-10-25T09:00:54.000Z</time>
      </trkpt>
      <trkpt lat="27.945162" lon="86.810048">
        <ele>4911</ele>
        <time>2022-10-25T09:00:57.000Z</time>
      </trkpt>
      <trkpt lat="27.945178" lon="86.810061">
        <ele>4911.2</ele>
        <time>2022-10-25T09:00:59.000Z</time>
      </trkpt>
      <trkpt lat="27.945203" lon="86.810074">
        <ele>4911.2</ele>
        <time>2022-10-25T09:01:03.000Z</time>
      </trkpt>
      <trkpt lat="27.945222" lon="86.81008">
        <ele>4911.6</ele>
        <time>2022-10-25T09:01:06.000Z</time>
      </trkpt>
      <trkpt lat="27.945245" lon="86.810086">
        <ele>4911.6</ele>
        <time>2022-10-25T09:01:09.000Z</time>
      </trkpt>
      <trkpt lat="27.945264" lon="86.810099">
        <ele>4911.8</ele>
        <time>2022-10-25T09:01:12.000Z</time>
      </trkpt>
      <trkpt lat="27.945286" lon="86.810112">
        <ele>4912.2</ele>
        <time>2022-10-25T09:01:15.000Z</time>
      </trkpt>
      <trkpt lat="27.945312" lon="86.810118">
        <ele>4911.8</ele>
        <time>2022-10-25T09:01:18.000Z</time>
      </trkpt>
      <trkpt lat="27.945334" lon="86.810125">
        <ele>4912.2</ele>
        <time>2022-10-25T09:01:21.000Z</time>
      </trkpt>
      <trkpt lat="27.945354" lon="86.810138">
        <ele>4912.4</ele>
        <time>2022-10-25T09:01:24.000Z</time>
      </trkpt>
      <trkpt lat="27.945376" lon="86.810144">
        <ele>4912.8</ele>
        <time>2022-10-25T09:01:28.000Z</time>
      </trkpt>
      <trkpt lat="27.945395" lon="86.81015">
        <ele>4912.8</ele>
        <time>2022-10-25T09:01:31.000Z</time>
      </trkpt>
      <trkpt lat="27.945414" lon="86.810157">
        <ele>4913</ele>
        <time>2022-10-25T09:01:34.000Z</time>
      </trkpt>
      <trkpt lat="27.945434" lon="86.810163">
        <ele>4913.4</ele>
        <time>2022-10-25T09:01:36.000Z</time>
      </trkpt>
      <trkpt lat="27.945453" lon="86.810176">
        <ele>4913.4</ele>
        <time>2022-10-25T09:01:39.000Z</time>
      </trkpt>
      <trkpt lat="27.945475" lon="86.810182">
        <ele>4913.2</ele>
        <time>2022-10-25T09:01:42.000Z</time>
      </trkpt>
      <trkpt lat="27.945498" lon="86.810189">
        <ele>4913.4</ele>
        <time>2022-10-25T09:01:45.000Z</time>
      </trkpt>
      <trkpt lat="27.945517" lon="86.810202">
        <ele>4913.4</ele>
        <time>2022-10-25T09:01:48.000Z</time>
      </trkpt>
      <trkpt lat="27.945536" lon="86.810202">
        <ele>4914</ele>
        <time>2022-10-25T09:01:51.000Z</time>
      </trkpt>
      <trkpt lat="27.945555" lon="86.810202">
        <ele>4914</ele>
        <time>2022-10-25T09:01:54.000Z</time>
      </trkpt>
      <trkpt lat="27.945574" lon="86.810208">
        <ele>4914.6</ele>
        <time>2022-10-25T09:01:57.000Z</time>
      </trkpt>
      <trkpt lat="27.94559" lon="86.810221">
        <ele>4914.6</ele>
        <time>2022-10-25T09:01:59.000Z</time>
      </trkpt>
      <trkpt lat="27.945613" lon="86.810227">
        <ele>4914.8</ele>
        <time>2022-10-25T09:02:02.000Z</time>
      </trkpt>
      <trkpt lat="27.945629" lon="86.81024">
        <ele>4914.8</ele>
        <time>2022-10-25T09:02:04.000Z</time>
      </trkpt>
      <trkpt lat="27.945651" lon="86.810246">
        <ele>4915</ele>
        <time>2022-10-25T09:02:07.000Z</time>
      </trkpt>
      <trkpt lat="27.945667" lon="86.810259">
        <ele>4915.4</ele>
        <time>2022-10-25T09:02:10.000Z</time>
      </trkpt>
      <trkpt lat="27.945683" lon="86.810272">
        <ele>4915</ele>
        <time>2022-10-25T09:02:14.000Z</time>
      </trkpt>
      <trkpt lat="27.945702" lon="86.810278">
        <ele>4915.2</ele>
        <time>2022-10-25T09:02:17.000Z</time>
      </trkpt>
      <trkpt lat="27.945725" lon="86.810285">
        <ele>4915.2</ele>
        <time>2022-10-25T09:02:20.000Z</time>
      </trkpt>
      <trkpt lat="27.945741" lon="86.810298">
        <ele>4915.8</ele>
        <time>2022-10-25T09:02:23.000Z</time>
      </trkpt>
      <trkpt lat="27.94576" lon="86.810298">
        <ele>4915.8</ele>
        <time>2022-10-25T09:02:26.000Z</time>
      </trkpt>
      <trkpt lat="27.945789" lon="86.81031">
        <ele>4917.6</ele>
        <time>2022-10-25T09:03:17.000Z</time>
      </trkpt>
      <trkpt lat="27.945811" lon="86.810317">
        <ele>4918</ele>
        <time>2022-10-25T09:03:19.000Z</time>
      </trkpt>
      <trkpt lat="27.94584" lon="86.810317">
        <ele>4918.2</ele>
        <time>2022-10-25T09:03:22.000Z</time>
      </trkpt>
      <trkpt lat="27.945859" lon="86.810317">
        <ele>4918.2</ele>
        <time>2022-10-25T09:03:24.000Z</time>
      </trkpt>
      <trkpt lat="27.945882" lon="86.810317">
        <ele>4918.2</ele>
        <time>2022-10-25T09:03:26.000Z</time>
      </trkpt>
      <trkpt lat="27.945901" lon="86.810317">
        <ele>4918.8</ele>
        <time>2022-10-25T09:03:30.000Z</time>
      </trkpt>
      <trkpt lat="27.94592" lon="86.810323">
        <ele>4919.4</ele>
        <time>2022-10-25T09:03:34.000Z</time>
      </trkpt>
      <trkpt lat="27.945939" lon="86.810323">
        <ele>4920.2</ele>
        <time>2022-10-25T09:03:40.000Z</time>
      </trkpt>
      <trkpt lat="27.945958" lon="86.810317">
        <ele>4920.2</ele>
        <time>2022-10-25T09:03:44.000Z</time>
      </trkpt>
      <trkpt lat="27.945971" lon="86.810336">
        <ele>4921</ele>
        <time>2022-10-25T09:03:47.000Z</time>
      </trkpt>
      <trkpt lat="27.94599" lon="86.810336">
        <ele>4921.4</ele>
        <time>2022-10-25T09:03:51.000Z</time>
      </trkpt>
      <trkpt lat="27.946013" lon="86.810342">
        <ele>4921.4</ele>
        <time>2022-10-25T09:03:56.000Z</time>
      </trkpt>
      <trkpt lat="27.946032" lon="86.810349">
        <ele>4921.4</ele>
        <time>2022-10-25T09:04:00.000Z</time>
      </trkpt>
      <trkpt lat="27.946051" lon="86.810355">
        <ele>4921</ele>
        <time>2022-10-25T09:04:05.000Z</time>
      </trkpt>
      <trkpt lat="27.94607" lon="86.810362">
        <ele>4921.6</ele>
        <time>2022-10-25T09:04:08.000Z</time>
      </trkpt>
      <trkpt lat="27.946086" lon="86.810374">
        <ele>4921.6</ele>
        <time>2022-10-25T09:04:12.000Z</time>
      </trkpt>
      <trkpt lat="27.946118" lon="86.810362">
        <ele>4921.6</ele>
        <time>2022-10-25T09:04:37.000Z</time>
      </trkpt>
      <trkpt lat="27.94615" lon="86.810362">
        <ele>4921.6</ele>
        <time>2022-10-25T09:04:39.000Z</time>
      </trkpt>
      <trkpt lat="27.94617" lon="86.810362">
        <ele>4921.6</ele>
        <time>2022-10-25T09:04:40.000Z</time>
      </trkpt>
      <trkpt lat="27.946198" lon="86.810362">
        <ele>4921.4</ele>
        <time>2022-10-25T09:04:42.000Z</time>
      </trkpt>
      <trkpt lat="27.946218" lon="86.810362">
        <ele>4921.4</ele>
        <time>2022-10-25T09:04:43.000Z</time>
      </trkpt>
      <trkpt lat="27.946237" lon="86.810362">
        <ele>4921.4</ele>
        <time>2022-10-25T09:04:44.000Z</time>
      </trkpt>
      <trkpt lat="27.946259" lon="86.810362">
        <ele>4921.2</ele>
        <time>2022-10-25T09:04:46.000Z</time>
      </trkpt>
      <trkpt lat="27.946278" lon="86.810362">
        <ele>4921</ele>
        <time>2022-10-25T09:04:48.000Z</time>
      </trkpt>
      <trkpt lat="27.946298" lon="86.810362">
        <ele>4921</ele>
        <time>2022-10-25T09:04:50.000Z</time>
      </trkpt>
      <trkpt lat="27.946317" lon="86.810362">
        <ele>4921</ele>
        <time>2022-10-25T09:04:52.000Z</time>
      </trkpt>
      <trkpt lat="27.946339" lon="86.810374">
        <ele>4921</ele>
        <time>2022-10-25T09:04:55.000Z</time>
      </trkpt>
      <trkpt lat="27.946365" lon="86.810374">
        <ele>4921.2</ele>
        <time>2022-10-25T09:04:58.000Z</time>
      </trkpt>
      <trkpt lat="27.94641" lon="86.810374">
        <ele>4921.6</ele>
        <time>2022-10-25T09:05:04.000Z</time>
      </trkpt>
      <trkpt lat="27.946432" lon="86.810374">
        <ele>4922.6</ele>
        <time>2022-10-25T09:05:09.000Z</time>
      </trkpt>
      <trkpt lat="27.946454" lon="86.810374">
        <ele>4923.4</ele>
        <time>2022-10-25T09:05:15.000Z</time>
      </trkpt>
      <trkpt lat="27.946474" lon="86.810374">
        <ele>4923.2</ele>
        <time>2022-10-25T09:05:18.000Z</time>
      </trkpt>
      <trkpt lat="27.946496" lon="86.810374">
        <ele>4923.4</ele>
        <time>2022-10-25T09:05:21.000Z</time>
      </trkpt>
      <trkpt lat="27.946515" lon="86.810374">
        <ele>4924</ele>
        <time>2022-10-25T09:05:24.000Z</time>
      </trkpt>
      <trkpt lat="27.946538" lon="86.810374">
        <ele>4924.6</ele>
        <time>2022-10-25T09:05:27.000Z</time>
      </trkpt>
      <trkpt lat="27.946557" lon="86.810362">
        <ele>4924.6</ele>
        <time>2022-10-25T09:05:30.000Z</time>
      </trkpt>
      <trkpt lat="27.946579" lon="86.810362">
        <ele>4924.4</ele>
        <time>2022-10-25T09:05:33.000Z</time>
      </trkpt>
      <trkpt lat="27.946614" lon="86.810374">
        <ele>4925</ele>
        <time>2022-10-25T09:05:38.000Z</time>
      </trkpt>
      <trkpt lat="27.946634" lon="86.810381">
        <ele>4924.8</ele>
        <time>2022-10-25T09:05:42.000Z</time>
      </trkpt>
      <trkpt lat="27.946656" lon="86.810381">
        <ele>4925</ele>
        <time>2022-10-25T09:05:46.000Z</time>
      </trkpt>
      <trkpt lat="27.946682" lon="86.810387">
        <ele>4925</ele>
        <time>2022-10-25T09:05:50.000Z</time>
      </trkpt>
      <trkpt lat="27.946707" lon="86.810387">
        <ele>4925.2</ele>
        <time>2022-10-25T09:05:54.000Z</time>
      </trkpt>
      <trkpt lat="27.94673" lon="86.810394">
        <ele>4925.6</ele>
        <time>2022-10-25T09:05:58.000Z</time>
      </trkpt>
      <trkpt lat="27.946749" lon="86.8104">
        <ele>4925.6</ele>
        <time>2022-10-25T09:06:01.000Z</time>
      </trkpt>
      <trkpt lat="27.946765" lon="86.810419">
        <ele>4926</ele>
        <time>2022-10-25T09:06:04.000Z</time>
      </trkpt>
      <trkpt lat="27.946784" lon="86.810426">
        <ele>4926.2</ele>
        <time>2022-10-25T09:06:07.000Z</time>
      </trkpt>
      <trkpt lat="27.946806" lon="86.810426">
        <ele>4926.6</ele>
        <time>2022-10-25T09:06:10.000Z</time>
      </trkpt>
      <trkpt lat="27.946826" lon="86.810438">
        <ele>4926.6</ele>
        <time>2022-10-25T09:06:13.000Z</time>
      </trkpt>
      <trkpt lat="27.946835" lon="86.810458">
        <ele>4926</ele>
        <time>2022-10-25T09:06:15.000Z</time>
      </trkpt>
      <trkpt lat="27.946858" lon="86.81047">
        <ele>4926.2</ele>
        <time>2022-10-25T09:06:18.000Z</time>
      </trkpt>
      <trkpt lat="27.946883" lon="86.810477">
        <ele>4925.8</ele>
        <time>2022-10-25T09:06:22.000Z</time>
      </trkpt>
      <trkpt lat="27.946902" lon="86.810483">
        <ele>4926</ele>
        <time>2022-10-25T09:06:25.000Z</time>
      </trkpt>
      <trkpt lat="27.946925" lon="86.810496">
        <ele>4926</ele>
        <time>2022-10-25T09:06:28.000Z</time>
      </trkpt>
      <trkpt lat="27.94695" lon="86.810496">
        <ele>4926.8</ele>
        <time>2022-10-25T09:06:32.000Z</time>
      </trkpt>
      <trkpt lat="27.94697" lon="86.810502">
        <ele>4927.2</ele>
        <time>2022-10-25T09:06:35.000Z</time>
      </trkpt>
      <trkpt lat="27.946992" lon="86.810509">
        <ele>4927.8</ele>
        <time>2022-10-25T09:06:39.000Z</time>
      </trkpt>
      <trkpt lat="27.947011" lon="86.810509">
        <ele>4927.8</ele>
        <time>2022-10-25T09:06:42.000Z</time>
      </trkpt>
      <trkpt lat="27.947034" lon="86.810509">
        <ele>4927.6</ele>
        <time>2022-10-25T09:06:45.000Z</time>
      </trkpt>
      <trkpt lat="27.947053" lon="86.810502">
        <ele>4927.8</ele>
        <time>2022-10-25T09:06:47.000Z</time>
      </trkpt>
      <trkpt lat="27.947072" lon="86.810496">
        <ele>4928</ele>
        <time>2022-10-25T09:06:55.000Z</time>
      </trkpt>
      <trkpt lat="27.947094" lon="86.810496">
        <ele>4928.2</ele>
        <time>2022-10-25T09:06:58.000Z</time>
      </trkpt>
      <trkpt lat="27.94712" lon="86.810483">
        <ele>4928.2</ele>
        <time>2022-10-25T09:07:01.000Z</time>
      </trkpt>
      <trkpt lat="27.947136" lon="86.810496">
        <ele>4928.6</ele>
        <time>2022-10-25T09:07:03.000Z</time>
      </trkpt>
      <trkpt lat="27.947162" lon="86.810509">
        <ele>4928.8</ele>
        <time>2022-10-25T09:07:06.000Z</time>
      </trkpt>
      <trkpt lat="27.947181" lon="86.810515">
        <ele>4928.8</ele>
        <time>2022-10-25T09:07:09.000Z</time>
      </trkpt>
      <trkpt lat="27.9472" lon="86.810534">
        <ele>4929</ele>
        <time>2022-10-25T09:07:12.000Z</time>
      </trkpt>
      <trkpt lat="27.947219" lon="86.810547">
        <ele>4929</ele>
        <time>2022-10-25T09:07:15.000Z</time>
      </trkpt>
      <trkpt lat="27.947238" lon="86.810547">
        <ele>4928.8</ele>
        <time>2022-10-25T09:07:17.000Z</time>
      </trkpt>
      <trkpt lat="27.947258" lon="86.810554">
        <ele>4929</ele>
        <time>2022-10-25T09:07:21.000Z</time>
      </trkpt>
      <trkpt lat="27.94728" lon="86.810554">
        <ele>4928.6</ele>
        <time>2022-10-25T09:07:32.000Z</time>
      </trkpt>
      <trkpt lat="27.947302" lon="86.810547">
        <ele>4928.2</ele>
        <time>2022-10-25T09:07:35.000Z</time>
      </trkpt>
      <trkpt lat="27.947322" lon="86.810547">
        <ele>4928</ele>
        <time>2022-10-25T09:07:38.000Z</time>
      </trkpt>
      <trkpt lat="27.947338" lon="86.810534">
        <ele>4928.2</ele>
        <time>2022-10-25T09:07:41.000Z</time>
      </trkpt>
      <trkpt lat="27.94736" lon="86.810515">
        <ele>4928.2</ele>
        <time>2022-10-25T09:07:44.000Z</time>
      </trkpt>
      <trkpt lat="27.947376" lon="86.810502">
        <ele>4928.2</ele>
        <time>2022-10-25T09:07:47.000Z</time>
      </trkpt>
      <trkpt lat="27.947398" lon="86.810496">
        <ele>4927.8</ele>
        <time>2022-10-25T09:07:50.000Z</time>
      </trkpt>
      <trkpt lat="27.947414" lon="86.810477">
        <ele>4928</ele>
        <time>2022-10-25T09:07:53.000Z</time>
      </trkpt>
      <trkpt lat="27.947434" lon="86.810464">
        <ele>4928.6</ele>
        <time>2022-10-25T09:07:56.000Z</time>
      </trkpt>
      <trkpt lat="27.947456" lon="86.810458">
        <ele>4929</ele>
        <time>2022-10-25T09:07:59.000Z</time>
      </trkpt>
      <trkpt lat="27.947472" lon="86.810445">
        <ele>4928.6</ele>
        <time>2022-10-25T09:08:01.000Z</time>
      </trkpt>
      <trkpt lat="27.947491" lon="86.810438">
        <ele>4928.2</ele>
        <time>2022-10-25T09:08:04.000Z</time>
      </trkpt>
      <trkpt lat="27.947507" lon="86.810426">
        <ele>4928.2</ele>
        <time>2022-10-25T09:08:07.000Z</time>
      </trkpt>
      <trkpt lat="27.947517" lon="86.810406">
        <ele>4928.2</ele>
        <time>2022-10-25T09:08:10.000Z</time>
      </trkpt>
      <trkpt lat="27.947536" lon="86.810394">
        <ele>4928.4</ele>
        <time>2022-10-25T09:08:20.000Z</time>
      </trkpt>
      <trkpt lat="27.947555" lon="86.810387">
        <ele>4928.2</ele>
        <time>2022-10-25T09:08:24.000Z</time>
      </trkpt>
      <trkpt lat="27.947574" lon="86.810394">
        <ele>4928</ele>
        <time>2022-10-25T09:08:38.000Z</time>
      </trkpt>
      <trkpt lat="27.947594" lon="86.810387">
        <ele>4928.2</ele>
        <time>2022-10-25T09:08:42.000Z</time>
      </trkpt>
      <trkpt lat="27.94761" lon="86.810374">
        <ele>4928.8</ele>
        <time>2022-10-25T09:08:45.000Z</time>
      </trkpt>
      <trkpt lat="27.947629" lon="86.810362">
        <ele>4928.8</ele>
        <time>2022-10-25T09:08:49.000Z</time>
      </trkpt>
      <trkpt lat="27.947648" lon="86.810349">
        <ele>4928.8</ele>
        <time>2022-10-25T09:08:52.000Z</time>
      </trkpt>
      <trkpt lat="27.947667" lon="86.810336">
        <ele>4929.2</ele>
        <time>2022-10-25T09:08:56.000Z</time>
      </trkpt>
      <trkpt lat="27.947677" lon="86.810317">
        <ele>4929.4</ele>
        <time>2022-10-25T09:08:58.000Z</time>
      </trkpt>
      <trkpt lat="27.947696" lon="86.810304">
        <ele>4929.8</ele>
        <time>2022-10-25T09:09:03.000Z</time>
      </trkpt>
      <trkpt lat="27.947715" lon="86.810298">
        <ele>4930.4</ele>
        <time>2022-10-25T09:09:06.000Z</time>
      </trkpt>
      <trkpt lat="27.947734" lon="86.810285">
        <ele>4930.4</ele>
        <time>2022-10-25T09:09:09.000Z</time>
      </trkpt>
      <trkpt lat="27.947757" lon="86.810278">
        <ele>4930.6</ele>
        <time>2022-10-25T09:09:12.000Z</time>
      </trkpt>
      <trkpt lat="27.947776" lon="86.810266">
        <ele>4930.6</ele>
        <time>2022-10-25T09:09:15.000Z</time>
      </trkpt>
      <trkpt lat="27.947795" lon="86.810246">
        <ele>4930.6</ele>
        <time>2022-10-25T09:09:19.000Z</time>
      </trkpt>
      <trkpt lat="27.947818" lon="86.81024">
        <ele>4930.6</ele>
        <time>2022-10-25T09:09:22.000Z</time>
      </trkpt>
      <trkpt lat="27.94784" lon="86.810234">
        <ele>4930.6</ele>
        <time>2022-10-25T09:09:25.000Z</time>
      </trkpt>
      <trkpt lat="27.947859" lon="86.810227">
        <ele>4930.4</ele>
        <time>2022-10-25T09:09:28.000Z</time>
      </trkpt>
      <trkpt lat="27.947875" lon="86.810208">
        <ele>4930.6</ele>
        <time>2022-10-25T09:09:31.000Z</time>
      </trkpt>
      <trkpt lat="27.947898" lon="86.810208">
        <ele>4930.4</ele>
        <time>2022-10-25T09:09:34.000Z</time>
      </trkpt>
      <trkpt lat="27.947923" lon="86.810202">
        <ele>4930.4</ele>
        <time>2022-10-25T09:09:37.000Z</time>
      </trkpt>
      <trkpt lat="27.947942" lon="86.810202">
        <ele>4930.6</ele>
        <time>2022-10-25T09:09:40.000Z</time>
      </trkpt>
      <trkpt lat="27.947965" lon="86.810195">
        <ele>4930.6</ele>
        <time>2022-10-25T09:09:43.000Z</time>
      </trkpt>
      <trkpt lat="27.947994" lon="86.810195">
        <ele>4930.8</ele>
        <time>2022-10-25T09:09:46.000Z</time>
      </trkpt>
      <trkpt lat="27.948022" lon="86.810189">
        <ele>4931</ele>
        <time>2022-10-25T09:09:49.000Z</time>
      </trkpt>
      <trkpt lat="27.948045" lon="86.810189">
        <ele>4930.8</ele>
        <time>2022-10-25T09:09:52.000Z</time>
      </trkpt>
      <trkpt lat="27.94807" lon="86.810182">
        <ele>4930.4</ele>
        <time>2022-10-25T09:09:55.000Z</time>
      </trkpt>
      <trkpt lat="27.94809" lon="86.810176">
        <ele>4930.8</ele>
        <time>2022-10-25T09:09:58.000Z</time>
      </trkpt>
      <trkpt lat="27.948112" lon="86.810176">
        <ele>4930.8</ele>
        <time>2022-10-25T09:10:01.000Z</time>
      </trkpt>
      <trkpt lat="27.948128" lon="86.810163">
        <ele>4931</ele>
        <time>2022-10-25T09:10:04.000Z</time>
      </trkpt>
      <trkpt lat="27.948147" lon="86.810163">
        <ele>4931</ele>
        <time>2022-10-25T09:10:09.000Z</time>
      </trkpt>
      <trkpt lat="27.948166" lon="86.81015">
        <ele>4933.2</ele>
        <time>2022-10-25T09:10:43.000Z</time>
      </trkpt>
      <trkpt lat="27.948192" lon="86.810138">
        <ele>4933.6</ele>
        <time>2022-10-25T09:10:45.000Z</time>
      </trkpt>
      <trkpt lat="27.948202" lon="86.810118">
        <ele>4933.6</ele>
        <time>2022-10-25T09:10:46.000Z</time>
      </trkpt>
      <trkpt lat="27.94823" lon="86.810099">
        <ele>4933.6</ele>
        <time>2022-10-25T09:10:48.000Z</time>
      </trkpt>
      <trkpt lat="27.948253" lon="86.81008">
        <ele>4933.8</ele>
        <time>2022-10-25T09:10:50.000Z</time>
      </trkpt>
      <trkpt lat="27.948272" lon="86.810067">
        <ele>4933.8</ele>
        <time>2022-10-25T09:10:52.000Z</time>
      </trkpt>
      <trkpt lat="27.948291" lon="86.810067">
        <ele>4933.8</ele>
        <time>2022-10-25T09:10:55.000Z</time>
      </trkpt>
      <trkpt lat="27.94831" lon="86.810048">
        <ele>4934.2</ele>
        <time>2022-10-25T09:10:58.000Z</time>
      </trkpt>
      <trkpt lat="27.94833" lon="86.810035">
        <ele>4934.2</ele>
        <time>2022-10-25T09:11:01.000Z</time>
      </trkpt>
      <trkpt lat="27.948346" lon="86.810022">
        <ele>4934.4</ele>
        <time>2022-10-25T09:11:04.000Z</time>
      </trkpt>
      <trkpt lat="27.948371" lon="86.810016">
        <ele>4933.8</ele>
        <time>2022-10-25T09:11:07.000Z</time>
      </trkpt>
      <trkpt lat="27.948387" lon="86.810003">
        <ele>4934.2</ele>
        <time>2022-10-25T09:11:09.000Z</time>
      </trkpt>
      <trkpt lat="27.94841" lon="86.810003">
        <ele>4934.4</ele>
        <time>2022-10-25T09:11:13.000Z</time>
      </trkpt>
      <trkpt lat="27.948669" lon="86.810042">
        <ele>4925.8</ele>
        <time>2022-10-26T02:13:56.000Z</time>
      </trkpt>
      <trkpt lat="27.948669" lon="86.810067">
        <ele>4925.8</ele>
        <time>2022-10-26T02:13:57.000Z</time>
      </trkpt>
      <trkpt lat="27.948678" lon="86.810106">
        <ele>4925.4</ele>
        <time>2022-10-26T02:13:59.000Z</time>
      </trkpt>
      <trkpt lat="27.948682" lon="86.810138">
        <ele>4925.4</ele>
        <time>2022-10-26T02:14:01.000Z</time>
      </trkpt>
      <trkpt lat="27.948688" lon="86.810157">
        <ele>4924.8</ele>
        <time>2022-10-26T02:14:02.000Z</time>
      </trkpt>
      <trkpt lat="27.948688" lon="86.810195">
        <ele>4924</ele>
        <time>2022-10-26T02:14:04.000Z</time>
      </trkpt>
      <trkpt lat="27.948688" lon="86.810221">
        <ele>4924</ele>
        <time>2022-10-26T02:14:06.000Z</time>
      </trkpt>
      <trkpt lat="27.948682" lon="86.81024">
        <ele>4923.6</ele>
        <time>2022-10-26T02:14:08.000Z</time>
      </trkpt>
      <trkpt lat="27.948672" lon="86.810259">
        <ele>4923.4</ele>
        <time>2022-10-26T02:14:10.000Z</time>
      </trkpt>
      <trkpt lat="27.948666" lon="86.810278">
        <ele>4923.4</ele>
        <time>2022-10-26T02:14:12.000Z</time>
      </trkpt>
      <trkpt lat="27.94865" lon="86.810298">
        <ele>4923.6</ele>
        <time>2022-10-26T02:14:14.000Z</time>
      </trkpt>
      <trkpt lat="27.94864" lon="86.810317">
        <ele>4924</ele>
        <time>2022-10-26T02:14:17.000Z</time>
      </trkpt>
      <trkpt lat="27.948643" lon="86.810349">
        <ele>4924.2</ele>
        <time>2022-10-26T02:14:20.000Z</time>
      </trkpt>
      <trkpt lat="27.948643" lon="86.810374">
        <ele>4923.6</ele>
        <time>2022-10-26T02:14:22.000Z</time>
      </trkpt>
      <trkpt lat="27.948643" lon="86.8104">
        <ele>4923.6</ele>
        <time>2022-10-26T02:14:25.000Z</time>
      </trkpt>
      <trkpt lat="27.94863" lon="86.810419">
        <ele>4923.6</ele>
        <time>2022-10-26T02:14:27.000Z</time>
      </trkpt>
      <trkpt lat="27.948624" lon="86.810438">
        <ele>4924</ele>
        <time>2022-10-26T02:14:29.000Z</time>
      </trkpt>
      <trkpt lat="27.948611" lon="86.810458">
        <ele>4924</ele>
        <time>2022-10-26T02:14:31.000Z</time>
      </trkpt>
      <trkpt lat="27.948602" lon="86.810477">
        <ele>4924</ele>
        <time>2022-10-26T02:14:33.000Z</time>
      </trkpt>
      <trkpt lat="27.948589" lon="86.810496">
        <ele>4924</ele>
        <time>2022-10-26T02:14:35.000Z</time>
      </trkpt>
      <trkpt lat="27.94857" lon="86.810502">
        <ele>4924</ele>
        <time>2022-10-26T02:14:37.000Z</time>
      </trkpt>
      <trkpt lat="27.94855" lon="86.810515">
        <ele>4923.6</ele>
        <time>2022-10-26T02:14:40.000Z</time>
      </trkpt>
      <trkpt lat="27.948531" lon="86.810534">
        <ele>4923.6</ele>
        <time>2022-10-26T02:14:43.000Z</time>
      </trkpt>
      <trkpt lat="27.948515" lon="86.810547">
        <ele>4923.6</ele>
        <time>2022-10-26T02:14:46.000Z</time>
      </trkpt>
      <trkpt lat="27.948502" lon="86.810573">
        <ele>4923.6</ele>
        <time>2022-10-26T02:14:49.000Z</time>
      </trkpt>
      <trkpt lat="27.948509" lon="86.810592">
        <ele>4925</ele>
        <time>2022-10-26T02:14:56.000Z</time>
      </trkpt>
      <trkpt lat="27.94855" lon="86.810618">
        <ele>4924.8</ele>
        <time>2022-10-26T02:15:04.000Z</time>
      </trkpt>
      <trkpt lat="27.94857" lon="86.810624">
        <ele>4924.8</ele>
        <time>2022-10-26T02:15:08.000Z</time>
      </trkpt>
      <trkpt lat="27.948589" lon="86.810637">
        <ele>4924.8</ele>
        <time>2022-10-26T02:15:11.000Z</time>
      </trkpt>
      <trkpt lat="27.948608" lon="86.810656">
        <ele>4924.8</ele>
        <time>2022-10-26T02:15:15.000Z</time>
      </trkpt>
      <trkpt lat="27.948624" lon="86.810675">
        <ele>4924.6</ele>
        <time>2022-10-26T02:15:18.000Z</time>
      </trkpt>
      <trkpt lat="27.948634" lon="86.810694">
        <ele>4924.8</ele>
        <time>2022-10-26T02:15:20.000Z</time>
      </trkpt>
      <trkpt lat="27.94864" lon="86.810714">
        <ele>4924.8</ele>
        <time>2022-10-26T02:15:23.000Z</time>
      </trkpt>
      <trkpt lat="27.948646" lon="86.810739">
        <ele>4925</ele>
        <time>2022-10-26T02:15:26.000Z</time>
      </trkpt>
      <trkpt lat="27.948643" lon="86.810771">
        <ele>4925</ele>
        <time>2022-10-26T02:15:29.000Z</time>
      </trkpt>
      <trkpt lat="27.948643" lon="86.810797">
        <ele>4925.4</ele>
        <time>2022-10-26T02:15:33.000Z</time>
      </trkpt>
      <trkpt lat="27.94864" lon="86.810822">
        <ele>4925.4</ele>
        <time>2022-10-26T02:15:36.000Z</time>
      </trkpt>
      <trkpt lat="27.948646" lon="86.810854">
        <ele>4925.6</ele>
        <time>2022-10-26T02:15:40.000Z</time>
      </trkpt>
      <trkpt lat="27.948653" lon="86.810874">
        <ele>4925</ele>
        <time>2022-10-26T02:15:42.000Z</time>
      </trkpt>
      <trkpt lat="27.948653" lon="86.810899">
        <ele>4925.4</ele>
        <time>2022-10-26T02:15:45.000Z</time>
      </trkpt>
      <trkpt lat="27.948653" lon="86.810931">
        <ele>4925.6</ele>
        <time>2022-10-26T02:15:48.000Z</time>
      </trkpt>
      <trkpt lat="27.948653" lon="86.810957">
        <ele>4925.6</ele>
        <time>2022-10-26T02:15:53.000Z</time>
      </trkpt>
      <trkpt lat="27.948653" lon="86.810989">
        <ele>4925.8</ele>
        <time>2022-10-26T02:15:56.000Z</time>
      </trkpt>
      <trkpt lat="27.948653" lon="86.811014">
        <ele>4925.8</ele>
        <time>2022-10-26T02:15:59.000Z</time>
      </trkpt>
      <trkpt lat="27.948656" lon="86.81104">
        <ele>4925.8</ele>
        <time>2022-10-26T02:16:03.000Z</time>
      </trkpt>
      <trkpt lat="27.948666" lon="86.811059">
        <ele>4925.8</ele>
        <time>2022-10-26T02:16:05.000Z</time>
      </trkpt>
      <trkpt lat="27.948662" lon="86.811091">
        <ele>4926.2</ele>
        <time>2022-10-26T02:16:08.000Z</time>
      </trkpt>
      <trkpt lat="27.948669" lon="86.811117">
        <ele>4925.8</ele>
        <time>2022-10-26T02:16:11.000Z</time>
      </trkpt>
      <trkpt lat="27.948659" lon="86.811136">
        <ele>4925.8</ele>
        <time>2022-10-26T02:16:13.000Z</time>
      </trkpt>
      <trkpt lat="27.948653" lon="86.811155">
        <ele>4925.8</ele>
        <time>2022-10-26T02:16:15.000Z</time>
      </trkpt>
      <trkpt lat="27.948653" lon="86.811181">
        <ele>4925.6</ele>
        <time>2022-10-26T02:16:16.000Z</time>
      </trkpt>
      <trkpt lat="27.94865" lon="86.811219">
        <ele>4925.8</ele>
        <time>2022-10-26T02:16:22.000Z</time>
      </trkpt>
      <trkpt lat="27.948659" lon="86.811238">
        <ele>4925.8</ele>
        <time>2022-10-26T02:16:26.000Z</time>
      </trkpt>
      <trkpt lat="27.948669" lon="86.811258">
        <ele>4925.8</ele>
        <time>2022-10-26T02:16:29.000Z</time>
      </trkpt>
      <trkpt lat="27.948688" lon="86.811277">
        <ele>4925.8</ele>
        <time>2022-10-26T02:16:32.000Z</time>
      </trkpt>
      <trkpt lat="27.948698" lon="86.811296">
        <ele>4925.8</ele>
        <time>2022-10-26T02:16:35.000Z</time>
      </trkpt>
      <trkpt lat="27.948707" lon="86.811315">
        <ele>4925.8</ele>
        <time>2022-10-26T02:16:38.000Z</time>
      </trkpt>
      <trkpt lat="27.948714" lon="86.811334">
        <ele>4925.6</ele>
        <time>2022-10-26T02:16:41.000Z</time>
      </trkpt>
      <trkpt lat="27.94873" lon="86.811347">
        <ele>4925.6</ele>
        <time>2022-10-26T02:16:44.000Z</time>
      </trkpt>
      <trkpt lat="27.948746" lon="86.811366">
        <ele>4925.6</ele>
        <time>2022-10-26T02:16:47.000Z</time>
      </trkpt>
      <trkpt lat="27.948762" lon="86.811386">
        <ele>4925.8</ele>
        <time>2022-10-26T02:16:51.000Z</time>
      </trkpt>
      <trkpt lat="27.948781" lon="86.811392">
        <ele>4925.4</ele>
        <time>2022-10-26T02:17:20.000Z</time>
      </trkpt>
      <trkpt lat="27.9488" lon="86.811418">
        <ele>4925.6</ele>
        <time>2022-10-26T02:17:22.000Z</time>
      </trkpt>
      <trkpt lat="27.948822" lon="86.81143">
        <ele>4925.8</ele>
        <time>2022-10-26T02:17:24.000Z</time>
      </trkpt>
      <trkpt lat="27.948832" lon="86.81145">
        <ele>4925.6</ele>
        <time>2022-10-26T02:17:25.000Z</time>
      </trkpt>
      <trkpt lat="27.948851" lon="86.811462">
        <ele>4925.6</ele>
        <time>2022-10-26T02:17:27.000Z</time>
      </trkpt>
      <trkpt lat="27.94887" lon="86.811488">
        <ele>4925.6</ele>
        <time>2022-10-26T02:17:29.000Z</time>
      </trkpt>
      <trkpt lat="27.948877" lon="86.811507">
        <ele>4925.6</ele>
        <time>2022-10-26T02:17:32.000Z</time>
      </trkpt>
      <trkpt lat="27.948886" lon="86.811539">
        <ele>4925.8</ele>
        <time>2022-10-26T02:17:36.000Z</time>
      </trkpt>
      <trkpt lat="27.948906" lon="86.811546">
        <ele>4925.6</ele>
        <time>2022-10-26T02:17:39.000Z</time>
      </trkpt>
      <trkpt lat="27.948922" lon="86.811571">
        <ele>4925.6</ele>
        <time>2022-10-26T02:17:42.000Z</time>
      </trkpt>
      <trkpt lat="27.948928" lon="86.81159">
        <ele>4925.6</ele>
        <time>2022-10-26T02:17:44.000Z</time>
      </trkpt>
      <trkpt lat="27.948934" lon="86.811616">
        <ele>4925.6</ele>
        <time>2022-10-26T02:17:47.000Z</time>
      </trkpt>
      <trkpt lat="27.948947" lon="86.811635">
        <ele>4925.6</ele>
        <time>2022-10-26T02:17:51.000Z</time>
      </trkpt>
      <trkpt lat="27.948957" lon="86.811661">
        <ele>4925.4</ele>
        <time>2022-10-26T02:17:54.000Z</time>
      </trkpt>
      <trkpt lat="27.94896" lon="86.811686">
        <ele>4925</ele>
        <time>2022-10-26T02:17:58.000Z</time>
      </trkpt>
      <trkpt lat="27.948976" lon="86.811699">
        <ele>4925.4</ele>
        <time>2022-10-26T02:18:02.000Z</time>
      </trkpt>
      <trkpt lat="27.948995" lon="86.811712">
        <ele>4925.6</ele>
        <time>2022-10-26T02:18:06.000Z</time>
      </trkpt>
      <trkpt lat="27.949011" lon="86.811731">
        <ele>4925.6</ele>
        <time>2022-10-26T02:18:09.000Z</time>
      </trkpt>
      <trkpt lat="27.949024" lon="86.811757">
        <ele>4925.6</ele>
        <time>2022-10-26T02:18:13.000Z</time>
      </trkpt>
      <trkpt lat="27.949037" lon="86.811776">
        <ele>4925.6</ele>
        <time>2022-10-26T02:18:15.000Z</time>
      </trkpt>
      <trkpt lat="27.949056" lon="86.811789">
        <ele>4925.8</ele>
        <time>2022-10-26T02:18:19.000Z</time>
      </trkpt>
      <trkpt lat="27.949069" lon="86.811808">
        <ele>4925.8</ele>
        <time>2022-10-26T02:18:22.000Z</time>
      </trkpt>
      <trkpt lat="27.949088" lon="86.811814">
        <ele>4925.8</ele>
        <time>2022-10-26T02:18:25.000Z</time>
      </trkpt>
      <trkpt lat="27.949107" lon="86.811827">
        <ele>4925.8</ele>
        <time>2022-10-26T02:18:28.000Z</time>
      </trkpt>
      <trkpt lat="27.949107" lon="86.811853">
        <ele>4926.2</ele>
        <time>2022-10-26T02:18:31.000Z</time>
      </trkpt>
      <trkpt lat="27.949117" lon="86.811872">
        <ele>4925.6</ele>
        <time>2022-10-26T02:18:34.000Z</time>
      </trkpt>
      <trkpt lat="27.949126" lon="86.811891">
        <ele>4925.6</ele>
        <time>2022-10-26T02:18:37.000Z</time>
      </trkpt>
      <trkpt lat="27.94913" lon="86.811923">
        <ele>4926.2</ele>
        <time>2022-10-26T02:18:41.000Z</time>
      </trkpt>
      <trkpt lat="27.949139" lon="86.811942">
        <ele>4925.8</ele>
        <time>2022-10-26T02:18:44.000Z</time>
      </trkpt>
      <trkpt lat="27.949146" lon="86.811968">
        <ele>4926.2</ele>
        <time>2022-10-26T02:18:47.000Z</time>
      </trkpt>
      <trkpt lat="27.949155" lon="86.811994">
        <ele>4926.4</ele>
        <time>2022-10-26T02:18:51.000Z</time>
      </trkpt>
      <trkpt lat="27.949165" lon="86.812013">
        <ele>4926.2</ele>
        <time>2022-10-26T02:18:55.000Z</time>
      </trkpt>
      <trkpt lat="27.949184" lon="86.812019">
        <ele>4925.8</ele>
        <time>2022-10-26T02:18:59.000Z</time>
      </trkpt>
      <trkpt lat="27.949203" lon="86.812026">
        <ele>4926.4</ele>
        <time>2022-10-26T02:19:03.000Z</time>
      </trkpt>
      <trkpt lat="27.949213" lon="86.812045">
        <ele>4926.4</ele>
        <time>2022-10-26T02:19:05.000Z</time>
      </trkpt>
      <trkpt lat="27.949222" lon="86.81207">
        <ele>4926.4</ele>
        <time>2022-10-26T02:19:09.000Z</time>
      </trkpt>
      <trkpt lat="27.949229" lon="86.81209">
        <ele>4926.4</ele>
        <time>2022-10-26T02:19:12.000Z</time>
      </trkpt>
      <trkpt lat="27.949242" lon="86.812109">
        <ele>4926.8</ele>
        <time>2022-10-26T02:19:15.000Z</time>
      </trkpt>
      <trkpt lat="27.949251" lon="86.812128">
        <ele>4926.8</ele>
        <time>2022-10-26T02:19:17.000Z</time>
      </trkpt>
      <trkpt lat="27.949267" lon="86.812147">
        <ele>4927</ele>
        <time>2022-10-26T02:19:21.000Z</time>
      </trkpt>
      <trkpt lat="27.949286" lon="86.812166">
        <ele>4927</ele>
        <time>2022-10-26T02:19:24.000Z</time>
      </trkpt>
      <trkpt lat="27.949296" lon="86.812186">
        <ele>4927.2</ele>
        <time>2022-10-26T02:19:27.000Z</time>
      </trkpt>
      <trkpt lat="27.949302" lon="86.812211">
        <ele>4927.2</ele>
        <time>2022-10-26T02:19:30.000Z</time>
      </trkpt>
      <trkpt lat="27.949318" lon="86.812224">
        <ele>4927.2</ele>
        <time>2022-10-26T02:19:34.000Z</time>
      </trkpt>
      <trkpt lat="27.949328" lon="86.812243">
        <ele>4927.6</ele>
        <time>2022-10-26T02:19:37.000Z</time>
      </trkpt>
      <trkpt lat="27.949344" lon="86.812256">
        <ele>4927.6</ele>
        <time>2022-10-26T02:19:40.000Z</time>
      </trkpt>
      <trkpt lat="27.94936" lon="86.812282">
        <ele>4927.8</ele>
        <time>2022-10-26T02:19:44.000Z</time>
      </trkpt>
      <trkpt lat="27.949373" lon="86.812301">
        <ele>4927.8</ele>
        <time>2022-10-26T02:19:48.000Z</time>
      </trkpt>
      <trkpt lat="27.949386" lon="86.81232">
        <ele>4927.8</ele>
        <time>2022-10-26T02:19:51.000Z</time>
      </trkpt>
      <trkpt lat="27.949405" lon="86.812339">
        <ele>4927.8</ele>
        <time>2022-10-26T02:19:55.000Z</time>
      </trkpt>
      <trkpt lat="27.949421" lon="86.812352">
        <ele>4928</ele>
        <time>2022-10-26T02:19:59.000Z</time>
      </trkpt>
      <trkpt lat="27.949437" lon="86.812371">
        <ele>4927.8</ele>
        <time>2022-10-26T02:20:02.000Z</time>
      </trkpt>
      <trkpt lat="27.949446" lon="86.81239">
        <ele>4928.4</ele>
        <time>2022-10-26T02:20:06.000Z</time>
      </trkpt>
      <trkpt lat="27.949453" lon="86.81241">
        <ele>4928.6</ele>
        <time>2022-10-26T02:20:09.000Z</time>
      </trkpt>
      <trkpt lat="27.949472" lon="86.812429">
        <ele>4928.4</ele>
        <time>2022-10-26T02:20:14.000Z</time>
      </trkpt>
      <trkpt lat="27.949472" lon="86.812454">
        <ele>4929</ele>
        <time>2022-10-26T02:20:18.000Z</time>
      </trkpt>
      <trkpt lat="27.949485" lon="86.81248">
        <ele>4929</ele>
        <time>2022-10-26T02:20:21.000Z</time>
      </trkpt>
      <trkpt lat="27.949494" lon="86.812499">
        <ele>4929.2</ele>
        <time>2022-10-26T02:20:25.000Z</time>
      </trkpt>
      <trkpt lat="27.949504" lon="86.812518">
        <ele>4929.2</ele>
        <time>2022-10-26T02:20:28.000Z</time>
      </trkpt>
      <trkpt lat="27.949523" lon="86.812538">
        <ele>4929.4</ele>
        <time>2022-10-26T02:20:32.000Z</time>
      </trkpt>
      <trkpt lat="27.949539" lon="86.812563">
        <ele>4929.8</ele>
        <time>2022-10-26T02:20:36.000Z</time>
      </trkpt>
      <trkpt lat="27.949552" lon="86.812582">
        <ele>4930</ele>
        <time>2022-10-26T02:20:41.000Z</time>
      </trkpt>
      <trkpt lat="27.949552" lon="86.812608">
        <ele>4929.8</ele>
        <time>2022-10-26T02:20:45.000Z</time>
      </trkpt>
      <trkpt lat="27.949552" lon="86.81264">
        <ele>4929.8</ele>
        <time>2022-10-26T02:20:49.000Z</time>
      </trkpt>
      <trkpt lat="27.949558" lon="86.812659">
        <ele>4930</ele>
        <time>2022-10-26T02:20:53.000Z</time>
      </trkpt>
      <trkpt lat="27.949565" lon="86.812678">
        <ele>4930</ele>
        <time>2022-10-26T02:20:56.000Z</time>
      </trkpt>
      <trkpt lat="27.949574" lon="86.812698">
        <ele>4930.2</ele>
        <time>2022-10-26T02:21:00.000Z</time>
      </trkpt>
      <trkpt lat="27.949581" lon="86.812717">
        <ele>4930.2</ele>
        <time>2022-10-26T02:21:02.000Z</time>
      </trkpt>
      <trkpt lat="27.949587" lon="86.812736">
        <ele>4930.6</ele>
        <time>2022-10-26T02:21:06.000Z</time>
      </trkpt>
      <trkpt lat="27.949603" lon="86.812749">
        <ele>4930.8</ele>
        <time>2022-10-26T02:21:12.000Z</time>
      </trkpt>
      <trkpt lat="27.949616" lon="86.812768">
        <ele>4930.8</ele>
        <time>2022-10-26T02:21:15.000Z</time>
      </trkpt>
      <trkpt lat="27.949635" lon="86.812774">
        <ele>4930.8</ele>
        <time>2022-10-26T02:21:18.000Z</time>
      </trkpt>
      <trkpt lat="27.949651" lon="86.812806">
        <ele>4930.8</ele>
        <time>2022-10-26T02:21:22.000Z</time>
      </trkpt>
      <trkpt lat="27.949664" lon="86.812826">
        <ele>4931.2</ele>
        <time>2022-10-26T02:21:27.000Z</time>
      </trkpt>
      <trkpt lat="27.949674" lon="86.812845">
        <ele>4931.2</ele>
        <time>2022-10-26T02:21:30.000Z</time>
      </trkpt>
      <trkpt lat="27.949693" lon="86.812838">
        <ele>4931.2</ele>
        <time>2022-10-26T02:21:34.000Z</time>
      </trkpt>
      <trkpt lat="27.949712" lon="86.812838">
        <ele>4932</ele>
        <time>2022-10-26T02:21:37.000Z</time>
      </trkpt>
      <trkpt lat="27.949731" lon="86.812845">
        <ele>4932</ele>
        <time>2022-10-26T02:21:41.000Z</time>
      </trkpt>
      <trkpt lat="27.94975" lon="86.812851">
        <ele>4932</ele>
        <time>2022-10-26T02:21:45.000Z</time>
      </trkpt>
      <trkpt lat="27.94977" lon="86.812864">
        <ele>4932.2</ele>
        <time>2022-10-26T02:21:49.000Z</time>
      </trkpt>
      <trkpt lat="27.949776" lon="86.812883">
        <ele>4932.8</ele>
        <time>2022-10-26T02:22:18.000Z</time>
      </trkpt>
      <trkpt lat="27.949792" lon="86.812909">
        <ele>4932.8</ele>
        <time>2022-10-26T02:22:20.000Z</time>
      </trkpt>
      <trkpt lat="27.949808" lon="86.812934">
        <ele>4932.4</ele>
        <time>2022-10-26T02:22:22.000Z</time>
      </trkpt>
      <trkpt lat="27.949818" lon="86.812966">
        <ele>4932.4</ele>
        <time>2022-10-26T02:22:24.000Z</time>
      </trkpt>
      <trkpt lat="27.949827" lon="86.812998">
        <ele>4932.8</ele>
        <time>2022-10-26T02:22:26.000Z</time>
      </trkpt>
      <trkpt lat="27.94984" lon="86.813018">
        <ele>4932.8</ele>
        <time>2022-10-26T02:22:29.000Z</time>
      </trkpt>
      <trkpt lat="27.949846" lon="86.813043">
        <ele>4932.8</ele>
        <time>2022-10-26T02:22:32.000Z</time>
      </trkpt>
      <trkpt lat="27.949869" lon="86.813056">
        <ele>4933.4</ele>
        <time>2022-10-26T02:22:35.000Z</time>
      </trkpt>
      <trkpt lat="27.949882" lon="86.813075">
        <ele>4933.4</ele>
        <time>2022-10-26T02:22:38.000Z</time>
      </trkpt>
      <trkpt lat="27.949901" lon="86.813088">
        <ele>4933.8</ele>
        <time>2022-10-26T02:22:42.000Z</time>
      </trkpt>
      <trkpt lat="27.94991" lon="86.813107">
        <ele>4933.6</ele>
        <time>2022-10-26T02:22:45.000Z</time>
      </trkpt>
      <trkpt lat="27.94992" lon="86.813126">
        <ele>4933.4</ele>
        <time>2022-10-26T02:22:48.000Z</time>
      </trkpt>
      <trkpt lat="27.949942" lon="86.813126">
        <ele>4933.6</ele>
        <time>2022-10-26T02:22:52.000Z</time>
      </trkpt>
      <trkpt lat="27.949962" lon="86.813146">
        <ele>4933.8</ele>
        <time>2022-10-26T02:22:55.000Z</time>
      </trkpt>
      <trkpt lat="27.949974" lon="86.813165">
        <ele>4933.6</ele>
        <time>2022-10-26T02:22:58.000Z</time>
      </trkpt>
      <trkpt lat="27.94999" lon="86.813178">
        <ele>4933.8</ele>
        <time>2022-10-26T02:23:01.000Z</time>
      </trkpt>
      <trkpt lat="27.949997" lon="86.813197">
        <ele>4933.8</ele>
        <time>2022-10-26T02:23:03.000Z</time>
      </trkpt>
      <trkpt lat="27.950013" lon="86.813216">
        <ele>4934.2</ele>
        <time>2022-10-26T02:23:07.000Z</time>
      </trkpt>
      <trkpt lat="27.950026" lon="86.813235">
        <ele>4934.2</ele>
        <time>2022-10-26T02:23:10.000Z</time>
      </trkpt>
      <trkpt lat="27.950042" lon="86.813254">
        <ele>4934.2</ele>
        <time>2022-10-26T02:23:15.000Z</time>
      </trkpt>
      <trkpt lat="27.950061" lon="86.813274">
        <ele>4934.2</ele>
        <time>2022-10-26T02:23:19.000Z</time>
      </trkpt>
      <trkpt lat="27.95008" lon="86.813286">
        <ele>4934.6</ele>
        <time>2022-10-26T02:23:22.000Z</time>
      </trkpt>
      <trkpt lat="27.95009" lon="86.813306">
        <ele>4935</ele>
        <time>2022-10-26T02:23:26.000Z</time>
      </trkpt>
      <trkpt lat="27.950102" lon="86.813331">
        <ele>4935</ele>
        <time>2022-10-26T02:23:29.000Z</time>
      </trkpt>
      <trkpt lat="27.950115" lon="86.813357">
        <ele>4935</ele>
        <time>2022-10-26T02:23:33.000Z</time>
      </trkpt>
      <trkpt lat="27.950131" lon="86.813376">
        <ele>4935.6</ele>
        <time>2022-10-26T02:23:37.000Z</time>
      </trkpt>
      <trkpt lat="27.950134" lon="86.813402">
        <ele>4935.2</ele>
        <time>2022-10-26T02:23:41.000Z</time>
      </trkpt>
      <trkpt lat="27.95015" lon="86.813421">
        <ele>4935.6</ele>
        <time>2022-10-26T02:23:45.000Z</time>
      </trkpt>
      <trkpt lat="27.950163" lon="86.81344">
        <ele>4935.8</ele>
        <time>2022-10-26T02:23:49.000Z</time>
      </trkpt>
      <trkpt lat="27.950179" lon="86.813453">
        <ele>4935.8</ele>
        <time>2022-10-26T02:23:53.000Z</time>
      </trkpt>
      <trkpt lat="27.950221" lon="86.813446">
        <ele>4936</ele>
        <time>2022-10-26T02:24:01.000Z</time>
      </trkpt>
      <trkpt lat="27.95024" lon="86.813459">
        <ele>4936</ele>
        <time>2022-10-26T02:24:04.000Z</time>
      </trkpt>
      <trkpt lat="27.950256" lon="86.813478">
        <ele>4936.6</ele>
        <time>2022-10-26T02:24:07.000Z</time>
      </trkpt>
      <trkpt lat="27.950278" lon="86.813491">
        <ele>4937.2</ele>
        <time>2022-10-26T02:24:12.000Z</time>
      </trkpt>
      <trkpt lat="27.950298" lon="86.813504">
        <ele>4937.2</ele>
        <time>2022-10-26T02:24:16.000Z</time>
      </trkpt>
      <trkpt lat="27.95031" lon="86.813523">
        <ele>4937.4</ele>
        <time>2022-10-26T02:24:19.000Z</time>
      </trkpt>
      <trkpt lat="27.95033" lon="86.813536">
        <ele>4937.8</ele>
        <time>2022-10-26T02:24:22.000Z</time>
      </trkpt>
      <trkpt lat="27.950349" lon="86.813555">
        <ele>4938</ele>
        <time>2022-10-26T02:24:27.000Z</time>
      </trkpt>
      <trkpt lat="27.950371" lon="86.813568">
        <ele>4938.6</ele>
        <time>2022-10-26T02:24:31.000Z</time>
      </trkpt>
      <trkpt lat="27.950387" lon="86.813581">
        <ele>4939</ele>
        <time>2022-10-26T02:24:34.000Z</time>
      </trkpt>
      <trkpt lat="27.950406" lon="86.8136">
        <ele>4939</ele>
        <time>2022-10-26T02:24:37.000Z</time>
      </trkpt>
      <trkpt lat="27.950426" lon="86.813606">
        <ele>4939.4</ele>
        <time>2022-10-26T02:24:40.000Z</time>
      </trkpt>
      <trkpt lat="27.950438" lon="86.813632">
        <ele>4939.6</ele>
        <time>2022-10-26T02:24:44.000Z</time>
      </trkpt>
      <trkpt lat="27.950458" lon="86.813632">
        <ele>4939.6</ele>
        <time>2022-10-26T02:24:48.000Z</time>
      </trkpt>
      <trkpt lat="27.950477" lon="86.813619">
        <ele>4940</ele>
        <time>2022-10-26T02:24:51.000Z</time>
      </trkpt>
      <trkpt lat="27.950496" lon="86.813632">
        <ele>4940</ele>
        <time>2022-10-26T02:24:54.000Z</time>
      </trkpt>
      <trkpt lat="27.950512" lon="86.813645">
        <ele>4940.2</ele>
        <time>2022-10-26T02:24:57.000Z</time>
      </trkpt>
      <trkpt lat="27.950531" lon="86.813645">
        <ele>4940.4</ele>
        <time>2022-10-26T02:25:02.000Z</time>
      </trkpt>
      <trkpt lat="27.950554" lon="86.813645">
        <ele>4940.8</ele>
        <time>2022-10-26T02:25:06.000Z</time>
      </trkpt>
      <trkpt lat="27.950576" lon="86.813651">
        <ele>4941</ele>
        <time>2022-10-26T02:25:10.000Z</time>
      </trkpt>
      <trkpt lat="27.950595" lon="86.813651">
        <ele>4941</ele>
        <time>2022-10-26T02:25:13.000Z</time>
      </trkpt>
      <trkpt lat="27.950614" lon="86.813658">
        <ele>4941.2</ele>
        <time>2022-10-26T02:25:17.000Z</time>
      </trkpt>
      <trkpt lat="27.950634" lon="86.81367">
        <ele>4941.6</ele>
        <time>2022-10-26T02:25:21.000Z</time>
      </trkpt>
      <trkpt lat="27.95065" lon="86.813683">
        <ele>4942.2</ele>
        <time>2022-10-26T02:25:26.000Z</time>
      </trkpt>
      <trkpt lat="27.950669" lon="86.81369">
        <ele>4942.4</ele>
        <time>2022-10-26T02:25:29.000Z</time>
      </trkpt>
      <trkpt lat="27.950688" lon="86.813696">
        <ele>4942.6</ele>
        <time>2022-10-26T02:25:34.000Z</time>
      </trkpt>
      <trkpt lat="27.950707" lon="86.813715">
        <ele>4943.2</ele>
        <time>2022-10-26T02:25:39.000Z</time>
      </trkpt>
      <trkpt lat="27.950717" lon="86.813734">
        <ele>4943.2</ele>
        <time>2022-10-26T02:25:42.000Z</time>
      </trkpt>
      <trkpt lat="27.950739" lon="86.813741">
        <ele>4943.2</ele>
        <time>2022-10-26T02:25:46.000Z</time>
      </trkpt>
      <trkpt lat="27.950758" lon="86.813741">
        <ele>4943.2</ele>
        <time>2022-10-26T02:25:50.000Z</time>
      </trkpt>
      <trkpt lat="27.950778" lon="86.813741">
        <ele>4943.2</ele>
        <time>2022-10-26T02:25:55.000Z</time>
      </trkpt>
      <trkpt lat="27.950797" lon="86.813741">
        <ele>4943.2</ele>
        <time>2022-10-26T02:25:59.000Z</time>
      </trkpt>
      <trkpt lat="27.950816" lon="86.813734">
        <ele>4943.2</ele>
        <time>2022-10-26T02:26:03.000Z</time>
      </trkpt>
      <trkpt lat="27.950838" lon="86.813728">
        <ele>4943.4</ele>
        <time>2022-10-26T02:26:08.000Z</time>
      </trkpt>
      <trkpt lat="27.950854" lon="86.813702">
        <ele>4944</ele>
        <time>2022-10-26T02:26:13.000Z</time>
      </trkpt>
      <trkpt lat="27.950874" lon="86.813696">
        <ele>4944.4</ele>
        <time>2022-10-26T02:26:17.000Z</time>
      </trkpt>
      <trkpt lat="27.950896" lon="86.813696">
        <ele>4944.4</ele>
        <time>2022-10-26T02:26:21.000Z</time>
      </trkpt>
      <trkpt lat="27.950915" lon="86.813696">
        <ele>4944.4</ele>
        <time>2022-10-26T02:26:24.000Z</time>
      </trkpt>
      <trkpt lat="27.950938" lon="86.813715">
        <ele>4944.6</ele>
        <time>2022-10-26T02:26:28.000Z</time>
      </trkpt>
      <trkpt lat="27.95096" lon="86.813722">
        <ele>4944.8</ele>
        <time>2022-10-26T02:26:32.000Z</time>
      </trkpt>
      <trkpt lat="27.950979" lon="86.813728">
        <ele>4944.8</ele>
        <time>2022-10-26T02:26:36.000Z</time>
      </trkpt>
      <trkpt lat="27.951002" lon="86.813734">
        <ele>4945.4</ele>
        <time>2022-10-26T02:26:42.000Z</time>
      </trkpt>
      <trkpt lat="27.951021" lon="86.813728">
        <ele>4945.4</ele>
        <time>2022-10-26T02:26:46.000Z</time>
      </trkpt>
      <trkpt lat="27.951043" lon="86.813728">
        <ele>4946.2</ele>
        <time>2022-10-26T02:26:52.000Z</time>
      </trkpt>
      <trkpt lat="27.951062" lon="86.813728">
        <ele>4946.8</ele>
        <time>2022-10-26T02:26:58.000Z</time>
      </trkpt>
      <trkpt lat="27.951082" lon="86.813734">
        <ele>4947.8</ele>
        <time>2022-10-26T02:27:03.000Z</time>
      </trkpt>
      <trkpt lat="27.951098" lon="86.813722">
        <ele>4947.8</ele>
        <time>2022-10-26T02:27:09.000Z</time>
      </trkpt>
      <trkpt lat="27.95112" lon="86.813728">
        <ele>4948.4</ele>
        <time>2022-10-26T02:27:15.000Z</time>
      </trkpt>
      <trkpt lat="27.951142" lon="86.813734">
        <ele>4949.6</ele>
        <time>2022-10-26T02:27:21.000Z</time>
      </trkpt>
      <trkpt lat="27.951184" lon="86.813754">
        <ele>4947.6</ele>
        <time>2022-10-26T02:34:45.000Z</time>
      </trkpt>
      <trkpt lat="27.951203" lon="86.813766">
        <ele>4948</ele>
        <time>2022-10-26T02:34:47.000Z</time>
      </trkpt>
      <trkpt lat="27.951245" lon="86.813779">
        <ele>4948</ele>
        <time>2022-10-26T02:34:51.000Z</time>
      </trkpt>
      <trkpt lat="27.951267" lon="86.813792">
        <ele>4948.2</ele>
        <time>2022-10-26T02:34:53.000Z</time>
      </trkpt>
      <trkpt lat="27.95129" lon="86.813792">
        <ele>4949</ele>
        <time>2022-10-26T02:34:58.000Z</time>
      </trkpt>
      <trkpt lat="27.951306" lon="86.813779">
        <ele>4949.6</ele>
        <time>2022-10-26T02:35:04.000Z</time>
      </trkpt>
      <trkpt lat="27.951331" lon="86.813792">
        <ele>4951.8</ele>
        <time>2022-10-26T02:35:30.000Z</time>
      </trkpt>
      <trkpt lat="27.95135" lon="86.813805">
        <ele>4952</ele>
        <time>2022-10-26T02:35:32.000Z</time>
      </trkpt>
      <trkpt lat="27.95137" lon="86.813818">
        <ele>4952</ele>
        <time>2022-10-26T02:35:34.000Z</time>
      </trkpt>
      <trkpt lat="27.951386" lon="86.813837">
        <ele>4952</ele>
        <time>2022-10-26T02:35:36.000Z</time>
      </trkpt>
      <trkpt lat="27.951408" lon="86.813843">
        <ele>4952</ele>
        <time>2022-10-26T02:35:39.000Z</time>
      </trkpt>
      <trkpt lat="27.951424" lon="86.813856">
        <ele>4951.4</ele>
        <time>2022-10-26T02:35:45.000Z</time>
      </trkpt>
      <trkpt lat="27.95143" lon="86.813882">
        <ele>4950.8</ele>
        <time>2022-10-26T02:35:50.000Z</time>
      </trkpt>
      <trkpt lat="27.95144" lon="86.813914">
        <ele>4949.8</ele>
        <time>2022-10-26T02:35:54.000Z</time>
      </trkpt>
      <trkpt lat="27.951462" lon="86.813933">
        <ele>4949</ele>
        <time>2022-10-26T02:35:59.000Z</time>
      </trkpt>
      <trkpt lat="27.951482" lon="86.813939">
        <ele>4949.8</ele>
        <time>2022-10-26T02:36:02.000Z</time>
      </trkpt>
      <trkpt lat="27.951498" lon="86.813958">
        <ele>4949.2</ele>
        <time>2022-10-26T02:36:04.000Z</time>
      </trkpt>
      <trkpt lat="27.951514" lon="86.813971">
        <ele>4949.2</ele>
        <time>2022-10-26T02:36:06.000Z</time>
      </trkpt>
      <trkpt lat="27.951523" lon="86.81399">
        <ele>4949</ele>
        <time>2022-10-26T02:36:08.000Z</time>
      </trkpt>
      <trkpt lat="27.951539" lon="86.814003">
        <ele>4948.6</ele>
        <time>2022-10-26T02:36:11.000Z</time>
      </trkpt>
      <trkpt lat="27.951562" lon="86.814016">
        <ele>4948.6</ele>
        <time>2022-10-26T02:36:14.000Z</time>
      </trkpt>
      <trkpt lat="27.951581" lon="86.814035">
        <ele>4948.6</ele>
        <time>2022-10-26T02:36:18.000Z</time>
      </trkpt>
      <trkpt lat="27.951597" lon="86.814054">
        <ele>4948.4</ele>
        <time>2022-10-26T02:36:21.000Z</time>
      </trkpt>
      <trkpt lat="27.951613" lon="86.814074">
        <ele>4948.2</ele>
        <time>2022-10-26T02:36:24.000Z</time>
      </trkpt>
      <trkpt lat="27.951638" lon="86.814074">
        <ele>4948.4</ele>
        <time>2022-10-26T02:36:27.000Z</time>
      </trkpt>
      <trkpt lat="27.951658" lon="86.814067">
        <ele>4948.4</ele>
        <time>2022-10-26T02:36:31.000Z</time>
      </trkpt>
      <trkpt lat="27.951677" lon="86.814067">
        <ele>4949</ele>
        <time>2022-10-26T02:36:34.000Z</time>
      </trkpt>
      <trkpt lat="27.951696" lon="86.814067">
        <ele>4949.2</ele>
        <time>2022-10-26T02:36:38.000Z</time>
      </trkpt>
      <trkpt lat="27.951718" lon="86.814074">
        <ele>4949.8</ele>
        <time>2022-10-26T02:36:41.000Z</time>
      </trkpt>
      <trkpt lat="27.951738" lon="86.814086">
        <ele>4949.4</ele>
        <time>2022-10-26T02:36:44.000Z</time>
      </trkpt>
      <trkpt lat="27.951757" lon="86.814093">
        <ele>4948.6</ele>
        <time>2022-10-26T02:36:49.000Z</time>
      </trkpt>
      <trkpt lat="27.95177" lon="86.814112">
        <ele>4948.6</ele>
        <time>2022-10-26T02:36:52.000Z</time>
      </trkpt>
      <trkpt lat="27.951789" lon="86.814125">
        <ele>4948.4</ele>
        <time>2022-10-26T02:36:55.000Z</time>
      </trkpt>
      <trkpt lat="27.951805" lon="86.814138">
        <ele>4948.6</ele>
        <time>2022-10-26T02:36:58.000Z</time>
      </trkpt>
      <trkpt lat="27.951821" lon="86.814157">
        <ele>4948.2</ele>
        <time>2022-10-26T02:37:01.000Z</time>
      </trkpt>
      <trkpt lat="27.95184" lon="86.81415">
        <ele>4948.4</ele>
        <time>2022-10-26T02:37:05.000Z</time>
      </trkpt>
      <trkpt lat="27.951856" lon="86.814138">
        <ele>4948.4</ele>
        <time>2022-10-26T02:37:08.000Z</time>
      </trkpt>
      <trkpt lat="27.951875" lon="86.814138">
        <ele>4948.6</ele>
        <time>2022-10-26T02:37:11.000Z</time>
      </trkpt>
      <trkpt lat="27.951894" lon="86.81415">
        <ele>4949.2</ele>
        <time>2022-10-26T02:37:14.000Z</time>
      </trkpt>
      <trkpt lat="27.951914" lon="86.814163">
        <ele>4949.2</ele>
        <time>2022-10-26T02:37:17.000Z</time>
      </trkpt>
      <trkpt lat="27.95193" lon="86.814189">
        <ele>4949.6</ele>
        <time>2022-10-26T02:37:20.000Z</time>
      </trkpt>
      <trkpt lat="27.951949" lon="86.814195">
        <ele>4949.2</ele>
        <time>2022-10-26T02:37:23.000Z</time>
      </trkpt>
      <trkpt lat="27.951968" lon="86.814202">
        <ele>4949</ele>
        <time>2022-10-26T02:37:28.000Z</time>
      </trkpt>
      <trkpt lat="27.95199" lon="86.814202">
        <ele>4949.2</ele>
        <time>2022-10-26T02:37:33.000Z</time>
      </trkpt>
      <trkpt lat="27.952006" lon="86.814214">
        <ele>4949.6</ele>
        <time>2022-10-26T02:37:36.000Z</time>
      </trkpt>
      <trkpt lat="27.952029" lon="86.814214">
        <ele>4949.6</ele>
        <time>2022-10-26T02:37:40.000Z</time>
      </trkpt>
      <trkpt lat="27.952048" lon="86.814214">
        <ele>4949.6</ele>
        <time>2022-10-26T02:37:44.000Z</time>
      </trkpt>
      <trkpt lat="27.952067" lon="86.814202">
        <ele>4949.8</ele>
        <time>2022-10-26T02:37:48.000Z</time>
      </trkpt>
      <trkpt lat="27.952086" lon="86.814202">
        <ele>4950.2</ele>
        <time>2022-10-26T02:37:52.000Z</time>
      </trkpt>
      <trkpt lat="27.952102" lon="86.814189">
        <ele>4950.6</ele>
        <time>2022-10-26T02:37:56.000Z</time>
      </trkpt>
      <trkpt lat="27.952118" lon="86.814176">
        <ele>4950.8</ele>
        <time>2022-10-26T02:37:59.000Z</time>
      </trkpt>
      <trkpt lat="27.952141" lon="86.814189">
        <ele>4951</ele>
        <time>2022-10-26T02:38:02.000Z</time>
      </trkpt>
      <trkpt lat="27.95216" lon="86.814202">
        <ele>4951</ele>
        <time>2022-10-26T02:38:05.000Z</time>
      </trkpt>
      <trkpt lat="27.952176" lon="86.814227">
        <ele>4951.2</ele>
        <time>2022-10-26T02:38:09.000Z</time>
      </trkpt>
      <trkpt lat="27.952189" lon="86.814246">
        <ele>4950.8</ele>
        <time>2022-10-26T02:38:12.000Z</time>
      </trkpt>
      <trkpt lat="27.952198" lon="86.814272">
        <ele>4950.4</ele>
        <time>2022-10-26T02:38:15.000Z</time>
      </trkpt>
      <trkpt lat="27.952218" lon="86.814291">
        <ele>4950.8</ele>
        <time>2022-10-26T02:38:19.000Z</time>
      </trkpt>
      <trkpt lat="27.95224" lon="86.814298">
        <ele>4950.8</ele>
        <time>2022-10-26T02:38:22.000Z</time>
      </trkpt>
      <trkpt lat="27.952256" lon="86.814317">
        <ele>4950.8</ele>
        <time>2022-10-26T02:38:25.000Z</time>
      </trkpt>
      <trkpt lat="27.952272" lon="86.81433">
        <ele>4950.8</ele>
        <time>2022-10-26T02:38:28.000Z</time>
      </trkpt>
      <trkpt lat="27.952285" lon="86.814349">
        <ele>4951</ele>
        <time>2022-10-26T02:38:31.000Z</time>
      </trkpt>
      <trkpt lat="27.952301" lon="86.814368">
        <ele>4951.6</ele>
        <time>2022-10-26T02:38:34.000Z</time>
      </trkpt>
      <trkpt lat="27.952314" lon="86.814387">
        <ele>4952</ele>
        <time>2022-10-26T02:38:37.000Z</time>
      </trkpt>
      <trkpt lat="27.952336" lon="86.8144">
        <ele>4952.2</ele>
        <time>2022-10-26T02:38:41.000Z</time>
      </trkpt>
      <trkpt lat="27.952352" lon="86.814413">
        <ele>4952</ele>
        <time>2022-10-26T02:38:45.000Z</time>
      </trkpt>
      <trkpt lat="27.952371" lon="86.814432">
        <ele>4952.4</ele>
        <time>2022-10-26T02:38:48.000Z</time>
      </trkpt>
      <trkpt lat="27.95239" lon="86.814451">
        <ele>4952.6</ele>
        <time>2022-10-26T02:38:53.000Z</time>
      </trkpt>
      <trkpt lat="27.952403" lon="86.81447">
        <ele>4952.2</ele>
        <time>2022-10-26T02:38:55.000Z</time>
      </trkpt>
      <trkpt lat="27.952419" lon="86.814483">
        <ele>4952.6</ele>
        <time>2022-10-26T02:38:59.000Z</time>
      </trkpt>
      <trkpt lat="27.952442" lon="86.814496">
        <ele>4952.8</ele>
        <time>2022-10-26T02:39:03.000Z</time>
      </trkpt>
      <trkpt lat="27.952454" lon="86.814515">
        <ele>4952.8</ele>
        <time>2022-10-26T02:39:08.000Z</time>
      </trkpt>
      <trkpt lat="27.952474" lon="86.814522">
        <ele>4953.2</ele>
        <time>2022-10-26T02:39:12.000Z</time>
      </trkpt>
      <trkpt lat="27.952493" lon="86.814534">
        <ele>4953.2</ele>
        <time>2022-10-26T02:39:15.000Z</time>
      </trkpt>
      <trkpt lat="27.952509" lon="86.814547">
        <ele>4953.4</ele>
        <time>2022-10-26T02:39:19.000Z</time>
      </trkpt>
      <trkpt lat="27.952528" lon="86.81456">
        <ele>4953.8</ele>
        <time>2022-10-26T02:39:23.000Z</time>
      </trkpt>
      <trkpt lat="27.95255" lon="86.814566">
        <ele>4954.2</ele>
        <time>2022-10-26T02:39:27.000Z</time>
      </trkpt>
      <trkpt lat="27.95257" lon="86.814573">
        <ele>4954.2</ele>
        <time>2022-10-26T02:39:31.000Z</time>
      </trkpt>
      <trkpt lat="27.952582" lon="86.814592">
        <ele>4954.2</ele>
        <time>2022-10-26T02:39:34.000Z</time>
      </trkpt>
      <trkpt lat="27.952602" lon="86.814598">
        <ele>4954.6</ele>
        <time>2022-10-26T02:39:38.000Z</time>
      </trkpt>
      <trkpt lat="27.952621" lon="86.814605">
        <ele>4954.6</ele>
        <time>2022-10-26T02:39:41.000Z</time>
      </trkpt>
      <trkpt lat="27.95264" lon="86.814605">
        <ele>4954.6</ele>
        <time>2022-10-26T02:39:44.000Z</time>
      </trkpt>
      <trkpt lat="27.952659" lon="86.814624">
        <ele>4955.2</ele>
        <time>2022-10-26T02:39:48.000Z</time>
      </trkpt>
      <trkpt lat="27.952685" lon="86.81463">
        <ele>4955.4</ele>
        <time>2022-10-26T02:39:52.000Z</time>
      </trkpt>
      <trkpt lat="27.952707" lon="86.814643">
        <ele>4955.2</ele>
        <time>2022-10-26T02:39:56.000Z</time>
      </trkpt>
      <trkpt lat="27.952726" lon="86.81465">
        <ele>4955.4</ele>
        <time>2022-10-26T02:40:00.000Z</time>
      </trkpt>
      <trkpt lat="27.952742" lon="86.814669">
        <ele>4955.4</ele>
        <time>2022-10-26T02:40:02.000Z</time>
      </trkpt>
      <trkpt lat="27.952762" lon="86.814682">
        <ele>4955.2</ele>
        <time>2022-10-26T02:40:06.000Z</time>
      </trkpt>
      <trkpt lat="27.952781" lon="86.814688">
        <ele>4955.8</ele>
        <time>2022-10-26T02:40:10.000Z</time>
      </trkpt>
      <trkpt lat="27.95279" lon="86.814707">
        <ele>4955.8</ele>
        <time>2022-10-26T02:40:12.000Z</time>
      </trkpt>
      <trkpt lat="27.95281" lon="86.814714">
        <ele>4955.8</ele>
        <time>2022-10-26T02:40:15.000Z</time>
      </trkpt>
      <trkpt lat="27.952829" lon="86.81472">
        <ele>4956.6</ele>
        <time>2022-10-26T02:40:21.000Z</time>
      </trkpt>
      <trkpt lat="27.952851" lon="86.814733">
        <ele>4956.6</ele>
        <time>2022-10-26T02:40:25.000Z</time>
      </trkpt>
      <trkpt lat="27.952867" lon="86.814746">
        <ele>4956.8</ele>
        <time>2022-10-26T02:40:29.000Z</time>
      </trkpt>
      <trkpt lat="27.952886" lon="86.814752">
        <ele>4956.8</ele>
        <time>2022-10-26T02:40:34.000Z</time>
      </trkpt>
      <trkpt lat="27.952906" lon="86.814752">
        <ele>4957.6</ele>
        <time>2022-10-26T02:40:40.000Z</time>
      </trkpt>
      <trkpt lat="27.952925" lon="86.814746">
        <ele>4958.8</ele>
        <time>2022-10-26T02:40:48.000Z</time>
      </trkpt>
      <trkpt lat="27.952944" lon="86.814752">
        <ele>4959.4</ele>
        <time>2022-10-26T02:40:54.000Z</time>
      </trkpt>
      <trkpt lat="27.952963" lon="86.814758">
        <ele>4959.6</ele>
        <time>2022-10-26T02:41:01.000Z</time>
      </trkpt>
      <trkpt lat="27.952979" lon="86.814746">
        <ele>4959.6</ele>
        <time>2022-10-26T02:41:08.000Z</time>
      </trkpt>
      <trkpt lat="27.952998" lon="86.814746">
        <ele>4960.4</ele>
        <time>2022-10-26T02:41:13.000Z</time>
      </trkpt>
      <trkpt lat="27.953018" lon="86.814758">
        <ele>4960.4</ele>
        <time>2022-10-26T02:41:18.000Z</time>
      </trkpt>
      <trkpt lat="27.953037" lon="86.814758">
        <ele>4960.4</ele>
        <time>2022-10-26T02:41:23.000Z</time>
      </trkpt>
      <trkpt lat="27.953059" lon="86.814765">
        <ele>4960.4</ele>
        <time>2022-10-26T02:41:28.000Z</time>
      </trkpt>
      <trkpt lat="27.953078" lon="86.814765">
        <ele>4960.4</ele>
        <time>2022-10-26T02:41:31.000Z</time>
      </trkpt>
      <trkpt lat="27.953104" lon="86.814771">
        <ele>4960.4</ele>
        <time>2022-10-26T02:41:35.000Z</time>
      </trkpt>
      <trkpt lat="27.953126" lon="86.814784">
        <ele>4960.4</ele>
        <time>2022-10-26T02:41:38.000Z</time>
      </trkpt>
      <trkpt lat="27.953146" lon="86.814784">
        <ele>4960.8</ele>
        <time>2022-10-26T02:41:41.000Z</time>
      </trkpt>
      <trkpt lat="27.953168" lon="86.814771">
        <ele>4961</ele>
        <time>2022-10-26T02:41:45.000Z</time>
      </trkpt>
      <trkpt lat="27.953184" lon="86.814784">
        <ele>4960.8</ele>
        <time>2022-10-26T02:41:48.000Z</time>
      </trkpt>
      <trkpt lat="27.953203" lon="86.81479">
        <ele>4960.8</ele>
        <time>2022-10-26T02:41:51.000Z</time>
      </trkpt>
      <trkpt lat="27.953222" lon="86.814797">
        <ele>4961.4</ele>
        <time>2022-10-26T02:41:55.000Z</time>
      </trkpt>
      <trkpt lat="27.953245" lon="86.814803">
        <ele>4961.4</ele>
        <time>2022-10-26T02:41:59.000Z</time>
      </trkpt>
      <trkpt lat="27.953254" lon="86.814829">
        <ele>4961.4</ele>
        <time>2022-10-26T02:42:02.000Z</time>
      </trkpt>
      <trkpt lat="27.953264" lon="86.814848">
        <ele>4961.6</ele>
        <time>2022-10-26T02:42:06.000Z</time>
      </trkpt>
      <trkpt lat="27.953267" lon="86.81488">
        <ele>4961.8</ele>
        <time>2022-10-26T02:42:09.000Z</time>
      </trkpt>
      <trkpt lat="27.953274" lon="86.814906">
        <ele>4961.6</ele>
        <time>2022-10-26T02:42:13.000Z</time>
      </trkpt>
      <trkpt lat="27.953293" lon="86.814925">
        <ele>4961.6</ele>
        <time>2022-10-26T02:42:17.000Z</time>
      </trkpt>
      <trkpt lat="27.953315" lon="86.814944">
        <ele>4962.4</ele>
        <time>2022-10-26T02:42:22.000Z</time>
      </trkpt>
      <trkpt lat="27.953338" lon="86.81495">
        <ele>4962.8</ele>
        <time>2022-10-26T02:42:26.000Z</time>
      </trkpt>
      <trkpt lat="27.953357" lon="86.814963">
        <ele>4962.8</ele>
        <time>2022-10-26T02:42:30.000Z</time>
      </trkpt>
      <trkpt lat="27.95337" lon="86.814982">
        <ele>4963</ele>
        <time>2022-10-26T02:42:33.000Z</time>
      </trkpt>
      <trkpt lat="27.953386" lon="86.814995">
        <ele>4962.8</ele>
        <time>2022-10-26T02:42:37.000Z</time>
      </trkpt>
      <trkpt lat="27.953405" lon="86.815002">
        <ele>4963.4</ele>
        <time>2022-10-26T02:42:41.000Z</time>
      </trkpt>
      <trkpt lat="27.953424" lon="86.814989">
        <ele>4963.4</ele>
        <time>2022-10-26T02:42:45.000Z</time>
      </trkpt>
      <trkpt lat="27.953446" lon="86.814995">
        <ele>4963.6</ele>
        <time>2022-10-26T02:42:49.000Z</time>
      </trkpt>
      <trkpt lat="27.953466" lon="86.815008">
        <ele>4963.4</ele>
        <time>2022-10-26T02:42:53.000Z</time>
      </trkpt>
      <trkpt lat="27.953488" lon="86.815021">
        <ele>4963.4</ele>
        <time>2022-10-26T02:42:57.000Z</time>
      </trkpt>
      <trkpt lat="27.95351" lon="86.815027">
        <ele>4963.4</ele>
        <time>2022-10-26T02:43:01.000Z</time>
      </trkpt>
      <trkpt lat="27.953533" lon="86.815027">
        <ele>4964</ele>
        <time>2022-10-26T02:43:05.000Z</time>
      </trkpt>
      <trkpt lat="27.953555" lon="86.815021">
        <ele>4964.2</ele>
        <time>2022-10-26T02:43:12.000Z</time>
      </trkpt>
      <trkpt lat="27.953574" lon="86.815027">
        <ele>4964.4</ele>
        <time>2022-10-26T02:43:16.000Z</time>
      </trkpt>
      <trkpt lat="27.953597" lon="86.815034">
        <ele>4964.2</ele>
        <time>2022-10-26T02:43:40.000Z</time>
      </trkpt>
      <trkpt lat="27.953626" lon="86.81504">
        <ele>4964.2</ele>
        <time>2022-10-26T02:43:42.000Z</time>
      </trkpt>
      <trkpt lat="27.953658" lon="86.81504">
        <ele>4964.6</ele>
        <time>2022-10-26T02:43:44.000Z</time>
      </trkpt>
      <trkpt lat="27.953686" lon="86.81504">
        <ele>4964.8</ele>
        <time>2022-10-26T02:43:46.000Z</time>
      </trkpt>
      <trkpt lat="27.953715" lon="86.815046">
        <ele>4964.8</ele>
        <time>2022-10-26T02:43:48.000Z</time>
      </trkpt>
      <trkpt lat="27.953734" lon="86.815053">
        <ele>4965.2</ele>
        <time>2022-10-26T02:43:49.000Z</time>
      </trkpt>
      <trkpt lat="27.953757" lon="86.815066">
        <ele>4964.8</ele>
        <time>2022-10-26T02:43:52.000Z</time>
      </trkpt>
      <trkpt lat="27.953779" lon="86.815066">
        <ele>4964.8</ele>
        <time>2022-10-26T02:43:55.000Z</time>
      </trkpt>
      <trkpt lat="27.953798" lon="86.815078">
        <ele>4965.2</ele>
        <time>2022-10-26T02:43:58.000Z</time>
      </trkpt>
      <trkpt lat="27.953821" lon="86.815078">
        <ele>4964.8</ele>
        <time>2022-10-26T02:44:01.000Z</time>
      </trkpt>
      <trkpt lat="27.953843" lon="86.815085">
        <ele>4964.8</ele>
        <time>2022-10-26T02:44:04.000Z</time>
      </trkpt>
      <trkpt lat="27.953862" lon="86.815085">
        <ele>4964.8</ele>
        <time>2022-10-26T02:44:07.000Z</time>
      </trkpt>
      <trkpt lat="27.953882" lon="86.815085">
        <ele>4964.6</ele>
        <time>2022-10-26T02:44:10.000Z</time>
      </trkpt>
      <trkpt lat="27.953904" lon="86.815078">
        <ele>4964.6</ele>
        <time>2022-10-26T02:44:14.000Z</time>
      </trkpt>
      <trkpt lat="27.953923" lon="86.815072">
        <ele>4964.6</ele>
        <time>2022-10-26T02:44:17.000Z</time>
      </trkpt>
      <trkpt lat="27.953942" lon="86.815072">
        <ele>4964.2</ele>
        <time>2022-10-26T02:44:20.000Z</time>
      </trkpt>
      <trkpt lat="27.953962" lon="86.815066">
        <ele>4964.2</ele>
        <time>2022-10-26T02:44:23.000Z</time>
      </trkpt>
      <trkpt lat="27.953978" lon="86.815053">
        <ele>4964.2</ele>
        <time>2022-10-26T02:44:25.000Z</time>
      </trkpt>
      <trkpt lat="27.954" lon="86.815046">
        <ele>4964.2</ele>
        <time>2022-10-26T02:44:28.000Z</time>
      </trkpt>
      <trkpt lat="27.954019" lon="86.81504">
        <ele>4964</ele>
        <time>2022-10-26T02:44:31.000Z</time>
      </trkpt>
      <trkpt lat="27.954045" lon="86.815034">
        <ele>4964.6</ele>
        <time>2022-10-26T02:44:34.000Z</time>
      </trkpt>
      <trkpt lat="27.95407" lon="86.815034">
        <ele>4964</ele>
        <time>2022-10-26T02:44:37.000Z</time>
      </trkpt>
      <trkpt lat="27.95409" lon="86.815027">
        <ele>4964</ele>
        <time>2022-10-26T02:44:39.000Z</time>
      </trkpt>
      <trkpt lat="27.954112" lon="86.815021">
        <ele>4964</ele>
        <time>2022-10-26T02:44:42.000Z</time>
      </trkpt>
      <trkpt lat="27.954134" lon="86.815008">
        <ele>4964.2</ele>
        <time>2022-10-26T02:44:45.000Z</time>
      </trkpt>
      <trkpt lat="27.954154" lon="86.815008">
        <ele>4964.2</ele>
        <time>2022-10-26T02:44:47.000Z</time>
      </trkpt>
      <trkpt lat="27.954163" lon="86.815027">
        <ele>4964.2</ele>
        <time>2022-10-26T02:44:49.000Z</time>
      </trkpt>
      <trkpt lat="27.954179" lon="86.81504">
        <ele>4964</ele>
        <time>2022-10-26T02:44:52.000Z</time>
      </trkpt>
      <trkpt lat="27.954198" lon="86.815053">
        <ele>4964</ele>
        <time>2022-10-26T02:44:56.000Z</time>
      </trkpt>
      <trkpt lat="27.954243" lon="86.815072">
        <ele>4964.4</ele>
        <time>2022-10-26T02:45:04.000Z</time>
      </trkpt>
      <trkpt lat="27.954259" lon="86.815085">
        <ele>4964.8</ele>
        <time>2022-10-26T02:45:08.000Z</time>
      </trkpt>
      <trkpt lat="27.954282" lon="86.815085">
        <ele>4965.2</ele>
        <time>2022-10-26T02:45:14.000Z</time>
      </trkpt>
      <trkpt lat="27.954291" lon="86.815104">
        <ele>4965.4</ele>
        <time>2022-10-26T02:45:18.000Z</time>
      </trkpt>
      <trkpt lat="27.954307" lon="86.815117">
        <ele>4965.6</ele>
        <time>2022-10-26T02:45:24.000Z</time>
      </trkpt>
      <trkpt lat="27.954314" lon="86.815142">
        <ele>4966.2</ele>
        <time>2022-10-26T02:45:29.000Z</time>
      </trkpt>
      <trkpt lat="27.95433" lon="86.815155">
        <ele>4966.6</ele>
        <time>2022-10-26T02:45:33.000Z</time>
      </trkpt>
      <trkpt lat="27.954346" lon="86.815181">
        <ele>4967.4</ele>
        <time>2022-10-26T02:45:39.000Z</time>
      </trkpt>
      <trkpt lat="27.954368" lon="86.815194">
        <ele>4967.6</ele>
        <time>2022-10-26T02:45:46.000Z</time>
      </trkpt>
      <trkpt lat="27.954378" lon="86.815219">
        <ele>4968</ele>
        <time>2022-10-26T02:45:50.000Z</time>
      </trkpt>
      <trkpt lat="27.954381" lon="86.815245">
        <ele>4968.2</ele>
        <time>2022-10-26T02:45:54.000Z</time>
      </trkpt>
      <trkpt lat="27.95439" lon="86.815264">
        <ele>4968.6</ele>
        <time>2022-10-26T02:45:57.000Z</time>
      </trkpt>
      <trkpt lat="27.95441" lon="86.815277">
        <ele>4968.6</ele>
        <time>2022-10-26T02:46:01.000Z</time>
      </trkpt>
      <trkpt lat="27.954426" lon="86.81529">
        <ele>4969.2</ele>
        <time>2022-10-26T02:46:05.000Z</time>
      </trkpt>
      <trkpt lat="27.954435" lon="86.815309">
        <ele>4969.4</ele>
        <time>2022-10-26T02:46:08.000Z</time>
      </trkpt>
      <trkpt lat="27.954451" lon="86.815328">
        <ele>4969.6</ele>
        <time>2022-10-26T02:46:13.000Z</time>
      </trkpt>
      <trkpt lat="27.954458" lon="86.815347">
        <ele>4970.2</ele>
        <time>2022-10-26T02:46:17.000Z</time>
      </trkpt>
      <trkpt lat="27.954477" lon="86.815366">
        <ele>4970.2</ele>
        <time>2022-10-26T02:46:21.000Z</time>
      </trkpt>
      <trkpt lat="27.95449" lon="86.815386">
        <ele>4970.8</ele>
        <time>2022-10-26T02:46:25.000Z</time>
      </trkpt>
      <trkpt lat="27.954512" lon="86.815386">
        <ele>4971.4</ele>
        <time>2022-10-26T02:46:29.000Z</time>
      </trkpt>
      <trkpt lat="27.954528" lon="86.815398">
        <ele>4971.8</ele>
        <time>2022-10-26T02:46:33.000Z</time>
      </trkpt>
      <trkpt lat="27.954544" lon="86.815418">
        <ele>4972</ele>
        <time>2022-10-26T02:46:38.000Z</time>
      </trkpt>
      <trkpt lat="27.954566" lon="86.815424">
        <ele>4972.4</ele>
        <time>2022-10-26T02:46:42.000Z</time>
      </trkpt>
      <trkpt lat="27.954582" lon="86.815443">
        <ele>4972.6</ele>
        <time>2022-10-26T02:46:47.000Z</time>
      </trkpt>
      <trkpt lat="27.954602" lon="86.81545">
        <ele>4973.4</ele>
        <time>2022-10-26T02:46:52.000Z</time>
      </trkpt>
      <trkpt lat="27.954618" lon="86.815462">
        <ele>4973.8</ele>
        <time>2022-10-26T02:46:57.000Z</time>
      </trkpt>
      <trkpt lat="27.954637" lon="86.815462">
        <ele>4974.4</ele>
        <time>2022-10-26T02:47:01.000Z</time>
      </trkpt>
      <trkpt lat="27.954656" lon="86.815469">
        <ele>4975.2</ele>
        <time>2022-10-26T02:47:06.000Z</time>
      </trkpt>
      <trkpt lat="27.954675" lon="86.815482">
        <ele>4975.8</ele>
        <time>2022-10-26T02:47:10.000Z</time>
      </trkpt>
      <trkpt lat="27.954694" lon="86.815488">
        <ele>4975.8</ele>
        <time>2022-10-26T02:47:14.000Z</time>
      </trkpt>
      <trkpt lat="27.954714" lon="86.815501">
        <ele>4976</ele>
        <time>2022-10-26T02:47:17.000Z</time>
      </trkpt>
      <trkpt lat="27.954733" lon="86.815514">
        <ele>4976</ele>
        <time>2022-10-26T02:47:21.000Z</time>
      </trkpt>
      <trkpt lat="27.954749" lon="86.815526">
        <ele>4976.4</ele>
        <time>2022-10-26T02:47:24.000Z</time>
      </trkpt>
      <trkpt lat="27.954765" lon="86.815539">
        <ele>4976.6</ele>
        <time>2022-10-26T02:47:27.000Z</time>
      </trkpt>
      <trkpt lat="27.954781" lon="86.815552">
        <ele>4977</ele>
        <time>2022-10-26T02:47:30.000Z</time>
      </trkpt>
      <trkpt lat="27.954803" lon="86.815565">
        <ele>4977.2</ele>
        <time>2022-10-26T02:47:35.000Z</time>
      </trkpt>
      <trkpt lat="27.954819" lon="86.815578">
        <ele>4977.8</ele>
        <time>2022-10-26T02:47:38.000Z</time>
      </trkpt>
      <trkpt lat="27.954826" lon="86.815597">
        <ele>4977.4</ele>
        <time>2022-10-26T02:47:41.000Z</time>
      </trkpt>
      <trkpt lat="27.954835" lon="86.815622">
        <ele>4977.4</ele>
        <time>2022-10-26T02:47:44.000Z</time>
      </trkpt>
      <trkpt lat="27.954851" lon="86.815642">
        <ele>4977.8</ele>
        <time>2022-10-26T02:47:47.000Z</time>
      </trkpt>
      <trkpt lat="27.954867" lon="86.815661">
        <ele>4977.8</ele>
        <time>2022-10-26T02:47:50.000Z</time>
      </trkpt>
      <trkpt lat="27.954883" lon="86.81568">
        <ele>4978</ele>
        <time>2022-10-26T02:47:54.000Z</time>
      </trkpt>
      <trkpt lat="27.954893" lon="86.815699">
        <ele>4978</ele>
        <time>2022-10-26T02:47:57.000Z</time>
      </trkpt>
      <trkpt lat="27.954915" lon="86.815706">
        <ele>4978.4</ele>
        <time>2022-10-26T02:48:01.000Z</time>
      </trkpt>
      <trkpt lat="27.954934" lon="86.815706">
        <ele>4978.4</ele>
        <time>2022-10-26T02:48:04.000Z</time>
      </trkpt>
      <trkpt lat="27.954954" lon="86.815718">
        <ele>4979</ele>
        <time>2022-10-26T02:48:07.000Z</time>
      </trkpt>
      <trkpt lat="27.95496" lon="86.815738">
        <ele>4979.2</ele>
        <time>2022-10-26T02:48:10.000Z</time>
      </trkpt>
      <trkpt lat="27.954979" lon="86.815757">
        <ele>4979.2</ele>
        <time>2022-10-26T02:48:15.000Z</time>
      </trkpt>
      <trkpt lat="27.954989" lon="86.815776">
        <ele>4979.2</ele>
        <time>2022-10-26T02:48:18.000Z</time>
      </trkpt>
      <trkpt lat="27.955008" lon="86.815789">
        <ele>4979.4</ele>
        <time>2022-10-26T02:48:22.000Z</time>
      </trkpt>
      <trkpt lat="27.955024" lon="86.815802">
        <ele>4980</ele>
        <time>2022-10-26T02:48:27.000Z</time>
      </trkpt>
      <trkpt lat="27.955037" lon="86.815821">
        <ele>4980.4</ele>
        <time>2022-10-26T02:48:30.000Z</time>
      </trkpt>
      <trkpt lat="27.955059" lon="86.815827">
        <ele>4980.8</ele>
        <time>2022-10-26T02:48:34.000Z</time>
      </trkpt>
      <trkpt lat="27.955075" lon="86.81584">
        <ele>4980.6</ele>
        <time>2022-10-26T02:48:37.000Z</time>
      </trkpt>
      <trkpt lat="27.955094" lon="86.815859">
        <ele>4981</ele>
        <time>2022-10-26T02:48:41.000Z</time>
      </trkpt>
      <trkpt lat="27.955114" lon="86.815878">
        <ele>4981.4</ele>
        <time>2022-10-26T02:48:46.000Z</time>
      </trkpt>
      <trkpt lat="27.955126" lon="86.815898">
        <ele>4981.8</ele>
        <time>2022-10-26T02:48:50.000Z</time>
      </trkpt>
      <trkpt lat="27.955152" lon="86.815898">
        <ele>4982</ele>
        <time>2022-10-26T02:48:54.000Z</time>
      </trkpt>
      <trkpt lat="27.955171" lon="86.81591">
        <ele>4982.8</ele>
        <time>2022-10-26T02:48:58.000Z</time>
      </trkpt>
      <trkpt lat="27.955194" lon="86.815917">
        <ele>4982</ele>
        <time>2022-10-26T02:49:02.000Z</time>
      </trkpt>
      <trkpt lat="27.955203" lon="86.815936">
        <ele>4982</ele>
        <time>2022-10-26T02:49:04.000Z</time>
      </trkpt>
      <trkpt lat="27.955219" lon="86.815949">
        <ele>4982</ele>
        <time>2022-10-26T02:49:07.000Z</time>
      </trkpt>
      <trkpt lat="27.955235" lon="86.815962">
        <ele>4983</ele>
        <time>2022-10-26T02:49:10.000Z</time>
      </trkpt>
      <trkpt lat="27.955251" lon="86.815974">
        <ele>4982.4</ele>
        <time>2022-10-26T02:49:13.000Z</time>
      </trkpt>
      <trkpt lat="27.95527" lon="86.815987">
        <ele>4982.6</ele>
        <time>2022-10-26T02:49:16.000Z</time>
      </trkpt>
      <trkpt lat="27.955283" lon="86.816006">
        <ele>4983</ele>
        <time>2022-10-26T02:49:20.000Z</time>
      </trkpt>
      <trkpt lat="27.955299" lon="86.816019">
        <ele>4983.2</ele>
        <time>2022-10-26T02:49:23.000Z</time>
      </trkpt>
      <trkpt lat="27.955312" lon="86.816038">
        <ele>4983.6</ele>
        <time>2022-10-26T02:49:26.000Z</time>
      </trkpt>
      <trkpt lat="27.955331" lon="86.816045">
        <ele>4983.8</ele>
        <time>2022-10-26T02:49:29.000Z</time>
      </trkpt>
      <trkpt lat="27.95535" lon="86.816058">
        <ele>4983.6</ele>
        <time>2022-10-26T02:49:32.000Z</time>
      </trkpt>
      <trkpt lat="27.95537" lon="86.816077">
        <ele>4983.8</ele>
        <time>2022-10-26T02:49:36.000Z</time>
      </trkpt>
      <trkpt lat="27.955386" lon="86.816096">
        <ele>4984</ele>
        <time>2022-10-26T02:49:39.000Z</time>
      </trkpt>
      <trkpt lat="27.955405" lon="86.816102">
        <ele>4984.2</ele>
        <time>2022-10-26T02:49:42.000Z</time>
      </trkpt>
      <trkpt lat="27.955421" lon="86.816115">
        <ele>4984.2</ele>
        <time>2022-10-26T02:49:45.000Z</time>
      </trkpt>
      <trkpt lat="27.95544" lon="86.816122">
        <ele>4984.2</ele>
        <time>2022-10-26T02:49:48.000Z</time>
      </trkpt>
      <trkpt lat="27.955453" lon="86.816141">
        <ele>4984.4</ele>
        <time>2022-10-26T02:49:51.000Z</time>
      </trkpt>
      <trkpt lat="27.955475" lon="86.816147">
        <ele>4984.6</ele>
        <time>2022-10-26T02:49:55.000Z</time>
      </trkpt>
      <trkpt lat="27.955494" lon="86.816147">
        <ele>4984.6</ele>
        <time>2022-10-26T02:49:58.000Z</time>
      </trkpt>
      <trkpt lat="27.95552" lon="86.816154">
        <ele>4985</ele>
        <time>2022-10-26T02:50:02.000Z</time>
      </trkpt>
      <trkpt lat="27.955542" lon="86.816173">
        <ele>4985.2</ele>
        <time>2022-10-26T02:50:07.000Z</time>
      </trkpt>
      <trkpt lat="27.955562" lon="86.816173">
        <ele>4985.2</ele>
        <time>2022-10-26T02:50:10.000Z</time>
      </trkpt>
      <trkpt lat="27.955581" lon="86.816173">
        <ele>4985.8</ele>
        <time>2022-10-26T02:50:13.000Z</time>
      </trkpt>
      <trkpt lat="27.955603" lon="86.816179">
        <ele>4985.8</ele>
        <time>2022-10-26T02:50:16.000Z</time>
      </trkpt>
      <trkpt lat="27.955626" lon="86.816186">
        <ele>4985.6</ele>
        <time>2022-10-26T02:50:19.000Z</time>
      </trkpt>
      <trkpt lat="27.955642" lon="86.816198">
        <ele>4985.8</ele>
        <time>2022-10-26T02:50:22.000Z</time>
      </trkpt>
      <trkpt lat="27.955651" lon="86.816218">
        <ele>4985.6</ele>
        <time>2022-10-26T02:50:24.000Z</time>
      </trkpt>
      <trkpt lat="27.955677" lon="86.81623">
        <ele>4985.8</ele>
        <time>2022-10-26T02:50:28.000Z</time>
      </trkpt>
      <trkpt lat="27.955696" lon="86.816237">
        <ele>4985.8</ele>
        <time>2022-10-26T02:50:31.000Z</time>
      </trkpt>
      <trkpt lat="27.955718" lon="86.81623">
        <ele>4985.6</ele>
        <time>2022-10-26T02:50:34.000Z</time>
      </trkpt>
      <trkpt lat="27.955741" lon="86.816256">
        <ele>4986.2</ele>
        <time>2022-10-26T02:58:20.000Z</time>
      </trkpt>
      <trkpt lat="27.955757" lon="86.816269">
        <ele>4986.2</ele>
        <time>2022-10-26T02:58:21.000Z</time>
      </trkpt>
      <trkpt lat="27.955779" lon="86.816282">
        <ele>4986.6</ele>
        <time>2022-10-26T02:58:23.000Z</time>
      </trkpt>
      <trkpt lat="27.955802" lon="86.816301">
        <ele>4986.8</ele>
        <time>2022-10-26T02:58:25.000Z</time>
      </trkpt>
      <trkpt lat="27.955827" lon="86.816314">
        <ele>4986.6</ele>
        <time>2022-10-26T02:58:27.000Z</time>
      </trkpt>
      <trkpt lat="27.955853" lon="86.816314">
        <ele>4986.6</ele>
        <time>2022-10-26T02:58:29.000Z</time>
      </trkpt>
      <trkpt lat="27.955875" lon="86.816314">
        <ele>4986.4</ele>
        <time>2022-10-26T02:58:32.000Z</time>
      </trkpt>
      <trkpt lat="27.955901" lon="86.816314">
        <ele>4986</ele>
        <time>2022-10-26T02:58:35.000Z</time>
      </trkpt>
      <trkpt lat="27.955926" lon="86.816314">
        <ele>4986.4</ele>
        <time>2022-10-26T02:58:38.000Z</time>
      </trkpt>
      <trkpt lat="27.955949" lon="86.81632">
        <ele>4986</ele>
        <time>2022-10-26T02:58:41.000Z</time>
      </trkpt>
      <trkpt lat="27.955971" lon="86.816333">
        <ele>4986</ele>
        <time>2022-10-26T02:58:44.000Z</time>
      </trkpt>
      <trkpt lat="27.955997" lon="86.816339">
        <ele>4986.4</ele>
        <time>2022-10-26T02:58:47.000Z</time>
      </trkpt>
      <trkpt lat="27.956019" lon="86.816352">
        <ele>4986.6</ele>
        <time>2022-10-26T02:58:50.000Z</time>
      </trkpt>
      <trkpt lat="27.956038" lon="86.816358">
        <ele>4986.8</ele>
        <time>2022-10-26T02:58:53.000Z</time>
      </trkpt>
      <trkpt lat="27.956058" lon="86.816371">
        <ele>4986.8</ele>
        <time>2022-10-26T02:58:55.000Z</time>
      </trkpt>
      <trkpt lat="27.95608" lon="86.816378">
        <ele>4986.8</ele>
        <time>2022-10-26T02:58:58.000Z</time>
      </trkpt>
      <trkpt lat="27.956102" lon="86.816384">
        <ele>4986.8</ele>
        <time>2022-10-26T02:59:01.000Z</time>
      </trkpt>
      <trkpt lat="27.956125" lon="86.81639">
        <ele>4986.6</ele>
        <time>2022-10-26T02:59:04.000Z</time>
      </trkpt>
      <trkpt lat="27.956147" lon="86.816403">
        <ele>4987.2</ele>
        <time>2022-10-26T02:59:07.000Z</time>
      </trkpt>
      <trkpt lat="27.956166" lon="86.816422">
        <ele>4987.2</ele>
        <time>2022-10-26T02:59:10.000Z</time>
      </trkpt>
      <trkpt lat="27.956182" lon="86.816435">
        <ele>4987.2</ele>
        <time>2022-10-26T02:59:13.000Z</time>
      </trkpt>
      <trkpt lat="27.956195" lon="86.816454">
        <ele>4987.4</ele>
        <time>2022-10-26T02:59:15.000Z</time>
      </trkpt>
      <trkpt lat="27.956214" lon="86.816461">
        <ele>4987.8</ele>
        <time>2022-10-26T02:59:18.000Z</time>
      </trkpt>
      <trkpt lat="27.956237" lon="86.816474">
        <ele>4988.2</ele>
        <time>2022-10-26T02:59:21.000Z</time>
      </trkpt>
      <trkpt lat="27.956246" lon="86.816493">
        <ele>4988.2</ele>
        <time>2022-10-26T02:59:23.000Z</time>
      </trkpt>
      <trkpt lat="27.956262" lon="86.816506">
        <ele>4988.2</ele>
        <time>2022-10-26T02:59:26.000Z</time>
      </trkpt>
      <trkpt lat="27.956282" lon="86.816512">
        <ele>4988.2</ele>
        <time>2022-10-26T02:59:29.000Z</time>
      </trkpt>
      <trkpt lat="27.956301" lon="86.816531">
        <ele>4988.2</ele>
        <time>2022-10-26T02:59:32.000Z</time>
      </trkpt>
      <trkpt lat="27.95632" lon="86.816544">
        <ele>4988.2</ele>
        <time>2022-10-26T02:59:35.000Z</time>
      </trkpt>
      <trkpt lat="27.956339" lon="86.816557">
        <ele>4988.6</ele>
        <time>2022-10-26T02:59:38.000Z</time>
      </trkpt>
      <trkpt lat="27.956352" lon="86.816576">
        <ele>4988.8</ele>
        <time>2022-10-26T02:59:40.000Z</time>
      </trkpt>
      <trkpt lat="27.956371" lon="86.816589">
        <ele>4989.2</ele>
        <time>2022-10-26T02:59:44.000Z</time>
      </trkpt>
      <trkpt lat="27.956394" lon="86.816602">
        <ele>4988.8</ele>
        <time>2022-10-26T02:59:47.000Z</time>
      </trkpt>
      <trkpt lat="27.956413" lon="86.816621">
        <ele>4989.4</ele>
        <time>2022-10-26T02:59:50.000Z</time>
      </trkpt>
      <trkpt lat="27.956435" lon="86.816627">
        <ele>4989.4</ele>
        <time>2022-10-26T02:59:53.000Z</time>
      </trkpt>
      <trkpt lat="27.956458" lon="86.81664">
        <ele>4989.6</ele>
        <time>2022-10-26T02:59:57.000Z</time>
      </trkpt>
      <trkpt lat="27.956477" lon="86.816659">
        <ele>4989.4</ele>
        <time>2022-10-26T03:00:00.000Z</time>
      </trkpt>
      <trkpt lat="27.956496" lon="86.816666">
        <ele>4989.6</ele>
        <time>2022-10-26T03:00:03.000Z</time>
      </trkpt>
      <trkpt lat="27.956515" lon="86.816672">
        <ele>4989.6</ele>
        <time>2022-10-26T03:00:06.000Z</time>
      </trkpt>
      <trkpt lat="27.956528" lon="86.816691">
        <ele>4990</ele>
        <time>2022-10-26T03:00:08.000Z</time>
      </trkpt>
      <trkpt lat="27.956554" lon="86.816698">
        <ele>4990</ele>
        <time>2022-10-26T03:00:11.000Z</time>
      </trkpt>
      <trkpt lat="27.956576" lon="86.816704">
        <ele>4990.2</ele>
        <time>2022-10-26T03:00:14.000Z</time>
      </trkpt>
      <trkpt lat="27.956595" lon="86.816717">
        <ele>4990.2</ele>
        <time>2022-10-26T03:00:17.000Z</time>
      </trkpt>
      <trkpt lat="27.956618" lon="86.816736">
        <ele>4990.4</ele>
        <time>2022-10-26T03:00:20.000Z</time>
      </trkpt>
      <trkpt lat="27.956637" lon="86.816736">
        <ele>4990.4</ele>
        <time>2022-10-26T03:00:23.000Z</time>
      </trkpt>
      <trkpt lat="27.956656" lon="86.816742">
        <ele>4990.8</ele>
        <time>2022-10-26T03:00:26.000Z</time>
      </trkpt>
      <trkpt lat="27.956675" lon="86.816755">
        <ele>4991</ele>
        <time>2022-10-26T03:00:29.000Z</time>
      </trkpt>
      <trkpt lat="27.956691" lon="86.816768">
        <ele>4991</ele>
        <time>2022-10-26T03:00:32.000Z</time>
      </trkpt>
      <trkpt lat="27.95671" lon="86.816787">
        <ele>4991</ele>
        <time>2022-10-26T03:00:35.000Z</time>
      </trkpt>
      <trkpt lat="27.956733" lon="86.816794">
        <ele>4991</ele>
        <time>2022-10-26T03:00:38.000Z</time>
      </trkpt>
      <trkpt lat="27.956755" lon="86.8168">
        <ele>4991.4</ele>
        <time>2022-10-26T03:00:41.000Z</time>
      </trkpt>
      <trkpt lat="27.956771" lon="86.816813">
        <ele>4991.4</ele>
        <time>2022-10-26T03:00:44.000Z</time>
      </trkpt>
      <trkpt lat="27.95679" lon="86.816826">
        <ele>4991.6</ele>
        <time>2022-10-26T03:00:47.000Z</time>
      </trkpt>
      <trkpt lat="27.95681" lon="86.816838">
        <ele>4991.6</ele>
        <time>2022-10-26T03:00:50.000Z</time>
      </trkpt>
      <trkpt lat="27.956829" lon="86.816851">
        <ele>4991.8</ele>
        <time>2022-10-26T03:00:54.000Z</time>
      </trkpt>
      <trkpt lat="27.956851" lon="86.816858">
        <ele>4992.2</ele>
        <time>2022-10-26T03:00:57.000Z</time>
      </trkpt>
      <trkpt lat="27.95687" lon="86.816858">
        <ele>4992.2</ele>
        <time>2022-10-26T03:01:00.000Z</time>
      </trkpt>
      <trkpt lat="27.956893" lon="86.816864">
        <ele>4992.4</ele>
        <time>2022-10-26T03:01:03.000Z</time>
      </trkpt>
      <trkpt lat="27.956915" lon="86.816864">
        <ele>4992.6</ele>
        <time>2022-10-26T03:01:07.000Z</time>
      </trkpt>
      <trkpt lat="27.956934" lon="86.816864">
        <ele>4992.6</ele>
        <time>2022-10-26T03:01:10.000Z</time>
      </trkpt>
      <trkpt lat="27.956954" lon="86.816858">
        <ele>4993</ele>
        <time>2022-10-26T03:01:14.000Z</time>
      </trkpt>
      <trkpt lat="27.956973" lon="86.816858">
        <ele>4993.4</ele>
        <time>2022-10-26T03:01:17.000Z</time>
      </trkpt>
      <trkpt lat="27.956982" lon="86.816877">
        <ele>4993.8</ele>
        <time>2022-10-26T03:01:21.000Z</time>
      </trkpt>
      <trkpt lat="27.956989" lon="86.816896">
        <ele>4993.8</ele>
        <time>2022-10-26T03:01:23.000Z</time>
      </trkpt>
      <trkpt lat="27.956986" lon="86.816928">
        <ele>4994.4</ele>
        <time>2022-10-26T03:01:27.000Z</time>
      </trkpt>
      <trkpt lat="27.956979" lon="86.816947">
        <ele>4994.6</ele>
        <time>2022-10-26T03:01:31.000Z</time>
      </trkpt>
      <trkpt lat="27.956992" lon="86.816973">
        <ele>4994.6</ele>
        <time>2022-10-26T03:01:35.000Z</time>
      </trkpt>
      <trkpt lat="27.956998" lon="86.816992">
        <ele>4994.8</ele>
        <time>2022-10-26T03:01:39.000Z</time>
      </trkpt>
      <trkpt lat="27.957005" lon="86.817018">
        <ele>4995.2</ele>
        <time>2022-10-26T03:01:43.000Z</time>
      </trkpt>
      <trkpt lat="27.957024" lon="86.81703">
        <ele>4995.8</ele>
        <time>2022-10-26T03:01:49.000Z</time>
      </trkpt>
      <trkpt lat="27.957043" lon="86.817037">
        <ele>4995.8</ele>
        <time>2022-10-26T03:01:52.000Z</time>
      </trkpt>
      <trkpt lat="27.957059" lon="86.81705">
        <ele>4996.2</ele>
        <time>2022-10-26T03:01:55.000Z</time>
      </trkpt>
      <trkpt lat="27.957078" lon="86.81705">
        <ele>4996.2</ele>
        <time>2022-10-26T03:01:58.000Z</time>
      </trkpt>
      <trkpt lat="27.957094" lon="86.817037">
        <ele>4996.8</ele>
        <time>2022-10-26T03:02:03.000Z</time>
      </trkpt>
      <trkpt lat="27.95711" lon="86.817024">
        <ele>4996.6</ele>
        <time>2022-10-26T03:02:08.000Z</time>
      </trkpt>
      <trkpt lat="27.957133" lon="86.817011">
        <ele>4997.2</ele>
        <time>2022-10-26T03:02:13.000Z</time>
      </trkpt>
      <trkpt lat="27.957149" lon="86.816998">
        <ele>4997.4</ele>
        <time>2022-10-26T03:02:17.000Z</time>
      </trkpt>
      <trkpt lat="27.957171" lon="86.816992">
        <ele>4998</ele>
        <time>2022-10-26T03:02:22.000Z</time>
      </trkpt>
      <trkpt lat="27.957194" lon="86.816986">
        <ele>4998.2</ele>
        <time>2022-10-26T03:02:26.000Z</time>
      </trkpt>
      <trkpt lat="27.95721" lon="86.816998">
        <ele>4998.6</ele>
        <time>2022-10-26T03:02:29.000Z</time>
      </trkpt>
      <trkpt lat="27.957222" lon="86.817018">
        <ele>4998.2</ele>
        <time>2022-10-26T03:02:32.000Z</time>
      </trkpt>
      <trkpt lat="27.957238" lon="86.81703">
        <ele>4998.6</ele>
        <time>2022-10-26T03:02:35.000Z</time>
      </trkpt>
      <trkpt lat="27.957261" lon="86.817037">
        <ele>4998.6</ele>
        <time>2022-10-26T03:02:39.000Z</time>
      </trkpt>
      <trkpt lat="27.95728" lon="86.81705">
        <ele>4998.6</ele>
        <time>2022-10-26T03:02:42.000Z</time>
      </trkpt>
      <trkpt lat="27.957299" lon="86.81705">
        <ele>4998.8</ele>
        <time>2022-10-26T03:02:46.000Z</time>
      </trkpt>
      <trkpt lat="27.957318" lon="86.817056">
        <ele>4998.8</ele>
        <time>2022-10-26T03:02:49.000Z</time>
      </trkpt>
      <trkpt lat="27.957341" lon="86.817062">
        <ele>4998.6</ele>
        <time>2022-10-26T03:02:53.000Z</time>
      </trkpt>
      <trkpt lat="27.957357" lon="86.817075">
        <ele>4999.2</ele>
        <time>2022-10-26T03:02:57.000Z</time>
      </trkpt>
      <trkpt lat="27.957363" lon="86.817094">
        <ele>4998.6</ele>
        <time>2022-10-26T03:03:01.000Z</time>
      </trkpt>
      <trkpt lat="27.957382" lon="86.817107">
        <ele>4998.4</ele>
        <time>2022-10-26T03:03:15.000Z</time>
      </trkpt>
      <trkpt lat="27.957395" lon="86.817126">
        <ele>4998.4</ele>
        <time>2022-10-26T03:03:17.000Z</time>
      </trkpt>
      <trkpt lat="27.957418" lon="86.817139">
        <ele>4998</ele>
        <time>2022-10-26T03:03:20.000Z</time>
      </trkpt>
      <trkpt lat="27.95744" lon="86.817146">
        <ele>4998.4</ele>
        <time>2022-10-26T03:03:23.000Z</time>
      </trkpt>
      <trkpt lat="27.957466" lon="86.817146">
        <ele>4998.6</ele>
        <time>2022-10-26T03:03:26.000Z</time>
      </trkpt>
      <trkpt lat="27.957485" lon="86.817152">
        <ele>4998.4</ele>
        <time>2022-10-26T03:03:29.000Z</time>
      </trkpt>
      <trkpt lat="27.957504" lon="86.817171">
        <ele>4998.6</ele>
        <time>2022-10-26T03:03:33.000Z</time>
      </trkpt>
      <trkpt lat="27.957526" lon="86.817178">
        <ele>4999</ele>
        <time>2022-10-26T03:03:37.000Z</time>
      </trkpt>
      <trkpt lat="27.957549" lon="86.817184">
        <ele>4999.2</ele>
        <time>2022-10-26T03:03:40.000Z</time>
      </trkpt>
      <trkpt lat="27.957571" lon="86.81719">
        <ele>4999.4</ele>
        <time>2022-10-26T03:03:43.000Z</time>
      </trkpt>
      <trkpt lat="27.957597" lon="86.81719">
        <ele>4999.4</ele>
        <time>2022-10-26T03:03:47.000Z</time>
      </trkpt>
      <trkpt lat="27.957619" lon="86.81719">
        <ele>4999.2</ele>
        <time>2022-10-26T03:03:50.000Z</time>
      </trkpt>
      <trkpt lat="27.957645" lon="86.817184">
        <ele>4999.4</ele>
        <time>2022-10-26T03:03:54.000Z</time>
      </trkpt>
      <trkpt lat="27.957664" lon="86.817178">
        <ele>4999.2</ele>
        <time>2022-10-26T03:03:57.000Z</time>
      </trkpt>
      <trkpt lat="27.95769" lon="86.817184">
        <ele>4999.4</ele>
        <time>2022-10-26T03:04:00.000Z</time>
      </trkpt>
      <trkpt lat="27.957709" lon="86.81719">
        <ele>4999.4</ele>
        <time>2022-10-26T03:04:03.000Z</time>
      </trkpt>
      <trkpt lat="27.957728" lon="86.817197">
        <ele>4999.8</ele>
        <time>2022-10-26T03:04:06.000Z</time>
      </trkpt>
      <trkpt lat="27.957744" lon="86.81721">
        <ele>4999.4</ele>
        <time>2022-10-26T03:04:08.000Z</time>
      </trkpt>
      <trkpt lat="27.957763" lon="86.817216">
        <ele>4999.4</ele>
        <time>2022-10-26T03:04:10.000Z</time>
      </trkpt>
      <trkpt lat="27.957782" lon="86.817216">
        <ele>4999.8</ele>
        <time>2022-10-26T03:04:12.000Z</time>
      </trkpt>
      <trkpt lat="27.957808" lon="86.817229">
        <ele>5000</ele>
        <time>2022-10-26T03:04:17.000Z</time>
      </trkpt>
      <trkpt lat="27.957834" lon="86.817235">
        <ele>5000</ele>
        <time>2022-10-26T03:04:20.000Z</time>
      </trkpt>
      <trkpt lat="27.957853" lon="86.817248">
        <ele>5000.4</ele>
        <time>2022-10-26T03:04:23.000Z</time>
      </trkpt>
      <trkpt lat="27.957875" lon="86.817254">
        <ele>5000</ele>
        <time>2022-10-26T03:04:26.000Z</time>
      </trkpt>
      <trkpt lat="27.957898" lon="86.817267">
        <ele>5000.4</ele>
        <time>2022-10-26T03:04:30.000Z</time>
      </trkpt>
      <trkpt lat="27.957917" lon="86.817267">
        <ele>5000.4</ele>
        <time>2022-10-26T03:04:33.000Z</time>
      </trkpt>
      <trkpt lat="27.957936" lon="86.817274">
        <ele>5000.4</ele>
        <time>2022-10-26T03:04:35.000Z</time>
      </trkpt>
      <trkpt lat="27.957955" lon="86.817286">
        <ele>5000.4</ele>
        <time>2022-10-26T03:04:38.000Z</time>
      </trkpt>
      <trkpt lat="27.957974" lon="86.817293">
        <ele>5000.4</ele>
        <time>2022-10-26T03:04:41.000Z</time>
      </trkpt>
      <trkpt lat="27.957994" lon="86.817293">
        <ele>5000.6</ele>
        <time>2022-10-26T03:04:44.000Z</time>
      </trkpt>
      <trkpt lat="27.958016" lon="86.817293">
        <ele>5000.4</ele>
        <time>2022-10-26T03:04:47.000Z</time>
      </trkpt>
      <trkpt lat="27.958035" lon="86.817293">
        <ele>5000.6</ele>
        <time>2022-10-26T03:04:49.000Z</time>
      </trkpt>
      <trkpt lat="27.958058" lon="86.817299">
        <ele>5000.6</ele>
        <time>2022-10-26T03:04:52.000Z</time>
      </trkpt>
      <trkpt lat="27.95808" lon="86.817306">
        <ele>5000.6</ele>
        <time>2022-10-26T03:04:55.000Z</time>
      </trkpt>
      <trkpt lat="27.958102" lon="86.817325">
        <ele>5001</ele>
        <time>2022-10-26T03:04:58.000Z</time>
      </trkpt>
      <trkpt lat="27.958141" lon="86.817325">
        <ele>5001</ele>
        <time>2022-10-26T03:05:03.000Z</time>
      </trkpt>
      <trkpt lat="27.958163" lon="86.817338">
        <ele>5001</ele>
        <time>2022-10-26T03:05:06.000Z</time>
      </trkpt>
      <trkpt lat="27.958182" lon="86.817344">
        <ele>5001.2</ele>
        <time>2022-10-26T03:05:09.000Z</time>
      </trkpt>
      <trkpt lat="27.958205" lon="86.817344">
        <ele>5001.2</ele>
        <time>2022-10-26T03:05:12.000Z</time>
      </trkpt>
      <trkpt lat="27.958224" lon="86.817357">
        <ele>5001.2</ele>
        <time>2022-10-26T03:05:15.000Z</time>
      </trkpt>
      <trkpt lat="27.958243" lon="86.81737">
        <ele>5001.2</ele>
        <time>2022-10-26T03:05:18.000Z</time>
      </trkpt>
      <trkpt lat="27.958262" lon="86.817382">
        <ele>5001.4</ele>
        <time>2022-10-26T03:05:21.000Z</time>
      </trkpt>
      <trkpt lat="27.958282" lon="86.817395">
        <ele>5001.4</ele>
        <time>2022-10-26T03:05:25.000Z</time>
      </trkpt>
      <trkpt lat="27.958301" lon="86.817408">
        <ele>5001.8</ele>
        <time>2022-10-26T03:06:11.000Z</time>
      </trkpt>
      <trkpt lat="27.958323" lon="86.817427">
        <ele>5001.8</ele>
        <time>2022-10-26T03:06:13.000Z</time>
      </trkpt>
      <trkpt lat="27.958333" lon="86.817446">
        <ele>5001.8</ele>
        <time>2022-10-26T03:06:14.000Z</time>
      </trkpt>
      <trkpt lat="27.958352" lon="86.817466">
        <ele>5001.8</ele>
        <time>2022-10-26T03:06:16.000Z</time>
      </trkpt>
      <trkpt lat="27.958374" lon="86.817485">
        <ele>5001.8</ele>
        <time>2022-10-26T03:06:18.000Z</time>
      </trkpt>
      <trkpt lat="27.95839" lon="86.817504">
        <ele>5002</ele>
        <time>2022-10-26T03:06:20.000Z</time>
      </trkpt>
      <trkpt lat="27.9584" lon="86.817523">
        <ele>5002.6</ele>
        <time>2022-10-26T03:06:23.000Z</time>
      </trkpt>
      <trkpt lat="27.958416" lon="86.817542">
        <ele>5003.2</ele>
        <time>2022-10-26T03:06:29.000Z</time>
      </trkpt>
      <trkpt lat="27.958432" lon="86.817568">
        <ele>5002.2</ele>
        <time>2022-10-26T03:06:32.000Z</time>
      </trkpt>
      <trkpt lat="27.958451" lon="86.817581">
        <ele>5002.4</ele>
        <time>2022-10-26T03:08:24.000Z</time>
      </trkpt>
      <trkpt lat="27.958486" lon="86.817606">
        <ele>5002.6</ele>
        <time>2022-10-26T03:08:33.000Z</time>
      </trkpt>
      <trkpt lat="27.95847" lon="86.817594">
        <ele>5002.2</ele>
        <time>2022-10-26T03:08:36.000Z</time>
      </trkpt>
      <trkpt lat="27.958448" lon="86.817581">
        <ele>5001.6</ele>
        <time>2022-10-26T03:08:38.000Z</time>
      </trkpt>
      <trkpt lat="27.95848" lon="86.817594">
        <ele>5002.2</ele>
        <time>2022-10-26T03:10:04.000Z</time>
      </trkpt>
      <trkpt lat="27.958506" lon="86.817606">
        <ele>5002.2</ele>
        <time>2022-10-26T03:10:06.000Z</time>
      </trkpt>
      <trkpt lat="27.958528" lon="86.817619">
        <ele>5002.4</ele>
        <time>2022-10-26T03:10:08.000Z</time>
      </trkpt>
      <trkpt lat="27.958547" lon="86.817626">
        <ele>5002.4</ele>
        <time>2022-10-26T03:10:09.000Z</time>
      </trkpt>
      <trkpt lat="27.95857" lon="86.817632">
        <ele>5002.4</ele>
        <time>2022-10-26T03:10:11.000Z</time>
      </trkpt>
      <trkpt lat="27.958592" lon="86.817645">
        <ele>5003</ele>
        <time>2022-10-26T03:10:14.000Z</time>
      </trkpt>
      <trkpt lat="27.958614" lon="86.817651">
        <ele>5003</ele>
        <time>2022-10-26T03:10:17.000Z</time>
      </trkpt>
      <trkpt lat="27.95864" lon="86.817658">
        <ele>5002.8</ele>
        <time>2022-10-26T03:10:20.000Z</time>
      </trkpt>
      <trkpt lat="27.958666" lon="86.817664">
        <ele>5002.4</ele>
        <time>2022-10-26T03:10:23.000Z</time>
      </trkpt>
      <trkpt lat="27.958688" lon="86.817683">
        <ele>5002.8</ele>
        <time>2022-10-26T03:10:26.000Z</time>
      </trkpt>
      <trkpt lat="27.958707" lon="86.81769">
        <ele>5002.8</ele>
        <time>2022-10-26T03:10:28.000Z</time>
      </trkpt>
      <trkpt lat="27.95873" lon="86.817696">
        <ele>5003.6</ele>
        <time>2022-10-26T03:10:31.000Z</time>
      </trkpt>
      <trkpt lat="27.958752" lon="86.817696">
        <ele>5003.6</ele>
        <time>2022-10-26T03:10:34.000Z</time>
      </trkpt>
      <trkpt lat="27.958771" lon="86.817696">
        <ele>5003.2</ele>
        <time>2022-10-26T03:10:36.000Z</time>
      </trkpt>
      <trkpt lat="27.95879" lon="86.817702">
        <ele>5003.2</ele>
        <time>2022-10-26T03:10:39.000Z</time>
      </trkpt>
      <trkpt lat="27.95881" lon="86.817702">
        <ele>5003.6</ele>
        <time>2022-10-26T03:10:42.000Z</time>
      </trkpt>
      <trkpt lat="27.958835" lon="86.817702">
        <ele>5003.8</ele>
        <time>2022-10-26T03:10:45.000Z</time>
      </trkpt>
      <trkpt lat="27.958861" lon="86.817696">
        <ele>5003.8</ele>
        <time>2022-10-26T03:10:48.000Z</time>
      </trkpt>
      <trkpt lat="27.958886" lon="86.817702">
        <ele>5003.8</ele>
        <time>2022-10-26T03:10:51.000Z</time>
      </trkpt>
      <trkpt lat="27.958909" lon="86.817702">
        <ele>5003.8</ele>
        <time>2022-10-26T03:10:54.000Z</time>
      </trkpt>
      <trkpt lat="27.958928" lon="86.817709">
        <ele>5004</ele>
        <time>2022-10-26T03:10:56.000Z</time>
      </trkpt>
      <trkpt lat="27.958944" lon="86.817722">
        <ele>5004</ele>
        <time>2022-10-26T03:10:58.000Z</time>
      </trkpt>
      <trkpt lat="27.95897" lon="86.817728">
        <ele>5004.2</ele>
        <time>2022-10-26T03:11:02.000Z</time>
      </trkpt>
      <trkpt lat="27.958992" lon="86.817734">
        <ele>5004.2</ele>
        <time>2022-10-26T03:11:05.000Z</time>
      </trkpt>
      <trkpt lat="27.959014" lon="86.817741">
        <ele>5004.6</ele>
        <time>2022-10-26T03:11:08.000Z</time>
      </trkpt>
      <trkpt lat="27.959037" lon="86.817754">
        <ele>5005</ele>
        <time>2022-10-26T03:11:11.000Z</time>
      </trkpt>
      <trkpt lat="27.959059" lon="86.817766">
        <ele>5005.2</ele>
        <time>2022-10-26T03:11:14.000Z</time>
      </trkpt>
      <trkpt lat="27.959078" lon="86.817773">
        <ele>5005.2</ele>
        <time>2022-10-26T03:11:17.000Z</time>
      </trkpt>
      <trkpt lat="27.959094" lon="86.817792">
        <ele>5005.4</ele>
        <time>2022-10-26T03:11:20.000Z</time>
      </trkpt>
      <trkpt lat="27.959114" lon="86.817805">
        <ele>5005.8</ele>
        <time>2022-10-26T03:11:23.000Z</time>
      </trkpt>
      <trkpt lat="27.959136" lon="86.817805">
        <ele>5005.4</ele>
        <time>2022-10-26T03:11:26.000Z</time>
      </trkpt>
      <trkpt lat="27.959155" lon="86.817824">
        <ele>5006</ele>
        <time>2022-10-26T03:11:30.000Z</time>
      </trkpt>
      <trkpt lat="27.959168" lon="86.817843">
        <ele>5006</ele>
        <time>2022-10-26T03:11:33.000Z</time>
      </trkpt>
      <trkpt lat="27.959187" lon="86.81785">
        <ele>5006.4</ele>
        <time>2022-10-26T03:11:36.000Z</time>
      </trkpt>
      <trkpt lat="27.959206" lon="86.817856">
        <ele>5006.4</ele>
        <time>2022-10-26T03:11:39.000Z</time>
      </trkpt>
      <trkpt lat="27.959222" lon="86.817869">
        <ele>5006</ele>
        <time>2022-10-26T03:11:41.000Z</time>
      </trkpt>
      <trkpt lat="27.959235" lon="86.817888">
        <ele>5006</ele>
        <time>2022-10-26T03:11:43.000Z</time>
      </trkpt>
      <trkpt lat="27.959251" lon="86.817901">
        <ele>5007.2</ele>
        <time>2022-10-26T03:11:46.000Z</time>
      </trkpt>
      <trkpt lat="27.959274" lon="86.817901">
        <ele>5006.4</ele>
        <time>2022-10-26T03:11:50.000Z</time>
      </trkpt>
      <trkpt lat="27.959296" lon="86.817907">
        <ele>5007.2</ele>
        <time>2022-10-26T03:11:53.000Z</time>
      </trkpt>
      <trkpt lat="27.959312" lon="86.817926">
        <ele>5007.2</ele>
        <time>2022-10-26T03:11:56.000Z</time>
      </trkpt>
      <trkpt lat="27.959334" lon="86.817933">
        <ele>5007.6</ele>
        <time>2022-10-26T03:11:59.000Z</time>
      </trkpt>
      <trkpt lat="27.959354" lon="86.817946">
        <ele>5007.6</ele>
        <time>2022-10-26T03:12:02.000Z</time>
      </trkpt>
      <trkpt lat="27.959366" lon="86.817965">
        <ele>5008</ele>
        <time>2022-10-26T03:12:05.000Z</time>
      </trkpt>
      <trkpt lat="27.959386" lon="86.817978">
        <ele>5007.8</ele>
        <time>2022-10-26T03:12:08.000Z</time>
      </trkpt>
      <trkpt lat="27.959405" lon="86.817984">
        <ele>5008</ele>
        <time>2022-10-26T03:12:12.000Z</time>
      </trkpt>
      <trkpt lat="27.959427" lon="86.81799">
        <ele>5008</ele>
        <time>2022-10-26T03:12:15.000Z</time>
      </trkpt>
      <trkpt lat="27.959443" lon="86.818003">
        <ele>5008.4</ele>
        <time>2022-10-26T03:12:18.000Z</time>
      </trkpt>
      <trkpt lat="27.959462" lon="86.818016">
        <ele>5008.6</ele>
        <time>2022-10-26T03:12:21.000Z</time>
      </trkpt>
      <trkpt lat="27.959478" lon="86.818029">
        <ele>5008.6</ele>
        <time>2022-10-26T03:12:25.000Z</time>
      </trkpt>
      <trkpt lat="27.959498" lon="86.818042">
        <ele>5009</ele>
        <time>2022-10-26T03:12:28.000Z</time>
      </trkpt>
      <trkpt lat="27.95951" lon="86.818061">
        <ele>5009</ele>
        <time>2022-10-26T03:12:31.000Z</time>
      </trkpt>
      <trkpt lat="27.959523" lon="86.81808">
        <ele>5009</ele>
        <time>2022-10-26T03:12:34.000Z</time>
      </trkpt>
      <trkpt lat="27.959542" lon="86.818086">
        <ele>5009</ele>
        <time>2022-10-26T03:12:37.000Z</time>
      </trkpt>
      <trkpt lat="27.959565" lon="86.818086">
        <ele>5009.2</ele>
        <time>2022-10-26T03:12:40.000Z</time>
      </trkpt>
      <trkpt lat="27.959587" lon="86.818093">
        <ele>5009.6</ele>
        <time>2022-10-26T03:12:43.000Z</time>
      </trkpt>
      <trkpt lat="27.95961" lon="86.818106">
        <ele>5009.6</ele>
        <time>2022-10-26T03:12:47.000Z</time>
      </trkpt>
      <trkpt lat="27.959632" lon="86.818106">
        <ele>5009.6</ele>
        <time>2022-10-26T03:12:51.000Z</time>
      </trkpt>
      <trkpt lat="27.959651" lon="86.818125">
        <ele>5009.4</ele>
        <time>2022-10-26T03:12:54.000Z</time>
      </trkpt>
      <trkpt lat="27.95967" lon="86.818138">
        <ele>5009.6</ele>
        <time>2022-10-26T03:12:58.000Z</time>
      </trkpt>
      <trkpt lat="27.959686" lon="86.81815">
        <ele>5010.2</ele>
        <time>2022-10-26T03:13:01.000Z</time>
      </trkpt>
      <trkpt lat="27.959702" lon="86.818163">
        <ele>5010.2</ele>
        <time>2022-10-26T03:13:04.000Z</time>
      </trkpt>
      <trkpt lat="27.959722" lon="86.818182">
        <ele>5010.4</ele>
        <time>2022-10-26T03:13:08.000Z</time>
      </trkpt>
      <trkpt lat="27.959738" lon="86.818202">
        <ele>5010.4</ele>
        <time>2022-10-26T03:13:11.000Z</time>
      </trkpt>
      <trkpt lat="27.959757" lon="86.818202">
        <ele>5010.4</ele>
        <time>2022-10-26T03:13:14.000Z</time>
      </trkpt>
      <trkpt lat="27.959782" lon="86.818214">
        <ele>5010</ele>
        <time>2022-10-26T03:13:18.000Z</time>
      </trkpt>
      <trkpt lat="27.959802" lon="86.818221">
        <ele>5010.2</ele>
        <time>2022-10-26T03:13:21.000Z</time>
      </trkpt>
      <trkpt lat="27.959824" lon="86.818227">
        <ele>5010.2</ele>
        <time>2022-10-26T03:13:24.000Z</time>
      </trkpt>
      <trkpt lat="27.95983" lon="86.818246">
        <ele>5010.6</ele>
        <time>2022-10-26T03:13:26.000Z</time>
      </trkpt>
      <trkpt lat="27.959846" lon="86.818259">
        <ele>5010.6</ele>
        <time>2022-10-26T03:13:29.000Z</time>
      </trkpt>
      <trkpt lat="27.959869" lon="86.818259">
        <ele>5010.6</ele>
        <time>2022-10-26T03:13:33.000Z</time>
      </trkpt>
      <trkpt lat="27.959891" lon="86.818266">
        <ele>5010.6</ele>
        <time>2022-10-26T03:13:37.000Z</time>
      </trkpt>
      <trkpt lat="27.95991" lon="86.818285">
        <ele>5010.6</ele>
        <time>2022-10-26T03:13:40.000Z</time>
      </trkpt>
      <trkpt lat="27.95993" lon="86.818291">
        <ele>5010.6</ele>
        <time>2022-10-26T03:13:43.000Z</time>
      </trkpt>
      <trkpt lat="27.959952" lon="86.818291">
        <ele>5010.6</ele>
        <time>2022-10-26T03:13:47.000Z</time>
      </trkpt>
      <trkpt lat="27.959971" lon="86.818298">
        <ele>5010.8</ele>
        <time>2022-10-26T03:13:50.000Z</time>
      </trkpt>
      <trkpt lat="27.959994" lon="86.818304">
        <ele>5011.8</ele>
        <time>2022-10-26T03:13:54.000Z</time>
      </trkpt>
      <trkpt lat="27.960013" lon="86.818323">
        <ele>5010.8</ele>
        <time>2022-10-26T03:13:57.000Z</time>
      </trkpt>
      <trkpt lat="27.960035" lon="86.81833">
        <ele>5011</ele>
        <time>2022-10-26T03:14:00.000Z</time>
      </trkpt>
      <trkpt lat="27.960054" lon="86.818336">
        <ele>5011.4</ele>
        <time>2022-10-26T03:14:03.000Z</time>
      </trkpt>
      <trkpt lat="27.960074" lon="86.818349">
        <ele>5011</ele>
        <time>2022-10-26T03:14:06.000Z</time>
      </trkpt>
      <trkpt lat="27.96009" lon="86.818368">
        <ele>5010.4</ele>
        <time>2022-10-26T03:14:09.000Z</time>
      </trkpt>
      <trkpt lat="27.960109" lon="86.818381">
        <ele>5010.6</ele>
        <time>2022-10-26T03:14:13.000Z</time>
      </trkpt>
      <trkpt lat="27.960128" lon="86.8184">
        <ele>5011</ele>
        <time>2022-10-26T03:14:16.000Z</time>
      </trkpt>
      <trkpt lat="27.960147" lon="86.8184">
        <ele>5011</ele>
        <time>2022-10-26T03:14:19.000Z</time>
      </trkpt>
      <trkpt lat="27.96017" lon="86.818406">
        <ele>5010.6</ele>
        <time>2022-10-26T03:14:22.000Z</time>
      </trkpt>
      <trkpt lat="27.960189" lon="86.818419">
        <ele>5011</ele>
        <time>2022-10-26T03:14:25.000Z</time>
      </trkpt>
      <trkpt lat="27.960202" lon="86.818438">
        <ele>5011</ele>
        <time>2022-10-26T03:14:27.000Z</time>
      </trkpt>
      <trkpt lat="27.960218" lon="86.818458">
        <ele>5011</ele>
        <time>2022-10-26T03:14:30.000Z</time>
      </trkpt>
      <trkpt lat="27.960237" lon="86.818464">
        <ele>5011</ele>
        <time>2022-10-26T03:14:33.000Z</time>
      </trkpt>
      <trkpt lat="27.960259" lon="86.818477">
        <ele>5011</ele>
        <time>2022-10-26T03:14:36.000Z</time>
      </trkpt>
      <trkpt lat="27.960282" lon="86.818483">
        <ele>5011.2</ele>
        <time>2022-10-26T03:14:40.000Z</time>
      </trkpt>
      <trkpt lat="27.960298" lon="86.818496">
        <ele>5011.2</ele>
        <time>2022-10-26T03:14:43.000Z</time>
      </trkpt>
      <trkpt lat="27.960323" lon="86.818502">
        <ele>5011.2</ele>
        <time>2022-10-26T03:14:46.000Z</time>
      </trkpt>
      <trkpt lat="27.960339" lon="86.818522">
        <ele>5011.6</ele>
        <time>2022-10-26T03:14:49.000Z</time>
      </trkpt>
      <trkpt lat="27.960358" lon="86.818528">
        <ele>5011.8</ele>
        <time>2022-10-26T03:14:56.000Z</time>
      </trkpt>
      <trkpt lat="27.960381" lon="86.818534">
        <ele>5011.8</ele>
        <time>2022-10-26T03:14:59.000Z</time>
      </trkpt>
      <trkpt lat="27.960419" lon="86.818547">
        <ele>5011.8</ele>
        <time>2022-10-26T03:15:05.000Z</time>
      </trkpt>
      <trkpt lat="27.960438" lon="86.818547">
        <ele>5012.2</ele>
        <time>2022-10-26T03:15:08.000Z</time>
      </trkpt>
      <trkpt lat="27.960454" lon="86.81856">
        <ele>5012.2</ele>
        <time>2022-10-26T03:15:10.000Z</time>
      </trkpt>
      <trkpt lat="27.960477" lon="86.818566">
        <ele>5012.6</ele>
        <time>2022-10-26T03:15:13.000Z</time>
      </trkpt>
      <trkpt lat="27.960496" lon="86.818573">
        <ele>5012.6</ele>
        <time>2022-10-26T03:15:16.000Z</time>
      </trkpt>
      <trkpt lat="27.960518" lon="86.818573">
        <ele>5012.8</ele>
        <time>2022-10-26T03:15:19.000Z</time>
      </trkpt>
      <trkpt lat="27.960534" lon="86.818586">
        <ele>5012.8</ele>
        <time>2022-10-26T03:15:21.000Z</time>
      </trkpt>
      <trkpt lat="27.960554" lon="86.818598">
        <ele>5012.8</ele>
        <time>2022-10-26T03:15:24.000Z</time>
      </trkpt>
      <trkpt lat="27.960595" lon="86.818605">
        <ele>5013.2</ele>
        <time>2022-10-26T03:15:30.000Z</time>
      </trkpt>
      <trkpt lat="27.960618" lon="86.818618">
        <ele>5013</ele>
        <time>2022-10-26T03:15:34.000Z</time>
      </trkpt>
      <trkpt lat="27.960634" lon="86.818637">
        <ele>5013.4</ele>
        <time>2022-10-26T03:15:43.000Z</time>
      </trkpt>
      <trkpt lat="27.960653" lon="86.81865">
        <ele>5013.2</ele>
        <time>2022-10-26T03:16:27.000Z</time>
      </trkpt>
      <trkpt lat="27.960682" lon="86.818675">
        <ele>5013.4</ele>
        <time>2022-10-26T03:16:29.000Z</time>
      </trkpt>
      <trkpt lat="27.960707" lon="86.818688">
        <ele>5013.4</ele>
        <time>2022-10-26T03:16:31.000Z</time>
      </trkpt>
      <trkpt lat="27.960726" lon="86.818707">
        <ele>5013.6</ele>
        <time>2022-10-26T03:16:33.000Z</time>
      </trkpt>
      <trkpt lat="27.960752" lon="86.81872">
        <ele>5014</ele>
        <time>2022-10-26T03:16:35.000Z</time>
      </trkpt>
      <trkpt lat="27.960768" lon="86.818733">
        <ele>5014</ele>
        <time>2022-10-26T03:16:38.000Z</time>
      </trkpt>
      <trkpt lat="27.960787" lon="86.818739">
        <ele>5014.4</ele>
        <time>2022-10-26T03:16:41.000Z</time>
      </trkpt>
      <trkpt lat="27.9608" lon="86.818758">
        <ele>5014</ele>
        <time>2022-10-26T03:16:44.000Z</time>
      </trkpt>
      <trkpt lat="27.960816" lon="86.818778">
        <ele>5014.4</ele>
        <time>2022-10-26T03:16:47.000Z</time>
      </trkpt>
      <trkpt lat="27.960835" lon="86.818784">
        <ele>5014</ele>
        <time>2022-10-26T03:16:50.000Z</time>
      </trkpt>
      <trkpt lat="27.960851" lon="86.818803">
        <ele>5014</ele>
        <time>2022-10-26T03:16:52.000Z</time>
      </trkpt>
      <trkpt lat="27.960874" lon="86.818816">
        <ele>5014.4</ele>
        <time>2022-10-26T03:16:55.000Z</time>
      </trkpt>
      <trkpt lat="27.960893" lon="86.818822">
        <ele>5014.4</ele>
        <time>2022-10-26T03:16:58.000Z</time>
      </trkpt>
      <trkpt lat="27.960912" lon="86.818835">
        <ele>5014.4</ele>
        <time>2022-10-26T03:17:01.000Z</time>
      </trkpt>
      <trkpt lat="27.960931" lon="86.818848">
        <ele>5014.6</ele>
        <time>2022-10-26T03:17:04.000Z</time>
      </trkpt>
      <trkpt lat="27.96095" lon="86.818854">
        <ele>5015.2</ele>
        <time>2022-10-26T03:17:07.000Z</time>
      </trkpt>
      <trkpt lat="27.960966" lon="86.818874">
        <ele>5015.2</ele>
        <time>2022-10-26T03:17:09.000Z</time>
      </trkpt>
      <trkpt lat="27.960986" lon="86.81888">
        <ele>5015</ele>
        <time>2022-10-26T03:17:12.000Z</time>
      </trkpt>
      <trkpt lat="27.961005" lon="86.818893">
        <ele>5015</ele>
        <time>2022-10-26T03:17:14.000Z</time>
      </trkpt>
      <trkpt lat="27.96103" lon="86.818899">
        <ele>5015.6</ele>
        <time>2022-10-26T03:17:17.000Z</time>
      </trkpt>
      <trkpt lat="27.96105" lon="86.818906">
        <ele>5015.2</ele>
        <time>2022-10-26T03:17:20.000Z</time>
      </trkpt>
      <trkpt lat="27.961072" lon="86.818918">
        <ele>5015.2</ele>
        <time>2022-10-26T03:17:23.000Z</time>
      </trkpt>
      <trkpt lat="27.961091" lon="86.818918">
        <ele>5015.2</ele>
        <time>2022-10-26T03:17:25.000Z</time>
      </trkpt>
      <trkpt lat="27.96111" lon="86.818918">
        <ele>5015</ele>
        <time>2022-10-26T03:17:28.000Z</time>
      </trkpt>
      <trkpt lat="27.961136" lon="86.818918">
        <ele>5015</ele>
        <time>2022-10-26T03:17:31.000Z</time>
      </trkpt>
      <trkpt lat="27.961162" lon="86.818918">
        <ele>5015</ele>
        <time>2022-10-26T03:17:34.000Z</time>
      </trkpt>
      <trkpt lat="27.961184" lon="86.818918">
        <ele>5015.4</ele>
        <time>2022-10-26T03:17:37.000Z</time>
      </trkpt>
      <trkpt lat="27.961203" lon="86.818925">
        <ele>5015.6</ele>
        <time>2022-10-26T03:17:40.000Z</time>
      </trkpt>
      <trkpt lat="27.961226" lon="86.818925">
        <ele>5016</ele>
        <time>2022-10-26T03:17:43.000Z</time>
      </trkpt>
      <trkpt lat="27.961248" lon="86.818931">
        <ele>5016.4</ele>
        <time>2022-10-26T03:17:46.000Z</time>
      </trkpt>
      <trkpt lat="27.96127" lon="86.818931">
        <ele>5016</ele>
        <time>2022-10-26T03:17:49.000Z</time>
      </trkpt>
      <trkpt lat="27.96129" lon="86.818938">
        <ele>5015.6</ele>
        <time>2022-10-26T03:17:51.000Z</time>
      </trkpt>
      <trkpt lat="27.961312" lon="86.818944">
        <ele>5015.6</ele>
        <time>2022-10-26T03:17:54.000Z</time>
      </trkpt>
      <trkpt lat="27.961334" lon="86.818944">
        <ele>5015.8</ele>
        <time>2022-10-26T03:17:58.000Z</time>
      </trkpt>
      <trkpt lat="27.96135" lon="86.818957">
        <ele>5016</ele>
        <time>2022-10-26T03:18:01.000Z</time>
      </trkpt>
      <trkpt lat="27.96137" lon="86.818963">
        <ele>5016</ele>
        <time>2022-10-26T03:18:04.000Z</time>
      </trkpt>
      <trkpt lat="27.961389" lon="86.818976">
        <ele>5016</ele>
        <time>2022-10-26T03:18:07.000Z</time>
      </trkpt>
      <trkpt lat="27.961408" lon="86.818995">
        <ele>5016.6</ele>
        <time>2022-10-26T03:18:12.000Z</time>
      </trkpt>
      <trkpt lat="27.961421" lon="86.819014">
        <ele>5016.6</ele>
        <time>2022-10-26T03:18:17.000Z</time>
      </trkpt>
      <trkpt lat="27.96143" lon="86.819034">
        <ele>5016.8</ele>
        <time>2022-10-26T03:18:19.000Z</time>
      </trkpt>
      <trkpt lat="27.961453" lon="86.819046">
        <ele>5017</ele>
        <time>2022-10-26T03:18:23.000Z</time>
      </trkpt>
      <trkpt lat="27.961472" lon="86.819053">
        <ele>5017</ele>
        <time>2022-10-26T03:18:26.000Z</time>
      </trkpt>
      <trkpt lat="27.961491" lon="86.819059">
        <ele>5017.2</ele>
        <time>2022-10-26T03:18:29.000Z</time>
      </trkpt>
      <trkpt lat="27.961507" lon="86.819078">
        <ele>5017.2</ele>
        <time>2022-10-26T03:18:32.000Z</time>
      </trkpt>
      <trkpt lat="27.961526" lon="86.819085">
        <ele>5017.2</ele>
        <time>2022-10-26T03:18:35.000Z</time>
      </trkpt>
      <trkpt lat="27.961549" lon="86.819085">
        <ele>5017.4</ele>
        <time>2022-10-26T03:18:39.000Z</time>
      </trkpt>
      <trkpt lat="27.961568" lon="86.819091">
        <ele>5017.4</ele>
        <time>2022-10-26T03:18:41.000Z</time>
      </trkpt>
      <trkpt lat="27.961594" lon="86.819098">
        <ele>5017.6</ele>
        <time>2022-10-26T03:18:45.000Z</time>
      </trkpt>
      <trkpt lat="27.961613" lon="86.819104">
        <ele>5018</ele>
        <time>2022-10-26T03:18:49.000Z</time>
      </trkpt>
      <trkpt lat="27.961632" lon="86.819117">
        <ele>5018</ele>
        <time>2022-10-26T03:18:52.000Z</time>
      </trkpt>
      <trkpt lat="27.961651" lon="86.819123">
        <ele>5017.8</ele>
        <time>2022-10-26T03:18:55.000Z</time>
      </trkpt>
      <trkpt lat="27.961674" lon="86.819123">
        <ele>5018.4</ele>
        <time>2022-10-26T03:18:58.000Z</time>
      </trkpt>
      <trkpt lat="27.961696" lon="86.819123">
        <ele>5018.4</ele>
        <time>2022-10-26T03:19:01.000Z</time>
      </trkpt>
      <trkpt lat="27.961718" lon="86.819123">
        <ele>5018.4</ele>
        <time>2022-10-26T03:19:04.000Z</time>
      </trkpt>
      <trkpt lat="27.961744" lon="86.819123">
        <ele>5018.4</ele>
        <time>2022-10-26T03:19:07.000Z</time>
      </trkpt>
      <trkpt lat="27.961766" lon="86.81913">
        <ele>5018.6</ele>
        <time>2022-10-26T03:19:10.000Z</time>
      </trkpt>
      <trkpt lat="27.961786" lon="86.819142">
        <ele>5019.6</ele>
        <time>2022-10-26T03:19:13.000Z</time>
      </trkpt>
      <trkpt lat="27.961805" lon="86.819162">
        <ele>5019</ele>
        <time>2022-10-26T03:19:16.000Z</time>
      </trkpt>
      <trkpt lat="27.961824" lon="86.819162">
        <ele>5018.8</ele>
        <time>2022-10-26T03:19:20.000Z</time>
      </trkpt>
      <trkpt lat="27.961843" lon="86.819174">
        <ele>5019</ele>
        <time>2022-10-26T03:19:23.000Z</time>
      </trkpt>
      <trkpt lat="27.961859" lon="86.819194">
        <ele>5019</ele>
        <time>2022-10-26T03:19:26.000Z</time>
      </trkpt>
      <trkpt lat="27.961882" lon="86.8192">
        <ele>5019</ele>
        <time>2022-10-26T03:19:29.000Z</time>
      </trkpt>
      <trkpt lat="27.961904" lon="86.8192">
        <ele>5019</ele>
        <time>2022-10-26T03:19:32.000Z</time>
      </trkpt>
      <trkpt lat="27.961923" lon="86.8192">
        <ele>5019.4</ele>
        <time>2022-10-26T03:19:35.000Z</time>
      </trkpt>
      <trkpt lat="27.961949" lon="86.8192">
        <ele>5019.4</ele>
        <time>2022-10-26T03:19:40.000Z</time>
      </trkpt>
      <trkpt lat="27.961968" lon="86.8192">
        <ele>5019.6</ele>
        <time>2022-10-26T03:19:43.000Z</time>
      </trkpt>
      <trkpt lat="27.961978" lon="86.819181">
        <ele>5019.6</ele>
        <time>2022-10-26T03:19:46.000Z</time>
      </trkpt>
      <trkpt lat="27.961997" lon="86.819181">
        <ele>5020</ele>
        <time>2022-10-26T03:19:50.000Z</time>
      </trkpt>
      <trkpt lat="27.962016" lon="86.819194">
        <ele>5020</ele>
        <time>2022-10-26T03:19:53.000Z</time>
      </trkpt>
      <trkpt lat="27.962035" lon="86.819194">
        <ele>5020</ele>
        <time>2022-10-26T03:19:56.000Z</time>
      </trkpt>
      <trkpt lat="27.962051" lon="86.819206">
        <ele>5020.2</ele>
        <time>2022-10-26T03:19:59.000Z</time>
      </trkpt>
      <trkpt lat="27.962067" lon="86.819219">
        <ele>5020.4</ele>
        <time>2022-10-26T03:20:02.000Z</time>
      </trkpt>
      <trkpt lat="27.962077" lon="86.819238">
        <ele>5020.4</ele>
        <time>2022-10-26T03:20:04.000Z</time>
      </trkpt>
      <trkpt lat="27.962093" lon="86.819258">
        <ele>5019.8</ele>
        <time>2022-10-26T03:20:07.000Z</time>
      </trkpt>
      <trkpt lat="27.962112" lon="86.819277">
        <ele>5020</ele>
        <time>2022-10-26T03:20:10.000Z</time>
      </trkpt>
      <trkpt lat="27.962134" lon="86.819283">
        <ele>5020.2</ele>
        <time>2022-10-26T03:20:14.000Z</time>
      </trkpt>
      <trkpt lat="27.962154" lon="86.81929">
        <ele>5020.2</ele>
        <time>2022-10-26T03:20:17.000Z</time>
      </trkpt>
      <trkpt lat="27.962173" lon="86.819296">
        <ele>5020.2</ele>
        <time>2022-10-26T03:20:20.000Z</time>
      </trkpt>
      <trkpt lat="27.962192" lon="86.819302">
        <ele>5020.2</ele>
        <time>2022-10-26T03:20:23.000Z</time>
      </trkpt>
      <trkpt lat="27.962211" lon="86.819315">
        <ele>5020.2</ele>
        <time>2022-10-26T03:20:27.000Z</time>
      </trkpt>
      <trkpt lat="27.962234" lon="86.819315">
        <ele>5020.2</ele>
        <time>2022-10-26T03:20:30.000Z</time>
      </trkpt>
      <trkpt lat="27.962256" lon="86.819328">
        <ele>5020.6</ele>
        <time>2022-10-26T03:20:33.000Z</time>
      </trkpt>
      <trkpt lat="27.962275" lon="86.819341">
        <ele>5020.6</ele>
        <time>2022-10-26T03:20:37.000Z</time>
      </trkpt>
      <trkpt lat="27.962298" lon="86.819341">
        <ele>5020.8</ele>
        <time>2022-10-26T03:20:40.000Z</time>
      </trkpt>
      <trkpt lat="27.962317" lon="86.819341">
        <ele>5021.2</ele>
        <time>2022-10-26T03:20:43.000Z</time>
      </trkpt>
      <trkpt lat="27.962336" lon="86.819341">
        <ele>5021.4</ele>
        <time>2022-10-26T03:20:46.000Z</time>
      </trkpt>
      <trkpt lat="27.962355" lon="86.819341">
        <ele>5021.2</ele>
        <time>2022-10-26T03:20:49.000Z</time>
      </trkpt>
      <trkpt lat="27.962378" lon="86.819341">
        <ele>5021.2</ele>
        <time>2022-10-26T03:20:52.000Z</time>
      </trkpt>
      <trkpt lat="27.962403" lon="86.819341">
        <ele>5021.2</ele>
        <time>2022-10-26T03:20:56.000Z</time>
      </trkpt>
      <trkpt lat="27.962422" lon="86.819354">
        <ele>5021.2</ele>
        <time>2022-10-26T03:20:59.000Z</time>
      </trkpt>
      <trkpt lat="27.962445" lon="86.819354">
        <ele>5021.8</ele>
        <time>2022-10-26T03:21:03.000Z</time>
      </trkpt>
      <trkpt lat="27.962464" lon="86.81936">
        <ele>5022.4</ele>
        <time>2022-10-26T03:21:07.000Z</time>
      </trkpt>
      <trkpt lat="27.962483" lon="86.819366">
        <ele>5022</ele>
        <time>2022-10-26T03:21:11.000Z</time>
      </trkpt>
      <trkpt lat="27.962502" lon="86.819366">
        <ele>5022.2</ele>
        <time>2022-10-26T03:21:14.000Z</time>
      </trkpt>
      <trkpt lat="27.962518" lon="86.819379">
        <ele>5022.6</ele>
        <time>2022-10-26T03:21:17.000Z</time>
      </trkpt>
      <trkpt lat="27.962538" lon="86.819398">
        <ele>5023.2</ele>
        <time>2022-10-26T03:21:20.000Z</time>
      </trkpt>
      <trkpt lat="27.962557" lon="86.819405">
        <ele>5023.2</ele>
        <time>2022-10-26T03:21:23.000Z</time>
      </trkpt>
      <trkpt lat="27.962576" lon="86.819418">
        <ele>5023.2</ele>
        <time>2022-10-26T03:21:27.000Z</time>
      </trkpt>
      <trkpt lat="27.962595" lon="86.81943">
        <ele>5023.2</ele>
        <time>2022-10-26T03:21:30.000Z</time>
      </trkpt>
      <trkpt lat="27.962614" lon="86.81943">
        <ele>5023.4</ele>
        <time>2022-10-26T03:21:33.000Z</time>
      </trkpt>
      <trkpt lat="27.962634" lon="86.819437">
        <ele>5023.8</ele>
        <time>2022-10-26T03:21:36.000Z</time>
      </trkpt>
      <trkpt lat="27.962653" lon="86.819443">
        <ele>5023.8</ele>
        <time>2022-10-26T03:21:39.000Z</time>
      </trkpt>
      <trkpt lat="27.962675" lon="86.819437">
        <ele>5024</ele>
        <time>2022-10-26T03:21:42.000Z</time>
      </trkpt>
      <trkpt lat="27.962694" lon="86.819437">
        <ele>5024</ele>
        <time>2022-10-26T03:21:45.000Z</time>
      </trkpt>
      <trkpt lat="27.962714" lon="86.819437">
        <ele>5024.6</ele>
        <time>2022-10-26T03:21:49.000Z</time>
      </trkpt>
      <trkpt lat="27.962733" lon="86.819443">
        <ele>5025</ele>
        <time>2022-10-26T03:21:53.000Z</time>
      </trkpt>
      <trkpt lat="27.962752" lon="86.819456">
        <ele>5025</ele>
        <time>2022-10-26T03:21:56.000Z</time>
      </trkpt>
      <trkpt lat="27.962771" lon="86.819469">
        <ele>5024.6</ele>
        <time>2022-10-26T03:22:00.000Z</time>
      </trkpt>
      <trkpt lat="27.962797" lon="86.819475">
        <ele>5025</ele>
        <time>2022-10-26T03:22:04.000Z</time>
      </trkpt>
      <trkpt lat="27.962813" lon="86.819488">
        <ele>5025.6</ele>
        <time>2022-10-26T03:22:07.000Z</time>
      </trkpt>
      <trkpt lat="27.962832" lon="86.819494">
        <ele>5025.2</ele>
        <time>2022-10-26T03:22:10.000Z</time>
      </trkpt>
      <trkpt lat="27.962851" lon="86.819501">
        <ele>5025.6</ele>
        <time>2022-10-26T03:22:13.000Z</time>
      </trkpt>
      <trkpt lat="27.962867" lon="86.819514">
        <ele>5025.6</ele>
        <time>2022-10-26T03:22:15.000Z</time>
      </trkpt>
      <trkpt lat="27.962886" lon="86.81952">
        <ele>5025.6</ele>
        <time>2022-10-26T03:22:18.000Z</time>
      </trkpt>
      <trkpt lat="27.962909" lon="86.819514">
        <ele>5025.8</ele>
        <time>2022-10-26T03:22:24.000Z</time>
      </trkpt>
      <trkpt lat="27.962928" lon="86.819514">
        <ele>5026.4</ele>
        <time>2022-10-26T03:22:27.000Z</time>
      </trkpt>
      <trkpt lat="27.96295" lon="86.819526">
        <ele>5026.4</ele>
        <time>2022-10-26T03:22:31.000Z</time>
      </trkpt>
      <trkpt lat="27.962966" lon="86.819539">
        <ele>5026.8</ele>
        <time>2022-10-26T03:22:34.000Z</time>
      </trkpt>
      <trkpt lat="27.962986" lon="86.819558">
        <ele>5026.8</ele>
        <time>2022-10-26T03:22:37.000Z</time>
      </trkpt>
      <trkpt lat="27.963002" lon="86.819571">
        <ele>5027</ele>
        <time>2022-10-26T03:22:40.000Z</time>
      </trkpt>
      <trkpt lat="27.963021" lon="86.819578">
        <ele>5026.8</ele>
        <time>2022-10-26T03:22:43.000Z</time>
      </trkpt>
      <trkpt lat="27.963037" lon="86.81959">
        <ele>5026.8</ele>
        <time>2022-10-26T03:22:46.000Z</time>
      </trkpt>
      <trkpt lat="27.963056" lon="86.819597">
        <ele>5027.2</ele>
        <time>2022-10-26T03:22:50.000Z</time>
      </trkpt>
      <trkpt lat="27.963078" lon="86.819603">
        <ele>5027.4</ele>
        <time>2022-10-26T03:22:53.000Z</time>
      </trkpt>
      <trkpt lat="27.963098" lon="86.81961">
        <ele>5027.8</ele>
        <time>2022-10-26T03:22:56.000Z</time>
      </trkpt>
      <trkpt lat="27.96312" lon="86.819616">
        <ele>5028</ele>
        <time>2022-10-26T03:23:00.000Z</time>
      </trkpt>
      <trkpt lat="27.963139" lon="86.819635">
        <ele>5028.2</ele>
        <time>2022-10-26T03:23:03.000Z</time>
      </trkpt>
      <trkpt lat="27.963158" lon="86.819635">
        <ele>5028</ele>
        <time>2022-10-26T03:23:06.000Z</time>
      </trkpt>
      <trkpt lat="27.963178" lon="86.819648">
        <ele>5028.2</ele>
        <time>2022-10-26T03:23:09.000Z</time>
      </trkpt>
      <trkpt lat="27.963197" lon="86.819654">
        <ele>5028.6</ele>
        <time>2022-10-26T03:23:12.000Z</time>
      </trkpt>
      <trkpt lat="27.963216" lon="86.819667">
        <ele>5028.6</ele>
        <time>2022-10-26T03:23:15.000Z</time>
      </trkpt>
      <trkpt lat="27.963235" lon="86.819674">
        <ele>5028.6</ele>
        <time>2022-10-26T03:23:18.000Z</time>
      </trkpt>
      <trkpt lat="27.963254" lon="86.819686">
        <ele>5028.8</ele>
        <time>2022-10-26T03:23:21.000Z</time>
      </trkpt>
      <trkpt lat="27.963274" lon="86.819699">
        <ele>5028.8</ele>
        <time>2022-10-26T03:23:24.000Z</time>
      </trkpt>
      <trkpt lat="27.963293" lon="86.819712">
        <ele>5029.2</ele>
        <time>2022-10-26T03:23:27.000Z</time>
      </trkpt>
      <trkpt lat="27.963315" lon="86.819712">
        <ele>5028.8</ele>
        <time>2022-10-26T03:23:30.000Z</time>
      </trkpt>
      <trkpt lat="27.963334" lon="86.819725">
        <ele>5029.2</ele>
        <time>2022-10-26T03:23:34.000Z</time>
      </trkpt>
      <trkpt lat="27.96335" lon="86.819738">
        <ele>5029.4</ele>
        <time>2022-10-26T03:23:37.000Z</time>
      </trkpt>
      <trkpt lat="27.96336" lon="86.819757">
        <ele>5029.4</ele>
        <time>2022-10-26T03:23:39.000Z</time>
      </trkpt>
      <trkpt lat="27.963379" lon="86.819757">
        <ele>5029.4</ele>
        <time>2022-10-26T03:23:43.000Z</time>
      </trkpt>
      <trkpt lat="27.963395" lon="86.819776">
        <ele>5029.8</ele>
        <time>2022-10-26T03:23:46.000Z</time>
      </trkpt>
      <trkpt lat="27.963411" lon="86.819789">
        <ele>5029.4</ele>
        <time>2022-10-26T03:23:49.000Z</time>
      </trkpt>
      <trkpt lat="27.963434" lon="86.819795">
        <ele>5029.8</ele>
        <time>2022-10-26T03:23:52.000Z</time>
      </trkpt>
      <trkpt lat="27.963453" lon="86.819802">
        <ele>5030</ele>
        <time>2022-10-26T03:23:55.000Z</time>
      </trkpt>
      <trkpt lat="27.963475" lon="86.819808">
        <ele>5030.2</ele>
        <time>2022-10-26T03:23:59.000Z</time>
      </trkpt>
      <trkpt lat="27.963494" lon="86.819808">
        <ele>5030.2</ele>
        <time>2022-10-26T03:24:02.000Z</time>
      </trkpt>
      <trkpt lat="27.963514" lon="86.819814">
        <ele>5031.4</ele>
        <time>2022-10-26T03:24:05.000Z</time>
      </trkpt>
      <trkpt lat="27.963523" lon="86.819834">
        <ele>5031.2</ele>
        <time>2022-10-26T03:24:07.000Z</time>
      </trkpt>
      <trkpt lat="27.963542" lon="86.819834">
        <ele>5031.2</ele>
        <time>2022-10-26T03:24:11.000Z</time>
      </trkpt>
      <trkpt lat="27.963555" lon="86.819853">
        <ele>5032</ele>
        <time>2022-10-26T03:29:29.000Z</time>
      </trkpt>
      <trkpt lat="27.963574" lon="86.819878">
        <ele>5032.2</ele>
        <time>2022-10-26T03:29:31.000Z</time>
      </trkpt>
      <trkpt lat="27.963597" lon="86.819891">
        <ele>5032.2</ele>
        <time>2022-10-26T03:29:33.000Z</time>
      </trkpt>
      <trkpt lat="27.963622" lon="86.81991">
        <ele>5032.6</ele>
        <time>2022-10-26T03:29:35.000Z</time>
      </trkpt>
      <trkpt lat="27.963645" lon="86.81993">
        <ele>5032.6</ele>
        <time>2022-10-26T03:29:37.000Z</time>
      </trkpt>
      <trkpt lat="27.963667" lon="86.819949">
        <ele>5032.6</ele>
        <time>2022-10-26T03:29:41.000Z</time>
      </trkpt>
      <trkpt lat="27.96369" lon="86.819955">
        <ele>5032.4</ele>
        <time>2022-10-26T03:29:44.000Z</time>
      </trkpt>
      <trkpt lat="27.963712" lon="86.819962">
        <ele>5032.2</ele>
        <time>2022-10-26T03:29:47.000Z</time>
      </trkpt>
      <trkpt lat="27.963731" lon="86.819968">
        <ele>5033</ele>
        <time>2022-10-26T03:29:50.000Z</time>
      </trkpt>
      <trkpt lat="27.96375" lon="86.819987">
        <ele>5033</ele>
        <time>2022-10-26T03:29:53.000Z</time>
      </trkpt>
      <trkpt lat="27.96377" lon="86.82">
        <ele>5033.6</ele>
        <time>2022-10-26T03:29:57.000Z</time>
      </trkpt>
      <trkpt lat="27.963786" lon="86.820013">
        <ele>5033.6</ele>
        <time>2022-10-26T03:30:00.000Z</time>
      </trkpt>
      <trkpt lat="27.963802" lon="86.820032">
        <ele>5033.6</ele>
        <time>2022-10-26T03:30:03.000Z</time>
      </trkpt>
      <trkpt lat="27.963821" lon="86.820038">
        <ele>5033.6</ele>
        <time>2022-10-26T03:30:07.000Z</time>
      </trkpt>
      <trkpt lat="27.96384" lon="86.820032">
        <ele>5033.6</ele>
        <time>2022-10-26T03:30:10.000Z</time>
      </trkpt>
      <trkpt lat="27.963862" lon="86.820038">
        <ele>5034.2</ele>
        <time>2022-10-26T03:30:14.000Z</time>
      </trkpt>
      <trkpt lat="27.963875" lon="86.820058">
        <ele>5034.8</ele>
        <time>2022-10-26T03:30:18.000Z</time>
      </trkpt>
      <trkpt lat="27.963885" lon="86.820077">
        <ele>5034.8</ele>
        <time>2022-10-26T03:30:20.000Z</time>
      </trkpt>
      <trkpt lat="27.963901" lon="86.820096">
        <ele>5034.6</ele>
        <time>2022-10-26T03:30:23.000Z</time>
      </trkpt>
      <trkpt lat="27.96392" lon="86.820115">
        <ele>5034.6</ele>
        <time>2022-10-26T03:30:26.000Z</time>
      </trkpt>
      <trkpt lat="27.963942" lon="86.820128">
        <ele>5034.2</ele>
        <time>2022-10-26T03:30:29.000Z</time>
      </trkpt>
      <trkpt lat="27.963962" lon="86.820147">
        <ele>5034.2</ele>
        <time>2022-10-26T03:30:32.000Z</time>
      </trkpt>
      <trkpt lat="27.963981" lon="86.820154">
        <ele>5034.6</ele>
        <time>2022-10-26T03:30:35.000Z</time>
      </trkpt>
      <trkpt lat="27.964" lon="86.82016">
        <ele>5034.8</ele>
        <time>2022-10-26T03:30:38.000Z</time>
      </trkpt>
      <trkpt lat="27.964022" lon="86.820166">
        <ele>5035.2</ele>
        <time>2022-10-26T03:30:41.000Z</time>
      </trkpt>
      <trkpt lat="27.964042" lon="86.820186">
        <ele>5035.2</ele>
        <time>2022-10-26T03:30:44.000Z</time>
      </trkpt>
      <trkpt lat="27.964064" lon="86.820192">
        <ele>5035.2</ele>
        <time>2022-10-26T03:30:47.000Z</time>
      </trkpt>
      <trkpt lat="27.96408" lon="86.820205">
        <ele>5035.2</ele>
        <time>2022-10-26T03:30:49.000Z</time>
      </trkpt>
      <trkpt lat="27.964099" lon="86.820211">
        <ele>5035.4</ele>
        <time>2022-10-26T03:30:52.000Z</time>
      </trkpt>
      <trkpt lat="27.964118" lon="86.82023">
        <ele>5035.4</ele>
        <time>2022-10-26T03:30:55.000Z</time>
      </trkpt>
      <trkpt lat="27.964134" lon="86.820243">
        <ele>5035.8</ele>
        <time>2022-10-26T03:30:58.000Z</time>
      </trkpt>
      <trkpt lat="27.964154" lon="86.82025">
        <ele>5036</ele>
        <time>2022-10-26T03:31:01.000Z</time>
      </trkpt>
      <trkpt lat="27.964173" lon="86.820256">
        <ele>5036.2</ele>
        <time>2022-10-26T03:31:03.000Z</time>
      </trkpt>
      <trkpt lat="27.964189" lon="86.820269">
        <ele>5036</ele>
        <time>2022-10-26T03:31:06.000Z</time>
      </trkpt>
      <trkpt lat="27.964208" lon="86.820288">
        <ele>5036</ele>
        <time>2022-10-26T03:31:10.000Z</time>
      </trkpt>
      <trkpt lat="27.964227" lon="86.820307">
        <ele>5036.2</ele>
        <time>2022-10-26T03:31:13.000Z</time>
      </trkpt>
      <trkpt lat="27.964253" lon="86.820314">
        <ele>5036.4</ele>
        <time>2022-10-26T03:31:16.000Z</time>
      </trkpt>
      <trkpt lat="27.964269" lon="86.820326">
        <ele>5036.4</ele>
        <time>2022-10-26T03:31:19.000Z</time>
      </trkpt>
      <trkpt lat="27.964288" lon="86.820326">
        <ele>5036.4</ele>
        <time>2022-10-26T03:31:22.000Z</time>
      </trkpt>
      <trkpt lat="27.964307" lon="86.820333">
        <ele>5036.6</ele>
        <time>2022-10-26T03:31:25.000Z</time>
      </trkpt>
      <trkpt lat="27.96433" lon="86.820346">
        <ele>5036.6</ele>
        <time>2022-10-26T03:31:28.000Z</time>
      </trkpt>
      <trkpt lat="27.964349" lon="86.820352">
        <ele>5036.8</ele>
        <time>2022-10-26T03:31:31.000Z</time>
      </trkpt>
      <trkpt lat="27.964365" lon="86.820365">
        <ele>5036.8</ele>
        <time>2022-10-26T03:31:34.000Z</time>
      </trkpt>
      <trkpt lat="27.964371" lon="86.820384">
        <ele>5036.8</ele>
        <time>2022-10-26T03:31:37.000Z</time>
      </trkpt>
      <trkpt lat="27.96439" lon="86.820371">
        <ele>5036.8</ele>
        <time>2022-10-26T03:31:46.000Z</time>
      </trkpt>
      <trkpt lat="27.96441" lon="86.820365">
        <ele>5036.6</ele>
        <time>2022-10-26T03:31:50.000Z</time>
      </trkpt>
      <trkpt lat="27.964429" lon="86.820371">
        <ele>5036.8</ele>
        <time>2022-10-26T03:31:52.000Z</time>
      </trkpt>
      <trkpt lat="27.964448" lon="86.820384">
        <ele>5037.2</ele>
        <time>2022-10-26T03:31:55.000Z</time>
      </trkpt>
      <trkpt lat="27.964467" lon="86.82039">
        <ele>5037.4</ele>
        <time>2022-10-26T03:31:59.000Z</time>
      </trkpt>
      <trkpt lat="27.964486" lon="86.82039">
        <ele>5037.6</ele>
        <time>2022-10-26T03:32:02.000Z</time>
      </trkpt>
      <trkpt lat="27.964506" lon="86.820384">
        <ele>5038</ele>
        <time>2022-10-26T03:32:06.000Z</time>
      </trkpt>
      <trkpt lat="27.964528" lon="86.820384">
        <ele>5038.8</ele>
        <time>2022-10-26T03:32:10.000Z</time>
      </trkpt>
      <trkpt lat="27.964547" lon="86.820384">
        <ele>5039.4</ele>
        <time>2022-10-26T03:32:14.000Z</time>
      </trkpt>
      <trkpt lat="27.964563" lon="86.820397">
        <ele>5039.6</ele>
        <time>2022-10-26T03:32:17.000Z</time>
      </trkpt>
      <trkpt lat="27.964582" lon="86.82041">
        <ele>5040</ele>
        <time>2022-10-26T03:32:20.000Z</time>
      </trkpt>
      <trkpt lat="27.964595" lon="86.820429">
        <ele>5039.6</ele>
        <time>2022-10-26T03:32:22.000Z</time>
      </trkpt>
      <trkpt lat="27.964614" lon="86.820435">
        <ele>5039.6</ele>
        <time>2022-10-26T03:32:25.000Z</time>
      </trkpt>
      <trkpt lat="27.964637" lon="86.820442">
        <ele>5039.4</ele>
        <time>2022-10-26T03:32:28.000Z</time>
      </trkpt>
      <trkpt lat="27.964656" lon="86.820442">
        <ele>5039.6</ele>
        <time>2022-10-26T03:32:31.000Z</time>
      </trkpt>
      <trkpt lat="27.964675" lon="86.820442">
        <ele>5040</ele>
        <time>2022-10-26T03:32:34.000Z</time>
      </trkpt>
      <trkpt lat="27.964694" lon="86.820448">
        <ele>5040.2</ele>
        <time>2022-10-26T03:32:38.000Z</time>
      </trkpt>
      <trkpt lat="27.964714" lon="86.820448">
        <ele>5040.8</ele>
        <time>2022-10-26T03:32:42.000Z</time>
      </trkpt>
      <trkpt lat="27.964736" lon="86.820448">
        <ele>5041.4</ele>
        <time>2022-10-26T03:32:46.000Z</time>
      </trkpt>
      <trkpt lat="27.964758" lon="86.820454">
        <ele>5042</ele>
        <time>2022-10-26T03:32:50.000Z</time>
      </trkpt>
      <trkpt lat="27.964771" lon="86.820474">
        <ele>5042.2</ele>
        <time>2022-10-26T03:32:53.000Z</time>
      </trkpt>
      <trkpt lat="27.96479" lon="86.82048">
        <ele>5041.6</ele>
        <time>2022-10-26T03:32:56.000Z</time>
      </trkpt>
      <trkpt lat="27.964806" lon="86.820493">
        <ele>5041.2</ele>
        <time>2022-10-26T03:32:59.000Z</time>
      </trkpt>
      <trkpt lat="27.964822" lon="86.820506">
        <ele>5041.2</ele>
        <time>2022-10-26T03:33:02.000Z</time>
      </trkpt>
      <trkpt lat="27.964848" lon="86.820506">
        <ele>5041.4</ele>
        <time>2022-10-26T03:33:06.000Z</time>
      </trkpt>
      <trkpt lat="27.964874" lon="86.820512">
        <ele>5042</ele>
        <time>2022-10-26T03:33:10.000Z</time>
      </trkpt>
      <trkpt lat="27.964896" lon="86.820518">
        <ele>5042.2</ele>
        <time>2022-10-26T03:33:14.000Z</time>
      </trkpt>
      <trkpt lat="27.964915" lon="86.820525">
        <ele>5042.4</ele>
        <time>2022-10-26T03:33:17.000Z</time>
      </trkpt>
      <trkpt lat="27.964934" lon="86.820525">
        <ele>5042.4</ele>
        <time>2022-10-26T03:33:20.000Z</time>
      </trkpt>
      <trkpt lat="27.964957" lon="86.820531">
        <ele>5042.4</ele>
        <time>2022-10-26T03:33:23.000Z</time>
      </trkpt>
      <trkpt lat="27.964976" lon="86.820544">
        <ele>5042.4</ele>
        <time>2022-10-26T03:33:26.000Z</time>
      </trkpt>
      <trkpt lat="27.964995" lon="86.82055">
        <ele>5042.4</ele>
        <time>2022-10-26T03:33:29.000Z</time>
      </trkpt>
      <trkpt lat="27.965011" lon="86.820563">
        <ele>5042.6</ele>
        <time>2022-10-26T03:33:31.000Z</time>
      </trkpt>
      <trkpt lat="27.965021" lon="86.820582">
        <ele>5043.2</ele>
        <time>2022-10-26T03:33:33.000Z</time>
      </trkpt>
      <trkpt lat="27.96504" lon="86.820589">
        <ele>5042.6</ele>
        <time>2022-10-26T03:33:37.000Z</time>
      </trkpt>
      <trkpt lat="27.965059" lon="86.820602">
        <ele>5043</ele>
        <time>2022-10-26T03:33:41.000Z</time>
      </trkpt>
      <trkpt lat="27.965082" lon="86.820602">
        <ele>5043</ele>
        <time>2022-10-26T03:33:45.000Z</time>
      </trkpt>
      <trkpt lat="27.965094" lon="86.820621">
        <ele>5043.2</ele>
        <time>2022-10-26T03:33:47.000Z</time>
      </trkpt>
      <trkpt lat="27.965117" lon="86.820627">
        <ele>5043.8</ele>
        <time>2022-10-26T03:33:51.000Z</time>
      </trkpt>
      <trkpt lat="27.965136" lon="86.820627">
        <ele>5043.8</ele>
        <time>2022-10-26T03:33:55.000Z</time>
      </trkpt>
      <trkpt lat="27.965162" lon="86.820627">
        <ele>5043.6</ele>
        <time>2022-10-26T03:33:58.000Z</time>
      </trkpt>
      <trkpt lat="27.965181" lon="86.820627">
        <ele>5044.2</ele>
        <time>2022-10-26T03:34:02.000Z</time>
      </trkpt>
      <trkpt lat="27.965197" lon="86.82064">
        <ele>5044.4</ele>
        <time>2022-10-26T03:34:06.000Z</time>
      </trkpt>
      <trkpt lat="27.965216" lon="86.820653">
        <ele>5044.8</ele>
        <time>2022-10-26T03:34:10.000Z</time>
      </trkpt>
      <trkpt lat="27.965216" lon="86.820678">
        <ele>5045.2</ele>
        <time>2022-10-26T03:34:13.000Z</time>
      </trkpt>
      <trkpt lat="27.965232" lon="86.820704">
        <ele>5045.2</ele>
        <time>2022-10-26T03:34:17.000Z</time>
      </trkpt>
      <trkpt lat="27.965245" lon="86.820723">
        <ele>5045.4</ele>
        <time>2022-10-26T03:34:22.000Z</time>
      </trkpt>
      <trkpt lat="27.965248" lon="86.820749">
        <ele>5045.6</ele>
        <time>2022-10-26T03:34:25.000Z</time>
      </trkpt>
      <trkpt lat="27.965251" lon="86.820781">
        <ele>5045.6</ele>
        <time>2022-10-26T03:34:28.000Z</time>
      </trkpt>
      <trkpt lat="27.965264" lon="86.8208">
        <ele>5045.6</ele>
        <time>2022-10-26T03:34:31.000Z</time>
      </trkpt>
      <trkpt lat="27.965283" lon="86.820819">
        <ele>5045.6</ele>
        <time>2022-10-26T03:34:35.000Z</time>
      </trkpt>
      <trkpt lat="27.965302" lon="86.820826">
        <ele>5045.8</ele>
        <time>2022-10-26T03:34:38.000Z</time>
      </trkpt>
      <trkpt lat="27.965322" lon="86.820838">
        <ele>5046.2</ele>
        <time>2022-10-26T03:34:41.000Z</time>
      </trkpt>
      <trkpt lat="27.965344" lon="86.820838">
        <ele>5046.2</ele>
        <time>2022-10-26T03:34:44.000Z</time>
      </trkpt>
      <trkpt lat="27.96536" lon="86.820851">
        <ele>5046.8</ele>
        <time>2022-10-26T03:34:47.000Z</time>
      </trkpt>
      <trkpt lat="27.965366" lon="86.82087">
        <ele>5046.8</ele>
        <time>2022-10-26T03:34:49.000Z</time>
      </trkpt>
      <trkpt lat="27.965386" lon="86.820883">
        <ele>5047</ele>
        <time>2022-10-26T03:34:52.000Z</time>
      </trkpt>
      <trkpt lat="27.965405" lon="86.82089">
        <ele>5047.6</ele>
        <time>2022-10-26T03:34:55.000Z</time>
      </trkpt>
      <trkpt lat="27.965427" lon="86.82089">
        <ele>5047.6</ele>
        <time>2022-10-26T03:34:59.000Z</time>
      </trkpt>
      <trkpt lat="27.965456" lon="86.820883">
        <ele>5047.8</ele>
        <time>2022-10-26T03:35:03.000Z</time>
      </trkpt>
      <trkpt lat="27.965478" lon="86.820883">
        <ele>5047.8</ele>
        <time>2022-10-26T03:35:06.000Z</time>
      </trkpt>
      <trkpt lat="27.965498" lon="86.82089">
        <ele>5048.2</ele>
        <time>2022-10-26T03:35:08.000Z</time>
      </trkpt>
      <trkpt lat="27.965517" lon="86.820902">
        <ele>5048.4</ele>
        <time>2022-10-26T03:35:11.000Z</time>
      </trkpt>
      <trkpt lat="27.965533" lon="86.820915">
        <ele>5048.6</ele>
        <time>2022-10-26T03:35:17.000Z</time>
      </trkpt>
      <trkpt lat="27.965562" lon="86.820941">
        <ele>5048.8</ele>
        <time>2022-10-26T03:36:02.000Z</time>
      </trkpt>
      <trkpt lat="27.965594" lon="86.82096">
        <ele>5048.8</ele>
        <time>2022-10-26T03:36:04.000Z</time>
      </trkpt>
      <trkpt lat="27.965613" lon="86.820979">
        <ele>5049.2</ele>
        <time>2022-10-26T03:36:06.000Z</time>
      </trkpt>
      <trkpt lat="27.965638" lon="86.820992">
        <ele>5048.8</ele>
        <time>2022-10-26T03:36:08.000Z</time>
      </trkpt>
      <trkpt lat="27.965667" lon="86.821018">
        <ele>5048.8</ele>
        <time>2022-10-26T03:36:10.000Z</time>
      </trkpt>
      <trkpt lat="27.96569" lon="86.821024">
        <ele>5048.8</ele>
        <time>2022-10-26T03:36:14.000Z</time>
      </trkpt>
      <trkpt lat="27.965709" lon="86.821024">
        <ele>5049.2</ele>
        <time>2022-10-26T03:36:17.000Z</time>
      </trkpt>
      <trkpt lat="27.965731" lon="86.821024">
        <ele>5049.2</ele>
        <time>2022-10-26T03:36:20.000Z</time>
      </trkpt>
      <trkpt lat="27.965754" lon="86.821024">
        <ele>5049.4</ele>
        <time>2022-10-26T03:36:23.000Z</time>
      </trkpt>
      <trkpt lat="27.965776" lon="86.821024">
        <ele>5049.4</ele>
        <time>2022-10-26T03:36:26.000Z</time>
      </trkpt>
      <trkpt lat="27.965798" lon="86.82103">
        <ele>5049.4</ele>
        <time>2022-10-26T03:36:29.000Z</time>
      </trkpt>
      <trkpt lat="27.965821" lon="86.821037">
        <ele>5049.8</ele>
        <time>2022-10-26T03:36:32.000Z</time>
      </trkpt>
      <trkpt lat="27.965846" lon="86.821037">
        <ele>5049.8</ele>
        <time>2022-10-26T03:36:36.000Z</time>
      </trkpt>
      <trkpt lat="27.965866" lon="86.821037">
        <ele>5050.6</ele>
        <time>2022-10-26T03:36:45.000Z</time>
      </trkpt>
      <trkpt lat="27.965885" lon="86.821037">
        <ele>5050</ele>
        <time>2022-10-26T03:36:50.000Z</time>
      </trkpt>
      <trkpt lat="27.965907" lon="86.821043">
        <ele>5050.4</ele>
        <time>2022-10-26T03:36:54.000Z</time>
      </trkpt>
      <trkpt lat="27.965926" lon="86.821062">
        <ele>5050.6</ele>
        <time>2022-10-26T03:36:59.000Z</time>
      </trkpt>
      <trkpt lat="27.965949" lon="86.821062">
        <ele>5051.2</ele>
        <time>2022-10-26T03:37:04.000Z</time>
      </trkpt>
      <trkpt lat="27.965968" lon="86.82105">
        <ele>5051.8</ele>
        <time>2022-10-26T03:37:12.000Z</time>
      </trkpt>
      <trkpt lat="27.965987" lon="86.82105">
        <ele>5052.2</ele>
        <time>2022-10-26T03:37:30.000Z</time>
      </trkpt>
      <trkpt lat="27.966006" lon="86.82105">
        <ele>5052.2</ele>
        <time>2022-10-26T03:37:31.000Z</time>
      </trkpt>
      <trkpt lat="27.966032" lon="86.821043">
        <ele>5052.2</ele>
        <time>2022-10-26T03:37:33.000Z</time>
      </trkpt>
      <trkpt lat="27.966058" lon="86.821037">
        <ele>5052.8</ele>
        <time>2022-10-26T03:37:35.000Z</time>
      </trkpt>
      <trkpt lat="27.96609" lon="86.821037">
        <ele>5052.8</ele>
        <time>2022-10-26T03:37:37.000Z</time>
      </trkpt>
      <trkpt lat="27.966109" lon="86.821043">
        <ele>5052.8</ele>
        <time>2022-10-26T03:37:39.000Z</time>
      </trkpt>
      <trkpt lat="27.966128" lon="86.821062">
        <ele>5053.2</ele>
        <time>2022-10-26T03:37:42.000Z</time>
      </trkpt>
      <trkpt lat="27.966144" lon="86.821082">
        <ele>5053.2</ele>
        <time>2022-10-26T03:37:46.000Z</time>
      </trkpt>
      <trkpt lat="27.966157" lon="86.821101">
        <ele>5053.4</ele>
        <time>2022-10-26T03:37:49.000Z</time>
      </trkpt>
      <trkpt lat="27.96617" lon="86.82112">
        <ele>5053.8</ele>
        <time>2022-10-26T03:37:53.000Z</time>
      </trkpt>
      <trkpt lat="27.966176" lon="86.821139">
        <ele>5053.8</ele>
        <time>2022-10-26T03:37:55.000Z</time>
      </trkpt>
      <trkpt lat="27.966186" lon="86.821158">
        <ele>5053.8</ele>
        <time>2022-10-26T03:37:57.000Z</time>
      </trkpt>
      <trkpt lat="27.966202" lon="86.821178">
        <ele>5054</ele>
        <time>2022-10-26T03:38:00.000Z</time>
      </trkpt>
      <trkpt lat="27.966221" lon="86.821184">
        <ele>5054</ele>
        <time>2022-10-26T03:38:03.000Z</time>
      </trkpt>
      <trkpt lat="27.96624" lon="86.821197">
        <ele>5054.2</ele>
        <time>2022-10-26T03:38:06.000Z</time>
      </trkpt>
      <trkpt lat="27.966256" lon="86.82121">
        <ele>5054</ele>
        <time>2022-10-26T03:38:09.000Z</time>
      </trkpt>
      <trkpt lat="27.966272" lon="86.821222">
        <ele>5054.2</ele>
        <time>2022-10-26T03:38:12.000Z</time>
      </trkpt>
      <trkpt lat="27.966294" lon="86.821229">
        <ele>5054.6</ele>
        <time>2022-10-26T03:38:16.000Z</time>
      </trkpt>
      <trkpt lat="27.966314" lon="86.821229">
        <ele>5054.8</ele>
        <time>2022-10-26T03:38:20.000Z</time>
      </trkpt>
      <trkpt lat="27.966333" lon="86.821242">
        <ele>5055.6</ele>
        <time>2022-10-26T03:38:23.000Z</time>
      </trkpt>
      <trkpt lat="27.966352" lon="86.821248">
        <ele>5055.2</ele>
        <time>2022-10-26T03:38:26.000Z</time>
      </trkpt>
      <trkpt lat="27.966371" lon="86.821261">
        <ele>5055.4</ele>
        <time>2022-10-26T03:38:29.000Z</time>
      </trkpt>
      <trkpt lat="27.966394" lon="86.821274">
        <ele>5055.6</ele>
        <time>2022-10-26T03:38:33.000Z</time>
      </trkpt>
      <trkpt lat="27.966416" lon="86.821286">
        <ele>5056.2</ele>
        <time>2022-10-26T03:38:38.000Z</time>
      </trkpt>
      <trkpt lat="27.966432" lon="86.821299">
        <ele>5056</ele>
        <time>2022-10-26T03:38:41.000Z</time>
      </trkpt>
      <trkpt lat="27.966451" lon="86.821299">
        <ele>5056.2</ele>
        <time>2022-10-26T03:38:45.000Z</time>
      </trkpt>
      <trkpt lat="27.96647" lon="86.821299">
        <ele>5056.4</ele>
        <time>2022-10-26T03:38:48.000Z</time>
      </trkpt>
      <trkpt lat="27.966493" lon="86.821306">
        <ele>5056.6</ele>
        <time>2022-10-26T03:38:52.000Z</time>
      </trkpt>
      <trkpt lat="27.966512" lon="86.821312">
        <ele>5056.6</ele>
        <time>2022-10-26T03:38:55.000Z</time>
      </trkpt>
      <trkpt lat="27.966534" lon="86.821318">
        <ele>5056.6</ele>
        <time>2022-10-26T03:38:58.000Z</time>
      </trkpt>
      <trkpt lat="27.96655" lon="86.821338">
        <ele>5057</ele>
        <time>2022-10-26T03:39:01.000Z</time>
      </trkpt>
      <trkpt lat="27.966566" lon="86.821325">
        <ele>5056.6</ele>
        <time>2022-10-26T03:39:05.000Z</time>
      </trkpt>
      <trkpt lat="27.966586" lon="86.821325">
        <ele>5057.2</ele>
        <time>2022-10-26T03:39:09.000Z</time>
      </trkpt>
      <trkpt lat="27.966592" lon="86.821344">
        <ele>5057.6</ele>
        <time>2022-10-26T03:39:12.000Z</time>
      </trkpt>
      <trkpt lat="27.966602" lon="86.821363">
        <ele>5057.8</ele>
        <time>2022-10-26T03:39:14.000Z</time>
      </trkpt>
      <trkpt lat="27.966614" lon="86.821382">
        <ele>5057.8</ele>
        <time>2022-10-26T03:39:17.000Z</time>
      </trkpt>
      <trkpt lat="27.966634" lon="86.821382">
        <ele>5057.6</ele>
        <time>2022-10-26T03:39:20.000Z</time>
      </trkpt>
      <trkpt lat="27.966656" lon="86.821376">
        <ele>5057.4</ele>
        <time>2022-10-26T03:39:24.000Z</time>
      </trkpt>
      <trkpt lat="27.966675" lon="86.821376">
        <ele>5057.8</ele>
        <time>2022-10-26T03:39:27.000Z</time>
      </trkpt>
      <trkpt lat="27.966694" lon="86.821382">
        <ele>5057.6</ele>
        <time>2022-10-26T03:39:37.000Z</time>
      </trkpt>
      <trkpt lat="27.966714" lon="86.821395">
        <ele>5057.6</ele>
        <time>2022-10-26T03:39:40.000Z</time>
      </trkpt>
      <trkpt lat="27.966733" lon="86.821402">
        <ele>5057.6</ele>
        <time>2022-10-26T03:39:44.000Z</time>
      </trkpt>
      <trkpt lat="27.966755" lon="86.821402">
        <ele>5057.4</ele>
        <time>2022-10-26T03:39:48.000Z</time>
      </trkpt>
      <trkpt lat="27.966762" lon="86.821421">
        <ele>5057.8</ele>
        <time>2022-10-26T03:39:50.000Z</time>
      </trkpt>
      <trkpt lat="27.966781" lon="86.821421">
        <ele>5058.2</ele>
        <time>2022-10-26T03:39:53.000Z</time>
      </trkpt>
      <trkpt lat="27.9668" lon="86.821421">
        <ele>5058.6</ele>
        <time>2022-10-26T03:39:57.000Z</time>
      </trkpt>
      <trkpt lat="27.966813" lon="86.82144">
        <ele>5059.4</ele>
        <time>2022-10-26T03:40:02.000Z</time>
      </trkpt>
      <trkpt lat="27.966822" lon="86.821459">
        <ele>5059.6</ele>
        <time>2022-10-26T03:40:04.000Z</time>
      </trkpt>
      <trkpt lat="27.966842" lon="86.821459">
        <ele>5060.6</ele>
        <time>2022-10-26T03:40:11.000Z</time>
      </trkpt>
      <trkpt lat="27.966864" lon="86.821459">
        <ele>5061</ele>
        <time>2022-10-26T03:40:16.000Z</time>
      </trkpt>
      <trkpt lat="27.966883" lon="86.821459">
        <ele>5061.2</ele>
        <time>2022-10-26T03:40:20.000Z</time>
      </trkpt>
      <trkpt lat="27.966899" lon="86.821446">
        <ele>5061.6</ele>
        <time>2022-10-26T03:40:22.000Z</time>
      </trkpt>
      <trkpt lat="27.966918" lon="86.821434">
        <ele>5061.6</ele>
        <time>2022-10-26T03:40:28.000Z</time>
      </trkpt>
      <trkpt lat="27.966938" lon="86.821434">
        <ele>5062</ele>
        <time>2022-10-26T03:40:32.000Z</time>
      </trkpt>
      <trkpt lat="27.966957" lon="86.821446">
        <ele>5063.2</ele>
        <time>2022-10-26T03:40:38.000Z</time>
      </trkpt>
      <trkpt lat="27.966973" lon="86.821459">
        <ele>5063.2</ele>
        <time>2022-10-26T03:40:41.000Z</time>
      </trkpt>
      <trkpt lat="27.966992" lon="86.821472">
        <ele>5063.4</ele>
        <time>2022-10-26T03:40:45.000Z</time>
      </trkpt>
      <trkpt lat="27.967014" lon="86.821472">
        <ele>5063.4</ele>
        <time>2022-10-26T03:41:12.000Z</time>
      </trkpt>
      <trkpt lat="27.967037" lon="86.821472">
        <ele>5063</ele>
        <time>2022-10-26T03:41:14.000Z</time>
      </trkpt>
      <trkpt lat="27.967062" lon="86.821466">
        <ele>5063</ele>
        <time>2022-10-26T03:41:21.000Z</time>
      </trkpt>
      <trkpt lat="27.967078" lon="86.821485">
        <ele>5062.6</ele>
        <time>2022-10-26T03:41:27.000Z</time>
      </trkpt>
      <trkpt lat="27.967085" lon="86.82151">
        <ele>5062.4</ele>
        <time>2022-10-26T03:41:30.000Z</time>
      </trkpt>
      <trkpt lat="27.967107" lon="86.82151">
        <ele>5062.6</ele>
        <time>2022-10-26T03:41:35.000Z</time>
      </trkpt>
      <trkpt lat="27.967126" lon="86.821517">
        <ele>5062.6</ele>
        <time>2022-10-26T03:41:42.000Z</time>
      </trkpt>
      <trkpt lat="27.967139" lon="86.821536">
        <ele>5063.2</ele>
        <time>2022-10-26T03:41:44.000Z</time>
      </trkpt>
      <trkpt lat="27.967158" lon="86.821523">
        <ele>5063.8</ele>
        <time>2022-10-26T03:41:47.000Z</time>
      </trkpt>
      <trkpt lat="27.967174" lon="86.821536">
        <ele>5063.2</ele>
        <time>2022-10-26T03:41:55.000Z</time>
      </trkpt>
      <trkpt lat="27.96719" lon="86.821555">
        <ele>5063.2</ele>
        <time>2022-10-26T03:41:58.000Z</time>
      </trkpt>
      <trkpt lat="27.967213" lon="86.821574">
        <ele>5062.6</ele>
        <time>2022-10-26T03:42:01.000Z</time>
      </trkpt>
      <trkpt lat="27.967238" lon="86.821562">
        <ele>5063</ele>
        <time>2022-10-26T03:42:05.000Z</time>
      </trkpt>
      <trkpt lat="27.967254" lon="86.821574">
        <ele>5063.2</ele>
        <time>2022-10-26T03:42:09.000Z</time>
      </trkpt>
      <trkpt lat="27.967277" lon="86.821574">
        <ele>5064.2</ele>
        <time>2022-10-26T03:42:14.000Z</time>
      </trkpt>
      <trkpt lat="27.967296" lon="86.821581">
        <ele>5064.2</ele>
        <time>2022-10-26T03:42:19.000Z</time>
      </trkpt>
      <trkpt lat="27.967309" lon="86.8216">
        <ele>5065</ele>
        <time>2022-10-26T03:42:23.000Z</time>
      </trkpt>
      <trkpt lat="27.967328" lon="86.8216">
        <ele>5065</ele>
        <time>2022-10-26T03:42:28.000Z</time>
      </trkpt>
      <trkpt lat="27.967347" lon="86.821587">
        <ele>5065.6</ele>
        <time>2022-10-26T03:42:36.000Z</time>
      </trkpt>
      <trkpt lat="27.967366" lon="86.821594">
        <ele>5066.2</ele>
        <time>2022-10-26T03:42:40.000Z</time>
      </trkpt>
      <trkpt lat="27.967386" lon="86.821594">
        <ele>5066.2</ele>
        <time>2022-10-26T03:42:45.000Z</time>
      </trkpt>
      <trkpt lat="27.967405" lon="86.8216">
        <ele>5066.6</ele>
        <time>2022-10-26T03:42:49.000Z</time>
      </trkpt>
      <trkpt lat="27.967424" lon="86.8216">
        <ele>5068.2</ele>
        <time>2022-10-26T03:43:50.000Z</time>
      </trkpt>
      <trkpt lat="27.96745" lon="86.821606">
        <ele>5068.6</ele>
        <time>2022-10-26T03:43:52.000Z</time>
      </trkpt>
      <trkpt lat="27.967469" lon="86.821606">
        <ele>5068</ele>
        <time>2022-10-26T03:43:54.000Z</time>
      </trkpt>
      <trkpt lat="27.967488" lon="86.821606">
        <ele>5068.4</ele>
        <time>2022-10-26T03:43:56.000Z</time>
      </trkpt>
      <trkpt lat="27.967514" lon="86.821619">
        <ele>5068.4</ele>
        <time>2022-10-26T03:43:58.000Z</time>
      </trkpt>
      <trkpt lat="27.967533" lon="86.821606">
        <ele>5068.6</ele>
        <time>2022-10-26T03:44:01.000Z</time>
      </trkpt>
      <trkpt lat="27.967555" lon="86.821606">
        <ele>5069.2</ele>
        <time>2022-10-26T03:44:07.000Z</time>
      </trkpt>
      <trkpt lat="27.967578" lon="86.821606">
        <ele>5069.6</ele>
        <time>2022-10-26T03:44:11.000Z</time>
      </trkpt>
      <trkpt lat="27.967597" lon="86.821606">
        <ele>5069.4</ele>
        <time>2022-10-26T03:44:14.000Z</time>
      </trkpt>
      <trkpt lat="27.967619" lon="86.821606">
        <ele>5069</ele>
        <time>2022-10-26T03:44:17.000Z</time>
      </trkpt>
      <trkpt lat="27.967635" lon="86.821626">
        <ele>5069.4</ele>
        <time>2022-10-26T03:44:20.000Z</time>
      </trkpt>
      <trkpt lat="27.967642" lon="86.821645">
        <ele>5069.8</ele>
        <time>2022-10-26T03:44:25.000Z</time>
      </trkpt>
      <trkpt lat="27.967648" lon="86.821664">
        <ele>5070.4</ele>
        <time>2022-10-26T03:44:35.000Z</time>
      </trkpt>
      <trkpt lat="27.967667" lon="86.821658">
        <ele>5071</ele>
        <time>2022-10-26T03:44:41.000Z</time>
      </trkpt>
      <trkpt lat="27.967683" lon="86.82167">
        <ele>5072</ele>
        <time>2022-10-26T03:44:48.000Z</time>
      </trkpt>
      <trkpt lat="27.967702" lon="86.82167">
        <ele>5073.4</ele>
        <time>2022-10-26T03:44:56.000Z</time>
      </trkpt>
      <trkpt lat="27.967718" lon="86.821696">
        <ele>5074</ele>
        <time>2022-10-26T03:45:03.000Z</time>
      </trkpt>
      <trkpt lat="27.967734" lon="86.821709">
        <ele>5074</ele>
        <time>2022-10-26T03:45:09.000Z</time>
      </trkpt>
      <trkpt lat="27.967728" lon="86.821734">
        <ele>5078</ele>
        <time>2022-10-26T03:51:41.000Z</time>
      </trkpt>
      <trkpt lat="27.967674" lon="86.821747">
        <ele>5079.6</ele>
        <time>2022-10-26T03:53:08.000Z</time>
      </trkpt>
      <trkpt lat="27.967696" lon="86.821734">
        <ele>5080</ele>
        <time>2022-10-26T03:53:10.000Z</time>
      </trkpt>
      <trkpt lat="27.967712" lon="86.821709">
        <ele>5080</ele>
        <time>2022-10-26T03:53:12.000Z</time>
      </trkpt>
      <trkpt lat="27.967731" lon="86.821696">
        <ele>5080</ele>
        <time>2022-10-26T03:53:14.000Z</time>
      </trkpt>
      <trkpt lat="27.967754" lon="86.821677">
        <ele>5080.4</ele>
        <time>2022-10-26T03:53:17.000Z</time>
      </trkpt>
      <trkpt lat="27.967901" lon="86.821709">
        <ele>5087.4</ele>
        <time>2022-10-26T03:54:44.000Z</time>
      </trkpt>
      <trkpt lat="27.96791" lon="86.821741">
        <ele>5087.8</ele>
        <time>2022-10-26T03:54:46.000Z</time>
      </trkpt>
      <trkpt lat="27.967923" lon="86.821773">
        <ele>5087.8</ele>
        <time>2022-10-26T03:54:48.000Z</time>
      </trkpt>
      <trkpt lat="27.967933" lon="86.821798">
        <ele>5087.4</ele>
        <time>2022-10-26T03:54:50.000Z</time>
      </trkpt>
      <trkpt lat="27.967946" lon="86.82183">
        <ele>5088</ele>
        <time>2022-10-26T03:54:53.000Z</time>
      </trkpt>
      <trkpt lat="27.967962" lon="86.821843">
        <ele>5088.6</ele>
        <time>2022-10-26T03:54:58.000Z</time>
      </trkpt>
      <trkpt lat="27.967978" lon="86.821856">
        <ele>5089.4</ele>
        <time>2022-10-26T03:55:05.000Z</time>
      </trkpt>
      <trkpt lat="27.967994" lon="86.821843">
        <ele>5089.4</ele>
        <time>2022-10-26T03:55:11.000Z</time>
      </trkpt>
      <trkpt lat="27.968003" lon="86.821824">
        <ele>5090.6</ele>
        <time>2022-10-26T03:55:20.000Z</time>
      </trkpt>
      <trkpt lat="27.96801" lon="86.821805">
        <ele>5090.8</ele>
        <time>2022-10-26T03:55:25.000Z</time>
      </trkpt>
      <trkpt lat="27.968029" lon="86.821798">
        <ele>5090.6</ele>
        <time>2022-10-26T03:55:30.000Z</time>
      </trkpt>
      <trkpt lat="27.968205" lon="86.821741">
        <ele>5102</ele>
        <time>2022-10-26T03:58:50.000Z</time>
      </trkpt>
      <trkpt lat="27.968208" lon="86.821715">
        <ele>5102.4</ele>
        <time>2022-10-26T03:58:56.000Z</time>
      </trkpt>
      <trkpt lat="27.968214" lon="86.821683">
        <ele>5103.2</ele>
        <time>2022-10-26T03:58:59.000Z</time>
      </trkpt>
      <trkpt lat="27.968221" lon="86.821658">
        <ele>5102.8</ele>
        <time>2022-10-26T03:59:03.000Z</time>
      </trkpt>
      <trkpt lat="27.968227" lon="86.821638">
        <ele>5103.4</ele>
        <time>2022-10-26T03:59:05.000Z</time>
      </trkpt>
      <trkpt lat="27.968416" lon="86.821741">
        <ele>5119.4</ele>
        <time>2022-10-26T04:01:49.000Z</time>
      </trkpt>
      <trkpt lat="27.968429" lon="86.82176">
        <ele>5120</ele>
        <time>2022-10-26T04:01:51.000Z</time>
      </trkpt>
      <trkpt lat="27.968438" lon="86.821779">
        <ele>5120.6</ele>
        <time>2022-10-26T04:01:53.000Z</time>
      </trkpt>
      <trkpt lat="27.968445" lon="86.821798">
        <ele>5120.8</ele>
        <time>2022-10-26T04:01:55.000Z</time>
      </trkpt>
      <trkpt lat="27.968454" lon="86.821818">
        <ele>5120.6</ele>
        <time>2022-10-26T04:01:57.000Z</time>
      </trkpt>
      <trkpt lat="27.968461" lon="86.821837">
        <ele>5119.8</ele>
        <time>2022-10-26T04:02:07.000Z</time>
      </trkpt>
      <trkpt lat="27.968467" lon="86.821856">
        <ele>5121.2</ele>
        <time>2022-10-26T04:02:13.000Z</time>
      </trkpt>
      <trkpt lat="27.96847" lon="86.821882">
        <ele>5122.8</ele>
        <time>2022-10-26T04:02:24.000Z</time>
      </trkpt>
      <trkpt lat="27.968477" lon="86.821946">
        <ele>5124</ele>
        <time>2022-10-26T04:03:48.000Z</time>
      </trkpt>
      <trkpt lat="27.968493" lon="86.821958">
        <ele>5124</ele>
        <time>2022-10-26T04:03:50.000Z</time>
      </trkpt>
      <trkpt lat="27.968506" lon="86.821978">
        <ele>5124.4</ele>
        <time>2022-10-26T04:03:52.000Z</time>
      </trkpt>
      <trkpt lat="27.968518" lon="86.821997">
        <ele>5125</ele>
        <time>2022-10-26T04:03:54.000Z</time>
      </trkpt>
      <trkpt lat="27.968531" lon="86.822016">
        <ele>5125.4</ele>
        <time>2022-10-26T04:03:56.000Z</time>
      </trkpt>
      <trkpt lat="27.968547" lon="86.822029">
        <ele>5125.4</ele>
        <time>2022-10-26T04:04:00.000Z</time>
      </trkpt>
      <trkpt lat="27.968595" lon="86.822029">
        <ele>5126.2</ele>
        <time>2022-10-26T04:05:29.000Z</time>
      </trkpt>
      <trkpt lat="27.968579" lon="86.822003">
        <ele>5125.6</ele>
        <time>2022-10-26T04:05:32.000Z</time>
      </trkpt>
      <trkpt lat="27.968563" lon="86.821984">
        <ele>5128.2</ele>
        <time>2022-10-26T04:05:39.000Z</time>
      </trkpt>
      <trkpt lat="27.968592" lon="86.821984">
        <ele>5126.4</ele>
        <time>2022-10-26T04:06:06.000Z</time>
      </trkpt>
      <trkpt lat="27.968618" lon="86.82199">
        <ele>5126.4</ele>
        <time>2022-10-26T04:06:08.000Z</time>
      </trkpt>
      <trkpt lat="27.968643" lon="86.821997">
        <ele>5127</ele>
        <time>2022-10-26T04:06:10.000Z</time>
      </trkpt>
      <trkpt lat="27.968669" lon="86.822003">
        <ele>5126.6</ele>
        <time>2022-10-26T04:06:12.000Z</time>
      </trkpt>
      <trkpt lat="27.968691" lon="86.822016">
        <ele>5126.6</ele>
        <time>2022-10-26T04:06:14.000Z</time>
      </trkpt>
      <trkpt lat="27.968682" lon="86.822035">
        <ele>5124</ele>
        <time>2022-10-26T04:12:31.000Z</time>
      </trkpt>
      <trkpt lat="27.968704" lon="86.822061">
        <ele>5124</ele>
        <time>2022-10-26T04:12:33.000Z</time>
      </trkpt>
      <trkpt lat="27.968726" lon="86.82208">
        <ele>5124</ele>
        <time>2022-10-26T04:12:35.000Z</time>
      </trkpt>
      <trkpt lat="27.968742" lon="86.822106">
        <ele>5124.4</ele>
        <time>2022-10-26T04:12:37.000Z</time>
      </trkpt>
      <trkpt lat="27.968758" lon="86.822131">
        <ele>5124.4</ele>
        <time>2022-10-26T04:12:39.000Z</time>
      </trkpt>
      <trkpt lat="27.968768" lon="86.82215">
        <ele>5125</ele>
        <time>2022-10-26T04:12:42.000Z</time>
      </trkpt>
      <trkpt lat="27.96879" lon="86.82217">
        <ele>5124.6</ele>
        <time>2022-10-26T04:12:46.000Z</time>
      </trkpt>
      <trkpt lat="27.96881" lon="86.82217">
        <ele>5125</ele>
        <time>2022-10-26T04:12:50.000Z</time>
      </trkpt>
      <trkpt lat="27.968829" lon="86.822176">
        <ele>5125.8</ele>
        <time>2022-10-26T04:12:55.000Z</time>
      </trkpt>
      <trkpt lat="27.968848" lon="86.822176">
        <ele>5127</ele>
        <time>2022-10-26T04:13:01.000Z</time>
      </trkpt>
      <trkpt lat="27.968864" lon="86.822189">
        <ele>5127.2</ele>
        <time>2022-10-26T04:13:06.000Z</time>
      </trkpt>
      <trkpt lat="27.968886" lon="86.822182">
        <ele>5128.8</ele>
        <time>2022-10-26T04:13:34.000Z</time>
      </trkpt>
      <trkpt lat="27.968915" lon="86.822176">
        <ele>5128.6</ele>
        <time>2022-10-26T04:13:36.000Z</time>
      </trkpt>
      <trkpt lat="27.968941" lon="86.82217">
        <ele>5128.4</ele>
        <time>2022-10-26T04:13:38.000Z</time>
      </trkpt>
      <trkpt lat="27.96897" lon="86.822157">
        <ele>5128.4</ele>
        <time>2022-10-26T04:13:40.000Z</time>
      </trkpt>
      <trkpt lat="27.968989" lon="86.822157">
        <ele>5128.4</ele>
        <time>2022-10-26T04:13:41.000Z</time>
      </trkpt>
      <trkpt lat="27.969008" lon="86.822157">
        <ele>5127.8</ele>
        <time>2022-10-26T04:13:43.000Z</time>
      </trkpt>
      <trkpt lat="27.969024" lon="86.822176">
        <ele>5127.4</ele>
        <time>2022-10-26T04:13:46.000Z</time>
      </trkpt>
      <trkpt lat="27.969043" lon="86.822176">
        <ele>5127.4</ele>
        <time>2022-10-26T04:14:08.000Z</time>
      </trkpt>
      <trkpt lat="27.969069" lon="86.822182">
        <ele>5127.8</ele>
        <time>2022-10-26T04:14:10.000Z</time>
      </trkpt>
      <trkpt lat="27.969088" lon="86.822202">
        <ele>5127.8</ele>
        <time>2022-10-26T04:14:12.000Z</time>
      </trkpt>
      <trkpt lat="27.96911" lon="86.822214">
        <ele>5127.2</ele>
        <time>2022-10-26T04:14:14.000Z</time>
      </trkpt>
      <trkpt lat="27.969133" lon="86.822234">
        <ele>5127.4</ele>
        <time>2022-10-26T04:14:16.000Z</time>
      </trkpt>
      <trkpt lat="27.969152" lon="86.822253">
        <ele>5127.2</ele>
        <time>2022-10-26T04:14:18.000Z</time>
      </trkpt>
      <trkpt lat="27.969171" lon="86.822272">
        <ele>5127.2</ele>
        <time>2022-10-26T04:14:22.000Z</time>
      </trkpt>
      <trkpt lat="27.969181" lon="86.822291">
        <ele>5127</ele>
        <time>2022-10-26T04:14:24.000Z</time>
      </trkpt>
      <trkpt lat="27.969197" lon="86.822304">
        <ele>5127.2</ele>
        <time>2022-10-26T04:14:27.000Z</time>
      </trkpt>
      <trkpt lat="27.969216" lon="86.822304">
        <ele>5127.6</ele>
        <time>2022-10-26T04:14:29.000Z</time>
      </trkpt>
      <trkpt lat="27.969235" lon="86.822317">
        <ele>5127.6</ele>
        <time>2022-10-26T04:14:32.000Z</time>
      </trkpt>
      <trkpt lat="27.969242" lon="86.822336">
        <ele>5127.2</ele>
        <time>2022-10-26T04:14:34.000Z</time>
      </trkpt>
      <trkpt lat="27.969254" lon="86.822355">
        <ele>5127.6</ele>
        <time>2022-10-26T04:14:37.000Z</time>
      </trkpt>
      <trkpt lat="27.969264" lon="86.822374">
        <ele>5127.6</ele>
        <time>2022-10-26T04:14:39.000Z</time>
      </trkpt>
      <trkpt lat="27.969277" lon="86.822394">
        <ele>5127.6</ele>
        <time>2022-10-26T04:14:42.000Z</time>
      </trkpt>
      <trkpt lat="27.969286" lon="86.822413">
        <ele>5128</ele>
        <time>2022-10-26T04:14:44.000Z</time>
      </trkpt>
      <trkpt lat="27.969299" lon="86.822438">
        <ele>5128</ele>
        <time>2022-10-26T04:14:47.000Z</time>
      </trkpt>
      <trkpt lat="27.969315" lon="86.822458">
        <ele>5128.4</ele>
        <time>2022-10-26T04:14:50.000Z</time>
      </trkpt>
      <trkpt lat="27.969322" lon="86.822477">
        <ele>5128</ele>
        <time>2022-10-26T04:14:52.000Z</time>
      </trkpt>
      <trkpt lat="27.969331" lon="86.822496">
        <ele>5128</ele>
        <time>2022-10-26T04:14:54.000Z</time>
      </trkpt>
      <trkpt lat="27.969338" lon="86.822528">
        <ele>5127.8</ele>
        <time>2022-10-26T04:14:57.000Z</time>
      </trkpt>
      <trkpt lat="27.969373" lon="86.822592">
        <ele>5128</ele>
        <time>2022-10-26T04:15:05.000Z</time>
      </trkpt>
      <trkpt lat="27.969395" lon="86.822611">
        <ele>5128.6</ele>
        <time>2022-10-26T04:15:09.000Z</time>
      </trkpt>
      <trkpt lat="27.969405" lon="86.82263">
        <ele>5128.6</ele>
        <time>2022-10-26T04:15:12.000Z</time>
      </trkpt>
      <trkpt lat="27.969408" lon="86.822656">
        <ele>5128.4</ele>
        <time>2022-10-26T04:15:14.000Z</time>
      </trkpt>
      <trkpt lat="27.969414" lon="86.822675">
        <ele>5128.4</ele>
        <time>2022-10-26T04:15:17.000Z</time>
      </trkpt>
      <trkpt lat="27.969421" lon="86.822694">
        <ele>5128.4</ele>
        <time>2022-10-26T04:15:19.000Z</time>
      </trkpt>
      <trkpt lat="27.969437" lon="86.822746">
        <ele>5128.8</ele>
        <time>2022-10-26T04:15:28.000Z</time>
      </trkpt>
      <trkpt lat="27.969456" lon="86.822758">
        <ele>5129.4</ele>
        <time>2022-10-26T04:15:32.000Z</time>
      </trkpt>
      <trkpt lat="27.969469" lon="86.822778">
        <ele>5129.8</ele>
        <time>2022-10-26T04:15:35.000Z</time>
      </trkpt>
      <trkpt lat="27.969485" lon="86.822797">
        <ele>5130</ele>
        <time>2022-10-26T04:15:39.000Z</time>
      </trkpt>
      <trkpt lat="27.969504" lon="86.822816">
        <ele>5130</ele>
        <time>2022-10-26T04:15:43.000Z</time>
      </trkpt>
      <trkpt lat="27.969523" lon="86.822822">
        <ele>5130.6</ele>
        <time>2022-10-26T04:15:47.000Z</time>
      </trkpt>
      <trkpt lat="27.969542" lon="86.822835">
        <ele>5130.6</ele>
        <time>2022-10-26T04:15:51.000Z</time>
      </trkpt>
      <trkpt lat="27.969558" lon="86.822854">
        <ele>5130.6</ele>
        <time>2022-10-26T04:15:54.000Z</time>
      </trkpt>
      <trkpt lat="27.969574" lon="86.822867">
        <ele>5132.2</ele>
        <time>2022-10-26T04:16:23.000Z</time>
      </trkpt>
      <trkpt lat="27.969603" lon="86.822874">
        <ele>5132.2</ele>
        <time>2022-10-26T04:16:25.000Z</time>
      </trkpt>
      <trkpt lat="27.969629" lon="86.822886">
        <ele>5132</ele>
        <time>2022-10-26T04:16:27.000Z</time>
      </trkpt>
      <trkpt lat="27.969648" lon="86.822893">
        <ele>5132</ele>
        <time>2022-10-26T04:16:28.000Z</time>
      </trkpt>
      <trkpt lat="27.96968" lon="86.822899">
        <ele>5132</ele>
        <time>2022-10-26T04:16:30.000Z</time>
      </trkpt>
      <trkpt lat="27.969709" lon="86.822906">
        <ele>5132</ele>
        <time>2022-10-26T04:16:32.000Z</time>
      </trkpt>
      <trkpt lat="27.969731" lon="86.822906">
        <ele>5131.6</ele>
        <time>2022-10-26T04:16:35.000Z</time>
      </trkpt>
      <trkpt lat="27.969754" lon="86.822906">
        <ele>5132</ele>
        <time>2022-10-26T04:16:38.000Z</time>
      </trkpt>
      <trkpt lat="27.969776" lon="86.822906">
        <ele>5132</ele>
        <time>2022-10-26T04:16:41.000Z</time>
      </trkpt>
      <trkpt lat="27.969795" lon="86.822906">
        <ele>5132</ele>
        <time>2022-10-26T04:16:44.000Z</time>
      </trkpt>
      <trkpt lat="27.969814" lon="86.822899">
        <ele>5132.4</ele>
        <time>2022-10-26T04:16:48.000Z</time>
      </trkpt>
      <trkpt lat="27.969834" lon="86.822906">
        <ele>5133.4</ele>
        <time>2022-10-26T04:16:53.000Z</time>
      </trkpt>
      <trkpt lat="27.96985" lon="86.822925">
        <ele>5133.6</ele>
        <time>2022-10-26T04:16:57.000Z</time>
      </trkpt>
      <trkpt lat="27.969869" lon="86.822938">
        <ele>5134.8</ele>
        <time>2022-10-26T04:17:03.000Z</time>
      </trkpt>
      <trkpt lat="27.969888" lon="86.822944">
        <ele>5135</ele>
        <time>2022-10-26T04:17:08.000Z</time>
      </trkpt>
      <trkpt lat="27.969907" lon="86.82295">
        <ele>5135.4</ele>
        <time>2022-10-26T04:17:13.000Z</time>
      </trkpt>
      <trkpt lat="27.969926" lon="86.822957">
        <ele>5136.2</ele>
        <time>2022-10-26T04:17:19.000Z</time>
      </trkpt>
      <trkpt lat="27.969946" lon="86.82297">
        <ele>5137</ele>
        <time>2022-10-26T04:17:24.000Z</time>
      </trkpt>
      <trkpt lat="27.969962" lon="86.822957">
        <ele>5137.8</ele>
        <time>2022-10-26T04:17:29.000Z</time>
      </trkpt>
      <trkpt lat="27.969978" lon="86.82297">
        <ele>5137.8</ele>
        <time>2022-10-26T04:17:33.000Z</time>
      </trkpt>
      <trkpt lat="27.969994" lon="86.822989">
        <ele>5138.4</ele>
        <time>2022-10-26T04:17:38.000Z</time>
      </trkpt>
      <trkpt lat="27.97" lon="86.823008">
        <ele>5139.2</ele>
        <time>2022-10-26T04:17:41.000Z</time>
      </trkpt>
      <trkpt lat="27.970013" lon="86.823027">
        <ele>5139.2</ele>
        <time>2022-10-26T04:17:45.000Z</time>
      </trkpt>
      <trkpt lat="27.970026" lon="86.823046">
        <ele>5139.6</ele>
        <time>2022-10-26T04:17:48.000Z</time>
      </trkpt>
      <trkpt lat="27.970038" lon="86.823066">
        <ele>5139.6</ele>
        <time>2022-10-26T04:17:52.000Z</time>
      </trkpt>
      <trkpt lat="27.970042" lon="86.823091">
        <ele>5139.6</ele>
        <time>2022-10-26T04:17:57.000Z</time>
      </trkpt>
      <trkpt lat="27.970058" lon="86.823104">
        <ele>5140.4</ele>
        <time>2022-10-26T04:18:04.000Z</time>
      </trkpt>
      <trkpt lat="27.970077" lon="86.823104">
        <ele>5140.6</ele>
        <time>2022-10-26T04:18:07.000Z</time>
      </trkpt>
      <trkpt lat="27.970096" lon="86.823104">
        <ele>5140.8</ele>
        <time>2022-10-26T04:18:10.000Z</time>
      </trkpt>
      <trkpt lat="27.970115" lon="86.82311">
        <ele>5140.8</ele>
        <time>2022-10-26T04:18:14.000Z</time>
      </trkpt>
      <trkpt lat="27.970134" lon="86.823123">
        <ele>5139.8</ele>
        <time>2022-10-26T04:18:17.000Z</time>
      </trkpt>
      <trkpt lat="27.970157" lon="86.823136">
        <ele>5139.8</ele>
        <time>2022-10-26T04:18:21.000Z</time>
      </trkpt>
      <trkpt lat="27.970176" lon="86.823142">
        <ele>5140</ele>
        <time>2022-10-26T04:18:25.000Z</time>
      </trkpt>
      <trkpt lat="27.970192" lon="86.823155">
        <ele>5140.4</ele>
        <time>2022-10-26T04:18:28.000Z</time>
      </trkpt>
      <trkpt lat="27.970208" lon="86.823168">
        <ele>5140</ele>
        <time>2022-10-26T04:18:32.000Z</time>
      </trkpt>
      <trkpt lat="27.970218" lon="86.823187">
        <ele>5140</ele>
        <time>2022-10-26T04:18:35.000Z</time>
      </trkpt>
      <trkpt lat="27.97023" lon="86.823206">
        <ele>5140.6</ele>
        <time>2022-10-26T04:18:42.000Z</time>
      </trkpt>
      <trkpt lat="27.97025" lon="86.823213">
        <ele>5141.2</ele>
        <time>2022-10-26T04:18:49.000Z</time>
      </trkpt>
      <trkpt lat="27.970269" lon="86.823194">
        <ele>5141.8</ele>
        <time>2022-10-26T04:18:54.000Z</time>
      </trkpt>
      <trkpt lat="27.970285" lon="86.823181">
        <ele>5141.4</ele>
        <time>2022-10-26T04:18:57.000Z</time>
      </trkpt>
      <trkpt lat="27.970304" lon="86.823174">
        <ele>5141.8</ele>
        <time>2022-10-26T04:19:01.000Z</time>
      </trkpt>
      <trkpt lat="27.970326" lon="86.823168">
        <ele>5142.6</ele>
        <time>2022-10-26T04:19:08.000Z</time>
      </trkpt>
      <trkpt lat="27.970339" lon="86.823149">
        <ele>5142.8</ele>
        <time>2022-10-26T04:19:12.000Z</time>
      </trkpt>
      <trkpt lat="27.970358" lon="86.823136">
        <ele>5143.4</ele>
        <time>2022-10-26T04:19:16.000Z</time>
      </trkpt>
      <trkpt lat="27.970378" lon="86.82313">
        <ele>5144.6</ele>
        <time>2022-10-26T04:19:22.000Z</time>
      </trkpt>
      <trkpt lat="27.970406" lon="86.823142">
        <ele>5144.6</ele>
        <time>2022-10-26T04:20:35.000Z</time>
      </trkpt>
      <trkpt lat="27.970429" lon="86.823155">
        <ele>5144.6</ele>
        <time>2022-10-26T04:20:37.000Z</time>
      </trkpt>
      <trkpt lat="27.970435" lon="86.823174">
        <ele>5144.6</ele>
        <time>2022-10-26T04:20:38.000Z</time>
      </trkpt>
      <trkpt lat="27.970448" lon="86.823194">
        <ele>5145</ele>
        <time>2022-10-26T04:20:40.000Z</time>
      </trkpt>
      <trkpt lat="27.970454" lon="86.823213">
        <ele>5145</ele>
        <time>2022-10-26T04:20:41.000Z</time>
      </trkpt>
      <trkpt lat="27.970474" lon="86.823232">
        <ele>5145.2</ele>
        <time>2022-10-26T04:20:44.000Z</time>
      </trkpt>
      <trkpt lat="27.970486" lon="86.823251">
        <ele>5144.8</ele>
        <time>2022-10-26T04:20:47.000Z</time>
      </trkpt>
      <trkpt lat="27.970502" lon="86.823264">
        <ele>5145.4</ele>
        <time>2022-10-26T04:20:53.000Z</time>
      </trkpt>
      <trkpt lat="27.970522" lon="86.82327">
        <ele>5146</ele>
        <time>2022-10-26T04:20:57.000Z</time>
      </trkpt>
      <trkpt lat="27.970544" lon="86.823264">
        <ele>5145.8</ele>
        <time>2022-10-26T04:21:00.000Z</time>
      </trkpt>
      <trkpt lat="27.970563" lon="86.823264">
        <ele>5145.2</ele>
        <time>2022-10-26T04:21:03.000Z</time>
      </trkpt>
      <trkpt lat="27.970582" lon="86.82327">
        <ele>5145.4</ele>
        <time>2022-10-26T04:21:09.000Z</time>
      </trkpt>
      <trkpt lat="27.970602" lon="86.823264">
        <ele>5145.4</ele>
        <time>2022-10-26T04:21:14.000Z</time>
      </trkpt>
      <trkpt lat="27.970621" lon="86.823258">
        <ele>5145.2</ele>
        <time>2022-10-26T04:21:18.000Z</time>
      </trkpt>
      <trkpt lat="27.97064" lon="86.823258">
        <ele>5145.4</ele>
        <time>2022-10-26T04:21:23.000Z</time>
      </trkpt>
      <trkpt lat="27.970659" lon="86.823264">
        <ele>5146</ele>
        <time>2022-10-26T04:21:32.000Z</time>
      </trkpt>
      <trkpt lat="27.970678" lon="86.823264">
        <ele>5147</ele>
        <time>2022-10-26T04:21:40.000Z</time>
      </trkpt>
      <trkpt lat="27.970701" lon="86.82327">
        <ele>5148.8</ele>
        <time>2022-10-26T04:22:17.000Z</time>
      </trkpt>
      <trkpt lat="27.97072" lon="86.82327">
        <ele>5148.6</ele>
        <time>2022-10-26T04:22:19.000Z</time>
      </trkpt>
      <trkpt lat="27.970742" lon="86.82327">
        <ele>5148.2</ele>
        <time>2022-10-26T04:22:21.000Z</time>
      </trkpt>
      <trkpt lat="27.970768" lon="86.82327">
        <ele>5148.6</ele>
        <time>2022-10-26T04:22:23.000Z</time>
      </trkpt>
      <trkpt lat="27.97079" lon="86.82327">
        <ele>5148.6</ele>
        <time>2022-10-26T04:22:25.000Z</time>
      </trkpt>
      <trkpt lat="27.970806" lon="86.823283">
        <ele>5148.2</ele>
        <time>2022-10-26T04:22:28.000Z</time>
      </trkpt>
      <trkpt lat="27.970826" lon="86.82327">
        <ele>5149</ele>
        <time>2022-10-26T04:22:31.000Z</time>
      </trkpt>
      <trkpt lat="27.970842" lon="86.823283">
        <ele>5148.6</ele>
        <time>2022-10-26T04:22:33.000Z</time>
      </trkpt>
      <trkpt lat="27.970861" lon="86.823283">
        <ele>5148.6</ele>
        <time>2022-10-26T04:22:36.000Z</time>
      </trkpt>
      <trkpt lat="27.970883" lon="86.823283">
        <ele>5148.6</ele>
        <time>2022-10-26T04:22:40.000Z</time>
      </trkpt>
      <trkpt lat="27.970902" lon="86.82329">
        <ele>5148.6</ele>
        <time>2022-10-26T04:22:44.000Z</time>
      </trkpt>
      <trkpt lat="27.970922" lon="86.823296">
        <ele>5149.8</ele>
        <time>2022-10-26T04:22:50.000Z</time>
      </trkpt>
      <trkpt lat="27.970941" lon="86.82329">
        <ele>5149.4</ele>
        <time>2022-10-26T04:22:54.000Z</time>
      </trkpt>
      <trkpt lat="27.97096" lon="86.82329">
        <ele>5150</ele>
        <time>2022-10-26T04:22:58.000Z</time>
      </trkpt>
      <trkpt lat="27.970979" lon="86.82329">
        <ele>5151</ele>
        <time>2022-10-26T04:23:02.000Z</time>
      </trkpt>
      <trkpt lat="27.970998" lon="86.82329">
        <ele>5151.8</ele>
        <time>2022-10-26T04:23:07.000Z</time>
      </trkpt>
      <trkpt lat="27.971014" lon="86.82327">
        <ele>5152</ele>
        <time>2022-10-26T04:23:12.000Z</time>
      </trkpt>
      <trkpt lat="27.971034" lon="86.823258">
        <ele>5151.8</ele>
        <time>2022-10-26T04:23:16.000Z</time>
      </trkpt>
      <trkpt lat="27.971056" lon="86.823251">
        <ele>5151.8</ele>
        <time>2022-10-26T04:23:19.000Z</time>
      </trkpt>
      <trkpt lat="27.971078" lon="86.823251">
        <ele>5152.2</ele>
        <time>2022-10-26T04:23:22.000Z</time>
      </trkpt>
      <trkpt lat="27.971101" lon="86.823251">
        <ele>5152.2</ele>
        <time>2022-10-26T04:23:25.000Z</time>
      </trkpt>
      <trkpt lat="27.97112" lon="86.823251">
        <ele>5152.2</ele>
        <time>2022-10-26T04:23:27.000Z</time>
      </trkpt>
      <trkpt lat="27.971142" lon="86.823264">
        <ele>5152.2</ele>
        <time>2022-10-26T04:23:30.000Z</time>
      </trkpt>
      <trkpt lat="27.971162" lon="86.823264">
        <ele>5151.8</ele>
        <time>2022-10-26T04:23:32.000Z</time>
      </trkpt>
      <trkpt lat="27.971187" lon="86.82327">
        <ele>5151.8</ele>
        <time>2022-10-26T04:23:36.000Z</time>
      </trkpt>
      <trkpt lat="27.971213" lon="86.82327">
        <ele>5152.2</ele>
        <time>2022-10-26T04:23:40.000Z</time>
      </trkpt>
      <trkpt lat="27.971232" lon="86.823283">
        <ele>5152.4</ele>
        <time>2022-10-26T04:23:43.000Z</time>
      </trkpt>
      <trkpt lat="27.971251" lon="86.823296">
        <ele>5152.8</ele>
        <time>2022-10-26T04:23:46.000Z</time>
      </trkpt>
      <trkpt lat="27.971277" lon="86.823309">
        <ele>5153</ele>
        <time>2022-10-26T04:23:55.000Z</time>
      </trkpt>
      <trkpt lat="27.971286" lon="86.823334">
        <ele>5152.8</ele>
        <time>2022-10-26T04:23:58.000Z</time>
      </trkpt>
      <trkpt lat="27.971299" lon="86.823354">
        <ele>5152.6</ele>
        <time>2022-10-26T04:24:04.000Z</time>
      </trkpt>
      <trkpt lat="27.971293" lon="86.823373">
        <ele>5152.2</ele>
        <time>2022-10-26T04:24:08.000Z</time>
      </trkpt>
      <trkpt lat="27.971299" lon="86.823392">
        <ele>5152.6</ele>
        <time>2022-10-26T04:24:11.000Z</time>
      </trkpt>
      <trkpt lat="27.971309" lon="86.823411">
        <ele>5152</ele>
        <time>2022-10-26T04:24:13.000Z</time>
      </trkpt>
      <trkpt lat="27.971318" lon="86.82343">
        <ele>5151.6</ele>
        <time>2022-10-26T04:24:20.000Z</time>
      </trkpt>
      <trkpt lat="27.971315" lon="86.823456">
        <ele>5151.6</ele>
        <time>2022-10-26T04:24:23.000Z</time>
      </trkpt>
      <trkpt lat="27.971331" lon="86.823501">
        <ele>5151.2</ele>
        <time>2022-10-26T04:25:03.000Z</time>
      </trkpt>
      <trkpt lat="27.971341" lon="86.823533">
        <ele>5151.6</ele>
        <time>2022-10-26T04:25:05.000Z</time>
      </trkpt>
      <trkpt lat="27.971354" lon="86.823565">
        <ele>5151.6</ele>
        <time>2022-10-26T04:25:07.000Z</time>
      </trkpt>
      <trkpt lat="27.97137" lon="86.823578">
        <ele>5151.6</ele>
        <time>2022-10-26T04:25:09.000Z</time>
      </trkpt>
      <trkpt lat="27.971389" lon="86.82359">
        <ele>5151.4</ele>
        <time>2022-10-26T04:25:12.000Z</time>
      </trkpt>
      <trkpt lat="27.971405" lon="86.823603">
        <ele>5151.4</ele>
        <time>2022-10-26T04:25:16.000Z</time>
      </trkpt>
      <trkpt lat="27.971414" lon="86.823622">
        <ele>5151.6</ele>
        <time>2022-10-26T04:25:20.000Z</time>
      </trkpt>
      <trkpt lat="27.971427" lon="86.823642">
        <ele>5152.2</ele>
        <time>2022-10-26T04:25:24.000Z</time>
      </trkpt>
      <trkpt lat="27.971437" lon="86.823661">
        <ele>5152.6</ele>
        <time>2022-10-26T04:25:28.000Z</time>
      </trkpt>
      <trkpt lat="27.971475" lon="86.82368">
        <ele>5153.4</ele>
        <time>2022-10-26T04:25:35.000Z</time>
      </trkpt>
      <trkpt lat="27.971494" lon="86.823686">
        <ele>5153.6</ele>
        <time>2022-10-26T04:25:40.000Z</time>
      </trkpt>
      <trkpt lat="27.971517" lon="86.823686">
        <ele>5154.8</ele>
        <time>2022-10-26T04:25:46.000Z</time>
      </trkpt>
      <trkpt lat="27.971536" lon="86.823686">
        <ele>5154.8</ele>
        <time>2022-10-26T04:25:49.000Z</time>
      </trkpt>
      <trkpt lat="27.971555" lon="86.823693">
        <ele>5155.4</ele>
        <time>2022-10-26T04:25:53.000Z</time>
      </trkpt>
      <trkpt lat="27.971571" lon="86.823706">
        <ele>5155.4</ele>
        <time>2022-10-26T04:25:57.000Z</time>
      </trkpt>
      <trkpt lat="27.971578" lon="86.823725">
        <ele>5156</ele>
        <time>2022-10-26T04:26:00.000Z</time>
      </trkpt>
      <trkpt lat="27.971597" lon="86.823731">
        <ele>5156.6</ele>
        <time>2022-10-26T04:26:05.000Z</time>
      </trkpt>
      <trkpt lat="27.971613" lon="86.82375">
        <ele>5156.8</ele>
        <time>2022-10-26T04:26:10.000Z</time>
      </trkpt>
      <trkpt lat="27.971626" lon="86.82377">
        <ele>5156.6</ele>
        <time>2022-10-26T04:26:13.000Z</time>
      </trkpt>
      <trkpt lat="27.971642" lon="86.823789">
        <ele>5156.8</ele>
        <time>2022-10-26T04:26:17.000Z</time>
      </trkpt>
      <trkpt lat="27.971651" lon="86.823808">
        <ele>5157.2</ele>
        <time>2022-10-26T04:26:21.000Z</time>
      </trkpt>
      <trkpt lat="27.971658" lon="86.823827">
        <ele>5157.4</ele>
        <time>2022-10-26T04:26:25.000Z</time>
      </trkpt>
      <trkpt lat="27.971667" lon="86.823846">
        <ele>5158</ele>
        <time>2022-10-26T04:26:57.000Z</time>
      </trkpt>
      <trkpt lat="27.97168" lon="86.823866">
        <ele>5158</ele>
        <time>2022-10-26T04:26:59.000Z</time>
      </trkpt>
      <trkpt lat="27.971693" lon="86.823885">
        <ele>5157.6</ele>
        <time>2022-10-26T04:27:01.000Z</time>
      </trkpt>
      <trkpt lat="27.971712" lon="86.82391">
        <ele>5157.2</ele>
        <time>2022-10-26T04:27:27.000Z</time>
      </trkpt>
      <trkpt lat="27.971731" lon="86.82391">
        <ele>5156.8</ele>
        <time>2022-10-26T04:27:29.000Z</time>
      </trkpt>
      <trkpt lat="27.971757" lon="86.82391">
        <ele>5156.8</ele>
        <time>2022-10-26T04:27:31.000Z</time>
      </trkpt>
      <trkpt lat="27.971779" lon="86.82393">
        <ele>5156.4</ele>
        <time>2022-10-26T04:27:33.000Z</time>
      </trkpt>
      <trkpt lat="27.971805" lon="86.823936">
        <ele>5156</ele>
        <time>2022-10-26T04:27:35.000Z</time>
      </trkpt>
      <trkpt lat="27.971821" lon="86.823949">
        <ele>5155.2</ele>
        <time>2022-10-26T04:27:40.000Z</time>
      </trkpt>
      <trkpt lat="27.971843" lon="86.823942">
        <ele>5155.4</ele>
        <time>2022-10-26T04:27:46.000Z</time>
      </trkpt>
      <trkpt lat="27.971862" lon="86.823949">
        <ele>5155.2</ele>
        <time>2022-10-26T04:27:49.000Z</time>
      </trkpt>
      <trkpt lat="27.971878" lon="86.823962">
        <ele>5155.4</ele>
        <time>2022-10-26T04:27:52.000Z</time>
      </trkpt>
      <trkpt lat="27.971936" lon="86.824006">
        <ele>5156</ele>
        <time>2022-10-26T04:29:05.000Z</time>
      </trkpt>
      <trkpt lat="27.971955" lon="86.824019">
        <ele>5156.2</ele>
        <time>2022-10-26T04:29:07.000Z</time>
      </trkpt>
      <trkpt lat="27.971978" lon="86.824026">
        <ele>5156</ele>
        <time>2022-10-26T04:29:09.000Z</time>
      </trkpt>
      <trkpt lat="27.971994" lon="86.824038">
        <ele>5155.4</ele>
        <time>2022-10-26T04:29:10.000Z</time>
      </trkpt>
      <trkpt lat="27.972016" lon="86.824045">
        <ele>5155</ele>
        <time>2022-10-26T04:29:12.000Z</time>
      </trkpt>
      <trkpt lat="27.972032" lon="86.824058">
        <ele>5154.6</ele>
        <time>2022-10-26T04:29:14.000Z</time>
      </trkpt>
      <trkpt lat="27.972054" lon="86.824058">
        <ele>5154.6</ele>
        <time>2022-10-26T04:29:19.000Z</time>
      </trkpt>
      <trkpt lat="27.972074" lon="86.824058">
        <ele>5154.2</ele>
        <time>2022-10-26T04:29:24.000Z</time>
      </trkpt>
      <trkpt lat="27.972093" lon="86.824045">
        <ele>5154</ele>
        <time>2022-10-26T04:29:27.000Z</time>
      </trkpt>
      <trkpt lat="27.972112" lon="86.824045">
        <ele>5153.6</ele>
        <time>2022-10-26T04:29:30.000Z</time>
      </trkpt>
      <trkpt lat="27.972128" lon="86.824058">
        <ele>5152.6</ele>
        <time>2022-10-26T04:29:42.000Z</time>
      </trkpt>
      <trkpt lat="27.972147" lon="86.824083">
        <ele>5152.6</ele>
        <time>2022-10-26T04:29:45.000Z</time>
      </trkpt>
      <trkpt lat="27.97216" lon="86.824102">
        <ele>5152.2</ele>
        <time>2022-10-26T04:29:48.000Z</time>
      </trkpt>
      <trkpt lat="27.97217" lon="86.824122">
        <ele>5151.4</ele>
        <time>2022-10-26T04:29:51.000Z</time>
      </trkpt>
      <trkpt lat="27.972189" lon="86.824109">
        <ele>5152</ele>
        <time>2022-10-26T04:30:01.000Z</time>
      </trkpt>
      <trkpt lat="27.972205" lon="86.824122">
        <ele>5152</ele>
        <time>2022-10-26T04:30:03.000Z</time>
      </trkpt>
      <trkpt lat="27.972211" lon="86.824141">
        <ele>5152</ele>
        <time>2022-10-26T04:30:05.000Z</time>
      </trkpt>
      <trkpt lat="27.972205" lon="86.82416">
        <ele>5152.4</ele>
        <time>2022-10-26T04:30:07.000Z</time>
      </trkpt>
      <trkpt lat="27.972182" lon="86.824166">
        <ele>5152</ele>
        <time>2022-10-26T04:30:13.000Z</time>
      </trkpt>
      <trkpt lat="27.972221" lon="86.824141">
        <ele>5154.2</ele>
        <time>2022-10-26T04:33:03.000Z</time>
      </trkpt>
      <trkpt lat="27.97224" lon="86.824122">
        <ele>5154.2</ele>
        <time>2022-10-26T04:33:05.000Z</time>
      </trkpt>
      <trkpt lat="27.972259" lon="86.824109">
        <ele>5154.2</ele>
        <time>2022-10-26T04:33:07.000Z</time>
      </trkpt>
      <trkpt lat="27.972278" lon="86.82409">
        <ele>5154.2</ele>
        <time>2022-10-26T04:33:09.000Z</time>
      </trkpt>
      <trkpt lat="27.972294" lon="86.824077">
        <ele>5154.4</ele>
        <time>2022-10-26T04:33:11.000Z</time>
      </trkpt>
      <trkpt lat="27.97231" lon="86.824064">
        <ele>5154.4</ele>
        <time>2022-10-26T04:33:12.000Z</time>
      </trkpt>
      <trkpt lat="27.97233" lon="86.824064">
        <ele>5154.4</ele>
        <time>2022-10-26T04:33:15.000Z</time>
      </trkpt>
      <trkpt lat="27.972349" lon="86.824064">
        <ele>5154.6</ele>
        <time>2022-10-26T04:33:19.000Z</time>
      </trkpt>
      <trkpt lat="27.972362" lon="86.824083">
        <ele>5155</ele>
        <time>2022-10-26T04:33:22.000Z</time>
      </trkpt>
      <trkpt lat="27.972381" lon="86.82409">
        <ele>5155</ele>
        <time>2022-10-26T04:33:27.000Z</time>
      </trkpt>
      <trkpt lat="27.9724" lon="86.824096">
        <ele>5155.6</ele>
        <time>2022-10-26T04:33:31.000Z</time>
      </trkpt>
      <trkpt lat="27.972419" lon="86.824102">
        <ele>5155.6</ele>
        <time>2022-10-26T04:33:36.000Z</time>
      </trkpt>
      <trkpt lat="27.97265" lon="86.824333">
        <ele>5166.2</ele>
        <time>2022-10-26T04:36:05.000Z</time>
      </trkpt>
      <trkpt lat="27.972659" lon="86.824358">
        <ele>5167.2</ele>
        <time>2022-10-26T04:36:07.000Z</time>
      </trkpt>
      <trkpt lat="27.972672" lon="86.824378">
        <ele>5167.4</ele>
        <time>2022-10-26T04:36:09.000Z</time>
      </trkpt>
      <trkpt lat="27.972688" lon="86.824397">
        <ele>5167.2</ele>
        <time>2022-10-26T04:36:11.000Z</time>
      </trkpt>
      <trkpt lat="27.972701" lon="86.824416">
        <ele>5167.4</ele>
        <time>2022-10-26T04:36:13.000Z</time>
      </trkpt>
      <trkpt lat="27.97272" lon="86.824422">
        <ele>5168</ele>
        <time>2022-10-26T04:36:16.000Z</time>
      </trkpt>
      <trkpt lat="27.97273" lon="86.824442">
        <ele>5168.8</ele>
        <time>2022-10-26T04:36:25.000Z</time>
      </trkpt>
      <trkpt lat="27.972736" lon="86.824461">
        <ele>5169.2</ele>
        <time>2022-10-26T04:36:29.000Z</time>
      </trkpt>
      <trkpt lat="27.972742" lon="86.82448">
        <ele>5169.4</ele>
        <time>2022-10-26T04:36:31.000Z</time>
      </trkpt>
      <trkpt lat="27.972746" lon="86.824518">
        <ele>5170.2</ele>
        <time>2022-10-26T04:37:27.000Z</time>
      </trkpt>
      <trkpt lat="27.972752" lon="86.824544">
        <ele>5170.2</ele>
        <time>2022-10-26T04:37:29.000Z</time>
      </trkpt>
      <trkpt lat="27.972758" lon="86.82457">
        <ele>5170.6</ele>
        <time>2022-10-26T04:37:31.000Z</time>
      </trkpt>
      <trkpt lat="27.972762" lon="86.824595">
        <ele>5170.2</ele>
        <time>2022-10-26T04:37:33.000Z</time>
      </trkpt>
      <trkpt lat="27.972768" lon="86.824614">
        <ele>5170</ele>
        <time>2022-10-26T04:37:35.000Z</time>
      </trkpt>
      <trkpt lat="27.972771" lon="86.82464">
        <ele>5170.4</ele>
        <time>2022-10-26T04:37:38.000Z</time>
      </trkpt>
      <trkpt lat="27.972781" lon="86.824659">
        <ele>5170</ele>
        <time>2022-10-26T04:37:43.000Z</time>
      </trkpt>
      <trkpt lat="27.972784" lon="86.824685">
        <ele>5171.6</ele>
        <time>2022-10-26T04:37:49.000Z</time>
      </trkpt>
      <trkpt lat="27.97281" lon="86.82473">
        <ele>5172.4</ele>
        <time>2022-10-26T04:38:47.000Z</time>
      </trkpt>
      <trkpt lat="27.972816" lon="86.824755">
        <ele>5172.8</ele>
        <time>2022-10-26T04:38:50.000Z</time>
      </trkpt>
      <trkpt lat="27.972826" lon="86.8248">
        <ele>5173.8</ele>
        <time>2022-10-26T04:39:20.000Z</time>
      </trkpt>
      <trkpt lat="27.972826" lon="86.824832">
        <ele>5175</ele>
        <time>2022-10-26T04:39:22.000Z</time>
      </trkpt>
      <trkpt lat="27.972826" lon="86.824858">
        <ele>5175.2</ele>
        <time>2022-10-26T04:39:24.000Z</time>
      </trkpt>
      <trkpt lat="27.972826" lon="86.82489">
        <ele>5174.6</ele>
        <time>2022-10-26T04:39:26.000Z</time>
      </trkpt>
      <trkpt lat="27.972832" lon="86.824922">
        <ele>5175</ele>
        <time>2022-10-26T04:39:28.000Z</time>
      </trkpt>
      <trkpt lat="27.972838" lon="86.824941">
        <ele>5176</ele>
        <time>2022-10-26T04:39:37.000Z</time>
      </trkpt>
      <trkpt lat="27.972838" lon="86.824966">
        <ele>5174.8</ele>
        <time>2022-10-26T04:41:23.000Z</time>
      </trkpt>
      <trkpt lat="27.972861" lon="86.824992">
        <ele>5174.2</ele>
        <time>2022-10-26T04:41:25.000Z</time>
      </trkpt>
      <trkpt lat="27.97289" lon="86.825005">
        <ele>5174</ele>
        <time>2022-10-26T04:41:27.000Z</time>
      </trkpt>
      <trkpt lat="27.972915" lon="86.825018">
        <ele>5174.2</ele>
        <time>2022-10-26T04:41:29.000Z</time>
      </trkpt>
      <trkpt lat="27.972934" lon="86.82503">
        <ele>5174</ele>
        <time>2022-10-26T04:41:31.000Z</time>
      </trkpt>
      <trkpt lat="27.973088" lon="86.825088">
        <ele>5171</ele>
        <time>2022-10-26T04:43:42.000Z</time>
      </trkpt>
      <trkpt lat="27.973107" lon="86.825088">
        <ele>5171.6</ele>
        <time>2022-10-26T04:43:44.000Z</time>
      </trkpt>
      <trkpt lat="27.973126" lon="86.825088">
        <ele>5171.6</ele>
        <time>2022-10-26T04:43:45.000Z</time>
      </trkpt>
      <trkpt lat="27.973155" lon="86.825094">
        <ele>5171.6</ele>
        <time>2022-10-26T04:43:47.000Z</time>
      </trkpt>
      <trkpt lat="27.973178" lon="86.825094">
        <ele>5172</ele>
        <time>2022-10-26T04:43:49.000Z</time>
      </trkpt>
      <trkpt lat="27.973203" lon="86.825088">
        <ele>5171.6</ele>
        <time>2022-10-26T04:43:51.000Z</time>
      </trkpt>
      <trkpt lat="27.973222" lon="86.825088">
        <ele>5170.2</ele>
        <time>2022-10-26T04:43:54.000Z</time>
      </trkpt>
      <trkpt lat="27.973242" lon="86.825094">
        <ele>5170.2</ele>
        <time>2022-10-26T04:43:56.000Z</time>
      </trkpt>
      <trkpt lat="27.973261" lon="86.825101">
        <ele>5169.2</ele>
        <time>2022-10-26T04:43:58.000Z</time>
      </trkpt>
      <trkpt lat="27.973277" lon="86.825114">
        <ele>5169.2</ele>
        <time>2022-10-26T04:44:02.000Z</time>
      </trkpt>
      <trkpt lat="27.973296" lon="86.825114">
        <ele>5168.4</ele>
        <time>2022-10-26T04:44:06.000Z</time>
      </trkpt>
      <trkpt lat="27.973315" lon="86.825114">
        <ele>5168.2</ele>
        <time>2022-10-26T04:44:11.000Z</time>
      </trkpt>
      <trkpt lat="27.973334" lon="86.825114">
        <ele>5168.2</ele>
        <time>2022-10-26T04:44:13.000Z</time>
      </trkpt>
      <trkpt lat="27.973354" lon="86.825114">
        <ele>5167.6</ele>
        <time>2022-10-26T04:44:15.000Z</time>
      </trkpt>
      <trkpt lat="27.973373" lon="86.825101">
        <ele>5167.6</ele>
        <time>2022-10-26T04:44:18.000Z</time>
      </trkpt>
      <trkpt lat="27.973392" lon="86.825101">
        <ele>5167.2</ele>
        <time>2022-10-26T04:44:21.000Z</time>
      </trkpt>
      <trkpt lat="27.973414" lon="86.825101">
        <ele>5166.4</ele>
        <time>2022-10-26T04:44:32.000Z</time>
      </trkpt>
      <trkpt lat="27.973434" lon="86.825101">
        <ele>5166.2</ele>
        <time>2022-10-26T04:44:35.000Z</time>
      </trkpt>
      <trkpt lat="27.973453" lon="86.825114">
        <ele>5165.4</ele>
        <time>2022-10-26T04:44:37.000Z</time>
      </trkpt>
      <trkpt lat="27.973472" lon="86.82512">
        <ele>5164</ele>
        <time>2022-10-26T04:44:44.000Z</time>
      </trkpt>
      <trkpt lat="27.973485" lon="86.825139">
        <ele>5163.6</ele>
        <time>2022-10-26T04:44:48.000Z</time>
      </trkpt>
      <trkpt lat="27.973501" lon="86.825158">
        <ele>5165</ele>
        <time>2022-10-26T04:44:53.000Z</time>
      </trkpt>
      <trkpt lat="27.97352" lon="86.825165">
        <ele>5164.4</ele>
        <time>2022-10-26T04:44:58.000Z</time>
      </trkpt>
      <trkpt lat="27.973565" lon="86.82519">
        <ele>5164.4</ele>
        <time>2022-10-26T04:45:05.000Z</time>
      </trkpt>
      <trkpt lat="27.973584" lon="86.825197">
        <ele>5164.8</ele>
        <time>2022-10-26T04:45:11.000Z</time>
      </trkpt>
      <trkpt lat="27.973603" lon="86.825197">
        <ele>5164.8</ele>
        <time>2022-10-26T04:45:20.000Z</time>
      </trkpt>
      <trkpt lat="27.973622" lon="86.82519">
        <ele>5165</ele>
        <time>2022-10-26T04:45:23.000Z</time>
      </trkpt>
      <trkpt lat="27.973642" lon="86.82519">
        <ele>5165</ele>
        <time>2022-10-26T04:45:27.000Z</time>
      </trkpt>
      <trkpt lat="27.973664" lon="86.825197">
        <ele>5163.8</ele>
        <time>2022-10-26T04:45:43.000Z</time>
      </trkpt>
      <trkpt lat="27.973693" lon="86.825197">
        <ele>5163.8</ele>
        <time>2022-10-26T04:45:45.000Z</time>
      </trkpt>
      <trkpt lat="27.973722" lon="86.82521">
        <ele>5163.2</ele>
        <time>2022-10-26T04:45:48.000Z</time>
      </trkpt>
      <trkpt lat="27.973741" lon="86.825216">
        <ele>5163.6</ele>
        <time>2022-10-26T04:45:50.000Z</time>
      </trkpt>
      <trkpt lat="27.97376" lon="86.825216">
        <ele>5164</ele>
        <time>2022-10-26T04:46:25.000Z</time>
      </trkpt>
      <trkpt lat="27.973786" lon="86.825229">
        <ele>5163.6</ele>
        <time>2022-10-26T04:46:27.000Z</time>
      </trkpt>
      <trkpt lat="27.973811" lon="86.825229">
        <ele>5163.6</ele>
        <time>2022-10-26T04:46:29.000Z</time>
      </trkpt>
      <trkpt lat="27.973834" lon="86.825229">
        <ele>5163.6</ele>
        <time>2022-10-26T04:46:31.000Z</time>
      </trkpt>
      <trkpt lat="27.973853" lon="86.825235">
        <ele>5163.4</ele>
        <time>2022-10-26T04:47:09.000Z</time>
      </trkpt>
      <trkpt lat="27.973885" lon="86.825229">
        <ele>5163.2</ele>
        <time>2022-10-26T04:47:11.000Z</time>
      </trkpt>
      <trkpt lat="27.973917" lon="86.825229">
        <ele>5162.4</ele>
        <time>2022-10-26T04:47:13.000Z</time>
      </trkpt>
      <trkpt lat="27.973946" lon="86.825235">
        <ele>5162</ele>
        <time>2022-10-26T04:47:15.000Z</time>
      </trkpt>
      <trkpt lat="27.973968" lon="86.825235">
        <ele>5161.6</ele>
        <time>2022-10-26T04:47:17.000Z</time>
      </trkpt>
      <trkpt lat="27.973997" lon="86.825235">
        <ele>5161.8</ele>
        <time>2022-10-26T04:47:44.000Z</time>
      </trkpt>
      <trkpt lat="27.974019" lon="86.825216">
        <ele>5161</ele>
        <time>2022-10-26T04:47:46.000Z</time>
      </trkpt>
      <trkpt lat="27.974038" lon="86.82521">
        <ele>5160.8</ele>
        <time>2022-10-26T04:47:48.000Z</time>
      </trkpt>
      <trkpt lat="27.974058" lon="86.825197">
        <ele>5161</ele>
        <time>2022-10-26T04:47:50.000Z</time>
      </trkpt>
      <trkpt lat="27.97408" lon="86.825197">
        <ele>5160.8</ele>
        <time>2022-10-26T04:47:52.000Z</time>
      </trkpt>
      <trkpt lat="27.974099" lon="86.82519">
        <ele>5160.8</ele>
        <time>2022-10-26T04:47:55.000Z</time>
      </trkpt>
      <trkpt lat="27.974118" lon="86.82519">
        <ele>5161.2</ele>
        <time>2022-10-26T04:47:57.000Z</time>
      </trkpt>
      <trkpt lat="27.974141" lon="86.825178">
        <ele>5161.6</ele>
        <time>2022-10-26T04:48:00.000Z</time>
      </trkpt>
      <trkpt lat="27.97416" lon="86.825171">
        <ele>5161.6</ele>
        <time>2022-10-26T04:48:03.000Z</time>
      </trkpt>
      <trkpt lat="27.974186" lon="86.825158">
        <ele>5161.8</ele>
        <time>2022-10-26T04:48:06.000Z</time>
      </trkpt>
      <trkpt lat="27.974205" lon="86.825158">
        <ele>5161.8</ele>
        <time>2022-10-26T04:48:09.000Z</time>
      </trkpt>
      <trkpt lat="27.974224" lon="86.825152">
        <ele>5162.2</ele>
        <time>2022-10-26T04:48:12.000Z</time>
      </trkpt>
      <trkpt lat="27.974237" lon="86.825133">
        <ele>5162.4</ele>
        <time>2022-10-26T04:48:15.000Z</time>
      </trkpt>
      <trkpt lat="27.974256" lon="86.825114">
        <ele>5162.4</ele>
        <time>2022-10-26T04:48:19.000Z</time>
      </trkpt>
      <trkpt lat="27.974275" lon="86.825114">
        <ele>5163.4</ele>
        <time>2022-10-26T04:48:23.000Z</time>
      </trkpt>
      <trkpt lat="27.974291" lon="86.825094">
        <ele>5163.6</ele>
        <time>2022-10-26T04:48:26.000Z</time>
      </trkpt>
      <trkpt lat="27.974317" lon="86.825094">
        <ele>5163.6</ele>
        <time>2022-10-26T04:48:31.000Z</time>
      </trkpt>
      <trkpt lat="27.974336" lon="86.825088">
        <ele>5163.6</ele>
        <time>2022-10-26T04:48:35.000Z</time>
      </trkpt>
      <trkpt lat="27.974355" lon="86.825082">
        <ele>5163.4</ele>
        <time>2022-10-26T04:48:41.000Z</time>
      </trkpt>
      <trkpt lat="27.974374" lon="86.825075">
        <ele>5163.6</ele>
        <time>2022-10-26T04:48:44.000Z</time>
      </trkpt>
      <trkpt lat="27.974397" lon="86.825056">
        <ele>5163.4</ele>
        <time>2022-10-26T04:48:47.000Z</time>
      </trkpt>
      <trkpt lat="27.974419" lon="86.82505">
        <ele>5163.2</ele>
        <time>2022-10-26T04:48:50.000Z</time>
      </trkpt>
      <trkpt lat="27.974429" lon="86.82503">
        <ele>5162.6</ele>
        <time>2022-10-26T04:48:53.000Z</time>
      </trkpt>
      <trkpt lat="27.974445" lon="86.825011">
        <ele>5163.2</ele>
        <time>2022-10-26T04:48:56.000Z</time>
      </trkpt>
      <trkpt lat="27.974464" lon="86.825005">
        <ele>5163</ele>
        <time>2022-10-26T04:49:05.000Z</time>
      </trkpt>
      <trkpt lat="27.974486" lon="86.825018">
        <ele>5163.6</ele>
        <time>2022-10-26T04:49:09.000Z</time>
      </trkpt>
      <trkpt lat="27.974506" lon="86.82503">
        <ele>5163.6</ele>
        <time>2022-10-26T04:49:14.000Z</time>
      </trkpt>
      <trkpt lat="27.974525" lon="86.82503">
        <ele>5163.6</ele>
        <time>2022-10-26T04:49:17.000Z</time>
      </trkpt>
      <trkpt lat="27.974544" lon="86.825018">
        <ele>5163.2</ele>
        <time>2022-10-26T04:49:22.000Z</time>
      </trkpt>
      <trkpt lat="27.974576" lon="86.825037">
        <ele>5160.8</ele>
        <time>2022-10-26T04:49:52.000Z</time>
      </trkpt>
      <trkpt lat="27.974602" lon="86.825043">
        <ele>5161</ele>
        <time>2022-10-26T04:49:54.000Z</time>
      </trkpt>
      <trkpt lat="27.974634" lon="86.825043">
        <ele>5161</ele>
        <time>2022-10-26T04:49:56.000Z</time>
      </trkpt>
      <trkpt lat="27.974662" lon="86.82505">
        <ele>5161</ele>
        <time>2022-10-26T04:49:58.000Z</time>
      </trkpt>
      <trkpt lat="27.974688" lon="86.825056">
        <ele>5160.6</ele>
        <time>2022-10-26T04:50:00.000Z</time>
      </trkpt>
      <trkpt lat="27.974707" lon="86.825056">
        <ele>5160.4</ele>
        <time>2022-10-26T04:50:02.000Z</time>
      </trkpt>
      <trkpt lat="27.974726" lon="86.825069">
        <ele>5160.6</ele>
        <time>2022-10-26T04:50:04.000Z</time>
      </trkpt>
      <trkpt lat="27.974742" lon="86.825088">
        <ele>5160.4</ele>
        <time>2022-10-26T04:50:07.000Z</time>
      </trkpt>
      <trkpt lat="27.974762" lon="86.825088">
        <ele>5160.6</ele>
        <time>2022-10-26T04:50:10.000Z</time>
      </trkpt>
      <trkpt lat="27.97479" lon="86.825101">
        <ele>5160</ele>
        <time>2022-10-26T04:50:38.000Z</time>
      </trkpt>
      <trkpt lat="27.974819" lon="86.825114">
        <ele>5160</ele>
        <time>2022-10-26T04:50:40.000Z</time>
      </trkpt>
      <trkpt lat="27.974842" lon="86.825126">
        <ele>5160</ele>
        <time>2022-10-26T04:50:42.000Z</time>
      </trkpt>
      <trkpt lat="27.974867" lon="86.825139">
        <ele>5160</ele>
        <time>2022-10-26T04:50:44.000Z</time>
      </trkpt>
      <trkpt lat="27.974893" lon="86.825158">
        <ele>5160.4</ele>
        <time>2022-10-26T04:50:46.000Z</time>
      </trkpt>
      <trkpt lat="27.974912" lon="86.825165">
        <ele>5160.4</ele>
        <time>2022-10-26T04:50:50.000Z</time>
      </trkpt>
      <trkpt lat="27.974934" lon="86.825165">
        <ele>5160.4</ele>
        <time>2022-10-26T04:50:53.000Z</time>
      </trkpt>
      <trkpt lat="27.974954" lon="86.825171">
        <ele>5159.6</ele>
        <time>2022-10-26T04:50:57.000Z</time>
      </trkpt>
      <trkpt lat="27.974973" lon="86.825171">
        <ele>5159.2</ele>
        <time>2022-10-26T04:50:59.000Z</time>
      </trkpt>
      <trkpt lat="27.974992" lon="86.825171">
        <ele>5159.2</ele>
        <time>2022-10-26T04:51:01.000Z</time>
      </trkpt>
      <trkpt lat="27.975011" lon="86.825178">
        <ele>5159.2</ele>
        <time>2022-10-26T04:51:03.000Z</time>
      </trkpt>
      <trkpt lat="27.97503" lon="86.825178">
        <ele>5159.2</ele>
        <time>2022-10-26T04:51:06.000Z</time>
      </trkpt>
      <trkpt lat="27.975053" lon="86.82519">
        <ele>5159</ele>
        <time>2022-10-26T04:51:09.000Z</time>
      </trkpt>
      <trkpt lat="27.975069" lon="86.825178">
        <ele>5159.6</ele>
        <time>2022-10-26T04:51:12.000Z</time>
      </trkpt>
      <trkpt lat="27.975091" lon="86.825158">
        <ele>5159.6</ele>
        <time>2022-10-26T04:51:20.000Z</time>
      </trkpt>
      <trkpt lat="27.97511" lon="86.825152">
        <ele>5159.8</ele>
        <time>2022-10-26T04:51:23.000Z</time>
      </trkpt>
      <trkpt lat="27.975126" lon="86.825133">
        <ele>5159.8</ele>
        <time>2022-10-26T04:51:48.000Z</time>
      </trkpt>
      <trkpt lat="27.975149" lon="86.82512">
        <ele>5159.4</ele>
        <time>2022-10-26T04:51:50.000Z</time>
      </trkpt>
      <trkpt lat="27.975171" lon="86.825101">
        <ele>5159.8</ele>
        <time>2022-10-26T04:51:53.000Z</time>
      </trkpt>
      <trkpt lat="27.9752" lon="86.825082">
        <ele>5159.8</ele>
        <time>2022-10-26T04:51:57.000Z</time>
      </trkpt>
      <trkpt lat="27.975219" lon="86.825069">
        <ele>5160.6</ele>
        <time>2022-10-26T04:52:27.000Z</time>
      </trkpt>
      <trkpt lat="27.975232" lon="86.825043">
        <ele>5161</ele>
        <time>2022-10-26T04:52:29.000Z</time>
      </trkpt>
      <trkpt lat="27.975248" lon="86.82503">
        <ele>5160.8</ele>
        <time>2022-10-26T04:52:31.000Z</time>
      </trkpt>
      <trkpt lat="27.975264" lon="86.825011">
        <ele>5161</ele>
        <time>2022-10-26T04:52:33.000Z</time>
      </trkpt>
      <trkpt lat="27.975283" lon="86.824998">
        <ele>5160.8</ele>
        <time>2022-10-26T04:52:37.000Z</time>
      </trkpt>
      <trkpt lat="27.975296" lon="86.824979">
        <ele>5161</ele>
        <time>2022-10-26T04:52:42.000Z</time>
      </trkpt>
      <trkpt lat="27.975302" lon="86.82496">
        <ele>5161</ele>
        <time>2022-10-26T04:52:46.000Z</time>
      </trkpt>
      <trkpt lat="27.975318" lon="86.824941">
        <ele>5161.4</ele>
        <time>2022-10-26T04:52:49.000Z</time>
      </trkpt>
      <trkpt lat="27.975334" lon="86.824928">
        <ele>5162</ele>
        <time>2022-10-26T04:52:52.000Z</time>
      </trkpt>
      <trkpt lat="27.975344" lon="86.824902">
        <ele>5161.6</ele>
        <time>2022-10-26T04:52:56.000Z</time>
      </trkpt>
      <trkpt lat="27.97536" lon="86.824883">
        <ele>5161.4</ele>
        <time>2022-10-26T04:53:01.000Z</time>
      </trkpt>
      <trkpt lat="27.975363" lon="86.824858">
        <ele>5161</ele>
        <time>2022-10-26T04:53:05.000Z</time>
      </trkpt>
      <trkpt lat="27.975373" lon="86.824838">
        <ele>5160.8</ele>
        <time>2022-10-26T04:53:09.000Z</time>
      </trkpt>
      <trkpt lat="27.975376" lon="86.824813">
        <ele>5160.8</ele>
        <time>2022-10-26T04:53:14.000Z</time>
      </trkpt>
      <trkpt lat="27.975392" lon="86.8248">
        <ele>5161.2</ele>
        <time>2022-10-26T04:53:23.000Z</time>
      </trkpt>
      <trkpt lat="27.975398" lon="86.824781">
        <ele>5161.2</ele>
        <time>2022-10-26T04:53:25.000Z</time>
      </trkpt>
      <trkpt lat="27.975405" lon="86.824762">
        <ele>5161.4</ele>
        <time>2022-10-26T04:53:30.000Z</time>
      </trkpt>
      <trkpt lat="27.975414" lon="86.824742">
        <ele>5161.2</ele>
        <time>2022-10-26T04:53:33.000Z</time>
      </trkpt>
      <trkpt lat="27.97543" lon="86.824723">
        <ele>5162</ele>
        <time>2022-10-26T04:54:01.000Z</time>
      </trkpt>
      <trkpt lat="27.975437" lon="86.824704">
        <ele>5162</ele>
        <time>2022-10-26T04:54:02.000Z</time>
      </trkpt>
      <trkpt lat="27.975443" lon="86.824678">
        <ele>5161.8</ele>
        <time>2022-10-26T04:54:05.000Z</time>
      </trkpt>
      <trkpt lat="27.975453" lon="86.824653">
        <ele>5162</ele>
        <time>2022-10-26T04:54:07.000Z</time>
      </trkpt>
      <trkpt lat="27.975462" lon="86.824634">
        <ele>5162.6</ele>
        <time>2022-10-26T04:54:09.000Z</time>
      </trkpt>
      <trkpt lat="27.975472" lon="86.824614">
        <ele>5162.6</ele>
        <time>2022-10-26T04:54:12.000Z</time>
      </trkpt>
      <trkpt lat="27.975488" lon="86.824602">
        <ele>5163</ele>
        <time>2022-10-26T04:54:17.000Z</time>
      </trkpt>
      <trkpt lat="27.975501" lon="86.824582">
        <ele>5163</ele>
        <time>2022-10-26T04:54:22.000Z</time>
      </trkpt>
      <trkpt lat="27.97552" lon="86.824582">
        <ele>5163</ele>
        <time>2022-10-26T04:54:27.000Z</time>
      </trkpt>
      <trkpt lat="27.975542" lon="86.824576">
        <ele>5163.2</ele>
        <time>2022-10-26T04:54:31.000Z</time>
      </trkpt>
      <trkpt lat="27.975562" lon="86.82457">
        <ele>5163.8</ele>
        <time>2022-10-26T04:54:40.000Z</time>
      </trkpt>
      <trkpt lat="27.975613" lon="86.824538">
        <ele>5166</ele>
        <time>2022-10-26T05:00:36.000Z</time>
      </trkpt>
      <trkpt lat="27.975638" lon="86.824531">
        <ele>5166.2</ele>
        <time>2022-10-26T05:00:38.000Z</time>
      </trkpt>
      <trkpt lat="27.975702" lon="86.824506">
        <ele>5165.6</ele>
        <time>2022-10-26T05:00:59.000Z</time>
      </trkpt>
      <trkpt lat="27.975734" lon="86.824499">
        <ele>5165</ele>
        <time>2022-10-26T05:01:01.000Z</time>
      </trkpt>
      <trkpt lat="27.975754" lon="86.824493">
        <ele>5165</ele>
        <time>2022-10-26T05:01:02.000Z</time>
      </trkpt>
      <trkpt lat="27.975786" lon="86.824486">
        <ele>5165</ele>
        <time>2022-10-26T05:01:04.000Z</time>
      </trkpt>
      <trkpt lat="27.975808" lon="86.824474">
        <ele>5165</ele>
        <time>2022-10-26T05:01:06.000Z</time>
      </trkpt>
      <trkpt lat="27.97583" lon="86.824461">
        <ele>5165.8</ele>
        <time>2022-10-26T05:01:08.000Z</time>
      </trkpt>
      <trkpt lat="27.97585" lon="86.824448">
        <ele>5166.4</ele>
        <time>2022-10-26T05:01:11.000Z</time>
      </trkpt>
      <trkpt lat="27.975862" lon="86.824422">
        <ele>5165.8</ele>
        <time>2022-10-26T05:01:15.000Z</time>
      </trkpt>
      <trkpt lat="27.975869" lon="86.824403">
        <ele>5165.6</ele>
        <time>2022-10-26T05:01:18.000Z</time>
      </trkpt>
      <trkpt lat="27.975885" lon="86.824384">
        <ele>5165.2</ele>
        <time>2022-10-26T05:01:22.000Z</time>
      </trkpt>
      <trkpt lat="27.975904" lon="86.824384">
        <ele>5164.4</ele>
        <time>2022-10-26T05:01:25.000Z</time>
      </trkpt>
      <trkpt lat="27.975926" lon="86.824384">
        <ele>5163.8</ele>
        <time>2022-10-26T05:01:28.000Z</time>
      </trkpt>
      <trkpt lat="27.975946" lon="86.824384">
        <ele>5164.8</ele>
        <time>2022-10-26T05:01:34.000Z</time>
      </trkpt>
      <trkpt lat="27.975994" lon="86.824346">
        <ele>5162.4</ele>
        <time>2022-10-26T05:02:51.000Z</time>
      </trkpt>
      <trkpt lat="27.976006" lon="86.82432">
        <ele>5162</ele>
        <time>2022-10-26T05:02:54.000Z</time>
      </trkpt>
      <trkpt lat="27.976022" lon="86.824301">
        <ele>5161.8</ele>
        <time>2022-10-26T05:02:56.000Z</time>
      </trkpt>
      <trkpt lat="27.976042" lon="86.824294">
        <ele>5161.8</ele>
        <time>2022-10-26T05:02:58.000Z</time>
      </trkpt>
      <trkpt lat="27.976064" lon="86.824282">
        <ele>5161.6</ele>
        <time>2022-10-26T05:03:00.000Z</time>
      </trkpt>
      <trkpt lat="27.976083" lon="86.824282">
        <ele>5161</ele>
        <time>2022-10-26T05:03:02.000Z</time>
      </trkpt>
      <trkpt lat="27.976099" lon="86.824262">
        <ele>5160.6</ele>
        <time>2022-10-26T05:03:08.000Z</time>
      </trkpt>
      <trkpt lat="27.976122" lon="86.82425">
        <ele>5160.4</ele>
        <time>2022-10-26T05:03:11.000Z</time>
      </trkpt>
      <trkpt lat="27.976147" lon="86.824256">
        <ele>5159.8</ele>
        <time>2022-10-26T05:03:14.000Z</time>
      </trkpt>
      <trkpt lat="27.976166" lon="86.824256">
        <ele>5159.2</ele>
        <time>2022-10-26T05:03:16.000Z</time>
      </trkpt>
      <trkpt lat="27.976189" lon="86.824256">
        <ele>5158.8</ele>
        <time>2022-10-26T05:03:18.000Z</time>
      </trkpt>
      <trkpt lat="27.976208" lon="86.824256">
        <ele>5158.4</ele>
        <time>2022-10-26T05:03:20.000Z</time>
      </trkpt>
      <trkpt lat="27.976227" lon="86.824243">
        <ele>5157.8</ele>
        <time>2022-10-26T05:03:23.000Z</time>
      </trkpt>
      <trkpt lat="27.976246" lon="86.824243">
        <ele>5157.8</ele>
        <time>2022-10-26T05:03:26.000Z</time>
      </trkpt>
      <trkpt lat="27.976262" lon="86.824256">
        <ele>5157.2</ele>
        <time>2022-10-26T05:03:29.000Z</time>
      </trkpt>
      <trkpt lat="27.976266" lon="86.824282">
        <ele>5157</ele>
        <time>2022-10-26T05:03:33.000Z</time>
      </trkpt>
      <trkpt lat="27.976272" lon="86.824301">
        <ele>5155.8</ele>
        <time>2022-10-26T05:03:38.000Z</time>
      </trkpt>
      <trkpt lat="27.976291" lon="86.824307">
        <ele>5155.2</ele>
        <time>2022-10-26T05:03:45.000Z</time>
      </trkpt>
      <trkpt lat="27.97631" lon="86.82432">
        <ele>5153.8</ele>
        <time>2022-10-26T05:03:49.000Z</time>
      </trkpt>
      <trkpt lat="27.976326" lon="86.824339">
        <ele>5152.4</ele>
        <time>2022-10-26T05:03:52.000Z</time>
      </trkpt>
      <trkpt lat="27.976336" lon="86.824358">
        <ele>5152.4</ele>
        <time>2022-10-26T05:03:54.000Z</time>
      </trkpt>
      <trkpt lat="27.976355" lon="86.824378">
        <ele>5153</ele>
        <time>2022-10-26T05:03:58.000Z</time>
      </trkpt>
      <trkpt lat="27.976365" lon="86.824403">
        <ele>5153</ele>
        <time>2022-10-26T05:04:00.000Z</time>
      </trkpt>
      <trkpt lat="27.976381" lon="86.824416">
        <ele>5151.8</ele>
        <time>2022-10-26T05:04:04.000Z</time>
      </trkpt>
      <trkpt lat="27.9764" lon="86.824422">
        <ele>5152.4</ele>
        <time>2022-10-26T05:04:07.000Z</time>
      </trkpt>
      <trkpt lat="27.976416" lon="86.824435">
        <ele>5152.8</ele>
        <time>2022-10-26T05:04:10.000Z</time>
      </trkpt>
      <trkpt lat="27.976432" lon="86.824448">
        <ele>5152.6</ele>
        <time>2022-10-26T05:04:15.000Z</time>
      </trkpt>
      <trkpt lat="27.976451" lon="86.824474">
        <ele>5152.4</ele>
        <time>2022-10-26T05:04:21.000Z</time>
      </trkpt>
      <trkpt lat="27.976464" lon="86.824493">
        <ele>5153.8</ele>
        <time>2022-10-26T05:04:24.000Z</time>
      </trkpt>
      <trkpt lat="27.976486" lon="86.824506">
        <ele>5151.8</ele>
        <time>2022-10-26T05:04:27.000Z</time>
      </trkpt>
      <trkpt lat="27.976493" lon="86.824531">
        <ele>5151</ele>
        <time>2022-10-26T05:04:30.000Z</time>
      </trkpt>
      <trkpt lat="27.97648" lon="86.824557">
        <ele>5149.4</ele>
        <time>2022-10-26T05:04:36.000Z</time>
      </trkpt>
      <trkpt lat="27.976474" lon="86.824576">
        <ele>5149.2</ele>
        <time>2022-10-26T05:04:40.000Z</time>
      </trkpt>
      <trkpt lat="27.97649" lon="86.824595">
        <ele>5150.6</ele>
        <time>2022-10-26T05:04:47.000Z</time>
      </trkpt>
      <trkpt lat="27.976502" lon="86.824614">
        <ele>5150.8</ele>
        <time>2022-10-26T05:04:53.000Z</time>
      </trkpt>
      <trkpt lat="27.976512" lon="86.824634">
        <ele>5150.8</ele>
        <time>2022-10-26T05:04:58.000Z</time>
      </trkpt>
      <trkpt lat="27.976515" lon="86.824659">
        <ele>5151</ele>
        <time>2022-10-26T05:05:04.000Z</time>
      </trkpt>
      <trkpt lat="27.976509" lon="86.824678">
        <ele>5150.2</ele>
        <time>2022-10-26T05:05:07.000Z</time>
      </trkpt>
      <trkpt lat="27.976499" lon="86.824698">
        <ele>5150.2</ele>
        <time>2022-10-26T05:05:10.000Z</time>
      </trkpt>
      <trkpt lat="27.976483" lon="86.824717">
        <ele>5149.2</ele>
        <time>2022-10-26T05:05:14.000Z</time>
      </trkpt>
      <trkpt lat="27.976483" lon="86.824742">
        <ele>5150.4</ele>
        <time>2022-10-26T05:05:29.000Z</time>
      </trkpt>
      <trkpt lat="27.97647" lon="86.824762">
        <ele>5150.6</ele>
        <time>2022-10-26T05:05:32.000Z</time>
      </trkpt>
      <trkpt lat="27.976461" lon="86.824781">
        <ele>5151.2</ele>
        <time>2022-10-26T05:05:35.000Z</time>
      </trkpt>
      <trkpt lat="27.976461" lon="86.824806">
        <ele>5150.8</ele>
        <time>2022-10-26T05:05:39.000Z</time>
      </trkpt>
      <trkpt lat="27.976477" lon="86.824832">
        <ele>5149.8</ele>
        <time>2022-10-26T05:05:45.000Z</time>
      </trkpt>
      <trkpt lat="27.97647" lon="86.824851">
        <ele>5149.4</ele>
        <time>2022-10-26T05:05:48.000Z</time>
      </trkpt>
      <trkpt lat="27.97647" lon="86.824877">
        <ele>5149.4</ele>
        <time>2022-10-26T05:05:51.000Z</time>
      </trkpt>
      <trkpt lat="27.976464" lon="86.824902">
        <ele>5150</ele>
        <time>2022-10-26T05:05:56.000Z</time>
      </trkpt>
      <trkpt lat="27.976461" lon="86.824928">
        <ele>5150.2</ele>
        <time>2022-10-26T05:05:59.000Z</time>
      </trkpt>
      <trkpt lat="27.976454" lon="86.824954">
        <ele>5150.2</ele>
        <time>2022-10-26T05:06:08.000Z</time>
      </trkpt>
      <trkpt lat="27.976534" lon="86.825101">
        <ele>5157.2</ele>
        <time>2022-10-26T05:08:02.000Z</time>
      </trkpt>
      <trkpt lat="27.976534" lon="86.825126">
        <ele>5157.8</ele>
        <time>2022-10-26T05:08:04.000Z</time>
      </trkpt>
      <trkpt lat="27.976534" lon="86.825152">
        <ele>5158</ele>
        <time>2022-10-26T05:08:06.000Z</time>
      </trkpt>
      <trkpt lat="27.976534" lon="86.825178">
        <ele>5158</ele>
        <time>2022-10-26T05:08:09.000Z</time>
      </trkpt>
      <trkpt lat="27.976534" lon="86.825203">
        <ele>5157.4</ele>
        <time>2022-10-26T05:08:11.000Z</time>
      </trkpt>
      <trkpt lat="27.976525" lon="86.825229">
        <ele>5157.4</ele>
        <time>2022-10-26T05:08:16.000Z</time>
      </trkpt>
      <trkpt lat="27.976515" lon="86.825248">
        <ele>5157.6</ele>
        <time>2022-10-26T05:08:22.000Z</time>
      </trkpt>
      <trkpt lat="27.976512" lon="86.825274">
        <ele>5158</ele>
        <time>2022-10-26T05:08:25.000Z</time>
      </trkpt>
      <trkpt lat="27.976506" lon="86.825293">
        <ele>5157</ele>
        <time>2022-10-26T05:08:28.000Z</time>
      </trkpt>
      <trkpt lat="27.976506" lon="86.825318">
        <ele>5155.4</ele>
        <time>2022-10-26T05:08:31.000Z</time>
      </trkpt>
      <trkpt lat="27.976515" lon="86.825338">
        <ele>5156</ele>
        <time>2022-10-26T05:08:36.000Z</time>
      </trkpt>
      <trkpt lat="27.976531" lon="86.825357">
        <ele>5156</ele>
        <time>2022-10-26T05:08:39.000Z</time>
      </trkpt>
      <trkpt lat="27.976534" lon="86.825389">
        <ele>5156</ele>
        <time>2022-10-26T05:08:45.000Z</time>
      </trkpt>
      <trkpt lat="27.97655" lon="86.825408">
        <ele>5156.8</ele>
        <time>2022-10-26T05:08:49.000Z</time>
      </trkpt>
      <trkpt lat="27.97656" lon="86.825427">
        <ele>5156.2</ele>
        <time>2022-10-26T05:08:52.000Z</time>
      </trkpt>
      <trkpt lat="27.976541" lon="86.825722">
        <ele>5171</ele>
        <time>2022-10-26T05:13:07.000Z</time>
      </trkpt>
      <trkpt lat="27.97655" lon="86.825754">
        <ele>5171.2</ele>
        <time>2022-10-26T05:13:10.000Z</time>
      </trkpt>
      <trkpt lat="27.97655" lon="86.825786">
        <ele>5171</ele>
        <time>2022-10-26T05:13:13.000Z</time>
      </trkpt>
      <trkpt lat="27.97656" lon="86.825811">
        <ele>5171.4</ele>
        <time>2022-10-26T05:13:17.000Z</time>
      </trkpt>
      <trkpt lat="27.976566" lon="86.825837">
        <ele>5172.4</ele>
        <time>2022-10-26T05:13:27.000Z</time>
      </trkpt>
      <trkpt lat="27.976586" lon="86.82583">
        <ele>5173.4</ele>
        <time>2022-10-26T05:13:35.000Z</time>
      </trkpt>
      <trkpt lat="27.976602" lon="86.825811">
        <ele>5174</ele>
        <time>2022-10-26T05:13:44.000Z</time>
      </trkpt>
      <trkpt lat="27.976621" lon="86.825811">
        <ele>5174.6</ele>
        <time>2022-10-26T05:13:50.000Z</time>
      </trkpt>
      <trkpt lat="27.976688" lon="86.825869">
        <ele>5177.4</ele>
        <time>2022-10-26T05:14:38.000Z</time>
      </trkpt>
      <trkpt lat="27.97671" lon="86.825888">
        <ele>5177.4</ele>
        <time>2022-10-26T05:14:41.000Z</time>
      </trkpt>
      <trkpt lat="27.976723" lon="86.825907">
        <ele>5177.2</ele>
        <time>2022-10-26T05:14:43.000Z</time>
      </trkpt>
      <trkpt lat="27.976742" lon="86.82592">
        <ele>5177.4</ele>
        <time>2022-10-26T05:14:45.000Z</time>
      </trkpt>
      <trkpt lat="27.976755" lon="86.825946">
        <ele>5177.2</ele>
        <time>2022-10-26T05:14:47.000Z</time>
      </trkpt>
      <trkpt lat="27.976762" lon="86.825971">
        <ele>5176.6</ele>
        <time>2022-10-26T05:14:51.000Z</time>
      </trkpt>
      <trkpt lat="27.976768" lon="86.825997">
        <ele>5175.6</ele>
        <time>2022-10-26T05:14:54.000Z</time>
      </trkpt>
      <trkpt lat="27.976781" lon="86.826022">
        <ele>5175.6</ele>
        <time>2022-10-26T05:14:59.000Z</time>
      </trkpt>
      <trkpt lat="27.976787" lon="86.826042">
        <ele>5175.6</ele>
        <time>2022-10-26T05:15:03.000Z</time>
      </trkpt>
      <trkpt lat="27.976794" lon="86.826067">
        <ele>5175.8</ele>
        <time>2022-10-26T05:15:31.000Z</time>
      </trkpt>
      <trkpt lat="27.97681" lon="86.82608">
        <ele>5175.4</ele>
        <time>2022-10-26T05:15:33.000Z</time>
      </trkpt>
      <trkpt lat="27.976826" lon="86.826093">
        <ele>5175.8</ele>
        <time>2022-10-26T05:15:35.000Z</time>
      </trkpt>
      <trkpt lat="27.976858" lon="86.826125">
        <ele>5176.6</ele>
        <time>2022-10-26T05:15:39.000Z</time>
      </trkpt>
      <trkpt lat="27.976877" lon="86.826125">
        <ele>5177.4</ele>
        <time>2022-10-26T05:15:44.000Z</time>
      </trkpt>
      <trkpt lat="27.976899" lon="86.826118">
        <ele>5178.8</ele>
        <time>2022-10-26T05:15:51.000Z</time>
      </trkpt>
      <trkpt lat="27.976918" lon="86.826118">
        <ele>5179.8</ele>
        <time>2022-10-26T05:15:58.000Z</time>
      </trkpt>
      <trkpt lat="27.976941" lon="86.826118">
        <ele>5179.8</ele>
        <time>2022-10-26T05:16:04.000Z</time>
      </trkpt>
      <trkpt lat="27.97696" lon="86.826118">
        <ele>5180.4</ele>
        <time>2022-10-26T05:16:08.000Z</time>
      </trkpt>
      <trkpt lat="27.976979" lon="86.826118">
        <ele>5181.6</ele>
        <time>2022-10-26T05:16:15.000Z</time>
      </trkpt>
      <trkpt lat="27.97703" lon="86.826112">
        <ele>5180.6</ele>
        <time>2022-10-26T05:17:15.000Z</time>
      </trkpt>
      <trkpt lat="27.977059" lon="86.826112">
        <ele>5180</ele>
        <time>2022-10-26T05:17:17.000Z</time>
      </trkpt>
      <trkpt lat="27.977088" lon="86.826106">
        <ele>5180.4</ele>
        <time>2022-10-26T05:17:19.000Z</time>
      </trkpt>
      <trkpt lat="27.977117" lon="86.826106">
        <ele>5180.4</ele>
        <time>2022-10-26T05:17:21.000Z</time>
      </trkpt>
      <trkpt lat="27.977146" lon="86.826112">
        <ele>5180.4</ele>
        <time>2022-10-26T05:17:23.000Z</time>
      </trkpt>
      <trkpt lat="27.977165" lon="86.826118">
        <ele>5180.6</ele>
        <time>2022-10-26T05:17:25.000Z</time>
      </trkpt>
      <trkpt lat="27.977181" lon="86.826131">
        <ele>5180</ele>
        <time>2022-10-26T05:17:28.000Z</time>
      </trkpt>
      <trkpt lat="27.977187" lon="86.826157">
        <ele>5179.4</ele>
        <time>2022-10-26T05:17:31.000Z</time>
      </trkpt>
      <trkpt lat="27.97721" lon="86.82617">
        <ele>5180.6</ele>
        <time>2022-10-26T05:17:34.000Z</time>
      </trkpt>
      <trkpt lat="27.977222" lon="86.826189">
        <ele>5179.4</ele>
        <time>2022-10-26T05:17:37.000Z</time>
      </trkpt>
      <trkpt lat="27.977238" lon="86.826202">
        <ele>5179.4</ele>
        <time>2022-10-26T05:17:41.000Z</time>
      </trkpt>
      <trkpt lat="27.977242" lon="86.826227">
        <ele>5179.2</ele>
        <time>2022-10-26T05:17:44.000Z</time>
      </trkpt>
      <trkpt lat="27.977258" lon="86.826246">
        <ele>5180.2</ele>
        <time>2022-10-26T05:17:50.000Z</time>
      </trkpt>
      <trkpt lat="27.977264" lon="86.826266">
        <ele>5179.6</ele>
        <time>2022-10-26T05:17:55.000Z</time>
      </trkpt>
      <trkpt lat="27.97728" lon="86.826278">
        <ele>5181</ele>
        <time>2022-10-26T05:18:01.000Z</time>
      </trkpt>
      <trkpt lat="27.977296" lon="86.826304">
        <ele>5180.4</ele>
        <time>2022-10-26T05:18:05.000Z</time>
      </trkpt>
      <trkpt lat="27.977312" lon="86.826323">
        <ele>5181.4</ele>
        <time>2022-10-26T05:18:18.000Z</time>
      </trkpt>
      <trkpt lat="27.977328" lon="86.826342">
        <ele>5181</ele>
        <time>2022-10-26T05:18:21.000Z</time>
      </trkpt>
      <trkpt lat="27.977341" lon="86.826362">
        <ele>5180.8</ele>
        <time>2022-10-26T05:18:24.000Z</time>
      </trkpt>
      <trkpt lat="27.977363" lon="86.826368">
        <ele>5180.4</ele>
        <time>2022-10-26T05:18:27.000Z</time>
      </trkpt>
      <trkpt lat="27.977379" lon="86.826387">
        <ele>5180.2</ele>
        <time>2022-10-26T05:18:30.000Z</time>
      </trkpt>
      <trkpt lat="27.977398" lon="86.826394">
        <ele>5180.2</ele>
        <time>2022-10-26T05:18:32.000Z</time>
      </trkpt>
      <trkpt lat="27.977418" lon="86.8264">
        <ele>5180.4</ele>
        <time>2022-10-26T05:18:34.000Z</time>
      </trkpt>
      <trkpt lat="27.977427" lon="86.826426">
        <ele>5180.2</ele>
        <time>2022-10-26T05:18:36.000Z</time>
      </trkpt>
      <trkpt lat="27.977443" lon="86.826445">
        <ele>5179.2</ele>
        <time>2022-10-26T05:18:39.000Z</time>
      </trkpt>
      <trkpt lat="27.977453" lon="86.82647">
        <ele>5179.2</ele>
        <time>2022-10-26T05:18:41.000Z</time>
      </trkpt>
      <trkpt lat="27.977462" lon="86.82649">
        <ele>5179</ele>
        <time>2022-10-26T05:18:44.000Z</time>
      </trkpt>
      <trkpt lat="27.977469" lon="86.826515">
        <ele>5180</ele>
        <time>2022-10-26T05:18:46.000Z</time>
      </trkpt>
      <trkpt lat="27.977488" lon="86.826528">
        <ele>5179.2</ele>
        <time>2022-10-26T05:18:49.000Z</time>
      </trkpt>
      <trkpt lat="27.977504" lon="86.826547">
        <ele>5180</ele>
        <time>2022-10-26T05:18:52.000Z</time>
      </trkpt>
      <trkpt lat="27.97752" lon="86.82656">
        <ele>5180.4</ele>
        <time>2022-10-26T05:18:56.000Z</time>
      </trkpt>
      <trkpt lat="27.97753" lon="86.826579">
        <ele>5180.6</ele>
        <time>2022-10-26T05:18:58.000Z</time>
      </trkpt>
      <trkpt lat="27.977546" lon="86.826598">
        <ele>5179.4</ele>
        <time>2022-10-26T05:19:03.000Z</time>
      </trkpt>
      <trkpt lat="27.977565" lon="86.826605">
        <ele>5178.4</ele>
        <time>2022-10-26T05:19:07.000Z</time>
      </trkpt>
      <trkpt lat="27.977584" lon="86.826624">
        <ele>5177.8</ele>
        <time>2022-10-26T05:19:10.000Z</time>
      </trkpt>
      <trkpt lat="27.977606" lon="86.82663">
        <ele>5177.4</ele>
        <time>2022-10-26T05:19:13.000Z</time>
      </trkpt>
      <trkpt lat="27.977622" lon="86.826643">
        <ele>5176.8</ele>
        <time>2022-10-26T05:19:16.000Z</time>
      </trkpt>
      <trkpt lat="27.977642" lon="86.826643">
        <ele>5177.6</ele>
        <time>2022-10-26T05:19:19.000Z</time>
      </trkpt>
      <trkpt lat="27.977661" lon="86.82665">
        <ele>5178.2</ele>
        <time>2022-10-26T05:19:23.000Z</time>
      </trkpt>
      <trkpt lat="27.977683" lon="86.826662">
        <ele>5179</ele>
        <time>2022-10-26T05:19:27.000Z</time>
      </trkpt>
      <trkpt lat="27.977702" lon="86.826662">
        <ele>5179</ele>
        <time>2022-10-26T05:19:31.000Z</time>
      </trkpt>
      <trkpt lat="27.977725" lon="86.826669">
        <ele>5180</ele>
        <time>2022-10-26T05:19:34.000Z</time>
      </trkpt>
      <trkpt lat="27.977744" lon="86.826669">
        <ele>5179.8</ele>
        <time>2022-10-26T05:19:38.000Z</time>
      </trkpt>
      <trkpt lat="27.977763" lon="86.826682">
        <ele>5180.6</ele>
        <time>2022-10-26T05:19:42.000Z</time>
      </trkpt>
      <trkpt lat="27.977776" lon="86.826701">
        <ele>5180</ele>
        <time>2022-10-26T05:19:45.000Z</time>
      </trkpt>
      <trkpt lat="27.977798" lon="86.826714">
        <ele>5180.4</ele>
        <time>2022-10-26T05:19:49.000Z</time>
      </trkpt>
      <trkpt lat="27.977818" lon="86.826714">
        <ele>5180.8</ele>
        <time>2022-10-26T05:19:55.000Z</time>
      </trkpt>
      <trkpt lat="27.977834" lon="86.826726">
        <ele>5180.4</ele>
        <time>2022-10-26T05:20:01.000Z</time>
      </trkpt>
      <trkpt lat="27.977843" lon="86.826758">
        <ele>5182.2</ele>
        <time>2022-10-26T05:21:58.000Z</time>
      </trkpt>
      <trkpt lat="27.977866" lon="86.826765">
        <ele>5182</ele>
        <time>2022-10-26T05:22:00.000Z</time>
      </trkpt>
      <trkpt lat="27.977891" lon="86.826778">
        <ele>5182.2</ele>
        <time>2022-10-26T05:22:02.000Z</time>
      </trkpt>
      <trkpt lat="27.97792" lon="86.826784">
        <ele>5182.2</ele>
        <time>2022-10-26T05:22:04.000Z</time>
      </trkpt>
      <trkpt lat="27.977949" lon="86.826784">
        <ele>5182</ele>
        <time>2022-10-26T05:22:06.000Z</time>
      </trkpt>
      <trkpt lat="27.977974" lon="86.826784">
        <ele>5182.2</ele>
        <time>2022-10-26T05:22:09.000Z</time>
      </trkpt>
      <trkpt lat="27.977997" lon="86.826778">
        <ele>5182.2</ele>
        <time>2022-10-26T05:22:13.000Z</time>
      </trkpt>
      <trkpt lat="27.978016" lon="86.826784">
        <ele>5182.6</ele>
        <time>2022-10-26T05:22:17.000Z</time>
      </trkpt>
      <trkpt lat="27.978035" lon="86.82679">
        <ele>5184.4</ele>
        <time>2022-10-26T05:22:23.000Z</time>
      </trkpt>
      <trkpt lat="27.978054" lon="86.826797">
        <ele>5184.4</ele>
        <time>2022-10-26T05:22:28.000Z</time>
      </trkpt>
      <trkpt lat="27.97807" lon="86.82681">
        <ele>5184.8</ele>
        <time>2022-10-26T05:22:34.000Z</time>
      </trkpt>
      <trkpt lat="27.978109" lon="86.826829">
        <ele>5186.8</ele>
        <time>2022-10-26T05:23:45.000Z</time>
      </trkpt>
      <trkpt lat="27.978131" lon="86.826829">
        <ele>5186.8</ele>
        <time>2022-10-26T05:23:47.000Z</time>
      </trkpt>
      <trkpt lat="27.97815" lon="86.826829">
        <ele>5186.8</ele>
        <time>2022-10-26T05:23:49.000Z</time>
      </trkpt>
      <trkpt lat="27.97817" lon="86.826835">
        <ele>5187.2</ele>
        <time>2022-10-26T05:23:51.000Z</time>
      </trkpt>
      <trkpt lat="27.97824" lon="86.82688">
        <ele>5189.4</ele>
        <time>2022-10-26T05:24:43.000Z</time>
      </trkpt>
      <trkpt lat="27.978253" lon="86.826899">
        <ele>5189.6</ele>
        <time>2022-10-26T05:24:45.000Z</time>
      </trkpt>
      <trkpt lat="27.978288" lon="86.826912">
        <ele>5190.8</ele>
        <time>2022-10-26T05:25:10.000Z</time>
      </trkpt>
      <trkpt lat="27.978298" lon="86.826938">
        <ele>5190.8</ele>
        <time>2022-10-26T05:25:12.000Z</time>
      </trkpt>
      <trkpt lat="27.97831" lon="86.826957">
        <ele>5190.8</ele>
        <time>2022-10-26T05:25:14.000Z</time>
      </trkpt>
      <trkpt lat="27.978317" lon="86.826989">
        <ele>5190.6</ele>
        <time>2022-10-26T05:25:16.000Z</time>
      </trkpt>
      <trkpt lat="27.97832" lon="86.827021">
        <ele>5190.6</ele>
        <time>2022-10-26T05:25:18.000Z</time>
      </trkpt>
      <trkpt lat="27.97833" lon="86.82704">
        <ele>5192</ele>
        <time>2022-10-26T05:25:21.000Z</time>
      </trkpt>
      <trkpt lat="27.978339" lon="86.827059">
        <ele>5191.8</ele>
        <time>2022-10-26T05:25:24.000Z</time>
      </trkpt>
      <trkpt lat="27.978355" lon="86.827046">
        <ele>5192</ele>
        <time>2022-10-26T05:25:27.000Z</time>
      </trkpt>
      <trkpt lat="27.978374" lon="86.827059">
        <ele>5191.6</ele>
        <time>2022-10-26T05:25:30.000Z</time>
      </trkpt>
      <trkpt lat="27.978378" lon="86.827085">
        <ele>5191.6</ele>
        <time>2022-10-26T05:25:34.000Z</time>
      </trkpt>
      <trkpt lat="27.978384" lon="86.827104">
        <ele>5192</ele>
        <time>2022-10-26T05:25:36.000Z</time>
      </trkpt>
      <trkpt lat="27.97839" lon="86.827123">
        <ele>5191.4</ele>
        <time>2022-10-26T05:25:40.000Z</time>
      </trkpt>
      <trkpt lat="27.978397" lon="86.827142">
        <ele>5191.4</ele>
        <time>2022-10-26T05:25:43.000Z</time>
      </trkpt>
      <trkpt lat="27.97841" lon="86.827194">
        <ele>5192.4</ele>
        <time>2022-10-26T05:25:55.000Z</time>
      </trkpt>
      <trkpt lat="27.978429" lon="86.827194">
        <ele>5194</ele>
        <time>2022-10-26T05:26:03.000Z</time>
      </trkpt>
      <trkpt lat="27.978448" lon="86.827187">
        <ele>5195.4</ele>
        <time>2022-10-26T05:26:09.000Z</time>
      </trkpt>
      <trkpt lat="27.978464" lon="86.8272">
        <ele>5195.2</ele>
        <time>2022-10-26T05:26:16.000Z</time>
      </trkpt>
      <trkpt lat="27.978477" lon="86.827219">
        <ele>5196</ele>
        <time>2022-10-26T05:26:20.000Z</time>
      </trkpt>
      <trkpt lat="27.97849" lon="86.827238">
        <ele>5196.4</ele>
        <time>2022-10-26T05:26:25.000Z</time>
      </trkpt>
      <trkpt lat="27.978496" lon="86.827258">
        <ele>5196.4</ele>
        <time>2022-10-26T05:26:28.000Z</time>
      </trkpt>
      <trkpt lat="27.978502" lon="86.827277">
        <ele>5196.2</ele>
        <time>2022-10-26T05:26:32.000Z</time>
      </trkpt>
      <trkpt lat="27.978509" lon="86.827296">
        <ele>5195.4</ele>
        <time>2022-10-26T05:26:35.000Z</time>
      </trkpt>
      <trkpt lat="27.978531" lon="86.827315">
        <ele>5193.6</ele>
        <time>2022-10-26T05:27:05.000Z</time>
      </trkpt>
      <trkpt lat="27.97855" lon="86.827334">
        <ele>5193.6</ele>
        <time>2022-10-26T05:27:07.000Z</time>
      </trkpt>
      <trkpt lat="27.97857" lon="86.827347">
        <ele>5193.8</ele>
        <time>2022-10-26T05:27:09.000Z</time>
      </trkpt>
      <trkpt lat="27.978589" lon="86.827373">
        <ele>5194</ele>
        <time>2022-10-26T05:27:11.000Z</time>
      </trkpt>
      <trkpt lat="27.978608" lon="86.827386">
        <ele>5194</ele>
        <time>2022-10-26T05:27:13.000Z</time>
      </trkpt>
      <trkpt lat="27.978608" lon="86.827418">
        <ele>5193.6</ele>
        <time>2022-10-26T05:27:19.000Z</time>
      </trkpt>
      <trkpt lat="27.978614" lon="86.827437">
        <ele>5194.8</ele>
        <time>2022-10-26T05:27:25.000Z</time>
      </trkpt>
      <trkpt lat="27.978634" lon="86.827443">
        <ele>5195.6</ele>
        <time>2022-10-26T05:27:33.000Z</time>
      </trkpt>
      <trkpt lat="27.978646" lon="86.827533">
        <ele>5200</ele>
        <time>2022-10-26T05:28:21.000Z</time>
      </trkpt>
      <trkpt lat="27.978656" lon="86.827571">
        <ele>5201</ele>
        <time>2022-10-26T05:28:23.000Z</time>
      </trkpt>
      <trkpt lat="27.978662" lon="86.827597">
        <ele>5201</ele>
        <time>2022-10-26T05:28:25.000Z</time>
      </trkpt>
      <trkpt lat="27.978666" lon="86.827622">
        <ele>5201</ele>
        <time>2022-10-26T05:28:27.000Z</time>
      </trkpt>
      <trkpt lat="27.978675" lon="86.827654">
        <ele>5201</ele>
        <time>2022-10-26T05:28:29.000Z</time>
      </trkpt>
      <trkpt lat="27.978688" lon="86.827674">
        <ele>5201</ele>
        <time>2022-10-26T05:28:32.000Z</time>
      </trkpt>
      <trkpt lat="27.978698" lon="86.827693">
        <ele>5201.2</ele>
        <time>2022-10-26T05:28:35.000Z</time>
      </trkpt>
      <trkpt lat="27.978704" lon="86.827712">
        <ele>5200.8</ele>
        <time>2022-10-26T05:28:39.000Z</time>
      </trkpt>
      <trkpt lat="27.978707" lon="86.827738">
        <ele>5201.2</ele>
        <time>2022-10-26T05:28:42.000Z</time>
      </trkpt>
      <trkpt lat="27.978717" lon="86.827757">
        <ele>5200.8</ele>
        <time>2022-10-26T05:28:47.000Z</time>
      </trkpt>
      <trkpt lat="27.978726" lon="86.827776">
        <ele>5201.4</ele>
        <time>2022-10-26T05:28:50.000Z</time>
      </trkpt>
      <trkpt lat="27.97872" lon="86.827802">
        <ele>5201.6</ele>
        <time>2022-10-26T05:28:55.000Z</time>
      </trkpt>
      <trkpt lat="27.978726" lon="86.827827">
        <ele>5201.6</ele>
        <time>2022-10-26T05:28:59.000Z</time>
      </trkpt>
      <trkpt lat="27.97873" lon="86.827853">
        <ele>5202.2</ele>
        <time>2022-10-26T05:29:04.000Z</time>
      </trkpt>
      <trkpt lat="27.978749" lon="86.827866">
        <ele>5201.2</ele>
        <time>2022-10-26T05:29:15.000Z</time>
      </trkpt>
      <trkpt lat="27.978768" lon="86.827872">
        <ele>5201.8</ele>
        <time>2022-10-26T05:29:46.000Z</time>
      </trkpt>
      <trkpt lat="27.978816" lon="86.827872">
        <ele>5201.4</ele>
        <time>2022-10-26T05:29:53.000Z</time>
      </trkpt>
      <trkpt lat="27.978838" lon="86.827872">
        <ele>5200.2</ele>
        <time>2022-10-26T05:30:11.000Z</time>
      </trkpt>
      <trkpt lat="27.978858" lon="86.827872">
        <ele>5200.2</ele>
        <time>2022-10-26T05:30:13.000Z</time>
      </trkpt>
      <trkpt lat="27.978883" lon="86.827878">
        <ele>5199.8</ele>
        <time>2022-10-26T05:30:15.000Z</time>
      </trkpt>
      <trkpt lat="27.978906" lon="86.827898">
        <ele>5199.8</ele>
        <time>2022-10-26T05:30:17.000Z</time>
      </trkpt>
      <trkpt lat="27.978928" lon="86.82791">
        <ele>5199.2</ele>
        <time>2022-10-26T05:30:20.000Z</time>
      </trkpt>
      <trkpt lat="27.97895" lon="86.827917">
        <ele>5198.6</ele>
        <time>2022-10-26T05:30:23.000Z</time>
      </trkpt>
      <trkpt lat="27.978966" lon="86.82793">
        <ele>5197.4</ele>
        <time>2022-10-26T05:30:26.000Z</time>
      </trkpt>
      <trkpt lat="27.978989" lon="86.827936">
        <ele>5196.8</ele>
        <time>2022-10-26T05:30:29.000Z</time>
      </trkpt>
      <trkpt lat="27.979005" lon="86.827949">
        <ele>5196.2</ele>
        <time>2022-10-26T05:30:32.000Z</time>
      </trkpt>
      <trkpt lat="27.979021" lon="86.827974">
        <ele>5196</ele>
        <time>2022-10-26T05:30:36.000Z</time>
      </trkpt>
      <trkpt lat="27.979043" lon="86.827981">
        <ele>5195.4</ele>
        <time>2022-10-26T05:30:40.000Z</time>
      </trkpt>
      <trkpt lat="27.979059" lon="86.828">
        <ele>5194.6</ele>
        <time>2022-10-26T05:30:47.000Z</time>
      </trkpt>
      <trkpt lat="27.979066" lon="86.828026">
        <ele>5193.6</ele>
        <time>2022-10-26T05:30:55.000Z</time>
      </trkpt>
      <trkpt lat="27.979082" lon="86.828038">
        <ele>5193.4</ele>
        <time>2022-10-26T05:30:59.000Z</time>
      </trkpt>
      <trkpt lat="27.979075" lon="86.828064">
        <ele>5192</ele>
        <time>2022-10-26T05:31:02.000Z</time>
      </trkpt>
      <trkpt lat="27.979091" lon="86.828077">
        <ele>5192.2</ele>
        <time>2022-10-26T05:31:05.000Z</time>
      </trkpt>
      <trkpt lat="27.979114" lon="86.828077">
        <ele>5191.6</ele>
        <time>2022-10-26T05:31:08.000Z</time>
      </trkpt>
      <trkpt lat="27.979133" lon="86.828096">
        <ele>5190.8</ele>
        <time>2022-10-26T05:31:12.000Z</time>
      </trkpt>
      <trkpt lat="27.979152" lon="86.828109">
        <ele>5190.2</ele>
        <time>2022-10-26T05:31:16.000Z</time>
      </trkpt>
      <trkpt lat="27.979162" lon="86.828128">
        <ele>5189.8</ele>
        <time>2022-10-26T05:31:23.000Z</time>
      </trkpt>
      <trkpt lat="27.979181" lon="86.828147">
        <ele>5189.2</ele>
        <time>2022-10-26T05:31:29.000Z</time>
      </trkpt>
      <trkpt lat="27.979203" lon="86.82816">
        <ele>5188.2</ele>
        <time>2022-10-26T05:31:32.000Z</time>
      </trkpt>
      <trkpt lat="27.979226" lon="86.828173">
        <ele>5187.8</ele>
        <time>2022-10-26T05:31:35.000Z</time>
      </trkpt>
      <trkpt lat="27.979242" lon="86.828186">
        <ele>5186.6</ele>
        <time>2022-10-26T05:31:45.000Z</time>
      </trkpt>
      <trkpt lat="27.979251" lon="86.828211">
        <ele>5186.4</ele>
        <time>2022-10-26T05:31:49.000Z</time>
      </trkpt>
      <trkpt lat="27.979254" lon="86.828237">
        <ele>5185.2</ele>
        <time>2022-10-26T05:31:53.000Z</time>
      </trkpt>
      <trkpt lat="27.979274" lon="86.828256">
        <ele>5184.6</ele>
        <time>2022-10-26T05:31:56.000Z</time>
      </trkpt>
      <trkpt lat="27.979293" lon="86.828256">
        <ele>5184</ele>
        <time>2022-10-26T05:31:59.000Z</time>
      </trkpt>
      <trkpt lat="27.979318" lon="86.828256">
        <ele>5183.8</ele>
        <time>2022-10-26T05:32:02.000Z</time>
      </trkpt>
      <trkpt lat="27.979338" lon="86.828262">
        <ele>5183.4</ele>
        <time>2022-10-26T05:32:05.000Z</time>
      </trkpt>
      <trkpt lat="27.979363" lon="86.828256">
        <ele>5183.4</ele>
        <time>2022-10-26T05:32:08.000Z</time>
      </trkpt>
      <trkpt lat="27.979386" lon="86.828262">
        <ele>5183</ele>
        <time>2022-10-26T05:32:11.000Z</time>
      </trkpt>
      <trkpt lat="27.979405" lon="86.828269">
        <ele>5183.2</ele>
        <time>2022-10-26T05:32:14.000Z</time>
      </trkpt>
      <trkpt lat="27.979424" lon="86.828256">
        <ele>5183</ele>
        <time>2022-10-26T05:32:16.000Z</time>
      </trkpt>
      <trkpt lat="27.979443" lon="86.828269">
        <ele>5182.4</ele>
        <time>2022-10-26T05:32:18.000Z</time>
      </trkpt>
      <trkpt lat="27.979453" lon="86.828288">
        <ele>5182.4</ele>
        <time>2022-10-26T05:32:20.000Z</time>
      </trkpt>
      <trkpt lat="27.979462" lon="86.828307">
        <ele>5182.4</ele>
        <time>2022-10-26T05:32:24.000Z</time>
      </trkpt>
      <trkpt lat="27.979469" lon="86.828326">
        <ele>5182.4</ele>
        <time>2022-10-26T05:32:25.000Z</time>
      </trkpt>
      <trkpt lat="27.979491" lon="86.828333">
        <ele>5182.6</ele>
        <time>2022-10-26T05:32:33.000Z</time>
      </trkpt>
      <trkpt lat="27.979507" lon="86.828346">
        <ele>5183</ele>
        <time>2022-10-26T05:32:44.000Z</time>
      </trkpt>
      <trkpt lat="27.97953" lon="86.828358">
        <ele>5183</ele>
        <time>2022-10-26T05:32:47.000Z</time>
      </trkpt>
      <trkpt lat="27.979552" lon="86.828358">
        <ele>5182.6</ele>
        <time>2022-10-26T05:32:50.000Z</time>
      </trkpt>
      <trkpt lat="27.979571" lon="86.828378">
        <ele>5183</ele>
        <time>2022-10-26T05:32:53.000Z</time>
      </trkpt>
      <trkpt lat="27.979587" lon="86.82839">
        <ele>5183</ele>
        <time>2022-10-26T05:32:56.000Z</time>
      </trkpt>
      <trkpt lat="27.9796" lon="86.82841">
        <ele>5183</ele>
        <time>2022-10-26T05:32:58.000Z</time>
      </trkpt>
      <trkpt lat="27.979619" lon="86.828422">
        <ele>5183.2</ele>
        <time>2022-10-26T05:33:01.000Z</time>
      </trkpt>
      <trkpt lat="27.979635" lon="86.828448">
        <ele>5183.2</ele>
        <time>2022-10-26T05:33:04.000Z</time>
      </trkpt>
      <trkpt lat="27.979654" lon="86.828467">
        <ele>5183.2</ele>
        <time>2022-10-26T05:33:07.000Z</time>
      </trkpt>
      <trkpt lat="27.979674" lon="86.828474">
        <ele>5183.8</ele>
        <time>2022-10-26T05:33:10.000Z</time>
      </trkpt>
      <trkpt lat="27.979693" lon="86.828493">
        <ele>5183</ele>
        <time>2022-10-26T05:33:13.000Z</time>
      </trkpt>
      <trkpt lat="27.979712" lon="86.828493">
        <ele>5183</ele>
        <time>2022-10-26T05:33:15.000Z</time>
      </trkpt>
      <trkpt lat="27.979728" lon="86.828506">
        <ele>5183.2</ele>
        <time>2022-10-26T05:33:17.000Z</time>
      </trkpt>
      <trkpt lat="27.979747" lon="86.828506">
        <ele>5183</ele>
        <time>2022-10-26T05:33:19.000Z</time>
      </trkpt>
      <trkpt lat="27.97977" lon="86.828506">
        <ele>5182.8</ele>
        <time>2022-10-26T05:33:21.000Z</time>
      </trkpt>
      <trkpt lat="27.979779" lon="86.828525">
        <ele>5182.8</ele>
        <time>2022-10-26T05:33:23.000Z</time>
      </trkpt>
      <trkpt lat="27.979802" lon="86.828531">
        <ele>5182.8</ele>
        <time>2022-10-26T05:33:26.000Z</time>
      </trkpt>
      <trkpt lat="27.979824" lon="86.828544">
        <ele>5182.6</ele>
        <time>2022-10-26T05:33:29.000Z</time>
      </trkpt>
      <trkpt lat="27.979837" lon="86.82857">
        <ele>5182.2</ele>
        <time>2022-10-26T05:33:31.000Z</time>
      </trkpt>
      <trkpt lat="27.979853" lon="86.828582">
        <ele>5181.4</ele>
        <time>2022-10-26T05:33:34.000Z</time>
      </trkpt>
      <trkpt lat="27.979866" lon="86.828608">
        <ele>5180.8</ele>
        <time>2022-10-26T05:33:37.000Z</time>
      </trkpt>
      <trkpt lat="27.979882" lon="86.828621">
        <ele>5180.8</ele>
        <time>2022-10-26T05:33:39.000Z</time>
      </trkpt>
      <trkpt lat="27.979901" lon="86.828646">
        <ele>5179.6</ele>
        <time>2022-10-26T05:33:43.000Z</time>
      </trkpt>
      <trkpt lat="27.97992" lon="86.828653">
        <ele>5179.6</ele>
        <time>2022-10-26T05:33:47.000Z</time>
      </trkpt>
      <trkpt lat="27.979936" lon="86.828666">
        <ele>5179.4</ele>
        <time>2022-10-26T05:33:50.000Z</time>
      </trkpt>
      <trkpt lat="27.979946" lon="86.828685">
        <ele>5179</ele>
        <time>2022-10-26T05:33:54.000Z</time>
      </trkpt>
      <trkpt lat="27.979962" lon="86.828698">
        <ele>5179</ele>
        <time>2022-10-26T05:33:56.000Z</time>
      </trkpt>
      <trkpt lat="27.979981" lon="86.82871">
        <ele>5178.8</ele>
        <time>2022-10-26T05:33:59.000Z</time>
      </trkpt>
      <trkpt lat="27.979994" lon="86.82873">
        <ele>5178.8</ele>
        <time>2022-10-26T05:34:01.000Z</time>
      </trkpt>
      <trkpt lat="27.979997" lon="86.828755">
        <ele>5178.2</ele>
        <time>2022-10-26T05:34:04.000Z</time>
      </trkpt>
      <trkpt lat="27.980006" lon="86.828774">
        <ele>5178</ele>
        <time>2022-10-26T05:34:06.000Z</time>
      </trkpt>
      <trkpt lat="27.980026" lon="86.828794">
        <ele>5177.4</ele>
        <time>2022-10-26T05:34:09.000Z</time>
      </trkpt>
      <trkpt lat="27.980038" lon="86.828813">
        <ele>5176.8</ele>
        <time>2022-10-26T05:34:11.000Z</time>
      </trkpt>
      <trkpt lat="27.980058" lon="86.828832">
        <ele>5176.2</ele>
        <time>2022-10-26T05:34:14.000Z</time>
      </trkpt>
      <trkpt lat="27.980074" lon="86.828851">
        <ele>5175.8</ele>
        <time>2022-10-26T05:34:16.000Z</time>
      </trkpt>
      <trkpt lat="27.980099" lon="86.828864">
        <ele>5175.2</ele>
        <time>2022-10-26T05:34:19.000Z</time>
      </trkpt>
      <trkpt lat="27.980115" lon="86.828883">
        <ele>5175.2</ele>
        <time>2022-10-26T05:34:21.000Z</time>
      </trkpt>
      <trkpt lat="27.980134" lon="86.82889">
        <ele>5175.2</ele>
        <time>2022-10-26T05:34:23.000Z</time>
      </trkpt>
      <trkpt lat="27.980154" lon="86.828909">
        <ele>5174.6</ele>
        <time>2022-10-26T05:34:26.000Z</time>
      </trkpt>
      <trkpt lat="27.980173" lon="86.828928">
        <ele>5174.6</ele>
        <time>2022-10-26T05:34:29.000Z</time>
      </trkpt>
      <trkpt lat="27.980189" lon="86.828941">
        <ele>5174.6</ele>
        <time>2022-10-26T05:34:31.000Z</time>
      </trkpt>
      <trkpt lat="27.980208" lon="86.828954">
        <ele>5174.2</ele>
        <time>2022-10-26T05:34:34.000Z</time>
      </trkpt>
      <trkpt lat="27.980221" lon="86.828973">
        <ele>5174.4</ele>
        <time>2022-10-26T05:34:36.000Z</time>
      </trkpt>
      <trkpt lat="27.980243" lon="86.828979">
        <ele>5174</ele>
        <time>2022-10-26T05:34:39.000Z</time>
      </trkpt>
      <trkpt lat="27.980259" lon="86.828992">
        <ele>5173</ele>
        <time>2022-10-26T05:34:42.000Z</time>
      </trkpt>
      <trkpt lat="27.980269" lon="86.829011">
        <ele>5173</ele>
        <time>2022-10-26T05:34:44.000Z</time>
      </trkpt>
      <trkpt lat="27.980285" lon="86.82903">
        <ele>5172.4</ele>
        <time>2022-10-26T05:34:47.000Z</time>
      </trkpt>
      <trkpt lat="27.980304" lon="86.82905">
        <ele>5172.4</ele>
        <time>2022-10-26T05:34:50.000Z</time>
      </trkpt>
      <trkpt lat="27.980323" lon="86.829062">
        <ele>5171.8</ele>
        <time>2022-10-26T05:34:53.000Z</time>
      </trkpt>
      <trkpt lat="27.98033" lon="86.829082">
        <ele>5171.4</ele>
        <time>2022-10-26T05:34:55.000Z</time>
      </trkpt>
      <trkpt lat="27.980342" lon="86.829101">
        <ele>5171.2</ele>
        <time>2022-10-26T05:34:58.000Z</time>
      </trkpt>
      <trkpt lat="27.980381" lon="86.829107">
        <ele>5170</ele>
        <time>2022-10-26T05:35:07.000Z</time>
      </trkpt>
      <trkpt lat="27.980403" lon="86.829101">
        <ele>5170</ele>
        <time>2022-10-26T05:35:10.000Z</time>
      </trkpt>
      <trkpt lat="27.980429" lon="86.829101">
        <ele>5169.4</ele>
        <time>2022-10-26T05:35:13.000Z</time>
      </trkpt>
      <trkpt lat="27.980448" lon="86.829101">
        <ele>5169.4</ele>
        <time>2022-10-26T05:35:15.000Z</time>
      </trkpt>
      <trkpt lat="27.980474" lon="86.829101">
        <ele>5169.4</ele>
        <time>2022-10-26T05:35:19.000Z</time>
      </trkpt>
      <trkpt lat="27.980496" lon="86.829101">
        <ele>5169.2</ele>
        <time>2022-10-26T05:35:21.000Z</time>
      </trkpt>
      <trkpt lat="27.980515" lon="86.829107">
        <ele>5168.8</ele>
        <time>2022-10-26T05:35:23.000Z</time>
      </trkpt>
      <trkpt lat="27.980538" lon="86.829107">
        <ele>5168.6</ele>
        <time>2022-10-26T05:35:25.000Z</time>
      </trkpt>
      <trkpt lat="27.980557" lon="86.829107">
        <ele>5168.6</ele>
        <time>2022-10-26T05:35:28.000Z</time>
      </trkpt>
      <trkpt lat="27.980576" lon="86.829101">
        <ele>5168.4</ele>
        <time>2022-10-26T05:35:30.000Z</time>
      </trkpt>
      <trkpt lat="27.980595" lon="86.829101">
        <ele>5169</ele>
        <time>2022-10-26T05:35:33.000Z</time>
      </trkpt>
      <trkpt lat="27.980614" lon="86.829094">
        <ele>5168.6</ele>
        <time>2022-10-26T05:35:39.000Z</time>
      </trkpt>
      <trkpt lat="27.98065" lon="86.829069">
        <ele>5166.6</ele>
        <time>2022-10-26T05:35:44.000Z</time>
      </trkpt>
      <trkpt lat="27.980675" lon="86.829062">
        <ele>5166.6</ele>
        <time>2022-10-26T05:35:47.000Z</time>
      </trkpt>
      <trkpt lat="27.980694" lon="86.829069">
        <ele>5166.4</ele>
        <time>2022-10-26T05:35:50.000Z</time>
      </trkpt>
      <trkpt lat="27.98072" lon="86.829062">
        <ele>5166</ele>
        <time>2022-10-26T05:35:54.000Z</time>
      </trkpt>
      <trkpt lat="27.980726" lon="86.82903">
        <ele>5166.4</ele>
        <time>2022-10-26T05:35:58.000Z</time>
      </trkpt>
      <trkpt lat="27.980752" lon="86.82903">
        <ele>5166.4</ele>
        <time>2022-10-26T05:36:03.000Z</time>
      </trkpt>
      <trkpt lat="27.980774" lon="86.829043">
        <ele>5166.4</ele>
        <time>2022-10-26T05:36:05.000Z</time>
      </trkpt>
      <trkpt lat="27.98079" lon="86.829056">
        <ele>5166.6</ele>
        <time>2022-10-26T05:36:07.000Z</time>
      </trkpt>
      <trkpt lat="27.9808" lon="86.829088">
        <ele>5166.4</ele>
        <time>2022-10-26T05:36:11.000Z</time>
      </trkpt>
      <trkpt lat="27.980803" lon="86.82912">
        <ele>5166</ele>
        <time>2022-10-26T05:36:15.000Z</time>
      </trkpt>
      <trkpt lat="27.980803" lon="86.829152">
        <ele>5166</ele>
        <time>2022-10-26T05:36:18.000Z</time>
      </trkpt>
      <trkpt lat="27.980819" lon="86.829171">
        <ele>5166.4</ele>
        <time>2022-10-26T05:36:20.000Z</time>
      </trkpt>
      <trkpt lat="27.980842" lon="86.829184">
        <ele>5166.4</ele>
        <time>2022-10-26T05:36:22.000Z</time>
      </trkpt>
      <trkpt lat="27.980864" lon="86.82921">
        <ele>5166.4</ele>
        <time>2022-10-26T05:36:24.000Z</time>
      </trkpt>
      <trkpt lat="27.980883" lon="86.829229">
        <ele>5166.4</ele>
        <time>2022-10-26T05:36:26.000Z</time>
      </trkpt>
      <trkpt lat="27.980858" lon="86.829222">
        <ele>5166.6</ele>
        <time>2022-10-26T05:36:32.000Z</time>
      </trkpt>
      <trkpt lat="27.980829" lon="86.829216">
        <ele>5166.8</ele>
        <time>2022-10-26T05:36:33.000Z</time>
      </trkpt>
      <trkpt lat="27.980832" lon="86.82919">
        <ele>5166.8</ele>
        <time>2022-10-26T05:36:35.000Z</time>
      </trkpt>
      <trkpt lat="27.980816" lon="86.829165">
        <ele>5167.4</ele>
        <time>2022-10-26T05:36:38.000Z</time>
      </trkpt>
      <trkpt lat="27.980794" lon="86.829152">
        <ele>5167.4</ele>
        <time>2022-10-26T05:36:39.000Z</time>
      </trkpt>
      <trkpt lat="27.982349" lon="86.830381">
        <ele>5154</ele>
        <time>2022-10-26T06:24:09.000Z</time>
      </trkpt>
      <trkpt lat="27.982358" lon="86.830406">
        <ele>5154</ele>
        <time>2022-10-26T06:24:11.000Z</time>
      </trkpt>
      <trkpt lat="27.982368" lon="86.830432">
        <ele>5153.8</ele>
        <time>2022-10-26T06:24:13.000Z</time>
      </trkpt>
      <trkpt lat="27.982378" lon="86.830451">
        <ele>5153.8</ele>
        <time>2022-10-26T06:24:15.000Z</time>
      </trkpt>
      <trkpt lat="27.982387" lon="86.830477">
        <ele>5154</ele>
        <time>2022-10-26T06:24:17.000Z</time>
      </trkpt>
      <trkpt lat="27.982406" lon="86.830496">
        <ele>5153.8</ele>
        <time>2022-10-26T06:24:19.000Z</time>
      </trkpt>
      <trkpt lat="27.982422" lon="86.830515">
        <ele>5153.2</ele>
        <time>2022-10-26T06:24:21.000Z</time>
      </trkpt>
      <trkpt lat="27.982442" lon="86.830522">
        <ele>5153.2</ele>
        <time>2022-10-26T06:24:23.000Z</time>
      </trkpt>
      <trkpt lat="27.982461" lon="86.830534">
        <ele>5153.6</ele>
        <time>2022-10-26T06:24:26.000Z</time>
      </trkpt>
      <trkpt lat="27.98248" lon="86.830554">
        <ele>5154</ele>
        <time>2022-10-26T06:24:37.000Z</time>
      </trkpt>
      <trkpt lat="27.982499" lon="86.830579">
        <ele>5153.2</ele>
        <time>2022-10-26T06:24:50.000Z</time>
      </trkpt>
      <trkpt lat="27.982509" lon="86.830598">
        <ele>5153.2</ele>
        <time>2022-10-26T06:24:51.000Z</time>
      </trkpt>
      <trkpt lat="27.982531" lon="86.830637">
        <ele>5153.6</ele>
        <time>2022-10-26T06:24:53.000Z</time>
      </trkpt>
      <trkpt lat="27.982541" lon="86.830656">
        <ele>5153.6</ele>
        <time>2022-10-26T06:24:55.000Z</time>
      </trkpt>
      <trkpt lat="27.982547" lon="86.830675">
        <ele>5153.6</ele>
        <time>2022-10-26T06:24:56.000Z</time>
      </trkpt>
      <trkpt lat="27.98257" lon="86.830701">
        <ele>5153.2</ele>
        <time>2022-10-26T06:24:58.000Z</time>
      </trkpt>
      <trkpt lat="27.982579" lon="86.830726">
        <ele>5153.6</ele>
        <time>2022-10-26T06:25:00.000Z</time>
      </trkpt>
      <trkpt lat="27.982602" lon="86.830752">
        <ele>5153.6</ele>
        <time>2022-10-26T06:25:02.000Z</time>
      </trkpt>
      <trkpt lat="27.982614" lon="86.830771">
        <ele>5153.6</ele>
        <time>2022-10-26T06:25:04.000Z</time>
      </trkpt>
      <trkpt lat="27.982624" lon="86.83079">
        <ele>5153.2</ele>
        <time>2022-10-26T06:25:05.000Z</time>
      </trkpt>
      <trkpt lat="27.982634" lon="86.83081">
        <ele>5153</ele>
        <time>2022-10-26T06:25:07.000Z</time>
      </trkpt>
      <trkpt lat="27.98264" lon="86.830835">
        <ele>5153</ele>
        <time>2022-10-26T06:25:09.000Z</time>
      </trkpt>
      <trkpt lat="27.982653" lon="86.830854">
        <ele>5153</ele>
        <time>2022-10-26T06:25:12.000Z</time>
      </trkpt>
      <trkpt lat="27.982669" lon="86.83088">
        <ele>5152.6</ele>
        <time>2022-10-26T06:25:14.000Z</time>
      </trkpt>
      <trkpt lat="27.982685" lon="86.830893">
        <ele>5152.6</ele>
        <time>2022-10-26T06:25:16.000Z</time>
      </trkpt>
      <trkpt lat="27.982701" lon="86.830912">
        <ele>5152.6</ele>
        <time>2022-10-26T06:25:18.000Z</time>
      </trkpt>
      <trkpt lat="27.98271" lon="86.830931">
        <ele>5152.6</ele>
        <time>2022-10-26T06:25:20.000Z</time>
      </trkpt>
      <trkpt lat="27.98273" lon="86.83095">
        <ele>5152.6</ele>
        <time>2022-10-26T06:25:22.000Z</time>
      </trkpt>
      <trkpt lat="27.982746" lon="86.830963">
        <ele>5152.6</ele>
        <time>2022-10-26T06:25:24.000Z</time>
      </trkpt>
      <trkpt lat="27.982765" lon="86.830989">
        <ele>5152.4</ele>
        <time>2022-10-26T06:25:27.000Z</time>
      </trkpt>
      <trkpt lat="27.982778" lon="86.831008">
        <ele>5152.6</ele>
        <time>2022-10-26T06:25:30.000Z</time>
      </trkpt>
      <trkpt lat="27.982787" lon="86.831027">
        <ele>5152.6</ele>
        <time>2022-10-26T06:25:32.000Z</time>
      </trkpt>
      <trkpt lat="27.9828" lon="86.831046">
        <ele>5152.6</ele>
        <time>2022-10-26T06:25:34.000Z</time>
      </trkpt>
      <trkpt lat="27.982819" lon="86.831059">
        <ele>5152.4</ele>
        <time>2022-10-26T06:25:37.000Z</time>
      </trkpt>
      <trkpt lat="27.982829" lon="86.831085">
        <ele>5152.4</ele>
        <time>2022-10-26T06:25:39.000Z</time>
      </trkpt>
      <trkpt lat="27.982845" lon="86.831098">
        <ele>5152.4</ele>
        <time>2022-10-26T06:25:41.000Z</time>
      </trkpt>
      <trkpt lat="27.982858" lon="86.831123">
        <ele>5152.4</ele>
        <time>2022-10-26T06:25:43.000Z</time>
      </trkpt>
      <trkpt lat="27.982874" lon="86.831136">
        <ele>5152.6</ele>
        <time>2022-10-26T06:25:45.000Z</time>
      </trkpt>
      <trkpt lat="27.982886" lon="86.831155">
        <ele>5152.6</ele>
        <time>2022-10-26T06:25:47.000Z</time>
      </trkpt>
      <trkpt lat="27.982902" lon="86.831168">
        <ele>5152.6</ele>
        <time>2022-10-26T06:25:49.000Z</time>
      </trkpt>
      <trkpt lat="27.982915" lon="86.831194">
        <ele>5152.6</ele>
        <time>2022-10-26T06:25:51.000Z</time>
      </trkpt>
      <trkpt lat="27.982928" lon="86.831213">
        <ele>5152.6</ele>
        <time>2022-10-26T06:25:54.000Z</time>
      </trkpt>
      <trkpt lat="27.982941" lon="86.831238">
        <ele>5152.6</ele>
        <time>2022-10-26T06:25:56.000Z</time>
      </trkpt>
      <trkpt lat="27.982957" lon="86.831251">
        <ele>5152.6</ele>
        <time>2022-10-26T06:25:58.000Z</time>
      </trkpt>
      <trkpt lat="27.982963" lon="86.83127">
        <ele>5153</ele>
        <time>2022-10-26T06:26:00.000Z</time>
      </trkpt>
      <trkpt lat="27.982976" lon="86.83129">
        <ele>5153.2</ele>
        <time>2022-10-26T06:26:02.000Z</time>
      </trkpt>
      <trkpt lat="27.982989" lon="86.831309">
        <ele>5153.6</ele>
        <time>2022-10-26T06:26:04.000Z</time>
      </trkpt>
      <trkpt lat="27.983008" lon="86.831328">
        <ele>5153.8</ele>
        <time>2022-10-26T06:26:07.000Z</time>
      </trkpt>
      <trkpt lat="27.983024" lon="86.831347">
        <ele>5153.6</ele>
        <time>2022-10-26T06:26:09.000Z</time>
      </trkpt>
      <trkpt lat="27.983043" lon="86.83136">
        <ele>5153.6</ele>
        <time>2022-10-26T06:26:11.000Z</time>
      </trkpt>
      <trkpt lat="27.983059" lon="86.831386">
        <ele>5153.8</ele>
        <time>2022-10-26T06:26:13.000Z</time>
      </trkpt>
      <trkpt lat="27.983075" lon="86.831398">
        <ele>5153.2</ele>
        <time>2022-10-26T06:26:16.000Z</time>
      </trkpt>
      <trkpt lat="27.983088" lon="86.831424">
        <ele>5153.2</ele>
        <time>2022-10-26T06:26:18.000Z</time>
      </trkpt>
      <trkpt lat="27.983114" lon="86.831443">
        <ele>5153.2</ele>
        <time>2022-10-26T06:26:21.000Z</time>
      </trkpt>
      <trkpt lat="27.98313" lon="86.831469">
        <ele>5153.2</ele>
        <time>2022-10-26T06:26:23.000Z</time>
      </trkpt>
      <trkpt lat="27.983146" lon="86.831482">
        <ele>5153.2</ele>
        <time>2022-10-26T06:26:25.000Z</time>
      </trkpt>
      <trkpt lat="27.983165" lon="86.831494">
        <ele>5153.2</ele>
        <time>2022-10-26T06:26:28.000Z</time>
      </trkpt>
      <trkpt lat="27.983184" lon="86.831514">
        <ele>5153.2</ele>
        <time>2022-10-26T06:26:30.000Z</time>
      </trkpt>
      <trkpt lat="27.983203" lon="86.831526">
        <ele>5153.2</ele>
        <time>2022-10-26T06:26:32.000Z</time>
      </trkpt>
      <trkpt lat="27.983213" lon="86.831546">
        <ele>5153.6</ele>
        <time>2022-10-26T06:26:34.000Z</time>
      </trkpt>
      <trkpt lat="27.983232" lon="86.831558">
        <ele>5153.6</ele>
        <time>2022-10-26T06:26:36.000Z</time>
      </trkpt>
      <trkpt lat="27.983242" lon="86.831584">
        <ele>5153.2</ele>
        <time>2022-10-26T06:26:39.000Z</time>
      </trkpt>
      <trkpt lat="27.983251" lon="86.831603">
        <ele>5153.2</ele>
        <time>2022-10-26T06:26:42.000Z</time>
      </trkpt>
      <trkpt lat="27.983261" lon="86.831629">
        <ele>5153.2</ele>
        <time>2022-10-26T06:26:44.000Z</time>
      </trkpt>
      <trkpt lat="27.983274" lon="86.831648">
        <ele>5153.6</ele>
        <time>2022-10-26T06:26:47.000Z</time>
      </trkpt>
      <trkpt lat="27.983283" lon="86.831667">
        <ele>5153.2</ele>
        <time>2022-10-26T06:26:49.000Z</time>
      </trkpt>
      <trkpt lat="27.983293" lon="86.831686">
        <ele>5153.2</ele>
        <time>2022-10-26T06:26:51.000Z</time>
      </trkpt>
      <trkpt lat="27.983302" lon="86.831706">
        <ele>5153.2</ele>
        <time>2022-10-26T06:26:53.000Z</time>
      </trkpt>
      <trkpt lat="27.983318" lon="86.831725">
        <ele>5153</ele>
        <time>2022-10-26T06:26:56.000Z</time>
      </trkpt>
      <trkpt lat="27.983331" lon="86.831744">
        <ele>5153.2</ele>
        <time>2022-10-26T06:26:58.000Z</time>
      </trkpt>
      <trkpt lat="27.983341" lon="86.831763">
        <ele>5153.2</ele>
        <time>2022-10-26T06:27:00.000Z</time>
      </trkpt>
      <trkpt lat="27.98335" lon="86.831782">
        <ele>5153.2</ele>
        <time>2022-10-26T06:27:02.000Z</time>
      </trkpt>
      <trkpt lat="27.983363" lon="86.831802">
        <ele>5153.2</ele>
        <time>2022-10-26T06:27:04.000Z</time>
      </trkpt>
      <trkpt lat="27.98337" lon="86.831821">
        <ele>5152.6</ele>
        <time>2022-10-26T06:27:06.000Z</time>
      </trkpt>
      <trkpt lat="27.983382" lon="86.83184">
        <ele>5153.2</ele>
        <time>2022-10-26T06:27:09.000Z</time>
      </trkpt>
      <trkpt lat="27.983395" lon="86.831866">
        <ele>5153.2</ele>
        <time>2022-10-26T06:27:12.000Z</time>
      </trkpt>
      <trkpt lat="27.983414" lon="86.831885">
        <ele>5153.2</ele>
        <time>2022-10-26T06:27:16.000Z</time>
      </trkpt>
      <trkpt lat="27.983418" lon="86.83191">
        <ele>5153.2</ele>
        <time>2022-10-26T06:27:18.000Z</time>
      </trkpt>
      <trkpt lat="27.983421" lon="86.831942">
        <ele>5153.2</ele>
        <time>2022-10-26T06:27:22.000Z</time>
      </trkpt>
      <trkpt lat="27.983421" lon="86.831968">
        <ele>5153.2</ele>
        <time>2022-10-26T06:27:25.000Z</time>
      </trkpt>
      <trkpt lat="27.983424" lon="86.831994">
        <ele>5153.2</ele>
        <time>2022-10-26T06:27:28.000Z</time>
      </trkpt>
      <trkpt lat="27.98343" lon="86.832013">
        <ele>5153</ele>
        <time>2022-10-26T06:27:31.000Z</time>
      </trkpt>
      <trkpt lat="27.983434" lon="86.832038">
        <ele>5153.6</ele>
        <time>2022-10-26T06:27:36.000Z</time>
      </trkpt>
      <trkpt lat="27.98344" lon="86.832064">
        <ele>5154</ele>
        <time>2022-10-26T06:27:44.000Z</time>
      </trkpt>
      <trkpt lat="27.983456" lon="86.83209">
        <ele>5152.6</ele>
        <time>2022-10-26T06:28:06.000Z</time>
      </trkpt>
      <trkpt lat="27.983462" lon="86.832109">
        <ele>5152.6</ele>
        <time>2022-10-26T06:28:07.000Z</time>
      </trkpt>
      <trkpt lat="27.983482" lon="86.832141">
        <ele>5152.4</ele>
        <time>2022-10-26T06:28:09.000Z</time>
      </trkpt>
      <trkpt lat="27.983498" lon="86.832166">
        <ele>5153</ele>
        <time>2022-10-26T06:28:11.000Z</time>
      </trkpt>
      <trkpt lat="27.983507" lon="86.832186">
        <ele>5153</ele>
        <time>2022-10-26T06:28:12.000Z</time>
      </trkpt>
      <trkpt lat="27.98352" lon="86.832205">
        <ele>5153</ele>
        <time>2022-10-26T06:28:14.000Z</time>
      </trkpt>
      <trkpt lat="27.983533" lon="86.83223">
        <ele>5153</ele>
        <time>2022-10-26T06:28:16.000Z</time>
      </trkpt>
      <trkpt lat="27.983542" lon="86.83225">
        <ele>5153.2</ele>
        <time>2022-10-26T06:28:18.000Z</time>
      </trkpt>
      <trkpt lat="27.983549" lon="86.832269">
        <ele>5153.2</ele>
        <time>2022-10-26T06:28:19.000Z</time>
      </trkpt>
      <trkpt lat="27.983571" lon="86.832288">
        <ele>5153.2</ele>
        <time>2022-10-26T06:28:22.000Z</time>
      </trkpt>
      <trkpt lat="27.983581" lon="86.832307">
        <ele>5153</ele>
        <time>2022-10-26T06:28:24.000Z</time>
      </trkpt>
      <trkpt lat="27.98359" lon="86.832326">
        <ele>5153.6</ele>
        <time>2022-10-26T06:28:26.000Z</time>
      </trkpt>
      <trkpt lat="27.98361" lon="86.832352">
        <ele>5153.6</ele>
        <time>2022-10-26T06:28:28.000Z</time>
      </trkpt>
      <trkpt lat="27.983619" lon="86.832378">
        <ele>5153.8</ele>
        <time>2022-10-26T06:28:31.000Z</time>
      </trkpt>
      <trkpt lat="27.983635" lon="86.83239">
        <ele>5154</ele>
        <time>2022-10-26T06:28:34.000Z</time>
      </trkpt>
      <trkpt lat="27.983654" lon="86.832403">
        <ele>5154</ele>
        <time>2022-10-26T06:28:36.000Z</time>
      </trkpt>
      <trkpt lat="27.983664" lon="86.832422">
        <ele>5154</ele>
        <time>2022-10-26T06:28:38.000Z</time>
      </trkpt>
      <trkpt lat="27.98368" lon="86.832435">
        <ele>5153.8</ele>
        <time>2022-10-26T06:28:40.000Z</time>
      </trkpt>
      <trkpt lat="27.98369" lon="86.832461">
        <ele>5153.6</ele>
        <time>2022-10-26T06:28:42.000Z</time>
      </trkpt>
      <trkpt lat="27.983709" lon="86.83248">
        <ele>5153.6</ele>
        <time>2022-10-26T06:28:45.000Z</time>
      </trkpt>
      <trkpt lat="27.983722" lon="86.832506">
        <ele>5153.8</ele>
        <time>2022-10-26T06:28:47.000Z</time>
      </trkpt>
      <trkpt lat="27.983738" lon="86.832525">
        <ele>5154</ele>
        <time>2022-10-26T06:28:50.000Z</time>
      </trkpt>
      <trkpt lat="27.983747" lon="86.832544">
        <ele>5153.8</ele>
        <time>2022-10-26T06:28:52.000Z</time>
      </trkpt>
      <trkpt lat="27.98377" lon="86.832563">
        <ele>5153.8</ele>
        <time>2022-10-26T06:28:55.000Z</time>
      </trkpt>
      <trkpt lat="27.983779" lon="86.832582">
        <ele>5154</ele>
        <time>2022-10-26T06:28:57.000Z</time>
      </trkpt>
      <trkpt lat="27.983789" lon="86.832602">
        <ele>5154</ele>
        <time>2022-10-26T06:28:59.000Z</time>
      </trkpt>
      <trkpt lat="27.983798" lon="86.832621">
        <ele>5153.8</ele>
        <time>2022-10-26T06:29:01.000Z</time>
      </trkpt>
      <trkpt lat="27.983811" lon="86.83264">
        <ele>5154</ele>
        <time>2022-10-26T06:29:04.000Z</time>
      </trkpt>
      <trkpt lat="27.983818" lon="86.832659">
        <ele>5153.8</ele>
        <time>2022-10-26T06:29:05.000Z</time>
      </trkpt>
      <trkpt lat="27.983834" lon="86.832678">
        <ele>5153.8</ele>
        <time>2022-10-26T06:29:07.000Z</time>
      </trkpt>
      <trkpt lat="27.98385" lon="86.832698">
        <ele>5153.8</ele>
        <time>2022-10-26T06:29:09.000Z</time>
      </trkpt>
      <trkpt lat="27.983869" lon="86.832723">
        <ele>5154</ele>
        <time>2022-10-26T06:29:12.000Z</time>
      </trkpt>
      <trkpt lat="27.983882" lon="86.832742">
        <ele>5154</ele>
        <time>2022-10-26T06:29:14.000Z</time>
      </trkpt>
      <trkpt lat="27.983898" lon="86.832762">
        <ele>5153.8</ele>
        <time>2022-10-26T06:29:17.000Z</time>
      </trkpt>
      <trkpt lat="27.983914" lon="86.832781">
        <ele>5153.8</ele>
        <time>2022-10-26T06:29:19.000Z</time>
      </trkpt>
      <trkpt lat="27.98393" lon="86.8328">
        <ele>5153.8</ele>
        <time>2022-10-26T06:29:22.000Z</time>
      </trkpt>
      <trkpt lat="27.983936" lon="86.832819">
        <ele>5153.8</ele>
        <time>2022-10-26T06:29:23.000Z</time>
      </trkpt>
      <trkpt lat="27.983955" lon="86.832832">
        <ele>5154</ele>
        <time>2022-10-26T06:29:26.000Z</time>
      </trkpt>
      <trkpt lat="27.983968" lon="86.832858">
        <ele>5154.4</ele>
        <time>2022-10-26T06:29:29.000Z</time>
      </trkpt>
      <trkpt lat="27.983981" lon="86.832877">
        <ele>5155</ele>
        <time>2022-10-26T06:29:31.000Z</time>
      </trkpt>
      <trkpt lat="27.983997" lon="86.832896">
        <ele>5155</ele>
        <time>2022-10-26T06:29:33.000Z</time>
      </trkpt>
      <trkpt lat="27.984013" lon="86.832915">
        <ele>5155.2</ele>
        <time>2022-10-26T06:29:36.000Z</time>
      </trkpt>
      <trkpt lat="27.984026" lon="86.832934">
        <ele>5155</ele>
        <time>2022-10-26T06:29:38.000Z</time>
      </trkpt>
      <trkpt lat="27.984038" lon="86.832954">
        <ele>5155</ele>
        <time>2022-10-26T06:29:41.000Z</time>
      </trkpt>
      <trkpt lat="27.984048" lon="86.832973">
        <ele>5154.6</ele>
        <time>2022-10-26T06:29:43.000Z</time>
      </trkpt>
      <trkpt lat="27.984064" lon="86.832992">
        <ele>5154.6</ele>
        <time>2022-10-26T06:29:46.000Z</time>
      </trkpt>
      <trkpt lat="27.984074" lon="86.833018">
        <ele>5154.6</ele>
        <time>2022-10-26T06:29:48.000Z</time>
      </trkpt>
      <trkpt lat="27.984086" lon="86.833037">
        <ele>5155</ele>
        <time>2022-10-26T06:29:51.000Z</time>
      </trkpt>
      <trkpt lat="27.984096" lon="86.833056">
        <ele>5154.6</ele>
        <time>2022-10-26T06:29:53.000Z</time>
      </trkpt>
      <trkpt lat="27.984109" lon="86.833082">
        <ele>5155</ele>
        <time>2022-10-26T06:29:56.000Z</time>
      </trkpt>
      <trkpt lat="27.984118" lon="86.833101">
        <ele>5155.2</ele>
        <time>2022-10-26T06:29:58.000Z</time>
      </trkpt>
      <trkpt lat="27.984131" lon="86.83312">
        <ele>5155.8</ele>
        <time>2022-10-26T06:30:00.000Z</time>
      </trkpt>
      <trkpt lat="27.984141" lon="86.833146">
        <ele>5156</ele>
        <time>2022-10-26T06:30:02.000Z</time>
      </trkpt>
      <trkpt lat="27.984154" lon="86.833171">
        <ele>5156</ele>
        <time>2022-10-26T06:30:05.000Z</time>
      </trkpt>
      <trkpt lat="27.98416" lon="86.83319">
        <ele>5156</ele>
        <time>2022-10-26T06:30:07.000Z</time>
      </trkpt>
      <trkpt lat="27.984166" lon="86.833216">
        <ele>5155.4</ele>
        <time>2022-10-26T06:30:10.000Z</time>
      </trkpt>
      <trkpt lat="27.984166" lon="86.833242">
        <ele>5155.8</ele>
        <time>2022-10-26T06:30:13.000Z</time>
      </trkpt>
      <trkpt lat="27.984176" lon="86.833261">
        <ele>5155.8</ele>
        <time>2022-10-26T06:30:15.000Z</time>
      </trkpt>
      <trkpt lat="27.984186" lon="86.83328">
        <ele>5156</ele>
        <time>2022-10-26T06:30:17.000Z</time>
      </trkpt>
      <trkpt lat="27.984198" lon="86.833299">
        <ele>5156</ele>
        <time>2022-10-26T06:30:19.000Z</time>
      </trkpt>
      <trkpt lat="27.984208" lon="86.833318">
        <ele>5155.8</ele>
        <time>2022-10-26T06:30:22.000Z</time>
      </trkpt>
      <trkpt lat="27.984218" lon="86.833338">
        <ele>5155.8</ele>
        <time>2022-10-26T06:30:23.000Z</time>
      </trkpt>
      <trkpt lat="27.984234" lon="86.833357">
        <ele>5155.8</ele>
        <time>2022-10-26T06:30:26.000Z</time>
      </trkpt>
      <trkpt lat="27.98424" lon="86.833376">
        <ele>5155.8</ele>
        <time>2022-10-26T06:30:28.000Z</time>
      </trkpt>
      <trkpt lat="27.984246" lon="86.833395">
        <ele>5156.4</ele>
        <time>2022-10-26T06:30:30.000Z</time>
      </trkpt>
      <trkpt lat="27.984272" lon="86.833402">
        <ele>5156.6</ele>
        <time>2022-10-26T06:30:34.000Z</time>
      </trkpt>
      <trkpt lat="27.984285" lon="86.833421">
        <ele>5156.8</ele>
        <time>2022-10-26T06:30:36.000Z</time>
      </trkpt>
      <trkpt lat="27.984301" lon="86.833434">
        <ele>5157.2</ele>
        <time>2022-10-26T06:30:39.000Z</time>
      </trkpt>
      <trkpt lat="27.984314" lon="86.833453">
        <ele>5156</ele>
        <time>2022-10-26T06:30:41.000Z</time>
      </trkpt>
      <trkpt lat="27.984326" lon="86.833478">
        <ele>5156.6</ele>
        <time>2022-10-26T06:30:44.000Z</time>
      </trkpt>
      <trkpt lat="27.984336" lon="86.833498">
        <ele>5156.6</ele>
        <time>2022-10-26T06:30:46.000Z</time>
      </trkpt>
      <trkpt lat="27.984352" lon="86.833517">
        <ele>5156.8</ele>
        <time>2022-10-26T06:30:49.000Z</time>
      </trkpt>
      <trkpt lat="27.984358" lon="86.833542">
        <ele>5156.8</ele>
        <time>2022-10-26T06:30:52.000Z</time>
      </trkpt>
      <trkpt lat="27.984374" lon="86.833562">
        <ele>5157.4</ele>
        <time>2022-10-26T06:30:55.000Z</time>
      </trkpt>
      <trkpt lat="27.984384" lon="86.833581">
        <ele>5158</ele>
        <time>2022-10-26T06:30:57.000Z</time>
      </trkpt>
      <trkpt lat="27.984403" lon="86.8336">
        <ele>5157.2</ele>
        <time>2022-10-26T06:31:00.000Z</time>
      </trkpt>
      <trkpt lat="27.98441" lon="86.833619">
        <ele>5157.2</ele>
        <time>2022-10-26T06:31:01.000Z</time>
      </trkpt>
      <trkpt lat="27.984419" lon="86.833638">
        <ele>5157.4</ele>
        <time>2022-10-26T06:31:04.000Z</time>
      </trkpt>
      <trkpt lat="27.984429" lon="86.833658">
        <ele>5157.2</ele>
        <time>2022-10-26T06:31:06.000Z</time>
      </trkpt>
      <trkpt lat="27.984442" lon="86.833677">
        <ele>5157.2</ele>
        <time>2022-10-26T06:31:09.000Z</time>
      </trkpt>
      <trkpt lat="27.984454" lon="86.833696">
        <ele>5157.2</ele>
        <time>2022-10-26T06:31:11.000Z</time>
      </trkpt>
      <trkpt lat="27.98447" lon="86.833715">
        <ele>5157.4</ele>
        <time>2022-10-26T06:31:14.000Z</time>
      </trkpt>
      <trkpt lat="27.98448" lon="86.833741">
        <ele>5157.8</ele>
        <time>2022-10-26T06:31:16.000Z</time>
      </trkpt>
      <trkpt lat="27.984493" lon="86.83376">
        <ele>5157.4</ele>
        <time>2022-10-26T06:31:19.000Z</time>
      </trkpt>
      <trkpt lat="27.984499" lon="86.833779">
        <ele>5157.4</ele>
        <time>2022-10-26T06:31:20.000Z</time>
      </trkpt>
      <trkpt lat="27.984509" lon="86.833798">
        <ele>5157.2</ele>
        <time>2022-10-26T06:31:23.000Z</time>
      </trkpt>
      <trkpt lat="27.984515" lon="86.833818">
        <ele>5157.2</ele>
        <time>2022-10-26T06:31:25.000Z</time>
      </trkpt>
      <trkpt lat="27.984522" lon="86.83385">
        <ele>5157.8</ele>
        <time>2022-10-26T06:31:28.000Z</time>
      </trkpt>
      <trkpt lat="27.984528" lon="86.833875">
        <ele>5157.8</ele>
        <time>2022-10-26T06:31:31.000Z</time>
      </trkpt>
      <trkpt lat="27.984534" lon="86.833894">
        <ele>5157.8</ele>
        <time>2022-10-26T06:31:33.000Z</time>
      </trkpt>
      <trkpt lat="27.984541" lon="86.833926">
        <ele>5157.4</ele>
        <time>2022-10-26T06:31:36.000Z</time>
      </trkpt>
      <trkpt lat="27.984538" lon="86.833952">
        <ele>5157.4</ele>
        <time>2022-10-26T06:31:39.000Z</time>
      </trkpt>
      <trkpt lat="27.984528" lon="86.833984">
        <ele>5156.4</ele>
        <time>2022-10-26T06:31:41.000Z</time>
      </trkpt>
      <trkpt lat="27.984528" lon="86.83401">
        <ele>5156</ele>
        <time>2022-10-26T06:31:43.000Z</time>
      </trkpt>
      <trkpt lat="27.984528" lon="86.834035">
        <ele>5155.8</ele>
        <time>2022-10-26T06:31:46.000Z</time>
      </trkpt>
      <trkpt lat="27.984534" lon="86.834054">
        <ele>5156</ele>
        <time>2022-10-26T06:31:48.000Z</time>
      </trkpt>
      <trkpt lat="27.984541" lon="86.834074">
        <ele>5155.8</ele>
        <time>2022-10-26T06:31:50.000Z</time>
      </trkpt>
      <trkpt lat="27.984557" lon="86.834093">
        <ele>5155.4</ele>
        <time>2022-10-26T06:31:52.000Z</time>
      </trkpt>
      <trkpt lat="27.98457" lon="86.834112">
        <ele>5155.8</ele>
        <time>2022-10-26T06:31:55.000Z</time>
      </trkpt>
      <trkpt lat="27.984579" lon="86.834131">
        <ele>5156</ele>
        <time>2022-10-26T06:31:57.000Z</time>
      </trkpt>
      <trkpt lat="27.984589" lon="86.834157">
        <ele>5156.4</ele>
        <time>2022-10-26T06:32:00.000Z</time>
      </trkpt>
      <trkpt lat="27.984586" lon="86.834182">
        <ele>5155.8</ele>
        <time>2022-10-26T06:32:03.000Z</time>
      </trkpt>
      <trkpt lat="27.984592" lon="86.834214">
        <ele>5156.4</ele>
        <time>2022-10-26T06:32:06.000Z</time>
      </trkpt>
      <trkpt lat="27.984602" lon="86.834234">
        <ele>5156.4</ele>
        <time>2022-10-26T06:32:08.000Z</time>
      </trkpt>
      <trkpt lat="27.984608" lon="86.834259">
        <ele>5156.8</ele>
        <time>2022-10-26T06:32:11.000Z</time>
      </trkpt>
      <trkpt lat="27.984618" lon="86.834285">
        <ele>5157.2</ele>
        <time>2022-10-26T06:32:14.000Z</time>
      </trkpt>
      <trkpt lat="27.984634" lon="86.834298">
        <ele>5157.4</ele>
        <time>2022-10-26T06:32:16.000Z</time>
      </trkpt>
      <trkpt lat="27.984646" lon="86.83433">
        <ele>5158</ele>
        <time>2022-10-26T06:32:19.000Z</time>
      </trkpt>
      <trkpt lat="27.984646" lon="86.834355">
        <ele>5156.8</ele>
        <time>2022-10-26T06:32:23.000Z</time>
      </trkpt>
      <trkpt lat="27.984653" lon="86.834374">
        <ele>5156.8</ele>
        <time>2022-10-26T06:32:25.000Z</time>
      </trkpt>
      <trkpt lat="27.984659" lon="86.834394">
        <ele>5157.2</ele>
        <time>2022-10-26T06:32:27.000Z</time>
      </trkpt>
      <trkpt lat="27.984669" lon="86.834413">
        <ele>5157.2</ele>
        <time>2022-10-26T06:32:29.000Z</time>
      </trkpt>
      <trkpt lat="27.984682" lon="86.834445">
        <ele>5157.2</ele>
        <time>2022-10-26T06:32:32.000Z</time>
      </trkpt>
      <trkpt lat="27.984691" lon="86.834464">
        <ele>5157.2</ele>
        <time>2022-10-26T06:32:35.000Z</time>
      </trkpt>
      <trkpt lat="27.984701" lon="86.834483">
        <ele>5157.2</ele>
        <time>2022-10-26T06:32:37.000Z</time>
      </trkpt>
      <trkpt lat="27.984701" lon="86.834509">
        <ele>5157.4</ele>
        <time>2022-10-26T06:32:41.000Z</time>
      </trkpt>
      <trkpt lat="27.98471" lon="86.834528">
        <ele>5157.8</ele>
        <time>2022-10-26T06:32:44.000Z</time>
      </trkpt>
      <trkpt lat="27.984717" lon="86.834547">
        <ele>5157.8</ele>
        <time>2022-10-26T06:32:54.000Z</time>
      </trkpt>
      <trkpt lat="27.984726" lon="86.834573">
        <ele>5157.8</ele>
        <time>2022-10-26T06:32:57.000Z</time>
      </trkpt>
      <trkpt lat="27.984736" lon="86.834592">
        <ele>5157.4</ele>
        <time>2022-10-26T06:32:59.000Z</time>
      </trkpt>
      <trkpt lat="27.984742" lon="86.834611">
        <ele>5157.4</ele>
        <time>2022-10-26T06:33:01.000Z</time>
      </trkpt>
      <trkpt lat="27.984749" lon="86.83463">
        <ele>5157.4</ele>
        <time>2022-10-26T06:33:03.000Z</time>
      </trkpt>
      <trkpt lat="27.984758" lon="86.83465">
        <ele>5157.4</ele>
        <time>2022-10-26T06:33:06.000Z</time>
      </trkpt>
      <trkpt lat="27.984768" lon="86.834669">
        <ele>5157.8</ele>
        <time>2022-10-26T06:33:08.000Z</time>
      </trkpt>
      <trkpt lat="27.984771" lon="86.834694">
        <ele>5158.6</ele>
        <time>2022-10-26T06:33:10.000Z</time>
      </trkpt>
      <trkpt lat="27.98479" lon="86.834714">
        <ele>5158.4</ele>
        <time>2022-10-26T06:33:14.000Z</time>
      </trkpt>
      <trkpt lat="27.984806" lon="86.834733">
        <ele>5158.6</ele>
        <time>2022-10-26T06:33:17.000Z</time>
      </trkpt>
      <trkpt lat="27.984813" lon="86.834752">
        <ele>5158.8</ele>
        <time>2022-10-26T06:33:19.000Z</time>
      </trkpt>
      <trkpt lat="27.984816" lon="86.834778">
        <ele>5158.6</ele>
        <time>2022-10-26T06:33:22.000Z</time>
      </trkpt>
      <trkpt lat="27.984819" lon="86.834803">
        <ele>5158.6</ele>
        <time>2022-10-26T06:33:24.000Z</time>
      </trkpt>
      <trkpt lat="27.984832" lon="86.834822">
        <ele>5158.6</ele>
        <time>2022-10-26T06:33:27.000Z</time>
      </trkpt>
      <trkpt lat="27.984842" lon="86.834842">
        <ele>5158.6</ele>
        <time>2022-10-26T06:33:29.000Z</time>
      </trkpt>
      <trkpt lat="27.984845" lon="86.834867">
        <ele>5158.6</ele>
        <time>2022-10-26T06:33:33.000Z</time>
      </trkpt>
      <trkpt lat="27.984851" lon="86.834886">
        <ele>5159.2</ele>
        <time>2022-10-26T06:33:37.000Z</time>
      </trkpt>
      <trkpt lat="27.984858" lon="86.834906">
        <ele>5159.4</ele>
        <time>2022-10-26T06:33:40.000Z</time>
      </trkpt>
      <trkpt lat="27.984864" lon="86.834925">
        <ele>5159.8</ele>
        <time>2022-10-26T06:33:42.000Z</time>
      </trkpt>
      <trkpt lat="27.98487" lon="86.834944">
        <ele>5160.2</ele>
        <time>2022-10-26T06:33:46.000Z</time>
      </trkpt>
      <trkpt lat="27.984883" lon="86.834963">
        <ele>5160.2</ele>
        <time>2022-10-26T06:33:49.000Z</time>
      </trkpt>
      <trkpt lat="27.984893" lon="86.834982">
        <ele>5160.2</ele>
        <time>2022-10-26T06:33:52.000Z</time>
      </trkpt>
      <trkpt lat="27.98489" lon="86.835008">
        <ele>5160.2</ele>
        <time>2022-10-26T06:33:55.000Z</time>
      </trkpt>
      <trkpt lat="27.984896" lon="86.835027">
        <ele>5160.2</ele>
        <time>2022-10-26T06:33:58.000Z</time>
      </trkpt>
      <trkpt lat="27.984902" lon="86.835046">
        <ele>5160.2</ele>
        <time>2022-10-26T06:34:00.000Z</time>
      </trkpt>
      <trkpt lat="27.984912" lon="86.835078">
        <ele>5160.6</ele>
        <time>2022-10-26T06:34:03.000Z</time>
      </trkpt>
      <trkpt lat="27.984915" lon="86.835104">
        <ele>5160.6</ele>
        <time>2022-10-26T06:34:07.000Z</time>
      </trkpt>
      <trkpt lat="27.984925" lon="86.835123">
        <ele>5160.8</ele>
        <time>2022-10-26T06:34:16.000Z</time>
      </trkpt>
      <trkpt lat="27.984941" lon="86.835142">
        <ele>5160.8</ele>
        <time>2022-10-26T06:34:19.000Z</time>
      </trkpt>
      <trkpt lat="27.984944" lon="86.835168">
        <ele>5161.2</ele>
        <time>2022-10-26T06:34:22.000Z</time>
      </trkpt>
      <trkpt lat="27.984957" lon="86.835187">
        <ele>5162.2</ele>
        <time>2022-10-26T06:34:33.000Z</time>
      </trkpt>
      <trkpt lat="27.984963" lon="86.835206">
        <ele>5162.6</ele>
        <time>2022-10-26T06:34:34.000Z</time>
      </trkpt>
      <trkpt lat="27.984995" lon="86.835277">
        <ele>5160.8</ele>
        <time>2022-10-26T06:36:19.000Z</time>
      </trkpt>
      <trkpt lat="27.985005" lon="86.835296">
        <ele>5159.4</ele>
        <time>2022-10-26T06:36:22.000Z</time>
      </trkpt>
      <trkpt lat="27.985005" lon="86.835322">
        <ele>5159.4</ele>
        <time>2022-10-26T06:36:24.000Z</time>
      </trkpt>
      <trkpt lat="27.985005" lon="86.835347">
        <ele>5159.2</ele>
        <time>2022-10-26T06:36:26.000Z</time>
      </trkpt>
      <trkpt lat="27.985002" lon="86.835379">
        <ele>5158.6</ele>
        <time>2022-10-26T06:36:28.000Z</time>
      </trkpt>
      <trkpt lat="27.984992" lon="86.835405">
        <ele>5158.6</ele>
        <time>2022-10-26T06:36:30.000Z</time>
      </trkpt>
      <trkpt lat="27.984982" lon="86.835424">
        <ele>5158.6</ele>
        <time>2022-10-26T06:36:32.000Z</time>
      </trkpt>
      <trkpt lat="27.984976" lon="86.83545">
        <ele>5158.8</ele>
        <time>2022-10-26T06:36:35.000Z</time>
      </trkpt>
      <trkpt lat="27.98497" lon="86.835475">
        <ele>5158</ele>
        <time>2022-10-26T06:36:38.000Z</time>
      </trkpt>
      <trkpt lat="27.984976" lon="86.835494">
        <ele>5158.4</ele>
        <time>2022-10-26T06:36:40.000Z</time>
      </trkpt>
      <trkpt lat="27.984976" lon="86.83552">
        <ele>5158.6</ele>
        <time>2022-10-26T06:36:42.000Z</time>
      </trkpt>
      <trkpt lat="27.984976" lon="86.835546">
        <ele>5159.8</ele>
        <time>2022-10-26T06:36:46.000Z</time>
      </trkpt>
      <trkpt lat="27.984976" lon="86.835571">
        <ele>5159.8</ele>
        <time>2022-10-26T06:36:50.000Z</time>
      </trkpt>
      <trkpt lat="27.984982" lon="86.835597">
        <ele>5159.4</ele>
        <time>2022-10-26T06:36:53.000Z</time>
      </trkpt>
      <trkpt lat="27.984976" lon="86.835622">
        <ele>5158</ele>
        <time>2022-10-26T06:36:58.000Z</time>
      </trkpt>
      <trkpt lat="27.984957" lon="86.835622">
        <ele>5157.2</ele>
        <time>2022-10-26T06:37:02.000Z</time>
      </trkpt>
      <trkpt lat="27.98495" lon="86.835642">
        <ele>5157.4</ele>
        <time>2022-10-26T06:37:04.000Z</time>
      </trkpt>
      <trkpt lat="27.98495" lon="86.835674">
        <ele>5156</ele>
        <time>2022-10-26T06:37:09.000Z</time>
      </trkpt>
      <trkpt lat="27.98497" lon="86.835693">
        <ele>5154.6</ele>
        <time>2022-10-26T06:37:33.000Z</time>
      </trkpt>
      <trkpt lat="27.984989" lon="86.835718">
        <ele>5154.6</ele>
        <time>2022-10-26T06:37:35.000Z</time>
      </trkpt>
      <trkpt lat="27.985002" lon="86.835744">
        <ele>5155</ele>
        <time>2022-10-26T06:37:38.000Z</time>
      </trkpt>
      <trkpt lat="27.985021" lon="86.83577">
        <ele>5155.2</ele>
        <time>2022-10-26T06:37:40.000Z</time>
      </trkpt>
      <trkpt lat="27.985037" lon="86.835782">
        <ele>5155.4</ele>
        <time>2022-10-26T06:37:42.000Z</time>
      </trkpt>
      <trkpt lat="27.985056" lon="86.835808">
        <ele>5155.4</ele>
        <time>2022-10-26T06:37:44.000Z</time>
      </trkpt>
      <trkpt lat="27.985072" lon="86.83584">
        <ele>5155.2</ele>
        <time>2022-10-26T06:37:46.000Z</time>
      </trkpt>
      <trkpt lat="27.985091" lon="86.835846">
        <ele>5155.4</ele>
        <time>2022-10-26T06:37:51.000Z</time>
      </trkpt>
      <trkpt lat="27.985107" lon="86.835872">
        <ele>5156.4</ele>
        <time>2022-10-26T06:38:15.000Z</time>
      </trkpt>
      <trkpt lat="27.985133" lon="86.835898">
        <ele>5156</ele>
        <time>2022-10-26T06:38:18.000Z</time>
      </trkpt>
      <trkpt lat="27.985149" lon="86.835917">
        <ele>5155.4</ele>
        <time>2022-10-26T06:38:20.000Z</time>
      </trkpt>
      <trkpt lat="27.985171" lon="86.83593">
        <ele>5155</ele>
        <time>2022-10-26T06:38:22.000Z</time>
      </trkpt>
      <trkpt lat="27.985187" lon="86.835942">
        <ele>5155.2</ele>
        <time>2022-10-26T06:38:24.000Z</time>
      </trkpt>
      <trkpt lat="27.985197" lon="86.835962">
        <ele>5154.6</ele>
        <time>2022-10-26T06:38:27.000Z</time>
      </trkpt>
      <trkpt lat="27.9852" lon="86.835994">
        <ele>5154.4</ele>
        <time>2022-10-26T06:38:30.000Z</time>
      </trkpt>
      <trkpt lat="27.985213" lon="86.836013">
        <ele>5153.8</ele>
        <time>2022-10-26T06:38:35.000Z</time>
      </trkpt>
      <trkpt lat="27.98521" lon="86.836045">
        <ele>5153.2</ele>
        <time>2022-10-26T06:38:38.000Z</time>
      </trkpt>
      <trkpt lat="27.985203" lon="86.836077">
        <ele>5153.2</ele>
        <time>2022-10-26T06:38:42.000Z</time>
      </trkpt>
      <trkpt lat="27.98521" lon="86.836102">
        <ele>5153.8</ele>
        <time>2022-10-26T06:38:47.000Z</time>
      </trkpt>
      <trkpt lat="27.985229" lon="86.836115">
        <ele>5153.6</ele>
        <time>2022-10-26T06:38:51.000Z</time>
      </trkpt>
      <trkpt lat="27.985251" lon="86.836128">
        <ele>5154.4</ele>
        <time>2022-10-26T06:38:55.000Z</time>
      </trkpt>
      <trkpt lat="27.985261" lon="86.83616">
        <ele>5154.2</ele>
        <time>2022-10-26T06:38:59.000Z</time>
      </trkpt>
      <trkpt lat="27.985277" lon="86.836173">
        <ele>5154</ele>
        <time>2022-10-26T06:39:03.000Z</time>
      </trkpt>
      <trkpt lat="27.985283" lon="86.836192">
        <ele>5154</ele>
        <time>2022-10-26T06:39:05.000Z</time>
      </trkpt>
      <trkpt lat="27.98528" lon="86.836218">
        <ele>5154</ele>
        <time>2022-10-26T06:39:11.000Z</time>
      </trkpt>
      <trkpt lat="27.98528" lon="86.836243">
        <ele>5154.4</ele>
        <time>2022-10-26T06:39:15.000Z</time>
      </trkpt>
      <trkpt lat="27.985264" lon="86.836256">
        <ele>5155.4</ele>
        <time>2022-10-26T06:39:19.000Z</time>
      </trkpt>
      <trkpt lat="27.985258" lon="86.836275">
        <ele>5155.4</ele>
        <time>2022-10-26T06:39:21.000Z</time>
      </trkpt>
      <trkpt lat="27.985248" lon="86.836294">
        <ele>5155.4</ele>
        <time>2022-10-26T06:39:24.000Z</time>
      </trkpt>
      <trkpt lat="27.985229" lon="86.836301">
        <ele>5155</ele>
        <time>2022-10-26T06:39:27.000Z</time>
      </trkpt>
      <trkpt lat="27.985229" lon="86.836326">
        <ele>5155.6</ele>
        <time>2022-10-26T06:39:33.000Z</time>
      </trkpt>
      <trkpt lat="27.985242" lon="86.836352">
        <ele>5157</ele>
        <time>2022-10-26T06:39:44.000Z</time>
      </trkpt>
      <trkpt lat="27.985251" lon="86.836371">
        <ele>5158.4</ele>
        <time>2022-10-26T06:39:51.000Z</time>
      </trkpt>
      <trkpt lat="27.985261" lon="86.83639">
        <ele>5159</ele>
        <time>2022-10-26T06:39:55.000Z</time>
      </trkpt>
      <trkpt lat="27.985277" lon="86.836403">
        <ele>5159.2</ele>
        <time>2022-10-26T06:40:00.000Z</time>
      </trkpt>
      <trkpt lat="27.985299" lon="86.83641">
        <ele>5159.2</ele>
        <time>2022-10-26T06:40:04.000Z</time>
      </trkpt>
      <trkpt lat="27.985312" lon="86.836429">
        <ele>5159.6</ele>
        <time>2022-10-26T06:40:06.000Z</time>
      </trkpt>
      <trkpt lat="27.985328" lon="86.836442">
        <ele>5159.6</ele>
        <time>2022-10-26T06:40:10.000Z</time>
      </trkpt>
      <trkpt lat="27.985347" lon="86.836454">
        <ele>5159.6</ele>
        <time>2022-10-26T06:40:14.000Z</time>
      </trkpt>
      <trkpt lat="27.985357" lon="86.836474">
        <ele>5159.2</ele>
        <time>2022-10-26T06:40:17.000Z</time>
      </trkpt>
      <trkpt lat="27.985366" lon="86.836493">
        <ele>5159.2</ele>
        <time>2022-10-26T06:40:21.000Z</time>
      </trkpt>
      <trkpt lat="27.985373" lon="86.836512">
        <ele>5159.8</ele>
        <time>2022-10-26T06:40:24.000Z</time>
      </trkpt>
      <trkpt lat="27.985395" lon="86.836518">
        <ele>5161</ele>
        <time>2022-10-26T06:40:37.000Z</time>
      </trkpt>
      <trkpt lat="27.985418" lon="86.836525">
        <ele>5161.8</ele>
        <time>2022-10-26T06:40:41.000Z</time>
      </trkpt>
      <trkpt lat="27.98543" lon="86.83655">
        <ele>5162</ele>
        <time>2022-10-26T06:40:45.000Z</time>
      </trkpt>
      <trkpt lat="27.985443" lon="86.836576">
        <ele>5163.2</ele>
        <time>2022-10-26T06:40:52.000Z</time>
      </trkpt>
      <trkpt lat="27.985453" lon="86.836595">
        <ele>5163.4</ele>
        <time>2022-10-26T06:40:54.000Z</time>
      </trkpt>
      <trkpt lat="27.985475" lon="86.836602">
        <ele>5163.4</ele>
        <time>2022-10-26T06:41:00.000Z</time>
      </trkpt>
      <trkpt lat="27.985491" lon="86.836614">
        <ele>5163.4</ele>
        <time>2022-10-26T06:41:04.000Z</time>
      </trkpt>
      <trkpt lat="27.985507" lon="86.836634">
        <ele>5162.6</ele>
        <time>2022-10-26T06:41:07.000Z</time>
      </trkpt>
      <trkpt lat="27.985517" lon="86.836653">
        <ele>5161.8</ele>
        <time>2022-10-26T06:41:11.000Z</time>
      </trkpt>
      <trkpt lat="27.985536" lon="86.836672">
        <ele>5161.6</ele>
        <time>2022-10-26T06:41:15.000Z</time>
      </trkpt>
      <trkpt lat="27.985546" lon="86.836691">
        <ele>5161.2</ele>
        <time>2022-10-26T06:41:18.000Z</time>
      </trkpt>
      <trkpt lat="27.985565" lon="86.836698">
        <ele>5160.2</ele>
        <time>2022-10-26T06:41:23.000Z</time>
      </trkpt>
      <trkpt lat="27.985578" lon="86.836717">
        <ele>5159.2</ele>
        <time>2022-10-26T06:41:26.000Z</time>
      </trkpt>
      <trkpt lat="27.985584" lon="86.836736">
        <ele>5160.2</ele>
        <time>2022-10-26T06:41:30.000Z</time>
      </trkpt>
      <trkpt lat="27.985578" lon="86.836755">
        <ele>5159</ele>
        <time>2022-10-26T06:41:33.000Z</time>
      </trkpt>
      <trkpt lat="27.985571" lon="86.836774">
        <ele>5158.4</ele>
        <time>2022-10-26T06:41:36.000Z</time>
      </trkpt>
      <trkpt lat="27.985578" lon="86.836794">
        <ele>5158.2</ele>
        <time>2022-10-26T06:41:39.000Z</time>
      </trkpt>
      <trkpt lat="27.98559" lon="86.836813">
        <ele>5157.8</ele>
        <time>2022-10-26T06:41:43.000Z</time>
      </trkpt>
      <trkpt lat="27.985587" lon="86.836838">
        <ele>5158.8</ele>
        <time>2022-10-26T06:41:47.000Z</time>
      </trkpt>
      <trkpt lat="27.985597" lon="86.836858">
        <ele>5159</ele>
        <time>2022-10-26T06:41:51.000Z</time>
      </trkpt>
      <trkpt lat="27.985606" lon="86.836877">
        <ele>5158.4</ele>
        <time>2022-10-26T06:41:54.000Z</time>
      </trkpt>
      <trkpt lat="27.985619" lon="86.836896">
        <ele>5159.6</ele>
        <time>2022-10-26T06:41:58.000Z</time>
      </trkpt>
      <trkpt lat="27.985626" lon="86.836915">
        <ele>5159.6</ele>
        <time>2022-10-26T06:42:00.000Z</time>
      </trkpt>
      <trkpt lat="27.985642" lon="86.836934">
        <ele>5159.6</ele>
        <time>2022-10-26T06:42:06.000Z</time>
      </trkpt>
      <trkpt lat="27.985654" lon="86.836954">
        <ele>5159.2</ele>
        <time>2022-10-26T06:42:09.000Z</time>
      </trkpt>
      <trkpt lat="27.98567" lon="86.836973">
        <ele>5159.6</ele>
        <time>2022-10-26T06:42:13.000Z</time>
      </trkpt>
      <trkpt lat="27.98567" lon="86.836998">
        <ele>5160.4</ele>
        <time>2022-10-26T06:42:17.000Z</time>
      </trkpt>
      <trkpt lat="27.98568" lon="86.837024">
        <ele>5159.2</ele>
        <time>2022-10-26T06:42:20.000Z</time>
      </trkpt>
      <trkpt lat="27.985693" lon="86.837043">
        <ele>5159</ele>
        <time>2022-10-26T06:42:24.000Z</time>
      </trkpt>
      <trkpt lat="27.985709" lon="86.837069">
        <ele>5159</ele>
        <time>2022-10-26T06:42:28.000Z</time>
      </trkpt>
      <trkpt lat="27.985725" lon="86.837082">
        <ele>5160.4</ele>
        <time>2022-10-26T06:42:38.000Z</time>
      </trkpt>
      <trkpt lat="27.985731" lon="86.837107">
        <ele>5160.6</ele>
        <time>2022-10-26T06:42:42.000Z</time>
      </trkpt>
      <trkpt lat="27.985747" lon="86.83712">
        <ele>5161.2</ele>
        <time>2022-10-26T06:42:49.000Z</time>
      </trkpt>
      <trkpt lat="27.985766" lon="86.837126">
        <ele>5161</ele>
        <time>2022-10-26T06:42:53.000Z</time>
      </trkpt>
      <trkpt lat="27.985786" lon="86.837146">
        <ele>5160.8</ele>
        <time>2022-10-26T06:42:56.000Z</time>
      </trkpt>
      <trkpt lat="27.985805" lon="86.837158">
        <ele>5160.4</ele>
        <time>2022-10-26T06:42:59.000Z</time>
      </trkpt>
      <trkpt lat="27.985821" lon="86.83719">
        <ele>5160.2</ele>
        <time>2022-10-26T06:43:04.000Z</time>
      </trkpt>
      <trkpt lat="27.985834" lon="86.83721">
        <ele>5159.6</ele>
        <time>2022-10-26T06:43:08.000Z</time>
      </trkpt>
      <trkpt lat="27.985846" lon="86.837229">
        <ele>5159.6</ele>
        <time>2022-10-26T06:43:11.000Z</time>
      </trkpt>
      <trkpt lat="27.98585" lon="86.837254">
        <ele>5160.2</ele>
        <time>2022-10-26T06:43:16.000Z</time>
      </trkpt>
      <trkpt lat="27.985856" lon="86.83728">
        <ele>5159.8</ele>
        <time>2022-10-26T06:43:19.000Z</time>
      </trkpt>
      <trkpt lat="27.985853" lon="86.837306">
        <ele>5160.8</ele>
        <time>2022-10-26T06:43:22.000Z</time>
      </trkpt>
      <trkpt lat="27.985872" lon="86.837325">
        <ele>5161</ele>
        <time>2022-10-26T06:43:26.000Z</time>
      </trkpt>
      <trkpt lat="27.985894" lon="86.837344">
        <ele>5162.2</ele>
        <time>2022-10-26T06:43:29.000Z</time>
      </trkpt>
      <trkpt lat="27.985901" lon="86.83737">
        <ele>5162.6</ele>
        <time>2022-10-26T06:43:35.000Z</time>
      </trkpt>
      <trkpt lat="27.985904" lon="86.837395">
        <ele>5163.2</ele>
        <time>2022-10-26T06:43:39.000Z</time>
      </trkpt>
      <trkpt lat="27.98591" lon="86.837421">
        <ele>5164.4</ele>
        <time>2022-10-26T06:43:46.000Z</time>
      </trkpt>
      <trkpt lat="27.985914" lon="86.837446">
        <ele>5164.6</ele>
        <time>2022-10-26T06:43:51.000Z</time>
      </trkpt>
      <trkpt lat="27.985914" lon="86.837472">
        <ele>5165</ele>
        <time>2022-10-26T06:43:55.000Z</time>
      </trkpt>
      <trkpt lat="27.98592" lon="86.837504">
        <ele>5165</ele>
        <time>2022-10-26T06:44:01.000Z</time>
      </trkpt>
      <trkpt lat="27.985926" lon="86.837523">
        <ele>5165.6</ele>
        <time>2022-10-26T06:44:06.000Z</time>
      </trkpt>
      <trkpt lat="27.98593" lon="86.837549">
        <ele>5165.8</ele>
        <time>2022-10-26T06:44:10.000Z</time>
      </trkpt>
      <trkpt lat="27.985936" lon="86.837568">
        <ele>5166.4</ele>
        <time>2022-10-26T06:44:14.000Z</time>
      </trkpt>
      <trkpt lat="27.985942" lon="86.837594">
        <ele>5166.4</ele>
        <time>2022-10-26T06:44:18.000Z</time>
      </trkpt>
      <trkpt lat="27.985939" lon="86.837626">
        <ele>5167</ele>
        <time>2022-10-26T06:44:23.000Z</time>
      </trkpt>
      <trkpt lat="27.985939" lon="86.837664">
        <ele>5167.2</ele>
        <time>2022-10-26T06:44:28.000Z</time>
      </trkpt>
      <trkpt lat="27.985936" lon="86.83769">
        <ele>5167.6</ele>
        <time>2022-10-26T06:44:33.000Z</time>
      </trkpt>
      <trkpt lat="27.985936" lon="86.837715">
        <ele>5167.2</ele>
        <time>2022-10-26T06:44:37.000Z</time>
      </trkpt>
      <trkpt lat="27.985936" lon="86.837741">
        <ele>5167.2</ele>
        <time>2022-10-26T06:44:41.000Z</time>
      </trkpt>
      <trkpt lat="27.985933" lon="86.837766">
        <ele>5167.8</ele>
        <time>2022-10-26T06:44:46.000Z</time>
      </trkpt>
      <trkpt lat="27.985936" lon="86.837792">
        <ele>5167.2</ele>
        <time>2022-10-26T06:44:50.000Z</time>
      </trkpt>
      <trkpt lat="27.985942" lon="86.837824">
        <ele>5167</ele>
        <time>2022-10-26T06:44:53.000Z</time>
      </trkpt>
      <trkpt lat="27.985952" lon="86.837843">
        <ele>5167</ele>
        <time>2022-10-26T06:44:56.000Z</time>
      </trkpt>
      <trkpt lat="27.985965" lon="86.837862">
        <ele>5167.2</ele>
        <time>2022-10-26T06:44:59.000Z</time>
      </trkpt>
      <trkpt lat="27.985997" lon="86.837901">
        <ele>5166.8</ele>
        <time>2022-10-26T06:45:06.000Z</time>
      </trkpt>
      <trkpt lat="27.986006" lon="86.83792">
        <ele>5166.4</ele>
        <time>2022-10-26T06:45:10.000Z</time>
      </trkpt>
      <trkpt lat="27.986013" lon="86.837939">
        <ele>5166.2</ele>
        <time>2022-10-26T06:45:12.000Z</time>
      </trkpt>
      <trkpt lat="27.986016" lon="86.837965">
        <ele>5167</ele>
        <time>2022-10-26T06:45:20.000Z</time>
      </trkpt>
      <trkpt lat="27.986016" lon="86.83799">
        <ele>5166.8</ele>
        <time>2022-10-26T06:45:23.000Z</time>
      </trkpt>
      <trkpt lat="27.986022" lon="86.83801">
        <ele>5166.4</ele>
        <time>2022-10-26T06:45:29.000Z</time>
      </trkpt>
      <trkpt lat="27.986032" lon="86.838035">
        <ele>5166.4</ele>
        <time>2022-10-26T06:45:32.000Z</time>
      </trkpt>
      <trkpt lat="27.986045" lon="86.838061">
        <ele>5166.4</ele>
        <time>2022-10-26T06:45:36.000Z</time>
      </trkpt>
      <trkpt lat="27.986051" lon="86.83808">
        <ele>5166.4</ele>
        <time>2022-10-26T06:45:39.000Z</time>
      </trkpt>
      <trkpt lat="27.986054" lon="86.838106">
        <ele>5165.6</ele>
        <time>2022-10-26T06:46:08.000Z</time>
      </trkpt>
      <trkpt lat="27.986054" lon="86.838138">
        <ele>5165.2</ele>
        <time>2022-10-26T06:46:13.000Z</time>
      </trkpt>
      <trkpt lat="27.986064" lon="86.838157">
        <ele>5165.2</ele>
        <time>2022-10-26T06:46:15.000Z</time>
      </trkpt>
      <trkpt lat="27.98607" lon="86.838176">
        <ele>5165</ele>
        <time>2022-10-26T06:46:17.000Z</time>
      </trkpt>
      <trkpt lat="27.986086" lon="86.838195">
        <ele>5164.8</ele>
        <time>2022-10-26T06:46:20.000Z</time>
      </trkpt>
      <trkpt lat="27.986102" lon="86.838208">
        <ele>5164.4</ele>
        <time>2022-10-26T06:46:23.000Z</time>
      </trkpt>
      <trkpt lat="27.986112" lon="86.838234">
        <ele>5164.2</ele>
        <time>2022-10-26T06:46:26.000Z</time>
      </trkpt>
      <trkpt lat="27.986128" lon="86.838259">
        <ele>5163.8</ele>
        <time>2022-10-26T06:46:30.000Z</time>
      </trkpt>
      <trkpt lat="27.986141" lon="86.838278">
        <ele>5163.8</ele>
        <time>2022-10-26T06:46:33.000Z</time>
      </trkpt>
      <trkpt lat="27.98615" lon="86.838298">
        <ele>5163.8</ele>
        <time>2022-10-26T06:46:36.000Z</time>
      </trkpt>
      <trkpt lat="27.986163" lon="86.838317">
        <ele>5164.2</ele>
        <time>2022-10-26T06:46:40.000Z</time>
      </trkpt>
      <trkpt lat="27.986176" lon="86.838336">
        <ele>5164.4</ele>
        <time>2022-10-26T06:46:43.000Z</time>
      </trkpt>
      <trkpt lat="27.986192" lon="86.838349">
        <ele>5164.8</ele>
        <time>2022-10-26T06:46:45.000Z</time>
      </trkpt>
      <trkpt lat="27.986208" lon="86.838362">
        <ele>5165</ele>
        <time>2022-10-26T06:46:48.000Z</time>
      </trkpt>
      <trkpt lat="27.986224" lon="86.838374">
        <ele>5165.2</ele>
        <time>2022-10-26T06:46:51.000Z</time>
      </trkpt>
      <trkpt lat="27.986237" lon="86.838394">
        <ele>5165.8</ele>
        <time>2022-10-26T06:46:55.000Z</time>
      </trkpt>
      <trkpt lat="27.986253" lon="86.838419">
        <ele>5165.2</ele>
        <time>2022-10-26T06:46:59.000Z</time>
      </trkpt>
      <trkpt lat="27.986269" lon="86.838438">
        <ele>5165</ele>
        <time>2022-10-26T06:47:03.000Z</time>
      </trkpt>
      <trkpt lat="27.986275" lon="86.838458">
        <ele>5165.6</ele>
        <time>2022-10-26T06:47:06.000Z</time>
      </trkpt>
      <trkpt lat="27.986291" lon="86.838477">
        <ele>5166.2</ele>
        <time>2022-10-26T06:47:10.000Z</time>
      </trkpt>
      <trkpt lat="27.986301" lon="86.838496">
        <ele>5166.6</ele>
        <time>2022-10-26T06:47:13.000Z</time>
      </trkpt>
      <trkpt lat="27.98632" lon="86.838502">
        <ele>5166.4</ele>
        <time>2022-10-26T06:47:16.000Z</time>
      </trkpt>
      <trkpt lat="27.986342" lon="86.838515">
        <ele>5166.4</ele>
        <time>2022-10-26T06:47:20.000Z</time>
      </trkpt>
      <trkpt lat="27.986362" lon="86.838522">
        <ele>5166.4</ele>
        <time>2022-10-26T06:47:23.000Z</time>
      </trkpt>
      <trkpt lat="27.986374" lon="86.838541">
        <ele>5166.6</ele>
        <time>2022-10-26T06:47:26.000Z</time>
      </trkpt>
      <trkpt lat="27.986397" lon="86.838547">
        <ele>5167.6</ele>
        <time>2022-10-26T06:47:31.000Z</time>
      </trkpt>
      <trkpt lat="27.986413" lon="86.83856">
        <ele>5167.8</ele>
        <time>2022-10-26T06:47:35.000Z</time>
      </trkpt>
      <trkpt lat="27.986429" lon="86.838573">
        <ele>5167.8</ele>
        <time>2022-10-26T06:47:38.000Z</time>
      </trkpt>
      <trkpt lat="27.986435" lon="86.838592">
        <ele>5169</ele>
        <time>2022-10-26T06:47:42.000Z</time>
      </trkpt>
      <trkpt lat="27.986442" lon="86.838618">
        <ele>5168.6</ele>
        <time>2022-10-26T06:47:45.000Z</time>
      </trkpt>
      <trkpt lat="27.986461" lon="86.838624">
        <ele>5168.6</ele>
        <time>2022-10-26T06:47:50.000Z</time>
      </trkpt>
      <trkpt lat="27.98647" lon="86.838605">
        <ele>5168.6</ele>
        <time>2022-10-26T06:47:55.000Z</time>
      </trkpt>
      <trkpt lat="27.98649" lon="86.838598">
        <ele>5169.2</ele>
        <time>2022-10-26T06:48:00.000Z</time>
      </trkpt>
      <trkpt lat="27.986509" lon="86.838618">
        <ele>5168.6</ele>
        <time>2022-10-26T06:48:04.000Z</time>
      </trkpt>
      <trkpt lat="27.986534" lon="86.838618">
        <ele>5167.8</ele>
        <time>2022-10-26T06:48:08.000Z</time>
      </trkpt>
      <trkpt lat="27.98655" lon="86.83863">
        <ele>5167.4</ele>
        <time>2022-10-26T06:48:12.000Z</time>
      </trkpt>
      <trkpt lat="27.98657" lon="86.838643">
        <ele>5167.2</ele>
        <time>2022-10-26T06:48:15.000Z</time>
      </trkpt>
      <trkpt lat="27.986582" lon="86.838662">
        <ele>5166.4</ele>
        <time>2022-10-26T06:48:18.000Z</time>
      </trkpt>
      <trkpt lat="27.986602" lon="86.838669">
        <ele>5166.6</ele>
        <time>2022-10-26T06:48:21.000Z</time>
      </trkpt>
      <trkpt lat="27.986618" lon="86.838682">
        <ele>5166.6</ele>
        <time>2022-10-26T06:48:24.000Z</time>
      </trkpt>
      <trkpt lat="27.986624" lon="86.838701">
        <ele>5165.8</ele>
        <time>2022-10-26T06:48:26.000Z</time>
      </trkpt>
      <trkpt lat="27.98663" lon="86.83872">
        <ele>5166.4</ele>
        <time>2022-10-26T06:48:30.000Z</time>
      </trkpt>
      <trkpt lat="27.98664" lon="86.838739">
        <ele>5166.6</ele>
        <time>2022-10-26T06:48:33.000Z</time>
      </trkpt>
      <trkpt lat="27.986656" lon="86.838752">
        <ele>5167.4</ele>
        <time>2022-10-26T06:48:37.000Z</time>
      </trkpt>
      <trkpt lat="27.986669" lon="86.838771">
        <ele>5168.2</ele>
        <time>2022-10-26T06:48:40.000Z</time>
      </trkpt>
      <trkpt lat="27.986669" lon="86.838797">
        <ele>5167.8</ele>
        <time>2022-10-26T06:48:44.000Z</time>
      </trkpt>
      <trkpt lat="27.986678" lon="86.838816">
        <ele>5168</ele>
        <time>2022-10-26T06:48:47.000Z</time>
      </trkpt>
      <trkpt lat="27.986688" lon="86.838835">
        <ele>5168.6</ele>
        <time>2022-10-26T06:48:50.000Z</time>
      </trkpt>
      <trkpt lat="27.986678" lon="86.838861">
        <ele>5167.6</ele>
        <time>2022-10-26T06:49:15.000Z</time>
      </trkpt>
      <trkpt lat="27.986672" lon="86.838893">
        <ele>5168</ele>
        <time>2022-10-26T06:49:17.000Z</time>
      </trkpt>
      <trkpt lat="27.986672" lon="86.838918">
        <ele>5168</ele>
        <time>2022-10-26T06:49:20.000Z</time>
      </trkpt>
      <trkpt lat="27.986675" lon="86.838944">
        <ele>5168.2</ele>
        <time>2022-10-26T06:49:23.000Z</time>
      </trkpt>
      <trkpt lat="27.986694" lon="86.838938">
        <ele>5168</ele>
        <time>2022-10-26T06:49:26.000Z</time>
      </trkpt>
      <trkpt lat="27.98671" lon="86.83895">
        <ele>5168</ele>
        <time>2022-10-26T06:49:29.000Z</time>
      </trkpt>
      <trkpt lat="27.98673" lon="86.838963">
        <ele>5168.6</ele>
        <time>2022-10-26T06:49:32.000Z</time>
      </trkpt>
      <trkpt lat="27.986749" lon="86.838976">
        <ele>5168</ele>
        <time>2022-10-26T06:49:36.000Z</time>
      </trkpt>
      <trkpt lat="27.986768" lon="86.838963">
        <ele>5168.2</ele>
        <time>2022-10-26T06:49:40.000Z</time>
      </trkpt>
      <trkpt lat="27.986787" lon="86.838976">
        <ele>5168.6</ele>
        <time>2022-10-26T06:49:45.000Z</time>
      </trkpt>
      <trkpt lat="27.98681" lon="86.838976">
        <ele>5168.8</ele>
        <time>2022-10-26T06:49:48.000Z</time>
      </trkpt>
      <trkpt lat="27.986826" lon="86.838963">
        <ele>5169.6</ele>
        <time>2022-10-26T06:49:51.000Z</time>
      </trkpt>
      <trkpt lat="27.986842" lon="86.838976">
        <ele>5169.4</ele>
        <time>2022-10-26T06:49:54.000Z</time>
      </trkpt>
      <trkpt lat="27.986861" lon="86.838976">
        <ele>5169.4</ele>
        <time>2022-10-26T06:49:56.000Z</time>
      </trkpt>
      <trkpt lat="27.986874" lon="86.838995">
        <ele>5170</ele>
        <time>2022-10-26T06:50:00.000Z</time>
      </trkpt>
      <trkpt lat="27.986893" lon="86.839002">
        <ele>5170.2</ele>
        <time>2022-10-26T06:50:05.000Z</time>
      </trkpt>
      <trkpt lat="27.986909" lon="86.839021">
        <ele>5170.4</ele>
        <time>2022-10-26T06:50:10.000Z</time>
      </trkpt>
      <trkpt lat="27.986909" lon="86.839053">
        <ele>5171</ele>
        <time>2022-10-26T06:50:16.000Z</time>
      </trkpt>
      <trkpt lat="27.986896" lon="86.839078">
        <ele>5173.2</ele>
        <time>2022-10-26T06:50:41.000Z</time>
      </trkpt>
      <trkpt lat="27.986896" lon="86.839104">
        <ele>5173.2</ele>
        <time>2022-10-26T06:50:43.000Z</time>
      </trkpt>
      <trkpt lat="27.986896" lon="86.83913">
        <ele>5173.6</ele>
        <time>2022-10-26T06:50:45.000Z</time>
      </trkpt>
      <trkpt lat="27.986909" lon="86.839149">
        <ele>5174.2</ele>
        <time>2022-10-26T06:50:48.000Z</time>
      </trkpt>
      <trkpt lat="27.986928" lon="86.839155">
        <ele>5174.4</ele>
        <time>2022-10-26T06:50:52.000Z</time>
      </trkpt>
      <trkpt lat="27.986947" lon="86.839149">
        <ele>5174.4</ele>
        <time>2022-10-26T06:50:56.000Z</time>
      </trkpt>
      <trkpt lat="27.986957" lon="86.83913">
        <ele>5174.4</ele>
        <time>2022-10-26T06:51:00.000Z</time>
      </trkpt>
      <trkpt lat="27.986976" lon="86.839117">
        <ele>5175</ele>
        <time>2022-10-26T06:51:03.000Z</time>
      </trkpt>
      <trkpt lat="27.986995" lon="86.83911">
        <ele>5176.2</ele>
        <time>2022-10-26T06:51:07.000Z</time>
      </trkpt>
      <trkpt lat="27.987014" lon="86.83911">
        <ele>5175.6</ele>
        <time>2022-10-26T06:51:13.000Z</time>
      </trkpt>
      <trkpt lat="27.98703" lon="86.839098">
        <ele>5175.6</ele>
        <time>2022-10-26T06:51:19.000Z</time>
      </trkpt>
      <trkpt lat="27.987046" lon="86.839078">
        <ele>5177.2</ele>
        <time>2022-10-26T06:51:24.000Z</time>
      </trkpt>
      <trkpt lat="27.987069" lon="86.839078">
        <ele>5177.2</ele>
        <time>2022-10-26T06:51:28.000Z</time>
      </trkpt>
      <trkpt lat="27.987088" lon="86.839072">
        <ele>5177.6</ele>
        <time>2022-10-26T06:51:32.000Z</time>
      </trkpt>
      <trkpt lat="27.987104" lon="86.839091">
        <ele>5177</ele>
        <time>2022-10-26T06:51:34.000Z</time>
      </trkpt>
      <trkpt lat="27.98713" lon="86.839117">
        <ele>5180.6</ele>
        <time>2022-10-26T06:55:26.000Z</time>
      </trkpt>
      <trkpt lat="27.987152" lon="86.83913">
        <ele>5180.6</ele>
        <time>2022-10-26T06:55:29.000Z</time>
      </trkpt>
      <trkpt lat="27.987171" lon="86.839142">
        <ele>5180.8</ele>
        <time>2022-10-26T06:55:32.000Z</time>
      </trkpt>
      <trkpt lat="27.98719" lon="86.839149">
        <ele>5181.4</ele>
        <time>2022-10-26T06:55:36.000Z</time>
      </trkpt>
      <trkpt lat="27.987213" lon="86.839149">
        <ele>5182.4</ele>
        <time>2022-10-26T06:55:41.000Z</time>
      </trkpt>
      <trkpt lat="27.987235" lon="86.839155">
        <ele>5183</ele>
        <time>2022-10-26T06:55:47.000Z</time>
      </trkpt>
      <trkpt lat="27.987254" lon="86.839162">
        <ele>5183</ele>
        <time>2022-10-26T06:55:54.000Z</time>
      </trkpt>
      <trkpt lat="27.987261" lon="86.839181">
        <ele>5183.4</ele>
        <time>2022-10-26T06:55:56.000Z</time>
      </trkpt>
      <trkpt lat="27.987274" lon="86.8392">
        <ele>5183.6</ele>
        <time>2022-10-26T06:56:00.000Z</time>
      </trkpt>
      <trkpt lat="27.987277" lon="86.839226">
        <ele>5184</ele>
        <time>2022-10-26T06:56:04.000Z</time>
      </trkpt>
      <trkpt lat="27.987296" lon="86.839226">
        <ele>5184.2</ele>
        <time>2022-10-26T06:56:10.000Z</time>
      </trkpt>
      <trkpt lat="27.987312" lon="86.839238">
        <ele>5185</ele>
        <time>2022-10-26T06:56:14.000Z</time>
      </trkpt>
      <trkpt lat="27.987328" lon="86.839251">
        <ele>5185.4</ele>
        <time>2022-10-26T06:56:20.000Z</time>
      </trkpt>
      <trkpt lat="27.987347" lon="86.839264">
        <ele>5185.6</ele>
        <time>2022-10-26T06:56:24.000Z</time>
      </trkpt>
      <trkpt lat="27.987363" lon="86.839277">
        <ele>5185.8</ele>
        <time>2022-10-26T06:56:29.000Z</time>
      </trkpt>
      <trkpt lat="27.98737" lon="86.839296">
        <ele>5186.4</ele>
        <time>2022-10-26T06:56:32.000Z</time>
      </trkpt>
      <trkpt lat="27.987392" lon="86.839309">
        <ele>5186.4</ele>
        <time>2022-10-26T06:56:36.000Z</time>
      </trkpt>
      <trkpt lat="27.987402" lon="86.839328">
        <ele>5185.8</ele>
        <time>2022-10-26T06:56:40.000Z</time>
      </trkpt>
      <trkpt lat="27.987418" lon="86.839341">
        <ele>5185</ele>
        <time>2022-10-26T06:56:45.000Z</time>
      </trkpt>
      <trkpt lat="27.987434" lon="86.83936">
        <ele>5184.8</ele>
        <time>2022-10-26T06:56:50.000Z</time>
      </trkpt>
      <trkpt lat="27.987446" lon="86.839379">
        <ele>5184.8</ele>
        <time>2022-10-26T06:56:53.000Z</time>
      </trkpt>
      <trkpt lat="27.987466" lon="86.839392">
        <ele>5184.4</ele>
        <time>2022-10-26T06:56:58.000Z</time>
      </trkpt>
      <trkpt lat="27.987478" lon="86.839411">
        <ele>5185.6</ele>
        <time>2022-10-26T06:57:03.000Z</time>
      </trkpt>
      <trkpt lat="27.987494" lon="86.839424">
        <ele>5185.8</ele>
        <time>2022-10-26T06:57:09.000Z</time>
      </trkpt>
      <trkpt lat="27.987514" lon="86.83943">
        <ele>5186.2</ele>
        <time>2022-10-26T06:57:14.000Z</time>
      </trkpt>
      <trkpt lat="27.987526" lon="86.83945">
        <ele>5186.2</ele>
        <time>2022-10-26T06:57:20.000Z</time>
      </trkpt>
      <trkpt lat="27.987523" lon="86.839475">
        <ele>5186.8</ele>
        <time>2022-10-26T06:57:25.000Z</time>
      </trkpt>
      <trkpt lat="27.987517" lon="86.839494">
        <ele>5187.2</ele>
        <time>2022-10-26T06:57:30.000Z</time>
      </trkpt>
      <trkpt lat="27.987517" lon="86.839526">
        <ele>5187.6</ele>
        <time>2022-10-26T06:57:36.000Z</time>
      </trkpt>
      <trkpt lat="27.987514" lon="86.839552">
        <ele>5187.6</ele>
        <time>2022-10-26T06:57:41.000Z</time>
      </trkpt>
      <trkpt lat="27.987523" lon="86.839571">
        <ele>5188.2</ele>
        <time>2022-10-26T06:57:44.000Z</time>
      </trkpt>
      <trkpt lat="27.987536" lon="86.83959">
        <ele>5188</ele>
        <time>2022-10-26T06:57:49.000Z</time>
      </trkpt>
      <trkpt lat="27.987542" lon="86.839616">
        <ele>5187.8</ele>
        <time>2022-10-26T06:57:53.000Z</time>
      </trkpt>
      <trkpt lat="27.987558" lon="86.839635">
        <ele>5188.4</ele>
        <time>2022-10-26T06:57:58.000Z</time>
      </trkpt>
      <trkpt lat="27.987568" lon="86.839654">
        <ele>5188.6</ele>
        <time>2022-10-26T06:58:02.000Z</time>
      </trkpt>
      <trkpt lat="27.987581" lon="86.839674">
        <ele>5188.8</ele>
        <time>2022-10-26T06:58:05.000Z</time>
      </trkpt>
      <trkpt lat="27.987584" lon="86.839706">
        <ele>5189.4</ele>
        <time>2022-10-26T06:58:09.000Z</time>
      </trkpt>
      <trkpt lat="27.98759" lon="86.839731">
        <ele>5189.6</ele>
        <time>2022-10-26T06:58:12.000Z</time>
      </trkpt>
      <trkpt lat="27.987597" lon="86.83975">
        <ele>5189.2</ele>
        <time>2022-10-26T06:58:15.000Z</time>
      </trkpt>
      <trkpt lat="27.98761" lon="86.83977">
        <ele>5189.2</ele>
        <time>2022-10-26T06:58:19.000Z</time>
      </trkpt>
      <trkpt lat="27.987626" lon="86.839789">
        <ele>5188</ele>
        <time>2022-10-26T06:58:26.000Z</time>
      </trkpt>
      <trkpt lat="27.987632" lon="86.839808">
        <ele>5188.2</ele>
        <time>2022-10-26T06:58:28.000Z</time>
      </trkpt>
      <trkpt lat="27.987654" lon="86.839821">
        <ele>5188.2</ele>
        <time>2022-10-26T06:58:31.000Z</time>
      </trkpt>
      <trkpt lat="27.987664" lon="86.839846">
        <ele>5188.4</ele>
        <time>2022-10-26T06:58:35.000Z</time>
      </trkpt>
      <trkpt lat="27.98767" lon="86.839866">
        <ele>5188.2</ele>
        <time>2022-10-26T06:59:13.000Z</time>
      </trkpt>
      <trkpt lat="27.987693" lon="86.839872">
        <ele>5188.6</ele>
        <time>2022-10-26T06:59:15.000Z</time>
      </trkpt>
      <trkpt lat="27.987715" lon="86.839885">
        <ele>5189.2</ele>
        <time>2022-10-26T06:59:17.000Z</time>
      </trkpt>
      <trkpt lat="27.987734" lon="86.839891">
        <ele>5189.2</ele>
        <time>2022-10-26T06:59:19.000Z</time>
      </trkpt>
      <trkpt lat="27.98776" lon="86.839898">
        <ele>5189.4</ele>
        <time>2022-10-26T06:59:21.000Z</time>
      </trkpt>
      <trkpt lat="27.987779" lon="86.83991">
        <ele>5189.6</ele>
        <time>2022-10-26T06:59:25.000Z</time>
      </trkpt>
      <trkpt lat="27.987802" lon="86.83991">
        <ele>5190</ele>
        <time>2022-10-26T06:59:34.000Z</time>
      </trkpt>
      <trkpt lat="27.987821" lon="86.839904">
        <ele>5191.2</ele>
        <time>2022-10-26T06:59:40.000Z</time>
      </trkpt>
      <trkpt lat="27.987843" lon="86.839904">
        <ele>5192.2</ele>
        <time>2022-10-26T06:59:45.000Z</time>
      </trkpt>
      <trkpt lat="27.987866" lon="86.839904">
        <ele>5193</ele>
        <time>2022-10-26T06:59:51.000Z</time>
      </trkpt>
      <trkpt lat="27.987875" lon="86.839923">
        <ele>5193.6</ele>
        <time>2022-10-26T06:59:54.000Z</time>
      </trkpt>
      <trkpt lat="27.987891" lon="86.839936">
        <ele>5193.8</ele>
        <time>2022-10-26T06:59:58.000Z</time>
      </trkpt>
      <trkpt lat="27.98791" lon="86.839942">
        <ele>5193.8</ele>
        <time>2022-10-26T07:00:02.000Z</time>
      </trkpt>
      <trkpt lat="27.987933" lon="86.839936">
        <ele>5194.4</ele>
        <time>2022-10-26T07:00:07.000Z</time>
      </trkpt>
      <trkpt lat="27.987958" lon="86.839942">
        <ele>5194.4</ele>
        <time>2022-10-26T07:00:10.000Z</time>
      </trkpt>
      <trkpt lat="27.987981" lon="86.839942">
        <ele>5194.4</ele>
        <time>2022-10-26T07:00:13.000Z</time>
      </trkpt>
      <trkpt lat="27.988003" lon="86.839949">
        <ele>5194.4</ele>
        <time>2022-10-26T07:00:17.000Z</time>
      </trkpt>
      <trkpt lat="27.988022" lon="86.839949">
        <ele>5195</ele>
        <time>2022-10-26T07:00:28.000Z</time>
      </trkpt>
      <trkpt lat="27.988042" lon="86.839942">
        <ele>5194.6</ele>
        <time>2022-10-26T07:00:34.000Z</time>
      </trkpt>
      <trkpt lat="27.988061" lon="86.839936">
        <ele>5195.2</ele>
        <time>2022-10-26T07:00:40.000Z</time>
      </trkpt>
      <trkpt lat="27.98808" lon="86.83993">
        <ele>5195.8</ele>
        <time>2022-10-26T07:00:44.000Z</time>
      </trkpt>
      <trkpt lat="27.988099" lon="86.839936">
        <ele>5196.4</ele>
        <time>2022-10-26T07:00:48.000Z</time>
      </trkpt>
      <trkpt lat="27.988125" lon="86.839936">
        <ele>5196.6</ele>
        <time>2022-10-26T07:00:52.000Z</time>
      </trkpt>
      <trkpt lat="27.988134" lon="86.839955">
        <ele>5196.2</ele>
        <time>2022-10-26T07:00:58.000Z</time>
      </trkpt>
      <trkpt lat="27.988138" lon="86.839981">
        <ele>5195.6</ele>
        <time>2022-10-26T07:01:01.000Z</time>
      </trkpt>
      <trkpt lat="27.988134" lon="86.840006">
        <ele>5194.8</ele>
        <time>2022-10-26T07:01:05.000Z</time>
      </trkpt>
      <trkpt lat="27.988138" lon="86.840032">
        <ele>5193.2</ele>
        <time>2022-10-26T07:01:10.000Z</time>
      </trkpt>
      <trkpt lat="27.988147" lon="86.840051">
        <ele>5193.6</ele>
        <time>2022-10-26T07:01:13.000Z</time>
      </trkpt>
      <trkpt lat="27.98816" lon="86.84007">
        <ele>5192.6</ele>
        <time>2022-10-26T07:01:16.000Z</time>
      </trkpt>
      <trkpt lat="27.988173" lon="86.84009">
        <ele>5192.2</ele>
        <time>2022-10-26T07:01:18.000Z</time>
      </trkpt>
      <trkpt lat="27.988192" lon="86.840102">
        <ele>5192.6</ele>
        <time>2022-10-26T07:01:23.000Z</time>
      </trkpt>
      <trkpt lat="27.988208" lon="86.84009">
        <ele>5192.8</ele>
        <time>2022-10-26T07:01:26.000Z</time>
      </trkpt>
      <trkpt lat="27.988227" lon="86.84009">
        <ele>5193</ele>
        <time>2022-10-26T07:01:29.000Z</time>
      </trkpt>
      <trkpt lat="27.988246" lon="86.840096">
        <ele>5193</ele>
        <time>2022-10-26T07:01:32.000Z</time>
      </trkpt>
      <trkpt lat="27.988266" lon="86.840096">
        <ele>5193.6</ele>
        <time>2022-10-26T07:01:36.000Z</time>
      </trkpt>
      <trkpt lat="27.988288" lon="86.840096">
        <ele>5194.2</ele>
        <time>2022-10-26T07:01:40.000Z</time>
      </trkpt>
      <trkpt lat="27.988307" lon="86.840122">
        <ele>5194.2</ele>
        <time>2022-10-26T07:01:45.000Z</time>
      </trkpt>
      <trkpt lat="27.98833" lon="86.840128">
        <ele>5193.2</ele>
        <time>2022-10-26T07:01:48.000Z</time>
      </trkpt>
      <trkpt lat="27.988349" lon="86.840128">
        <ele>5193</ele>
        <time>2022-10-26T07:01:51.000Z</time>
      </trkpt>
      <trkpt lat="27.988358" lon="86.840109">
        <ele>5193</ele>
        <time>2022-10-26T07:01:53.000Z</time>
      </trkpt>
      <trkpt lat="27.988378" lon="86.840102">
        <ele>5193.2</ele>
        <time>2022-10-26T07:01:56.000Z</time>
      </trkpt>
      <trkpt lat="27.988397" lon="86.840096">
        <ele>5193.6</ele>
        <time>2022-10-26T07:01:59.000Z</time>
      </trkpt>
      <trkpt lat="27.988413" lon="86.840083">
        <ele>5193.8</ele>
        <time>2022-10-26T07:02:03.000Z</time>
      </trkpt>
      <trkpt lat="27.988429" lon="86.84007">
        <ele>5194.4</ele>
        <time>2022-10-26T07:02:07.000Z</time>
      </trkpt>
      <trkpt lat="27.988445" lon="86.840058">
        <ele>5193.6</ele>
        <time>2022-10-26T07:02:10.000Z</time>
      </trkpt>
      <trkpt lat="27.988464" lon="86.840032">
        <ele>5194</ele>
        <time>2022-10-26T07:02:15.000Z</time>
      </trkpt>
      <trkpt lat="27.988486" lon="86.840026">
        <ele>5194.4</ele>
        <time>2022-10-26T07:02:19.000Z</time>
      </trkpt>
      <trkpt lat="27.988506" lon="86.840019">
        <ele>5194</ele>
        <time>2022-10-26T07:02:22.000Z</time>
      </trkpt>
      <trkpt lat="27.988531" lon="86.840013">
        <ele>5194</ele>
        <time>2022-10-26T07:02:25.000Z</time>
      </trkpt>
      <trkpt lat="27.988547" lon="86.840026">
        <ele>5193.8</ele>
        <time>2022-10-26T07:02:28.000Z</time>
      </trkpt>
      <trkpt lat="27.988566" lon="86.840026">
        <ele>5194</ele>
        <time>2022-10-26T07:02:31.000Z</time>
      </trkpt>
      <trkpt lat="27.988586" lon="86.840026">
        <ele>5193.8</ele>
        <time>2022-10-26T07:02:34.000Z</time>
      </trkpt>
      <trkpt lat="27.988608" lon="86.840032">
        <ele>5193</ele>
        <time>2022-10-26T07:02:38.000Z</time>
      </trkpt>
      <trkpt lat="27.988627" lon="86.840032">
        <ele>5193</ele>
        <time>2022-10-26T07:02:41.000Z</time>
      </trkpt>
      <trkpt lat="27.988646" lon="86.840032">
        <ele>5192.6</ele>
        <time>2022-10-26T07:02:44.000Z</time>
      </trkpt>
      <trkpt lat="27.988666" lon="86.840032">
        <ele>5193.2</ele>
        <time>2022-10-26T07:02:47.000Z</time>
      </trkpt>
      <trkpt lat="27.988672" lon="86.840051">
        <ele>5193.2</ele>
        <time>2022-10-26T07:02:50.000Z</time>
      </trkpt>
      <trkpt lat="27.988678" lon="86.84007">
        <ele>5193.6</ele>
        <time>2022-10-26T07:02:55.000Z</time>
      </trkpt>
      <trkpt lat="27.988698" lon="86.840083">
        <ele>5193.8</ele>
        <time>2022-10-26T07:03:00.000Z</time>
      </trkpt>
      <trkpt lat="27.988691" lon="86.840109">
        <ele>5195.6</ele>
        <time>2022-10-26T07:03:10.000Z</time>
      </trkpt>
      <trkpt lat="27.988688" lon="86.840134">
        <ele>5195.6</ele>
        <time>2022-10-26T07:03:16.000Z</time>
      </trkpt>
      <trkpt lat="27.988694" lon="86.840154">
        <ele>5195.6</ele>
        <time>2022-10-26T07:03:23.000Z</time>
      </trkpt>
      <trkpt lat="27.988714" lon="86.840147">
        <ele>5197.6</ele>
        <time>2022-10-26T07:03:32.000Z</time>
      </trkpt>
      <trkpt lat="27.988726" lon="86.840166">
        <ele>5197.6</ele>
        <time>2022-10-26T07:03:40.000Z</time>
      </trkpt>
      <trkpt lat="27.988714" lon="86.840186">
        <ele>5199</ele>
        <time>2022-10-26T07:03:48.000Z</time>
      </trkpt>
      <trkpt lat="27.988707" lon="86.840205">
        <ele>5200.2</ele>
        <time>2022-10-26T07:03:56.000Z</time>
      </trkpt>
      <trkpt lat="27.988701" lon="86.840224">
        <ele>5200.4</ele>
        <time>2022-10-26T07:04:01.000Z</time>
      </trkpt>
      <trkpt lat="27.988704" lon="86.84025">
        <ele>5201</ele>
        <time>2022-10-26T07:04:06.000Z</time>
      </trkpt>
      <trkpt lat="27.988704" lon="86.840282">
        <ele>5201.4</ele>
        <time>2022-10-26T07:04:11.000Z</time>
      </trkpt>
      <trkpt lat="27.988714" lon="86.840301">
        <ele>5203.4</ele>
        <time>2022-10-26T07:04:18.000Z</time>
      </trkpt>
      <trkpt lat="27.988874" lon="86.840301">
        <ele>5210.6</ele>
        <time>2022-10-26T07:05:42.000Z</time>
      </trkpt>
      <trkpt lat="27.988893" lon="86.840314">
        <ele>5210.8</ele>
        <time>2022-10-26T07:05:44.000Z</time>
      </trkpt>
      <trkpt lat="27.988912" lon="86.840333">
        <ele>5211</ele>
        <time>2022-10-26T07:05:46.000Z</time>
      </trkpt>
      <trkpt lat="27.988934" lon="86.840346">
        <ele>5211</ele>
        <time>2022-10-26T07:05:49.000Z</time>
      </trkpt>
      <trkpt lat="27.988947" lon="86.840365">
        <ele>5211.4</ele>
        <time>2022-10-26T07:05:51.000Z</time>
      </trkpt>
      <trkpt lat="27.988947" lon="86.84039">
        <ele>5211.6</ele>
        <time>2022-10-26T07:05:58.000Z</time>
      </trkpt>
      <trkpt lat="27.988954" lon="86.840416">
        <ele>5212.2</ele>
        <time>2022-10-26T07:06:02.000Z</time>
      </trkpt>
      <trkpt lat="27.988963" lon="86.840454">
        <ele>5210</ele>
        <time>2022-10-26T07:06:43.000Z</time>
      </trkpt>
      <trkpt lat="27.988986" lon="86.84048">
        <ele>5210</ele>
        <time>2022-10-26T07:06:46.000Z</time>
      </trkpt>
      <trkpt lat="27.988995" lon="86.840499">
        <ele>5209.8</ele>
        <time>2022-10-26T07:06:48.000Z</time>
      </trkpt>
      <trkpt lat="27.989011" lon="86.840525">
        <ele>5209.2</ele>
        <time>2022-10-26T07:06:52.000Z</time>
      </trkpt>
      <trkpt lat="27.989021" lon="86.840544">
        <ele>5208.4</ele>
        <time>2022-10-26T07:06:55.000Z</time>
      </trkpt>
      <trkpt lat="27.98903" lon="86.84057">
        <ele>5208.2</ele>
        <time>2022-10-26T07:06:57.000Z</time>
      </trkpt>
      <trkpt lat="27.989043" lon="86.840589">
        <ele>5208</ele>
        <time>2022-10-26T07:07:01.000Z</time>
      </trkpt>
      <trkpt lat="27.989062" lon="86.840608">
        <ele>5207.8</ele>
        <time>2022-10-26T07:07:04.000Z</time>
      </trkpt>
      <trkpt lat="27.989082" lon="86.840614">
        <ele>5207.2</ele>
        <time>2022-10-26T07:07:10.000Z</time>
      </trkpt>
      <trkpt lat="27.989098" lon="86.840627">
        <ele>5206.8</ele>
        <time>2022-10-26T07:07:12.000Z</time>
      </trkpt>
      <trkpt lat="27.98911" lon="86.840653">
        <ele>5206.6</ele>
        <time>2022-10-26T07:07:14.000Z</time>
      </trkpt>
      <trkpt lat="27.989126" lon="86.840666">
        <ele>5205.8</ele>
        <time>2022-10-26T07:07:16.000Z</time>
      </trkpt>
      <trkpt lat="27.989142" lon="86.840685">
        <ele>5205.4</ele>
        <time>2022-10-26T07:07:18.000Z</time>
      </trkpt>
      <trkpt lat="27.989162" lon="86.840691">
        <ele>5205.8</ele>
        <time>2022-10-26T07:07:20.000Z</time>
      </trkpt>
      <trkpt lat="27.989181" lon="86.840698">
        <ele>5205.4</ele>
        <time>2022-10-26T07:07:23.000Z</time>
      </trkpt>
      <trkpt lat="27.989203" lon="86.840704">
        <ele>5205.8</ele>
        <time>2022-10-26T07:07:26.000Z</time>
      </trkpt>
      <trkpt lat="27.98921" lon="86.840723">
        <ele>5206.2</ele>
        <time>2022-10-26T07:07:34.000Z</time>
      </trkpt>
      <trkpt lat="27.989222" lon="86.840742">
        <ele>5206</ele>
        <time>2022-10-26T07:07:37.000Z</time>
      </trkpt>
      <trkpt lat="27.989232" lon="86.840768">
        <ele>5206</ele>
        <time>2022-10-26T07:07:39.000Z</time>
      </trkpt>
      <trkpt lat="27.989245" lon="86.840787">
        <ele>5205.8</ele>
        <time>2022-10-26T07:07:42.000Z</time>
      </trkpt>
      <trkpt lat="27.989264" lon="86.840806">
        <ele>5206</ele>
        <time>2022-10-26T07:07:45.000Z</time>
      </trkpt>
      <trkpt lat="27.98928" lon="86.840819">
        <ele>5206.2</ele>
        <time>2022-10-26T07:07:48.000Z</time>
      </trkpt>
      <trkpt lat="27.989302" lon="86.840819">
        <ele>5206.8</ele>
        <time>2022-10-26T07:07:52.000Z</time>
      </trkpt>
      <trkpt lat="27.989322" lon="86.840813">
        <ele>5206.6</ele>
        <time>2022-10-26T07:07:55.000Z</time>
      </trkpt>
      <trkpt lat="27.989341" lon="86.840813">
        <ele>5206.8</ele>
        <time>2022-10-26T07:07:58.000Z</time>
      </trkpt>
      <trkpt lat="27.98936" lon="86.840813">
        <ele>5207.2</ele>
        <time>2022-10-26T07:08:01.000Z</time>
      </trkpt>
      <trkpt lat="27.989376" lon="86.840826">
        <ele>5207.8</ele>
        <time>2022-10-26T07:08:05.000Z</time>
      </trkpt>
      <trkpt lat="27.989386" lon="86.840845">
        <ele>5208</ele>
        <time>2022-10-26T07:08:07.000Z</time>
      </trkpt>
      <trkpt lat="27.989402" lon="86.840858">
        <ele>5208.6</ele>
        <time>2022-10-26T07:08:10.000Z</time>
      </trkpt>
      <trkpt lat="27.989402" lon="86.840883">
        <ele>5208.2</ele>
        <time>2022-10-26T07:08:13.000Z</time>
      </trkpt>
      <trkpt lat="27.989414" lon="86.840902">
        <ele>5208</ele>
        <time>2022-10-26T07:08:16.000Z</time>
      </trkpt>
      <trkpt lat="27.989421" lon="86.840922">
        <ele>5208.2</ele>
        <time>2022-10-26T07:08:18.000Z</time>
      </trkpt>
      <trkpt lat="27.98944" lon="86.840934">
        <ele>5209.6</ele>
        <time>2022-10-26T07:08:32.000Z</time>
      </trkpt>
      <trkpt lat="27.989459" lon="86.840941">
        <ele>5208.6</ele>
        <time>2022-10-26T07:08:35.000Z</time>
      </trkpt>
      <trkpt lat="27.989472" lon="86.84096">
        <ele>5209</ele>
        <time>2022-10-26T07:08:39.000Z</time>
      </trkpt>
      <trkpt lat="27.989491" lon="86.840973">
        <ele>5209.4</ele>
        <time>2022-10-26T07:08:42.000Z</time>
      </trkpt>
      <trkpt lat="27.98952" lon="86.840973">
        <ele>5209.8</ele>
        <time>2022-10-26T07:08:45.000Z</time>
      </trkpt>
      <trkpt lat="27.989536" lon="86.840986">
        <ele>5210.8</ele>
        <time>2022-10-26T07:08:52.000Z</time>
      </trkpt>
      <trkpt lat="27.989552" lon="86.840998">
        <ele>5211</ele>
        <time>2022-10-26T07:08:57.000Z</time>
      </trkpt>
      <trkpt lat="27.989558" lon="86.841018">
        <ele>5211.2</ele>
        <time>2022-10-26T07:09:02.000Z</time>
      </trkpt>
      <trkpt lat="27.989562" lon="86.841043">
        <ele>5209.8</ele>
        <time>2022-10-26T07:09:07.000Z</time>
      </trkpt>
      <trkpt lat="27.989581" lon="86.841056">
        <ele>5209.6</ele>
        <time>2022-10-26T07:09:12.000Z</time>
      </trkpt>
      <trkpt lat="27.9896" lon="86.841062">
        <ele>5209.8</ele>
        <time>2022-10-26T07:09:17.000Z</time>
      </trkpt>
      <trkpt lat="27.989619" lon="86.841075">
        <ele>5210.4</ele>
        <time>2022-10-26T07:09:20.000Z</time>
      </trkpt>
      <trkpt lat="27.989635" lon="86.841088">
        <ele>5210.4</ele>
        <time>2022-10-26T07:09:23.000Z</time>
      </trkpt>
      <trkpt lat="27.989651" lon="86.841101">
        <ele>5210.2</ele>
        <time>2022-10-26T07:09:27.000Z</time>
      </trkpt>
      <trkpt lat="27.98967" lon="86.84112">
        <ele>5210.2</ele>
        <time>2022-10-26T07:09:30.000Z</time>
      </trkpt>
      <trkpt lat="27.989686" lon="86.841133">
        <ele>5210.4</ele>
        <time>2022-10-26T07:09:33.000Z</time>
      </trkpt>
      <trkpt lat="27.989706" lon="86.841139">
        <ele>5210.4</ele>
        <time>2022-10-26T07:09:36.000Z</time>
      </trkpt>
      <trkpt lat="27.989725" lon="86.841146">
        <ele>5210.2</ele>
        <time>2022-10-26T07:09:40.000Z</time>
      </trkpt>
      <trkpt lat="27.989744" lon="86.841158">
        <ele>5210.2</ele>
        <time>2022-10-26T07:09:43.000Z</time>
      </trkpt>
      <trkpt lat="27.989763" lon="86.841165">
        <ele>5210</ele>
        <time>2022-10-26T07:09:48.000Z</time>
      </trkpt>
      <trkpt lat="27.989786" lon="86.841178">
        <ele>5209.4</ele>
        <time>2022-10-26T07:09:52.000Z</time>
      </trkpt>
      <trkpt lat="27.989798" lon="86.841197">
        <ele>5209.4</ele>
        <time>2022-10-26T07:09:55.000Z</time>
      </trkpt>
      <trkpt lat="27.989814" lon="86.84121">
        <ele>5209.2</ele>
        <time>2022-10-26T07:10:00.000Z</time>
      </trkpt>
      <trkpt lat="27.989834" lon="86.841216">
        <ele>5208.8</ele>
        <time>2022-10-26T07:10:05.000Z</time>
      </trkpt>
      <trkpt lat="27.989846" lon="86.841235">
        <ele>5208.6</ele>
        <time>2022-10-26T07:10:09.000Z</time>
      </trkpt>
      <trkpt lat="27.989862" lon="86.841248">
        <ele>5208.2</ele>
        <time>2022-10-26T07:10:13.000Z</time>
      </trkpt>
      <trkpt lat="27.989882" lon="86.841254">
        <ele>5208.2</ele>
        <time>2022-10-26T07:10:16.000Z</time>
      </trkpt>
      <trkpt lat="27.989901" lon="86.841261">
        <ele>5207.8</ele>
        <time>2022-10-26T07:10:19.000Z</time>
      </trkpt>
      <trkpt lat="27.989914" lon="86.84128">
        <ele>5207.4</ele>
        <time>2022-10-26T07:10:22.000Z</time>
      </trkpt>
      <trkpt lat="27.989936" lon="86.841293">
        <ele>5207.8</ele>
        <time>2022-10-26T07:10:28.000Z</time>
      </trkpt>
      <trkpt lat="27.989958" lon="86.841286">
        <ele>5207.4</ele>
        <time>2022-10-26T07:10:33.000Z</time>
      </trkpt>
      <trkpt lat="27.989981" lon="86.84128">
        <ele>5208</ele>
        <time>2022-10-26T07:10:36.000Z</time>
      </trkpt>
      <trkpt lat="27.990003" lon="86.84128">
        <ele>5208.4</ele>
        <time>2022-10-26T07:10:40.000Z</time>
      </trkpt>
      <trkpt lat="27.990019" lon="86.841293">
        <ele>5208.4</ele>
        <time>2022-10-26T07:10:44.000Z</time>
      </trkpt>
      <trkpt lat="27.990038" lon="86.841286">
        <ele>5209</ele>
        <time>2022-10-26T07:10:49.000Z</time>
      </trkpt>
      <trkpt lat="27.990054" lon="86.841274">
        <ele>5209.8</ele>
        <time>2022-10-26T07:10:54.000Z</time>
      </trkpt>
      <trkpt lat="27.990074" lon="86.841261">
        <ele>5209.4</ele>
        <time>2022-10-26T07:10:59.000Z</time>
      </trkpt>
      <trkpt lat="27.990099" lon="86.841261">
        <ele>5210</ele>
        <time>2022-10-26T07:11:04.000Z</time>
      </trkpt>
      <trkpt lat="27.990106" lon="86.84128">
        <ele>5210</ele>
        <time>2022-10-26T07:11:10.000Z</time>
      </trkpt>
      <trkpt lat="27.990128" lon="86.841299">
        <ele>5210.2</ele>
        <time>2022-10-26T07:11:32.000Z</time>
      </trkpt>
      <trkpt lat="27.990147" lon="86.841325">
        <ele>5209.8</ele>
        <time>2022-10-26T07:11:34.000Z</time>
      </trkpt>
      <trkpt lat="27.990166" lon="86.841344">
        <ele>5209.8</ele>
        <time>2022-10-26T07:11:36.000Z</time>
      </trkpt>
      <trkpt lat="27.990182" lon="86.841363">
        <ele>5210.4</ele>
        <time>2022-10-26T07:11:38.000Z</time>
      </trkpt>
      <trkpt lat="27.990198" lon="86.841376">
        <ele>5210.4</ele>
        <time>2022-10-26T07:11:40.000Z</time>
      </trkpt>
      <trkpt lat="27.990221" lon="86.841376">
        <ele>5210.8</ele>
        <time>2022-10-26T07:11:45.000Z</time>
      </trkpt>
      <trkpt lat="27.990237" lon="86.841395">
        <ele>5211</ele>
        <time>2022-10-26T07:11:48.000Z</time>
      </trkpt>
      <trkpt lat="27.990253" lon="86.841414">
        <ele>5210.8</ele>
        <time>2022-10-26T07:11:51.000Z</time>
      </trkpt>
      <trkpt lat="27.990275" lon="86.841434">
        <ele>5211.4</ele>
        <time>2022-10-26T07:11:57.000Z</time>
      </trkpt>
      <trkpt lat="27.990285" lon="86.841453">
        <ele>5210.6</ele>
        <time>2022-10-26T07:12:01.000Z</time>
      </trkpt>
      <trkpt lat="27.990291" lon="86.841472">
        <ele>5210.8</ele>
        <time>2022-10-26T07:12:04.000Z</time>
      </trkpt>
      <trkpt lat="27.990307" lon="86.841485">
        <ele>5210.6</ele>
        <time>2022-10-26T07:12:10.000Z</time>
      </trkpt>
      <trkpt lat="27.990326" lon="86.841491">
        <ele>5210.8</ele>
        <time>2022-10-26T07:12:18.000Z</time>
      </trkpt>
      <trkpt lat="27.990544" lon="86.841536">
        <ele>5217.6</ele>
        <time>2022-10-26T07:13:50.000Z</time>
      </trkpt>
      <trkpt lat="27.99056" lon="86.841555">
        <ele>5217.8</ele>
        <time>2022-10-26T07:13:52.000Z</time>
      </trkpt>
      <trkpt lat="27.990589" lon="86.841568">
        <ele>5218.2</ele>
        <time>2022-10-26T07:13:56.000Z</time>
      </trkpt>
      <trkpt lat="27.990608" lon="86.841581">
        <ele>5217.8</ele>
        <time>2022-10-26T07:13:58.000Z</time>
      </trkpt>
      <trkpt lat="27.990627" lon="86.841594">
        <ele>5217.8</ele>
        <time>2022-10-26T07:14:00.000Z</time>
      </trkpt>
      <trkpt lat="27.99065" lon="86.841606">
        <ele>5218.6</ele>
        <time>2022-10-26T07:14:06.000Z</time>
      </trkpt>
      <trkpt lat="27.990669" lon="86.8416">
        <ele>5219.4</ele>
        <time>2022-10-26T07:14:13.000Z</time>
      </trkpt>
      <trkpt lat="27.990688" lon="86.8416">
        <ele>5219.8</ele>
        <time>2022-10-26T07:14:17.000Z</time>
      </trkpt>
      <trkpt lat="27.990707" lon="86.841606">
        <ele>5220</ele>
        <time>2022-10-26T07:14:22.000Z</time>
      </trkpt>
      <trkpt lat="27.990726" lon="86.8416">
        <ele>5221.2</ele>
        <time>2022-10-26T07:14:29.000Z</time>
      </trkpt>
      <trkpt lat="27.990749" lon="86.841594">
        <ele>5221.4</ele>
        <time>2022-10-26T07:14:34.000Z</time>
      </trkpt>
      <trkpt lat="27.990768" lon="86.841581">
        <ele>5222.6</ele>
        <time>2022-10-26T07:14:39.000Z</time>
      </trkpt>
      <trkpt lat="27.99079" lon="86.841581">
        <ele>5222.2</ele>
        <time>2022-10-26T07:14:43.000Z</time>
      </trkpt>
      <trkpt lat="27.990803" lon="86.8416">
        <ele>5222.6</ele>
        <time>2022-10-26T07:14:52.000Z</time>
      </trkpt>
      <trkpt lat="27.990822" lon="86.8416">
        <ele>5223.2</ele>
        <time>2022-10-26T07:15:21.000Z</time>
      </trkpt>
      <trkpt lat="27.990842" lon="86.8416">
        <ele>5223.2</ele>
        <time>2022-10-26T07:15:23.000Z</time>
      </trkpt>
      <trkpt lat="27.990867" lon="86.841606">
        <ele>5223.4</ele>
        <time>2022-10-26T07:15:26.000Z</time>
      </trkpt>
      <trkpt lat="27.990893" lon="86.841606">
        <ele>5223.2</ele>
        <time>2022-10-26T07:15:29.000Z</time>
      </trkpt>
      <trkpt lat="27.990918" lon="86.841606">
        <ele>5223.2</ele>
        <time>2022-10-26T07:15:33.000Z</time>
      </trkpt>
      <trkpt lat="27.990941" lon="86.841613">
        <ele>5223.4</ele>
        <time>2022-10-26T07:15:37.000Z</time>
      </trkpt>
      <trkpt lat="27.99096" lon="86.841619">
        <ele>5223.2</ele>
        <time>2022-10-26T07:15:42.000Z</time>
      </trkpt>
      <trkpt lat="27.990979" lon="86.841613">
        <ele>5223.8</ele>
        <time>2022-10-26T07:15:47.000Z</time>
      </trkpt>
      <trkpt lat="27.990998" lon="86.841613">
        <ele>5224</ele>
        <time>2022-10-26T07:15:52.000Z</time>
      </trkpt>
      <trkpt lat="27.991008" lon="86.841632">
        <ele>5224.2</ele>
        <time>2022-10-26T07:15:56.000Z</time>
      </trkpt>
      <trkpt lat="27.991027" lon="86.841632">
        <ele>5224.2</ele>
        <time>2022-10-26T07:16:01.000Z</time>
      </trkpt>
      <trkpt lat="27.991046" lon="86.841638">
        <ele>5224.8</ele>
        <time>2022-10-26T07:16:06.000Z</time>
      </trkpt>
      <trkpt lat="27.991066" lon="86.841645">
        <ele>5225.4</ele>
        <time>2022-10-26T07:16:19.000Z</time>
      </trkpt>
      <trkpt lat="27.991088" lon="86.841645">
        <ele>5225.6</ele>
        <time>2022-10-26T07:16:24.000Z</time>
      </trkpt>
      <trkpt lat="27.991107" lon="86.841658">
        <ele>5225.6</ele>
        <time>2022-10-26T07:16:29.000Z</time>
      </trkpt>
      <trkpt lat="27.991126" lon="86.841651">
        <ele>5226.2</ele>
        <time>2022-10-26T07:16:33.000Z</time>
      </trkpt>
      <trkpt lat="27.991146" lon="86.841658">
        <ele>5226.6</ele>
        <time>2022-10-26T07:16:39.000Z</time>
      </trkpt>
      <trkpt lat="27.991165" lon="86.841664">
        <ele>5226.8</ele>
        <time>2022-10-26T07:16:45.000Z</time>
      </trkpt>
      <trkpt lat="27.991187" lon="86.841664">
        <ele>5226.8</ele>
        <time>2022-10-26T07:16:51.000Z</time>
      </trkpt>
      <trkpt lat="27.9912" lon="86.841683">
        <ele>5227</ele>
        <time>2022-10-26T07:16:56.000Z</time>
      </trkpt>
      <trkpt lat="27.991443" lon="86.841766">
        <ele>5237.8</ele>
        <time>2022-10-26T07:20:15.000Z</time>
      </trkpt>
      <trkpt lat="27.991469" lon="86.84176">
        <ele>5237.8</ele>
        <time>2022-10-26T07:20:18.000Z</time>
      </trkpt>
      <trkpt lat="27.991478" lon="86.841741">
        <ele>5237.8</ele>
        <time>2022-10-26T07:20:19.000Z</time>
      </trkpt>
      <trkpt lat="27.991498" lon="86.841734">
        <ele>5237.8</ele>
        <time>2022-10-26T07:20:21.000Z</time>
      </trkpt>
      <trkpt lat="27.991517" lon="86.841728">
        <ele>5237.6</ele>
        <time>2022-10-26T07:20:24.000Z</time>
      </trkpt>
      <trkpt lat="27.991539" lon="86.841722">
        <ele>5238.2</ele>
        <time>2022-10-26T07:20:30.000Z</time>
      </trkpt>
      <trkpt lat="27.991558" lon="86.841728">
        <ele>5237.4</ele>
        <time>2022-10-26T07:20:35.000Z</time>
      </trkpt>
      <trkpt lat="27.991578" lon="86.841734">
        <ele>5238.8</ele>
        <time>2022-10-26T07:20:39.000Z</time>
      </trkpt>
      <trkpt lat="27.991597" lon="86.841728">
        <ele>5238</ele>
        <time>2022-10-26T07:20:44.000Z</time>
      </trkpt>
      <trkpt lat="27.991613" lon="86.841715">
        <ele>5238.6</ele>
        <time>2022-10-26T07:20:48.000Z</time>
      </trkpt>
      <trkpt lat="27.991632" lon="86.841715">
        <ele>5238.2</ele>
        <time>2022-10-26T07:20:57.000Z</time>
      </trkpt>
      <trkpt lat="27.991651" lon="86.841715">
        <ele>5238.6</ele>
        <time>2022-10-26T07:21:01.000Z</time>
      </trkpt>
      <trkpt lat="27.991667" lon="86.841728">
        <ele>5239.6</ele>
        <time>2022-10-26T07:21:14.000Z</time>
      </trkpt>
      <trkpt lat="27.991686" lon="86.841728">
        <ele>5240</ele>
        <time>2022-10-26T07:21:20.000Z</time>
      </trkpt>
      <trkpt lat="27.991696" lon="86.841702">
        <ele>5240.8</ele>
        <time>2022-10-26T07:21:27.000Z</time>
      </trkpt>
      <trkpt lat="27.991712" lon="86.841715">
        <ele>5241.8</ele>
        <time>2022-10-26T07:21:33.000Z</time>
      </trkpt>
      <trkpt lat="27.991734" lon="86.841722">
        <ele>5241.8</ele>
        <time>2022-10-26T07:21:38.000Z</time>
      </trkpt>
      <trkpt lat="27.991754" lon="86.841715">
        <ele>5243.8</ele>
        <time>2022-10-26T07:21:45.000Z</time>
      </trkpt>
      <trkpt lat="27.991763" lon="86.841696">
        <ele>5243.8</ele>
        <time>2022-10-26T07:21:48.000Z</time>
      </trkpt>
      <trkpt lat="27.991782" lon="86.841702">
        <ele>5244.2</ele>
        <time>2022-10-26T07:21:53.000Z</time>
      </trkpt>
      <trkpt lat="27.991792" lon="86.841722">
        <ele>5244.4</ele>
        <time>2022-10-26T07:21:56.000Z</time>
      </trkpt>
      <trkpt lat="27.991814" lon="86.841722">
        <ele>5244.8</ele>
        <time>2022-10-26T07:22:00.000Z</time>
      </trkpt>
      <trkpt lat="27.991834" lon="86.841715">
        <ele>5244.4</ele>
        <time>2022-10-26T07:22:05.000Z</time>
      </trkpt>
      <trkpt lat="27.991853" lon="86.841715">
        <ele>5245</ele>
        <time>2022-10-26T07:22:09.000Z</time>
      </trkpt>
      <trkpt lat="27.991869" lon="86.841728">
        <ele>5244.8</ele>
        <time>2022-10-26T07:22:14.000Z</time>
      </trkpt>
      <trkpt lat="27.991888" lon="86.841722">
        <ele>5245.4</ele>
        <time>2022-10-26T07:22:18.000Z</time>
      </trkpt>
      <trkpt lat="27.99191" lon="86.841722">
        <ele>5245.6</ele>
        <time>2022-10-26T07:22:23.000Z</time>
      </trkpt>
      <trkpt lat="27.991923" lon="86.841702">
        <ele>5245</ele>
        <time>2022-10-26T07:22:28.000Z</time>
      </trkpt>
      <trkpt lat="27.991946" lon="86.84169">
        <ele>5245.6</ele>
        <time>2022-10-26T07:22:32.000Z</time>
      </trkpt>
      <trkpt lat="27.991965" lon="86.841696">
        <ele>5245.4</ele>
        <time>2022-10-26T07:22:35.000Z</time>
      </trkpt>
      <trkpt lat="27.991984" lon="86.84169">
        <ele>5245.4</ele>
        <time>2022-10-26T07:22:39.000Z</time>
      </trkpt>
      <trkpt lat="27.992003" lon="86.841696">
        <ele>5245</ele>
        <time>2022-10-26T07:22:42.000Z</time>
      </trkpt>
      <trkpt lat="27.992022" lon="86.84169">
        <ele>5244.6</ele>
        <time>2022-10-26T07:22:44.000Z</time>
      </trkpt>
      <trkpt lat="27.992042" lon="86.841702">
        <ele>5244</ele>
        <time>2022-10-26T07:22:47.000Z</time>
      </trkpt>
      <trkpt lat="27.992064" lon="86.841696">
        <ele>5243.6</ele>
        <time>2022-10-26T07:22:50.000Z</time>
      </trkpt>
      <trkpt lat="27.99209" lon="86.84169">
        <ele>5243.4</ele>
        <time>2022-10-26T07:22:54.000Z</time>
      </trkpt>
      <trkpt lat="27.992109" lon="86.841677">
        <ele>5243.6</ele>
        <time>2022-10-26T07:22:59.000Z</time>
      </trkpt>
      <trkpt lat="27.992128" lon="86.841683">
        <ele>5244</ele>
        <time>2022-10-26T07:23:05.000Z</time>
      </trkpt>
      <trkpt lat="27.992134" lon="86.841702">
        <ele>5243.6</ele>
        <time>2022-10-26T07:23:09.000Z</time>
      </trkpt>
      <trkpt lat="27.992141" lon="86.841728">
        <ele>5244</ele>
        <time>2022-10-26T07:23:12.000Z</time>
      </trkpt>
      <trkpt lat="27.992147" lon="86.841754">
        <ele>5243.6</ele>
        <time>2022-10-26T07:23:15.000Z</time>
      </trkpt>
      <trkpt lat="27.992157" lon="86.841773">
        <ele>5243.6</ele>
        <time>2022-10-26T07:23:22.000Z</time>
      </trkpt>
      <trkpt lat="27.99216" lon="86.841798">
        <ele>5244</ele>
        <time>2022-10-26T07:23:31.000Z</time>
      </trkpt>
      <trkpt lat="27.992166" lon="86.841818">
        <ele>5244.2</ele>
        <time>2022-10-26T07:23:36.000Z</time>
      </trkpt>
      <trkpt lat="27.992176" lon="86.841837">
        <ele>5246.4</ele>
        <time>2022-10-26T07:24:00.000Z</time>
      </trkpt>
      <trkpt lat="27.992224" lon="86.841901">
        <ele>5248</ele>
        <time>2022-10-26T07:24:27.000Z</time>
      </trkpt>
      <trkpt lat="27.99224" lon="86.841914">
        <ele>5248.4</ele>
        <time>2022-10-26T07:24:29.000Z</time>
      </trkpt>
      <trkpt lat="27.992259" lon="86.841926">
        <ele>5248.8</ele>
        <time>2022-10-26T07:24:31.000Z</time>
      </trkpt>
      <trkpt lat="27.992278" lon="86.841939">
        <ele>5248.4</ele>
        <time>2022-10-26T07:24:33.000Z</time>
      </trkpt>
      <trkpt lat="27.992298" lon="86.841952">
        <ele>5248.4</ele>
        <time>2022-10-26T07:24:35.000Z</time>
      </trkpt>
      <trkpt lat="27.992314" lon="86.841965">
        <ele>5249.4</ele>
        <time>2022-10-26T07:24:42.000Z</time>
      </trkpt>
      <trkpt lat="27.992374" lon="86.841997">
        <ele>5248.8</ele>
        <time>2022-10-26T07:25:28.000Z</time>
      </trkpt>
      <trkpt lat="27.992394" lon="86.842016">
        <ele>5249.4</ele>
        <time>2022-10-26T07:25:30.000Z</time>
      </trkpt>
      <trkpt lat="27.992413" lon="86.842035">
        <ele>5249.4</ele>
        <time>2022-10-26T07:25:32.000Z</time>
      </trkpt>
      <trkpt lat="27.992438" lon="86.842042">
        <ele>5248.2</ele>
        <time>2022-10-26T07:25:34.000Z</time>
      </trkpt>
      <trkpt lat="27.992464" lon="86.842061">
        <ele>5248.8</ele>
        <time>2022-10-26T07:25:37.000Z</time>
      </trkpt>
      <trkpt lat="27.99248" lon="86.84208">
        <ele>5248.2</ele>
        <time>2022-10-26T07:25:41.000Z</time>
      </trkpt>
      <trkpt lat="27.992499" lon="86.84208">
        <ele>5249</ele>
        <time>2022-10-26T07:25:45.000Z</time>
      </trkpt>
      <trkpt lat="27.992518" lon="86.842086">
        <ele>5249.2</ele>
        <time>2022-10-26T07:25:51.000Z</time>
      </trkpt>
      <trkpt lat="27.992534" lon="86.842112">
        <ele>5249.8</ele>
        <time>2022-10-26T07:25:54.000Z</time>
      </trkpt>
      <trkpt lat="27.992544" lon="86.842131">
        <ele>5249.2</ele>
        <time>2022-10-26T07:25:59.000Z</time>
      </trkpt>
      <trkpt lat="27.992566" lon="86.842118">
        <ele>5249.8</ele>
        <time>2022-10-26T07:26:16.000Z</time>
      </trkpt>
      <trkpt lat="27.992586" lon="86.842125">
        <ele>5250.2</ele>
        <time>2022-10-26T07:26:19.000Z</time>
      </trkpt>
      <trkpt lat="27.992605" lon="86.842131">
        <ele>5250.2</ele>
        <time>2022-10-26T07:26:22.000Z</time>
      </trkpt>
      <trkpt lat="27.992627" lon="86.842138">
        <ele>5249.8</ele>
        <time>2022-10-26T07:26:26.000Z</time>
      </trkpt>
      <trkpt lat="27.99265" lon="86.84215">
        <ele>5249.2</ele>
        <time>2022-10-26T07:26:29.000Z</time>
      </trkpt>
      <trkpt lat="27.992672" lon="86.842163">
        <ele>5249.2</ele>
        <time>2022-10-26T07:26:33.000Z</time>
      </trkpt>
      <trkpt lat="27.992694" lon="86.842176">
        <ele>5248.8</ele>
        <time>2022-10-26T07:26:37.000Z</time>
      </trkpt>
      <trkpt lat="27.992717" lon="86.842189">
        <ele>5248.8</ele>
        <time>2022-10-26T07:26:40.000Z</time>
      </trkpt>
      <trkpt lat="27.992742" lon="86.842189">
        <ele>5249</ele>
        <time>2022-10-26T07:26:43.000Z</time>
      </trkpt>
      <trkpt lat="27.992765" lon="86.842195">
        <ele>5249</ele>
        <time>2022-10-26T07:26:46.000Z</time>
      </trkpt>
      <trkpt lat="27.992784" lon="86.842195">
        <ele>5249.6</ele>
        <time>2022-10-26T07:26:49.000Z</time>
      </trkpt>
      <trkpt lat="27.992803" lon="86.842202">
        <ele>5249.8</ele>
        <time>2022-10-26T07:26:57.000Z</time>
      </trkpt>
      <trkpt lat="27.992822" lon="86.842195">
        <ele>5249.6</ele>
        <time>2022-10-26T07:27:01.000Z</time>
      </trkpt>
      <trkpt lat="27.992848" lon="86.842195">
        <ele>5249.6</ele>
        <time>2022-10-26T07:27:04.000Z</time>
      </trkpt>
      <trkpt lat="27.992867" lon="86.842202">
        <ele>5249.6</ele>
        <time>2022-10-26T07:27:07.000Z</time>
      </trkpt>
      <trkpt lat="27.992886" lon="86.842208">
        <ele>5249.4</ele>
        <time>2022-10-26T07:27:10.000Z</time>
      </trkpt>
      <trkpt lat="27.992906" lon="86.842208">
        <ele>5249.4</ele>
        <time>2022-10-26T07:27:12.000Z</time>
      </trkpt>
      <trkpt lat="27.992925" lon="86.842208">
        <ele>5248.8</ele>
        <time>2022-10-26T07:27:14.000Z</time>
      </trkpt>
      <trkpt lat="27.992944" lon="86.842214">
        <ele>5248.8</ele>
        <time>2022-10-26T07:27:17.000Z</time>
      </trkpt>
      <trkpt lat="27.992966" lon="86.842214">
        <ele>5249</ele>
        <time>2022-10-26T07:27:23.000Z</time>
      </trkpt>
      <trkpt lat="27.992973" lon="86.842234">
        <ele>5248.8</ele>
        <time>2022-10-26T07:27:25.000Z</time>
      </trkpt>
      <trkpt lat="27.992989" lon="86.842246">
        <ele>5248.2</ele>
        <time>2022-10-26T07:27:29.000Z</time>
      </trkpt>
      <trkpt lat="27.993011" lon="86.842253">
        <ele>5248.2</ele>
        <time>2022-10-26T07:27:33.000Z</time>
      </trkpt>
      <trkpt lat="27.99303" lon="86.842246">
        <ele>5247.8</ele>
        <time>2022-10-26T07:27:36.000Z</time>
      </trkpt>
      <trkpt lat="27.993056" lon="86.842253">
        <ele>5247.8</ele>
        <time>2022-10-26T07:27:39.000Z</time>
      </trkpt>
      <trkpt lat="27.993072" lon="86.842272">
        <ele>5247.2</ele>
        <time>2022-10-26T07:27:42.000Z</time>
      </trkpt>
      <trkpt lat="27.993085" lon="86.842291">
        <ele>5247</ele>
        <time>2022-10-26T07:27:45.000Z</time>
      </trkpt>
      <trkpt lat="27.993101" lon="86.84231">
        <ele>5247</ele>
        <time>2022-10-26T07:27:48.000Z</time>
      </trkpt>
      <trkpt lat="27.993117" lon="86.842323">
        <ele>5247.2</ele>
        <time>2022-10-26T07:27:52.000Z</time>
      </trkpt>
      <trkpt lat="27.993136" lon="86.842336">
        <ele>5248</ele>
        <time>2022-10-26T07:28:02.000Z</time>
      </trkpt>
      <trkpt lat="27.993152" lon="86.842349">
        <ele>5248</ele>
        <time>2022-10-26T07:28:06.000Z</time>
      </trkpt>
      <trkpt lat="27.993171" lon="86.842355">
        <ele>5248.4</ele>
        <time>2022-10-26T07:28:09.000Z</time>
      </trkpt>
      <trkpt lat="27.993194" lon="86.842355">
        <ele>5248.6</ele>
        <time>2022-10-26T07:28:12.000Z</time>
      </trkpt>
      <trkpt lat="27.99321" lon="86.842368">
        <ele>5248.2</ele>
        <time>2022-10-26T07:28:16.000Z</time>
      </trkpt>
      <trkpt lat="27.993216" lon="86.842387">
        <ele>5248.2</ele>
        <time>2022-10-26T07:28:18.000Z</time>
      </trkpt>
      <trkpt lat="27.993232" lon="86.8424">
        <ele>5248.6</ele>
        <time>2022-10-26T07:28:23.000Z</time>
      </trkpt>
      <trkpt lat="27.993251" lon="86.842406">
        <ele>5249.2</ele>
        <time>2022-10-26T07:28:27.000Z</time>
      </trkpt>
      <trkpt lat="27.99327" lon="86.842406">
        <ele>5250</ele>
        <time>2022-10-26T07:28:42.000Z</time>
      </trkpt>
      <trkpt lat="27.99329" lon="86.842394">
        <ele>5249.4</ele>
        <time>2022-10-26T07:28:46.000Z</time>
      </trkpt>
      <trkpt lat="27.993274" lon="86.842451">
        <ele>5250.2</ele>
        <time>2022-10-26T07:30:13.000Z</time>
      </trkpt>
      <trkpt lat="27.993293" lon="86.842451">
        <ele>5250.2</ele>
        <time>2022-10-26T07:30:15.000Z</time>
      </trkpt>
      <trkpt lat="27.993315" lon="86.842451">
        <ele>5250.2</ele>
        <time>2022-10-26T07:30:17.000Z</time>
      </trkpt>
      <trkpt lat="27.993347" lon="86.842451">
        <ele>5250.6</ele>
        <time>2022-10-26T07:30:19.000Z</time>
      </trkpt>
      <trkpt lat="27.993376" lon="86.842458">
        <ele>5250.4</ele>
        <time>2022-10-26T07:30:21.000Z</time>
      </trkpt>
      <trkpt lat="27.993402" lon="86.842451">
        <ele>5250</ele>
        <time>2022-10-26T07:30:23.000Z</time>
      </trkpt>
      <trkpt lat="27.99343" lon="86.842451">
        <ele>5250</ele>
        <time>2022-10-26T07:30:26.000Z</time>
      </trkpt>
      <trkpt lat="27.99344" lon="86.84247">
        <ele>5249.8</ele>
        <time>2022-10-26T07:30:28.000Z</time>
      </trkpt>
      <trkpt lat="27.993462" lon="86.842477">
        <ele>5250</ele>
        <time>2022-10-26T07:30:48.000Z</time>
      </trkpt>
      <trkpt lat="27.993491" lon="86.842483">
        <ele>5249.4</ele>
        <time>2022-10-26T07:30:50.000Z</time>
      </trkpt>
      <trkpt lat="27.993517" lon="86.842496">
        <ele>5249</ele>
        <time>2022-10-26T07:30:52.000Z</time>
      </trkpt>
      <trkpt lat="27.993539" lon="86.842509">
        <ele>5249.6</ele>
        <time>2022-10-26T07:30:54.000Z</time>
      </trkpt>
      <trkpt lat="27.993558" lon="86.842496">
        <ele>5249.6</ele>
        <time>2022-10-26T07:31:00.000Z</time>
      </trkpt>
      <trkpt lat="27.993578" lon="86.842509">
        <ele>5249.6</ele>
        <time>2022-10-26T07:31:03.000Z</time>
      </trkpt>
      <trkpt lat="27.9936" lon="86.842528">
        <ele>5249.2</ele>
        <time>2022-10-26T07:31:06.000Z</time>
      </trkpt>
      <trkpt lat="27.993619" lon="86.842547">
        <ele>5249.6</ele>
        <time>2022-10-26T07:31:09.000Z</time>
      </trkpt>
      <trkpt lat="27.993635" lon="86.84256">
        <ele>5250.4</ele>
        <time>2022-10-26T07:31:14.000Z</time>
      </trkpt>
      <trkpt lat="27.993658" lon="86.842573">
        <ele>5250</ele>
        <time>2022-10-26T07:31:20.000Z</time>
      </trkpt>
      <trkpt lat="27.99367" lon="86.842592">
        <ele>5250</ele>
        <time>2022-10-26T07:31:22.000Z</time>
      </trkpt>
      <trkpt lat="27.993693" lon="86.842605">
        <ele>5249.6</ele>
        <time>2022-10-26T07:31:25.000Z</time>
      </trkpt>
      <trkpt lat="27.993718" lon="86.842624">
        <ele>5249.4</ele>
        <time>2022-10-26T07:31:28.000Z</time>
      </trkpt>
      <trkpt lat="27.993738" lon="86.84263">
        <ele>5249</ele>
        <time>2022-10-26T07:31:31.000Z</time>
      </trkpt>
      <trkpt lat="27.993763" lon="86.84263">
        <ele>5248.6</ele>
        <time>2022-10-26T07:31:33.000Z</time>
      </trkpt>
      <trkpt lat="27.993782" lon="86.842637">
        <ele>5248.6</ele>
        <time>2022-10-26T07:31:35.000Z</time>
      </trkpt>
      <trkpt lat="27.993802" lon="86.842643">
        <ele>5248.6</ele>
        <time>2022-10-26T07:31:47.000Z</time>
      </trkpt>
      <trkpt lat="27.993827" lon="86.84265">
        <ele>5248.8</ele>
        <time>2022-10-26T07:31:51.000Z</time>
      </trkpt>
      <trkpt lat="27.99385" lon="86.842643">
        <ele>5248.6</ele>
        <time>2022-10-26T07:31:55.000Z</time>
      </trkpt>
      <trkpt lat="27.993872" lon="86.842643">
        <ele>5248.6</ele>
        <time>2022-10-26T07:31:58.000Z</time>
      </trkpt>
      <trkpt lat="27.993891" lon="86.842643">
        <ele>5248.2</ele>
        <time>2022-10-26T07:32:01.000Z</time>
      </trkpt>
      <trkpt lat="27.993914" lon="86.84265">
        <ele>5247.6</ele>
        <time>2022-10-26T07:32:05.000Z</time>
      </trkpt>
      <trkpt lat="27.99392" lon="86.842669">
        <ele>5247.6</ele>
        <time>2022-10-26T07:32:07.000Z</time>
      </trkpt>
      <trkpt lat="27.993946" lon="86.842682">
        <ele>5247.6</ele>
        <time>2022-10-26T07:32:10.000Z</time>
      </trkpt>
      <trkpt lat="27.993968" lon="86.842669">
        <ele>5248.2</ele>
        <time>2022-10-26T07:32:15.000Z</time>
      </trkpt>
      <trkpt lat="27.993987" lon="86.842675">
        <ele>5248.2</ele>
        <time>2022-10-26T07:32:18.000Z</time>
      </trkpt>
      <trkpt lat="27.994006" lon="86.842675">
        <ele>5248.8</ele>
        <time>2022-10-26T07:32:20.000Z</time>
      </trkpt>
      <trkpt lat="27.994032" lon="86.842682">
        <ele>5248.8</ele>
        <time>2022-10-26T07:32:23.000Z</time>
      </trkpt>
      <trkpt lat="27.994054" lon="86.842688">
        <ele>5248.4</ele>
        <time>2022-10-26T07:32:26.000Z</time>
      </trkpt>
      <trkpt lat="27.994077" lon="86.842694">
        <ele>5248.8</ele>
        <time>2022-10-26T07:32:28.000Z</time>
      </trkpt>
      <trkpt lat="27.994096" lon="86.842707">
        <ele>5249</ele>
        <time>2022-10-26T07:32:32.000Z</time>
      </trkpt>
      <trkpt lat="27.994115" lon="86.84272">
        <ele>5249.2</ele>
        <time>2022-10-26T07:32:35.000Z</time>
      </trkpt>
      <trkpt lat="27.994134" lon="86.842726">
        <ele>5249.2</ele>
        <time>2022-10-26T07:32:38.000Z</time>
      </trkpt>
      <trkpt lat="27.99416" lon="86.842733">
        <ele>5250.4</ele>
        <time>2022-10-26T07:32:42.000Z</time>
      </trkpt>
      <trkpt lat="27.994176" lon="86.842746">
        <ele>5250.4</ele>
        <time>2022-10-26T07:32:46.000Z</time>
      </trkpt>
      <trkpt lat="27.994195" lon="86.842758">
        <ele>5250.2</ele>
        <time>2022-10-26T07:32:49.000Z</time>
      </trkpt>
      <trkpt lat="27.994218" lon="86.842765">
        <ele>5249.2</ele>
        <time>2022-10-26T07:32:52.000Z</time>
      </trkpt>
      <trkpt lat="27.99424" lon="86.842784">
        <ele>5249.2</ele>
        <time>2022-10-26T07:32:55.000Z</time>
      </trkpt>
      <trkpt lat="27.994259" lon="86.84279">
        <ele>5249</ele>
        <time>2022-10-26T07:32:57.000Z</time>
      </trkpt>
      <trkpt lat="27.994282" lon="86.842803">
        <ele>5249</ele>
        <time>2022-10-26T07:33:00.000Z</time>
      </trkpt>
      <trkpt lat="27.994301" lon="86.84281">
        <ele>5248.8</ele>
        <time>2022-10-26T07:33:02.000Z</time>
      </trkpt>
      <trkpt lat="27.99432" lon="86.842822">
        <ele>5248.4</ele>
        <time>2022-10-26T07:33:04.000Z</time>
      </trkpt>
      <trkpt lat="27.994339" lon="86.842835">
        <ele>5248.4</ele>
        <time>2022-10-26T07:33:07.000Z</time>
      </trkpt>
      <trkpt lat="27.994358" lon="86.842842">
        <ele>5248.4</ele>
        <time>2022-10-26T07:33:10.000Z</time>
      </trkpt>
      <trkpt lat="27.994378" lon="86.842848">
        <ele>5248.4</ele>
        <time>2022-10-26T07:33:12.000Z</time>
      </trkpt>
      <trkpt lat="27.9944" lon="86.842854">
        <ele>5247.8</ele>
        <time>2022-10-26T07:33:15.000Z</time>
      </trkpt>
      <trkpt lat="27.994419" lon="86.842874">
        <ele>5248</ele>
        <time>2022-10-26T07:33:19.000Z</time>
      </trkpt>
      <trkpt lat="27.994442" lon="86.84288">
        <ele>5248</ele>
        <time>2022-10-26T07:33:23.000Z</time>
      </trkpt>
      <trkpt lat="27.994458" lon="86.842893">
        <ele>5248</ele>
        <time>2022-10-26T07:33:28.000Z</time>
      </trkpt>
      <trkpt lat="27.99447" lon="86.842912">
        <ele>5249</ele>
        <time>2022-10-26T07:33:32.000Z</time>
      </trkpt>
      <trkpt lat="27.994493" lon="86.842918">
        <ele>5249.6</ele>
        <time>2022-10-26T07:33:37.000Z</time>
      </trkpt>
      <trkpt lat="27.994515" lon="86.842931">
        <ele>5249.6</ele>
        <time>2022-10-26T07:33:40.000Z</time>
      </trkpt>
      <trkpt lat="27.994531" lon="86.84295">
        <ele>5250</ele>
        <time>2022-10-26T07:33:44.000Z</time>
      </trkpt>
      <trkpt lat="27.99455" lon="86.842963">
        <ele>5250</ele>
        <time>2022-10-26T07:33:48.000Z</time>
      </trkpt>
      <trkpt lat="27.99457" lon="86.84297">
        <ele>5250.4</ele>
        <time>2022-10-26T07:33:51.000Z</time>
      </trkpt>
      <trkpt lat="27.994582" lon="86.842989">
        <ele>5250</ele>
        <time>2022-10-26T07:33:54.000Z</time>
      </trkpt>
      <trkpt lat="27.994598" lon="86.843002">
        <ele>5250.4</ele>
        <time>2022-10-26T07:33:58.000Z</time>
      </trkpt>
      <trkpt lat="27.994618" lon="86.843014">
        <ele>5250.6</ele>
        <time>2022-10-26T07:34:02.000Z</time>
      </trkpt>
      <trkpt lat="27.994643" lon="86.843034">
        <ele>5250.6</ele>
        <time>2022-10-26T07:34:06.000Z</time>
      </trkpt>
      <trkpt lat="27.994659" lon="86.843053">
        <ele>5251</ele>
        <time>2022-10-26T07:34:12.000Z</time>
      </trkpt>
      <trkpt lat="27.994666" lon="86.843072">
        <ele>5251.4</ele>
        <time>2022-10-26T07:34:14.000Z</time>
      </trkpt>
      <trkpt lat="27.994685" lon="86.843072">
        <ele>5252</ele>
        <time>2022-10-26T07:34:17.000Z</time>
      </trkpt>
      <trkpt lat="27.994704" lon="86.843072">
        <ele>5252.4</ele>
        <time>2022-10-26T07:34:20.000Z</time>
      </trkpt>
      <trkpt lat="27.994733" lon="86.843085">
        <ele>5252.4</ele>
        <time>2022-10-26T07:34:23.000Z</time>
      </trkpt>
      <trkpt lat="27.994736" lon="86.84311">
        <ele>5252</ele>
        <time>2022-10-26T07:34:28.000Z</time>
      </trkpt>
      <trkpt lat="27.994752" lon="86.84313">
        <ele>5252.2</ele>
        <time>2022-10-26T07:34:31.000Z</time>
      </trkpt>
      <trkpt lat="27.994774" lon="86.843142">
        <ele>5252.8</ele>
        <time>2022-10-26T07:34:34.000Z</time>
      </trkpt>
      <trkpt lat="27.994797" lon="86.843142">
        <ele>5252.8</ele>
        <time>2022-10-26T07:34:37.000Z</time>
      </trkpt>
      <trkpt lat="27.994819" lon="86.843149">
        <ele>5253</ele>
        <time>2022-10-26T07:34:39.000Z</time>
      </trkpt>
      <trkpt lat="27.994838" lon="86.843149">
        <ele>5253.4</ele>
        <time>2022-10-26T07:34:42.000Z</time>
      </trkpt>
      <trkpt lat="27.994864" lon="86.843155">
        <ele>5253</ele>
        <time>2022-10-26T07:34:48.000Z</time>
      </trkpt>
      <trkpt lat="27.994883" lon="86.843155">
        <ele>5253.6</ele>
        <time>2022-10-26T07:34:56.000Z</time>
      </trkpt>
      <trkpt lat="27.994909" lon="86.843155">
        <ele>5253</ele>
        <time>2022-10-26T07:35:11.000Z</time>
      </trkpt>
      <trkpt lat="27.994928" lon="86.843162">
        <ele>5253</ele>
        <time>2022-10-26T07:35:13.000Z</time>
      </trkpt>
      <trkpt lat="27.994954" lon="86.843162">
        <ele>5253.2</ele>
        <time>2022-10-26T07:35:15.000Z</time>
      </trkpt>
      <trkpt lat="27.994973" lon="86.843162">
        <ele>5253.2</ele>
        <time>2022-10-26T07:35:16.000Z</time>
      </trkpt>
      <trkpt lat="27.994992" lon="86.843168">
        <ele>5253.6</ele>
        <time>2022-10-26T07:35:18.000Z</time>
      </trkpt>
      <trkpt lat="27.995008" lon="86.843181">
        <ele>5253.8</ele>
        <time>2022-10-26T07:35:19.000Z</time>
      </trkpt>
      <trkpt lat="27.99503" lon="86.843181">
        <ele>5254.4</ele>
        <time>2022-10-26T07:35:23.000Z</time>
      </trkpt>
      <trkpt lat="27.99505" lon="86.843187">
        <ele>5254</ele>
        <time>2022-10-26T07:35:25.000Z</time>
      </trkpt>
      <trkpt lat="27.995066" lon="86.8432">
        <ele>5253.8</ele>
        <time>2022-10-26T07:35:27.000Z</time>
      </trkpt>
      <trkpt lat="27.995091" lon="86.843206">
        <ele>5254</ele>
        <time>2022-10-26T07:35:32.000Z</time>
      </trkpt>
      <trkpt lat="27.995114" lon="86.843213">
        <ele>5253.8</ele>
        <time>2022-10-26T07:35:35.000Z</time>
      </trkpt>
      <trkpt lat="27.99512" lon="86.843232">
        <ele>5254</ele>
        <time>2022-10-26T07:35:38.000Z</time>
      </trkpt>
      <trkpt lat="27.995142" lon="86.843238">
        <ele>5254</ele>
        <time>2022-10-26T07:35:40.000Z</time>
      </trkpt>
      <trkpt lat="27.995165" lon="86.843251">
        <ele>5254</ele>
        <time>2022-10-26T07:35:44.000Z</time>
      </trkpt>
      <trkpt lat="27.995181" lon="86.843264">
        <ele>5253.8</ele>
        <time>2022-10-26T07:35:46.000Z</time>
      </trkpt>
      <trkpt lat="27.9952" lon="86.843283">
        <ele>5254.2</ele>
        <time>2022-10-26T07:35:50.000Z</time>
      </trkpt>
      <trkpt lat="27.995222" lon="86.84329">
        <ele>5254</ele>
        <time>2022-10-26T07:35:52.000Z</time>
      </trkpt>
      <trkpt lat="27.995251" lon="86.84329">
        <ele>5253.6</ele>
        <time>2022-10-26T07:35:55.000Z</time>
      </trkpt>
      <trkpt lat="27.995258" lon="86.843309">
        <ele>5254</ele>
        <time>2022-10-26T07:35:58.000Z</time>
      </trkpt>
      <trkpt lat="27.995277" lon="86.843315">
        <ele>5254.6</ele>
        <time>2022-10-26T07:36:01.000Z</time>
      </trkpt>
      <trkpt lat="27.995296" lon="86.843315">
        <ele>5254.8</ele>
        <time>2022-10-26T07:36:05.000Z</time>
      </trkpt>
      <trkpt lat="27.995318" lon="86.843309">
        <ele>5254.2</ele>
        <time>2022-10-26T07:36:08.000Z</time>
      </trkpt>
      <trkpt lat="27.995338" lon="86.843309">
        <ele>5254</ele>
        <time>2022-10-26T07:36:10.000Z</time>
      </trkpt>
      <trkpt lat="27.995357" lon="86.843315">
        <ele>5254.2</ele>
        <time>2022-10-26T07:36:12.000Z</time>
      </trkpt>
      <trkpt lat="27.995376" lon="86.843328">
        <ele>5254.2</ele>
        <time>2022-10-26T07:36:15.000Z</time>
      </trkpt>
      <trkpt lat="27.995395" lon="86.843347">
        <ele>5254.6</ele>
        <time>2022-10-26T07:36:19.000Z</time>
      </trkpt>
      <trkpt lat="27.995402" lon="86.843366">
        <ele>5255.4</ele>
        <time>2022-10-26T07:36:23.000Z</time>
      </trkpt>
      <trkpt lat="27.995408" lon="86.843392">
        <ele>5255</ele>
        <time>2022-10-26T07:36:27.000Z</time>
      </trkpt>
      <trkpt lat="27.995427" lon="86.843398">
        <ele>5255.8</ele>
        <time>2022-10-26T07:36:42.000Z</time>
      </trkpt>
      <trkpt lat="27.99545" lon="86.843411">
        <ele>5255.8</ele>
        <time>2022-10-26T07:36:46.000Z</time>
      </trkpt>
      <trkpt lat="27.995469" lon="86.843424">
        <ele>5256.2</ele>
        <time>2022-10-26T07:36:48.000Z</time>
      </trkpt>
      <trkpt lat="27.995488" lon="86.843437">
        <ele>5256.4</ele>
        <time>2022-10-26T07:36:50.000Z</time>
      </trkpt>
      <trkpt lat="27.995507" lon="86.843443">
        <ele>5256.8</ele>
        <time>2022-10-26T07:36:53.000Z</time>
      </trkpt>
      <trkpt lat="27.995526" lon="86.843462">
        <ele>5257.2</ele>
        <time>2022-10-26T07:36:56.000Z</time>
      </trkpt>
      <trkpt lat="27.995546" lon="86.843475">
        <ele>5256.6</ele>
        <time>2022-10-26T07:37:05.000Z</time>
      </trkpt>
      <trkpt lat="27.995568" lon="86.843482">
        <ele>5257.2</ele>
        <time>2022-10-26T07:37:10.000Z</time>
      </trkpt>
      <trkpt lat="27.99559" lon="86.843482">
        <ele>5257</ele>
        <time>2022-10-26T07:37:13.000Z</time>
      </trkpt>
      <trkpt lat="27.99561" lon="86.843501">
        <ele>5256.6</ele>
        <time>2022-10-26T07:37:16.000Z</time>
      </trkpt>
      <trkpt lat="27.995629" lon="86.843514">
        <ele>5256.6</ele>
        <time>2022-10-26T07:37:21.000Z</time>
      </trkpt>
      <trkpt lat="27.995648" lon="86.84352">
        <ele>5256.2</ele>
        <time>2022-10-26T07:37:25.000Z</time>
      </trkpt>
      <trkpt lat="27.995667" lon="86.843526">
        <ele>5256.2</ele>
        <time>2022-10-26T07:37:50.000Z</time>
      </trkpt>
      <trkpt lat="27.995696" lon="86.843546">
        <ele>5256.4</ele>
        <time>2022-10-26T07:37:52.000Z</time>
      </trkpt>
      <trkpt lat="27.995725" lon="86.843558">
        <ele>5257</ele>
        <time>2022-10-26T07:37:54.000Z</time>
      </trkpt>
      <trkpt lat="27.995734" lon="86.843578">
        <ele>5257.4</ele>
        <time>2022-10-26T07:37:55.000Z</time>
      </trkpt>
      <trkpt lat="27.995754" lon="86.84359">
        <ele>5257.6</ele>
        <time>2022-10-26T07:37:57.000Z</time>
      </trkpt>
      <trkpt lat="27.995773" lon="86.843603">
        <ele>5257.4</ele>
        <time>2022-10-26T07:37:59.000Z</time>
      </trkpt>
      <trkpt lat="27.995789" lon="86.843622">
        <ele>5257.8</ele>
        <time>2022-10-26T07:38:04.000Z</time>
      </trkpt>
      <trkpt lat="27.995808" lon="86.843629">
        <ele>5258.8</ele>
        <time>2022-10-26T07:38:08.000Z</time>
      </trkpt>
      <trkpt lat="27.995827" lon="86.843635">
        <ele>5259.4</ele>
        <time>2022-10-26T07:38:12.000Z</time>
      </trkpt>
      <trkpt lat="27.995843" lon="86.843661">
        <ele>5259.6</ele>
        <time>2022-10-26T07:38:16.000Z</time>
      </trkpt>
      <trkpt lat="27.995862" lon="86.843674">
        <ele>5260.4</ele>
        <time>2022-10-26T07:38:22.000Z</time>
      </trkpt>
      <trkpt lat="27.995882" lon="86.84368">
        <ele>5260.8</ele>
        <time>2022-10-26T07:38:26.000Z</time>
      </trkpt>
      <trkpt lat="27.995901" lon="86.843699">
        <ele>5260.8</ele>
        <time>2022-10-26T07:38:30.000Z</time>
      </trkpt>
      <trkpt lat="27.995923" lon="86.843718">
        <ele>5262.6</ele>
        <time>2022-10-26T07:40:02.000Z</time>
      </trkpt>
      <trkpt lat="27.995942" lon="86.843738">
        <ele>5263.2</ele>
        <time>2022-10-26T07:40:04.000Z</time>
      </trkpt>
      <trkpt lat="27.995965" lon="86.843744">
        <ele>5263.2</ele>
        <time>2022-10-26T07:40:06.000Z</time>
      </trkpt>
      <trkpt lat="27.995984" lon="86.843757">
        <ele>5262.8</ele>
        <time>2022-10-26T07:40:08.000Z</time>
      </trkpt>
      <trkpt lat="27.996006" lon="86.843763">
        <ele>5263.2</ele>
        <time>2022-10-26T07:40:10.000Z</time>
      </trkpt>
      <trkpt lat="27.996026" lon="86.843776">
        <ele>5263.2</ele>
        <time>2022-10-26T07:40:13.000Z</time>
      </trkpt>
      <trkpt lat="27.996045" lon="86.843776">
        <ele>5262.6</ele>
        <time>2022-10-26T07:40:16.000Z</time>
      </trkpt>
      <trkpt lat="27.99607" lon="86.843782">
        <ele>5262.6</ele>
        <time>2022-10-26T07:40:19.000Z</time>
      </trkpt>
      <trkpt lat="27.996086" lon="86.843795">
        <ele>5263</ele>
        <time>2022-10-26T07:40:22.000Z</time>
      </trkpt>
      <trkpt lat="27.996096" lon="86.843821">
        <ele>5263.8</ele>
        <time>2022-10-26T07:40:26.000Z</time>
      </trkpt>
      <trkpt lat="27.996115" lon="86.843827">
        <ele>5265</ele>
        <time>2022-10-26T07:40:33.000Z</time>
      </trkpt>
      <trkpt lat="27.996131" lon="86.84384">
        <ele>5265.6</ele>
        <time>2022-10-26T07:40:38.000Z</time>
      </trkpt>
      <trkpt lat="27.996144" lon="86.843859">
        <ele>5265.2</ele>
        <time>2022-10-26T07:40:44.000Z</time>
      </trkpt>
      <trkpt lat="27.996163" lon="86.843872">
        <ele>5265.2</ele>
        <time>2022-10-26T07:40:47.000Z</time>
      </trkpt>
      <trkpt lat="27.996179" lon="86.843885">
        <ele>5265.2</ele>
        <time>2022-10-26T07:40:51.000Z</time>
      </trkpt>
      <trkpt lat="27.996192" lon="86.843904">
        <ele>5265</ele>
        <time>2022-10-26T07:40:53.000Z</time>
      </trkpt>
      <trkpt lat="27.996211" lon="86.843898">
        <ele>5265</ele>
        <time>2022-10-26T07:41:00.000Z</time>
      </trkpt>
      <trkpt lat="27.99623" lon="86.843904">
        <ele>5265</ele>
        <time>2022-10-26T07:41:05.000Z</time>
      </trkpt>
      <trkpt lat="27.996246" lon="86.843917">
        <ele>5265.2</ele>
        <time>2022-10-26T07:41:08.000Z</time>
      </trkpt>
      <trkpt lat="27.996253" lon="86.843936">
        <ele>5265.2</ele>
        <time>2022-10-26T07:41:12.000Z</time>
      </trkpt>
      <trkpt lat="27.996278" lon="86.843949">
        <ele>5265.4</ele>
        <time>2022-10-26T07:41:32.000Z</time>
      </trkpt>
      <trkpt lat="27.996307" lon="86.843962">
        <ele>5265.4</ele>
        <time>2022-10-26T07:41:35.000Z</time>
      </trkpt>
      <trkpt lat="27.996333" lon="86.843962">
        <ele>5265.4</ele>
        <time>2022-10-26T07:41:37.000Z</time>
      </trkpt>
      <trkpt lat="27.996349" lon="86.843974">
        <ele>5265.8</ele>
        <time>2022-10-26T07:41:38.000Z</time>
      </trkpt>
      <trkpt lat="27.996368" lon="86.843974">
        <ele>5265</ele>
        <time>2022-10-26T07:41:44.000Z</time>
      </trkpt>
      <trkpt lat="27.99639" lon="86.843981">
        <ele>5265.6</ele>
        <time>2022-10-26T07:41:47.000Z</time>
      </trkpt>
      <trkpt lat="27.99641" lon="86.843994">
        <ele>5265.8</ele>
        <time>2022-10-26T07:41:51.000Z</time>
      </trkpt>
      <trkpt lat="27.996419" lon="86.844019">
        <ele>5265.8</ele>
        <time>2022-10-26T07:41:54.000Z</time>
      </trkpt>
      <trkpt lat="27.996438" lon="86.844038">
        <ele>5266.4</ele>
        <time>2022-10-26T07:41:58.000Z</time>
      </trkpt>
      <trkpt lat="27.996458" lon="86.844058">
        <ele>5266.8</ele>
        <time>2022-10-26T07:42:02.000Z</time>
      </trkpt>
      <trkpt lat="27.996477" lon="86.844064">
        <ele>5267</ele>
        <time>2022-10-26T07:42:05.000Z</time>
      </trkpt>
      <trkpt lat="27.996506" lon="86.84407">
        <ele>5267.6</ele>
        <time>2022-10-26T07:42:27.000Z</time>
      </trkpt>
      <trkpt lat="27.996531" lon="86.844077">
        <ele>5267.6</ele>
        <time>2022-10-26T07:42:30.000Z</time>
      </trkpt>
      <trkpt lat="27.99655" lon="86.844083">
        <ele>5267.6</ele>
        <time>2022-10-26T07:42:33.000Z</time>
      </trkpt>
      <trkpt lat="27.996566" lon="86.844096">
        <ele>5267.6</ele>
        <time>2022-10-26T07:42:35.000Z</time>
      </trkpt>
      <trkpt lat="27.996586" lon="86.844115">
        <ele>5267.8</ele>
        <time>2022-10-26T07:42:41.000Z</time>
      </trkpt>
      <trkpt lat="27.996598" lon="86.844134">
        <ele>5267.8</ele>
        <time>2022-10-26T07:42:43.000Z</time>
      </trkpt>
      <trkpt lat="27.996618" lon="86.844141">
        <ele>5268</ele>
        <time>2022-10-26T07:42:45.000Z</time>
      </trkpt>
      <trkpt lat="27.996637" lon="86.844147">
        <ele>5267.8</ele>
        <time>2022-10-26T07:42:47.000Z</time>
      </trkpt>
      <trkpt lat="27.996659" lon="86.844154">
        <ele>5267.6</ele>
        <time>2022-10-26T07:42:51.000Z</time>
      </trkpt>
      <trkpt lat="27.996678" lon="86.844154">
        <ele>5267.4</ele>
        <time>2022-10-26T07:42:53.000Z</time>
      </trkpt>
      <trkpt lat="27.996704" lon="86.844154">
        <ele>5267.8</ele>
        <time>2022-10-26T07:42:56.000Z</time>
      </trkpt>
      <trkpt lat="27.996723" lon="86.844154">
        <ele>5268</ele>
        <time>2022-10-26T07:42:58.000Z</time>
      </trkpt>
      <trkpt lat="27.996746" lon="86.844173">
        <ele>5267.8</ele>
        <time>2022-10-26T07:43:00.000Z</time>
      </trkpt>
      <trkpt lat="27.996765" lon="86.844186">
        <ele>5267.8</ele>
        <time>2022-10-26T07:43:03.000Z</time>
      </trkpt>
      <trkpt lat="27.996781" lon="86.844198">
        <ele>5268</ele>
        <time>2022-10-26T07:43:07.000Z</time>
      </trkpt>
      <trkpt lat="27.996797" lon="86.844218">
        <ele>5268.6</ele>
        <time>2022-10-26T07:43:11.000Z</time>
      </trkpt>
      <trkpt lat="27.996816" lon="86.84423">
        <ele>5268</ele>
        <time>2022-10-26T07:43:14.000Z</time>
      </trkpt>
      <trkpt lat="27.996838" lon="86.844243">
        <ele>5268.2</ele>
        <time>2022-10-26T07:43:17.000Z</time>
      </trkpt>
      <trkpt lat="27.996861" lon="86.844256">
        <ele>5268.2</ele>
        <time>2022-10-26T07:43:20.000Z</time>
      </trkpt>
      <trkpt lat="27.996886" lon="86.844269">
        <ele>5268.2</ele>
        <time>2022-10-26T07:43:23.000Z</time>
      </trkpt>
      <trkpt lat="27.996909" lon="86.844275">
        <ele>5268</ele>
        <time>2022-10-26T07:43:26.000Z</time>
      </trkpt>
      <trkpt lat="27.996925" lon="86.844294">
        <ele>5268.2</ele>
        <time>2022-10-26T07:43:28.000Z</time>
      </trkpt>
      <trkpt lat="27.996941" lon="86.844314">
        <ele>5268.2</ele>
        <time>2022-10-26T07:43:32.000Z</time>
      </trkpt>
      <trkpt lat="27.996957" lon="86.844333">
        <ele>5268.6</ele>
        <time>2022-10-26T07:43:36.000Z</time>
      </trkpt>
      <trkpt lat="27.996976" lon="86.844346">
        <ele>5269</ele>
        <time>2022-10-26T07:43:40.000Z</time>
      </trkpt>
      <trkpt lat="27.996992" lon="86.844358">
        <ele>5268.4</ele>
        <time>2022-10-26T07:43:44.000Z</time>
      </trkpt>
      <trkpt lat="27.997014" lon="86.844358">
        <ele>5268.8</ele>
        <time>2022-10-26T07:43:48.000Z</time>
      </trkpt>
      <trkpt lat="27.997037" lon="86.844358">
        <ele>5268.8</ele>
        <time>2022-10-26T07:43:51.000Z</time>
      </trkpt>
      <trkpt lat="27.997056" lon="86.844378">
        <ele>5268.4</ele>
        <time>2022-10-26T07:43:55.000Z</time>
      </trkpt>
      <trkpt lat="27.997062" lon="86.844397">
        <ele>5268.4</ele>
        <time>2022-10-26T07:43:59.000Z</time>
      </trkpt>
      <trkpt lat="27.997085" lon="86.844403">
        <ele>5269</ele>
        <time>2022-10-26T07:44:03.000Z</time>
      </trkpt>
      <trkpt lat="27.997101" lon="86.844422">
        <ele>5269.6</ele>
        <time>2022-10-26T07:44:06.000Z</time>
      </trkpt>
      <trkpt lat="27.997123" lon="86.844429">
        <ele>5269.2</ele>
        <time>2022-10-26T07:44:09.000Z</time>
      </trkpt>
      <trkpt lat="27.997146" lon="86.844429">
        <ele>5269</ele>
        <time>2022-10-26T07:44:11.000Z</time>
      </trkpt>
      <trkpt lat="27.997168" lon="86.844435">
        <ele>5269.2</ele>
        <time>2022-10-26T07:44:14.000Z</time>
      </trkpt>
      <trkpt lat="27.997187" lon="86.844454">
        <ele>5269.6</ele>
        <time>2022-10-26T07:44:17.000Z</time>
      </trkpt>
      <trkpt lat="27.997206" lon="86.844461">
        <ele>5269.6</ele>
        <time>2022-10-26T07:44:19.000Z</time>
      </trkpt>
      <trkpt lat="27.997229" lon="86.844474">
        <ele>5269.6</ele>
        <time>2022-10-26T07:44:22.000Z</time>
      </trkpt>
      <trkpt lat="27.997242" lon="86.844499">
        <ele>5269.6</ele>
        <time>2022-10-26T07:44:25.000Z</time>
      </trkpt>
      <trkpt lat="27.997248" lon="86.844518">
        <ele>5269.4</ele>
        <time>2022-10-26T07:44:51.000Z</time>
      </trkpt>
      <trkpt lat="27.997264" lon="86.844531">
        <ele>5269.4</ele>
        <time>2022-10-26T07:44:52.000Z</time>
      </trkpt>
      <trkpt lat="27.997293" lon="86.844538">
        <ele>5270.2</ele>
        <time>2022-10-26T07:44:55.000Z</time>
      </trkpt>
      <trkpt lat="27.997315" lon="86.844538">
        <ele>5270.2</ele>
        <time>2022-10-26T07:44:57.000Z</time>
      </trkpt>
      <trkpt lat="27.997347" lon="86.844538">
        <ele>5270.2</ele>
        <time>2022-10-26T07:44:59.000Z</time>
      </trkpt>
      <trkpt lat="27.997392" lon="86.844563">
        <ele>5270</ele>
        <time>2022-10-26T07:45:04.000Z</time>
      </trkpt>
      <trkpt lat="27.997418" lon="86.844563">
        <ele>5270.2</ele>
        <time>2022-10-26T07:45:06.000Z</time>
      </trkpt>
      <trkpt lat="27.99743" lon="86.844582">
        <ele>5269.6</ele>
        <time>2022-10-26T07:45:10.000Z</time>
      </trkpt>
      <trkpt lat="27.997443" lon="86.844602">
        <ele>5270.4</ele>
        <time>2022-10-26T07:45:16.000Z</time>
      </trkpt>
      <trkpt lat="27.997456" lon="86.844621">
        <ele>5271</ele>
        <time>2022-10-26T07:45:20.000Z</time>
      </trkpt>
      <trkpt lat="27.997459" lon="86.844653">
        <ele>5270.6</ele>
        <time>2022-10-26T07:45:28.000Z</time>
      </trkpt>
      <trkpt lat="27.997482" lon="86.844666">
        <ele>5270</ele>
        <time>2022-10-26T07:45:33.000Z</time>
      </trkpt>
      <trkpt lat="27.997514" lon="86.844698">
        <ele>5268.4</ele>
        <time>2022-10-26T07:46:01.000Z</time>
      </trkpt>
      <trkpt lat="27.997542" lon="86.84473">
        <ele>5268</ele>
        <time>2022-10-26T07:46:05.000Z</time>
      </trkpt>
      <trkpt lat="27.997558" lon="86.844742">
        <ele>5267.8</ele>
        <time>2022-10-26T07:46:08.000Z</time>
      </trkpt>
      <trkpt lat="27.997565" lon="86.844762">
        <ele>5268</ele>
        <time>2022-10-26T07:46:12.000Z</time>
      </trkpt>
      <trkpt lat="27.997581" lon="86.844781">
        <ele>5267.6</ele>
        <time>2022-10-26T07:46:14.000Z</time>
      </trkpt>
      <trkpt lat="27.9976" lon="86.844813">
        <ele>5267.4</ele>
        <time>2022-10-26T07:46:16.000Z</time>
      </trkpt>
      <trkpt lat="27.997616" lon="86.844832">
        <ele>5267.6</ele>
        <time>2022-10-26T07:46:19.000Z</time>
      </trkpt>
      <trkpt lat="27.997635" lon="86.844851">
        <ele>5267</ele>
        <time>2022-10-26T07:46:23.000Z</time>
      </trkpt>
      <trkpt lat="27.997651" lon="86.84487">
        <ele>5266.8</ele>
        <time>2022-10-26T07:46:26.000Z</time>
      </trkpt>
      <trkpt lat="27.997658" lon="86.84489">
        <ele>5266.4</ele>
        <time>2022-10-26T07:46:27.000Z</time>
      </trkpt>
      <trkpt lat="27.997674" lon="86.844902">
        <ele>5264.4</ele>
        <time>2022-10-26T07:47:02.000Z</time>
      </trkpt>
      <trkpt lat="27.99768" lon="86.844934">
        <ele>5263.6</ele>
        <time>2022-10-26T07:47:04.000Z</time>
      </trkpt>
      <trkpt lat="27.99769" lon="86.844954">
        <ele>5263.2</ele>
        <time>2022-10-26T07:47:06.000Z</time>
      </trkpt>
      <trkpt lat="27.997696" lon="86.844979">
        <ele>5263.2</ele>
        <time>2022-10-26T07:47:08.000Z</time>
      </trkpt>
      <trkpt lat="27.997709" lon="86.845011">
        <ele>5263.2</ele>
        <time>2022-10-26T07:47:10.000Z</time>
      </trkpt>
      <trkpt lat="27.997718" lon="86.84503">
        <ele>5262.8</ele>
        <time>2022-10-26T07:47:11.000Z</time>
      </trkpt>
      <trkpt lat="27.997728" lon="86.84505">
        <ele>5262.2</ele>
        <time>2022-10-26T07:47:13.000Z</time>
      </trkpt>
      <trkpt lat="27.997747" lon="86.845069">
        <ele>5261.6</ele>
        <time>2022-10-26T07:47:16.000Z</time>
      </trkpt>
      <trkpt lat="27.997766" lon="86.845069">
        <ele>5262.2</ele>
        <time>2022-10-26T07:47:19.000Z</time>
      </trkpt>
      <trkpt lat="27.997782" lon="86.845088">
        <ele>5261.8</ele>
        <time>2022-10-26T07:47:21.000Z</time>
      </trkpt>
      <trkpt lat="27.997802" lon="86.845107">
        <ele>5261.6</ele>
        <time>2022-10-26T07:47:24.000Z</time>
      </trkpt>
      <trkpt lat="27.997814" lon="86.845126">
        <ele>5261.2</ele>
        <time>2022-10-26T07:47:26.000Z</time>
      </trkpt>
      <trkpt lat="27.997827" lon="86.845146">
        <ele>5260.2</ele>
        <time>2022-10-26T07:47:31.000Z</time>
      </trkpt>
      <trkpt lat="27.99785" lon="86.845171">
        <ele>5259.2</ele>
        <time>2022-10-26T07:47:34.000Z</time>
      </trkpt>
      <trkpt lat="27.997869" lon="86.84519">
        <ele>5259</ele>
        <time>2022-10-26T07:47:37.000Z</time>
      </trkpt>
      <trkpt lat="27.997878" lon="86.84521">
        <ele>5258.4</ele>
        <time>2022-10-26T07:47:41.000Z</time>
      </trkpt>
      <trkpt lat="27.997891" lon="86.845229">
        <ele>5257.8</ele>
        <time>2022-10-26T07:47:45.000Z</time>
      </trkpt>
      <trkpt lat="27.99791" lon="86.845229">
        <ele>5257.2</ele>
        <time>2022-10-26T07:47:51.000Z</time>
      </trkpt>
      <trkpt lat="27.99792" lon="86.845261">
        <ele>5255.4</ele>
        <time>2022-10-26T07:49:08.000Z</time>
      </trkpt>
      <trkpt lat="27.997946" lon="86.845286">
        <ele>5255.2</ele>
        <time>2022-10-26T07:49:10.000Z</time>
      </trkpt>
      <trkpt lat="27.997965" lon="86.845299">
        <ele>5255.8</ele>
        <time>2022-10-26T07:49:13.000Z</time>
      </trkpt>
      <trkpt lat="27.997981" lon="86.845312">
        <ele>5255.8</ele>
        <time>2022-10-26T07:49:16.000Z</time>
      </trkpt>
      <trkpt lat="27.997987" lon="86.845338">
        <ele>5254.4</ele>
        <time>2022-10-26T07:50:25.000Z</time>
      </trkpt>
      <trkpt lat="27.998006" lon="86.84537">
        <ele>5253.6</ele>
        <time>2022-10-26T07:50:27.000Z</time>
      </trkpt>
      <trkpt lat="27.998019" lon="86.845395">
        <ele>5253.2</ele>
        <time>2022-10-26T07:50:29.000Z</time>
      </trkpt>
      <trkpt lat="27.998029" lon="86.845414">
        <ele>5253.2</ele>
        <time>2022-10-26T07:50:30.000Z</time>
      </trkpt>
      <trkpt lat="27.998038" lon="86.845434">
        <ele>5252.8</ele>
        <time>2022-10-26T07:50:32.000Z</time>
      </trkpt>
      <trkpt lat="27.998048" lon="86.845453">
        <ele>5253</ele>
        <time>2022-10-26T07:50:39.000Z</time>
      </trkpt>
      <trkpt lat="27.998061" lon="86.845472">
        <ele>5253</ele>
        <time>2022-10-26T07:50:44.000Z</time>
      </trkpt>
      <trkpt lat="27.998067" lon="86.845491">
        <ele>5252.8</ele>
        <time>2022-10-26T07:50:47.000Z</time>
      </trkpt>
      <trkpt lat="27.998086" lon="86.84551">
        <ele>5252.8</ele>
        <time>2022-10-26T07:50:50.000Z</time>
      </trkpt>
      <trkpt lat="27.998106" lon="86.84553">
        <ele>5251.6</ele>
        <time>2022-10-26T07:50:52.000Z</time>
      </trkpt>
      <trkpt lat="27.998118" lon="86.845549">
        <ele>5251.2</ele>
        <time>2022-10-26T07:50:54.000Z</time>
      </trkpt>
      <trkpt lat="27.998131" lon="86.845574">
        <ele>5250.8</ele>
        <time>2022-10-26T07:50:56.000Z</time>
      </trkpt>
      <trkpt lat="27.998147" lon="86.845587">
        <ele>5250.4</ele>
        <time>2022-10-26T07:50:58.000Z</time>
      </trkpt>
      <trkpt lat="27.998157" lon="86.845606">
        <ele>5250.4</ele>
        <time>2022-10-26T07:51:00.000Z</time>
      </trkpt>
      <trkpt lat="27.998176" lon="86.845626">
        <ele>5250.4</ele>
        <time>2022-10-26T07:51:03.000Z</time>
      </trkpt>
      <trkpt lat="27.998182" lon="86.845645">
        <ele>5250.4</ele>
        <time>2022-10-26T07:51:04.000Z</time>
      </trkpt>
      <trkpt lat="27.998189" lon="86.845664">
        <ele>5250.2</ele>
        <time>2022-10-26T07:51:07.000Z</time>
      </trkpt>
      <trkpt lat="27.998198" lon="86.845683">
        <ele>5250.2</ele>
        <time>2022-10-26T07:51:09.000Z</time>
      </trkpt>
      <trkpt lat="27.998214" lon="86.845702">
        <ele>5249</ele>
        <time>2022-10-26T07:51:14.000Z</time>
      </trkpt>
      <trkpt lat="27.998214" lon="86.845728">
        <ele>5248.8</ele>
        <time>2022-10-26T07:51:19.000Z</time>
      </trkpt>
      <trkpt lat="27.998234" lon="86.845747">
        <ele>5248.2</ele>
        <time>2022-10-26T07:51:25.000Z</time>
      </trkpt>
      <trkpt lat="27.998246" lon="86.845773">
        <ele>5245.2</ele>
        <time>2022-10-26T07:52:41.000Z</time>
      </trkpt>
      <trkpt lat="27.99824" lon="86.845792">
        <ele>5245.2</ele>
        <time>2022-10-26T07:52:43.000Z</time>
      </trkpt>
      <trkpt lat="27.998234" lon="86.845811">
        <ele>5245.2</ele>
        <time>2022-10-26T07:52:45.000Z</time>
      </trkpt>
      <trkpt lat="27.998221" lon="86.84583">
        <ele>5245.2</ele>
        <time>2022-10-26T07:52:47.000Z</time>
      </trkpt>
      <trkpt lat="27.998198" lon="86.84585">
        <ele>5244.8</ele>
        <time>2022-10-26T07:52:51.000Z</time>
      </trkpt>
      <trkpt lat="27.998182" lon="86.845862">
        <ele>5244.6</ele>
        <time>2022-10-26T07:52:53.000Z</time>
      </trkpt>
      <trkpt lat="27.998176" lon="86.845882">
        <ele>5244.2</ele>
        <time>2022-10-26T07:52:54.000Z</time>
      </trkpt>
      <trkpt lat="27.998157" lon="86.845888">
        <ele>5244.8</ele>
        <time>2022-10-26T07:52:56.000Z</time>
      </trkpt>
      <trkpt lat="27.998134" lon="86.845888">
        <ele>5244</ele>
        <time>2022-10-26T07:53:00.000Z</time>
      </trkpt>
      <trkpt lat="27.998118" lon="86.845869">
        <ele>5244.8</ele>
        <time>2022-10-26T07:53:03.000Z</time>
      </trkpt>
      <trkpt lat="27.998099" lon="86.845862">
        <ele>5244.8</ele>
        <time>2022-10-26T07:53:05.000Z</time>
      </trkpt>
      <trkpt lat="27.99808" lon="86.845869">
        <ele>5244.6</ele>
        <time>2022-10-26T07:53:07.000Z</time>
      </trkpt>
      <trkpt lat="27.998061" lon="86.845882">
        <ele>5244.8</ele>
        <time>2022-10-26T07:53:10.000Z</time>
      </trkpt>
      <trkpt lat="27.998042" lon="86.845862">
        <ele>5245.4</ele>
        <time>2022-10-26T07:53:21.000Z</time>
      </trkpt>
      <trkpt lat="27.998019" lon="86.845862">
        <ele>5245.4</ele>
        <time>2022-10-26T07:53:27.000Z</time>
      </trkpt>
      <trkpt lat="27.998" lon="86.84585">
        <ele>5245.2</ele>
        <time>2022-10-26T07:53:30.000Z</time>
      </trkpt>
      <trkpt lat="27.997987" lon="86.84583">
        <ele>5244.8</ele>
        <time>2022-10-26T07:53:33.000Z</time>
      </trkpt>
      <trkpt lat="27.997971" lon="86.845818">
        <ele>5244.4</ele>
        <time>2022-10-26T07:53:35.000Z</time>
      </trkpt>
      <trkpt lat="27.997958" lon="86.845792">
        <ele>5243.8</ele>
        <time>2022-10-26T07:53:38.000Z</time>
      </trkpt>
      <trkpt lat="27.997942" lon="86.845779">
        <ele>5244</ele>
        <time>2022-10-26T07:53:42.000Z</time>
      </trkpt>
      <trkpt lat="27.99791" lon="86.845779">
        <ele>5243.4</ele>
        <time>2022-10-26T07:54:07.000Z</time>
      </trkpt>
      <trkpt lat="27.997878" lon="86.845779">
        <ele>5242.6</ele>
        <time>2022-10-26T07:54:09.000Z</time>
      </trkpt>
      <trkpt lat="27.997846" lon="86.845779">
        <ele>5242.2</ele>
        <time>2022-10-26T07:54:11.000Z</time>
      </trkpt>
      <trkpt lat="27.997827" lon="86.845779">
        <ele>5242</ele>
        <time>2022-10-26T07:54:12.000Z</time>
      </trkpt>
      <trkpt lat="27.997792" lon="86.845773">
        <ele>5242.2</ele>
        <time>2022-10-26T07:54:14.000Z</time>
      </trkpt>
      <trkpt lat="27.99777" lon="86.845773">
        <ele>5242.2</ele>
        <time>2022-10-26T07:54:16.000Z</time>
      </trkpt>
      <trkpt lat="27.99776" lon="86.845754">
        <ele>5241.6</ele>
        <time>2022-10-26T07:54:18.000Z</time>
      </trkpt>
      <trkpt lat="27.997741" lon="86.845754">
        <ele>5242</ele>
        <time>2022-10-26T07:54:22.000Z</time>
      </trkpt>
      <trkpt lat="27.997725" lon="86.845766">
        <ele>5242</ele>
        <time>2022-10-26T07:54:26.000Z</time>
      </trkpt>
      <trkpt lat="27.997702" lon="86.845773">
        <ele>5241.6</ele>
        <time>2022-10-26T07:54:29.000Z</time>
      </trkpt>
      <trkpt lat="27.99768" lon="86.845773">
        <ele>5242</ele>
        <time>2022-10-26T07:54:33.000Z</time>
      </trkpt>
      <trkpt lat="27.997661" lon="86.845779">
        <ele>5242</ele>
        <time>2022-10-26T07:54:37.000Z</time>
      </trkpt>
      <trkpt lat="27.997642" lon="86.845779">
        <ele>5242.8</ele>
        <time>2022-10-26T07:54:49.000Z</time>
      </trkpt>
      <trkpt lat="27.997622" lon="86.845805">
        <ele>5242.2</ele>
        <time>2022-10-26T07:54:53.000Z</time>
      </trkpt>
      <trkpt lat="27.997629" lon="86.84583">
        <ele>5241.4</ele>
        <time>2022-10-26T07:55:05.000Z</time>
      </trkpt>
      <trkpt lat="27.997635" lon="86.84585">
        <ele>5241.4</ele>
        <time>2022-10-26T07:55:09.000Z</time>
      </trkpt>
      <trkpt lat="27.997645" lon="86.845869">
        <ele>5241.2</ele>
        <time>2022-10-26T07:55:13.000Z</time>
      </trkpt>
      <trkpt lat="27.997642" lon="86.845894">
        <ele>5241.4</ele>
        <time>2022-10-26T07:55:17.000Z</time>
      </trkpt>
      <trkpt lat="27.997632" lon="86.845914">
        <ele>5241</ele>
        <time>2022-10-26T07:55:25.000Z</time>
      </trkpt>
      <trkpt lat="27.997648" lon="86.845926">
        <ele>5242.2</ele>
        <time>2022-10-26T07:55:30.000Z</time>
      </trkpt>
      <trkpt lat="27.997667" lon="86.845939">
        <ele>5242.4</ele>
        <time>2022-10-26T07:55:34.000Z</time>
      </trkpt>
      <trkpt lat="27.997674" lon="86.845965">
        <ele>5241.8</ele>
        <time>2022-10-26T07:55:39.000Z</time>
      </trkpt>
      <trkpt lat="27.99767" lon="86.84599">
        <ele>5241.4</ele>
        <time>2022-10-26T07:55:44.000Z</time>
      </trkpt>
      <trkpt lat="27.997667" lon="86.846016">
        <ele>5241.4</ele>
        <time>2022-10-26T07:55:48.000Z</time>
      </trkpt>
      <trkpt lat="27.997664" lon="86.846042">
        <ele>5241.8</ele>
        <time>2022-10-26T07:55:51.000Z</time>
      </trkpt>
      <trkpt lat="27.997664" lon="86.846067">
        <ele>5242</ele>
        <time>2022-10-26T07:55:57.000Z</time>
      </trkpt>
      <trkpt lat="27.997661" lon="86.846093">
        <ele>5242.4</ele>
        <time>2022-10-26T07:56:01.000Z</time>
      </trkpt>
      <trkpt lat="27.997651" lon="86.846125">
        <ele>5244</ele>
        <time>2022-10-26T07:56:10.000Z</time>
      </trkpt>
      <trkpt lat="27.997638" lon="86.846144">
        <ele>5245</ele>
        <time>2022-10-26T07:56:14.000Z</time>
      </trkpt>
      <trkpt lat="27.997626" lon="86.846163">
        <ele>5245.4</ele>
        <time>2022-10-26T07:56:18.000Z</time>
      </trkpt>
      <trkpt lat="27.99761" lon="86.846176">
        <ele>5245.4</ele>
        <time>2022-10-26T07:56:23.000Z</time>
      </trkpt>
      <trkpt lat="27.997603" lon="86.846202">
        <ele>5245.8</ele>
        <time>2022-10-26T07:56:31.000Z</time>
      </trkpt>
      <trkpt lat="27.9976" lon="86.846227">
        <ele>5246</ele>
        <time>2022-10-26T07:56:37.000Z</time>
      </trkpt>
      <trkpt lat="27.997594" lon="86.846246">
        <ele>5246</ele>
        <time>2022-10-26T07:56:46.000Z</time>
      </trkpt>
      <trkpt lat="27.997587" lon="86.846266">
        <ele>5246.8</ele>
        <time>2022-10-26T07:56:51.000Z</time>
      </trkpt>
      <trkpt lat="27.997581" lon="86.846285">
        <ele>5247.6</ele>
        <time>2022-10-26T07:56:56.000Z</time>
      </trkpt>
      <trkpt lat="27.997581" lon="86.84631">
        <ele>5247.8</ele>
        <time>2022-10-26T07:57:04.000Z</time>
      </trkpt>
      <trkpt lat="27.99759" lon="86.84633">
        <ele>5248.4</ele>
        <time>2022-10-26T07:57:08.000Z</time>
      </trkpt>
      <trkpt lat="27.997594" lon="86.846362">
        <ele>5249.2</ele>
        <time>2022-10-26T07:57:17.000Z</time>
      </trkpt>
      <trkpt lat="27.99759" lon="86.846413">
        <ele>5247.2</ele>
        <time>2022-10-26T07:57:39.000Z</time>
      </trkpt>
      <trkpt lat="27.997587" lon="86.846438">
        <ele>5247</ele>
        <time>2022-10-26T07:57:41.000Z</time>
      </trkpt>
      <trkpt lat="27.997584" lon="86.846477">
        <ele>5247.8</ele>
        <time>2022-10-26T07:57:44.000Z</time>
      </trkpt>
      <trkpt lat="27.997578" lon="86.846502">
        <ele>5249.2</ele>
        <time>2022-10-26T07:57:49.000Z</time>
      </trkpt>
      <trkpt lat="27.997578" lon="86.846528">
        <ele>5249.4</ele>
        <time>2022-10-26T07:57:53.000Z</time>
      </trkpt>
      <trkpt lat="27.997562" lon="86.846547">
        <ele>5249</ele>
        <time>2022-10-26T07:57:56.000Z</time>
      </trkpt>
      <trkpt lat="27.997546" lon="86.846566">
        <ele>5248.8</ele>
        <time>2022-10-26T07:57:59.000Z</time>
      </trkpt>
      <trkpt lat="27.997539" lon="86.846586">
        <ele>5249.6</ele>
        <time>2022-10-26T07:58:02.000Z</time>
      </trkpt>
      <trkpt lat="27.997533" lon="86.846605">
        <ele>5249.6</ele>
        <time>2022-10-26T07:58:04.000Z</time>
      </trkpt>
      <trkpt lat="27.997526" lon="86.846624">
        <ele>5249.6</ele>
        <time>2022-10-26T07:58:06.000Z</time>
      </trkpt>
      <trkpt lat="27.99752" lon="86.846643">
        <ele>5248.8</ele>
        <time>2022-10-26T07:58:09.000Z</time>
      </trkpt>
      <trkpt lat="27.997504" lon="86.846662">
        <ele>5250.2</ele>
        <time>2022-10-26T07:58:12.000Z</time>
      </trkpt>
      <trkpt lat="27.997494" lon="86.846682">
        <ele>5249.6</ele>
        <time>2022-10-26T07:58:14.000Z</time>
      </trkpt>
      <trkpt lat="27.997488" lon="86.846701">
        <ele>5249</ele>
        <time>2022-10-26T07:58:20.000Z</time>
      </trkpt>
      <trkpt lat="27.997491" lon="86.846726">
        <ele>5249.6</ele>
        <time>2022-10-26T07:58:25.000Z</time>
      </trkpt>
      <trkpt lat="27.997498" lon="86.846746">
        <ele>5249.8</ele>
        <time>2022-10-26T07:58:30.000Z</time>
      </trkpt>
      <trkpt lat="27.997494" lon="86.846771">
        <ele>5249.8</ele>
        <time>2022-10-26T07:58:34.000Z</time>
      </trkpt>
      <trkpt lat="27.997488" lon="86.846797">
        <ele>5249.6</ele>
        <time>2022-10-26T07:58:37.000Z</time>
      </trkpt>
      <trkpt lat="27.997491" lon="86.846822">
        <ele>5250.2</ele>
        <time>2022-10-26T07:58:43.000Z</time>
      </trkpt>
      <trkpt lat="27.997494" lon="86.846848">
        <ele>5250.4</ele>
        <time>2022-10-26T07:58:46.000Z</time>
      </trkpt>
      <trkpt lat="27.997501" lon="86.846874">
        <ele>5250.2</ele>
        <time>2022-10-26T07:58:49.000Z</time>
      </trkpt>
      <trkpt lat="27.997501" lon="86.846899">
        <ele>5249.8</ele>
        <time>2022-10-26T07:58:53.000Z</time>
      </trkpt>
      <trkpt lat="27.997504" lon="86.846925">
        <ele>5249.8</ele>
        <time>2022-10-26T07:58:56.000Z</time>
      </trkpt>
      <trkpt lat="27.997501" lon="86.846957">
        <ele>5250.6</ele>
        <time>2022-10-26T07:59:01.000Z</time>
      </trkpt>
      <trkpt lat="27.997491" lon="86.846976">
        <ele>5251.4</ele>
        <time>2022-10-26T07:59:05.000Z</time>
      </trkpt>
      <trkpt lat="27.997491" lon="86.847002">
        <ele>5251.8</ele>
        <time>2022-10-26T07:59:09.000Z</time>
      </trkpt>
      <trkpt lat="27.997504" lon="86.847021">
        <ele>5251.4</ele>
        <time>2022-10-26T07:59:14.000Z</time>
      </trkpt>
      <trkpt lat="27.997514" lon="86.84704">
        <ele>5252.2</ele>
        <time>2022-10-26T07:59:18.000Z</time>
      </trkpt>
      <trkpt lat="27.99751" lon="86.847066">
        <ele>5252.2</ele>
        <time>2022-10-26T07:59:22.000Z</time>
      </trkpt>
      <trkpt lat="27.997504" lon="86.847085">
        <ele>5252.2</ele>
        <time>2022-10-26T07:59:25.000Z</time>
      </trkpt>
      <trkpt lat="27.997498" lon="86.847104">
        <ele>5251.6</ele>
        <time>2022-10-26T07:59:28.000Z</time>
      </trkpt>
      <trkpt lat="27.997498" lon="86.84713">
        <ele>5251.6</ele>
        <time>2022-10-26T07:59:32.000Z</time>
      </trkpt>
      <trkpt lat="27.99751" lon="86.847155">
        <ele>5252.2</ele>
        <time>2022-10-26T07:59:39.000Z</time>
      </trkpt>
      <trkpt lat="27.997517" lon="86.847174">
        <ele>5252</ele>
        <time>2022-10-26T07:59:43.000Z</time>
      </trkpt>
      <trkpt lat="27.997523" lon="86.847194">
        <ele>5252</ele>
        <time>2022-10-26T07:59:45.000Z</time>
      </trkpt>
      <trkpt lat="27.997523" lon="86.847219">
        <ele>5252</ele>
        <time>2022-10-26T07:59:49.000Z</time>
      </trkpt>
      <trkpt lat="27.997523" lon="86.847245">
        <ele>5252.4</ele>
        <time>2022-10-26T07:59:52.000Z</time>
      </trkpt>
      <trkpt lat="27.997539" lon="86.847258">
        <ele>5252</ele>
        <time>2022-10-26T07:59:59.000Z</time>
      </trkpt>
      <trkpt lat="27.99752" lon="86.847258">
        <ele>5251</ele>
        <time>2022-10-26T08:00:09.000Z</time>
      </trkpt>
      <trkpt lat="27.997536" lon="86.847277">
        <ele>5252.2</ele>
        <time>2022-10-26T08:00:38.000Z</time>
      </trkpt>
      <trkpt lat="27.997558" lon="86.84729">
        <ele>5252.2</ele>
        <time>2022-10-26T08:00:40.000Z</time>
      </trkpt>
      <trkpt lat="27.997581" lon="86.847302">
        <ele>5252.2</ele>
        <time>2022-10-26T08:00:42.000Z</time>
      </trkpt>
      <trkpt lat="27.9976" lon="86.847315">
        <ele>5252.4</ele>
        <time>2022-10-26T08:00:44.000Z</time>
      </trkpt>
      <trkpt lat="27.997619" lon="86.847328">
        <ele>5252.8</ele>
        <time>2022-10-26T08:00:46.000Z</time>
      </trkpt>
      <trkpt lat="27.997619" lon="86.847354">
        <ele>5246.8</ele>
        <time>2022-10-26T08:07:27.000Z</time>
      </trkpt>
      <trkpt lat="27.99761" lon="86.847373">
        <ele>5248.8</ele>
        <time>2022-10-26T08:07:30.000Z</time>
      </trkpt>
      <trkpt lat="27.9976" lon="86.847392">
        <ele>5250.2</ele>
        <time>2022-10-26T08:07:37.000Z</time>
      </trkpt>
      <trkpt lat="27.997594" lon="86.847373">
        <ele>5246.4</ele>
        <time>2022-10-26T08:08:54.000Z</time>
      </trkpt>
      <trkpt lat="27.997587" lon="86.847354">
        <ele>5245.8</ele>
        <time>2022-10-26T08:08:58.000Z</time>
      </trkpt>
      <trkpt lat="27.99759" lon="86.847302">
        <ele>5250</ele>
        <time>2022-10-26T08:14:46.000Z</time>
      </trkpt>
      <trkpt lat="27.997626" lon="86.847302">
        <ele>5251.4</ele>
        <time>2022-10-26T08:15:31.000Z</time>
      </trkpt>
      <trkpt lat="27.997613" lon="86.847322">
        <ele>5251.2</ele>
        <time>2022-10-26T08:15:32.000Z</time>
      </trkpt>
      <trkpt lat="27.997562" lon="86.847398">
        <ele>5250.8</ele>
        <time>2022-10-26T08:15:41.000Z</time>
      </trkpt>
      <trkpt lat="27.997533" lon="86.847418">
        <ele>5251.6</ele>
        <time>2022-10-26T08:17:30.000Z</time>
      </trkpt>
      <trkpt lat="27.997517" lon="86.84743">
        <ele>5251.2</ele>
        <time>2022-10-26T08:17:32.000Z</time>
      </trkpt>
      <trkpt lat="27.997494" lon="86.84743">
        <ele>5251.2</ele>
        <time>2022-10-26T08:17:35.000Z</time>
      </trkpt>
      <trkpt lat="27.997469" lon="86.84745">
        <ele>5251.2</ele>
        <time>2022-10-26T08:17:39.000Z</time>
      </trkpt>
      <trkpt lat="27.997443" lon="86.84745">
        <ele>5250.8</ele>
        <time>2022-10-26T08:19:11.000Z</time>
      </trkpt>
      <trkpt lat="27.997462" lon="86.847443">
        <ele>5251</ele>
        <time>2022-10-26T08:19:13.000Z</time>
      </trkpt>
      <trkpt lat="27.997485" lon="86.847437">
        <ele>5251</ele>
        <time>2022-10-26T08:19:15.000Z</time>
      </trkpt>
      <trkpt lat="27.997526" lon="86.847418">
        <ele>5250.4</ele>
        <time>2022-10-26T08:19:21.000Z</time>
      </trkpt>
      <trkpt lat="27.997533" lon="86.847437">
        <ele>5250.8</ele>
        <time>2022-10-26T08:19:24.000Z</time>
      </trkpt>
      <trkpt lat="27.99751" lon="86.847418">
        <ele>5250.8</ele>
        <time>2022-10-26T08:20:25.000Z</time>
      </trkpt>
      <trkpt lat="27.997494" lon="86.84743">
        <ele>5251</ele>
        <time>2022-10-26T08:20:27.000Z</time>
      </trkpt>
      <trkpt lat="27.997475" lon="86.84743">
        <ele>5251</ele>
        <time>2022-10-26T08:20:29.000Z</time>
      </trkpt>
      <trkpt lat="27.99744" lon="86.84745">
        <ele>5252.4</ele>
        <time>2022-10-26T08:20:33.000Z</time>
      </trkpt>
      <trkpt lat="27.997427" lon="86.847456">
        <ele>5252.4</ele>
        <time>2022-10-26T08:20:34.000Z</time>
      </trkpt>
      <trkpt lat="27.997418" lon="86.847418">
        <ele>5252</ele>
        <time>2022-10-26T08:22:32.000Z</time>
      </trkpt>
      <trkpt lat="27.99743" lon="86.847437">
        <ele>5252</ele>
        <time>2022-10-26T08:22:33.000Z</time>
      </trkpt>
      <trkpt lat="27.997443" lon="86.847475">
        <ele>5251.8</ele>
        <time>2022-10-26T08:22:35.000Z</time>
      </trkpt>
      <trkpt lat="27.997446" lon="86.847501">
        <ele>5251.4</ele>
        <time>2022-10-26T08:22:37.000Z</time>
      </trkpt>
      <trkpt lat="27.997453" lon="86.847533">
        <ele>5250.6</ele>
        <time>2022-10-26T08:22:39.000Z</time>
      </trkpt>
      <trkpt lat="27.997462" lon="86.847565">
        <ele>5250.6</ele>
        <time>2022-10-26T08:22:41.000Z</time>
      </trkpt>
      <trkpt lat="27.997456" lon="86.84759">
        <ele>5250.6</ele>
        <time>2022-10-26T08:22:43.000Z</time>
      </trkpt>
      <trkpt lat="27.997443" lon="86.84761">
        <ele>5251</ele>
        <time>2022-10-26T08:22:46.000Z</time>
      </trkpt>
      <trkpt lat="27.997437" lon="86.847629">
        <ele>5251</ele>
        <time>2022-10-26T08:22:48.000Z</time>
      </trkpt>
      <trkpt lat="27.997434" lon="86.847654">
        <ele>5250.6</ele>
        <time>2022-10-26T08:22:52.000Z</time>
      </trkpt>
      <trkpt lat="27.99743" lon="86.84768">
        <ele>5250.6</ele>
        <time>2022-10-26T08:22:55.000Z</time>
      </trkpt>
      <trkpt lat="27.997421" lon="86.847699">
        <ele>5251</ele>
        <time>2022-10-26T08:22:59.000Z</time>
      </trkpt>
      <trkpt lat="27.997421" lon="86.847725">
        <ele>5252</ele>
        <time>2022-10-26T08:23:03.000Z</time>
      </trkpt>
      <trkpt lat="27.997424" lon="86.84775">
        <ele>5251.4</ele>
        <time>2022-10-26T08:23:06.000Z</time>
      </trkpt>
      <trkpt lat="27.99743" lon="86.84777">
        <ele>5251.4</ele>
        <time>2022-10-26T08:23:10.000Z</time>
      </trkpt>
      <trkpt lat="27.997437" lon="86.847789">
        <ele>5252</ele>
        <time>2022-10-26T08:23:14.000Z</time>
      </trkpt>
      <trkpt lat="27.99743" lon="86.847808">
        <ele>5253.2</ele>
        <time>2022-10-26T08:23:18.000Z</time>
      </trkpt>
      <trkpt lat="27.997466" lon="86.84777">
        <ele>5252.6</ele>
        <time>2022-10-26T08:28:09.000Z</time>
      </trkpt>
      <trkpt lat="27.997453" lon="86.847731">
        <ele>5254.2</ele>
        <time>2022-10-26T08:30:33.000Z</time>
      </trkpt>
      <trkpt lat="27.99745" lon="86.847757">
        <ele>5254.2</ele>
        <time>2022-10-26T08:30:35.000Z</time>
      </trkpt>
      <trkpt lat="27.997459" lon="86.847802">
        <ele>5253.4</ele>
        <time>2022-10-26T08:30:41.000Z</time>
      </trkpt>
      <trkpt lat="27.997475" lon="86.847757">
        <ele>5254.4</ele>
        <time>2022-10-26T08:34:24.000Z</time>
      </trkpt>
      <trkpt lat="27.997517" lon="86.847731">
        <ele>5254.6</ele>
        <time>2022-10-26T08:35:16.000Z</time>
      </trkpt>
      <trkpt lat="27.99751" lon="86.84775">
        <ele>5254.8</ele>
        <time>2022-10-26T08:35:17.000Z</time>
      </trkpt>
      <trkpt lat="27.997494" lon="86.847763">
        <ele>5254.2</ele>
        <time>2022-10-26T08:35:19.000Z</time>
      </trkpt>
      <trkpt lat="27.997475" lon="86.847795">
        <ele>5254.2</ele>
        <time>2022-10-26T08:35:24.000Z</time>
      </trkpt>
      <trkpt lat="27.997456" lon="86.847795">
        <ele>5254.4</ele>
        <time>2022-10-26T08:36:52.000Z</time>
      </trkpt>
      <trkpt lat="27.997434" lon="86.847795">
        <ele>5253.8</ele>
        <time>2022-10-26T08:36:56.000Z</time>
      </trkpt>
      <trkpt lat="27.997427" lon="86.847757">
        <ele>5253</ele>
        <time>2022-10-26T08:40:06.000Z</time>
      </trkpt>
      <trkpt lat="27.997395" lon="86.847757">
        <ele>5252.6</ele>
        <time>2022-10-26T08:40:08.000Z</time>
      </trkpt>
      <trkpt lat="27.997373" lon="86.847757">
        <ele>5252</ele>
        <time>2022-10-26T08:40:10.000Z</time>
      </trkpt>
      <trkpt lat="27.997344" lon="86.847763">
        <ele>5251.8</ele>
        <time>2022-10-26T08:40:12.000Z</time>
      </trkpt>
      <trkpt lat="27.997318" lon="86.847776">
        <ele>5251.4</ele>
        <time>2022-10-26T08:40:14.000Z</time>
      </trkpt>
      <trkpt lat="27.997296" lon="86.847795">
        <ele>5251</ele>
        <time>2022-10-26T08:40:16.000Z</time>
      </trkpt>
      <trkpt lat="27.997277" lon="86.847795">
        <ele>5251.2</ele>
        <time>2022-10-26T08:40:18.000Z</time>
      </trkpt>
      <trkpt lat="27.997254" lon="86.847808">
        <ele>5252.4</ele>
        <time>2022-10-26T08:40:21.000Z</time>
      </trkpt>
      <trkpt lat="27.997245" lon="86.847827">
        <ele>5252.4</ele>
        <time>2022-10-26T08:40:25.000Z</time>
      </trkpt>
      <trkpt lat="27.997258" lon="86.847795">
        <ele>5253.8</ele>
        <time>2022-10-26T08:43:26.000Z</time>
      </trkpt>
      <trkpt lat="27.997286" lon="86.84777">
        <ele>5253.8</ele>
        <time>2022-10-26T08:43:28.000Z</time>
      </trkpt>
      <trkpt lat="27.997309" lon="86.84775">
        <ele>5253.8</ele>
        <time>2022-10-26T08:43:30.000Z</time>
      </trkpt>
      <trkpt lat="27.997325" lon="86.847731">
        <ele>5253.8</ele>
        <time>2022-10-26T08:43:31.000Z</time>
      </trkpt>
      <trkpt lat="27.997354" lon="86.847718">
        <ele>5253.6</ele>
        <time>2022-10-26T08:43:33.000Z</time>
      </trkpt>
      <trkpt lat="27.997363" lon="86.847699">
        <ele>5253.6</ele>
        <time>2022-10-26T08:43:35.000Z</time>
      </trkpt>
      <trkpt lat="27.997392" lon="86.847712">
        <ele>5256.6</ele>
        <time>2022-10-26T08:44:52.000Z</time>
      </trkpt>
      <trkpt lat="27.997405" lon="86.847738">
        <ele>5257.2</ele>
        <time>2022-10-26T08:44:54.000Z</time>
      </trkpt>
      <trkpt lat="27.997411" lon="86.847763">
        <ele>5257.4</ele>
        <time>2022-10-26T08:44:57.000Z</time>
      </trkpt>
      <trkpt lat="27.997411" lon="86.847789">
        <ele>5258.4</ele>
        <time>2022-10-26T08:44:59.000Z</time>
      </trkpt>
      <trkpt lat="27.99743" lon="86.84777">
        <ele>5256.4</ele>
        <time>2022-10-26T08:51:27.000Z</time>
      </trkpt>
      <trkpt lat="27.997437" lon="86.847738">
        <ele>5256.2</ele>
        <time>2022-10-26T08:51:29.000Z</time>
      </trkpt>
      <trkpt lat="27.997443" lon="86.847712">
        <ele>5257</ele>
        <time>2022-10-26T08:51:31.000Z</time>
      </trkpt>
      <trkpt lat="27.997443" lon="86.847686">
        <ele>5256.8</ele>
        <time>2022-10-26T08:51:33.000Z</time>
      </trkpt>
      <trkpt lat="27.99745" lon="86.847654">
        <ele>5256.2</ele>
        <time>2022-10-26T08:51:35.000Z</time>
      </trkpt>
      <trkpt lat="27.997453" lon="86.847629">
        <ele>5255.4</ele>
        <time>2022-10-26T08:51:38.000Z</time>
      </trkpt>
      <trkpt lat="27.997456" lon="86.847603">
        <ele>5255.4</ele>
        <time>2022-10-26T08:51:42.000Z</time>
      </trkpt>
      <trkpt lat="27.997462" lon="86.847578">
        <ele>5257.6</ele>
        <time>2022-10-26T08:51:45.000Z</time>
      </trkpt>
      <trkpt lat="27.997472" lon="86.847558">
        <ele>5256.4</ele>
        <time>2022-10-26T08:51:49.000Z</time>
      </trkpt>
      <trkpt lat="27.997472" lon="86.847533">
        <ele>5257</ele>
        <time>2022-10-26T08:51:53.000Z</time>
      </trkpt>
      <trkpt lat="27.997482" lon="86.847501">
        <ele>5257.4</ele>
        <time>2022-10-26T08:51:58.000Z</time>
      </trkpt>
      <trkpt lat="27.997491" lon="86.847482">
        <ele>5257</ele>
        <time>2022-10-26T08:52:01.000Z</time>
      </trkpt>
      <trkpt lat="27.997501" lon="86.847456">
        <ele>5257.4</ele>
        <time>2022-10-26T08:52:04.000Z</time>
      </trkpt>
      <trkpt lat="27.997507" lon="86.847437">
        <ele>5257.6</ele>
        <time>2022-10-26T08:52:07.000Z</time>
      </trkpt>
      <trkpt lat="27.997485" lon="86.847443">
        <ele>5256.8</ele>
        <time>2022-10-26T08:52:21.000Z</time>
      </trkpt>
      <trkpt lat="27.99751" lon="86.847443">
        <ele>5259.6</ele>
        <time>2022-10-26T08:59:05.000Z</time>
      </trkpt>
      <trkpt lat="27.997526" lon="86.84743">
        <ele>5259.6</ele>
        <time>2022-10-26T08:59:07.000Z</time>
      </trkpt>
      <trkpt lat="27.997536" lon="86.847411">
        <ele>5259.2</ele>
        <time>2022-10-26T08:59:08.000Z</time>
      </trkpt>
      <trkpt lat="27.997552" lon="86.847398">
        <ele>5259.2</ele>
        <time>2022-10-26T08:59:35.000Z</time>
      </trkpt>
      <trkpt lat="27.997562" lon="86.847379">
        <ele>5259.4</ele>
        <time>2022-10-26T08:59:37.000Z</time>
      </trkpt>
      <trkpt lat="27.997574" lon="86.84736">
        <ele>5260</ele>
        <time>2022-10-26T08:59:40.000Z</time>
      </trkpt>
      <trkpt lat="27.997581" lon="86.847334">
        <ele>5259</ele>
        <time>2022-10-26T08:59:42.000Z</time>
      </trkpt>
      <trkpt lat="27.99759" lon="86.847315">
        <ele>5258.6</ele>
        <time>2022-10-26T08:59:44.000Z</time>
      </trkpt>
      <trkpt lat="27.997574" lon="86.847302">
        <ele>5259.4</ele>
        <time>2022-10-26T09:00:21.000Z</time>
      </trkpt>
      <trkpt lat="27.997552" lon="86.84729">
        <ele>5257.4</ele>
        <time>2022-10-26T09:00:23.000Z</time>
      </trkpt>
      <trkpt lat="27.997536" lon="86.847264">
        <ele>5258.4</ele>
        <time>2022-10-26T09:00:25.000Z</time>
      </trkpt>
      <trkpt lat="27.99752" lon="86.847245">
        <ele>5258.6</ele>
        <time>2022-10-26T09:00:27.000Z</time>
      </trkpt>
      <trkpt lat="27.997504" lon="86.847232">
        <ele>5258.6</ele>
        <time>2022-10-26T09:00:29.000Z</time>
      </trkpt>
      <trkpt lat="27.997498" lon="86.847213">
        <ele>5259</ele>
        <time>2022-10-26T09:00:31.000Z</time>
      </trkpt>
      <trkpt lat="27.997491" lon="86.847194">
        <ele>5261</ele>
        <time>2022-10-26T09:00:35.000Z</time>
      </trkpt>
      <trkpt lat="27.997478" lon="86.847174">
        <ele>5259.2</ele>
        <time>2022-10-26T09:00:38.000Z</time>
      </trkpt>
      <trkpt lat="27.997475" lon="86.847142">
        <ele>5259.6</ele>
        <time>2022-10-26T09:00:42.000Z</time>
      </trkpt>
      <trkpt lat="27.997472" lon="86.847117">
        <ele>5258.6</ele>
        <time>2022-10-26T09:00:46.000Z</time>
      </trkpt>
      <trkpt lat="27.997478" lon="86.847098">
        <ele>5259</ele>
        <time>2022-10-26T09:00:48.000Z</time>
      </trkpt>
      <trkpt lat="27.997498" lon="86.847085">
        <ele>5258.6</ele>
        <time>2022-10-26T09:00:51.000Z</time>
      </trkpt>
      <trkpt lat="27.997504" lon="86.847066">
        <ele>5259.2</ele>
        <time>2022-10-26T09:00:53.000Z</time>
      </trkpt>
      <trkpt lat="27.99751" lon="86.847046">
        <ele>5259.8</ele>
        <time>2022-10-26T09:00:57.000Z</time>
      </trkpt>
      <trkpt lat="27.99751" lon="86.847021">
        <ele>5258.4</ele>
        <time>2022-10-26T09:01:00.000Z</time>
      </trkpt>
      <trkpt lat="27.997501" lon="86.847002">
        <ele>5257.6</ele>
        <time>2022-10-26T09:01:04.000Z</time>
      </trkpt>
      <trkpt lat="27.997482" lon="86.846982">
        <ele>5257.8</ele>
        <time>2022-10-26T09:01:09.000Z</time>
      </trkpt>
      <trkpt lat="27.997472" lon="86.846963">
        <ele>5257.6</ele>
        <time>2022-10-26T09:01:15.000Z</time>
      </trkpt>
      <trkpt lat="27.997466" lon="86.846931">
        <ele>5256.8</ele>
        <time>2022-10-26T09:01:20.000Z</time>
      </trkpt>
      <trkpt lat="27.997456" lon="86.846906">
        <ele>5256</ele>
        <time>2022-10-26T09:01:24.000Z</time>
      </trkpt>
      <trkpt lat="27.997453" lon="86.84688">
        <ele>5259.4</ele>
        <time>2022-10-26T09:01:29.000Z</time>
      </trkpt>
      <trkpt lat="27.997453" lon="86.846854">
        <ele>5257</ele>
        <time>2022-10-26T09:01:34.000Z</time>
      </trkpt>
      <trkpt lat="27.997443" lon="86.846835">
        <ele>5257.4</ele>
        <time>2022-10-26T09:01:37.000Z</time>
      </trkpt>
      <trkpt lat="27.997443" lon="86.84681">
        <ele>5257</ele>
        <time>2022-10-26T09:01:41.000Z</time>
      </trkpt>
      <trkpt lat="27.997456" lon="86.846784">
        <ele>5256.6</ele>
        <time>2022-10-26T09:01:44.000Z</time>
      </trkpt>
      <trkpt lat="27.997456" lon="86.846758">
        <ele>5256.6</ele>
        <time>2022-10-26T09:01:48.000Z</time>
      </trkpt>
      <trkpt lat="27.997453" lon="86.846733">
        <ele>5256.2</ele>
        <time>2022-10-26T09:01:53.000Z</time>
      </trkpt>
      <trkpt lat="27.997443" lon="86.846707">
        <ele>5257.2</ele>
        <time>2022-10-26T09:01:58.000Z</time>
      </trkpt>
      <trkpt lat="27.997443" lon="86.846682">
        <ele>5255.2</ele>
        <time>2022-10-26T09:02:03.000Z</time>
      </trkpt>
      <trkpt lat="27.997456" lon="86.846662">
        <ele>5255.2</ele>
        <time>2022-10-26T09:02:05.000Z</time>
      </trkpt>
      <trkpt lat="27.997472" lon="86.846643">
        <ele>5255.8</ele>
        <time>2022-10-26T09:02:09.000Z</time>
      </trkpt>
      <trkpt lat="27.997475" lon="86.846618">
        <ele>5255.4</ele>
        <time>2022-10-26T09:02:14.000Z</time>
      </trkpt>
      <trkpt lat="27.997485" lon="86.846598">
        <ele>5257.4</ele>
        <time>2022-10-26T09:02:18.000Z</time>
      </trkpt>
      <trkpt lat="27.997485" lon="86.846573">
        <ele>5256.4</ele>
        <time>2022-10-26T09:02:20.000Z</time>
      </trkpt>
      <trkpt lat="27.997494" lon="86.846547">
        <ele>5255.8</ele>
        <time>2022-10-26T09:02:23.000Z</time>
      </trkpt>
      <trkpt lat="27.99751" lon="86.846528">
        <ele>5257</ele>
        <time>2022-10-26T09:02:27.000Z</time>
      </trkpt>
      <trkpt lat="27.99752" lon="86.846509">
        <ele>5255.8</ele>
        <time>2022-10-26T09:02:30.000Z</time>
      </trkpt>
      <trkpt lat="27.997523" lon="86.846483">
        <ele>5255.2</ele>
        <time>2022-10-26T09:02:39.000Z</time>
      </trkpt>
      <trkpt lat="27.99753" lon="86.846464">
        <ele>5255.6</ele>
        <time>2022-10-26T09:02:44.000Z</time>
      </trkpt>
      <trkpt lat="27.997536" lon="86.846445">
        <ele>5255</ele>
        <time>2022-10-26T09:02:48.000Z</time>
      </trkpt>
      <trkpt lat="27.997536" lon="86.846419">
        <ele>5254.8</ele>
        <time>2022-10-26T09:02:51.000Z</time>
      </trkpt>
      <trkpt lat="27.997533" lon="86.846387">
        <ele>5255.2</ele>
        <time>2022-10-26T09:02:57.000Z</time>
      </trkpt>
      <trkpt lat="27.997523" lon="86.846323">
        <ele>5255.2</ele>
        <time>2022-10-26T09:05:03.000Z</time>
      </trkpt>
      <trkpt lat="27.99753" lon="86.846298">
        <ele>5255.2</ele>
        <time>2022-10-26T09:05:05.000Z</time>
      </trkpt>
      <trkpt lat="27.997533" lon="86.846266">
        <ele>5254.8</ele>
        <time>2022-10-26T09:05:07.000Z</time>
      </trkpt>
      <trkpt lat="27.997539" lon="86.84624">
        <ele>5254.2</ele>
        <time>2022-10-26T09:05:09.000Z</time>
      </trkpt>
      <trkpt lat="27.997552" lon="86.846221">
        <ele>5254</ele>
        <time>2022-10-26T09:05:13.000Z</time>
      </trkpt>
      <trkpt lat="27.997565" lon="86.846202">
        <ele>5253.4</ele>
        <time>2022-10-26T09:05:17.000Z</time>
      </trkpt>
      <trkpt lat="27.997571" lon="86.846182">
        <ele>5253.2</ele>
        <time>2022-10-26T09:05:19.000Z</time>
      </trkpt>
      <trkpt lat="27.997581" lon="86.846163">
        <ele>5252.6</ele>
        <time>2022-10-26T09:05:22.000Z</time>
      </trkpt>
      <trkpt lat="27.997594" lon="86.846138">
        <ele>5252.6</ele>
        <time>2022-10-26T09:05:26.000Z</time>
      </trkpt>
      <trkpt lat="27.997603" lon="86.846112">
        <ele>5251.4</ele>
        <time>2022-10-26T09:05:29.000Z</time>
      </trkpt>
      <trkpt lat="27.99761" lon="86.846086">
        <ele>5251.2</ele>
        <time>2022-10-26T09:05:32.000Z</time>
      </trkpt>
      <trkpt lat="27.997619" lon="86.846067">
        <ele>5250.6</ele>
        <time>2022-10-26T09:05:34.000Z</time>
      </trkpt>
      <trkpt lat="27.997629" lon="86.846048">
        <ele>5249.8</ele>
        <time>2022-10-26T09:05:37.000Z</time>
      </trkpt>
      <trkpt lat="27.997629" lon="86.846022">
        <ele>5249.6</ele>
        <time>2022-10-26T09:05:39.000Z</time>
      </trkpt>
      <trkpt lat="27.997635" lon="86.846003">
        <ele>5249.8</ele>
        <time>2022-10-26T09:05:42.000Z</time>
      </trkpt>
      <trkpt lat="27.997642" lon="86.845984">
        <ele>5249.8</ele>
        <time>2022-10-26T09:05:44.000Z</time>
      </trkpt>
      <trkpt lat="27.997645" lon="86.845952">
        <ele>5250.4</ele>
        <time>2022-10-26T09:05:49.000Z</time>
      </trkpt>
      <trkpt lat="27.997629" lon="86.845933">
        <ele>5250.4</ele>
        <time>2022-10-26T09:05:55.000Z</time>
      </trkpt>
      <trkpt lat="27.99761" lon="86.845914">
        <ele>5250</ele>
        <time>2022-10-26T09:05:59.000Z</time>
      </trkpt>
      <trkpt lat="27.997613" lon="86.845888">
        <ele>5249.8</ele>
        <time>2022-10-26T09:06:03.000Z</time>
      </trkpt>
      <trkpt lat="27.997616" lon="86.845862">
        <ele>5249</ele>
        <time>2022-10-26T09:06:06.000Z</time>
      </trkpt>
      <trkpt lat="27.997603" lon="86.845843">
        <ele>5249.2</ele>
        <time>2022-10-26T09:06:10.000Z</time>
      </trkpt>
      <trkpt lat="27.997597" lon="86.845818">
        <ele>5249.8</ele>
        <time>2022-10-26T09:06:14.000Z</time>
      </trkpt>
      <trkpt lat="27.99759" lon="86.845792">
        <ele>5249.6</ele>
        <time>2022-10-26T09:06:18.000Z</time>
      </trkpt>
      <trkpt lat="27.9976" lon="86.845773">
        <ele>5249.6</ele>
        <time>2022-10-26T09:06:22.000Z</time>
      </trkpt>
      <trkpt lat="27.99761" lon="86.845754">
        <ele>5249.8</ele>
        <time>2022-10-26T09:06:25.000Z</time>
      </trkpt>
      <trkpt lat="27.997626" lon="86.845734">
        <ele>5250</ele>
        <time>2022-10-26T09:06:30.000Z</time>
      </trkpt>
      <trkpt lat="27.997645" lon="86.845728">
        <ele>5249.8</ele>
        <time>2022-10-26T09:06:35.000Z</time>
      </trkpt>
      <trkpt lat="27.997661" lon="86.845715">
        <ele>5249.6</ele>
        <time>2022-10-26T09:06:38.000Z</time>
      </trkpt>
      <trkpt lat="27.99768" lon="86.845728">
        <ele>5249.6</ele>
        <time>2022-10-26T09:06:42.000Z</time>
      </trkpt>
      <trkpt lat="27.997693" lon="86.845709">
        <ele>5249.2</ele>
        <time>2022-10-26T09:06:46.000Z</time>
      </trkpt>
      <trkpt lat="27.997712" lon="86.845715">
        <ele>5249.6</ele>
        <time>2022-10-26T09:06:52.000Z</time>
      </trkpt>
      <trkpt lat="27.997734" lon="86.845709">
        <ele>5250.2</ele>
        <time>2022-10-26T09:06:56.000Z</time>
      </trkpt>
      <trkpt lat="27.997747" lon="86.845728">
        <ele>5250.2</ele>
        <time>2022-10-26T09:06:58.000Z</time>
      </trkpt>
      <trkpt lat="27.99777" lon="86.845734">
        <ele>5249.8</ele>
        <time>2022-10-26T09:07:04.000Z</time>
      </trkpt>
      <trkpt lat="27.997792" lon="86.845734">
        <ele>5249.2</ele>
        <time>2022-10-26T09:07:08.000Z</time>
      </trkpt>
      <trkpt lat="27.997818" lon="86.845715">
        <ele>5249.6</ele>
        <time>2022-10-26T09:07:12.000Z</time>
      </trkpt>
      <trkpt lat="27.99784" lon="86.845715">
        <ele>5251</ele>
        <time>2022-10-26T09:07:18.000Z</time>
      </trkpt>
      <trkpt lat="27.997862" lon="86.845709">
        <ele>5252.2</ele>
        <time>2022-10-26T09:07:24.000Z</time>
      </trkpt>
      <trkpt lat="27.997882" lon="86.845702">
        <ele>5252.2</ele>
        <time>2022-10-26T09:07:29.000Z</time>
      </trkpt>
      <trkpt lat="27.997904" lon="86.845702">
        <ele>5252</ele>
        <time>2022-10-26T09:07:34.000Z</time>
      </trkpt>
      <trkpt lat="27.997923" lon="86.845709">
        <ele>5252</ele>
        <time>2022-10-26T09:07:37.000Z</time>
      </trkpt>
      <trkpt lat="27.997946" lon="86.845728">
        <ele>5252.4</ele>
        <time>2022-10-26T09:07:40.000Z</time>
      </trkpt>
      <trkpt lat="27.997962" lon="86.845747">
        <ele>5252.6</ele>
        <time>2022-10-26T09:07:46.000Z</time>
      </trkpt>
      <trkpt lat="27.99799" lon="86.845766">
        <ele>5253</ele>
        <time>2022-10-26T09:07:50.000Z</time>
      </trkpt>
      <trkpt lat="27.998006" lon="86.845779">
        <ele>5253</ele>
        <time>2022-10-26T09:07:53.000Z</time>
      </trkpt>
      <trkpt lat="27.998029" lon="86.845786">
        <ele>5253.2</ele>
        <time>2022-10-26T09:07:57.000Z</time>
      </trkpt>
      <trkpt lat="27.998048" lon="86.845792">
        <ele>5253</ele>
        <time>2022-10-26T09:08:01.000Z</time>
      </trkpt>
      <trkpt lat="27.998067" lon="86.845805">
        <ele>5253</ele>
        <time>2022-10-26T09:08:06.000Z</time>
      </trkpt>
      <trkpt lat="27.998086" lon="86.845805">
        <ele>5252.2</ele>
        <time>2022-10-26T09:08:12.000Z</time>
      </trkpt>
      <trkpt lat="27.998102" lon="86.845786">
        <ele>5252.2</ele>
        <time>2022-10-26T09:08:15.000Z</time>
      </trkpt>
      <trkpt lat="27.998122" lon="86.845786">
        <ele>5251.6</ele>
        <time>2022-10-26T09:08:19.000Z</time>
      </trkpt>
      <trkpt lat="27.998141" lon="86.845773">
        <ele>5252</ele>
        <time>2022-10-26T09:08:22.000Z</time>
      </trkpt>
      <trkpt lat="27.99816" lon="86.845786">
        <ele>5252.2</ele>
        <time>2022-10-26T09:08:26.000Z</time>
      </trkpt>
      <trkpt lat="27.99816" lon="86.845651">
        <ele>5259</ele>
        <time>2022-10-26T09:10:45.000Z</time>
      </trkpt>
      <trkpt lat="27.998147" lon="86.845619">
        <ele>5259.8</ele>
        <time>2022-10-26T09:10:49.000Z</time>
      </trkpt>
      <trkpt lat="27.998125" lon="86.845581">
        <ele>5259.6</ele>
        <time>2022-10-26T09:11:14.000Z</time>
      </trkpt>
      <trkpt lat="27.998109" lon="86.845568">
        <ele>5259.4</ele>
        <time>2022-10-26T09:11:16.000Z</time>
      </trkpt>
      <trkpt lat="27.998102" lon="86.845542">
        <ele>5260.2</ele>
        <time>2022-10-26T09:11:18.000Z</time>
      </trkpt>
      <trkpt lat="27.99809" lon="86.845523">
        <ele>5260.6</ele>
        <time>2022-10-26T09:11:21.000Z</time>
      </trkpt>
      <trkpt lat="27.998067" lon="86.845504">
        <ele>5260.8</ele>
        <time>2022-10-26T09:11:55.000Z</time>
      </trkpt>
      <trkpt lat="27.998051" lon="86.845485">
        <ele>5261.2</ele>
        <time>2022-10-26T09:11:57.000Z</time>
      </trkpt>
      <trkpt lat="27.998038" lon="86.845466">
        <ele>5261.8</ele>
        <time>2022-10-26T09:11:59.000Z</time>
      </trkpt>
      <trkpt lat="27.998022" lon="86.845453">
        <ele>5262.6</ele>
        <time>2022-10-26T09:12:01.000Z</time>
      </trkpt>
      <trkpt lat="27.998013" lon="86.845434">
        <ele>5262.6</ele>
        <time>2022-10-26T09:12:02.000Z</time>
      </trkpt>
      <trkpt lat="27.997987" lon="86.845408">
        <ele>5264.4</ele>
        <time>2022-10-26T09:16:39.000Z</time>
      </trkpt>
      <trkpt lat="27.997981" lon="86.845389">
        <ele>5264.4</ele>
        <time>2022-10-26T09:16:40.000Z</time>
      </trkpt>
      <trkpt lat="27.997971" lon="86.84537">
        <ele>5264.4</ele>
        <time>2022-10-26T09:16:42.000Z</time>
      </trkpt>
      <trkpt lat="27.997968" lon="86.845344">
        <ele>5265</ele>
        <time>2022-10-26T09:16:44.000Z</time>
      </trkpt>
      <trkpt lat="27.997958" lon="86.845325">
        <ele>5265</ele>
        <time>2022-10-26T09:16:46.000Z</time>
      </trkpt>
      <trkpt lat="27.997949" lon="86.845299">
        <ele>5265.4</ele>
        <time>2022-10-26T09:16:48.000Z</time>
      </trkpt>
      <trkpt lat="27.997933" lon="86.845286">
        <ele>5266</ele>
        <time>2022-10-26T09:16:56.000Z</time>
      </trkpt>
      <trkpt lat="27.99792" lon="86.845267">
        <ele>5267</ele>
        <time>2022-10-26T09:17:02.000Z</time>
      </trkpt>
      <trkpt lat="27.997901" lon="86.845261">
        <ele>5267.6</ele>
        <time>2022-10-26T09:17:06.000Z</time>
      </trkpt>
      <trkpt lat="27.997882" lon="86.845254">
        <ele>5267.4</ele>
        <time>2022-10-26T09:17:09.000Z</time>
      </trkpt>
      <trkpt lat="27.997869" lon="86.845235">
        <ele>5267.4</ele>
        <time>2022-10-26T09:17:12.000Z</time>
      </trkpt>
      <trkpt lat="27.997853" lon="86.845222">
        <ele>5268</ele>
        <time>2022-10-26T09:17:18.000Z</time>
      </trkpt>
      <trkpt lat="27.997853" lon="86.845197">
        <ele>5268.6</ele>
        <time>2022-10-26T09:17:23.000Z</time>
      </trkpt>
      <trkpt lat="27.997843" lon="86.845178">
        <ele>5269.2</ele>
        <time>2022-10-26T09:17:27.000Z</time>
      </trkpt>
      <trkpt lat="27.997824" lon="86.845158">
        <ele>5269.4</ele>
        <time>2022-10-26T09:17:33.000Z</time>
      </trkpt>
      <trkpt lat="27.997808" lon="86.845146">
        <ele>5269.8</ele>
        <time>2022-10-26T09:17:38.000Z</time>
      </trkpt>
      <trkpt lat="27.997792" lon="86.845133">
        <ele>5270.6</ele>
        <time>2022-10-26T09:17:44.000Z</time>
      </trkpt>
      <trkpt lat="27.997786" lon="86.845114">
        <ele>5270.8</ele>
        <time>2022-10-26T09:17:48.000Z</time>
      </trkpt>
      <trkpt lat="27.99777" lon="86.845101">
        <ele>5271.4</ele>
        <time>2022-10-26T09:17:52.000Z</time>
      </trkpt>
      <trkpt lat="27.997747" lon="86.845101">
        <ele>5271.8</ele>
        <time>2022-10-26T09:17:57.000Z</time>
      </trkpt>
      <trkpt lat="27.997728" lon="86.845094">
        <ele>5272</ele>
        <time>2022-10-26T09:18:01.000Z</time>
      </trkpt>
      <trkpt lat="27.997715" lon="86.845075">
        <ele>5271.8</ele>
        <time>2022-10-26T09:18:05.000Z</time>
      </trkpt>
      <trkpt lat="27.997699" lon="86.845062">
        <ele>5272</ele>
        <time>2022-10-26T09:18:11.000Z</time>
      </trkpt>
      <trkpt lat="27.997683" lon="86.84505">
        <ele>5272.6</ele>
        <time>2022-10-26T09:18:17.000Z</time>
      </trkpt>
      <trkpt lat="27.997674" lon="86.84503">
        <ele>5273.8</ele>
        <time>2022-10-26T09:18:21.000Z</time>
      </trkpt>
      <trkpt lat="27.997661" lon="86.845011">
        <ele>5274</ele>
        <time>2022-10-26T09:18:27.000Z</time>
      </trkpt>
      <trkpt lat="27.997654" lon="86.844992">
        <ele>5274.6</ele>
        <time>2022-10-26T09:18:32.000Z</time>
      </trkpt>
      <trkpt lat="27.997654" lon="86.84496">
        <ele>5275</ele>
        <time>2022-10-26T09:18:39.000Z</time>
      </trkpt>
      <trkpt lat="27.997642" lon="86.844941">
        <ele>5275.8</ele>
        <time>2022-10-26T09:18:44.000Z</time>
      </trkpt>
      <trkpt lat="27.997622" lon="86.844928">
        <ele>5276.4</ele>
        <time>2022-10-26T09:18:51.000Z</time>
      </trkpt>
      <trkpt lat="27.997616" lon="86.844909">
        <ele>5276.4</ele>
        <time>2022-10-26T09:18:55.000Z</time>
      </trkpt>
      <trkpt lat="27.9976" lon="86.844896">
        <ele>5276.6</ele>
        <time>2022-10-26T09:19:00.000Z</time>
      </trkpt>
      <trkpt lat="27.99759" lon="86.844877">
        <ele>5277.4</ele>
        <time>2022-10-26T09:19:04.000Z</time>
      </trkpt>
      <trkpt lat="27.997574" lon="86.844864">
        <ele>5278</ele>
        <time>2022-10-26T09:19:09.000Z</time>
      </trkpt>
      <trkpt lat="27.997558" lon="86.844851">
        <ele>5277.8</ele>
        <time>2022-10-26T09:19:14.000Z</time>
      </trkpt>
      <trkpt lat="27.997546" lon="86.844832">
        <ele>5278.8</ele>
        <time>2022-10-26T09:20:13.000Z</time>
      </trkpt>
      <trkpt lat="27.997536" lon="86.8448">
        <ele>5279.2</ele>
        <time>2022-10-26T09:20:15.000Z</time>
      </trkpt>
      <trkpt lat="27.997517" lon="86.844787">
        <ele>5279.2</ele>
        <time>2022-10-26T09:20:17.000Z</time>
      </trkpt>
      <trkpt lat="27.997501" lon="86.844774">
        <ele>5279.2</ele>
        <time>2022-10-26T09:20:19.000Z</time>
      </trkpt>
      <trkpt lat="27.997491" lon="86.844749">
        <ele>5279.4</ele>
        <time>2022-10-26T09:20:21.000Z</time>
      </trkpt>
      <trkpt lat="27.997475" lon="86.84473">
        <ele>5279.4</ele>
        <time>2022-10-26T09:20:23.000Z</time>
      </trkpt>
      <trkpt lat="27.997466" lon="86.84471">
        <ele>5279.6</ele>
        <time>2022-10-26T09:20:25.000Z</time>
      </trkpt>
      <trkpt lat="27.99745" lon="86.844698">
        <ele>5280</ele>
        <time>2022-10-26T09:20:30.000Z</time>
      </trkpt>
      <trkpt lat="27.997443" lon="86.844678">
        <ele>5280.6</ele>
        <time>2022-10-26T09:20:34.000Z</time>
      </trkpt>
      <trkpt lat="27.997424" lon="86.844666">
        <ele>5280.4</ele>
        <time>2022-10-26T09:20:40.000Z</time>
      </trkpt>
      <trkpt lat="27.997411" lon="86.84464">
        <ele>5281.4</ele>
        <time>2022-10-26T09:20:46.000Z</time>
      </trkpt>
      <trkpt lat="27.997395" lon="86.844627">
        <ele>5281.6</ele>
        <time>2022-10-26T09:20:51.000Z</time>
      </trkpt>
      <trkpt lat="27.997392" lon="86.844602">
        <ele>5281.8</ele>
        <time>2022-10-26T09:20:54.000Z</time>
      </trkpt>
      <trkpt lat="27.997373" lon="86.844595">
        <ele>5280.4</ele>
        <time>2022-10-26T09:21:00.000Z</time>
      </trkpt>
      <trkpt lat="27.997357" lon="86.844582">
        <ele>5280.8</ele>
        <time>2022-10-26T09:21:04.000Z</time>
      </trkpt>
      <trkpt lat="27.997331" lon="86.844576">
        <ele>5280.6</ele>
        <time>2022-10-26T09:21:09.000Z</time>
      </trkpt>
      <trkpt lat="27.997312" lon="86.844563">
        <ele>5280.6</ele>
        <time>2022-10-26T09:21:13.000Z</time>
      </trkpt>
      <trkpt lat="27.99729" lon="86.844557">
        <ele>5280.6</ele>
        <time>2022-10-26T09:21:17.000Z</time>
      </trkpt>
      <trkpt lat="27.99728" lon="86.844538">
        <ele>5280</ele>
        <time>2022-10-26T09:21:21.000Z</time>
      </trkpt>
      <trkpt lat="27.997261" lon="86.844538">
        <ele>5280.4</ele>
        <time>2022-10-26T09:21:24.000Z</time>
      </trkpt>
      <trkpt lat="27.997242" lon="86.844531">
        <ele>5280.4</ele>
        <time>2022-10-26T09:21:28.000Z</time>
      </trkpt>
      <trkpt lat="27.997222" lon="86.844518">
        <ele>5280.6</ele>
        <time>2022-10-26T09:21:31.000Z</time>
      </trkpt>
      <trkpt lat="27.99721" lon="86.844499">
        <ele>5279.2</ele>
        <time>2022-10-26T09:21:36.000Z</time>
      </trkpt>
      <trkpt lat="27.997194" lon="86.84448">
        <ele>5279.8</ele>
        <time>2022-10-26T09:21:40.000Z</time>
      </trkpt>
      <trkpt lat="27.997171" lon="86.844474">
        <ele>5279.8</ele>
        <time>2022-10-26T09:21:46.000Z</time>
      </trkpt>
      <trkpt lat="27.997152" lon="86.84448">
        <ele>5279.8</ele>
        <time>2022-10-26T09:21:53.000Z</time>
      </trkpt>
      <trkpt lat="27.997133" lon="86.84448">
        <ele>5279.8</ele>
        <time>2022-10-26T09:21:55.000Z</time>
      </trkpt>
      <trkpt lat="27.997117" lon="86.844493">
        <ele>5281</ele>
        <time>2022-10-26T09:22:05.000Z</time>
      </trkpt>
      <trkpt lat="27.997104" lon="86.844474">
        <ele>5280.4</ele>
        <time>2022-10-26T09:22:14.000Z</time>
      </trkpt>
      <trkpt lat="27.997098" lon="86.844454">
        <ele>5279.8</ele>
        <time>2022-10-26T09:22:18.000Z</time>
      </trkpt>
      <trkpt lat="27.997085" lon="86.844435">
        <ele>5279.8</ele>
        <time>2022-10-26T09:22:21.000Z</time>
      </trkpt>
      <trkpt lat="27.997062" lon="86.844422">
        <ele>5279.8</ele>
        <time>2022-10-26T09:22:25.000Z</time>
      </trkpt>
      <trkpt lat="27.997046" lon="86.844403">
        <ele>5278.6</ele>
        <time>2022-10-26T09:22:28.000Z</time>
      </trkpt>
      <trkpt lat="27.99703" lon="86.84439">
        <ele>5278.6</ele>
        <time>2022-10-26T09:22:32.000Z</time>
      </trkpt>
      <trkpt lat="27.997011" lon="86.84439">
        <ele>5279.2</ele>
        <time>2022-10-26T09:22:36.000Z</time>
      </trkpt>
      <trkpt lat="27.996986" lon="86.844384">
        <ele>5279.8</ele>
        <time>2022-10-26T09:22:40.000Z</time>
      </trkpt>
      <trkpt lat="27.99697" lon="86.844365">
        <ele>5279.2</ele>
        <time>2022-10-26T09:22:43.000Z</time>
      </trkpt>
      <trkpt lat="27.996947" lon="86.844346">
        <ele>5279.2</ele>
        <time>2022-10-26T09:22:48.000Z</time>
      </trkpt>
      <trkpt lat="27.996928" lon="86.844333">
        <ele>5278.8</ele>
        <time>2022-10-26T09:22:55.000Z</time>
      </trkpt>
      <trkpt lat="27.996915" lon="86.844314">
        <ele>5278.2</ele>
        <time>2022-10-26T09:22:58.000Z</time>
      </trkpt>
      <trkpt lat="27.996896" lon="86.844307">
        <ele>5278.2</ele>
        <time>2022-10-26T09:23:01.000Z</time>
      </trkpt>
      <trkpt lat="27.996877" lon="86.844301">
        <ele>5277.8</ele>
        <time>2022-10-26T09:23:04.000Z</time>
      </trkpt>
      <trkpt lat="27.996854" lon="86.844301">
        <ele>5278.4</ele>
        <time>2022-10-26T09:23:07.000Z</time>
      </trkpt>
      <trkpt lat="27.996835" lon="86.844294">
        <ele>5278.4</ele>
        <time>2022-10-26T09:23:10.000Z</time>
      </trkpt>
      <trkpt lat="27.996819" lon="86.844275">
        <ele>5278.8</ele>
        <time>2022-10-26T09:23:12.000Z</time>
      </trkpt>
      <trkpt lat="27.9968" lon="86.844262">
        <ele>5278.8</ele>
        <time>2022-10-26T09:23:15.000Z</time>
      </trkpt>
      <trkpt lat="27.996781" lon="86.844243">
        <ele>5278.4</ele>
        <time>2022-10-26T09:23:18.000Z</time>
      </trkpt>
      <trkpt lat="27.996762" lon="86.844243">
        <ele>5279</ele>
        <time>2022-10-26T09:23:21.000Z</time>
      </trkpt>
      <trkpt lat="27.996746" lon="86.844224">
        <ele>5278.2</ele>
        <time>2022-10-26T09:23:24.000Z</time>
      </trkpt>
      <trkpt lat="27.99673" lon="86.844205">
        <ele>5278.2</ele>
        <time>2022-10-26T09:23:27.000Z</time>
      </trkpt>
      <trkpt lat="27.996707" lon="86.844205">
        <ele>5277.6</ele>
        <time>2022-10-26T09:23:30.000Z</time>
      </trkpt>
      <trkpt lat="27.996688" lon="86.844205">
        <ele>5278.2</ele>
        <time>2022-10-26T09:23:33.000Z</time>
      </trkpt>
      <trkpt lat="27.996666" lon="86.844205">
        <ele>5278.4</ele>
        <time>2022-10-26T09:23:36.000Z</time>
      </trkpt>
      <trkpt lat="27.996643" lon="86.844198">
        <ele>5278.4</ele>
        <time>2022-10-26T09:23:39.000Z</time>
      </trkpt>
      <trkpt lat="27.996624" lon="86.844186">
        <ele>5278.4</ele>
        <time>2022-10-26T09:23:42.000Z</time>
      </trkpt>
      <trkpt lat="27.996602" lon="86.844186">
        <ele>5278.4</ele>
        <time>2022-10-26T09:23:45.000Z</time>
      </trkpt>
      <trkpt lat="27.996589" lon="86.84416">
        <ele>5278.4</ele>
        <time>2022-10-26T09:23:48.000Z</time>
      </trkpt>
      <trkpt lat="27.99657" lon="86.84416">
        <ele>5278.4</ele>
        <time>2022-10-26T09:23:51.000Z</time>
      </trkpt>
      <trkpt lat="27.99655" lon="86.844147">
        <ele>5278.4</ele>
        <time>2022-10-26T09:23:54.000Z</time>
      </trkpt>
      <trkpt lat="27.996531" lon="86.844141">
        <ele>5278.8</ele>
        <time>2022-10-26T09:23:57.000Z</time>
      </trkpt>
      <trkpt lat="27.996509" lon="86.844122">
        <ele>5278.2</ele>
        <time>2022-10-26T09:24:01.000Z</time>
      </trkpt>
      <trkpt lat="27.99649" lon="86.844109">
        <ele>5278.2</ele>
        <time>2022-10-26T09:24:04.000Z</time>
      </trkpt>
      <trkpt lat="27.996467" lon="86.844109">
        <ele>5278</ele>
        <time>2022-10-26T09:24:07.000Z</time>
      </trkpt>
      <trkpt lat="27.996454" lon="86.844083">
        <ele>5278</ele>
        <time>2022-10-26T09:24:10.000Z</time>
      </trkpt>
      <trkpt lat="27.996438" lon="86.84407">
        <ele>5276.8</ele>
        <time>2022-10-26T09:24:16.000Z</time>
      </trkpt>
      <trkpt lat="27.996413" lon="86.844064">
        <ele>5276.8</ele>
        <time>2022-10-26T09:24:57.000Z</time>
      </trkpt>
      <trkpt lat="27.99639" lon="86.844058">
        <ele>5276.6</ele>
        <time>2022-10-26T09:24:59.000Z</time>
      </trkpt>
      <trkpt lat="27.996346" lon="86.844038">
        <ele>5276.2</ele>
        <time>2022-10-26T09:25:03.000Z</time>
      </trkpt>
      <trkpt lat="27.996323" lon="86.844026">
        <ele>5275.6</ele>
        <time>2022-10-26T09:25:05.000Z</time>
      </trkpt>
      <trkpt lat="27.996304" lon="86.844019">
        <ele>5276.2</ele>
        <time>2022-10-26T09:25:07.000Z</time>
      </trkpt>
      <trkpt lat="27.996294" lon="86.844">
        <ele>5276.2</ele>
        <time>2022-10-26T09:25:09.000Z</time>
      </trkpt>
      <trkpt lat="27.996282" lon="86.843981">
        <ele>5275.6</ele>
        <time>2022-10-26T09:25:12.000Z</time>
      </trkpt>
      <trkpt lat="27.996262" lon="86.843962">
        <ele>5276.2</ele>
        <time>2022-10-26T09:25:16.000Z</time>
      </trkpt>
      <trkpt lat="27.996243" lon="86.843955">
        <ele>5276</ele>
        <time>2022-10-26T09:25:24.000Z</time>
      </trkpt>
      <trkpt lat="27.996224" lon="86.843955">
        <ele>5276.6</ele>
        <time>2022-10-26T09:25:27.000Z</time>
      </trkpt>
      <trkpt lat="27.996205" lon="86.843942">
        <ele>5276.6</ele>
        <time>2022-10-26T09:25:37.000Z</time>
      </trkpt>
      <trkpt lat="27.996189" lon="86.843917">
        <ele>5275.8</ele>
        <time>2022-10-26T09:26:17.000Z</time>
      </trkpt>
      <trkpt lat="27.996205" lon="86.843936">
        <ele>5276.6</ele>
        <time>2022-10-26T09:26:19.000Z</time>
      </trkpt>
      <trkpt lat="27.996214" lon="86.843955">
        <ele>5277.2</ele>
        <time>2022-10-26T09:26:25.000Z</time>
      </trkpt>
      <trkpt lat="27.996198" lon="86.843936">
        <ele>5276.6</ele>
        <time>2022-10-26T09:26:31.000Z</time>
      </trkpt>
      <trkpt lat="27.996192" lon="86.843917">
        <ele>5276.6</ele>
        <time>2022-10-26T09:26:48.000Z</time>
      </trkpt>
      <trkpt lat="27.99617" lon="86.843904">
        <ele>5276.4</ele>
        <time>2022-10-26T09:26:50.000Z</time>
      </trkpt>
      <trkpt lat="27.996147" lon="86.843898">
        <ele>5276.2</ele>
        <time>2022-10-26T09:26:52.000Z</time>
      </trkpt>
      <trkpt lat="27.996122" lon="86.843878">
        <ele>5276.2</ele>
        <time>2022-10-26T09:26:54.000Z</time>
      </trkpt>
      <trkpt lat="27.996102" lon="86.843878">
        <ele>5275.8</ele>
        <time>2022-10-26T09:26:55.000Z</time>
      </trkpt>
      <trkpt lat="27.996074" lon="86.843859">
        <ele>5275.8</ele>
        <time>2022-10-26T09:26:57.000Z</time>
      </trkpt>
      <trkpt lat="27.996061" lon="86.84384">
        <ele>5276.2</ele>
        <time>2022-10-26T09:27:00.000Z</time>
      </trkpt>
      <trkpt lat="27.996038" lon="86.843834">
        <ele>5275.2</ele>
        <time>2022-10-26T09:27:08.000Z</time>
      </trkpt>
      <trkpt lat="27.996013" lon="86.843827">
        <ele>5274.6</ele>
        <time>2022-10-26T09:27:11.000Z</time>
      </trkpt>
      <trkpt lat="27.99599" lon="86.843821">
        <ele>5274.6</ele>
        <time>2022-10-26T09:27:14.000Z</time>
      </trkpt>
      <trkpt lat="27.995974" lon="86.843808">
        <ele>5275</ele>
        <time>2022-10-26T09:27:16.000Z</time>
      </trkpt>
      <trkpt lat="27.995955" lon="86.843802">
        <ele>5275.2</ele>
        <time>2022-10-26T09:27:19.000Z</time>
      </trkpt>
      <trkpt lat="27.995939" lon="86.843789">
        <ele>5275</ele>
        <time>2022-10-26T09:27:21.000Z</time>
      </trkpt>
      <trkpt lat="27.995917" lon="86.843782">
        <ele>5274.2</ele>
        <time>2022-10-26T09:27:24.000Z</time>
      </trkpt>
      <trkpt lat="27.995904" lon="86.843763">
        <ele>5274.2</ele>
        <time>2022-10-26T09:27:26.000Z</time>
      </trkpt>
      <trkpt lat="27.995888" lon="86.84375">
        <ele>5273.8</ele>
        <time>2022-10-26T09:27:30.000Z</time>
      </trkpt>
      <trkpt lat="27.995866" lon="86.843738">
        <ele>5273.2</ele>
        <time>2022-10-26T09:27:34.000Z</time>
      </trkpt>
      <trkpt lat="27.99585" lon="86.843725">
        <ele>5272.4</ele>
        <time>2022-10-26T09:27:36.000Z</time>
      </trkpt>
      <trkpt lat="27.995827" lon="86.843718">
        <ele>5272.2</ele>
        <time>2022-10-26T09:27:39.000Z</time>
      </trkpt>
      <trkpt lat="27.995805" lon="86.843712">
        <ele>5272.8</ele>
        <time>2022-10-26T09:27:42.000Z</time>
      </trkpt>
      <trkpt lat="27.995795" lon="86.843686">
        <ele>5272.2</ele>
        <time>2022-10-26T09:27:45.000Z</time>
      </trkpt>
      <trkpt lat="27.995779" lon="86.843674">
        <ele>5271.8</ele>
        <time>2022-10-26T09:27:48.000Z</time>
      </trkpt>
      <trkpt lat="27.99576" lon="86.843661">
        <ele>5270.8</ele>
        <time>2022-10-26T09:27:51.000Z</time>
      </trkpt>
      <trkpt lat="27.995747" lon="86.843642">
        <ele>5270.2</ele>
        <time>2022-10-26T09:27:54.000Z</time>
      </trkpt>
      <trkpt lat="27.995731" lon="86.843622">
        <ele>5270.2</ele>
        <time>2022-10-26T09:27:57.000Z</time>
      </trkpt>
      <trkpt lat="27.995718" lon="86.843603">
        <ele>5269.6</ele>
        <time>2022-10-26T09:27:59.000Z</time>
      </trkpt>
      <trkpt lat="27.995702" lon="86.84359">
        <ele>5269.6</ele>
        <time>2022-10-26T09:28:03.000Z</time>
      </trkpt>
      <trkpt lat="27.995683" lon="86.843578">
        <ele>5268.4</ele>
        <time>2022-10-26T09:28:06.000Z</time>
      </trkpt>
      <trkpt lat="27.99567" lon="86.843558">
        <ele>5267.8</ele>
        <time>2022-10-26T09:28:10.000Z</time>
      </trkpt>
      <trkpt lat="27.995645" lon="86.843539">
        <ele>5267.6</ele>
        <time>2022-10-26T09:29:18.000Z</time>
      </trkpt>
      <trkpt lat="27.995619" lon="86.84352">
        <ele>5267.8</ele>
        <time>2022-10-26T09:29:20.000Z</time>
      </trkpt>
      <trkpt lat="27.995594" lon="86.843507">
        <ele>5267.6</ele>
        <time>2022-10-26T09:29:22.000Z</time>
      </trkpt>
      <trkpt lat="27.995568" lon="86.843501">
        <ele>5267.2</ele>
        <time>2022-10-26T09:29:24.000Z</time>
      </trkpt>
      <trkpt lat="27.995549" lon="86.843482">
        <ele>5267.8</ele>
        <time>2022-10-26T09:29:26.000Z</time>
      </trkpt>
      <trkpt lat="27.99553" lon="86.843469">
        <ele>5267.6</ele>
        <time>2022-10-26T09:29:29.000Z</time>
      </trkpt>
      <trkpt lat="27.995507" lon="86.84345">
        <ele>5267.2</ele>
        <time>2022-10-26T09:29:32.000Z</time>
      </trkpt>
      <trkpt lat="27.995485" lon="86.843443">
        <ele>5267</ele>
        <time>2022-10-26T09:29:36.000Z</time>
      </trkpt>
      <trkpt lat="27.995469" lon="86.84343">
        <ele>5267</ele>
        <time>2022-10-26T09:29:38.000Z</time>
      </trkpt>
      <trkpt lat="27.99545" lon="86.843424">
        <ele>5266</ele>
        <time>2022-10-26T09:29:41.000Z</time>
      </trkpt>
      <trkpt lat="27.995434" lon="86.843411">
        <ele>5266.4</ele>
        <time>2022-10-26T09:29:43.000Z</time>
      </trkpt>
      <trkpt lat="27.995414" lon="86.843398">
        <ele>5266</ele>
        <time>2022-10-26T09:29:46.000Z</time>
      </trkpt>
      <trkpt lat="27.995398" lon="86.843386">
        <ele>5265.8</ele>
        <time>2022-10-26T09:29:48.000Z</time>
      </trkpt>
      <trkpt lat="27.99537" lon="86.843366">
        <ele>5264.6</ele>
        <time>2022-10-26T09:29:52.000Z</time>
      </trkpt>
      <trkpt lat="27.995344" lon="86.84336">
        <ele>5265.8</ele>
        <time>2022-10-26T09:29:55.000Z</time>
      </trkpt>
      <trkpt lat="27.995322" lon="86.843354">
        <ele>5265.4</ele>
        <time>2022-10-26T09:29:58.000Z</time>
      </trkpt>
      <trkpt lat="27.995302" lon="86.843347">
        <ele>5265</ele>
        <time>2022-10-26T09:30:00.000Z</time>
      </trkpt>
      <trkpt lat="27.995277" lon="86.843347">
        <ele>5265</ele>
        <time>2022-10-26T09:30:03.000Z</time>
      </trkpt>
      <trkpt lat="27.995251" lon="86.843354">
        <ele>5265</ele>
        <time>2022-10-26T09:30:06.000Z</time>
      </trkpt>
      <trkpt lat="27.995229" lon="86.843354">
        <ele>5265.2</ele>
        <time>2022-10-26T09:30:09.000Z</time>
      </trkpt>
      <trkpt lat="27.995203" lon="86.843347">
        <ele>5264.4</ele>
        <time>2022-10-26T09:30:12.000Z</time>
      </trkpt>
      <trkpt lat="27.995178" lon="86.843341">
        <ele>5264.4</ele>
        <time>2022-10-26T09:30:16.000Z</time>
      </trkpt>
      <trkpt lat="27.995168" lon="86.843322">
        <ele>5264.4</ele>
        <time>2022-10-26T09:30:19.000Z</time>
      </trkpt>
      <trkpt lat="27.995146" lon="86.843309">
        <ele>5264.6</ele>
        <time>2022-10-26T09:30:23.000Z</time>
      </trkpt>
      <trkpt lat="27.99512" lon="86.843309">
        <ele>5264.4</ele>
        <time>2022-10-26T09:30:27.000Z</time>
      </trkpt>
      <trkpt lat="27.995098" lon="86.843309">
        <ele>5264.4</ele>
        <time>2022-10-26T09:30:30.000Z</time>
      </trkpt>
      <trkpt lat="27.995072" lon="86.843309">
        <ele>5264.4</ele>
        <time>2022-10-26T09:30:32.000Z</time>
      </trkpt>
      <trkpt lat="27.99505" lon="86.84329">
        <ele>5264.6</ele>
        <time>2022-10-26T09:30:35.000Z</time>
      </trkpt>
      <trkpt lat="27.99503" lon="86.843283">
        <ele>5264.4</ele>
        <time>2022-10-26T09:30:38.000Z</time>
      </trkpt>
      <trkpt lat="27.995008" lon="86.843277">
        <ele>5264.4</ele>
        <time>2022-10-26T09:30:41.000Z</time>
      </trkpt>
      <trkpt lat="27.994989" lon="86.843264">
        <ele>5265</ele>
        <time>2022-10-26T09:30:44.000Z</time>
      </trkpt>
      <trkpt lat="27.994973" lon="86.843251">
        <ele>5264.6</ele>
        <time>2022-10-26T09:30:46.000Z</time>
      </trkpt>
      <trkpt lat="27.99495" lon="86.843245">
        <ele>5264.6</ele>
        <time>2022-10-26T09:30:49.000Z</time>
      </trkpt>
      <trkpt lat="27.994934" lon="86.843232">
        <ele>5264.4</ele>
        <time>2022-10-26T09:30:52.000Z</time>
      </trkpt>
      <trkpt lat="27.994912" lon="86.843226">
        <ele>5264.4</ele>
        <time>2022-10-26T09:30:55.000Z</time>
      </trkpt>
      <trkpt lat="27.994886" lon="86.843232">
        <ele>5263.8</ele>
        <time>2022-10-26T09:30:58.000Z</time>
      </trkpt>
      <trkpt lat="27.99487" lon="86.843213">
        <ele>5263.8</ele>
        <time>2022-10-26T09:31:00.000Z</time>
      </trkpt>
      <trkpt lat="27.994854" lon="86.8432">
        <ele>5263.2</ele>
        <time>2022-10-26T09:31:03.000Z</time>
      </trkpt>
      <trkpt lat="27.994829" lon="86.843187">
        <ele>5263</ele>
        <time>2022-10-26T09:31:06.000Z</time>
      </trkpt>
      <trkpt lat="27.994806" lon="86.843181">
        <ele>5263.2</ele>
        <time>2022-10-26T09:31:09.000Z</time>
      </trkpt>
      <trkpt lat="27.994784" lon="86.843181">
        <ele>5263.6</ele>
        <time>2022-10-26T09:31:12.000Z</time>
      </trkpt>
      <trkpt lat="27.994765" lon="86.843181">
        <ele>5263.6</ele>
        <time>2022-10-26T09:31:14.000Z</time>
      </trkpt>
      <trkpt lat="27.994746" lon="86.843162">
        <ele>5263.6</ele>
        <time>2022-10-26T09:31:17.000Z</time>
      </trkpt>
      <trkpt lat="27.994733" lon="86.843142">
        <ele>5263</ele>
        <time>2022-10-26T09:31:20.000Z</time>
      </trkpt>
      <trkpt lat="27.994714" lon="86.843123">
        <ele>5262.4</ele>
        <time>2022-10-26T09:31:23.000Z</time>
      </trkpt>
      <trkpt lat="27.994691" lon="86.84311">
        <ele>5262.2</ele>
        <time>2022-10-26T09:31:26.000Z</time>
      </trkpt>
      <trkpt lat="27.994666" lon="86.843104">
        <ele>5261.8</ele>
        <time>2022-10-26T09:31:29.000Z</time>
      </trkpt>
      <trkpt lat="27.994643" lon="86.843091">
        <ele>5261.8</ele>
        <time>2022-10-26T09:31:32.000Z</time>
      </trkpt>
      <trkpt lat="27.994627" lon="86.843072">
        <ele>5261.6</ele>
        <time>2022-10-26T09:31:35.000Z</time>
      </trkpt>
      <trkpt lat="27.994611" lon="86.843053">
        <ele>5260.6</ele>
        <time>2022-10-26T09:31:38.000Z</time>
      </trkpt>
      <trkpt lat="27.994592" lon="86.843046">
        <ele>5260.6</ele>
        <time>2022-10-26T09:31:41.000Z</time>
      </trkpt>
      <trkpt lat="27.994566" lon="86.843034">
        <ele>5260.4</ele>
        <time>2022-10-26T09:31:44.000Z</time>
      </trkpt>
      <trkpt lat="27.994547" lon="86.843014">
        <ele>5259.8</ele>
        <time>2022-10-26T09:31:47.000Z</time>
      </trkpt>
      <trkpt lat="27.994528" lon="86.843008">
        <ele>5259.8</ele>
        <time>2022-10-26T09:31:50.000Z</time>
      </trkpt>
      <trkpt lat="27.994509" lon="86.843002">
        <ele>5260.4</ele>
        <time>2022-10-26T09:31:53.000Z</time>
      </trkpt>
      <trkpt lat="27.99449" lon="86.842989">
        <ele>5259.6</ele>
        <time>2022-10-26T09:31:56.000Z</time>
      </trkpt>
      <trkpt lat="27.994483" lon="86.84297">
        <ele>5259</ele>
        <time>2022-10-26T09:31:58.000Z</time>
      </trkpt>
      <trkpt lat="27.994458" lon="86.842963">
        <ele>5258.6</ele>
        <time>2022-10-26T09:32:01.000Z</time>
      </trkpt>
      <trkpt lat="27.994438" lon="86.842957">
        <ele>5258.6</ele>
        <time>2022-10-26T09:32:04.000Z</time>
      </trkpt>
      <trkpt lat="27.994426" lon="86.842931">
        <ele>5258.2</ele>
        <time>2022-10-26T09:32:08.000Z</time>
      </trkpt>
      <trkpt lat="27.994406" lon="86.842925">
        <ele>5257.2</ele>
        <time>2022-10-26T09:32:11.000Z</time>
      </trkpt>
      <trkpt lat="27.994384" lon="86.842918">
        <ele>5257.2</ele>
        <time>2022-10-26T09:32:14.000Z</time>
      </trkpt>
      <trkpt lat="27.994365" lon="86.842912">
        <ele>5257</ele>
        <time>2022-10-26T09:32:18.000Z</time>
      </trkpt>
      <trkpt lat="27.994342" lon="86.842893">
        <ele>5256.4</ele>
        <time>2022-10-26T09:32:20.000Z</time>
      </trkpt>
      <trkpt lat="27.994317" lon="86.84288">
        <ele>5256.4</ele>
        <time>2022-10-26T09:32:23.000Z</time>
      </trkpt>
      <trkpt lat="27.994294" lon="86.842867">
        <ele>5256.6</ele>
        <time>2022-10-26T09:32:26.000Z</time>
      </trkpt>
      <trkpt lat="27.994275" lon="86.842854">
        <ele>5256.6</ele>
        <time>2022-10-26T09:32:29.000Z</time>
      </trkpt>
      <trkpt lat="27.994256" lon="86.842848">
        <ele>5257</ele>
        <time>2022-10-26T09:32:32.000Z</time>
      </trkpt>
      <trkpt lat="27.994234" lon="86.842842">
        <ele>5257.2</ele>
        <time>2022-10-26T09:32:35.000Z</time>
      </trkpt>
      <trkpt lat="27.994214" lon="86.842829">
        <ele>5257.8</ele>
        <time>2022-10-26T09:32:38.000Z</time>
      </trkpt>
      <trkpt lat="27.994195" lon="86.84281">
        <ele>5257.8</ele>
        <time>2022-10-26T09:32:41.000Z</time>
      </trkpt>
      <trkpt lat="27.994173" lon="86.842803">
        <ele>5257.8</ele>
        <time>2022-10-26T09:32:44.000Z</time>
      </trkpt>
      <trkpt lat="27.994157" lon="86.84279">
        <ele>5258.4</ele>
        <time>2022-10-26T09:32:47.000Z</time>
      </trkpt>
      <trkpt lat="27.994138" lon="86.842784">
        <ele>5258.6</ele>
        <time>2022-10-26T09:32:50.000Z</time>
      </trkpt>
      <trkpt lat="27.994122" lon="86.842771">
        <ele>5258.6</ele>
        <time>2022-10-26T09:32:53.000Z</time>
      </trkpt>
      <trkpt lat="27.994099" lon="86.842765">
        <ele>5258.8</ele>
        <time>2022-10-26T09:32:57.000Z</time>
      </trkpt>
      <trkpt lat="27.99408" lon="86.842752">
        <ele>5258.2</ele>
        <time>2022-10-26T09:33:00.000Z</time>
      </trkpt>
      <trkpt lat="27.994058" lon="86.842746">
        <ele>5257.6</ele>
        <time>2022-10-26T09:33:03.000Z</time>
      </trkpt>
      <trkpt lat="27.994038" lon="86.842733">
        <ele>5257.4</ele>
        <time>2022-10-26T09:33:05.000Z</time>
      </trkpt>
      <trkpt lat="27.994016" lon="86.842733">
        <ele>5257.4</ele>
        <time>2022-10-26T09:33:09.000Z</time>
      </trkpt>
      <trkpt lat="27.993997" lon="86.842726">
        <ele>5256.8</ele>
        <time>2022-10-26T09:33:12.000Z</time>
      </trkpt>
      <trkpt lat="27.993974" lon="86.84272">
        <ele>5256.8</ele>
        <time>2022-10-26T09:33:16.000Z</time>
      </trkpt>
      <trkpt lat="27.993955" lon="86.842714">
        <ele>5256.4</ele>
        <time>2022-10-26T09:33:22.000Z</time>
      </trkpt>
      <trkpt lat="27.993936" lon="86.842726">
        <ele>5256.4</ele>
        <time>2022-10-26T09:33:26.000Z</time>
      </trkpt>
      <trkpt lat="27.99392" lon="86.842714">
        <ele>5256.6</ele>
        <time>2022-10-26T09:33:31.000Z</time>
      </trkpt>
      <trkpt lat="27.993907" lon="86.842694">
        <ele>5256.6</ele>
        <time>2022-10-26T09:33:35.000Z</time>
      </trkpt>
      <trkpt lat="27.993888" lon="86.842694">
        <ele>5256</ele>
        <time>2022-10-26T09:33:41.000Z</time>
      </trkpt>
      <trkpt lat="27.993866" lon="86.842682">
        <ele>5256.4</ele>
        <time>2022-10-26T09:33:45.000Z</time>
      </trkpt>
      <trkpt lat="27.993843" lon="86.842682">
        <ele>5256.6</ele>
        <time>2022-10-26T09:33:49.000Z</time>
      </trkpt>
      <trkpt lat="27.993824" lon="86.842694">
        <ele>5257.2</ele>
        <time>2022-10-26T09:33:53.000Z</time>
      </trkpt>
      <trkpt lat="27.993802" lon="86.842694">
        <ele>5256.8</ele>
        <time>2022-10-26T09:33:56.000Z</time>
      </trkpt>
      <trkpt lat="27.993782" lon="86.842688">
        <ele>5256.8</ele>
        <time>2022-10-26T09:34:02.000Z</time>
      </trkpt>
      <trkpt lat="27.993757" lon="86.842669">
        <ele>5257.4</ele>
        <time>2022-10-26T09:34:25.000Z</time>
      </trkpt>
      <trkpt lat="27.993741" lon="86.842656">
        <ele>5257.4</ele>
        <time>2022-10-26T09:34:26.000Z</time>
      </trkpt>
      <trkpt lat="27.993712" lon="86.84265">
        <ele>5257.4</ele>
        <time>2022-10-26T09:34:28.000Z</time>
      </trkpt>
      <trkpt lat="27.99369" lon="86.842643">
        <ele>5258</ele>
        <time>2022-10-26T09:34:30.000Z</time>
      </trkpt>
      <trkpt lat="27.993667" lon="86.84263">
        <ele>5258</ele>
        <time>2022-10-26T09:34:32.000Z</time>
      </trkpt>
      <trkpt lat="27.993651" lon="86.842611">
        <ele>5258.2</ele>
        <time>2022-10-26T09:34:34.000Z</time>
      </trkpt>
      <trkpt lat="27.993635" lon="86.842598">
        <ele>5258.2</ele>
        <time>2022-10-26T09:34:37.000Z</time>
      </trkpt>
      <trkpt lat="27.993626" lon="86.842573">
        <ele>5258.2</ele>
        <time>2022-10-26T09:34:40.000Z</time>
      </trkpt>
      <trkpt lat="27.993603" lon="86.84256">
        <ele>5257.4</ele>
        <time>2022-10-26T09:34:43.000Z</time>
      </trkpt>
      <trkpt lat="27.993581" lon="86.84256">
        <ele>5258</ele>
        <time>2022-10-26T09:34:46.000Z</time>
      </trkpt>
      <trkpt lat="27.993562" lon="86.842554">
        <ele>5257.8</ele>
        <time>2022-10-26T09:34:49.000Z</time>
      </trkpt>
      <trkpt lat="27.993539" lon="86.842554">
        <ele>5258</ele>
        <time>2022-10-26T09:34:52.000Z</time>
      </trkpt>
      <trkpt lat="27.993517" lon="86.842547">
        <ele>5258</ele>
        <time>2022-10-26T09:34:56.000Z</time>
      </trkpt>
      <trkpt lat="27.993504" lon="86.842528">
        <ele>5258</ele>
        <time>2022-10-26T09:34:59.000Z</time>
      </trkpt>
      <trkpt lat="27.993485" lon="86.842528">
        <ele>5257.8</ele>
        <time>2022-10-26T09:35:03.000Z</time>
      </trkpt>
      <trkpt lat="27.993456" lon="86.842534">
        <ele>5257.8</ele>
        <time>2022-10-26T09:35:07.000Z</time>
      </trkpt>
      <trkpt lat="27.993434" lon="86.842528">
        <ele>5258</ele>
        <time>2022-10-26T09:35:11.000Z</time>
      </trkpt>
      <trkpt lat="27.993398" lon="86.842515">
        <ele>5259.6</ele>
        <time>2022-10-26T09:39:23.000Z</time>
      </trkpt>
      <trkpt lat="27.993376" lon="86.842496">
        <ele>5259.8</ele>
        <time>2022-10-26T09:39:25.000Z</time>
      </trkpt>
      <trkpt lat="27.993344" lon="86.84249">
        <ele>5259</ele>
        <time>2022-10-26T09:39:27.000Z</time>
      </trkpt>
      <trkpt lat="27.993312" lon="86.84249">
        <ele>5259.2</ele>
        <time>2022-10-26T09:39:29.000Z</time>
      </trkpt>
      <trkpt lat="27.993283" lon="86.842483">
        <ele>5259.2</ele>
        <time>2022-10-26T09:39:31.000Z</time>
      </trkpt>
      <trkpt lat="27.993267" lon="86.84247">
        <ele>5259.2</ele>
        <time>2022-10-26T09:39:33.000Z</time>
      </trkpt>
      <trkpt lat="27.993251" lon="86.842451">
        <ele>5258.4</ele>
        <time>2022-10-26T09:39:36.000Z</time>
      </trkpt>
      <trkpt lat="27.993232" lon="86.842438">
        <ele>5258.6</ele>
        <time>2022-10-26T09:39:40.000Z</time>
      </trkpt>
      <trkpt lat="27.993216" lon="86.842426">
        <ele>5257.8</ele>
        <time>2022-10-26T09:39:43.000Z</time>
      </trkpt>
      <trkpt lat="27.993206" lon="86.8424">
        <ele>5257.6</ele>
        <time>2022-10-26T09:39:46.000Z</time>
      </trkpt>
      <trkpt lat="27.993184" lon="86.8424">
        <ele>5256.6</ele>
        <time>2022-10-26T09:39:49.000Z</time>
      </trkpt>
      <trkpt lat="27.993165" lon="86.842387">
        <ele>5256.6</ele>
        <time>2022-10-26T09:39:52.000Z</time>
      </trkpt>
      <trkpt lat="27.993142" lon="86.842368">
        <ele>5256.6</ele>
        <time>2022-10-26T09:39:56.000Z</time>
      </trkpt>
      <trkpt lat="27.993126" lon="86.842355">
        <ele>5256.6</ele>
        <time>2022-10-26T09:39:59.000Z</time>
      </trkpt>
      <trkpt lat="27.993114" lon="86.842336">
        <ele>5256.4</ele>
        <time>2022-10-26T09:40:01.000Z</time>
      </trkpt>
      <trkpt lat="27.993107" lon="86.84231">
        <ele>5255.8</ele>
        <time>2022-10-26T09:40:04.000Z</time>
      </trkpt>
      <trkpt lat="27.993101" lon="86.842285">
        <ele>5255.8</ele>
        <time>2022-10-26T09:40:07.000Z</time>
      </trkpt>
      <trkpt lat="27.993085" lon="86.842259">
        <ele>5255.8</ele>
        <time>2022-10-26T09:40:11.000Z</time>
      </trkpt>
      <trkpt lat="27.993066" lon="86.842259">
        <ele>5255.8</ele>
        <time>2022-10-26T09:40:15.000Z</time>
      </trkpt>
      <trkpt lat="27.993046" lon="86.842259">
        <ele>5255.8</ele>
        <time>2022-10-26T09:40:18.000Z</time>
      </trkpt>
      <trkpt lat="27.993027" lon="86.842253">
        <ele>5255.6</ele>
        <time>2022-10-26T09:40:21.000Z</time>
      </trkpt>
      <trkpt lat="27.993005" lon="86.842253">
        <ele>5256.6</ele>
        <time>2022-10-26T09:40:26.000Z</time>
      </trkpt>
      <trkpt lat="27.992986" lon="86.842253">
        <ele>5256.6</ele>
        <time>2022-10-26T09:40:29.000Z</time>
      </trkpt>
      <trkpt lat="27.992966" lon="86.842246">
        <ele>5256</ele>
        <time>2022-10-26T09:40:32.000Z</time>
      </trkpt>
      <trkpt lat="27.992944" lon="86.842246">
        <ele>5256.4</ele>
        <time>2022-10-26T09:40:35.000Z</time>
      </trkpt>
      <trkpt lat="27.992925" lon="86.842234">
        <ele>5256.4</ele>
        <time>2022-10-26T09:40:38.000Z</time>
      </trkpt>
      <trkpt lat="27.992906" lon="86.842227">
        <ele>5256</ele>
        <time>2022-10-26T09:40:41.000Z</time>
      </trkpt>
      <trkpt lat="27.992886" lon="86.842214">
        <ele>5256.6</ele>
        <time>2022-10-26T09:40:44.000Z</time>
      </trkpt>
      <trkpt lat="27.992864" lon="86.842208">
        <ele>5257.8</ele>
        <time>2022-10-26T09:40:48.000Z</time>
      </trkpt>
      <trkpt lat="27.992845" lon="86.842208">
        <ele>5257.2</ele>
        <time>2022-10-26T09:40:51.000Z</time>
      </trkpt>
      <trkpt lat="27.992826" lon="86.842208">
        <ele>5257.4</ele>
        <time>2022-10-26T09:40:54.000Z</time>
      </trkpt>
      <trkpt lat="27.992803" lon="86.842208">
        <ele>5257.2</ele>
        <time>2022-10-26T09:40:57.000Z</time>
      </trkpt>
      <trkpt lat="27.992781" lon="86.842208">
        <ele>5257.2</ele>
        <time>2022-10-26T09:41:00.000Z</time>
      </trkpt>
      <trkpt lat="27.992758" lon="86.842208">
        <ele>5256.6</ele>
        <time>2022-10-26T09:41:03.000Z</time>
      </trkpt>
      <trkpt lat="27.992739" lon="86.842202">
        <ele>5257.4</ele>
        <time>2022-10-26T09:41:06.000Z</time>
      </trkpt>
      <trkpt lat="27.99272" lon="86.842195">
        <ele>5256.8</ele>
        <time>2022-10-26T09:41:09.000Z</time>
      </trkpt>
      <trkpt lat="27.992701" lon="86.842189">
        <ele>5257.2</ele>
        <time>2022-10-26T09:41:13.000Z</time>
      </trkpt>
      <trkpt lat="27.992685" lon="86.842176">
        <ele>5257.4</ele>
        <time>2022-10-26T09:41:16.000Z</time>
      </trkpt>
      <trkpt lat="27.992662" lon="86.84217">
        <ele>5257</ele>
        <time>2022-10-26T09:41:19.000Z</time>
      </trkpt>
      <trkpt lat="27.992643" lon="86.84217">
        <ele>5257.6</ele>
        <time>2022-10-26T09:41:22.000Z</time>
      </trkpt>
      <trkpt lat="27.992627" lon="86.842157">
        <ele>5257</ele>
        <time>2022-10-26T09:41:25.000Z</time>
      </trkpt>
      <trkpt lat="27.992608" lon="86.84215">
        <ele>5258.2</ele>
        <time>2022-10-26T09:41:29.000Z</time>
      </trkpt>
      <trkpt lat="27.992589" lon="86.842138">
        <ele>5257.6</ele>
        <time>2022-10-26T09:41:32.000Z</time>
      </trkpt>
      <trkpt lat="27.99257" lon="86.842131">
        <ele>5257.6</ele>
        <time>2022-10-26T09:41:35.000Z</time>
      </trkpt>
      <trkpt lat="27.99255" lon="86.842131">
        <ele>5257.4</ele>
        <time>2022-10-26T09:41:38.000Z</time>
      </trkpt>
      <trkpt lat="27.992531" lon="86.842112">
        <ele>5257.4</ele>
        <time>2022-10-26T09:41:43.000Z</time>
      </trkpt>
      <trkpt lat="27.992512" lon="86.842112">
        <ele>5256.4</ele>
        <time>2022-10-26T09:41:46.000Z</time>
      </trkpt>
      <trkpt lat="27.992493" lon="86.842112">
        <ele>5256.8</ele>
        <time>2022-10-26T09:41:50.000Z</time>
      </trkpt>
      <trkpt lat="27.992477" lon="86.842099">
        <ele>5256.4</ele>
        <time>2022-10-26T09:41:53.000Z</time>
      </trkpt>
      <trkpt lat="27.992461" lon="86.842086">
        <ele>5256.4</ele>
        <time>2022-10-26T09:41:56.000Z</time>
      </trkpt>
      <trkpt lat="27.992451" lon="86.842061">
        <ele>5255.8</ele>
        <time>2022-10-26T09:42:00.000Z</time>
      </trkpt>
      <trkpt lat="27.992435" lon="86.842042">
        <ele>5257.6</ele>
        <time>2022-10-26T09:42:08.000Z</time>
      </trkpt>
      <trkpt lat="27.992416" lon="86.842035">
        <ele>5257.6</ele>
        <time>2022-10-26T09:42:12.000Z</time>
      </trkpt>
      <trkpt lat="27.992387" lon="86.842035">
        <ele>5256.8</ele>
        <time>2022-10-26T09:43:17.000Z</time>
      </trkpt>
      <trkpt lat="27.992378" lon="86.842016">
        <ele>5257</ele>
        <time>2022-10-26T09:43:18.000Z</time>
      </trkpt>
      <trkpt lat="27.992358" lon="86.84201">
        <ele>5257.4</ele>
        <time>2022-10-26T09:43:20.000Z</time>
      </trkpt>
      <trkpt lat="27.992333" lon="86.842003">
        <ele>5257.4</ele>
        <time>2022-10-26T09:43:22.000Z</time>
      </trkpt>
      <trkpt lat="27.992317" lon="86.84199">
        <ele>5256.8</ele>
        <time>2022-10-26T09:43:24.000Z</time>
      </trkpt>
      <trkpt lat="27.992301" lon="86.841978">
        <ele>5256.2</ele>
        <time>2022-10-26T09:43:28.000Z</time>
      </trkpt>
      <trkpt lat="27.992291" lon="86.841958">
        <ele>5257</ele>
        <time>2022-10-26T09:43:32.000Z</time>
      </trkpt>
      <trkpt lat="27.992285" lon="86.841939">
        <ele>5256.4</ele>
        <time>2022-10-26T09:43:34.000Z</time>
      </trkpt>
      <trkpt lat="27.992259" lon="86.841926">
        <ele>5256.4</ele>
        <time>2022-10-26T09:43:38.000Z</time>
      </trkpt>
      <trkpt lat="27.99224" lon="86.84192">
        <ele>5256.8</ele>
        <time>2022-10-26T09:43:42.000Z</time>
      </trkpt>
      <trkpt lat="27.992227" lon="86.841901">
        <ele>5255.8</ele>
        <time>2022-10-26T09:43:46.000Z</time>
      </trkpt>
      <trkpt lat="27.992211" lon="86.841888">
        <ele>5255</ele>
        <time>2022-10-26T09:43:50.000Z</time>
      </trkpt>
      <trkpt lat="27.992202" lon="86.841862">
        <ele>5254.4</ele>
        <time>2022-10-26T09:43:55.000Z</time>
      </trkpt>
      <trkpt lat="27.992189" lon="86.841843">
        <ele>5253</ele>
        <time>2022-10-26T09:44:00.000Z</time>
      </trkpt>
      <trkpt lat="27.992186" lon="86.841818">
        <ele>5253</ele>
        <time>2022-10-26T09:44:03.000Z</time>
      </trkpt>
      <trkpt lat="27.992176" lon="86.841792">
        <ele>5252.6</ele>
        <time>2022-10-26T09:44:07.000Z</time>
      </trkpt>
      <trkpt lat="27.99217" lon="86.841773">
        <ele>5251.6</ele>
        <time>2022-10-26T09:44:10.000Z</time>
      </trkpt>
      <trkpt lat="27.992157" lon="86.841754">
        <ele>5251.8</ele>
        <time>2022-10-26T09:44:13.000Z</time>
      </trkpt>
      <trkpt lat="27.99215" lon="86.841734">
        <ele>5252.4</ele>
        <time>2022-10-26T09:44:15.000Z</time>
      </trkpt>
      <trkpt lat="27.992131" lon="86.841728">
        <ele>5252.6</ele>
        <time>2022-10-26T09:44:19.000Z</time>
      </trkpt>
      <trkpt lat="27.992112" lon="86.841734">
        <ele>5253</ele>
        <time>2022-10-26T09:44:23.000Z</time>
      </trkpt>
      <trkpt lat="27.992096" lon="86.841754">
        <ele>5251.8</ele>
        <time>2022-10-26T09:44:31.000Z</time>
      </trkpt>
      <trkpt lat="27.992074" lon="86.84176">
        <ele>5251.8</ele>
        <time>2022-10-26T09:44:34.000Z</time>
      </trkpt>
      <trkpt lat="27.992054" lon="86.841766">
        <ele>5251.8</ele>
        <time>2022-10-26T09:44:36.000Z</time>
      </trkpt>
      <trkpt lat="27.992029" lon="86.841773">
        <ele>5251.4</ele>
        <time>2022-10-26T09:44:39.000Z</time>
      </trkpt>
      <trkpt lat="27.99201" lon="86.841779">
        <ele>5252</ele>
        <time>2022-10-26T09:44:42.000Z</time>
      </trkpt>
      <trkpt lat="27.99199" lon="86.841779">
        <ele>5252</ele>
        <time>2022-10-26T09:44:44.000Z</time>
      </trkpt>
      <trkpt lat="27.991968" lon="86.841773">
        <ele>5252.6</ele>
        <time>2022-10-26T09:44:49.000Z</time>
      </trkpt>
      <trkpt lat="27.991949" lon="86.841779">
        <ele>5252.2</ele>
        <time>2022-10-26T09:44:53.000Z</time>
      </trkpt>
      <trkpt lat="27.991933" lon="86.841792">
        <ele>5252.8</ele>
        <time>2022-10-26T09:44:56.000Z</time>
      </trkpt>
      <trkpt lat="27.99191" lon="86.841792">
        <ele>5253.4</ele>
        <time>2022-10-26T09:45:00.000Z</time>
      </trkpt>
      <trkpt lat="27.991891" lon="86.841779">
        <ele>5253.2</ele>
        <time>2022-10-26T09:45:03.000Z</time>
      </trkpt>
      <trkpt lat="27.991872" lon="86.84176">
        <ele>5253</ele>
        <time>2022-10-26T09:45:11.000Z</time>
      </trkpt>
      <trkpt lat="27.991853" lon="86.841766">
        <ele>5252.4</ele>
        <time>2022-10-26T09:45:15.000Z</time>
      </trkpt>
      <trkpt lat="27.99183" lon="86.841766">
        <ele>5252.4</ele>
        <time>2022-10-26T09:45:18.000Z</time>
      </trkpt>
      <trkpt lat="27.991818" lon="86.841741">
        <ele>5251.8</ele>
        <time>2022-10-26T09:45:22.000Z</time>
      </trkpt>
      <trkpt lat="27.991798" lon="86.841734">
        <ele>5252.4</ele>
        <time>2022-10-26T09:45:27.000Z</time>
      </trkpt>
      <trkpt lat="27.991779" lon="86.841754">
        <ele>5251.2</ele>
        <time>2022-10-26T09:45:32.000Z</time>
      </trkpt>
      <trkpt lat="27.991725" lon="86.841728">
        <ele>5247.6</ele>
        <time>2022-10-26T09:46:20.000Z</time>
      </trkpt>
      <trkpt lat="27.991702" lon="86.841728">
        <ele>5247.6</ele>
        <time>2022-10-26T09:46:22.000Z</time>
      </trkpt>
      <trkpt lat="27.99168" lon="86.841728">
        <ele>5247.6</ele>
        <time>2022-10-26T09:46:25.000Z</time>
      </trkpt>
      <trkpt lat="27.991654" lon="86.841728">
        <ele>5247.6</ele>
        <time>2022-10-26T09:46:28.000Z</time>
      </trkpt>
      <trkpt lat="27.991645" lon="86.841702">
        <ele>5246.8</ele>
        <time>2022-10-26T09:46:31.000Z</time>
      </trkpt>
      <trkpt lat="27.991661" lon="86.84169">
        <ele>5246.8</ele>
        <time>2022-10-26T09:46:36.000Z</time>
      </trkpt>
      <trkpt lat="27.991661" lon="86.841664">
        <ele>5247</ele>
        <time>2022-10-26T09:46:40.000Z</time>
      </trkpt>
      <trkpt lat="27.991642" lon="86.841658">
        <ele>5248.4</ele>
        <time>2022-10-26T09:46:46.000Z</time>
      </trkpt>
      <trkpt lat="27.991622" lon="86.841651">
        <ele>5249</ele>
        <time>2022-10-26T09:46:52.000Z</time>
      </trkpt>
      <trkpt lat="27.991574" lon="86.841651">
        <ele>5250.6</ele>
        <time>2022-10-26T09:47:28.000Z</time>
      </trkpt>
      <trkpt lat="27.991552" lon="86.841645">
        <ele>5250.4</ele>
        <time>2022-10-26T09:47:30.000Z</time>
      </trkpt>
      <trkpt lat="27.991526" lon="86.841651">
        <ele>5250.6</ele>
        <time>2022-10-26T09:47:32.000Z</time>
      </trkpt>
      <trkpt lat="27.991507" lon="86.841658">
        <ele>5250</ele>
        <time>2022-10-26T09:47:34.000Z</time>
      </trkpt>
      <trkpt lat="27.991482" lon="86.841658">
        <ele>5250.4</ele>
        <time>2022-10-26T09:47:36.000Z</time>
      </trkpt>
      <trkpt lat="27.991462" lon="86.841658">
        <ele>5250</ele>
        <time>2022-10-26T09:47:39.000Z</time>
      </trkpt>
      <trkpt lat="27.991443" lon="86.841658">
        <ele>5249.8</ele>
        <time>2022-10-26T09:47:42.000Z</time>
      </trkpt>
      <trkpt lat="27.991462" lon="86.841658">
        <ele>5250</ele>
        <time>2022-10-26T09:47:49.000Z</time>
      </trkpt>
      <trkpt lat="27.991485" lon="86.841645">
        <ele>5249.8</ele>
        <time>2022-10-26T09:47:53.000Z</time>
      </trkpt>
      <trkpt lat="27.991501" lon="86.841632">
        <ele>5250.2</ele>
        <time>2022-10-26T09:47:56.000Z</time>
      </trkpt>
      <trkpt lat="27.991517" lon="86.841619">
        <ele>5250</ele>
        <time>2022-10-26T09:47:58.000Z</time>
      </trkpt>
      <trkpt lat="27.991539" lon="86.841606">
        <ele>5250.2</ele>
        <time>2022-10-26T09:48:01.000Z</time>
      </trkpt>
      <trkpt lat="27.991558" lon="86.841606">
        <ele>5250.2</ele>
        <time>2022-10-26T09:48:04.000Z</time>
      </trkpt>
      <trkpt lat="27.991578" lon="86.841613">
        <ele>5250</ele>
        <time>2022-10-26T09:48:07.000Z</time>
      </trkpt>
      <trkpt lat="27.9916" lon="86.841613">
        <ele>5249.2</ele>
        <time>2022-10-26T09:48:11.000Z</time>
      </trkpt>
      <trkpt lat="27.991622" lon="86.841613">
        <ele>5249.6</ele>
        <time>2022-10-26T09:48:15.000Z</time>
      </trkpt>
      <trkpt lat="27.991645" lon="86.841632">
        <ele>5248.6</ele>
        <time>2022-10-26T09:48:19.000Z</time>
      </trkpt>
      <trkpt lat="27.991664" lon="86.841638">
        <ele>5247.6</ele>
        <time>2022-10-26T09:48:22.000Z</time>
      </trkpt>
      <trkpt lat="27.991661" lon="86.841664">
        <ele>5246.2</ele>
        <time>2022-10-26T09:48:26.000Z</time>
      </trkpt>
      <trkpt lat="27.991642" lon="86.841683">
        <ele>5246.8</ele>
        <time>2022-10-26T09:48:29.000Z</time>
      </trkpt>
      <trkpt lat="27.991622" lon="86.84169">
        <ele>5246.4</ele>
        <time>2022-10-26T09:48:32.000Z</time>
      </trkpt>
      <trkpt lat="27.991603" lon="86.841696">
        <ele>5246.4</ele>
        <time>2022-10-26T09:48:34.000Z</time>
      </trkpt>
      <trkpt lat="27.991581" lon="86.84169">
        <ele>5245.4</ele>
        <time>2022-10-26T09:48:37.000Z</time>
      </trkpt>
      <trkpt lat="27.991558" lon="86.841702">
        <ele>5245.4</ele>
        <time>2022-10-26T09:48:39.000Z</time>
      </trkpt>
      <trkpt lat="27.991542" lon="86.841722">
        <ele>5245.6</ele>
        <time>2022-10-26T09:48:42.000Z</time>
      </trkpt>
      <trkpt lat="27.991536" lon="86.841741">
        <ele>5244.4</ele>
        <time>2022-10-26T09:48:46.000Z</time>
      </trkpt>
      <trkpt lat="27.991526" lon="86.84176">
        <ele>5243.8</ele>
        <time>2022-10-26T09:48:50.000Z</time>
      </trkpt>
      <trkpt lat="27.991507" lon="86.841766">
        <ele>5243.6</ele>
        <time>2022-10-26T09:48:55.000Z</time>
      </trkpt>
      <trkpt lat="27.991488" lon="86.84176">
        <ele>5242.4</ele>
        <time>2022-10-26T09:48:59.000Z</time>
      </trkpt>
      <trkpt lat="27.991466" lon="86.84176">
        <ele>5241.2</ele>
        <time>2022-10-26T09:49:06.000Z</time>
      </trkpt>
      <trkpt lat="27.991443" lon="86.841754">
        <ele>5240.4</ele>
        <time>2022-10-26T09:49:10.000Z</time>
      </trkpt>
      <trkpt lat="27.991427" lon="86.841734">
        <ele>5241.2</ele>
        <time>2022-10-26T09:49:13.000Z</time>
      </trkpt>
      <trkpt lat="27.991408" lon="86.841722">
        <ele>5241.4</ele>
        <time>2022-10-26T09:49:17.000Z</time>
      </trkpt>
      <trkpt lat="27.991395" lon="86.841702">
        <ele>5241.2</ele>
        <time>2022-10-26T09:49:21.000Z</time>
      </trkpt>
      <trkpt lat="27.991379" lon="86.84169">
        <ele>5240.8</ele>
        <time>2022-10-26T09:49:31.000Z</time>
      </trkpt>
      <trkpt lat="27.991357" lon="86.841696">
        <ele>5240</ele>
        <time>2022-10-26T09:49:39.000Z</time>
      </trkpt>
      <trkpt lat="27.991344" lon="86.841715">
        <ele>5239.6</ele>
        <time>2022-10-26T09:49:43.000Z</time>
      </trkpt>
      <trkpt lat="27.991325" lon="86.841722">
        <ele>5238.8</ele>
        <time>2022-10-26T09:49:48.000Z</time>
      </trkpt>
      <trkpt lat="27.991302" lon="86.841715">
        <ele>5238</ele>
        <time>2022-10-26T09:49:52.000Z</time>
      </trkpt>
      <trkpt lat="27.99128" lon="86.841715">
        <ele>5237.4</ele>
        <time>2022-10-26T09:49:57.000Z</time>
      </trkpt>
      <trkpt lat="27.991258" lon="86.841715">
        <ele>5236.4</ele>
        <time>2022-10-26T09:50:01.000Z</time>
      </trkpt>
      <trkpt lat="27.991242" lon="86.841702">
        <ele>5235.8</ele>
        <time>2022-10-26T09:50:03.000Z</time>
      </trkpt>
      <trkpt lat="27.991222" lon="86.841702">
        <ele>5235.6</ele>
        <time>2022-10-26T09:50:05.000Z</time>
      </trkpt>
      <trkpt lat="27.991197" lon="86.841696">
        <ele>5235</ele>
        <time>2022-10-26T09:50:08.000Z</time>
      </trkpt>
      <trkpt lat="27.991178" lon="86.841696">
        <ele>5235.6</ele>
        <time>2022-10-26T09:50:12.000Z</time>
      </trkpt>
      <trkpt lat="27.991155" lon="86.841696">
        <ele>5234.8</ele>
        <time>2022-10-26T09:50:16.000Z</time>
      </trkpt>
      <trkpt lat="27.991133" lon="86.841696">
        <ele>5234.2</ele>
        <time>2022-10-26T09:50:19.000Z</time>
      </trkpt>
      <trkpt lat="27.991114" lon="86.841683">
        <ele>5234.2</ele>
        <time>2022-10-26T09:50:22.000Z</time>
      </trkpt>
      <trkpt lat="27.991094" lon="86.841677">
        <ele>5234.8</ele>
        <time>2022-10-26T09:50:25.000Z</time>
      </trkpt>
      <trkpt lat="27.991072" lon="86.841677">
        <ele>5233.6</ele>
        <time>2022-10-26T09:50:28.000Z</time>
      </trkpt>
      <trkpt lat="27.991053" lon="86.841677">
        <ele>5233</ele>
        <time>2022-10-26T09:50:30.000Z</time>
      </trkpt>
      <trkpt lat="27.991037" lon="86.841658">
        <ele>5232.2</ele>
        <time>2022-10-26T09:50:32.000Z</time>
      </trkpt>
      <trkpt lat="27.991014" lon="86.841658">
        <ele>5232.2</ele>
        <time>2022-10-26T09:50:35.000Z</time>
      </trkpt>
      <trkpt lat="27.990995" lon="86.841664">
        <ele>5232.2</ele>
        <time>2022-10-26T09:50:38.000Z</time>
      </trkpt>
      <trkpt lat="27.990973" lon="86.841658">
        <ele>5231.8</ele>
        <time>2022-10-26T09:50:41.000Z</time>
      </trkpt>
      <trkpt lat="27.990947" lon="86.841651">
        <ele>5231.8</ele>
        <time>2022-10-26T09:50:44.000Z</time>
      </trkpt>
      <trkpt lat="27.990925" lon="86.841645">
        <ele>5231</ele>
        <time>2022-10-26T09:50:47.000Z</time>
      </trkpt>
      <trkpt lat="27.990899" lon="86.841651">
        <ele>5231.8</ele>
        <time>2022-10-26T09:50:50.000Z</time>
      </trkpt>
      <trkpt lat="27.99088" lon="86.841645">
        <ele>5231</ele>
        <time>2022-10-26T09:50:53.000Z</time>
      </trkpt>
      <trkpt lat="27.990861" lon="86.841632">
        <ele>5231</ele>
        <time>2022-10-26T09:50:57.000Z</time>
      </trkpt>
      <trkpt lat="27.990842" lon="86.841645">
        <ele>5231</ele>
        <time>2022-10-26T09:51:06.000Z</time>
      </trkpt>
      <trkpt lat="27.990822" lon="86.841638">
        <ele>5229.8</ele>
        <time>2022-10-26T09:52:16.000Z</time>
      </trkpt>
      <trkpt lat="27.9908" lon="86.841638">
        <ele>5229</ele>
        <time>2022-10-26T09:52:18.000Z</time>
      </trkpt>
      <trkpt lat="27.990771" lon="86.841651">
        <ele>5229</ele>
        <time>2022-10-26T09:52:20.000Z</time>
      </trkpt>
      <trkpt lat="27.990736" lon="86.841651">
        <ele>5229</ele>
        <time>2022-10-26T09:52:22.000Z</time>
      </trkpt>
      <trkpt lat="27.990704" lon="86.841651">
        <ele>5228.2</ele>
        <time>2022-10-26T09:52:24.000Z</time>
      </trkpt>
      <trkpt lat="27.990678" lon="86.841651">
        <ele>5227.8</ele>
        <time>2022-10-26T09:52:26.000Z</time>
      </trkpt>
      <trkpt lat="27.990662" lon="86.841638">
        <ele>5227.6</ele>
        <time>2022-10-26T09:52:29.000Z</time>
      </trkpt>
      <trkpt lat="27.990646" lon="86.841619">
        <ele>5227</ele>
        <time>2022-10-26T09:52:32.000Z</time>
      </trkpt>
      <trkpt lat="27.990624" lon="86.841606">
        <ele>5226.4</ele>
        <time>2022-10-26T09:52:36.000Z</time>
      </trkpt>
      <trkpt lat="27.990602" lon="86.841581">
        <ele>5225.8</ele>
        <time>2022-10-26T09:52:40.000Z</time>
      </trkpt>
      <trkpt lat="27.990579" lon="86.841581">
        <ele>5225.6</ele>
        <time>2022-10-26T09:52:43.000Z</time>
      </trkpt>
      <trkpt lat="27.990554" lon="86.841581">
        <ele>5225.2</ele>
        <time>2022-10-26T09:52:46.000Z</time>
      </trkpt>
      <trkpt lat="27.990534" lon="86.841574">
        <ele>5224.4</ele>
        <time>2022-10-26T09:52:50.000Z</time>
      </trkpt>
      <trkpt lat="27.990512" lon="86.841574">
        <ele>5223.8</ele>
        <time>2022-10-26T09:52:54.000Z</time>
      </trkpt>
      <trkpt lat="27.99049" lon="86.841574">
        <ele>5223.8</ele>
        <time>2022-10-26T09:52:57.000Z</time>
      </trkpt>
      <trkpt lat="27.99047" lon="86.841574">
        <ele>5222.8</ele>
        <time>2022-10-26T09:53:00.000Z</time>
      </trkpt>
      <trkpt lat="27.990448" lon="86.841568">
        <ele>5222.8</ele>
        <time>2022-10-26T09:53:03.000Z</time>
      </trkpt>
      <trkpt lat="27.990429" lon="86.841562">
        <ele>5222.4</ele>
        <time>2022-10-26T09:53:06.000Z</time>
      </trkpt>
      <trkpt lat="27.99041" lon="86.841555">
        <ele>5221.8</ele>
        <time>2022-10-26T09:53:09.000Z</time>
      </trkpt>
      <trkpt lat="27.99039" lon="86.841542">
        <ele>5221.8</ele>
        <time>2022-10-26T09:53:12.000Z</time>
      </trkpt>
      <trkpt lat="27.990374" lon="86.841555">
        <ele>5221.4</ele>
        <time>2022-10-26T09:53:14.000Z</time>
      </trkpt>
      <trkpt lat="27.990352" lon="86.841555">
        <ele>5221</ele>
        <time>2022-10-26T09:53:16.000Z</time>
      </trkpt>
      <trkpt lat="27.990342" lon="86.841536">
        <ele>5220.8</ele>
        <time>2022-10-26T09:53:18.000Z</time>
      </trkpt>
      <trkpt lat="27.990336" lon="86.841517">
        <ele>5220.4</ele>
        <time>2022-10-26T09:53:20.000Z</time>
      </trkpt>
      <trkpt lat="27.990326" lon="86.841491">
        <ele>5220.4</ele>
        <time>2022-10-26T09:53:23.000Z</time>
      </trkpt>
      <trkpt lat="27.990307" lon="86.841472">
        <ele>5221</ele>
        <time>2022-10-26T09:53:28.000Z</time>
      </trkpt>
      <trkpt lat="27.990294" lon="86.841453">
        <ele>5220.8</ele>
        <time>2022-10-26T09:53:30.000Z</time>
      </trkpt>
      <trkpt lat="27.990285" lon="86.841434">
        <ele>5221</ele>
        <time>2022-10-26T09:53:34.000Z</time>
      </trkpt>
      <trkpt lat="27.990269" lon="86.841421">
        <ele>5220.8</ele>
        <time>2022-10-26T09:53:37.000Z</time>
      </trkpt>
      <trkpt lat="27.990243" lon="86.841414">
        <ele>5221.4</ele>
        <time>2022-10-26T09:53:40.000Z</time>
      </trkpt>
      <trkpt lat="27.99023" lon="86.841395">
        <ele>5220.4</ele>
        <time>2022-10-26T09:53:42.000Z</time>
      </trkpt>
      <trkpt lat="27.990221" lon="86.841376">
        <ele>5220.4</ele>
        <time>2022-10-26T09:53:44.000Z</time>
      </trkpt>
      <trkpt lat="27.990208" lon="86.841357">
        <ele>5219.8</ele>
        <time>2022-10-26T09:53:47.000Z</time>
      </trkpt>
      <trkpt lat="27.990192" lon="86.841338">
        <ele>5220.4</ele>
        <time>2022-10-26T09:53:52.000Z</time>
      </trkpt>
      <trkpt lat="27.990173" lon="86.841325">
        <ele>5220.8</ele>
        <time>2022-10-26T09:53:57.000Z</time>
      </trkpt>
      <trkpt lat="27.990154" lon="86.841306">
        <ele>5221</ele>
        <time>2022-10-26T09:54:02.000Z</time>
      </trkpt>
      <trkpt lat="27.990131" lon="86.841293">
        <ele>5220.2</ele>
        <time>2022-10-26T09:54:06.000Z</time>
      </trkpt>
      <trkpt lat="27.990109" lon="86.841299">
        <ele>5220.4</ele>
        <time>2022-10-26T09:54:10.000Z</time>
      </trkpt>
      <trkpt lat="27.990093" lon="86.841318">
        <ele>5219.8</ele>
        <time>2022-10-26T09:54:14.000Z</time>
      </trkpt>
      <trkpt lat="27.990074" lon="86.841318">
        <ele>5219.8</ele>
        <time>2022-10-26T09:54:20.000Z</time>
      </trkpt>
      <trkpt lat="27.990054" lon="86.841325">
        <ele>5220.2</ele>
        <time>2022-10-26T09:54:23.000Z</time>
      </trkpt>
      <trkpt lat="27.990035" lon="86.841318">
        <ele>5219.6</ele>
        <time>2022-10-26T09:54:26.000Z</time>
      </trkpt>
      <trkpt lat="27.990013" lon="86.841318">
        <ele>5218.8</ele>
        <time>2022-10-26T09:54:30.000Z</time>
      </trkpt>
      <trkpt lat="27.989987" lon="86.841318">
        <ele>5218.8</ele>
        <time>2022-10-26T09:54:33.000Z</time>
      </trkpt>
      <trkpt lat="27.989971" lon="86.841306">
        <ele>5218.2</ele>
        <time>2022-10-26T09:54:35.000Z</time>
      </trkpt>
      <trkpt lat="27.989946" lon="86.841293">
        <ele>5217.8</ele>
        <time>2022-10-26T09:54:39.000Z</time>
      </trkpt>
      <trkpt lat="27.989926" lon="86.841293">
        <ele>5218.4</ele>
        <time>2022-10-26T09:54:43.000Z</time>
      </trkpt>
      <trkpt lat="27.989907" lon="86.841293">
        <ele>5218.4</ele>
        <time>2022-10-26T09:54:46.000Z</time>
      </trkpt>
      <trkpt lat="27.989891" lon="86.841274">
        <ele>5218.4</ele>
        <time>2022-10-26T09:54:51.000Z</time>
      </trkpt>
      <trkpt lat="27.989885" lon="86.841254">
        <ele>5219</ele>
        <time>2022-10-26T09:54:54.000Z</time>
      </trkpt>
      <trkpt lat="27.989866" lon="86.841248">
        <ele>5219.2</ele>
        <time>2022-10-26T09:54:57.000Z</time>
      </trkpt>
      <trkpt lat="27.989837" lon="86.841216">
        <ele>5219.8</ele>
        <time>2022-10-26T09:55:03.000Z</time>
      </trkpt>
      <trkpt lat="27.989821" lon="86.841203">
        <ele>5220</ele>
        <time>2022-10-26T09:55:07.000Z</time>
      </trkpt>
      <trkpt lat="27.989798" lon="86.841197">
        <ele>5220.4</ele>
        <time>2022-10-26T09:55:11.000Z</time>
      </trkpt>
      <trkpt lat="27.989782" lon="86.841178">
        <ele>5220.6</ele>
        <time>2022-10-26T09:55:14.000Z</time>
      </trkpt>
      <trkpt lat="27.989757" lon="86.841171">
        <ele>5220.4</ele>
        <time>2022-10-26T09:55:18.000Z</time>
      </trkpt>
      <trkpt lat="27.989731" lon="86.841165">
        <ele>5220.6</ele>
        <time>2022-10-26T09:55:22.000Z</time>
      </trkpt>
      <trkpt lat="27.989718" lon="86.841146">
        <ele>5220.8</ele>
        <time>2022-10-26T09:55:25.000Z</time>
      </trkpt>
      <trkpt lat="27.989712" lon="86.841126">
        <ele>5221.2</ele>
        <time>2022-10-26T09:55:28.000Z</time>
      </trkpt>
      <trkpt lat="27.989696" lon="86.841107">
        <ele>5220.6</ele>
        <time>2022-10-26T09:55:31.000Z</time>
      </trkpt>
      <trkpt lat="27.989677" lon="86.841094">
        <ele>5220.8</ele>
        <time>2022-10-26T09:55:34.000Z</time>
      </trkpt>
      <trkpt lat="27.989661" lon="86.841082">
        <ele>5220.6</ele>
        <time>2022-10-26T09:55:37.000Z</time>
      </trkpt>
      <trkpt lat="27.989626" lon="86.841056">
        <ele>5220.2</ele>
        <time>2022-10-26T09:55:45.000Z</time>
      </trkpt>
      <trkpt lat="27.98961" lon="86.841043">
        <ele>5220.2</ele>
        <time>2022-10-26T09:55:48.000Z</time>
      </trkpt>
      <trkpt lat="27.9896" lon="86.841024">
        <ele>5220</ele>
        <time>2022-10-26T09:55:51.000Z</time>
      </trkpt>
      <trkpt lat="27.9896" lon="86.840998">
        <ele>5221.8</ele>
        <time>2022-10-26T09:55:58.000Z</time>
      </trkpt>
      <trkpt lat="27.989584" lon="86.840986">
        <ele>5221.2</ele>
        <time>2022-10-26T09:56:01.000Z</time>
      </trkpt>
      <trkpt lat="27.989562" lon="86.840973">
        <ele>5221.2</ele>
        <time>2022-10-26T09:56:04.000Z</time>
      </trkpt>
      <trkpt lat="27.989542" lon="86.84096">
        <ele>5220</ele>
        <time>2022-10-26T09:56:08.000Z</time>
      </trkpt>
      <trkpt lat="27.989526" lon="86.840947">
        <ele>5220.6</ele>
        <time>2022-10-26T09:56:11.000Z</time>
      </trkpt>
      <trkpt lat="27.98951" lon="86.840934">
        <ele>5219.8</ele>
        <time>2022-10-26T09:56:16.000Z</time>
      </trkpt>
      <trkpt lat="27.989491" lon="86.840928">
        <ele>5219.4</ele>
        <time>2022-10-26T09:56:19.000Z</time>
      </trkpt>
      <trkpt lat="27.989485" lon="86.840909">
        <ele>5219.4</ele>
        <time>2022-10-26T09:56:21.000Z</time>
      </trkpt>
      <trkpt lat="27.989472" lon="86.84089">
        <ele>5218.8</ele>
        <time>2022-10-26T09:56:25.000Z</time>
      </trkpt>
      <trkpt lat="27.989459" lon="86.840864">
        <ele>5219.2</ele>
        <time>2022-10-26T09:56:30.000Z</time>
      </trkpt>
      <trkpt lat="27.989453" lon="86.840845">
        <ele>5218.8</ele>
        <time>2022-10-26T09:56:33.000Z</time>
      </trkpt>
      <trkpt lat="27.98945" lon="86.840819">
        <ele>5218.6</ele>
        <time>2022-10-26T09:56:36.000Z</time>
      </trkpt>
      <trkpt lat="27.98943" lon="86.840813">
        <ele>5218.6</ele>
        <time>2022-10-26T09:56:39.000Z</time>
      </trkpt>
      <trkpt lat="27.989411" lon="86.8408">
        <ele>5218.8</ele>
        <time>2022-10-26T09:56:43.000Z</time>
      </trkpt>
      <trkpt lat="27.989392" lon="86.840806">
        <ele>5218</ele>
        <time>2022-10-26T09:56:46.000Z</time>
      </trkpt>
      <trkpt lat="27.989373" lon="86.8408">
        <ele>5217.4</ele>
        <time>2022-10-26T09:56:50.000Z</time>
      </trkpt>
      <trkpt lat="27.989366" lon="86.840781">
        <ele>5217.8</ele>
        <time>2022-10-26T09:56:55.000Z</time>
      </trkpt>
      <trkpt lat="27.989347" lon="86.840774">
        <ele>5216.2</ele>
        <time>2022-10-26T09:57:20.000Z</time>
      </trkpt>
      <trkpt lat="27.989328" lon="86.840749">
        <ele>5216.2</ele>
        <time>2022-10-26T09:57:22.000Z</time>
      </trkpt>
      <trkpt lat="27.989309" lon="86.840736">
        <ele>5216.2</ele>
        <time>2022-10-26T09:57:24.000Z</time>
      </trkpt>
      <trkpt lat="27.989283" lon="86.840723">
        <ele>5216.2</ele>
        <time>2022-10-26T09:57:26.000Z</time>
      </trkpt>
      <trkpt lat="27.989264" lon="86.840698">
        <ele>5216.2</ele>
        <time>2022-10-26T09:57:28.000Z</time>
      </trkpt>
      <trkpt lat="27.989242" lon="86.840691">
        <ele>5217</ele>
        <time>2022-10-26T09:57:31.000Z</time>
      </trkpt>
      <trkpt lat="27.989222" lon="86.840691">
        <ele>5216.2</ele>
        <time>2022-10-26T09:57:35.000Z</time>
      </trkpt>
      <trkpt lat="27.989206" lon="86.840678">
        <ele>5215.8</ele>
        <time>2022-10-26T09:57:44.000Z</time>
      </trkpt>
      <trkpt lat="27.989197" lon="86.840659">
        <ele>5215.8</ele>
        <time>2022-10-26T09:57:46.000Z</time>
      </trkpt>
      <trkpt lat="27.989174" lon="86.840653">
        <ele>5215.8</ele>
        <time>2022-10-26T09:57:49.000Z</time>
      </trkpt>
      <trkpt lat="27.989158" lon="86.84064">
        <ele>5215.8</ele>
        <time>2022-10-26T09:57:52.000Z</time>
      </trkpt>
      <trkpt lat="27.989146" lon="86.840621">
        <ele>5216.4</ele>
        <time>2022-10-26T09:57:56.000Z</time>
      </trkpt>
      <trkpt lat="27.98913" lon="86.840608">
        <ele>5217</ele>
        <time>2022-10-26T09:58:00.000Z</time>
      </trkpt>
      <trkpt lat="27.98911" lon="86.840602">
        <ele>5217.6</ele>
        <time>2022-10-26T09:58:04.000Z</time>
      </trkpt>
      <trkpt lat="27.989104" lon="86.840582">
        <ele>5217.6</ele>
        <time>2022-10-26T09:58:07.000Z</time>
      </trkpt>
      <trkpt lat="27.989091" lon="86.840563">
        <ele>5218.6</ele>
        <time>2022-10-26T09:58:13.000Z</time>
      </trkpt>
      <trkpt lat="27.989085" lon="86.840544">
        <ele>5218.6</ele>
        <time>2022-10-26T09:58:18.000Z</time>
      </trkpt>
      <trkpt lat="27.989069" lon="86.840531">
        <ele>5220.4</ele>
        <time>2022-10-26T09:58:30.000Z</time>
      </trkpt>
      <trkpt lat="27.989053" lon="86.840512">
        <ele>5220.6</ele>
        <time>2022-10-26T09:58:35.000Z</time>
      </trkpt>
      <trkpt lat="27.989034" lon="86.840506">
        <ele>5221.6</ele>
        <time>2022-10-26T09:58:43.000Z</time>
      </trkpt>
      <trkpt lat="27.989014" lon="86.840499">
        <ele>5222.2</ele>
        <time>2022-10-26T09:58:48.000Z</time>
      </trkpt>
      <trkpt lat="27.988998" lon="86.840486">
        <ele>5222.6</ele>
        <time>2022-10-26T09:58:53.000Z</time>
      </trkpt>
      <trkpt lat="27.988998" lon="86.840461">
        <ele>5222.6</ele>
        <time>2022-10-26T09:58:56.000Z</time>
      </trkpt>
      <trkpt lat="27.988992" lon="86.840442">
        <ele>5222.4</ele>
        <time>2022-10-26T09:58:59.000Z</time>
      </trkpt>
      <trkpt lat="27.988986" lon="86.840416">
        <ele>5223</ele>
        <time>2022-10-26T09:59:05.000Z</time>
      </trkpt>
      <trkpt lat="27.988992" lon="86.84039">
        <ele>5222.2</ele>
        <time>2022-10-26T09:59:08.000Z</time>
      </trkpt>
      <trkpt lat="27.988986" lon="86.840371">
        <ele>5222.2</ele>
        <time>2022-10-26T09:59:12.000Z</time>
      </trkpt>
      <trkpt lat="27.988963" lon="86.840371">
        <ele>5220.8</ele>
        <time>2022-10-26T09:59:16.000Z</time>
      </trkpt>
      <trkpt lat="27.988944" lon="86.840365">
        <ele>5221.2</ele>
        <time>2022-10-26T09:59:19.000Z</time>
      </trkpt>
      <trkpt lat="27.988925" lon="86.840365">
        <ele>5221</ele>
        <time>2022-10-26T09:59:26.000Z</time>
      </trkpt>
      <trkpt lat="27.988918" lon="86.840346">
        <ele>5220.8</ele>
        <time>2022-10-26T09:59:31.000Z</time>
      </trkpt>
      <trkpt lat="27.988899" lon="86.840346">
        <ele>5220</ele>
        <time>2022-10-26T09:59:36.000Z</time>
      </trkpt>
      <trkpt lat="27.988877" lon="86.840352">
        <ele>5219.6</ele>
        <time>2022-10-26T09:59:40.000Z</time>
      </trkpt>
      <trkpt lat="27.988858" lon="86.840352">
        <ele>5219</ele>
        <time>2022-10-26T09:59:44.000Z</time>
      </trkpt>
      <trkpt lat="27.988842" lon="86.840365">
        <ele>5218.2</ele>
        <time>2022-10-26T09:59:51.000Z</time>
      </trkpt>
      <trkpt lat="27.988832" lon="86.840346">
        <ele>5217.4</ele>
        <time>2022-10-26T09:59:55.000Z</time>
      </trkpt>
      <trkpt lat="27.988813" lon="86.840339">
        <ele>5216.6</ele>
        <time>2022-10-26T10:00:00.000Z</time>
      </trkpt>
      <trkpt lat="27.988794" lon="86.840352">
        <ele>5216.6</ele>
        <time>2022-10-26T10:00:03.000Z</time>
      </trkpt>
      <trkpt lat="27.988774" lon="86.840365">
        <ele>5215.8</ele>
        <time>2022-10-26T10:00:07.000Z</time>
      </trkpt>
      <trkpt lat="27.988758" lon="86.840346">
        <ele>5214.8</ele>
        <time>2022-10-26T10:00:13.000Z</time>
      </trkpt>
      <trkpt lat="27.988755" lon="86.840314">
        <ele>5213.4</ele>
        <time>2022-10-26T10:00:20.000Z</time>
      </trkpt>
      <trkpt lat="27.988739" lon="86.840301">
        <ele>5212.4</ele>
        <time>2022-10-26T10:00:29.000Z</time>
      </trkpt>
      <trkpt lat="27.988733" lon="86.840282">
        <ele>5211.2</ele>
        <time>2022-10-26T10:00:32.000Z</time>
      </trkpt>
      <trkpt lat="27.988733" lon="86.840256">
        <ele>5210.6</ele>
        <time>2022-10-26T10:00:38.000Z</time>
      </trkpt>
      <trkpt lat="27.988726" lon="86.84023">
        <ele>5210.2</ele>
        <time>2022-10-26T10:00:42.000Z</time>
      </trkpt>
      <trkpt lat="27.988733" lon="86.840211">
        <ele>5209</ele>
        <time>2022-10-26T10:00:45.000Z</time>
      </trkpt>
      <trkpt lat="27.988726" lon="86.840192">
        <ele>5208.4</ele>
        <time>2022-10-26T10:00:48.000Z</time>
      </trkpt>
      <trkpt lat="27.988726" lon="86.840166">
        <ele>5207.6</ele>
        <time>2022-10-26T10:00:54.000Z</time>
      </trkpt>
      <trkpt lat="27.988726" lon="86.840141">
        <ele>5207.6</ele>
        <time>2022-10-26T10:00:58.000Z</time>
      </trkpt>
      <trkpt lat="27.98872" lon="86.840109">
        <ele>5206.8</ele>
        <time>2022-10-26T10:01:08.000Z</time>
      </trkpt>
      <trkpt lat="27.98871" lon="86.84009">
        <ele>5205.6</ele>
        <time>2022-10-26T10:01:13.000Z</time>
      </trkpt>
      <trkpt lat="27.988688" lon="86.84009">
        <ele>5205</ele>
        <time>2022-10-26T10:01:16.000Z</time>
      </trkpt>
      <trkpt lat="27.988669" lon="86.84009">
        <ele>5204.8</ele>
        <time>2022-10-26T10:01:18.000Z</time>
      </trkpt>
      <trkpt lat="27.988646" lon="86.84009">
        <ele>5204.2</ele>
        <time>2022-10-26T10:01:21.000Z</time>
      </trkpt>
      <trkpt lat="27.988627" lon="86.84009">
        <ele>5204.4</ele>
        <time>2022-10-26T10:01:25.000Z</time>
      </trkpt>
      <trkpt lat="27.988608" lon="86.84009">
        <ele>5204.8</ele>
        <time>2022-10-26T10:01:29.000Z</time>
      </trkpt>
      <trkpt lat="27.988589" lon="86.840083">
        <ele>5205.6</ele>
        <time>2022-10-26T10:01:33.000Z</time>
      </trkpt>
      <trkpt lat="27.988566" lon="86.840083">
        <ele>5205.8</ele>
        <time>2022-10-26T10:01:36.000Z</time>
      </trkpt>
      <trkpt lat="27.988547" lon="86.84009">
        <ele>5206.4</ele>
        <time>2022-10-26T10:01:40.000Z</time>
      </trkpt>
      <trkpt lat="27.988528" lon="86.840102">
        <ele>5205.8</ele>
        <time>2022-10-26T10:01:44.000Z</time>
      </trkpt>
      <trkpt lat="27.988506" lon="86.840109">
        <ele>5206.2</ele>
        <time>2022-10-26T10:01:48.000Z</time>
      </trkpt>
      <trkpt lat="27.98849" lon="86.840122">
        <ele>5206.2</ele>
        <time>2022-10-26T10:01:51.000Z</time>
      </trkpt>
      <trkpt lat="27.988474" lon="86.840134">
        <ele>5205.8</ele>
        <time>2022-10-26T10:01:54.000Z</time>
      </trkpt>
      <trkpt lat="27.988458" lon="86.840154">
        <ele>5205.2</ele>
        <time>2022-10-26T10:02:00.000Z</time>
      </trkpt>
      <trkpt lat="27.988438" lon="86.840154">
        <ele>5205.8</ele>
        <time>2022-10-26T10:02:02.000Z</time>
      </trkpt>
      <trkpt lat="27.988422" lon="86.840166">
        <ele>5205.8</ele>
        <time>2022-10-26T10:02:05.000Z</time>
      </trkpt>
      <trkpt lat="27.988403" lon="86.840173">
        <ele>5205</ele>
        <time>2022-10-26T10:02:08.000Z</time>
      </trkpt>
      <trkpt lat="27.988381" lon="86.840179">
        <ele>5205.6</ele>
        <time>2022-10-26T10:02:11.000Z</time>
      </trkpt>
      <trkpt lat="27.988358" lon="86.840166">
        <ele>5204.4</ele>
        <time>2022-10-26T10:02:15.000Z</time>
      </trkpt>
      <trkpt lat="27.988346" lon="86.840147">
        <ele>5205.4</ele>
        <time>2022-10-26T10:02:18.000Z</time>
      </trkpt>
      <trkpt lat="27.98833" lon="86.840134">
        <ele>5205.8</ele>
        <time>2022-10-26T10:02:22.000Z</time>
      </trkpt>
      <trkpt lat="27.988307" lon="86.840141">
        <ele>5205.2</ele>
        <time>2022-10-26T10:02:26.000Z</time>
      </trkpt>
      <trkpt lat="27.988285" lon="86.840141">
        <ele>5205.4</ele>
        <time>2022-10-26T10:02:29.000Z</time>
      </trkpt>
      <trkpt lat="27.988266" lon="86.840134">
        <ele>5204.6</ele>
        <time>2022-10-26T10:02:33.000Z</time>
      </trkpt>
      <trkpt lat="27.988243" lon="86.840141">
        <ele>5203.8</ele>
        <time>2022-10-26T10:02:37.000Z</time>
      </trkpt>
      <trkpt lat="27.988221" lon="86.840134">
        <ele>5203.8</ele>
        <time>2022-10-26T10:02:40.000Z</time>
      </trkpt>
      <trkpt lat="27.988211" lon="86.840109">
        <ele>5203.2</ele>
        <time>2022-10-26T10:02:44.000Z</time>
      </trkpt>
      <trkpt lat="27.988198" lon="86.84009">
        <ele>5204</ele>
        <time>2022-10-26T10:02:50.000Z</time>
      </trkpt>
      <trkpt lat="27.988192" lon="86.84007">
        <ele>5204.6</ele>
        <time>2022-10-26T10:02:55.000Z</time>
      </trkpt>
      <trkpt lat="27.988182" lon="86.840051">
        <ele>5204.8</ele>
        <time>2022-10-26T10:02:59.000Z</time>
      </trkpt>
      <trkpt lat="27.988182" lon="86.840026">
        <ele>5205</ele>
        <time>2022-10-26T10:03:05.000Z</time>
      </trkpt>
      <trkpt lat="27.988186" lon="86.839994">
        <ele>5206.2</ele>
        <time>2022-10-26T10:03:14.000Z</time>
      </trkpt>
      <trkpt lat="27.988179" lon="86.839968">
        <ele>5207.2</ele>
        <time>2022-10-26T10:03:23.000Z</time>
      </trkpt>
      <trkpt lat="27.98816" lon="86.839968">
        <ele>5207.8</ele>
        <time>2022-10-26T10:03:27.000Z</time>
      </trkpt>
      <trkpt lat="27.988141" lon="86.839955">
        <ele>5207.2</ele>
        <time>2022-10-26T10:03:31.000Z</time>
      </trkpt>
      <trkpt lat="27.988122" lon="86.839955">
        <ele>5207.2</ele>
        <time>2022-10-26T10:03:35.000Z</time>
      </trkpt>
      <trkpt lat="27.988102" lon="86.839968">
        <ele>5206.6</ele>
        <time>2022-10-26T10:03:40.000Z</time>
      </trkpt>
      <trkpt lat="27.98808" lon="86.839974">
        <ele>5205.6</ele>
        <time>2022-10-26T10:03:44.000Z</time>
      </trkpt>
      <trkpt lat="27.988061" lon="86.839987">
        <ele>5205.6</ele>
        <time>2022-10-26T10:03:47.000Z</time>
      </trkpt>
      <trkpt lat="27.988042" lon="86.839987">
        <ele>5206</ele>
        <time>2022-10-26T10:03:50.000Z</time>
      </trkpt>
      <trkpt lat="27.988022" lon="86.839987">
        <ele>5206</ele>
        <time>2022-10-26T10:03:52.000Z</time>
      </trkpt>
      <trkpt lat="27.988" lon="86.839981">
        <ele>5205.4</ele>
        <time>2022-10-26T10:03:55.000Z</time>
      </trkpt>
      <trkpt lat="27.987981" lon="86.839981">
        <ele>5205.2</ele>
        <time>2022-10-26T10:04:02.000Z</time>
      </trkpt>
      <trkpt lat="27.987962" lon="86.839981">
        <ele>5205.2</ele>
        <time>2022-10-26T10:04:05.000Z</time>
      </trkpt>
      <trkpt lat="27.987942" lon="86.839981">
        <ele>5205.2</ele>
        <time>2022-10-26T10:04:10.000Z</time>
      </trkpt>
      <trkpt lat="27.987923" lon="86.839968">
        <ele>5204.8</ele>
        <time>2022-10-26T10:04:15.000Z</time>
      </trkpt>
      <trkpt lat="27.987907" lon="86.839949">
        <ele>5205.2</ele>
        <time>2022-10-26T10:04:19.000Z</time>
      </trkpt>
      <trkpt lat="27.987888" lon="86.839942">
        <ele>5204</ele>
        <time>2022-10-26T10:04:25.000Z</time>
      </trkpt>
      <trkpt lat="27.987869" lon="86.839949">
        <ele>5203.4</ele>
        <time>2022-10-26T10:04:30.000Z</time>
      </trkpt>
      <trkpt lat="27.98785" lon="86.839955">
        <ele>5202.2</ele>
        <time>2022-10-26T10:04:35.000Z</time>
      </trkpt>
      <trkpt lat="27.98783" lon="86.839955">
        <ele>5201.6</ele>
        <time>2022-10-26T10:04:39.000Z</time>
      </trkpt>
      <trkpt lat="27.987811" lon="86.839955">
        <ele>5201.4</ele>
        <time>2022-10-26T10:04:43.000Z</time>
      </trkpt>
      <trkpt lat="27.987795" lon="86.839968">
        <ele>5201</ele>
        <time>2022-10-26T10:04:46.000Z</time>
      </trkpt>
      <trkpt lat="27.987779" lon="86.839955">
        <ele>5200.2</ele>
        <time>2022-10-26T10:04:49.000Z</time>
      </trkpt>
      <trkpt lat="27.98776" lon="86.839942">
        <ele>5200</ele>
        <time>2022-10-26T10:04:52.000Z</time>
      </trkpt>
      <trkpt lat="27.987744" lon="86.839923">
        <ele>5200.2</ele>
        <time>2022-10-26T10:04:56.000Z</time>
      </trkpt>
      <trkpt lat="27.987712" lon="86.839891">
        <ele>5198.8</ele>
        <time>2022-10-26T10:07:21.000Z</time>
      </trkpt>
      <trkpt lat="27.987702" lon="86.839872">
        <ele>5198.8</ele>
        <time>2022-10-26T10:07:22.000Z</time>
      </trkpt>
      <trkpt lat="27.987683" lon="86.839846">
        <ele>5199.8</ele>
        <time>2022-10-26T10:07:24.000Z</time>
      </trkpt>
      <trkpt lat="27.987667" lon="86.839827">
        <ele>5199.8</ele>
        <time>2022-10-26T10:07:25.000Z</time>
      </trkpt>
      <trkpt lat="27.987642" lon="86.839795">
        <ele>5200.2</ele>
        <time>2022-10-26T10:07:27.000Z</time>
      </trkpt>
      <trkpt lat="27.987622" lon="86.83977">
        <ele>5200</ele>
        <time>2022-10-26T10:07:29.000Z</time>
      </trkpt>
      <trkpt lat="27.987616" lon="86.83975">
        <ele>5199.8</ele>
        <time>2022-10-26T10:07:30.000Z</time>
      </trkpt>
      <trkpt lat="27.98761" lon="86.839725">
        <ele>5200</ele>
        <time>2022-10-26T10:07:34.000Z</time>
      </trkpt>
      <trkpt lat="27.987613" lon="86.839699">
        <ele>5200</ele>
        <time>2022-10-26T10:07:37.000Z</time>
      </trkpt>
      <trkpt lat="27.9876" lon="86.839674">
        <ele>5200</ele>
        <time>2022-10-26T10:07:43.000Z</time>
      </trkpt>
      <trkpt lat="27.987584" lon="86.839654">
        <ele>5199.8</ele>
        <time>2022-10-26T10:07:46.000Z</time>
      </trkpt>
      <trkpt lat="27.987578" lon="86.839635">
        <ele>5199.4</ele>
        <time>2022-10-26T10:07:48.000Z</time>
      </trkpt>
      <trkpt lat="27.987571" lon="86.839616">
        <ele>5199.2</ele>
        <time>2022-10-26T10:07:50.000Z</time>
      </trkpt>
      <trkpt lat="27.987565" lon="86.839597">
        <ele>5198.8</ele>
        <time>2022-10-26T10:07:52.000Z</time>
      </trkpt>
      <trkpt lat="27.987546" lon="86.839578">
        <ele>5199.2</ele>
        <time>2022-10-26T10:07:56.000Z</time>
      </trkpt>
      <trkpt lat="27.987552" lon="86.839552">
        <ele>5198.8</ele>
        <time>2022-10-26T10:07:59.000Z</time>
      </trkpt>
      <trkpt lat="27.987546" lon="86.839533">
        <ele>5198.6</ele>
        <time>2022-10-26T10:08:03.000Z</time>
      </trkpt>
      <trkpt lat="27.987546" lon="86.839507">
        <ele>5198.2</ele>
        <time>2022-10-26T10:08:09.000Z</time>
      </trkpt>
      <trkpt lat="27.987552" lon="86.839488">
        <ele>5198.2</ele>
        <time>2022-10-26T10:08:13.000Z</time>
      </trkpt>
      <trkpt lat="27.987552" lon="86.839462">
        <ele>5197.4</ele>
        <time>2022-10-26T10:08:16.000Z</time>
      </trkpt>
      <trkpt lat="27.987533" lon="86.839462">
        <ele>5197.4</ele>
        <time>2022-10-26T10:08:21.000Z</time>
      </trkpt>
      <trkpt lat="27.987517" lon="86.83945">
        <ele>5196.8</ele>
        <time>2022-10-26T10:08:25.000Z</time>
      </trkpt>
      <trkpt lat="27.987504" lon="86.83943">
        <ele>5196.6</ele>
        <time>2022-10-26T10:08:31.000Z</time>
      </trkpt>
      <trkpt lat="27.987485" lon="86.839418">
        <ele>5196</ele>
        <time>2022-10-26T10:08:34.000Z</time>
      </trkpt>
      <trkpt lat="27.987466" lon="86.839398">
        <ele>5195.4</ele>
        <time>2022-10-26T10:08:37.000Z</time>
      </trkpt>
      <trkpt lat="27.987446" lon="86.839379">
        <ele>5195.4</ele>
        <time>2022-10-26T10:08:41.000Z</time>
      </trkpt>
      <trkpt lat="27.98744" lon="86.83936">
        <ele>5196</ele>
        <time>2022-10-26T10:08:44.000Z</time>
      </trkpt>
      <trkpt lat="27.987421" lon="86.839347">
        <ele>5196.4</ele>
        <time>2022-10-26T10:08:49.000Z</time>
      </trkpt>
      <trkpt lat="27.987405" lon="86.839334">
        <ele>5195.6</ele>
        <time>2022-10-26T10:08:52.000Z</time>
      </trkpt>
      <trkpt lat="27.987386" lon="86.839315">
        <ele>5196.4</ele>
        <time>2022-10-26T10:08:56.000Z</time>
      </trkpt>
      <trkpt lat="27.987376" lon="86.839296">
        <ele>5196.6</ele>
        <time>2022-10-26T10:08:59.000Z</time>
      </trkpt>
      <trkpt lat="27.987357" lon="86.83929">
        <ele>5196.6</ele>
        <time>2022-10-26T10:09:02.000Z</time>
      </trkpt>
      <trkpt lat="27.987338" lon="86.839277">
        <ele>5196</ele>
        <time>2022-10-26T10:09:06.000Z</time>
      </trkpt>
      <trkpt lat="27.987318" lon="86.839264">
        <ele>5195.8</ele>
        <time>2022-10-26T10:09:11.000Z</time>
      </trkpt>
      <trkpt lat="27.987302" lon="86.839251">
        <ele>5194.4</ele>
        <time>2022-10-26T10:09:14.000Z</time>
      </trkpt>
      <trkpt lat="27.987296" lon="86.839226">
        <ele>5194.4</ele>
        <time>2022-10-26T10:09:18.000Z</time>
      </trkpt>
      <trkpt lat="27.987277" lon="86.8392">
        <ele>5193.4</ele>
        <time>2022-10-26T10:09:23.000Z</time>
      </trkpt>
      <trkpt lat="27.987254" lon="86.839194">
        <ele>5193.2</ele>
        <time>2022-10-26T10:09:27.000Z</time>
      </trkpt>
      <trkpt lat="27.987232" lon="86.839187">
        <ele>5192.6</ele>
        <time>2022-10-26T10:09:32.000Z</time>
      </trkpt>
      <trkpt lat="27.987216" lon="86.839162">
        <ele>5192.6</ele>
        <time>2022-10-26T10:09:36.000Z</time>
      </trkpt>
      <trkpt lat="27.987203" lon="86.839142">
        <ele>5191.6</ele>
        <time>2022-10-26T10:09:40.000Z</time>
      </trkpt>
      <trkpt lat="27.987181" lon="86.83913">
        <ele>5191</ele>
        <time>2022-10-26T10:09:45.000Z</time>
      </trkpt>
      <trkpt lat="27.987162" lon="86.83913">
        <ele>5190.8</ele>
        <time>2022-10-26T10:09:49.000Z</time>
      </trkpt>
      <trkpt lat="27.987139" lon="86.839142">
        <ele>5189.2</ele>
        <time>2022-10-26T10:09:53.000Z</time>
      </trkpt>
      <trkpt lat="27.98712" lon="86.839136">
        <ele>5188.8</ele>
        <time>2022-10-26T10:09:56.000Z</time>
      </trkpt>
      <trkpt lat="27.987101" lon="86.839142">
        <ele>5188.2</ele>
        <time>2022-10-26T10:10:00.000Z</time>
      </trkpt>
      <trkpt lat="27.987078" lon="86.839149">
        <ele>5188</ele>
        <time>2022-10-26T10:10:06.000Z</time>
      </trkpt>
      <trkpt lat="27.987056" lon="86.839162">
        <ele>5187</ele>
        <time>2022-10-26T10:10:12.000Z</time>
      </trkpt>
      <trkpt lat="27.987037" lon="86.839155">
        <ele>5187</ele>
        <time>2022-10-26T10:10:15.000Z</time>
      </trkpt>
      <trkpt lat="27.987018" lon="86.839162">
        <ele>5187</ele>
        <time>2022-10-26T10:10:18.000Z</time>
      </trkpt>
      <trkpt lat="27.986998" lon="86.839162">
        <ele>5186.6</ele>
        <time>2022-10-26T10:10:23.000Z</time>
      </trkpt>
      <trkpt lat="27.986989" lon="86.839181">
        <ele>5186.6</ele>
        <time>2022-10-26T10:10:26.000Z</time>
      </trkpt>
      <trkpt lat="27.986966" lon="86.839187">
        <ele>5185.8</ele>
        <time>2022-10-26T10:10:29.000Z</time>
      </trkpt>
      <trkpt lat="27.986947" lon="86.839187">
        <ele>5185.6</ele>
        <time>2022-10-26T10:10:32.000Z</time>
      </trkpt>
      <trkpt lat="27.986925" lon="86.839174">
        <ele>5185.6</ele>
        <time>2022-10-26T10:10:35.000Z</time>
      </trkpt>
      <trkpt lat="27.986925" lon="86.839149">
        <ele>5184.8</ele>
        <time>2022-10-26T10:10:39.000Z</time>
      </trkpt>
      <trkpt lat="27.986925" lon="86.839117">
        <ele>5184.2</ele>
        <time>2022-10-26T10:10:43.000Z</time>
      </trkpt>
      <trkpt lat="27.986922" lon="86.839091">
        <ele>5183.2</ele>
        <time>2022-10-26T10:10:46.000Z</time>
      </trkpt>
      <trkpt lat="27.986915" lon="86.839072">
        <ele>5183.6</ele>
        <time>2022-10-26T10:10:48.000Z</time>
      </trkpt>
      <trkpt lat="27.986925" lon="86.839053">
        <ele>5182.2</ele>
        <time>2022-10-26T10:10:51.000Z</time>
      </trkpt>
      <trkpt lat="27.986934" lon="86.839034">
        <ele>5183.4</ele>
        <time>2022-10-26T10:10:55.000Z</time>
      </trkpt>
      <trkpt lat="27.986918" lon="86.839021">
        <ele>5181.4</ele>
        <time>2022-10-26T10:11:00.000Z</time>
      </trkpt>
      <trkpt lat="27.986899" lon="86.839014">
        <ele>5182</ele>
        <time>2022-10-26T10:11:02.000Z</time>
      </trkpt>
      <trkpt lat="27.986877" lon="86.839002">
        <ele>5180.8</ele>
        <time>2022-10-26T10:11:05.000Z</time>
      </trkpt>
      <trkpt lat="27.986851" lon="86.838995">
        <ele>5180.4</ele>
        <time>2022-10-26T10:11:09.000Z</time>
      </trkpt>
      <trkpt lat="27.986829" lon="86.838995">
        <ele>5179.8</ele>
        <time>2022-10-26T10:11:13.000Z</time>
      </trkpt>
      <trkpt lat="27.98681" lon="86.839002">
        <ele>5180.2</ele>
        <time>2022-10-26T10:11:16.000Z</time>
      </trkpt>
      <trkpt lat="27.98679" lon="86.838995">
        <ele>5179.8</ele>
        <time>2022-10-26T10:11:21.000Z</time>
      </trkpt>
      <trkpt lat="27.986771" lon="86.838989">
        <ele>5177.8</ele>
        <time>2022-10-26T10:14:10.000Z</time>
      </trkpt>
      <trkpt lat="27.986762" lon="86.838963">
        <ele>5177.8</ele>
        <time>2022-10-26T10:14:12.000Z</time>
      </trkpt>
      <trkpt lat="27.986733" lon="86.838963">
        <ele>5177.8</ele>
        <time>2022-10-26T10:14:15.000Z</time>
      </trkpt>
      <trkpt lat="27.98671" lon="86.838963">
        <ele>5177.8</ele>
        <time>2022-10-26T10:14:17.000Z</time>
      </trkpt>
      <trkpt lat="27.986691" lon="86.838957">
        <ele>5177.2</ele>
        <time>2022-10-26T10:14:19.000Z</time>
      </trkpt>
      <trkpt lat="27.986691" lon="86.838931">
        <ele>5177.2</ele>
        <time>2022-10-26T10:14:22.000Z</time>
      </trkpt>
      <trkpt lat="27.986701" lon="86.838912">
        <ele>5176.6</ele>
        <time>2022-10-26T10:14:24.000Z</time>
      </trkpt>
      <trkpt lat="27.986704" lon="86.83888">
        <ele>5177.4</ele>
        <time>2022-10-26T10:14:28.000Z</time>
      </trkpt>
      <trkpt lat="27.986698" lon="86.838854">
        <ele>5177.4</ele>
        <time>2022-10-26T10:14:32.000Z</time>
      </trkpt>
      <trkpt lat="27.986707" lon="86.838835">
        <ele>5178</ele>
        <time>2022-10-26T10:14:35.000Z</time>
      </trkpt>
      <trkpt lat="27.986691" lon="86.838816">
        <ele>5177.6</ele>
        <time>2022-10-26T10:14:39.000Z</time>
      </trkpt>
      <trkpt lat="27.986682" lon="86.838797">
        <ele>5177.6</ele>
        <time>2022-10-26T10:14:41.000Z</time>
      </trkpt>
      <trkpt lat="27.986678" lon="86.838771">
        <ele>5178.2</ele>
        <time>2022-10-26T10:14:46.000Z</time>
      </trkpt>
      <trkpt lat="27.986666" lon="86.838752">
        <ele>5177.8</ele>
        <time>2022-10-26T10:14:49.000Z</time>
      </trkpt>
      <trkpt lat="27.986653" lon="86.838733">
        <ele>5177.4</ele>
        <time>2022-10-26T10:14:53.000Z</time>
      </trkpt>
      <trkpt lat="27.986646" lon="86.838714">
        <ele>5177.4</ele>
        <time>2022-10-26T10:14:55.000Z</time>
      </trkpt>
      <trkpt lat="27.98665" lon="86.838682">
        <ele>5177</ele>
        <time>2022-10-26T10:14:59.000Z</time>
      </trkpt>
      <trkpt lat="27.986627" lon="86.838669">
        <ele>5176.6</ele>
        <time>2022-10-26T10:15:29.000Z</time>
      </trkpt>
      <trkpt lat="27.986602" lon="86.838656">
        <ele>5176.6</ele>
        <time>2022-10-26T10:15:31.000Z</time>
      </trkpt>
      <trkpt lat="27.986582" lon="86.838643">
        <ele>5176.6</ele>
        <time>2022-10-26T10:15:33.000Z</time>
      </trkpt>
      <trkpt lat="27.986538" lon="86.838637">
        <ele>5177.6</ele>
        <time>2022-10-26T10:15:39.000Z</time>
      </trkpt>
      <trkpt lat="27.986512" lon="86.83863">
        <ele>5178.4</ele>
        <time>2022-10-26T10:15:43.000Z</time>
      </trkpt>
      <trkpt lat="27.98649" lon="86.83863">
        <ele>5178.4</ele>
        <time>2022-10-26T10:15:47.000Z</time>
      </trkpt>
      <trkpt lat="27.98647" lon="86.838624">
        <ele>5178.6</ele>
        <time>2022-10-26T10:15:52.000Z</time>
      </trkpt>
      <trkpt lat="27.986461" lon="86.838605">
        <ele>5178.6</ele>
        <time>2022-10-26T10:15:54.000Z</time>
      </trkpt>
      <trkpt lat="27.986451" lon="86.838586">
        <ele>5178.4</ele>
        <time>2022-10-26T10:15:58.000Z</time>
      </trkpt>
      <trkpt lat="27.986432" lon="86.838579">
        <ele>5178</ele>
        <time>2022-10-26T10:16:02.000Z</time>
      </trkpt>
      <trkpt lat="27.986416" lon="86.83856">
        <ele>5177.4</ele>
        <time>2022-10-26T10:16:05.000Z</time>
      </trkpt>
      <trkpt lat="27.986394" lon="86.838547">
        <ele>5176.8</ele>
        <time>2022-10-26T10:16:09.000Z</time>
      </trkpt>
      <trkpt lat="27.986374" lon="86.838522">
        <ele>5176.8</ele>
        <time>2022-10-26T10:16:13.000Z</time>
      </trkpt>
      <trkpt lat="27.986358" lon="86.838509">
        <ele>5175.8</ele>
        <time>2022-10-26T10:16:16.000Z</time>
      </trkpt>
      <trkpt lat="27.986342" lon="86.838483">
        <ele>5175.8</ele>
        <time>2022-10-26T10:16:19.000Z</time>
      </trkpt>
      <trkpt lat="27.98633" lon="86.838458">
        <ele>5175.4</ele>
        <time>2022-10-26T10:16:22.000Z</time>
      </trkpt>
      <trkpt lat="27.986314" lon="86.838445">
        <ele>5175.8</ele>
        <time>2022-10-26T10:16:24.000Z</time>
      </trkpt>
      <trkpt lat="27.986294" lon="86.838426">
        <ele>5176.2</ele>
        <time>2022-10-26T10:16:27.000Z</time>
      </trkpt>
      <trkpt lat="27.986282" lon="86.838406">
        <ele>5176</ele>
        <time>2022-10-26T10:16:29.000Z</time>
      </trkpt>
      <trkpt lat="27.986266" lon="86.838394">
        <ele>5176</ele>
        <time>2022-10-26T10:16:31.000Z</time>
      </trkpt>
      <trkpt lat="27.98625" lon="86.838381">
        <ele>5175.6</ele>
        <time>2022-10-26T10:16:33.000Z</time>
      </trkpt>
      <trkpt lat="27.986237" lon="86.838362">
        <ele>5175.6</ele>
        <time>2022-10-26T10:16:35.000Z</time>
      </trkpt>
      <trkpt lat="27.986218" lon="86.838342">
        <ele>5175.2</ele>
        <time>2022-10-26T10:16:38.000Z</time>
      </trkpt>
      <trkpt lat="27.986205" lon="86.838323">
        <ele>5175.2</ele>
        <time>2022-10-26T10:16:40.000Z</time>
      </trkpt>
      <trkpt lat="27.986192" lon="86.838304">
        <ele>5174.6</ele>
        <time>2022-10-26T10:16:43.000Z</time>
      </trkpt>
      <trkpt lat="27.986176" lon="86.838278">
        <ele>5174.2</ele>
        <time>2022-10-26T10:16:45.000Z</time>
      </trkpt>
      <trkpt lat="27.98616" lon="86.838259">
        <ele>5174</ele>
        <time>2022-10-26T10:16:49.000Z</time>
      </trkpt>
      <trkpt lat="27.986141" lon="86.838246">
        <ele>5174.2</ele>
        <time>2022-10-26T10:16:52.000Z</time>
      </trkpt>
      <trkpt lat="27.986128" lon="86.838227">
        <ele>5174</ele>
        <time>2022-10-26T10:16:55.000Z</time>
      </trkpt>
      <trkpt lat="27.986112" lon="86.838208">
        <ele>5173.8</ele>
        <time>2022-10-26T10:16:58.000Z</time>
      </trkpt>
      <trkpt lat="27.986096" lon="86.838189">
        <ele>5173.4</ele>
        <time>2022-10-26T10:17:01.000Z</time>
      </trkpt>
      <trkpt lat="27.986077" lon="86.838189">
        <ele>5173.4</ele>
        <time>2022-10-26T10:17:04.000Z</time>
      </trkpt>
      <trkpt lat="27.986058" lon="86.838182">
        <ele>5173.8</ele>
        <time>2022-10-26T10:17:06.000Z</time>
      </trkpt>
      <trkpt lat="27.986035" lon="86.838176">
        <ele>5173.2</ele>
        <time>2022-10-26T10:17:10.000Z</time>
      </trkpt>
      <trkpt lat="27.986016" lon="86.838157">
        <ele>5173.4</ele>
        <time>2022-10-26T10:17:14.000Z</time>
      </trkpt>
      <trkpt lat="27.985997" lon="86.838144">
        <ele>5173.2</ele>
        <time>2022-10-26T10:17:18.000Z</time>
      </trkpt>
      <trkpt lat="27.985984" lon="86.838125">
        <ele>5173.2</ele>
        <time>2022-10-26T10:17:20.000Z</time>
      </trkpt>
      <trkpt lat="27.985965" lon="86.838112">
        <ele>5172.6</ele>
        <time>2022-10-26T10:17:23.000Z</time>
      </trkpt>
      <trkpt lat="27.985942" lon="86.838099">
        <ele>5172.4</ele>
        <time>2022-10-26T10:17:26.000Z</time>
      </trkpt>
      <trkpt lat="27.985923" lon="86.838086">
        <ele>5172</ele>
        <time>2022-10-26T10:17:29.000Z</time>
      </trkpt>
      <trkpt lat="27.985914" lon="86.838067">
        <ele>5172</ele>
        <time>2022-10-26T10:17:32.000Z</time>
      </trkpt>
      <trkpt lat="27.985901" lon="86.838048">
        <ele>5171.8</ele>
        <time>2022-10-26T10:17:36.000Z</time>
      </trkpt>
      <trkpt lat="27.985894" lon="86.838029">
        <ele>5170.8</ele>
        <time>2022-10-26T10:17:40.000Z</time>
      </trkpt>
      <trkpt lat="27.985885" lon="86.83801">
        <ele>5170.6</ele>
        <time>2022-10-26T10:17:42.000Z</time>
      </trkpt>
      <trkpt lat="27.985878" lon="86.83799">
        <ele>5170.4</ele>
        <time>2022-10-26T10:17:45.000Z</time>
      </trkpt>
      <trkpt lat="27.985869" lon="86.837965">
        <ele>5170.6</ele>
        <time>2022-10-26T10:17:48.000Z</time>
      </trkpt>
      <trkpt lat="27.985862" lon="86.837946">
        <ele>5170</ele>
        <time>2022-10-26T10:17:54.000Z</time>
      </trkpt>
      <trkpt lat="27.985856" lon="86.837926">
        <ele>5169.8</ele>
        <time>2022-10-26T10:17:56.000Z</time>
      </trkpt>
      <trkpt lat="27.985846" lon="86.837901">
        <ele>5168.8</ele>
        <time>2022-10-26T10:18:01.000Z</time>
      </trkpt>
      <trkpt lat="27.985827" lon="86.837882">
        <ele>5168.8</ele>
        <time>2022-10-26T10:18:03.000Z</time>
      </trkpt>
      <trkpt lat="27.985818" lon="86.837862">
        <ele>5168.4</ele>
        <time>2022-10-26T10:18:06.000Z</time>
      </trkpt>
      <trkpt lat="27.985818" lon="86.837837">
        <ele>5167.8</ele>
        <time>2022-10-26T10:18:09.000Z</time>
      </trkpt>
      <trkpt lat="27.985802" lon="86.837824">
        <ele>5167.4</ele>
        <time>2022-10-26T10:18:13.000Z</time>
      </trkpt>
      <trkpt lat="27.985779" lon="86.837824">
        <ele>5167.4</ele>
        <time>2022-10-26T10:18:17.000Z</time>
      </trkpt>
      <trkpt lat="27.98577" lon="86.837805">
        <ele>5167.8</ele>
        <time>2022-10-26T10:18:19.000Z</time>
      </trkpt>
      <trkpt lat="27.985766" lon="86.837779">
        <ele>5166</ele>
        <time>2022-10-26T10:18:24.000Z</time>
      </trkpt>
      <trkpt lat="27.985747" lon="86.83776">
        <ele>5165.8</ele>
        <time>2022-10-26T10:18:27.000Z</time>
      </trkpt>
      <trkpt lat="27.985728" lon="86.837754">
        <ele>5165.4</ele>
        <time>2022-10-26T10:18:29.000Z</time>
      </trkpt>
      <trkpt lat="27.985709" lon="86.837728">
        <ele>5165.4</ele>
        <time>2022-10-26T10:18:32.000Z</time>
      </trkpt>
      <trkpt lat="27.985693" lon="86.837709">
        <ele>5164.6</ele>
        <time>2022-10-26T10:18:36.000Z</time>
      </trkpt>
      <trkpt lat="27.985686" lon="86.83769">
        <ele>5164.4</ele>
        <time>2022-10-26T10:18:38.000Z</time>
      </trkpt>
      <trkpt lat="27.98567" lon="86.837677">
        <ele>5164</ele>
        <time>2022-10-26T10:18:40.000Z</time>
      </trkpt>
      <trkpt lat="27.985658" lon="86.837645">
        <ele>5164</ele>
        <time>2022-10-26T10:18:43.000Z</time>
      </trkpt>
      <trkpt lat="27.985645" lon="86.837626">
        <ele>5163.4</ele>
        <time>2022-10-26T10:18:46.000Z</time>
      </trkpt>
      <trkpt lat="27.985638" lon="86.837606">
        <ele>5163.4</ele>
        <time>2022-10-26T10:18:48.000Z</time>
      </trkpt>
      <trkpt lat="27.985632" lon="86.837587">
        <ele>5163</ele>
        <time>2022-10-26T10:18:50.000Z</time>
      </trkpt>
      <trkpt lat="27.985622" lon="86.837568">
        <ele>5162.6</ele>
        <time>2022-10-26T10:18:52.000Z</time>
      </trkpt>
      <trkpt lat="27.985606" lon="86.837555">
        <ele>5162.2</ele>
        <time>2022-10-26T10:19:02.000Z</time>
      </trkpt>
      <trkpt lat="27.985587" lon="86.837549">
        <ele>5161.4</ele>
        <time>2022-10-26T10:19:06.000Z</time>
      </trkpt>
      <trkpt lat="27.985574" lon="86.83753">
        <ele>5161</ele>
        <time>2022-10-26T10:19:10.000Z</time>
      </trkpt>
      <trkpt lat="27.985562" lon="86.83751">
        <ele>5160.8</ele>
        <time>2022-10-26T10:19:13.000Z</time>
      </trkpt>
      <trkpt lat="27.985558" lon="86.837485">
        <ele>5160.2</ele>
        <time>2022-10-26T10:19:15.000Z</time>
      </trkpt>
      <trkpt lat="27.985542" lon="86.837472">
        <ele>5159.6</ele>
        <time>2022-10-26T10:19:18.000Z</time>
      </trkpt>
      <trkpt lat="27.985539" lon="86.837446">
        <ele>5159.4</ele>
        <time>2022-10-26T10:19:20.000Z</time>
      </trkpt>
      <trkpt lat="27.985517" lon="86.83744">
        <ele>5159.4</ele>
        <time>2022-10-26T10:19:23.000Z</time>
      </trkpt>
      <trkpt lat="27.985491" lon="86.83744">
        <ele>5160.2</ele>
        <time>2022-10-26T10:19:26.000Z</time>
      </trkpt>
      <trkpt lat="27.985469" lon="86.837421">
        <ele>5160</ele>
        <time>2022-10-26T10:19:29.000Z</time>
      </trkpt>
      <trkpt lat="27.985462" lon="86.837402">
        <ele>5158.8</ele>
        <time>2022-10-26T10:19:35.000Z</time>
      </trkpt>
      <trkpt lat="27.98545" lon="86.837382">
        <ele>5158.2</ele>
        <time>2022-10-26T10:19:38.000Z</time>
      </trkpt>
      <trkpt lat="27.985446" lon="86.837357">
        <ele>5158.2</ele>
        <time>2022-10-26T10:19:40.000Z</time>
      </trkpt>
      <trkpt lat="27.98543" lon="86.837331">
        <ele>5158.8</ele>
        <time>2022-10-26T10:19:43.000Z</time>
      </trkpt>
      <trkpt lat="27.985421" lon="86.837312">
        <ele>5158.2</ele>
        <time>2022-10-26T10:19:47.000Z</time>
      </trkpt>
      <trkpt lat="27.985418" lon="86.837286">
        <ele>5158.2</ele>
        <time>2022-10-26T10:19:50.000Z</time>
      </trkpt>
      <trkpt lat="27.985414" lon="86.837248">
        <ele>5157</ele>
        <time>2022-10-26T10:20:10.000Z</time>
      </trkpt>
      <trkpt lat="27.98543" lon="86.837229">
        <ele>5157</ele>
        <time>2022-10-26T10:20:16.000Z</time>
      </trkpt>
      <trkpt lat="27.98544" lon="86.83721">
        <ele>5157.4</ele>
        <time>2022-10-26T10:20:18.000Z</time>
      </trkpt>
      <trkpt lat="27.98545" lon="86.83719">
        <ele>5157.4</ele>
        <time>2022-10-26T10:20:21.000Z</time>
      </trkpt>
      <trkpt lat="27.98544" lon="86.837165">
        <ele>5157.6</ele>
        <time>2022-10-26T10:20:31.000Z</time>
      </trkpt>
      <trkpt lat="27.98544" lon="86.837133">
        <ele>5157.6</ele>
        <time>2022-10-26T10:20:35.000Z</time>
      </trkpt>
      <trkpt lat="27.985446" lon="86.837114">
        <ele>5158</ele>
        <time>2022-10-26T10:20:40.000Z</time>
      </trkpt>
      <trkpt lat="27.985466" lon="86.837114">
        <ele>5158.8</ele>
        <time>2022-10-26T10:20:48.000Z</time>
      </trkpt>
      <trkpt lat="27.985456" lon="86.837088">
        <ele>5158.8</ele>
        <time>2022-10-26T10:20:58.000Z</time>
      </trkpt>
      <trkpt lat="27.985437" lon="86.837069">
        <ele>5157.6</ele>
        <time>2022-10-26T10:21:00.000Z</time>
      </trkpt>
      <trkpt lat="27.98543" lon="86.83705">
        <ele>5157.6</ele>
        <time>2022-10-26T10:21:01.000Z</time>
      </trkpt>
      <trkpt lat="27.98543" lon="86.837024">
        <ele>5158.4</ele>
        <time>2022-10-26T10:21:04.000Z</time>
      </trkpt>
      <trkpt lat="27.985427" lon="86.836998">
        <ele>5158.8</ele>
        <time>2022-10-26T10:21:06.000Z</time>
      </trkpt>
      <trkpt lat="27.985437" lon="86.836973">
        <ele>5159.8</ele>
        <time>2022-10-26T10:21:10.000Z</time>
      </trkpt>
      <trkpt lat="27.98543" lon="86.836954">
        <ele>5159.6</ele>
        <time>2022-10-26T10:21:13.000Z</time>
      </trkpt>
      <trkpt lat="27.985437" lon="86.836928">
        <ele>5160.2</ele>
        <time>2022-10-26T10:21:17.000Z</time>
      </trkpt>
      <trkpt lat="27.985446" lon="86.836909">
        <ele>5161.2</ele>
        <time>2022-10-26T10:21:22.000Z</time>
      </trkpt>
      <trkpt lat="27.985459" lon="86.83689">
        <ele>5161.2</ele>
        <time>2022-10-26T10:21:26.000Z</time>
      </trkpt>
      <trkpt lat="27.985446" lon="86.83687">
        <ele>5161.8</ele>
        <time>2022-10-26T10:21:31.000Z</time>
      </trkpt>
      <trkpt lat="27.98544" lon="86.836845">
        <ele>5162.6</ele>
        <time>2022-10-26T10:21:35.000Z</time>
      </trkpt>
      <trkpt lat="27.985434" lon="86.836826">
        <ele>5163</ele>
        <time>2022-10-26T10:21:42.000Z</time>
      </trkpt>
      <trkpt lat="27.985434" lon="86.8368">
        <ele>5164.4</ele>
        <time>2022-10-26T10:22:07.000Z</time>
      </trkpt>
      <trkpt lat="27.98545" lon="86.836787">
        <ele>5165.2</ele>
        <time>2022-10-26T10:22:13.000Z</time>
      </trkpt>
      <trkpt lat="27.985469" lon="86.836787">
        <ele>5165.6</ele>
        <time>2022-10-26T10:22:17.000Z</time>
      </trkpt>
      <trkpt lat="27.98545" lon="86.836774">
        <ele>5164.2</ele>
        <time>2022-10-26T10:22:54.000Z</time>
      </trkpt>
      <trkpt lat="27.98543" lon="86.836755">
        <ele>5164.4</ele>
        <time>2022-10-26T10:22:56.000Z</time>
      </trkpt>
      <trkpt lat="27.985411" lon="86.836736">
        <ele>5164.8</ele>
        <time>2022-10-26T10:22:58.000Z</time>
      </trkpt>
      <trkpt lat="27.985395" lon="86.836717">
        <ele>5165.4</ele>
        <time>2022-10-26T10:23:01.000Z</time>
      </trkpt>
      <trkpt lat="27.985389" lon="86.836698">
        <ele>5165.4</ele>
        <time>2022-10-26T10:23:07.000Z</time>
      </trkpt>
      <trkpt lat="27.985386" lon="86.836672">
        <ele>5166.8</ele>
        <time>2022-10-26T10:23:14.000Z</time>
      </trkpt>
      <trkpt lat="27.985386" lon="86.836646">
        <ele>5166.8</ele>
        <time>2022-10-26T10:23:22.000Z</time>
      </trkpt>
      <trkpt lat="27.985379" lon="86.836627">
        <ele>5168</ele>
        <time>2022-10-26T10:23:32.000Z</time>
      </trkpt>
      <trkpt lat="27.985373" lon="86.836608">
        <ele>5168</ele>
        <time>2022-10-26T10:23:35.000Z</time>
      </trkpt>
      <trkpt lat="27.985376" lon="86.836576">
        <ele>5169.6</ele>
        <time>2022-10-26T10:23:42.000Z</time>
      </trkpt>
      <trkpt lat="27.985379" lon="86.83655">
        <ele>5170.2</ele>
        <time>2022-10-26T10:23:50.000Z</time>
      </trkpt>
      <trkpt lat="27.985373" lon="86.836531">
        <ele>5171.6</ele>
        <time>2022-10-26T10:23:57.000Z</time>
      </trkpt>
      <trkpt lat="27.98537" lon="86.836493">
        <ele>5172</ele>
        <time>2022-10-26T10:24:20.000Z</time>
      </trkpt>
      <trkpt lat="27.98536" lon="86.836454">
        <ele>5172</ele>
        <time>2022-10-26T10:24:22.000Z</time>
      </trkpt>
      <trkpt lat="27.98535" lon="86.836429">
        <ele>5172</ele>
        <time>2022-10-26T10:24:24.000Z</time>
      </trkpt>
      <trkpt lat="27.98535" lon="86.836397">
        <ele>5171.4</ele>
        <time>2022-10-26T10:24:26.000Z</time>
      </trkpt>
      <trkpt lat="27.985344" lon="86.836358">
        <ele>5171.2</ele>
        <time>2022-10-26T10:24:28.000Z</time>
      </trkpt>
      <trkpt lat="27.985338" lon="86.836339">
        <ele>5171.8</ele>
        <time>2022-10-26T10:24:30.000Z</time>
      </trkpt>
      <trkpt lat="27.985338" lon="86.836314">
        <ele>5171.4</ele>
        <time>2022-10-26T10:24:33.000Z</time>
      </trkpt>
      <trkpt lat="27.985338" lon="86.836288">
        <ele>5171.2</ele>
        <time>2022-10-26T10:24:37.000Z</time>
      </trkpt>
      <trkpt lat="27.985318" lon="86.836237">
        <ele>5167</ele>
        <time>2022-10-26T10:25:13.000Z</time>
      </trkpt>
      <trkpt lat="27.985318" lon="86.836173">
        <ele>5166.6</ele>
        <time>2022-10-26T10:25:55.000Z</time>
      </trkpt>
      <trkpt lat="27.985302" lon="86.836141">
        <ele>5166.2</ele>
        <time>2022-10-26T10:25:58.000Z</time>
      </trkpt>
      <trkpt lat="27.985286" lon="86.836122">
        <ele>5166.8</ele>
        <time>2022-10-26T10:26:01.000Z</time>
      </trkpt>
      <trkpt lat="27.98527" lon="86.836102">
        <ele>5166.8</ele>
        <time>2022-10-26T10:26:03.000Z</time>
      </trkpt>
      <trkpt lat="27.985251" lon="86.83609">
        <ele>5166</ele>
        <time>2022-10-26T10:26:06.000Z</time>
      </trkpt>
      <trkpt lat="27.985245" lon="86.836058">
        <ele>5165.6</ele>
        <time>2022-10-26T10:26:09.000Z</time>
      </trkpt>
      <trkpt lat="27.985251" lon="86.836032">
        <ele>5165.6</ele>
        <time>2022-10-26T10:26:13.000Z</time>
      </trkpt>
      <trkpt lat="27.985248" lon="86.836006">
        <ele>5165.4</ele>
        <time>2022-10-26T10:26:17.000Z</time>
      </trkpt>
      <trkpt lat="27.985251" lon="86.835981">
        <ele>5166</ele>
        <time>2022-10-26T10:26:20.000Z</time>
      </trkpt>
      <trkpt lat="27.985245" lon="86.835962">
        <ele>5166.6</ele>
        <time>2022-10-26T10:26:25.000Z</time>
      </trkpt>
      <trkpt lat="27.985238" lon="86.835942">
        <ele>5166.6</ele>
        <time>2022-10-26T10:26:28.000Z</time>
      </trkpt>
      <trkpt lat="27.985222" lon="86.83593">
        <ele>5167</ele>
        <time>2022-10-26T10:26:32.000Z</time>
      </trkpt>
      <trkpt lat="27.985203" lon="86.835904">
        <ele>5167.6</ele>
        <time>2022-10-26T10:26:36.000Z</time>
      </trkpt>
      <trkpt lat="27.985187" lon="86.835885">
        <ele>5167.6</ele>
        <time>2022-10-26T10:26:40.000Z</time>
      </trkpt>
      <trkpt lat="27.985181" lon="86.835859">
        <ele>5168.4</ele>
        <time>2022-10-26T10:26:43.000Z</time>
      </trkpt>
      <trkpt lat="27.985162" lon="86.835859">
        <ele>5168.2</ele>
        <time>2022-10-26T10:26:46.000Z</time>
      </trkpt>
      <trkpt lat="27.985139" lon="86.835846">
        <ele>5168.2</ele>
        <time>2022-10-26T10:26:50.000Z</time>
      </trkpt>
      <trkpt lat="27.985123" lon="86.835834">
        <ele>5167.6</ele>
        <time>2022-10-26T10:26:54.000Z</time>
      </trkpt>
      <trkpt lat="27.98511" lon="86.835814">
        <ele>5167.6</ele>
        <time>2022-10-26T10:27:00.000Z</time>
      </trkpt>
      <trkpt lat="27.985094" lon="86.835802">
        <ele>5167.6</ele>
        <time>2022-10-26T10:27:03.000Z</time>
      </trkpt>
      <trkpt lat="27.985088" lon="86.835782">
        <ele>5167.4</ele>
        <time>2022-10-26T10:27:05.000Z</time>
      </trkpt>
      <trkpt lat="27.985075" lon="86.835763">
        <ele>5167.4</ele>
        <time>2022-10-26T10:27:08.000Z</time>
      </trkpt>
      <trkpt lat="27.985059" lon="86.835744">
        <ele>5167.6</ele>
        <time>2022-10-26T10:27:12.000Z</time>
      </trkpt>
      <trkpt lat="27.98505" lon="86.835718">
        <ele>5167</ele>
        <time>2022-10-26T10:27:15.000Z</time>
      </trkpt>
      <trkpt lat="27.985043" lon="86.835699">
        <ele>5167</ele>
        <time>2022-10-26T10:27:17.000Z</time>
      </trkpt>
      <trkpt lat="27.98503" lon="86.83568">
        <ele>5166.8</ele>
        <time>2022-10-26T10:27:20.000Z</time>
      </trkpt>
      <trkpt lat="27.985011" lon="86.835674">
        <ele>5167</ele>
        <time>2022-10-26T10:27:24.000Z</time>
      </trkpt>
      <trkpt lat="27.984995" lon="86.835661">
        <ele>5167.6</ele>
        <time>2022-10-26T10:27:27.000Z</time>
      </trkpt>
      <trkpt lat="27.984989" lon="86.835642">
        <ele>5167.8</ele>
        <time>2022-10-26T10:27:31.000Z</time>
      </trkpt>
      <trkpt lat="27.984982" lon="86.835622">
        <ele>5168.4</ele>
        <time>2022-10-26T10:27:34.000Z</time>
      </trkpt>
      <trkpt lat="27.984992" lon="86.835603">
        <ele>5169.2</ele>
        <time>2022-10-26T10:27:41.000Z</time>
      </trkpt>
      <trkpt lat="27.985005" lon="86.835584">
        <ele>5169.8</ele>
        <time>2022-10-26T10:27:46.000Z</time>
      </trkpt>
      <trkpt lat="27.985021" lon="86.835571">
        <ele>5171.2</ele>
        <time>2022-10-26T10:27:56.000Z</time>
      </trkpt>
      <trkpt lat="27.985014" lon="86.835546">
        <ele>5171.4</ele>
        <time>2022-10-26T10:28:02.000Z</time>
      </trkpt>
      <trkpt lat="27.985014" lon="86.83552">
        <ele>5172</ele>
        <time>2022-10-26T10:28:19.000Z</time>
      </trkpt>
      <trkpt lat="27.985011" lon="86.835494">
        <ele>5172</ele>
        <time>2022-10-26T10:28:21.000Z</time>
      </trkpt>
      <trkpt lat="27.985011" lon="86.835462">
        <ele>5171.4</ele>
        <time>2022-10-26T10:28:24.000Z</time>
      </trkpt>
      <trkpt lat="27.985005" lon="86.835443">
        <ele>5171</ele>
        <time>2022-10-26T10:28:26.000Z</time>
      </trkpt>
      <trkpt lat="27.985005" lon="86.835418">
        <ele>5171</ele>
        <time>2022-10-26T10:28:28.000Z</time>
      </trkpt>
      <trkpt lat="27.985024" lon="86.835398">
        <ele>5171.6</ele>
        <time>2022-10-26T10:28:35.000Z</time>
      </trkpt>
      <trkpt lat="27.98503" lon="86.835379">
        <ele>5171</ele>
        <time>2022-10-26T10:28:37.000Z</time>
      </trkpt>
      <trkpt lat="27.985043" lon="86.835347">
        <ele>5171</ele>
        <time>2022-10-26T10:28:41.000Z</time>
      </trkpt>
      <trkpt lat="27.985053" lon="86.835328">
        <ele>5171</ele>
        <time>2022-10-26T10:28:45.000Z</time>
      </trkpt>
      <trkpt lat="27.985062" lon="86.835309">
        <ele>5171.6</ele>
        <time>2022-10-26T10:28:47.000Z</time>
      </trkpt>
      <trkpt lat="27.985069" lon="86.83529">
        <ele>5172.8</ele>
        <time>2022-10-26T10:28:52.000Z</time>
      </trkpt>
      <trkpt lat="27.98505" lon="86.835283">
        <ele>5172.6</ele>
        <time>2022-10-26T10:28:56.000Z</time>
      </trkpt>
      <trkpt lat="27.98504" lon="86.835264">
        <ele>5172.8</ele>
        <time>2022-10-26T10:28:59.000Z</time>
      </trkpt>
      <trkpt lat="27.985034" lon="86.835245">
        <ele>5173</ele>
        <time>2022-10-26T10:29:02.000Z</time>
      </trkpt>
      <trkpt lat="27.98503" lon="86.835219">
        <ele>5172.8</ele>
        <time>2022-10-26T10:29:06.000Z</time>
      </trkpt>
      <trkpt lat="27.985011" lon="86.835219">
        <ele>5174</ele>
        <time>2022-10-26T10:29:11.000Z</time>
      </trkpt>
      <trkpt lat="27.984992" lon="86.835213">
        <ele>5174.6</ele>
        <time>2022-10-26T10:29:15.000Z</time>
      </trkpt>
      <trkpt lat="27.984989" lon="86.835187">
        <ele>5174.4</ele>
        <time>2022-10-26T10:29:22.000Z</time>
      </trkpt>
      <trkpt lat="27.984979" lon="86.835168">
        <ele>5173.8</ele>
        <time>2022-10-26T10:29:24.000Z</time>
      </trkpt>
      <trkpt lat="27.984976" lon="86.835142">
        <ele>5173.4</ele>
        <time>2022-10-26T10:29:27.000Z</time>
      </trkpt>
      <trkpt lat="27.98497" lon="86.835123">
        <ele>5174</ele>
        <time>2022-10-26T10:29:38.000Z</time>
      </trkpt>
      <trkpt lat="27.98496" lon="86.835104">
        <ele>5173.8</ele>
        <time>2022-10-26T10:29:46.000Z</time>
      </trkpt>
      <trkpt lat="27.984944" lon="86.835085">
        <ele>5173</ele>
        <time>2022-10-26T10:29:49.000Z</time>
      </trkpt>
      <trkpt lat="27.984944" lon="86.835059">
        <ele>5173</ele>
        <time>2022-10-26T10:29:51.000Z</time>
      </trkpt>
      <trkpt lat="27.984938" lon="86.83504">
        <ele>5172.6</ele>
        <time>2022-10-26T10:29:54.000Z</time>
      </trkpt>
      <trkpt lat="27.984928" lon="86.835008">
        <ele>5172.4</ele>
        <time>2022-10-26T10:29:57.000Z</time>
      </trkpt>
      <trkpt lat="27.984925" lon="86.834982">
        <ele>5172.4</ele>
        <time>2022-10-26T10:30:00.000Z</time>
      </trkpt>
      <trkpt lat="27.984922" lon="86.83495">
        <ele>5172.4</ele>
        <time>2022-10-26T10:30:03.000Z</time>
      </trkpt>
      <trkpt lat="27.984909" lon="86.834931">
        <ele>5172.2</ele>
        <time>2022-10-26T10:30:09.000Z</time>
      </trkpt>
      <trkpt lat="27.984906" lon="86.834906">
        <ele>5171.8</ele>
        <time>2022-10-26T10:30:13.000Z</time>
      </trkpt>
      <trkpt lat="27.984899" lon="86.834886">
        <ele>5172.2</ele>
        <time>2022-10-26T10:30:16.000Z</time>
      </trkpt>
      <trkpt lat="27.98489" lon="86.834867">
        <ele>5171.6</ele>
        <time>2022-10-26T10:30:28.000Z</time>
      </trkpt>
      <trkpt lat="27.98488" lon="86.834848">
        <ele>5172</ele>
        <time>2022-10-26T10:30:32.000Z</time>
      </trkpt>
      <trkpt lat="27.984874" lon="86.834829">
        <ele>5171.4</ele>
        <time>2022-10-26T10:30:35.000Z</time>
      </trkpt>
      <trkpt lat="27.984864" lon="86.834803">
        <ele>5171.4</ele>
        <time>2022-10-26T10:30:39.000Z</time>
      </trkpt>
      <trkpt lat="27.984858" lon="86.834784">
        <ele>5171.4</ele>
        <time>2022-10-26T10:30:41.000Z</time>
      </trkpt>
      <trkpt lat="27.984851" lon="86.834752">
        <ele>5171.4</ele>
        <time>2022-10-26T10:30:44.000Z</time>
      </trkpt>
      <trkpt lat="27.984851" lon="86.834726">
        <ele>5172</ele>
        <time>2022-10-26T10:30:47.000Z</time>
      </trkpt>
      <trkpt lat="27.984838" lon="86.834707">
        <ele>5171.4</ele>
        <time>2022-10-26T10:30:50.000Z</time>
      </trkpt>
      <trkpt lat="27.984819" lon="86.834694">
        <ele>5171.2</ele>
        <time>2022-10-26T10:30:53.000Z</time>
      </trkpt>
      <trkpt lat="27.984813" lon="86.834669">
        <ele>5171.2</ele>
        <time>2022-10-26T10:30:55.000Z</time>
      </trkpt>
      <trkpt lat="27.984806" lon="86.834643">
        <ele>5170.6</ele>
        <time>2022-10-26T10:30:58.000Z</time>
      </trkpt>
      <trkpt lat="27.9848" lon="86.834624">
        <ele>5170.8</ele>
        <time>2022-10-26T10:31:00.000Z</time>
      </trkpt>
      <trkpt lat="27.98479" lon="86.834605">
        <ele>5170.8</ele>
        <time>2022-10-26T10:31:02.000Z</time>
      </trkpt>
      <trkpt lat="27.984784" lon="86.834586">
        <ele>5170.8</ele>
        <time>2022-10-26T10:31:04.000Z</time>
      </trkpt>
      <trkpt lat="27.984781" lon="86.834554">
        <ele>5170.6</ele>
        <time>2022-10-26T10:31:07.000Z</time>
      </trkpt>
      <trkpt lat="27.984774" lon="86.834534">
        <ele>5170.4</ele>
        <time>2022-10-26T10:31:10.000Z</time>
      </trkpt>
      <trkpt lat="27.984765" lon="86.834509">
        <ele>5170.4</ele>
        <time>2022-10-26T10:31:13.000Z</time>
      </trkpt>
      <trkpt lat="27.984755" lon="86.83449">
        <ele>5169.8</ele>
        <time>2022-10-26T10:31:16.000Z</time>
      </trkpt>
      <trkpt lat="27.984749" lon="86.83447">
        <ele>5169.8</ele>
        <time>2022-10-26T10:31:18.000Z</time>
      </trkpt>
      <trkpt lat="27.984736" lon="86.834451">
        <ele>5169.2</ele>
        <time>2022-10-26T10:31:21.000Z</time>
      </trkpt>
      <trkpt lat="27.984726" lon="86.834432">
        <ele>5169.2</ele>
        <time>2022-10-26T10:31:23.000Z</time>
      </trkpt>
      <trkpt lat="27.98472" lon="86.834413">
        <ele>5169.2</ele>
        <time>2022-10-26T10:31:26.000Z</time>
      </trkpt>
      <trkpt lat="27.984714" lon="86.834394">
        <ele>5169.2</ele>
        <time>2022-10-26T10:31:28.000Z</time>
      </trkpt>
      <trkpt lat="27.984698" lon="86.834368">
        <ele>5169</ele>
        <time>2022-10-26T10:31:32.000Z</time>
      </trkpt>
      <trkpt lat="27.984691" lon="86.834349">
        <ele>5168.6</ele>
        <time>2022-10-26T10:31:34.000Z</time>
      </trkpt>
      <trkpt lat="27.984685" lon="86.834323">
        <ele>5169.2</ele>
        <time>2022-10-26T10:31:37.000Z</time>
      </trkpt>
      <trkpt lat="27.984678" lon="86.834304">
        <ele>5169.2</ele>
        <time>2022-10-26T10:31:39.000Z</time>
      </trkpt>
      <trkpt lat="27.984669" lon="86.834285">
        <ele>5169.4</ele>
        <time>2022-10-26T10:31:42.000Z</time>
      </trkpt>
      <trkpt lat="27.984662" lon="86.834266">
        <ele>5169.4</ele>
        <time>2022-10-26T10:31:44.000Z</time>
      </trkpt>
      <trkpt lat="27.984653" lon="86.834246">
        <ele>5169.2</ele>
        <time>2022-10-26T10:31:47.000Z</time>
      </trkpt>
      <trkpt lat="27.984643" lon="86.834227">
        <ele>5168.8</ele>
        <time>2022-10-26T10:31:49.000Z</time>
      </trkpt>
      <trkpt lat="27.984643" lon="86.834195">
        <ele>5168.8</ele>
        <time>2022-10-26T10:31:52.000Z</time>
      </trkpt>
      <trkpt lat="27.984634" lon="86.834176">
        <ele>5168.6</ele>
        <time>2022-10-26T10:31:55.000Z</time>
      </trkpt>
      <trkpt lat="27.984634" lon="86.83415">
        <ele>5168.4</ele>
        <time>2022-10-26T10:31:58.000Z</time>
      </trkpt>
      <trkpt lat="27.984627" lon="86.834125">
        <ele>5168</ele>
        <time>2022-10-26T10:32:02.000Z</time>
      </trkpt>
      <trkpt lat="27.984618" lon="86.834106">
        <ele>5168.2</ele>
        <time>2022-10-26T10:32:04.000Z</time>
      </trkpt>
      <trkpt lat="27.984605" lon="86.834086">
        <ele>5168</ele>
        <time>2022-10-26T10:32:07.000Z</time>
      </trkpt>
      <trkpt lat="27.984595" lon="86.834067">
        <ele>5168</ele>
        <time>2022-10-26T10:32:09.000Z</time>
      </trkpt>
      <trkpt lat="27.984589" lon="86.834048">
        <ele>5168</ele>
        <time>2022-10-26T10:32:11.000Z</time>
      </trkpt>
      <trkpt lat="27.984579" lon="86.834029">
        <ele>5168</ele>
        <time>2022-10-26T10:32:13.000Z</time>
      </trkpt>
      <trkpt lat="27.984566" lon="86.83401">
        <ele>5168</ele>
        <time>2022-10-26T10:32:16.000Z</time>
      </trkpt>
      <trkpt lat="27.984557" lon="86.83399">
        <ele>5168</ele>
        <time>2022-10-26T10:32:19.000Z</time>
      </trkpt>
      <trkpt lat="27.984541" lon="86.833971">
        <ele>5168.2</ele>
        <time>2022-10-26T10:32:22.000Z</time>
      </trkpt>
      <trkpt lat="27.984538" lon="86.833946">
        <ele>5168</ele>
        <time>2022-10-26T10:32:25.000Z</time>
      </trkpt>
      <trkpt lat="27.984522" lon="86.833926">
        <ele>5168</ele>
        <time>2022-10-26T10:32:29.000Z</time>
      </trkpt>
      <trkpt lat="27.984509" lon="86.833907">
        <ele>5168.2</ele>
        <time>2022-10-26T10:32:32.000Z</time>
      </trkpt>
      <trkpt lat="27.984502" lon="86.833888">
        <ele>5168.2</ele>
        <time>2022-10-26T10:32:34.000Z</time>
      </trkpt>
      <trkpt lat="27.984496" lon="86.833869">
        <ele>5168</ele>
        <time>2022-10-26T10:32:36.000Z</time>
      </trkpt>
      <trkpt lat="27.984486" lon="86.83385">
        <ele>5168.8</ele>
        <time>2022-10-26T10:32:40.000Z</time>
      </trkpt>
      <trkpt lat="27.984474" lon="86.83383">
        <ele>5168.8</ele>
        <time>2022-10-26T10:32:42.000Z</time>
      </trkpt>
      <trkpt lat="27.984467" lon="86.833811">
        <ele>5169</ele>
        <time>2022-10-26T10:32:45.000Z</time>
      </trkpt>
      <trkpt lat="27.984464" lon="86.833786">
        <ele>5169.4</ele>
        <time>2022-10-26T10:32:48.000Z</time>
      </trkpt>
      <trkpt lat="27.984458" lon="86.83376">
        <ele>5169.4</ele>
        <time>2022-10-26T10:32:51.000Z</time>
      </trkpt>
      <trkpt lat="27.984448" lon="86.833741">
        <ele>5169.6</ele>
        <time>2022-10-26T10:32:54.000Z</time>
      </trkpt>
      <trkpt lat="27.984438" lon="86.833715">
        <ele>5169.8</ele>
        <time>2022-10-26T10:32:59.000Z</time>
      </trkpt>
      <trkpt lat="27.984435" lon="86.83369">
        <ele>5169.8</ele>
        <time>2022-10-26T10:33:02.000Z</time>
      </trkpt>
      <trkpt lat="27.984435" lon="86.833664">
        <ele>5169.6</ele>
        <time>2022-10-26T10:33:05.000Z</time>
      </trkpt>
      <trkpt lat="27.984435" lon="86.833638">
        <ele>5169.8</ele>
        <time>2022-10-26T10:33:07.000Z</time>
      </trkpt>
      <trkpt lat="27.984426" lon="86.833619">
        <ele>5169.6</ele>
        <time>2022-10-26T10:33:10.000Z</time>
      </trkpt>
      <trkpt lat="27.984419" lon="86.8336">
        <ele>5169.6</ele>
        <time>2022-10-26T10:33:12.000Z</time>
      </trkpt>
      <trkpt lat="27.984406" lon="86.833581">
        <ele>5169.4</ele>
        <time>2022-10-26T10:33:15.000Z</time>
      </trkpt>
      <trkpt lat="27.984403" lon="86.833555">
        <ele>5169.2</ele>
        <time>2022-10-26T10:33:18.000Z</time>
      </trkpt>
      <trkpt lat="27.984397" lon="86.833536">
        <ele>5169</ele>
        <time>2022-10-26T10:33:20.000Z</time>
      </trkpt>
      <trkpt lat="27.984397" lon="86.83351">
        <ele>5169.2</ele>
        <time>2022-10-26T10:33:26.000Z</time>
      </trkpt>
      <trkpt lat="27.984387" lon="86.833491">
        <ele>5169.6</ele>
        <time>2022-10-26T10:33:29.000Z</time>
      </trkpt>
      <trkpt lat="27.984378" lon="86.833472">
        <ele>5169.2</ele>
        <time>2022-10-26T10:33:31.000Z</time>
      </trkpt>
      <trkpt lat="27.984365" lon="86.833453">
        <ele>5169</ele>
        <time>2022-10-26T10:33:34.000Z</time>
      </trkpt>
      <trkpt lat="27.984355" lon="86.833427">
        <ele>5169</ele>
        <time>2022-10-26T10:33:36.000Z</time>
      </trkpt>
      <trkpt lat="27.984342" lon="86.833395">
        <ele>5168.6</ele>
        <time>2022-10-26T10:33:39.000Z</time>
      </trkpt>
      <trkpt lat="27.984326" lon="86.833376">
        <ele>5168.6</ele>
        <time>2022-10-26T10:33:42.000Z</time>
      </trkpt>
      <trkpt lat="27.984317" lon="86.833357">
        <ele>5168.4</ele>
        <time>2022-10-26T10:33:44.000Z</time>
      </trkpt>
      <trkpt lat="27.984298" lon="86.833338">
        <ele>5168.4</ele>
        <time>2022-10-26T10:33:47.000Z</time>
      </trkpt>
      <trkpt lat="27.984288" lon="86.833318">
        <ele>5168</ele>
        <time>2022-10-26T10:33:49.000Z</time>
      </trkpt>
      <trkpt lat="27.984272" lon="86.833306">
        <ele>5168</ele>
        <time>2022-10-26T10:33:51.000Z</time>
      </trkpt>
      <trkpt lat="27.984256" lon="86.83328">
        <ele>5168</ele>
        <time>2022-10-26T10:33:54.000Z</time>
      </trkpt>
      <trkpt lat="27.984243" lon="86.833261">
        <ele>5168</ele>
        <time>2022-10-26T10:33:56.000Z</time>
      </trkpt>
      <trkpt lat="27.984237" lon="86.833242">
        <ele>5168</ele>
        <time>2022-10-26T10:33:58.000Z</time>
      </trkpt>
      <trkpt lat="27.984218" lon="86.833229">
        <ele>5168</ele>
        <time>2022-10-26T10:34:01.000Z</time>
      </trkpt>
      <trkpt lat="27.984205" lon="86.833203">
        <ele>5167.6</ele>
        <time>2022-10-26T10:34:04.000Z</time>
      </trkpt>
      <trkpt lat="27.984195" lon="86.833178">
        <ele>5167.8</ele>
        <time>2022-10-26T10:34:07.000Z</time>
      </trkpt>
      <trkpt lat="27.984186" lon="86.833152">
        <ele>5167.4</ele>
        <time>2022-10-26T10:34:09.000Z</time>
      </trkpt>
      <trkpt lat="27.984176" lon="86.833133">
        <ele>5167.8</ele>
        <time>2022-10-26T10:34:12.000Z</time>
      </trkpt>
      <trkpt lat="27.98417" lon="86.833114">
        <ele>5167.8</ele>
        <time>2022-10-26T10:34:13.000Z</time>
      </trkpt>
      <trkpt lat="27.984157" lon="86.833082">
        <ele>5167.4</ele>
        <time>2022-10-26T10:34:17.000Z</time>
      </trkpt>
      <trkpt lat="27.984147" lon="86.833062">
        <ele>5167.4</ele>
        <time>2022-10-26T10:34:19.000Z</time>
      </trkpt>
      <trkpt lat="27.984141" lon="86.833043">
        <ele>5167.4</ele>
        <time>2022-10-26T10:34:21.000Z</time>
      </trkpt>
      <trkpt lat="27.984134" lon="86.833024">
        <ele>5166.8</ele>
        <time>2022-10-26T10:34:24.000Z</time>
      </trkpt>
      <trkpt lat="27.984125" lon="86.833005">
        <ele>5166.8</ele>
        <time>2022-10-26T10:34:26.000Z</time>
      </trkpt>
      <trkpt lat="27.984109" lon="86.832986">
        <ele>5167.2</ele>
        <time>2022-10-26T10:34:29.000Z</time>
      </trkpt>
      <trkpt lat="27.984102" lon="86.832954">
        <ele>5166.8</ele>
        <time>2022-10-26T10:34:32.000Z</time>
      </trkpt>
      <trkpt lat="27.984083" lon="86.832934">
        <ele>5166.6</ele>
        <time>2022-10-26T10:34:36.000Z</time>
      </trkpt>
      <trkpt lat="27.984077" lon="86.832915">
        <ele>5166.6</ele>
        <time>2022-10-26T10:34:37.000Z</time>
      </trkpt>
      <trkpt lat="27.984064" lon="86.832896">
        <ele>5166.6</ele>
        <time>2022-10-26T10:34:40.000Z</time>
      </trkpt>
      <trkpt lat="27.984051" lon="86.832877">
        <ele>5166.8</ele>
        <time>2022-10-26T10:34:42.000Z</time>
      </trkpt>
      <trkpt lat="27.984045" lon="86.832858">
        <ele>5166.8</ele>
        <time>2022-10-26T10:34:44.000Z</time>
      </trkpt>
      <trkpt lat="27.984035" lon="86.832838">
        <ele>5166.6</ele>
        <time>2022-10-26T10:34:46.000Z</time>
      </trkpt>
      <trkpt lat="27.984019" lon="86.832819">
        <ele>5166.4</ele>
        <time>2022-10-26T10:34:49.000Z</time>
      </trkpt>
      <trkpt lat="27.984013" lon="86.8328">
        <ele>5166.4</ele>
        <time>2022-10-26T10:34:51.000Z</time>
      </trkpt>
      <trkpt lat="27.983997" lon="86.832781">
        <ele>5166.8</ele>
        <time>2022-10-26T10:34:55.000Z</time>
      </trkpt>
      <trkpt lat="27.983978" lon="86.832762">
        <ele>5166.8</ele>
        <time>2022-10-26T10:34:58.000Z</time>
      </trkpt>
      <trkpt lat="27.983942" lon="86.832723">
        <ele>5166.4</ele>
        <time>2022-10-26T10:35:03.000Z</time>
      </trkpt>
      <trkpt lat="27.98393" lon="86.832704">
        <ele>5166.4</ele>
        <time>2022-10-26T10:35:06.000Z</time>
      </trkpt>
      <trkpt lat="27.983923" lon="86.832685">
        <ele>5166.4</ele>
        <time>2022-10-26T10:35:08.000Z</time>
      </trkpt>
      <trkpt lat="27.98391" lon="86.832659">
        <ele>5166.4</ele>
        <time>2022-10-26T10:35:11.000Z</time>
      </trkpt>
      <trkpt lat="27.983904" lon="86.83264">
        <ele>5166.6</ele>
        <time>2022-10-26T10:35:13.000Z</time>
      </trkpt>
      <trkpt lat="27.983894" lon="86.832621">
        <ele>5166.4</ele>
        <time>2022-10-26T10:35:15.000Z</time>
      </trkpt>
      <trkpt lat="27.983888" lon="86.832602">
        <ele>5166.2</ele>
        <time>2022-10-26T10:35:17.000Z</time>
      </trkpt>
      <trkpt lat="27.983878" lon="86.832582">
        <ele>5166.4</ele>
        <time>2022-10-26T10:35:20.000Z</time>
      </trkpt>
      <trkpt lat="27.983866" lon="86.832563">
        <ele>5166.4</ele>
        <time>2022-10-26T10:35:22.000Z</time>
      </trkpt>
      <trkpt lat="27.98385" lon="86.832538">
        <ele>5166.4</ele>
        <time>2022-10-26T10:35:25.000Z</time>
      </trkpt>
      <trkpt lat="27.98384" lon="86.832518">
        <ele>5166.4</ele>
        <time>2022-10-26T10:35:27.000Z</time>
      </trkpt>
      <trkpt lat="27.983827" lon="86.832499">
        <ele>5166.4</ele>
        <time>2022-10-26T10:35:30.000Z</time>
      </trkpt>
      <trkpt lat="27.983821" lon="86.83248">
        <ele>5166.2</ele>
        <time>2022-10-26T10:35:32.000Z</time>
      </trkpt>
      <trkpt lat="27.983798" lon="86.832442">
        <ele>5166.4</ele>
        <time>2022-10-26T10:35:37.000Z</time>
      </trkpt>
      <trkpt lat="27.983779" lon="86.832422">
        <ele>5166</ele>
        <time>2022-10-26T10:35:41.000Z</time>
      </trkpt>
      <trkpt lat="27.983766" lon="86.832403">
        <ele>5165.8</ele>
        <time>2022-10-26T10:35:43.000Z</time>
      </trkpt>
      <trkpt lat="27.983747" lon="86.832378">
        <ele>5165.2</ele>
        <time>2022-10-26T10:36:46.000Z</time>
      </trkpt>
      <trkpt lat="27.983722" lon="86.832352">
        <ele>5165.2</ele>
        <time>2022-10-26T10:36:48.000Z</time>
      </trkpt>
      <trkpt lat="27.983693" lon="86.832326">
        <ele>5165</ele>
        <time>2022-10-26T10:36:50.000Z</time>
      </trkpt>
      <trkpt lat="27.983677" lon="86.832307">
        <ele>5164.6</ele>
        <time>2022-10-26T10:36:52.000Z</time>
      </trkpt>
      <trkpt lat="27.983664" lon="86.832288">
        <ele>5164.6</ele>
        <time>2022-10-26T10:36:53.000Z</time>
      </trkpt>
      <trkpt lat="27.983654" lon="86.832269">
        <ele>5164.4</ele>
        <time>2022-10-26T10:36:55.000Z</time>
      </trkpt>
      <trkpt lat="27.983645" lon="86.832243">
        <ele>5164.4</ele>
        <time>2022-10-26T10:36:57.000Z</time>
      </trkpt>
      <trkpt lat="27.983626" lon="86.832224">
        <ele>5164.6</ele>
        <time>2022-10-26T10:37:01.000Z</time>
      </trkpt>
      <trkpt lat="27.983619" lon="86.832205">
        <ele>5164.6</ele>
        <time>2022-10-26T10:37:02.000Z</time>
      </trkpt>
      <trkpt lat="27.983606" lon="86.832186">
        <ele>5164</ele>
        <time>2022-10-26T10:37:05.000Z</time>
      </trkpt>
      <trkpt lat="27.983597" lon="86.832166">
        <ele>5164</ele>
        <time>2022-10-26T10:37:07.000Z</time>
      </trkpt>
      <trkpt lat="27.983581" lon="86.832141">
        <ele>5164.4</ele>
        <time>2022-10-26T10:37:10.000Z</time>
      </trkpt>
      <trkpt lat="27.983571" lon="86.832122">
        <ele>5164.4</ele>
        <time>2022-10-26T10:37:12.000Z</time>
      </trkpt>
      <trkpt lat="27.983565" lon="86.832102">
        <ele>5164.4</ele>
        <time>2022-10-26T10:37:14.000Z</time>
      </trkpt>
      <trkpt lat="27.983562" lon="86.832077">
        <ele>5164</ele>
        <time>2022-10-26T10:37:16.000Z</time>
      </trkpt>
      <trkpt lat="27.983549" lon="86.832051">
        <ele>5164</ele>
        <time>2022-10-26T10:37:19.000Z</time>
      </trkpt>
      <trkpt lat="27.983539" lon="86.832032">
        <ele>5164</ele>
        <time>2022-10-26T10:37:22.000Z</time>
      </trkpt>
      <trkpt lat="27.983533" lon="86.832006">
        <ele>5163.8</ele>
        <time>2022-10-26T10:37:24.000Z</time>
      </trkpt>
      <trkpt lat="27.983523" lon="86.831987">
        <ele>5164</ele>
        <time>2022-10-26T10:37:28.000Z</time>
      </trkpt>
      <trkpt lat="27.983517" lon="86.831962">
        <ele>5164</ele>
        <time>2022-10-26T10:37:31.000Z</time>
      </trkpt>
      <trkpt lat="27.983504" lon="86.831942">
        <ele>5164.2</ele>
        <time>2022-10-26T10:37:34.000Z</time>
      </trkpt>
      <trkpt lat="27.983498" lon="86.831917">
        <ele>5164.2</ele>
        <time>2022-10-26T10:37:36.000Z</time>
      </trkpt>
      <trkpt lat="27.983485" lon="86.831885">
        <ele>5164</ele>
        <time>2022-10-26T10:37:40.000Z</time>
      </trkpt>
      <trkpt lat="27.983475" lon="86.831866">
        <ele>5163.8</ele>
        <time>2022-10-26T10:37:43.000Z</time>
      </trkpt>
      <trkpt lat="27.983466" lon="86.831846">
        <ele>5164.2</ele>
        <time>2022-10-26T10:37:45.000Z</time>
      </trkpt>
      <trkpt lat="27.983456" lon="86.831827">
        <ele>5164.2</ele>
        <time>2022-10-26T10:37:47.000Z</time>
      </trkpt>
      <trkpt lat="27.983443" lon="86.831808">
        <ele>5164.2</ele>
        <time>2022-10-26T10:37:49.000Z</time>
      </trkpt>
      <trkpt lat="27.98343" lon="86.831789">
        <ele>5163.8</ele>
        <time>2022-10-26T10:37:52.000Z</time>
      </trkpt>
      <trkpt lat="27.983424" lon="86.83177">
        <ele>5163.8</ele>
        <time>2022-10-26T10:37:54.000Z</time>
      </trkpt>
      <trkpt lat="27.983414" lon="86.83175">
        <ele>5163.8</ele>
        <time>2022-10-26T10:37:57.000Z</time>
      </trkpt>
      <trkpt lat="27.983405" lon="86.831731">
        <ele>5163.8</ele>
        <time>2022-10-26T10:37:59.000Z</time>
      </trkpt>
      <trkpt lat="27.983395" lon="86.831712">
        <ele>5163.4</ele>
        <time>2022-10-26T10:38:02.000Z</time>
      </trkpt>
      <trkpt lat="27.983386" lon="86.831686">
        <ele>5163.2</ele>
        <time>2022-10-26T10:38:04.000Z</time>
      </trkpt>
      <trkpt lat="27.983363" lon="86.831667">
        <ele>5163.8</ele>
        <time>2022-10-26T10:38:08.000Z</time>
      </trkpt>
      <trkpt lat="27.983354" lon="86.831648">
        <ele>5163.8</ele>
        <time>2022-10-26T10:38:10.000Z</time>
      </trkpt>
      <trkpt lat="27.983344" lon="86.831629">
        <ele>5163.8</ele>
        <time>2022-10-26T10:38:12.000Z</time>
      </trkpt>
      <trkpt lat="27.983331" lon="86.83161">
        <ele>5163.8</ele>
        <time>2022-10-26T10:38:14.000Z</time>
      </trkpt>
      <trkpt lat="27.983322" lon="86.83159">
        <ele>5164</ele>
        <time>2022-10-26T10:38:17.000Z</time>
      </trkpt>
      <trkpt lat="27.983302" lon="86.831571">
        <ele>5164.2</ele>
        <time>2022-10-26T10:38:20.000Z</time>
      </trkpt>
      <trkpt lat="27.98329" lon="86.831552">
        <ele>5164</ele>
        <time>2022-10-26T10:38:23.000Z</time>
      </trkpt>
      <trkpt lat="27.983274" lon="86.831533">
        <ele>5164</ele>
        <time>2022-10-26T10:38:26.000Z</time>
      </trkpt>
      <trkpt lat="27.983261" lon="86.831507">
        <ele>5163.8</ele>
        <time>2022-10-26T10:38:30.000Z</time>
      </trkpt>
      <trkpt lat="27.983245" lon="86.831488">
        <ele>5164.2</ele>
        <time>2022-10-26T10:38:33.000Z</time>
      </trkpt>
      <trkpt lat="27.983222" lon="86.831482">
        <ele>5164.2</ele>
        <time>2022-10-26T10:38:36.000Z</time>
      </trkpt>
      <trkpt lat="27.983206" lon="86.831469">
        <ele>5163.8</ele>
        <time>2022-10-26T10:38:38.000Z</time>
      </trkpt>
      <trkpt lat="27.983184" lon="86.831443">
        <ele>5163.8</ele>
        <time>2022-10-26T10:38:41.000Z</time>
      </trkpt>
      <trkpt lat="27.983171" lon="86.831424">
        <ele>5163.8</ele>
        <time>2022-10-26T10:38:44.000Z</time>
      </trkpt>
      <trkpt lat="27.983158" lon="86.831405">
        <ele>5163.8</ele>
        <time>2022-10-26T10:38:46.000Z</time>
      </trkpt>
      <trkpt lat="27.983139" lon="86.831392">
        <ele>5163.8</ele>
        <time>2022-10-26T10:38:49.000Z</time>
      </trkpt>
      <trkpt lat="27.98313" lon="86.831373">
        <ele>5163.8</ele>
        <time>2022-10-26T10:38:51.000Z</time>
      </trkpt>
      <trkpt lat="27.983114" lon="86.83136">
        <ele>5163.6</ele>
        <time>2022-10-26T10:38:54.000Z</time>
      </trkpt>
      <trkpt lat="27.983094" lon="86.831354">
        <ele>5163.6</ele>
        <time>2022-10-26T10:38:57.000Z</time>
      </trkpt>
      <trkpt lat="27.983085" lon="86.831334">
        <ele>5163.4</ele>
        <time>2022-10-26T10:38:59.000Z</time>
      </trkpt>
      <trkpt lat="27.983066" lon="86.831315">
        <ele>5163.4</ele>
        <time>2022-10-26T10:39:02.000Z</time>
      </trkpt>
      <trkpt lat="27.983046" lon="86.831296">
        <ele>5163.4</ele>
        <time>2022-10-26T10:39:05.000Z</time>
      </trkpt>
      <trkpt lat="27.983037" lon="86.831277">
        <ele>5163.4</ele>
        <time>2022-10-26T10:39:08.000Z</time>
      </trkpt>
      <trkpt lat="27.983027" lon="86.831258">
        <ele>5163.4</ele>
        <time>2022-10-26T10:39:10.000Z</time>
      </trkpt>
      <trkpt lat="27.983008" lon="86.831238">
        <ele>5163.2</ele>
        <time>2022-10-26T10:39:14.000Z</time>
      </trkpt>
      <trkpt lat="27.982995" lon="86.831213">
        <ele>5163.2</ele>
        <time>2022-10-26T10:39:17.000Z</time>
      </trkpt>
      <trkpt lat="27.98297" lon="86.8312">
        <ele>5163.2</ele>
        <time>2022-10-26T10:39:20.000Z</time>
      </trkpt>
      <trkpt lat="27.982957" lon="86.831174">
        <ele>5163.2</ele>
        <time>2022-10-26T10:39:23.000Z</time>
      </trkpt>
      <trkpt lat="27.982944" lon="86.831155">
        <ele>5162.8</ele>
        <time>2022-10-26T10:39:26.000Z</time>
      </trkpt>
      <trkpt lat="27.982934" lon="86.831136">
        <ele>5162.8</ele>
        <time>2022-10-26T10:39:28.000Z</time>
      </trkpt>
      <trkpt lat="27.982928" lon="86.831117">
        <ele>5162.8</ele>
        <time>2022-10-26T10:39:30.000Z</time>
      </trkpt>
      <trkpt lat="27.982918" lon="86.831098">
        <ele>5162.6</ele>
        <time>2022-10-26T10:39:32.000Z</time>
      </trkpt>
      <trkpt lat="27.982912" lon="86.831078">
        <ele>5162.8</ele>
        <time>2022-10-26T10:39:34.000Z</time>
      </trkpt>
      <trkpt lat="27.982906" lon="86.831059">
        <ele>5162.8</ele>
        <time>2022-10-26T10:39:36.000Z</time>
      </trkpt>
      <trkpt lat="27.98289" lon="86.83104">
        <ele>5162.8</ele>
        <time>2022-10-26T10:39:39.000Z</time>
      </trkpt>
      <trkpt lat="27.98289" lon="86.831014">
        <ele>5163</ele>
        <time>2022-10-26T10:39:41.000Z</time>
      </trkpt>
      <trkpt lat="27.982877" lon="86.830995">
        <ele>5163.4</ele>
        <time>2022-10-26T10:39:44.000Z</time>
      </trkpt>
      <trkpt lat="27.982867" lon="86.830976">
        <ele>5163.4</ele>
        <time>2022-10-26T10:39:46.000Z</time>
      </trkpt>
      <trkpt lat="27.982851" lon="86.830957">
        <ele>5163.4</ele>
        <time>2022-10-26T10:39:49.000Z</time>
      </trkpt>
      <trkpt lat="27.982838" lon="86.830938">
        <ele>5163</ele>
        <time>2022-10-26T10:39:51.000Z</time>
      </trkpt>
      <trkpt lat="27.982829" lon="86.830918">
        <ele>5163</ele>
        <time>2022-10-26T10:39:53.000Z</time>
      </trkpt>
      <trkpt lat="27.98281" lon="86.830899">
        <ele>5163</ele>
        <time>2022-10-26T10:39:56.000Z</time>
      </trkpt>
      <trkpt lat="27.982797" lon="86.830874">
        <ele>5163</ele>
        <time>2022-10-26T10:39:59.000Z</time>
      </trkpt>
      <trkpt lat="27.982784" lon="86.830854">
        <ele>5162.8</ele>
        <time>2022-10-26T10:40:02.000Z</time>
      </trkpt>
      <trkpt lat="27.982768" lon="86.830842">
        <ele>5163</ele>
        <time>2022-10-26T10:40:05.000Z</time>
      </trkpt>
      <trkpt lat="27.982752" lon="86.830829">
        <ele>5163.2</ele>
        <time>2022-10-26T10:40:08.000Z</time>
      </trkpt>
      <trkpt lat="27.982746" lon="86.83081">
        <ele>5163</ele>
        <time>2022-10-26T10:40:10.000Z</time>
      </trkpt>
      <trkpt lat="27.982736" lon="86.83079">
        <ele>5163.2</ele>
        <time>2022-10-26T10:40:12.000Z</time>
      </trkpt>
      <trkpt lat="27.982723" lon="86.830771">
        <ele>5163.2</ele>
        <time>2022-10-26T10:40:15.000Z</time>
      </trkpt>
      <trkpt lat="27.982714" lon="86.830752">
        <ele>5163.2</ele>
        <time>2022-10-26T10:40:18.000Z</time>
      </trkpt>
      <trkpt lat="27.982698" lon="86.830726">
        <ele>5163.2</ele>
        <time>2022-10-26T10:40:21.000Z</time>
      </trkpt>
      <trkpt lat="27.982682" lon="86.830714">
        <ele>5163.4</ele>
        <time>2022-10-26T10:40:25.000Z</time>
      </trkpt>
      <trkpt lat="27.982672" lon="86.830694">
        <ele>5163</ele>
        <time>2022-10-26T10:40:27.000Z</time>
      </trkpt>
      <trkpt lat="27.982656" lon="86.830675">
        <ele>5163.4</ele>
        <time>2022-10-26T10:40:31.000Z</time>
      </trkpt>
      <trkpt lat="27.98264" lon="86.830656">
        <ele>5163.6</ele>
        <time>2022-10-26T10:40:36.000Z</time>
      </trkpt>
      <trkpt lat="27.982621" lon="86.830643">
        <ele>5163.6</ele>
        <time>2022-10-26T10:40:40.000Z</time>
      </trkpt>
      <trkpt lat="27.982605" lon="86.830618">
        <ele>5163.4</ele>
        <time>2022-10-26T10:40:44.000Z</time>
      </trkpt>
      <trkpt lat="27.982598" lon="86.830598">
        <ele>5163.4</ele>
        <time>2022-10-26T10:40:47.000Z</time>
      </trkpt>
      <trkpt lat="27.982592" lon="86.830579">
        <ele>5163.4</ele>
        <time>2022-10-26T10:40:50.000Z</time>
      </trkpt>
      <trkpt lat="27.982582" lon="86.83056">
        <ele>5163.4</ele>
        <time>2022-10-26T10:40:53.000Z</time>
      </trkpt>
      <trkpt lat="27.98257" lon="86.830541">
        <ele>5163.2</ele>
        <time>2022-10-26T10:40:56.000Z</time>
      </trkpt>
      <trkpt lat="27.982557" lon="86.830522">
        <ele>5163.4</ele>
        <time>2022-10-26T10:40:59.000Z</time>
      </trkpt>
      <trkpt lat="27.982538" lon="86.830502">
        <ele>5163.2</ele>
        <time>2022-10-26T10:41:03.000Z</time>
      </trkpt>
      <trkpt lat="27.982518" lon="86.83049">
        <ele>5163.2</ele>
        <time>2022-10-26T10:41:06.000Z</time>
      </trkpt>
      <trkpt lat="27.982499" lon="86.830477">
        <ele>5163.2</ele>
        <time>2022-10-26T10:41:10.000Z</time>
      </trkpt>
      <trkpt lat="27.982493" lon="86.830458">
        <ele>5163.8</ele>
        <time>2022-10-26T10:41:12.000Z</time>
      </trkpt>
      <trkpt lat="27.982486" lon="86.830438">
        <ele>5163.4</ele>
        <time>2022-10-26T10:41:15.000Z</time>
      </trkpt>
      <trkpt lat="27.98248" lon="86.830419">
        <ele>5163.4</ele>
        <time>2022-10-26T10:41:17.000Z</time>
      </trkpt>
      <trkpt lat="27.982467" lon="86.8304">
        <ele>5163.4</ele>
        <time>2022-10-26T10:41:20.000Z</time>
      </trkpt>
      <trkpt lat="27.982454" lon="86.830381">
        <ele>5163.4</ele>
        <time>2022-10-26T10:41:22.000Z</time>
      </trkpt>
      <trkpt lat="27.982445" lon="86.830362">
        <ele>5163</ele>
        <time>2022-10-26T10:41:25.000Z</time>
      </trkpt>
      <trkpt lat="27.982438" lon="86.830342">
        <ele>5163.4</ele>
        <time>2022-10-26T10:41:27.000Z</time>
      </trkpt>
      <trkpt lat="27.982422" lon="86.830323">
        <ele>5163.4</ele>
        <time>2022-10-26T10:41:30.000Z</time>
      </trkpt>
      <trkpt lat="27.982413" lon="86.830304">
        <ele>5163.4</ele>
        <time>2022-10-26T10:41:32.000Z</time>
      </trkpt>
      <trkpt lat="27.9824" lon="86.830285">
        <ele>5163</ele>
        <time>2022-10-26T10:41:35.000Z</time>
      </trkpt>
      <trkpt lat="27.982387" lon="86.830259">
        <ele>5163</ele>
        <time>2022-10-26T10:41:38.000Z</time>
      </trkpt>
      <trkpt lat="27.982371" lon="86.83024">
        <ele>5163.6</ele>
        <time>2022-10-26T10:41:41.000Z</time>
      </trkpt>
      <trkpt lat="27.982355" lon="86.830221">
        <ele>5164</ele>
        <time>2022-10-26T10:41:44.000Z</time>
      </trkpt>
      <trkpt lat="27.982339" lon="86.830202">
        <ele>5164</ele>
        <time>2022-10-26T10:41:48.000Z</time>
      </trkpt>
      <trkpt lat="27.982333" lon="86.830182">
        <ele>5164</ele>
        <time>2022-10-26T10:41:50.000Z</time>
      </trkpt>
      <trkpt lat="27.98232" lon="86.830163">
        <ele>5164</ele>
        <time>2022-10-26T10:41:53.000Z</time>
      </trkpt>
      <trkpt lat="27.982314" lon="86.830144">
        <ele>5164</ele>
        <time>2022-10-26T10:41:55.000Z</time>
      </trkpt>
      <trkpt lat="27.982294" lon="86.830125">
        <ele>5164</ele>
        <time>2022-10-26T10:41:59.000Z</time>
      </trkpt>
      <trkpt lat="27.982282" lon="86.830106">
        <ele>5164.2</ele>
        <time>2022-10-26T10:42:02.000Z</time>
      </trkpt>
      <trkpt lat="27.982262" lon="86.830099">
        <ele>5164.6</ele>
        <time>2022-10-26T10:42:06.000Z</time>
      </trkpt>
      <trkpt lat="27.982253" lon="86.83008">
        <ele>5164.8</ele>
        <time>2022-10-26T10:42:09.000Z</time>
      </trkpt>
      <trkpt lat="27.982243" lon="86.830061">
        <ele>5164.8</ele>
        <time>2022-10-26T10:42:11.000Z</time>
      </trkpt>
      <trkpt lat="27.982221" lon="86.830054">
        <ele>5165</ele>
        <time>2022-10-26T10:42:14.000Z</time>
      </trkpt>
      <trkpt lat="27.982211" lon="86.830035">
        <ele>5165</ele>
        <time>2022-10-26T10:42:17.000Z</time>
      </trkpt>
      <trkpt lat="27.982195" lon="86.830016">
        <ele>5165</ele>
        <time>2022-10-26T10:42:20.000Z</time>
      </trkpt>
      <trkpt lat="27.982179" lon="86.830003">
        <ele>5164.8</ele>
        <time>2022-10-26T10:42:23.000Z</time>
      </trkpt>
      <trkpt lat="27.982166" lon="86.829984">
        <ele>5164.8</ele>
        <time>2022-10-26T10:42:26.000Z</time>
      </trkpt>
      <trkpt lat="27.982147" lon="86.829978">
        <ele>5165</ele>
        <time>2022-10-26T10:42:29.000Z</time>
      </trkpt>
      <trkpt lat="27.982131" lon="86.829965">
        <ele>5165</ele>
        <time>2022-10-26T10:42:32.000Z</time>
      </trkpt>
      <trkpt lat="27.982125" lon="86.829946">
        <ele>5165</ele>
        <time>2022-10-26T10:42:33.000Z</time>
      </trkpt>
      <trkpt lat="27.982109" lon="86.829933">
        <ele>5164.8</ele>
        <time>2022-10-26T10:42:37.000Z</time>
      </trkpt>
      <trkpt lat="27.982096" lon="86.829907">
        <ele>5165</ele>
        <time>2022-10-26T10:42:41.000Z</time>
      </trkpt>
      <trkpt lat="27.982077" lon="86.829888">
        <ele>5165.4</ele>
        <time>2022-10-26T10:42:45.000Z</time>
      </trkpt>
      <trkpt lat="27.982061" lon="86.829862">
        <ele>5165.4</ele>
        <time>2022-10-26T10:42:48.000Z</time>
      </trkpt>
      <trkpt lat="27.982045" lon="86.829843">
        <ele>5165.2</ele>
        <time>2022-10-26T10:42:51.000Z</time>
      </trkpt>
      <trkpt lat="27.982035" lon="86.829824">
        <ele>5165</ele>
        <time>2022-10-26T10:42:53.000Z</time>
      </trkpt>
      <trkpt lat="27.982016" lon="86.829805">
        <ele>5165.6</ele>
        <time>2022-10-26T10:42:57.000Z</time>
      </trkpt>
      <trkpt lat="27.982006" lon="86.829786">
        <ele>5165.2</ele>
        <time>2022-10-26T10:42:59.000Z</time>
      </trkpt>
      <trkpt lat="27.98199" lon="86.829773">
        <ele>5165.8</ele>
        <time>2022-10-26T10:43:03.000Z</time>
      </trkpt>
      <trkpt lat="27.981971" lon="86.829747">
        <ele>5166</ele>
        <time>2022-10-26T10:43:06.000Z</time>
      </trkpt>
      <trkpt lat="27.981952" lon="86.829734">
        <ele>5166</ele>
        <time>2022-10-26T10:43:09.000Z</time>
      </trkpt>
      <trkpt lat="27.981936" lon="86.829709">
        <ele>5166.4</ele>
        <time>2022-10-26T10:43:12.000Z</time>
      </trkpt>
      <trkpt lat="27.981917" lon="86.829696">
        <ele>5166</ele>
        <time>2022-10-26T10:43:21.000Z</time>
      </trkpt>
      <trkpt lat="27.98191" lon="86.829677">
        <ele>5166</ele>
        <time>2022-10-26T10:43:25.000Z</time>
      </trkpt>
      <trkpt lat="27.981901" lon="86.829658">
        <ele>5166</ele>
        <time>2022-10-26T10:43:27.000Z</time>
      </trkpt>
      <trkpt lat="27.981891" lon="86.829638">
        <ele>5165.8</ele>
        <time>2022-10-26T10:43:30.000Z</time>
      </trkpt>
      <trkpt lat="27.981872" lon="86.829619">
        <ele>5166.4</ele>
        <time>2022-10-26T10:43:33.000Z</time>
      </trkpt>
      <trkpt lat="27.981856" lon="86.8296">
        <ele>5166.4</ele>
        <time>2022-10-26T10:43:36.000Z</time>
      </trkpt>
      <trkpt lat="27.981843" lon="86.829581">
        <ele>5166</ele>
        <time>2022-10-26T10:43:39.000Z</time>
      </trkpt>
      <trkpt lat="27.981827" lon="86.829549">
        <ele>5165.8</ele>
        <time>2022-10-26T10:43:42.000Z</time>
      </trkpt>
      <trkpt lat="27.981811" lon="86.829536">
        <ele>5166.4</ele>
        <time>2022-10-26T10:43:45.000Z</time>
      </trkpt>
      <trkpt lat="27.981795" lon="86.82951">
        <ele>5166</ele>
        <time>2022-10-26T10:43:49.000Z</time>
      </trkpt>
      <trkpt lat="27.981779" lon="86.829491">
        <ele>5165.8</ele>
        <time>2022-10-26T10:43:52.000Z</time>
      </trkpt>
      <trkpt lat="27.98176" lon="86.829478">
        <ele>5166</ele>
        <time>2022-10-26T10:43:55.000Z</time>
      </trkpt>
      <trkpt lat="27.981747" lon="86.829459">
        <ele>5166</ele>
        <time>2022-10-26T10:43:57.000Z</time>
      </trkpt>
      <trkpt lat="27.981734" lon="86.829427">
        <ele>5166.4</ele>
        <time>2022-10-26T10:44:00.000Z</time>
      </trkpt>
      <trkpt lat="27.981718" lon="86.829414">
        <ele>5166</ele>
        <time>2022-10-26T10:44:03.000Z</time>
      </trkpt>
      <trkpt lat="27.981709" lon="86.829389">
        <ele>5166.4</ele>
        <time>2022-10-26T10:44:06.000Z</time>
      </trkpt>
      <trkpt lat="27.981696" lon="86.82937">
        <ele>5166.4</ele>
        <time>2022-10-26T10:44:09.000Z</time>
      </trkpt>
      <trkpt lat="27.981683" lon="86.82935">
        <ele>5166</ele>
        <time>2022-10-26T10:44:11.000Z</time>
      </trkpt>
      <trkpt lat="27.981667" lon="86.829338">
        <ele>5166.4</ele>
        <time>2022-10-26T10:44:14.000Z</time>
      </trkpt>
      <trkpt lat="27.981651" lon="86.829325">
        <ele>5166.4</ele>
        <time>2022-10-26T10:44:17.000Z</time>
      </trkpt>
      <trkpt lat="27.981638" lon="86.829306">
        <ele>5166.6</ele>
        <time>2022-10-26T10:44:19.000Z</time>
      </trkpt>
      <trkpt lat="27.981619" lon="86.829293">
        <ele>5166.4</ele>
        <time>2022-10-26T10:44:22.000Z</time>
      </trkpt>
      <trkpt lat="27.981597" lon="86.829267">
        <ele>5165.8</ele>
        <time>2022-10-26T10:44:26.000Z</time>
      </trkpt>
      <trkpt lat="27.981584" lon="86.829248">
        <ele>5166.8</ele>
        <time>2022-10-26T10:44:29.000Z</time>
      </trkpt>
      <trkpt lat="27.981571" lon="86.829229">
        <ele>5166.8</ele>
        <time>2022-10-26T10:44:32.000Z</time>
      </trkpt>
      <trkpt lat="27.981555" lon="86.829203">
        <ele>5166</ele>
        <time>2022-10-26T10:45:06.000Z</time>
      </trkpt>
      <trkpt lat="27.981533" lon="86.829184">
        <ele>5166</ele>
        <time>2022-10-26T10:45:08.000Z</time>
      </trkpt>
      <trkpt lat="27.981504" lon="86.829171">
        <ele>5166</ele>
        <time>2022-10-26T10:45:10.000Z</time>
      </trkpt>
      <trkpt lat="27.981485" lon="86.829171">
        <ele>5166</ele>
        <time>2022-10-26T10:45:11.000Z</time>
      </trkpt>
      <trkpt lat="27.981462" lon="86.829152">
        <ele>5166.4</ele>
        <time>2022-10-26T10:45:13.000Z</time>
      </trkpt>
      <trkpt lat="27.981443" lon="86.829139">
        <ele>5166.4</ele>
        <time>2022-10-26T10:45:16.000Z</time>
      </trkpt>
      <trkpt lat="27.981418" lon="86.829133">
        <ele>5165.8</ele>
        <time>2022-10-26T10:45:19.000Z</time>
      </trkpt>
      <trkpt lat="27.981376" lon="86.82912">
        <ele>5166.4</ele>
        <time>2022-10-26T10:45:26.000Z</time>
      </trkpt>
      <trkpt lat="27.98136" lon="86.829107">
        <ele>5166.8</ele>
        <time>2022-10-26T10:45:29.000Z</time>
      </trkpt>
      <trkpt lat="27.981338" lon="86.829101">
        <ele>5166.8</ele>
        <time>2022-10-26T10:45:32.000Z</time>
      </trkpt>
      <trkpt lat="27.981168" lon="86.828979">
        <ele>5163.6</ele>
        <time>2022-10-27T01:23:43.000Z</time>
      </trkpt>
      <trkpt lat="27.981194" lon="86.828979">
        <ele>5163.2</ele>
        <time>2022-10-27T01:23:45.000Z</time>
      </trkpt>
      <trkpt lat="27.981213" lon="86.828973">
        <ele>5163</ele>
        <time>2022-10-27T01:23:47.000Z</time>
      </trkpt>
      <trkpt lat="27.981235" lon="86.828966">
        <ele>5163</ele>
        <time>2022-10-27T01:23:48.000Z</time>
      </trkpt>
      <trkpt lat="27.981258" lon="86.828973">
        <ele>5163.2</ele>
        <time>2022-10-27T01:23:49.000Z</time>
      </trkpt>
      <trkpt lat="27.98128" lon="86.828966">
        <ele>5163.2</ele>
        <time>2022-10-27T01:23:51.000Z</time>
      </trkpt>
      <trkpt lat="27.981302" lon="86.828966">
        <ele>5163.6</ele>
        <time>2022-10-27T01:23:53.000Z</time>
      </trkpt>
      <trkpt lat="27.981331" lon="86.828973">
        <ele>5163.8</ele>
        <time>2022-10-27T01:23:56.000Z</time>
      </trkpt>
      <trkpt lat="27.98135" lon="86.828973">
        <ele>5163.6</ele>
        <time>2022-10-27T01:23:58.000Z</time>
      </trkpt>
      <trkpt lat="27.981373" lon="86.828973">
        <ele>5163.6</ele>
        <time>2022-10-27T01:24:00.000Z</time>
      </trkpt>
      <trkpt lat="27.981398" lon="86.828966">
        <ele>5164</ele>
        <time>2022-10-27T01:24:03.000Z</time>
      </trkpt>
      <trkpt lat="27.981424" lon="86.828966">
        <ele>5164.4</ele>
        <time>2022-10-27T01:24:05.000Z</time>
      </trkpt>
      <trkpt lat="27.98145" lon="86.828954">
        <ele>5164</ele>
        <time>2022-10-27T01:24:07.000Z</time>
      </trkpt>
      <trkpt lat="27.981472" lon="86.828966">
        <ele>5163.8</ele>
        <time>2022-10-27T01:24:09.000Z</time>
      </trkpt>
      <trkpt lat="27.981488" lon="86.828954">
        <ele>5163.8</ele>
        <time>2022-10-27T01:24:11.000Z</time>
      </trkpt>
      <trkpt lat="27.981514" lon="86.828954">
        <ele>5164.6</ele>
        <time>2022-10-27T01:24:15.000Z</time>
      </trkpt>
      <trkpt lat="27.981536" lon="86.828947">
        <ele>5165</ele>
        <time>2022-10-27T01:24:21.000Z</time>
      </trkpt>
      <trkpt lat="27.981594" lon="86.828947">
        <ele>5164.6</ele>
        <time>2022-10-27T01:25:11.000Z</time>
      </trkpt>
      <trkpt lat="27.981619" lon="86.828947">
        <ele>5164</ele>
        <time>2022-10-27T01:25:13.000Z</time>
      </trkpt>
      <trkpt lat="27.981648" lon="86.828954">
        <ele>5164</ele>
        <time>2022-10-27T01:25:15.000Z</time>
      </trkpt>
      <trkpt lat="27.981674" lon="86.828954">
        <ele>5164.6</ele>
        <time>2022-10-27T01:25:17.000Z</time>
      </trkpt>
      <trkpt lat="27.981702" lon="86.828954">
        <ele>5164.6</ele>
        <time>2022-10-27T01:25:19.000Z</time>
      </trkpt>
      <trkpt lat="27.981725" lon="86.828954">
        <ele>5164.6</ele>
        <time>2022-10-27T01:25:21.000Z</time>
      </trkpt>
      <trkpt lat="27.98175" lon="86.828966">
        <ele>5164</ele>
        <time>2022-10-27T01:25:24.000Z</time>
      </trkpt>
      <trkpt lat="27.981773" lon="86.828966">
        <ele>5164</ele>
        <time>2022-10-27T01:25:26.000Z</time>
      </trkpt>
      <trkpt lat="27.981798" lon="86.828973">
        <ele>5163.8</ele>
        <time>2022-10-27T01:25:29.000Z</time>
      </trkpt>
      <trkpt lat="27.981818" lon="86.828973">
        <ele>5164</ele>
        <time>2022-10-27T01:25:31.000Z</time>
      </trkpt>
      <trkpt lat="27.981843" lon="86.828973">
        <ele>5163.8</ele>
        <time>2022-10-27T01:25:33.000Z</time>
      </trkpt>
      <trkpt lat="27.981869" lon="86.828973">
        <ele>5163.8</ele>
        <time>2022-10-27T01:25:36.000Z</time>
      </trkpt>
      <trkpt lat="27.981891" lon="86.828973">
        <ele>5163.8</ele>
        <time>2022-10-27T01:25:38.000Z</time>
      </trkpt>
      <trkpt lat="27.981939" lon="86.828979">
        <ele>5163.6</ele>
        <time>2022-10-27T01:25:42.000Z</time>
      </trkpt>
      <trkpt lat="27.981962" lon="86.828979">
        <ele>5163.8</ele>
        <time>2022-10-27T01:25:44.000Z</time>
      </trkpt>
      <trkpt lat="27.98199" lon="86.828979">
        <ele>5163.8</ele>
        <time>2022-10-27T01:25:47.000Z</time>
      </trkpt>
      <trkpt lat="27.982016" lon="86.828979">
        <ele>5164</ele>
        <time>2022-10-27T01:25:50.000Z</time>
      </trkpt>
      <trkpt lat="27.982042" lon="86.828979">
        <ele>5164</ele>
        <time>2022-10-27T01:25:53.000Z</time>
      </trkpt>
      <trkpt lat="27.982061" lon="86.828979">
        <ele>5164</ele>
        <time>2022-10-27T01:25:55.000Z</time>
      </trkpt>
      <trkpt lat="27.98208" lon="86.828979">
        <ele>5164</ele>
        <time>2022-10-27T01:25:57.000Z</time>
      </trkpt>
      <trkpt lat="27.982099" lon="86.828979">
        <ele>5164</ele>
        <time>2022-10-27T01:25:59.000Z</time>
      </trkpt>
      <trkpt lat="27.982122" lon="86.828979">
        <ele>5163.8</ele>
        <time>2022-10-27T01:26:01.000Z</time>
      </trkpt>
      <trkpt lat="27.982141" lon="86.828986">
        <ele>5163.8</ele>
        <time>2022-10-27T01:26:03.000Z</time>
      </trkpt>
      <trkpt lat="27.98216" lon="86.828992">
        <ele>5164.4</ele>
        <time>2022-10-27T01:26:06.000Z</time>
      </trkpt>
      <trkpt lat="27.982179" lon="86.828992">
        <ele>5164.4</ele>
        <time>2022-10-27T01:26:08.000Z</time>
      </trkpt>
      <trkpt lat="27.982198" lon="86.828986">
        <ele>5164</ele>
        <time>2022-10-27T01:26:10.000Z</time>
      </trkpt>
      <trkpt lat="27.98223" lon="86.828992">
        <ele>5163.8</ele>
        <time>2022-10-27T01:26:13.000Z</time>
      </trkpt>
      <trkpt lat="27.982253" lon="86.829005">
        <ele>5163.8</ele>
        <time>2022-10-27T01:26:16.000Z</time>
      </trkpt>
      <trkpt lat="27.982278" lon="86.829005">
        <ele>5164.4</ele>
        <time>2022-10-27T01:26:19.000Z</time>
      </trkpt>
      <trkpt lat="27.982304" lon="86.829005">
        <ele>5164.4</ele>
        <time>2022-10-27T01:26:22.000Z</time>
      </trkpt>
      <trkpt lat="27.98232" lon="86.828992">
        <ele>5165</ele>
        <time>2022-10-27T01:26:26.000Z</time>
      </trkpt>
      <trkpt lat="27.982342" lon="86.828992">
        <ele>5165.8</ele>
        <time>2022-10-27T01:26:31.000Z</time>
      </trkpt>
      <trkpt lat="27.982362" lon="86.828992">
        <ele>5166.4</ele>
        <time>2022-10-27T01:26:36.000Z</time>
      </trkpt>
      <trkpt lat="27.982381" lon="86.828986">
        <ele>5166.6</ele>
        <time>2022-10-27T01:26:42.000Z</time>
      </trkpt>
      <trkpt lat="27.9824" lon="86.828979">
        <ele>5167.2</ele>
        <time>2022-10-27T01:26:47.000Z</time>
      </trkpt>
      <trkpt lat="27.982419" lon="86.828986">
        <ele>5167.8</ele>
        <time>2022-10-27T01:26:52.000Z</time>
      </trkpt>
      <trkpt lat="27.982438" lon="86.828973">
        <ele>5168.2</ele>
        <time>2022-10-27T01:26:59.000Z</time>
      </trkpt>
      <trkpt lat="27.982451" lon="86.828954">
        <ele>5169.2</ele>
        <time>2022-10-27T01:27:03.000Z</time>
      </trkpt>
      <trkpt lat="27.98247" lon="86.828954">
        <ele>5169.8</ele>
        <time>2022-10-27T01:27:12.000Z</time>
      </trkpt>
      <trkpt lat="27.982477" lon="86.828973">
        <ele>5170.2</ele>
        <time>2022-10-27T01:27:16.000Z</time>
      </trkpt>
      <trkpt lat="27.982486" lon="86.828992">
        <ele>5171.2</ele>
        <time>2022-10-27T01:27:23.000Z</time>
      </trkpt>
      <trkpt lat="27.982499" lon="86.829011">
        <ele>5171.6</ele>
        <time>2022-10-27T01:27:28.000Z</time>
      </trkpt>
      <trkpt lat="27.982502" lon="86.829043">
        <ele>5172.2</ele>
        <time>2022-10-27T01:27:36.000Z</time>
      </trkpt>
      <trkpt lat="27.982522" lon="86.82905">
        <ele>5173.4</ele>
        <time>2022-10-27T01:27:47.000Z</time>
      </trkpt>
      <trkpt lat="27.982531" lon="86.829069">
        <ele>5174.4</ele>
        <time>2022-10-27T01:27:53.000Z</time>
      </trkpt>
      <trkpt lat="27.982534" lon="86.829094">
        <ele>5175</ele>
        <time>2022-10-27T01:28:00.000Z</time>
      </trkpt>
      <trkpt lat="27.982554" lon="86.829107">
        <ele>5176</ele>
        <time>2022-10-27T01:28:08.000Z</time>
      </trkpt>
      <trkpt lat="27.982573" lon="86.829107">
        <ele>5176.8</ele>
        <time>2022-10-27T01:28:15.000Z</time>
      </trkpt>
      <trkpt lat="27.982579" lon="86.829126">
        <ele>5176.8</ele>
        <time>2022-10-27T01:28:19.000Z</time>
      </trkpt>
      <trkpt lat="27.982598" lon="86.829139">
        <ele>5177.8</ele>
        <time>2022-10-27T01:28:30.000Z</time>
      </trkpt>
      <trkpt lat="27.982614" lon="86.829152">
        <ele>5178.4</ele>
        <time>2022-10-27T01:28:37.000Z</time>
      </trkpt>
      <trkpt lat="27.982627" lon="86.829171">
        <ele>5179</ele>
        <time>2022-10-27T01:28:43.000Z</time>
      </trkpt>
      <trkpt lat="27.982646" lon="86.829178">
        <ele>5179.6</ele>
        <time>2022-10-27T01:28:49.000Z</time>
      </trkpt>
      <trkpt lat="27.98265" lon="86.829152">
        <ele>5180.8</ele>
        <time>2022-10-27T01:28:59.000Z</time>
      </trkpt>
      <trkpt lat="27.98264" lon="86.829133">
        <ele>5181.2</ele>
        <time>2022-10-27T01:29:05.000Z</time>
      </trkpt>
      <trkpt lat="27.982749" lon="86.828992">
        <ele>5191.8</ele>
        <time>2022-10-27T01:34:32.000Z</time>
      </trkpt>
      <trkpt lat="27.982717" lon="86.828966">
        <ele>5195.2</ele>
        <time>2022-10-27T01:36:12.000Z</time>
      </trkpt>
      <trkpt lat="27.982736" lon="86.828966">
        <ele>5195.4</ele>
        <time>2022-10-27T01:36:13.000Z</time>
      </trkpt>
      <trkpt lat="27.982755" lon="86.828973">
        <ele>5195.4</ele>
        <time>2022-10-27T01:36:15.000Z</time>
      </trkpt>
      <trkpt lat="27.982774" lon="86.828973">
        <ele>5195.4</ele>
        <time>2022-10-27T01:36:17.000Z</time>
      </trkpt>
      <trkpt lat="27.982806" lon="86.828973">
        <ele>5195.6</ele>
        <time>2022-10-27T01:36:21.000Z</time>
      </trkpt>
      <trkpt lat="27.982826" lon="86.828973">
        <ele>5197</ele>
        <time>2022-10-27T01:36:30.000Z</time>
      </trkpt>
      <trkpt lat="27.982845" lon="86.828966">
        <ele>5197.4</ele>
        <time>2022-10-27T01:36:36.000Z</time>
      </trkpt>
      <trkpt lat="27.982864" lon="86.828973">
        <ele>5198.2</ele>
        <time>2022-10-27T01:36:41.000Z</time>
      </trkpt>
      <trkpt lat="27.982883" lon="86.828973">
        <ele>5198.8</ele>
        <time>2022-10-27T01:36:49.000Z</time>
      </trkpt>
      <trkpt lat="27.982902" lon="86.828973">
        <ele>5199.6</ele>
        <time>2022-10-27T01:36:58.000Z</time>
      </trkpt>
      <trkpt lat="27.982922" lon="86.828973">
        <ele>5200.8</ele>
        <time>2022-10-27T01:37:10.000Z</time>
      </trkpt>
      <trkpt lat="27.982944" lon="86.828973">
        <ele>5201.4</ele>
        <time>2022-10-27T01:37:15.000Z</time>
      </trkpt>
      <trkpt lat="27.982963" lon="86.828979">
        <ele>5202</ele>
        <time>2022-10-27T01:37:21.000Z</time>
      </trkpt>
      <trkpt lat="27.982986" lon="86.828986">
        <ele>5202.4</ele>
        <time>2022-10-27T01:37:29.000Z</time>
      </trkpt>
      <trkpt lat="27.983005" lon="86.828992">
        <ele>5203.6</ele>
        <time>2022-10-27T01:37:38.000Z</time>
      </trkpt>
      <trkpt lat="27.983312" lon="86.829056">
        <ele>5218.6</ele>
        <time>2022-10-27T01:40:50.000Z</time>
      </trkpt>
      <trkpt lat="27.983331" lon="86.829056">
        <ele>5219.2</ele>
        <time>2022-10-27T01:40:52.000Z</time>
      </trkpt>
      <trkpt lat="27.983354" lon="86.829056">
        <ele>5219.2</ele>
        <time>2022-10-27T01:40:55.000Z</time>
      </trkpt>
      <trkpt lat="27.983373" lon="86.829062">
        <ele>5219.6</ele>
        <time>2022-10-27T01:40:58.000Z</time>
      </trkpt>
      <trkpt lat="27.983386" lon="86.829082">
        <ele>5220.4</ele>
        <time>2022-10-27T01:41:04.000Z</time>
      </trkpt>
      <trkpt lat="27.983405" lon="86.829082">
        <ele>5220.6</ele>
        <time>2022-10-27T01:41:09.000Z</time>
      </trkpt>
      <trkpt lat="27.983424" lon="86.829094">
        <ele>5221</ele>
        <time>2022-10-27T01:41:18.000Z</time>
      </trkpt>
      <trkpt lat="27.983443" lon="86.829101">
        <ele>5221.2</ele>
        <time>2022-10-27T01:41:23.000Z</time>
      </trkpt>
      <trkpt lat="27.983462" lon="86.829101">
        <ele>5222</ele>
        <time>2022-10-27T01:41:30.000Z</time>
      </trkpt>
      <trkpt lat="27.983485" lon="86.829094">
        <ele>5222.6</ele>
        <time>2022-10-27T01:41:34.000Z</time>
      </trkpt>
      <trkpt lat="27.983504" lon="86.829101">
        <ele>5223.2</ele>
        <time>2022-10-27T01:41:39.000Z</time>
      </trkpt>
      <trkpt lat="27.983523" lon="86.829101">
        <ele>5223.8</ele>
        <time>2022-10-27T01:41:43.000Z</time>
      </trkpt>
      <trkpt lat="27.983542" lon="86.829107">
        <ele>5224</ele>
        <time>2022-10-27T01:41:49.000Z</time>
      </trkpt>
      <trkpt lat="27.983562" lon="86.82912">
        <ele>5225</ele>
        <time>2022-10-27T01:41:56.000Z</time>
      </trkpt>
      <trkpt lat="27.98399" lon="86.829261">
        <ele>5240.8</ele>
        <time>2022-10-27T01:45:02.000Z</time>
      </trkpt>
      <trkpt lat="27.98401" lon="86.829267">
        <ele>5241</ele>
        <time>2022-10-27T01:45:04.000Z</time>
      </trkpt>
      <trkpt lat="27.984032" lon="86.82928">
        <ele>5241.4</ele>
        <time>2022-10-27T01:45:06.000Z</time>
      </trkpt>
      <trkpt lat="27.984109" lon="86.829293">
        <ele>5244.6</ele>
        <time>2022-10-27T01:45:41.000Z</time>
      </trkpt>
      <trkpt lat="27.984128" lon="86.82928">
        <ele>5245</ele>
        <time>2022-10-27T01:45:44.000Z</time>
      </trkpt>
      <trkpt lat="27.98417" lon="86.829222">
        <ele>5246.2</ele>
        <time>2022-10-27T01:50:11.000Z</time>
      </trkpt>
      <trkpt lat="27.984198" lon="86.829229">
        <ele>5246.8</ele>
        <time>2022-10-27T01:50:13.000Z</time>
      </trkpt>
      <trkpt lat="27.984218" lon="86.829229">
        <ele>5246.8</ele>
        <time>2022-10-27T01:50:15.000Z</time>
      </trkpt>
      <trkpt lat="27.98424" lon="86.829229">
        <ele>5246.8</ele>
        <time>2022-10-27T01:50:17.000Z</time>
      </trkpt>
      <trkpt lat="27.984262" lon="86.829229">
        <ele>5247</ele>
        <time>2022-10-27T01:50:19.000Z</time>
      </trkpt>
      <trkpt lat="27.984282" lon="86.829229">
        <ele>5246.8</ele>
        <time>2022-10-27T01:50:21.000Z</time>
      </trkpt>
      <trkpt lat="27.984301" lon="86.829242">
        <ele>5247</ele>
        <time>2022-10-27T01:50:24.000Z</time>
      </trkpt>
      <trkpt lat="27.984326" lon="86.829248">
        <ele>5247.8</ele>
        <time>2022-10-27T01:50:29.000Z</time>
      </trkpt>
      <trkpt lat="27.984346" lon="86.829261">
        <ele>5248.4</ele>
        <time>2022-10-27T01:50:34.000Z</time>
      </trkpt>
      <trkpt lat="27.984365" lon="86.829267">
        <ele>5249</ele>
        <time>2022-10-27T01:50:40.000Z</time>
      </trkpt>
      <trkpt lat="27.984378" lon="86.829286">
        <ele>5249.2</ele>
        <time>2022-10-27T01:50:50.000Z</time>
      </trkpt>
      <trkpt lat="27.984397" lon="86.829286">
        <ele>5249.8</ele>
        <time>2022-10-27T01:50:56.000Z</time>
      </trkpt>
      <trkpt lat="27.984499" lon="86.829338">
        <ele>5250.8</ele>
        <time>2022-10-27T02:16:43.000Z</time>
      </trkpt>
      <trkpt lat="27.984518" lon="86.82935">
        <ele>5251.2</ele>
        <time>2022-10-27T02:16:46.000Z</time>
      </trkpt>
      <trkpt lat="27.984534" lon="86.82937">
        <ele>5251.2</ele>
        <time>2022-10-27T02:16:48.000Z</time>
      </trkpt>
      <trkpt lat="27.984557" lon="86.829382">
        <ele>5251.8</ele>
        <time>2022-10-27T02:16:51.000Z</time>
      </trkpt>
      <trkpt lat="27.984576" lon="86.829389">
        <ele>5252.2</ele>
        <time>2022-10-27T02:16:55.000Z</time>
      </trkpt>
      <trkpt lat="27.984592" lon="86.829402">
        <ele>5253</ele>
        <time>2022-10-27T02:17:02.000Z</time>
      </trkpt>
      <trkpt lat="27.984608" lon="86.829414">
        <ele>5253.8</ele>
        <time>2022-10-27T02:17:11.000Z</time>
      </trkpt>
      <trkpt lat="27.984627" lon="86.829408">
        <ele>5254.2</ele>
        <time>2022-10-27T02:17:16.000Z</time>
      </trkpt>
      <trkpt lat="27.984646" lon="86.829421">
        <ele>5254.8</ele>
        <time>2022-10-27T02:17:21.000Z</time>
      </trkpt>
      <trkpt lat="27.984666" lon="86.829421">
        <ele>5255</ele>
        <time>2022-10-27T02:17:27.000Z</time>
      </trkpt>
      <trkpt lat="27.984685" lon="86.829421">
        <ele>5255.6</ele>
        <time>2022-10-27T02:17:33.000Z</time>
      </trkpt>
      <trkpt lat="27.984704" lon="86.829421">
        <ele>5255.8</ele>
        <time>2022-10-27T02:17:37.000Z</time>
      </trkpt>
      <trkpt lat="27.984717" lon="86.82944">
        <ele>5256.2</ele>
        <time>2022-10-27T02:17:43.000Z</time>
      </trkpt>
      <trkpt lat="27.984736" lon="86.829446">
        <ele>5256.4</ele>
        <time>2022-10-27T02:17:48.000Z</time>
      </trkpt>
      <trkpt lat="27.984752" lon="86.829459">
        <ele>5257</ele>
        <time>2022-10-27T02:17:56.000Z</time>
      </trkpt>
      <trkpt lat="27.984883" lon="86.829478">
        <ele>5260.4</ele>
        <time>2022-10-27T02:18:57.000Z</time>
      </trkpt>
      <trkpt lat="27.984902" lon="86.829485">
        <ele>5260.6</ele>
        <time>2022-10-27T02:18:59.000Z</time>
      </trkpt>
      <trkpt lat="27.984925" lon="86.829485">
        <ele>5260.6</ele>
        <time>2022-10-27T02:19:01.000Z</time>
      </trkpt>
      <trkpt lat="27.98495" lon="86.829491">
        <ele>5260.6</ele>
        <time>2022-10-27T02:19:03.000Z</time>
      </trkpt>
      <trkpt lat="27.984976" lon="86.829498">
        <ele>5260.6</ele>
        <time>2022-10-27T02:19:05.000Z</time>
      </trkpt>
      <trkpt lat="27.984998" lon="86.829498">
        <ele>5261.4</ele>
        <time>2022-10-27T02:19:08.000Z</time>
      </trkpt>
      <trkpt lat="27.985021" lon="86.82951">
        <ele>5261.8</ele>
        <time>2022-10-27T02:19:13.000Z</time>
      </trkpt>
      <trkpt lat="27.98504" lon="86.82953">
        <ele>5262</ele>
        <time>2022-10-27T02:19:17.000Z</time>
      </trkpt>
      <trkpt lat="27.985059" lon="86.82953">
        <ele>5262</ele>
        <time>2022-10-27T02:19:21.000Z</time>
      </trkpt>
      <trkpt lat="27.985078" lon="86.829536">
        <ele>5262.4</ele>
        <time>2022-10-27T02:19:25.000Z</time>
      </trkpt>
      <trkpt lat="27.985098" lon="86.829542">
        <ele>5262.6</ele>
        <time>2022-10-27T02:19:30.000Z</time>
      </trkpt>
      <trkpt lat="27.985117" lon="86.829549">
        <ele>5263</ele>
        <time>2022-10-27T02:19:34.000Z</time>
      </trkpt>
      <trkpt lat="27.985133" lon="86.829562">
        <ele>5263</ele>
        <time>2022-10-27T02:19:37.000Z</time>
      </trkpt>
      <trkpt lat="27.985155" lon="86.829562">
        <ele>5263.6</ele>
        <time>2022-10-27T02:19:42.000Z</time>
      </trkpt>
      <trkpt lat="27.985178" lon="86.829574">
        <ele>5263.6</ele>
        <time>2022-10-27T02:19:47.000Z</time>
      </trkpt>
      <trkpt lat="27.985197" lon="86.829574">
        <ele>5264</ele>
        <time>2022-10-27T02:19:52.000Z</time>
      </trkpt>
      <trkpt lat="27.985216" lon="86.829574">
        <ele>5264.2</ele>
        <time>2022-10-27T02:19:56.000Z</time>
      </trkpt>
      <trkpt lat="27.985235" lon="86.829581">
        <ele>5264.4</ele>
        <time>2022-10-27T02:20:00.000Z</time>
      </trkpt>
      <trkpt lat="27.985254" lon="86.829587">
        <ele>5265.2</ele>
        <time>2022-10-27T02:20:06.000Z</time>
      </trkpt>
      <trkpt lat="27.985274" lon="86.829581">
        <ele>5265.6</ele>
        <time>2022-10-27T02:20:12.000Z</time>
      </trkpt>
      <trkpt lat="27.985293" lon="86.829587">
        <ele>5266.4</ele>
        <time>2022-10-27T02:20:17.000Z</time>
      </trkpt>
      <trkpt lat="27.985309" lon="86.8296">
        <ele>5266.2</ele>
        <time>2022-10-27T02:20:21.000Z</time>
      </trkpt>
      <trkpt lat="27.985331" lon="86.829613">
        <ele>5267</ele>
        <time>2022-10-27T02:20:26.000Z</time>
      </trkpt>
      <trkpt lat="27.985354" lon="86.829619">
        <ele>5267.2</ele>
        <time>2022-10-27T02:20:30.000Z</time>
      </trkpt>
      <trkpt lat="27.985373" lon="86.829638">
        <ele>5267.6</ele>
        <time>2022-10-27T02:20:35.000Z</time>
      </trkpt>
      <trkpt lat="27.985392" lon="86.829645">
        <ele>5267.6</ele>
        <time>2022-10-27T02:20:39.000Z</time>
      </trkpt>
      <trkpt lat="27.985411" lon="86.829638">
        <ele>5267.8</ele>
        <time>2022-10-27T02:20:43.000Z</time>
      </trkpt>
      <trkpt lat="27.98543" lon="86.829638">
        <ele>5268.2</ele>
        <time>2022-10-27T02:20:48.000Z</time>
      </trkpt>
      <trkpt lat="27.98545" lon="86.829638">
        <ele>5268.4</ele>
        <time>2022-10-27T02:20:51.000Z</time>
      </trkpt>
      <trkpt lat="27.985469" lon="86.829645">
        <ele>5268.8</ele>
        <time>2022-10-27T02:20:55.000Z</time>
      </trkpt>
      <trkpt lat="27.985488" lon="86.829645">
        <ele>5268.8</ele>
        <time>2022-10-27T02:20:58.000Z</time>
      </trkpt>
      <trkpt lat="27.985507" lon="86.829664">
        <ele>5269</ele>
        <time>2022-10-27T02:21:02.000Z</time>
      </trkpt>
      <trkpt lat="27.985526" lon="86.829677">
        <ele>5269.4</ele>
        <time>2022-10-27T02:21:08.000Z</time>
      </trkpt>
      <trkpt lat="27.985546" lon="86.829683">
        <ele>5269.6</ele>
        <time>2022-10-27T02:21:11.000Z</time>
      </trkpt>
      <trkpt lat="27.985565" lon="86.82969">
        <ele>5270</ele>
        <time>2022-10-27T02:21:15.000Z</time>
      </trkpt>
      <trkpt lat="27.985584" lon="86.829702">
        <ele>5270.6</ele>
        <time>2022-10-27T02:21:19.000Z</time>
      </trkpt>
      <trkpt lat="27.985606" lon="86.829709">
        <ele>5270.8</ele>
        <time>2022-10-27T02:21:25.000Z</time>
      </trkpt>
      <trkpt lat="27.985622" lon="86.829728">
        <ele>5271.2</ele>
        <time>2022-10-27T02:21:29.000Z</time>
      </trkpt>
      <trkpt lat="27.985638" lon="86.829741">
        <ele>5271.4</ele>
        <time>2022-10-27T02:21:33.000Z</time>
      </trkpt>
      <trkpt lat="27.985658" lon="86.829747">
        <ele>5271.8</ele>
        <time>2022-10-27T02:21:37.000Z</time>
      </trkpt>
      <trkpt lat="27.98567" lon="86.829766">
        <ele>5272</ele>
        <time>2022-10-27T02:21:41.000Z</time>
      </trkpt>
      <trkpt lat="27.98569" lon="86.829779">
        <ele>5272.4</ele>
        <time>2022-10-27T02:21:45.000Z</time>
      </trkpt>
      <trkpt lat="27.985706" lon="86.829798">
        <ele>5272.6</ele>
        <time>2022-10-27T02:21:49.000Z</time>
      </trkpt>
      <trkpt lat="27.985725" lon="86.829811">
        <ele>5273.2</ele>
        <time>2022-10-27T02:21:54.000Z</time>
      </trkpt>
      <trkpt lat="27.985744" lon="86.829818">
        <ele>5273.8</ele>
        <time>2022-10-27T02:21:58.000Z</time>
      </trkpt>
      <trkpt lat="27.985757" lon="86.829837">
        <ele>5274</ele>
        <time>2022-10-27T02:22:02.000Z</time>
      </trkpt>
      <trkpt lat="27.985776" lon="86.829837">
        <ele>5275</ele>
        <time>2022-10-27T02:22:11.000Z</time>
      </trkpt>
      <trkpt lat="27.98576" lon="86.829856">
        <ele>5274.4</ele>
        <time>2022-10-27T02:24:25.000Z</time>
      </trkpt>
      <trkpt lat="27.985744" lon="86.82992">
        <ele>5276</ele>
        <time>2022-10-27T02:31:45.000Z</time>
      </trkpt>
      <trkpt lat="27.985725" lon="86.829907">
        <ele>5276</ele>
        <time>2022-10-27T02:31:49.000Z</time>
      </trkpt>
      <trkpt lat="27.985709" lon="86.82992">
        <ele>5279.6</ele>
        <time>2022-10-27T02:46:04.000Z</time>
      </trkpt>
      <trkpt lat="27.985718" lon="86.829894">
        <ele>5282</ele>
        <time>2022-10-27T02:47:48.000Z</time>
      </trkpt>
      <trkpt lat="27.985744" lon="86.829888">
        <ele>5282</ele>
        <time>2022-10-27T02:47:50.000Z</time>
      </trkpt>
      <trkpt lat="27.98577" lon="86.829888">
        <ele>5282.2</ele>
        <time>2022-10-27T02:47:52.000Z</time>
      </trkpt>
      <trkpt lat="27.985795" lon="86.829882">
        <ele>5282.2</ele>
        <time>2022-10-27T02:47:54.000Z</time>
      </trkpt>
      <trkpt lat="27.985824" lon="86.829875">
        <ele>5282.2</ele>
        <time>2022-10-27T02:47:56.000Z</time>
      </trkpt>
      <trkpt lat="27.985843" lon="86.829862">
        <ele>5282.4</ele>
        <time>2022-10-27T02:47:58.000Z</time>
      </trkpt>
      <trkpt lat="27.985866" lon="86.829862">
        <ele>5282.4</ele>
        <time>2022-10-27T02:48:01.000Z</time>
      </trkpt>
      <trkpt lat="27.985885" lon="86.829862">
        <ele>5282.8</ele>
        <time>2022-10-27T02:48:04.000Z</time>
      </trkpt>
      <trkpt lat="27.985907" lon="86.829862">
        <ele>5283</ele>
        <time>2022-10-27T02:48:07.000Z</time>
      </trkpt>
      <trkpt lat="27.98593" lon="86.829856">
        <ele>5283</ele>
        <time>2022-10-27T02:48:10.000Z</time>
      </trkpt>
      <trkpt lat="27.985952" lon="86.829862">
        <ele>5283</ele>
        <time>2022-10-27T02:48:13.000Z</time>
      </trkpt>
      <trkpt lat="27.985968" lon="86.829875">
        <ele>5283</ele>
        <time>2022-10-27T02:48:16.000Z</time>
      </trkpt>
      <trkpt lat="27.98599" lon="86.829882">
        <ele>5283</ele>
        <time>2022-10-27T02:48:19.000Z</time>
      </trkpt>
      <trkpt lat="27.986013" lon="86.829888">
        <ele>5283</ele>
        <time>2022-10-27T02:48:22.000Z</time>
      </trkpt>
      <trkpt lat="27.986032" lon="86.829894">
        <ele>5283.6</ele>
        <time>2022-10-27T02:48:26.000Z</time>
      </trkpt>
      <trkpt lat="27.986054" lon="86.829894">
        <ele>5284</ele>
        <time>2022-10-27T02:48:30.000Z</time>
      </trkpt>
      <trkpt lat="27.986074" lon="86.829901">
        <ele>5284</ele>
        <time>2022-10-27T02:48:33.000Z</time>
      </trkpt>
      <trkpt lat="27.986096" lon="86.829907">
        <ele>5284</ele>
        <time>2022-10-27T02:48:36.000Z</time>
      </trkpt>
      <trkpt lat="27.986115" lon="86.829907">
        <ele>5284</ele>
        <time>2022-10-27T02:48:39.000Z</time>
      </trkpt>
      <trkpt lat="27.986138" lon="86.829907">
        <ele>5284.2</ele>
        <time>2022-10-27T02:48:42.000Z</time>
      </trkpt>
      <trkpt lat="27.986157" lon="86.829907">
        <ele>5284</ele>
        <time>2022-10-27T02:48:45.000Z</time>
      </trkpt>
      <trkpt lat="27.986176" lon="86.829907">
        <ele>5284.2</ele>
        <time>2022-10-27T02:48:48.000Z</time>
      </trkpt>
      <trkpt lat="27.986192" lon="86.82992">
        <ele>5284.2</ele>
        <time>2022-10-27T02:48:50.000Z</time>
      </trkpt>
      <trkpt lat="27.986214" lon="86.829926">
        <ele>5284.2</ele>
        <time>2022-10-27T02:48:53.000Z</time>
      </trkpt>
      <trkpt lat="27.986237" lon="86.829939">
        <ele>5285</ele>
        <time>2022-10-27T02:48:57.000Z</time>
      </trkpt>
      <trkpt lat="27.986262" lon="86.829946">
        <ele>5285</ele>
        <time>2022-10-27T02:49:01.000Z</time>
      </trkpt>
      <trkpt lat="27.986282" lon="86.829946">
        <ele>5285</ele>
        <time>2022-10-27T02:49:04.000Z</time>
      </trkpt>
      <trkpt lat="27.986304" lon="86.829946">
        <ele>5285.4</ele>
        <time>2022-10-27T02:49:09.000Z</time>
      </trkpt>
      <trkpt lat="27.986323" lon="86.829958">
        <ele>5285.6</ele>
        <time>2022-10-27T02:49:12.000Z</time>
      </trkpt>
      <trkpt lat="27.986342" lon="86.829965">
        <ele>5285.8</ele>
        <time>2022-10-27T02:49:16.000Z</time>
      </trkpt>
      <trkpt lat="27.986362" lon="86.829965">
        <ele>5286.2</ele>
        <time>2022-10-27T02:49:20.000Z</time>
      </trkpt>
      <trkpt lat="27.986381" lon="86.829978">
        <ele>5286.6</ele>
        <time>2022-10-27T02:49:25.000Z</time>
      </trkpt>
      <trkpt lat="27.986403" lon="86.829984">
        <ele>5287</ele>
        <time>2022-10-27T02:49:29.000Z</time>
      </trkpt>
      <trkpt lat="27.986419" lon="86.829997">
        <ele>5287</ele>
        <time>2022-10-27T02:49:32.000Z</time>
      </trkpt>
      <trkpt lat="27.986438" lon="86.83001">
        <ele>5287.4</ele>
        <time>2022-10-27T02:49:36.000Z</time>
      </trkpt>
      <trkpt lat="27.986461" lon="86.830016">
        <ele>5288</ele>
        <time>2022-10-27T02:49:41.000Z</time>
      </trkpt>
      <trkpt lat="27.98648" lon="86.830016">
        <ele>5288.4</ele>
        <time>2022-10-27T02:49:45.000Z</time>
      </trkpt>
      <trkpt lat="27.986499" lon="86.830016">
        <ele>5288.6</ele>
        <time>2022-10-27T02:49:50.000Z</time>
      </trkpt>
      <trkpt lat="27.986518" lon="86.830016">
        <ele>5289.2</ele>
        <time>2022-10-27T02:49:55.000Z</time>
      </trkpt>
      <trkpt lat="27.986538" lon="86.830016">
        <ele>5289.4</ele>
        <time>2022-10-27T02:49:59.000Z</time>
      </trkpt>
      <trkpt lat="27.98656" lon="86.830022">
        <ele>5289.4</ele>
        <time>2022-10-27T02:50:03.000Z</time>
      </trkpt>
      <trkpt lat="27.986576" lon="86.830035">
        <ele>5289.6</ele>
        <time>2022-10-27T02:50:07.000Z</time>
      </trkpt>
      <trkpt lat="27.986598" lon="86.830042">
        <ele>5290.2</ele>
        <time>2022-10-27T02:50:13.000Z</time>
      </trkpt>
      <trkpt lat="27.986611" lon="86.830061">
        <ele>5290.8</ele>
        <time>2022-10-27T02:50:18.000Z</time>
      </trkpt>
      <trkpt lat="27.986627" lon="86.83008">
        <ele>5290.8</ele>
        <time>2022-10-27T02:50:22.000Z</time>
      </trkpt>
      <trkpt lat="27.986643" lon="86.830093">
        <ele>5291.2</ele>
        <time>2022-10-27T02:50:29.000Z</time>
      </trkpt>
      <trkpt lat="27.986662" lon="86.830106">
        <ele>5291.8</ele>
        <time>2022-10-27T02:50:35.000Z</time>
      </trkpt>
      <trkpt lat="27.986682" lon="86.830118">
        <ele>5292.4</ele>
        <time>2022-10-27T02:50:42.000Z</time>
      </trkpt>
      <trkpt lat="27.986701" lon="86.830118">
        <ele>5292.4</ele>
        <time>2022-10-27T02:50:46.000Z</time>
      </trkpt>
      <trkpt lat="27.986717" lon="86.830131">
        <ele>5293</ele>
        <time>2022-10-27T02:50:51.000Z</time>
      </trkpt>
      <trkpt lat="27.986739" lon="86.830131">
        <ele>5293.8</ele>
        <time>2022-10-27T02:50:58.000Z</time>
      </trkpt>
      <trkpt lat="27.986758" lon="86.830131">
        <ele>5294.4</ele>
        <time>2022-10-27T02:51:04.000Z</time>
      </trkpt>
      <trkpt lat="27.986778" lon="86.830138">
        <ele>5294.6</ele>
        <time>2022-10-27T02:51:09.000Z</time>
      </trkpt>
      <trkpt lat="27.98679" lon="86.830157">
        <ele>5295</ele>
        <time>2022-10-27T02:51:13.000Z</time>
      </trkpt>
      <trkpt lat="27.986806" lon="86.83017">
        <ele>5295.2</ele>
        <time>2022-10-27T02:51:18.000Z</time>
      </trkpt>
      <trkpt lat="27.986826" lon="86.830163">
        <ele>5295.8</ele>
        <time>2022-10-27T02:51:23.000Z</time>
      </trkpt>
      <trkpt lat="27.986848" lon="86.830157">
        <ele>5296.4</ele>
        <time>2022-10-27T02:51:29.000Z</time>
      </trkpt>
      <trkpt lat="27.986867" lon="86.830157">
        <ele>5297</ele>
        <time>2022-10-27T02:51:33.000Z</time>
      </trkpt>
      <trkpt lat="27.986886" lon="86.830163">
        <ele>5297</ele>
        <time>2022-10-27T02:51:38.000Z</time>
      </trkpt>
      <trkpt lat="27.986906" lon="86.830163">
        <ele>5297.6</ele>
        <time>2022-10-27T02:51:44.000Z</time>
      </trkpt>
      <trkpt lat="27.986925" lon="86.830144">
        <ele>5297.6</ele>
        <time>2022-10-27T02:51:49.000Z</time>
      </trkpt>
      <trkpt lat="27.986944" lon="86.830144">
        <ele>5298.2</ele>
        <time>2022-10-27T02:51:53.000Z</time>
      </trkpt>
      <trkpt lat="27.986966" lon="86.830144">
        <ele>5298.8</ele>
        <time>2022-10-27T02:51:58.000Z</time>
      </trkpt>
      <trkpt lat="27.986986" lon="86.830138">
        <ele>5298.8</ele>
        <time>2022-10-27T02:52:02.000Z</time>
      </trkpt>
      <trkpt lat="27.987008" lon="86.830131">
        <ele>5298.8</ele>
        <time>2022-10-27T02:52:07.000Z</time>
      </trkpt>
      <trkpt lat="27.987027" lon="86.830125">
        <ele>5299.6</ele>
        <time>2022-10-27T02:52:13.000Z</time>
      </trkpt>
      <trkpt lat="27.987046" lon="86.830118">
        <ele>5299.6</ele>
        <time>2022-10-27T02:52:17.000Z</time>
      </trkpt>
      <trkpt lat="27.987066" lon="86.830125">
        <ele>5300.2</ele>
        <time>2022-10-27T02:52:23.000Z</time>
      </trkpt>
      <trkpt lat="27.987085" lon="86.830131">
        <ele>5300.4</ele>
        <time>2022-10-27T02:52:28.000Z</time>
      </trkpt>
      <trkpt lat="27.987104" lon="86.830131">
        <ele>5300.8</ele>
        <time>2022-10-27T02:52:33.000Z</time>
      </trkpt>
      <trkpt lat="27.987126" lon="86.830131">
        <ele>5301</ele>
        <time>2022-10-27T02:52:39.000Z</time>
      </trkpt>
      <trkpt lat="27.987146" lon="86.830131">
        <ele>5301.6</ele>
        <time>2022-10-27T02:52:44.000Z</time>
      </trkpt>
      <trkpt lat="27.987165" lon="86.830131">
        <ele>5302.2</ele>
        <time>2022-10-27T02:52:50.000Z</time>
      </trkpt>
      <trkpt lat="27.987184" lon="86.830131">
        <ele>5302.4</ele>
        <time>2022-10-27T02:52:56.000Z</time>
      </trkpt>
      <trkpt lat="27.987203" lon="86.830131">
        <ele>5302.8</ele>
        <time>2022-10-27T02:53:03.000Z</time>
      </trkpt>
      <trkpt lat="27.987226" lon="86.830138">
        <ele>5303.6</ele>
        <time>2022-10-27T02:53:10.000Z</time>
      </trkpt>
      <trkpt lat="27.987245" lon="86.830157">
        <ele>5304.2</ele>
        <time>2022-10-27T02:53:15.000Z</time>
      </trkpt>
      <trkpt lat="27.987264" lon="86.830163">
        <ele>5304.8</ele>
        <time>2022-10-27T02:53:23.000Z</time>
      </trkpt>
      <trkpt lat="27.987283" lon="86.830163">
        <ele>5305.4</ele>
        <time>2022-10-27T02:53:29.000Z</time>
      </trkpt>
      <trkpt lat="27.987302" lon="86.83017">
        <ele>5305.6</ele>
        <time>2022-10-27T02:53:36.000Z</time>
      </trkpt>
      <trkpt lat="27.987322" lon="86.83017">
        <ele>5306.8</ele>
        <time>2022-10-27T02:53:44.000Z</time>
      </trkpt>
      <trkpt lat="27.987344" lon="86.830176">
        <ele>5307</ele>
        <time>2022-10-27T02:53:52.000Z</time>
      </trkpt>
      <trkpt lat="27.987363" lon="86.830176">
        <ele>5307</ele>
        <time>2022-10-27T02:53:59.000Z</time>
      </trkpt>
      <trkpt lat="27.987382" lon="86.830182">
        <ele>5308</ele>
        <time>2022-10-27T02:54:06.000Z</time>
      </trkpt>
      <trkpt lat="27.987402" lon="86.830176">
        <ele>5308.8</ele>
        <time>2022-10-27T02:54:14.000Z</time>
      </trkpt>
      <trkpt lat="27.987421" lon="86.830176">
        <ele>5309</ele>
        <time>2022-10-27T02:54:22.000Z</time>
      </trkpt>
      <trkpt lat="27.98744" lon="86.830176">
        <ele>5309.4</ele>
        <time>2022-10-27T02:54:28.000Z</time>
      </trkpt>
      <trkpt lat="27.987459" lon="86.830195">
        <ele>5310</ele>
        <time>2022-10-27T02:54:36.000Z</time>
      </trkpt>
      <trkpt lat="27.987482" lon="86.830202">
        <ele>5310.2</ele>
        <time>2022-10-27T02:54:41.000Z</time>
      </trkpt>
      <trkpt lat="27.987501" lon="86.830208">
        <ele>5310.8</ele>
        <time>2022-10-27T02:54:47.000Z</time>
      </trkpt>
      <trkpt lat="27.987517" lon="86.830221">
        <ele>5310.8</ele>
        <time>2022-10-27T02:54:51.000Z</time>
      </trkpt>
      <trkpt lat="27.987536" lon="86.830221">
        <ele>5312</ele>
        <time>2022-10-27T02:54:57.000Z</time>
      </trkpt>
      <trkpt lat="27.987552" lon="86.830234">
        <ele>5312.2</ele>
        <time>2022-10-27T02:55:05.000Z</time>
      </trkpt>
      <trkpt lat="27.987594" lon="86.83024">
        <ele>5312.8</ele>
        <time>2022-10-27T02:55:17.000Z</time>
      </trkpt>
      <trkpt lat="27.987616" lon="86.830246">
        <ele>5313.4</ele>
        <time>2022-10-27T02:55:23.000Z</time>
      </trkpt>
      <trkpt lat="27.987635" lon="86.830246">
        <ele>5314</ele>
        <time>2022-10-27T02:55:28.000Z</time>
      </trkpt>
      <trkpt lat="27.987651" lon="86.830259">
        <ele>5314</ele>
        <time>2022-10-27T02:55:32.000Z</time>
      </trkpt>
      <trkpt lat="27.987674" lon="86.830272">
        <ele>5314.6</ele>
        <time>2022-10-27T02:55:37.000Z</time>
      </trkpt>
      <trkpt lat="27.987693" lon="86.830278">
        <ele>5315</ele>
        <time>2022-10-27T02:55:40.000Z</time>
      </trkpt>
      <trkpt lat="27.987709" lon="86.830291">
        <ele>5315.6</ele>
        <time>2022-10-27T02:55:43.000Z</time>
      </trkpt>
      <trkpt lat="27.987734" lon="86.830291">
        <ele>5315.8</ele>
        <time>2022-10-27T02:55:46.000Z</time>
      </trkpt>
      <trkpt lat="27.987754" lon="86.830291">
        <ele>5316.6</ele>
        <time>2022-10-27T02:55:53.000Z</time>
      </trkpt>
      <trkpt lat="27.987802" lon="86.830298">
        <ele>5318.4</ele>
        <time>2022-10-27T02:56:39.000Z</time>
      </trkpt>
      <trkpt lat="27.987824" lon="86.830298">
        <ele>5318.4</ele>
        <time>2022-10-27T02:56:41.000Z</time>
      </trkpt>
      <trkpt lat="27.987843" lon="86.830304">
        <ele>5318.4</ele>
        <time>2022-10-27T02:56:43.000Z</time>
      </trkpt>
      <trkpt lat="27.987869" lon="86.830304">
        <ele>5318.4</ele>
        <time>2022-10-27T02:56:46.000Z</time>
      </trkpt>
      <trkpt lat="27.987888" lon="86.830298">
        <ele>5319</ele>
        <time>2022-10-27T02:56:49.000Z</time>
      </trkpt>
      <trkpt lat="27.987907" lon="86.830291">
        <ele>5319.2</ele>
        <time>2022-10-27T02:56:55.000Z</time>
      </trkpt>
      <trkpt lat="27.98793" lon="86.830291">
        <ele>5319.8</ele>
        <time>2022-10-27T02:57:00.000Z</time>
      </trkpt>
      <trkpt lat="27.987949" lon="86.830285">
        <ele>5320</ele>
        <time>2022-10-27T02:57:06.000Z</time>
      </trkpt>
      <trkpt lat="27.987968" lon="86.830285">
        <ele>5320.6</ele>
        <time>2022-10-27T02:57:11.000Z</time>
      </trkpt>
      <trkpt lat="27.987987" lon="86.830285">
        <ele>5321.6</ele>
        <time>2022-10-27T02:57:16.000Z</time>
      </trkpt>
      <trkpt lat="27.98801" lon="86.830291">
        <ele>5322.4</ele>
        <time>2022-10-27T02:57:23.000Z</time>
      </trkpt>
      <trkpt lat="27.988026" lon="86.830304">
        <ele>5322.6</ele>
        <time>2022-10-27T02:57:27.000Z</time>
      </trkpt>
      <trkpt lat="27.988042" lon="86.830317">
        <ele>5322.6</ele>
        <time>2022-10-27T02:57:31.000Z</time>
      </trkpt>
      <trkpt lat="27.988061" lon="86.83033">
        <ele>5323.2</ele>
        <time>2022-10-27T02:57:37.000Z</time>
      </trkpt>
      <trkpt lat="27.98808" lon="86.830336">
        <ele>5323.6</ele>
        <time>2022-10-27T02:57:42.000Z</time>
      </trkpt>
      <trkpt lat="27.988093" lon="86.830355">
        <ele>5323.4</ele>
        <time>2022-10-27T02:59:13.000Z</time>
      </trkpt>
      <trkpt lat="27.988099" lon="86.830336">
        <ele>5323</ele>
        <time>2022-10-27T02:59:18.000Z</time>
      </trkpt>
      <trkpt lat="27.988093" lon="86.830317">
        <ele>5323</ele>
        <time>2022-10-27T02:59:23.000Z</time>
      </trkpt>
      <trkpt lat="27.988118" lon="86.830336">
        <ele>5324.6</ele>
        <time>2022-10-27T03:00:07.000Z</time>
      </trkpt>
      <trkpt lat="27.988141" lon="86.830342">
        <ele>5324.8</ele>
        <time>2022-10-27T03:00:09.000Z</time>
      </trkpt>
      <trkpt lat="27.98816" lon="86.830355">
        <ele>5325.4</ele>
        <time>2022-10-27T03:00:11.000Z</time>
      </trkpt>
      <trkpt lat="27.988182" lon="86.830362">
        <ele>5325.4</ele>
        <time>2022-10-27T03:00:13.000Z</time>
      </trkpt>
      <trkpt lat="27.988211" lon="86.830374">
        <ele>5325.8</ele>
        <time>2022-10-27T03:00:16.000Z</time>
      </trkpt>
      <trkpt lat="27.988227" lon="86.830394">
        <ele>5326.2</ele>
        <time>2022-10-27T03:00:21.000Z</time>
      </trkpt>
      <trkpt lat="27.98825" lon="86.8304">
        <ele>5326.6</ele>
        <time>2022-10-27T03:00:28.000Z</time>
      </trkpt>
      <trkpt lat="27.988269" lon="86.8304">
        <ele>5327.2</ele>
        <time>2022-10-27T03:00:34.000Z</time>
      </trkpt>
      <trkpt lat="27.988288" lon="86.8304">
        <ele>5327.8</ele>
        <time>2022-10-27T03:00:39.000Z</time>
      </trkpt>
      <trkpt lat="27.988307" lon="86.8304">
        <ele>5328.6</ele>
        <time>2022-10-27T03:00:46.000Z</time>
      </trkpt>
      <trkpt lat="27.988323" lon="86.830413">
        <ele>5329.4</ele>
        <time>2022-10-27T03:00:55.000Z</time>
      </trkpt>
      <trkpt lat="27.988346" lon="86.830413">
        <ele>5329.8</ele>
        <time>2022-10-27T03:01:02.000Z</time>
      </trkpt>
      <trkpt lat="27.988365" lon="86.830413">
        <ele>5330.4</ele>
        <time>2022-10-27T03:01:09.000Z</time>
      </trkpt>
      <trkpt lat="27.988371" lon="86.830432">
        <ele>5330.4</ele>
        <time>2022-10-27T03:01:12.000Z</time>
      </trkpt>
      <trkpt lat="27.988387" lon="86.830445">
        <ele>5331.8</ele>
        <time>2022-10-27T03:01:21.000Z</time>
      </trkpt>
      <trkpt lat="27.988406" lon="86.830451">
        <ele>5332.4</ele>
        <time>2022-10-27T03:01:28.000Z</time>
      </trkpt>
      <trkpt lat="27.988422" lon="86.83047">
        <ele>5333</ele>
        <time>2022-10-27T03:01:33.000Z</time>
      </trkpt>
      <trkpt lat="27.988442" lon="86.830477">
        <ele>5333.4</ele>
        <time>2022-10-27T03:01:39.000Z</time>
      </trkpt>
      <trkpt lat="27.988461" lon="86.830483">
        <ele>5334</ele>
        <time>2022-10-27T03:01:46.000Z</time>
      </trkpt>
      <trkpt lat="27.98848" lon="86.83049">
        <ele>5334.6</ele>
        <time>2022-10-27T03:01:51.000Z</time>
      </trkpt>
      <trkpt lat="27.988499" lon="86.830477">
        <ele>5336.6</ele>
        <time>2022-10-27T03:02:10.000Z</time>
      </trkpt>
      <trkpt lat="27.988506" lon="86.830458">
        <ele>5337.2</ele>
        <time>2022-10-27T03:02:15.000Z</time>
      </trkpt>
      <trkpt lat="27.988518" lon="86.830438">
        <ele>5337.6</ele>
        <time>2022-10-27T03:02:24.000Z</time>
      </trkpt>
      <trkpt lat="27.988538" lon="86.830438">
        <ele>5340.2</ele>
        <time>2022-10-27T03:02:59.000Z</time>
      </trkpt>
      <trkpt lat="27.988698" lon="86.830477">
        <ele>5345.8</ele>
        <time>2022-10-27T03:04:14.000Z</time>
      </trkpt>
      <trkpt lat="27.988717" lon="86.830483">
        <ele>5345.8</ele>
        <time>2022-10-27T03:04:16.000Z</time>
      </trkpt>
      <trkpt lat="27.988742" lon="86.83049">
        <ele>5346</ele>
        <time>2022-10-27T03:04:18.000Z</time>
      </trkpt>
      <trkpt lat="27.988758" lon="86.830502">
        <ele>5346.4</ele>
        <time>2022-10-27T03:04:20.000Z</time>
      </trkpt>
      <trkpt lat="27.988781" lon="86.830502">
        <ele>5346.4</ele>
        <time>2022-10-27T03:04:22.000Z</time>
      </trkpt>
      <trkpt lat="27.988797" lon="86.830515">
        <ele>5346.6</ele>
        <time>2022-10-27T03:04:25.000Z</time>
      </trkpt>
      <trkpt lat="27.988816" lon="86.830515">
        <ele>5347.4</ele>
        <time>2022-10-27T03:04:29.000Z</time>
      </trkpt>
      <trkpt lat="27.988835" lon="86.830515">
        <ele>5347.8</ele>
        <time>2022-10-27T03:04:35.000Z</time>
      </trkpt>
      <trkpt lat="27.988851" lon="86.830502">
        <ele>5348.6</ele>
        <time>2022-10-27T03:04:42.000Z</time>
      </trkpt>
      <trkpt lat="27.988874" lon="86.830496">
        <ele>5349.2</ele>
        <time>2022-10-27T03:04:48.000Z</time>
      </trkpt>
      <trkpt lat="27.988893" lon="86.83049">
        <ele>5350.6</ele>
        <time>2022-10-27T03:04:59.000Z</time>
      </trkpt>
      <trkpt lat="27.988912" lon="86.830477">
        <ele>5350.8</ele>
        <time>2022-10-27T03:05:05.000Z</time>
      </trkpt>
      <trkpt lat="27.988931" lon="86.83049">
        <ele>5351.4</ele>
        <time>2022-10-27T03:05:13.000Z</time>
      </trkpt>
      <trkpt lat="27.988954" lon="86.830496">
        <ele>5352</ele>
        <time>2022-10-27T03:05:19.000Z</time>
      </trkpt>
      <trkpt lat="27.988973" lon="86.83049">
        <ele>5352.2</ele>
        <time>2022-10-27T03:05:25.000Z</time>
      </trkpt>
      <trkpt lat="27.988992" lon="86.830496">
        <ele>5352.8</ele>
        <time>2022-10-27T03:05:32.000Z</time>
      </trkpt>
      <trkpt lat="27.989142" lon="86.830458">
        <ele>5359.8</ele>
        <time>2022-10-27T03:07:05.000Z</time>
      </trkpt>
      <trkpt lat="27.989155" lon="86.830477">
        <ele>5360</ele>
        <time>2022-10-27T03:07:07.000Z</time>
      </trkpt>
      <trkpt lat="27.989178" lon="86.830483">
        <ele>5360.4</ele>
        <time>2022-10-27T03:07:10.000Z</time>
      </trkpt>
      <trkpt lat="27.98937" lon="86.830419">
        <ele>5368</ele>
        <time>2022-10-27T03:13:59.000Z</time>
      </trkpt>
      <trkpt lat="27.98945" lon="86.830458">
        <ele>5369.6</ele>
        <time>2022-10-27T03:14:51.000Z</time>
      </trkpt>
      <trkpt lat="27.989469" lon="86.830458">
        <ele>5369.6</ele>
        <time>2022-10-27T03:14:53.000Z</time>
      </trkpt>
      <trkpt lat="27.989491" lon="86.83047">
        <ele>5370.2</ele>
        <time>2022-10-27T03:14:55.000Z</time>
      </trkpt>
      <trkpt lat="27.98951" lon="86.83047">
        <ele>5370.2</ele>
        <time>2022-10-27T03:14:57.000Z</time>
      </trkpt>
      <trkpt lat="27.98953" lon="86.830477">
        <ele>5370.2</ele>
        <time>2022-10-27T03:14:59.000Z</time>
      </trkpt>
      <trkpt lat="27.989568" lon="86.83049">
        <ele>5370.8</ele>
        <time>2022-10-27T03:15:07.000Z</time>
      </trkpt>
      <trkpt lat="27.989587" lon="86.83049">
        <ele>5371.2</ele>
        <time>2022-10-27T03:15:11.000Z</time>
      </trkpt>
      <trkpt lat="27.98961" lon="86.830496">
        <ele>5371.8</ele>
        <time>2022-10-27T03:15:18.000Z</time>
      </trkpt>
      <trkpt lat="27.989619" lon="86.830477">
        <ele>5373</ele>
        <time>2022-10-27T03:15:26.000Z</time>
      </trkpt>
      <trkpt lat="27.989853" lon="86.830381">
        <ele>5384.4</ele>
        <time>2022-10-27T03:18:05.000Z</time>
      </trkpt>
      <trkpt lat="27.989872" lon="86.830381">
        <ele>5384.8</ele>
        <time>2022-10-27T03:18:07.000Z</time>
      </trkpt>
      <trkpt lat="27.989904" lon="86.830374">
        <ele>5385</ele>
        <time>2022-10-27T03:18:11.000Z</time>
      </trkpt>
      <trkpt lat="27.98993" lon="86.830368">
        <ele>5385.6</ele>
        <time>2022-10-27T03:18:14.000Z</time>
      </trkpt>
      <trkpt lat="27.989946" lon="86.830355">
        <ele>5387</ele>
        <time>2022-10-27T03:18:24.000Z</time>
      </trkpt>
      <trkpt lat="27.990227" lon="86.830182">
        <ele>5405.4</ele>
        <time>2022-10-27T03:21:57.000Z</time>
      </trkpt>
      <trkpt lat="27.990253" lon="86.830202">
        <ele>5405.4</ele>
        <time>2022-10-27T03:21:59.000Z</time>
      </trkpt>
      <trkpt lat="27.990275" lon="86.830214">
        <ele>5406</ele>
        <time>2022-10-27T03:22:01.000Z</time>
      </trkpt>
      <trkpt lat="27.990301" lon="86.830234">
        <ele>5406</ele>
        <time>2022-10-27T03:22:03.000Z</time>
      </trkpt>
      <trkpt lat="27.990323" lon="86.830246">
        <ele>5406</ele>
        <time>2022-10-27T03:22:05.000Z</time>
      </trkpt>
      <trkpt lat="27.990346" lon="86.830253">
        <ele>5406.6</ele>
        <time>2022-10-27T03:22:08.000Z</time>
      </trkpt>
      <trkpt lat="27.990368" lon="86.830253">
        <ele>5407.2</ele>
        <time>2022-10-27T03:22:12.000Z</time>
      </trkpt>
      <trkpt lat="27.990387" lon="86.830259">
        <ele>5407.6</ele>
        <time>2022-10-27T03:22:16.000Z</time>
      </trkpt>
      <trkpt lat="27.990406" lon="86.830272">
        <ele>5408.4</ele>
        <time>2022-10-27T03:22:23.000Z</time>
      </trkpt>
      <trkpt lat="27.990426" lon="86.830272">
        <ele>5409.4</ele>
        <time>2022-10-27T03:22:30.000Z</time>
      </trkpt>
      <trkpt lat="27.990589" lon="86.830221">
        <ele>5419</ele>
        <time>2022-10-27T03:26:07.000Z</time>
      </trkpt>
      <trkpt lat="27.990595" lon="86.830202">
        <ele>5418.6</ele>
        <time>2022-10-27T03:26:09.000Z</time>
      </trkpt>
      <trkpt lat="27.990598" lon="86.830176">
        <ele>5419</ele>
        <time>2022-10-27T03:26:11.000Z</time>
      </trkpt>
      <trkpt lat="27.990605" lon="86.830157">
        <ele>5419.2</ele>
        <time>2022-10-27T03:26:13.000Z</time>
      </trkpt>
      <trkpt lat="27.990614" lon="86.830131">
        <ele>5419.6</ele>
        <time>2022-10-27T03:26:15.000Z</time>
      </trkpt>
      <trkpt lat="27.990621" lon="86.830106">
        <ele>5419.8</ele>
        <time>2022-10-27T03:26:20.000Z</time>
      </trkpt>
      <trkpt lat="27.99064" lon="86.830093">
        <ele>5421</ele>
        <time>2022-10-27T03:26:28.000Z</time>
      </trkpt>
      <trkpt lat="27.990656" lon="86.83008">
        <ele>5422</ele>
        <time>2022-10-27T03:26:37.000Z</time>
      </trkpt>
      <trkpt lat="27.990662" lon="86.830061">
        <ele>5422.6</ele>
        <time>2022-10-27T03:26:42.000Z</time>
      </trkpt>
      <trkpt lat="27.990682" lon="86.830054">
        <ele>5423.4</ele>
        <time>2022-10-27T03:26:48.000Z</time>
      </trkpt>
      <trkpt lat="27.990701" lon="86.830054">
        <ele>5423.2</ele>
        <time>2022-10-27T03:26:53.000Z</time>
      </trkpt>
      <trkpt lat="27.99072" lon="86.830054">
        <ele>5424</ele>
        <time>2022-10-27T03:26:58.000Z</time>
      </trkpt>
      <trkpt lat="27.990749" lon="86.830016">
        <ele>5428.4</ele>
        <time>2022-10-27T03:29:09.000Z</time>
      </trkpt>
      <trkpt lat="27.990771" lon="86.830003">
        <ele>5428.4</ele>
        <time>2022-10-27T03:29:11.000Z</time>
      </trkpt>
      <trkpt lat="27.990787" lon="86.829984">
        <ele>5428.6</ele>
        <time>2022-10-27T03:29:13.000Z</time>
      </trkpt>
      <trkpt lat="27.99081" lon="86.829965">
        <ele>5429</ele>
        <time>2022-10-27T03:29:16.000Z</time>
      </trkpt>
      <trkpt lat="27.990822" lon="86.829946">
        <ele>5429.6</ele>
        <time>2022-10-27T03:29:19.000Z</time>
      </trkpt>
      <trkpt lat="27.990838" lon="86.829933">
        <ele>5429.8</ele>
        <time>2022-10-27T03:29:24.000Z</time>
      </trkpt>
      <trkpt lat="27.990832" lon="86.829907">
        <ele>5430.4</ele>
        <time>2022-10-27T03:29:30.000Z</time>
      </trkpt>
      <trkpt lat="27.990848" lon="86.829894">
        <ele>5430.4</ele>
        <time>2022-10-27T03:29:36.000Z</time>
      </trkpt>
      <trkpt lat="27.990867" lon="86.829894">
        <ele>5431</ele>
        <time>2022-10-27T03:29:41.000Z</time>
      </trkpt>
      <trkpt lat="27.99089" lon="86.829894">
        <ele>5431.4</ele>
        <time>2022-10-27T03:29:47.000Z</time>
      </trkpt>
      <trkpt lat="27.990909" lon="86.829888">
        <ele>5431.6</ele>
        <time>2022-10-27T03:29:52.000Z</time>
      </trkpt>
      <trkpt lat="27.990928" lon="86.829875">
        <ele>5432.8</ele>
        <time>2022-10-27T03:30:00.000Z</time>
      </trkpt>
      <trkpt lat="27.990944" lon="86.829862">
        <ele>5432.8</ele>
        <time>2022-10-27T03:30:03.000Z</time>
      </trkpt>
      <trkpt lat="27.99096" lon="86.829875">
        <ele>5433</ele>
        <time>2022-10-27T03:30:07.000Z</time>
      </trkpt>
      <trkpt lat="27.990979" lon="86.829875">
        <ele>5433.8</ele>
        <time>2022-10-27T03:30:12.000Z</time>
      </trkpt>
      <trkpt lat="27.990998" lon="86.829862">
        <ele>5434</ele>
        <time>2022-10-27T03:30:17.000Z</time>
      </trkpt>
      <trkpt lat="27.991018" lon="86.829862">
        <ele>5434.4</ele>
        <time>2022-10-27T03:30:21.000Z</time>
      </trkpt>
      <trkpt lat="27.991034" lon="86.829875">
        <ele>5434.6</ele>
        <time>2022-10-27T03:30:25.000Z</time>
      </trkpt>
      <trkpt lat="27.991053" lon="86.829875">
        <ele>5435.2</ele>
        <time>2022-10-27T03:30:31.000Z</time>
      </trkpt>
      <trkpt lat="27.991066" lon="86.829856">
        <ele>5435.8</ele>
        <time>2022-10-27T03:30:35.000Z</time>
      </trkpt>
      <trkpt lat="27.991088" lon="86.82985">
        <ele>5436.4</ele>
        <time>2022-10-27T03:30:40.000Z</time>
      </trkpt>
      <trkpt lat="27.991107" lon="86.829843">
        <ele>5436.8</ele>
        <time>2022-10-27T03:30:45.000Z</time>
      </trkpt>
      <trkpt lat="27.99113" lon="86.829837">
        <ele>5437.4</ele>
        <time>2022-10-27T03:30:50.000Z</time>
      </trkpt>
      <trkpt lat="27.991149" lon="86.829818">
        <ele>5440.2</ele>
        <time>2022-10-27T03:31:40.000Z</time>
      </trkpt>
      <trkpt lat="27.991171" lon="86.829805">
        <ele>5440.2</ele>
        <time>2022-10-27T03:31:42.000Z</time>
      </trkpt>
      <trkpt lat="27.991194" lon="86.829786">
        <ele>5440.6</ele>
        <time>2022-10-27T03:31:44.000Z</time>
      </trkpt>
      <trkpt lat="27.991213" lon="86.829779">
        <ele>5441.2</ele>
        <time>2022-10-27T03:31:46.000Z</time>
      </trkpt>
      <trkpt lat="27.991238" lon="86.829766">
        <ele>5441.8</ele>
        <time>2022-10-27T03:31:49.000Z</time>
      </trkpt>
      <trkpt lat="27.991248" lon="86.829747">
        <ele>5441.8</ele>
        <time>2022-10-27T03:31:53.000Z</time>
      </trkpt>
      <trkpt lat="27.991267" lon="86.829741">
        <ele>5442.6</ele>
        <time>2022-10-27T03:31:58.000Z</time>
      </trkpt>
      <trkpt lat="27.991286" lon="86.829734">
        <ele>5443.2</ele>
        <time>2022-10-27T03:32:02.000Z</time>
      </trkpt>
      <trkpt lat="27.991306" lon="86.829728">
        <ele>5443.6</ele>
        <time>2022-10-27T03:32:06.000Z</time>
      </trkpt>
      <trkpt lat="27.991315" lon="86.829709">
        <ele>5443.8</ele>
        <time>2022-10-27T03:32:10.000Z</time>
      </trkpt>
      <trkpt lat="27.991328" lon="86.82969">
        <ele>5444.4</ele>
        <time>2022-10-27T03:32:15.000Z</time>
      </trkpt>
      <trkpt lat="27.991354" lon="86.829696">
        <ele>5449.6</ele>
        <time>2022-10-27T03:39:04.000Z</time>
      </trkpt>
      <trkpt lat="27.991376" lon="86.829696">
        <ele>5449.6</ele>
        <time>2022-10-27T03:39:06.000Z</time>
      </trkpt>
      <trkpt lat="27.991395" lon="86.829696">
        <ele>5449.8</ele>
        <time>2022-10-27T03:39:08.000Z</time>
      </trkpt>
      <trkpt lat="27.991421" lon="86.829702">
        <ele>5450.2</ele>
        <time>2022-10-27T03:39:10.000Z</time>
      </trkpt>
      <trkpt lat="27.991437" lon="86.829722">
        <ele>5450.2</ele>
        <time>2022-10-27T03:39:14.000Z</time>
      </trkpt>
      <trkpt lat="27.991446" lon="86.829702">
        <ele>5450.8</ele>
        <time>2022-10-27T03:39:20.000Z</time>
      </trkpt>
      <trkpt lat="27.991456" lon="86.829683">
        <ele>5451.4</ele>
        <time>2022-10-27T03:39:24.000Z</time>
      </trkpt>
      <trkpt lat="27.991469" lon="86.829664">
        <ele>5451.4</ele>
        <time>2022-10-27T03:39:29.000Z</time>
      </trkpt>
      <trkpt lat="27.991488" lon="86.829658">
        <ele>5452</ele>
        <time>2022-10-27T03:39:33.000Z</time>
      </trkpt>
      <trkpt lat="27.991507" lon="86.829658">
        <ele>5453</ele>
        <time>2022-10-27T03:39:37.000Z</time>
      </trkpt>
      <trkpt lat="27.991523" lon="86.829677">
        <ele>5452.8</ele>
        <time>2022-10-27T03:39:42.000Z</time>
      </trkpt>
      <trkpt lat="27.991542" lon="86.829683">
        <ele>5453.6</ele>
        <time>2022-10-27T03:39:49.000Z</time>
      </trkpt>
      <trkpt lat="27.991552" lon="86.829664">
        <ele>5454.2</ele>
        <time>2022-10-27T03:39:54.000Z</time>
      </trkpt>
      <trkpt lat="27.991568" lon="86.829651">
        <ele>5455.2</ele>
        <time>2022-10-27T03:40:00.000Z</time>
      </trkpt>
      <trkpt lat="27.991587" lon="86.829651">
        <ele>5455.8</ele>
        <time>2022-10-27T03:40:08.000Z</time>
      </trkpt>
      <trkpt lat="27.991594" lon="86.829626">
        <ele>5456.4</ele>
        <time>2022-10-27T03:40:13.000Z</time>
      </trkpt>
      <trkpt lat="27.9916" lon="86.829606">
        <ele>5457</ele>
        <time>2022-10-27T03:40:18.000Z</time>
      </trkpt>
      <trkpt lat="27.991606" lon="86.829587">
        <ele>5457</ele>
        <time>2022-10-27T03:40:20.000Z</time>
      </trkpt>
      <trkpt lat="27.991622" lon="86.8296">
        <ele>5457.6</ele>
        <time>2022-10-27T03:40:22.000Z</time>
      </trkpt>
      <trkpt lat="27.991642" lon="86.829606">
        <ele>5458.2</ele>
        <time>2022-10-27T03:40:27.000Z</time>
      </trkpt>
      <trkpt lat="27.991661" lon="86.829606">
        <ele>5458.6</ele>
        <time>2022-10-27T03:40:35.000Z</time>
      </trkpt>
      <trkpt lat="27.99168" lon="86.8296">
        <ele>5459.2</ele>
        <time>2022-10-27T03:40:40.000Z</time>
      </trkpt>
      <trkpt lat="27.991693" lon="86.829619">
        <ele>5460</ele>
        <time>2022-10-27T03:40:48.000Z</time>
      </trkpt>
      <trkpt lat="27.991709" lon="86.829606">
        <ele>5460.4</ele>
        <time>2022-10-27T03:40:55.000Z</time>
      </trkpt>
      <trkpt lat="27.991715" lon="86.829581">
        <ele>5460.8</ele>
        <time>2022-10-27T03:40:59.000Z</time>
      </trkpt>
      <trkpt lat="27.991728" lon="86.829562">
        <ele>5461.4</ele>
        <time>2022-10-27T03:41:05.000Z</time>
      </trkpt>
      <trkpt lat="27.991744" lon="86.829549">
        <ele>5462</ele>
        <time>2022-10-27T03:41:11.000Z</time>
      </trkpt>
      <trkpt lat="27.99176" lon="86.829562">
        <ele>5462.4</ele>
        <time>2022-10-27T03:41:15.000Z</time>
      </trkpt>
      <trkpt lat="27.991776" lon="86.829581">
        <ele>5463</ele>
        <time>2022-10-27T03:41:21.000Z</time>
      </trkpt>
      <trkpt lat="27.991795" lon="86.829587">
        <ele>5463.6</ele>
        <time>2022-10-27T03:41:28.000Z</time>
      </trkpt>
      <trkpt lat="27.991808" lon="86.829606">
        <ele>5464.2</ele>
        <time>2022-10-27T03:41:33.000Z</time>
      </trkpt>
      <trkpt lat="27.991827" lon="86.829613">
        <ele>5465</ele>
        <time>2022-10-27T03:41:40.000Z</time>
      </trkpt>
      <trkpt lat="27.991843" lon="86.829587">
        <ele>5465</ele>
        <time>2022-10-27T03:41:49.000Z</time>
      </trkpt>
      <trkpt lat="27.991862" lon="86.829581">
        <ele>5466</ele>
        <time>2022-10-27T03:41:55.000Z</time>
      </trkpt>
      <trkpt lat="27.991882" lon="86.829574">
        <ele>5466.6</ele>
        <time>2022-10-27T03:41:59.000Z</time>
      </trkpt>
      <trkpt lat="27.991904" lon="86.829581">
        <ele>5467</ele>
        <time>2022-10-27T03:42:05.000Z</time>
      </trkpt>
      <trkpt lat="27.99193" lon="86.829587">
        <ele>5467.8</ele>
        <time>2022-10-27T03:42:12.000Z</time>
      </trkpt>
      <trkpt lat="27.991946" lon="86.8296">
        <ele>5468.4</ele>
        <time>2022-10-27T03:42:16.000Z</time>
      </trkpt>
      <trkpt lat="27.991962" lon="86.829613">
        <ele>5468.4</ele>
        <time>2022-10-27T03:42:22.000Z</time>
      </trkpt>
      <trkpt lat="27.991981" lon="86.829613">
        <ele>5469</ele>
        <time>2022-10-27T03:42:29.000Z</time>
      </trkpt>
      <trkpt lat="27.99199" lon="86.829587">
        <ele>5470</ele>
        <time>2022-10-27T03:42:37.000Z</time>
      </trkpt>
      <trkpt lat="27.992003" lon="86.829568">
        <ele>5470.6</ele>
        <time>2022-10-27T03:42:44.000Z</time>
      </trkpt>
      <trkpt lat="27.992013" lon="86.829549">
        <ele>5470.8</ele>
        <time>2022-10-27T03:42:50.000Z</time>
      </trkpt>
      <trkpt lat="27.992029" lon="86.829536">
        <ele>5471.6</ele>
        <time>2022-10-27T03:42:58.000Z</time>
      </trkpt>
      <trkpt lat="27.992045" lon="86.829549">
        <ele>5472.2</ele>
        <time>2022-10-27T03:43:06.000Z</time>
      </trkpt>
      <trkpt lat="27.992064" lon="86.829542">
        <ele>5473.6</ele>
        <time>2022-10-27T03:43:17.000Z</time>
      </trkpt>
      <trkpt lat="27.99207" lon="86.829523">
        <ele>5474</ele>
        <time>2022-10-27T03:43:24.000Z</time>
      </trkpt>
      <trkpt lat="27.992077" lon="86.829498">
        <ele>5474</ele>
        <time>2022-10-27T03:43:31.000Z</time>
      </trkpt>
      <trkpt lat="27.992093" lon="86.829485">
        <ele>5474.8</ele>
        <time>2022-10-27T03:43:38.000Z</time>
      </trkpt>
      <trkpt lat="27.992109" lon="86.829498">
        <ele>5475.2</ele>
        <time>2022-10-27T03:43:45.000Z</time>
      </trkpt>
      <trkpt lat="27.992176" lon="86.829466">
        <ele>5480.2</ele>
        <time>2022-10-27T03:45:22.000Z</time>
      </trkpt>
      <trkpt lat="27.992192" lon="86.829478">
        <ele>5480.8</ele>
        <time>2022-10-27T03:45:24.000Z</time>
      </trkpt>
      <trkpt lat="27.992208" lon="86.829491">
        <ele>5480.8</ele>
        <time>2022-10-27T03:45:27.000Z</time>
      </trkpt>
      <trkpt lat="27.992435" lon="86.82944">
        <ele>5490.4</ele>
        <time>2022-10-27T03:47:45.000Z</time>
      </trkpt>
      <trkpt lat="27.992438" lon="86.829414">
        <ele>5490.4</ele>
        <time>2022-10-27T03:47:47.000Z</time>
      </trkpt>
      <trkpt lat="27.992445" lon="86.829389">
        <ele>5490.4</ele>
        <time>2022-10-27T03:47:49.000Z</time>
      </trkpt>
      <trkpt lat="27.992451" lon="86.82935">
        <ele>5490.4</ele>
        <time>2022-10-27T03:47:55.000Z</time>
      </trkpt>
      <trkpt lat="27.992464" lon="86.829325">
        <ele>5491.6</ele>
        <time>2022-10-27T03:48:19.000Z</time>
      </trkpt>
      <trkpt lat="27.99247" lon="86.829299">
        <ele>5491.8</ele>
        <time>2022-10-27T03:48:21.000Z</time>
      </trkpt>
      <trkpt lat="27.99249" lon="86.829286">
        <ele>5492</ele>
        <time>2022-10-27T03:48:24.000Z</time>
      </trkpt>
      <trkpt lat="27.992496" lon="86.829267">
        <ele>5492.6</ele>
        <time>2022-10-27T03:48:26.000Z</time>
      </trkpt>
      <trkpt lat="27.992515" lon="86.829267">
        <ele>5493</ele>
        <time>2022-10-27T03:48:34.000Z</time>
      </trkpt>
      <trkpt lat="27.992538" lon="86.829261">
        <ele>5493.6</ele>
        <time>2022-10-27T03:48:40.000Z</time>
      </trkpt>
      <trkpt lat="27.99255" lon="86.82928">
        <ele>5494.4</ele>
        <time>2022-10-27T03:48:47.000Z</time>
      </trkpt>
      <trkpt lat="27.99257" lon="86.829286">
        <ele>5495.2</ele>
        <time>2022-10-27T03:48:55.000Z</time>
      </trkpt>
      <trkpt lat="27.993056" lon="86.829152">
        <ele>5517.4</ele>
        <time>2022-10-27T04:00:35.000Z</time>
      </trkpt>
      <trkpt lat="27.993075" lon="86.829171">
        <ele>5517.4</ele>
        <time>2022-10-27T04:00:37.000Z</time>
      </trkpt>
      <trkpt lat="27.993094" lon="86.829178">
        <ele>5517.4</ele>
        <time>2022-10-27T04:00:39.000Z</time>
      </trkpt>
      <trkpt lat="27.993117" lon="86.82919">
        <ele>5517.8</ele>
        <time>2022-10-27T04:00:41.000Z</time>
      </trkpt>
      <trkpt lat="27.993136" lon="86.82921">
        <ele>5517.4</ele>
        <time>2022-10-27T04:00:43.000Z</time>
      </trkpt>
      <trkpt lat="27.993155" lon="86.829203">
        <ele>5518.4</ele>
        <time>2022-10-27T04:00:53.000Z</time>
      </trkpt>
      <trkpt lat="27.993174" lon="86.829203">
        <ele>5518.2</ele>
        <time>2022-10-27T04:00:57.000Z</time>
      </trkpt>
      <trkpt lat="27.993194" lon="86.82921">
        <ele>5519.2</ele>
        <time>2022-10-27T04:01:03.000Z</time>
      </trkpt>
      <trkpt lat="27.99321" lon="86.829222">
        <ele>5519.6</ele>
        <time>2022-10-27T04:01:11.000Z</time>
      </trkpt>
      <trkpt lat="27.993494" lon="86.829152">
        <ele>5533.4</ele>
        <time>2022-10-27T04:04:35.000Z</time>
      </trkpt>
      <trkpt lat="27.993514" lon="86.829152">
        <ele>5533.8</ele>
        <time>2022-10-27T04:04:39.000Z</time>
      </trkpt>
      <trkpt lat="27.993533" lon="86.829152">
        <ele>5534.4</ele>
        <time>2022-10-27T04:04:42.000Z</time>
      </trkpt>
      <trkpt lat="27.993549" lon="86.829165">
        <ele>5534.8</ele>
        <time>2022-10-27T04:04:44.000Z</time>
      </trkpt>
      <trkpt lat="27.993568" lon="86.829171">
        <ele>5535.4</ele>
        <time>2022-10-27T04:04:53.000Z</time>
      </trkpt>
      <trkpt lat="27.993587" lon="86.829152">
        <ele>5536</ele>
        <time>2022-10-27T04:05:03.000Z</time>
      </trkpt>
      <trkpt lat="27.993594" lon="86.829126">
        <ele>5537.4</ele>
        <time>2022-10-27T04:05:13.000Z</time>
      </trkpt>
      <trkpt lat="27.9936" lon="86.829107">
        <ele>5537.8</ele>
        <time>2022-10-27T04:05:18.000Z</time>
      </trkpt>
      <trkpt lat="27.99385" lon="86.829011">
        <ele>5548.8</ele>
        <time>2022-10-27T04:08:21.000Z</time>
      </trkpt>
      <trkpt lat="27.993882" lon="86.829011">
        <ele>5549.6</ele>
        <time>2022-10-27T04:08:25.000Z</time>
      </trkpt>
      <trkpt lat="27.993907" lon="86.829011">
        <ele>5549.2</ele>
        <time>2022-10-27T04:08:28.000Z</time>
      </trkpt>
      <trkpt lat="27.99392" lon="86.828992">
        <ele>5550.2</ele>
        <time>2022-10-27T04:08:32.000Z</time>
      </trkpt>
      <trkpt lat="27.993936" lon="86.828979">
        <ele>5550.4</ele>
        <time>2022-10-27T04:08:39.000Z</time>
      </trkpt>
      <trkpt lat="27.993955" lon="86.828986">
        <ele>5551.6</ele>
        <time>2022-10-27T04:08:46.000Z</time>
      </trkpt>
      <trkpt lat="27.993974" lon="86.828979">
        <ele>5552</ele>
        <time>2022-10-27T04:08:52.000Z</time>
      </trkpt>
      <trkpt lat="27.993984" lon="86.828954">
        <ele>5553.2</ele>
        <time>2022-10-27T04:09:01.000Z</time>
      </trkpt>
      <trkpt lat="27.993984" lon="86.828928">
        <ele>5553.8</ele>
        <time>2022-10-27T04:09:07.000Z</time>
      </trkpt>
      <trkpt lat="27.993997" lon="86.828909">
        <ele>5554</ele>
        <time>2022-10-27T04:09:11.000Z</time>
      </trkpt>
      <trkpt lat="27.994016" lon="86.828902">
        <ele>5555</ele>
        <time>2022-10-27T04:09:18.000Z</time>
      </trkpt>
      <trkpt lat="27.994035" lon="86.828909">
        <ele>5554.6</ele>
        <time>2022-10-27T04:09:24.000Z</time>
      </trkpt>
      <trkpt lat="27.994051" lon="86.828896">
        <ele>5555.2</ele>
        <time>2022-10-27T04:09:32.000Z</time>
      </trkpt>
      <trkpt lat="27.994054" lon="86.82887">
        <ele>5555.6</ele>
        <time>2022-10-27T04:09:38.000Z</time>
      </trkpt>
      <trkpt lat="27.99407" lon="86.828858">
        <ele>5556.2</ele>
        <time>2022-10-27T04:09:43.000Z</time>
      </trkpt>
      <trkpt lat="27.99409" lon="86.828864">
        <ele>5556.8</ele>
        <time>2022-10-27T04:09:50.000Z</time>
      </trkpt>
      <trkpt lat="27.994109" lon="86.828864">
        <ele>5557.4</ele>
        <time>2022-10-27T04:09:57.000Z</time>
      </trkpt>
      <trkpt lat="27.994128" lon="86.828851">
        <ele>5558</ele>
        <time>2022-10-27T04:10:03.000Z</time>
      </trkpt>
      <trkpt lat="27.994147" lon="86.828851">
        <ele>5558.6</ele>
        <time>2022-10-27T04:10:08.000Z</time>
      </trkpt>
      <trkpt lat="27.994166" lon="86.828858">
        <ele>5558.6</ele>
        <time>2022-10-27T04:10:13.000Z</time>
      </trkpt>
      <trkpt lat="27.994182" lon="86.82887">
        <ele>5559.6</ele>
        <time>2022-10-27T04:10:20.000Z</time>
      </trkpt>
      <trkpt lat="27.994368" lon="86.828787">
        <ele>5571.2</ele>
        <time>2022-10-27T04:13:43.000Z</time>
      </trkpt>
      <trkpt lat="27.994384" lon="86.828774">
        <ele>5571.6</ele>
        <time>2022-10-27T04:13:45.000Z</time>
      </trkpt>
      <trkpt lat="27.9944" lon="86.828755">
        <ele>5571.8</ele>
        <time>2022-10-27T04:13:47.000Z</time>
      </trkpt>
      <trkpt lat="27.994422" lon="86.828742">
        <ele>5571.8</ele>
        <time>2022-10-27T04:13:49.000Z</time>
      </trkpt>
      <trkpt lat="27.994445" lon="86.828736">
        <ele>5572.2</ele>
        <time>2022-10-27T04:13:52.000Z</time>
      </trkpt>
      <trkpt lat="27.994464" lon="86.828742">
        <ele>5573</ele>
        <time>2022-10-27T04:13:58.000Z</time>
      </trkpt>
      <trkpt lat="27.994483" lon="86.828736">
        <ele>5574.2</ele>
        <time>2022-10-27T04:14:05.000Z</time>
      </trkpt>
      <trkpt lat="27.994486" lon="86.82871">
        <ele>5574.2</ele>
        <time>2022-10-27T04:14:10.000Z</time>
      </trkpt>
      <trkpt lat="27.994486" lon="86.828685">
        <ele>5574.4</ele>
        <time>2022-10-27T04:14:18.000Z</time>
      </trkpt>
      <trkpt lat="27.994502" lon="86.828666">
        <ele>5575.4</ele>
        <time>2022-10-27T04:14:23.000Z</time>
      </trkpt>
      <trkpt lat="27.994522" lon="86.828672">
        <ele>5575.6</ele>
        <time>2022-10-27T04:14:28.000Z</time>
      </trkpt>
      <trkpt lat="27.994538" lon="86.828685">
        <ele>5576</ele>
        <time>2022-10-27T04:14:33.000Z</time>
      </trkpt>
      <trkpt lat="27.99455" lon="86.828666">
        <ele>5576.8</ele>
        <time>2022-10-27T04:14:40.000Z</time>
      </trkpt>
      <trkpt lat="27.994544" lon="86.828634">
        <ele>5578</ele>
        <time>2022-10-27T04:14:50.000Z</time>
      </trkpt>
      <trkpt lat="27.994547" lon="86.828608">
        <ele>5578.6</ele>
        <time>2022-10-27T04:14:57.000Z</time>
      </trkpt>
      <trkpt lat="27.994563" lon="86.82857">
        <ele>5579.6</ele>
        <time>2022-10-27T04:15:10.000Z</time>
      </trkpt>
      <trkpt lat="27.994566" lon="86.828544">
        <ele>5579.8</ele>
        <time>2022-10-27T04:15:15.000Z</time>
      </trkpt>
      <trkpt lat="27.994586" lon="86.828544">
        <ele>5580.6</ele>
        <time>2022-10-27T04:15:20.000Z</time>
      </trkpt>
      <trkpt lat="27.994602" lon="86.828557">
        <ele>5581.2</ele>
        <time>2022-10-27T04:15:25.000Z</time>
      </trkpt>
      <trkpt lat="27.994621" lon="86.828557">
        <ele>5581.8</ele>
        <time>2022-10-27T04:15:31.000Z</time>
      </trkpt>
      <trkpt lat="27.99464" lon="86.828557">
        <ele>5582</ele>
        <time>2022-10-27T04:15:35.000Z</time>
      </trkpt>
      <trkpt lat="27.994656" lon="86.828576">
        <ele>5582</ele>
        <time>2022-10-27T04:15:40.000Z</time>
      </trkpt>
      <trkpt lat="27.994675" lon="86.828589">
        <ele>5582.6</ele>
        <time>2022-10-27T04:15:46.000Z</time>
      </trkpt>
      <trkpt lat="27.994682" lon="86.828608">
        <ele>5582.6</ele>
        <time>2022-10-27T04:15:50.000Z</time>
      </trkpt>
      <trkpt lat="27.994694" lon="86.828627">
        <ele>5582.8</ele>
        <time>2022-10-27T04:15:55.000Z</time>
      </trkpt>
      <trkpt lat="27.994704" lon="86.828646">
        <ele>5583.4</ele>
        <time>2022-10-27T04:15:58.000Z</time>
      </trkpt>
      <trkpt lat="27.994723" lon="86.828659">
        <ele>5583.4</ele>
        <time>2022-10-27T04:16:06.000Z</time>
      </trkpt>
      <trkpt lat="27.994746" lon="86.828666">
        <ele>5585.8</ele>
        <time>2022-10-27T04:16:51.000Z</time>
      </trkpt>
      <trkpt lat="27.994762" lon="86.828646">
        <ele>5586.2</ele>
        <time>2022-10-27T04:16:54.000Z</time>
      </trkpt>
      <trkpt lat="27.994778" lon="86.828627">
        <ele>5587</ele>
        <time>2022-10-27T04:16:57.000Z</time>
      </trkpt>
      <trkpt lat="27.994912" lon="86.828704">
        <ele>5592.2</ele>
        <time>2022-10-27T04:18:26.000Z</time>
      </trkpt>
      <trkpt lat="27.994934" lon="86.828723">
        <ele>5592.2</ele>
        <time>2022-10-27T04:18:29.000Z</time>
      </trkpt>
      <trkpt lat="27.994954" lon="86.82873">
        <ele>5592.4</ele>
        <time>2022-10-27T04:18:31.000Z</time>
      </trkpt>
      <trkpt lat="27.994976" lon="86.828736">
        <ele>5592.4</ele>
        <time>2022-10-27T04:18:33.000Z</time>
      </trkpt>
      <trkpt lat="27.994995" lon="86.828742">
        <ele>5593</ele>
        <time>2022-10-27T04:18:35.000Z</time>
      </trkpt>
      <trkpt lat="27.995008" lon="86.828768">
        <ele>5592.8</ele>
        <time>2022-10-27T04:18:40.000Z</time>
      </trkpt>
      <trkpt lat="27.995027" lon="86.828774">
        <ele>5593</ele>
        <time>2022-10-27T04:18:47.000Z</time>
      </trkpt>
      <trkpt lat="27.995046" lon="86.828781">
        <ele>5594.6</ele>
        <time>2022-10-27T04:18:56.000Z</time>
      </trkpt>
      <trkpt lat="27.995053" lon="86.828755">
        <ele>5594.8</ele>
        <time>2022-10-27T04:19:01.000Z</time>
      </trkpt>
      <trkpt lat="27.99505" lon="86.82873">
        <ele>5595.4</ele>
        <time>2022-10-27T04:19:10.000Z</time>
      </trkpt>
      <trkpt lat="27.99527" lon="86.828634">
        <ele>5607.2</ele>
        <time>2022-10-27T04:22:34.000Z</time>
      </trkpt>
      <trkpt lat="27.995286" lon="86.828653">
        <ele>5607.2</ele>
        <time>2022-10-27T04:22:36.000Z</time>
      </trkpt>
      <trkpt lat="27.995309" lon="86.828666">
        <ele>5607.8</ele>
        <time>2022-10-27T04:22:39.000Z</time>
      </trkpt>
      <trkpt lat="27.995328" lon="86.828672">
        <ele>5608.2</ele>
        <time>2022-10-27T04:22:42.000Z</time>
      </trkpt>
      <trkpt lat="27.995347" lon="86.828672">
        <ele>5608.8</ele>
        <time>2022-10-27T04:22:47.000Z</time>
      </trkpt>
      <trkpt lat="27.995782" lon="86.828422">
        <ele>5638.2</ele>
        <time>2022-10-27T04:48:03.000Z</time>
      </trkpt>
      <trkpt lat="27.995802" lon="86.828416">
        <ele>5638.2</ele>
        <time>2022-10-27T04:48:07.000Z</time>
      </trkpt>
      <trkpt lat="27.995773" lon="86.828429">
        <ele>5635.2</ele>
        <time>2022-10-27T04:56:44.000Z</time>
      </trkpt>
      <trkpt lat="27.995728" lon="86.828467">
        <ele>5635.2</ele>
        <time>2022-10-27T05:00:37.000Z</time>
      </trkpt>
      <trkpt lat="27.995763" lon="86.828454">
        <ele>5639.8</ele>
        <time>2022-10-27T05:10:47.000Z</time>
      </trkpt>
      <trkpt lat="27.995782" lon="86.828467">
        <ele>5637</ele>
        <time>2022-10-27T05:11:41.000Z</time>
      </trkpt>
      <trkpt lat="27.99575" lon="86.828474">
        <ele>5637</ele>
        <time>2022-10-27T05:11:43.000Z</time>
      </trkpt>
      <trkpt lat="27.995731" lon="86.828493">
        <ele>5636.6</ele>
        <time>2022-10-27T05:11:45.000Z</time>
      </trkpt>
      <trkpt lat="27.995709" lon="86.828506">
        <ele>5636</ele>
        <time>2022-10-27T05:11:47.000Z</time>
      </trkpt>
      <trkpt lat="27.995686" lon="86.828512">
        <ele>5635.8</ele>
        <time>2022-10-27T05:11:49.000Z</time>
      </trkpt>
      <trkpt lat="27.995661" lon="86.828512">
        <ele>5635.2</ele>
        <time>2022-10-27T05:11:52.000Z</time>
      </trkpt>
      <trkpt lat="27.995648" lon="86.828531">
        <ele>5634.2</ele>
        <time>2022-10-27T05:11:55.000Z</time>
      </trkpt>
      <trkpt lat="27.995632" lon="86.828544">
        <ele>5633</ele>
        <time>2022-10-27T05:12:01.000Z</time>
      </trkpt>
      <trkpt lat="27.99561" lon="86.828538">
        <ele>5632.4</ele>
        <time>2022-10-27T05:12:05.000Z</time>
      </trkpt>
      <trkpt lat="27.995587" lon="86.82855">
        <ele>5631.8</ele>
        <time>2022-10-27T05:12:13.000Z</time>
      </trkpt>
      <trkpt lat="27.995581" lon="86.82857">
        <ele>5630.6</ele>
        <time>2022-10-27T05:12:19.000Z</time>
      </trkpt>
      <trkpt lat="27.995571" lon="86.828589">
        <ele>5630.6</ele>
        <time>2022-10-27T05:12:23.000Z</time>
      </trkpt>
      <trkpt lat="27.995562" lon="86.828608">
        <ele>5630</ele>
        <time>2022-10-27T05:12:26.000Z</time>
      </trkpt>
      <trkpt lat="27.995542" lon="86.828621">
        <ele>5627.8</ele>
        <time>2022-10-27T05:12:36.000Z</time>
      </trkpt>
      <trkpt lat="27.99552" lon="86.828621">
        <ele>5627.4</ele>
        <time>2022-10-27T05:12:41.000Z</time>
      </trkpt>
      <trkpt lat="27.995418" lon="86.828634">
        <ele>5619</ele>
        <time>2022-10-27T05:13:41.000Z</time>
      </trkpt>
      <trkpt lat="27.995408" lon="86.828653">
        <ele>5618.8</ele>
        <time>2022-10-27T05:13:43.000Z</time>
      </trkpt>
      <trkpt lat="27.995395" lon="86.828672">
        <ele>5618.8</ele>
        <time>2022-10-27T05:13:45.000Z</time>
      </trkpt>
      <trkpt lat="27.995376" lon="86.828691">
        <ele>5618.2</ele>
        <time>2022-10-27T05:13:48.000Z</time>
      </trkpt>
      <trkpt lat="27.995379" lon="86.828723">
        <ele>5617.6</ele>
        <time>2022-10-27T05:13:52.000Z</time>
      </trkpt>
      <trkpt lat="27.995379" lon="86.828749">
        <ele>5617.2</ele>
        <time>2022-10-27T05:13:57.000Z</time>
      </trkpt>
      <trkpt lat="27.99536" lon="86.828749">
        <ele>5616.4</ele>
        <time>2022-10-27T05:14:01.000Z</time>
      </trkpt>
      <trkpt lat="27.995341" lon="86.828755">
        <ele>5615.4</ele>
        <time>2022-10-27T05:14:06.000Z</time>
      </trkpt>
      <trkpt lat="27.995325" lon="86.828768">
        <ele>5614.8</ele>
        <time>2022-10-27T05:14:11.000Z</time>
      </trkpt>
      <trkpt lat="27.995306" lon="86.828774">
        <ele>5613.6</ele>
        <time>2022-10-27T05:14:17.000Z</time>
      </trkpt>
      <trkpt lat="27.995286" lon="86.828774">
        <ele>5613</ele>
        <time>2022-10-27T05:14:20.000Z</time>
      </trkpt>
      <trkpt lat="27.995267" lon="86.828774">
        <ele>5612.8</ele>
        <time>2022-10-27T05:14:23.000Z</time>
      </trkpt>
      <trkpt lat="27.995248" lon="86.828768">
        <ele>5611.6</ele>
        <time>2022-10-27T05:14:28.000Z</time>
      </trkpt>
      <trkpt lat="27.995229" lon="86.828787">
        <ele>5608.2</ele>
        <time>2022-10-27T05:14:50.000Z</time>
      </trkpt>
      <trkpt lat="27.995219" lon="86.828813">
        <ele>5607.8</ele>
        <time>2022-10-27T05:14:53.000Z</time>
      </trkpt>
      <trkpt lat="27.9952" lon="86.828826">
        <ele>5607.8</ele>
        <time>2022-10-27T05:14:56.000Z</time>
      </trkpt>
      <trkpt lat="27.995181" lon="86.828832">
        <ele>5607.2</ele>
        <time>2022-10-27T05:14:59.000Z</time>
      </trkpt>
      <trkpt lat="27.995162" lon="86.828845">
        <ele>5606.4</ele>
        <time>2022-10-27T05:15:03.000Z</time>
      </trkpt>
      <trkpt lat="27.995142" lon="86.828851">
        <ele>5605.4</ele>
        <time>2022-10-27T05:15:08.000Z</time>
      </trkpt>
      <trkpt lat="27.995126" lon="86.828864">
        <ele>5604.2</ele>
        <time>2022-10-27T05:15:15.000Z</time>
      </trkpt>
      <trkpt lat="27.995104" lon="86.82887">
        <ele>5604</ele>
        <time>2022-10-27T05:15:20.000Z</time>
      </trkpt>
      <trkpt lat="27.995088" lon="86.828883">
        <ele>5603.4</ele>
        <time>2022-10-27T05:15:24.000Z</time>
      </trkpt>
      <trkpt lat="27.995072" lon="86.82887">
        <ele>5603</ele>
        <time>2022-10-27T05:15:29.000Z</time>
      </trkpt>
      <trkpt lat="27.995056" lon="86.828883">
        <ele>5601.8</ele>
        <time>2022-10-27T05:15:34.000Z</time>
      </trkpt>
      <trkpt lat="27.995043" lon="86.828928">
        <ele>5600.4</ele>
        <time>2022-10-27T05:15:42.000Z</time>
      </trkpt>
      <trkpt lat="27.995021" lon="86.828934">
        <ele>5599.8</ele>
        <time>2022-10-27T05:15:47.000Z</time>
      </trkpt>
      <trkpt lat="27.995011" lon="86.828986">
        <ele>5598.2</ele>
        <time>2022-10-27T05:15:55.000Z</time>
      </trkpt>
      <trkpt lat="27.995011" lon="86.829011">
        <ele>5597.6</ele>
        <time>2022-10-27T05:15:58.000Z</time>
      </trkpt>
      <trkpt lat="27.995021" lon="86.82903">
        <ele>5597.4</ele>
        <time>2022-10-27T05:16:01.000Z</time>
      </trkpt>
      <trkpt lat="27.99503" lon="86.829056">
        <ele>5597.4</ele>
        <time>2022-10-27T05:16:03.000Z</time>
      </trkpt>
      <trkpt lat="27.99503" lon="86.829082">
        <ele>5596.6</ele>
        <time>2022-10-27T05:16:06.000Z</time>
      </trkpt>
      <trkpt lat="27.99503" lon="86.829107">
        <ele>5596</ele>
        <time>2022-10-27T05:16:11.000Z</time>
      </trkpt>
      <trkpt lat="27.995027" lon="86.829133">
        <ele>5595.2</ele>
        <time>2022-10-27T05:16:14.000Z</time>
      </trkpt>
      <trkpt lat="27.995018" lon="86.829152">
        <ele>5594.6</ele>
        <time>2022-10-27T05:16:17.000Z</time>
      </trkpt>
      <trkpt lat="27.995014" lon="86.829184">
        <ele>5594.2</ele>
        <time>2022-10-27T05:16:21.000Z</time>
      </trkpt>
      <trkpt lat="27.995008" lon="86.82921">
        <ele>5593.8</ele>
        <time>2022-10-27T05:16:24.000Z</time>
      </trkpt>
      <trkpt lat="27.994982" lon="86.829248">
        <ele>5590.6</ele>
        <time>2022-10-27T05:17:40.000Z</time>
      </trkpt>
      <trkpt lat="27.994954" lon="86.829254">
        <ele>5590.4</ele>
        <time>2022-10-27T05:17:42.000Z</time>
      </trkpt>
      <trkpt lat="27.994928" lon="86.82928">
        <ele>5589.4</ele>
        <time>2022-10-27T05:17:45.000Z</time>
      </trkpt>
      <trkpt lat="27.994906" lon="86.82928">
        <ele>5589.2</ele>
        <time>2022-10-27T05:17:47.000Z</time>
      </trkpt>
      <trkpt lat="27.994886" lon="86.829286">
        <ele>5588.2</ele>
        <time>2022-10-27T05:17:50.000Z</time>
      </trkpt>
      <trkpt lat="27.99487" lon="86.829299">
        <ele>5588.2</ele>
        <time>2022-10-27T05:18:01.000Z</time>
      </trkpt>
      <trkpt lat="27.994851" lon="86.829299">
        <ele>5587.6</ele>
        <time>2022-10-27T05:18:04.000Z</time>
      </trkpt>
      <trkpt lat="27.994832" lon="86.829286">
        <ele>5587</ele>
        <time>2022-10-27T05:18:07.000Z</time>
      </trkpt>
      <trkpt lat="27.994822" lon="86.829267">
        <ele>5586.6</ele>
        <time>2022-10-27T05:18:09.000Z</time>
      </trkpt>
      <trkpt lat="27.994803" lon="86.829254">
        <ele>5586.4</ele>
        <time>2022-10-27T05:18:12.000Z</time>
      </trkpt>
      <trkpt lat="27.994784" lon="86.829229">
        <ele>5585.8</ele>
        <time>2022-10-27T05:18:15.000Z</time>
      </trkpt>
      <trkpt lat="27.994765" lon="86.829229">
        <ele>5585.4</ele>
        <time>2022-10-27T05:18:18.000Z</time>
      </trkpt>
      <trkpt lat="27.994752" lon="86.829248">
        <ele>5584.6</ele>
        <time>2022-10-27T05:18:21.000Z</time>
      </trkpt>
      <trkpt lat="27.994733" lon="86.829261">
        <ele>5583.6</ele>
        <time>2022-10-27T05:18:24.000Z</time>
      </trkpt>
      <trkpt lat="27.994714" lon="86.829248">
        <ele>5582.8</ele>
        <time>2022-10-27T05:18:27.000Z</time>
      </trkpt>
      <trkpt lat="27.994694" lon="86.829242">
        <ele>5582.6</ele>
        <time>2022-10-27T05:18:30.000Z</time>
      </trkpt>
      <trkpt lat="27.994672" lon="86.829242">
        <ele>5581.8</ele>
        <time>2022-10-27T05:18:33.000Z</time>
      </trkpt>
      <trkpt lat="27.994656" lon="86.829261">
        <ele>5580.8</ele>
        <time>2022-10-27T05:18:38.000Z</time>
      </trkpt>
      <trkpt lat="27.994646" lon="86.82928">
        <ele>5580</ele>
        <time>2022-10-27T05:18:41.000Z</time>
      </trkpt>
      <trkpt lat="27.994637" lon="86.829306">
        <ele>5579.4</ele>
        <time>2022-10-27T05:18:45.000Z</time>
      </trkpt>
      <trkpt lat="27.994618" lon="86.829312">
        <ele>5578.4</ele>
        <time>2022-10-27T05:18:48.000Z</time>
      </trkpt>
      <trkpt lat="27.994602" lon="86.829325">
        <ele>5578.2</ele>
        <time>2022-10-27T05:18:50.000Z</time>
      </trkpt>
      <trkpt lat="27.994579" lon="86.829331">
        <ele>5577.8</ele>
        <time>2022-10-27T05:18:53.000Z</time>
      </trkpt>
      <trkpt lat="27.994557" lon="86.829331">
        <ele>5576.8</ele>
        <time>2022-10-27T05:18:56.000Z</time>
      </trkpt>
      <trkpt lat="27.994541" lon="86.82935">
        <ele>5576.2</ele>
        <time>2022-10-27T05:19:00.000Z</time>
      </trkpt>
      <trkpt lat="27.994525" lon="86.829363">
        <ele>5576</ele>
        <time>2022-10-27T05:19:02.000Z</time>
      </trkpt>
      <trkpt lat="27.994515" lon="86.829344">
        <ele>5575.4</ele>
        <time>2022-10-27T05:19:04.000Z</time>
      </trkpt>
      <trkpt lat="27.994496" lon="86.829331">
        <ele>5575</ele>
        <time>2022-10-27T05:19:08.000Z</time>
      </trkpt>
      <trkpt lat="27.994477" lon="86.829344">
        <ele>5574.2</ele>
        <time>2022-10-27T05:19:12.000Z</time>
      </trkpt>
      <trkpt lat="27.994458" lon="86.829344">
        <ele>5573.2</ele>
        <time>2022-10-27T05:19:15.000Z</time>
      </trkpt>
      <trkpt lat="27.994445" lon="86.829363">
        <ele>5572.2</ele>
        <time>2022-10-27T05:19:18.000Z</time>
      </trkpt>
      <trkpt lat="27.994422" lon="86.82935">
        <ele>5571.4</ele>
        <time>2022-10-27T05:19:22.000Z</time>
      </trkpt>
      <trkpt lat="27.994403" lon="86.82935">
        <ele>5570.8</ele>
        <time>2022-10-27T05:19:25.000Z</time>
      </trkpt>
      <trkpt lat="27.994387" lon="86.829363">
        <ele>5570.4</ele>
        <time>2022-10-27T05:19:27.000Z</time>
      </trkpt>
      <trkpt lat="27.994371" lon="86.82935">
        <ele>5570.2</ele>
        <time>2022-10-27T05:19:29.000Z</time>
      </trkpt>
      <trkpt lat="27.994349" lon="86.829344">
        <ele>5569.6</ele>
        <time>2022-10-27T05:19:32.000Z</time>
      </trkpt>
      <trkpt lat="27.994333" lon="86.829331">
        <ele>5568.6</ele>
        <time>2022-10-27T05:19:35.000Z</time>
      </trkpt>
      <trkpt lat="27.994314" lon="86.829312">
        <ele>5568</ele>
        <time>2022-10-27T05:19:37.000Z</time>
      </trkpt>
      <trkpt lat="27.994291" lon="86.829312">
        <ele>5567.6</ele>
        <time>2022-10-27T05:19:40.000Z</time>
      </trkpt>
      <trkpt lat="27.994272" lon="86.829312">
        <ele>5567</ele>
        <time>2022-10-27T05:19:43.000Z</time>
      </trkpt>
      <trkpt lat="27.994253" lon="86.829306">
        <ele>5566.8</ele>
        <time>2022-10-27T05:19:47.000Z</time>
      </trkpt>
      <trkpt lat="27.994227" lon="86.829331">
        <ele>5564.4</ele>
        <time>2022-10-27T05:20:27.000Z</time>
      </trkpt>
      <trkpt lat="27.994202" lon="86.829331">
        <ele>5563.6</ele>
        <time>2022-10-27T05:20:29.000Z</time>
      </trkpt>
      <trkpt lat="27.994182" lon="86.829338">
        <ele>5563.2</ele>
        <time>2022-10-27T05:20:31.000Z</time>
      </trkpt>
      <trkpt lat="27.994163" lon="86.82937">
        <ele>5563</ele>
        <time>2022-10-27T05:20:33.000Z</time>
      </trkpt>
      <trkpt lat="27.994144" lon="86.829382">
        <ele>5563</ele>
        <time>2022-10-27T05:20:35.000Z</time>
      </trkpt>
      <trkpt lat="27.994125" lon="86.829376">
        <ele>5562.4</ele>
        <time>2022-10-27T05:20:37.000Z</time>
      </trkpt>
      <trkpt lat="27.994102" lon="86.82937">
        <ele>5561.6</ele>
        <time>2022-10-27T05:20:40.000Z</time>
      </trkpt>
      <trkpt lat="27.99408" lon="86.82937">
        <ele>5561</ele>
        <time>2022-10-27T05:20:44.000Z</time>
      </trkpt>
      <trkpt lat="27.994054" lon="86.829376">
        <ele>5560.2</ele>
        <time>2022-10-27T05:20:48.000Z</time>
      </trkpt>
      <trkpt lat="27.994032" lon="86.829376">
        <ele>5559.2</ele>
        <time>2022-10-27T05:20:51.000Z</time>
      </trkpt>
      <trkpt lat="27.99401" lon="86.829376">
        <ele>5559.2</ele>
        <time>2022-10-27T05:20:54.000Z</time>
      </trkpt>
      <trkpt lat="27.99399" lon="86.829376">
        <ele>5558.6</ele>
        <time>2022-10-27T05:20:57.000Z</time>
      </trkpt>
      <trkpt lat="27.993968" lon="86.82937">
        <ele>5557.8</ele>
        <time>2022-10-27T05:21:00.000Z</time>
      </trkpt>
      <trkpt lat="27.993949" lon="86.82935">
        <ele>5556.8</ele>
        <time>2022-10-27T05:21:04.000Z</time>
      </trkpt>
      <trkpt lat="27.99393" lon="86.82935">
        <ele>5555.6</ele>
        <time>2022-10-27T05:21:08.000Z</time>
      </trkpt>
      <trkpt lat="27.99391" lon="86.829344">
        <ele>5554.8</ele>
        <time>2022-10-27T05:21:11.000Z</time>
      </trkpt>
      <trkpt lat="27.993891" lon="86.82935">
        <ele>5553.6</ele>
        <time>2022-10-27T05:21:15.000Z</time>
      </trkpt>
      <trkpt lat="27.993882" lon="86.82937">
        <ele>5553.2</ele>
        <time>2022-10-27T05:21:17.000Z</time>
      </trkpt>
      <trkpt lat="27.993859" lon="86.82937">
        <ele>5553</ele>
        <time>2022-10-27T05:21:22.000Z</time>
      </trkpt>
      <trkpt lat="27.99384" lon="86.82937">
        <ele>5551.4</ele>
        <time>2022-10-27T05:21:26.000Z</time>
      </trkpt>
      <trkpt lat="27.993818" lon="86.829363">
        <ele>5550.8</ele>
        <time>2022-10-27T05:21:30.000Z</time>
      </trkpt>
      <trkpt lat="27.993798" lon="86.829363">
        <ele>5550.2</ele>
        <time>2022-10-27T05:21:33.000Z</time>
      </trkpt>
      <trkpt lat="27.993779" lon="86.82935">
        <ele>5549</ele>
        <time>2022-10-27T05:21:36.000Z</time>
      </trkpt>
      <trkpt lat="27.993773" lon="86.82937">
        <ele>5548.6</ele>
        <time>2022-10-27T05:21:38.000Z</time>
      </trkpt>
      <trkpt lat="27.993754" lon="86.82937">
        <ele>5547.8</ele>
        <time>2022-10-27T05:21:42.000Z</time>
      </trkpt>
      <trkpt lat="27.993741" lon="86.829389">
        <ele>5546.8</ele>
        <time>2022-10-27T05:21:45.000Z</time>
      </trkpt>
      <trkpt lat="27.993728" lon="86.829408">
        <ele>5546.6</ele>
        <time>2022-10-27T05:21:47.000Z</time>
      </trkpt>
      <trkpt lat="27.993709" lon="86.829408">
        <ele>5546.2</ele>
        <time>2022-10-27T05:21:50.000Z</time>
      </trkpt>
      <trkpt lat="27.99369" lon="86.829402">
        <ele>5545.2</ele>
        <time>2022-10-27T05:21:54.000Z</time>
      </trkpt>
      <trkpt lat="27.99367" lon="86.829408">
        <ele>5544.6</ele>
        <time>2022-10-27T05:21:57.000Z</time>
      </trkpt>
      <trkpt lat="27.993651" lon="86.829408">
        <ele>5543.8</ele>
        <time>2022-10-27T05:22:00.000Z</time>
      </trkpt>
      <trkpt lat="27.993632" lon="86.829427">
        <ele>5542.2</ele>
        <time>2022-10-27T05:22:06.000Z</time>
      </trkpt>
      <trkpt lat="27.993619" lon="86.829446">
        <ele>5541.4</ele>
        <time>2022-10-27T05:22:09.000Z</time>
      </trkpt>
      <trkpt lat="27.993603" lon="86.829478">
        <ele>5541</ele>
        <time>2022-10-27T05:22:13.000Z</time>
      </trkpt>
      <trkpt lat="27.993584" lon="86.829478">
        <ele>5540.6</ele>
        <time>2022-10-27T05:22:16.000Z</time>
      </trkpt>
      <trkpt lat="27.993562" lon="86.829466">
        <ele>5539.8</ele>
        <time>2022-10-27T05:22:19.000Z</time>
      </trkpt>
      <trkpt lat="27.993542" lon="86.829446">
        <ele>5538.8</ele>
        <time>2022-10-27T05:22:23.000Z</time>
      </trkpt>
      <trkpt lat="27.993523" lon="86.82944">
        <ele>5538</ele>
        <time>2022-10-27T05:22:26.000Z</time>
      </trkpt>
      <trkpt lat="27.993507" lon="86.829427">
        <ele>5537.4</ele>
        <time>2022-10-27T05:22:29.000Z</time>
      </trkpt>
      <trkpt lat="27.993491" lon="86.82944">
        <ele>5537</ele>
        <time>2022-10-27T05:22:32.000Z</time>
      </trkpt>
      <trkpt lat="27.993472" lon="86.82944">
        <ele>5536.4</ele>
        <time>2022-10-27T05:22:34.000Z</time>
      </trkpt>
      <trkpt lat="27.993462" lon="86.829459">
        <ele>5535.8</ele>
        <time>2022-10-27T05:22:38.000Z</time>
      </trkpt>
      <trkpt lat="27.99344" lon="86.829466">
        <ele>5535</ele>
        <time>2022-10-27T05:22:42.000Z</time>
      </trkpt>
      <trkpt lat="27.993421" lon="86.829459">
        <ele>5534</ele>
        <time>2022-10-27T05:22:45.000Z</time>
      </trkpt>
      <trkpt lat="27.993405" lon="86.829446">
        <ele>5533.8</ele>
        <time>2022-10-27T05:22:47.000Z</time>
      </trkpt>
      <trkpt lat="27.993386" lon="86.829446">
        <ele>5532.8</ele>
        <time>2022-10-27T05:22:51.000Z</time>
      </trkpt>
      <trkpt lat="27.993366" lon="86.829446">
        <ele>5532.2</ele>
        <time>2022-10-27T05:22:54.000Z</time>
      </trkpt>
      <trkpt lat="27.99335" lon="86.829427">
        <ele>5531.4</ele>
        <time>2022-10-27T05:22:58.000Z</time>
      </trkpt>
      <trkpt lat="27.993331" lon="86.829421">
        <ele>5530.2</ele>
        <time>2022-10-27T05:23:04.000Z</time>
      </trkpt>
      <trkpt lat="27.993315" lon="86.82944">
        <ele>5529.4</ele>
        <time>2022-10-27T05:23:08.000Z</time>
      </trkpt>
      <trkpt lat="27.993296" lon="86.82944">
        <ele>5528.8</ele>
        <time>2022-10-27T05:23:11.000Z</time>
      </trkpt>
      <trkpt lat="27.993274" lon="86.82944">
        <ele>5528.2</ele>
        <time>2022-10-27T05:23:16.000Z</time>
      </trkpt>
      <trkpt lat="27.993254" lon="86.829427">
        <ele>5526.8</ele>
        <time>2022-10-27T05:23:20.000Z</time>
      </trkpt>
      <trkpt lat="27.993238" lon="86.829414">
        <ele>5525.8</ele>
        <time>2022-10-27T05:23:25.000Z</time>
      </trkpt>
      <trkpt lat="27.993219" lon="86.829427">
        <ele>5524.6</ele>
        <time>2022-10-27T05:23:30.000Z</time>
      </trkpt>
      <trkpt lat="27.9932" lon="86.829427">
        <ele>5524.4</ele>
        <time>2022-10-27T05:23:33.000Z</time>
      </trkpt>
      <trkpt lat="27.993187" lon="86.829408">
        <ele>5523.4</ele>
        <time>2022-10-27T05:23:37.000Z</time>
      </trkpt>
      <trkpt lat="27.993165" lon="86.829408">
        <ele>5522.8</ele>
        <time>2022-10-27T05:23:42.000Z</time>
      </trkpt>
      <trkpt lat="27.993146" lon="86.829408">
        <ele>5521.8</ele>
        <time>2022-10-27T05:23:45.000Z</time>
      </trkpt>
      <trkpt lat="27.993126" lon="86.829408">
        <ele>5521.2</ele>
        <time>2022-10-27T05:23:48.000Z</time>
      </trkpt>
      <trkpt lat="27.993104" lon="86.829408">
        <ele>5521</ele>
        <time>2022-10-27T05:23:53.000Z</time>
      </trkpt>
      <trkpt lat="27.993082" lon="86.829414">
        <ele>5519.8</ele>
        <time>2022-10-27T05:23:57.000Z</time>
      </trkpt>
      <trkpt lat="27.993062" lon="86.829408">
        <ele>5518.8</ele>
        <time>2022-10-27T05:24:02.000Z</time>
      </trkpt>
      <trkpt lat="27.993043" lon="86.829408">
        <ele>5517.8</ele>
        <time>2022-10-27T05:24:10.000Z</time>
      </trkpt>
      <trkpt lat="27.993024" lon="86.829402">
        <ele>5517.2</ele>
        <time>2022-10-27T05:24:13.000Z</time>
      </trkpt>
      <trkpt lat="27.993005" lon="86.829402">
        <ele>5516</ele>
        <time>2022-10-27T05:24:19.000Z</time>
      </trkpt>
      <trkpt lat="27.992986" lon="86.829408">
        <ele>5515.8</ele>
        <time>2022-10-27T05:24:23.000Z</time>
      </trkpt>
      <trkpt lat="27.992966" lon="86.829408">
        <ele>5515.4</ele>
        <time>2022-10-27T05:24:26.000Z</time>
      </trkpt>
      <trkpt lat="27.99295" lon="86.829389">
        <ele>5514.6</ele>
        <time>2022-10-27T05:24:29.000Z</time>
      </trkpt>
      <trkpt lat="27.992928" lon="86.829382">
        <ele>5513.8</ele>
        <time>2022-10-27T05:24:40.000Z</time>
      </trkpt>
      <trkpt lat="27.992912" lon="86.82937">
        <ele>5513.8</ele>
        <time>2022-10-27T05:24:44.000Z</time>
      </trkpt>
      <trkpt lat="27.992902" lon="86.82935">
        <ele>5512.8</ele>
        <time>2022-10-27T05:24:47.000Z</time>
      </trkpt>
      <trkpt lat="27.992877" lon="86.829338">
        <ele>5511.6</ele>
        <time>2022-10-27T05:24:52.000Z</time>
      </trkpt>
      <trkpt lat="27.992861" lon="86.829325">
        <ele>5510.8</ele>
        <time>2022-10-27T05:24:54.000Z</time>
      </trkpt>
      <trkpt lat="27.992845" lon="86.829306">
        <ele>5510.8</ele>
        <time>2022-10-27T05:24:57.000Z</time>
      </trkpt>
      <trkpt lat="27.992803" lon="86.829306">
        <ele>5509</ele>
        <time>2022-10-27T05:25:07.000Z</time>
      </trkpt>
      <trkpt lat="27.992778" lon="86.82928">
        <ele>5505.8</ele>
        <time>2022-10-27T05:25:34.000Z</time>
      </trkpt>
      <trkpt lat="27.992758" lon="86.829261">
        <ele>5505.6</ele>
        <time>2022-10-27T05:25:36.000Z</time>
      </trkpt>
      <trkpt lat="27.992736" lon="86.829248">
        <ele>5505.6</ele>
        <time>2022-10-27T05:25:38.000Z</time>
      </trkpt>
      <trkpt lat="27.992714" lon="86.829229">
        <ele>5505</ele>
        <time>2022-10-27T05:25:40.000Z</time>
      </trkpt>
      <trkpt lat="27.992698" lon="86.829216">
        <ele>5504.6</ele>
        <time>2022-10-27T05:25:42.000Z</time>
      </trkpt>
      <trkpt lat="27.992678" lon="86.82921">
        <ele>5504</ele>
        <time>2022-10-27T05:25:45.000Z</time>
      </trkpt>
      <trkpt lat="27.992659" lon="86.82921">
        <ele>5503.4</ele>
        <time>2022-10-27T05:25:48.000Z</time>
      </trkpt>
      <trkpt lat="27.992643" lon="86.829242">
        <ele>5501.6</ele>
        <time>2022-10-27T05:25:53.000Z</time>
      </trkpt>
      <trkpt lat="27.992634" lon="86.829261">
        <ele>5501</ele>
        <time>2022-10-27T05:25:56.000Z</time>
      </trkpt>
      <trkpt lat="27.992624" lon="86.82928">
        <ele>5501</ele>
        <time>2022-10-27T05:25:58.000Z</time>
      </trkpt>
      <trkpt lat="27.992608" lon="86.829293">
        <ele>5500.2</ele>
        <time>2022-10-27T05:26:01.000Z</time>
      </trkpt>
      <trkpt lat="27.992589" lon="86.829312">
        <ele>5499</ele>
        <time>2022-10-27T05:26:05.000Z</time>
      </trkpt>
      <trkpt lat="27.99257" lon="86.829312">
        <ele>5498</ele>
        <time>2022-10-27T05:26:08.000Z</time>
      </trkpt>
      <trkpt lat="27.99255" lon="86.829306">
        <ele>5498</ele>
        <time>2022-10-27T05:26:10.000Z</time>
      </trkpt>
      <trkpt lat="27.992531" lon="86.829286">
        <ele>5497.4</ele>
        <time>2022-10-27T05:26:14.000Z</time>
      </trkpt>
      <trkpt lat="27.992509" lon="86.829293">
        <ele>5496.2</ele>
        <time>2022-10-27T05:26:19.000Z</time>
      </trkpt>
      <trkpt lat="27.99249" lon="86.829299">
        <ele>5495.2</ele>
        <time>2022-10-27T05:26:24.000Z</time>
      </trkpt>
      <trkpt lat="27.992474" lon="86.829312">
        <ele>5494.6</ele>
        <time>2022-10-27T05:26:29.000Z</time>
      </trkpt>
      <trkpt lat="27.99247" lon="86.829338">
        <ele>5494.4</ele>
        <time>2022-10-27T05:26:31.000Z</time>
      </trkpt>
      <trkpt lat="27.992461" lon="86.829363">
        <ele>5493.2</ele>
        <time>2022-10-27T05:26:34.000Z</time>
      </trkpt>
      <trkpt lat="27.992454" lon="86.829382">
        <ele>5492.6</ele>
        <time>2022-10-27T05:26:37.000Z</time>
      </trkpt>
      <trkpt lat="27.992448" lon="86.829408">
        <ele>5492.2</ele>
        <time>2022-10-27T05:26:44.000Z</time>
      </trkpt>
      <trkpt lat="27.992438" lon="86.829427">
        <ele>5491.4</ele>
        <time>2022-10-27T05:27:14.000Z</time>
      </trkpt>
      <trkpt lat="27.992416" lon="86.82944">
        <ele>5490</ele>
        <time>2022-10-27T05:27:17.000Z</time>
      </trkpt>
      <trkpt lat="27.992397" lon="86.82944">
        <ele>5489.6</ele>
        <time>2022-10-27T05:27:20.000Z</time>
      </trkpt>
      <trkpt lat="27.992381" lon="86.829459">
        <ele>5489.6</ele>
        <time>2022-10-27T05:27:22.000Z</time>
      </trkpt>
      <trkpt lat="27.992362" lon="86.829459">
        <ele>5488.8</ele>
        <time>2022-10-27T05:27:25.000Z</time>
      </trkpt>
      <trkpt lat="27.992346" lon="86.829446">
        <ele>5487.8</ele>
        <time>2022-10-27T05:27:28.000Z</time>
      </trkpt>
      <trkpt lat="27.99232" lon="86.82944">
        <ele>5487.2</ele>
        <time>2022-10-27T05:27:32.000Z</time>
      </trkpt>
      <trkpt lat="27.992304" lon="86.829453">
        <ele>5486.2</ele>
        <time>2022-10-27T05:27:37.000Z</time>
      </trkpt>
      <trkpt lat="27.992285" lon="86.829478">
        <ele>5485.2</ele>
        <time>2022-10-27T05:27:41.000Z</time>
      </trkpt>
      <trkpt lat="27.992266" lon="86.829478">
        <ele>5484</ele>
        <time>2022-10-27T05:27:45.000Z</time>
      </trkpt>
      <trkpt lat="27.992253" lon="86.829498">
        <ele>5483</ele>
        <time>2022-10-27T05:27:49.000Z</time>
      </trkpt>
      <trkpt lat="27.992234" lon="86.829504">
        <ele>5482.4</ele>
        <time>2022-10-27T05:27:52.000Z</time>
      </trkpt>
      <trkpt lat="27.992218" lon="86.829491">
        <ele>5481.8</ele>
        <time>2022-10-27T05:27:55.000Z</time>
      </trkpt>
      <trkpt lat="27.992198" lon="86.829485">
        <ele>5481.2</ele>
        <time>2022-10-27T05:27:58.000Z</time>
      </trkpt>
      <trkpt lat="27.992179" lon="86.829478">
        <ele>5480.6</ele>
        <time>2022-10-27T05:28:01.000Z</time>
      </trkpt>
      <trkpt lat="27.992163" lon="86.829491">
        <ele>5479.4</ele>
        <time>2022-10-27T05:28:06.000Z</time>
      </trkpt>
      <trkpt lat="27.992154" lon="86.829523">
        <ele>5478.8</ele>
        <time>2022-10-27T05:28:10.000Z</time>
      </trkpt>
      <trkpt lat="27.992134" lon="86.829536">
        <ele>5478</ele>
        <time>2022-10-27T05:28:14.000Z</time>
      </trkpt>
      <trkpt lat="27.992118" lon="86.829523">
        <ele>5477.6</ele>
        <time>2022-10-27T05:28:17.000Z</time>
      </trkpt>
      <trkpt lat="27.992109" lon="86.829504">
        <ele>5477.4</ele>
        <time>2022-10-27T05:28:20.000Z</time>
      </trkpt>
      <trkpt lat="27.99209" lon="86.829523">
        <ele>5476.4</ele>
        <time>2022-10-27T05:28:25.000Z</time>
      </trkpt>
      <trkpt lat="27.99208" lon="86.829542">
        <ele>5475.8</ele>
        <time>2022-10-27T05:28:28.000Z</time>
      </trkpt>
      <trkpt lat="27.99207" lon="86.829562">
        <ele>5474.6</ele>
        <time>2022-10-27T05:28:30.000Z</time>
      </trkpt>
      <trkpt lat="27.992048" lon="86.829568">
        <ele>5474.6</ele>
        <time>2022-10-27T05:28:33.000Z</time>
      </trkpt>
      <trkpt lat="27.992038" lon="86.829549">
        <ele>5474</ele>
        <time>2022-10-27T05:28:35.000Z</time>
      </trkpt>
      <trkpt lat="27.992019" lon="86.829549">
        <ele>5473.2</ele>
        <time>2022-10-27T05:28:39.000Z</time>
      </trkpt>
      <trkpt lat="27.992013" lon="86.829568">
        <ele>5472.8</ele>
        <time>2022-10-27T05:28:41.000Z</time>
      </trkpt>
      <trkpt lat="27.992003" lon="86.829587">
        <ele>5472.4</ele>
        <time>2022-10-27T05:28:43.000Z</time>
      </trkpt>
      <trkpt lat="27.991994" lon="86.829613">
        <ele>5471.6</ele>
        <time>2022-10-27T05:28:46.000Z</time>
      </trkpt>
      <trkpt lat="27.991971" lon="86.829619">
        <ele>5470.6</ele>
        <time>2022-10-27T05:28:50.000Z</time>
      </trkpt>
      <trkpt lat="27.991955" lon="86.829606">
        <ele>5470.4</ele>
        <time>2022-10-27T05:28:53.000Z</time>
      </trkpt>
      <trkpt lat="27.991936" lon="86.829606">
        <ele>5470</ele>
        <time>2022-10-27T05:28:55.000Z</time>
      </trkpt>
      <trkpt lat="27.991914" lon="86.8296">
        <ele>5469.2</ele>
        <time>2022-10-27T05:28:58.000Z</time>
      </trkpt>
      <trkpt lat="27.991894" lon="86.829587">
        <ele>5468.6</ele>
        <time>2022-10-27T05:29:01.000Z</time>
      </trkpt>
      <trkpt lat="27.991885" lon="86.829606">
        <ele>5468</ele>
        <time>2022-10-27T05:29:03.000Z</time>
      </trkpt>
      <trkpt lat="27.991866" lon="86.829626">
        <ele>5467</ele>
        <time>2022-10-27T05:29:07.000Z</time>
      </trkpt>
      <trkpt lat="27.991843" lon="86.829619">
        <ele>5466.8</ele>
        <time>2022-10-27T05:29:10.000Z</time>
      </trkpt>
      <trkpt lat="27.991824" lon="86.829606">
        <ele>5466</ele>
        <time>2022-10-27T05:29:13.000Z</time>
      </trkpt>
      <trkpt lat="27.991805" lon="86.829587">
        <ele>5465.8</ele>
        <time>2022-10-27T05:29:16.000Z</time>
      </trkpt>
      <trkpt lat="27.991789" lon="86.829574">
        <ele>5465.2</ele>
        <time>2022-10-27T05:29:19.000Z</time>
      </trkpt>
      <trkpt lat="27.991766" lon="86.829568">
        <ele>5464</ele>
        <time>2022-10-27T05:29:23.000Z</time>
      </trkpt>
      <trkpt lat="27.991754" lon="86.829587">
        <ele>5463</ele>
        <time>2022-10-27T05:29:27.000Z</time>
      </trkpt>
      <trkpt lat="27.991744" lon="86.829613">
        <ele>5462.8</ele>
        <time>2022-10-27T05:29:30.000Z</time>
      </trkpt>
      <trkpt lat="27.991728" lon="86.829638">
        <ele>5462.2</ele>
        <time>2022-10-27T05:29:33.000Z</time>
      </trkpt>
      <trkpt lat="27.991712" lon="86.829619">
        <ele>5461.8</ele>
        <time>2022-10-27T05:29:36.000Z</time>
      </trkpt>
      <trkpt lat="27.991686" lon="86.829626">
        <ele>5461.2</ele>
        <time>2022-10-27T05:29:40.000Z</time>
      </trkpt>
      <trkpt lat="27.991667" lon="86.829619">
        <ele>5460.4</ele>
        <time>2022-10-27T05:29:43.000Z</time>
      </trkpt>
      <trkpt lat="27.991648" lon="86.829619">
        <ele>5459.4</ele>
        <time>2022-10-27T05:29:47.000Z</time>
      </trkpt>
      <trkpt lat="27.991632" lon="86.829638">
        <ele>5458.8</ele>
        <time>2022-10-27T05:29:51.000Z</time>
      </trkpt>
      <trkpt lat="27.991616" lon="86.829658">
        <ele>5458.2</ele>
        <time>2022-10-27T05:29:54.000Z</time>
      </trkpt>
      <trkpt lat="27.991597" lon="86.829658">
        <ele>5457.4</ele>
        <time>2022-10-27T05:29:57.000Z</time>
      </trkpt>
      <trkpt lat="27.991587" lon="86.829683">
        <ele>5456.6</ele>
        <time>2022-10-27T05:30:02.000Z</time>
      </trkpt>
      <trkpt lat="27.991565" lon="86.82969">
        <ele>5456.6</ele>
        <time>2022-10-27T05:30:05.000Z</time>
      </trkpt>
      <trkpt lat="27.991542" lon="86.829677">
        <ele>5455.8</ele>
        <time>2022-10-27T05:30:08.000Z</time>
      </trkpt>
      <trkpt lat="27.99153" lon="86.829658">
        <ele>5455.4</ele>
        <time>2022-10-27T05:30:10.000Z</time>
      </trkpt>
      <trkpt lat="27.991507" lon="86.829664">
        <ele>5454.8</ele>
        <time>2022-10-27T05:30:13.000Z</time>
      </trkpt>
      <trkpt lat="27.991491" lon="86.829683">
        <ele>5454.2</ele>
        <time>2022-10-27T05:30:16.000Z</time>
      </trkpt>
      <trkpt lat="27.991478" lon="86.829702">
        <ele>5453.6</ele>
        <time>2022-10-27T05:30:19.000Z</time>
      </trkpt>
      <trkpt lat="27.991475" lon="86.829728">
        <ele>5453.4</ele>
        <time>2022-10-27T05:30:21.000Z</time>
      </trkpt>
      <trkpt lat="27.991466" lon="86.829747">
        <ele>5452.8</ele>
        <time>2022-10-27T05:30:24.000Z</time>
      </trkpt>
      <trkpt lat="27.991456" lon="86.829766">
        <ele>5452.4</ele>
        <time>2022-10-27T05:30:26.000Z</time>
      </trkpt>
      <trkpt lat="27.991437" lon="86.829779">
        <ele>5451.2</ele>
        <time>2022-10-27T05:30:29.000Z</time>
      </trkpt>
      <trkpt lat="27.991418" lon="86.829786">
        <ele>5450.6</ele>
        <time>2022-10-27T05:30:32.000Z</time>
      </trkpt>
      <trkpt lat="27.991408" lon="86.829811">
        <ele>5450</ele>
        <time>2022-10-27T05:30:34.000Z</time>
      </trkpt>
      <trkpt lat="27.991392" lon="86.829824">
        <ele>5449.6</ele>
        <time>2022-10-27T05:30:37.000Z</time>
      </trkpt>
      <trkpt lat="27.991379" lon="86.829843">
        <ele>5449</ele>
        <time>2022-10-27T05:30:39.000Z</time>
      </trkpt>
      <trkpt lat="27.991363" lon="86.829856">
        <ele>5448.4</ele>
        <time>2022-10-27T05:30:42.000Z</time>
      </trkpt>
      <trkpt lat="27.991357" lon="86.829875">
        <ele>5448.2</ele>
        <time>2022-10-27T05:30:44.000Z</time>
      </trkpt>
      <trkpt lat="27.991338" lon="86.829888">
        <ele>5447.8</ele>
        <time>2022-10-27T05:30:47.000Z</time>
      </trkpt>
      <trkpt lat="27.991315" lon="86.829894">
        <ele>5447.2</ele>
        <time>2022-10-27T05:30:50.000Z</time>
      </trkpt>
      <trkpt lat="27.991299" lon="86.829907">
        <ele>5446.4</ele>
        <time>2022-10-27T05:30:53.000Z</time>
      </trkpt>
      <trkpt lat="27.99128" lon="86.829926">
        <ele>5445.4</ele>
        <time>2022-10-27T05:30:56.000Z</time>
      </trkpt>
      <trkpt lat="27.991264" lon="86.829939">
        <ele>5445.2</ele>
        <time>2022-10-27T05:30:59.000Z</time>
      </trkpt>
      <trkpt lat="27.991238" lon="86.829946">
        <ele>5444.4</ele>
        <time>2022-10-27T05:31:02.000Z</time>
      </trkpt>
      <trkpt lat="27.991216" lon="86.829946">
        <ele>5443.6</ele>
        <time>2022-10-27T05:31:05.000Z</time>
      </trkpt>
      <trkpt lat="27.991194" lon="86.829946">
        <ele>5443.2</ele>
        <time>2022-10-27T05:31:07.000Z</time>
      </trkpt>
      <trkpt lat="27.991171" lon="86.829939">
        <ele>5443.2</ele>
        <time>2022-10-27T05:31:09.000Z</time>
      </trkpt>
      <trkpt lat="27.991146" lon="86.829933">
        <ele>5442.6</ele>
        <time>2022-10-27T05:31:12.000Z</time>
      </trkpt>
      <trkpt lat="27.991117" lon="86.829926">
        <ele>5441.8</ele>
        <time>2022-10-27T05:31:15.000Z</time>
      </trkpt>
      <trkpt lat="27.991098" lon="86.829907">
        <ele>5441.8</ele>
        <time>2022-10-27T05:31:17.000Z</time>
      </trkpt>
      <trkpt lat="27.991082" lon="86.829894">
        <ele>5441.2</ele>
        <time>2022-10-27T05:31:19.000Z</time>
      </trkpt>
      <trkpt lat="27.991059" lon="86.829894">
        <ele>5440.8</ele>
        <time>2022-10-27T05:31:21.000Z</time>
      </trkpt>
      <trkpt lat="27.99104" lon="86.829888">
        <ele>5440.8</ele>
        <time>2022-10-27T05:31:23.000Z</time>
      </trkpt>
      <trkpt lat="27.991018" lon="86.829888">
        <ele>5440.4</ele>
        <time>2022-10-27T05:31:26.000Z</time>
      </trkpt>
      <trkpt lat="27.990998" lon="86.829894">
        <ele>5439.8</ele>
        <time>2022-10-27T05:31:28.000Z</time>
      </trkpt>
      <trkpt lat="27.990976" lon="86.829894">
        <ele>5439.6</ele>
        <time>2022-10-27T05:31:31.000Z</time>
      </trkpt>
      <trkpt lat="27.990957" lon="86.829894">
        <ele>5439</ele>
        <time>2022-10-27T05:31:34.000Z</time>
      </trkpt>
      <trkpt lat="27.990938" lon="86.829907">
        <ele>5438.4</ele>
        <time>2022-10-27T05:31:36.000Z</time>
      </trkpt>
      <trkpt lat="27.990918" lon="86.829926">
        <ele>5437.2</ele>
        <time>2022-10-27T05:31:39.000Z</time>
      </trkpt>
      <trkpt lat="27.990893" lon="86.829926">
        <ele>5436.6</ele>
        <time>2022-10-27T05:31:42.000Z</time>
      </trkpt>
      <trkpt lat="27.990867" lon="86.82992">
        <ele>5436.2</ele>
        <time>2022-10-27T05:31:45.000Z</time>
      </trkpt>
      <trkpt lat="27.990851" lon="86.829901">
        <ele>5436.8</ele>
        <time>2022-10-27T05:31:54.000Z</time>
      </trkpt>
      <trkpt lat="27.990832" lon="86.82992">
        <ele>5434.2</ele>
        <time>2022-10-27T05:32:27.000Z</time>
      </trkpt>
      <trkpt lat="27.990826" lon="86.829946">
        <ele>5434.4</ele>
        <time>2022-10-27T05:32:29.000Z</time>
      </trkpt>
      <trkpt lat="27.990816" lon="86.829965">
        <ele>5434.4</ele>
        <time>2022-10-27T05:32:30.000Z</time>
      </trkpt>
      <trkpt lat="27.9908" lon="86.829984">
        <ele>5433.6</ele>
        <time>2022-10-27T05:32:32.000Z</time>
      </trkpt>
      <trkpt lat="27.990794" lon="86.830003">
        <ele>5433.2</ele>
        <time>2022-10-27T05:32:33.000Z</time>
      </trkpt>
      <trkpt lat="27.990784" lon="86.830022">
        <ele>5432.8</ele>
        <time>2022-10-27T05:32:35.000Z</time>
      </trkpt>
      <trkpt lat="27.990778" lon="86.830042">
        <ele>5432.6</ele>
        <time>2022-10-27T05:32:36.000Z</time>
      </trkpt>
      <trkpt lat="27.990758" lon="86.830042">
        <ele>5432.6</ele>
        <time>2022-10-27T05:32:39.000Z</time>
      </trkpt>
      <trkpt lat="27.990742" lon="86.830054">
        <ele>5431.4</ele>
        <time>2022-10-27T05:32:48.000Z</time>
      </trkpt>
      <trkpt lat="27.990733" lon="86.830074">
        <ele>5431.2</ele>
        <time>2022-10-27T05:32:51.000Z</time>
      </trkpt>
      <trkpt lat="27.990714" lon="86.83008">
        <ele>5430.8</ele>
        <time>2022-10-27T05:32:53.000Z</time>
      </trkpt>
      <trkpt lat="27.990694" lon="86.830074">
        <ele>5430</ele>
        <time>2022-10-27T05:32:55.000Z</time>
      </trkpt>
      <trkpt lat="27.990675" lon="86.830074">
        <ele>5429.4</ele>
        <time>2022-10-27T05:32:58.000Z</time>
      </trkpt>
      <trkpt lat="27.990662" lon="86.830093">
        <ele>5429</ele>
        <time>2022-10-27T05:33:01.000Z</time>
      </trkpt>
      <trkpt lat="27.990643" lon="86.830099">
        <ele>5428.2</ele>
        <time>2022-10-27T05:33:04.000Z</time>
      </trkpt>
      <trkpt lat="27.990627" lon="86.830118">
        <ele>5427.6</ele>
        <time>2022-10-27T05:33:08.000Z</time>
      </trkpt>
      <trkpt lat="27.990624" lon="86.830144">
        <ele>5426.6</ele>
        <time>2022-10-27T05:33:11.000Z</time>
      </trkpt>
      <trkpt lat="27.990614" lon="86.830163">
        <ele>5426.2</ele>
        <time>2022-10-27T05:33:13.000Z</time>
      </trkpt>
      <trkpt lat="27.990598" lon="86.830176">
        <ele>5425</ele>
        <time>2022-10-27T05:33:15.000Z</time>
      </trkpt>
      <trkpt lat="27.990573" lon="86.830163">
        <ele>5424.4</ele>
        <time>2022-10-27T05:33:18.000Z</time>
      </trkpt>
      <trkpt lat="27.990554" lon="86.830157">
        <ele>5424</ele>
        <time>2022-10-27T05:33:21.000Z</time>
      </trkpt>
      <trkpt lat="27.990534" lon="86.830163">
        <ele>5423.4</ele>
        <time>2022-10-27T05:33:24.000Z</time>
      </trkpt>
      <trkpt lat="27.990515" lon="86.83017">
        <ele>5422.8</ele>
        <time>2022-10-27T05:33:27.000Z</time>
      </trkpt>
      <trkpt lat="27.990496" lon="86.830163">
        <ele>5422.6</ele>
        <time>2022-10-27T05:33:30.000Z</time>
      </trkpt>
      <trkpt lat="27.99047" lon="86.830163">
        <ele>5421.4</ele>
        <time>2022-10-27T05:33:35.000Z</time>
      </trkpt>
      <trkpt lat="27.990445" lon="86.830163">
        <ele>5420.4</ele>
        <time>2022-10-27T05:33:39.000Z</time>
      </trkpt>
      <trkpt lat="27.990422" lon="86.83017">
        <ele>5419.2</ele>
        <time>2022-10-27T05:33:43.000Z</time>
      </trkpt>
      <trkpt lat="27.990403" lon="86.830163">
        <ele>5418.4</ele>
        <time>2022-10-27T05:33:47.000Z</time>
      </trkpt>
      <trkpt lat="27.990384" lon="86.830176">
        <ele>5417.4</ele>
        <time>2022-10-27T05:33:52.000Z</time>
      </trkpt>
      <trkpt lat="27.990365" lon="86.83017">
        <ele>5417</ele>
        <time>2022-10-27T05:33:55.000Z</time>
      </trkpt>
      <trkpt lat="27.990342" lon="86.830163">
        <ele>5416.4</ele>
        <time>2022-10-27T05:33:58.000Z</time>
      </trkpt>
      <trkpt lat="27.990323" lon="86.830163">
        <ele>5415.6</ele>
        <time>2022-10-27T05:34:02.000Z</time>
      </trkpt>
      <trkpt lat="27.990301" lon="86.830157">
        <ele>5415</ele>
        <time>2022-10-27T05:34:05.000Z</time>
      </trkpt>
      <trkpt lat="27.990285" lon="86.830138">
        <ele>5414.6</ele>
        <time>2022-10-27T05:34:07.000Z</time>
      </trkpt>
      <trkpt lat="27.990262" lon="86.830131">
        <ele>5413.8</ele>
        <time>2022-10-27T05:34:11.000Z</time>
      </trkpt>
      <trkpt lat="27.99024" lon="86.830131">
        <ele>5412.8</ele>
        <time>2022-10-27T05:34:14.000Z</time>
      </trkpt>
      <trkpt lat="27.990214" lon="86.830131">
        <ele>5411.4</ele>
        <time>2022-10-27T05:34:17.000Z</time>
      </trkpt>
      <trkpt lat="27.990192" lon="86.830125">
        <ele>5410.8</ele>
        <time>2022-10-27T05:34:20.000Z</time>
      </trkpt>
      <trkpt lat="27.990166" lon="86.830125">
        <ele>5410.2</ele>
        <time>2022-10-27T05:34:23.000Z</time>
      </trkpt>
      <trkpt lat="27.990144" lon="86.830125">
        <ele>5409.6</ele>
        <time>2022-10-27T05:34:26.000Z</time>
      </trkpt>
      <trkpt lat="27.990118" lon="86.830118">
        <ele>5408.8</ele>
        <time>2022-10-27T05:34:29.000Z</time>
      </trkpt>
      <trkpt lat="27.990096" lon="86.830118">
        <ele>5408.2</ele>
        <time>2022-10-27T05:34:32.000Z</time>
      </trkpt>
      <trkpt lat="27.990077" lon="86.830118">
        <ele>5408.2</ele>
        <time>2022-10-27T05:34:35.000Z</time>
      </trkpt>
      <trkpt lat="27.990054" lon="86.830118">
        <ele>5407.6</ele>
        <time>2022-10-27T05:34:38.000Z</time>
      </trkpt>
      <trkpt lat="27.990035" lon="86.830125">
        <ele>5407.4</ele>
        <time>2022-10-27T05:34:41.000Z</time>
      </trkpt>
      <trkpt lat="27.990019" lon="86.830138">
        <ele>5406.8</ele>
        <time>2022-10-27T05:34:44.000Z</time>
      </trkpt>
      <trkpt lat="27.989997" lon="86.830157">
        <ele>5405</ele>
        <time>2022-10-27T05:34:48.000Z</time>
      </trkpt>
      <trkpt lat="27.989978" lon="86.830163">
        <ele>5403.8</ele>
        <time>2022-10-27T05:34:51.000Z</time>
      </trkpt>
      <trkpt lat="27.989955" lon="86.830163">
        <ele>5402.2</ele>
        <time>2022-10-27T05:34:54.000Z</time>
      </trkpt>
      <trkpt lat="27.989936" lon="86.83017">
        <ele>5402</ele>
        <time>2022-10-27T05:34:56.000Z</time>
      </trkpt>
      <trkpt lat="27.989917" lon="86.83017">
        <ele>5401.4</ele>
        <time>2022-10-27T05:34:58.000Z</time>
      </trkpt>
      <trkpt lat="27.989898" lon="86.830182">
        <ele>5400.8</ele>
        <time>2022-10-27T05:35:02.000Z</time>
      </trkpt>
      <trkpt lat="27.989856" lon="86.830208">
        <ele>5399</ele>
        <time>2022-10-27T05:35:08.000Z</time>
      </trkpt>
      <trkpt lat="27.989834" lon="86.830214">
        <ele>5397.8</ele>
        <time>2022-10-27T05:35:11.000Z</time>
      </trkpt>
      <trkpt lat="27.989814" lon="86.830214">
        <ele>5397</ele>
        <time>2022-10-27T05:35:15.000Z</time>
      </trkpt>
      <trkpt lat="27.989795" lon="86.830214">
        <ele>5396.6</ele>
        <time>2022-10-27T05:35:18.000Z</time>
      </trkpt>
      <trkpt lat="27.989776" lon="86.830221">
        <ele>5395.2</ele>
        <time>2022-10-27T05:35:21.000Z</time>
      </trkpt>
      <trkpt lat="27.989757" lon="86.830221">
        <ele>5394.6</ele>
        <time>2022-10-27T05:35:23.000Z</time>
      </trkpt>
      <trkpt lat="27.989738" lon="86.830221">
        <ele>5394</ele>
        <time>2022-10-27T05:35:26.000Z</time>
      </trkpt>
      <trkpt lat="27.989715" lon="86.830221">
        <ele>5393.6</ele>
        <time>2022-10-27T05:35:29.000Z</time>
      </trkpt>
      <trkpt lat="27.989699" lon="86.830234">
        <ele>5393.2</ele>
        <time>2022-10-27T05:35:32.000Z</time>
      </trkpt>
      <trkpt lat="27.98968" lon="86.83024">
        <ele>5392.6</ele>
        <time>2022-10-27T05:35:35.000Z</time>
      </trkpt>
      <trkpt lat="27.989658" lon="86.830246">
        <ele>5391.4</ele>
        <time>2022-10-27T05:35:39.000Z</time>
      </trkpt>
      <trkpt lat="27.989638" lon="86.830253">
        <ele>5390.8</ele>
        <time>2022-10-27T05:35:42.000Z</time>
      </trkpt>
      <trkpt lat="27.989619" lon="86.830259">
        <ele>5390</ele>
        <time>2022-10-27T05:35:46.000Z</time>
      </trkpt>
      <trkpt lat="27.9896" lon="86.830259">
        <ele>5388.8</ele>
        <time>2022-10-27T05:35:49.000Z</time>
      </trkpt>
      <trkpt lat="27.989581" lon="86.830259">
        <ele>5388.4</ele>
        <time>2022-10-27T05:35:52.000Z</time>
      </trkpt>
      <trkpt lat="27.989562" lon="86.830272">
        <ele>5387.6</ele>
        <time>2022-10-27T05:35:55.000Z</time>
      </trkpt>
      <trkpt lat="27.989546" lon="86.830259">
        <ele>5387</ele>
        <time>2022-10-27T05:35:58.000Z</time>
      </trkpt>
      <trkpt lat="27.989533" lon="86.830278">
        <ele>5386.4</ele>
        <time>2022-10-27T05:36:02.000Z</time>
      </trkpt>
      <trkpt lat="27.98952" lon="86.830298">
        <ele>5384.8</ele>
        <time>2022-10-27T05:36:06.000Z</time>
      </trkpt>
      <trkpt lat="27.989507" lon="86.830317">
        <ele>5383.2</ele>
        <time>2022-10-27T05:36:10.000Z</time>
      </trkpt>
      <trkpt lat="27.989507" lon="86.830342">
        <ele>5382.8</ele>
        <time>2022-10-27T05:36:14.000Z</time>
      </trkpt>
      <trkpt lat="27.989488" lon="86.830342">
        <ele>5381.4</ele>
        <time>2022-10-27T05:36:17.000Z</time>
      </trkpt>
      <trkpt lat="27.989469" lon="86.830342">
        <ele>5380.8</ele>
        <time>2022-10-27T05:36:22.000Z</time>
      </trkpt>
      <trkpt lat="27.989459" lon="86.830362">
        <ele>5379.8</ele>
        <time>2022-10-27T05:36:24.000Z</time>
      </trkpt>
      <trkpt lat="27.98944" lon="86.830355">
        <ele>5379</ele>
        <time>2022-10-27T05:36:27.000Z</time>
      </trkpt>
      <trkpt lat="27.989421" lon="86.830355">
        <ele>5377.8</ele>
        <time>2022-10-27T05:36:31.000Z</time>
      </trkpt>
      <trkpt lat="27.989402" lon="86.830355">
        <ele>5377.2</ele>
        <time>2022-10-27T05:36:36.000Z</time>
      </trkpt>
      <trkpt lat="27.989398" lon="86.830381">
        <ele>5375.4</ele>
        <time>2022-10-27T05:36:43.000Z</time>
      </trkpt>
      <trkpt lat="27.989389" lon="86.8304">
        <ele>5375</ele>
        <time>2022-10-27T05:36:46.000Z</time>
      </trkpt>
      <trkpt lat="27.989382" lon="86.830419">
        <ele>5373.6</ele>
        <time>2022-10-27T05:36:51.000Z</time>
      </trkpt>
      <trkpt lat="27.989389" lon="86.830438">
        <ele>5373.2</ele>
        <time>2022-10-27T05:36:54.000Z</time>
      </trkpt>
      <trkpt lat="27.989373" lon="86.830458">
        <ele>5371.6</ele>
        <time>2022-10-27T05:37:00.000Z</time>
      </trkpt>
      <trkpt lat="27.989366" lon="86.830477">
        <ele>5371</ele>
        <time>2022-10-27T05:37:03.000Z</time>
      </trkpt>
      <trkpt lat="27.98937" lon="86.830502">
        <ele>5369.8</ele>
        <time>2022-10-27T05:37:08.000Z</time>
      </trkpt>
      <trkpt lat="27.989354" lon="86.830522">
        <ele>5368.8</ele>
        <time>2022-10-27T05:37:18.000Z</time>
      </trkpt>
      <trkpt lat="27.989331" lon="86.830522">
        <ele>5367.6</ele>
        <time>2022-10-27T05:37:22.000Z</time>
      </trkpt>
      <trkpt lat="27.989312" lon="86.830528">
        <ele>5366.4</ele>
        <time>2022-10-27T05:37:26.000Z</time>
      </trkpt>
      <trkpt lat="27.989293" lon="86.830534">
        <ele>5366.2</ele>
        <time>2022-10-27T05:37:29.000Z</time>
      </trkpt>
      <trkpt lat="27.989274" lon="86.830528">
        <ele>5365</ele>
        <time>2022-10-27T05:37:33.000Z</time>
      </trkpt>
      <trkpt lat="27.989254" lon="86.830528">
        <ele>5364.8</ele>
        <time>2022-10-27T05:37:42.000Z</time>
      </trkpt>
      <trkpt lat="27.989229" lon="86.830534">
        <ele>5363.2</ele>
        <time>2022-10-27T05:40:37.000Z</time>
      </trkpt>
      <trkpt lat="27.989206" lon="86.830528">
        <ele>5363.2</ele>
        <time>2022-10-27T05:40:40.000Z</time>
      </trkpt>
      <trkpt lat="27.989181" lon="86.830515">
        <ele>5362.6</ele>
        <time>2022-10-27T05:40:42.000Z</time>
      </trkpt>
      <trkpt lat="27.989162" lon="86.830502">
        <ele>5362.6</ele>
        <time>2022-10-27T05:40:44.000Z</time>
      </trkpt>
      <trkpt lat="27.989139" lon="86.830496">
        <ele>5361.6</ele>
        <time>2022-10-27T05:40:48.000Z</time>
      </trkpt>
      <trkpt lat="27.98912" lon="86.830502">
        <ele>5360.4</ele>
        <time>2022-10-27T05:40:51.000Z</time>
      </trkpt>
      <trkpt lat="27.989098" lon="86.830496">
        <ele>5359.6</ele>
        <time>2022-10-27T05:40:54.000Z</time>
      </trkpt>
      <trkpt lat="27.989072" lon="86.830502">
        <ele>5358.4</ele>
        <time>2022-10-27T05:40:58.000Z</time>
      </trkpt>
      <trkpt lat="27.989053" lon="86.830502">
        <ele>5357.8</ele>
        <time>2022-10-27T05:41:00.000Z</time>
      </trkpt>
      <trkpt lat="27.989034" lon="86.830496">
        <ele>5357</ele>
        <time>2022-10-27T05:41:03.000Z</time>
      </trkpt>
      <trkpt lat="27.989021" lon="86.830515">
        <ele>5356.8</ele>
        <time>2022-10-27T05:41:05.000Z</time>
      </trkpt>
      <trkpt lat="27.989002" lon="86.830522">
        <ele>5356.8</ele>
        <time>2022-10-27T05:41:08.000Z</time>
      </trkpt>
      <trkpt lat="27.988976" lon="86.830522">
        <ele>5355</ele>
        <time>2022-10-27T05:41:11.000Z</time>
      </trkpt>
      <trkpt lat="27.988957" lon="86.830515">
        <ele>5354.6</ele>
        <time>2022-10-27T05:41:13.000Z</time>
      </trkpt>
      <trkpt lat="27.988934" lon="86.830515">
        <ele>5353.8</ele>
        <time>2022-10-27T05:41:16.000Z</time>
      </trkpt>
      <trkpt lat="27.988912" lon="86.830515">
        <ele>5353.2</ele>
        <time>2022-10-27T05:41:19.000Z</time>
      </trkpt>
      <trkpt lat="27.988886" lon="86.830522">
        <ele>5352.4</ele>
        <time>2022-10-27T05:41:22.000Z</time>
      </trkpt>
      <trkpt lat="27.988864" lon="86.830528">
        <ele>5352</ele>
        <time>2022-10-27T05:41:25.000Z</time>
      </trkpt>
      <trkpt lat="27.988838" lon="86.830528">
        <ele>5351.2</ele>
        <time>2022-10-27T05:41:28.000Z</time>
      </trkpt>
      <trkpt lat="27.988813" lon="86.830528">
        <ele>5350.6</ele>
        <time>2022-10-27T05:41:31.000Z</time>
      </trkpt>
      <trkpt lat="27.988794" lon="86.830528">
        <ele>5349.6</ele>
        <time>2022-10-27T05:41:33.000Z</time>
      </trkpt>
      <trkpt lat="27.988774" lon="86.830522">
        <ele>5348.8</ele>
        <time>2022-10-27T05:41:35.000Z</time>
      </trkpt>
      <trkpt lat="27.988755" lon="86.830515">
        <ele>5348.2</ele>
        <time>2022-10-27T05:41:37.000Z</time>
      </trkpt>
      <trkpt lat="27.98873" lon="86.830515">
        <ele>5347.6</ele>
        <time>2022-10-27T05:41:40.000Z</time>
      </trkpt>
      <trkpt lat="27.988714" lon="86.830528">
        <ele>5346.6</ele>
        <time>2022-10-27T05:41:43.000Z</time>
      </trkpt>
      <trkpt lat="27.988691" lon="86.830528">
        <ele>5345.8</ele>
        <time>2022-10-27T05:41:46.000Z</time>
      </trkpt>
      <trkpt lat="27.988666" lon="86.830528">
        <ele>5344.6</ele>
        <time>2022-10-27T05:41:49.000Z</time>
      </trkpt>
      <trkpt lat="27.988646" lon="86.830522">
        <ele>5344.8</ele>
        <time>2022-10-27T05:41:51.000Z</time>
      </trkpt>
      <trkpt lat="27.988627" lon="86.830515">
        <ele>5344</ele>
        <time>2022-10-27T05:41:54.000Z</time>
      </trkpt>
      <trkpt lat="27.988608" lon="86.830502">
        <ele>5343.6</ele>
        <time>2022-10-27T05:41:57.000Z</time>
      </trkpt>
      <trkpt lat="27.988589" lon="86.830496">
        <ele>5343</ele>
        <time>2022-10-27T05:42:00.000Z</time>
      </trkpt>
      <trkpt lat="27.988573" lon="86.830483">
        <ele>5342.8</ele>
        <time>2022-10-27T05:42:02.000Z</time>
      </trkpt>
      <trkpt lat="27.988554" lon="86.830477">
        <ele>5341.6</ele>
        <time>2022-10-27T05:42:07.000Z</time>
      </trkpt>
      <trkpt lat="27.988534" lon="86.83049">
        <ele>5340.2</ele>
        <time>2022-10-27T05:42:11.000Z</time>
      </trkpt>
      <trkpt lat="27.988515" lon="86.830515">
        <ele>5338.4</ele>
        <time>2022-10-27T05:42:16.000Z</time>
      </trkpt>
      <trkpt lat="27.98849" lon="86.830515">
        <ele>5337.2</ele>
        <time>2022-10-27T05:42:19.000Z</time>
      </trkpt>
      <trkpt lat="27.988474" lon="86.830502">
        <ele>5336.6</ele>
        <time>2022-10-27T05:42:21.000Z</time>
      </trkpt>
      <trkpt lat="27.988448" lon="86.83049">
        <ele>5335.6</ele>
        <time>2022-10-27T05:42:24.000Z</time>
      </trkpt>
      <trkpt lat="27.988429" lon="86.830483">
        <ele>5335.4</ele>
        <time>2022-10-27T05:42:26.000Z</time>
      </trkpt>
      <trkpt lat="27.988403" lon="86.83047">
        <ele>5334.4</ele>
        <time>2022-10-27T05:42:29.000Z</time>
      </trkpt>
      <trkpt lat="27.988387" lon="86.830458">
        <ele>5334.2</ele>
        <time>2022-10-27T05:42:31.000Z</time>
      </trkpt>
      <trkpt lat="27.988378" lon="86.830438">
        <ele>5333.2</ele>
        <time>2022-10-27T05:42:33.000Z</time>
      </trkpt>
      <trkpt lat="27.988358" lon="86.830438">
        <ele>5333</ele>
        <time>2022-10-27T05:42:36.000Z</time>
      </trkpt>
      <trkpt lat="27.988339" lon="86.830432">
        <ele>5332.4</ele>
        <time>2022-10-27T05:42:38.000Z</time>
      </trkpt>
      <trkpt lat="27.98832" lon="86.830438">
        <ele>5331.2</ele>
        <time>2022-10-27T05:42:40.000Z</time>
      </trkpt>
      <trkpt lat="27.988298" lon="86.830432">
        <ele>5330.6</ele>
        <time>2022-10-27T05:42:43.000Z</time>
      </trkpt>
      <trkpt lat="27.988282" lon="86.830419">
        <ele>5330.2</ele>
        <time>2022-10-27T05:42:45.000Z</time>
      </trkpt>
      <trkpt lat="27.988259" lon="86.830413">
        <ele>5329.6</ele>
        <time>2022-10-27T05:42:48.000Z</time>
      </trkpt>
      <trkpt lat="27.98824" lon="86.830413">
        <ele>5329</ele>
        <time>2022-10-27T05:42:50.000Z</time>
      </trkpt>
      <trkpt lat="27.988221" lon="86.830406">
        <ele>5328.2</ele>
        <time>2022-10-27T05:42:53.000Z</time>
      </trkpt>
      <trkpt lat="27.988202" lon="86.8304">
        <ele>5328.2</ele>
        <time>2022-10-27T05:42:55.000Z</time>
      </trkpt>
      <trkpt lat="27.988176" lon="86.830381">
        <ele>5327.6</ele>
        <time>2022-10-27T05:42:58.000Z</time>
      </trkpt>
      <trkpt lat="27.98816" lon="86.830368">
        <ele>5327</ele>
        <time>2022-10-27T05:43:01.000Z</time>
      </trkpt>
      <trkpt lat="27.988138" lon="86.830362">
        <ele>5326.4</ele>
        <time>2022-10-27T05:43:04.000Z</time>
      </trkpt>
      <trkpt lat="27.988118" lon="86.830355">
        <ele>5325.4</ele>
        <time>2022-10-27T05:43:06.000Z</time>
      </trkpt>
      <trkpt lat="27.988106" lon="86.830336">
        <ele>5325.2</ele>
        <time>2022-10-27T05:43:08.000Z</time>
      </trkpt>
      <trkpt lat="27.988086" lon="86.830336">
        <ele>5324.8</ele>
        <time>2022-10-27T05:43:10.000Z</time>
      </trkpt>
      <trkpt lat="27.988067" lon="86.83033">
        <ele>5324.8</ele>
        <time>2022-10-27T05:43:12.000Z</time>
      </trkpt>
      <trkpt lat="27.988051" lon="86.830317">
        <ele>5324</ele>
        <time>2022-10-27T05:43:14.000Z</time>
      </trkpt>
      <trkpt lat="27.988032" lon="86.830304">
        <ele>5324</ele>
        <time>2022-10-27T05:43:16.000Z</time>
      </trkpt>
      <trkpt lat="27.988006" lon="86.830298">
        <ele>5323.6</ele>
        <time>2022-10-27T05:43:19.000Z</time>
      </trkpt>
      <trkpt lat="27.987987" lon="86.830291">
        <ele>5322.8</ele>
        <time>2022-10-27T05:43:22.000Z</time>
      </trkpt>
      <trkpt lat="27.987962" lon="86.830304">
        <ele>5322.2</ele>
        <time>2022-10-27T05:43:25.000Z</time>
      </trkpt>
      <trkpt lat="27.987946" lon="86.830317">
        <ele>5321.6</ele>
        <time>2022-10-27T05:43:27.000Z</time>
      </trkpt>
      <trkpt lat="27.987923" lon="86.830323">
        <ele>5321</ele>
        <time>2022-10-27T05:43:29.000Z</time>
      </trkpt>
      <trkpt lat="27.987904" lon="86.83033">
        <ele>5321</ele>
        <time>2022-10-27T05:43:31.000Z</time>
      </trkpt>
      <trkpt lat="27.987882" lon="86.83033">
        <ele>5320.6</ele>
        <time>2022-10-27T05:43:33.000Z</time>
      </trkpt>
      <trkpt lat="27.987862" lon="86.830323">
        <ele>5320.4</ele>
        <time>2022-10-27T05:43:35.000Z</time>
      </trkpt>
      <trkpt lat="27.987843" lon="86.830323">
        <ele>5319.8</ele>
        <time>2022-10-27T05:43:37.000Z</time>
      </trkpt>
      <trkpt lat="27.987821" lon="86.830323">
        <ele>5319.8</ele>
        <time>2022-10-27T05:43:39.000Z</time>
      </trkpt>
      <trkpt lat="27.987802" lon="86.830317">
        <ele>5319.2</ele>
        <time>2022-10-27T05:43:41.000Z</time>
      </trkpt>
      <trkpt lat="27.987779" lon="86.830304">
        <ele>5318.6</ele>
        <time>2022-10-27T05:43:43.000Z</time>
      </trkpt>
      <trkpt lat="27.987757" lon="86.830298">
        <ele>5318</ele>
        <time>2022-10-27T05:43:46.000Z</time>
      </trkpt>
      <trkpt lat="27.987741" lon="86.830285">
        <ele>5318.2</ele>
        <time>2022-10-27T05:43:54.000Z</time>
      </trkpt>
      <trkpt lat="27.987715" lon="86.830278">
        <ele>5317.6</ele>
        <time>2022-10-27T05:44:05.000Z</time>
      </trkpt>
      <trkpt lat="27.987696" lon="86.830278">
        <ele>5316.4</ele>
        <time>2022-10-27T05:44:08.000Z</time>
      </trkpt>
      <trkpt lat="27.987674" lon="86.830278">
        <ele>5316.2</ele>
        <time>2022-10-27T05:44:10.000Z</time>
      </trkpt>
      <trkpt lat="27.987645" lon="86.830259">
        <ele>5315.6</ele>
        <time>2022-10-27T05:44:13.000Z</time>
      </trkpt>
      <trkpt lat="27.987626" lon="86.830259">
        <ele>5315.6</ele>
        <time>2022-10-27T05:44:15.000Z</time>
      </trkpt>
      <trkpt lat="27.987606" lon="86.830253">
        <ele>5315</ele>
        <time>2022-10-27T05:44:17.000Z</time>
      </trkpt>
      <trkpt lat="27.987578" lon="86.830253">
        <ele>5314</ele>
        <time>2022-10-27T05:44:20.000Z</time>
      </trkpt>
      <trkpt lat="27.987552" lon="86.830246">
        <ele>5313.2</ele>
        <time>2022-10-27T05:44:23.000Z</time>
      </trkpt>
      <trkpt lat="27.98753" lon="86.83024">
        <ele>5312.8</ele>
        <time>2022-10-27T05:44:26.000Z</time>
      </trkpt>
      <trkpt lat="27.987501" lon="86.830221">
        <ele>5311.4</ele>
        <time>2022-10-27T05:44:29.000Z</time>
      </trkpt>
      <trkpt lat="27.987472" lon="86.830214">
        <ele>5311.2</ele>
        <time>2022-10-27T05:44:32.000Z</time>
      </trkpt>
      <trkpt lat="27.98745" lon="86.830208">
        <ele>5310</ele>
        <time>2022-10-27T05:44:35.000Z</time>
      </trkpt>
      <trkpt lat="27.987434" lon="86.830195">
        <ele>5310</ele>
        <time>2022-10-27T05:44:38.000Z</time>
      </trkpt>
      <trkpt lat="27.987414" lon="86.830182">
        <ele>5309.4</ele>
        <time>2022-10-27T05:44:40.000Z</time>
      </trkpt>
      <trkpt lat="27.987395" lon="86.830195">
        <ele>5309.6</ele>
        <time>2022-10-27T05:44:43.000Z</time>
      </trkpt>
      <trkpt lat="27.987376" lon="86.830182">
        <ele>5308.8</ele>
        <time>2022-10-27T05:44:46.000Z</time>
      </trkpt>
      <trkpt lat="27.987357" lon="86.830195">
        <ele>5308.4</ele>
        <time>2022-10-27T05:44:48.000Z</time>
      </trkpt>
      <trkpt lat="27.987338" lon="86.830195">
        <ele>5307.8</ele>
        <time>2022-10-27T05:44:50.000Z</time>
      </trkpt>
      <trkpt lat="27.987322" lon="86.830182">
        <ele>5307</ele>
        <time>2022-10-27T05:44:52.000Z</time>
      </trkpt>
      <trkpt lat="27.987296" lon="86.830182">
        <ele>5305.8</ele>
        <time>2022-10-27T05:44:55.000Z</time>
      </trkpt>
      <trkpt lat="27.987277" lon="86.830176">
        <ele>5305.6</ele>
        <time>2022-10-27T05:44:57.000Z</time>
      </trkpt>
      <trkpt lat="27.987258" lon="86.83017">
        <ele>5304.6</ele>
        <time>2022-10-27T05:44:59.000Z</time>
      </trkpt>
      <trkpt lat="27.987216" lon="86.830157">
        <ele>5304</ele>
        <time>2022-10-27T05:45:05.000Z</time>
      </trkpt>
      <trkpt lat="27.987197" lon="86.830163">
        <ele>5303.4</ele>
        <time>2022-10-27T05:45:07.000Z</time>
      </trkpt>
      <trkpt lat="27.987174" lon="86.830163">
        <ele>5303.2</ele>
        <time>2022-10-27T05:45:09.000Z</time>
      </trkpt>
      <trkpt lat="27.987149" lon="86.83017">
        <ele>5302.6</ele>
        <time>2022-10-27T05:45:11.000Z</time>
      </trkpt>
      <trkpt lat="27.98713" lon="86.83017">
        <ele>5302</ele>
        <time>2022-10-27T05:45:13.000Z</time>
      </trkpt>
      <trkpt lat="27.987104" lon="86.83017">
        <ele>5301.6</ele>
        <time>2022-10-27T05:45:16.000Z</time>
      </trkpt>
      <trkpt lat="27.987078" lon="86.830163">
        <ele>5301.4</ele>
        <time>2022-10-27T05:45:18.000Z</time>
      </trkpt>
      <trkpt lat="27.987059" lon="86.830163">
        <ele>5300.2</ele>
        <time>2022-10-27T05:45:20.000Z</time>
      </trkpt>
      <trkpt lat="27.98704" lon="86.830163">
        <ele>5300.2</ele>
        <time>2022-10-27T05:45:22.000Z</time>
      </trkpt>
      <trkpt lat="27.987018" lon="86.83017">
        <ele>5300</ele>
        <time>2022-10-27T05:45:24.000Z</time>
      </trkpt>
      <trkpt lat="27.986976" lon="86.830176">
        <ele>5298.8</ele>
        <time>2022-10-27T05:45:28.000Z</time>
      </trkpt>
      <trkpt lat="27.98695" lon="86.830176">
        <ele>5298.2</ele>
        <time>2022-10-27T05:45:30.000Z</time>
      </trkpt>
      <trkpt lat="27.986931" lon="86.830176">
        <ele>5298.2</ele>
        <time>2022-10-27T05:45:32.000Z</time>
      </trkpt>
      <trkpt lat="27.986909" lon="86.830182">
        <ele>5298.2</ele>
        <time>2022-10-27T05:45:35.000Z</time>
      </trkpt>
      <trkpt lat="27.98689" lon="86.830182">
        <ele>5297.8</ele>
        <time>2022-10-27T05:45:37.000Z</time>
      </trkpt>
      <trkpt lat="27.98687" lon="86.83017">
        <ele>5297.6</ele>
        <time>2022-10-27T05:45:39.000Z</time>
      </trkpt>
      <trkpt lat="27.986848" lon="86.83017">
        <ele>5296.4</ele>
        <time>2022-10-27T05:45:42.000Z</time>
      </trkpt>
      <trkpt lat="27.986829" lon="86.83017">
        <ele>5296.2</ele>
        <time>2022-10-27T05:45:44.000Z</time>
      </trkpt>
      <trkpt lat="27.986806" lon="86.830163">
        <ele>5296.2</ele>
        <time>2022-10-27T05:45:46.000Z</time>
      </trkpt>
      <trkpt lat="27.986787" lon="86.830144">
        <ele>5295.8</ele>
        <time>2022-10-27T05:45:48.000Z</time>
      </trkpt>
      <trkpt lat="27.986765" lon="86.830138">
        <ele>5295</ele>
        <time>2022-10-27T05:45:51.000Z</time>
      </trkpt>
      <trkpt lat="27.986739" lon="86.830138">
        <ele>5294.6</ele>
        <time>2022-10-27T05:45:54.000Z</time>
      </trkpt>
      <trkpt lat="27.986717" lon="86.830131">
        <ele>5294</ele>
        <time>2022-10-27T05:45:57.000Z</time>
      </trkpt>
      <trkpt lat="27.986691" lon="86.830125">
        <ele>5293.2</ele>
        <time>2022-10-27T05:46:00.000Z</time>
      </trkpt>
      <trkpt lat="27.986669" lon="86.830125">
        <ele>5293</ele>
        <time>2022-10-27T05:46:02.000Z</time>
      </trkpt>
      <trkpt lat="27.986643" lon="86.830106">
        <ele>5292</ele>
        <time>2022-10-27T05:46:05.000Z</time>
      </trkpt>
      <trkpt lat="27.986627" lon="86.830093">
        <ele>5291.8</ele>
        <time>2022-10-27T05:46:07.000Z</time>
      </trkpt>
      <trkpt lat="27.986611" lon="86.83008">
        <ele>5291.4</ele>
        <time>2022-10-27T05:46:09.000Z</time>
      </trkpt>
      <trkpt lat="27.986595" lon="86.830061">
        <ele>5290.6</ele>
        <time>2022-10-27T05:46:11.000Z</time>
      </trkpt>
      <trkpt lat="27.986573" lon="86.830042">
        <ele>5290</ele>
        <time>2022-10-27T05:46:14.000Z</time>
      </trkpt>
      <trkpt lat="27.98655" lon="86.830035">
        <ele>5290</ele>
        <time>2022-10-27T05:46:16.000Z</time>
      </trkpt>
      <trkpt lat="27.986528" lon="86.830035">
        <ele>5289.6</ele>
        <time>2022-10-27T05:47:24.000Z</time>
      </trkpt>
      <trkpt lat="27.986496" lon="86.830022">
        <ele>5289.4</ele>
        <time>2022-10-27T05:47:26.000Z</time>
      </trkpt>
      <trkpt lat="27.98647" lon="86.830022">
        <ele>5288.8</ele>
        <time>2022-10-27T05:47:28.000Z</time>
      </trkpt>
      <trkpt lat="27.986451" lon="86.830022">
        <ele>5288.4</ele>
        <time>2022-10-27T05:47:29.000Z</time>
      </trkpt>
      <trkpt lat="27.986422" lon="86.830016">
        <ele>5287.8</ele>
        <time>2022-10-27T05:47:31.000Z</time>
      </trkpt>
      <trkpt lat="27.986394" lon="86.830003">
        <ele>5287.6</ele>
        <time>2022-10-27T05:47:33.000Z</time>
      </trkpt>
      <trkpt lat="27.986371" lon="86.829997">
        <ele>5287.6</ele>
        <time>2022-10-27T05:47:35.000Z</time>
      </trkpt>
      <trkpt lat="27.986352" lon="86.829984">
        <ele>5287.4</ele>
        <time>2022-10-27T05:47:37.000Z</time>
      </trkpt>
      <trkpt lat="27.986333" lon="86.829978">
        <ele>5287</ele>
        <time>2022-10-27T05:47:39.000Z</time>
      </trkpt>
      <trkpt lat="27.98631" lon="86.829971">
        <ele>5287</ele>
        <time>2022-10-27T05:47:41.000Z</time>
      </trkpt>
      <trkpt lat="27.986291" lon="86.829965">
        <ele>5286.4</ele>
        <time>2022-10-27T05:47:43.000Z</time>
      </trkpt>
      <trkpt lat="27.986269" lon="86.829965">
        <ele>5286.2</ele>
        <time>2022-10-27T05:47:45.000Z</time>
      </trkpt>
      <trkpt lat="27.986243" lon="86.829965">
        <ele>5285.8</ele>
        <time>2022-10-27T05:47:47.000Z</time>
      </trkpt>
      <trkpt lat="27.986221" lon="86.829946">
        <ele>5285.6</ele>
        <time>2022-10-27T05:47:49.000Z</time>
      </trkpt>
      <trkpt lat="27.986202" lon="86.829939">
        <ele>5285.6</ele>
        <time>2022-10-27T05:47:51.000Z</time>
      </trkpt>
      <trkpt lat="27.986176" lon="86.829933">
        <ele>5285</ele>
        <time>2022-10-27T05:47:53.000Z</time>
      </trkpt>
      <trkpt lat="27.986154" lon="86.829926">
        <ele>5285</ele>
        <time>2022-10-27T05:47:55.000Z</time>
      </trkpt>
      <trkpt lat="27.986131" lon="86.829926">
        <ele>5284.6</ele>
        <time>2022-10-27T05:47:57.000Z</time>
      </trkpt>
      <trkpt lat="27.986106" lon="86.82992">
        <ele>5284.6</ele>
        <time>2022-10-27T05:47:59.000Z</time>
      </trkpt>
      <trkpt lat="27.986083" lon="86.829926">
        <ele>5284</ele>
        <time>2022-10-27T05:48:01.000Z</time>
      </trkpt>
      <trkpt lat="27.986058" lon="86.829926">
        <ele>5284</ele>
        <time>2022-10-27T05:48:03.000Z</time>
      </trkpt>
      <trkpt lat="27.986032" lon="86.829926">
        <ele>5284</ele>
        <time>2022-10-27T05:48:05.000Z</time>
      </trkpt>
      <trkpt lat="27.986006" lon="86.82992">
        <ele>5284.4</ele>
        <time>2022-10-27T05:48:07.000Z</time>
      </trkpt>
      <trkpt lat="27.985981" lon="86.829907">
        <ele>5284</ele>
        <time>2022-10-27T05:48:09.000Z</time>
      </trkpt>
      <trkpt lat="27.985962" lon="86.829901">
        <ele>5283.6</ele>
        <time>2022-10-27T05:48:11.000Z</time>
      </trkpt>
      <trkpt lat="27.985939" lon="86.829901">
        <ele>5283.8</ele>
        <time>2022-10-27T05:48:13.000Z</time>
      </trkpt>
      <trkpt lat="27.985914" lon="86.829894">
        <ele>5283.8</ele>
        <time>2022-10-27T05:48:16.000Z</time>
      </trkpt>
      <trkpt lat="27.985888" lon="86.829894">
        <ele>5283.8</ele>
        <time>2022-10-27T05:48:18.000Z</time>
      </trkpt>
      <trkpt lat="27.985862" lon="86.829894">
        <ele>5283.2</ele>
        <time>2022-10-27T05:48:21.000Z</time>
      </trkpt>
      <trkpt lat="27.98584" lon="86.829894">
        <ele>5283</ele>
        <time>2022-10-27T05:48:23.000Z</time>
      </trkpt>
      <trkpt lat="27.985818" lon="86.829888">
        <ele>5282.6</ele>
        <time>2022-10-27T05:48:25.000Z</time>
      </trkpt>
      <trkpt lat="27.985795" lon="86.829882">
        <ele>5282.4</ele>
        <time>2022-10-27T05:48:27.000Z</time>
      </trkpt>
      <trkpt lat="27.985776" lon="86.829875">
        <ele>5281.8</ele>
        <time>2022-10-27T05:48:29.000Z</time>
      </trkpt>
      <trkpt lat="27.985754" lon="86.829856">
        <ele>5281.8</ele>
        <time>2022-10-27T05:48:32.000Z</time>
      </trkpt>
      <trkpt lat="27.985728" lon="86.829843">
        <ele>5281.8</ele>
        <time>2022-10-27T05:48:36.000Z</time>
      </trkpt>
      <trkpt lat="27.985715" lon="86.829824">
        <ele>5281.8</ele>
        <time>2022-10-27T05:48:38.000Z</time>
      </trkpt>
      <trkpt lat="27.985696" lon="86.829818">
        <ele>5281.6</ele>
        <time>2022-10-27T05:48:41.000Z</time>
      </trkpt>
      <trkpt lat="27.985677" lon="86.829811">
        <ele>5281</ele>
        <time>2022-10-27T05:48:45.000Z</time>
      </trkpt>
      <trkpt lat="27.985658" lon="86.829798">
        <ele>5280.6</ele>
        <time>2022-10-27T05:48:47.000Z</time>
      </trkpt>
      <trkpt lat="27.985648" lon="86.829773">
        <ele>5280.4</ele>
        <time>2022-10-27T05:48:49.000Z</time>
      </trkpt>
      <trkpt lat="27.985629" lon="86.829747">
        <ele>5279.6</ele>
        <time>2022-10-27T05:48:52.000Z</time>
      </trkpt>
      <trkpt lat="27.98561" lon="86.829734">
        <ele>5279</ele>
        <time>2022-10-27T05:48:54.000Z</time>
      </trkpt>
      <trkpt lat="27.98559" lon="86.829728">
        <ele>5279</ele>
        <time>2022-10-27T05:48:56.000Z</time>
      </trkpt>
      <trkpt lat="27.985565" lon="86.829709">
        <ele>5278.4</ele>
        <time>2022-10-27T05:48:59.000Z</time>
      </trkpt>
      <trkpt lat="27.985542" lon="86.829702">
        <ele>5277.8</ele>
        <time>2022-10-27T05:49:01.000Z</time>
      </trkpt>
      <trkpt lat="27.98552" lon="86.829702">
        <ele>5277.4</ele>
        <time>2022-10-27T05:49:03.000Z</time>
      </trkpt>
      <trkpt lat="27.985498" lon="86.82969">
        <ele>5277</ele>
        <time>2022-10-27T05:49:05.000Z</time>
      </trkpt>
      <trkpt lat="27.985478" lon="86.829677">
        <ele>5277</ele>
        <time>2022-10-27T05:49:07.000Z</time>
      </trkpt>
      <trkpt lat="27.985459" lon="86.829677">
        <ele>5276.6</ele>
        <time>2022-10-27T05:49:09.000Z</time>
      </trkpt>
      <trkpt lat="27.985437" lon="86.829658">
        <ele>5276.4</ele>
        <time>2022-10-27T05:49:11.000Z</time>
      </trkpt>
      <trkpt lat="27.985411" lon="86.829651">
        <ele>5276</ele>
        <time>2022-10-27T05:49:14.000Z</time>
      </trkpt>
      <trkpt lat="27.985389" lon="86.829658">
        <ele>5276</ele>
        <time>2022-10-27T05:49:16.000Z</time>
      </trkpt>
      <trkpt lat="27.98536" lon="86.829651">
        <ele>5275.4</ele>
        <time>2022-10-27T05:49:19.000Z</time>
      </trkpt>
      <trkpt lat="27.985341" lon="86.829645">
        <ele>5275.2</ele>
        <time>2022-10-27T05:49:21.000Z</time>
      </trkpt>
      <trkpt lat="27.985318" lon="86.829626">
        <ele>5274.4</ele>
        <time>2022-10-27T05:49:23.000Z</time>
      </trkpt>
      <trkpt lat="27.985302" lon="86.829613">
        <ele>5274</ele>
        <time>2022-10-27T05:49:25.000Z</time>
      </trkpt>
      <trkpt lat="27.985283" lon="86.829606">
        <ele>5273.8</ele>
        <time>2022-10-27T05:49:27.000Z</time>
      </trkpt>
      <trkpt lat="27.985261" lon="86.8296">
        <ele>5274</ele>
        <time>2022-10-27T05:49:29.000Z</time>
      </trkpt>
      <trkpt lat="27.985242" lon="86.8296">
        <ele>5273.8</ele>
        <time>2022-10-27T05:49:31.000Z</time>
      </trkpt>
      <trkpt lat="27.985222" lon="86.8296">
        <ele>5273.8</ele>
        <time>2022-10-27T05:49:33.000Z</time>
      </trkpt>
      <trkpt lat="27.985203" lon="86.829587">
        <ele>5273.4</ele>
        <time>2022-10-27T05:49:35.000Z</time>
      </trkpt>
      <trkpt lat="27.985181" lon="86.829581">
        <ele>5273.2</ele>
        <time>2022-10-27T05:49:38.000Z</time>
      </trkpt>
      <trkpt lat="27.985162" lon="86.829581">
        <ele>5273</ele>
        <time>2022-10-27T05:49:46.000Z</time>
      </trkpt>
      <trkpt lat="27.985139" lon="86.829568">
        <ele>5271.2</ele>
        <time>2022-10-27T05:49:49.000Z</time>
      </trkpt>
      <trkpt lat="27.98511" lon="86.829568">
        <ele>5270.4</ele>
        <time>2022-10-27T05:49:52.000Z</time>
      </trkpt>
      <trkpt lat="27.985094" lon="86.829549">
        <ele>5270</ele>
        <time>2022-10-27T05:49:54.000Z</time>
      </trkpt>
      <trkpt lat="27.985072" lon="86.829542">
        <ele>5269.4</ele>
        <time>2022-10-27T05:49:56.000Z</time>
      </trkpt>
      <trkpt lat="27.98505" lon="86.829536">
        <ele>5269.4</ele>
        <time>2022-10-27T05:49:58.000Z</time>
      </trkpt>
      <trkpt lat="27.985027" lon="86.82953">
        <ele>5269.4</ele>
        <time>2022-10-27T05:50:00.000Z</time>
      </trkpt>
      <trkpt lat="27.985008" lon="86.829523">
        <ele>5269.2</ele>
        <time>2022-10-27T05:50:02.000Z</time>
      </trkpt>
      <trkpt lat="27.984989" lon="86.829504">
        <ele>5268.6</ele>
        <time>2022-10-27T05:50:04.000Z</time>
      </trkpt>
      <trkpt lat="27.98497" lon="86.829504">
        <ele>5268.6</ele>
        <time>2022-10-27T05:50:06.000Z</time>
      </trkpt>
      <trkpt lat="27.98495" lon="86.829504">
        <ele>5268.4</ele>
        <time>2022-10-27T05:50:08.000Z</time>
      </trkpt>
      <trkpt lat="27.984925" lon="86.829498">
        <ele>5267.8</ele>
        <time>2022-10-27T05:50:10.000Z</time>
      </trkpt>
      <trkpt lat="27.984906" lon="86.829491">
        <ele>5267.2</ele>
        <time>2022-10-27T05:50:12.000Z</time>
      </trkpt>
      <trkpt lat="27.98488" lon="86.829485">
        <ele>5266.6</ele>
        <time>2022-10-27T05:50:15.000Z</time>
      </trkpt>
      <trkpt lat="27.984861" lon="86.829478">
        <ele>5266</ele>
        <time>2022-10-27T05:50:17.000Z</time>
      </trkpt>
      <trkpt lat="27.984842" lon="86.829478">
        <ele>5265.4</ele>
        <time>2022-10-27T05:50:19.000Z</time>
      </trkpt>
      <trkpt lat="27.984826" lon="86.829466">
        <ele>5265.2</ele>
        <time>2022-10-27T05:50:21.000Z</time>
      </trkpt>
      <trkpt lat="27.984806" lon="86.829466">
        <ele>5265</ele>
        <time>2022-10-27T05:50:23.000Z</time>
      </trkpt>
      <trkpt lat="27.984784" lon="86.829478">
        <ele>5264.4</ele>
        <time>2022-10-27T05:50:25.000Z</time>
      </trkpt>
      <trkpt lat="27.984765" lon="86.829466">
        <ele>5264</ele>
        <time>2022-10-27T05:50:27.000Z</time>
      </trkpt>
      <trkpt lat="27.984739" lon="86.829459">
        <ele>5263.4</ele>
        <time>2022-10-27T05:50:29.000Z</time>
      </trkpt>
      <trkpt lat="27.98471" lon="86.829453">
        <ele>5263.2</ele>
        <time>2022-10-27T05:50:32.000Z</time>
      </trkpt>
      <trkpt lat="27.984691" lon="86.829446">
        <ele>5262.6</ele>
        <time>2022-10-27T05:50:34.000Z</time>
      </trkpt>
      <trkpt lat="27.984669" lon="86.82944">
        <ele>5262</ele>
        <time>2022-10-27T05:50:36.000Z</time>
      </trkpt>
      <trkpt lat="27.984653" lon="86.829427">
        <ele>5261.4</ele>
        <time>2022-10-27T05:50:38.000Z</time>
      </trkpt>
      <trkpt lat="27.984634" lon="86.829421">
        <ele>5260.8</ele>
        <time>2022-10-27T05:50:41.000Z</time>
      </trkpt>
      <trkpt lat="27.984608" lon="86.829421">
        <ele>5260.6</ele>
        <time>2022-10-27T05:50:43.000Z</time>
      </trkpt>
      <trkpt lat="27.984579" lon="86.829408">
        <ele>5260.2</ele>
        <time>2022-10-27T05:50:46.000Z</time>
      </trkpt>
      <trkpt lat="27.984566" lon="86.829389">
        <ele>5259.6</ele>
        <time>2022-10-27T05:50:48.000Z</time>
      </trkpt>
      <trkpt lat="27.984554" lon="86.82937">
        <ele>5259.4</ele>
        <time>2022-10-27T05:50:50.000Z</time>
      </trkpt>
      <trkpt lat="27.984538" lon="86.82935">
        <ele>5258.8</ele>
        <time>2022-10-27T05:50:53.000Z</time>
      </trkpt>
      <trkpt lat="27.984518" lon="86.829344">
        <ele>5258.8</ele>
        <time>2022-10-27T05:50:57.000Z</time>
      </trkpt>
      <trkpt lat="27.984496" lon="86.829331">
        <ele>5257.6</ele>
        <time>2022-10-27T05:51:03.000Z</time>
      </trkpt>
      <trkpt lat="27.984477" lon="86.829331">
        <ele>5256.4</ele>
        <time>2022-10-27T05:51:06.000Z</time>
      </trkpt>
      <trkpt lat="27.984454" lon="86.829325">
        <ele>5255.2</ele>
        <time>2022-10-27T05:51:09.000Z</time>
      </trkpt>
      <trkpt lat="27.984438" lon="86.829312">
        <ele>5255.2</ele>
        <time>2022-10-27T05:51:11.000Z</time>
      </trkpt>
      <trkpt lat="27.984419" lon="86.829312">
        <ele>5254.4</ele>
        <time>2022-10-27T05:51:13.000Z</time>
      </trkpt>
      <trkpt lat="27.984394" lon="86.829306">
        <ele>5253.8</ele>
        <time>2022-10-27T05:51:16.000Z</time>
      </trkpt>
      <trkpt lat="27.984368" lon="86.829299">
        <ele>5253.2</ele>
        <time>2022-10-27T05:51:19.000Z</time>
      </trkpt>
      <trkpt lat="27.984346" lon="86.829286">
        <ele>5253</ele>
        <time>2022-10-27T05:51:21.000Z</time>
      </trkpt>
      <trkpt lat="27.98432" lon="86.829286">
        <ele>5251.8</ele>
        <time>2022-10-27T05:51:24.000Z</time>
      </trkpt>
      <trkpt lat="27.984304" lon="86.829267">
        <ele>5251.8</ele>
        <time>2022-10-27T05:51:26.000Z</time>
      </trkpt>
      <trkpt lat="27.984278" lon="86.829261">
        <ele>5250.8</ele>
        <time>2022-10-27T05:51:29.000Z</time>
      </trkpt>
      <trkpt lat="27.984259" lon="86.829261">
        <ele>5250.4</ele>
        <time>2022-10-27T05:51:31.000Z</time>
      </trkpt>
      <trkpt lat="27.98424" lon="86.829267">
        <ele>5249.8</ele>
        <time>2022-10-27T05:51:34.000Z</time>
      </trkpt>
      <trkpt lat="27.984224" lon="86.82928">
        <ele>5249.2</ele>
        <time>2022-10-27T05:51:36.000Z</time>
      </trkpt>
      <trkpt lat="27.984205" lon="86.82928">
        <ele>5248.2</ele>
        <time>2022-10-27T05:51:38.000Z</time>
      </trkpt>
      <trkpt lat="27.984186" lon="86.82928">
        <ele>5248.2</ele>
        <time>2022-10-27T05:51:40.000Z</time>
      </trkpt>
      <trkpt lat="27.984163" lon="86.82928">
        <ele>5247.6</ele>
        <time>2022-10-27T05:51:43.000Z</time>
      </trkpt>
      <trkpt lat="27.984157" lon="86.829299">
        <ele>5246.8</ele>
        <time>2022-10-27T05:51:46.000Z</time>
      </trkpt>
      <trkpt lat="27.984147" lon="86.829325">
        <ele>5246.8</ele>
        <time>2022-10-27T05:51:49.000Z</time>
      </trkpt>
      <trkpt lat="27.984128" lon="86.829325">
        <ele>5245</ele>
        <time>2022-10-27T05:51:52.000Z</time>
      </trkpt>
      <trkpt lat="27.984109" lon="86.829312">
        <ele>5244.6</ele>
        <time>2022-10-27T05:51:55.000Z</time>
      </trkpt>
      <trkpt lat="27.98409" lon="86.829299">
        <ele>5244</ele>
        <time>2022-10-27T05:51:58.000Z</time>
      </trkpt>
      <trkpt lat="27.98407" lon="86.829286">
        <ele>5243.4</ele>
        <time>2022-10-27T05:52:00.000Z</time>
      </trkpt>
      <trkpt lat="27.984051" lon="86.829267">
        <ele>5242.8</ele>
        <time>2022-10-27T05:52:03.000Z</time>
      </trkpt>
      <trkpt lat="27.984029" lon="86.829267">
        <ele>5242.8</ele>
        <time>2022-10-27T05:52:07.000Z</time>
      </trkpt>
      <trkpt lat="27.984006" lon="86.82928">
        <ele>5241.4</ele>
        <time>2022-10-27T05:52:10.000Z</time>
      </trkpt>
      <trkpt lat="27.983981" lon="86.829267">
        <ele>5240.4</ele>
        <time>2022-10-27T05:52:13.000Z</time>
      </trkpt>
      <trkpt lat="27.983962" lon="86.829267">
        <ele>5239.2</ele>
        <time>2022-10-27T05:52:15.000Z</time>
      </trkpt>
      <trkpt lat="27.983936" lon="86.829254">
        <ele>5238.6</ele>
        <time>2022-10-27T05:52:18.000Z</time>
      </trkpt>
      <trkpt lat="27.983917" lon="86.829248">
        <ele>5238.4</ele>
        <time>2022-10-27T05:52:21.000Z</time>
      </trkpt>
      <trkpt lat="27.983891" lon="86.829242">
        <ele>5237.8</ele>
        <time>2022-10-27T05:52:25.000Z</time>
      </trkpt>
      <trkpt lat="27.983875" lon="86.829222">
        <ele>5237</ele>
        <time>2022-10-27T05:52:28.000Z</time>
      </trkpt>
      <trkpt lat="27.983853" lon="86.82921">
        <ele>5236.4</ele>
        <time>2022-10-27T05:52:31.000Z</time>
      </trkpt>
      <trkpt lat="27.98384" lon="86.82919">
        <ele>5236</ele>
        <time>2022-10-27T05:52:33.000Z</time>
      </trkpt>
      <trkpt lat="27.983818" lon="86.829178">
        <ele>5235.2</ele>
        <time>2022-10-27T05:52:36.000Z</time>
      </trkpt>
      <trkpt lat="27.983795" lon="86.829171">
        <ele>5234</ele>
        <time>2022-10-27T05:52:39.000Z</time>
      </trkpt>
      <trkpt lat="27.983779" lon="86.829152">
        <ele>5233.4</ele>
        <time>2022-10-27T05:52:41.000Z</time>
      </trkpt>
      <trkpt lat="27.98376" lon="86.829146">
        <ele>5232.2</ele>
        <time>2022-10-27T05:52:44.000Z</time>
      </trkpt>
      <trkpt lat="27.983741" lon="86.829133">
        <ele>5231.6</ele>
        <time>2022-10-27T05:52:47.000Z</time>
      </trkpt>
      <trkpt lat="27.983722" lon="86.829133">
        <ele>5231.4</ele>
        <time>2022-10-27T05:52:50.000Z</time>
      </trkpt>
      <trkpt lat="27.983699" lon="86.829139">
        <ele>5231.4</ele>
        <time>2022-10-27T05:52:53.000Z</time>
      </trkpt>
      <trkpt lat="27.98368" lon="86.829139">
        <ele>5230.8</ele>
        <time>2022-10-27T05:52:56.000Z</time>
      </trkpt>
      <trkpt lat="27.983661" lon="86.829139">
        <ele>5229.8</ele>
        <time>2022-10-27T05:52:59.000Z</time>
      </trkpt>
      <trkpt lat="27.983642" lon="86.829139">
        <ele>5228.8</ele>
        <time>2022-10-27T05:53:02.000Z</time>
      </trkpt>
      <trkpt lat="27.983619" lon="86.829133">
        <ele>5227.8</ele>
        <time>2022-10-27T05:53:07.000Z</time>
      </trkpt>
      <trkpt lat="27.9836" lon="86.829133">
        <ele>5227.2</ele>
        <time>2022-10-27T05:53:10.000Z</time>
      </trkpt>
      <trkpt lat="27.983574" lon="86.829133">
        <ele>5225.8</ele>
        <time>2022-10-27T05:53:15.000Z</time>
      </trkpt>
      <trkpt lat="27.983555" lon="86.829126">
        <ele>5225.2</ele>
        <time>2022-10-27T05:53:18.000Z</time>
      </trkpt>
      <trkpt lat="27.983533" lon="86.829126">
        <ele>5224.6</ele>
        <time>2022-10-27T05:53:22.000Z</time>
      </trkpt>
      <trkpt lat="27.98351" lon="86.82912">
        <ele>5223.8</ele>
        <time>2022-10-27T05:53:26.000Z</time>
      </trkpt>
      <trkpt lat="27.983491" lon="86.82912">
        <ele>5223</ele>
        <time>2022-10-27T05:53:29.000Z</time>
      </trkpt>
      <trkpt lat="27.983475" lon="86.829107">
        <ele>5222.4</ele>
        <time>2022-10-27T05:53:34.000Z</time>
      </trkpt>
      <trkpt lat="27.983456" lon="86.829107">
        <ele>5220.8</ele>
        <time>2022-10-27T05:53:58.000Z</time>
      </trkpt>
      <trkpt lat="27.983437" lon="86.829107">
        <ele>5220.6</ele>
        <time>2022-10-27T05:53:59.000Z</time>
      </trkpt>
      <trkpt lat="27.983408" lon="86.829101">
        <ele>5219.8</ele>
        <time>2022-10-27T05:54:01.000Z</time>
      </trkpt>
      <trkpt lat="27.983392" lon="86.829088">
        <ele>5219.8</ele>
        <time>2022-10-27T05:54:02.000Z</time>
      </trkpt>
      <trkpt lat="27.983366" lon="86.829082">
        <ele>5219.4</ele>
        <time>2022-10-27T05:54:04.000Z</time>
      </trkpt>
      <trkpt lat="27.983344" lon="86.829088">
        <ele>5218.4</ele>
        <time>2022-10-27T05:54:06.000Z</time>
      </trkpt>
      <trkpt lat="27.983325" lon="86.829082">
        <ele>5218</ele>
        <time>2022-10-27T05:54:09.000Z</time>
      </trkpt>
      <trkpt lat="27.983302" lon="86.829082">
        <ele>5217.4</ele>
        <time>2022-10-27T05:54:14.000Z</time>
      </trkpt>
      <trkpt lat="27.983286" lon="86.829069">
        <ele>5216.6</ele>
        <time>2022-10-27T05:54:16.000Z</time>
      </trkpt>
      <trkpt lat="27.98327" lon="86.829056">
        <ele>5215.8</ele>
        <time>2022-10-27T05:54:19.000Z</time>
      </trkpt>
      <trkpt lat="27.983248" lon="86.82905">
        <ele>5214</ele>
        <time>2022-10-27T05:54:25.000Z</time>
      </trkpt>
      <trkpt lat="27.983229" lon="86.829043">
        <ele>5213</ele>
        <time>2022-10-27T05:54:30.000Z</time>
      </trkpt>
      <trkpt lat="27.983206" lon="86.82905">
        <ele>5211.6</ele>
        <time>2022-10-27T05:54:37.000Z</time>
      </trkpt>
      <trkpt lat="27.983187" lon="86.82903">
        <ele>5210.4</ele>
        <time>2022-10-27T05:54:40.000Z</time>
      </trkpt>
      <trkpt lat="27.983168" lon="86.82903">
        <ele>5210.2</ele>
        <time>2022-10-27T05:54:42.000Z</time>
      </trkpt>
      <trkpt lat="27.983149" lon="86.82903">
        <ele>5209.2</ele>
        <time>2022-10-27T05:54:47.000Z</time>
      </trkpt>
      <trkpt lat="27.983126" lon="86.829018">
        <ele>5208.2</ele>
        <time>2022-10-27T05:54:51.000Z</time>
      </trkpt>
      <trkpt lat="27.983107" lon="86.829011">
        <ele>5207.2</ele>
        <time>2022-10-27T05:54:57.000Z</time>
      </trkpt>
      <trkpt lat="27.983069" lon="86.829005">
        <ele>5205</ele>
        <time>2022-10-27T05:55:03.000Z</time>
      </trkpt>
      <trkpt lat="27.983053" lon="86.828992">
        <ele>5204.4</ele>
        <time>2022-10-27T05:55:05.000Z</time>
      </trkpt>
      <trkpt lat="27.983034" lon="86.828986">
        <ele>5204.2</ele>
        <time>2022-10-27T05:55:08.000Z</time>
      </trkpt>
      <trkpt lat="27.983008" lon="86.828986">
        <ele>5203</ele>
        <time>2022-10-27T05:55:12.000Z</time>
      </trkpt>
      <trkpt lat="27.982989" lon="86.828986">
        <ele>5201.6</ele>
        <time>2022-10-27T05:55:15.000Z</time>
      </trkpt>
      <trkpt lat="27.98297" lon="86.828986">
        <ele>5200.8</ele>
        <time>2022-10-27T05:55:19.000Z</time>
      </trkpt>
      <trkpt lat="27.982947" lon="86.828986">
        <ele>5200.2</ele>
        <time>2022-10-27T05:55:22.000Z</time>
      </trkpt>
      <trkpt lat="27.982928" lon="86.828979">
        <ele>5200</ele>
        <time>2022-10-27T05:55:24.000Z</time>
      </trkpt>
      <trkpt lat="27.982906" lon="86.828973">
        <ele>5199</ele>
        <time>2022-10-27T05:55:28.000Z</time>
      </trkpt>
      <trkpt lat="27.982883" lon="86.828979">
        <ele>5198.2</ele>
        <time>2022-10-27T05:55:32.000Z</time>
      </trkpt>
      <trkpt lat="27.982861" lon="86.828979">
        <ele>5197.6</ele>
        <time>2022-10-27T05:55:35.000Z</time>
      </trkpt>
      <trkpt lat="27.982838" lon="86.828973">
        <ele>5196.8</ele>
        <time>2022-10-27T05:55:38.000Z</time>
      </trkpt>
      <trkpt lat="27.982819" lon="86.828979">
        <ele>5195.6</ele>
        <time>2022-10-27T05:55:44.000Z</time>
      </trkpt>
      <trkpt lat="27.9828" lon="86.828986">
        <ele>5194.2</ele>
        <time>2022-10-27T05:55:50.000Z</time>
      </trkpt>
      <trkpt lat="27.982803" lon="86.829011">
        <ele>5193.6</ele>
        <time>2022-10-27T05:55:54.000Z</time>
      </trkpt>
      <trkpt lat="27.982787" lon="86.82903">
        <ele>5192.4</ele>
        <time>2022-10-27T05:56:00.000Z</time>
      </trkpt>
      <trkpt lat="27.982768" lon="86.829024">
        <ele>5191</ele>
        <time>2022-10-27T05:56:07.000Z</time>
      </trkpt>
      <trkpt lat="27.982771" lon="86.82905">
        <ele>5190.4</ele>
        <time>2022-10-27T05:56:11.000Z</time>
      </trkpt>
      <trkpt lat="27.982771" lon="86.829082">
        <ele>5189.6</ele>
        <time>2022-10-27T05:56:16.000Z</time>
      </trkpt>
      <trkpt lat="27.982771" lon="86.829107">
        <ele>5188.2</ele>
        <time>2022-10-27T05:56:21.000Z</time>
      </trkpt>
      <trkpt lat="27.982752" lon="86.829107">
        <ele>5187</ele>
        <time>2022-10-27T05:56:24.000Z</time>
      </trkpt>
      <trkpt lat="27.982733" lon="86.829101">
        <ele>5186.2</ele>
        <time>2022-10-27T05:56:27.000Z</time>
      </trkpt>
      <trkpt lat="27.982717" lon="86.829088">
        <ele>5186</ele>
        <time>2022-10-27T05:56:30.000Z</time>
      </trkpt>
      <trkpt lat="27.982691" lon="86.829069">
        <ele>5184.8</ele>
        <time>2022-10-27T05:56:33.000Z</time>
      </trkpt>
      <trkpt lat="27.982672" lon="86.829062">
        <ele>5182.8</ele>
        <time>2022-10-27T05:56:38.000Z</time>
      </trkpt>
      <trkpt lat="27.982662" lon="86.829082">
        <ele>5183</ele>
        <time>2022-10-27T05:56:41.000Z</time>
      </trkpt>
      <trkpt lat="27.982669" lon="86.829107">
        <ele>5182.4</ele>
        <time>2022-10-27T05:56:46.000Z</time>
      </trkpt>
      <trkpt lat="27.982672" lon="86.829133">
        <ele>5181.2</ele>
        <time>2022-10-27T05:56:51.000Z</time>
      </trkpt>
      <trkpt lat="27.982666" lon="86.829152">
        <ele>5178.6</ele>
        <time>2022-10-27T05:57:44.000Z</time>
      </trkpt>
      <trkpt lat="27.982646" lon="86.829146">
        <ele>5178.6</ele>
        <time>2022-10-27T05:57:46.000Z</time>
      </trkpt>
      <trkpt lat="27.982621" lon="86.829133">
        <ele>5178.2</ele>
        <time>2022-10-27T05:57:49.000Z</time>
      </trkpt>
      <trkpt lat="27.982602" lon="86.829133">
        <ele>5178</ele>
        <time>2022-10-27T05:57:51.000Z</time>
      </trkpt>
      <trkpt lat="27.982582" lon="86.829126">
        <ele>5176.6</ele>
        <time>2022-10-27T05:57:54.000Z</time>
      </trkpt>
      <trkpt lat="27.98256" lon="86.82912">
        <ele>5175.8</ele>
        <time>2022-10-27T05:57:58.000Z</time>
      </trkpt>
      <trkpt lat="27.982547" lon="86.829101">
        <ele>5175.4</ele>
        <time>2022-10-27T05:58:00.000Z</time>
      </trkpt>
      <trkpt lat="27.982534" lon="86.829082">
        <ele>5174.6</ele>
        <time>2022-10-27T05:58:03.000Z</time>
      </trkpt>
      <trkpt lat="27.982534" lon="86.829056">
        <ele>5174</ele>
        <time>2022-10-27T05:58:05.000Z</time>
      </trkpt>
      <trkpt lat="27.982509" lon="86.82905">
        <ele>5172.6</ele>
        <time>2022-10-27T05:58:09.000Z</time>
      </trkpt>
      <trkpt lat="27.982499" lon="86.829024">
        <ele>5172</ele>
        <time>2022-10-27T05:58:12.000Z</time>
      </trkpt>
      <trkpt lat="27.982493" lon="86.829005">
        <ele>5171.4</ele>
        <time>2022-10-27T05:58:15.000Z</time>
      </trkpt>
      <trkpt lat="27.982483" lon="86.828986">
        <ele>5170.4</ele>
        <time>2022-10-27T05:58:18.000Z</time>
      </trkpt>
      <trkpt lat="27.98247" lon="86.828966">
        <ele>5169.4</ele>
        <time>2022-10-27T05:58:21.000Z</time>
      </trkpt>
      <trkpt lat="27.982454" lon="86.828979">
        <ele>5168.6</ele>
        <time>2022-10-27T05:58:26.000Z</time>
      </trkpt>
      <trkpt lat="27.982413" lon="86.828992">
        <ele>5166.6</ele>
        <time>2022-10-27T05:59:11.000Z</time>
      </trkpt>
      <trkpt lat="27.982403" lon="86.828954">
        <ele>5166</ele>
        <time>2022-10-27T05:59:13.000Z</time>
      </trkpt>
      <trkpt lat="27.982394" lon="86.828928">
        <ele>5165.8</ele>
        <time>2022-10-27T05:59:15.000Z</time>
      </trkpt>
      <trkpt lat="27.98239" lon="86.82889">
        <ele>5165.6</ele>
        <time>2022-10-27T05:59:17.000Z</time>
      </trkpt>
      <trkpt lat="27.982378" lon="86.828864">
        <ele>5165.8</ele>
        <time>2022-10-27T05:59:19.000Z</time>
      </trkpt>
      <trkpt lat="27.982374" lon="86.828832">
        <ele>5166</ele>
        <time>2022-10-27T05:59:22.000Z</time>
      </trkpt>
      <trkpt lat="27.982368" lon="86.828813">
        <ele>5165.8</ele>
        <time>2022-10-27T05:59:29.000Z</time>
      </trkpt>
      <trkpt lat="27.982349" lon="86.828832">
        <ele>5165.6</ele>
        <time>2022-10-27T06:00:42.000Z</time>
      </trkpt>
      <trkpt lat="27.982336" lon="86.828851">
        <ele>5165.2</ele>
        <time>2022-10-27T06:00:44.000Z</time>
      </trkpt>
      <trkpt lat="27.98232" lon="86.828864">
        <ele>5165.2</ele>
        <time>2022-10-27T06:00:46.000Z</time>
      </trkpt>
      <trkpt lat="27.982304" lon="86.828883">
        <ele>5165.2</ele>
        <time>2022-10-27T06:00:48.000Z</time>
      </trkpt>
      <trkpt lat="27.982294" lon="86.828902">
        <ele>5164.4</ele>
        <time>2022-10-27T06:00:51.000Z</time>
      </trkpt>
      <trkpt lat="27.982285" lon="86.828922">
        <ele>5164.2</ele>
        <time>2022-10-27T06:00:54.000Z</time>
      </trkpt>
      <trkpt lat="27.982269" lon="86.828934">
        <ele>5164.2</ele>
        <time>2022-10-27T06:00:57.000Z</time>
      </trkpt>
      <trkpt lat="27.982253" lon="86.828947">
        <ele>5163.8</ele>
        <time>2022-10-27T06:01:00.000Z</time>
      </trkpt>
      <trkpt lat="27.982243" lon="86.828966">
        <ele>5163.6</ele>
        <time>2022-10-27T06:01:02.000Z</time>
      </trkpt>
      <trkpt lat="27.982221" lon="86.828966">
        <ele>5163.4</ele>
        <time>2022-10-27T06:01:04.000Z</time>
      </trkpt>
      <trkpt lat="27.982192" lon="86.828973">
        <ele>5163</ele>
        <time>2022-10-27T06:01:06.000Z</time>
      </trkpt>
      <trkpt lat="27.982166" lon="86.828966">
        <ele>5163</ele>
        <time>2022-10-27T06:01:09.000Z</time>
      </trkpt>
      <trkpt lat="27.982144" lon="86.828979">
        <ele>5162.8</ele>
        <time>2022-10-27T06:01:12.000Z</time>
      </trkpt>
      <trkpt lat="27.982128" lon="86.828992">
        <ele>5163</ele>
        <time>2022-10-27T06:01:14.000Z</time>
      </trkpt>
      <trkpt lat="27.982106" lon="86.829005">
        <ele>5162.8</ele>
        <time>2022-10-27T06:01:16.000Z</time>
      </trkpt>
      <trkpt lat="27.98208" lon="86.829005">
        <ele>5162.8</ele>
        <time>2022-10-27T06:01:18.000Z</time>
      </trkpt>
      <trkpt lat="27.982058" lon="86.829005">
        <ele>5163</ele>
        <time>2022-10-27T06:01:20.000Z</time>
      </trkpt>
      <trkpt lat="27.982032" lon="86.829011">
        <ele>5162.8</ele>
        <time>2022-10-27T06:01:22.000Z</time>
      </trkpt>
      <trkpt lat="27.982003" lon="86.829011">
        <ele>5162.8</ele>
        <time>2022-10-27T06:01:25.000Z</time>
      </trkpt>
      <trkpt lat="27.981984" lon="86.829024">
        <ele>5163</ele>
        <time>2022-10-27T06:01:27.000Z</time>
      </trkpt>
      <trkpt lat="27.981962" lon="86.829024">
        <ele>5162.8</ele>
        <time>2022-10-27T06:01:29.000Z</time>
      </trkpt>
      <trkpt lat="27.981936" lon="86.829024">
        <ele>5162.8</ele>
        <time>2022-10-27T06:01:31.000Z</time>
      </trkpt>
      <trkpt lat="27.981914" lon="86.829024">
        <ele>5162.8</ele>
        <time>2022-10-27T06:01:33.000Z</time>
      </trkpt>
      <trkpt lat="27.981894" lon="86.82903">
        <ele>5162.8</ele>
        <time>2022-10-27T06:01:35.000Z</time>
      </trkpt>
      <trkpt lat="27.981875" lon="86.829043">
        <ele>5162.8</ele>
        <time>2022-10-27T06:01:37.000Z</time>
      </trkpt>
      <trkpt lat="27.98185" lon="86.829043">
        <ele>5163</ele>
        <time>2022-10-27T06:01:40.000Z</time>
      </trkpt>
      <trkpt lat="27.98183" lon="86.82903">
        <ele>5162.8</ele>
        <time>2022-10-27T06:01:42.000Z</time>
      </trkpt>
      <trkpt lat="27.981811" lon="86.82903">
        <ele>5163</ele>
        <time>2022-10-27T06:01:44.000Z</time>
      </trkpt>
      <trkpt lat="27.981792" lon="86.82903">
        <ele>5163.4</ele>
        <time>2022-10-27T06:01:46.000Z</time>
      </trkpt>
      <trkpt lat="27.981776" lon="86.829043">
        <ele>5163.2</ele>
        <time>2022-10-27T06:01:48.000Z</time>
      </trkpt>
      <trkpt lat="27.981754" lon="86.829043">
        <ele>5163</ele>
        <time>2022-10-27T06:01:50.000Z</time>
      </trkpt>
      <trkpt lat="27.981734" lon="86.829043">
        <ele>5163.2</ele>
        <time>2022-10-27T06:01:52.000Z</time>
      </trkpt>
      <trkpt lat="27.981715" lon="86.82905">
        <ele>5163</ele>
        <time>2022-10-27T06:01:54.000Z</time>
      </trkpt>
      <trkpt lat="27.981696" lon="86.829056">
        <ele>5162.6</ele>
        <time>2022-10-27T06:01:56.000Z</time>
      </trkpt>
      <trkpt lat="27.981677" lon="86.829056">
        <ele>5162.6</ele>
        <time>2022-10-27T06:01:58.000Z</time>
      </trkpt>
      <trkpt lat="27.981658" lon="86.829062">
        <ele>5163</ele>
        <time>2022-10-27T06:02:00.000Z</time>
      </trkpt>
      <trkpt lat="27.981638" lon="86.829062">
        <ele>5162.6</ele>
        <time>2022-10-27T06:02:02.000Z</time>
      </trkpt>
      <trkpt lat="27.981619" lon="86.829062">
        <ele>5163</ele>
        <time>2022-10-27T06:02:04.000Z</time>
      </trkpt>
      <trkpt lat="27.981597" lon="86.829062">
        <ele>5163</ele>
        <time>2022-10-27T06:02:06.000Z</time>
      </trkpt>
      <trkpt lat="27.981578" lon="86.829062">
        <ele>5163</ele>
        <time>2022-10-27T06:02:08.000Z</time>
      </trkpt>
      <trkpt lat="27.981555" lon="86.829069">
        <ele>5162.6</ele>
        <time>2022-10-27T06:02:10.000Z</time>
      </trkpt>
      <trkpt lat="27.98153" lon="86.829069">
        <ele>5162.6</ele>
        <time>2022-10-27T06:02:12.000Z</time>
      </trkpt>
      <trkpt lat="27.981504" lon="86.829062">
        <ele>5162.6</ele>
        <time>2022-10-27T06:02:15.000Z</time>
      </trkpt>
      <trkpt lat="27.981478" lon="86.829062">
        <ele>5162.8</ele>
        <time>2022-10-27T06:02:18.000Z</time>
      </trkpt>
      <trkpt lat="27.981456" lon="86.829062">
        <ele>5162.6</ele>
        <time>2022-10-27T06:02:20.000Z</time>
      </trkpt>
      <trkpt lat="27.981437" lon="86.829056">
        <ele>5162.6</ele>
        <time>2022-10-27T06:02:22.000Z</time>
      </trkpt>
      <trkpt lat="27.981411" lon="86.829056">
        <ele>5163.2</ele>
        <time>2022-10-27T06:02:24.000Z</time>
      </trkpt>
      <trkpt lat="27.981386" lon="86.829056">
        <ele>5163.2</ele>
        <time>2022-10-27T06:02:27.000Z</time>
      </trkpt>
      <trkpt lat="27.981366" lon="86.829062">
        <ele>5163.2</ele>
        <time>2022-10-27T06:02:29.000Z</time>
      </trkpt>
      <trkpt lat="27.981338" lon="86.829062">
        <ele>5163.4</ele>
        <time>2022-10-27T06:02:31.000Z</time>
      </trkpt>
      <trkpt lat="27.981315" lon="86.829056">
        <ele>5163.2</ele>
        <time>2022-10-27T06:02:33.000Z</time>
      </trkpt>
      <trkpt lat="27.981296" lon="86.82905">
        <ele>5164</ele>
        <time>2022-10-27T06:02:35.000Z</time>
      </trkpt>
      <trkpt lat="27.981002" lon="86.828934">
        <ele>5154</ele>
        <time>2022-10-27T06:29:41.000Z</time>
      </trkpt>
      <trkpt lat="27.980979" lon="86.828902">
        <ele>5153.8</ele>
        <time>2022-10-27T06:29:44.000Z</time>
      </trkpt>
      <trkpt lat="27.98096" lon="86.828883">
        <ele>5154</ele>
        <time>2022-10-27T06:29:47.000Z</time>
      </trkpt>
      <trkpt lat="27.980954" lon="86.828864">
        <ele>5154</ele>
        <time>2022-10-27T06:29:48.000Z</time>
      </trkpt>
      <trkpt lat="27.980947" lon="86.828845">
        <ele>5154.8</ele>
        <time>2022-10-27T06:29:51.000Z</time>
      </trkpt>
      <trkpt lat="27.980928" lon="86.828832">
        <ele>5154.4</ele>
        <time>2022-10-27T06:30:02.000Z</time>
      </trkpt>
      <trkpt lat="27.980902" lon="86.828826">
        <ele>5154.4</ele>
        <time>2022-10-27T06:30:05.000Z</time>
      </trkpt>
      <trkpt lat="27.98088" lon="86.828813">
        <ele>5153.8</ele>
        <time>2022-10-27T06:30:07.000Z</time>
      </trkpt>
      <trkpt lat="27.980858" lon="86.828806">
        <ele>5153.4</ele>
        <time>2022-10-27T06:30:10.000Z</time>
      </trkpt>
      <trkpt lat="27.980842" lon="86.828787">
        <ele>5153.8</ele>
        <time>2022-10-27T06:30:12.000Z</time>
      </trkpt>
      <trkpt lat="27.980822" lon="86.828774">
        <ele>5154.6</ele>
        <time>2022-10-27T06:30:15.000Z</time>
      </trkpt>
      <trkpt lat="27.980813" lon="86.828755">
        <ele>5154.8</ele>
        <time>2022-10-27T06:30:17.000Z</time>
      </trkpt>
      <trkpt lat="27.98079" lon="86.828749">
        <ele>5154.8</ele>
        <time>2022-10-27T06:30:21.000Z</time>
      </trkpt>
      <trkpt lat="27.980765" lon="86.828755">
        <ele>5154.6</ele>
        <time>2022-10-27T06:30:25.000Z</time>
      </trkpt>
      <trkpt lat="27.980749" lon="86.828742">
        <ele>5154.6</ele>
        <time>2022-10-27T06:30:28.000Z</time>
      </trkpt>
      <trkpt lat="27.980726" lon="86.828723">
        <ele>5154.6</ele>
        <time>2022-10-27T06:30:35.000Z</time>
      </trkpt>
      <trkpt lat="27.980707" lon="86.828704">
        <ele>5154.8</ele>
        <time>2022-10-27T06:30:39.000Z</time>
      </trkpt>
      <trkpt lat="27.980685" lon="86.828698">
        <ele>5154.6</ele>
        <time>2022-10-27T06:30:42.000Z</time>
      </trkpt>
      <trkpt lat="27.980666" lon="86.828685">
        <ele>5154.6</ele>
        <time>2022-10-27T06:30:45.000Z</time>
      </trkpt>
      <trkpt lat="27.980646" lon="86.828685">
        <ele>5154.8</ele>
        <time>2022-10-27T06:30:48.000Z</time>
      </trkpt>
      <trkpt lat="27.98063" lon="86.828672">
        <ele>5154.6</ele>
        <time>2022-10-27T06:30:51.000Z</time>
      </trkpt>
      <trkpt lat="27.980608" lon="86.828659">
        <ele>5154.6</ele>
        <time>2022-10-27T06:30:54.000Z</time>
      </trkpt>
      <trkpt lat="27.980592" lon="86.828634">
        <ele>5155.4</ele>
        <time>2022-10-27T06:30:58.000Z</time>
      </trkpt>
      <trkpt lat="27.980576" lon="86.828614">
        <ele>5156</ele>
        <time>2022-10-27T06:31:02.000Z</time>
      </trkpt>
      <trkpt lat="27.980557" lon="86.828614">
        <ele>5156.2</ele>
        <time>2022-10-27T06:31:05.000Z</time>
      </trkpt>
      <trkpt lat="27.980538" lon="86.828608">
        <ele>5156.6</ele>
        <time>2022-10-27T06:31:09.000Z</time>
      </trkpt>
      <trkpt lat="27.980515" lon="86.828595">
        <ele>5156.8</ele>
        <time>2022-10-27T06:31:13.000Z</time>
      </trkpt>
      <trkpt lat="27.980496" lon="86.828595">
        <ele>5157.2</ele>
        <time>2022-10-27T06:31:17.000Z</time>
      </trkpt>
      <trkpt lat="27.980477" lon="86.828595">
        <ele>5157.2</ele>
        <time>2022-10-27T06:31:20.000Z</time>
      </trkpt>
      <trkpt lat="27.980458" lon="86.828608">
        <ele>5157.4</ele>
        <time>2022-10-27T06:31:24.000Z</time>
      </trkpt>
      <trkpt lat="27.980438" lon="86.828595">
        <ele>5158</ele>
        <time>2022-10-27T06:31:28.000Z</time>
      </trkpt>
      <trkpt lat="27.980419" lon="86.828608">
        <ele>5158.6</ele>
        <time>2022-10-27T06:31:32.000Z</time>
      </trkpt>
      <trkpt lat="27.980397" lon="86.828608">
        <ele>5158.8</ele>
        <time>2022-10-27T06:31:36.000Z</time>
      </trkpt>
      <trkpt lat="27.980378" lon="86.828595">
        <ele>5159.4</ele>
        <time>2022-10-27T06:31:39.000Z</time>
      </trkpt>
      <trkpt lat="27.980355" lon="86.828589">
        <ele>5159.4</ele>
        <time>2022-10-27T06:31:44.000Z</time>
      </trkpt>
      <trkpt lat="27.980336" lon="86.828589">
        <ele>5160.2</ele>
        <time>2022-10-27T06:31:49.000Z</time>
      </trkpt>
      <trkpt lat="27.980317" lon="86.828595">
        <ele>5160.8</ele>
        <time>2022-10-27T06:31:55.000Z</time>
      </trkpt>
      <trkpt lat="27.980298" lon="86.828595">
        <ele>5161.4</ele>
        <time>2022-10-27T06:31:59.000Z</time>
      </trkpt>
      <trkpt lat="27.980278" lon="86.828589">
        <ele>5161</ele>
        <time>2022-10-27T06:32:02.000Z</time>
      </trkpt>
      <trkpt lat="27.980272" lon="86.82857">
        <ele>5161.4</ele>
        <time>2022-10-27T06:32:05.000Z</time>
      </trkpt>
      <trkpt lat="27.980266" lon="86.828544">
        <ele>5162</ele>
        <time>2022-10-27T06:32:09.000Z</time>
      </trkpt>
      <trkpt lat="27.980256" lon="86.828525">
        <ele>5161.4</ele>
        <time>2022-10-27T06:32:13.000Z</time>
      </trkpt>
      <trkpt lat="27.980243" lon="86.828506">
        <ele>5162.2</ele>
        <time>2022-10-27T06:32:17.000Z</time>
      </trkpt>
      <trkpt lat="27.980224" lon="86.828499">
        <ele>5163</ele>
        <time>2022-10-27T06:32:22.000Z</time>
      </trkpt>
      <trkpt lat="27.980208" lon="86.828486">
        <ele>5162.8</ele>
        <time>2022-10-27T06:32:25.000Z</time>
      </trkpt>
      <trkpt lat="27.980195" lon="86.828467">
        <ele>5163</ele>
        <time>2022-10-27T06:32:55.000Z</time>
      </trkpt>
      <trkpt lat="27.980176" lon="86.828461">
        <ele>5163</ele>
        <time>2022-10-27T06:32:56.000Z</time>
      </trkpt>
      <trkpt lat="27.980147" lon="86.828448">
        <ele>5163</ele>
        <time>2022-10-27T06:32:58.000Z</time>
      </trkpt>
      <trkpt lat="27.980118" lon="86.828435">
        <ele>5163.4</ele>
        <time>2022-10-27T06:33:00.000Z</time>
      </trkpt>
      <trkpt lat="27.980086" lon="86.828429">
        <ele>5163.4</ele>
        <time>2022-10-27T06:33:02.000Z</time>
      </trkpt>
      <trkpt lat="27.980054" lon="86.828422">
        <ele>5163.4</ele>
        <time>2022-10-27T06:33:04.000Z</time>
      </trkpt>
      <trkpt lat="27.980029" lon="86.828416">
        <ele>5163</ele>
        <time>2022-10-27T06:33:08.000Z</time>
      </trkpt>
      <trkpt lat="27.98001" lon="86.828416">
        <ele>5163.4</ele>
        <time>2022-10-27T06:33:11.000Z</time>
      </trkpt>
      <trkpt lat="27.979987" lon="86.82841">
        <ele>5163.4</ele>
        <time>2022-10-27T06:33:14.000Z</time>
      </trkpt>
      <trkpt lat="27.979968" lon="86.828397">
        <ele>5164</ele>
        <time>2022-10-27T06:33:17.000Z</time>
      </trkpt>
      <trkpt lat="27.979949" lon="86.82839">
        <ele>5164</ele>
        <time>2022-10-27T06:33:20.000Z</time>
      </trkpt>
      <trkpt lat="27.97993" lon="86.828384">
        <ele>5164.4</ele>
        <time>2022-10-27T06:33:23.000Z</time>
      </trkpt>
      <trkpt lat="27.97991" lon="86.828378">
        <ele>5164.4</ele>
        <time>2022-10-27T06:33:26.000Z</time>
      </trkpt>
      <trkpt lat="27.979891" lon="86.828371">
        <ele>5164.4</ele>
        <time>2022-10-27T06:33:29.000Z</time>
      </trkpt>
      <trkpt lat="27.979875" lon="86.828352">
        <ele>5164.4</ele>
        <time>2022-10-27T06:33:32.000Z</time>
      </trkpt>
      <trkpt lat="27.979853" lon="86.828339">
        <ele>5164.8</ele>
        <time>2022-10-27T06:33:35.000Z</time>
      </trkpt>
      <trkpt lat="27.97983" lon="86.828326">
        <ele>5165.4</ele>
        <time>2022-10-27T06:33:39.000Z</time>
      </trkpt>
      <trkpt lat="27.979811" lon="86.828307">
        <ele>5165.4</ele>
        <time>2022-10-27T06:33:42.000Z</time>
      </trkpt>
      <trkpt lat="27.979792" lon="86.828301">
        <ele>5165.4</ele>
        <time>2022-10-27T06:33:45.000Z</time>
      </trkpt>
      <trkpt lat="27.979773" lon="86.828301">
        <ele>5165.6</ele>
        <time>2022-10-27T06:33:48.000Z</time>
      </trkpt>
      <trkpt lat="27.979747" lon="86.828301">
        <ele>5166.2</ele>
        <time>2022-10-27T06:33:52.000Z</time>
      </trkpt>
      <trkpt lat="27.979728" lon="86.828288">
        <ele>5166.2</ele>
        <time>2022-10-27T06:33:56.000Z</time>
      </trkpt>
      <trkpt lat="27.979709" lon="86.828275">
        <ele>5167</ele>
        <time>2022-10-27T06:34:01.000Z</time>
      </trkpt>
      <trkpt lat="27.97969" lon="86.828275">
        <ele>5167.2</ele>
        <time>2022-10-27T06:34:06.000Z</time>
      </trkpt>
      <trkpt lat="27.97967" lon="86.828269">
        <ele>5167.6</ele>
        <time>2022-10-27T06:34:10.000Z</time>
      </trkpt>
      <trkpt lat="27.979651" lon="86.828269">
        <ele>5167.8</ele>
        <time>2022-10-27T06:34:14.000Z</time>
      </trkpt>
      <trkpt lat="27.979629" lon="86.828269">
        <ele>5168.2</ele>
        <time>2022-10-27T06:34:19.000Z</time>
      </trkpt>
      <trkpt lat="27.97961" lon="86.828269">
        <ele>5169</ele>
        <time>2022-10-27T06:34:25.000Z</time>
      </trkpt>
      <trkpt lat="27.97959" lon="86.828262">
        <ele>5169.2</ele>
        <time>2022-10-27T06:34:31.000Z</time>
      </trkpt>
      <trkpt lat="27.979571" lon="86.828262">
        <ele>5170.4</ele>
        <time>2022-10-27T06:34:38.000Z</time>
      </trkpt>
      <trkpt lat="27.979552" lon="86.828269">
        <ele>5170.4</ele>
        <time>2022-10-27T06:34:43.000Z</time>
      </trkpt>
      <trkpt lat="27.979533" lon="86.828269">
        <ele>5171</ele>
        <time>2022-10-27T06:34:48.000Z</time>
      </trkpt>
      <trkpt lat="27.979514" lon="86.828256">
        <ele>5171.6</ele>
        <time>2022-10-27T06:34:53.000Z</time>
      </trkpt>
      <trkpt lat="27.979494" lon="86.82825">
        <ele>5171.8</ele>
        <time>2022-10-27T06:35:01.000Z</time>
      </trkpt>
      <trkpt lat="27.979472" lon="86.828237">
        <ele>5172</ele>
        <time>2022-10-27T06:35:06.000Z</time>
      </trkpt>
      <trkpt lat="27.979453" lon="86.82825">
        <ele>5173.2</ele>
        <time>2022-10-27T06:35:11.000Z</time>
      </trkpt>
      <trkpt lat="27.97943" lon="86.82825">
        <ele>5173.2</ele>
        <time>2022-10-27T06:35:16.000Z</time>
      </trkpt>
      <trkpt lat="27.979411" lon="86.82825">
        <ele>5173.6</ele>
        <time>2022-10-27T06:35:20.000Z</time>
      </trkpt>
      <trkpt lat="27.979392" lon="86.82825">
        <ele>5173.2</ele>
        <time>2022-10-27T06:35:23.000Z</time>
      </trkpt>
      <trkpt lat="27.979376" lon="86.828237">
        <ele>5174</ele>
        <time>2022-10-27T06:35:27.000Z</time>
      </trkpt>
      <trkpt lat="27.979322" lon="86.828218">
        <ele>5175.2</ele>
        <time>2022-10-27T06:36:38.000Z</time>
      </trkpt>
      <trkpt lat="27.979299" lon="86.828218">
        <ele>5175.8</ele>
        <time>2022-10-27T06:36:40.000Z</time>
      </trkpt>
      <trkpt lat="27.979274" lon="86.828218">
        <ele>5176.4</ele>
        <time>2022-10-27T06:36:42.000Z</time>
      </trkpt>
      <trkpt lat="27.979248" lon="86.828211">
        <ele>5176.6</ele>
        <time>2022-10-27T06:36:44.000Z</time>
      </trkpt>
      <trkpt lat="27.979219" lon="86.828218">
        <ele>5177</ele>
        <time>2022-10-27T06:36:46.000Z</time>
      </trkpt>
      <trkpt lat="27.9792" lon="86.828218">
        <ele>5176.6</ele>
        <time>2022-10-27T06:36:48.000Z</time>
      </trkpt>
      <trkpt lat="27.979181" lon="86.828224">
        <ele>5176.6</ele>
        <time>2022-10-27T06:36:51.000Z</time>
      </trkpt>
      <trkpt lat="27.979162" lon="86.828224">
        <ele>5175.8</ele>
        <time>2022-10-27T06:36:54.000Z</time>
      </trkpt>
      <trkpt lat="27.979139" lon="86.828218">
        <ele>5175.8</ele>
        <time>2022-10-27T06:36:58.000Z</time>
      </trkpt>
      <trkpt lat="27.979117" lon="86.828211">
        <ele>5176.4</ele>
        <time>2022-10-27T06:37:03.000Z</time>
      </trkpt>
      <trkpt lat="27.979098" lon="86.828218">
        <ele>5176.4</ele>
        <time>2022-10-27T06:37:10.000Z</time>
      </trkpt>
      <trkpt lat="27.979085" lon="86.828198">
        <ele>5176.4</ele>
        <time>2022-10-27T06:37:14.000Z</time>
      </trkpt>
      <trkpt lat="27.979066" lon="86.828198">
        <ele>5176.4</ele>
        <time>2022-10-27T06:37:17.000Z</time>
      </trkpt>
      <trkpt lat="27.979046" lon="86.828186">
        <ele>5176</ele>
        <time>2022-10-27T06:37:20.000Z</time>
      </trkpt>
      <trkpt lat="27.979024" lon="86.828186">
        <ele>5175.4</ele>
        <time>2022-10-27T06:37:24.000Z</time>
      </trkpt>
      <trkpt lat="27.979005" lon="86.828192">
        <ele>5175.4</ele>
        <time>2022-10-27T06:37:28.000Z</time>
      </trkpt>
      <trkpt lat="27.978992" lon="86.828211">
        <ele>5174.6</ele>
        <time>2022-10-27T06:37:31.000Z</time>
      </trkpt>
      <trkpt lat="27.978973" lon="86.828224">
        <ele>5173.6</ele>
        <time>2022-10-27T06:37:35.000Z</time>
      </trkpt>
      <trkpt lat="27.978954" lon="86.828237">
        <ele>5173.6</ele>
        <time>2022-10-27T06:37:38.000Z</time>
      </trkpt>
      <trkpt lat="27.978934" lon="86.82825">
        <ele>5173.2</ele>
        <time>2022-10-27T06:37:40.000Z</time>
      </trkpt>
      <trkpt lat="27.978915" lon="86.82825">
        <ele>5173</ele>
        <time>2022-10-27T06:37:42.000Z</time>
      </trkpt>
      <trkpt lat="27.978896" lon="86.82825">
        <ele>5173.2</ele>
        <time>2022-10-27T06:37:45.000Z</time>
      </trkpt>
      <trkpt lat="27.978874" lon="86.828256">
        <ele>5174.4</ele>
        <time>2022-10-27T06:37:50.000Z</time>
      </trkpt>
      <trkpt lat="27.978854" lon="86.828256">
        <ele>5174</ele>
        <time>2022-10-27T06:37:53.000Z</time>
      </trkpt>
      <trkpt lat="27.978832" lon="86.828256">
        <ele>5174.4</ele>
        <time>2022-10-27T06:37:57.000Z</time>
      </trkpt>
      <trkpt lat="27.978813" lon="86.82825">
        <ele>5174.6</ele>
        <time>2022-10-27T06:38:00.000Z</time>
      </trkpt>
      <trkpt lat="27.978806" lon="86.82823">
        <ele>5175.2</ele>
        <time>2022-10-27T06:38:03.000Z</time>
      </trkpt>
      <trkpt lat="27.978787" lon="86.828218">
        <ele>5175.2</ele>
        <time>2022-10-27T06:38:12.000Z</time>
      </trkpt>
      <trkpt lat="27.978774" lon="86.828198">
        <ele>5175</ele>
        <time>2022-10-27T06:38:15.000Z</time>
      </trkpt>
      <trkpt lat="27.978755" lon="86.828198">
        <ele>5175.4</ele>
        <time>2022-10-27T06:38:24.000Z</time>
      </trkpt>
      <trkpt lat="27.978733" lon="86.828198">
        <ele>5174.6</ele>
        <time>2022-10-27T06:38:29.000Z</time>
      </trkpt>
      <trkpt lat="27.978714" lon="86.828192">
        <ele>5175</ele>
        <time>2022-10-27T06:38:34.000Z</time>
      </trkpt>
      <trkpt lat="27.978688" lon="86.828192">
        <ele>5175.4</ele>
        <time>2022-10-27T06:39:12.000Z</time>
      </trkpt>
      <trkpt lat="27.978662" lon="86.828192">
        <ele>5175.4</ele>
        <time>2022-10-27T06:39:14.000Z</time>
      </trkpt>
      <trkpt lat="27.978634" lon="86.828192">
        <ele>5176.4</ele>
        <time>2022-10-27T06:39:16.000Z</time>
      </trkpt>
      <trkpt lat="27.978608" lon="86.828198">
        <ele>5176.6</ele>
        <time>2022-10-27T06:39:18.000Z</time>
      </trkpt>
      <trkpt lat="27.978579" lon="86.828198">
        <ele>5176.6</ele>
        <time>2022-10-27T06:39:20.000Z</time>
      </trkpt>
      <trkpt lat="27.97856" lon="86.828211">
        <ele>5177</ele>
        <time>2022-10-27T06:39:24.000Z</time>
      </trkpt>
      <trkpt lat="27.978538" lon="86.828218">
        <ele>5178.4</ele>
        <time>2022-10-27T06:39:29.000Z</time>
      </trkpt>
      <trkpt lat="27.978518" lon="86.828211">
        <ele>5178.4</ele>
        <time>2022-10-27T06:39:33.000Z</time>
      </trkpt>
      <trkpt lat="27.978496" lon="86.828218">
        <ele>5178.8</ele>
        <time>2022-10-27T06:39:37.000Z</time>
      </trkpt>
      <trkpt lat="27.978477" lon="86.828211">
        <ele>5179.2</ele>
        <time>2022-10-27T06:39:40.000Z</time>
      </trkpt>
      <trkpt lat="27.978458" lon="86.828198">
        <ele>5179.4</ele>
        <time>2022-10-27T06:39:44.000Z</time>
      </trkpt>
      <trkpt lat="27.978438" lon="86.828192">
        <ele>5179.4</ele>
        <time>2022-10-27T06:39:48.000Z</time>
      </trkpt>
      <trkpt lat="27.978416" lon="86.828173">
        <ele>5180.2</ele>
        <time>2022-10-27T06:40:31.000Z</time>
      </trkpt>
      <trkpt lat="27.9784" lon="86.828147">
        <ele>5179.8</ele>
        <time>2022-10-27T06:40:33.000Z</time>
      </trkpt>
      <trkpt lat="27.97839" lon="86.828128">
        <ele>5179.4</ele>
        <time>2022-10-27T06:40:35.000Z</time>
      </trkpt>
      <trkpt lat="27.978381" lon="86.828096">
        <ele>5179.8</ele>
        <time>2022-10-27T06:40:37.000Z</time>
      </trkpt>
      <trkpt lat="27.978371" lon="86.828064">
        <ele>5180.2</ele>
        <time>2022-10-27T06:40:39.000Z</time>
      </trkpt>
      <trkpt lat="27.978371" lon="86.828038">
        <ele>5180.6</ele>
        <time>2022-10-27T06:40:41.000Z</time>
      </trkpt>
      <trkpt lat="27.978374" lon="86.828013">
        <ele>5181.2</ele>
        <time>2022-10-27T06:40:45.000Z</time>
      </trkpt>
      <trkpt lat="27.978368" lon="86.827994">
        <ele>5180.6</ele>
        <time>2022-10-27T06:40:48.000Z</time>
      </trkpt>
      <trkpt lat="27.978358" lon="86.827962">
        <ele>5181.2</ele>
        <time>2022-10-27T06:40:51.000Z</time>
      </trkpt>
      <trkpt lat="27.978355" lon="86.827936">
        <ele>5181.2</ele>
        <time>2022-10-27T06:40:54.000Z</time>
      </trkpt>
      <trkpt lat="27.978358" lon="86.82791">
        <ele>5180.8</ele>
        <time>2022-10-27T06:40:57.000Z</time>
      </trkpt>
      <trkpt lat="27.978368" lon="86.827891">
        <ele>5181.2</ele>
        <time>2022-10-27T06:41:00.000Z</time>
      </trkpt>
      <trkpt lat="27.978371" lon="86.827866">
        <ele>5181.4</ele>
        <time>2022-10-27T06:41:03.000Z</time>
      </trkpt>
      <trkpt lat="27.978371" lon="86.82784">
        <ele>5181.4</ele>
        <time>2022-10-27T06:41:07.000Z</time>
      </trkpt>
      <trkpt lat="27.978384" lon="86.827821">
        <ele>5181.8</ele>
        <time>2022-10-27T06:41:11.000Z</time>
      </trkpt>
      <trkpt lat="27.978387" lon="86.827795">
        <ele>5181.8</ele>
        <time>2022-10-27T06:41:16.000Z</time>
      </trkpt>
      <trkpt lat="27.978387" lon="86.82777">
        <ele>5182</ele>
        <time>2022-10-27T06:41:20.000Z</time>
      </trkpt>
      <trkpt lat="27.978397" lon="86.827744">
        <ele>5182.2</ele>
        <time>2022-10-27T06:41:24.000Z</time>
      </trkpt>
      <trkpt lat="27.9784" lon="86.827718">
        <ele>5182.6</ele>
        <time>2022-10-27T06:41:28.000Z</time>
      </trkpt>
      <trkpt lat="27.978416" lon="86.827699">
        <ele>5183.6</ele>
        <time>2022-10-27T06:41:35.000Z</time>
      </trkpt>
      <trkpt lat="27.978419" lon="86.827674">
        <ele>5183.6</ele>
        <time>2022-10-27T06:41:40.000Z</time>
      </trkpt>
      <trkpt lat="27.978413" lon="86.827654">
        <ele>5184</ele>
        <time>2022-10-27T06:41:43.000Z</time>
      </trkpt>
      <trkpt lat="27.978406" lon="86.827635">
        <ele>5183.6</ele>
        <time>2022-10-27T06:41:45.000Z</time>
      </trkpt>
      <trkpt lat="27.97841" lon="86.827603">
        <ele>5183.4</ele>
        <time>2022-10-27T06:41:48.000Z</time>
      </trkpt>
      <trkpt lat="27.978419" lon="86.827584">
        <ele>5183.6</ele>
        <time>2022-10-27T06:41:52.000Z</time>
      </trkpt>
      <trkpt lat="27.978429" lon="86.827558">
        <ele>5184.2</ele>
        <time>2022-10-27T06:41:57.000Z</time>
      </trkpt>
      <trkpt lat="27.978435" lon="86.827539">
        <ele>5184.8</ele>
        <time>2022-10-27T06:42:03.000Z</time>
      </trkpt>
      <trkpt lat="27.978438" lon="86.827514">
        <ele>5185.2</ele>
        <time>2022-10-27T06:42:06.000Z</time>
      </trkpt>
      <trkpt lat="27.978445" lon="86.827494">
        <ele>5184.8</ele>
        <time>2022-10-27T06:42:09.000Z</time>
      </trkpt>
      <trkpt lat="27.978458" lon="86.827469">
        <ele>5185.2</ele>
        <time>2022-10-27T06:42:12.000Z</time>
      </trkpt>
      <trkpt lat="27.978451" lon="86.827443">
        <ele>5185.4</ele>
        <time>2022-10-27T06:42:19.000Z</time>
      </trkpt>
      <trkpt lat="27.978451" lon="86.827418">
        <ele>5185.2</ele>
        <time>2022-10-27T06:42:26.000Z</time>
      </trkpt>
      <trkpt lat="27.978454" lon="86.827386">
        <ele>5184.8</ele>
        <time>2022-10-27T06:42:30.000Z</time>
      </trkpt>
      <trkpt lat="27.978458" lon="86.82736">
        <ele>5184.6</ele>
        <time>2022-10-27T06:42:34.000Z</time>
      </trkpt>
      <trkpt lat="27.978448" lon="86.827341">
        <ele>5185.4</ele>
        <time>2022-10-27T06:42:40.000Z</time>
      </trkpt>
      <trkpt lat="27.978445" lon="86.827315">
        <ele>5185.4</ele>
        <time>2022-10-27T06:42:42.000Z</time>
      </trkpt>
      <trkpt lat="27.978458" lon="86.827296">
        <ele>5185.2</ele>
        <time>2022-10-27T06:42:46.000Z</time>
      </trkpt>
      <trkpt lat="27.97847" lon="86.827277">
        <ele>5185.6</ele>
        <time>2022-10-27T06:42:50.000Z</time>
      </trkpt>
      <trkpt lat="27.978467" lon="86.827245">
        <ele>5186</ele>
        <time>2022-10-27T06:42:58.000Z</time>
      </trkpt>
      <trkpt lat="27.978461" lon="86.827226">
        <ele>5186</ele>
        <time>2022-10-27T06:43:02.000Z</time>
      </trkpt>
      <trkpt lat="27.978442" lon="86.827206">
        <ele>5185.6</ele>
        <time>2022-10-27T06:43:07.000Z</time>
      </trkpt>
      <trkpt lat="27.978435" lon="86.827187">
        <ele>5185.2</ele>
        <time>2022-10-27T06:43:13.000Z</time>
      </trkpt>
      <trkpt lat="27.978413" lon="86.827187">
        <ele>5184.8</ele>
        <time>2022-10-27T06:43:17.000Z</time>
      </trkpt>
      <trkpt lat="27.97839" lon="86.827194">
        <ele>5183.6</ele>
        <time>2022-10-27T06:43:21.000Z</time>
      </trkpt>
      <trkpt lat="27.978368" lon="86.827194">
        <ele>5182.8</ele>
        <time>2022-10-27T06:43:24.000Z</time>
      </trkpt>
      <trkpt lat="27.978352" lon="86.827181">
        <ele>5184</ele>
        <time>2022-10-27T06:43:28.000Z</time>
      </trkpt>
      <trkpt lat="27.978349" lon="86.827155">
        <ele>5184</ele>
        <time>2022-10-27T06:43:30.000Z</time>
      </trkpt>
      <trkpt lat="27.978346" lon="86.827123">
        <ele>5182.6</ele>
        <time>2022-10-27T06:43:33.000Z</time>
      </trkpt>
      <trkpt lat="27.978346" lon="86.827098">
        <ele>5182.8</ele>
        <time>2022-10-27T06:43:37.000Z</time>
      </trkpt>
      <trkpt lat="27.978342" lon="86.827072">
        <ele>5182.6</ele>
        <time>2022-10-27T06:43:41.000Z</time>
      </trkpt>
      <trkpt lat="27.978326" lon="86.827046">
        <ele>5182.2</ele>
        <time>2022-10-27T06:43:46.000Z</time>
      </trkpt>
      <trkpt lat="27.978307" lon="86.827034">
        <ele>5181.6</ele>
        <time>2022-10-27T06:43:49.000Z</time>
      </trkpt>
      <trkpt lat="27.978298" lon="86.827008">
        <ele>5182.2</ele>
        <time>2022-10-27T06:43:58.000Z</time>
      </trkpt>
      <trkpt lat="27.978291" lon="86.826989">
        <ele>5182.2</ele>
        <time>2022-10-27T06:44:06.000Z</time>
      </trkpt>
      <trkpt lat="27.978291" lon="86.826963">
        <ele>5181.4</ele>
        <time>2022-10-27T06:44:12.000Z</time>
      </trkpt>
      <trkpt lat="27.978285" lon="86.826938">
        <ele>5180.8</ele>
        <time>2022-10-27T06:44:16.000Z</time>
      </trkpt>
      <trkpt lat="27.978278" lon="86.826918">
        <ele>5180.6</ele>
        <time>2022-10-27T06:44:18.000Z</time>
      </trkpt>
      <trkpt lat="27.978282" lon="86.826886">
        <ele>5180</ele>
        <time>2022-10-27T06:44:23.000Z</time>
      </trkpt>
      <trkpt lat="27.978269" lon="86.826867">
        <ele>5179</ele>
        <time>2022-10-27T06:44:27.000Z</time>
      </trkpt>
      <trkpt lat="27.978243" lon="86.826861">
        <ele>5178.6</ele>
        <time>2022-10-27T06:44:30.000Z</time>
      </trkpt>
      <trkpt lat="27.978221" lon="86.826848">
        <ele>5176.8</ele>
        <time>2022-10-27T06:45:19.000Z</time>
      </trkpt>
      <trkpt lat="27.978198" lon="86.826842">
        <ele>5176.8</ele>
        <time>2022-10-27T06:45:21.000Z</time>
      </trkpt>
      <trkpt lat="27.978173" lon="86.826842">
        <ele>5176</ele>
        <time>2022-10-27T06:45:23.000Z</time>
      </trkpt>
      <trkpt lat="27.97815" lon="86.826835">
        <ele>5176.6</ele>
        <time>2022-10-27T06:45:25.000Z</time>
      </trkpt>
      <trkpt lat="27.978128" lon="86.826835">
        <ele>5176.6</ele>
        <time>2022-10-27T06:45:27.000Z</time>
      </trkpt>
      <trkpt lat="27.978109" lon="86.826829">
        <ele>5176</ele>
        <time>2022-10-27T06:45:29.000Z</time>
      </trkpt>
      <trkpt lat="27.97809" lon="86.826829">
        <ele>5175.8</ele>
        <time>2022-10-27T06:45:34.000Z</time>
      </trkpt>
      <trkpt lat="27.97807" lon="86.826835">
        <ele>5175.2</ele>
        <time>2022-10-27T06:45:37.000Z</time>
      </trkpt>
      <trkpt lat="27.978054" lon="86.826822">
        <ele>5174.6</ele>
        <time>2022-10-27T06:45:40.000Z</time>
      </trkpt>
      <trkpt lat="27.978038" lon="86.826803">
        <ele>5173.2</ele>
        <time>2022-10-27T06:45:43.000Z</time>
      </trkpt>
      <trkpt lat="27.978019" lon="86.826797">
        <ele>5173</ele>
        <time>2022-10-27T06:45:45.000Z</time>
      </trkpt>
      <trkpt lat="27.978" lon="86.82679">
        <ele>5172.6</ele>
        <time>2022-10-27T06:45:48.000Z</time>
      </trkpt>
      <trkpt lat="27.977981" lon="86.82679">
        <ele>5172.6</ele>
        <time>2022-10-27T06:45:50.000Z</time>
      </trkpt>
      <trkpt lat="27.977962" lon="86.82679">
        <ele>5172.4</ele>
        <time>2022-10-27T06:45:52.000Z</time>
      </trkpt>
      <trkpt lat="27.977946" lon="86.826803">
        <ele>5172</ele>
        <time>2022-10-27T06:45:54.000Z</time>
      </trkpt>
      <trkpt lat="27.977926" lon="86.826803">
        <ele>5171</ele>
        <time>2022-10-27T06:45:56.000Z</time>
      </trkpt>
      <trkpt lat="27.977907" lon="86.82681">
        <ele>5171</ele>
        <time>2022-10-27T06:45:58.000Z</time>
      </trkpt>
      <trkpt lat="27.977882" lon="86.826797">
        <ele>5171</ele>
        <time>2022-10-27T06:46:01.000Z</time>
      </trkpt>
      <trkpt lat="27.977862" lon="86.826784">
        <ele>5171.6</ele>
        <time>2022-10-27T06:46:05.000Z</time>
      </trkpt>
      <trkpt lat="27.97784" lon="86.826765">
        <ele>5171.2</ele>
        <time>2022-10-27T06:46:09.000Z</time>
      </trkpt>
      <trkpt lat="27.977821" lon="86.826758">
        <ele>5171.8</ele>
        <time>2022-10-27T06:46:13.000Z</time>
      </trkpt>
      <trkpt lat="27.977792" lon="86.826752">
        <ele>5171</ele>
        <time>2022-10-27T06:46:16.000Z</time>
      </trkpt>
      <trkpt lat="27.977776" lon="86.826739">
        <ele>5171</ele>
        <time>2022-10-27T06:46:18.000Z</time>
      </trkpt>
      <trkpt lat="27.977763" lon="86.82672">
        <ele>5170.6</ele>
        <time>2022-10-27T06:46:20.000Z</time>
      </trkpt>
      <trkpt lat="27.977741" lon="86.826707">
        <ele>5171</ele>
        <time>2022-10-27T06:46:23.000Z</time>
      </trkpt>
      <trkpt lat="27.977731" lon="86.826688">
        <ele>5171</ele>
        <time>2022-10-27T06:46:26.000Z</time>
      </trkpt>
      <trkpt lat="27.977709" lon="86.826675">
        <ele>5171.6</ele>
        <time>2022-10-27T06:46:30.000Z</time>
      </trkpt>
      <trkpt lat="27.977683" lon="86.826675">
        <ele>5171</ele>
        <time>2022-10-27T06:46:33.000Z</time>
      </trkpt>
      <trkpt lat="27.977664" lon="86.826669">
        <ele>5170.4</ele>
        <time>2022-10-27T06:46:35.000Z</time>
      </trkpt>
      <trkpt lat="27.977642" lon="86.826669">
        <ele>5170.6</ele>
        <time>2022-10-27T06:46:38.000Z</time>
      </trkpt>
      <trkpt lat="27.977619" lon="86.826662">
        <ele>5170.2</ele>
        <time>2022-10-27T06:46:51.000Z</time>
      </trkpt>
      <trkpt lat="27.977597" lon="86.826643">
        <ele>5168.4</ele>
        <time>2022-10-27T06:46:54.000Z</time>
      </trkpt>
      <trkpt lat="27.977578" lon="86.826637">
        <ele>5168.8</ele>
        <time>2022-10-27T06:46:56.000Z</time>
      </trkpt>
      <trkpt lat="27.977552" lon="86.826624">
        <ele>5168.8</ele>
        <time>2022-10-27T06:47:00.000Z</time>
      </trkpt>
      <trkpt lat="27.977536" lon="86.826611">
        <ele>5167.8</ele>
        <time>2022-10-27T06:47:03.000Z</time>
      </trkpt>
      <trkpt lat="27.977514" lon="86.826598">
        <ele>5168.4</ele>
        <time>2022-10-27T06:47:06.000Z</time>
      </trkpt>
      <trkpt lat="27.977494" lon="86.826586">
        <ele>5169.4</ele>
        <time>2022-10-27T06:47:10.000Z</time>
      </trkpt>
      <trkpt lat="27.977482" lon="86.826566">
        <ele>5169.8</ele>
        <time>2022-10-27T06:47:13.000Z</time>
      </trkpt>
      <trkpt lat="27.977462" lon="86.826547">
        <ele>5169.6</ele>
        <time>2022-10-27T06:47:16.000Z</time>
      </trkpt>
      <trkpt lat="27.977443" lon="86.826528">
        <ele>5169.4</ele>
        <time>2022-10-27T06:47:19.000Z</time>
      </trkpt>
      <trkpt lat="27.977427" lon="86.826509">
        <ele>5169.8</ele>
        <time>2022-10-27T06:47:21.000Z</time>
      </trkpt>
      <trkpt lat="27.977421" lon="86.82649">
        <ele>5169.8</ele>
        <time>2022-10-27T06:47:22.000Z</time>
      </trkpt>
      <trkpt lat="27.977408" lon="86.82647">
        <ele>5170.2</ele>
        <time>2022-10-27T06:47:25.000Z</time>
      </trkpt>
      <trkpt lat="27.977405" lon="86.826445">
        <ele>5170.2</ele>
        <time>2022-10-27T06:47:28.000Z</time>
      </trkpt>
      <trkpt lat="27.977386" lon="86.826426">
        <ele>5170.2</ele>
        <time>2022-10-27T06:47:31.000Z</time>
      </trkpt>
      <trkpt lat="27.977366" lon="86.826406">
        <ele>5170.4</ele>
        <time>2022-10-27T06:47:35.000Z</time>
      </trkpt>
      <trkpt lat="27.97735" lon="86.826394">
        <ele>5170.8</ele>
        <time>2022-10-27T06:47:38.000Z</time>
      </trkpt>
      <trkpt lat="27.977328" lon="86.826387">
        <ele>5171.4</ele>
        <time>2022-10-27T06:47:41.000Z</time>
      </trkpt>
      <trkpt lat="27.977309" lon="86.826368">
        <ele>5171</ele>
        <time>2022-10-27T06:47:44.000Z</time>
      </trkpt>
      <trkpt lat="27.977296" lon="86.826349">
        <ele>5171.4</ele>
        <time>2022-10-27T06:47:48.000Z</time>
      </trkpt>
      <trkpt lat="27.977277" lon="86.82633">
        <ele>5171.6</ele>
        <time>2022-10-27T06:47:51.000Z</time>
      </trkpt>
      <trkpt lat="27.977264" lon="86.82631">
        <ele>5171.6</ele>
        <time>2022-10-27T06:47:54.000Z</time>
      </trkpt>
      <trkpt lat="27.977248" lon="86.826291">
        <ele>5172</ele>
        <time>2022-10-27T06:47:58.000Z</time>
      </trkpt>
      <trkpt lat="27.977232" lon="86.826278">
        <ele>5171.4</ele>
        <time>2022-10-27T06:48:04.000Z</time>
      </trkpt>
      <trkpt lat="27.977219" lon="86.826253">
        <ele>5170.6</ele>
        <time>2022-10-27T06:48:08.000Z</time>
      </trkpt>
      <trkpt lat="27.9772" lon="86.826234">
        <ele>5170.2</ele>
        <time>2022-10-27T06:48:13.000Z</time>
      </trkpt>
      <trkpt lat="27.977184" lon="86.826208">
        <ele>5168.8</ele>
        <time>2022-10-27T06:48:18.000Z</time>
      </trkpt>
      <trkpt lat="27.977168" lon="86.826195">
        <ele>5169.4</ele>
        <time>2022-10-27T06:48:22.000Z</time>
      </trkpt>
      <trkpt lat="27.977149" lon="86.82617">
        <ele>5170</ele>
        <time>2022-10-27T06:48:25.000Z</time>
      </trkpt>
      <trkpt lat="27.977126" lon="86.826157">
        <ele>5170.8</ele>
        <time>2022-10-27T06:48:29.000Z</time>
      </trkpt>
      <trkpt lat="27.97711" lon="86.826144">
        <ele>5171.4</ele>
        <time>2022-10-27T06:48:32.000Z</time>
      </trkpt>
      <trkpt lat="27.977091" lon="86.826125">
        <ele>5170.8</ele>
        <time>2022-10-27T06:48:36.000Z</time>
      </trkpt>
      <trkpt lat="27.977072" lon="86.826118">
        <ele>5171.2</ele>
        <time>2022-10-27T06:48:40.000Z</time>
      </trkpt>
      <trkpt lat="27.977069" lon="86.826093">
        <ele>5171.4</ele>
        <time>2022-10-27T06:48:44.000Z</time>
      </trkpt>
      <trkpt lat="27.977056" lon="86.826074">
        <ele>5171.4</ele>
        <time>2022-10-27T06:48:52.000Z</time>
      </trkpt>
      <trkpt lat="27.977046" lon="86.826054">
        <ele>5172.6</ele>
        <time>2022-10-27T06:48:57.000Z</time>
      </trkpt>
      <trkpt lat="27.977043" lon="86.826029">
        <ele>5172.8</ele>
        <time>2022-10-27T06:49:04.000Z</time>
      </trkpt>
      <trkpt lat="27.977037" lon="86.82601">
        <ele>5173.4</ele>
        <time>2022-10-27T06:49:07.000Z</time>
      </trkpt>
      <trkpt lat="27.977024" lon="86.82599">
        <ele>5174</ele>
        <time>2022-10-27T06:49:13.000Z</time>
      </trkpt>
      <trkpt lat="27.977018" lon="86.825971">
        <ele>5174.4</ele>
        <time>2022-10-27T06:49:16.000Z</time>
      </trkpt>
      <trkpt lat="27.976998" lon="86.825971">
        <ele>5173.8</ele>
        <time>2022-10-27T06:49:22.000Z</time>
      </trkpt>
      <trkpt lat="27.976979" lon="86.825958">
        <ele>5173</ele>
        <time>2022-10-27T06:49:26.000Z</time>
      </trkpt>
      <trkpt lat="27.97696" lon="86.825958">
        <ele>5172.6</ele>
        <time>2022-10-27T06:49:30.000Z</time>
      </trkpt>
      <trkpt lat="27.976941" lon="86.825971">
        <ele>5172</ele>
        <time>2022-10-27T06:49:34.000Z</time>
      </trkpt>
      <trkpt lat="27.976922" lon="86.825984">
        <ele>5171.2</ele>
        <time>2022-10-27T06:49:37.000Z</time>
      </trkpt>
      <trkpt lat="27.976902" lon="86.825997">
        <ele>5170.6</ele>
        <time>2022-10-27T06:49:40.000Z</time>
      </trkpt>
      <trkpt lat="27.976883" lon="86.82601">
        <ele>5171</ele>
        <time>2022-10-27T06:49:43.000Z</time>
      </trkpt>
      <trkpt lat="27.976864" lon="86.82601">
        <ele>5171</ele>
        <time>2022-10-27T06:49:46.000Z</time>
      </trkpt>
      <trkpt lat="27.976842" lon="86.82601">
        <ele>5170.6</ele>
        <time>2022-10-27T06:49:50.000Z</time>
      </trkpt>
      <trkpt lat="27.976822" lon="86.82601">
        <ele>5169.2</ele>
        <time>2022-10-27T06:49:53.000Z</time>
      </trkpt>
      <trkpt lat="27.976803" lon="86.826022">
        <ele>5167.8</ele>
        <time>2022-10-27T06:49:57.000Z</time>
      </trkpt>
      <trkpt lat="27.976787" lon="86.82601">
        <ele>5167</ele>
        <time>2022-10-27T06:50:01.000Z</time>
      </trkpt>
      <trkpt lat="27.976768" lon="86.82601">
        <ele>5167</ele>
        <time>2022-10-27T06:50:04.000Z</time>
      </trkpt>
      <trkpt lat="27.976746" lon="86.826003">
        <ele>5166.2</ele>
        <time>2022-10-27T06:50:07.000Z</time>
      </trkpt>
      <trkpt lat="27.976749" lon="86.825971">
        <ele>5167</ele>
        <time>2022-10-27T06:50:19.000Z</time>
      </trkpt>
      <trkpt lat="27.976742" lon="86.825952">
        <ele>5167.6</ele>
        <time>2022-10-27T06:50:23.000Z</time>
      </trkpt>
      <trkpt lat="27.976736" lon="86.825933">
        <ele>5168.8</ele>
        <time>2022-10-27T06:50:29.000Z</time>
      </trkpt>
      <trkpt lat="27.976714" lon="86.825926">
        <ele>5168.8</ele>
        <time>2022-10-27T06:50:36.000Z</time>
      </trkpt>
      <trkpt lat="27.976701" lon="86.825907">
        <ele>5169.6</ele>
        <time>2022-10-27T06:50:43.000Z</time>
      </trkpt>
      <trkpt lat="27.976694" lon="86.825888">
        <ele>5169.6</ele>
        <time>2022-10-27T06:50:46.000Z</time>
      </trkpt>
      <trkpt lat="27.976678" lon="86.825875">
        <ele>5169.4</ele>
        <time>2022-10-27T06:50:51.000Z</time>
      </trkpt>
      <trkpt lat="27.976669" lon="86.825856">
        <ele>5169.6</ele>
        <time>2022-10-27T06:50:55.000Z</time>
      </trkpt>
      <trkpt lat="27.97656" lon="86.825786">
        <ele>5160</ele>
        <time>2022-10-27T06:52:16.000Z</time>
      </trkpt>
      <trkpt lat="27.976563" lon="86.825754">
        <ele>5160</ele>
        <time>2022-10-27T06:52:18.000Z</time>
      </trkpt>
      <trkpt lat="27.97657" lon="86.825734">
        <ele>5160</ele>
        <time>2022-10-27T06:52:19.000Z</time>
      </trkpt>
      <trkpt lat="27.97657" lon="86.825696">
        <ele>5158.8</ele>
        <time>2022-10-27T06:52:22.000Z</time>
      </trkpt>
      <trkpt lat="27.976576" lon="86.82567">
        <ele>5158.2</ele>
        <time>2022-10-27T06:52:24.000Z</time>
      </trkpt>
      <trkpt lat="27.976573" lon="86.825645">
        <ele>5157.8</ele>
        <time>2022-10-27T06:52:27.000Z</time>
      </trkpt>
      <trkpt lat="27.976563" lon="86.825626">
        <ele>5157.4</ele>
        <time>2022-10-27T06:52:30.000Z</time>
      </trkpt>
      <trkpt lat="27.976557" lon="86.825606">
        <ele>5157.2</ele>
        <time>2022-10-27T06:52:32.000Z</time>
      </trkpt>
      <trkpt lat="27.97655" lon="86.825574">
        <ele>5156.6</ele>
        <time>2022-10-27T06:52:37.000Z</time>
      </trkpt>
      <trkpt lat="27.976544" lon="86.825549">
        <ele>5155.6</ele>
        <time>2022-10-27T06:52:42.000Z</time>
      </trkpt>
      <trkpt lat="27.976544" lon="86.825523">
        <ele>5155</ele>
        <time>2022-10-27T06:52:44.000Z</time>
      </trkpt>
      <trkpt lat="27.97655" lon="86.825498">
        <ele>5154.4</ele>
        <time>2022-10-27T06:52:47.000Z</time>
      </trkpt>
      <trkpt lat="27.976547" lon="86.825472">
        <ele>5153.4</ele>
        <time>2022-10-27T06:52:51.000Z</time>
      </trkpt>
      <trkpt lat="27.976541" lon="86.825453">
        <ele>5153.4</ele>
        <time>2022-10-27T06:52:53.000Z</time>
      </trkpt>
      <trkpt lat="27.976541" lon="86.825427">
        <ele>5151.6</ele>
        <time>2022-10-27T06:52:57.000Z</time>
      </trkpt>
      <trkpt lat="27.976522" lon="86.825408">
        <ele>5151.4</ele>
        <time>2022-10-27T06:53:00.000Z</time>
      </trkpt>
      <trkpt lat="27.976509" lon="86.825389">
        <ele>5150.8</ele>
        <time>2022-10-27T06:53:03.000Z</time>
      </trkpt>
      <trkpt lat="27.976502" lon="86.82537">
        <ele>5150.6</ele>
        <time>2022-10-27T06:53:04.000Z</time>
      </trkpt>
      <trkpt lat="27.976486" lon="86.82535">
        <ele>5150.6</ele>
        <time>2022-10-27T06:53:07.000Z</time>
      </trkpt>
      <trkpt lat="27.976483" lon="86.825325">
        <ele>5150.4</ele>
        <time>2022-10-27T06:53:09.000Z</time>
      </trkpt>
      <trkpt lat="27.976483" lon="86.825299">
        <ele>5150.6</ele>
        <time>2022-10-27T06:53:11.000Z</time>
      </trkpt>
      <trkpt lat="27.976486" lon="86.825274">
        <ele>5150.6</ele>
        <time>2022-10-27T06:53:14.000Z</time>
      </trkpt>
      <trkpt lat="27.976493" lon="86.825242">
        <ele>5151</ele>
        <time>2022-10-27T06:53:17.000Z</time>
      </trkpt>
      <trkpt lat="27.976496" lon="86.825216">
        <ele>5151.2</ele>
        <time>2022-10-27T06:53:19.000Z</time>
      </trkpt>
      <trkpt lat="27.976502" lon="86.82519">
        <ele>5150.6</ele>
        <time>2022-10-27T06:53:25.000Z</time>
      </trkpt>
      <trkpt lat="27.976509" lon="86.825171">
        <ele>5150.4</ele>
        <time>2022-10-27T06:53:27.000Z</time>
      </trkpt>
      <trkpt lat="27.976522" lon="86.825152">
        <ele>5149.8</ele>
        <time>2022-10-27T06:53:29.000Z</time>
      </trkpt>
      <trkpt lat="27.976534" lon="86.825133">
        <ele>5149.6</ele>
        <time>2022-10-27T06:53:32.000Z</time>
      </trkpt>
      <trkpt lat="27.976528" lon="86.825114">
        <ele>5149.6</ele>
        <time>2022-10-27T06:53:35.000Z</time>
      </trkpt>
      <trkpt lat="27.976512" lon="86.825101">
        <ele>5151.2</ele>
        <time>2022-10-27T06:53:38.000Z</time>
      </trkpt>
      <trkpt lat="27.976502" lon="86.825082">
        <ele>5150.4</ele>
        <time>2022-10-27T06:53:42.000Z</time>
      </trkpt>
      <trkpt lat="27.976499" lon="86.825056">
        <ele>5149.8</ele>
        <time>2022-10-27T06:53:47.000Z</time>
      </trkpt>
      <trkpt lat="27.97649" lon="86.825037">
        <ele>5149.4</ele>
        <time>2022-10-27T06:53:53.000Z</time>
      </trkpt>
      <trkpt lat="27.976493" lon="86.825011">
        <ele>5148</ele>
        <time>2022-10-27T06:53:58.000Z</time>
      </trkpt>
      <trkpt lat="27.976483" lon="86.824992">
        <ele>5146.6</ele>
        <time>2022-10-27T06:54:04.000Z</time>
      </trkpt>
      <trkpt lat="27.976477" lon="86.824973">
        <ele>5146.2</ele>
        <time>2022-10-27T06:54:09.000Z</time>
      </trkpt>
      <trkpt lat="27.976461" lon="86.824954">
        <ele>5144.6</ele>
        <time>2022-10-27T06:54:14.000Z</time>
      </trkpt>
      <trkpt lat="27.976461" lon="86.824928">
        <ele>5143.8</ele>
        <time>2022-10-27T06:54:20.000Z</time>
      </trkpt>
      <trkpt lat="27.976454" lon="86.824902">
        <ele>5143.2</ele>
        <time>2022-10-27T06:54:23.000Z</time>
      </trkpt>
      <trkpt lat="27.976454" lon="86.824877">
        <ele>5143.2</ele>
        <time>2022-10-27T06:54:26.000Z</time>
      </trkpt>
      <trkpt lat="27.976461" lon="86.824858">
        <ele>5143.2</ele>
        <time>2022-10-27T06:54:28.000Z</time>
      </trkpt>
      <trkpt lat="27.976467" lon="86.824832">
        <ele>5143.2</ele>
        <time>2022-10-27T06:54:32.000Z</time>
      </trkpt>
      <trkpt lat="27.976461" lon="86.824813">
        <ele>5143.4</ele>
        <time>2022-10-27T06:54:35.000Z</time>
      </trkpt>
      <trkpt lat="27.976448" lon="86.824794">
        <ele>5143.2</ele>
        <time>2022-10-27T06:54:39.000Z</time>
      </trkpt>
      <trkpt lat="27.976454" lon="86.824768">
        <ele>5144</ele>
        <time>2022-10-27T06:54:43.000Z</time>
      </trkpt>
      <trkpt lat="27.976458" lon="86.824742">
        <ele>5144.4</ele>
        <time>2022-10-27T06:54:46.000Z</time>
      </trkpt>
      <trkpt lat="27.976461" lon="86.824717">
        <ele>5144</ele>
        <time>2022-10-27T06:54:50.000Z</time>
      </trkpt>
      <trkpt lat="27.976458" lon="86.824691">
        <ele>5143.8</ele>
        <time>2022-10-27T06:54:54.000Z</time>
      </trkpt>
      <trkpt lat="27.97647" lon="86.824672">
        <ele>5143.4</ele>
        <time>2022-10-27T06:54:59.000Z</time>
      </trkpt>
      <trkpt lat="27.976483" lon="86.824653">
        <ele>5144.4</ele>
        <time>2022-10-27T06:55:03.000Z</time>
      </trkpt>
      <trkpt lat="27.97648" lon="86.824621">
        <ele>5145.2</ele>
        <time>2022-10-27T06:55:11.000Z</time>
      </trkpt>
      <trkpt lat="27.976474" lon="86.824602">
        <ele>5144.6</ele>
        <time>2022-10-27T06:55:17.000Z</time>
      </trkpt>
      <trkpt lat="27.976467" lon="86.824582">
        <ele>5143.4</ele>
        <time>2022-10-27T06:55:55.000Z</time>
      </trkpt>
      <trkpt lat="27.976464" lon="86.824557">
        <ele>5143.6</ele>
        <time>2022-10-27T06:55:59.000Z</time>
      </trkpt>
      <trkpt lat="27.976458" lon="86.824538">
        <ele>5144.6</ele>
        <time>2022-10-27T06:56:01.000Z</time>
      </trkpt>
      <trkpt lat="27.976445" lon="86.824518">
        <ele>5145</ele>
        <time>2022-10-27T06:56:05.000Z</time>
      </trkpt>
      <trkpt lat="27.976416" lon="86.824454">
        <ele>5145</ele>
        <time>2022-10-27T06:56:43.000Z</time>
      </trkpt>
      <trkpt lat="27.976394" lon="86.824435">
        <ele>5145</ele>
        <time>2022-10-27T06:56:46.000Z</time>
      </trkpt>
      <trkpt lat="27.976384" lon="86.824416">
        <ele>5145</ele>
        <time>2022-10-27T06:56:47.000Z</time>
      </trkpt>
      <trkpt lat="27.976365" lon="86.82441">
        <ele>5144.8</ele>
        <time>2022-10-27T06:56:49.000Z</time>
      </trkpt>
      <trkpt lat="27.976342" lon="86.824397">
        <ele>5145.4</ele>
        <time>2022-10-27T06:56:51.000Z</time>
      </trkpt>
      <trkpt lat="27.976326" lon="86.824384">
        <ele>5144.8</ele>
        <time>2022-10-27T06:56:53.000Z</time>
      </trkpt>
      <trkpt lat="27.97632" lon="86.824358">
        <ele>5145.4</ele>
        <time>2022-10-27T06:57:00.000Z</time>
      </trkpt>
      <trkpt lat="27.97631" lon="86.824339">
        <ele>5145.6</ele>
        <time>2022-10-27T06:57:05.000Z</time>
      </trkpt>
      <trkpt lat="27.976128" lon="86.824282">
        <ele>5154.8</ele>
        <time>2022-10-27T06:59:01.000Z</time>
      </trkpt>
      <trkpt lat="27.976106" lon="86.824282">
        <ele>5155.2</ele>
        <time>2022-10-27T06:59:03.000Z</time>
      </trkpt>
      <trkpt lat="27.976086" lon="86.824282">
        <ele>5155.2</ele>
        <time>2022-10-27T06:59:05.000Z</time>
      </trkpt>
      <trkpt lat="27.976067" lon="86.824282">
        <ele>5155.8</ele>
        <time>2022-10-27T06:59:07.000Z</time>
      </trkpt>
      <trkpt lat="27.976045" lon="86.824288">
        <ele>5156.2</ele>
        <time>2022-10-27T06:59:10.000Z</time>
      </trkpt>
      <trkpt lat="27.976035" lon="86.824307">
        <ele>5156</ele>
        <time>2022-10-27T06:59:16.000Z</time>
      </trkpt>
      <trkpt lat="27.976029" lon="86.824326">
        <ele>5156.2</ele>
        <time>2022-10-27T06:59:19.000Z</time>
      </trkpt>
      <trkpt lat="27.976016" lon="86.824346">
        <ele>5156.8</ele>
        <time>2022-10-27T06:59:24.000Z</time>
      </trkpt>
      <trkpt lat="27.976006" lon="86.824365">
        <ele>5157.2</ele>
        <time>2022-10-27T06:59:29.000Z</time>
      </trkpt>
      <trkpt lat="27.975987" lon="86.824371">
        <ele>5157.6</ele>
        <time>2022-10-27T06:59:34.000Z</time>
      </trkpt>
      <trkpt lat="27.975968" lon="86.824378">
        <ele>5159</ele>
        <time>2022-10-27T06:59:41.000Z</time>
      </trkpt>
      <trkpt lat="27.975878" lon="86.82441">
        <ele>5160.4</ele>
        <time>2022-10-27T07:00:32.000Z</time>
      </trkpt>
      <trkpt lat="27.975859" lon="86.824435">
        <ele>5160.6</ele>
        <time>2022-10-27T07:00:36.000Z</time>
      </trkpt>
      <trkpt lat="27.975843" lon="86.824448">
        <ele>5161</ele>
        <time>2022-10-27T07:00:39.000Z</time>
      </trkpt>
      <trkpt lat="27.975827" lon="86.824461">
        <ele>5159.8</ele>
        <time>2022-10-27T07:00:52.000Z</time>
      </trkpt>
      <trkpt lat="27.975818" lon="86.82448">
        <ele>5159</ele>
        <time>2022-10-27T07:00:53.000Z</time>
      </trkpt>
      <trkpt lat="27.975789" lon="86.824499">
        <ele>5158.6</ele>
        <time>2022-10-27T07:00:55.000Z</time>
      </trkpt>
      <trkpt lat="27.975766" lon="86.824518">
        <ele>5158.6</ele>
        <time>2022-10-27T07:00:57.000Z</time>
      </trkpt>
      <trkpt lat="27.975744" lon="86.824531">
        <ele>5160.6</ele>
        <time>2022-10-27T07:01:02.000Z</time>
      </trkpt>
      <trkpt lat="27.975728" lon="86.824544">
        <ele>5160</ele>
        <time>2022-10-27T07:01:07.000Z</time>
      </trkpt>
      <trkpt lat="27.975712" lon="86.824563">
        <ele>5160.4</ele>
        <time>2022-10-27T07:01:12.000Z</time>
      </trkpt>
      <trkpt lat="27.975693" lon="86.82457">
        <ele>5161</ele>
        <time>2022-10-27T07:01:17.000Z</time>
      </trkpt>
      <trkpt lat="27.975674" lon="86.82457">
        <ele>5161.4</ele>
        <time>2022-10-27T07:01:25.000Z</time>
      </trkpt>
      <trkpt lat="27.975658" lon="86.824582">
        <ele>5161.4</ele>
        <time>2022-10-27T07:01:32.000Z</time>
      </trkpt>
      <trkpt lat="27.975638" lon="86.824582">
        <ele>5162.4</ele>
        <time>2022-10-27T07:01:38.000Z</time>
      </trkpt>
      <trkpt lat="27.975619" lon="86.824602">
        <ele>5162.4</ele>
        <time>2022-10-27T07:01:42.000Z</time>
      </trkpt>
      <trkpt lat="27.9756" lon="86.824602">
        <ele>5162</ele>
        <time>2022-10-27T07:01:45.000Z</time>
      </trkpt>
      <trkpt lat="27.975587" lon="86.824621">
        <ele>5161.2</ele>
        <time>2022-10-27T07:01:53.000Z</time>
      </trkpt>
      <trkpt lat="27.975555" lon="86.824634">
        <ele>5160.6</ele>
        <time>2022-10-27T07:02:26.000Z</time>
      </trkpt>
      <trkpt lat="27.975536" lon="86.824653">
        <ele>5160.4</ele>
        <time>2022-10-27T07:02:28.000Z</time>
      </trkpt>
      <trkpt lat="27.97551" lon="86.824678">
        <ele>5160.2</ele>
        <time>2022-10-27T07:02:30.000Z</time>
      </trkpt>
      <trkpt lat="27.975491" lon="86.824691">
        <ele>5159.6</ele>
        <time>2022-10-27T07:02:32.000Z</time>
      </trkpt>
      <trkpt lat="27.975472" lon="86.824717">
        <ele>5159.4</ele>
        <time>2022-10-27T07:02:34.000Z</time>
      </trkpt>
      <trkpt lat="27.975462" lon="86.824736">
        <ele>5158.8</ele>
        <time>2022-10-27T07:02:38.000Z</time>
      </trkpt>
      <trkpt lat="27.975446" lon="86.824755">
        <ele>5158.2</ele>
        <time>2022-10-27T07:03:11.000Z</time>
      </trkpt>
      <trkpt lat="27.97543" lon="86.824781">
        <ele>5158.2</ele>
        <time>2022-10-27T07:03:13.000Z</time>
      </trkpt>
      <trkpt lat="27.975421" lon="86.824806">
        <ele>5158.2</ele>
        <time>2022-10-27T07:03:15.000Z</time>
      </trkpt>
      <trkpt lat="27.975411" lon="86.824838">
        <ele>5158.2</ele>
        <time>2022-10-27T07:03:17.000Z</time>
      </trkpt>
      <trkpt lat="27.975398" lon="86.82487">
        <ele>5158.2</ele>
        <time>2022-10-27T07:03:19.000Z</time>
      </trkpt>
      <trkpt lat="27.975389" lon="86.82489">
        <ele>5158.6</ele>
        <time>2022-10-27T07:03:20.000Z</time>
      </trkpt>
      <trkpt lat="27.975389" lon="86.824922">
        <ele>5158.2</ele>
        <time>2022-10-27T07:03:23.000Z</time>
      </trkpt>
      <trkpt lat="27.975376" lon="86.824941">
        <ele>5158</ele>
        <time>2022-10-27T07:03:26.000Z</time>
      </trkpt>
      <trkpt lat="27.97536" lon="86.824954">
        <ele>5158.6</ele>
        <time>2022-10-27T07:03:29.000Z</time>
      </trkpt>
      <trkpt lat="27.975347" lon="86.824973">
        <ele>5157.6</ele>
        <time>2022-10-27T07:03:32.000Z</time>
      </trkpt>
      <trkpt lat="27.975328" lon="86.824992">
        <ele>5157.6</ele>
        <time>2022-10-27T07:03:36.000Z</time>
      </trkpt>
      <trkpt lat="27.975312" lon="86.825011">
        <ele>5157.4</ele>
        <time>2022-10-27T07:03:39.000Z</time>
      </trkpt>
      <trkpt lat="27.975302" lon="86.82503">
        <ele>5157.4</ele>
        <time>2022-10-27T07:03:42.000Z</time>
      </trkpt>
      <trkpt lat="27.97528" lon="86.82505">
        <ele>5157.2</ele>
        <time>2022-10-27T07:03:46.000Z</time>
      </trkpt>
      <trkpt lat="27.975261" lon="86.825056">
        <ele>5157.4</ele>
        <time>2022-10-27T07:03:49.000Z</time>
      </trkpt>
      <trkpt lat="27.975254" lon="86.825075">
        <ele>5157.2</ele>
        <time>2022-10-27T07:03:51.000Z</time>
      </trkpt>
      <trkpt lat="27.975238" lon="86.825094">
        <ele>5156.8</ele>
        <time>2022-10-27T07:03:55.000Z</time>
      </trkpt>
      <trkpt lat="27.975219" lon="86.825114">
        <ele>5156.8</ele>
        <time>2022-10-27T07:03:58.000Z</time>
      </trkpt>
      <trkpt lat="27.9752" lon="86.82512">
        <ele>5155.8</ele>
        <time>2022-10-27T07:04:01.000Z</time>
      </trkpt>
      <trkpt lat="27.975178" lon="86.82512">
        <ele>5156</ele>
        <time>2022-10-27T07:04:04.000Z</time>
      </trkpt>
      <trkpt lat="27.975158" lon="86.825139">
        <ele>5156</ele>
        <time>2022-10-27T07:04:08.000Z</time>
      </trkpt>
      <trkpt lat="27.975139" lon="86.825152">
        <ele>5156</ele>
        <time>2022-10-27T07:04:11.000Z</time>
      </trkpt>
      <trkpt lat="27.975123" lon="86.825165">
        <ele>5156</ele>
        <time>2022-10-27T07:04:14.000Z</time>
      </trkpt>
      <trkpt lat="27.975104" lon="86.825178">
        <ele>5156.4</ele>
        <time>2022-10-27T07:04:18.000Z</time>
      </trkpt>
      <trkpt lat="27.975085" lon="86.825197">
        <ele>5156</ele>
        <time>2022-10-27T07:04:22.000Z</time>
      </trkpt>
      <trkpt lat="27.975066" lon="86.825216">
        <ele>5155.4</ele>
        <time>2022-10-27T07:04:27.000Z</time>
      </trkpt>
      <trkpt lat="27.97504" lon="86.82521">
        <ele>5155.2</ele>
        <time>2022-10-27T07:04:31.000Z</time>
      </trkpt>
      <trkpt lat="27.975018" lon="86.82521">
        <ele>5155.8</ele>
        <time>2022-10-27T07:04:34.000Z</time>
      </trkpt>
      <trkpt lat="27.974992" lon="86.82521">
        <ele>5155.8</ele>
        <time>2022-10-27T07:04:37.000Z</time>
      </trkpt>
      <trkpt lat="27.97497" lon="86.825203">
        <ele>5156</ele>
        <time>2022-10-27T07:04:41.000Z</time>
      </trkpt>
      <trkpt lat="27.97495" lon="86.825203">
        <ele>5156</ele>
        <time>2022-10-27T07:04:45.000Z</time>
      </trkpt>
      <trkpt lat="27.974928" lon="86.825197">
        <ele>5156.6</ele>
        <time>2022-10-27T07:04:50.000Z</time>
      </trkpt>
      <trkpt lat="27.974906" lon="86.825197">
        <ele>5157</ele>
        <time>2022-10-27T07:04:55.000Z</time>
      </trkpt>
      <trkpt lat="27.974883" lon="86.82519">
        <ele>5157</ele>
        <time>2022-10-27T07:05:00.000Z</time>
      </trkpt>
      <trkpt lat="27.974867" lon="86.825178">
        <ele>5158.4</ele>
        <time>2022-10-27T07:05:05.000Z</time>
      </trkpt>
      <trkpt lat="27.974848" lon="86.825171">
        <ele>5157.6</ele>
        <time>2022-10-27T07:05:08.000Z</time>
      </trkpt>
      <trkpt lat="27.974826" lon="86.825165">
        <ele>5157.8</ele>
        <time>2022-10-27T07:05:12.000Z</time>
      </trkpt>
      <trkpt lat="27.974806" lon="86.825158">
        <ele>5157.8</ele>
        <time>2022-10-27T07:05:16.000Z</time>
      </trkpt>
      <trkpt lat="27.974787" lon="86.825139">
        <ele>5157.8</ele>
        <time>2022-10-27T07:05:21.000Z</time>
      </trkpt>
      <trkpt lat="27.974765" lon="86.825139">
        <ele>5158.2</ele>
        <time>2022-10-27T07:05:25.000Z</time>
      </trkpt>
      <trkpt lat="27.974749" lon="86.825126">
        <ele>5158</ele>
        <time>2022-10-27T07:05:28.000Z</time>
      </trkpt>
      <trkpt lat="27.974723" lon="86.82512">
        <ele>5158.8</ele>
        <time>2022-10-27T07:07:43.000Z</time>
      </trkpt>
      <trkpt lat="27.974694" lon="86.825114">
        <ele>5158.8</ele>
        <time>2022-10-27T07:07:45.000Z</time>
      </trkpt>
      <trkpt lat="27.974666" lon="86.825114">
        <ele>5158.8</ele>
        <time>2022-10-27T07:07:47.000Z</time>
      </trkpt>
      <trkpt lat="27.974637" lon="86.825114">
        <ele>5158.8</ele>
        <time>2022-10-27T07:07:49.000Z</time>
      </trkpt>
      <trkpt lat="27.974614" lon="86.825114">
        <ele>5159.2</ele>
        <time>2022-10-27T07:07:51.000Z</time>
      </trkpt>
      <trkpt lat="27.974595" lon="86.825094">
        <ele>5159.2</ele>
        <time>2022-10-27T07:07:54.000Z</time>
      </trkpt>
      <trkpt lat="27.974589" lon="86.825075">
        <ele>5160.8</ele>
        <time>2022-10-27T07:08:01.000Z</time>
      </trkpt>
      <trkpt lat="27.97457" lon="86.825075">
        <ele>5161.2</ele>
        <time>2022-10-27T07:08:08.000Z</time>
      </trkpt>
      <trkpt lat="27.974547" lon="86.825075">
        <ele>5161.4</ele>
        <time>2022-10-27T07:08:12.000Z</time>
      </trkpt>
      <trkpt lat="27.974528" lon="86.825075">
        <ele>5161.8</ele>
        <time>2022-10-27T07:08:17.000Z</time>
      </trkpt>
      <trkpt lat="27.974509" lon="86.825075">
        <ele>5162</ele>
        <time>2022-10-27T07:08:23.000Z</time>
      </trkpt>
      <trkpt lat="27.97449" lon="86.825075">
        <ele>5162.4</ele>
        <time>2022-10-27T07:08:26.000Z</time>
      </trkpt>
      <trkpt lat="27.97447" lon="86.825075">
        <ele>5162.4</ele>
        <time>2022-10-27T07:08:30.000Z</time>
      </trkpt>
      <trkpt lat="27.974451" lon="86.825082">
        <ele>5162.4</ele>
        <time>2022-10-27T07:08:39.000Z</time>
      </trkpt>
      <trkpt lat="27.974435" lon="86.825094">
        <ele>5162.4</ele>
        <time>2022-10-27T07:08:54.000Z</time>
      </trkpt>
      <trkpt lat="27.97441" lon="86.825114">
        <ele>5162.4</ele>
        <time>2022-10-27T07:08:57.000Z</time>
      </trkpt>
      <trkpt lat="27.974387" lon="86.825133">
        <ele>5162.8</ele>
        <time>2022-10-27T07:09:00.000Z</time>
      </trkpt>
      <trkpt lat="27.974374" lon="86.825152">
        <ele>5162.8</ele>
        <time>2022-10-27T07:09:02.000Z</time>
      </trkpt>
      <trkpt lat="27.974346" lon="86.825152">
        <ele>5163.2</ele>
        <time>2022-10-27T07:09:58.000Z</time>
      </trkpt>
      <trkpt lat="27.97432" lon="86.825158">
        <ele>5163.6</ele>
        <time>2022-10-27T07:10:00.000Z</time>
      </trkpt>
      <trkpt lat="27.974298" lon="86.825165">
        <ele>5163.2</ele>
        <time>2022-10-27T07:10:02.000Z</time>
      </trkpt>
      <trkpt lat="27.974275" lon="86.825171">
        <ele>5162.8</ele>
        <time>2022-10-27T07:10:04.000Z</time>
      </trkpt>
      <trkpt lat="27.974253" lon="86.82519">
        <ele>5162.4</ele>
        <time>2022-10-27T07:10:06.000Z</time>
      </trkpt>
      <trkpt lat="27.974237" lon="86.825203">
        <ele>5162.4</ele>
        <time>2022-10-27T07:10:10.000Z</time>
      </trkpt>
      <trkpt lat="27.974218" lon="86.825203">
        <ele>5161.8</ele>
        <time>2022-10-27T07:10:12.000Z</time>
      </trkpt>
      <trkpt lat="27.974198" lon="86.825197">
        <ele>5161.6</ele>
        <time>2022-10-27T07:10:15.000Z</time>
      </trkpt>
      <trkpt lat="27.974186" lon="86.825216">
        <ele>5162</ele>
        <time>2022-10-27T07:10:29.000Z</time>
      </trkpt>
      <trkpt lat="27.97417" lon="86.825229">
        <ele>5161.6</ele>
        <time>2022-10-27T07:10:31.000Z</time>
      </trkpt>
      <trkpt lat="27.974147" lon="86.825235">
        <ele>5161.6</ele>
        <time>2022-10-27T07:10:34.000Z</time>
      </trkpt>
      <trkpt lat="27.974128" lon="86.825235">
        <ele>5161.6</ele>
        <time>2022-10-27T07:10:37.000Z</time>
      </trkpt>
      <trkpt lat="27.974109" lon="86.825235">
        <ele>5162.2</ele>
        <time>2022-10-27T07:10:40.000Z</time>
      </trkpt>
      <trkpt lat="27.974083" lon="86.825235">
        <ele>5161.2</ele>
        <time>2022-10-27T07:10:44.000Z</time>
      </trkpt>
      <trkpt lat="27.974064" lon="86.825248">
        <ele>5160.6</ele>
        <time>2022-10-27T07:10:47.000Z</time>
      </trkpt>
      <trkpt lat="27.974042" lon="86.825248">
        <ele>5160</ele>
        <time>2022-10-27T07:10:50.000Z</time>
      </trkpt>
      <trkpt lat="27.974022" lon="86.825248">
        <ele>5160.2</ele>
        <time>2022-10-27T07:10:54.000Z</time>
      </trkpt>
      <trkpt lat="27.973994" lon="86.825274">
        <ele>5162</ele>
        <time>2022-10-27T07:11:33.000Z</time>
      </trkpt>
      <trkpt lat="27.973965" lon="86.825286">
        <ele>5162</ele>
        <time>2022-10-27T07:11:35.000Z</time>
      </trkpt>
      <trkpt lat="27.973939" lon="86.825293">
        <ele>5162.2</ele>
        <time>2022-10-27T07:11:37.000Z</time>
      </trkpt>
      <trkpt lat="27.97391" lon="86.825312">
        <ele>5162.2</ele>
        <time>2022-10-27T07:11:39.000Z</time>
      </trkpt>
      <trkpt lat="27.973882" lon="86.825318">
        <ele>5162.2</ele>
        <time>2022-10-27T07:11:41.000Z</time>
      </trkpt>
      <trkpt lat="27.973862" lon="86.825318">
        <ele>5163.6</ele>
        <time>2022-10-27T07:11:45.000Z</time>
      </trkpt>
      <trkpt lat="27.97385" lon="86.825299">
        <ele>5164</ele>
        <time>2022-10-27T07:11:47.000Z</time>
      </trkpt>
      <trkpt lat="27.973827" lon="86.825293">
        <ele>5164</ele>
        <time>2022-10-27T07:11:50.000Z</time>
      </trkpt>
      <trkpt lat="27.973802" lon="86.825299">
        <ele>5163.6</ele>
        <time>2022-10-27T07:11:53.000Z</time>
      </trkpt>
      <trkpt lat="27.973776" lon="86.825293">
        <ele>5163.6</ele>
        <time>2022-10-27T07:11:56.000Z</time>
      </trkpt>
      <trkpt lat="27.973754" lon="86.825286">
        <ele>5164.2</ele>
        <time>2022-10-27T07:12:00.000Z</time>
      </trkpt>
      <trkpt lat="27.973734" lon="86.825274">
        <ele>5164.2</ele>
        <time>2022-10-27T07:12:03.000Z</time>
      </trkpt>
      <trkpt lat="27.973715" lon="86.825261">
        <ele>5164.2</ele>
        <time>2022-10-27T07:12:06.000Z</time>
      </trkpt>
      <trkpt lat="27.973693" lon="86.825254">
        <ele>5164.2</ele>
        <time>2022-10-27T07:12:12.000Z</time>
      </trkpt>
      <trkpt lat="27.97367" lon="86.825254">
        <ele>5164.8</ele>
        <time>2022-10-27T07:12:16.000Z</time>
      </trkpt>
      <trkpt lat="27.973654" lon="86.825242">
        <ele>5164.8</ele>
        <time>2022-10-27T07:12:20.000Z</time>
      </trkpt>
      <trkpt lat="27.973632" lon="86.825242">
        <ele>5165.6</ele>
        <time>2022-10-27T07:12:25.000Z</time>
      </trkpt>
      <trkpt lat="27.973613" lon="86.825242">
        <ele>5166</ele>
        <time>2022-10-27T07:12:29.000Z</time>
      </trkpt>
      <trkpt lat="27.97359" lon="86.825235">
        <ele>5165.4</ele>
        <time>2022-10-27T07:12:33.000Z</time>
      </trkpt>
      <trkpt lat="27.973571" lon="86.825235">
        <ele>5166</ele>
        <time>2022-10-27T07:12:37.000Z</time>
      </trkpt>
      <trkpt lat="27.973558" lon="86.825216">
        <ele>5165.4</ele>
        <time>2022-10-27T07:12:40.000Z</time>
      </trkpt>
      <trkpt lat="27.973539" lon="86.82521">
        <ele>5165.8</ele>
        <time>2022-10-27T07:12:45.000Z</time>
      </trkpt>
      <trkpt lat="27.973523" lon="86.825197">
        <ele>5166</ele>
        <time>2022-10-27T07:12:48.000Z</time>
      </trkpt>
      <trkpt lat="27.973504" lon="86.82519">
        <ele>5166.6</ele>
        <time>2022-10-27T07:12:52.000Z</time>
      </trkpt>
      <trkpt lat="27.973485" lon="86.825178">
        <ele>5166.4</ele>
        <time>2022-10-27T07:12:56.000Z</time>
      </trkpt>
      <trkpt lat="27.973472" lon="86.825158">
        <ele>5166.6</ele>
        <time>2022-10-27T07:13:01.000Z</time>
      </trkpt>
      <trkpt lat="27.973456" lon="86.825139">
        <ele>5166.2</ele>
        <time>2022-10-27T07:13:05.000Z</time>
      </trkpt>
      <trkpt lat="27.973437" lon="86.825126">
        <ele>5166.8</ele>
        <time>2022-10-27T07:13:10.000Z</time>
      </trkpt>
      <trkpt lat="27.973418" lon="86.825126">
        <ele>5167.2</ele>
        <time>2022-10-27T07:13:14.000Z</time>
      </trkpt>
      <trkpt lat="27.973395" lon="86.825133">
        <ele>5167.2</ele>
        <time>2022-10-27T07:13:18.000Z</time>
      </trkpt>
      <trkpt lat="27.973376" lon="86.825139">
        <ele>5168.2</ele>
        <time>2022-10-27T07:13:23.000Z</time>
      </trkpt>
      <trkpt lat="27.973357" lon="86.825152">
        <ele>5167.8</ele>
        <time>2022-10-27T07:13:27.000Z</time>
      </trkpt>
      <trkpt lat="27.973338" lon="86.825165">
        <ele>5168.2</ele>
        <time>2022-10-27T07:13:31.000Z</time>
      </trkpt>
      <trkpt lat="27.973315" lon="86.825165">
        <ele>5168.8</ele>
        <time>2022-10-27T07:13:36.000Z</time>
      </trkpt>
      <trkpt lat="27.973296" lon="86.825158">
        <ele>5169.4</ele>
        <time>2022-10-27T07:13:41.000Z</time>
      </trkpt>
      <trkpt lat="27.973277" lon="86.825158">
        <ele>5170</ele>
        <time>2022-10-27T07:13:46.000Z</time>
      </trkpt>
      <trkpt lat="27.973261" lon="86.825139">
        <ele>5170.8</ele>
        <time>2022-10-27T07:13:50.000Z</time>
      </trkpt>
      <trkpt lat="27.973238" lon="86.825139">
        <ele>5171.4</ele>
        <time>2022-10-27T07:14:01.000Z</time>
      </trkpt>
      <trkpt lat="27.973219" lon="86.825133">
        <ele>5171.4</ele>
        <time>2022-10-27T07:14:07.000Z</time>
      </trkpt>
      <trkpt lat="27.973197" lon="86.825133">
        <ele>5171.8</ele>
        <time>2022-10-27T07:14:12.000Z</time>
      </trkpt>
      <trkpt lat="27.973174" lon="86.825133">
        <ele>5172.4</ele>
        <time>2022-10-27T07:14:27.000Z</time>
      </trkpt>
      <trkpt lat="27.973155" lon="86.825133">
        <ele>5173</ele>
        <time>2022-10-27T07:14:32.000Z</time>
      </trkpt>
      <trkpt lat="27.973136" lon="86.825133">
        <ele>5173</ele>
        <time>2022-10-27T07:14:36.000Z</time>
      </trkpt>
      <trkpt lat="27.973117" lon="86.825133">
        <ele>5173.6</ele>
        <time>2022-10-27T07:14:40.000Z</time>
      </trkpt>
      <trkpt lat="27.973094" lon="86.825139">
        <ele>5173.6</ele>
        <time>2022-10-27T07:14:44.000Z</time>
      </trkpt>
      <trkpt lat="27.973075" lon="86.825133">
        <ele>5173.8</ele>
        <time>2022-10-27T07:14:47.000Z</time>
      </trkpt>
      <trkpt lat="27.973059" lon="86.82512">
        <ele>5174.8</ele>
        <time>2022-10-27T07:14:51.000Z</time>
      </trkpt>
      <trkpt lat="27.973037" lon="86.825114">
        <ele>5174.4</ele>
        <time>2022-10-27T07:14:55.000Z</time>
      </trkpt>
      <trkpt lat="27.973018" lon="86.825114">
        <ele>5173.6</ele>
        <time>2022-10-27T07:14:59.000Z</time>
      </trkpt>
      <trkpt lat="27.972998" lon="86.825114">
        <ele>5173.8</ele>
        <time>2022-10-27T07:15:02.000Z</time>
      </trkpt>
      <trkpt lat="27.972979" lon="86.825101">
        <ele>5173.4</ele>
        <time>2022-10-27T07:15:07.000Z</time>
      </trkpt>
      <trkpt lat="27.97296" lon="86.825088">
        <ele>5173.6</ele>
        <time>2022-10-27T07:15:10.000Z</time>
      </trkpt>
      <trkpt lat="27.97295" lon="86.825056">
        <ele>5175</ele>
        <time>2022-10-27T07:15:42.000Z</time>
      </trkpt>
      <trkpt lat="27.972934" lon="86.825043">
        <ele>5175</ele>
        <time>2022-10-27T07:15:44.000Z</time>
      </trkpt>
      <trkpt lat="27.972915" lon="86.82503">
        <ele>5176</ele>
        <time>2022-10-27T07:15:46.000Z</time>
      </trkpt>
      <trkpt lat="27.972906" lon="86.825011">
        <ele>5176</ele>
        <time>2022-10-27T07:15:47.000Z</time>
      </trkpt>
      <trkpt lat="27.97289" lon="86.824998">
        <ele>5176.2</ele>
        <time>2022-10-27T07:15:49.000Z</time>
      </trkpt>
      <trkpt lat="27.97287" lon="86.824979">
        <ele>5176.2</ele>
        <time>2022-10-27T07:15:51.000Z</time>
      </trkpt>
      <trkpt lat="27.972851" lon="86.824979">
        <ele>5176.8</ele>
        <time>2022-10-27T07:15:54.000Z</time>
      </trkpt>
      <trkpt lat="27.972851" lon="86.824941">
        <ele>5174.2</ele>
        <time>2022-10-27T07:16:21.000Z</time>
      </trkpt>
      <trkpt lat="27.972854" lon="86.824902">
        <ele>5173.4</ele>
        <time>2022-10-27T07:16:23.000Z</time>
      </trkpt>
      <trkpt lat="27.972851" lon="86.824877">
        <ele>5173</ele>
        <time>2022-10-27T07:16:25.000Z</time>
      </trkpt>
      <trkpt lat="27.972851" lon="86.824851">
        <ele>5173</ele>
        <time>2022-10-27T07:16:26.000Z</time>
      </trkpt>
      <trkpt lat="27.972848" lon="86.824813">
        <ele>5173</ele>
        <time>2022-10-27T07:16:28.000Z</time>
      </trkpt>
      <trkpt lat="27.972848" lon="86.824781">
        <ele>5172.8</ele>
        <time>2022-10-27T07:16:30.000Z</time>
      </trkpt>
      <trkpt lat="27.972835" lon="86.824755">
        <ele>5171.2</ele>
        <time>2022-10-27T07:16:34.000Z</time>
      </trkpt>
      <trkpt lat="27.972829" lon="86.82473">
        <ele>5170.6</ele>
        <time>2022-10-27T07:16:36.000Z</time>
      </trkpt>
      <trkpt lat="27.972819" lon="86.824704">
        <ele>5170.6</ele>
        <time>2022-10-27T07:16:39.000Z</time>
      </trkpt>
      <trkpt lat="27.97281" lon="86.824685">
        <ele>5169.8</ele>
        <time>2022-10-27T07:16:41.000Z</time>
      </trkpt>
      <trkpt lat="27.9728" lon="86.824659">
        <ele>5169.8</ele>
        <time>2022-10-27T07:16:43.000Z</time>
      </trkpt>
      <trkpt lat="27.972797" lon="86.824634">
        <ele>5169.4</ele>
        <time>2022-10-27T07:16:46.000Z</time>
      </trkpt>
      <trkpt lat="27.972797" lon="86.824608">
        <ele>5169.4</ele>
        <time>2022-10-27T07:16:49.000Z</time>
      </trkpt>
      <trkpt lat="27.972794" lon="86.824582">
        <ele>5169.2</ele>
        <time>2022-10-27T07:16:51.000Z</time>
      </trkpt>
      <trkpt lat="27.97279" lon="86.824557">
        <ele>5169.2</ele>
        <time>2022-10-27T07:16:54.000Z</time>
      </trkpt>
      <trkpt lat="27.972787" lon="86.824531">
        <ele>5168.8</ele>
        <time>2022-10-27T07:16:57.000Z</time>
      </trkpt>
      <trkpt lat="27.972778" lon="86.824506">
        <ele>5167.4</ele>
        <time>2022-10-27T07:17:01.000Z</time>
      </trkpt>
      <trkpt lat="27.972771" lon="86.824486">
        <ele>5167</ele>
        <time>2022-10-27T07:17:05.000Z</time>
      </trkpt>
      <trkpt lat="27.972752" lon="86.824461">
        <ele>5166.4</ele>
        <time>2022-10-27T07:17:10.000Z</time>
      </trkpt>
      <trkpt lat="27.972733" lon="86.824448">
        <ele>5166.2</ele>
        <time>2022-10-27T07:17:16.000Z</time>
      </trkpt>
      <trkpt lat="27.972714" lon="86.824435">
        <ele>5165.6</ele>
        <time>2022-10-27T07:17:19.000Z</time>
      </trkpt>
      <trkpt lat="27.972707" lon="86.824416">
        <ele>5165.6</ele>
        <time>2022-10-27T07:17:21.000Z</time>
      </trkpt>
      <trkpt lat="27.972694" lon="86.824397">
        <ele>5164.8</ele>
        <time>2022-10-27T07:17:24.000Z</time>
      </trkpt>
      <trkpt lat="27.972691" lon="86.824371">
        <ele>5164.8</ele>
        <time>2022-10-27T07:17:27.000Z</time>
      </trkpt>
      <trkpt lat="27.972682" lon="86.824346">
        <ele>5164.8</ele>
        <time>2022-10-27T07:17:30.000Z</time>
      </trkpt>
      <trkpt lat="27.972666" lon="86.82432">
        <ele>5164.2</ele>
        <time>2022-10-27T07:17:35.000Z</time>
      </trkpt>
      <trkpt lat="27.972659" lon="86.824301">
        <ele>5164</ele>
        <time>2022-10-27T07:17:37.000Z</time>
      </trkpt>
      <trkpt lat="27.97264" lon="86.824307">
        <ele>5162.8</ele>
        <time>2022-10-27T07:17:41.000Z</time>
      </trkpt>
      <trkpt lat="27.972621" lon="86.824301">
        <ele>5162.6</ele>
        <time>2022-10-27T07:17:44.000Z</time>
      </trkpt>
      <trkpt lat="27.972611" lon="86.824282">
        <ele>5161.4</ele>
        <time>2022-10-27T07:17:48.000Z</time>
      </trkpt>
      <trkpt lat="27.972598" lon="86.824262">
        <ele>5161.2</ele>
        <time>2022-10-27T07:17:50.000Z</time>
      </trkpt>
      <trkpt lat="27.972579" lon="86.824262">
        <ele>5160.4</ele>
        <time>2022-10-27T07:17:56.000Z</time>
      </trkpt>
      <trkpt lat="27.97256" lon="86.824256">
        <ele>5159.8</ele>
        <time>2022-10-27T07:18:00.000Z</time>
      </trkpt>
      <trkpt lat="27.972541" lon="86.824256">
        <ele>5158.6</ele>
        <time>2022-10-27T07:18:04.000Z</time>
      </trkpt>
      <trkpt lat="27.972525" lon="86.824243">
        <ele>5157.2</ele>
        <time>2022-10-27T07:18:07.000Z</time>
      </trkpt>
      <trkpt lat="27.972502" lon="86.824237">
        <ele>5157</ele>
        <time>2022-10-27T07:18:11.000Z</time>
      </trkpt>
      <trkpt lat="27.972483" lon="86.824224">
        <ele>5156.4</ele>
        <time>2022-10-27T07:18:14.000Z</time>
      </trkpt>
      <trkpt lat="27.972464" lon="86.824205">
        <ele>5156.4</ele>
        <time>2022-10-27T07:18:19.000Z</time>
      </trkpt>
      <trkpt lat="27.972454" lon="86.824186">
        <ele>5156</ele>
        <time>2022-10-27T07:18:22.000Z</time>
      </trkpt>
      <trkpt lat="27.972438" lon="86.824173">
        <ele>5156</ele>
        <time>2022-10-27T07:18:25.000Z</time>
      </trkpt>
      <trkpt lat="27.972413" lon="86.824147">
        <ele>5154.6</ele>
        <time>2022-10-27T07:19:07.000Z</time>
      </trkpt>
      <trkpt lat="27.972397" lon="86.824134">
        <ele>5154.4</ele>
        <time>2022-10-27T07:19:08.000Z</time>
      </trkpt>
      <trkpt lat="27.972371" lon="86.824122">
        <ele>5154</ele>
        <time>2022-10-27T07:19:10.000Z</time>
      </trkpt>
      <trkpt lat="27.972346" lon="86.824102">
        <ele>5154.2</ele>
        <time>2022-10-27T07:19:12.000Z</time>
      </trkpt>
      <trkpt lat="27.972317" lon="86.824096">
        <ele>5154.2</ele>
        <time>2022-10-27T07:19:14.000Z</time>
      </trkpt>
      <trkpt lat="27.972294" lon="86.82409">
        <ele>5154.2</ele>
        <time>2022-10-27T07:19:16.000Z</time>
      </trkpt>
      <trkpt lat="27.972272" lon="86.824096">
        <ele>5154.4</ele>
        <time>2022-10-27T07:19:19.000Z</time>
      </trkpt>
      <trkpt lat="27.972246" lon="86.824096">
        <ele>5154.4</ele>
        <time>2022-10-27T07:19:23.000Z</time>
      </trkpt>
      <trkpt lat="27.972227" lon="86.82409">
        <ele>5154.4</ele>
        <time>2022-10-27T07:19:26.000Z</time>
      </trkpt>
      <trkpt lat="27.972205" lon="86.824077">
        <ele>5154.2</ele>
        <time>2022-10-27T07:19:29.000Z</time>
      </trkpt>
      <trkpt lat="27.972192" lon="86.824058">
        <ele>5154.2</ele>
        <time>2022-10-27T07:19:31.000Z</time>
      </trkpt>
      <trkpt lat="27.97217" lon="86.824058">
        <ele>5153.8</ele>
        <time>2022-10-27T07:19:34.000Z</time>
      </trkpt>
      <trkpt lat="27.972154" lon="86.824077">
        <ele>5153.8</ele>
        <time>2022-10-27T07:19:36.000Z</time>
      </trkpt>
      <trkpt lat="27.972131" lon="86.824083">
        <ele>5153.8</ele>
        <time>2022-10-27T07:19:39.000Z</time>
      </trkpt>
      <trkpt lat="27.972112" lon="86.824083">
        <ele>5154.8</ele>
        <time>2022-10-27T07:19:42.000Z</time>
      </trkpt>
      <trkpt lat="27.972093" lon="86.824096">
        <ele>5155.4</ele>
        <time>2022-10-27T07:19:46.000Z</time>
      </trkpt>
      <trkpt lat="27.972074" lon="86.824096">
        <ele>5156.2</ele>
        <time>2022-10-27T07:19:52.000Z</time>
      </trkpt>
      <trkpt lat="27.972048" lon="86.824077">
        <ele>5157.8</ele>
        <time>2022-10-27T07:22:02.000Z</time>
      </trkpt>
      <trkpt lat="27.972019" lon="86.824077">
        <ele>5158.4</ele>
        <time>2022-10-27T07:22:04.000Z</time>
      </trkpt>
      <trkpt lat="27.971994" lon="86.824064">
        <ele>5158.4</ele>
        <time>2022-10-27T07:22:06.000Z</time>
      </trkpt>
      <trkpt lat="27.971962" lon="86.824058">
        <ele>5158.6</ele>
        <time>2022-10-27T07:22:08.000Z</time>
      </trkpt>
      <trkpt lat="27.971939" lon="86.824038">
        <ele>5158</ele>
        <time>2022-10-27T07:22:10.000Z</time>
      </trkpt>
      <trkpt lat="27.97193" lon="86.824019">
        <ele>5158.6</ele>
        <time>2022-10-27T07:22:11.000Z</time>
      </trkpt>
      <trkpt lat="27.971914" lon="86.824006">
        <ele>5158.4</ele>
        <time>2022-10-27T07:22:14.000Z</time>
      </trkpt>
      <trkpt lat="27.971888" lon="86.823987">
        <ele>5158</ele>
        <time>2022-10-27T07:22:17.000Z</time>
      </trkpt>
      <trkpt lat="27.971872" lon="86.824">
        <ele>5157.8</ele>
        <time>2022-10-27T07:22:20.000Z</time>
      </trkpt>
      <trkpt lat="27.97185" lon="86.823981">
        <ele>5158</ele>
        <time>2022-10-27T07:22:23.000Z</time>
      </trkpt>
      <trkpt lat="27.971834" lon="86.823968">
        <ele>5158.4</ele>
        <time>2022-10-27T07:22:26.000Z</time>
      </trkpt>
      <trkpt lat="27.971821" lon="86.823949">
        <ele>5158.8</ele>
        <time>2022-10-27T07:22:29.000Z</time>
      </trkpt>
      <trkpt lat="27.971798" lon="86.823942">
        <ele>5159.2</ele>
        <time>2022-10-27T07:22:33.000Z</time>
      </trkpt>
      <trkpt lat="27.971776" lon="86.823949">
        <ele>5159.4</ele>
        <time>2022-10-27T07:22:37.000Z</time>
      </trkpt>
      <trkpt lat="27.971757" lon="86.823962">
        <ele>5159.4</ele>
        <time>2022-10-27T07:22:40.000Z</time>
      </trkpt>
      <trkpt lat="27.971734" lon="86.823962">
        <ele>5160</ele>
        <time>2022-10-27T07:22:44.000Z</time>
      </trkpt>
      <trkpt lat="27.971715" lon="86.823942">
        <ele>5160.8</ele>
        <time>2022-10-27T07:22:48.000Z</time>
      </trkpt>
      <trkpt lat="27.971702" lon="86.823923">
        <ele>5161.4</ele>
        <time>2022-10-27T07:22:52.000Z</time>
      </trkpt>
      <trkpt lat="27.971696" lon="86.823904">
        <ele>5161.4</ele>
        <time>2022-10-27T07:22:55.000Z</time>
      </trkpt>
      <trkpt lat="27.971686" lon="86.823885">
        <ele>5162</ele>
        <time>2022-10-27T07:23:00.000Z</time>
      </trkpt>
      <trkpt lat="27.971674" lon="86.823866">
        <ele>5162.4</ele>
        <time>2022-10-27T07:23:03.000Z</time>
      </trkpt>
      <trkpt lat="27.971661" lon="86.823846">
        <ele>5161.2</ele>
        <time>2022-10-27T07:23:07.000Z</time>
      </trkpt>
      <trkpt lat="27.971654" lon="86.823827">
        <ele>5161</ele>
        <time>2022-10-27T07:23:09.000Z</time>
      </trkpt>
      <trkpt lat="27.971648" lon="86.823808">
        <ele>5161</ele>
        <time>2022-10-27T07:23:12.000Z</time>
      </trkpt>
      <trkpt lat="27.971638" lon="86.823789">
        <ele>5160.4</ele>
        <time>2022-10-27T07:23:15.000Z</time>
      </trkpt>
      <trkpt lat="27.971622" lon="86.82377">
        <ele>5160.4</ele>
        <time>2022-10-27T07:23:19.000Z</time>
      </trkpt>
      <trkpt lat="27.971606" lon="86.82375">
        <ele>5160</ele>
        <time>2022-10-27T07:23:22.000Z</time>
      </trkpt>
      <trkpt lat="27.971587" lon="86.82375">
        <ele>5159.8</ele>
        <time>2022-10-27T07:23:25.000Z</time>
      </trkpt>
      <trkpt lat="27.971571" lon="86.823738">
        <ele>5159.8</ele>
        <time>2022-10-27T07:23:28.000Z</time>
      </trkpt>
      <trkpt lat="27.971555" lon="86.823725">
        <ele>5159</ele>
        <time>2022-10-27T07:23:31.000Z</time>
      </trkpt>
      <trkpt lat="27.971536" lon="86.823725">
        <ele>5158.4</ele>
        <time>2022-10-27T07:23:34.000Z</time>
      </trkpt>
      <trkpt lat="27.971517" lon="86.823731">
        <ele>5158.4</ele>
        <time>2022-10-27T07:23:37.000Z</time>
      </trkpt>
      <trkpt lat="27.971498" lon="86.823731">
        <ele>5158</ele>
        <time>2022-10-27T07:23:40.000Z</time>
      </trkpt>
      <trkpt lat="27.971485" lon="86.823706">
        <ele>5157.8</ele>
        <time>2022-10-27T07:23:43.000Z</time>
      </trkpt>
      <trkpt lat="27.971462" lon="86.823699">
        <ele>5157.2</ele>
        <time>2022-10-27T07:23:47.000Z</time>
      </trkpt>
      <trkpt lat="27.97144" lon="86.823699">
        <ele>5157.2</ele>
        <time>2022-10-27T07:23:50.000Z</time>
      </trkpt>
      <trkpt lat="27.971437" lon="86.823667">
        <ele>5157</ele>
        <time>2022-10-27T07:23:53.000Z</time>
      </trkpt>
      <trkpt lat="27.971414" lon="86.823661">
        <ele>5156.6</ele>
        <time>2022-10-27T07:23:59.000Z</time>
      </trkpt>
      <trkpt lat="27.971398" lon="86.823642">
        <ele>5156.4</ele>
        <time>2022-10-27T07:24:03.000Z</time>
      </trkpt>
      <trkpt lat="27.971382" lon="86.823622">
        <ele>5155.8</ele>
        <time>2022-10-27T07:24:06.000Z</time>
      </trkpt>
      <trkpt lat="27.971363" lon="86.823616">
        <ele>5155.8</ele>
        <time>2022-10-27T07:24:09.000Z</time>
      </trkpt>
      <trkpt lat="27.971357" lon="86.82359">
        <ele>5156.2</ele>
        <time>2022-10-27T07:24:11.000Z</time>
      </trkpt>
      <trkpt lat="27.97135" lon="86.823571">
        <ele>5155.6</ele>
        <time>2022-10-27T07:24:15.000Z</time>
      </trkpt>
      <trkpt lat="27.971347" lon="86.823546">
        <ele>5155.6</ele>
        <time>2022-10-27T07:24:17.000Z</time>
      </trkpt>
      <trkpt lat="27.971331" lon="86.823526">
        <ele>5155.2</ele>
        <time>2022-10-27T07:24:20.000Z</time>
      </trkpt>
      <trkpt lat="27.971318" lon="86.823501">
        <ele>5155.2</ele>
        <time>2022-10-27T07:24:23.000Z</time>
      </trkpt>
      <trkpt lat="27.971302" lon="86.823488">
        <ele>5155.8</ele>
        <time>2022-10-27T07:24:27.000Z</time>
      </trkpt>
      <trkpt lat="27.971293" lon="86.823469">
        <ele>5156.4</ele>
        <time>2022-10-27T07:24:29.000Z</time>
      </trkpt>
      <trkpt lat="27.97128" lon="86.82345">
        <ele>5157</ele>
        <time>2022-10-27T07:24:32.000Z</time>
      </trkpt>
      <trkpt lat="27.971277" lon="86.823424">
        <ele>5156.6</ele>
        <time>2022-10-27T07:24:35.000Z</time>
      </trkpt>
      <trkpt lat="27.971267" lon="86.823392">
        <ele>5157</ele>
        <time>2022-10-27T07:24:39.000Z</time>
      </trkpt>
      <trkpt lat="27.971251" lon="86.823379">
        <ele>5157.4</ele>
        <time>2022-10-27T07:24:42.000Z</time>
      </trkpt>
      <trkpt lat="27.971242" lon="86.823354">
        <ele>5157.4</ele>
        <time>2022-10-27T07:24:45.000Z</time>
      </trkpt>
      <trkpt lat="27.971232" lon="86.823334">
        <ele>5157</ele>
        <time>2022-10-27T07:24:49.000Z</time>
      </trkpt>
      <trkpt lat="27.97121" lon="86.823322">
        <ele>5156.6</ele>
        <time>2022-10-27T07:24:53.000Z</time>
      </trkpt>
      <trkpt lat="27.971194" lon="86.823309">
        <ele>5156.6</ele>
        <time>2022-10-27T07:24:55.000Z</time>
      </trkpt>
      <trkpt lat="27.971174" lon="86.823309">
        <ele>5155.2</ele>
        <time>2022-10-27T07:24:57.000Z</time>
      </trkpt>
      <trkpt lat="27.97113" lon="86.823296">
        <ele>5154.6</ele>
        <time>2022-10-27T07:25:02.000Z</time>
      </trkpt>
      <trkpt lat="27.97111" lon="86.823296">
        <ele>5154.4</ele>
        <time>2022-10-27T07:25:04.000Z</time>
      </trkpt>
      <trkpt lat="27.971091" lon="86.823296">
        <ele>5154.6</ele>
        <time>2022-10-27T07:25:10.000Z</time>
      </trkpt>
      <trkpt lat="27.971072" lon="86.823296">
        <ele>5154.4</ele>
        <time>2022-10-27T07:25:12.000Z</time>
      </trkpt>
      <trkpt lat="27.971053" lon="86.823302">
        <ele>5154.6</ele>
        <time>2022-10-27T07:25:14.000Z</time>
      </trkpt>
      <trkpt lat="27.971034" lon="86.823302">
        <ele>5154.6</ele>
        <time>2022-10-27T07:25:16.000Z</time>
      </trkpt>
      <trkpt lat="27.971021" lon="86.823322">
        <ele>5154.6</ele>
        <time>2022-10-27T07:25:18.000Z</time>
      </trkpt>
      <trkpt lat="27.971005" lon="86.823334">
        <ele>5155.2</ele>
        <time>2022-10-27T07:25:20.000Z</time>
      </trkpt>
      <trkpt lat="27.970979" lon="86.823334">
        <ele>5154.2</ele>
        <time>2022-10-27T07:25:23.000Z</time>
      </trkpt>
      <trkpt lat="27.97096" lon="86.823334">
        <ele>5154</ele>
        <time>2022-10-27T07:25:25.000Z</time>
      </trkpt>
      <trkpt lat="27.970934" lon="86.823341">
        <ele>5154.6</ele>
        <time>2022-10-27T07:25:28.000Z</time>
      </trkpt>
      <trkpt lat="27.970915" lon="86.823341">
        <ele>5153.4</ele>
        <time>2022-10-27T07:25:30.000Z</time>
      </trkpt>
      <trkpt lat="27.970896" lon="86.823334">
        <ele>5152.8</ele>
        <time>2022-10-27T07:25:33.000Z</time>
      </trkpt>
      <trkpt lat="27.97087" lon="86.823322">
        <ele>5152.4</ele>
        <time>2022-10-27T07:25:36.000Z</time>
      </trkpt>
      <trkpt lat="27.970848" lon="86.823322">
        <ele>5152</ele>
        <time>2022-10-27T07:25:38.000Z</time>
      </trkpt>
      <trkpt lat="27.970822" lon="86.823322">
        <ele>5151.6</ele>
        <time>2022-10-27T07:25:41.000Z</time>
      </trkpt>
      <trkpt lat="27.970803" lon="86.823322">
        <ele>5151.6</ele>
        <time>2022-10-27T07:25:43.000Z</time>
      </trkpt>
      <trkpt lat="27.970774" lon="86.823322">
        <ele>5151.8</ele>
        <time>2022-10-27T07:25:46.000Z</time>
      </trkpt>
      <trkpt lat="27.970755" lon="86.823322">
        <ele>5151.6</ele>
        <time>2022-10-27T07:25:48.000Z</time>
      </trkpt>
      <trkpt lat="27.970736" lon="86.823322">
        <ele>5151.2</ele>
        <time>2022-10-27T07:25:50.000Z</time>
      </trkpt>
      <trkpt lat="27.970717" lon="86.823328">
        <ele>5151.2</ele>
        <time>2022-10-27T07:25:52.000Z</time>
      </trkpt>
      <trkpt lat="27.970694" lon="86.823334">
        <ele>5151.2</ele>
        <time>2022-10-27T07:25:55.000Z</time>
      </trkpt>
      <trkpt lat="27.970672" lon="86.823322">
        <ele>5150.6</ele>
        <time>2022-10-27T07:25:58.000Z</time>
      </trkpt>
      <trkpt lat="27.970656" lon="86.823309">
        <ele>5150.4</ele>
        <time>2022-10-27T07:26:00.000Z</time>
      </trkpt>
      <trkpt lat="27.970634" lon="86.823302">
        <ele>5149.2</ele>
        <time>2022-10-27T07:26:02.000Z</time>
      </trkpt>
      <trkpt lat="27.970614" lon="86.823302">
        <ele>5148.6</ele>
        <time>2022-10-27T07:26:04.000Z</time>
      </trkpt>
      <trkpt lat="27.970595" lon="86.82329">
        <ele>5148.4</ele>
        <time>2022-10-27T07:26:06.000Z</time>
      </trkpt>
      <trkpt lat="27.97057" lon="86.823283">
        <ele>5148</ele>
        <time>2022-10-27T07:26:09.000Z</time>
      </trkpt>
      <trkpt lat="27.970554" lon="86.823264">
        <ele>5148</ele>
        <time>2022-10-27T07:26:11.000Z</time>
      </trkpt>
      <trkpt lat="27.970534" lon="86.823264">
        <ele>5147.4</ele>
        <time>2022-10-27T07:26:13.000Z</time>
      </trkpt>
      <trkpt lat="27.970512" lon="86.823264">
        <ele>5147.4</ele>
        <time>2022-10-27T07:26:15.000Z</time>
      </trkpt>
      <trkpt lat="27.970486" lon="86.823264">
        <ele>5147.8</ele>
        <time>2022-10-27T07:26:18.000Z</time>
      </trkpt>
      <trkpt lat="27.970467" lon="86.823264">
        <ele>5148.4</ele>
        <time>2022-10-27T07:26:20.000Z</time>
      </trkpt>
      <trkpt lat="27.970438" lon="86.823264">
        <ele>5148</ele>
        <time>2022-10-27T07:26:23.000Z</time>
      </trkpt>
      <trkpt lat="27.970413" lon="86.82327">
        <ele>5148</ele>
        <time>2022-10-27T07:26:26.000Z</time>
      </trkpt>
      <trkpt lat="27.970394" lon="86.823283">
        <ele>5148</ele>
        <time>2022-10-27T07:26:28.000Z</time>
      </trkpt>
      <trkpt lat="27.970368" lon="86.823283">
        <ele>5147.8</ele>
        <time>2022-10-27T07:26:31.000Z</time>
      </trkpt>
      <trkpt lat="27.970349" lon="86.823264">
        <ele>5148</ele>
        <time>2022-10-27T07:26:37.000Z</time>
      </trkpt>
      <trkpt lat="27.97033" lon="86.823258">
        <ele>5147.8</ele>
        <time>2022-10-27T07:26:40.000Z</time>
      </trkpt>
      <trkpt lat="27.970314" lon="86.823245">
        <ele>5146.6</ele>
        <time>2022-10-27T07:26:45.000Z</time>
      </trkpt>
      <trkpt lat="27.970294" lon="86.823232">
        <ele>5146.2</ele>
        <time>2022-10-27T07:26:48.000Z</time>
      </trkpt>
      <trkpt lat="27.970275" lon="86.823232">
        <ele>5145.4</ele>
        <time>2022-10-27T07:26:51.000Z</time>
      </trkpt>
      <trkpt lat="27.970259" lon="86.823251">
        <ele>5145.4</ele>
        <time>2022-10-27T07:26:53.000Z</time>
      </trkpt>
      <trkpt lat="27.970237" lon="86.823245">
        <ele>5146</ele>
        <time>2022-10-27T07:26:56.000Z</time>
      </trkpt>
      <trkpt lat="27.970224" lon="86.823226">
        <ele>5145.6</ele>
        <time>2022-10-27T07:26:59.000Z</time>
      </trkpt>
      <trkpt lat="27.970211" lon="86.823206">
        <ele>5144.8</ele>
        <time>2022-10-27T07:27:02.000Z</time>
      </trkpt>
      <trkpt lat="27.970202" lon="86.823187">
        <ele>5144.2</ele>
        <time>2022-10-27T07:27:04.000Z</time>
      </trkpt>
      <trkpt lat="27.970179" lon="86.823168">
        <ele>5144.2</ele>
        <time>2022-10-27T07:27:07.000Z</time>
      </trkpt>
      <trkpt lat="27.970173" lon="86.823149">
        <ele>5143.6</ele>
        <time>2022-10-27T07:27:09.000Z</time>
      </trkpt>
      <trkpt lat="27.970144" lon="86.823149">
        <ele>5143.4</ele>
        <time>2022-10-27T07:27:56.000Z</time>
      </trkpt>
      <trkpt lat="27.970118" lon="86.823149">
        <ele>5143.4</ele>
        <time>2022-10-27T07:27:58.000Z</time>
      </trkpt>
      <trkpt lat="27.97009" lon="86.823142">
        <ele>5143.4</ele>
        <time>2022-10-27T07:28:00.000Z</time>
      </trkpt>
      <trkpt lat="27.970061" lon="86.823142">
        <ele>5143.6</ele>
        <time>2022-10-27T07:28:02.000Z</time>
      </trkpt>
      <trkpt lat="27.970038" lon="86.823123">
        <ele>5143.4</ele>
        <time>2022-10-27T07:28:04.000Z</time>
      </trkpt>
      <trkpt lat="27.970032" lon="86.823098">
        <ele>5143.4</ele>
        <time>2022-10-27T07:28:06.000Z</time>
      </trkpt>
      <trkpt lat="27.970019" lon="86.823066">
        <ele>5142.6</ele>
        <time>2022-10-27T07:28:09.000Z</time>
      </trkpt>
      <trkpt lat="27.97" lon="86.823046">
        <ele>5142.2</ele>
        <time>2022-10-27T07:28:11.000Z</time>
      </trkpt>
      <trkpt lat="27.969987" lon="86.823027">
        <ele>5141.6</ele>
        <time>2022-10-27T07:28:13.000Z</time>
      </trkpt>
      <trkpt lat="27.969968" lon="86.823008">
        <ele>5141.6</ele>
        <time>2022-10-27T07:28:15.000Z</time>
      </trkpt>
      <trkpt lat="27.969946" lon="86.822995">
        <ele>5140.8</ele>
        <time>2022-10-27T07:28:18.000Z</time>
      </trkpt>
      <trkpt lat="27.96992" lon="86.822995">
        <ele>5140.4</ele>
        <time>2022-10-27T07:28:21.000Z</time>
      </trkpt>
      <trkpt lat="27.969894" lon="86.822989">
        <ele>5140.2</ele>
        <time>2022-10-27T07:28:24.000Z</time>
      </trkpt>
      <trkpt lat="27.969869" lon="86.822982">
        <ele>5138.8</ele>
        <time>2022-10-27T07:28:27.000Z</time>
      </trkpt>
      <trkpt lat="27.96985" lon="86.82297">
        <ele>5138</ele>
        <time>2022-10-27T07:28:29.000Z</time>
      </trkpt>
      <trkpt lat="27.969827" lon="86.822957">
        <ele>5137.4</ele>
        <time>2022-10-27T07:28:31.000Z</time>
      </trkpt>
      <trkpt lat="27.969798" lon="86.82295">
        <ele>5136.6</ele>
        <time>2022-10-27T07:28:33.000Z</time>
      </trkpt>
      <trkpt lat="27.969776" lon="86.822944">
        <ele>5136</ele>
        <time>2022-10-27T07:28:35.000Z</time>
      </trkpt>
      <trkpt lat="27.96975" lon="86.822944">
        <ele>5135.2</ele>
        <time>2022-10-27T07:28:37.000Z</time>
      </trkpt>
      <trkpt lat="27.969722" lon="86.822938">
        <ele>5135</ele>
        <time>2022-10-27T07:28:39.000Z</time>
      </trkpt>
      <trkpt lat="27.969696" lon="86.822938">
        <ele>5135</ele>
        <time>2022-10-27T07:28:41.000Z</time>
      </trkpt>
      <trkpt lat="27.969674" lon="86.822938">
        <ele>5135</ele>
        <time>2022-10-27T07:28:43.000Z</time>
      </trkpt>
      <trkpt lat="27.969654" lon="86.822938">
        <ele>5135</ele>
        <time>2022-10-27T07:28:44.000Z</time>
      </trkpt>
      <trkpt lat="27.969635" lon="86.822931">
        <ele>5135</ele>
        <time>2022-10-27T07:28:46.000Z</time>
      </trkpt>
      <trkpt lat="27.969613" lon="86.822925">
        <ele>5134.4</ele>
        <time>2022-10-27T07:28:48.000Z</time>
      </trkpt>
      <trkpt lat="27.969603" lon="86.822906">
        <ele>5134.4</ele>
        <time>2022-10-27T07:28:49.000Z</time>
      </trkpt>
      <trkpt lat="27.969584" lon="86.822893">
        <ele>5135</ele>
        <time>2022-10-27T07:28:51.000Z</time>
      </trkpt>
      <trkpt lat="27.969565" lon="86.822867">
        <ele>5135</ele>
        <time>2022-10-27T07:28:53.000Z</time>
      </trkpt>
      <trkpt lat="27.969546" lon="86.822854">
        <ele>5134.4</ele>
        <time>2022-10-27T07:28:55.000Z</time>
      </trkpt>
      <trkpt lat="27.969523" lon="86.822848">
        <ele>5133.8</ele>
        <time>2022-10-27T07:28:57.000Z</time>
      </trkpt>
      <trkpt lat="27.969501" lon="86.822829">
        <ele>5133.6</ele>
        <time>2022-10-27T07:28:59.000Z</time>
      </trkpt>
      <trkpt lat="27.969482" lon="86.82281">
        <ele>5133.2</ele>
        <time>2022-10-27T07:29:01.000Z</time>
      </trkpt>
      <trkpt lat="27.969472" lon="86.822784">
        <ele>5133.2</ele>
        <time>2022-10-27T07:29:03.000Z</time>
      </trkpt>
      <trkpt lat="27.96945" lon="86.822771">
        <ele>5132.6</ele>
        <time>2022-10-27T07:29:05.000Z</time>
      </trkpt>
      <trkpt lat="27.969443" lon="86.822752">
        <ele>5132.6</ele>
        <time>2022-10-27T07:29:06.000Z</time>
      </trkpt>
      <trkpt lat="27.96943" lon="86.822733">
        <ele>5132.4</ele>
        <time>2022-10-27T07:29:08.000Z</time>
      </trkpt>
      <trkpt lat="27.969421" lon="86.822714">
        <ele>5132.2</ele>
        <time>2022-10-27T07:29:09.000Z</time>
      </trkpt>
      <trkpt lat="27.969411" lon="86.822694">
        <ele>5132</ele>
        <time>2022-10-27T07:29:11.000Z</time>
      </trkpt>
      <trkpt lat="27.969398" lon="86.822662">
        <ele>5131.6</ele>
        <time>2022-10-27T07:29:13.000Z</time>
      </trkpt>
      <trkpt lat="27.969376" lon="86.82265">
        <ele>5131.2</ele>
        <time>2022-10-27T07:29:15.000Z</time>
      </trkpt>
      <trkpt lat="27.96936" lon="86.82263">
        <ele>5131.2</ele>
        <time>2022-10-27T07:29:17.000Z</time>
      </trkpt>
      <trkpt lat="27.969338" lon="86.822618">
        <ele>5131.2</ele>
        <time>2022-10-27T07:29:19.000Z</time>
      </trkpt>
      <trkpt lat="27.969318" lon="86.822598">
        <ele>5131.2</ele>
        <time>2022-10-27T07:29:21.000Z</time>
      </trkpt>
      <trkpt lat="27.969299" lon="86.822586">
        <ele>5131.4</ele>
        <time>2022-10-27T07:29:23.000Z</time>
      </trkpt>
      <trkpt lat="27.969283" lon="86.82256">
        <ele>5131.8</ele>
        <time>2022-10-27T07:29:25.000Z</time>
      </trkpt>
      <trkpt lat="27.969264" lon="86.822554">
        <ele>5131.2</ele>
        <time>2022-10-27T07:29:27.000Z</time>
      </trkpt>
      <trkpt lat="27.969258" lon="86.822534">
        <ele>5131.4</ele>
        <time>2022-10-27T07:29:29.000Z</time>
      </trkpt>
      <trkpt lat="27.969251" lon="86.822509">
        <ele>5131.4</ele>
        <time>2022-10-27T07:29:31.000Z</time>
      </trkpt>
      <trkpt lat="27.969245" lon="86.82249">
        <ele>5130.8</ele>
        <time>2022-10-27T07:29:34.000Z</time>
      </trkpt>
      <trkpt lat="27.969226" lon="86.822477">
        <ele>5131.6</ele>
        <time>2022-10-27T07:29:44.000Z</time>
      </trkpt>
      <trkpt lat="27.969206" lon="86.822477">
        <ele>5131.6</ele>
        <time>2022-10-27T07:29:46.000Z</time>
      </trkpt>
      <trkpt lat="27.969178" lon="86.822464">
        <ele>5130.8</ele>
        <time>2022-10-27T07:29:49.000Z</time>
      </trkpt>
      <trkpt lat="27.969155" lon="86.822464">
        <ele>5131.2</ele>
        <time>2022-10-27T07:29:51.000Z</time>
      </trkpt>
      <trkpt lat="27.969133" lon="86.822451">
        <ele>5130.8</ele>
        <time>2022-10-27T07:29:54.000Z</time>
      </trkpt>
      <trkpt lat="27.969114" lon="86.822432">
        <ele>5130.8</ele>
        <time>2022-10-27T07:29:56.000Z</time>
      </trkpt>
      <trkpt lat="27.969098" lon="86.822413">
        <ele>5130.8</ele>
        <time>2022-10-27T07:29:58.000Z</time>
      </trkpt>
      <trkpt lat="27.969085" lon="86.822387">
        <ele>5131.4</ele>
        <time>2022-10-27T07:30:00.000Z</time>
      </trkpt>
      <trkpt lat="27.969066" lon="86.822374">
        <ele>5131</ele>
        <time>2022-10-27T07:30:02.000Z</time>
      </trkpt>
      <trkpt lat="27.969059" lon="86.822355">
        <ele>5131</ele>
        <time>2022-10-27T07:30:03.000Z</time>
      </trkpt>
      <trkpt lat="27.969043" lon="86.822342">
        <ele>5130.8</ele>
        <time>2022-10-27T07:30:05.000Z</time>
      </trkpt>
      <trkpt lat="27.969024" lon="86.82233">
        <ele>5131</ele>
        <time>2022-10-27T07:30:07.000Z</time>
      </trkpt>
      <trkpt lat="27.969014" lon="86.82231">
        <ele>5131</ele>
        <time>2022-10-27T07:30:09.000Z</time>
      </trkpt>
      <trkpt lat="27.968992" lon="86.822298">
        <ele>5131</ele>
        <time>2022-10-27T07:30:11.000Z</time>
      </trkpt>
      <trkpt lat="27.968973" lon="86.822278">
        <ele>5131</ele>
        <time>2022-10-27T07:30:14.000Z</time>
      </trkpt>
      <trkpt lat="27.968954" lon="86.822266">
        <ele>5130.6</ele>
        <time>2022-10-27T07:30:16.000Z</time>
      </trkpt>
      <trkpt lat="27.968934" lon="86.822259">
        <ele>5131</ele>
        <time>2022-10-27T07:30:19.000Z</time>
      </trkpt>
      <trkpt lat="27.968918" lon="86.822272">
        <ele>5130.4</ele>
        <time>2022-10-27T07:30:21.000Z</time>
      </trkpt>
      <trkpt lat="27.968902" lon="86.822291">
        <ele>5130</ele>
        <time>2022-10-27T07:30:24.000Z</time>
      </trkpt>
      <trkpt lat="27.968877" lon="86.822304">
        <ele>5130</ele>
        <time>2022-10-27T07:30:28.000Z</time>
      </trkpt>
      <trkpt lat="27.968854" lon="86.822304">
        <ele>5129.2</ele>
        <time>2022-10-27T07:30:31.000Z</time>
      </trkpt>
      <trkpt lat="27.968835" lon="86.822298">
        <ele>5128.8</ele>
        <time>2022-10-27T07:30:34.000Z</time>
      </trkpt>
      <trkpt lat="27.968816" lon="86.822278">
        <ele>5128.2</ele>
        <time>2022-10-27T07:30:37.000Z</time>
      </trkpt>
      <trkpt lat="27.96881" lon="86.822259">
        <ele>5128</ele>
        <time>2022-10-27T07:30:41.000Z</time>
      </trkpt>
      <trkpt lat="27.968806" lon="86.822234">
        <ele>5128</ele>
        <time>2022-10-27T07:30:45.000Z</time>
      </trkpt>
      <trkpt lat="27.968797" lon="86.822214">
        <ele>5127.6</ele>
        <time>2022-10-27T07:30:48.000Z</time>
      </trkpt>
      <trkpt lat="27.968784" lon="86.822195">
        <ele>5127.6</ele>
        <time>2022-10-27T07:30:51.000Z</time>
      </trkpt>
      <trkpt lat="27.968774" lon="86.822176">
        <ele>5127.6</ele>
        <time>2022-10-27T07:30:53.000Z</time>
      </trkpt>
      <trkpt lat="27.968768" lon="86.822157">
        <ele>5127.6</ele>
        <time>2022-10-27T07:30:55.000Z</time>
      </trkpt>
      <trkpt lat="27.968752" lon="86.822144">
        <ele>5127</ele>
        <time>2022-10-27T07:30:57.000Z</time>
      </trkpt>
      <trkpt lat="27.968739" lon="86.822118">
        <ele>5127.2</ele>
        <time>2022-10-27T07:30:59.000Z</time>
      </trkpt>
      <trkpt lat="27.96872" lon="86.822106">
        <ele>5127.2</ele>
        <time>2022-10-27T07:31:01.000Z</time>
      </trkpt>
      <trkpt lat="27.968704" lon="86.822093">
        <ele>5127</ele>
        <time>2022-10-27T07:31:03.000Z</time>
      </trkpt>
      <trkpt lat="27.968685" lon="86.82208">
        <ele>5126.6</ele>
        <time>2022-10-27T07:31:05.000Z</time>
      </trkpt>
      <trkpt lat="27.968662" lon="86.822067">
        <ele>5126</ele>
        <time>2022-10-27T07:31:07.000Z</time>
      </trkpt>
      <trkpt lat="27.96864" lon="86.822067">
        <ele>5126</ele>
        <time>2022-10-27T07:31:09.000Z</time>
      </trkpt>
      <trkpt lat="27.968611" lon="86.822074">
        <ele>5125.4</ele>
        <time>2022-10-27T07:31:12.000Z</time>
      </trkpt>
      <trkpt lat="27.968589" lon="86.822067">
        <ele>5125.4</ele>
        <time>2022-10-27T07:31:15.000Z</time>
      </trkpt>
      <trkpt lat="27.96857" lon="86.822054">
        <ele>5126</ele>
        <time>2022-10-27T07:31:19.000Z</time>
      </trkpt>
      <trkpt lat="27.96856" lon="86.822035">
        <ele>5125.4</ele>
        <time>2022-10-27T07:31:21.000Z</time>
      </trkpt>
      <trkpt lat="27.968547" lon="86.822016">
        <ele>5126.2</ele>
        <time>2022-10-27T07:31:31.000Z</time>
      </trkpt>
      <trkpt lat="27.968541" lon="86.821997">
        <ele>5124.2</ele>
        <time>2022-10-27T07:31:34.000Z</time>
      </trkpt>
      <trkpt lat="27.968531" lon="86.821958">
        <ele>5121.2</ele>
        <time>2022-10-27T07:32:05.000Z</time>
      </trkpt>
      <trkpt lat="27.968522" lon="86.821939">
        <ele>5121.2</ele>
        <time>2022-10-27T07:32:07.000Z</time>
      </trkpt>
      <trkpt lat="27.968518" lon="86.821914">
        <ele>5120.6</ele>
        <time>2022-10-27T07:32:08.000Z</time>
      </trkpt>
      <trkpt lat="27.968515" lon="86.821875">
        <ele>5120.8</ele>
        <time>2022-10-27T07:32:11.000Z</time>
      </trkpt>
      <trkpt lat="27.968509" lon="86.821856">
        <ele>5119.2</ele>
        <time>2022-10-27T07:32:14.000Z</time>
      </trkpt>
      <trkpt lat="27.968502" lon="86.82183">
        <ele>5118.6</ele>
        <time>2022-10-27T07:32:16.000Z</time>
      </trkpt>
      <trkpt lat="27.968502" lon="86.821805">
        <ele>5118.4</ele>
        <time>2022-10-27T07:32:18.000Z</time>
      </trkpt>
      <trkpt lat="27.968496" lon="86.821786">
        <ele>5118.6</ele>
        <time>2022-10-27T07:32:22.000Z</time>
      </trkpt>
      <trkpt lat="27.96848" lon="86.821773">
        <ele>5117.4</ele>
        <time>2022-10-27T07:32:26.000Z</time>
      </trkpt>
      <trkpt lat="27.968467" lon="86.821754">
        <ele>5117.4</ele>
        <time>2022-10-27T07:32:29.000Z</time>
      </trkpt>
      <trkpt lat="27.968448" lon="86.821747">
        <ele>5116</ele>
        <time>2022-10-27T07:32:33.000Z</time>
      </trkpt>
      <trkpt lat="27.968426" lon="86.821741">
        <ele>5115.2</ele>
        <time>2022-10-27T07:32:37.000Z</time>
      </trkpt>
      <trkpt lat="27.9684" lon="86.821722">
        <ele>5114</ele>
        <time>2022-10-27T07:32:40.000Z</time>
      </trkpt>
      <trkpt lat="27.968381" lon="86.821709">
        <ele>5112.6</ele>
        <time>2022-10-27T07:32:44.000Z</time>
      </trkpt>
      <trkpt lat="27.968362" lon="86.821696">
        <ele>5111.8</ele>
        <time>2022-10-27T07:32:50.000Z</time>
      </trkpt>
      <trkpt lat="27.968339" lon="86.821709">
        <ele>5110.4</ele>
        <time>2022-10-27T07:32:54.000Z</time>
      </trkpt>
      <trkpt lat="27.96832" lon="86.821683">
        <ele>5110.2</ele>
        <time>2022-10-27T07:32:57.000Z</time>
      </trkpt>
      <trkpt lat="27.968304" lon="86.82167">
        <ele>5109.2</ele>
        <time>2022-10-27T07:33:01.000Z</time>
      </trkpt>
      <trkpt lat="27.968285" lon="86.821677">
        <ele>5107.8</ele>
        <time>2022-10-27T07:33:06.000Z</time>
      </trkpt>
      <trkpt lat="27.968269" lon="86.821696">
        <ele>5102.4</ele>
        <time>2022-10-27T07:33:45.000Z</time>
      </trkpt>
      <trkpt lat="27.968256" lon="86.821715">
        <ele>5102</ele>
        <time>2022-10-27T07:33:47.000Z</time>
      </trkpt>
      <trkpt lat="27.96825" lon="86.821734">
        <ele>5101.2</ele>
        <time>2022-10-27T07:33:48.000Z</time>
      </trkpt>
      <trkpt lat="27.968234" lon="86.821747">
        <ele>5101.2</ele>
        <time>2022-10-27T07:33:50.000Z</time>
      </trkpt>
      <trkpt lat="27.968221" lon="86.821773">
        <ele>5100.6</ele>
        <time>2022-10-27T07:33:52.000Z</time>
      </trkpt>
      <trkpt lat="27.968205" lon="86.821786">
        <ele>5100.2</ele>
        <time>2022-10-27T07:33:54.000Z</time>
      </trkpt>
      <trkpt lat="27.968179" lon="86.821779">
        <ele>5098.4</ele>
        <time>2022-10-27T07:33:58.000Z</time>
      </trkpt>
      <trkpt lat="27.968163" lon="86.82176">
        <ele>5098.2</ele>
        <time>2022-10-27T07:34:01.000Z</time>
      </trkpt>
      <trkpt lat="27.96815" lon="86.821741">
        <ele>5097.6</ele>
        <time>2022-10-27T07:34:04.000Z</time>
      </trkpt>
      <trkpt lat="27.968131" lon="86.821734">
        <ele>5096.4</ele>
        <time>2022-10-27T07:34:09.000Z</time>
      </trkpt>
      <trkpt lat="27.968109" lon="86.821734">
        <ele>5095.6</ele>
        <time>2022-10-27T07:34:13.000Z</time>
      </trkpt>
      <trkpt lat="27.96809" lon="86.821722">
        <ele>5094.8</ele>
        <time>2022-10-27T07:34:19.000Z</time>
      </trkpt>
      <trkpt lat="27.968061" lon="86.821734">
        <ele>5089.6</ele>
        <time>2022-10-27T07:34:58.000Z</time>
      </trkpt>
      <trkpt lat="27.968035" lon="86.821747">
        <ele>5089.6</ele>
        <time>2022-10-27T07:35:00.000Z</time>
      </trkpt>
      <trkpt lat="27.968006" lon="86.821754">
        <ele>5088.6</ele>
        <time>2022-10-27T07:35:02.000Z</time>
      </trkpt>
      <trkpt lat="27.967978" lon="86.82176">
        <ele>5088</ele>
        <time>2022-10-27T07:35:04.000Z</time>
      </trkpt>
      <trkpt lat="27.967955" lon="86.82176">
        <ele>5087.6</ele>
        <time>2022-10-27T07:35:06.000Z</time>
      </trkpt>
      <trkpt lat="27.967936" lon="86.821747">
        <ele>5087.2</ele>
        <time>2022-10-27T07:35:08.000Z</time>
      </trkpt>
      <trkpt lat="27.967923" lon="86.821715">
        <ele>5087</ele>
        <time>2022-10-27T07:35:12.000Z</time>
      </trkpt>
      <trkpt lat="27.967914" lon="86.821696">
        <ele>5086.4</ele>
        <time>2022-10-27T07:35:15.000Z</time>
      </trkpt>
      <trkpt lat="27.967898" lon="86.821677">
        <ele>5085.4</ele>
        <time>2022-10-27T07:35:18.000Z</time>
      </trkpt>
      <trkpt lat="27.967875" lon="86.821658">
        <ele>5084</ele>
        <time>2022-10-27T07:35:21.000Z</time>
      </trkpt>
      <trkpt lat="27.967866" lon="86.821638">
        <ele>5083.8</ele>
        <time>2022-10-27T07:35:24.000Z</time>
      </trkpt>
      <trkpt lat="27.967846" lon="86.821638">
        <ele>5083.4</ele>
        <time>2022-10-27T07:35:27.000Z</time>
      </trkpt>
      <trkpt lat="27.967824" lon="86.821658">
        <ele>5082</ele>
        <time>2022-10-27T07:35:31.000Z</time>
      </trkpt>
      <trkpt lat="27.967805" lon="86.821664">
        <ele>5081.2</ele>
        <time>2022-10-27T07:35:34.000Z</time>
      </trkpt>
      <trkpt lat="27.967786" lon="86.821677">
        <ele>5080.6</ele>
        <time>2022-10-27T07:35:37.000Z</time>
      </trkpt>
      <trkpt lat="27.967779" lon="86.821696">
        <ele>5080.4</ele>
        <time>2022-10-27T07:35:39.000Z</time>
      </trkpt>
      <trkpt lat="27.967766" lon="86.821715">
        <ele>5081</ele>
        <time>2022-10-27T07:35:51.000Z</time>
      </trkpt>
      <trkpt lat="27.967747" lon="86.821734">
        <ele>5080.8</ele>
        <time>2022-10-27T07:35:54.000Z</time>
      </trkpt>
      <trkpt lat="27.967731" lon="86.821722">
        <ele>5080.2</ele>
        <time>2022-10-27T07:35:56.000Z</time>
      </trkpt>
      <trkpt lat="27.967712" lon="86.821709">
        <ele>5079.4</ele>
        <time>2022-10-27T07:35:59.000Z</time>
      </trkpt>
      <trkpt lat="27.96769" lon="86.821702">
        <ele>5079</ele>
        <time>2022-10-27T07:36:03.000Z</time>
      </trkpt>
      <trkpt lat="27.96767" lon="86.821696">
        <ele>5078.2</ele>
        <time>2022-10-27T07:36:07.000Z</time>
      </trkpt>
      <trkpt lat="27.967654" lon="86.821683">
        <ele>5077.8</ele>
        <time>2022-10-27T07:36:09.000Z</time>
      </trkpt>
      <trkpt lat="27.967635" lon="86.821664">
        <ele>5076.4</ele>
        <time>2022-10-27T07:36:13.000Z</time>
      </trkpt>
      <trkpt lat="27.967626" lon="86.821638">
        <ele>5076.2</ele>
        <time>2022-10-27T07:36:16.000Z</time>
      </trkpt>
      <trkpt lat="27.967606" lon="86.821638">
        <ele>5075.8</ele>
        <time>2022-10-27T07:36:18.000Z</time>
      </trkpt>
      <trkpt lat="27.967584" lon="86.821638">
        <ele>5075.2</ele>
        <time>2022-10-27T07:36:20.000Z</time>
      </trkpt>
      <trkpt lat="27.967562" lon="86.821638">
        <ele>5075</ele>
        <time>2022-10-27T07:36:23.000Z</time>
      </trkpt>
      <trkpt lat="27.967539" lon="86.821645">
        <ele>5075.2</ele>
        <time>2022-10-27T07:36:26.000Z</time>
      </trkpt>
      <trkpt lat="27.967517" lon="86.821664">
        <ele>5075.2</ele>
        <time>2022-10-27T07:36:29.000Z</time>
      </trkpt>
      <trkpt lat="27.967498" lon="86.821664">
        <ele>5074.6</ele>
        <time>2022-10-27T07:36:32.000Z</time>
      </trkpt>
      <trkpt lat="27.967475" lon="86.821664">
        <ele>5073.8</ele>
        <time>2022-10-27T07:36:35.000Z</time>
      </trkpt>
      <trkpt lat="27.967453" lon="86.821658">
        <ele>5073.6</ele>
        <time>2022-10-27T07:36:48.000Z</time>
      </trkpt>
      <trkpt lat="27.967437" lon="86.821645">
        <ele>5073.2</ele>
        <time>2022-10-27T07:36:51.000Z</time>
      </trkpt>
      <trkpt lat="27.967411" lon="86.821645">
        <ele>5072.6</ele>
        <time>2022-10-27T07:36:54.000Z</time>
      </trkpt>
      <trkpt lat="27.967395" lon="86.821632">
        <ele>5072.2</ele>
        <time>2022-10-27T07:36:56.000Z</time>
      </trkpt>
      <trkpt lat="27.96737" lon="86.821626">
        <ele>5072.6</ele>
        <time>2022-10-27T07:36:59.000Z</time>
      </trkpt>
      <trkpt lat="27.967344" lon="86.821632">
        <ele>5072.2</ele>
        <time>2022-10-27T07:37:02.000Z</time>
      </trkpt>
      <trkpt lat="27.967318" lon="86.821626">
        <ele>5071.4</ele>
        <time>2022-10-27T07:37:05.000Z</time>
      </trkpt>
      <trkpt lat="27.967306" lon="86.821606">
        <ele>5071</ele>
        <time>2022-10-27T07:37:07.000Z</time>
      </trkpt>
      <trkpt lat="27.96728" lon="86.8216">
        <ele>5070.4</ele>
        <time>2022-10-27T07:37:11.000Z</time>
      </trkpt>
      <trkpt lat="27.967258" lon="86.821587">
        <ele>5069.8</ele>
        <time>2022-10-27T07:37:15.000Z</time>
      </trkpt>
      <trkpt lat="27.967238" lon="86.821594">
        <ele>5069.6</ele>
        <time>2022-10-27T07:37:18.000Z</time>
      </trkpt>
      <trkpt lat="27.967216" lon="86.821594">
        <ele>5069.2</ele>
        <time>2022-10-27T07:37:20.000Z</time>
      </trkpt>
      <trkpt lat="27.967197" lon="86.821587">
        <ele>5069</ele>
        <time>2022-10-27T07:37:22.000Z</time>
      </trkpt>
      <trkpt lat="27.967181" lon="86.821574">
        <ele>5069</ele>
        <time>2022-10-27T07:37:25.000Z</time>
      </trkpt>
      <trkpt lat="27.967162" lon="86.821555">
        <ele>5068.6</ele>
        <time>2022-10-27T07:37:34.000Z</time>
      </trkpt>
      <trkpt lat="27.967142" lon="86.821555">
        <ele>5068.6</ele>
        <time>2022-10-27T07:37:36.000Z</time>
      </trkpt>
      <trkpt lat="27.967123" lon="86.821542">
        <ele>5068.8</ele>
        <time>2022-10-27T07:37:38.000Z</time>
      </trkpt>
      <trkpt lat="27.967107" lon="86.821523">
        <ele>5068.2</ele>
        <time>2022-10-27T07:37:41.000Z</time>
      </trkpt>
      <trkpt lat="27.967098" lon="86.821504">
        <ele>5068</ele>
        <time>2022-10-27T07:37:44.000Z</time>
      </trkpt>
      <trkpt lat="27.967088" lon="86.821485">
        <ele>5068</ele>
        <time>2022-10-27T07:37:46.000Z</time>
      </trkpt>
      <trkpt lat="27.967062" lon="86.821472">
        <ele>5067.4</ele>
        <time>2022-10-27T07:37:49.000Z</time>
      </trkpt>
      <trkpt lat="27.96704" lon="86.821485">
        <ele>5067.6</ele>
        <time>2022-10-27T07:37:52.000Z</time>
      </trkpt>
      <trkpt lat="27.967027" lon="86.821504">
        <ele>5067.6</ele>
        <time>2022-10-27T07:37:54.000Z</time>
      </trkpt>
      <trkpt lat="27.967008" lon="86.821504">
        <ele>5067.6</ele>
        <time>2022-10-27T07:37:56.000Z</time>
      </trkpt>
      <trkpt lat="27.966989" lon="86.821498">
        <ele>5068</ele>
        <time>2022-10-27T07:37:59.000Z</time>
      </trkpt>
      <trkpt lat="27.966976" lon="86.821478">
        <ele>5067.6</ele>
        <time>2022-10-27T07:38:01.000Z</time>
      </trkpt>
      <trkpt lat="27.966954" lon="86.821466">
        <ele>5067</ele>
        <time>2022-10-27T07:38:04.000Z</time>
      </trkpt>
      <trkpt lat="27.966934" lon="86.821478">
        <ele>5067</ele>
        <time>2022-10-27T07:38:07.000Z</time>
      </trkpt>
      <trkpt lat="27.966909" lon="86.821485">
        <ele>5067</ele>
        <time>2022-10-27T07:38:10.000Z</time>
      </trkpt>
      <trkpt lat="27.96689" lon="86.821485">
        <ele>5066.2</ele>
        <time>2022-10-27T07:38:12.000Z</time>
      </trkpt>
      <trkpt lat="27.96687" lon="86.821485">
        <ele>5066.2</ele>
        <time>2022-10-27T07:38:14.000Z</time>
      </trkpt>
      <trkpt lat="27.966848" lon="86.821485">
        <ele>5066</ele>
        <time>2022-10-27T07:38:18.000Z</time>
      </trkpt>
      <trkpt lat="27.966826" lon="86.821472">
        <ele>5065.4</ele>
        <time>2022-10-27T07:38:22.000Z</time>
      </trkpt>
      <trkpt lat="27.966806" lon="86.821459">
        <ele>5064.8</ele>
        <time>2022-10-27T07:38:24.000Z</time>
      </trkpt>
      <trkpt lat="27.966787" lon="86.821459">
        <ele>5064.2</ele>
        <time>2022-10-27T07:38:26.000Z</time>
      </trkpt>
      <trkpt lat="27.966771" lon="86.821446">
        <ele>5064</ele>
        <time>2022-10-27T07:38:28.000Z</time>
      </trkpt>
      <trkpt lat="27.966752" lon="86.82144">
        <ele>5063</ele>
        <time>2022-10-27T07:38:30.000Z</time>
      </trkpt>
      <trkpt lat="27.966733" lon="86.821427">
        <ele>5062.8</ele>
        <time>2022-10-27T07:38:32.000Z</time>
      </trkpt>
      <trkpt lat="27.96671" lon="86.821408">
        <ele>5062.8</ele>
        <time>2022-10-27T07:38:35.000Z</time>
      </trkpt>
      <trkpt lat="27.966691" lon="86.821408">
        <ele>5062.4</ele>
        <time>2022-10-27T07:38:37.000Z</time>
      </trkpt>
      <trkpt lat="27.966672" lon="86.821402">
        <ele>5062.4</ele>
        <time>2022-10-27T07:38:39.000Z</time>
      </trkpt>
      <trkpt lat="27.966653" lon="86.821402">
        <ele>5063</ele>
        <time>2022-10-27T07:38:42.000Z</time>
      </trkpt>
      <trkpt lat="27.96663" lon="86.821402">
        <ele>5063.8</ele>
        <time>2022-10-27T07:38:52.000Z</time>
      </trkpt>
      <trkpt lat="27.966614" lon="86.821389">
        <ele>5063.6</ele>
        <time>2022-10-27T07:38:54.000Z</time>
      </trkpt>
      <trkpt lat="27.966605" lon="86.821363">
        <ele>5063.6</ele>
        <time>2022-10-27T07:38:56.000Z</time>
      </trkpt>
      <trkpt lat="27.966586" lon="86.821357">
        <ele>5063.2</ele>
        <time>2022-10-27T07:38:59.000Z</time>
      </trkpt>
      <trkpt lat="27.966566" lon="86.821363">
        <ele>5063.2</ele>
        <time>2022-10-27T07:39:01.000Z</time>
      </trkpt>
      <trkpt lat="27.966541" lon="86.821357">
        <ele>5062.6</ele>
        <time>2022-10-27T07:39:04.000Z</time>
      </trkpt>
      <trkpt lat="27.966522" lon="86.82135">
        <ele>5062.4</ele>
        <time>2022-10-27T07:39:06.000Z</time>
      </trkpt>
      <trkpt lat="27.966496" lon="86.821344">
        <ele>5061.8</ele>
        <time>2022-10-27T07:39:09.000Z</time>
      </trkpt>
      <trkpt lat="27.966474" lon="86.821338">
        <ele>5062.4</ele>
        <time>2022-10-27T07:39:12.000Z</time>
      </trkpt>
      <trkpt lat="27.966451" lon="86.821338">
        <ele>5062.6</ele>
        <time>2022-10-27T07:39:14.000Z</time>
      </trkpt>
      <trkpt lat="27.966432" lon="86.821325">
        <ele>5062</ele>
        <time>2022-10-27T07:39:16.000Z</time>
      </trkpt>
      <trkpt lat="27.96641" lon="86.821318">
        <ele>5061.6</ele>
        <time>2022-10-27T07:39:18.000Z</time>
      </trkpt>
      <trkpt lat="27.966394" lon="86.821299">
        <ele>5061.6</ele>
        <time>2022-10-27T07:39:21.000Z</time>
      </trkpt>
      <trkpt lat="27.966381" lon="86.82128">
        <ele>5061.6</ele>
        <time>2022-10-27T07:39:23.000Z</time>
      </trkpt>
      <trkpt lat="27.966358" lon="86.821267">
        <ele>5060.8</ele>
        <time>2022-10-27T07:39:26.000Z</time>
      </trkpt>
      <trkpt lat="27.966333" lon="86.821248">
        <ele>5060.6</ele>
        <time>2022-10-27T07:39:29.000Z</time>
      </trkpt>
      <trkpt lat="27.966314" lon="86.821248">
        <ele>5060.8</ele>
        <time>2022-10-27T07:39:31.000Z</time>
      </trkpt>
      <trkpt lat="27.966294" lon="86.821248">
        <ele>5060.8</ele>
        <time>2022-10-27T07:39:33.000Z</time>
      </trkpt>
      <trkpt lat="27.966275" lon="86.821248">
        <ele>5060.6</ele>
        <time>2022-10-27T07:39:35.000Z</time>
      </trkpt>
      <trkpt lat="27.966246" lon="86.821242">
        <ele>5060.6</ele>
        <time>2022-10-27T07:39:38.000Z</time>
      </trkpt>
      <trkpt lat="27.96623" lon="86.821229">
        <ele>5060.8</ele>
        <time>2022-10-27T07:39:40.000Z</time>
      </trkpt>
      <trkpt lat="27.966205" lon="86.82121">
        <ele>5060.6</ele>
        <time>2022-10-27T07:39:43.000Z</time>
      </trkpt>
      <trkpt lat="27.966189" lon="86.821197">
        <ele>5060.2</ele>
        <time>2022-10-27T07:39:45.000Z</time>
      </trkpt>
      <trkpt lat="27.966179" lon="86.821178">
        <ele>5060</ele>
        <time>2022-10-27T07:39:47.000Z</time>
      </trkpt>
      <trkpt lat="27.96617" lon="86.821152">
        <ele>5060.2</ele>
        <time>2022-10-27T07:39:49.000Z</time>
      </trkpt>
      <trkpt lat="27.966157" lon="86.821126">
        <ele>5060</ele>
        <time>2022-10-27T07:39:52.000Z</time>
      </trkpt>
      <trkpt lat="27.966141" lon="86.821107">
        <ele>5059.8</ele>
        <time>2022-10-27T07:39:55.000Z</time>
      </trkpt>
      <trkpt lat="27.966115" lon="86.821101">
        <ele>5059.6</ele>
        <time>2022-10-27T07:39:58.000Z</time>
      </trkpt>
      <trkpt lat="27.966096" lon="86.821101">
        <ele>5059.8</ele>
        <time>2022-10-27T07:40:01.000Z</time>
      </trkpt>
      <trkpt lat="27.96608" lon="86.821082">
        <ele>5060.4</ele>
        <time>2022-10-27T07:40:05.000Z</time>
      </trkpt>
      <trkpt lat="27.966054" lon="86.821088">
        <ele>5060.2</ele>
        <time>2022-10-27T07:40:08.000Z</time>
      </trkpt>
      <trkpt lat="27.966035" lon="86.821101">
        <ele>5059.2</ele>
        <time>2022-10-27T07:40:10.000Z</time>
      </trkpt>
      <trkpt lat="27.966016" lon="86.821101">
        <ele>5059.2</ele>
        <time>2022-10-27T07:40:19.000Z</time>
      </trkpt>
      <trkpt lat="27.965997" lon="86.821101">
        <ele>5058.4</ele>
        <time>2022-10-27T07:40:21.000Z</time>
      </trkpt>
      <trkpt lat="27.965974" lon="86.821107">
        <ele>5058</ele>
        <time>2022-10-27T07:40:23.000Z</time>
      </trkpt>
      <trkpt lat="27.965955" lon="86.821107">
        <ele>5058</ele>
        <time>2022-10-27T07:40:25.000Z</time>
      </trkpt>
      <trkpt lat="27.965939" lon="86.821088">
        <ele>5058</ele>
        <time>2022-10-27T07:40:28.000Z</time>
      </trkpt>
      <trkpt lat="27.96592" lon="86.821082">
        <ele>5058.2</ele>
        <time>2022-10-27T07:40:36.000Z</time>
      </trkpt>
      <trkpt lat="27.965898" lon="86.821082">
        <ele>5057.4</ele>
        <time>2022-10-27T07:40:38.000Z</time>
      </trkpt>
      <trkpt lat="27.965875" lon="86.821075">
        <ele>5056.8</ele>
        <time>2022-10-27T07:40:40.000Z</time>
      </trkpt>
      <trkpt lat="27.96585" lon="86.821075">
        <ele>5056.2</ele>
        <time>2022-10-27T07:40:42.000Z</time>
      </trkpt>
      <trkpt lat="27.96583" lon="86.821069">
        <ele>5055.6</ele>
        <time>2022-10-27T07:40:44.000Z</time>
      </trkpt>
      <trkpt lat="27.965805" lon="86.821062">
        <ele>5056</ele>
        <time>2022-10-27T07:40:46.000Z</time>
      </trkpt>
      <trkpt lat="27.965782" lon="86.82105">
        <ele>5056.2</ele>
        <time>2022-10-27T07:40:48.000Z</time>
      </trkpt>
      <trkpt lat="27.96576" lon="86.821037">
        <ele>5056.2</ele>
        <time>2022-10-27T07:40:50.000Z</time>
      </trkpt>
      <trkpt lat="27.965744" lon="86.821024">
        <ele>5056</ele>
        <time>2022-10-27T07:40:52.000Z</time>
      </trkpt>
      <trkpt lat="27.965725" lon="86.821018">
        <ele>5056</ele>
        <time>2022-10-27T07:40:54.000Z</time>
      </trkpt>
      <trkpt lat="27.965706" lon="86.821005">
        <ele>5056.6</ele>
        <time>2022-10-27T07:40:56.000Z</time>
      </trkpt>
      <trkpt lat="27.96568" lon="86.820998">
        <ele>5057.4</ele>
        <time>2022-10-27T07:40:58.000Z</time>
      </trkpt>
      <trkpt lat="27.965661" lon="86.820992">
        <ele>5057</ele>
        <time>2022-10-27T07:41:00.000Z</time>
      </trkpt>
      <trkpt lat="27.965642" lon="86.820992">
        <ele>5057</ele>
        <time>2022-10-27T07:41:02.000Z</time>
      </trkpt>
      <trkpt lat="27.965622" lon="86.820979">
        <ele>5057</ele>
        <time>2022-10-27T07:41:04.000Z</time>
      </trkpt>
      <trkpt lat="27.965597" lon="86.820966">
        <ele>5056.8</ele>
        <time>2022-10-27T07:41:06.000Z</time>
      </trkpt>
      <trkpt lat="27.965578" lon="86.82096">
        <ele>5056.2</ele>
        <time>2022-10-27T07:41:08.000Z</time>
      </trkpt>
      <trkpt lat="27.965558" lon="86.82096">
        <ele>5056.2</ele>
        <time>2022-10-27T07:41:10.000Z</time>
      </trkpt>
      <trkpt lat="27.965536" lon="86.820941">
        <ele>5055.6</ele>
        <time>2022-10-27T07:41:12.000Z</time>
      </trkpt>
      <trkpt lat="27.965514" lon="86.820928">
        <ele>5055</ele>
        <time>2022-10-27T07:41:14.000Z</time>
      </trkpt>
      <trkpt lat="27.965488" lon="86.820915">
        <ele>5055.6</ele>
        <time>2022-10-27T07:41:17.000Z</time>
      </trkpt>
      <trkpt lat="27.965469" lon="86.820915">
        <ele>5055</ele>
        <time>2022-10-27T07:41:19.000Z</time>
      </trkpt>
      <trkpt lat="27.965443" lon="86.820909">
        <ele>5055.6</ele>
        <time>2022-10-27T07:41:21.000Z</time>
      </trkpt>
      <trkpt lat="27.965421" lon="86.820909">
        <ele>5055.4</ele>
        <time>2022-10-27T07:41:23.000Z</time>
      </trkpt>
      <trkpt lat="27.965395" lon="86.820909">
        <ele>5055</ele>
        <time>2022-10-27T07:41:25.000Z</time>
      </trkpt>
      <trkpt lat="27.965376" lon="86.82089">
        <ele>5053.8</ele>
        <time>2022-10-27T07:41:27.000Z</time>
      </trkpt>
      <trkpt lat="27.965357" lon="86.820877">
        <ele>5053.4</ele>
        <time>2022-10-27T07:41:29.000Z</time>
      </trkpt>
      <trkpt lat="27.965341" lon="86.820864">
        <ele>5053.4</ele>
        <time>2022-10-27T07:41:31.000Z</time>
      </trkpt>
      <trkpt lat="27.965318" lon="86.820851">
        <ele>5053.2</ele>
        <time>2022-10-27T07:41:33.000Z</time>
      </trkpt>
      <trkpt lat="27.965299" lon="86.820845">
        <ele>5053</ele>
        <time>2022-10-27T07:41:35.000Z</time>
      </trkpt>
      <trkpt lat="27.96528" lon="86.820832">
        <ele>5052.4</ele>
        <time>2022-10-27T07:41:38.000Z</time>
      </trkpt>
      <trkpt lat="27.965264" lon="86.820819">
        <ele>5052.4</ele>
        <time>2022-10-27T07:41:40.000Z</time>
      </trkpt>
      <trkpt lat="27.965261" lon="86.820794">
        <ele>5052.2</ele>
        <time>2022-10-27T07:41:42.000Z</time>
      </trkpt>
      <trkpt lat="27.965245" lon="86.820781">
        <ele>5052.2</ele>
        <time>2022-10-27T07:41:45.000Z</time>
      </trkpt>
      <trkpt lat="27.965229" lon="86.820762">
        <ele>5051.8</ele>
        <time>2022-10-27T07:41:47.000Z</time>
      </trkpt>
      <trkpt lat="27.965216" lon="86.820742">
        <ele>5051</ele>
        <time>2022-10-27T07:41:49.000Z</time>
      </trkpt>
      <trkpt lat="27.965206" lon="86.820723">
        <ele>5051</ele>
        <time>2022-10-27T07:41:51.000Z</time>
      </trkpt>
      <trkpt lat="27.965194" lon="86.820704">
        <ele>5051.2</ele>
        <time>2022-10-27T07:41:54.000Z</time>
      </trkpt>
      <trkpt lat="27.965187" lon="86.820685">
        <ele>5051.4</ele>
        <time>2022-10-27T07:41:56.000Z</time>
      </trkpt>
      <trkpt lat="27.965165" lon="86.820678">
        <ele>5051</ele>
        <time>2022-10-27T07:41:59.000Z</time>
      </trkpt>
      <trkpt lat="27.965142" lon="86.820666">
        <ele>5050.6</ele>
        <time>2022-10-27T07:42:02.000Z</time>
      </trkpt>
      <trkpt lat="27.965126" lon="86.820653">
        <ele>5050</ele>
        <time>2022-10-27T07:42:04.000Z</time>
      </trkpt>
      <trkpt lat="27.965104" lon="86.820646">
        <ele>5049.4</ele>
        <time>2022-10-27T07:42:07.000Z</time>
      </trkpt>
      <trkpt lat="27.965085" lon="86.820646">
        <ele>5050</ele>
        <time>2022-10-27T07:42:09.000Z</time>
      </trkpt>
      <trkpt lat="27.965066" lon="86.82064">
        <ele>5050</ele>
        <time>2022-10-27T07:42:11.000Z</time>
      </trkpt>
      <trkpt lat="27.965046" lon="86.820634">
        <ele>5049.8</ele>
        <time>2022-10-27T07:42:13.000Z</time>
      </trkpt>
      <trkpt lat="27.965034" lon="86.820608">
        <ele>5049.4</ele>
        <time>2022-10-27T07:42:15.000Z</time>
      </trkpt>
      <trkpt lat="27.965011" lon="86.820602">
        <ele>5049.2</ele>
        <time>2022-10-27T07:42:17.000Z</time>
      </trkpt>
      <trkpt lat="27.964992" lon="86.820595">
        <ele>5049.2</ele>
        <time>2022-10-27T07:42:19.000Z</time>
      </trkpt>
      <trkpt lat="27.964973" lon="86.820589">
        <ele>5049.2</ele>
        <time>2022-10-27T07:42:21.000Z</time>
      </trkpt>
      <trkpt lat="27.964954" lon="86.820582">
        <ele>5049.2</ele>
        <time>2022-10-27T07:42:23.000Z</time>
      </trkpt>
      <trkpt lat="27.964931" lon="86.82057">
        <ele>5049</ele>
        <time>2022-10-27T07:42:25.000Z</time>
      </trkpt>
      <trkpt lat="27.964912" lon="86.820563">
        <ele>5048.6</ele>
        <time>2022-10-27T07:42:27.000Z</time>
      </trkpt>
      <trkpt lat="27.964893" lon="86.820557">
        <ele>5049.2</ele>
        <time>2022-10-27T07:42:29.000Z</time>
      </trkpt>
      <trkpt lat="27.964874" lon="86.820557">
        <ele>5048.6</ele>
        <time>2022-10-27T07:42:31.000Z</time>
      </trkpt>
      <trkpt lat="27.964851" lon="86.82055">
        <ele>5049.2</ele>
        <time>2022-10-27T07:42:35.000Z</time>
      </trkpt>
      <trkpt lat="27.964826" lon="86.820544">
        <ele>5048.6</ele>
        <time>2022-10-27T07:42:38.000Z</time>
      </trkpt>
      <trkpt lat="27.964806" lon="86.820525">
        <ele>5048.6</ele>
        <time>2022-10-27T07:42:40.000Z</time>
      </trkpt>
      <trkpt lat="27.964787" lon="86.820512">
        <ele>5048.8</ele>
        <time>2022-10-27T07:42:42.000Z</time>
      </trkpt>
      <trkpt lat="27.964774" lon="86.820493">
        <ele>5048.6</ele>
        <time>2022-10-27T07:42:44.000Z</time>
      </trkpt>
      <trkpt lat="27.964749" lon="86.820486">
        <ele>5048.6</ele>
        <time>2022-10-27T07:42:47.000Z</time>
      </trkpt>
      <trkpt lat="27.96473" lon="86.820486">
        <ele>5047.8</ele>
        <time>2022-10-27T07:42:49.000Z</time>
      </trkpt>
      <trkpt lat="27.96471" lon="86.820486">
        <ele>5047.4</ele>
        <time>2022-10-27T07:42:51.000Z</time>
      </trkpt>
      <trkpt lat="27.964691" lon="86.820486">
        <ele>5047.2</ele>
        <time>2022-10-27T07:42:53.000Z</time>
      </trkpt>
      <trkpt lat="27.964672" lon="86.820486">
        <ele>5046.8</ele>
        <time>2022-10-27T07:42:55.000Z</time>
      </trkpt>
      <trkpt lat="27.96465" lon="86.82048">
        <ele>5046.2</ele>
        <time>2022-10-27T07:42:57.000Z</time>
      </trkpt>
      <trkpt lat="27.964627" lon="86.820474">
        <ele>5046.2</ele>
        <time>2022-10-27T07:42:59.000Z</time>
      </trkpt>
      <trkpt lat="27.964608" lon="86.820467">
        <ele>5046</ele>
        <time>2022-10-27T07:43:01.000Z</time>
      </trkpt>
      <trkpt lat="27.964592" lon="86.820448">
        <ele>5046</ele>
        <time>2022-10-27T07:43:03.000Z</time>
      </trkpt>
      <trkpt lat="27.96457" lon="86.820435">
        <ele>5046</ele>
        <time>2022-10-27T07:43:06.000Z</time>
      </trkpt>
      <trkpt lat="27.964547" lon="86.820429">
        <ele>5046.8</ele>
        <time>2022-10-27T07:43:09.000Z</time>
      </trkpt>
      <trkpt lat="27.964522" lon="86.820429">
        <ele>5046.2</ele>
        <time>2022-10-27T07:43:12.000Z</time>
      </trkpt>
      <trkpt lat="27.964502" lon="86.820435">
        <ele>5045.6</ele>
        <time>2022-10-27T07:43:14.000Z</time>
      </trkpt>
      <trkpt lat="27.96448" lon="86.820429">
        <ele>5045.4</ele>
        <time>2022-10-27T07:43:16.000Z</time>
      </trkpt>
      <trkpt lat="27.964458" lon="86.820422">
        <ele>5044.6</ele>
        <time>2022-10-27T07:43:18.000Z</time>
      </trkpt>
      <trkpt lat="27.964442" lon="86.82041">
        <ele>5044.2</ele>
        <time>2022-10-27T07:43:20.000Z</time>
      </trkpt>
      <trkpt lat="27.96441" lon="86.820403">
        <ele>5044.2</ele>
        <time>2022-10-27T07:43:23.000Z</time>
      </trkpt>
      <trkpt lat="27.96439" lon="86.820397">
        <ele>5044.2</ele>
        <time>2022-10-27T07:43:25.000Z</time>
      </trkpt>
      <trkpt lat="27.964371" lon="86.82039">
        <ele>5044</ele>
        <time>2022-10-27T07:43:27.000Z</time>
      </trkpt>
      <trkpt lat="27.964352" lon="86.82039">
        <ele>5044</ele>
        <time>2022-10-27T07:43:29.000Z</time>
      </trkpt>
      <trkpt lat="27.96433" lon="86.820384">
        <ele>5043.6</ele>
        <time>2022-10-27T07:43:31.000Z</time>
      </trkpt>
      <trkpt lat="27.96431" lon="86.820371">
        <ele>5043.4</ele>
        <time>2022-10-27T07:43:33.000Z</time>
      </trkpt>
      <trkpt lat="27.964294" lon="86.820358">
        <ele>5043.6</ele>
        <time>2022-10-27T07:43:41.000Z</time>
      </trkpt>
      <trkpt lat="27.964278" lon="86.820346">
        <ele>5043.6</ele>
        <time>2022-10-27T07:43:43.000Z</time>
      </trkpt>
      <trkpt lat="27.964259" lon="86.820333">
        <ele>5043</ele>
        <time>2022-10-27T07:43:45.000Z</time>
      </trkpt>
      <trkpt lat="27.964237" lon="86.82032">
        <ele>5043</ele>
        <time>2022-10-27T07:43:47.000Z</time>
      </trkpt>
      <trkpt lat="27.964218" lon="86.82032">
        <ele>5042.8</ele>
        <time>2022-10-27T07:43:49.000Z</time>
      </trkpt>
      <trkpt lat="27.964198" lon="86.820307">
        <ele>5043</ele>
        <time>2022-10-27T07:43:51.000Z</time>
      </trkpt>
      <trkpt lat="27.964179" lon="86.820294">
        <ele>5042.8</ele>
        <time>2022-10-27T07:43:53.000Z</time>
      </trkpt>
      <trkpt lat="27.96416" lon="86.820282">
        <ele>5042.4</ele>
        <time>2022-10-27T07:43:55.000Z</time>
      </trkpt>
      <trkpt lat="27.964141" lon="86.820275">
        <ele>5042.2</ele>
        <time>2022-10-27T07:43:57.000Z</time>
      </trkpt>
      <trkpt lat="27.964125" lon="86.820256">
        <ele>5042.4</ele>
        <time>2022-10-27T07:43:59.000Z</time>
      </trkpt>
      <trkpt lat="27.964102" lon="86.820243">
        <ele>5042.8</ele>
        <time>2022-10-27T07:44:01.000Z</time>
      </trkpt>
      <trkpt lat="27.96408" lon="86.82023">
        <ele>5042.4</ele>
        <time>2022-10-27T07:44:03.000Z</time>
      </trkpt>
      <trkpt lat="27.964061" lon="86.820211">
        <ele>5042.4</ele>
        <time>2022-10-27T07:44:05.000Z</time>
      </trkpt>
      <trkpt lat="27.964042" lon="86.820205">
        <ele>5042.8</ele>
        <time>2022-10-27T07:44:07.000Z</time>
      </trkpt>
      <trkpt lat="27.964019" lon="86.820192">
        <ele>5042.6</ele>
        <time>2022-10-27T07:44:09.000Z</time>
      </trkpt>
      <trkpt lat="27.964" lon="86.820186">
        <ele>5042.4</ele>
        <time>2022-10-27T07:44:11.000Z</time>
      </trkpt>
      <trkpt lat="27.963981" lon="86.820173">
        <ele>5042.4</ele>
        <time>2022-10-27T07:44:13.000Z</time>
      </trkpt>
      <trkpt lat="27.963962" lon="86.820166">
        <ele>5041.6</ele>
        <time>2022-10-27T07:44:15.000Z</time>
      </trkpt>
      <trkpt lat="27.963942" lon="86.820154">
        <ele>5041.2</ele>
        <time>2022-10-27T07:44:17.000Z</time>
      </trkpt>
      <trkpt lat="27.963923" lon="86.820134">
        <ele>5041.2</ele>
        <time>2022-10-27T07:44:19.000Z</time>
      </trkpt>
      <trkpt lat="27.963904" lon="86.820122">
        <ele>5041.2</ele>
        <time>2022-10-27T07:44:21.000Z</time>
      </trkpt>
      <trkpt lat="27.963885" lon="86.820096">
        <ele>5041.2</ele>
        <time>2022-10-27T07:44:24.000Z</time>
      </trkpt>
      <trkpt lat="27.963872" lon="86.82007">
        <ele>5041.8</ele>
        <time>2022-10-27T07:44:27.000Z</time>
      </trkpt>
      <trkpt lat="27.963846" lon="86.82007">
        <ele>5041.8</ele>
        <time>2022-10-27T07:44:30.000Z</time>
      </trkpt>
      <trkpt lat="27.963824" lon="86.82007">
        <ele>5041</ele>
        <time>2022-10-27T07:44:32.000Z</time>
      </trkpt>
      <trkpt lat="27.963805" lon="86.820051">
        <ele>5041</ele>
        <time>2022-10-27T07:44:34.000Z</time>
      </trkpt>
      <trkpt lat="27.963782" lon="86.820032">
        <ele>5040.6</ele>
        <time>2022-10-27T07:44:37.000Z</time>
      </trkpt>
      <trkpt lat="27.963763" lon="86.820013">
        <ele>5040.4</ele>
        <time>2022-10-27T07:44:39.000Z</time>
      </trkpt>
      <trkpt lat="27.963747" lon="86.82">
        <ele>5040</ele>
        <time>2022-10-27T07:44:41.000Z</time>
      </trkpt>
      <trkpt lat="27.963725" lon="86.819994">
        <ele>5039.8</ele>
        <time>2022-10-27T07:44:43.000Z</time>
      </trkpt>
      <trkpt lat="27.963706" lon="86.819987">
        <ele>5039.6</ele>
        <time>2022-10-27T07:44:45.000Z</time>
      </trkpt>
      <trkpt lat="27.963683" lon="86.819974">
        <ele>5039.4</ele>
        <time>2022-10-27T07:44:47.000Z</time>
      </trkpt>
      <trkpt lat="27.963664" lon="86.819962">
        <ele>5039.4</ele>
        <time>2022-10-27T07:44:49.000Z</time>
      </trkpt>
      <trkpt lat="27.963642" lon="86.819949">
        <ele>5039.4</ele>
        <time>2022-10-27T07:44:52.000Z</time>
      </trkpt>
      <trkpt lat="27.963626" lon="86.81993">
        <ele>5038.8</ele>
        <time>2022-10-27T07:44:54.000Z</time>
      </trkpt>
      <trkpt lat="27.963606" lon="86.819923">
        <ele>5038.8</ele>
        <time>2022-10-27T07:44:56.000Z</time>
      </trkpt>
      <trkpt lat="27.96359" lon="86.81991">
        <ele>5038.8</ele>
        <time>2022-10-27T07:44:58.000Z</time>
      </trkpt>
      <trkpt lat="27.96353" lon="86.819859">
        <ele>5038.6</ele>
        <time>2022-10-27T07:45:05.000Z</time>
      </trkpt>
      <trkpt lat="27.963488" lon="86.81984">
        <ele>5039</ele>
        <time>2022-10-27T07:45:10.000Z</time>
      </trkpt>
      <trkpt lat="27.963459" lon="86.81984">
        <ele>5038</ele>
        <time>2022-10-27T07:45:13.000Z</time>
      </trkpt>
      <trkpt lat="27.963434" lon="86.819827">
        <ele>5037.8</ele>
        <time>2022-10-27T07:45:16.000Z</time>
      </trkpt>
      <trkpt lat="27.963411" lon="86.819814">
        <ele>5037.4</ele>
        <time>2022-10-27T07:45:18.000Z</time>
      </trkpt>
      <trkpt lat="27.963392" lon="86.819802">
        <ele>5037.4</ele>
        <time>2022-10-27T07:45:20.000Z</time>
      </trkpt>
      <trkpt lat="27.963376" lon="86.819789">
        <ele>5037.4</ele>
        <time>2022-10-27T07:45:22.000Z</time>
      </trkpt>
      <trkpt lat="27.963357" lon="86.81977">
        <ele>5037.2</ele>
        <time>2022-10-27T07:45:24.000Z</time>
      </trkpt>
      <trkpt lat="27.963331" lon="86.819757">
        <ele>5037.4</ele>
        <time>2022-10-27T07:45:27.000Z</time>
      </trkpt>
      <trkpt lat="27.963312" lon="86.819738">
        <ele>5036.8</ele>
        <time>2022-10-27T07:45:29.000Z</time>
      </trkpt>
      <trkpt lat="27.963286" lon="86.819725">
        <ele>5037.4</ele>
        <time>2022-10-27T07:45:32.000Z</time>
      </trkpt>
      <trkpt lat="27.963264" lon="86.819712">
        <ele>5037.4</ele>
        <time>2022-10-27T07:45:34.000Z</time>
      </trkpt>
      <trkpt lat="27.963238" lon="86.819699">
        <ele>5036.8</ele>
        <time>2022-10-27T07:45:36.000Z</time>
      </trkpt>
      <trkpt lat="27.963219" lon="86.819686">
        <ele>5036.8</ele>
        <time>2022-10-27T07:45:38.000Z</time>
      </trkpt>
      <trkpt lat="27.9632" lon="86.819674">
        <ele>5036.8</ele>
        <time>2022-10-27T07:45:40.000Z</time>
      </trkpt>
      <trkpt lat="27.963181" lon="86.819667">
        <ele>5037</ele>
        <time>2022-10-27T07:45:42.000Z</time>
      </trkpt>
      <trkpt lat="27.963155" lon="86.819654">
        <ele>5036</ele>
        <time>2022-10-27T07:45:44.000Z</time>
      </trkpt>
      <trkpt lat="27.963136" lon="86.819654">
        <ele>5036</ele>
        <time>2022-10-27T07:45:46.000Z</time>
      </trkpt>
      <trkpt lat="27.963117" lon="86.819642">
        <ele>5036.2</ele>
        <time>2022-10-27T07:45:48.000Z</time>
      </trkpt>
      <trkpt lat="27.963098" lon="86.819642">
        <ele>5035.4</ele>
        <time>2022-10-27T07:45:50.000Z</time>
      </trkpt>
      <trkpt lat="27.963075" lon="86.819635">
        <ele>5035.4</ele>
        <time>2022-10-27T07:45:52.000Z</time>
      </trkpt>
      <trkpt lat="27.96305" lon="86.819635">
        <ele>5035</ele>
        <time>2022-10-27T07:45:54.000Z</time>
      </trkpt>
      <trkpt lat="27.963027" lon="86.819616">
        <ele>5034.8</ele>
        <time>2022-10-27T07:45:57.000Z</time>
      </trkpt>
      <trkpt lat="27.963002" lon="86.819603">
        <ele>5034.2</ele>
        <time>2022-10-27T07:46:00.000Z</time>
      </trkpt>
      <trkpt lat="27.962979" lon="86.81959">
        <ele>5033.8</ele>
        <time>2022-10-27T07:46:03.000Z</time>
      </trkpt>
      <trkpt lat="27.96296" lon="86.819571">
        <ele>5034.2</ele>
        <time>2022-10-27T07:46:05.000Z</time>
      </trkpt>
      <trkpt lat="27.962938" lon="86.819565">
        <ele>5033.6</ele>
        <time>2022-10-27T07:46:08.000Z</time>
      </trkpt>
      <trkpt lat="27.962918" lon="86.819558">
        <ele>5034.4</ele>
        <time>2022-10-27T07:46:10.000Z</time>
      </trkpt>
      <trkpt lat="27.962896" lon="86.819558">
        <ele>5034</ele>
        <time>2022-10-27T07:46:12.000Z</time>
      </trkpt>
      <trkpt lat="27.962877" lon="86.819558">
        <ele>5033.2</ele>
        <time>2022-10-27T07:46:14.000Z</time>
      </trkpt>
      <trkpt lat="27.962854" lon="86.819552">
        <ele>5033</ele>
        <time>2022-10-27T07:46:17.000Z</time>
      </trkpt>
      <trkpt lat="27.962838" lon="86.819539">
        <ele>5032.8</ele>
        <time>2022-10-27T07:46:36.000Z</time>
      </trkpt>
      <trkpt lat="27.962816" lon="86.819526">
        <ele>5033</ele>
        <time>2022-10-27T07:46:38.000Z</time>
      </trkpt>
      <trkpt lat="27.96279" lon="86.819514">
        <ele>5032.8</ele>
        <time>2022-10-27T07:46:40.000Z</time>
      </trkpt>
      <trkpt lat="27.962768" lon="86.819494">
        <ele>5032.4</ele>
        <time>2022-10-27T07:46:42.000Z</time>
      </trkpt>
      <trkpt lat="27.962742" lon="86.819482">
        <ele>5032.4</ele>
        <time>2022-10-27T07:46:44.000Z</time>
      </trkpt>
      <trkpt lat="27.96272" lon="86.819482">
        <ele>5032.4</ele>
        <time>2022-10-27T07:46:46.000Z</time>
      </trkpt>
      <trkpt lat="27.962701" lon="86.819482">
        <ele>5032.4</ele>
        <time>2022-10-27T07:46:48.000Z</time>
      </trkpt>
      <trkpt lat="27.962675" lon="86.819482">
        <ele>5031.8</ele>
        <time>2022-10-27T07:46:50.000Z</time>
      </trkpt>
      <trkpt lat="27.962653" lon="86.819475">
        <ele>5031.4</ele>
        <time>2022-10-27T07:46:52.000Z</time>
      </trkpt>
      <trkpt lat="27.962627" lon="86.819475">
        <ele>5031</ele>
        <time>2022-10-27T07:46:54.000Z</time>
      </trkpt>
      <trkpt lat="27.962605" lon="86.819469">
        <ele>5031</ele>
        <time>2022-10-27T07:46:56.000Z</time>
      </trkpt>
      <trkpt lat="27.962582" lon="86.819456">
        <ele>5031.6</ele>
        <time>2022-10-27T07:46:58.000Z</time>
      </trkpt>
      <trkpt lat="27.96256" lon="86.819443">
        <ele>5031</ele>
        <time>2022-10-27T07:47:00.000Z</time>
      </trkpt>
      <trkpt lat="27.962534" lon="86.819437">
        <ele>5031</ele>
        <time>2022-10-27T07:47:02.000Z</time>
      </trkpt>
      <trkpt lat="27.962512" lon="86.81943">
        <ele>5031</ele>
        <time>2022-10-27T07:47:04.000Z</time>
      </trkpt>
      <trkpt lat="27.96249" lon="86.81943">
        <ele>5031</ele>
        <time>2022-10-27T07:47:06.000Z</time>
      </trkpt>
      <trkpt lat="27.962464" lon="86.819418">
        <ele>5030.6</ele>
        <time>2022-10-27T07:47:08.000Z</time>
      </trkpt>
      <trkpt lat="27.962445" lon="86.819411">
        <ele>5030.4</ele>
        <time>2022-10-27T07:47:10.000Z</time>
      </trkpt>
      <trkpt lat="27.962422" lon="86.819405">
        <ele>5030.4</ele>
        <time>2022-10-27T07:47:12.000Z</time>
      </trkpt>
      <trkpt lat="27.9624" lon="86.819405">
        <ele>5030.2</ele>
        <time>2022-10-27T07:47:14.000Z</time>
      </trkpt>
      <trkpt lat="27.962374" lon="86.819398">
        <ele>5030.2</ele>
        <time>2022-10-27T07:47:16.000Z</time>
      </trkpt>
      <trkpt lat="27.962352" lon="86.819398">
        <ele>5030.2</ele>
        <time>2022-10-27T07:47:18.000Z</time>
      </trkpt>
      <trkpt lat="27.962326" lon="86.819398">
        <ele>5029.8</ele>
        <time>2022-10-27T07:47:20.000Z</time>
      </trkpt>
      <trkpt lat="27.962301" lon="86.819398">
        <ele>5029.8</ele>
        <time>2022-10-27T07:47:22.000Z</time>
      </trkpt>
      <trkpt lat="27.962278" lon="86.819392">
        <ele>5029.8</ele>
        <time>2022-10-27T07:47:24.000Z</time>
      </trkpt>
      <trkpt lat="27.962256" lon="86.819373">
        <ele>5029.8</ele>
        <time>2022-10-27T07:47:26.000Z</time>
      </trkpt>
      <trkpt lat="27.962234" lon="86.819366">
        <ele>5029.8</ele>
        <time>2022-10-27T07:47:28.000Z</time>
      </trkpt>
      <trkpt lat="27.962208" lon="86.81936">
        <ele>5029.8</ele>
        <time>2022-10-27T07:47:30.000Z</time>
      </trkpt>
      <trkpt lat="27.962189" lon="86.819354">
        <ele>5029.8</ele>
        <time>2022-10-27T07:47:32.000Z</time>
      </trkpt>
      <trkpt lat="27.962166" lon="86.819334">
        <ele>5029.8</ele>
        <time>2022-10-27T07:47:34.000Z</time>
      </trkpt>
      <trkpt lat="27.962141" lon="86.819328">
        <ele>5029.4</ele>
        <time>2022-10-27T07:47:37.000Z</time>
      </trkpt>
      <trkpt lat="27.962112" lon="86.819322">
        <ele>5029.4</ele>
        <time>2022-10-27T07:47:40.000Z</time>
      </trkpt>
      <trkpt lat="27.962096" lon="86.819302">
        <ele>5029.2</ele>
        <time>2022-10-27T07:47:42.000Z</time>
      </trkpt>
      <trkpt lat="27.96208" lon="86.81929">
        <ele>5029</ele>
        <time>2022-10-27T07:47:44.000Z</time>
      </trkpt>
      <trkpt lat="27.962054" lon="86.819283">
        <ele>5028.8</ele>
        <time>2022-10-27T07:47:47.000Z</time>
      </trkpt>
      <trkpt lat="27.962038" lon="86.81927">
        <ele>5028.8</ele>
        <time>2022-10-27T07:47:49.000Z</time>
      </trkpt>
      <trkpt lat="27.962022" lon="86.819258">
        <ele>5029.4</ele>
        <time>2022-10-27T07:47:52.000Z</time>
      </trkpt>
      <trkpt lat="27.962003" lon="86.819245">
        <ele>5029.4</ele>
        <time>2022-10-27T07:47:54.000Z</time>
      </trkpt>
      <trkpt lat="27.961978" lon="86.819238">
        <ele>5028.6</ele>
        <time>2022-10-27T07:47:57.000Z</time>
      </trkpt>
      <trkpt lat="27.961955" lon="86.819232">
        <ele>5028.6</ele>
        <time>2022-10-27T07:47:59.000Z</time>
      </trkpt>
      <trkpt lat="27.961933" lon="86.819232">
        <ele>5028.6</ele>
        <time>2022-10-27T07:48:01.000Z</time>
      </trkpt>
      <trkpt lat="27.961914" lon="86.819213">
        <ele>5028.2</ele>
        <time>2022-10-27T07:48:03.000Z</time>
      </trkpt>
      <trkpt lat="27.961888" lon="86.819213">
        <ele>5028.6</ele>
        <time>2022-10-27T07:48:06.000Z</time>
      </trkpt>
      <trkpt lat="27.961869" lon="86.819206">
        <ele>5028.6</ele>
        <time>2022-10-27T07:48:13.000Z</time>
      </trkpt>
      <trkpt lat="27.96185" lon="86.819206">
        <ele>5028.2</ele>
        <time>2022-10-27T07:48:17.000Z</time>
      </trkpt>
      <trkpt lat="27.961824" lon="86.819194">
        <ele>5027.4</ele>
        <time>2022-10-27T07:48:20.000Z</time>
      </trkpt>
      <trkpt lat="27.961805" lon="86.819181">
        <ele>5027.2</ele>
        <time>2022-10-27T07:48:22.000Z</time>
      </trkpt>
      <trkpt lat="27.961782" lon="86.819181">
        <ele>5027.2</ele>
        <time>2022-10-27T07:48:24.000Z</time>
      </trkpt>
      <trkpt lat="27.96176" lon="86.819174">
        <ele>5027.2</ele>
        <time>2022-10-27T07:48:26.000Z</time>
      </trkpt>
      <trkpt lat="27.961738" lon="86.819168">
        <ele>5027</ele>
        <time>2022-10-27T07:48:28.000Z</time>
      </trkpt>
      <trkpt lat="27.961715" lon="86.819168">
        <ele>5026.8</ele>
        <time>2022-10-27T07:48:30.000Z</time>
      </trkpt>
      <trkpt lat="27.96169" lon="86.819168">
        <ele>5027</ele>
        <time>2022-10-27T07:48:32.000Z</time>
      </trkpt>
      <trkpt lat="27.96167" lon="86.819162">
        <ele>5027.4</ele>
        <time>2022-10-27T07:48:34.000Z</time>
      </trkpt>
      <trkpt lat="27.961651" lon="86.819162">
        <ele>5027</ele>
        <time>2022-10-27T07:48:36.000Z</time>
      </trkpt>
      <trkpt lat="27.961629" lon="86.819155">
        <ele>5026.6</ele>
        <time>2022-10-27T07:48:38.000Z</time>
      </trkpt>
      <trkpt lat="27.961606" lon="86.819155">
        <ele>5026.6</ele>
        <time>2022-10-27T07:48:40.000Z</time>
      </trkpt>
      <trkpt lat="27.961587" lon="86.819136">
        <ele>5026.2</ele>
        <time>2022-10-27T07:48:42.000Z</time>
      </trkpt>
      <trkpt lat="27.961568" lon="86.81913">
        <ele>5025.6</ele>
        <time>2022-10-27T07:48:44.000Z</time>
      </trkpt>
      <trkpt lat="27.961542" lon="86.819117">
        <ele>5026</ele>
        <time>2022-10-27T07:48:46.000Z</time>
      </trkpt>
      <trkpt lat="27.96152" lon="86.819104">
        <ele>5025.6</ele>
        <time>2022-10-27T07:48:48.000Z</time>
      </trkpt>
      <trkpt lat="27.961501" lon="86.819091">
        <ele>5025.4</ele>
        <time>2022-10-27T07:48:50.000Z</time>
      </trkpt>
      <trkpt lat="27.961482" lon="86.819078">
        <ele>5025.4</ele>
        <time>2022-10-27T07:48:52.000Z</time>
      </trkpt>
      <trkpt lat="27.961466" lon="86.819059">
        <ele>5025</ele>
        <time>2022-10-27T07:48:54.000Z</time>
      </trkpt>
      <trkpt lat="27.961437" lon="86.819053">
        <ele>5024.8</ele>
        <time>2022-10-27T07:48:57.000Z</time>
      </trkpt>
      <trkpt lat="27.961414" lon="86.81904">
        <ele>5024.8</ele>
        <time>2022-10-27T07:48:59.000Z</time>
      </trkpt>
      <trkpt lat="27.961402" lon="86.819021">
        <ele>5024.4</ele>
        <time>2022-10-27T07:49:01.000Z</time>
      </trkpt>
      <trkpt lat="27.961379" lon="86.819014">
        <ele>5024.4</ele>
        <time>2022-10-27T07:49:04.000Z</time>
      </trkpt>
      <trkpt lat="27.96136" lon="86.819008">
        <ele>5024.2</ele>
        <time>2022-10-27T07:49:06.000Z</time>
      </trkpt>
      <trkpt lat="27.961338" lon="86.818982">
        <ele>5024.2</ele>
        <time>2022-10-27T07:49:09.000Z</time>
      </trkpt>
      <trkpt lat="27.961318" lon="86.818976">
        <ele>5024.2</ele>
        <time>2022-10-27T07:49:11.000Z</time>
      </trkpt>
      <trkpt lat="27.961293" lon="86.81897">
        <ele>5023.8</ele>
        <time>2022-10-27T07:49:13.000Z</time>
      </trkpt>
      <trkpt lat="27.96127" lon="86.81897">
        <ele>5023.8</ele>
        <time>2022-10-27T07:49:15.000Z</time>
      </trkpt>
      <trkpt lat="27.961248" lon="86.81897">
        <ele>5024</ele>
        <time>2022-10-27T07:49:17.000Z</time>
      </trkpt>
      <trkpt lat="27.961229" lon="86.818963">
        <ele>5023.6</ele>
        <time>2022-10-27T07:49:19.000Z</time>
      </trkpt>
      <trkpt lat="27.96121" lon="86.818944">
        <ele>5023.4</ele>
        <time>2022-10-27T07:49:21.000Z</time>
      </trkpt>
      <trkpt lat="27.96119" lon="86.818938">
        <ele>5023.4</ele>
        <time>2022-10-27T07:49:23.000Z</time>
      </trkpt>
      <trkpt lat="27.961171" lon="86.818931">
        <ele>5023.2</ele>
        <time>2022-10-27T07:49:25.000Z</time>
      </trkpt>
      <trkpt lat="27.961152" lon="86.818931">
        <ele>5023.2</ele>
        <time>2022-10-27T07:49:27.000Z</time>
      </trkpt>
      <trkpt lat="27.96113" lon="86.818918">
        <ele>5023.2</ele>
        <time>2022-10-27T07:49:29.000Z</time>
      </trkpt>
      <trkpt lat="27.961107" lon="86.818918">
        <ele>5023.2</ele>
        <time>2022-10-27T07:49:31.000Z</time>
      </trkpt>
      <trkpt lat="27.961082" lon="86.818925">
        <ele>5023.2</ele>
        <time>2022-10-27T07:49:33.000Z</time>
      </trkpt>
      <trkpt lat="27.961062" lon="86.818918">
        <ele>5022.8</ele>
        <time>2022-10-27T07:49:35.000Z</time>
      </trkpt>
      <trkpt lat="27.961043" lon="86.818918">
        <ele>5022.6</ele>
        <time>2022-10-27T07:49:37.000Z</time>
      </trkpt>
      <trkpt lat="27.961018" lon="86.818918">
        <ele>5022.6</ele>
        <time>2022-10-27T07:49:39.000Z</time>
      </trkpt>
      <trkpt lat="27.960998" lon="86.818906">
        <ele>5022.6</ele>
        <time>2022-10-27T07:49:41.000Z</time>
      </trkpt>
      <trkpt lat="27.960979" lon="86.818899">
        <ele>5022.6</ele>
        <time>2022-10-27T07:49:43.000Z</time>
      </trkpt>
      <trkpt lat="27.96096" lon="86.818886">
        <ele>5022.6</ele>
        <time>2022-10-27T07:49:46.000Z</time>
      </trkpt>
      <trkpt lat="27.960938" lon="86.81888">
        <ele>5023.2</ele>
        <time>2022-10-27T07:49:48.000Z</time>
      </trkpt>
      <trkpt lat="27.960918" lon="86.818874">
        <ele>5023.2</ele>
        <time>2022-10-27T07:49:50.000Z</time>
      </trkpt>
      <trkpt lat="27.960902" lon="86.818854">
        <ele>5022.8</ele>
        <time>2022-10-27T07:49:52.000Z</time>
      </trkpt>
      <trkpt lat="27.960883" lon="86.818842">
        <ele>5022.6</ele>
        <time>2022-10-27T07:49:54.000Z</time>
      </trkpt>
      <trkpt lat="27.960864" lon="86.818822">
        <ele>5022.8</ele>
        <time>2022-10-27T07:49:56.000Z</time>
      </trkpt>
      <trkpt lat="27.960845" lon="86.818816">
        <ele>5022.8</ele>
        <time>2022-10-27T07:49:58.000Z</time>
      </trkpt>
      <trkpt lat="27.960826" lon="86.818803">
        <ele>5022.6</ele>
        <time>2022-10-27T07:50:00.000Z</time>
      </trkpt>
      <trkpt lat="27.960813" lon="86.818784">
        <ele>5022.2</ele>
        <time>2022-10-27T07:50:02.000Z</time>
      </trkpt>
      <trkpt lat="27.960797" lon="86.818765">
        <ele>5022.2</ele>
        <time>2022-10-27T07:50:04.000Z</time>
      </trkpt>
      <trkpt lat="27.960778" lon="86.818758">
        <ele>5022</ele>
        <time>2022-10-27T07:50:06.000Z</time>
      </trkpt>
      <trkpt lat="27.960758" lon="86.818739">
        <ele>5022.2</ele>
        <time>2022-10-27T07:50:08.000Z</time>
      </trkpt>
      <trkpt lat="27.960742" lon="86.818726">
        <ele>5022.2</ele>
        <time>2022-10-27T07:50:10.000Z</time>
      </trkpt>
      <trkpt lat="27.960733" lon="86.818707">
        <ele>5022</ele>
        <time>2022-10-27T07:50:12.000Z</time>
      </trkpt>
      <trkpt lat="27.960717" lon="86.818688">
        <ele>5022.2</ele>
        <time>2022-10-27T07:50:17.000Z</time>
      </trkpt>
      <trkpt lat="27.960698" lon="86.818682">
        <ele>5022.2</ele>
        <time>2022-10-27T07:50:20.000Z</time>
      </trkpt>
      <trkpt lat="27.960675" lon="86.818675">
        <ele>5022</ele>
        <time>2022-10-27T07:50:23.000Z</time>
      </trkpt>
      <trkpt lat="27.960659" lon="86.818656">
        <ele>5021.6</ele>
        <time>2022-10-27T07:50:25.000Z</time>
      </trkpt>
      <trkpt lat="27.960643" lon="86.818643">
        <ele>5021</ele>
        <time>2022-10-27T07:50:27.000Z</time>
      </trkpt>
      <trkpt lat="27.960627" lon="86.818624">
        <ele>5021</ele>
        <time>2022-10-27T07:50:29.000Z</time>
      </trkpt>
      <trkpt lat="27.960602" lon="86.818618">
        <ele>5020.8</ele>
        <time>2022-10-27T07:50:32.000Z</time>
      </trkpt>
      <trkpt lat="27.960582" lon="86.818611">
        <ele>5020.6</ele>
        <time>2022-10-27T07:50:34.000Z</time>
      </trkpt>
      <trkpt lat="27.960557" lon="86.818605">
        <ele>5020.2</ele>
        <time>2022-10-27T07:50:36.000Z</time>
      </trkpt>
      <trkpt lat="27.960538" lon="86.818586">
        <ele>5020.2</ele>
        <time>2022-10-27T07:50:38.000Z</time>
      </trkpt>
      <trkpt lat="27.960518" lon="86.818586">
        <ele>5020.2</ele>
        <time>2022-10-27T07:50:40.000Z</time>
      </trkpt>
      <trkpt lat="27.960499" lon="86.818579">
        <ele>5020</ele>
        <time>2022-10-27T07:50:42.000Z</time>
      </trkpt>
      <trkpt lat="27.960477" lon="86.818573">
        <ele>5020</ele>
        <time>2022-10-27T07:50:44.000Z</time>
      </trkpt>
      <trkpt lat="27.960458" lon="86.818573">
        <ele>5019.4</ele>
        <time>2022-10-27T07:50:46.000Z</time>
      </trkpt>
      <trkpt lat="27.960435" lon="86.818566">
        <ele>5019</ele>
        <time>2022-10-27T07:50:48.000Z</time>
      </trkpt>
      <trkpt lat="27.960416" lon="86.81856">
        <ele>5019</ele>
        <time>2022-10-27T07:50:50.000Z</time>
      </trkpt>
      <trkpt lat="27.960397" lon="86.818547">
        <ele>5019.4</ele>
        <time>2022-10-27T07:50:52.000Z</time>
      </trkpt>
      <trkpt lat="27.960378" lon="86.818541">
        <ele>5019</ele>
        <time>2022-10-27T07:50:54.000Z</time>
      </trkpt>
      <trkpt lat="27.960355" lon="86.818534">
        <ele>5019</ele>
        <time>2022-10-27T07:50:56.000Z</time>
      </trkpt>
      <trkpt lat="27.960339" lon="86.818522">
        <ele>5018.8</ele>
        <time>2022-10-27T07:50:58.000Z</time>
      </trkpt>
      <trkpt lat="27.960317" lon="86.818502">
        <ele>5018.4</ele>
        <time>2022-10-27T07:51:00.000Z</time>
      </trkpt>
      <trkpt lat="27.960298" lon="86.818496">
        <ele>5018.8</ele>
        <time>2022-10-27T07:51:02.000Z</time>
      </trkpt>
      <trkpt lat="27.960278" lon="86.81849">
        <ele>5018.8</ele>
        <time>2022-10-27T07:51:04.000Z</time>
      </trkpt>
      <trkpt lat="27.960256" lon="86.818483">
        <ele>5018.4</ele>
        <time>2022-10-27T07:51:06.000Z</time>
      </trkpt>
      <trkpt lat="27.960237" lon="86.818477">
        <ele>5018.8</ele>
        <time>2022-10-27T07:51:08.000Z</time>
      </trkpt>
      <trkpt lat="27.960218" lon="86.818464">
        <ele>5018.4</ele>
        <time>2022-10-27T07:51:10.000Z</time>
      </trkpt>
      <trkpt lat="27.960198" lon="86.818445">
        <ele>5018.2</ele>
        <time>2022-10-27T07:51:12.000Z</time>
      </trkpt>
      <trkpt lat="27.960176" lon="86.818426">
        <ele>5018.2</ele>
        <time>2022-10-27T07:51:15.000Z</time>
      </trkpt>
      <trkpt lat="27.960157" lon="86.818426">
        <ele>5018.2</ele>
        <time>2022-10-27T07:51:17.000Z</time>
      </trkpt>
      <trkpt lat="27.960138" lon="86.818419">
        <ele>5018</ele>
        <time>2022-10-27T07:51:19.000Z</time>
      </trkpt>
      <trkpt lat="27.960118" lon="86.818406">
        <ele>5018</ele>
        <time>2022-10-27T07:51:21.000Z</time>
      </trkpt>
      <trkpt lat="27.960102" lon="86.818387">
        <ele>5018</ele>
        <time>2022-10-27T07:51:23.000Z</time>
      </trkpt>
      <trkpt lat="27.960077" lon="86.818374">
        <ele>5017.8</ele>
        <time>2022-10-27T07:51:26.000Z</time>
      </trkpt>
      <trkpt lat="27.960058" lon="86.818368">
        <ele>5017.2</ele>
        <time>2022-10-27T07:51:28.000Z</time>
      </trkpt>
      <trkpt lat="27.960038" lon="86.818368">
        <ele>5017.2</ele>
        <time>2022-10-27T07:51:30.000Z</time>
      </trkpt>
      <trkpt lat="27.960019" lon="86.818349">
        <ele>5017.2</ele>
        <time>2022-10-27T07:51:32.000Z</time>
      </trkpt>
      <trkpt lat="27.959994" lon="86.818336">
        <ele>5017.4</ele>
        <time>2022-10-27T07:51:35.000Z</time>
      </trkpt>
      <trkpt lat="27.959974" lon="86.818336">
        <ele>5017.4</ele>
        <time>2022-10-27T07:51:37.000Z</time>
      </trkpt>
      <trkpt lat="27.959952" lon="86.81833">
        <ele>5017.2</ele>
        <time>2022-10-27T07:51:39.000Z</time>
      </trkpt>
      <trkpt lat="27.959933" lon="86.81833">
        <ele>5017.2</ele>
        <time>2022-10-27T07:51:41.000Z</time>
      </trkpt>
      <trkpt lat="27.959917" lon="86.81831">
        <ele>5016.8</ele>
        <time>2022-10-27T07:51:43.000Z</time>
      </trkpt>
      <trkpt lat="27.959898" lon="86.818304">
        <ele>5016.8</ele>
        <time>2022-10-27T07:51:45.000Z</time>
      </trkpt>
      <trkpt lat="27.959878" lon="86.818304">
        <ele>5016.8</ele>
        <time>2022-10-27T07:51:47.000Z</time>
      </trkpt>
      <trkpt lat="27.959856" lon="86.818298">
        <ele>5016.8</ele>
        <time>2022-10-27T07:51:49.000Z</time>
      </trkpt>
      <trkpt lat="27.95984" lon="86.818285">
        <ele>5016.8</ele>
        <time>2022-10-27T07:51:51.000Z</time>
      </trkpt>
      <trkpt lat="27.95983" lon="86.818266">
        <ele>5016.8</ele>
        <time>2022-10-27T07:51:52.000Z</time>
      </trkpt>
      <trkpt lat="27.959814" lon="86.818253">
        <ele>5016.6</ele>
        <time>2022-10-27T07:51:54.000Z</time>
      </trkpt>
      <trkpt lat="27.959792" lon="86.818253">
        <ele>5016.6</ele>
        <time>2022-10-27T07:51:56.000Z</time>
      </trkpt>
      <trkpt lat="27.95977" lon="86.818246">
        <ele>5016</ele>
        <time>2022-10-27T07:51:58.000Z</time>
      </trkpt>
      <trkpt lat="27.95975" lon="86.818246">
        <ele>5016.2</ele>
        <time>2022-10-27T07:52:00.000Z</time>
      </trkpt>
      <trkpt lat="27.959734" lon="86.818227">
        <ele>5016.6</ele>
        <time>2022-10-27T07:52:02.000Z</time>
      </trkpt>
      <trkpt lat="27.959712" lon="86.818221">
        <ele>5016.4</ele>
        <time>2022-10-27T07:52:05.000Z</time>
      </trkpt>
      <trkpt lat="27.95968" lon="86.818221">
        <ele>5015</ele>
        <time>2022-10-27T07:53:38.000Z</time>
      </trkpt>
      <trkpt lat="27.959661" lon="86.818202">
        <ele>5015.2</ele>
        <time>2022-10-27T07:53:40.000Z</time>
      </trkpt>
      <trkpt lat="27.959635" lon="86.818182">
        <ele>5015.2</ele>
        <time>2022-10-27T07:53:42.000Z</time>
      </trkpt>
      <trkpt lat="27.959613" lon="86.81817">
        <ele>5015</ele>
        <time>2022-10-27T07:53:44.000Z</time>
      </trkpt>
      <trkpt lat="27.959603" lon="86.81815">
        <ele>5015</ele>
        <time>2022-10-27T07:53:45.000Z</time>
      </trkpt>
      <trkpt lat="27.959578" lon="86.818138">
        <ele>5014.8</ele>
        <time>2022-10-27T07:53:47.000Z</time>
      </trkpt>
      <trkpt lat="27.959555" lon="86.818131">
        <ele>5014.4</ele>
        <time>2022-10-27T07:53:49.000Z</time>
      </trkpt>
      <trkpt lat="27.959536" lon="86.818125">
        <ele>5015</ele>
        <time>2022-10-27T07:53:51.000Z</time>
      </trkpt>
      <trkpt lat="27.95952" lon="86.818099">
        <ele>5015</ele>
        <time>2022-10-27T07:53:53.000Z</time>
      </trkpt>
      <trkpt lat="27.959504" lon="86.81808">
        <ele>5014.4</ele>
        <time>2022-10-27T07:53:56.000Z</time>
      </trkpt>
      <trkpt lat="27.959485" lon="86.81808">
        <ele>5014.8</ele>
        <time>2022-10-27T07:54:39.000Z</time>
      </trkpt>
      <trkpt lat="27.959462" lon="86.818061">
        <ele>5014.2</ele>
        <time>2022-10-27T07:54:41.000Z</time>
      </trkpt>
      <trkpt lat="27.959437" lon="86.818048">
        <ele>5014</ele>
        <time>2022-10-27T07:54:43.000Z</time>
      </trkpt>
      <trkpt lat="27.959414" lon="86.818029">
        <ele>5014</ele>
        <time>2022-10-27T07:54:45.000Z</time>
      </trkpt>
      <trkpt lat="27.959392" lon="86.818016">
        <ele>5014</ele>
        <time>2022-10-27T07:54:47.000Z</time>
      </trkpt>
      <trkpt lat="27.959376" lon="86.818003">
        <ele>5014</ele>
        <time>2022-10-27T07:54:49.000Z</time>
      </trkpt>
      <trkpt lat="27.959363" lon="86.817978">
        <ele>5013.6</ele>
        <time>2022-10-27T07:54:51.000Z</time>
      </trkpt>
      <trkpt lat="27.959347" lon="86.817965">
        <ele>5013.6</ele>
        <time>2022-10-27T07:54:53.000Z</time>
      </trkpt>
      <trkpt lat="27.959328" lon="86.817952">
        <ele>5013</ele>
        <time>2022-10-27T07:54:55.000Z</time>
      </trkpt>
      <trkpt lat="27.959312" lon="86.817939">
        <ele>5013</ele>
        <time>2022-10-27T07:54:57.000Z</time>
      </trkpt>
      <trkpt lat="27.95929" lon="86.817939">
        <ele>5012.4</ele>
        <time>2022-10-27T07:54:59.000Z</time>
      </trkpt>
      <trkpt lat="27.959245" lon="86.817926">
        <ele>5012.8</ele>
        <time>2022-10-27T07:55:03.000Z</time>
      </trkpt>
      <trkpt lat="27.959222" lon="86.817907">
        <ele>5012.4</ele>
        <time>2022-10-27T07:55:05.000Z</time>
      </trkpt>
      <trkpt lat="27.959203" lon="86.817894">
        <ele>5012.4</ele>
        <time>2022-10-27T07:55:07.000Z</time>
      </trkpt>
      <trkpt lat="27.959181" lon="86.817888">
        <ele>5012.2</ele>
        <time>2022-10-27T07:55:09.000Z</time>
      </trkpt>
      <trkpt lat="27.959165" lon="86.817869">
        <ele>5012.2</ele>
        <time>2022-10-27T07:55:11.000Z</time>
      </trkpt>
      <trkpt lat="27.959146" lon="86.817856">
        <ele>5013</ele>
        <time>2022-10-27T07:55:13.000Z</time>
      </trkpt>
      <trkpt lat="27.959123" lon="86.817843">
        <ele>5013</ele>
        <time>2022-10-27T07:55:15.000Z</time>
      </trkpt>
      <trkpt lat="27.959104" lon="86.81783">
        <ele>5012.2</ele>
        <time>2022-10-27T07:55:17.000Z</time>
      </trkpt>
      <trkpt lat="27.959088" lon="86.817818">
        <ele>5011.4</ele>
        <time>2022-10-27T07:55:19.000Z</time>
      </trkpt>
      <trkpt lat="27.959066" lon="86.817811">
        <ele>5011.4</ele>
        <time>2022-10-27T07:55:21.000Z</time>
      </trkpt>
      <trkpt lat="27.959043" lon="86.817792">
        <ele>5011.2</ele>
        <time>2022-10-27T07:55:23.000Z</time>
      </trkpt>
      <trkpt lat="27.958998" lon="86.817779">
        <ele>5011.6</ele>
        <time>2022-10-27T07:55:27.000Z</time>
      </trkpt>
      <trkpt lat="27.958973" lon="86.817773">
        <ele>5011.6</ele>
        <time>2022-10-27T07:55:29.000Z</time>
      </trkpt>
      <trkpt lat="27.95895" lon="86.817766">
        <ele>5011.6</ele>
        <time>2022-10-27T07:55:31.000Z</time>
      </trkpt>
      <trkpt lat="27.958931" lon="86.817754">
        <ele>5011.2</ele>
        <time>2022-10-27T07:55:33.000Z</time>
      </trkpt>
      <trkpt lat="27.958909" lon="86.817747">
        <ele>5011.2</ele>
        <time>2022-10-27T07:55:35.000Z</time>
      </trkpt>
      <trkpt lat="27.958886" lon="86.817741">
        <ele>5011.6</ele>
        <time>2022-10-27T07:55:37.000Z</time>
      </trkpt>
      <trkpt lat="27.958867" lon="86.817741">
        <ele>5011.6</ele>
        <time>2022-10-27T07:55:39.000Z</time>
      </trkpt>
      <trkpt lat="27.958845" lon="86.817747">
        <ele>5011.6</ele>
        <time>2022-10-27T07:55:41.000Z</time>
      </trkpt>
      <trkpt lat="27.958826" lon="86.817747">
        <ele>5011.8</ele>
        <time>2022-10-27T07:55:43.000Z</time>
      </trkpt>
      <trkpt lat="27.958803" lon="86.817747">
        <ele>5012</ele>
        <time>2022-10-27T07:55:45.000Z</time>
      </trkpt>
      <trkpt lat="27.958781" lon="86.817741">
        <ele>5011.8</ele>
        <time>2022-10-27T07:55:47.000Z</time>
      </trkpt>
      <trkpt lat="27.958752" lon="86.817734">
        <ele>5011</ele>
        <time>2022-10-27T07:55:50.000Z</time>
      </trkpt>
      <trkpt lat="27.95873" lon="86.817728">
        <ele>5011</ele>
        <time>2022-10-27T07:55:52.000Z</time>
      </trkpt>
      <trkpt lat="27.95871" lon="86.817722">
        <ele>5011</ele>
        <time>2022-10-27T07:55:54.000Z</time>
      </trkpt>
      <trkpt lat="27.958688" lon="86.817709">
        <ele>5010.6</ele>
        <time>2022-10-27T07:55:56.000Z</time>
      </trkpt>
      <trkpt lat="27.958662" lon="86.817696">
        <ele>5010.4</ele>
        <time>2022-10-27T07:55:58.000Z</time>
      </trkpt>
      <trkpt lat="27.958643" lon="86.81769">
        <ele>5010</ele>
        <time>2022-10-27T07:56:00.000Z</time>
      </trkpt>
      <trkpt lat="27.958621" lon="86.81767">
        <ele>5010.4</ele>
        <time>2022-10-27T07:56:02.000Z</time>
      </trkpt>
      <trkpt lat="27.958598" lon="86.817664">
        <ele>5010</ele>
        <time>2022-10-27T07:56:04.000Z</time>
      </trkpt>
      <trkpt lat="27.958576" lon="86.817664">
        <ele>5009.8</ele>
        <time>2022-10-27T07:56:06.000Z</time>
      </trkpt>
      <trkpt lat="27.958557" lon="86.817658">
        <ele>5010</ele>
        <time>2022-10-27T07:56:08.000Z</time>
      </trkpt>
      <trkpt lat="27.958534" lon="86.817651">
        <ele>5010</ele>
        <time>2022-10-27T07:56:10.000Z</time>
      </trkpt>
      <trkpt lat="27.958512" lon="86.817632">
        <ele>5010</ele>
        <time>2022-10-27T07:56:12.000Z</time>
      </trkpt>
      <trkpt lat="27.958493" lon="86.817619">
        <ele>5010</ele>
        <time>2022-10-27T07:56:14.000Z</time>
      </trkpt>
      <trkpt lat="27.958474" lon="86.817594">
        <ele>5010</ele>
        <time>2022-10-27T07:56:16.000Z</time>
      </trkpt>
      <trkpt lat="27.958448" lon="86.817581">
        <ele>5009.4</ele>
        <time>2022-10-27T07:56:19.000Z</time>
      </trkpt>
      <trkpt lat="27.958429" lon="86.817568">
        <ele>5009.2</ele>
        <time>2022-10-27T07:56:21.000Z</time>
      </trkpt>
      <trkpt lat="27.958406" lon="86.817549">
        <ele>5008.8</ele>
        <time>2022-10-27T07:56:23.000Z</time>
      </trkpt>
      <trkpt lat="27.95839" lon="86.817536">
        <ele>5009.2</ele>
        <time>2022-10-27T07:56:25.000Z</time>
      </trkpt>
      <trkpt lat="27.958371" lon="86.817523">
        <ele>5009.2</ele>
        <time>2022-10-27T07:56:27.000Z</time>
      </trkpt>
      <trkpt lat="27.958362" lon="86.817504">
        <ele>5009.2</ele>
        <time>2022-10-27T07:56:28.000Z</time>
      </trkpt>
      <trkpt lat="27.958342" lon="86.817491">
        <ele>5008.8</ele>
        <time>2022-10-27T07:56:30.000Z</time>
      </trkpt>
      <trkpt lat="27.958323" lon="86.817466">
        <ele>5008.6</ele>
        <time>2022-10-27T07:56:32.000Z</time>
      </trkpt>
      <trkpt lat="27.958304" lon="86.817453">
        <ele>5008.4</ele>
        <time>2022-10-27T07:56:34.000Z</time>
      </trkpt>
      <trkpt lat="27.958285" lon="86.817434">
        <ele>5008.4</ele>
        <time>2022-10-27T07:56:36.000Z</time>
      </trkpt>
      <trkpt lat="27.958259" lon="86.817421">
        <ele>5008.4</ele>
        <time>2022-10-27T07:56:39.000Z</time>
      </trkpt>
      <trkpt lat="27.95824" lon="86.817414">
        <ele>5008.4</ele>
        <time>2022-10-27T07:56:41.000Z</time>
      </trkpt>
      <trkpt lat="27.958214" lon="86.817408">
        <ele>5008</ele>
        <time>2022-10-27T07:56:43.000Z</time>
      </trkpt>
      <trkpt lat="27.958195" lon="86.817395">
        <ele>5008</ele>
        <time>2022-10-27T07:56:45.000Z</time>
      </trkpt>
      <trkpt lat="27.958173" lon="86.817382">
        <ele>5007.8</ele>
        <time>2022-10-27T07:56:47.000Z</time>
      </trkpt>
      <trkpt lat="27.95815" lon="86.817376">
        <ele>5007.8</ele>
        <time>2022-10-27T07:56:49.000Z</time>
      </trkpt>
      <trkpt lat="27.958131" lon="86.81737">
        <ele>5007.4</ele>
        <time>2022-10-27T07:56:51.000Z</time>
      </trkpt>
      <trkpt lat="27.958109" lon="86.817357">
        <ele>5007.8</ele>
        <time>2022-10-27T07:56:53.000Z</time>
      </trkpt>
      <trkpt lat="27.958086" lon="86.81735">
        <ele>5007.8</ele>
        <time>2022-10-27T07:56:55.000Z</time>
      </trkpt>
      <trkpt lat="27.958067" lon="86.817338">
        <ele>5007.4</ele>
        <time>2022-10-27T07:56:57.000Z</time>
      </trkpt>
      <trkpt lat="27.958045" lon="86.817338">
        <ele>5007.8</ele>
        <time>2022-10-27T07:56:59.000Z</time>
      </trkpt>
      <trkpt lat="27.958022" lon="86.817331">
        <ele>5007.2</ele>
        <time>2022-10-27T07:57:01.000Z</time>
      </trkpt>
      <trkpt lat="27.958" lon="86.817325">
        <ele>5007.2</ele>
        <time>2022-10-27T07:57:03.000Z</time>
      </trkpt>
      <trkpt lat="27.957981" lon="86.817325">
        <ele>5007.2</ele>
        <time>2022-10-27T07:57:05.000Z</time>
      </trkpt>
      <trkpt lat="27.957965" lon="86.817312">
        <ele>5007.2</ele>
        <time>2022-10-27T07:57:06.000Z</time>
      </trkpt>
      <trkpt lat="27.957942" lon="86.817306">
        <ele>5007</ele>
        <time>2022-10-27T07:57:08.000Z</time>
      </trkpt>
      <trkpt lat="27.957923" lon="86.817299">
        <ele>5006.8</ele>
        <time>2022-10-27T07:57:10.000Z</time>
      </trkpt>
      <trkpt lat="27.957898" lon="86.817293">
        <ele>5006.8</ele>
        <time>2022-10-27T07:57:12.000Z</time>
      </trkpt>
      <trkpt lat="27.957875" lon="86.817286">
        <ele>5007.2</ele>
        <time>2022-10-27T07:57:14.000Z</time>
      </trkpt>
      <trkpt lat="27.957859" lon="86.817274">
        <ele>5006.8</ele>
        <time>2022-10-27T07:57:17.000Z</time>
      </trkpt>
      <trkpt lat="27.957834" lon="86.817261">
        <ele>5006.8</ele>
        <time>2022-10-27T07:57:22.000Z</time>
      </trkpt>
      <trkpt lat="27.957808" lon="86.817254">
        <ele>5006.8</ele>
        <time>2022-10-27T07:57:25.000Z</time>
      </trkpt>
      <trkpt lat="27.957786" lon="86.817248">
        <ele>5006.4</ele>
        <time>2022-10-27T07:57:27.000Z</time>
      </trkpt>
      <trkpt lat="27.957766" lon="86.817235">
        <ele>5006.4</ele>
        <time>2022-10-27T07:57:29.000Z</time>
      </trkpt>
      <trkpt lat="27.957744" lon="86.817229">
        <ele>5006</ele>
        <time>2022-10-27T07:57:31.000Z</time>
      </trkpt>
      <trkpt lat="27.957718" lon="86.817235">
        <ele>5006</ele>
        <time>2022-10-27T07:57:33.000Z</time>
      </trkpt>
      <trkpt lat="27.957699" lon="86.817235">
        <ele>5006</ele>
        <time>2022-10-27T07:57:35.000Z</time>
      </trkpt>
      <trkpt lat="27.957677" lon="86.817229">
        <ele>5006</ele>
        <time>2022-10-27T07:57:37.000Z</time>
      </trkpt>
      <trkpt lat="27.957654" lon="86.817222">
        <ele>5005.8</ele>
        <time>2022-10-27T07:57:39.000Z</time>
      </trkpt>
      <trkpt lat="27.957629" lon="86.817222">
        <ele>5005.8</ele>
        <time>2022-10-27T07:57:41.000Z</time>
      </trkpt>
      <trkpt lat="27.95761" lon="86.817222">
        <ele>5005.8</ele>
        <time>2022-10-27T07:57:43.000Z</time>
      </trkpt>
      <trkpt lat="27.957584" lon="86.817229">
        <ele>5005.8</ele>
        <time>2022-10-27T07:57:45.000Z</time>
      </trkpt>
      <trkpt lat="27.957565" lon="86.817229">
        <ele>5005.6</ele>
        <time>2022-10-27T07:57:47.000Z</time>
      </trkpt>
      <trkpt lat="27.957536" lon="86.817222">
        <ele>5005.4</ele>
        <time>2022-10-27T07:57:49.000Z</time>
      </trkpt>
      <trkpt lat="27.957517" lon="86.817222">
        <ele>5005.4</ele>
        <time>2022-10-27T07:57:51.000Z</time>
      </trkpt>
      <trkpt lat="27.957494" lon="86.817222">
        <ele>5005.2</ele>
        <time>2022-10-27T07:57:53.000Z</time>
      </trkpt>
      <trkpt lat="27.957469" lon="86.817216">
        <ele>5004.8</ele>
        <time>2022-10-27T07:57:55.000Z</time>
      </trkpt>
      <trkpt lat="27.95745" lon="86.81721">
        <ele>5004.8</ele>
        <time>2022-10-27T07:57:57.000Z</time>
      </trkpt>
      <trkpt lat="27.957427" lon="86.817197">
        <ele>5004.8</ele>
        <time>2022-10-27T07:57:59.000Z</time>
      </trkpt>
      <trkpt lat="27.957408" lon="86.81719">
        <ele>5004.8</ele>
        <time>2022-10-27T07:58:01.000Z</time>
      </trkpt>
      <trkpt lat="27.957386" lon="86.817184">
        <ele>5004.6</ele>
        <time>2022-10-27T07:58:03.000Z</time>
      </trkpt>
      <trkpt lat="27.95736" lon="86.817178">
        <ele>5004</ele>
        <time>2022-10-27T07:58:05.000Z</time>
      </trkpt>
      <trkpt lat="27.957341" lon="86.817171">
        <ele>5003.8</ele>
        <time>2022-10-27T07:58:07.000Z</time>
      </trkpt>
      <trkpt lat="27.957312" lon="86.817158">
        <ele>5004</ele>
        <time>2022-10-27T07:58:09.000Z</time>
      </trkpt>
      <trkpt lat="27.95728" lon="86.817152">
        <ele>5004</ele>
        <time>2022-10-27T07:58:12.000Z</time>
      </trkpt>
      <trkpt lat="27.957261" lon="86.817139">
        <ele>5004</ele>
        <time>2022-10-27T07:58:14.000Z</time>
      </trkpt>
      <trkpt lat="27.957238" lon="86.817133">
        <ele>5004</ele>
        <time>2022-10-27T07:58:16.000Z</time>
      </trkpt>
      <trkpt lat="27.957219" lon="86.817114">
        <ele>5003.2</ele>
        <time>2022-10-27T07:58:18.000Z</time>
      </trkpt>
      <trkpt lat="27.95719" lon="86.817114">
        <ele>5003.4</ele>
        <time>2022-10-27T07:58:21.000Z</time>
      </trkpt>
      <trkpt lat="27.957171" lon="86.817126">
        <ele>5003.2</ele>
        <time>2022-10-27T07:58:23.000Z</time>
      </trkpt>
      <trkpt lat="27.957149" lon="86.817133">
        <ele>5003.2</ele>
        <time>2022-10-27T07:58:25.000Z</time>
      </trkpt>
      <trkpt lat="27.95713" lon="86.817114">
        <ele>5003.2</ele>
        <time>2022-10-27T07:58:28.000Z</time>
      </trkpt>
      <trkpt lat="27.957114" lon="86.817101">
        <ele>5002.6</ele>
        <time>2022-10-27T07:58:30.000Z</time>
      </trkpt>
      <trkpt lat="27.957094" lon="86.817094">
        <ele>5001.4</ele>
        <time>2022-10-27T07:58:33.000Z</time>
      </trkpt>
      <trkpt lat="27.957069" lon="86.817075">
        <ele>5001</ele>
        <time>2022-10-27T07:58:36.000Z</time>
      </trkpt>
      <trkpt lat="27.957043" lon="86.817069">
        <ele>5001</ele>
        <time>2022-10-27T07:58:39.000Z</time>
      </trkpt>
      <trkpt lat="27.957024" lon="86.817062">
        <ele>5001.4</ele>
        <time>2022-10-27T07:58:41.000Z</time>
      </trkpt>
      <trkpt lat="27.957002" lon="86.817056">
        <ele>5001.2</ele>
        <time>2022-10-27T07:58:43.000Z</time>
      </trkpt>
      <trkpt lat="27.956979" lon="86.81703">
        <ele>5000.8</ele>
        <time>2022-10-27T07:58:45.000Z</time>
      </trkpt>
      <trkpt lat="27.956963" lon="86.817011">
        <ele>5000.6</ele>
        <time>2022-10-27T07:58:48.000Z</time>
      </trkpt>
      <trkpt lat="27.956963" lon="86.816986">
        <ele>5000.4</ele>
        <time>2022-10-27T07:58:50.000Z</time>
      </trkpt>
      <trkpt lat="27.95696" lon="86.81696">
        <ele>5000.4</ele>
        <time>2022-10-27T07:58:52.000Z</time>
      </trkpt>
      <trkpt lat="27.956938" lon="86.816947">
        <ele>4999.2</ele>
        <time>2022-10-27T07:58:56.000Z</time>
      </trkpt>
      <trkpt lat="27.956931" lon="86.816928">
        <ele>4999</ele>
        <time>2022-10-27T07:58:58.000Z</time>
      </trkpt>
      <trkpt lat="27.956918" lon="86.816909">
        <ele>4998.2</ele>
        <time>2022-10-27T07:59:00.000Z</time>
      </trkpt>
      <trkpt lat="27.956896" lon="86.816896">
        <ele>4997.6</ele>
        <time>2022-10-27T07:59:02.000Z</time>
      </trkpt>
      <trkpt lat="27.956867" lon="86.816877">
        <ele>4997.2</ele>
        <time>2022-10-27T07:59:05.000Z</time>
      </trkpt>
      <trkpt lat="27.956845" lon="86.816877">
        <ele>4997.2</ele>
        <time>2022-10-27T07:59:07.000Z</time>
      </trkpt>
      <trkpt lat="27.956822" lon="86.81687">
        <ele>4997.2</ele>
        <time>2022-10-27T07:59:09.000Z</time>
      </trkpt>
      <trkpt lat="27.9568" lon="86.816864">
        <ele>4996.8</ele>
        <time>2022-10-27T07:59:11.000Z</time>
      </trkpt>
      <trkpt lat="27.956781" lon="86.816851">
        <ele>4996.2</ele>
        <time>2022-10-27T07:59:13.000Z</time>
      </trkpt>
      <trkpt lat="27.956755" lon="86.816832">
        <ele>4996.2</ele>
        <time>2022-10-27T07:59:15.000Z</time>
      </trkpt>
      <trkpt lat="27.956736" lon="86.816826">
        <ele>4995.8</ele>
        <time>2022-10-27T07:59:17.000Z</time>
      </trkpt>
      <trkpt lat="27.956714" lon="86.816813">
        <ele>4995.8</ele>
        <time>2022-10-27T07:59:19.000Z</time>
      </trkpt>
      <trkpt lat="27.956698" lon="86.816794">
        <ele>4996.2</ele>
        <time>2022-10-27T07:59:21.000Z</time>
      </trkpt>
      <trkpt lat="27.956682" lon="86.816781">
        <ele>4994.6</ele>
        <time>2022-10-27T07:59:23.000Z</time>
      </trkpt>
      <trkpt lat="27.956662" lon="86.816768">
        <ele>4994.8</ele>
        <time>2022-10-27T07:59:25.000Z</time>
      </trkpt>
      <trkpt lat="27.956646" lon="86.816755">
        <ele>4994.6</ele>
        <time>2022-10-27T07:59:27.000Z</time>
      </trkpt>
      <trkpt lat="27.956624" lon="86.816749">
        <ele>4995.4</ele>
        <time>2022-10-27T07:59:29.000Z</time>
      </trkpt>
      <trkpt lat="27.956605" lon="86.816742">
        <ele>4995.6</ele>
        <time>2022-10-27T07:59:31.000Z</time>
      </trkpt>
      <trkpt lat="27.956586" lon="86.81673">
        <ele>4996.8</ele>
        <time>2022-10-27T07:59:33.000Z</time>
      </trkpt>
      <trkpt lat="27.956566" lon="86.816717">
        <ele>4995.8</ele>
        <time>2022-10-27T07:59:35.000Z</time>
      </trkpt>
      <trkpt lat="27.956547" lon="86.81671">
        <ele>4996.2</ele>
        <time>2022-10-27T07:59:37.000Z</time>
      </trkpt>
      <trkpt lat="27.956531" lon="86.816698">
        <ele>4995.6</ele>
        <time>2022-10-27T07:59:39.000Z</time>
      </trkpt>
      <trkpt lat="27.956512" lon="86.816678">
        <ele>4995.6</ele>
        <time>2022-10-27T07:59:41.000Z</time>
      </trkpt>
      <trkpt lat="27.95649" lon="86.816672">
        <ele>4995.6</ele>
        <time>2022-10-27T07:59:43.000Z</time>
      </trkpt>
      <trkpt lat="27.956464" lon="86.816659">
        <ele>4994.8</ele>
        <time>2022-10-27T07:59:46.000Z</time>
      </trkpt>
      <trkpt lat="27.956445" lon="86.81664">
        <ele>4995</ele>
        <time>2022-10-27T07:59:48.000Z</time>
      </trkpt>
      <trkpt lat="27.956422" lon="86.816634">
        <ele>4995</ele>
        <time>2022-10-27T07:59:50.000Z</time>
      </trkpt>
      <trkpt lat="27.956394" lon="86.816621">
        <ele>4994.8</ele>
        <time>2022-10-27T07:59:53.000Z</time>
      </trkpt>
      <trkpt lat="27.956374" lon="86.816614">
        <ele>4994.8</ele>
        <time>2022-10-27T07:59:55.000Z</time>
      </trkpt>
      <trkpt lat="27.956355" lon="86.816602">
        <ele>4994.4</ele>
        <time>2022-10-27T07:59:57.000Z</time>
      </trkpt>
      <trkpt lat="27.956339" lon="86.816589">
        <ele>4994.8</ele>
        <time>2022-10-27T07:59:59.000Z</time>
      </trkpt>
      <trkpt lat="27.956317" lon="86.81657">
        <ele>4994.8</ele>
        <time>2022-10-27T08:00:02.000Z</time>
      </trkpt>
      <trkpt lat="27.956307" lon="86.81655">
        <ele>4994.2</ele>
        <time>2022-10-27T08:00:04.000Z</time>
      </trkpt>
      <trkpt lat="27.956285" lon="86.816538">
        <ele>4994.4</ele>
        <time>2022-10-27T08:00:06.000Z</time>
      </trkpt>
      <trkpt lat="27.956266" lon="86.816518">
        <ele>4994.8</ele>
        <time>2022-10-27T08:00:08.000Z</time>
      </trkpt>
      <trkpt lat="27.95625" lon="86.816506">
        <ele>4994.8</ele>
        <time>2022-10-27T08:00:10.000Z</time>
      </trkpt>
      <trkpt lat="27.956224" lon="86.81648">
        <ele>4994.8</ele>
        <time>2022-10-27T08:00:13.000Z</time>
      </trkpt>
      <trkpt lat="27.956208" lon="86.816467">
        <ele>4994.4</ele>
        <time>2022-10-27T08:00:15.000Z</time>
      </trkpt>
      <trkpt lat="27.956186" lon="86.816442">
        <ele>4994</ele>
        <time>2022-10-27T08:00:18.000Z</time>
      </trkpt>
      <trkpt lat="27.95617" lon="86.816429">
        <ele>4994.2</ele>
        <time>2022-10-27T08:00:20.000Z</time>
      </trkpt>
      <trkpt lat="27.956154" lon="86.816416">
        <ele>4994.2</ele>
        <time>2022-10-27T08:00:22.000Z</time>
      </trkpt>
      <trkpt lat="27.956134" lon="86.816403">
        <ele>4993.8</ele>
        <time>2022-10-27T08:00:24.000Z</time>
      </trkpt>
      <trkpt lat="27.956109" lon="86.81639">
        <ele>4993.4</ele>
        <time>2022-10-27T08:00:27.000Z</time>
      </trkpt>
      <trkpt lat="27.95609" lon="86.81639">
        <ele>4993.4</ele>
        <time>2022-10-27T08:00:29.000Z</time>
      </trkpt>
      <trkpt lat="27.95607" lon="86.816384">
        <ele>4993.4</ele>
        <time>2022-10-27T08:00:31.000Z</time>
      </trkpt>
      <trkpt lat="27.956048" lon="86.816384">
        <ele>4993.6</ele>
        <time>2022-10-27T08:00:33.000Z</time>
      </trkpt>
      <trkpt lat="27.956026" lon="86.816378">
        <ele>4993.6</ele>
        <time>2022-10-27T08:00:36.000Z</time>
      </trkpt>
      <trkpt lat="27.95601" lon="86.816358">
        <ele>4993.6</ele>
        <time>2022-10-27T08:00:38.000Z</time>
      </trkpt>
      <trkpt lat="27.95599" lon="86.816352">
        <ele>4993.6</ele>
        <time>2022-10-27T08:00:40.000Z</time>
      </trkpt>
      <trkpt lat="27.955971" lon="86.816346">
        <ele>4993.6</ele>
        <time>2022-10-27T08:00:42.000Z</time>
      </trkpt>
      <trkpt lat="27.955949" lon="86.816339">
        <ele>4993</ele>
        <time>2022-10-27T08:00:44.000Z</time>
      </trkpt>
      <trkpt lat="27.95592" lon="86.816339">
        <ele>4993</ele>
        <time>2022-10-27T08:00:47.000Z</time>
      </trkpt>
      <trkpt lat="27.955891" lon="86.816339">
        <ele>4992.8</ele>
        <time>2022-10-27T08:00:50.000Z</time>
      </trkpt>
      <trkpt lat="27.955872" lon="86.816339">
        <ele>4993.6</ele>
        <time>2022-10-27T08:00:52.000Z</time>
      </trkpt>
      <trkpt lat="27.955846" lon="86.816333">
        <ele>4993.6</ele>
        <time>2022-10-27T08:00:55.000Z</time>
      </trkpt>
      <trkpt lat="27.955827" lon="86.816333">
        <ele>4993.6</ele>
        <time>2022-10-27T08:00:57.000Z</time>
      </trkpt>
      <trkpt lat="27.955802" lon="86.81632">
        <ele>4993.6</ele>
        <time>2022-10-27T08:01:00.000Z</time>
      </trkpt>
      <trkpt lat="27.955782" lon="86.81632">
        <ele>4993.8</ele>
        <time>2022-10-27T08:01:02.000Z</time>
      </trkpt>
      <trkpt lat="27.95576" lon="86.816307">
        <ele>4993.8</ele>
        <time>2022-10-27T08:01:05.000Z</time>
      </trkpt>
      <trkpt lat="27.955744" lon="86.816294">
        <ele>4993.8</ele>
        <time>2022-10-27T08:01:07.000Z</time>
      </trkpt>
      <trkpt lat="27.955728" lon="86.816282">
        <ele>4993.6</ele>
        <time>2022-10-27T08:01:09.000Z</time>
      </trkpt>
      <trkpt lat="27.955702" lon="86.816269">
        <ele>4993.6</ele>
        <time>2022-10-27T08:01:12.000Z</time>
      </trkpt>
      <trkpt lat="27.95568" lon="86.816262">
        <ele>4994.6</ele>
        <time>2022-10-27T08:01:14.000Z</time>
      </trkpt>
      <trkpt lat="27.955658" lon="86.816243">
        <ele>4993.8</ele>
        <time>2022-10-27T08:01:17.000Z</time>
      </trkpt>
      <trkpt lat="27.955642" lon="86.81623">
        <ele>4994.6</ele>
        <time>2022-10-27T08:01:19.000Z</time>
      </trkpt>
      <trkpt lat="27.955619" lon="86.816218">
        <ele>4995.2</ele>
        <time>2022-10-27T08:01:22.000Z</time>
      </trkpt>
      <trkpt lat="27.955603" lon="86.816205">
        <ele>4994.4</ele>
        <time>2022-10-27T08:01:23.000Z</time>
      </trkpt>
      <trkpt lat="27.955581" lon="86.816205">
        <ele>4994</ele>
        <time>2022-10-27T08:01:25.000Z</time>
      </trkpt>
      <trkpt lat="27.955562" lon="86.816205">
        <ele>4994.4</ele>
        <time>2022-10-27T08:01:27.000Z</time>
      </trkpt>
      <trkpt lat="27.955539" lon="86.816198">
        <ele>4993.2</ele>
        <time>2022-10-27T08:01:29.000Z</time>
      </trkpt>
      <trkpt lat="27.95552" lon="86.816186">
        <ele>4993</ele>
        <time>2022-10-27T08:01:31.000Z</time>
      </trkpt>
      <trkpt lat="27.955494" lon="86.816179">
        <ele>4992.6</ele>
        <time>2022-10-27T08:01:34.000Z</time>
      </trkpt>
      <trkpt lat="27.955472" lon="86.816173">
        <ele>4992.6</ele>
        <time>2022-10-27T08:01:36.000Z</time>
      </trkpt>
      <trkpt lat="27.955453" lon="86.816173">
        <ele>4992.6</ele>
        <time>2022-10-27T08:01:38.000Z</time>
      </trkpt>
      <trkpt lat="27.95544" lon="86.816154">
        <ele>4993</ele>
        <time>2022-10-27T08:01:40.000Z</time>
      </trkpt>
      <trkpt lat="27.955421" lon="86.816141">
        <ele>4992.6</ele>
        <time>2022-10-27T08:01:42.000Z</time>
      </trkpt>
      <trkpt lat="27.955402" lon="86.816122">
        <ele>4992.4</ele>
        <time>2022-10-27T08:01:44.000Z</time>
      </trkpt>
      <trkpt lat="27.955376" lon="86.816109">
        <ele>4992</ele>
        <time>2022-10-27T08:01:47.000Z</time>
      </trkpt>
      <trkpt lat="27.95536" lon="86.816096">
        <ele>4991.8</ele>
        <time>2022-10-27T08:01:49.000Z</time>
      </trkpt>
      <trkpt lat="27.955341" lon="86.816077">
        <ele>4991.6</ele>
        <time>2022-10-27T08:01:51.000Z</time>
      </trkpt>
      <trkpt lat="27.955325" lon="86.816064">
        <ele>4991.6</ele>
        <time>2022-10-27T08:01:53.000Z</time>
      </trkpt>
      <trkpt lat="27.955302" lon="86.816045">
        <ele>4991.6</ele>
        <time>2022-10-27T08:01:55.000Z</time>
      </trkpt>
      <trkpt lat="27.955286" lon="86.816032">
        <ele>4991.6</ele>
        <time>2022-10-27T08:01:57.000Z</time>
      </trkpt>
      <trkpt lat="27.955264" lon="86.816006">
        <ele>4991.2</ele>
        <time>2022-10-27T08:02:00.000Z</time>
      </trkpt>
      <trkpt lat="27.955238" lon="86.815994">
        <ele>4990.6</ele>
        <time>2022-10-27T08:02:03.000Z</time>
      </trkpt>
      <trkpt lat="27.955222" lon="86.815974">
        <ele>4990.6</ele>
        <time>2022-10-27T08:02:05.000Z</time>
      </trkpt>
      <trkpt lat="27.955206" lon="86.815962">
        <ele>4990.4</ele>
        <time>2022-10-27T08:02:07.000Z</time>
      </trkpt>
      <trkpt lat="27.955181" lon="86.815942">
        <ele>4990.6</ele>
        <time>2022-10-27T08:02:10.000Z</time>
      </trkpt>
      <trkpt lat="27.955162" lon="86.815923">
        <ele>4991</ele>
        <time>2022-10-27T08:02:12.000Z</time>
      </trkpt>
      <trkpt lat="27.955139" lon="86.815923">
        <ele>4991</ele>
        <time>2022-10-27T08:02:15.000Z</time>
      </trkpt>
      <trkpt lat="27.95512" lon="86.81591">
        <ele>4991.2</ele>
        <time>2022-10-27T08:02:17.000Z</time>
      </trkpt>
      <trkpt lat="27.955104" lon="86.815898">
        <ele>4990</ele>
        <time>2022-10-27T08:02:19.000Z</time>
      </trkpt>
      <trkpt lat="27.955088" lon="86.815872">
        <ele>4990</ele>
        <time>2022-10-27T08:02:21.000Z</time>
      </trkpt>
      <trkpt lat="27.955066" lon="86.815859">
        <ele>4989.2</ele>
        <time>2022-10-27T08:02:24.000Z</time>
      </trkpt>
      <trkpt lat="27.95505" lon="86.81584">
        <ele>4989</ele>
        <time>2022-10-27T08:02:26.000Z</time>
      </trkpt>
      <trkpt lat="27.95503" lon="86.815834">
        <ele>4989</ele>
        <time>2022-10-27T08:02:28.000Z</time>
      </trkpt>
      <trkpt lat="27.955008" lon="86.815821">
        <ele>4989.2</ele>
        <time>2022-10-27T08:02:30.000Z</time>
      </trkpt>
      <trkpt lat="27.954995" lon="86.815795">
        <ele>4989</ele>
        <time>2022-10-27T08:02:32.000Z</time>
      </trkpt>
      <trkpt lat="27.954973" lon="86.815776">
        <ele>4988.4</ele>
        <time>2022-10-27T08:02:35.000Z</time>
      </trkpt>
      <trkpt lat="27.954963" lon="86.815757">
        <ele>4988.4</ele>
        <time>2022-10-27T08:02:37.000Z</time>
      </trkpt>
      <trkpt lat="27.954947" lon="86.815744">
        <ele>4987.8</ele>
        <time>2022-10-27T08:02:39.000Z</time>
      </trkpt>
      <trkpt lat="27.954928" lon="86.815738">
        <ele>4987.6</ele>
        <time>2022-10-27T08:02:42.000Z</time>
      </trkpt>
      <trkpt lat="27.954909" lon="86.815718">
        <ele>4987.4</ele>
        <time>2022-10-27T08:03:57.000Z</time>
      </trkpt>
      <trkpt lat="27.954883" lon="86.815706">
        <ele>4987.4</ele>
        <time>2022-10-27T08:03:59.000Z</time>
      </trkpt>
      <trkpt lat="27.954858" lon="86.815686">
        <ele>4987.2</ele>
        <time>2022-10-27T08:04:01.000Z</time>
      </trkpt>
      <trkpt lat="27.954838" lon="86.815674">
        <ele>4988</ele>
        <time>2022-10-27T08:04:06.000Z</time>
      </trkpt>
      <trkpt lat="27.954819" lon="86.815661">
        <ele>4987</ele>
        <time>2022-10-27T08:04:15.000Z</time>
      </trkpt>
      <trkpt lat="27.954797" lon="86.815648">
        <ele>4986.4</ele>
        <time>2022-10-27T08:04:17.000Z</time>
      </trkpt>
      <trkpt lat="27.954774" lon="86.815635">
        <ele>4986.2</ele>
        <time>2022-10-27T08:04:19.000Z</time>
      </trkpt>
      <trkpt lat="27.954758" lon="86.815622">
        <ele>4986</ele>
        <time>2022-10-27T08:04:21.000Z</time>
      </trkpt>
      <trkpt lat="27.95473" lon="86.815622">
        <ele>4985.4</ele>
        <time>2022-10-27T08:04:24.000Z</time>
      </trkpt>
      <trkpt lat="27.954707" lon="86.81561">
        <ele>4986</ele>
        <time>2022-10-27T08:04:27.000Z</time>
      </trkpt>
      <trkpt lat="27.954688" lon="86.81559">
        <ele>4985.6</ele>
        <time>2022-10-27T08:04:30.000Z</time>
      </trkpt>
      <trkpt lat="27.954669" lon="86.815565">
        <ele>4984.6</ele>
        <time>2022-10-27T08:04:33.000Z</time>
      </trkpt>
      <trkpt lat="27.954646" lon="86.815546">
        <ele>4984.2</ele>
        <time>2022-10-27T08:04:35.000Z</time>
      </trkpt>
      <trkpt lat="27.954624" lon="86.815539">
        <ele>4984</ele>
        <time>2022-10-27T08:04:38.000Z</time>
      </trkpt>
      <trkpt lat="27.954611" lon="86.815514">
        <ele>4984.2</ele>
        <time>2022-10-27T08:04:41.000Z</time>
      </trkpt>
      <trkpt lat="27.954602" lon="86.815488">
        <ele>4984.2</ele>
        <time>2022-10-27T08:04:43.000Z</time>
      </trkpt>
      <trkpt lat="27.954586" lon="86.815469">
        <ele>4985</ele>
        <time>2022-10-27T08:04:46.000Z</time>
      </trkpt>
      <trkpt lat="27.954576" lon="86.81545">
        <ele>4984.8</ele>
        <time>2022-10-27T08:04:47.000Z</time>
      </trkpt>
      <trkpt lat="27.954563" lon="86.81543">
        <ele>4984</ele>
        <time>2022-10-27T08:04:49.000Z</time>
      </trkpt>
      <trkpt lat="27.954544" lon="86.815418">
        <ele>4984.2</ele>
        <time>2022-10-27T08:04:51.000Z</time>
      </trkpt>
      <trkpt lat="27.954525" lon="86.815405">
        <ele>4984</ele>
        <time>2022-10-27T08:04:53.000Z</time>
      </trkpt>
      <trkpt lat="27.954506" lon="86.815392">
        <ele>4984</ele>
        <time>2022-10-27T08:04:55.000Z</time>
      </trkpt>
      <trkpt lat="27.95449" lon="86.815379">
        <ele>4983.6</ele>
        <time>2022-10-27T08:04:57.000Z</time>
      </trkpt>
      <trkpt lat="27.95447" lon="86.81536">
        <ele>4983.2</ele>
        <time>2022-10-27T08:04:59.000Z</time>
      </trkpt>
      <trkpt lat="27.954435" lon="86.815322">
        <ele>4982.2</ele>
        <time>2022-10-27T08:05:03.000Z</time>
      </trkpt>
      <trkpt lat="27.954422" lon="86.815302">
        <ele>4981.4</ele>
        <time>2022-10-27T08:05:05.000Z</time>
      </trkpt>
      <trkpt lat="27.954406" lon="86.815283">
        <ele>4981</ele>
        <time>2022-10-27T08:05:07.000Z</time>
      </trkpt>
      <trkpt lat="27.95439" lon="86.81527">
        <ele>4980.6</ele>
        <time>2022-10-27T08:05:09.000Z</time>
      </trkpt>
      <trkpt lat="27.954387" lon="86.815238">
        <ele>4980.6</ele>
        <time>2022-10-27T08:05:11.000Z</time>
      </trkpt>
      <trkpt lat="27.954384" lon="86.815206">
        <ele>4979</ele>
        <time>2022-10-27T08:05:14.000Z</time>
      </trkpt>
      <trkpt lat="27.954368" lon="86.815194">
        <ele>4978.6</ele>
        <time>2022-10-27T08:05:16.000Z</time>
      </trkpt>
      <trkpt lat="27.954352" lon="86.815181">
        <ele>4978.2</ele>
        <time>2022-10-27T08:05:18.000Z</time>
      </trkpt>
      <trkpt lat="27.954342" lon="86.815155">
        <ele>4977.6</ele>
        <time>2022-10-27T08:05:20.000Z</time>
      </trkpt>
      <trkpt lat="27.95433" lon="86.81513">
        <ele>4977.6</ele>
        <time>2022-10-27T08:05:22.000Z</time>
      </trkpt>
      <trkpt lat="27.954314" lon="86.815117">
        <ele>4977.6</ele>
        <time>2022-10-27T08:05:24.000Z</time>
      </trkpt>
      <trkpt lat="27.954288" lon="86.81511">
        <ele>4977</ele>
        <time>2022-10-27T08:05:27.000Z</time>
      </trkpt>
      <trkpt lat="27.954269" lon="86.815104">
        <ele>4976.2</ele>
        <time>2022-10-27T08:05:29.000Z</time>
      </trkpt>
      <trkpt lat="27.95425" lon="86.815091">
        <ele>4975.6</ele>
        <time>2022-10-27T08:05:31.000Z</time>
      </trkpt>
      <trkpt lat="27.954205" lon="86.815072">
        <ele>4974.2</ele>
        <time>2022-10-27T08:05:36.000Z</time>
      </trkpt>
      <trkpt lat="27.954182" lon="86.815066">
        <ele>4974.2</ele>
        <time>2022-10-27T08:05:38.000Z</time>
      </trkpt>
      <trkpt lat="27.954163" lon="86.815053">
        <ele>4974.4</ele>
        <time>2022-10-27T08:05:40.000Z</time>
      </trkpt>
      <trkpt lat="27.954141" lon="86.815046">
        <ele>4974.4</ele>
        <time>2022-10-27T08:05:42.000Z</time>
      </trkpt>
      <trkpt lat="27.954115" lon="86.815046">
        <ele>4974</ele>
        <time>2022-10-27T08:05:44.000Z</time>
      </trkpt>
      <trkpt lat="27.954093" lon="86.815053">
        <ele>4974</ele>
        <time>2022-10-27T08:05:46.000Z</time>
      </trkpt>
      <trkpt lat="27.95407" lon="86.815053">
        <ele>4974</ele>
        <time>2022-10-27T08:05:48.000Z</time>
      </trkpt>
      <trkpt lat="27.954054" lon="86.815066">
        <ele>4974.2</ele>
        <time>2022-10-27T08:05:49.000Z</time>
      </trkpt>
      <trkpt lat="27.954035" lon="86.815072">
        <ele>4974.2</ele>
        <time>2022-10-27T08:05:51.000Z</time>
      </trkpt>
      <trkpt lat="27.954013" lon="86.815085">
        <ele>4973.8</ele>
        <time>2022-10-27T08:05:53.000Z</time>
      </trkpt>
      <trkpt lat="27.95399" lon="86.815091">
        <ele>4973.4</ele>
        <time>2022-10-27T08:05:55.000Z</time>
      </trkpt>
      <trkpt lat="27.953965" lon="86.81511">
        <ele>4974.2</ele>
        <time>2022-10-27T08:05:58.000Z</time>
      </trkpt>
      <trkpt lat="27.953942" lon="86.815117">
        <ele>4973.8</ele>
        <time>2022-10-27T08:06:00.000Z</time>
      </trkpt>
      <trkpt lat="27.953923" lon="86.815117">
        <ele>4973.8</ele>
        <time>2022-10-27T08:06:02.000Z</time>
      </trkpt>
      <trkpt lat="27.953898" lon="86.815123">
        <ele>4973.6</ele>
        <time>2022-10-27T08:06:04.000Z</time>
      </trkpt>
      <trkpt lat="27.953872" lon="86.81513">
        <ele>4973.8</ele>
        <time>2022-10-27T08:06:06.000Z</time>
      </trkpt>
      <trkpt lat="27.95385" lon="86.815123">
        <ele>4973.8</ele>
        <time>2022-10-27T08:06:08.000Z</time>
      </trkpt>
      <trkpt lat="27.953824" lon="86.815123">
        <ele>4973.8</ele>
        <time>2022-10-27T08:06:10.000Z</time>
      </trkpt>
      <trkpt lat="27.953802" lon="86.815117">
        <ele>4973.2</ele>
        <time>2022-10-27T08:06:12.000Z</time>
      </trkpt>
      <trkpt lat="27.953782" lon="86.81511">
        <ele>4973.2</ele>
        <time>2022-10-27T08:06:14.000Z</time>
      </trkpt>
      <trkpt lat="27.953763" lon="86.815104">
        <ele>4973.6</ele>
        <time>2022-10-27T08:06:16.000Z</time>
      </trkpt>
      <trkpt lat="27.953741" lon="86.815104">
        <ele>4973.6</ele>
        <time>2022-10-27T08:06:18.000Z</time>
      </trkpt>
      <trkpt lat="27.953718" lon="86.815091">
        <ele>4973.6</ele>
        <time>2022-10-27T08:06:20.000Z</time>
      </trkpt>
      <trkpt lat="27.953693" lon="86.815091">
        <ele>4973</ele>
        <time>2022-10-27T08:06:22.000Z</time>
      </trkpt>
      <trkpt lat="27.95367" lon="86.815091">
        <ele>4973.4</ele>
        <time>2022-10-27T08:06:24.000Z</time>
      </trkpt>
      <trkpt lat="27.953648" lon="86.815085">
        <ele>4973.4</ele>
        <time>2022-10-27T08:06:26.000Z</time>
      </trkpt>
      <trkpt lat="27.953622" lon="86.815078">
        <ele>4973</ele>
        <time>2022-10-27T08:06:29.000Z</time>
      </trkpt>
      <trkpt lat="27.953597" lon="86.815072">
        <ele>4973</ele>
        <time>2022-10-27T08:06:31.000Z</time>
      </trkpt>
      <trkpt lat="27.953574" lon="86.815072">
        <ele>4973</ele>
        <time>2022-10-27T08:06:33.000Z</time>
      </trkpt>
      <trkpt lat="27.953555" lon="86.815072">
        <ele>4973</ele>
        <time>2022-10-27T08:06:35.000Z</time>
      </trkpt>
      <trkpt lat="27.953536" lon="86.815066">
        <ele>4973.2</ele>
        <time>2022-10-27T08:06:37.000Z</time>
      </trkpt>
      <trkpt lat="27.953526" lon="86.815046">
        <ele>4973</ele>
        <time>2022-10-27T08:06:39.000Z</time>
      </trkpt>
      <trkpt lat="27.953517" lon="86.815027">
        <ele>4972.4</ele>
        <time>2022-10-27T08:06:41.000Z</time>
      </trkpt>
      <trkpt lat="27.953514" lon="86.815002">
        <ele>4972</ele>
        <time>2022-10-27T08:06:43.000Z</time>
      </trkpt>
      <trkpt lat="27.953507" lon="86.814982">
        <ele>4972</ele>
        <time>2022-10-27T08:06:45.000Z</time>
      </trkpt>
      <trkpt lat="27.953494" lon="86.814957">
        <ele>4972</ele>
        <time>2022-10-27T08:06:47.000Z</time>
      </trkpt>
      <trkpt lat="27.953475" lon="86.814944">
        <ele>4972</ele>
        <time>2022-10-27T08:06:49.000Z</time>
      </trkpt>
      <trkpt lat="27.953456" lon="86.814931">
        <ele>4972</ele>
        <time>2022-10-27T08:06:51.000Z</time>
      </trkpt>
      <trkpt lat="27.953434" lon="86.814918">
        <ele>4972</ele>
        <time>2022-10-27T08:06:53.000Z</time>
      </trkpt>
      <trkpt lat="27.953414" lon="86.814918">
        <ele>4971.8</ele>
        <time>2022-10-27T08:06:55.000Z</time>
      </trkpt>
      <trkpt lat="27.953395" lon="86.814906">
        <ele>4971.8</ele>
        <time>2022-10-27T08:06:57.000Z</time>
      </trkpt>
      <trkpt lat="27.953379" lon="86.814886">
        <ele>4971.6</ele>
        <time>2022-10-27T08:06:59.000Z</time>
      </trkpt>
      <trkpt lat="27.953366" lon="86.814867">
        <ele>4971.2</ele>
        <time>2022-10-27T08:07:06.000Z</time>
      </trkpt>
      <trkpt lat="27.95335" lon="86.814854">
        <ele>4972</ele>
        <time>2022-10-27T08:07:12.000Z</time>
      </trkpt>
      <trkpt lat="27.953331" lon="86.814848">
        <ele>4972</ele>
        <time>2022-10-27T08:07:18.000Z</time>
      </trkpt>
      <trkpt lat="27.953312" lon="86.814842">
        <ele>4971.8</ele>
        <time>2022-10-27T08:07:21.000Z</time>
      </trkpt>
      <trkpt lat="27.95329" lon="86.814842">
        <ele>4971</ele>
        <time>2022-10-27T08:07:23.000Z</time>
      </trkpt>
      <trkpt lat="27.953267" lon="86.814842">
        <ele>4970.2</ele>
        <time>2022-10-27T08:07:25.000Z</time>
      </trkpt>
      <trkpt lat="27.953245" lon="86.814842">
        <ele>4969.8</ele>
        <time>2022-10-27T08:07:27.000Z</time>
      </trkpt>
      <trkpt lat="27.953222" lon="86.814842">
        <ele>4969</ele>
        <time>2022-10-27T08:07:29.000Z</time>
      </trkpt>
      <trkpt lat="27.9532" lon="86.814842">
        <ele>4969</ele>
        <time>2022-10-27T08:07:31.000Z</time>
      </trkpt>
      <trkpt lat="27.953181" lon="86.814848">
        <ele>4969</ele>
        <time>2022-10-27T08:07:33.000Z</time>
      </trkpt>
      <trkpt lat="27.953155" lon="86.814854">
        <ele>4969</ele>
        <time>2022-10-27T08:07:35.000Z</time>
      </trkpt>
      <trkpt lat="27.95313" lon="86.814854">
        <ele>4968.8</ele>
        <time>2022-10-27T08:07:37.000Z</time>
      </trkpt>
      <trkpt lat="27.953107" lon="86.814848">
        <ele>4968.8</ele>
        <time>2022-10-27T08:07:39.000Z</time>
      </trkpt>
      <trkpt lat="27.953088" lon="86.814848">
        <ele>4968.8</ele>
        <time>2022-10-27T08:07:41.000Z</time>
      </trkpt>
      <trkpt lat="27.953069" lon="86.814842">
        <ele>4968.8</ele>
        <time>2022-10-27T08:07:43.000Z</time>
      </trkpt>
      <trkpt lat="27.95305" lon="86.814835">
        <ele>4968.8</ele>
        <time>2022-10-27T08:07:46.000Z</time>
      </trkpt>
      <trkpt lat="27.95303" lon="86.814835">
        <ele>4969</ele>
        <time>2022-10-27T08:07:50.000Z</time>
      </trkpt>
      <trkpt lat="27.953008" lon="86.814829">
        <ele>4969</ele>
        <time>2022-10-27T08:07:53.000Z</time>
      </trkpt>
      <trkpt lat="27.952989" lon="86.814822">
        <ele>4969.4</ele>
        <time>2022-10-27T08:07:57.000Z</time>
      </trkpt>
      <trkpt lat="27.952979" lon="86.814842">
        <ele>4968.2</ele>
        <time>2022-10-27T08:08:06.000Z</time>
      </trkpt>
      <trkpt lat="27.95296" lon="86.814848">
        <ele>4967.4</ele>
        <time>2022-10-27T08:08:09.000Z</time>
      </trkpt>
      <trkpt lat="27.952938" lon="86.814854">
        <ele>4965.8</ele>
        <time>2022-10-27T08:08:12.000Z</time>
      </trkpt>
      <trkpt lat="27.952922" lon="86.814867">
        <ele>4966</ele>
        <time>2022-10-27T08:08:14.000Z</time>
      </trkpt>
      <trkpt lat="27.952902" lon="86.814854">
        <ele>4965.8</ele>
        <time>2022-10-27T08:08:16.000Z</time>
      </trkpt>
      <trkpt lat="27.952893" lon="86.814835">
        <ele>4965.6</ele>
        <time>2022-10-27T08:08:18.000Z</time>
      </trkpt>
      <trkpt lat="27.952874" lon="86.81481">
        <ele>4965</ele>
        <time>2022-10-27T08:08:21.000Z</time>
      </trkpt>
      <trkpt lat="27.952858" lon="86.81479">
        <ele>4965.2</ele>
        <time>2022-10-27T08:08:24.000Z</time>
      </trkpt>
      <trkpt lat="27.952842" lon="86.814771">
        <ele>4965</ele>
        <time>2022-10-27T08:08:26.000Z</time>
      </trkpt>
      <trkpt lat="27.952822" lon="86.814771">
        <ele>4964.8</ele>
        <time>2022-10-27T08:08:28.000Z</time>
      </trkpt>
      <trkpt lat="27.9528" lon="86.814758">
        <ele>4964.4</ele>
        <time>2022-10-27T08:08:30.000Z</time>
      </trkpt>
      <trkpt lat="27.952784" lon="86.814746">
        <ele>4963.6</ele>
        <time>2022-10-27T08:08:32.000Z</time>
      </trkpt>
      <trkpt lat="27.952768" lon="86.814733">
        <ele>4964.8</ele>
        <time>2022-10-27T08:08:34.000Z</time>
      </trkpt>
      <trkpt lat="27.952749" lon="86.814726">
        <ele>4964.8</ele>
        <time>2022-10-27T08:08:36.000Z</time>
      </trkpt>
      <trkpt lat="27.952723" lon="86.814714">
        <ele>4964.4</ele>
        <time>2022-10-27T08:08:38.000Z</time>
      </trkpt>
      <trkpt lat="27.952704" lon="86.814707">
        <ele>4964.2</ele>
        <time>2022-10-27T08:08:40.000Z</time>
      </trkpt>
      <trkpt lat="27.952691" lon="86.814688">
        <ele>4964.2</ele>
        <time>2022-10-27T08:08:42.000Z</time>
      </trkpt>
      <trkpt lat="27.952669" lon="86.814682">
        <ele>4964.4</ele>
        <time>2022-10-27T08:08:44.000Z</time>
      </trkpt>
      <trkpt lat="27.952646" lon="86.814675">
        <ele>4964.4</ele>
        <time>2022-10-27T08:08:46.000Z</time>
      </trkpt>
      <trkpt lat="27.952624" lon="86.814669">
        <ele>4964.4</ele>
        <time>2022-10-27T08:08:48.000Z</time>
      </trkpt>
      <trkpt lat="27.952602" lon="86.814656">
        <ele>4964</ele>
        <time>2022-10-27T08:08:50.000Z</time>
      </trkpt>
      <trkpt lat="27.952586" lon="86.814643">
        <ele>4963.6</ele>
        <time>2022-10-27T08:08:52.000Z</time>
      </trkpt>
      <trkpt lat="27.95257" lon="86.81463">
        <ele>4963.2</ele>
        <time>2022-10-27T08:08:54.000Z</time>
      </trkpt>
      <trkpt lat="27.95255" lon="86.814624">
        <ele>4963.2</ele>
        <time>2022-10-27T08:08:56.000Z</time>
      </trkpt>
      <trkpt lat="27.952534" lon="86.814611">
        <ele>4963.2</ele>
        <time>2022-10-27T08:08:58.000Z</time>
      </trkpt>
      <trkpt lat="27.952512" lon="86.814605">
        <ele>4962.8</ele>
        <time>2022-10-27T08:09:01.000Z</time>
      </trkpt>
      <trkpt lat="27.952496" lon="86.814592">
        <ele>4962.6</ele>
        <time>2022-10-27T08:09:03.000Z</time>
      </trkpt>
      <trkpt lat="27.952483" lon="86.814573">
        <ele>4962.8</ele>
        <time>2022-10-27T08:09:05.000Z</time>
      </trkpt>
      <trkpt lat="27.952461" lon="86.814573">
        <ele>4962.4</ele>
        <time>2022-10-27T08:09:08.000Z</time>
      </trkpt>
      <trkpt lat="27.952442" lon="86.814573">
        <ele>4962</ele>
        <time>2022-10-27T08:09:11.000Z</time>
      </trkpt>
      <trkpt lat="27.952422" lon="86.814573">
        <ele>4961.8</ele>
        <time>2022-10-27T08:09:13.000Z</time>
      </trkpt>
      <trkpt lat="27.9524" lon="86.81456">
        <ele>4961.8</ele>
        <time>2022-10-27T08:09:16.000Z</time>
      </trkpt>
      <trkpt lat="27.952381" lon="86.814547">
        <ele>4961.8</ele>
        <time>2022-10-27T08:09:18.000Z</time>
      </trkpt>
      <trkpt lat="27.952365" lon="86.814534">
        <ele>4961.8</ele>
        <time>2022-10-27T08:09:20.000Z</time>
      </trkpt>
      <trkpt lat="27.952342" lon="86.814522">
        <ele>4961.2</ele>
        <time>2022-10-27T08:09:22.000Z</time>
      </trkpt>
      <trkpt lat="27.952326" lon="86.81449">
        <ele>4960.8</ele>
        <time>2022-10-27T08:09:25.000Z</time>
      </trkpt>
      <trkpt lat="27.952317" lon="86.81447">
        <ele>4961</ele>
        <time>2022-10-27T08:09:27.000Z</time>
      </trkpt>
      <trkpt lat="27.952304" lon="86.814451">
        <ele>4960.8</ele>
        <time>2022-10-27T08:09:29.000Z</time>
      </trkpt>
      <trkpt lat="27.952285" lon="86.814438">
        <ele>4961</ele>
        <time>2022-10-27T08:09:31.000Z</time>
      </trkpt>
      <trkpt lat="27.952266" lon="86.814413">
        <ele>4961.2</ele>
        <time>2022-10-27T08:09:33.000Z</time>
      </trkpt>
      <trkpt lat="27.952246" lon="86.814406">
        <ele>4960.8</ele>
        <time>2022-10-27T08:09:35.000Z</time>
      </trkpt>
      <trkpt lat="27.952224" lon="86.814387">
        <ele>4960.8</ele>
        <time>2022-10-27T08:09:38.000Z</time>
      </trkpt>
      <trkpt lat="27.952218" lon="86.814368">
        <ele>4960.8</ele>
        <time>2022-10-27T08:09:39.000Z</time>
      </trkpt>
      <trkpt lat="27.952214" lon="86.814336">
        <ele>4960.4</ele>
        <time>2022-10-27T08:09:42.000Z</time>
      </trkpt>
      <trkpt lat="27.952218" lon="86.81431">
        <ele>4960.2</ele>
        <time>2022-10-27T08:09:45.000Z</time>
      </trkpt>
      <trkpt lat="27.952208" lon="86.814291">
        <ele>4960.8</ele>
        <time>2022-10-27T08:09:47.000Z</time>
      </trkpt>
      <trkpt lat="27.952195" lon="86.814272">
        <ele>4960.2</ele>
        <time>2022-10-27T08:09:49.000Z</time>
      </trkpt>
      <trkpt lat="27.952195" lon="86.814246">
        <ele>4959.8</ele>
        <time>2022-10-27T08:09:51.000Z</time>
      </trkpt>
      <trkpt lat="27.952173" lon="86.814234">
        <ele>4960.2</ele>
        <time>2022-10-27T08:09:54.000Z</time>
      </trkpt>
      <trkpt lat="27.952154" lon="86.814227">
        <ele>4960.4</ele>
        <time>2022-10-27T08:09:56.000Z</time>
      </trkpt>
      <trkpt lat="27.952134" lon="86.814234">
        <ele>4960.4</ele>
        <time>2022-10-27T08:09:58.000Z</time>
      </trkpt>
      <trkpt lat="27.952118" lon="86.814246">
        <ele>4960.2</ele>
        <time>2022-10-27T08:10:00.000Z</time>
      </trkpt>
      <trkpt lat="27.952093" lon="86.814259">
        <ele>4959.8</ele>
        <time>2022-10-27T08:10:03.000Z</time>
      </trkpt>
      <trkpt lat="27.952077" lon="86.814272">
        <ele>4959.6</ele>
        <time>2022-10-27T08:10:05.000Z</time>
      </trkpt>
      <trkpt lat="27.952048" lon="86.814272">
        <ele>4959</ele>
        <time>2022-10-27T08:10:08.000Z</time>
      </trkpt>
      <trkpt lat="27.952026" lon="86.814259">
        <ele>4959</ele>
        <time>2022-10-27T08:10:11.000Z</time>
      </trkpt>
      <trkpt lat="27.952006" lon="86.814253">
        <ele>4959</ele>
        <time>2022-10-27T08:10:14.000Z</time>
      </trkpt>
      <trkpt lat="27.951978" lon="86.814253">
        <ele>4959.6</ele>
        <time>2022-10-27T08:10:17.000Z</time>
      </trkpt>
      <trkpt lat="27.951958" lon="86.814253">
        <ele>4958.8</ele>
        <time>2022-10-27T08:10:19.000Z</time>
      </trkpt>
      <trkpt lat="27.951936" lon="86.81424">
        <ele>4958.8</ele>
        <time>2022-10-27T08:10:21.000Z</time>
      </trkpt>
      <trkpt lat="27.951917" lon="86.814227">
        <ele>4958.8</ele>
        <time>2022-10-27T08:10:24.000Z</time>
      </trkpt>
      <trkpt lat="27.951898" lon="86.814227">
        <ele>4959</ele>
        <time>2022-10-27T08:10:26.000Z</time>
      </trkpt>
      <trkpt lat="27.951872" lon="86.814227">
        <ele>4959</ele>
        <time>2022-10-27T08:10:29.000Z</time>
      </trkpt>
      <trkpt lat="27.95185" lon="86.814234">
        <ele>4958.8</ele>
        <time>2022-10-27T08:10:31.000Z</time>
      </trkpt>
      <trkpt lat="27.951824" lon="86.814234">
        <ele>4958.2</ele>
        <time>2022-10-27T08:10:34.000Z</time>
      </trkpt>
      <trkpt lat="27.951805" lon="86.814234">
        <ele>4958.2</ele>
        <time>2022-10-27T08:10:36.000Z</time>
      </trkpt>
      <trkpt lat="27.951786" lon="86.814214">
        <ele>4958</ele>
        <time>2022-10-27T08:10:38.000Z</time>
      </trkpt>
      <trkpt lat="27.95177" lon="86.814195">
        <ele>4958</ele>
        <time>2022-10-27T08:10:42.000Z</time>
      </trkpt>
      <trkpt lat="27.951757" lon="86.814176">
        <ele>4958</ele>
        <time>2022-10-27T08:10:44.000Z</time>
      </trkpt>
      <trkpt lat="27.951731" lon="86.81417">
        <ele>4958.2</ele>
        <time>2022-10-27T08:10:47.000Z</time>
      </trkpt>
      <trkpt lat="27.951715" lon="86.814157">
        <ele>4958.6</ele>
        <time>2022-10-27T08:10:50.000Z</time>
      </trkpt>
      <trkpt lat="27.951693" lon="86.814157">
        <ele>4959.2</ele>
        <time>2022-10-27T08:10:53.000Z</time>
      </trkpt>
      <trkpt lat="27.95167" lon="86.81415">
        <ele>4958.8</ele>
        <time>2022-10-27T08:10:57.000Z</time>
      </trkpt>
      <trkpt lat="27.951648" lon="86.814157">
        <ele>4958.8</ele>
        <time>2022-10-27T08:11:00.000Z</time>
      </trkpt>
      <trkpt lat="27.951626" lon="86.81415">
        <ele>4958.2</ele>
        <time>2022-10-27T08:11:02.000Z</time>
      </trkpt>
      <trkpt lat="27.95161" lon="86.814138">
        <ele>4957.8</ele>
        <time>2022-10-27T08:11:04.000Z</time>
      </trkpt>
      <trkpt lat="27.951587" lon="86.814118">
        <ele>4958</ele>
        <time>2022-10-27T08:11:06.000Z</time>
      </trkpt>
      <trkpt lat="27.951578" lon="86.814099">
        <ele>4958</ele>
        <time>2022-10-27T08:11:08.000Z</time>
      </trkpt>
      <trkpt lat="27.951555" lon="86.814086">
        <ele>4958.4</ele>
        <time>2022-10-27T08:11:11.000Z</time>
      </trkpt>
      <trkpt lat="27.951533" lon="86.814074">
        <ele>4958</ele>
        <time>2022-10-27T08:11:14.000Z</time>
      </trkpt>
      <trkpt lat="27.95152" lon="86.814054">
        <ele>4958.4</ele>
        <time>2022-10-27T08:11:17.000Z</time>
      </trkpt>
      <trkpt lat="27.951501" lon="86.814048">
        <ele>4958</ele>
        <time>2022-10-27T08:11:19.000Z</time>
      </trkpt>
      <trkpt lat="27.951485" lon="86.814035">
        <ele>4958.6</ele>
        <time>2022-10-27T08:11:22.000Z</time>
      </trkpt>
      <trkpt lat="27.951469" lon="86.814016">
        <ele>4958.6</ele>
        <time>2022-10-27T08:11:25.000Z</time>
      </trkpt>
      <trkpt lat="27.951453" lon="86.814003">
        <ele>4958.4</ele>
        <time>2022-10-27T08:11:28.000Z</time>
      </trkpt>
      <trkpt lat="27.95143" lon="86.813997">
        <ele>4959</ele>
        <time>2022-10-27T08:11:36.000Z</time>
      </trkpt>
      <trkpt lat="27.951418" lon="86.813978">
        <ele>4958.4</ele>
        <time>2022-10-27T08:11:38.000Z</time>
      </trkpt>
      <trkpt lat="27.951402" lon="86.813965">
        <ele>4959</ele>
        <time>2022-10-27T08:11:43.000Z</time>
      </trkpt>
      <trkpt lat="27.951379" lon="86.813965">
        <ele>4959.2</ele>
        <time>2022-10-27T08:11:46.000Z</time>
      </trkpt>
      <trkpt lat="27.95136" lon="86.813952">
        <ele>4959.6</ele>
        <time>2022-10-27T08:11:50.000Z</time>
      </trkpt>
      <trkpt lat="27.951344" lon="86.813939">
        <ele>4959.6</ele>
        <time>2022-10-27T08:11:53.000Z</time>
      </trkpt>
      <trkpt lat="27.951325" lon="86.81392">
        <ele>4959.6</ele>
        <time>2022-10-27T08:11:57.000Z</time>
      </trkpt>
      <trkpt lat="27.951302" lon="86.813901">
        <ele>4959.8</ele>
        <time>2022-10-27T08:12:03.000Z</time>
      </trkpt>
      <trkpt lat="27.951283" lon="86.813901">
        <ele>4958.8</ele>
        <time>2022-10-27T08:12:11.000Z</time>
      </trkpt>
      <trkpt lat="27.951254" lon="86.813894">
        <ele>4958.6</ele>
        <time>2022-10-27T08:12:14.000Z</time>
      </trkpt>
      <trkpt lat="27.951235" lon="86.813882">
        <ele>4958</ele>
        <time>2022-10-27T08:12:16.000Z</time>
      </trkpt>
      <trkpt lat="27.951216" lon="86.813869">
        <ele>4957.8</ele>
        <time>2022-10-27T08:12:18.000Z</time>
      </trkpt>
      <trkpt lat="27.951194" lon="86.81385">
        <ele>4958</ele>
        <time>2022-10-27T08:12:21.000Z</time>
      </trkpt>
      <trkpt lat="27.951174" lon="86.813843">
        <ele>4957.8</ele>
        <time>2022-10-27T08:12:23.000Z</time>
      </trkpt>
      <trkpt lat="27.951152" lon="86.813837">
        <ele>4957</ele>
        <time>2022-10-27T08:12:26.000Z</time>
      </trkpt>
      <trkpt lat="27.951139" lon="86.813818">
        <ele>4955.8</ele>
        <time>2022-10-27T08:12:28.000Z</time>
      </trkpt>
      <trkpt lat="27.95112" lon="86.813818">
        <ele>4956.4</ele>
        <time>2022-10-27T08:12:34.000Z</time>
      </trkpt>
      <trkpt lat="27.951101" lon="86.813811">
        <ele>4955.8</ele>
        <time>2022-10-27T08:12:39.000Z</time>
      </trkpt>
      <trkpt lat="27.951082" lon="86.813811">
        <ele>4954.8</ele>
        <time>2022-10-27T08:12:44.000Z</time>
      </trkpt>
      <trkpt lat="27.951056" lon="86.813811">
        <ele>4954</ele>
        <time>2022-10-27T08:12:47.000Z</time>
      </trkpt>
      <trkpt lat="27.951037" lon="86.813811">
        <ele>4953.8</ele>
        <time>2022-10-27T08:12:49.000Z</time>
      </trkpt>
      <trkpt lat="27.951018" lon="86.813818">
        <ele>4952.8</ele>
        <time>2022-10-27T08:12:51.000Z</time>
      </trkpt>
      <trkpt lat="27.950998" lon="86.813818">
        <ele>4952.6</ele>
        <time>2022-10-27T08:12:53.000Z</time>
      </trkpt>
      <trkpt lat="27.950976" lon="86.813818">
        <ele>4952</ele>
        <time>2022-10-27T08:12:55.000Z</time>
      </trkpt>
      <trkpt lat="27.950957" lon="86.813811">
        <ele>4951.8</ele>
        <time>2022-10-27T08:12:57.000Z</time>
      </trkpt>
      <trkpt lat="27.950938" lon="86.813805">
        <ele>4952.2</ele>
        <time>2022-10-27T08:12:59.000Z</time>
      </trkpt>
      <trkpt lat="27.950912" lon="86.813805">
        <ele>4951.8</ele>
        <time>2022-10-27T08:13:01.000Z</time>
      </trkpt>
      <trkpt lat="27.950886" lon="86.813792">
        <ele>4951.4</ele>
        <time>2022-10-27T08:13:04.000Z</time>
      </trkpt>
      <trkpt lat="27.950867" lon="86.813798">
        <ele>4951</ele>
        <time>2022-10-27T08:13:07.000Z</time>
      </trkpt>
      <trkpt lat="27.950848" lon="86.813818">
        <ele>4951</ele>
        <time>2022-10-27T08:13:10.000Z</time>
      </trkpt>
      <trkpt lat="27.950832" lon="86.81383">
        <ele>4950.6</ele>
        <time>2022-10-27T08:13:12.000Z</time>
      </trkpt>
      <trkpt lat="27.950803" lon="86.813837">
        <ele>4950.2</ele>
        <time>2022-10-27T08:13:15.000Z</time>
      </trkpt>
      <trkpt lat="27.950784" lon="86.813837">
        <ele>4949.8</ele>
        <time>2022-10-27T08:13:17.000Z</time>
      </trkpt>
      <trkpt lat="27.950765" lon="86.81383">
        <ele>4949.8</ele>
        <time>2022-10-27T08:13:20.000Z</time>
      </trkpt>
      <trkpt lat="27.950749" lon="86.813818">
        <ele>4950</ele>
        <time>2022-10-27T08:13:22.000Z</time>
      </trkpt>
      <trkpt lat="27.950726" lon="86.813818">
        <ele>4950.2</ele>
        <time>2022-10-27T08:13:26.000Z</time>
      </trkpt>
      <trkpt lat="27.950707" lon="86.813805">
        <ele>4949.4</ele>
        <time>2022-10-27T08:13:28.000Z</time>
      </trkpt>
      <trkpt lat="27.950704" lon="86.813773">
        <ele>4949.4</ele>
        <time>2022-10-27T08:13:31.000Z</time>
      </trkpt>
      <trkpt lat="27.950688" lon="86.81376">
        <ele>4949.8</ele>
        <time>2022-10-27T08:13:34.000Z</time>
      </trkpt>
      <trkpt lat="27.950666" lon="86.813754">
        <ele>4949.4</ele>
        <time>2022-10-27T08:13:37.000Z</time>
      </trkpt>
      <trkpt lat="27.95065" lon="86.813734">
        <ele>4949.4</ele>
        <time>2022-10-27T08:13:39.000Z</time>
      </trkpt>
      <trkpt lat="27.950624" lon="86.813728">
        <ele>4948.6</ele>
        <time>2022-10-27T08:13:42.000Z</time>
      </trkpt>
      <trkpt lat="27.950605" lon="86.813728">
        <ele>4948.4</ele>
        <time>2022-10-27T08:13:44.000Z</time>
      </trkpt>
      <trkpt lat="27.950582" lon="86.813722">
        <ele>4948</ele>
        <time>2022-10-27T08:13:46.000Z</time>
      </trkpt>
      <trkpt lat="27.95056" lon="86.813715">
        <ele>4948</ele>
        <time>2022-10-27T08:13:48.000Z</time>
      </trkpt>
      <trkpt lat="27.950538" lon="86.813715">
        <ele>4947.2</ele>
        <time>2022-10-27T08:13:50.000Z</time>
      </trkpt>
      <trkpt lat="27.950518" lon="86.813702">
        <ele>4947.2</ele>
        <time>2022-10-27T08:13:52.000Z</time>
      </trkpt>
      <trkpt lat="27.950499" lon="86.81369">
        <ele>4947</ele>
        <time>2022-10-27T08:13:54.000Z</time>
      </trkpt>
      <trkpt lat="27.95048" lon="86.813683">
        <ele>4946.6</ele>
        <time>2022-10-27T08:13:56.000Z</time>
      </trkpt>
      <trkpt lat="27.950458" lon="86.813677">
        <ele>4946.2</ele>
        <time>2022-10-27T08:13:58.000Z</time>
      </trkpt>
      <trkpt lat="27.950438" lon="86.813677">
        <ele>4945.8</ele>
        <time>2022-10-27T08:14:00.000Z</time>
      </trkpt>
      <trkpt lat="27.950429" lon="86.813658">
        <ele>4945.8</ele>
        <time>2022-10-27T08:14:01.000Z</time>
      </trkpt>
      <trkpt lat="27.95041" lon="86.813638">
        <ele>4945.6</ele>
        <time>2022-10-27T08:14:04.000Z</time>
      </trkpt>
      <trkpt lat="27.950397" lon="86.813619">
        <ele>4945.8</ele>
        <time>2022-10-27T08:14:06.000Z</time>
      </trkpt>
      <trkpt lat="27.950378" lon="86.813606">
        <ele>4945.4</ele>
        <time>2022-10-27T08:14:08.000Z</time>
      </trkpt>
      <trkpt lat="27.950358" lon="86.8136">
        <ele>4944.8</ele>
        <time>2022-10-27T08:14:10.000Z</time>
      </trkpt>
      <trkpt lat="27.950342" lon="86.813581">
        <ele>4944.4</ele>
        <time>2022-10-27T08:14:12.000Z</time>
      </trkpt>
      <trkpt lat="27.950326" lon="86.813562">
        <ele>4944.4</ele>
        <time>2022-10-27T08:14:14.000Z</time>
      </trkpt>
      <trkpt lat="27.950307" lon="86.813555">
        <ele>4944</ele>
        <time>2022-10-27T08:14:16.000Z</time>
      </trkpt>
      <trkpt lat="27.950291" lon="86.813536">
        <ele>4943.6</ele>
        <time>2022-10-27T08:14:18.000Z</time>
      </trkpt>
      <trkpt lat="27.950269" lon="86.813523">
        <ele>4943.6</ele>
        <time>2022-10-27T08:14:21.000Z</time>
      </trkpt>
      <trkpt lat="27.950246" lon="86.813504">
        <ele>4943</ele>
        <time>2022-10-27T08:14:24.000Z</time>
      </trkpt>
      <trkpt lat="27.950227" lon="86.813491">
        <ele>4942.8</ele>
        <time>2022-10-27T08:14:26.000Z</time>
      </trkpt>
      <trkpt lat="27.950211" lon="86.813478">
        <ele>4942.8</ele>
        <time>2022-10-27T08:14:28.000Z</time>
      </trkpt>
      <trkpt lat="27.950195" lon="86.813459">
        <ele>4942.8</ele>
        <time>2022-10-27T08:14:30.000Z</time>
      </trkpt>
      <trkpt lat="27.950176" lon="86.813459">
        <ele>4942.8</ele>
        <time>2022-10-27T08:14:32.000Z</time>
      </trkpt>
      <trkpt lat="27.950157" lon="86.813446">
        <ele>4942.6</ele>
        <time>2022-10-27T08:14:35.000Z</time>
      </trkpt>
      <trkpt lat="27.950138" lon="86.813434">
        <ele>4942.2</ele>
        <time>2022-10-27T08:14:37.000Z</time>
      </trkpt>
      <trkpt lat="27.950128" lon="86.813414">
        <ele>4942</ele>
        <time>2022-10-27T08:14:39.000Z</time>
      </trkpt>
      <trkpt lat="27.950118" lon="86.813395">
        <ele>4942</ele>
        <time>2022-10-27T08:14:58.000Z</time>
      </trkpt>
      <trkpt lat="27.95008" lon="86.813318">
        <ele>4941</ele>
        <time>2022-10-27T08:15:03.000Z</time>
      </trkpt>
      <trkpt lat="27.950067" lon="86.813299">
        <ele>4941.4</ele>
        <time>2022-10-27T08:15:04.000Z</time>
      </trkpt>
      <trkpt lat="27.950051" lon="86.81328">
        <ele>4941.4</ele>
        <time>2022-10-27T08:15:06.000Z</time>
      </trkpt>
      <trkpt lat="27.950042" lon="86.813261">
        <ele>4941</ele>
        <time>2022-10-27T08:15:07.000Z</time>
      </trkpt>
      <trkpt lat="27.950026" lon="86.813235">
        <ele>4940.4</ele>
        <time>2022-10-27T08:15:10.000Z</time>
      </trkpt>
      <trkpt lat="27.95001" lon="86.813216">
        <ele>4940.8</ele>
        <time>2022-10-27T08:15:12.000Z</time>
      </trkpt>
      <trkpt lat="27.949997" lon="86.813197">
        <ele>4941.2</ele>
        <time>2022-10-27T08:15:14.000Z</time>
      </trkpt>
      <trkpt lat="27.949981" lon="86.813171">
        <ele>4940.6</ele>
        <time>2022-10-27T08:15:16.000Z</time>
      </trkpt>
      <trkpt lat="27.949962" lon="86.813146">
        <ele>4939.8</ele>
        <time>2022-10-27T08:15:19.000Z</time>
      </trkpt>
      <trkpt lat="27.949939" lon="86.813146">
        <ele>4941.2</ele>
        <time>2022-10-27T08:15:23.000Z</time>
      </trkpt>
      <trkpt lat="27.94992" lon="86.813146">
        <ele>4940.6</ele>
        <time>2022-10-27T08:15:25.000Z</time>
      </trkpt>
      <trkpt lat="27.949904" lon="86.813158">
        <ele>4940.4</ele>
        <time>2022-10-27T08:15:27.000Z</time>
      </trkpt>
      <trkpt lat="27.949882" lon="86.813146">
        <ele>4940.6</ele>
        <time>2022-10-27T08:15:30.000Z</time>
      </trkpt>
      <trkpt lat="27.949859" lon="86.813126">
        <ele>4939.8</ele>
        <time>2022-10-27T08:15:33.000Z</time>
      </trkpt>
      <trkpt lat="27.949853" lon="86.813101">
        <ele>4939.8</ele>
        <time>2022-10-27T08:15:35.000Z</time>
      </trkpt>
      <trkpt lat="27.949853" lon="86.813062">
        <ele>4938.6</ele>
        <time>2022-10-27T08:15:38.000Z</time>
      </trkpt>
      <trkpt lat="27.949837" lon="86.813018">
        <ele>4937.8</ele>
        <time>2022-10-27T08:15:43.000Z</time>
      </trkpt>
      <trkpt lat="27.949824" lon="86.812998">
        <ele>4939</ele>
        <time>2022-10-27T08:15:45.000Z</time>
      </trkpt>
      <trkpt lat="27.949814" lon="86.812979">
        <ele>4939</ele>
        <time>2022-10-27T08:15:47.000Z</time>
      </trkpt>
      <trkpt lat="27.949795" lon="86.812947">
        <ele>4940</ele>
        <time>2022-10-27T08:15:50.000Z</time>
      </trkpt>
      <trkpt lat="27.949792" lon="86.812922">
        <ele>4938.6</ele>
        <time>2022-10-27T08:15:53.000Z</time>
      </trkpt>
      <trkpt lat="27.949782" lon="86.812902">
        <ele>4939</ele>
        <time>2022-10-27T08:15:56.000Z</time>
      </trkpt>
      <trkpt lat="27.94977" lon="86.812883">
        <ele>4939.2</ele>
        <time>2022-10-27T08:15:59.000Z</time>
      </trkpt>
      <trkpt lat="27.949757" lon="86.812864">
        <ele>4938.4</ele>
        <time>2022-10-27T08:16:01.000Z</time>
      </trkpt>
      <trkpt lat="27.949738" lon="86.812858">
        <ele>4939.4</ele>
        <time>2022-10-27T08:16:03.000Z</time>
      </trkpt>
      <trkpt lat="27.949712" lon="86.812858">
        <ele>4939</ele>
        <time>2022-10-27T08:16:05.000Z</time>
      </trkpt>
      <trkpt lat="27.94969" lon="86.812851">
        <ele>4937.8</ele>
        <time>2022-10-27T08:16:07.000Z</time>
      </trkpt>
      <trkpt lat="27.94967" lon="86.812845">
        <ele>4937.8</ele>
        <time>2022-10-27T08:16:09.000Z</time>
      </trkpt>
      <trkpt lat="27.949658" lon="86.812819">
        <ele>4937.8</ele>
        <time>2022-10-27T08:16:11.000Z</time>
      </trkpt>
      <trkpt lat="27.949642" lon="86.8128">
        <ele>4936.4</ele>
        <time>2022-10-27T08:16:14.000Z</time>
      </trkpt>
      <trkpt lat="27.949632" lon="86.812781">
        <ele>4936.8</ele>
        <time>2022-10-27T08:16:16.000Z</time>
      </trkpt>
      <trkpt lat="27.949616" lon="86.812768">
        <ele>4937.2</ele>
        <time>2022-10-27T08:16:18.000Z</time>
      </trkpt>
      <trkpt lat="27.949597" lon="86.812749">
        <ele>4937.2</ele>
        <time>2022-10-27T08:16:20.000Z</time>
      </trkpt>
      <trkpt lat="27.949584" lon="86.81273">
        <ele>4936.4</ele>
        <time>2022-10-27T08:16:23.000Z</time>
      </trkpt>
      <trkpt lat="27.949571" lon="86.812698">
        <ele>4935.6</ele>
        <time>2022-10-27T08:16:26.000Z</time>
      </trkpt>
      <trkpt lat="27.949555" lon="86.812678">
        <ele>4935.6</ele>
        <time>2022-10-27T08:16:29.000Z</time>
      </trkpt>
      <trkpt lat="27.949552" lon="86.812653">
        <ele>4935.4</ele>
        <time>2022-10-27T08:16:31.000Z</time>
      </trkpt>
      <trkpt lat="27.949536" lon="86.812627">
        <ele>4935.4</ele>
        <time>2022-10-27T08:16:34.000Z</time>
      </trkpt>
      <trkpt lat="27.94952" lon="86.812608">
        <ele>4934.8</ele>
        <time>2022-10-27T08:16:37.000Z</time>
      </trkpt>
      <trkpt lat="27.949517" lon="86.812582">
        <ele>4934.8</ele>
        <time>2022-10-27T08:16:39.000Z</time>
      </trkpt>
      <trkpt lat="27.94951" lon="86.812563">
        <ele>4934.8</ele>
        <time>2022-10-27T08:16:41.000Z</time>
      </trkpt>
      <trkpt lat="27.949501" lon="86.812538">
        <ele>4935</ele>
        <time>2022-10-27T08:16:43.000Z</time>
      </trkpt>
      <trkpt lat="27.949501" lon="86.812506">
        <ele>4935</ele>
        <time>2022-10-27T08:16:46.000Z</time>
      </trkpt>
      <trkpt lat="27.949494" lon="86.812467">
        <ele>4934.4</ele>
        <time>2022-10-27T08:16:49.000Z</time>
      </trkpt>
      <trkpt lat="27.949485" lon="86.812448">
        <ele>4934</ele>
        <time>2022-10-27T08:16:51.000Z</time>
      </trkpt>
      <trkpt lat="27.949478" lon="86.812429">
        <ele>4934.2</ele>
        <time>2022-10-27T08:16:52.000Z</time>
      </trkpt>
      <trkpt lat="27.949462" lon="86.81241">
        <ele>4934.4</ele>
        <time>2022-10-27T08:16:55.000Z</time>
      </trkpt>
      <trkpt lat="27.949446" lon="86.812384">
        <ele>4934.2</ele>
        <time>2022-10-27T08:16:57.000Z</time>
      </trkpt>
      <trkpt lat="27.949434" lon="86.812365">
        <ele>4934.2</ele>
        <time>2022-10-27T08:16:59.000Z</time>
      </trkpt>
      <trkpt lat="27.949421" lon="86.812346">
        <ele>4934</ele>
        <time>2022-10-27T08:17:01.000Z</time>
      </trkpt>
      <trkpt lat="27.949398" lon="86.812333">
        <ele>4934</ele>
        <time>2022-10-27T08:17:03.000Z</time>
      </trkpt>
      <trkpt lat="27.949382" lon="86.812301">
        <ele>4933.6</ele>
        <time>2022-10-27T08:17:06.000Z</time>
      </trkpt>
      <trkpt lat="27.949363" lon="86.812294">
        <ele>4933.4</ele>
        <time>2022-10-27T08:17:08.000Z</time>
      </trkpt>
      <trkpt lat="27.949344" lon="86.812269">
        <ele>4933.4</ele>
        <time>2022-10-27T08:17:10.000Z</time>
      </trkpt>
      <trkpt lat="27.949328" lon="86.81225">
        <ele>4933</ele>
        <time>2022-10-27T08:17:12.000Z</time>
      </trkpt>
      <trkpt lat="27.949318" lon="86.81223">
        <ele>4932.8</ele>
        <time>2022-10-27T08:17:14.000Z</time>
      </trkpt>
      <trkpt lat="27.949299" lon="86.812224">
        <ele>4933</ele>
        <time>2022-10-27T08:17:16.000Z</time>
      </trkpt>
      <trkpt lat="27.949293" lon="86.812205">
        <ele>4933</ele>
        <time>2022-10-27T08:17:18.000Z</time>
      </trkpt>
      <trkpt lat="27.949286" lon="86.812186">
        <ele>4932.6</ele>
        <time>2022-10-27T08:17:19.000Z</time>
      </trkpt>
      <trkpt lat="27.949277" lon="86.812154">
        <ele>4932.2</ele>
        <time>2022-10-27T08:17:22.000Z</time>
      </trkpt>
      <trkpt lat="27.949267" lon="86.812134">
        <ele>4932</ele>
        <time>2022-10-27T08:17:24.000Z</time>
      </trkpt>
      <trkpt lat="27.949261" lon="86.812109">
        <ele>4932</ele>
        <time>2022-10-27T08:17:26.000Z</time>
      </trkpt>
      <trkpt lat="27.949248" lon="86.81209">
        <ele>4931.8</ele>
        <time>2022-10-27T08:17:28.000Z</time>
      </trkpt>
      <trkpt lat="27.949238" lon="86.812064">
        <ele>4931.8</ele>
        <time>2022-10-27T08:17:30.000Z</time>
      </trkpt>
      <trkpt lat="27.949226" lon="86.812045">
        <ele>4932</ele>
        <time>2022-10-27T08:17:33.000Z</time>
      </trkpt>
      <trkpt lat="27.94921" lon="86.812026">
        <ele>4932.2</ele>
        <time>2022-10-27T08:17:35.000Z</time>
      </trkpt>
      <trkpt lat="27.94919" lon="86.812019">
        <ele>4932.2</ele>
        <time>2022-10-27T08:17:37.000Z</time>
      </trkpt>
      <trkpt lat="27.949171" lon="86.812013">
        <ele>4931.4</ele>
        <time>2022-10-27T08:17:39.000Z</time>
      </trkpt>
      <trkpt lat="27.949158" lon="86.811994">
        <ele>4931.8</ele>
        <time>2022-10-27T08:17:41.000Z</time>
      </trkpt>
      <trkpt lat="27.949146" lon="86.811974">
        <ele>4932</ele>
        <time>2022-10-27T08:17:43.000Z</time>
      </trkpt>
      <trkpt lat="27.949136" lon="86.811949">
        <ele>4931.4</ele>
        <time>2022-10-27T08:17:45.000Z</time>
      </trkpt>
      <trkpt lat="27.94913" lon="86.81193">
        <ele>4931.2</ele>
        <time>2022-10-27T08:17:47.000Z</time>
      </trkpt>
      <trkpt lat="27.949123" lon="86.811904">
        <ele>4931.4</ele>
        <time>2022-10-27T08:17:50.000Z</time>
      </trkpt>
      <trkpt lat="27.949104" lon="86.811904">
        <ele>4931.8</ele>
        <time>2022-10-27T08:17:53.000Z</time>
      </trkpt>
      <trkpt lat="27.949088" lon="86.811885">
        <ele>4931.2</ele>
        <time>2022-10-27T08:17:56.000Z</time>
      </trkpt>
      <trkpt lat="27.949094" lon="86.811859">
        <ele>4931.4</ele>
        <time>2022-10-27T08:17:58.000Z</time>
      </trkpt>
      <trkpt lat="27.949107" lon="86.811834">
        <ele>4931.8</ele>
        <time>2022-10-27T08:18:00.000Z</time>
      </trkpt>
      <trkpt lat="27.949104" lon="86.811808">
        <ele>4931.2</ele>
        <time>2022-10-27T08:18:03.000Z</time>
      </trkpt>
      <trkpt lat="27.949094" lon="86.811782">
        <ele>4930.8</ele>
        <time>2022-10-27T08:18:05.000Z</time>
      </trkpt>
      <trkpt lat="27.949075" lon="86.811757">
        <ele>4930.8</ele>
        <time>2022-10-27T08:18:08.000Z</time>
      </trkpt>
      <trkpt lat="27.949056" lon="86.811744">
        <ele>4930.8</ele>
        <time>2022-10-27T08:18:10.000Z</time>
      </trkpt>
      <trkpt lat="27.949037" lon="86.811738">
        <ele>4930.6</ele>
        <time>2022-10-27T08:18:12.000Z</time>
      </trkpt>
      <trkpt lat="27.949024" lon="86.811712">
        <ele>4930.6</ele>
        <time>2022-10-27T08:18:14.000Z</time>
      </trkpt>
      <trkpt lat="27.949008" lon="86.811693">
        <ele>4930.6</ele>
        <time>2022-10-27T08:18:16.000Z</time>
      </trkpt>
      <trkpt lat="27.948998" lon="86.811667">
        <ele>4930.6</ele>
        <time>2022-10-27T08:18:18.000Z</time>
      </trkpt>
      <trkpt lat="27.948976" lon="86.811654">
        <ele>4930.4</ele>
        <time>2022-10-27T08:18:21.000Z</time>
      </trkpt>
      <trkpt lat="27.948957" lon="86.811635">
        <ele>4930.4</ele>
        <time>2022-10-27T08:18:24.000Z</time>
      </trkpt>
      <trkpt lat="27.948941" lon="86.811616">
        <ele>4930.8</ele>
        <time>2022-10-27T08:18:28.000Z</time>
      </trkpt>
      <trkpt lat="27.948928" lon="86.811597">
        <ele>4930.8</ele>
        <time>2022-10-27T08:18:30.000Z</time>
      </trkpt>
      <trkpt lat="27.948912" lon="86.811578">
        <ele>4931.2</ele>
        <time>2022-10-27T08:18:32.000Z</time>
      </trkpt>
      <trkpt lat="27.948899" lon="86.811558">
        <ele>4929.8</ele>
        <time>2022-10-27T08:18:34.000Z</time>
      </trkpt>
      <trkpt lat="27.94888" lon="86.811546">
        <ele>4929.8</ele>
        <time>2022-10-27T08:18:36.000Z</time>
      </trkpt>
      <trkpt lat="27.948861" lon="86.811533">
        <ele>4929.8</ele>
        <time>2022-10-27T08:18:38.000Z</time>
      </trkpt>
      <trkpt lat="27.948838" lon="86.811507">
        <ele>4930</ele>
        <time>2022-10-27T08:18:40.000Z</time>
      </trkpt>
      <trkpt lat="27.948816" lon="86.811488">
        <ele>4929.8</ele>
        <time>2022-10-27T08:18:43.000Z</time>
      </trkpt>
      <trkpt lat="27.94881" lon="86.811469">
        <ele>4929.4</ele>
        <time>2022-10-27T08:18:44.000Z</time>
      </trkpt>
      <trkpt lat="27.9488" lon="86.81145">
        <ele>4929.2</ele>
        <time>2022-10-27T08:18:46.000Z</time>
      </trkpt>
      <trkpt lat="27.948787" lon="86.811424">
        <ele>4929.4</ele>
        <time>2022-10-27T08:18:48.000Z</time>
      </trkpt>
      <trkpt lat="27.948771" lon="86.811411">
        <ele>4929.4</ele>
        <time>2022-10-27T08:18:50.000Z</time>
      </trkpt>
      <trkpt lat="27.948758" lon="86.811386">
        <ele>4929.4</ele>
        <time>2022-10-27T08:18:52.000Z</time>
      </trkpt>
      <trkpt lat="27.948739" lon="86.811354">
        <ele>4929.4</ele>
        <time>2022-10-27T08:18:55.000Z</time>
      </trkpt>
      <trkpt lat="27.948723" lon="86.811334">
        <ele>4929.4</ele>
        <time>2022-10-27T08:18:57.000Z</time>
      </trkpt>
      <trkpt lat="27.948714" lon="86.811309">
        <ele>4929.6</ele>
        <time>2022-10-27T08:18:59.000Z</time>
      </trkpt>
      <trkpt lat="27.948698" lon="86.811296">
        <ele>4929.4</ele>
        <time>2022-10-27T08:19:01.000Z</time>
      </trkpt>
      <trkpt lat="27.948688" lon="86.81127">
        <ele>4929.2</ele>
        <time>2022-10-27T08:19:03.000Z</time>
      </trkpt>
      <trkpt lat="27.948682" lon="86.811251">
        <ele>4929.4</ele>
        <time>2022-10-27T08:19:05.000Z</time>
      </trkpt>
      <trkpt lat="27.948669" lon="86.811226">
        <ele>4929.4</ele>
        <time>2022-10-27T08:19:07.000Z</time>
      </trkpt>
      <trkpt lat="27.948653" lon="86.811213">
        <ele>4929.4</ele>
        <time>2022-10-27T08:19:09.000Z</time>
      </trkpt>
      <trkpt lat="27.948637" lon="86.811194">
        <ele>4929.4</ele>
        <time>2022-10-27T08:19:12.000Z</time>
      </trkpt>
      <trkpt lat="27.94863" lon="86.811174">
        <ele>4929.6</ele>
        <time>2022-10-27T08:19:14.000Z</time>
      </trkpt>
      <trkpt lat="27.948627" lon="86.811149">
        <ele>4929.6</ele>
        <time>2022-10-27T08:19:16.000Z</time>
      </trkpt>
      <trkpt lat="27.948624" lon="86.81111">
        <ele>4929.6</ele>
        <time>2022-10-27T08:19:19.000Z</time>
      </trkpt>
      <trkpt lat="27.948624" lon="86.811072">
        <ele>4929.6</ele>
        <time>2022-10-27T08:19:22.000Z</time>
      </trkpt>
      <trkpt lat="27.948624" lon="86.81104">
        <ele>4929.6</ele>
        <time>2022-10-27T08:19:25.000Z</time>
      </trkpt>
      <trkpt lat="27.948618" lon="86.811021">
        <ele>4929.4</ele>
        <time>2022-10-27T08:19:27.000Z</time>
      </trkpt>
      <trkpt lat="27.948618" lon="86.810995">
        <ele>4929.4</ele>
        <time>2022-10-27T08:19:29.000Z</time>
      </trkpt>
      <trkpt lat="27.948618" lon="86.81097">
        <ele>4929.4</ele>
        <time>2022-10-27T08:19:31.000Z</time>
      </trkpt>
      <trkpt lat="27.948618" lon="86.810944">
        <ele>4929.2</ele>
        <time>2022-10-27T08:19:33.000Z</time>
      </trkpt>
      <trkpt lat="27.948614" lon="86.810918">
        <ele>4929.2</ele>
        <time>2022-10-27T08:19:35.000Z</time>
      </trkpt>
      <trkpt lat="27.948611" lon="86.81088">
        <ele>4928.8</ele>
        <time>2022-10-27T08:19:38.000Z</time>
      </trkpt>
      <trkpt lat="27.948618" lon="86.810842">
        <ele>4928.8</ele>
        <time>2022-10-27T08:19:41.000Z</time>
      </trkpt>
      <trkpt lat="27.948627" lon="86.810822">
        <ele>4928.8</ele>
        <time>2022-10-27T08:19:43.000Z</time>
      </trkpt>
      <trkpt lat="27.94863" lon="86.81079">
        <ele>4929.2</ele>
        <time>2022-10-27T08:19:46.000Z</time>
      </trkpt>
      <trkpt lat="27.94864" lon="86.810758">
        <ele>4928.8</ele>
        <time>2022-10-27T08:19:49.000Z</time>
      </trkpt>
      <trkpt lat="27.948646" lon="86.810733">
        <ele>4928.8</ele>
        <time>2022-10-27T08:19:52.000Z</time>
      </trkpt>
      <trkpt lat="27.948646" lon="86.810707">
        <ele>4928.8</ele>
        <time>2022-10-27T08:19:54.000Z</time>
      </trkpt>
      <trkpt lat="27.948643" lon="86.810682">
        <ele>4928.6</ele>
        <time>2022-10-27T08:19:56.000Z</time>
      </trkpt>
      <trkpt lat="27.948634" lon="86.810662">
        <ele>4928</ele>
        <time>2022-10-27T08:20:04.000Z</time>
      </trkpt>
      <trkpt lat="27.948618" lon="86.810643">
        <ele>4927.8</ele>
        <time>2022-10-27T08:20:22.000Z</time>
      </trkpt>
      <trkpt lat="27.948598" lon="86.810637">
        <ele>4927.2</ele>
        <time>2022-10-27T08:20:24.000Z</time>
      </trkpt>
      <trkpt lat="27.948579" lon="86.810624">
        <ele>4927</ele>
        <time>2022-10-27T08:20:26.000Z</time>
      </trkpt>
      <trkpt lat="27.948563" lon="86.810605">
        <ele>4927.2</ele>
        <time>2022-10-27T08:20:28.000Z</time>
      </trkpt>
      <trkpt lat="27.948544" lon="86.810592">
        <ele>4927.8</ele>
        <time>2022-10-27T08:20:31.000Z</time>
      </trkpt>
      <trkpt lat="27.948525" lon="86.810579">
        <ele>4928.2</ele>
        <time>2022-10-27T08:20:34.000Z</time>
      </trkpt>
      <trkpt lat="27.948502" lon="86.810579">
        <ele>4928.6</ele>
        <time>2022-10-27T08:20:38.000Z</time>
      </trkpt>
      <trkpt lat="27.948483" lon="86.810586">
        <ele>4928.4</ele>
        <time>2022-10-27T08:20:41.000Z</time>
      </trkpt>
      <trkpt lat="27.948474" lon="86.810605">
        <ele>4928.4</ele>
        <time>2022-10-27T08:29:49.000Z</time>
      </trkpt>
      <trkpt lat="27.948454" lon="86.810605">
        <ele>4928.2</ele>
        <time>2022-10-27T08:29:50.000Z</time>
      </trkpt>
      <trkpt lat="27.948422" lon="86.810605">
        <ele>4928.2</ele>
        <time>2022-10-27T08:29:52.000Z</time>
      </trkpt>
      <trkpt lat="27.948403" lon="86.810605">
        <ele>4928.2</ele>
        <time>2022-10-27T08:29:53.000Z</time>
      </trkpt>
      <trkpt lat="27.948384" lon="86.810598">
        <ele>4928.2</ele>
        <time>2022-10-27T08:29:54.000Z</time>
      </trkpt>
      <trkpt lat="27.948352" lon="86.810598">
        <ele>4927.8</ele>
        <time>2022-10-27T08:29:56.000Z</time>
      </trkpt>
      <trkpt lat="27.948333" lon="86.810598">
        <ele>4928.2</ele>
        <time>2022-10-27T08:29:57.000Z</time>
      </trkpt>
      <trkpt lat="27.948314" lon="86.810598">
        <ele>4928.2</ele>
        <time>2022-10-27T08:29:58.000Z</time>
      </trkpt>
      <trkpt lat="27.948291" lon="86.810598">
        <ele>4927.8</ele>
        <time>2022-10-27T08:30:01.000Z</time>
      </trkpt>
      <trkpt lat="27.948272" lon="86.810598">
        <ele>4927.8</ele>
        <time>2022-10-27T08:30:03.000Z</time>
      </trkpt>
      <trkpt lat="27.948246" lon="86.810605">
        <ele>4927.8</ele>
        <time>2022-10-27T08:30:05.000Z</time>
      </trkpt>
      <trkpt lat="27.948224" lon="86.810618">
        <ele>4927.6</ele>
        <time>2022-10-27T08:30:07.000Z</time>
      </trkpt>
      <trkpt lat="27.948205" lon="86.810618">
        <ele>4928.2</ele>
        <time>2022-10-27T08:30:09.000Z</time>
      </trkpt>
      <trkpt lat="27.948186" lon="86.810618">
        <ele>4928.2</ele>
        <time>2022-10-27T08:30:11.000Z</time>
      </trkpt>
      <trkpt lat="27.948166" lon="86.810618">
        <ele>4927.4</ele>
        <time>2022-10-27T08:30:13.000Z</time>
      </trkpt>
      <trkpt lat="27.948147" lon="86.810624">
        <ele>4927.4</ele>
        <time>2022-10-27T08:30:15.000Z</time>
      </trkpt>
      <trkpt lat="27.948128" lon="86.81063">
        <ele>4927.4</ele>
        <time>2022-10-27T08:30:17.000Z</time>
      </trkpt>
      <trkpt lat="27.948106" lon="86.810643">
        <ele>4927</ele>
        <time>2022-10-27T08:30:20.000Z</time>
      </trkpt>
      <trkpt lat="27.948086" lon="86.810662">
        <ele>4927.2</ele>
        <time>2022-10-27T08:30:22.000Z</time>
      </trkpt>
      <trkpt lat="27.948067" lon="86.810662">
        <ele>4927</ele>
        <time>2022-10-27T08:30:24.000Z</time>
      </trkpt>
      <trkpt lat="27.948045" lon="86.810669">
        <ele>4927</ele>
        <time>2022-10-27T08:30:26.000Z</time>
      </trkpt>
      <trkpt lat="27.948026" lon="86.810669">
        <ele>4926.8</ele>
        <time>2022-10-27T08:30:28.000Z</time>
      </trkpt>
      <trkpt lat="27.948003" lon="86.810662">
        <ele>4926.4</ele>
        <time>2022-10-27T08:30:30.000Z</time>
      </trkpt>
      <trkpt lat="27.947984" lon="86.810662">
        <ele>4926.2</ele>
        <time>2022-10-27T08:30:32.000Z</time>
      </trkpt>
      <trkpt lat="27.947962" lon="86.810656">
        <ele>4926.2</ele>
        <time>2022-10-27T08:30:34.000Z</time>
      </trkpt>
      <trkpt lat="27.947942" lon="86.810656">
        <ele>4926.2</ele>
        <time>2022-10-27T08:30:36.000Z</time>
      </trkpt>
      <trkpt lat="27.947923" lon="86.810637">
        <ele>4926.2</ele>
        <time>2022-10-27T08:30:38.000Z</time>
      </trkpt>
      <trkpt lat="27.947901" lon="86.810624">
        <ele>4926</ele>
        <time>2022-10-27T08:30:40.000Z</time>
      </trkpt>
      <trkpt lat="27.947875" lon="86.810605">
        <ele>4925.6</ele>
        <time>2022-10-27T08:30:43.000Z</time>
      </trkpt>
      <trkpt lat="27.94785" lon="86.810605">
        <ele>4925.6</ele>
        <time>2022-10-27T08:30:45.000Z</time>
      </trkpt>
      <trkpt lat="27.947824" lon="86.810598">
        <ele>4925.6</ele>
        <time>2022-10-27T08:30:48.000Z</time>
      </trkpt>
      <trkpt lat="27.947802" lon="86.810592">
        <ele>4925.8</ele>
        <time>2022-10-27T08:30:50.000Z</time>
      </trkpt>
      <trkpt lat="27.947779" lon="86.810586">
        <ele>4925.8</ele>
        <time>2022-10-27T08:30:52.000Z</time>
      </trkpt>
      <trkpt lat="27.947754" lon="86.810573">
        <ele>4925.6</ele>
        <time>2022-10-27T08:30:55.000Z</time>
      </trkpt>
      <trkpt lat="27.947734" lon="86.81056">
        <ele>4925.6</ele>
        <time>2022-10-27T08:30:57.000Z</time>
      </trkpt>
      <trkpt lat="27.947709" lon="86.81056">
        <ele>4925.6</ele>
        <time>2022-10-27T08:30:59.000Z</time>
      </trkpt>
      <trkpt lat="27.94769" lon="86.81056">
        <ele>4925.8</ele>
        <time>2022-10-27T08:31:01.000Z</time>
      </trkpt>
      <trkpt lat="27.947667" lon="86.810573">
        <ele>4926.4</ele>
        <time>2022-10-27T08:31:03.000Z</time>
      </trkpt>
      <trkpt lat="27.947645" lon="86.810573">
        <ele>4925</ele>
        <time>2022-10-27T08:31:05.000Z</time>
      </trkpt>
      <trkpt lat="27.947626" lon="86.810573">
        <ele>4925.4</ele>
        <time>2022-10-27T08:31:07.000Z</time>
      </trkpt>
      <trkpt lat="27.947597" lon="86.810573">
        <ele>4925.6</ele>
        <time>2022-10-27T08:31:09.000Z</time>
      </trkpt>
      <trkpt lat="27.947571" lon="86.810579">
        <ele>4925.8</ele>
        <time>2022-10-27T08:31:11.000Z</time>
      </trkpt>
      <trkpt lat="27.947549" lon="86.810579">
        <ele>4925.6</ele>
        <time>2022-10-27T08:31:13.000Z</time>
      </trkpt>
      <trkpt lat="27.947526" lon="86.810573">
        <ele>4925.4</ele>
        <time>2022-10-27T08:31:15.000Z</time>
      </trkpt>
      <trkpt lat="27.947507" lon="86.810573">
        <ele>4925.2</ele>
        <time>2022-10-27T08:31:17.000Z</time>
      </trkpt>
      <trkpt lat="27.947488" lon="86.810573">
        <ele>4925.6</ele>
        <time>2022-10-27T08:31:19.000Z</time>
      </trkpt>
      <trkpt lat="27.947469" lon="86.810573">
        <ele>4925.8</ele>
        <time>2022-10-27T08:31:21.000Z</time>
      </trkpt>
      <trkpt lat="27.94744" lon="86.810586">
        <ele>4926.2</ele>
        <time>2022-10-27T08:31:24.000Z</time>
      </trkpt>
      <trkpt lat="27.947418" lon="86.810592">
        <ele>4927</ele>
        <time>2022-10-27T08:31:27.000Z</time>
      </trkpt>
      <trkpt lat="27.947398" lon="86.810592">
        <ele>4927</ele>
        <time>2022-10-27T08:31:30.000Z</time>
      </trkpt>
      <trkpt lat="27.947373" lon="86.810592">
        <ele>4927.2</ele>
        <time>2022-10-27T08:31:33.000Z</time>
      </trkpt>
      <trkpt lat="27.947347" lon="86.810592">
        <ele>4927.2</ele>
        <time>2022-10-27T08:31:36.000Z</time>
      </trkpt>
      <trkpt lat="27.947325" lon="86.810592">
        <ele>4927.2</ele>
        <time>2022-10-27T08:31:39.000Z</time>
      </trkpt>
      <trkpt lat="27.947299" lon="86.810592">
        <ele>4927.2</ele>
        <time>2022-10-27T08:31:42.000Z</time>
      </trkpt>
      <trkpt lat="27.94728" lon="86.810598">
        <ele>4927.4</ele>
        <time>2022-10-27T08:31:44.000Z</time>
      </trkpt>
      <trkpt lat="27.947261" lon="86.810592">
        <ele>4927.4</ele>
        <time>2022-10-27T08:31:46.000Z</time>
      </trkpt>
      <trkpt lat="27.947242" lon="86.810592">
        <ele>4927.8</ele>
        <time>2022-10-27T08:31:48.000Z</time>
      </trkpt>
      <trkpt lat="27.947222" lon="86.810586">
        <ele>4927.6</ele>
        <time>2022-10-27T08:31:50.000Z</time>
      </trkpt>
      <trkpt lat="27.947197" lon="86.810586">
        <ele>4928</ele>
        <time>2022-10-27T08:31:53.000Z</time>
      </trkpt>
      <trkpt lat="27.947178" lon="86.810579">
        <ele>4928.2</ele>
        <time>2022-10-27T08:31:55.000Z</time>
      </trkpt>
      <trkpt lat="27.947158" lon="86.810573">
        <ele>4928</ele>
        <time>2022-10-27T08:31:57.000Z</time>
      </trkpt>
      <trkpt lat="27.947136" lon="86.81056">
        <ele>4928.2</ele>
        <time>2022-10-27T08:31:59.000Z</time>
      </trkpt>
      <trkpt lat="27.947114" lon="86.81056">
        <ele>4928</ele>
        <time>2022-10-27T08:32:01.000Z</time>
      </trkpt>
      <trkpt lat="27.947094" lon="86.810547">
        <ele>4928</ele>
        <time>2022-10-27T08:32:03.000Z</time>
      </trkpt>
      <trkpt lat="27.947072" lon="86.810541">
        <ele>4928.2</ele>
        <time>2022-10-27T08:32:05.000Z</time>
      </trkpt>
      <trkpt lat="27.947046" lon="86.810534">
        <ele>4928</ele>
        <time>2022-10-27T08:32:08.000Z</time>
      </trkpt>
      <trkpt lat="27.947027" lon="86.810541">
        <ele>4928</ele>
        <time>2022-10-27T08:32:10.000Z</time>
      </trkpt>
      <trkpt lat="27.947005" lon="86.810541">
        <ele>4927.4</ele>
        <time>2022-10-27T08:32:12.000Z</time>
      </trkpt>
      <trkpt lat="27.946986" lon="86.810541">
        <ele>4927.2</ele>
        <time>2022-10-27T08:32:14.000Z</time>
      </trkpt>
      <trkpt lat="27.946963" lon="86.810547">
        <ele>4927.6</ele>
        <time>2022-10-27T08:32:17.000Z</time>
      </trkpt>
      <trkpt lat="27.946941" lon="86.810547">
        <ele>4928</ele>
        <time>2022-10-27T08:32:20.000Z</time>
      </trkpt>
      <trkpt lat="27.946918" lon="86.810547">
        <ele>4928.2</ele>
        <time>2022-10-27T08:32:23.000Z</time>
      </trkpt>
      <trkpt lat="27.946893" lon="86.810541">
        <ele>4928.2</ele>
        <time>2022-10-27T08:32:26.000Z</time>
      </trkpt>
      <trkpt lat="27.94687" lon="86.810534">
        <ele>4928.2</ele>
        <time>2022-10-27T08:32:28.000Z</time>
      </trkpt>
      <trkpt lat="27.946851" lon="86.810522">
        <ele>4927.6</ele>
        <time>2022-10-27T08:32:30.000Z</time>
      </trkpt>
      <trkpt lat="27.946832" lon="86.810515">
        <ele>4926.6</ele>
        <time>2022-10-27T08:32:32.000Z</time>
      </trkpt>
      <trkpt lat="27.946806" lon="86.810509">
        <ele>4926</ele>
        <time>2022-10-27T08:32:34.000Z</time>
      </trkpt>
      <trkpt lat="27.946787" lon="86.810483">
        <ele>4926</ele>
        <time>2022-10-27T08:32:36.000Z</time>
      </trkpt>
      <trkpt lat="27.946765" lon="86.81047">
        <ele>4926.2</ele>
        <time>2022-10-27T08:32:38.000Z</time>
      </trkpt>
      <trkpt lat="27.946746" lon="86.810458">
        <ele>4926.2</ele>
        <time>2022-10-27T08:32:40.000Z</time>
      </trkpt>
      <trkpt lat="27.946726" lon="86.810445">
        <ele>4926.6</ele>
        <time>2022-10-27T08:32:42.000Z</time>
      </trkpt>
      <trkpt lat="27.946707" lon="86.810432">
        <ele>4926.8</ele>
        <time>2022-10-27T08:32:44.000Z</time>
      </trkpt>
      <trkpt lat="27.946688" lon="86.810426">
        <ele>4926.4</ele>
        <time>2022-10-27T08:32:46.000Z</time>
      </trkpt>
      <trkpt lat="27.946672" lon="86.810406">
        <ele>4926.2</ele>
        <time>2022-10-27T08:32:48.000Z</time>
      </trkpt>
      <trkpt lat="27.946646" lon="86.8104">
        <ele>4926.2</ele>
        <time>2022-10-27T08:32:50.000Z</time>
      </trkpt>
      <trkpt lat="27.946624" lon="86.8104">
        <ele>4926.2</ele>
        <time>2022-10-27T08:32:52.000Z</time>
      </trkpt>
      <trkpt lat="27.946602" lon="86.8104">
        <ele>4926</ele>
        <time>2022-10-27T08:32:54.000Z</time>
      </trkpt>
      <trkpt lat="27.946573" lon="86.8104">
        <ele>4925.4</ele>
        <time>2022-10-27T08:32:57.000Z</time>
      </trkpt>
      <trkpt lat="27.946554" lon="86.8104">
        <ele>4925</ele>
        <time>2022-10-27T08:32:59.000Z</time>
      </trkpt>
      <trkpt lat="27.946528" lon="86.8104">
        <ele>4925</ele>
        <time>2022-10-27T08:33:01.000Z</time>
      </trkpt>
      <trkpt lat="27.946509" lon="86.810406">
        <ele>4925</ele>
        <time>2022-10-27T08:33:03.000Z</time>
      </trkpt>
      <trkpt lat="27.94649" lon="86.810406">
        <ele>4925</ele>
        <time>2022-10-27T08:33:05.000Z</time>
      </trkpt>
      <trkpt lat="27.94647" lon="86.810406">
        <ele>4924.8</ele>
        <time>2022-10-27T08:33:07.000Z</time>
      </trkpt>
      <trkpt lat="27.946448" lon="86.8104">
        <ele>4924.6</ele>
        <time>2022-10-27T08:33:10.000Z</time>
      </trkpt>
      <trkpt lat="27.946426" lon="86.810406">
        <ele>4924.8</ele>
        <time>2022-10-27T08:33:12.000Z</time>
      </trkpt>
      <trkpt lat="27.946406" lon="86.810406">
        <ele>4924</ele>
        <time>2022-10-27T08:33:14.000Z</time>
      </trkpt>
      <trkpt lat="27.946384" lon="86.810419">
        <ele>4924</ele>
        <time>2022-10-27T08:33:16.000Z</time>
      </trkpt>
      <trkpt lat="27.946368" lon="86.810406">
        <ele>4923.6</ele>
        <time>2022-10-27T08:33:18.000Z</time>
      </trkpt>
      <trkpt lat="27.946346" lon="86.810406">
        <ele>4923.6</ele>
        <time>2022-10-27T08:33:20.000Z</time>
      </trkpt>
      <trkpt lat="27.946326" lon="86.810406">
        <ele>4923.6</ele>
        <time>2022-10-27T08:33:22.000Z</time>
      </trkpt>
      <trkpt lat="27.946304" lon="86.810406">
        <ele>4923.2</ele>
        <time>2022-10-27T08:33:24.000Z</time>
      </trkpt>
      <trkpt lat="27.946278" lon="86.810406">
        <ele>4923.6</ele>
        <time>2022-10-27T08:33:26.000Z</time>
      </trkpt>
      <trkpt lat="27.946253" lon="86.810406">
        <ele>4923.2</ele>
        <time>2022-10-27T08:33:28.000Z</time>
      </trkpt>
      <trkpt lat="27.946224" lon="86.810406">
        <ele>4922.8</ele>
        <time>2022-10-27T08:33:30.000Z</time>
      </trkpt>
      <trkpt lat="27.946205" lon="86.810406">
        <ele>4922.8</ele>
        <time>2022-10-27T08:33:32.000Z</time>
      </trkpt>
      <trkpt lat="27.946182" lon="86.810419">
        <ele>4922.8</ele>
        <time>2022-10-27T08:33:34.000Z</time>
      </trkpt>
      <trkpt lat="27.94616" lon="86.810406">
        <ele>4922.6</ele>
        <time>2022-10-27T08:33:36.000Z</time>
      </trkpt>
      <trkpt lat="27.946141" lon="86.8104">
        <ele>4922.6</ele>
        <time>2022-10-27T08:33:39.000Z</time>
      </trkpt>
      <trkpt lat="27.946118" lon="86.810394">
        <ele>4922.8</ele>
        <time>2022-10-27T08:33:42.000Z</time>
      </trkpt>
      <trkpt lat="27.946093" lon="86.810406">
        <ele>4923.2</ele>
        <time>2022-10-27T08:33:45.000Z</time>
      </trkpt>
      <trkpt lat="27.946074" lon="86.810419">
        <ele>4922.8</ele>
        <time>2022-10-27T08:33:47.000Z</time>
      </trkpt>
      <trkpt lat="27.946051" lon="86.810426">
        <ele>4923.4</ele>
        <time>2022-10-27T08:33:49.000Z</time>
      </trkpt>
      <trkpt lat="27.946029" lon="86.810419">
        <ele>4923.2</ele>
        <time>2022-10-27T08:33:51.000Z</time>
      </trkpt>
      <trkpt lat="27.946006" lon="86.810406">
        <ele>4922</ele>
        <time>2022-10-27T08:33:53.000Z</time>
      </trkpt>
      <trkpt lat="27.945981" lon="86.8104">
        <ele>4922.2</ele>
        <time>2022-10-27T08:33:55.000Z</time>
      </trkpt>
      <trkpt lat="27.945958" lon="86.8104">
        <ele>4921.4</ele>
        <time>2022-10-27T08:33:57.000Z</time>
      </trkpt>
      <trkpt lat="27.945939" lon="86.810394">
        <ele>4921.2</ele>
        <time>2022-10-27T08:33:59.000Z</time>
      </trkpt>
      <trkpt lat="27.94592" lon="86.810381">
        <ele>4922</ele>
        <time>2022-10-27T08:34:01.000Z</time>
      </trkpt>
      <trkpt lat="27.945901" lon="86.810374">
        <ele>4922.2</ele>
        <time>2022-10-27T08:34:03.000Z</time>
      </trkpt>
      <trkpt lat="27.945882" lon="86.810362">
        <ele>4921.8</ele>
        <time>2022-10-27T08:34:05.000Z</time>
      </trkpt>
      <trkpt lat="27.945859" lon="86.810362">
        <ele>4921.4</ele>
        <time>2022-10-27T08:34:08.000Z</time>
      </trkpt>
      <trkpt lat="27.945834" lon="86.810355">
        <ele>4920.4</ele>
        <time>2022-10-27T08:34:11.000Z</time>
      </trkpt>
      <trkpt lat="27.945805" lon="86.810362">
        <ele>4920</ele>
        <time>2022-10-27T08:34:14.000Z</time>
      </trkpt>
      <trkpt lat="27.945786" lon="86.810374">
        <ele>4920</ele>
        <time>2022-10-27T08:34:16.000Z</time>
      </trkpt>
      <trkpt lat="27.94577" lon="86.810362">
        <ele>4919</ele>
        <time>2022-10-27T08:34:18.000Z</time>
      </trkpt>
      <trkpt lat="27.94575" lon="86.810362">
        <ele>4917.6</ele>
        <time>2022-10-27T08:34:20.000Z</time>
      </trkpt>
      <trkpt lat="27.945731" lon="86.810355">
        <ele>4917.6</ele>
        <time>2022-10-27T08:34:22.000Z</time>
      </trkpt>
      <trkpt lat="27.945712" lon="86.810349">
        <ele>4916.8</ele>
        <time>2022-10-27T08:34:24.000Z</time>
      </trkpt>
      <trkpt lat="27.94569" lon="86.810336">
        <ele>4916.8</ele>
        <time>2022-10-27T08:34:32.000Z</time>
      </trkpt>
      <trkpt lat="27.94567" lon="86.810336">
        <ele>4916.6</ele>
        <time>2022-10-27T08:34:34.000Z</time>
      </trkpt>
      <trkpt lat="27.945651" lon="86.810323">
        <ele>4916.2</ele>
        <time>2022-10-27T08:34:35.000Z</time>
      </trkpt>
      <trkpt lat="27.945629" lon="86.81031">
        <ele>4915.6</ele>
        <time>2022-10-27T08:34:37.000Z</time>
      </trkpt>
      <trkpt lat="27.945603" lon="86.810298">
        <ele>4915.2</ele>
        <time>2022-10-27T08:34:39.000Z</time>
      </trkpt>
      <trkpt lat="27.945581" lon="86.810278">
        <ele>4915.2</ele>
        <time>2022-10-27T08:34:41.000Z</time>
      </trkpt>
      <trkpt lat="27.945565" lon="86.810266">
        <ele>4914.8</ele>
        <time>2022-10-27T08:34:43.000Z</time>
      </trkpt>
      <trkpt lat="27.945546" lon="86.810246">
        <ele>4914.8</ele>
        <time>2022-10-27T08:34:45.000Z</time>
      </trkpt>
      <trkpt lat="27.945517" lon="86.81024">
        <ele>4914.8</ele>
        <time>2022-10-27T08:34:47.000Z</time>
      </trkpt>
      <trkpt lat="27.945494" lon="86.810234">
        <ele>4915.2</ele>
        <time>2022-10-27T08:34:49.000Z</time>
      </trkpt>
      <trkpt lat="27.945475" lon="86.810227">
        <ele>4915.2</ele>
        <time>2022-10-27T08:34:50.000Z</time>
      </trkpt>
      <trkpt lat="27.945443" lon="86.810221">
        <ele>4914.6</ele>
        <time>2022-10-27T08:34:52.000Z</time>
      </trkpt>
      <trkpt lat="27.945421" lon="86.810202">
        <ele>4914.6</ele>
        <time>2022-10-27T08:34:54.000Z</time>
      </trkpt>
      <trkpt lat="27.945395" lon="86.810189">
        <ele>4914.6</ele>
        <time>2022-10-27T08:34:56.000Z</time>
      </trkpt>
      <trkpt lat="27.945373" lon="86.810176">
        <ele>4914.6</ele>
        <time>2022-10-27T08:34:58.000Z</time>
      </trkpt>
      <trkpt lat="27.945322" lon="86.810157">
        <ele>4914</ele>
        <time>2022-10-27T08:35:02.000Z</time>
      </trkpt>
      <trkpt lat="27.945293" lon="86.810144">
        <ele>4914</ele>
        <time>2022-10-27T08:35:04.000Z</time>
      </trkpt>
      <trkpt lat="27.945267" lon="86.810138">
        <ele>4913.6</ele>
        <time>2022-10-27T08:35:06.000Z</time>
      </trkpt>
      <trkpt lat="27.945242" lon="86.810138">
        <ele>4913</ele>
        <time>2022-10-27T08:35:08.000Z</time>
      </trkpt>
      <trkpt lat="27.945226" lon="86.810125">
        <ele>4913</ele>
        <time>2022-10-27T08:35:09.000Z</time>
      </trkpt>
      <trkpt lat="27.9452" lon="86.810118">
        <ele>4912.4</ele>
        <time>2022-10-27T08:35:11.000Z</time>
      </trkpt>
      <trkpt lat="27.945174" lon="86.810106">
        <ele>4912.4</ele>
        <time>2022-10-27T08:35:13.000Z</time>
      </trkpt>
      <trkpt lat="27.945149" lon="86.810099">
        <ele>4912.8</ele>
        <time>2022-10-27T08:35:15.000Z</time>
      </trkpt>
      <trkpt lat="27.945123" lon="86.810086">
        <ele>4912.4</ele>
        <time>2022-10-27T08:35:17.000Z</time>
      </trkpt>
      <trkpt lat="27.945098" lon="86.81008">
        <ele>4912.8</ele>
        <time>2022-10-27T08:35:19.000Z</time>
      </trkpt>
      <trkpt lat="27.945072" lon="86.810067">
        <ele>4912.4</ele>
        <time>2022-10-27T08:35:21.000Z</time>
      </trkpt>
      <trkpt lat="27.945021" lon="86.810061">
        <ele>4911.6</ele>
        <time>2022-10-27T08:35:25.000Z</time>
      </trkpt>
      <trkpt lat="27.944998" lon="86.810042">
        <ele>4911.8</ele>
        <time>2022-10-27T08:35:27.000Z</time>
      </trkpt>
      <trkpt lat="27.944976" lon="86.810035">
        <ele>4912</ele>
        <time>2022-10-27T08:35:29.000Z</time>
      </trkpt>
      <trkpt lat="27.944957" lon="86.810022">
        <ele>4911.6</ele>
        <time>2022-10-27T08:35:31.000Z</time>
      </trkpt>
      <trkpt lat="27.944938" lon="86.810016">
        <ele>4911</ele>
        <time>2022-10-27T08:35:33.000Z</time>
      </trkpt>
      <trkpt lat="27.944918" lon="86.810003">
        <ele>4912.2</ele>
        <time>2022-10-27T08:35:36.000Z</time>
      </trkpt>
      <trkpt lat="27.944899" lon="86.809997">
        <ele>4912.4</ele>
        <time>2022-10-27T08:35:38.000Z</time>
      </trkpt>
      <trkpt lat="27.944877" lon="86.80999">
        <ele>4911.6</ele>
        <time>2022-10-27T08:35:40.000Z</time>
      </trkpt>
      <trkpt lat="27.944854" lon="86.80999">
        <ele>4911.8</ele>
        <time>2022-10-27T08:35:42.000Z</time>
      </trkpt>
      <trkpt lat="27.944829" lon="86.80999">
        <ele>4911.6</ele>
        <time>2022-10-27T08:35:44.000Z</time>
      </trkpt>
      <trkpt lat="27.9448" lon="86.809984">
        <ele>4911</ele>
        <time>2022-10-27T08:35:46.000Z</time>
      </trkpt>
      <trkpt lat="27.944774" lon="86.809978">
        <ele>4911</ele>
        <time>2022-10-27T08:35:48.000Z</time>
      </trkpt>
      <trkpt lat="27.944749" lon="86.809965">
        <ele>4910.8</ele>
        <time>2022-10-27T08:35:50.000Z</time>
      </trkpt>
      <trkpt lat="27.94473" lon="86.809958">
        <ele>4910.8</ele>
        <time>2022-10-27T08:35:52.000Z</time>
      </trkpt>
      <trkpt lat="27.94471" lon="86.809952">
        <ele>4911</ele>
        <time>2022-10-27T08:35:54.000Z</time>
      </trkpt>
      <trkpt lat="27.944688" lon="86.809939">
        <ele>4911</ele>
        <time>2022-10-27T08:35:56.000Z</time>
      </trkpt>
      <trkpt lat="27.944662" lon="86.809926">
        <ele>4911</ele>
        <time>2022-10-27T08:35:58.000Z</time>
      </trkpt>
      <trkpt lat="27.94464" lon="86.80992">
        <ele>4910.8</ele>
        <time>2022-10-27T08:36:00.000Z</time>
      </trkpt>
      <trkpt lat="27.944614" lon="86.809914">
        <ele>4910.6</ele>
        <time>2022-10-27T08:36:02.000Z</time>
      </trkpt>
      <trkpt lat="27.944598" lon="86.809901">
        <ele>4910.6</ele>
        <time>2022-10-27T08:36:04.000Z</time>
      </trkpt>
      <trkpt lat="27.944579" lon="86.809888">
        <ele>4910.2</ele>
        <time>2022-10-27T08:36:06.000Z</time>
      </trkpt>
      <trkpt lat="27.944557" lon="86.809875">
        <ele>4910.6</ele>
        <time>2022-10-27T08:36:08.000Z</time>
      </trkpt>
      <trkpt lat="27.944534" lon="86.809875">
        <ele>4910.2</ele>
        <time>2022-10-27T08:36:10.000Z</time>
      </trkpt>
      <trkpt lat="27.944512" lon="86.809862">
        <ele>4910.2</ele>
        <time>2022-10-27T08:36:12.000Z</time>
      </trkpt>
      <trkpt lat="27.944493" lon="86.80985">
        <ele>4910</ele>
        <time>2022-10-27T08:36:14.000Z</time>
      </trkpt>
      <trkpt lat="27.94447" lon="86.809837">
        <ele>4909.4</ele>
        <time>2022-10-27T08:36:16.000Z</time>
      </trkpt>
      <trkpt lat="27.944448" lon="86.809824">
        <ele>4909.4</ele>
        <time>2022-10-27T08:36:18.000Z</time>
      </trkpt>
      <trkpt lat="27.944422" lon="86.809805">
        <ele>4909.4</ele>
        <time>2022-10-27T08:36:20.000Z</time>
      </trkpt>
      <trkpt lat="27.944397" lon="86.809792">
        <ele>4909.4</ele>
        <time>2022-10-27T08:36:22.000Z</time>
      </trkpt>
      <trkpt lat="27.944374" lon="86.809786">
        <ele>4909.2</ele>
        <time>2022-10-27T08:36:24.000Z</time>
      </trkpt>
      <trkpt lat="27.944355" lon="86.809766">
        <ele>4908.6</ele>
        <time>2022-10-27T08:36:26.000Z</time>
      </trkpt>
      <trkpt lat="27.944336" lon="86.809754">
        <ele>4908.8</ele>
        <time>2022-10-27T08:36:28.000Z</time>
      </trkpt>
      <trkpt lat="27.94431" lon="86.809747">
        <ele>4908.8</ele>
        <time>2022-10-27T08:36:30.000Z</time>
      </trkpt>
      <trkpt lat="27.944285" lon="86.809728">
        <ele>4908.6</ele>
        <time>2022-10-27T08:36:33.000Z</time>
      </trkpt>
      <trkpt lat="27.944269" lon="86.809715">
        <ele>4908.2</ele>
        <time>2022-10-27T08:36:35.000Z</time>
      </trkpt>
      <trkpt lat="27.94425" lon="86.809715">
        <ele>4908</ele>
        <time>2022-10-27T08:36:37.000Z</time>
      </trkpt>
      <trkpt lat="27.94423" lon="86.809702">
        <ele>4907.4</ele>
        <time>2022-10-27T08:36:39.000Z</time>
      </trkpt>
      <trkpt lat="27.944214" lon="86.80969">
        <ele>4907.4</ele>
        <time>2022-10-27T08:36:41.000Z</time>
      </trkpt>
      <trkpt lat="27.944195" lon="86.809677">
        <ele>4907.2</ele>
        <time>2022-10-27T08:36:43.000Z</time>
      </trkpt>
      <trkpt lat="27.944179" lon="86.809664">
        <ele>4907</ele>
        <time>2022-10-27T08:36:45.000Z</time>
      </trkpt>
      <trkpt lat="27.94416" lon="86.809645">
        <ele>4906.6</ele>
        <time>2022-10-27T08:36:47.000Z</time>
      </trkpt>
      <trkpt lat="27.944138" lon="86.809638">
        <ele>4906.6</ele>
        <time>2022-10-27T08:36:49.000Z</time>
      </trkpt>
      <trkpt lat="27.944118" lon="86.809632">
        <ele>4906.6</ele>
        <time>2022-10-27T08:36:51.000Z</time>
      </trkpt>
      <trkpt lat="27.944096" lon="86.809626">
        <ele>4906.4</ele>
        <time>2022-10-27T08:36:53.000Z</time>
      </trkpt>
      <trkpt lat="27.944074" lon="86.809632">
        <ele>4906.4</ele>
        <time>2022-10-27T08:36:55.000Z</time>
      </trkpt>
      <trkpt lat="27.944051" lon="86.809638">
        <ele>4906.4</ele>
        <time>2022-10-27T08:36:57.000Z</time>
      </trkpt>
      <trkpt lat="27.944032" lon="86.809632">
        <ele>4905.8</ele>
        <time>2022-10-27T08:36:59.000Z</time>
      </trkpt>
      <trkpt lat="27.944006" lon="86.809626">
        <ele>4906</ele>
        <time>2022-10-27T08:37:01.000Z</time>
      </trkpt>
      <trkpt lat="27.94399" lon="86.809606">
        <ele>4905.8</ele>
        <time>2022-10-27T08:37:03.000Z</time>
      </trkpt>
      <trkpt lat="27.943968" lon="86.809594">
        <ele>4905.8</ele>
        <time>2022-10-27T08:37:05.000Z</time>
      </trkpt>
      <trkpt lat="27.943952" lon="86.809581">
        <ele>4905.8</ele>
        <time>2022-10-27T08:37:07.000Z</time>
      </trkpt>
      <trkpt lat="27.94393" lon="86.809562">
        <ele>4905.6</ele>
        <time>2022-10-27T08:37:09.000Z</time>
      </trkpt>
      <trkpt lat="27.943907" lon="86.809562">
        <ele>4905.2</ele>
        <time>2022-10-27T08:37:11.000Z</time>
      </trkpt>
      <trkpt lat="27.943885" lon="86.809555">
        <ele>4905.2</ele>
        <time>2022-10-27T08:37:13.000Z</time>
      </trkpt>
      <trkpt lat="27.943862" lon="86.809549">
        <ele>4905</ele>
        <time>2022-10-27T08:37:15.000Z</time>
      </trkpt>
      <trkpt lat="27.94384" lon="86.809542">
        <ele>4905</ele>
        <time>2022-10-27T08:37:17.000Z</time>
      </trkpt>
      <trkpt lat="27.943821" lon="86.809523">
        <ele>4904.8</ele>
        <time>2022-10-27T08:37:19.000Z</time>
      </trkpt>
      <trkpt lat="27.943805" lon="86.809504">
        <ele>4904.2</ele>
        <time>2022-10-27T08:37:21.000Z</time>
      </trkpt>
      <trkpt lat="27.943786" lon="86.809485">
        <ele>4903.8</ele>
        <time>2022-10-27T08:37:23.000Z</time>
      </trkpt>
      <trkpt lat="27.943766" lon="86.809472">
        <ele>4903.6</ele>
        <time>2022-10-27T08:37:25.000Z</time>
      </trkpt>
      <trkpt lat="27.943744" lon="86.809453">
        <ele>4903.4</ele>
        <time>2022-10-27T08:37:27.000Z</time>
      </trkpt>
      <trkpt lat="27.943718" lon="86.80944">
        <ele>4903</ele>
        <time>2022-10-27T08:37:29.000Z</time>
      </trkpt>
      <trkpt lat="27.943696" lon="86.809427">
        <ele>4903</ele>
        <time>2022-10-27T08:37:31.000Z</time>
      </trkpt>
      <trkpt lat="27.943674" lon="86.809427">
        <ele>4903</ele>
        <time>2022-10-27T08:37:33.000Z</time>
      </trkpt>
      <trkpt lat="27.943648" lon="86.809427">
        <ele>4903</ele>
        <time>2022-10-27T08:37:35.000Z</time>
      </trkpt>
      <trkpt lat="27.943622" lon="86.809427">
        <ele>4902.8</ele>
        <time>2022-10-27T08:37:37.000Z</time>
      </trkpt>
      <trkpt lat="27.943597" lon="86.809408">
        <ele>4903.4</ele>
        <time>2022-10-27T08:37:40.000Z</time>
      </trkpt>
      <trkpt lat="27.943578" lon="86.809395">
        <ele>4903.6</ele>
        <time>2022-10-27T08:37:42.000Z</time>
      </trkpt>
      <trkpt lat="27.943558" lon="86.809389">
        <ele>4903.4</ele>
        <time>2022-10-27T08:37:44.000Z</time>
      </trkpt>
      <trkpt lat="27.943539" lon="86.809389">
        <ele>4903</ele>
        <time>2022-10-27T08:37:46.000Z</time>
      </trkpt>
      <trkpt lat="27.94352" lon="86.809382">
        <ele>4903</ele>
        <time>2022-10-27T08:37:48.000Z</time>
      </trkpt>
      <trkpt lat="27.943501" lon="86.809389">
        <ele>4902.8</ele>
        <time>2022-10-27T08:37:50.000Z</time>
      </trkpt>
      <trkpt lat="27.943482" lon="86.809382">
        <ele>4902.6</ele>
        <time>2022-10-27T08:37:52.000Z</time>
      </trkpt>
      <trkpt lat="27.943459" lon="86.80937">
        <ele>4902.6</ele>
        <time>2022-10-27T08:37:54.000Z</time>
      </trkpt>
      <trkpt lat="27.94344" lon="86.809363">
        <ele>4902.8</ele>
        <time>2022-10-27T08:37:56.000Z</time>
      </trkpt>
      <trkpt lat="27.943421" lon="86.809357">
        <ele>4902.2</ele>
        <time>2022-10-27T08:37:58.000Z</time>
      </trkpt>
      <trkpt lat="27.943405" lon="86.809344">
        <ele>4902.2</ele>
        <time>2022-10-27T08:38:00.000Z</time>
      </trkpt>
      <trkpt lat="27.943398" lon="86.809325">
        <ele>4902.2</ele>
        <time>2022-10-27T08:38:01.000Z</time>
      </trkpt>
      <trkpt lat="27.943386" lon="86.809306">
        <ele>4901.4</ele>
        <time>2022-10-27T08:38:03.000Z</time>
      </trkpt>
      <trkpt lat="27.94336" lon="86.809306">
        <ele>4901.8</ele>
        <time>2022-10-27T08:38:05.000Z</time>
      </trkpt>
      <trkpt lat="27.943341" lon="86.809293">
        <ele>4902.2</ele>
        <time>2022-10-27T08:38:07.000Z</time>
      </trkpt>
      <trkpt lat="27.943318" lon="86.809293">
        <ele>4902.6</ele>
        <time>2022-10-27T08:38:09.000Z</time>
      </trkpt>
      <trkpt lat="27.943299" lon="86.809286">
        <ele>4902.8</ele>
        <time>2022-10-27T08:38:11.000Z</time>
      </trkpt>
      <trkpt lat="27.943274" lon="86.809286">
        <ele>4902</ele>
        <time>2022-10-27T08:38:13.000Z</time>
      </trkpt>
      <trkpt lat="27.943258" lon="86.809274">
        <ele>4901.8</ele>
        <time>2022-10-27T08:38:15.000Z</time>
      </trkpt>
      <trkpt lat="27.943251" lon="86.809254">
        <ele>4901.2</ele>
        <time>2022-10-27T08:38:17.000Z</time>
      </trkpt>
      <trkpt lat="27.943229" lon="86.809242">
        <ele>4900.8</ele>
        <time>2022-10-27T08:38:20.000Z</time>
      </trkpt>
      <trkpt lat="27.9432" lon="86.809242">
        <ele>4900</ele>
        <time>2022-10-27T08:38:22.000Z</time>
      </trkpt>
      <trkpt lat="27.943181" lon="86.809235">
        <ele>4900</ele>
        <time>2022-10-27T08:38:26.000Z</time>
      </trkpt>
      <trkpt lat="27.943162" lon="86.80921">
        <ele>4899.8</ele>
        <time>2022-10-27T08:38:52.000Z</time>
      </trkpt>
      <trkpt lat="27.943146" lon="86.809171">
        <ele>4899.2</ele>
        <time>2022-10-27T08:38:54.000Z</time>
      </trkpt>
      <trkpt lat="27.943117" lon="86.809152">
        <ele>4899.2</ele>
        <time>2022-10-27T08:38:56.000Z</time>
      </trkpt>
      <trkpt lat="27.943101" lon="86.809133">
        <ele>4899.2</ele>
        <time>2022-10-27T08:38:57.000Z</time>
      </trkpt>
      <trkpt lat="27.943072" lon="86.80912">
        <ele>4899.2</ele>
        <time>2022-10-27T08:38:59.000Z</time>
      </trkpt>
      <trkpt lat="27.943043" lon="86.809107">
        <ele>4899.6</ele>
        <time>2022-10-27T08:39:01.000Z</time>
      </trkpt>
      <trkpt lat="27.943021" lon="86.809094">
        <ele>4899.2</ele>
        <time>2022-10-27T08:39:03.000Z</time>
      </trkpt>
      <trkpt lat="27.943002" lon="86.809082">
        <ele>4899</ele>
        <time>2022-10-27T08:39:05.000Z</time>
      </trkpt>
      <trkpt lat="27.942982" lon="86.809069">
        <ele>4899</ele>
        <time>2022-10-27T08:39:07.000Z</time>
      </trkpt>
      <trkpt lat="27.94296" lon="86.80905">
        <ele>4899.2</ele>
        <time>2022-10-27T08:39:09.000Z</time>
      </trkpt>
      <trkpt lat="27.942934" lon="86.809043">
        <ele>4899.8</ele>
        <time>2022-10-27T08:39:11.000Z</time>
      </trkpt>
      <trkpt lat="27.942909" lon="86.809037">
        <ele>4899.6</ele>
        <time>2022-10-27T08:39:13.000Z</time>
      </trkpt>
      <trkpt lat="27.942883" lon="86.80903">
        <ele>4899.4</ele>
        <time>2022-10-27T08:39:15.000Z</time>
      </trkpt>
      <trkpt lat="27.942861" lon="86.809024">
        <ele>4898.8</ele>
        <time>2022-10-27T08:39:17.000Z</time>
      </trkpt>
      <trkpt lat="27.942835" lon="86.809024">
        <ele>4898.8</ele>
        <time>2022-10-27T08:39:19.000Z</time>
      </trkpt>
      <trkpt lat="27.942813" lon="86.809011">
        <ele>4898.2</ele>
        <time>2022-10-27T08:39:21.000Z</time>
      </trkpt>
      <trkpt lat="27.942784" lon="86.808998">
        <ele>4898</ele>
        <time>2022-10-27T08:39:23.000Z</time>
      </trkpt>
      <trkpt lat="27.942758" lon="86.808998">
        <ele>4897.6</ele>
        <time>2022-10-27T08:39:25.000Z</time>
      </trkpt>
      <trkpt lat="27.942736" lon="86.808986">
        <ele>4896.8</ele>
        <time>2022-10-27T08:39:27.000Z</time>
      </trkpt>
      <trkpt lat="27.942714" lon="86.808973">
        <ele>4896.8</ele>
        <time>2022-10-27T08:39:29.000Z</time>
      </trkpt>
      <trkpt lat="27.942691" lon="86.808966">
        <ele>4896.8</ele>
        <time>2022-10-27T08:39:31.000Z</time>
      </trkpt>
      <trkpt lat="27.942666" lon="86.808966">
        <ele>4896.8</ele>
        <time>2022-10-27T08:39:33.000Z</time>
      </trkpt>
      <trkpt lat="27.942637" lon="86.808966">
        <ele>4896.6</ele>
        <time>2022-10-27T08:39:35.000Z</time>
      </trkpt>
      <trkpt lat="27.942611" lon="86.808966">
        <ele>4896.4</ele>
        <time>2022-10-27T08:39:37.000Z</time>
      </trkpt>
      <trkpt lat="27.942586" lon="86.80896">
        <ele>4896</ele>
        <time>2022-10-27T08:39:39.000Z</time>
      </trkpt>
      <trkpt lat="27.942566" lon="86.808954">
        <ele>4896.4</ele>
        <time>2022-10-27T08:39:41.000Z</time>
      </trkpt>
      <trkpt lat="27.942544" lon="86.808934">
        <ele>4895.2</ele>
        <time>2022-10-27T08:39:43.000Z</time>
      </trkpt>
      <trkpt lat="27.942525" lon="86.808928">
        <ele>4895.6</ele>
        <time>2022-10-27T08:39:45.000Z</time>
      </trkpt>
      <trkpt lat="27.942499" lon="86.808922">
        <ele>4895.2</ele>
        <time>2022-10-27T08:39:47.000Z</time>
      </trkpt>
      <trkpt lat="27.942477" lon="86.808915">
        <ele>4895</ele>
        <time>2022-10-27T08:39:49.000Z</time>
      </trkpt>
      <trkpt lat="27.942458" lon="86.808909">
        <ele>4895.6</ele>
        <time>2022-10-27T08:39:51.000Z</time>
      </trkpt>
      <trkpt lat="27.942435" lon="86.80889">
        <ele>4895</ele>
        <time>2022-10-27T08:39:53.000Z</time>
      </trkpt>
      <trkpt lat="27.942413" lon="86.808877">
        <ele>4894.4</ele>
        <time>2022-10-27T08:39:55.000Z</time>
      </trkpt>
      <trkpt lat="27.942387" lon="86.80887">
        <ele>4894.4</ele>
        <time>2022-10-27T08:39:57.000Z</time>
      </trkpt>
      <trkpt lat="27.942365" lon="86.808845">
        <ele>4894.4</ele>
        <time>2022-10-27T08:39:59.000Z</time>
      </trkpt>
      <trkpt lat="27.942346" lon="86.808832">
        <ele>4894.2</ele>
        <time>2022-10-27T08:40:01.000Z</time>
      </trkpt>
      <trkpt lat="27.942336" lon="86.808813">
        <ele>4894.4</ele>
        <time>2022-10-27T08:40:02.000Z</time>
      </trkpt>
      <trkpt lat="27.94232" lon="86.8088">
        <ele>4894.4</ele>
        <time>2022-10-27T08:40:04.000Z</time>
      </trkpt>
      <trkpt lat="27.942294" lon="86.808787">
        <ele>4894.4</ele>
        <time>2022-10-27T08:40:07.000Z</time>
      </trkpt>
      <trkpt lat="27.942275" lon="86.808768">
        <ele>4894.4</ele>
        <time>2022-10-27T08:40:09.000Z</time>
      </trkpt>
      <trkpt lat="27.942253" lon="86.808749">
        <ele>4893.8</ele>
        <time>2022-10-27T08:40:11.000Z</time>
      </trkpt>
      <trkpt lat="27.942234" lon="86.808723">
        <ele>4893.6</ele>
        <time>2022-10-27T08:40:13.000Z</time>
      </trkpt>
      <trkpt lat="27.942218" lon="86.808698">
        <ele>4893.4</ele>
        <time>2022-10-27T08:40:15.000Z</time>
      </trkpt>
      <trkpt lat="27.942195" lon="86.808685">
        <ele>4893.4</ele>
        <time>2022-10-27T08:40:17.000Z</time>
      </trkpt>
      <trkpt lat="27.942176" lon="86.808666">
        <ele>4893</ele>
        <time>2022-10-27T08:40:19.000Z</time>
      </trkpt>
      <trkpt lat="27.942157" lon="86.808666">
        <ele>4892.8</ele>
        <time>2022-10-27T08:40:21.000Z</time>
      </trkpt>
      <trkpt lat="27.942131" lon="86.808666">
        <ele>4892.6</ele>
        <time>2022-10-27T08:40:23.000Z</time>
      </trkpt>
      <trkpt lat="27.942106" lon="86.808653">
        <ele>4892.6</ele>
        <time>2022-10-27T08:40:25.000Z</time>
      </trkpt>
      <trkpt lat="27.942086" lon="86.80864">
        <ele>4892.2</ele>
        <time>2022-10-27T08:40:27.000Z</time>
      </trkpt>
      <trkpt lat="27.942074" lon="86.808614">
        <ele>4892.2</ele>
        <time>2022-10-27T08:40:29.000Z</time>
      </trkpt>
      <trkpt lat="27.942058" lon="86.808602">
        <ele>4892.2</ele>
        <time>2022-10-27T08:40:31.000Z</time>
      </trkpt>
      <trkpt lat="27.942038" lon="86.808589">
        <ele>4892.6</ele>
        <time>2022-10-27T08:40:33.000Z</time>
      </trkpt>
      <trkpt lat="27.942019" lon="86.80857">
        <ele>4892.6</ele>
        <time>2022-10-27T08:40:35.000Z</time>
      </trkpt>
      <trkpt lat="27.941997" lon="86.808563">
        <ele>4892.6</ele>
        <time>2022-10-27T08:40:37.000Z</time>
      </trkpt>
      <trkpt lat="27.941978" lon="86.80855">
        <ele>4892.2</ele>
        <time>2022-10-27T08:40:39.000Z</time>
      </trkpt>
      <trkpt lat="27.941955" lon="86.808538">
        <ele>4892</ele>
        <time>2022-10-27T08:40:41.000Z</time>
      </trkpt>
      <trkpt lat="27.941933" lon="86.808531">
        <ele>4891.6</ele>
        <time>2022-10-27T08:40:43.000Z</time>
      </trkpt>
      <trkpt lat="27.941907" lon="86.808518">
        <ele>4891.4</ele>
        <time>2022-10-27T08:40:45.000Z</time>
      </trkpt>
      <trkpt lat="27.941888" lon="86.808512">
        <ele>4891.2</ele>
        <time>2022-10-27T08:40:47.000Z</time>
      </trkpt>
      <trkpt lat="27.941866" lon="86.808499">
        <ele>4890.8</ele>
        <time>2022-10-27T08:40:49.000Z</time>
      </trkpt>
      <trkpt lat="27.941846" lon="86.808486">
        <ele>4890.2</ele>
        <time>2022-10-27T08:40:51.000Z</time>
      </trkpt>
      <trkpt lat="27.941824" lon="86.80848">
        <ele>4890</ele>
        <time>2022-10-27T08:40:53.000Z</time>
      </trkpt>
      <trkpt lat="27.941802" lon="86.808474">
        <ele>4889.8</ele>
        <time>2022-10-27T08:40:55.000Z</time>
      </trkpt>
      <trkpt lat="27.941779" lon="86.808467">
        <ele>4890</ele>
        <time>2022-10-27T08:40:57.000Z</time>
      </trkpt>
      <trkpt lat="27.94176" lon="86.808448">
        <ele>4889.4</ele>
        <time>2022-10-27T08:40:59.000Z</time>
      </trkpt>
      <trkpt lat="27.941741" lon="86.808442">
        <ele>4889.4</ele>
        <time>2022-10-27T08:41:01.000Z</time>
      </trkpt>
      <trkpt lat="27.941718" lon="86.808429">
        <ele>4889.2</ele>
        <time>2022-10-27T08:41:03.000Z</time>
      </trkpt>
      <trkpt lat="27.941702" lon="86.80841">
        <ele>4888.6</ele>
        <time>2022-10-27T08:41:05.000Z</time>
      </trkpt>
      <trkpt lat="27.94168" lon="86.808397">
        <ele>4888.2</ele>
        <time>2022-10-27T08:41:07.000Z</time>
      </trkpt>
      <trkpt lat="27.941661" lon="86.808378">
        <ele>4887.8</ele>
        <time>2022-10-27T08:41:09.000Z</time>
      </trkpt>
      <trkpt lat="27.941638" lon="86.808365">
        <ele>4888.4</ele>
        <time>2022-10-27T08:41:11.000Z</time>
      </trkpt>
      <trkpt lat="27.941619" lon="86.808358">
        <ele>4888.4</ele>
        <time>2022-10-27T08:41:13.000Z</time>
      </trkpt>
      <trkpt lat="27.94161" lon="86.808339">
        <ele>4888.4</ele>
        <time>2022-10-27T08:41:14.000Z</time>
      </trkpt>
      <trkpt lat="27.94159" lon="86.808333">
        <ele>4888</ele>
        <time>2022-10-27T08:41:16.000Z</time>
      </trkpt>
      <trkpt lat="27.941568" lon="86.80832">
        <ele>4887.6</ele>
        <time>2022-10-27T08:41:18.000Z</time>
      </trkpt>
      <trkpt lat="27.941549" lon="86.808301">
        <ele>4887.2</ele>
        <time>2022-10-27T08:41:20.000Z</time>
      </trkpt>
      <trkpt lat="27.941533" lon="86.808282">
        <ele>4887.8</ele>
        <time>2022-10-27T08:41:22.000Z</time>
      </trkpt>
      <trkpt lat="27.941514" lon="86.808269">
        <ele>4888</ele>
        <time>2022-10-27T08:41:24.000Z</time>
      </trkpt>
      <trkpt lat="27.941498" lon="86.808256">
        <ele>4887.6</ele>
        <time>2022-10-27T08:41:26.000Z</time>
      </trkpt>
      <trkpt lat="27.941482" lon="86.808243">
        <ele>4887.6</ele>
        <time>2022-10-27T08:41:28.000Z</time>
      </trkpt>
      <trkpt lat="27.941459" lon="86.80823">
        <ele>4887.2</ele>
        <time>2022-10-27T08:41:30.000Z</time>
      </trkpt>
      <trkpt lat="27.941437" lon="86.808218">
        <ele>4887</ele>
        <time>2022-10-27T08:41:32.000Z</time>
      </trkpt>
      <trkpt lat="27.941414" lon="86.808211">
        <ele>4887</ele>
        <time>2022-10-27T08:41:34.000Z</time>
      </trkpt>
      <trkpt lat="27.941392" lon="86.808205">
        <ele>4886.8</ele>
        <time>2022-10-27T08:41:36.000Z</time>
      </trkpt>
      <trkpt lat="27.94137" lon="86.808198">
        <ele>4886.8</ele>
        <time>2022-10-27T08:41:38.000Z</time>
      </trkpt>
      <trkpt lat="27.94135" lon="86.808179">
        <ele>4886.4</ele>
        <time>2022-10-27T08:41:40.000Z</time>
      </trkpt>
      <trkpt lat="27.941328" lon="86.808173">
        <ele>4886.2</ele>
        <time>2022-10-27T08:41:42.000Z</time>
      </trkpt>
      <trkpt lat="27.941302" lon="86.80816">
        <ele>4885.8</ele>
        <time>2022-10-27T08:41:45.000Z</time>
      </trkpt>
      <trkpt lat="27.941283" lon="86.808141">
        <ele>4886.4</ele>
        <time>2022-10-27T08:41:48.000Z</time>
      </trkpt>
      <trkpt lat="27.941264" lon="86.808134">
        <ele>4885</ele>
        <time>2022-10-27T08:41:50.000Z</time>
      </trkpt>
      <trkpt lat="27.941245" lon="86.808134">
        <ele>4885.6</ele>
        <time>2022-10-27T08:41:52.000Z</time>
      </trkpt>
      <trkpt lat="27.941226" lon="86.808134">
        <ele>4885</ele>
        <time>2022-10-27T08:41:54.000Z</time>
      </trkpt>
      <trkpt lat="27.941203" lon="86.808128">
        <ele>4885.2</ele>
        <time>2022-10-27T08:41:56.000Z</time>
      </trkpt>
      <trkpt lat="27.941181" lon="86.808122">
        <ele>4885.2</ele>
        <time>2022-10-27T08:41:58.000Z</time>
      </trkpt>
      <trkpt lat="27.941162" lon="86.808115">
        <ele>4885</ele>
        <time>2022-10-27T08:42:00.000Z</time>
      </trkpt>
      <trkpt lat="27.941152" lon="86.808096">
        <ele>4885</ele>
        <time>2022-10-27T08:42:01.000Z</time>
      </trkpt>
      <trkpt lat="27.941133" lon="86.80809">
        <ele>4884.6</ele>
        <time>2022-10-27T08:42:03.000Z</time>
      </trkpt>
      <trkpt lat="27.94111" lon="86.808083">
        <ele>4884.2</ele>
        <time>2022-10-27T08:42:05.000Z</time>
      </trkpt>
      <trkpt lat="27.941085" lon="86.808083">
        <ele>4883.8</ele>
        <time>2022-10-27T08:42:07.000Z</time>
      </trkpt>
      <trkpt lat="27.941066" lon="86.808083">
        <ele>4883.8</ele>
        <time>2022-10-27T08:42:09.000Z</time>
      </trkpt>
      <trkpt lat="27.941037" lon="86.808083">
        <ele>4883.6</ele>
        <time>2022-10-27T08:42:11.000Z</time>
      </trkpt>
      <trkpt lat="27.941008" lon="86.80809">
        <ele>4883.2</ele>
        <time>2022-10-27T08:42:13.000Z</time>
      </trkpt>
      <trkpt lat="27.940982" lon="86.808083">
        <ele>4883</ele>
        <time>2022-10-27T08:42:15.000Z</time>
      </trkpt>
      <trkpt lat="27.94096" lon="86.80807">
        <ele>4883</ele>
        <time>2022-10-27T08:42:17.000Z</time>
      </trkpt>
      <trkpt lat="27.940941" lon="86.80807">
        <ele>4883</ele>
        <time>2022-10-27T08:42:19.000Z</time>
      </trkpt>
      <trkpt lat="27.940931" lon="86.808051">
        <ele>4883</ele>
        <time>2022-10-27T08:42:21.000Z</time>
      </trkpt>
      <trkpt lat="27.940915" lon="86.808032">
        <ele>4883.2</ele>
        <time>2022-10-27T08:42:24.000Z</time>
      </trkpt>
      <trkpt lat="27.940902" lon="86.808006">
        <ele>4883.6</ele>
        <time>2022-10-27T08:42:26.000Z</time>
      </trkpt>
      <trkpt lat="27.940893" lon="86.807981">
        <ele>4883.8</ele>
        <time>2022-10-27T08:42:30.000Z</time>
      </trkpt>
      <trkpt lat="27.940886" lon="86.807962">
        <ele>4884.4</ele>
        <time>2022-10-27T08:42:37.000Z</time>
      </trkpt>
      <trkpt lat="27.940864" lon="86.807942">
        <ele>4883.6</ele>
        <time>2022-10-27T08:42:43.000Z</time>
      </trkpt>
      <trkpt lat="27.940848" lon="86.80793">
        <ele>4883.6</ele>
        <time>2022-10-27T08:42:45.000Z</time>
      </trkpt>
      <trkpt lat="27.940826" lon="86.807917">
        <ele>4883.6</ele>
        <time>2022-10-27T08:42:48.000Z</time>
      </trkpt>
      <trkpt lat="27.940803" lon="86.807917">
        <ele>4883</ele>
        <time>2022-10-27T08:42:50.000Z</time>
      </trkpt>
      <trkpt lat="27.940784" lon="86.807904">
        <ele>4882.6</ele>
        <time>2022-10-27T08:42:52.000Z</time>
      </trkpt>
      <trkpt lat="27.940758" lon="86.807898">
        <ele>4883</ele>
        <time>2022-10-27T08:42:54.000Z</time>
      </trkpt>
      <trkpt lat="27.940733" lon="86.807898">
        <ele>4883</ele>
        <time>2022-10-27T08:42:56.000Z</time>
      </trkpt>
      <trkpt lat="27.94071" lon="86.807891">
        <ele>4883</ele>
        <time>2022-10-27T08:42:58.000Z</time>
      </trkpt>
      <trkpt lat="27.940688" lon="86.807891">
        <ele>4883.8</ele>
        <time>2022-10-27T08:43:00.000Z</time>
      </trkpt>
      <trkpt lat="27.940672" lon="86.807878">
        <ele>4884</ele>
        <time>2022-10-27T08:43:02.000Z</time>
      </trkpt>
      <trkpt lat="27.940666" lon="86.807859">
        <ele>4883.8</ele>
        <time>2022-10-27T08:43:03.000Z</time>
      </trkpt>
      <trkpt lat="27.940643" lon="86.807853">
        <ele>4883</ele>
        <time>2022-10-27T08:43:05.000Z</time>
      </trkpt>
      <trkpt lat="27.940621" lon="86.807853">
        <ele>4882.6</ele>
        <time>2022-10-27T08:43:07.000Z</time>
      </trkpt>
      <trkpt lat="27.940589" lon="86.807853">
        <ele>4882.4</ele>
        <time>2022-10-27T08:43:09.000Z</time>
      </trkpt>
      <trkpt lat="27.940563" lon="86.807846">
        <ele>4882.4</ele>
        <time>2022-10-27T08:43:11.000Z</time>
      </trkpt>
      <trkpt lat="27.940541" lon="86.807846">
        <ele>4881.8</ele>
        <time>2022-10-27T08:43:13.000Z</time>
      </trkpt>
      <trkpt lat="27.940515" lon="86.80784">
        <ele>4882</ele>
        <time>2022-10-27T08:43:15.000Z</time>
      </trkpt>
      <trkpt lat="27.940496" lon="86.807834">
        <ele>4881.8</ele>
        <time>2022-10-27T08:43:17.000Z</time>
      </trkpt>
      <trkpt lat="27.94047" lon="86.807821">
        <ele>4881.2</ele>
        <time>2022-10-27T08:43:19.000Z</time>
      </trkpt>
      <trkpt lat="27.940448" lon="86.807814">
        <ele>4880.8</ele>
        <time>2022-10-27T08:43:21.000Z</time>
      </trkpt>
      <trkpt lat="27.940426" lon="86.807808">
        <ele>4880.8</ele>
        <time>2022-10-27T08:43:23.000Z</time>
      </trkpt>
      <trkpt lat="27.940406" lon="86.807802">
        <ele>4880.4</ele>
        <time>2022-10-27T08:43:25.000Z</time>
      </trkpt>
      <trkpt lat="27.940384" lon="86.807795">
        <ele>4880.6</ele>
        <time>2022-10-27T08:43:27.000Z</time>
      </trkpt>
      <trkpt lat="27.940358" lon="86.807782">
        <ele>4880.4</ele>
        <time>2022-10-27T08:43:29.000Z</time>
      </trkpt>
      <trkpt lat="27.940333" lon="86.80777">
        <ele>4880.4</ele>
        <time>2022-10-27T08:43:32.000Z</time>
      </trkpt>
      <trkpt lat="27.940307" lon="86.807757">
        <ele>4880</ele>
        <time>2022-10-27T08:43:35.000Z</time>
      </trkpt>
      <trkpt lat="27.940291" lon="86.807744">
        <ele>4879.8</ele>
        <time>2022-10-27T08:43:36.000Z</time>
      </trkpt>
      <trkpt lat="27.940272" lon="86.807738">
        <ele>4879.4</ele>
        <time>2022-10-27T08:43:38.000Z</time>
      </trkpt>
      <trkpt lat="27.940253" lon="86.807738">
        <ele>4879.2</ele>
        <time>2022-10-27T08:43:40.000Z</time>
      </trkpt>
      <trkpt lat="27.94023" lon="86.807731">
        <ele>4878.6</ele>
        <time>2022-10-27T08:43:42.000Z</time>
      </trkpt>
      <trkpt lat="27.940208" lon="86.807731">
        <ele>4878.6</ele>
        <time>2022-10-27T08:43:44.000Z</time>
      </trkpt>
      <trkpt lat="27.940189" lon="86.807725">
        <ele>4878.6</ele>
        <time>2022-10-27T08:43:46.000Z</time>
      </trkpt>
      <trkpt lat="27.940166" lon="86.807718">
        <ele>4877</ele>
        <time>2022-10-27T08:43:48.000Z</time>
      </trkpt>
      <trkpt lat="27.940144" lon="86.807699">
        <ele>4877.2</ele>
        <time>2022-10-27T08:43:50.000Z</time>
      </trkpt>
      <trkpt lat="27.940122" lon="86.807693">
        <ele>4877.8</ele>
        <time>2022-10-27T08:43:52.000Z</time>
      </trkpt>
      <trkpt lat="27.940096" lon="86.80768">
        <ele>4878.4</ele>
        <time>2022-10-27T08:43:55.000Z</time>
      </trkpt>
      <trkpt lat="27.94007" lon="86.807674">
        <ele>4878</ele>
        <time>2022-10-27T08:43:57.000Z</time>
      </trkpt>
      <trkpt lat="27.940048" lon="86.807654">
        <ele>4877</ele>
        <time>2022-10-27T08:43:59.000Z</time>
      </trkpt>
      <trkpt lat="27.940029" lon="86.807648">
        <ele>4876.4</ele>
        <time>2022-10-27T08:44:01.000Z</time>
      </trkpt>
      <trkpt lat="27.940003" lon="86.807642">
        <ele>4876.6</ele>
        <time>2022-10-27T08:44:03.000Z</time>
      </trkpt>
      <trkpt lat="27.939984" lon="86.807635">
        <ele>4877.4</ele>
        <time>2022-10-27T08:44:05.000Z</time>
      </trkpt>
      <trkpt lat="27.939962" lon="86.807616">
        <ele>4876.8</ele>
        <time>2022-10-27T08:44:07.000Z</time>
      </trkpt>
      <trkpt lat="27.939942" lon="86.80761">
        <ele>4876.6</ele>
        <time>2022-10-27T08:44:09.000Z</time>
      </trkpt>
      <trkpt lat="27.939923" lon="86.80761">
        <ele>4876</ele>
        <time>2022-10-27T08:44:18.000Z</time>
      </trkpt>
      <trkpt lat="27.939904" lon="86.807603">
        <ele>4876</ele>
        <time>2022-10-27T08:44:20.000Z</time>
      </trkpt>
      <trkpt lat="27.939882" lon="86.807603">
        <ele>4875.4</ele>
        <time>2022-10-27T08:44:22.000Z</time>
      </trkpt>
      <trkpt lat="27.939862" lon="86.807597">
        <ele>4875.2</ele>
        <time>2022-10-27T08:44:24.000Z</time>
      </trkpt>
      <trkpt lat="27.93984" lon="86.807597">
        <ele>4875</ele>
        <time>2022-10-27T08:44:26.000Z</time>
      </trkpt>
      <trkpt lat="27.939818" lon="86.80761">
        <ele>4874</ele>
        <time>2022-10-27T08:44:28.000Z</time>
      </trkpt>
      <trkpt lat="27.939798" lon="86.807635">
        <ele>4874.4</ele>
        <time>2022-10-27T08:44:30.000Z</time>
      </trkpt>
      <trkpt lat="27.939779" lon="86.807635">
        <ele>4874.6</ele>
        <time>2022-10-27T08:44:32.000Z</time>
      </trkpt>
      <trkpt lat="27.939754" lon="86.807622">
        <ele>4874.4</ele>
        <time>2022-10-27T08:44:34.000Z</time>
      </trkpt>
      <trkpt lat="27.939731" lon="86.807616">
        <ele>4874.4</ele>
        <time>2022-10-27T08:44:36.000Z</time>
      </trkpt>
      <trkpt lat="27.939706" lon="86.807616">
        <ele>4874.4</ele>
        <time>2022-10-27T08:44:38.000Z</time>
      </trkpt>
      <trkpt lat="27.939686" lon="86.80761">
        <ele>4874</ele>
        <time>2022-10-27T08:44:40.000Z</time>
      </trkpt>
      <trkpt lat="27.939664" lon="86.807597">
        <ele>4873.8</ele>
        <time>2022-10-27T08:44:42.000Z</time>
      </trkpt>
      <trkpt lat="27.939645" lon="86.807584">
        <ele>4873.8</ele>
        <time>2022-10-27T08:44:44.000Z</time>
      </trkpt>
      <trkpt lat="27.939626" lon="86.807571">
        <ele>4873.8</ele>
        <time>2022-10-27T08:44:46.000Z</time>
      </trkpt>
      <trkpt lat="27.939603" lon="86.807565">
        <ele>4873.4</ele>
        <time>2022-10-27T08:44:48.000Z</time>
      </trkpt>
      <trkpt lat="27.939578" lon="86.807546">
        <ele>4873</ele>
        <time>2022-10-27T08:44:50.000Z</time>
      </trkpt>
      <trkpt lat="27.939555" lon="86.807539">
        <ele>4872.6</ele>
        <time>2022-10-27T08:44:52.000Z</time>
      </trkpt>
      <trkpt lat="27.939539" lon="86.807526">
        <ele>4872.4</ele>
        <time>2022-10-27T08:44:54.000Z</time>
      </trkpt>
      <trkpt lat="27.939517" lon="86.807507">
        <ele>4872</ele>
        <time>2022-10-27T08:44:57.000Z</time>
      </trkpt>
      <trkpt lat="27.939494" lon="86.807494">
        <ele>4872.4</ele>
        <time>2022-10-27T08:44:59.000Z</time>
      </trkpt>
      <trkpt lat="27.939453" lon="86.807482">
        <ele>4872.8</ele>
        <time>2022-10-27T08:45:04.000Z</time>
      </trkpt>
      <trkpt lat="27.939418" lon="86.807462">
        <ele>4871.2</ele>
        <time>2022-10-27T08:47:27.000Z</time>
      </trkpt>
      <trkpt lat="27.939386" lon="86.80745">
        <ele>4871.2</ele>
        <time>2022-10-27T08:47:29.000Z</time>
      </trkpt>
      <trkpt lat="27.939357" lon="86.807443">
        <ele>4871</ele>
        <time>2022-10-27T08:47:31.000Z</time>
      </trkpt>
      <trkpt lat="27.939322" lon="86.807437">
        <ele>4870.8</ele>
        <time>2022-10-27T08:47:33.000Z</time>
      </trkpt>
      <trkpt lat="27.939306" lon="86.807424">
        <ele>4870.8</ele>
        <time>2022-10-27T08:47:34.000Z</time>
      </trkpt>
      <trkpt lat="27.93927" lon="86.807411">
        <ele>4870.4</ele>
        <time>2022-10-27T08:47:36.000Z</time>
      </trkpt>
      <trkpt lat="27.939248" lon="86.807405">
        <ele>4869.8</ele>
        <time>2022-10-27T08:47:38.000Z</time>
      </trkpt>
      <trkpt lat="27.939226" lon="86.807386">
        <ele>4869.4</ele>
        <time>2022-10-27T08:47:40.000Z</time>
      </trkpt>
      <trkpt lat="27.939206" lon="86.807366">
        <ele>4869.6</ele>
        <time>2022-10-27T08:47:42.000Z</time>
      </trkpt>
      <trkpt lat="27.939184" lon="86.807347">
        <ele>4869.6</ele>
        <time>2022-10-27T08:47:44.000Z</time>
      </trkpt>
      <trkpt lat="27.939165" lon="86.807341">
        <ele>4869</ele>
        <time>2022-10-27T08:47:46.000Z</time>
      </trkpt>
      <trkpt lat="27.939139" lon="86.807334">
        <ele>4869.4</ele>
        <time>2022-10-27T08:47:48.000Z</time>
      </trkpt>
      <trkpt lat="27.939117" lon="86.807328">
        <ele>4869</ele>
        <time>2022-10-27T08:47:50.000Z</time>
      </trkpt>
      <trkpt lat="27.939091" lon="86.807302">
        <ele>4868.2</ele>
        <time>2022-10-27T08:47:52.000Z</time>
      </trkpt>
      <trkpt lat="27.939072" lon="86.807296">
        <ele>4868.6</ele>
        <time>2022-10-27T08:47:54.000Z</time>
      </trkpt>
      <trkpt lat="27.939046" lon="86.80729">
        <ele>4868.2</ele>
        <time>2022-10-27T08:47:56.000Z</time>
      </trkpt>
      <trkpt lat="27.939021" lon="86.807283">
        <ele>4868.2</ele>
        <time>2022-10-27T08:47:58.000Z</time>
      </trkpt>
      <trkpt lat="27.938995" lon="86.807277">
        <ele>4868</ele>
        <time>2022-10-27T08:48:00.000Z</time>
      </trkpt>
      <trkpt lat="27.938973" lon="86.807264">
        <ele>4867.6</ele>
        <time>2022-10-27T08:48:02.000Z</time>
      </trkpt>
      <trkpt lat="27.938947" lon="86.807264">
        <ele>4868</ele>
        <time>2022-10-27T08:48:04.000Z</time>
      </trkpt>
      <trkpt lat="27.938928" lon="86.807258">
        <ele>4868</ele>
        <time>2022-10-27T08:48:06.000Z</time>
      </trkpt>
      <trkpt lat="27.938902" lon="86.807251">
        <ele>4867.4</ele>
        <time>2022-10-27T08:48:08.000Z</time>
      </trkpt>
      <trkpt lat="27.93888" lon="86.807245">
        <ele>4867.4</ele>
        <time>2022-10-27T08:48:10.000Z</time>
      </trkpt>
      <trkpt lat="27.938854" lon="86.807245">
        <ele>4868</ele>
        <time>2022-10-27T08:48:12.000Z</time>
      </trkpt>
      <trkpt lat="27.938829" lon="86.807245">
        <ele>4868</ele>
        <time>2022-10-27T08:48:14.000Z</time>
      </trkpt>
      <trkpt lat="27.938806" lon="86.807245">
        <ele>4867.6</ele>
        <time>2022-10-27T08:48:16.000Z</time>
      </trkpt>
      <trkpt lat="27.938781" lon="86.807245">
        <ele>4867.6</ele>
        <time>2022-10-27T08:48:18.000Z</time>
      </trkpt>
      <trkpt lat="27.938755" lon="86.807245">
        <ele>4867.4</ele>
        <time>2022-10-27T08:48:20.000Z</time>
      </trkpt>
      <trkpt lat="27.938736" lon="86.807238">
        <ele>4867</ele>
        <time>2022-10-27T08:48:22.000Z</time>
      </trkpt>
      <trkpt lat="27.938714" lon="86.807226">
        <ele>4866.8</ele>
        <time>2022-10-27T08:48:24.000Z</time>
      </trkpt>
      <trkpt lat="27.938691" lon="86.807219">
        <ele>4866.4</ele>
        <time>2022-10-27T08:48:26.000Z</time>
      </trkpt>
      <trkpt lat="27.938666" lon="86.807226">
        <ele>4866.8</ele>
        <time>2022-10-27T08:48:28.000Z</time>
      </trkpt>
      <trkpt lat="27.938643" lon="86.807226">
        <ele>4866.2</ele>
        <time>2022-10-27T08:48:30.000Z</time>
      </trkpt>
      <trkpt lat="27.938621" lon="86.807219">
        <ele>4866.2</ele>
        <time>2022-10-27T08:48:32.000Z</time>
      </trkpt>
      <trkpt lat="27.938595" lon="86.807219">
        <ele>4865.6</ele>
        <time>2022-10-27T08:48:34.000Z</time>
      </trkpt>
      <trkpt lat="27.938573" lon="86.807213">
        <ele>4865.4</ele>
        <time>2022-10-27T08:48:36.000Z</time>
      </trkpt>
      <trkpt lat="27.93855" lon="86.807219">
        <ele>4865</ele>
        <time>2022-10-27T08:48:38.000Z</time>
      </trkpt>
      <trkpt lat="27.938525" lon="86.807213">
        <ele>4864.4</ele>
        <time>2022-10-27T08:48:40.000Z</time>
      </trkpt>
      <trkpt lat="27.938502" lon="86.807206">
        <ele>4864</ele>
        <time>2022-10-27T08:48:42.000Z</time>
      </trkpt>
      <trkpt lat="27.93848" lon="86.807206">
        <ele>4864.8</ele>
        <time>2022-10-27T08:48:44.000Z</time>
      </trkpt>
      <trkpt lat="27.938458" lon="86.807187">
        <ele>4864.8</ele>
        <time>2022-10-27T08:48:46.000Z</time>
      </trkpt>
      <trkpt lat="27.938435" lon="86.807181">
        <ele>4864</ele>
        <time>2022-10-27T08:48:48.000Z</time>
      </trkpt>
      <trkpt lat="27.93841" lon="86.807174">
        <ele>4864</ele>
        <time>2022-10-27T08:48:50.000Z</time>
      </trkpt>
      <trkpt lat="27.93839" lon="86.807162">
        <ele>4863.8</ele>
        <time>2022-10-27T08:48:52.000Z</time>
      </trkpt>
      <trkpt lat="27.938368" lon="86.807142">
        <ele>4863</ele>
        <time>2022-10-27T08:48:54.000Z</time>
      </trkpt>
      <trkpt lat="27.938342" lon="86.807136">
        <ele>4863</ele>
        <time>2022-10-27T08:48:56.000Z</time>
      </trkpt>
      <trkpt lat="27.938317" lon="86.807136">
        <ele>4863</ele>
        <time>2022-10-27T08:48:58.000Z</time>
      </trkpt>
      <trkpt lat="27.938298" lon="86.807136">
        <ele>4863</ele>
        <time>2022-10-27T08:48:59.000Z</time>
      </trkpt>
      <trkpt lat="27.938275" lon="86.807123">
        <ele>4862.8</ele>
        <time>2022-10-27T08:49:01.000Z</time>
      </trkpt>
      <trkpt lat="27.93825" lon="86.807123">
        <ele>4862.8</ele>
        <time>2022-10-27T08:49:03.000Z</time>
      </trkpt>
      <trkpt lat="27.938227" lon="86.807117">
        <ele>4862.2</ele>
        <time>2022-10-27T08:49:05.000Z</time>
      </trkpt>
      <trkpt lat="27.938205" lon="86.807104">
        <ele>4862.2</ele>
        <time>2022-10-27T08:49:07.000Z</time>
      </trkpt>
      <trkpt lat="27.938182" lon="86.807098">
        <ele>4861.8</ele>
        <time>2022-10-27T08:49:09.000Z</time>
      </trkpt>
      <trkpt lat="27.938154" lon="86.807085">
        <ele>4861.8</ele>
        <time>2022-10-27T08:49:11.000Z</time>
      </trkpt>
      <trkpt lat="27.938134" lon="86.807066">
        <ele>4861.8</ele>
        <time>2022-10-27T08:49:13.000Z</time>
      </trkpt>
      <trkpt lat="27.938109" lon="86.807059">
        <ele>4861.6</ele>
        <time>2022-10-27T08:49:15.000Z</time>
      </trkpt>
      <trkpt lat="27.938083" lon="86.807053">
        <ele>4861.2</ele>
        <time>2022-10-27T08:49:17.000Z</time>
      </trkpt>
      <trkpt lat="27.938054" lon="86.807053">
        <ele>4861</ele>
        <time>2022-10-27T08:49:19.000Z</time>
      </trkpt>
      <trkpt lat="27.938029" lon="86.807053">
        <ele>4860.8</ele>
        <time>2022-10-27T08:49:21.000Z</time>
      </trkpt>
      <trkpt lat="27.938006" lon="86.807053">
        <ele>4860.8</ele>
        <time>2022-10-27T08:49:23.000Z</time>
      </trkpt>
      <trkpt lat="27.937981" lon="86.807046">
        <ele>4861</ele>
        <time>2022-10-27T08:49:25.000Z</time>
      </trkpt>
      <trkpt lat="27.937958" lon="86.80704">
        <ele>4860.8</ele>
        <time>2022-10-27T08:49:27.000Z</time>
      </trkpt>
      <trkpt lat="27.937936" lon="86.807027">
        <ele>4860.4</ele>
        <time>2022-10-27T08:49:29.000Z</time>
      </trkpt>
      <trkpt lat="27.937917" lon="86.807014">
        <ele>4859.8</ele>
        <time>2022-10-27T08:49:31.000Z</time>
      </trkpt>
      <trkpt lat="27.937894" lon="86.807008">
        <ele>4859.8</ele>
        <time>2022-10-27T08:49:33.000Z</time>
      </trkpt>
      <trkpt lat="27.937875" lon="86.807008">
        <ele>4860.2</ele>
        <time>2022-10-27T08:49:35.000Z</time>
      </trkpt>
      <trkpt lat="27.93785" lon="86.807008">
        <ele>4859.8</ele>
        <time>2022-10-27T08:49:37.000Z</time>
      </trkpt>
      <trkpt lat="27.937827" lon="86.807014">
        <ele>4859.6</ele>
        <time>2022-10-27T08:49:39.000Z</time>
      </trkpt>
      <trkpt lat="27.937808" lon="86.807008">
        <ele>4859</ele>
        <time>2022-10-27T08:49:41.000Z</time>
      </trkpt>
      <trkpt lat="27.937798" lon="86.806989">
        <ele>4858.8</ele>
        <time>2022-10-27T08:49:43.000Z</time>
      </trkpt>
      <trkpt lat="27.937779" lon="86.806982">
        <ele>4858.4</ele>
        <time>2022-10-27T08:49:45.000Z</time>
      </trkpt>
      <trkpt lat="27.93776" lon="86.806989">
        <ele>4857.4</ele>
        <time>2022-10-27T08:49:47.000Z</time>
      </trkpt>
      <trkpt lat="27.937741" lon="86.807002">
        <ele>4857.8</ele>
        <time>2022-10-27T08:49:49.000Z</time>
      </trkpt>
      <trkpt lat="27.937718" lon="86.807002">
        <ele>4857.8</ele>
        <time>2022-10-27T08:49:51.000Z</time>
      </trkpt>
      <trkpt lat="27.937696" lon="86.806989">
        <ele>4857.6</ele>
        <time>2022-10-27T08:49:53.000Z</time>
      </trkpt>
      <trkpt lat="27.937677" lon="86.806976">
        <ele>4857.2</ele>
        <time>2022-10-27T08:49:55.000Z</time>
      </trkpt>
      <trkpt lat="27.937661" lon="86.80695">
        <ele>4857</ele>
        <time>2022-10-27T08:49:57.000Z</time>
      </trkpt>
      <trkpt lat="27.937642" lon="86.806938">
        <ele>4856.4</ele>
        <time>2022-10-27T08:49:59.000Z</time>
      </trkpt>
      <trkpt lat="27.937622" lon="86.806931">
        <ele>4856.2</ele>
        <time>2022-10-27T08:50:01.000Z</time>
      </trkpt>
      <trkpt lat="27.937603" lon="86.806918">
        <ele>4856.2</ele>
        <time>2022-10-27T08:50:03.000Z</time>
      </trkpt>
      <trkpt lat="27.937587" lon="86.806899">
        <ele>4855.6</ele>
        <time>2022-10-27T08:50:05.000Z</time>
      </trkpt>
      <trkpt lat="27.937568" lon="86.806893">
        <ele>4855.6</ele>
        <time>2022-10-27T08:50:07.000Z</time>
      </trkpt>
      <trkpt lat="27.937558" lon="86.806867">
        <ele>4855.6</ele>
        <time>2022-10-27T08:50:09.000Z</time>
      </trkpt>
      <trkpt lat="27.937552" lon="86.806848">
        <ele>4855.4</ele>
        <time>2022-10-27T08:50:11.000Z</time>
      </trkpt>
      <trkpt lat="27.937542" lon="86.806822">
        <ele>4855.4</ele>
        <time>2022-10-27T08:50:13.000Z</time>
      </trkpt>
      <trkpt lat="27.937526" lon="86.80681">
        <ele>4855.4</ele>
        <time>2022-10-27T08:50:15.000Z</time>
      </trkpt>
      <trkpt lat="27.93751" lon="86.80679">
        <ele>4855</ele>
        <time>2022-10-27T08:50:17.000Z</time>
      </trkpt>
      <trkpt lat="27.937491" lon="86.806778">
        <ele>4855.4</ele>
        <time>2022-10-27T08:50:19.000Z</time>
      </trkpt>
      <trkpt lat="27.937469" lon="86.806765">
        <ele>4855</ele>
        <time>2022-10-27T08:50:22.000Z</time>
      </trkpt>
      <trkpt lat="27.937453" lon="86.806746">
        <ele>4855</ele>
        <time>2022-10-27T08:50:24.000Z</time>
      </trkpt>
      <trkpt lat="27.937434" lon="86.806733">
        <ele>4855</ele>
        <time>2022-10-27T08:50:26.000Z</time>
      </trkpt>
      <trkpt lat="27.937414" lon="86.806726">
        <ele>4855</ele>
        <time>2022-10-27T08:50:28.000Z</time>
      </trkpt>
      <trkpt lat="27.937389" lon="86.806726">
        <ele>4854.8</ele>
        <time>2022-10-27T08:50:30.000Z</time>
      </trkpt>
      <trkpt lat="27.937366" lon="86.806726">
        <ele>4854.4</ele>
        <time>2022-10-27T08:50:32.000Z</time>
      </trkpt>
      <trkpt lat="27.937344" lon="86.80672">
        <ele>4854.2</ele>
        <time>2022-10-27T08:50:34.000Z</time>
      </trkpt>
      <trkpt lat="27.937331" lon="86.806694">
        <ele>4854.2</ele>
        <time>2022-10-27T08:50:36.000Z</time>
      </trkpt>
      <trkpt lat="27.937306" lon="86.806694">
        <ele>4854.4</ele>
        <time>2022-10-27T08:50:39.000Z</time>
      </trkpt>
      <trkpt lat="27.937283" lon="86.806694">
        <ele>4853.6</ele>
        <time>2022-10-27T08:50:42.000Z</time>
      </trkpt>
      <trkpt lat="27.937264" lon="86.806694">
        <ele>4853.2</ele>
        <time>2022-10-27T08:50:44.000Z</time>
      </trkpt>
      <trkpt lat="27.937245" lon="86.806701">
        <ele>4852.4</ele>
        <time>2022-10-27T08:50:51.000Z</time>
      </trkpt>
      <trkpt lat="27.937232" lon="86.80672">
        <ele>4852.4</ele>
        <time>2022-10-27T08:51:01.000Z</time>
      </trkpt>
      <trkpt lat="27.937203" lon="86.806726">
        <ele>4852.4</ele>
        <time>2022-10-27T08:51:05.000Z</time>
      </trkpt>
      <trkpt lat="27.937184" lon="86.806733">
        <ele>4852.4</ele>
        <time>2022-10-27T08:51:09.000Z</time>
      </trkpt>
      <trkpt lat="27.937165" lon="86.806739">
        <ele>4852.6</ele>
        <time>2022-10-27T08:51:12.000Z</time>
      </trkpt>
      <trkpt lat="27.937142" lon="86.806739">
        <ele>4852.4</ele>
        <time>2022-10-27T08:51:16.000Z</time>
      </trkpt>
      <trkpt lat="27.937117" lon="86.806739">
        <ele>4852.8</ele>
        <time>2022-10-27T08:51:19.000Z</time>
      </trkpt>
      <trkpt lat="27.937098" lon="86.806752">
        <ele>4853.2</ele>
        <time>2022-10-27T08:51:21.000Z</time>
      </trkpt>
      <trkpt lat="27.937075" lon="86.806765">
        <ele>4852.8</ele>
        <time>2022-10-27T08:51:23.000Z</time>
      </trkpt>
      <trkpt lat="27.937053" lon="86.806765">
        <ele>4852.6</ele>
        <time>2022-10-27T08:51:25.000Z</time>
      </trkpt>
      <trkpt lat="27.937034" lon="86.806752">
        <ele>4852.4</ele>
        <time>2022-10-27T08:51:27.000Z</time>
      </trkpt>
      <trkpt lat="27.937018" lon="86.806739">
        <ele>4852</ele>
        <time>2022-10-27T08:51:29.000Z</time>
      </trkpt>
      <trkpt lat="27.936995" lon="86.806733">
        <ele>4852</ele>
        <time>2022-10-27T08:51:31.000Z</time>
      </trkpt>
      <trkpt lat="27.936979" lon="86.80672">
        <ele>4851.8</ele>
        <time>2022-10-27T08:51:33.000Z</time>
      </trkpt>
      <trkpt lat="27.936963" lon="86.806707">
        <ele>4851.8</ele>
        <time>2022-10-27T08:51:35.000Z</time>
      </trkpt>
      <trkpt lat="27.936941" lon="86.806701">
        <ele>4851.2</ele>
        <time>2022-10-27T08:51:37.000Z</time>
      </trkpt>
      <trkpt lat="27.936922" lon="86.806701">
        <ele>4851.2</ele>
        <time>2022-10-27T08:51:39.000Z</time>
      </trkpt>
      <trkpt lat="27.936899" lon="86.806701">
        <ele>4851.2</ele>
        <time>2022-10-27T08:51:41.000Z</time>
      </trkpt>
      <trkpt lat="27.936874" lon="86.806707">
        <ele>4851.4</ele>
        <time>2022-10-27T08:51:44.000Z</time>
      </trkpt>
      <trkpt lat="27.936848" lon="86.80672">
        <ele>4851.4</ele>
        <time>2022-10-27T08:51:46.000Z</time>
      </trkpt>
      <trkpt lat="27.936829" lon="86.80672">
        <ele>4851.4</ele>
        <time>2022-10-27T08:51:48.000Z</time>
      </trkpt>
      <trkpt lat="27.936806" lon="86.80672">
        <ele>4851.2</ele>
        <time>2022-10-27T08:51:50.000Z</time>
      </trkpt>
      <trkpt lat="27.936784" lon="86.806733">
        <ele>4851.2</ele>
        <time>2022-10-27T08:51:52.000Z</time>
      </trkpt>
      <trkpt lat="27.936762" lon="86.806733">
        <ele>4851.4</ele>
        <time>2022-10-27T08:51:54.000Z</time>
      </trkpt>
      <trkpt lat="27.936742" lon="86.806733">
        <ele>4851.2</ele>
        <time>2022-10-27T08:51:56.000Z</time>
      </trkpt>
      <trkpt lat="27.93672" lon="86.806733">
        <ele>4851.2</ele>
        <time>2022-10-27T08:51:58.000Z</time>
      </trkpt>
      <trkpt lat="27.936701" lon="86.806733">
        <ele>4851.4</ele>
        <time>2022-10-27T08:52:00.000Z</time>
      </trkpt>
      <trkpt lat="27.936682" lon="86.806726">
        <ele>4850.8</ele>
        <time>2022-10-27T08:52:02.000Z</time>
      </trkpt>
      <trkpt lat="27.936662" lon="86.806726">
        <ele>4850.6</ele>
        <time>2022-10-27T08:52:08.000Z</time>
      </trkpt>
      <trkpt lat="27.936643" lon="86.80672">
        <ele>4850.8</ele>
        <time>2022-10-27T08:52:13.000Z</time>
      </trkpt>
      <trkpt lat="27.936621" lon="86.806707">
        <ele>4850.8</ele>
        <time>2022-10-27T08:52:15.000Z</time>
      </trkpt>
      <trkpt lat="27.936595" lon="86.806707">
        <ele>4850.6</ele>
        <time>2022-10-27T08:52:17.000Z</time>
      </trkpt>
      <trkpt lat="27.936576" lon="86.806707">
        <ele>4850.8</ele>
        <time>2022-10-27T08:52:19.000Z</time>
      </trkpt>
      <trkpt lat="27.936554" lon="86.806707">
        <ele>4850.8</ele>
        <time>2022-10-27T08:52:21.000Z</time>
      </trkpt>
      <trkpt lat="27.936528" lon="86.806701">
        <ele>4850.8</ele>
        <time>2022-10-27T08:52:23.000Z</time>
      </trkpt>
      <trkpt lat="27.936509" lon="86.806694">
        <ele>4850.2</ele>
        <time>2022-10-27T08:52:25.000Z</time>
      </trkpt>
      <trkpt lat="27.93649" lon="86.806682">
        <ele>4850.2</ele>
        <time>2022-10-27T08:52:27.000Z</time>
      </trkpt>
      <trkpt lat="27.936477" lon="86.806662">
        <ele>4850.2</ele>
        <time>2022-10-27T08:52:29.000Z</time>
      </trkpt>
      <trkpt lat="27.936458" lon="86.806656">
        <ele>4850.2</ele>
        <time>2022-10-27T08:52:31.000Z</time>
      </trkpt>
      <trkpt lat="27.936435" lon="86.80665">
        <ele>4850.2</ele>
        <time>2022-10-27T08:52:33.000Z</time>
      </trkpt>
      <trkpt lat="27.93641" lon="86.80665">
        <ele>4850.6</ele>
        <time>2022-10-27T08:52:36.000Z</time>
      </trkpt>
      <trkpt lat="27.93639" lon="86.806643">
        <ele>4850.8</ele>
        <time>2022-10-27T08:52:46.000Z</time>
      </trkpt>
      <trkpt lat="27.936381" lon="86.806624">
        <ele>4850.8</ele>
        <time>2022-10-27T08:52:49.000Z</time>
      </trkpt>
      <trkpt lat="27.936365" lon="86.806611">
        <ele>4850.8</ele>
        <time>2022-10-27T08:52:52.000Z</time>
      </trkpt>
      <trkpt lat="27.936352" lon="86.806592">
        <ele>4850.8</ele>
        <time>2022-10-27T08:52:54.000Z</time>
      </trkpt>
      <trkpt lat="27.936336" lon="86.806579">
        <ele>4850.8</ele>
        <time>2022-10-27T08:52:56.000Z</time>
      </trkpt>
      <trkpt lat="27.936317" lon="86.806573">
        <ele>4851</ele>
        <time>2022-10-27T08:52:58.000Z</time>
      </trkpt>
      <trkpt lat="27.936298" lon="86.806554">
        <ele>4850.8</ele>
        <time>2022-10-27T08:53:01.000Z</time>
      </trkpt>
      <trkpt lat="27.936278" lon="86.806547">
        <ele>4850.8</ele>
        <time>2022-10-27T08:53:03.000Z</time>
      </trkpt>
      <trkpt lat="27.936256" lon="86.806528">
        <ele>4850</ele>
        <time>2022-10-27T08:53:06.000Z</time>
      </trkpt>
      <trkpt lat="27.93623" lon="86.806509">
        <ele>4849.2</ele>
        <time>2022-10-27T08:53:09.000Z</time>
      </trkpt>
      <trkpt lat="27.936208" lon="86.806502">
        <ele>4848.8</ele>
        <time>2022-10-27T08:53:11.000Z</time>
      </trkpt>
      <trkpt lat="27.936186" lon="86.80649">
        <ele>4848</ele>
        <time>2022-10-27T08:53:13.000Z</time>
      </trkpt>
      <trkpt lat="27.936163" lon="86.806483">
        <ele>4847.4</ele>
        <time>2022-10-27T08:53:16.000Z</time>
      </trkpt>
      <trkpt lat="27.936147" lon="86.806464">
        <ele>4847.2</ele>
        <time>2022-10-27T08:53:19.000Z</time>
      </trkpt>
      <trkpt lat="27.936131" lon="86.806445">
        <ele>4847.4</ele>
        <time>2022-10-27T08:53:21.000Z</time>
      </trkpt>
      <trkpt lat="27.936118" lon="86.806426">
        <ele>4847.2</ele>
        <time>2022-10-27T08:53:23.000Z</time>
      </trkpt>
      <trkpt lat="27.936093" lon="86.806413">
        <ele>4847.4</ele>
        <time>2022-10-27T08:53:26.000Z</time>
      </trkpt>
      <trkpt lat="27.93608" lon="86.806394">
        <ele>4847.4</ele>
        <time>2022-10-27T08:53:28.000Z</time>
      </trkpt>
      <trkpt lat="27.936054" lon="86.806381">
        <ele>4847.4</ele>
        <time>2022-10-27T08:53:31.000Z</time>
      </trkpt>
      <trkpt lat="27.936029" lon="86.806381">
        <ele>4847.8</ele>
        <time>2022-10-27T08:53:34.000Z</time>
      </trkpt>
      <trkpt lat="27.936003" lon="86.806374">
        <ele>4848.2</ele>
        <time>2022-10-27T08:53:37.000Z</time>
      </trkpt>
      <trkpt lat="27.935981" lon="86.806368">
        <ele>4848.4</ele>
        <time>2022-10-27T08:53:40.000Z</time>
      </trkpt>
      <trkpt lat="27.935962" lon="86.806349">
        <ele>4848.4</ele>
        <time>2022-10-27T08:53:42.000Z</time>
      </trkpt>
      <trkpt lat="27.935942" lon="86.806323">
        <ele>4847.8</ele>
        <time>2022-10-27T08:53:45.000Z</time>
      </trkpt>
      <trkpt lat="27.935923" lon="86.806304">
        <ele>4847.8</ele>
        <time>2022-10-27T08:53:48.000Z</time>
      </trkpt>
      <trkpt lat="27.935904" lon="86.806298">
        <ele>4848</ele>
        <time>2022-10-27T08:53:50.000Z</time>
      </trkpt>
      <trkpt lat="27.935885" lon="86.806291">
        <ele>4847.8</ele>
        <time>2022-10-27T08:53:52.000Z</time>
      </trkpt>
      <trkpt lat="27.935862" lon="86.806285">
        <ele>4848</ele>
        <time>2022-10-27T08:53:55.000Z</time>
      </trkpt>
      <trkpt lat="27.935843" lon="86.806266">
        <ele>4848.6</ele>
        <time>2022-10-27T08:53:58.000Z</time>
      </trkpt>
      <trkpt lat="27.935824" lon="86.806259">
        <ele>4849.2</ele>
        <time>2022-10-27T08:54:01.000Z</time>
      </trkpt>
      <trkpt lat="27.935805" lon="86.806253">
        <ele>4849.6</ele>
        <time>2022-10-27T08:54:04.000Z</time>
      </trkpt>
      <trkpt lat="27.935786" lon="86.806246">
        <ele>4849.6</ele>
        <time>2022-10-27T08:54:07.000Z</time>
      </trkpt>
      <trkpt lat="27.935766" lon="86.806234">
        <ele>4849.4</ele>
        <time>2022-10-27T08:54:09.000Z</time>
      </trkpt>
      <trkpt lat="27.935741" lon="86.806221">
        <ele>4848.8</ele>
        <time>2022-10-27T08:54:12.000Z</time>
      </trkpt>
      <trkpt lat="27.935722" lon="86.806214">
        <ele>4849.4</ele>
        <time>2022-10-27T08:54:21.000Z</time>
      </trkpt>
      <trkpt lat="27.935712" lon="86.806195">
        <ele>4849</ele>
        <time>2022-10-27T08:54:23.000Z</time>
      </trkpt>
      <trkpt lat="27.93569" lon="86.806182">
        <ele>4848.6</ele>
        <time>2022-10-27T08:54:26.000Z</time>
      </trkpt>
      <trkpt lat="27.935674" lon="86.80617">
        <ele>4848.8</ele>
        <time>2022-10-27T08:54:28.000Z</time>
      </trkpt>
      <trkpt lat="27.935661" lon="86.80615">
        <ele>4848.8</ele>
        <time>2022-10-27T08:54:30.000Z</time>
      </trkpt>
      <trkpt lat="27.935638" lon="86.806131">
        <ele>4848.6</ele>
        <time>2022-10-27T08:54:33.000Z</time>
      </trkpt>
      <trkpt lat="27.935616" lon="86.806112">
        <ele>4848.8</ele>
        <time>2022-10-27T08:54:36.000Z</time>
      </trkpt>
      <trkpt lat="27.935597" lon="86.806093">
        <ele>4849</ele>
        <time>2022-10-27T08:54:38.000Z</time>
      </trkpt>
      <trkpt lat="27.935584" lon="86.806074">
        <ele>4848.8</ele>
        <time>2022-10-27T08:54:40.000Z</time>
      </trkpt>
      <trkpt lat="27.935574" lon="86.806054">
        <ele>4849</ele>
        <time>2022-10-27T08:54:42.000Z</time>
      </trkpt>
      <trkpt lat="27.935558" lon="86.806035">
        <ele>4849</ele>
        <time>2022-10-27T08:54:44.000Z</time>
      </trkpt>
      <trkpt lat="27.935539" lon="86.806022">
        <ele>4848.2</ele>
        <time>2022-10-27T08:54:46.000Z</time>
      </trkpt>
      <trkpt lat="27.93552" lon="86.806016">
        <ele>4848</ele>
        <time>2022-10-27T08:54:48.000Z</time>
      </trkpt>
      <trkpt lat="27.935498" lon="86.80601">
        <ele>4847.4</ele>
        <time>2022-10-27T08:54:50.000Z</time>
      </trkpt>
      <trkpt lat="27.935482" lon="86.80599">
        <ele>4847.4</ele>
        <time>2022-10-27T08:54:52.000Z</time>
      </trkpt>
      <trkpt lat="27.935462" lon="86.805984">
        <ele>4847</ele>
        <time>2022-10-27T08:54:54.000Z</time>
      </trkpt>
      <trkpt lat="27.935437" lon="86.805978">
        <ele>4846.8</ele>
        <time>2022-10-27T08:54:56.000Z</time>
      </trkpt>
      <trkpt lat="27.935418" lon="86.805971">
        <ele>4848.4</ele>
        <time>2022-10-27T08:54:58.000Z</time>
      </trkpt>
      <trkpt lat="27.935382" lon="86.805939">
        <ele>4848.4</ele>
        <time>2022-10-27T08:55:03.000Z</time>
      </trkpt>
      <trkpt lat="27.935363" lon="86.805926">
        <ele>4848.4</ele>
        <time>2022-10-27T08:55:05.000Z</time>
      </trkpt>
      <trkpt lat="27.935344" lon="86.805907">
        <ele>4848.2</ele>
        <time>2022-10-27T08:55:07.000Z</time>
      </trkpt>
      <trkpt lat="27.935322" lon="86.805901">
        <ele>4848.8</ele>
        <time>2022-10-27T08:55:10.000Z</time>
      </trkpt>
      <trkpt lat="27.935302" lon="86.805894">
        <ele>4848.8</ele>
        <time>2022-10-27T08:55:13.000Z</time>
      </trkpt>
      <trkpt lat="27.935286" lon="86.805875">
        <ele>4848.8</ele>
        <time>2022-10-27T08:55:15.000Z</time>
      </trkpt>
      <trkpt lat="27.935267" lon="86.805869">
        <ele>4849</ele>
        <time>2022-10-27T08:55:18.000Z</time>
      </trkpt>
      <trkpt lat="27.935248" lon="86.805862">
        <ele>4849.6</ele>
        <time>2022-10-27T08:55:21.000Z</time>
      </trkpt>
      <trkpt lat="27.935229" lon="86.80585">
        <ele>4849.8</ele>
        <time>2022-10-27T08:55:24.000Z</time>
      </trkpt>
      <trkpt lat="27.93521" lon="86.80583">
        <ele>4849.8</ele>
        <time>2022-10-27T08:55:27.000Z</time>
      </trkpt>
      <trkpt lat="27.93519" lon="86.805818">
        <ele>4849.8</ele>
        <time>2022-10-27T08:55:30.000Z</time>
      </trkpt>
      <trkpt lat="27.935178" lon="86.805798">
        <ele>4850</ele>
        <time>2022-10-27T08:55:32.000Z</time>
      </trkpt>
      <trkpt lat="27.935158" lon="86.805779">
        <ele>4850.2</ele>
        <time>2022-10-27T08:55:35.000Z</time>
      </trkpt>
      <trkpt lat="27.935149" lon="86.805747">
        <ele>4850</ele>
        <time>2022-10-27T08:55:38.000Z</time>
      </trkpt>
      <trkpt lat="27.93513" lon="86.805734">
        <ele>4850.8</ele>
        <time>2022-10-27T08:55:41.000Z</time>
      </trkpt>
      <trkpt lat="27.93512" lon="86.805715">
        <ele>4850.4</ele>
        <time>2022-10-27T08:55:43.000Z</time>
      </trkpt>
      <trkpt lat="27.935104" lon="86.805696">
        <ele>4850</ele>
        <time>2022-10-27T08:55:46.000Z</time>
      </trkpt>
      <trkpt lat="27.935082" lon="86.805677">
        <ele>4849.6</ele>
        <time>2022-10-27T08:55:49.000Z</time>
      </trkpt>
      <trkpt lat="27.935059" lon="86.805658">
        <ele>4849.6</ele>
        <time>2022-10-27T08:55:52.000Z</time>
      </trkpt>
      <trkpt lat="27.935024" lon="86.805619">
        <ele>4849.6</ele>
        <time>2022-10-27T08:55:57.000Z</time>
      </trkpt>
      <trkpt lat="27.935011" lon="86.8056">
        <ele>4849.8</ele>
        <time>2022-10-27T08:55:59.000Z</time>
      </trkpt>
      <trkpt lat="27.934995" lon="86.805581">
        <ele>4849.6</ele>
        <time>2022-10-27T08:56:02.000Z</time>
      </trkpt>
      <trkpt lat="27.934979" lon="86.805568">
        <ele>4849.8</ele>
        <time>2022-10-27T08:56:04.000Z</time>
      </trkpt>
      <trkpt lat="27.93496" lon="86.805555">
        <ele>4849.6</ele>
        <time>2022-10-27T08:56:06.000Z</time>
      </trkpt>
      <trkpt lat="27.934909" lon="86.80553">
        <ele>4849.4</ele>
        <time>2022-10-27T08:56:12.000Z</time>
      </trkpt>
      <trkpt lat="27.934896" lon="86.805504">
        <ele>4847.6</ele>
        <time>2022-10-27T08:56:14.000Z</time>
      </trkpt>
      <trkpt lat="27.934877" lon="86.805472">
        <ele>4847.6</ele>
        <time>2022-10-27T08:56:17.000Z</time>
      </trkpt>
      <trkpt lat="27.934861" lon="86.805459">
        <ele>4847.2</ele>
        <time>2022-10-27T08:56:19.000Z</time>
      </trkpt>
      <trkpt lat="27.934842" lon="86.805453">
        <ele>4847.2</ele>
        <time>2022-10-27T08:56:21.000Z</time>
      </trkpt>
      <trkpt lat="27.934822" lon="86.805434">
        <ele>4847</ele>
        <time>2022-10-27T08:56:23.000Z</time>
      </trkpt>
      <trkpt lat="27.934803" lon="86.805427">
        <ele>4847</ele>
        <time>2022-10-27T08:56:25.000Z</time>
      </trkpt>
      <trkpt lat="27.934784" lon="86.805421">
        <ele>4847.2</ele>
        <time>2022-10-27T08:56:27.000Z</time>
      </trkpt>
      <trkpt lat="27.934768" lon="86.805402">
        <ele>4847</ele>
        <time>2022-10-27T08:56:29.000Z</time>
      </trkpt>
      <trkpt lat="27.934742" lon="86.805389">
        <ele>4846.6</ele>
        <time>2022-10-27T08:56:32.000Z</time>
      </trkpt>
      <trkpt lat="27.934726" lon="86.805376">
        <ele>4847.2</ele>
        <time>2022-10-27T08:56:35.000Z</time>
      </trkpt>
      <trkpt lat="27.93471" lon="86.805357">
        <ele>4847.4</ele>
        <time>2022-10-27T08:56:38.000Z</time>
      </trkpt>
      <trkpt lat="27.934698" lon="86.805338">
        <ele>4848</ele>
        <time>2022-10-27T08:56:43.000Z</time>
      </trkpt>
      <trkpt lat="27.934694" lon="86.805312">
        <ele>4848.6</ele>
        <time>2022-10-27T08:56:47.000Z</time>
      </trkpt>
      <trkpt lat="27.934694" lon="86.80528">
        <ele>4849</ele>
        <time>2022-10-27T08:56:53.000Z</time>
      </trkpt>
      <trkpt lat="27.934688" lon="86.805254">
        <ele>4849.8</ele>
        <time>2022-10-27T08:56:59.000Z</time>
      </trkpt>
      <trkpt lat="27.934682" lon="86.805235">
        <ele>4850.6</ele>
        <time>2022-10-27T08:57:04.000Z</time>
      </trkpt>
      <trkpt lat="27.934662" lon="86.805222">
        <ele>4851.2</ele>
        <time>2022-10-27T08:57:09.000Z</time>
      </trkpt>
      <trkpt lat="27.934653" lon="86.805203">
        <ele>4851.4</ele>
        <time>2022-10-27T08:57:11.000Z</time>
      </trkpt>
      <trkpt lat="27.93463" lon="86.80519">
        <ele>4851.6</ele>
        <time>2022-10-27T08:57:16.000Z</time>
      </trkpt>
      <trkpt lat="27.934611" lon="86.805178">
        <ele>4852</ele>
        <time>2022-10-27T08:57:21.000Z</time>
      </trkpt>
      <trkpt lat="27.934602" lon="86.805158">
        <ele>4852.6</ele>
        <time>2022-10-27T08:57:23.000Z</time>
      </trkpt>
      <trkpt lat="27.934589" lon="86.805139">
        <ele>4851.8</ele>
        <time>2022-10-27T08:57:26.000Z</time>
      </trkpt>
      <trkpt lat="27.934576" lon="86.80512">
        <ele>4852</ele>
        <time>2022-10-27T08:57:28.000Z</time>
      </trkpt>
      <trkpt lat="27.934563" lon="86.805094">
        <ele>4852</ele>
        <time>2022-10-27T08:57:31.000Z</time>
      </trkpt>
      <trkpt lat="27.934554" lon="86.805069">
        <ele>4852</ele>
        <time>2022-10-27T08:57:34.000Z</time>
      </trkpt>
      <trkpt lat="27.934538" lon="86.805056">
        <ele>4852</ele>
        <time>2022-10-27T08:57:37.000Z</time>
      </trkpt>
      <trkpt lat="27.934528" lon="86.805037">
        <ele>4852</ele>
        <time>2022-10-27T08:57:39.000Z</time>
      </trkpt>
      <trkpt lat="27.934512" lon="86.805024">
        <ele>4852.2</ele>
        <time>2022-10-27T08:57:41.000Z</time>
      </trkpt>
      <trkpt lat="27.934502" lon="86.805005">
        <ele>4852.2</ele>
        <time>2022-10-27T08:57:43.000Z</time>
      </trkpt>
      <trkpt lat="27.934483" lon="86.804992">
        <ele>4852.4</ele>
        <time>2022-10-27T08:57:46.000Z</time>
      </trkpt>
      <trkpt lat="27.93447" lon="86.804973">
        <ele>4852.8</ele>
        <time>2022-10-27T08:57:49.000Z</time>
      </trkpt>
      <trkpt lat="27.934454" lon="86.804954">
        <ele>4853</ele>
        <time>2022-10-27T08:57:52.000Z</time>
      </trkpt>
      <trkpt lat="27.934435" lon="86.804941">
        <ele>4853.2</ele>
        <time>2022-10-27T08:57:55.000Z</time>
      </trkpt>
      <trkpt lat="27.934426" lon="86.804922">
        <ele>4853.2</ele>
        <time>2022-10-27T08:57:57.000Z</time>
      </trkpt>
      <trkpt lat="27.934403" lon="86.804909">
        <ele>4853.2</ele>
        <time>2022-10-27T08:58:00.000Z</time>
      </trkpt>
      <trkpt lat="27.934381" lon="86.804896">
        <ele>4853.8</ele>
        <time>2022-10-27T08:58:03.000Z</time>
      </trkpt>
      <trkpt lat="27.934371" lon="86.804877">
        <ele>4853.6</ele>
        <time>2022-10-27T08:58:05.000Z</time>
      </trkpt>
      <trkpt lat="27.934349" lon="86.804864">
        <ele>4853.2</ele>
        <time>2022-10-27T08:58:08.000Z</time>
      </trkpt>
      <trkpt lat="27.934323" lon="86.804845">
        <ele>4853.4</ele>
        <time>2022-10-27T08:58:11.000Z</time>
      </trkpt>
      <trkpt lat="27.934301" lon="86.804832">
        <ele>4853.2</ele>
        <time>2022-10-27T08:58:14.000Z</time>
      </trkpt>
      <trkpt lat="27.934275" lon="86.804826">
        <ele>4853.6</ele>
        <time>2022-10-27T08:58:17.000Z</time>
      </trkpt>
      <trkpt lat="27.934256" lon="86.804819">
        <ele>4853.6</ele>
        <time>2022-10-27T08:58:19.000Z</time>
      </trkpt>
      <trkpt lat="27.934234" lon="86.8048">
        <ele>4853.2</ele>
        <time>2022-10-27T08:58:22.000Z</time>
      </trkpt>
      <trkpt lat="27.934208" lon="86.804787">
        <ele>4853.4</ele>
        <time>2022-10-27T08:58:25.000Z</time>
      </trkpt>
      <trkpt lat="27.934186" lon="86.804774">
        <ele>4853.6</ele>
        <time>2022-10-27T08:58:28.000Z</time>
      </trkpt>
      <trkpt lat="27.934173" lon="86.804755">
        <ele>4853.4</ele>
        <time>2022-10-27T08:58:30.000Z</time>
      </trkpt>
      <trkpt lat="27.934147" lon="86.804742">
        <ele>4853.2</ele>
        <time>2022-10-27T08:58:34.000Z</time>
      </trkpt>
      <trkpt lat="27.934125" lon="86.804736">
        <ele>4853.4</ele>
        <time>2022-10-27T08:58:37.000Z</time>
      </trkpt>
      <trkpt lat="27.934106" lon="86.804717">
        <ele>4853.6</ele>
        <time>2022-10-27T08:58:40.000Z</time>
      </trkpt>
      <trkpt lat="27.93409" lon="86.804704">
        <ele>4854.4</ele>
        <time>2022-10-27T08:58:49.000Z</time>
      </trkpt>
      <trkpt lat="27.934061" lon="86.804698">
        <ele>4853.6</ele>
        <time>2022-10-27T08:59:16.000Z</time>
      </trkpt>
      <trkpt lat="27.934035" lon="86.804685">
        <ele>4854</ele>
        <time>2022-10-27T08:59:18.000Z</time>
      </trkpt>
      <trkpt lat="27.934006" lon="86.804678">
        <ele>4854</ele>
        <time>2022-10-27T08:59:20.000Z</time>
      </trkpt>
      <trkpt lat="27.933978" lon="86.804672">
        <ele>4854</ele>
        <time>2022-10-27T08:59:22.000Z</time>
      </trkpt>
      <trkpt lat="27.933952" lon="86.804666">
        <ele>4854</ele>
        <time>2022-10-27T08:59:24.000Z</time>
      </trkpt>
      <trkpt lat="27.933926" lon="86.804659">
        <ele>4854.6</ele>
        <time>2022-10-27T08:59:27.000Z</time>
      </trkpt>
      <trkpt lat="27.933907" lon="86.804659">
        <ele>4854</ele>
        <time>2022-10-27T08:59:29.000Z</time>
      </trkpt>
      <trkpt lat="27.933885" lon="86.804659">
        <ele>4854</ele>
        <time>2022-10-27T08:59:32.000Z</time>
      </trkpt>
      <trkpt lat="27.933866" lon="86.804659">
        <ele>4854</ele>
        <time>2022-10-27T08:59:34.000Z</time>
      </trkpt>
      <trkpt lat="27.933846" lon="86.804659">
        <ele>4854.2</ele>
        <time>2022-10-27T08:59:36.000Z</time>
      </trkpt>
      <trkpt lat="27.933824" lon="86.804646">
        <ele>4854.8</ele>
        <time>2022-10-27T08:59:39.000Z</time>
      </trkpt>
      <trkpt lat="27.933808" lon="86.804634">
        <ele>4854.8</ele>
        <time>2022-10-27T08:59:42.000Z</time>
      </trkpt>
      <trkpt lat="27.933789" lon="86.804614">
        <ele>4855</ele>
        <time>2022-10-27T08:59:45.000Z</time>
      </trkpt>
      <trkpt lat="27.933786" lon="86.804589">
        <ele>4855.2</ele>
        <time>2022-10-27T08:59:47.000Z</time>
      </trkpt>
      <trkpt lat="27.933786" lon="86.804563">
        <ele>4855.2</ele>
        <time>2022-10-27T08:59:50.000Z</time>
      </trkpt>
      <trkpt lat="27.933776" lon="86.804538">
        <ele>4855</ele>
        <time>2022-10-27T08:59:53.000Z</time>
      </trkpt>
      <trkpt lat="27.933766" lon="86.804518">
        <ele>4855</ele>
        <time>2022-10-27T08:59:55.000Z</time>
      </trkpt>
      <trkpt lat="27.933757" lon="86.804499">
        <ele>4854.4</ele>
        <time>2022-10-27T08:59:57.000Z</time>
      </trkpt>
      <trkpt lat="27.933747" lon="86.80448">
        <ele>4854.4</ele>
        <time>2022-10-27T08:59:58.000Z</time>
      </trkpt>
      <trkpt lat="27.933728" lon="86.804467">
        <ele>4854.6</ele>
        <time>2022-10-27T09:00:01.000Z</time>
      </trkpt>
      <trkpt lat="27.933712" lon="86.804448">
        <ele>4854.6</ele>
        <time>2022-10-27T09:00:03.000Z</time>
      </trkpt>
      <trkpt lat="27.93369" lon="86.804442">
        <ele>4854.8</ele>
        <time>2022-10-27T09:00:05.000Z</time>
      </trkpt>
      <trkpt lat="27.93367" lon="86.804442">
        <ele>4854.8</ele>
        <time>2022-10-27T09:00:07.000Z</time>
      </trkpt>
      <trkpt lat="27.933651" lon="86.804435">
        <ele>4854.8</ele>
        <time>2022-10-27T09:00:09.000Z</time>
      </trkpt>
      <trkpt lat="27.933635" lon="86.804422">
        <ele>4854.8</ele>
        <time>2022-10-27T09:00:11.000Z</time>
      </trkpt>
      <trkpt lat="27.933626" lon="86.804403">
        <ele>4855.2</ele>
        <time>2022-10-27T09:00:13.000Z</time>
      </trkpt>
      <trkpt lat="27.933606" lon="86.804397">
        <ele>4854.8</ele>
        <time>2022-10-27T09:00:16.000Z</time>
      </trkpt>
      <trkpt lat="27.933587" lon="86.804378">
        <ele>4855.4</ele>
        <time>2022-10-27T09:00:19.000Z</time>
      </trkpt>
      <trkpt lat="27.933571" lon="86.804365">
        <ele>4855.4</ele>
        <time>2022-10-27T09:00:22.000Z</time>
      </trkpt>
      <trkpt lat="27.933555" lon="86.804352">
        <ele>4856</ele>
        <time>2022-10-27T09:00:25.000Z</time>
      </trkpt>
      <trkpt lat="27.933536" lon="86.804326">
        <ele>4855.6</ele>
        <time>2022-10-27T09:00:28.000Z</time>
      </trkpt>
      <trkpt lat="27.933517" lon="86.804314">
        <ele>4855.6</ele>
        <time>2022-10-27T09:00:32.000Z</time>
      </trkpt>
      <trkpt lat="27.933504" lon="86.804288">
        <ele>4856</ele>
        <time>2022-10-27T09:00:36.000Z</time>
      </trkpt>
      <trkpt lat="27.933504" lon="86.80425">
        <ele>4856.2</ele>
        <time>2022-10-27T09:00:40.000Z</time>
      </trkpt>
      <trkpt lat="27.933498" lon="86.80423">
        <ele>4855.8</ele>
        <time>2022-10-27T09:00:43.000Z</time>
      </trkpt>
      <trkpt lat="27.933475" lon="86.804224">
        <ele>4855.6</ele>
        <time>2022-10-27T09:00:46.000Z</time>
      </trkpt>
      <trkpt lat="27.933462" lon="86.804205">
        <ele>4855.6</ele>
        <time>2022-10-27T09:00:48.000Z</time>
      </trkpt>
      <trkpt lat="27.933446" lon="86.804186">
        <ele>4855.6</ele>
        <time>2022-10-27T09:00:51.000Z</time>
      </trkpt>
      <trkpt lat="27.933434" lon="86.804166">
        <ele>4855</ele>
        <time>2022-10-27T09:00:53.000Z</time>
      </trkpt>
      <trkpt lat="27.933414" lon="86.804147">
        <ele>4854.6</ele>
        <time>2022-10-27T09:00:56.000Z</time>
      </trkpt>
      <trkpt lat="27.933402" lon="86.804128">
        <ele>4854.6</ele>
        <time>2022-10-27T09:00:58.000Z</time>
      </trkpt>
      <trkpt lat="27.933382" lon="86.804109">
        <ele>4854.6</ele>
        <time>2022-10-27T09:01:01.000Z</time>
      </trkpt>
      <trkpt lat="27.93337" lon="86.80409">
        <ele>4853.8</ele>
        <time>2022-10-27T09:01:03.000Z</time>
      </trkpt>
      <trkpt lat="27.933347" lon="86.804077">
        <ele>4853.8</ele>
        <time>2022-10-27T09:01:06.000Z</time>
      </trkpt>
      <trkpt lat="27.933328" lon="86.80407">
        <ele>4853.2</ele>
        <time>2022-10-27T09:01:08.000Z</time>
      </trkpt>
      <trkpt lat="27.933309" lon="86.804077">
        <ele>4853.2</ele>
        <time>2022-10-27T09:01:10.000Z</time>
      </trkpt>
      <trkpt lat="27.933283" lon="86.80407">
        <ele>4853.8</ele>
        <time>2022-10-27T09:01:13.000Z</time>
      </trkpt>
      <trkpt lat="27.933264" lon="86.804064">
        <ele>4852.6</ele>
        <time>2022-10-27T09:01:16.000Z</time>
      </trkpt>
      <trkpt lat="27.933242" lon="86.80407">
        <ele>4852.6</ele>
        <time>2022-10-27T09:01:20.000Z</time>
      </trkpt>
      <trkpt lat="27.933216" lon="86.80407">
        <ele>4852.4</ele>
        <time>2022-10-27T09:01:23.000Z</time>
      </trkpt>
      <trkpt lat="27.933194" lon="86.804064">
        <ele>4851.8</ele>
        <time>2022-10-27T09:01:26.000Z</time>
      </trkpt>
      <trkpt lat="27.933171" lon="86.804064">
        <ele>4850.8</ele>
        <time>2022-10-27T09:01:29.000Z</time>
      </trkpt>
      <trkpt lat="27.933152" lon="86.804045">
        <ele>4850.8</ele>
        <time>2022-10-27T09:01:36.000Z</time>
      </trkpt>
      <trkpt lat="27.933133" lon="86.804032">
        <ele>4850.2</ele>
        <time>2022-10-27T09:01:40.000Z</time>
      </trkpt>
      <trkpt lat="27.933117" lon="86.804006">
        <ele>4851</ele>
        <time>2022-10-27T09:01:52.000Z</time>
      </trkpt>
      <trkpt lat="27.933101" lon="86.803994">
        <ele>4850.2</ele>
        <time>2022-10-27T09:01:55.000Z</time>
      </trkpt>
      <trkpt lat="27.933075" lon="86.803981">
        <ele>4849.8</ele>
        <time>2022-10-27T09:01:58.000Z</time>
      </trkpt>
      <trkpt lat="27.933059" lon="86.803962">
        <ele>4849.4</ele>
        <time>2022-10-27T09:02:00.000Z</time>
      </trkpt>
      <trkpt lat="27.93304" lon="86.803955">
        <ele>4849.4</ele>
        <time>2022-10-27T09:02:03.000Z</time>
      </trkpt>
      <trkpt lat="27.933014" lon="86.803942">
        <ele>4848.8</ele>
        <time>2022-10-27T09:02:05.000Z</time>
      </trkpt>
      <trkpt lat="27.932995" lon="86.80393">
        <ele>4849</ele>
        <time>2022-10-27T09:02:08.000Z</time>
      </trkpt>
      <trkpt lat="27.932976" lon="86.803923">
        <ele>4849.6</ele>
        <time>2022-10-27T09:02:10.000Z</time>
      </trkpt>
      <trkpt lat="27.932954" lon="86.803917">
        <ele>4849.6</ele>
        <time>2022-10-27T09:02:12.000Z</time>
      </trkpt>
      <trkpt lat="27.932934" lon="86.803917">
        <ele>4848.2</ele>
        <time>2022-10-27T09:02:14.000Z</time>
      </trkpt>
      <trkpt lat="27.932915" lon="86.803923">
        <ele>4846.8</ele>
        <time>2022-10-27T09:02:17.000Z</time>
      </trkpt>
      <trkpt lat="27.932906" lon="86.803942">
        <ele>4846.8</ele>
        <time>2022-10-27T09:02:19.000Z</time>
      </trkpt>
      <trkpt lat="27.93289" lon="86.803962">
        <ele>4846.6</ele>
        <time>2022-10-27T09:02:22.000Z</time>
      </trkpt>
      <trkpt lat="27.93287" lon="86.803968">
        <ele>4846.4</ele>
        <time>2022-10-27T09:02:24.000Z</time>
      </trkpt>
      <trkpt lat="27.932848" lon="86.803968">
        <ele>4846.4</ele>
        <time>2022-10-27T09:02:26.000Z</time>
      </trkpt>
      <trkpt lat="27.932832" lon="86.803981">
        <ele>4846</ele>
        <time>2022-10-27T09:02:28.000Z</time>
      </trkpt>
      <trkpt lat="27.932813" lon="86.803994">
        <ele>4845.8</ele>
        <time>2022-10-27T09:02:30.000Z</time>
      </trkpt>
      <trkpt lat="27.93279" lon="86.804">
        <ele>4846.4</ele>
        <time>2022-10-27T09:02:32.000Z</time>
      </trkpt>
      <trkpt lat="27.932768" lon="86.804">
        <ele>4846.4</ele>
        <time>2022-10-27T09:02:34.000Z</time>
      </trkpt>
      <trkpt lat="27.932742" lon="86.803994">
        <ele>4846.4</ele>
        <time>2022-10-27T09:02:36.000Z</time>
      </trkpt>
      <trkpt lat="27.932723" lon="86.803987">
        <ele>4845.4</ele>
        <time>2022-10-27T09:02:38.000Z</time>
      </trkpt>
      <trkpt lat="27.932701" lon="86.803987">
        <ele>4845.4</ele>
        <time>2022-10-27T09:02:40.000Z</time>
      </trkpt>
      <trkpt lat="27.932678" lon="86.803994">
        <ele>4845.2</ele>
        <time>2022-10-27T09:02:42.000Z</time>
      </trkpt>
      <trkpt lat="27.932656" lon="86.803987">
        <ele>4845</ele>
        <time>2022-10-27T09:02:44.000Z</time>
      </trkpt>
      <trkpt lat="27.932637" lon="86.803981">
        <ele>4844.4</ele>
        <time>2022-10-27T09:02:46.000Z</time>
      </trkpt>
      <trkpt lat="27.932614" lon="86.803981">
        <ele>4844.2</ele>
        <time>2022-10-27T09:02:48.000Z</time>
      </trkpt>
      <trkpt lat="27.932595" lon="86.803987">
        <ele>4844.2</ele>
        <time>2022-10-27T09:02:50.000Z</time>
      </trkpt>
      <trkpt lat="27.932576" lon="86.803968">
        <ele>4843.8</ele>
        <time>2022-10-27T09:02:52.000Z</time>
      </trkpt>
      <trkpt lat="27.932554" lon="86.803955">
        <ele>4843.6</ele>
        <time>2022-10-27T09:02:54.000Z</time>
      </trkpt>
      <trkpt lat="27.932528" lon="86.803942">
        <ele>4844.2</ele>
        <time>2022-10-27T09:02:57.000Z</time>
      </trkpt>
      <trkpt lat="27.932509" lon="86.803942">
        <ele>4844.2</ele>
        <time>2022-10-27T09:02:59.000Z</time>
      </trkpt>
      <trkpt lat="27.932483" lon="86.803955">
        <ele>4842.8</ele>
        <time>2022-10-27T09:03:02.000Z</time>
      </trkpt>
      <trkpt lat="27.932458" lon="86.803968">
        <ele>4842</ele>
        <time>2022-10-27T09:03:05.000Z</time>
      </trkpt>
      <trkpt lat="27.932438" lon="86.803981">
        <ele>4841.6</ele>
        <time>2022-10-27T09:03:07.000Z</time>
      </trkpt>
      <trkpt lat="27.932419" lon="86.803981">
        <ele>4841.6</ele>
        <time>2022-10-27T09:03:09.000Z</time>
      </trkpt>
      <trkpt lat="27.932394" lon="86.803987">
        <ele>4840.8</ele>
        <time>2022-10-27T09:03:12.000Z</time>
      </trkpt>
      <trkpt lat="27.932368" lon="86.803994">
        <ele>4840.6</ele>
        <time>2022-10-27T09:03:15.000Z</time>
      </trkpt>
      <trkpt lat="27.932365" lon="86.804019">
        <ele>4840.6</ele>
        <time>2022-10-27T09:03:17.000Z</time>
      </trkpt>
      <trkpt lat="27.932349" lon="86.804032">
        <ele>4840.6</ele>
        <time>2022-10-27T09:03:19.000Z</time>
      </trkpt>
      <trkpt lat="27.93233" lon="86.804038">
        <ele>4840</ele>
        <time>2022-10-27T09:03:21.000Z</time>
      </trkpt>
      <trkpt lat="27.932307" lon="86.804038">
        <ele>4839.8</ele>
        <time>2022-10-27T09:03:23.000Z</time>
      </trkpt>
      <trkpt lat="27.932288" lon="86.804032">
        <ele>4839.2</ele>
        <time>2022-10-27T09:03:25.000Z</time>
      </trkpt>
      <trkpt lat="27.932266" lon="86.804032">
        <ele>4839</ele>
        <time>2022-10-27T09:03:28.000Z</time>
      </trkpt>
      <trkpt lat="27.93224" lon="86.804038">
        <ele>4838.6</ele>
        <time>2022-10-27T09:03:31.000Z</time>
      </trkpt>
      <trkpt lat="27.932214" lon="86.804032">
        <ele>4837.8</ele>
        <time>2022-10-27T09:03:34.000Z</time>
      </trkpt>
      <trkpt lat="27.932192" lon="86.804032">
        <ele>4837</ele>
        <time>2022-10-27T09:03:37.000Z</time>
      </trkpt>
      <trkpt lat="27.932176" lon="86.804051">
        <ele>4837</ele>
        <time>2022-10-27T09:03:40.000Z</time>
      </trkpt>
      <trkpt lat="27.93216" lon="86.80407">
        <ele>4836.8</ele>
        <time>2022-10-27T09:03:42.000Z</time>
      </trkpt>
      <trkpt lat="27.932131" lon="86.804083">
        <ele>4836.2</ele>
        <time>2022-10-27T09:03:45.000Z</time>
      </trkpt>
      <trkpt lat="27.932106" lon="86.80409">
        <ele>4836</ele>
        <time>2022-10-27T09:03:48.000Z</time>
      </trkpt>
      <trkpt lat="27.932086" lon="86.804102">
        <ele>4835.4</ele>
        <time>2022-10-27T09:03:50.000Z</time>
      </trkpt>
      <trkpt lat="27.93207" lon="86.804115">
        <ele>4835.4</ele>
        <time>2022-10-27T09:03:52.000Z</time>
      </trkpt>
      <trkpt lat="27.932048" lon="86.804122">
        <ele>4835.2</ele>
        <time>2022-10-27T09:03:54.000Z</time>
      </trkpt>
      <trkpt lat="27.932026" lon="86.804128">
        <ele>4834.8</ele>
        <time>2022-10-27T09:03:56.000Z</time>
      </trkpt>
      <trkpt lat="27.932003" lon="86.804128">
        <ele>4834.2</ele>
        <time>2022-10-27T09:03:58.000Z</time>
      </trkpt>
      <trkpt lat="27.93199" lon="86.804147">
        <ele>4834.2</ele>
        <time>2022-10-27T09:04:00.000Z</time>
      </trkpt>
      <trkpt lat="27.931981" lon="86.804166">
        <ele>4834.2</ele>
        <time>2022-10-27T09:04:02.000Z</time>
      </trkpt>
      <trkpt lat="27.931971" lon="86.804186">
        <ele>4834.2</ele>
        <time>2022-10-27T09:04:04.000Z</time>
      </trkpt>
      <trkpt lat="27.931965" lon="86.804224">
        <ele>4834.2</ele>
        <time>2022-10-27T09:04:08.000Z</time>
      </trkpt>
      <trkpt lat="27.931955" lon="86.804243">
        <ele>4834.6</ele>
        <time>2022-10-27T09:04:11.000Z</time>
      </trkpt>
      <trkpt lat="27.931946" lon="86.804262">
        <ele>4834.8</ele>
        <time>2022-10-27T09:04:13.000Z</time>
      </trkpt>
      <trkpt lat="27.931926" lon="86.804275">
        <ele>4835</ele>
        <time>2022-10-27T09:04:16.000Z</time>
      </trkpt>
      <trkpt lat="27.931907" lon="86.804282">
        <ele>4835.4</ele>
        <time>2022-10-27T09:04:19.000Z</time>
      </trkpt>
      <trkpt lat="27.931888" lon="86.804301">
        <ele>4835.4</ele>
        <time>2022-10-27T09:04:22.000Z</time>
      </trkpt>
      <trkpt lat="27.931869" lon="86.804314">
        <ele>4835.6</ele>
        <time>2022-10-27T09:04:26.000Z</time>
      </trkpt>
      <trkpt lat="27.931853" lon="86.804326">
        <ele>4835.8</ele>
        <time>2022-10-27T09:04:30.000Z</time>
      </trkpt>
      <trkpt lat="27.93184" lon="86.804346">
        <ele>4836.2</ele>
        <time>2022-10-27T09:04:33.000Z</time>
      </trkpt>
      <trkpt lat="27.931821" lon="86.804346">
        <ele>4836.4</ele>
        <time>2022-10-27T09:04:35.000Z</time>
      </trkpt>
      <trkpt lat="27.931798" lon="86.804346">
        <ele>4836.4</ele>
        <time>2022-10-27T09:04:37.000Z</time>
      </trkpt>
      <trkpt lat="27.931779" lon="86.804352">
        <ele>4837.2</ele>
        <time>2022-10-27T09:04:50.000Z</time>
      </trkpt>
      <trkpt lat="27.931744" lon="86.804365">
        <ele>4836.8</ele>
        <time>2022-10-27T09:05:18.000Z</time>
      </trkpt>
      <trkpt lat="27.931731" lon="86.804397">
        <ele>4836.8</ele>
        <time>2022-10-27T09:05:20.000Z</time>
      </trkpt>
      <trkpt lat="27.931722" lon="86.804416">
        <ele>4836.2</ele>
        <time>2022-10-27T09:05:21.000Z</time>
      </trkpt>
      <trkpt lat="27.931696" lon="86.804422">
        <ele>4836</ele>
        <time>2022-10-27T09:05:23.000Z</time>
      </trkpt>
      <trkpt lat="27.931654" lon="86.804461">
        <ele>4835.4</ele>
        <time>2022-10-27T09:05:27.000Z</time>
      </trkpt>
      <trkpt lat="27.931632" lon="86.804461">
        <ele>4835.4</ele>
        <time>2022-10-27T09:05:29.000Z</time>
      </trkpt>
      <trkpt lat="27.931616" lon="86.804442">
        <ele>4835.6</ele>
        <time>2022-10-27T09:05:31.000Z</time>
      </trkpt>
      <trkpt lat="27.931597" lon="86.804442">
        <ele>4835.4</ele>
        <time>2022-10-27T09:05:33.000Z</time>
      </trkpt>
      <trkpt lat="27.931571" lon="86.804448">
        <ele>4835</ele>
        <time>2022-10-27T09:05:35.000Z</time>
      </trkpt>
      <trkpt lat="27.931546" lon="86.804461">
        <ele>4834</ele>
        <time>2022-10-27T09:05:37.000Z</time>
      </trkpt>
      <trkpt lat="27.931523" lon="86.804442">
        <ele>4833.4</ele>
        <time>2022-10-27T09:05:39.000Z</time>
      </trkpt>
      <trkpt lat="27.931498" lon="86.804435">
        <ele>4832.8</ele>
        <time>2022-10-27T09:05:42.000Z</time>
      </trkpt>
      <trkpt lat="27.931475" lon="86.804448">
        <ele>4831.8</ele>
        <time>2022-10-27T09:05:44.000Z</time>
      </trkpt>
      <trkpt lat="27.931453" lon="86.804442">
        <ele>4831.6</ele>
        <time>2022-10-27T09:05:46.000Z</time>
      </trkpt>
      <trkpt lat="27.931434" lon="86.804448">
        <ele>4830.8</ele>
        <time>2022-10-27T09:05:49.000Z</time>
      </trkpt>
      <trkpt lat="27.931418" lon="86.804461">
        <ele>4830.8</ele>
        <time>2022-10-27T09:05:51.000Z</time>
      </trkpt>
      <trkpt lat="27.931395" lon="86.804467">
        <ele>4831.2</ele>
        <time>2022-10-27T09:05:53.000Z</time>
      </trkpt>
      <trkpt lat="27.931376" lon="86.80448">
        <ele>4831</ele>
        <time>2022-10-27T09:05:55.000Z</time>
      </trkpt>
      <trkpt lat="27.931354" lon="86.80448">
        <ele>4830.2</ele>
        <time>2022-10-27T09:05:57.000Z</time>
      </trkpt>
      <trkpt lat="27.931334" lon="86.804486">
        <ele>4830.2</ele>
        <time>2022-10-27T09:06:00.000Z</time>
      </trkpt>
      <trkpt lat="27.931318" lon="86.804499">
        <ele>4829.6</ele>
        <time>2022-10-27T09:06:03.000Z</time>
      </trkpt>
      <trkpt lat="27.931296" lon="86.804499">
        <ele>4829.6</ele>
        <time>2022-10-27T09:06:08.000Z</time>
      </trkpt>
      <trkpt lat="27.931277" lon="86.804499">
        <ele>4829.6</ele>
        <time>2022-10-27T09:06:12.000Z</time>
      </trkpt>
      <trkpt lat="27.931261" lon="86.804512">
        <ele>4829.4</ele>
        <time>2022-10-27T09:06:15.000Z</time>
      </trkpt>
      <trkpt lat="27.931242" lon="86.804512">
        <ele>4829.4</ele>
        <time>2022-10-27T09:06:19.000Z</time>
      </trkpt>
      <trkpt lat="27.931219" lon="86.804512">
        <ele>4829.2</ele>
        <time>2022-10-27T09:06:23.000Z</time>
      </trkpt>
      <trkpt lat="27.931184" lon="86.804525">
        <ele>4828.8</ele>
        <time>2022-10-27T09:07:39.000Z</time>
      </trkpt>
      <trkpt lat="27.931155" lon="86.804538">
        <ele>4828.2</ele>
        <time>2022-10-27T09:07:41.000Z</time>
      </trkpt>
      <trkpt lat="27.931126" lon="86.80455">
        <ele>4828.2</ele>
        <time>2022-10-27T09:07:43.000Z</time>
      </trkpt>
      <trkpt lat="27.931094" lon="86.804557">
        <ele>4828.2</ele>
        <time>2022-10-27T09:07:45.000Z</time>
      </trkpt>
      <trkpt lat="27.931062" lon="86.804576">
        <ele>4827.6</ele>
        <time>2022-10-27T09:07:47.000Z</time>
      </trkpt>
      <trkpt lat="27.931046" lon="86.804589">
        <ele>4827.6</ele>
        <time>2022-10-27T09:07:48.000Z</time>
      </trkpt>
      <trkpt lat="27.931018" lon="86.804602">
        <ele>4827.6</ele>
        <time>2022-10-27T09:07:51.000Z</time>
      </trkpt>
      <trkpt lat="27.931008" lon="86.804621">
        <ele>4827.6</ele>
        <time>2022-10-27T09:07:52.000Z</time>
      </trkpt>
      <trkpt lat="27.930986" lon="86.804634">
        <ele>4827.4</ele>
        <time>2022-10-27T09:07:54.000Z</time>
      </trkpt>
      <trkpt lat="27.930966" lon="86.80464">
        <ele>4827.2</ele>
        <time>2022-10-27T09:07:58.000Z</time>
      </trkpt>
      <trkpt lat="27.93096" lon="86.804659">
        <ele>4827.4</ele>
        <time>2022-10-27T09:08:00.000Z</time>
      </trkpt>
      <trkpt lat="27.93096" lon="86.804685">
        <ele>4827</ele>
        <time>2022-10-27T09:08:09.000Z</time>
      </trkpt>
      <trkpt lat="27.930957" lon="86.80471">
        <ele>4826.8</ele>
        <time>2022-10-27T09:08:13.000Z</time>
      </trkpt>
      <trkpt lat="27.930954" lon="86.804736">
        <ele>4826.4</ele>
        <time>2022-10-27T09:08:16.000Z</time>
      </trkpt>
      <trkpt lat="27.930957" lon="86.804762">
        <ele>4825.6</ele>
        <time>2022-10-27T09:08:19.000Z</time>
      </trkpt>
      <trkpt lat="27.930963" lon="86.804781">
        <ele>4825.4</ele>
        <time>2022-10-27T09:08:22.000Z</time>
      </trkpt>
      <trkpt lat="27.93097" lon="86.8048">
        <ele>4824.8</ele>
        <time>2022-10-27T09:08:24.000Z</time>
      </trkpt>
      <trkpt lat="27.930973" lon="86.804826">
        <ele>4824.8</ele>
        <time>2022-10-27T09:08:26.000Z</time>
      </trkpt>
      <trkpt lat="27.93097" lon="86.804858">
        <ele>4823.8</ele>
        <time>2022-10-27T09:08:29.000Z</time>
      </trkpt>
      <trkpt lat="27.930963" lon="86.804877">
        <ele>4823.8</ele>
        <time>2022-10-27T09:08:31.000Z</time>
      </trkpt>
      <trkpt lat="27.930957" lon="86.804896">
        <ele>4823.8</ele>
        <time>2022-10-27T09:08:34.000Z</time>
      </trkpt>
      <trkpt lat="27.930963" lon="86.804915">
        <ele>4823.6</ele>
        <time>2022-10-27T09:08:59.000Z</time>
      </trkpt>
      <trkpt lat="27.930957" lon="86.804934">
        <ele>4823.2</ele>
        <time>2022-10-27T09:09:00.000Z</time>
      </trkpt>
      <trkpt lat="27.930944" lon="86.80496">
        <ele>4823.2</ele>
        <time>2022-10-27T09:09:02.000Z</time>
      </trkpt>
      <trkpt lat="27.930938" lon="86.804979">
        <ele>4823.2</ele>
        <time>2022-10-27T09:09:03.000Z</time>
      </trkpt>
      <trkpt lat="27.930925" lon="86.804998">
        <ele>4823</ele>
        <time>2022-10-27T09:09:05.000Z</time>
      </trkpt>
      <trkpt lat="27.930909" lon="86.805024">
        <ele>4822.6</ele>
        <time>2022-10-27T09:09:07.000Z</time>
      </trkpt>
      <trkpt lat="27.930896" lon="86.805043">
        <ele>4822.4</ele>
        <time>2022-10-27T09:09:09.000Z</time>
      </trkpt>
      <trkpt lat="27.930883" lon="86.805062">
        <ele>4822.4</ele>
        <time>2022-10-27T09:09:11.000Z</time>
      </trkpt>
      <trkpt lat="27.93087" lon="86.805082">
        <ele>4821.8</ele>
        <time>2022-10-27T09:09:13.000Z</time>
      </trkpt>
      <trkpt lat="27.930851" lon="86.805101">
        <ele>4821</ele>
        <time>2022-10-27T09:09:16.000Z</time>
      </trkpt>
      <trkpt lat="27.930835" lon="86.805114">
        <ele>4820.4</ele>
        <time>2022-10-27T09:09:20.000Z</time>
      </trkpt>
      <trkpt lat="27.930819" lon="86.805133">
        <ele>4819.8</ele>
        <time>2022-10-27T09:09:23.000Z</time>
      </trkpt>
      <trkpt lat="27.930816" lon="86.805171">
        <ele>4818.6</ele>
        <time>2022-10-27T09:09:29.000Z</time>
      </trkpt>
      <trkpt lat="27.9308" lon="86.805184">
        <ele>4818</ele>
        <time>2022-10-27T09:09:32.000Z</time>
      </trkpt>
      <trkpt lat="27.930781" lon="86.805197">
        <ele>4817</ele>
        <time>2022-10-27T09:09:35.000Z</time>
      </trkpt>
      <trkpt lat="27.930768" lon="86.805216">
        <ele>4816.6</ele>
        <time>2022-10-27T09:09:37.000Z</time>
      </trkpt>
      <trkpt lat="27.930749" lon="86.805222">
        <ele>4816.4</ele>
        <time>2022-10-27T09:09:39.000Z</time>
      </trkpt>
      <trkpt lat="27.93073" lon="86.805235">
        <ele>4815.2</ele>
        <time>2022-10-27T09:09:43.000Z</time>
      </trkpt>
      <trkpt lat="27.930707" lon="86.805229">
        <ele>4814.2</ele>
        <time>2022-10-27T09:09:46.000Z</time>
      </trkpt>
      <trkpt lat="27.930701" lon="86.805254">
        <ele>4814.6</ele>
        <time>2022-10-27T09:09:49.000Z</time>
      </trkpt>
      <trkpt lat="27.930685" lon="86.805267">
        <ele>4814.2</ele>
        <time>2022-10-27T09:09:51.000Z</time>
      </trkpt>
      <trkpt lat="27.930666" lon="86.805261">
        <ele>4813.2</ele>
        <time>2022-10-27T09:09:54.000Z</time>
      </trkpt>
      <trkpt lat="27.930659" lon="86.805242">
        <ele>4813</ele>
        <time>2022-10-27T09:09:56.000Z</time>
      </trkpt>
      <trkpt lat="27.930637" lon="86.805235">
        <ele>4812.4</ele>
        <time>2022-10-27T09:09:59.000Z</time>
      </trkpt>
      <trkpt lat="27.930621" lon="86.805254">
        <ele>4811.8</ele>
        <time>2022-10-27T09:10:03.000Z</time>
      </trkpt>
      <trkpt lat="27.930602" lon="86.805267">
        <ele>4810.6</ele>
        <time>2022-10-27T09:10:06.000Z</time>
      </trkpt>
      <trkpt lat="27.930582" lon="86.805267">
        <ele>4810.2</ele>
        <time>2022-10-27T09:10:08.000Z</time>
      </trkpt>
      <trkpt lat="27.930566" lon="86.80528">
        <ele>4809.8</ele>
        <time>2022-10-27T09:10:11.000Z</time>
      </trkpt>
      <trkpt lat="27.930557" lon="86.805299">
        <ele>4809</ele>
        <time>2022-10-27T09:10:13.000Z</time>
      </trkpt>
      <trkpt lat="27.930538" lon="86.805299">
        <ele>4809</ele>
        <time>2022-10-27T09:10:16.000Z</time>
      </trkpt>
      <trkpt lat="27.930518" lon="86.805299">
        <ele>4808</ele>
        <time>2022-10-27T09:10:19.000Z</time>
      </trkpt>
      <trkpt lat="27.930506" lon="86.805318">
        <ele>4807.6</ele>
        <time>2022-10-27T09:10:22.000Z</time>
      </trkpt>
      <trkpt lat="27.930486" lon="86.805318">
        <ele>4807.2</ele>
        <time>2022-10-27T09:10:25.000Z</time>
      </trkpt>
      <trkpt lat="27.93047" lon="86.805306">
        <ele>4806.8</ele>
        <time>2022-10-27T09:10:28.000Z</time>
      </trkpt>
      <trkpt lat="27.930458" lon="86.80528">
        <ele>4806.8</ele>
        <time>2022-10-27T09:10:30.000Z</time>
      </trkpt>
      <trkpt lat="27.930454" lon="86.805254">
        <ele>4805.6</ele>
        <time>2022-10-27T09:10:33.000Z</time>
      </trkpt>
      <trkpt lat="27.930448" lon="86.805235">
        <ele>4805.4</ele>
        <time>2022-10-27T09:10:35.000Z</time>
      </trkpt>
      <trkpt lat="27.930438" lon="86.805216">
        <ele>4804.8</ele>
        <time>2022-10-27T09:10:37.000Z</time>
      </trkpt>
      <trkpt lat="27.930429" lon="86.805197">
        <ele>4804.2</ele>
        <time>2022-10-27T09:10:39.000Z</time>
      </trkpt>
      <trkpt lat="27.930413" lon="86.805184">
        <ele>4804</ele>
        <time>2022-10-27T09:10:41.000Z</time>
      </trkpt>
      <trkpt lat="27.930394" lon="86.805171">
        <ele>4803.2</ele>
        <time>2022-10-27T09:10:44.000Z</time>
      </trkpt>
      <trkpt lat="27.930374" lon="86.805178">
        <ele>4802.6</ele>
        <time>2022-10-27T09:10:48.000Z</time>
      </trkpt>
      <trkpt lat="27.930349" lon="86.805197">
        <ele>4800.4</ele>
        <time>2022-10-27T09:11:20.000Z</time>
      </trkpt>
      <trkpt lat="27.930323" lon="86.805222">
        <ele>4800.2</ele>
        <time>2022-10-27T09:11:22.000Z</time>
      </trkpt>
      <trkpt lat="27.930301" lon="86.805254">
        <ele>4799.6</ele>
        <time>2022-10-27T09:11:24.000Z</time>
      </trkpt>
      <trkpt lat="27.930275" lon="86.805267">
        <ele>4799.2</ele>
        <time>2022-10-27T09:11:26.000Z</time>
      </trkpt>
      <trkpt lat="27.930253" lon="86.805274">
        <ele>4798.8</ele>
        <time>2022-10-27T09:11:28.000Z</time>
      </trkpt>
      <trkpt lat="27.930246" lon="86.805254">
        <ele>4798</ele>
        <time>2022-10-27T09:11:30.000Z</time>
      </trkpt>
      <trkpt lat="27.930253" lon="86.805235">
        <ele>4798</ele>
        <time>2022-10-27T09:11:31.000Z</time>
      </trkpt>
      <trkpt lat="27.930266" lon="86.805216">
        <ele>4798.2</ele>
        <time>2022-10-27T09:11:34.000Z</time>
      </trkpt>
      <trkpt lat="27.930266" lon="86.80519">
        <ele>4797.4</ele>
        <time>2022-10-27T09:11:37.000Z</time>
      </trkpt>
      <trkpt lat="27.930259" lon="86.805171">
        <ele>4796.4</ele>
        <time>2022-10-27T09:11:39.000Z</time>
      </trkpt>
      <trkpt lat="27.930253" lon="86.805152">
        <ele>4796</ele>
        <time>2022-10-27T09:11:41.000Z</time>
      </trkpt>
      <trkpt lat="27.930234" lon="86.805146">
        <ele>4795</ele>
        <time>2022-10-27T09:11:46.000Z</time>
      </trkpt>
      <trkpt lat="27.930214" lon="86.805133">
        <ele>4794.2</ele>
        <time>2022-10-27T09:20:03.000Z</time>
      </trkpt>
      <trkpt lat="27.930192" lon="86.805114">
        <ele>4793.8</ele>
        <time>2022-10-27T09:20:06.000Z</time>
      </trkpt>
      <trkpt lat="27.93017" lon="86.805101">
        <ele>4793.8</ele>
        <time>2022-10-27T09:20:09.000Z</time>
      </trkpt>
      <trkpt lat="27.930154" lon="86.805082">
        <ele>4793</ele>
        <time>2022-10-27T09:20:13.000Z</time>
      </trkpt>
      <trkpt lat="27.930144" lon="86.805062">
        <ele>4792.6</ele>
        <time>2022-10-27T09:20:16.000Z</time>
      </trkpt>
      <trkpt lat="27.930141" lon="86.805037">
        <ele>4791.4</ele>
        <time>2022-10-27T09:20:20.000Z</time>
      </trkpt>
      <trkpt lat="27.930131" lon="86.805018">
        <ele>4790.6</ele>
        <time>2022-10-27T09:20:23.000Z</time>
      </trkpt>
      <trkpt lat="27.930122" lon="86.804998">
        <ele>4790.2</ele>
        <time>2022-10-27T09:20:26.000Z</time>
      </trkpt>
      <trkpt lat="27.930112" lon="86.804973">
        <ele>4789</ele>
        <time>2022-10-27T09:20:29.000Z</time>
      </trkpt>
      <trkpt lat="27.930106" lon="86.804947">
        <ele>4789</ele>
        <time>2022-10-27T09:20:32.000Z</time>
      </trkpt>
      <trkpt lat="27.930083" lon="86.804954">
        <ele>4788.4</ele>
        <time>2022-10-27T09:20:36.000Z</time>
      </trkpt>
      <trkpt lat="27.930064" lon="86.80496">
        <ele>4788.2</ele>
        <time>2022-10-27T09:20:38.000Z</time>
      </trkpt>
      <trkpt lat="27.930045" lon="86.804954">
        <ele>4787.2</ele>
        <time>2022-10-27T09:20:40.000Z</time>
      </trkpt>
      <trkpt lat="27.930022" lon="86.804954">
        <ele>4786.6</ele>
        <time>2022-10-27T09:20:42.000Z</time>
      </trkpt>
      <trkpt lat="27.929997" lon="86.80496">
        <ele>4786</ele>
        <time>2022-10-27T09:20:45.000Z</time>
      </trkpt>
      <trkpt lat="27.929978" lon="86.80496">
        <ele>4785.8</ele>
        <time>2022-10-27T09:20:48.000Z</time>
      </trkpt>
      <trkpt lat="27.929962" lon="86.804941">
        <ele>4784.4</ele>
        <time>2022-10-27T09:20:51.000Z</time>
      </trkpt>
      <trkpt lat="27.929952" lon="86.804922">
        <ele>4783.6</ele>
        <time>2022-10-27T09:20:53.000Z</time>
      </trkpt>
      <trkpt lat="27.929933" lon="86.804902">
        <ele>4783.6</ele>
        <time>2022-10-27T09:20:57.000Z</time>
      </trkpt>
      <trkpt lat="27.929926" lon="86.804883">
        <ele>4782.8</ele>
        <time>2022-10-27T09:20:58.000Z</time>
      </trkpt>
      <trkpt lat="27.929907" lon="86.80487">
        <ele>4782</ele>
        <time>2022-10-27T09:21:01.000Z</time>
      </trkpt>
      <trkpt lat="27.929891" lon="86.804858">
        <ele>4781.6</ele>
        <time>2022-10-27T09:21:03.000Z</time>
      </trkpt>
      <trkpt lat="27.929875" lon="86.804845">
        <ele>4781.6</ele>
        <time>2022-10-27T09:21:05.000Z</time>
      </trkpt>
      <trkpt lat="27.929866" lon="86.804826">
        <ele>4780.8</ele>
        <time>2022-10-27T09:21:08.000Z</time>
      </trkpt>
      <trkpt lat="27.929846" lon="86.804806">
        <ele>4780</ele>
        <time>2022-10-27T09:21:11.000Z</time>
      </trkpt>
      <trkpt lat="27.929824" lon="86.8048">
        <ele>4779.8</ele>
        <time>2022-10-27T09:21:15.000Z</time>
      </trkpt>
      <trkpt lat="27.929805" lon="86.8048">
        <ele>4779</ele>
        <time>2022-10-27T09:21:17.000Z</time>
      </trkpt>
      <trkpt lat="27.929786" lon="86.804794">
        <ele>4778.6</ele>
        <time>2022-10-27T09:21:19.000Z</time>
      </trkpt>
      <trkpt lat="27.929763" lon="86.804787">
        <ele>4777.8</ele>
        <time>2022-10-27T09:21:22.000Z</time>
      </trkpt>
      <trkpt lat="27.929744" lon="86.804794">
        <ele>4777.8</ele>
        <time>2022-10-27T09:21:24.000Z</time>
      </trkpt>
      <trkpt lat="27.929722" lon="86.804787">
        <ele>4776.4</ele>
        <time>2022-10-27T09:21:34.000Z</time>
      </trkpt>
      <trkpt lat="27.929702" lon="86.804781">
        <ele>4776.4</ele>
        <time>2022-10-27T09:21:37.000Z</time>
      </trkpt>
      <trkpt lat="27.929696" lon="86.804762">
        <ele>4777</ele>
        <time>2022-10-27T09:21:39.000Z</time>
      </trkpt>
      <trkpt lat="27.92968" lon="86.804774">
        <ele>4775</ele>
        <time>2022-10-27T09:21:44.000Z</time>
      </trkpt>
      <trkpt lat="27.929686" lon="86.804794">
        <ele>4775</ele>
        <time>2022-10-27T09:21:47.000Z</time>
      </trkpt>
      <trkpt lat="27.929686" lon="86.804826">
        <ele>4774.2</ele>
        <time>2022-10-27T09:21:50.000Z</time>
      </trkpt>
      <trkpt lat="27.929667" lon="86.804838">
        <ele>4773.8</ele>
        <time>2022-10-27T09:21:53.000Z</time>
      </trkpt>
      <trkpt lat="27.929648" lon="86.804832">
        <ele>4772.4</ele>
        <time>2022-10-27T09:21:56.000Z</time>
      </trkpt>
      <trkpt lat="27.929629" lon="86.804819">
        <ele>4771.6</ele>
        <time>2022-10-27T09:22:01.000Z</time>
      </trkpt>
      <trkpt lat="27.929606" lon="86.804826">
        <ele>4770.8</ele>
        <time>2022-10-27T09:22:03.000Z</time>
      </trkpt>
      <trkpt lat="27.929587" lon="86.804819">
        <ele>4770.2</ele>
        <time>2022-10-27T09:22:06.000Z</time>
      </trkpt>
      <trkpt lat="27.929571" lon="86.804806">
        <ele>4769.6</ele>
        <time>2022-10-27T09:22:10.000Z</time>
      </trkpt>
      <trkpt lat="27.929549" lon="86.8048">
        <ele>4769.6</ele>
        <time>2022-10-27T09:22:18.000Z</time>
      </trkpt>
      <trkpt lat="27.92953" lon="86.8048">
        <ele>4768.8</ele>
        <time>2022-10-27T09:22:20.000Z</time>
      </trkpt>
      <trkpt lat="27.929514" lon="86.804787">
        <ele>4767.6</ele>
        <time>2022-10-27T09:22:22.000Z</time>
      </trkpt>
      <trkpt lat="27.929498" lon="86.804774">
        <ele>4767</ele>
        <time>2022-10-27T09:22:24.000Z</time>
      </trkpt>
      <trkpt lat="27.929485" lon="86.804755">
        <ele>4767</ele>
        <time>2022-10-27T09:22:26.000Z</time>
      </trkpt>
      <trkpt lat="27.929466" lon="86.804736">
        <ele>4766.2</ele>
        <time>2022-10-27T09:22:29.000Z</time>
      </trkpt>
      <trkpt lat="27.929456" lon="86.804717">
        <ele>4765.8</ele>
        <time>2022-10-27T09:22:31.000Z</time>
      </trkpt>
      <trkpt lat="27.92944" lon="86.804704">
        <ele>4764.8</ele>
        <time>2022-10-27T09:22:34.000Z</time>
      </trkpt>
      <trkpt lat="27.929421" lon="86.80471">
        <ele>4764.8</ele>
        <time>2022-10-27T09:22:37.000Z</time>
      </trkpt>
      <trkpt lat="27.929398" lon="86.80471">
        <ele>4764.4</ele>
        <time>2022-10-27T09:22:40.000Z</time>
      </trkpt>
      <trkpt lat="27.929386" lon="86.804736">
        <ele>4763.8</ele>
        <time>2022-10-27T09:22:44.000Z</time>
      </trkpt>
      <trkpt lat="27.92937" lon="86.804749">
        <ele>4763.2</ele>
        <time>2022-10-27T09:22:47.000Z</time>
      </trkpt>
      <trkpt lat="27.92935" lon="86.804742">
        <ele>4762.2</ele>
        <time>2022-10-27T09:22:50.000Z</time>
      </trkpt>
      <trkpt lat="27.929328" lon="86.804742">
        <ele>4761.8</ele>
        <time>2022-10-27T09:22:53.000Z</time>
      </trkpt>
      <trkpt lat="27.929309" lon="86.804723">
        <ele>4760.8</ele>
        <time>2022-10-27T09:22:56.000Z</time>
      </trkpt>
      <trkpt lat="27.929299" lon="86.804704">
        <ele>4759.6</ele>
        <time>2022-10-27T09:22:59.000Z</time>
      </trkpt>
      <trkpt lat="27.929286" lon="86.804685">
        <ele>4759.4</ele>
        <time>2022-10-27T09:23:01.000Z</time>
      </trkpt>
      <trkpt lat="27.929267" lon="86.804666">
        <ele>4759</ele>
        <time>2022-10-27T09:23:04.000Z</time>
      </trkpt>
      <trkpt lat="27.929245" lon="86.804672">
        <ele>4758.2</ele>
        <time>2022-10-27T09:23:09.000Z</time>
      </trkpt>
      <trkpt lat="27.929229" lon="86.804704">
        <ele>4757.4</ele>
        <time>2022-10-27T09:23:13.000Z</time>
      </trkpt>
      <trkpt lat="27.92921" lon="86.80471">
        <ele>4756.8</ele>
        <time>2022-10-27T09:23:16.000Z</time>
      </trkpt>
      <trkpt lat="27.92919" lon="86.80471">
        <ele>4755.8</ele>
        <time>2022-10-27T09:23:19.000Z</time>
      </trkpt>
      <trkpt lat="27.929171" lon="86.804723">
        <ele>4755.8</ele>
        <time>2022-10-27T09:23:22.000Z</time>
      </trkpt>
      <trkpt lat="27.929146" lon="86.804723">
        <ele>4754.2</ele>
        <time>2022-10-27T09:23:47.000Z</time>
      </trkpt>
      <trkpt lat="27.929123" lon="86.804723">
        <ele>4753.4</ele>
        <time>2022-10-27T09:23:49.000Z</time>
      </trkpt>
      <trkpt lat="27.929098" lon="86.80471">
        <ele>4752.8</ele>
        <time>2022-10-27T09:23:52.000Z</time>
      </trkpt>
      <trkpt lat="27.929082" lon="86.804698">
        <ele>4752.2</ele>
        <time>2022-10-27T09:23:54.000Z</time>
      </trkpt>
      <trkpt lat="27.929066" lon="86.804685">
        <ele>4752</ele>
        <time>2022-10-27T09:23:57.000Z</time>
      </trkpt>
      <trkpt lat="27.929053" lon="86.804704">
        <ele>4751.4</ele>
        <time>2022-10-27T09:23:59.000Z</time>
      </trkpt>
      <trkpt lat="27.92903" lon="86.80471">
        <ele>4751.4</ele>
        <time>2022-10-27T09:24:02.000Z</time>
      </trkpt>
      <trkpt lat="27.929027" lon="86.804678">
        <ele>4750.4</ele>
        <time>2022-10-27T09:24:05.000Z</time>
      </trkpt>
      <trkpt lat="27.929014" lon="86.804659">
        <ele>4750.2</ele>
        <time>2022-10-27T09:24:08.000Z</time>
      </trkpt>
      <trkpt lat="27.928992" lon="86.804672">
        <ele>4750</ele>
        <time>2022-10-27T09:24:11.000Z</time>
      </trkpt>
      <trkpt lat="27.928973" lon="86.804678">
        <ele>4749.4</ele>
        <time>2022-10-27T09:24:14.000Z</time>
      </trkpt>
      <trkpt lat="27.92895" lon="86.804672">
        <ele>4748.6</ele>
        <time>2022-10-27T09:24:17.000Z</time>
      </trkpt>
      <trkpt lat="27.928928" lon="86.804659">
        <ele>4747.4</ele>
        <time>2022-10-27T09:24:22.000Z</time>
      </trkpt>
      <trkpt lat="27.928909" lon="86.804666">
        <ele>4746.8</ele>
        <time>2022-10-27T09:24:26.000Z</time>
      </trkpt>
      <trkpt lat="27.928886" lon="86.804672">
        <ele>4746.2</ele>
        <time>2022-10-27T09:24:29.000Z</time>
      </trkpt>
      <trkpt lat="27.928867" lon="86.804685">
        <ele>4745.6</ele>
        <time>2022-10-27T09:24:32.000Z</time>
      </trkpt>
      <trkpt lat="27.928851" lon="86.804698">
        <ele>4745</ele>
        <time>2022-10-27T09:24:34.000Z</time>
      </trkpt>
      <trkpt lat="27.928829" lon="86.804698">
        <ele>4744.2</ele>
        <time>2022-10-27T09:24:37.000Z</time>
      </trkpt>
      <trkpt lat="27.92881" lon="86.804704">
        <ele>4742.8</ele>
        <time>2022-10-27T09:24:40.000Z</time>
      </trkpt>
      <trkpt lat="27.92879" lon="86.80471">
        <ele>4742.2</ele>
        <time>2022-10-27T09:24:43.000Z</time>
      </trkpt>
      <trkpt lat="27.928771" lon="86.804723">
        <ele>4741.6</ele>
        <time>2022-10-27T09:24:47.000Z</time>
      </trkpt>
      <trkpt lat="27.928755" lon="86.804742">
        <ele>4741.6</ele>
        <time>2022-10-27T09:24:50.000Z</time>
      </trkpt>
      <trkpt lat="27.928733" lon="86.804742">
        <ele>4740.2</ele>
        <time>2022-10-27T09:24:55.000Z</time>
      </trkpt>
      <trkpt lat="27.92871" lon="86.804742">
        <ele>4740</ele>
        <time>2022-10-27T09:24:58.000Z</time>
      </trkpt>
      <trkpt lat="27.928694" lon="86.804698">
        <ele>4738.8</ele>
        <time>2022-10-27T09:25:12.000Z</time>
      </trkpt>
      <trkpt lat="27.928688" lon="86.804678">
        <ele>4738.4</ele>
        <time>2022-10-27T09:25:15.000Z</time>
      </trkpt>
      <trkpt lat="27.928666" lon="86.804678">
        <ele>4737</ele>
        <time>2022-10-27T09:25:33.000Z</time>
      </trkpt>
      <trkpt lat="27.928643" lon="86.804685">
        <ele>4736.8</ele>
        <time>2022-10-27T09:25:35.000Z</time>
      </trkpt>
      <trkpt lat="27.928627" lon="86.804704">
        <ele>4736.4</ele>
        <time>2022-10-27T09:25:37.000Z</time>
      </trkpt>
      <trkpt lat="27.928608" lon="86.80471">
        <ele>4736.4</ele>
        <time>2022-10-27T09:25:39.000Z</time>
      </trkpt>
      <trkpt lat="27.928586" lon="86.804717">
        <ele>4735.2</ele>
        <time>2022-10-27T09:25:42.000Z</time>
      </trkpt>
      <trkpt lat="27.928566" lon="86.804736">
        <ele>4734.4</ele>
        <time>2022-10-27T09:25:47.000Z</time>
      </trkpt>
      <trkpt lat="27.928544" lon="86.804723">
        <ele>4733.6</ele>
        <time>2022-10-27T09:25:50.000Z</time>
      </trkpt>
      <trkpt lat="27.928525" lon="86.804717">
        <ele>4733.4</ele>
        <time>2022-10-27T09:25:52.000Z</time>
      </trkpt>
      <trkpt lat="27.928502" lon="86.80471">
        <ele>4732.2</ele>
        <time>2022-10-27T09:25:56.000Z</time>
      </trkpt>
      <trkpt lat="27.928486" lon="86.804723">
        <ele>4731.4</ele>
        <time>2022-10-27T09:26:01.000Z</time>
      </trkpt>
      <trkpt lat="27.928474" lon="86.804742">
        <ele>4731.4</ele>
        <time>2022-10-27T09:26:03.000Z</time>
      </trkpt>
      <trkpt lat="27.928454" lon="86.804755">
        <ele>4730.2</ele>
        <time>2022-10-27T09:26:06.000Z</time>
      </trkpt>
      <trkpt lat="27.928454" lon="86.804781">
        <ele>4730</ele>
        <time>2022-10-27T09:26:10.000Z</time>
      </trkpt>
      <trkpt lat="27.928448" lon="86.8048">
        <ele>4729.6</ele>
        <time>2022-10-27T09:26:13.000Z</time>
      </trkpt>
      <trkpt lat="27.928422" lon="86.8048">
        <ele>4728.6</ele>
        <time>2022-10-27T09:26:16.000Z</time>
      </trkpt>
      <trkpt lat="27.928406" lon="86.804787">
        <ele>4728</ele>
        <time>2022-10-27T09:26:19.000Z</time>
      </trkpt>
      <trkpt lat="27.928384" lon="86.804781">
        <ele>4728</ele>
        <time>2022-10-27T09:26:21.000Z</time>
      </trkpt>
      <trkpt lat="27.928368" lon="86.804762">
        <ele>4727.4</ele>
        <time>2022-10-27T09:26:24.000Z</time>
      </trkpt>
      <trkpt lat="27.928362" lon="86.804742">
        <ele>4727.2</ele>
        <time>2022-10-27T09:26:27.000Z</time>
      </trkpt>
      <trkpt lat="27.928339" lon="86.804723">
        <ele>4726.8</ele>
        <time>2022-10-27T09:26:30.000Z</time>
      </trkpt>
      <trkpt lat="27.928314" lon="86.804717">
        <ele>4726</ele>
        <time>2022-10-27T09:26:33.000Z</time>
      </trkpt>
      <trkpt lat="27.928307" lon="86.804736">
        <ele>4726.2</ele>
        <time>2022-10-27T09:26:35.000Z</time>
      </trkpt>
      <trkpt lat="27.928288" lon="86.804755">
        <ele>4725.4</ele>
        <time>2022-10-27T09:26:39.000Z</time>
      </trkpt>
      <trkpt lat="27.928269" lon="86.804762">
        <ele>4725.2</ele>
        <time>2022-10-27T09:26:41.000Z</time>
      </trkpt>
      <trkpt lat="27.92825" lon="86.804774">
        <ele>4724.6</ele>
        <time>2022-10-27T09:26:44.000Z</time>
      </trkpt>
      <trkpt lat="27.928234" lon="86.804787">
        <ele>4723.8</ele>
        <time>2022-10-27T09:26:51.000Z</time>
      </trkpt>
      <trkpt lat="27.928218" lon="86.8048">
        <ele>4723.4</ele>
        <time>2022-10-27T09:26:55.000Z</time>
      </trkpt>
      <trkpt lat="27.928208" lon="86.804819">
        <ele>4723.4</ele>
        <time>2022-10-27T09:26:57.000Z</time>
      </trkpt>
      <trkpt lat="27.928182" lon="86.804819">
        <ele>4722.4</ele>
        <time>2022-10-27T09:27:00.000Z</time>
      </trkpt>
      <trkpt lat="27.928166" lon="86.804838">
        <ele>4721.8</ele>
        <time>2022-10-27T09:27:04.000Z</time>
      </trkpt>
      <trkpt lat="27.928157" lon="86.804864">
        <ele>4721.8</ele>
        <time>2022-10-27T09:27:06.000Z</time>
      </trkpt>
      <trkpt lat="27.928131" lon="86.804877">
        <ele>4721</ele>
        <time>2022-10-27T09:27:09.000Z</time>
      </trkpt>
      <trkpt lat="27.928109" lon="86.804864">
        <ele>4720.4</ele>
        <time>2022-10-27T09:27:12.000Z</time>
      </trkpt>
      <trkpt lat="27.928102" lon="86.804845">
        <ele>4719.8</ele>
        <time>2022-10-27T09:27:14.000Z</time>
      </trkpt>
      <trkpt lat="27.92809" lon="86.804826">
        <ele>4719.4</ele>
        <time>2022-10-27T09:27:17.000Z</time>
      </trkpt>
      <trkpt lat="27.928083" lon="86.8048">
        <ele>4719.4</ele>
        <time>2022-10-27T09:27:19.000Z</time>
      </trkpt>
      <trkpt lat="27.928077" lon="86.804774">
        <ele>4719.2</ele>
        <time>2022-10-27T09:27:22.000Z</time>
      </trkpt>
      <trkpt lat="27.92808" lon="86.804749">
        <ele>4718.4</ele>
        <time>2022-10-27T09:27:25.000Z</time>
      </trkpt>
      <trkpt lat="27.928074" lon="86.804723">
        <ele>4717.2</ele>
        <time>2022-10-27T09:27:29.000Z</time>
      </trkpt>
      <trkpt lat="27.928054" lon="86.804723">
        <ele>4717.2</ele>
        <time>2022-10-27T09:27:32.000Z</time>
      </trkpt>
      <trkpt lat="27.928035" lon="86.80471">
        <ele>4716.6</ele>
        <time>2022-10-27T09:27:35.000Z</time>
      </trkpt>
      <trkpt lat="27.928026" lon="86.804685">
        <ele>4716</ele>
        <time>2022-10-27T09:27:39.000Z</time>
      </trkpt>
      <trkpt lat="27.92801" lon="86.804672">
        <ele>4715.2</ele>
        <time>2022-10-27T09:27:45.000Z</time>
      </trkpt>
      <trkpt lat="27.92799" lon="86.804659">
        <ele>4714.4</ele>
        <time>2022-10-27T09:27:50.000Z</time>
      </trkpt>
      <trkpt lat="27.927984" lon="86.804685">
        <ele>4713.2</ele>
        <time>2022-10-27T09:28:23.000Z</time>
      </trkpt>
      <trkpt lat="27.927978" lon="86.80471">
        <ele>4713.2</ele>
        <time>2022-10-27T09:28:25.000Z</time>
      </trkpt>
      <trkpt lat="27.927968" lon="86.804736">
        <ele>4713</ele>
        <time>2022-10-27T09:28:27.000Z</time>
      </trkpt>
      <trkpt lat="27.927949" lon="86.804755">
        <ele>4712.4</ele>
        <time>2022-10-27T09:28:29.000Z</time>
      </trkpt>
      <trkpt lat="27.92793" lon="86.804755">
        <ele>4712.2</ele>
        <time>2022-10-27T09:28:31.000Z</time>
      </trkpt>
      <trkpt lat="27.927914" lon="86.804736">
        <ele>4711.4</ele>
        <time>2022-10-27T09:28:34.000Z</time>
      </trkpt>
      <trkpt lat="27.927904" lon="86.804717">
        <ele>4710.8</ele>
        <time>2022-10-27T09:28:36.000Z</time>
      </trkpt>
      <trkpt lat="27.927882" lon="86.804717">
        <ele>4710.2</ele>
        <time>2022-10-27T09:28:39.000Z</time>
      </trkpt>
      <trkpt lat="27.927866" lon="86.804698">
        <ele>4710</ele>
        <time>2022-10-27T09:28:42.000Z</time>
      </trkpt>
      <trkpt lat="27.927859" lon="86.804678">
        <ele>4710</ele>
        <time>2022-10-27T09:28:43.000Z</time>
      </trkpt>
      <trkpt lat="27.92785" lon="86.804659">
        <ele>4709.4</ele>
        <time>2022-10-27T09:28:46.000Z</time>
      </trkpt>
      <trkpt lat="27.92783" lon="86.80464">
        <ele>4708.6</ele>
        <time>2022-10-27T09:28:49.000Z</time>
      </trkpt>
      <trkpt lat="27.92783" lon="86.804614">
        <ele>4708.4</ele>
        <time>2022-10-27T09:28:52.000Z</time>
      </trkpt>
      <trkpt lat="27.927821" lon="86.804595">
        <ele>4708.6</ele>
        <time>2022-10-27T09:28:54.000Z</time>
      </trkpt>
      <trkpt lat="27.927798" lon="86.804582">
        <ele>4707.8</ele>
        <time>2022-10-27T09:28:57.000Z</time>
      </trkpt>
      <trkpt lat="27.927779" lon="86.804589">
        <ele>4706.8</ele>
        <time>2022-10-27T09:29:00.000Z</time>
      </trkpt>
      <trkpt lat="27.927763" lon="86.804602">
        <ele>4706.2</ele>
        <time>2022-10-27T09:29:06.000Z</time>
      </trkpt>
      <trkpt lat="27.927741" lon="86.804614">
        <ele>4705.6</ele>
        <time>2022-10-27T09:29:09.000Z</time>
      </trkpt>
      <trkpt lat="27.927718" lon="86.804621">
        <ele>4705.2</ele>
        <time>2022-10-27T09:29:12.000Z</time>
      </trkpt>
      <trkpt lat="27.927696" lon="86.804634">
        <ele>4705.2</ele>
        <time>2022-10-27T09:29:15.000Z</time>
      </trkpt>
      <trkpt lat="27.927674" lon="86.80464">
        <ele>4704.4</ele>
        <time>2022-10-27T09:29:18.000Z</time>
      </trkpt>
      <trkpt lat="27.927654" lon="86.804646">
        <ele>4703.6</ele>
        <time>2022-10-27T09:29:21.000Z</time>
      </trkpt>
      <trkpt lat="27.927638" lon="86.804659">
        <ele>4703</ele>
        <time>2022-10-27T09:29:24.000Z</time>
      </trkpt>
      <trkpt lat="27.927629" lon="86.804678">
        <ele>4702.4</ele>
        <time>2022-10-27T09:29:27.000Z</time>
      </trkpt>
      <trkpt lat="27.92761" lon="86.804685">
        <ele>4701.6</ele>
        <time>2022-10-27T09:29:30.000Z</time>
      </trkpt>
      <trkpt lat="27.92759" lon="86.804685">
        <ele>4701.4</ele>
        <time>2022-10-27T09:29:32.000Z</time>
      </trkpt>
      <trkpt lat="27.927574" lon="86.804666">
        <ele>4700.4</ele>
        <time>2022-10-27T09:29:35.000Z</time>
      </trkpt>
      <trkpt lat="27.927568" lon="86.804646">
        <ele>4700.2</ele>
        <time>2022-10-27T09:29:37.000Z</time>
      </trkpt>
      <trkpt lat="27.927562" lon="86.804627">
        <ele>4699.8</ele>
        <time>2022-10-27T09:29:40.000Z</time>
      </trkpt>
      <trkpt lat="27.927562" lon="86.804602">
        <ele>4699.4</ele>
        <time>2022-10-27T09:29:43.000Z</time>
      </trkpt>
      <trkpt lat="27.927555" lon="86.804582">
        <ele>4698.4</ele>
        <time>2022-10-27T09:29:46.000Z</time>
      </trkpt>
      <trkpt lat="27.927533" lon="86.804595">
        <ele>4698.2</ele>
        <time>2022-10-27T09:29:50.000Z</time>
      </trkpt>
      <trkpt lat="27.92752" lon="86.804614">
        <ele>4697.6</ele>
        <time>2022-10-27T09:29:53.000Z</time>
      </trkpt>
      <trkpt lat="27.927498" lon="86.804602">
        <ele>4696.8</ele>
        <time>2022-10-27T09:29:58.000Z</time>
      </trkpt>
      <trkpt lat="27.927472" lon="86.804589">
        <ele>4696.4</ele>
        <time>2022-10-27T09:30:02.000Z</time>
      </trkpt>
      <trkpt lat="27.92745" lon="86.804582">
        <ele>4695.6</ele>
        <time>2022-10-27T09:30:05.000Z</time>
      </trkpt>
      <trkpt lat="27.92743" lon="86.804563">
        <ele>4695</ele>
        <time>2022-10-27T09:30:08.000Z</time>
      </trkpt>
      <trkpt lat="27.927414" lon="86.80455">
        <ele>4694.2</ele>
        <time>2022-10-27T09:30:10.000Z</time>
      </trkpt>
      <trkpt lat="27.927405" lon="86.804525">
        <ele>4693.6</ele>
        <time>2022-10-27T09:30:12.000Z</time>
      </trkpt>
      <trkpt lat="27.927402" lon="86.804499">
        <ele>4693.6</ele>
        <time>2022-10-27T09:30:15.000Z</time>
      </trkpt>
      <trkpt lat="27.927392" lon="86.80448">
        <ele>4693.4</ele>
        <time>2022-10-27T09:30:17.000Z</time>
      </trkpt>
      <trkpt lat="27.92737" lon="86.80448">
        <ele>4692.6</ele>
        <time>2022-10-27T09:30:20.000Z</time>
      </trkpt>
      <trkpt lat="27.92735" lon="86.804467">
        <ele>4691.8</ele>
        <time>2022-10-27T09:30:23.000Z</time>
      </trkpt>
      <trkpt lat="27.927341" lon="86.804448">
        <ele>4691.4</ele>
        <time>2022-10-27T09:30:25.000Z</time>
      </trkpt>
      <trkpt lat="27.927331" lon="86.804429">
        <ele>4691</ele>
        <time>2022-10-27T09:30:28.000Z</time>
      </trkpt>
      <trkpt lat="27.927312" lon="86.804416">
        <ele>4690.6</ele>
        <time>2022-10-27T09:30:31.000Z</time>
      </trkpt>
      <trkpt lat="27.92729" lon="86.804416">
        <ele>4689.4</ele>
        <time>2022-10-27T09:30:34.000Z</time>
      </trkpt>
      <trkpt lat="27.927264" lon="86.804416">
        <ele>4689</ele>
        <time>2022-10-27T09:30:37.000Z</time>
      </trkpt>
      <trkpt lat="27.927245" lon="86.804435">
        <ele>4688</ele>
        <time>2022-10-27T09:30:41.000Z</time>
      </trkpt>
      <trkpt lat="27.927226" lon="86.804442">
        <ele>4687.4</ele>
        <time>2022-10-27T09:30:43.000Z</time>
      </trkpt>
      <trkpt lat="27.927203" lon="86.804442">
        <ele>4687.2</ele>
        <time>2022-10-27T09:30:45.000Z</time>
      </trkpt>
      <trkpt lat="27.927181" lon="86.804429">
        <ele>4686.4</ele>
        <time>2022-10-27T09:30:48.000Z</time>
      </trkpt>
      <trkpt lat="27.927158" lon="86.804422">
        <ele>4686</ele>
        <time>2022-10-27T09:30:50.000Z</time>
      </trkpt>
      <trkpt lat="27.927136" lon="86.804422">
        <ele>4685.6</ele>
        <time>2022-10-27T09:30:52.000Z</time>
      </trkpt>
      <trkpt lat="27.927114" lon="86.804429">
        <ele>4685.2</ele>
        <time>2022-10-27T09:30:54.000Z</time>
      </trkpt>
      <trkpt lat="27.927091" lon="86.804429">
        <ele>4685.2</ele>
        <time>2022-10-27T09:30:56.000Z</time>
      </trkpt>
      <trkpt lat="27.927066" lon="86.804442">
        <ele>4684.6</ele>
        <time>2022-10-27T09:30:58.000Z</time>
      </trkpt>
      <trkpt lat="27.927046" lon="86.804461">
        <ele>4684.4</ele>
        <time>2022-10-27T09:31:00.000Z</time>
      </trkpt>
      <trkpt lat="27.927024" lon="86.804461">
        <ele>4683.8</ele>
        <time>2022-10-27T09:31:02.000Z</time>
      </trkpt>
      <trkpt lat="27.927002" lon="86.804467">
        <ele>4683.6</ele>
        <time>2022-10-27T09:31:04.000Z</time>
      </trkpt>
      <trkpt lat="27.926976" lon="86.80448">
        <ele>4683</ele>
        <time>2022-10-27T09:31:07.000Z</time>
      </trkpt>
      <trkpt lat="27.926957" lon="86.804486">
        <ele>4682.4</ele>
        <time>2022-10-27T09:31:09.000Z</time>
      </trkpt>
      <trkpt lat="27.926938" lon="86.804506">
        <ele>4682</ele>
        <time>2022-10-27T09:31:12.000Z</time>
      </trkpt>
      <trkpt lat="27.926925" lon="86.804525">
        <ele>4681.8</ele>
        <time>2022-10-27T09:31:14.000Z</time>
      </trkpt>
      <trkpt lat="27.926909" lon="86.804538">
        <ele>4680.8</ele>
        <time>2022-10-27T09:31:16.000Z</time>
      </trkpt>
      <trkpt lat="27.92689" lon="86.804538">
        <ele>4680</ele>
        <time>2022-10-27T09:31:18.000Z</time>
      </trkpt>
      <trkpt lat="27.92687" lon="86.804538">
        <ele>4679.4</ele>
        <time>2022-10-27T09:31:20.000Z</time>
      </trkpt>
      <trkpt lat="27.926845" lon="86.80455">
        <ele>4679.2</ele>
        <time>2022-10-27T09:31:23.000Z</time>
      </trkpt>
      <trkpt lat="27.926826" lon="86.80455">
        <ele>4678.8</ele>
        <time>2022-10-27T09:31:25.000Z</time>
      </trkpt>
      <trkpt lat="27.926806" lon="86.804544">
        <ele>4678</ele>
        <time>2022-10-27T09:31:28.000Z</time>
      </trkpt>
      <trkpt lat="27.926787" lon="86.804525">
        <ele>4677.2</ele>
        <time>2022-10-27T09:31:31.000Z</time>
      </trkpt>
      <trkpt lat="27.926768" lon="86.804538">
        <ele>4677</ele>
        <time>2022-10-27T09:31:34.000Z</time>
      </trkpt>
      <trkpt lat="27.926749" lon="86.80455">
        <ele>4676.2</ele>
        <time>2022-10-27T09:31:38.000Z</time>
      </trkpt>
      <trkpt lat="27.926733" lon="86.804563">
        <ele>4675.6</ele>
        <time>2022-10-27T09:31:40.000Z</time>
      </trkpt>
      <trkpt lat="27.926717" lon="86.804576">
        <ele>4675.2</ele>
        <time>2022-10-27T09:31:42.000Z</time>
      </trkpt>
      <trkpt lat="27.926691" lon="86.804576">
        <ele>4674.6</ele>
        <time>2022-10-27T09:31:45.000Z</time>
      </trkpt>
      <trkpt lat="27.926666" lon="86.804582">
        <ele>4674</ele>
        <time>2022-10-27T09:31:48.000Z</time>
      </trkpt>
      <trkpt lat="27.92665" lon="86.804595">
        <ele>4673.2</ele>
        <time>2022-10-27T09:31:50.000Z</time>
      </trkpt>
      <trkpt lat="27.926624" lon="86.804614">
        <ele>4673</ele>
        <time>2022-10-27T09:31:53.000Z</time>
      </trkpt>
      <trkpt lat="27.926598" lon="86.804621">
        <ele>4672.4</ele>
        <time>2022-10-27T09:31:56.000Z</time>
      </trkpt>
      <trkpt lat="27.926579" lon="86.80464">
        <ele>4672</ele>
        <time>2022-10-27T09:31:59.000Z</time>
      </trkpt>
      <trkpt lat="27.926554" lon="86.804646">
        <ele>4671.2</ele>
        <time>2022-10-27T09:32:02.000Z</time>
      </trkpt>
      <trkpt lat="27.926534" lon="86.804659">
        <ele>4670.6</ele>
        <time>2022-10-27T09:32:05.000Z</time>
      </trkpt>
      <trkpt lat="27.926509" lon="86.804666">
        <ele>4669.8</ele>
        <time>2022-10-27T09:32:08.000Z</time>
      </trkpt>
      <trkpt lat="27.92649" lon="86.804659">
        <ele>4669.6</ele>
        <time>2022-10-27T09:32:11.000Z</time>
      </trkpt>
      <trkpt lat="27.92647" lon="86.804666">
        <ele>4669</ele>
        <time>2022-10-27T09:32:14.000Z</time>
      </trkpt>
      <trkpt lat="27.926464" lon="86.804685">
        <ele>4669</ele>
        <time>2022-10-27T09:32:17.000Z</time>
      </trkpt>
      <trkpt lat="27.926458" lon="86.80471">
        <ele>4668.4</ele>
        <time>2022-10-27T09:32:20.000Z</time>
      </trkpt>
      <trkpt lat="27.926438" lon="86.804723">
        <ele>4667.2</ele>
        <time>2022-10-27T09:32:24.000Z</time>
      </trkpt>
      <trkpt lat="27.926419" lon="86.804736">
        <ele>4666.4</ele>
        <time>2022-10-27T09:32:27.000Z</time>
      </trkpt>
      <trkpt lat="27.9264" lon="86.804749">
        <ele>4665.8</ele>
        <time>2022-10-27T09:32:30.000Z</time>
      </trkpt>
      <trkpt lat="27.926378" lon="86.804762">
        <ele>4665</ele>
        <time>2022-10-27T09:32:33.000Z</time>
      </trkpt>
      <trkpt lat="27.926355" lon="86.804774">
        <ele>4664.8</ele>
        <time>2022-10-27T09:32:36.000Z</time>
      </trkpt>
      <trkpt lat="27.926333" lon="86.804774">
        <ele>4664.4</ele>
        <time>2022-10-27T09:32:40.000Z</time>
      </trkpt>
      <trkpt lat="27.926314" lon="86.804787">
        <ele>4664.2</ele>
        <time>2022-10-27T09:32:43.000Z</time>
      </trkpt>
      <trkpt lat="27.926291" lon="86.804794">
        <ele>4662.8</ele>
        <time>2022-10-27T09:32:47.000Z</time>
      </trkpt>
      <trkpt lat="27.926272" lon="86.8048">
        <ele>4663.4</ele>
        <time>2022-10-27T09:32:51.000Z</time>
      </trkpt>
      <trkpt lat="27.926253" lon="86.8048">
        <ele>4662.2</ele>
        <time>2022-10-27T09:32:54.000Z</time>
      </trkpt>
      <trkpt lat="27.926234" lon="86.804794">
        <ele>4662.4</ele>
        <time>2022-10-27T09:32:57.000Z</time>
      </trkpt>
      <trkpt lat="27.926214" lon="86.804819">
        <ele>4661.4</ele>
        <time>2022-10-27T09:33:00.000Z</time>
      </trkpt>
      <trkpt lat="27.926202" lon="86.804838">
        <ele>4661.2</ele>
        <time>2022-10-27T09:33:02.000Z</time>
      </trkpt>
      <trkpt lat="27.926189" lon="86.804858">
        <ele>4661.2</ele>
        <time>2022-10-27T09:33:04.000Z</time>
      </trkpt>
      <trkpt lat="27.92617" lon="86.804845">
        <ele>4660.6</ele>
        <time>2022-10-27T09:33:06.000Z</time>
      </trkpt>
      <trkpt lat="27.926147" lon="86.804845">
        <ele>4660</ele>
        <time>2022-10-27T09:33:08.000Z</time>
      </trkpt>
      <trkpt lat="27.926125" lon="86.804858">
        <ele>4659.2</ele>
        <time>2022-10-27T09:33:11.000Z</time>
      </trkpt>
      <trkpt lat="27.926099" lon="86.804858">
        <ele>4659.2</ele>
        <time>2022-10-27T09:33:14.000Z</time>
      </trkpt>
      <trkpt lat="27.92608" lon="86.804858">
        <ele>4658.6</ele>
        <time>2022-10-27T09:33:18.000Z</time>
      </trkpt>
      <trkpt lat="27.926054" lon="86.804864">
        <ele>4658.2</ele>
        <time>2022-10-27T09:33:21.000Z</time>
      </trkpt>
      <trkpt lat="27.926032" lon="86.804858">
        <ele>4657.4</ele>
        <time>2022-10-27T09:33:25.000Z</time>
      </trkpt>
      <trkpt lat="27.926026" lon="86.804838">
        <ele>4656.8</ele>
        <time>2022-10-27T09:33:27.000Z</time>
      </trkpt>
      <trkpt lat="27.926013" lon="86.804858">
        <ele>4656.8</ele>
        <time>2022-10-27T09:33:31.000Z</time>
      </trkpt>
      <trkpt lat="27.925994" lon="86.804858">
        <ele>4656.2</ele>
        <time>2022-10-27T09:33:34.000Z</time>
      </trkpt>
      <trkpt lat="27.925974" lon="86.804845">
        <ele>4656</ele>
        <time>2022-10-27T09:33:36.000Z</time>
      </trkpt>
      <trkpt lat="27.925949" lon="86.804845">
        <ele>4655.4</ele>
        <time>2022-10-27T09:33:39.000Z</time>
      </trkpt>
      <trkpt lat="27.92593" lon="86.804858">
        <ele>4655</ele>
        <time>2022-10-27T09:33:41.000Z</time>
      </trkpt>
      <trkpt lat="27.925904" lon="86.804864">
        <ele>4654.8</ele>
        <time>2022-10-27T09:33:45.000Z</time>
      </trkpt>
      <trkpt lat="27.925885" lon="86.80487">
        <ele>4654</ele>
        <time>2022-10-27T09:33:47.000Z</time>
      </trkpt>
      <trkpt lat="27.925866" lon="86.804883">
        <ele>4653.4</ele>
        <time>2022-10-27T09:33:52.000Z</time>
      </trkpt>
      <trkpt lat="27.925856" lon="86.804902">
        <ele>4652.6</ele>
        <time>2022-10-27T09:33:55.000Z</time>
      </trkpt>
      <trkpt lat="27.925837" lon="86.804922">
        <ele>4652</ele>
        <time>2022-10-27T09:33:59.000Z</time>
      </trkpt>
      <trkpt lat="27.92583" lon="86.804941">
        <ele>4651.4</ele>
        <time>2022-10-27T09:34:01.000Z</time>
      </trkpt>
      <trkpt lat="27.925811" lon="86.804954">
        <ele>4651.4</ele>
        <time>2022-10-27T09:34:03.000Z</time>
      </trkpt>
      <trkpt lat="27.925786" lon="86.804973">
        <ele>4651.2</ele>
        <time>2022-10-27T09:34:06.000Z</time>
      </trkpt>
      <trkpt lat="27.925763" lon="86.804986">
        <ele>4651</ele>
        <time>2022-10-27T09:34:08.000Z</time>
      </trkpt>
      <trkpt lat="27.925744" lon="86.804992">
        <ele>4650.6</ele>
        <time>2022-10-27T09:34:10.000Z</time>
      </trkpt>
      <trkpt lat="27.925722" lon="86.805005">
        <ele>4650.6</ele>
        <time>2022-10-27T09:34:13.000Z</time>
      </trkpt>
      <trkpt lat="27.925702" lon="86.805024">
        <ele>4649.8</ele>
        <time>2022-10-27T09:34:16.000Z</time>
      </trkpt>
      <trkpt lat="27.925683" lon="86.805024">
        <ele>4649.8</ele>
        <time>2022-10-27T09:34:18.000Z</time>
      </trkpt>
      <trkpt lat="27.925664" lon="86.805024">
        <ele>4649.2</ele>
        <time>2022-10-27T09:34:20.000Z</time>
      </trkpt>
      <trkpt lat="27.925642" lon="86.80503">
        <ele>4648.6</ele>
        <time>2022-10-27T09:34:22.000Z</time>
      </trkpt>
      <trkpt lat="27.925619" lon="86.80503">
        <ele>4648.4</ele>
        <time>2022-10-27T09:34:24.000Z</time>
      </trkpt>
      <trkpt lat="27.925597" lon="86.80503">
        <ele>4648.2</ele>
        <time>2022-10-27T09:34:26.000Z</time>
      </trkpt>
      <trkpt lat="27.925574" lon="86.80503">
        <ele>4648.2</ele>
        <time>2022-10-27T09:34:28.000Z</time>
      </trkpt>
      <trkpt lat="27.925552" lon="86.805024">
        <ele>4647.8</ele>
        <time>2022-10-27T09:34:30.000Z</time>
      </trkpt>
      <trkpt lat="27.925526" lon="86.805018">
        <ele>4647.8</ele>
        <time>2022-10-27T09:34:32.000Z</time>
      </trkpt>
      <trkpt lat="27.925504" lon="86.805005">
        <ele>4647.6</ele>
        <time>2022-10-27T09:34:34.000Z</time>
      </trkpt>
      <trkpt lat="27.925485" lon="86.804992">
        <ele>4647</ele>
        <time>2022-10-27T09:34:36.000Z</time>
      </trkpt>
      <trkpt lat="27.925462" lon="86.804986">
        <ele>4647</ele>
        <time>2022-10-27T09:34:38.000Z</time>
      </trkpt>
      <trkpt lat="27.925443" lon="86.804986">
        <ele>4646.4</ele>
        <time>2022-10-27T09:34:40.000Z</time>
      </trkpt>
      <trkpt lat="27.925424" lon="86.804986">
        <ele>4646.2</ele>
        <time>2022-10-27T09:34:42.000Z</time>
      </trkpt>
      <trkpt lat="27.925405" lon="86.804992">
        <ele>4646.2</ele>
        <time>2022-10-27T09:34:44.000Z</time>
      </trkpt>
      <trkpt lat="27.925386" lon="86.804998">
        <ele>4646.2</ele>
        <time>2022-10-27T09:34:46.000Z</time>
      </trkpt>
      <trkpt lat="27.925363" lon="86.805005">
        <ele>4645.6</ele>
        <time>2022-10-27T09:34:49.000Z</time>
      </trkpt>
      <trkpt lat="27.925344" lon="86.805018">
        <ele>4645.4</ele>
        <time>2022-10-27T09:34:51.000Z</time>
      </trkpt>
      <trkpt lat="27.925325" lon="86.805024">
        <ele>4645</ele>
        <time>2022-10-27T09:34:53.000Z</time>
      </trkpt>
      <trkpt lat="27.925299" lon="86.805024">
        <ele>4644.6</ele>
        <time>2022-10-27T09:34:56.000Z</time>
      </trkpt>
      <trkpt lat="27.92528" lon="86.805024">
        <ele>4644.2</ele>
        <time>2022-10-27T09:34:58.000Z</time>
      </trkpt>
      <trkpt lat="27.925235" lon="86.80503">
        <ele>4643.4</ele>
        <time>2022-10-27T09:35:03.000Z</time>
      </trkpt>
      <trkpt lat="27.925216" lon="86.805037">
        <ele>4643.4</ele>
        <time>2022-10-27T09:35:05.000Z</time>
      </trkpt>
      <trkpt lat="27.925197" lon="86.805037">
        <ele>4642.8</ele>
        <time>2022-10-27T09:35:07.000Z</time>
      </trkpt>
      <trkpt lat="27.925171" lon="86.80503">
        <ele>4642.8</ele>
        <time>2022-10-27T09:35:10.000Z</time>
      </trkpt>
      <trkpt lat="27.925149" lon="86.805024">
        <ele>4642.8</ele>
        <time>2022-10-27T09:35:12.000Z</time>
      </trkpt>
      <trkpt lat="27.925123" lon="86.805024">
        <ele>4643</ele>
        <time>2022-10-27T09:35:15.000Z</time>
      </trkpt>
      <trkpt lat="27.925104" lon="86.80503">
        <ele>4642.8</ele>
        <time>2022-10-27T09:35:17.000Z</time>
      </trkpt>
      <trkpt lat="27.925082" lon="86.805037">
        <ele>4642.4</ele>
        <time>2022-10-27T09:35:19.000Z</time>
      </trkpt>
      <trkpt lat="27.925053" lon="86.805043">
        <ele>4642.2</ele>
        <time>2022-10-27T09:35:22.000Z</time>
      </trkpt>
      <trkpt lat="27.925034" lon="86.805043">
        <ele>4642.2</ele>
        <time>2022-10-27T09:35:24.000Z</time>
      </trkpt>
      <trkpt lat="27.925011" lon="86.805043">
        <ele>4641.6</ele>
        <time>2022-10-27T09:35:26.000Z</time>
      </trkpt>
      <trkpt lat="27.924947" lon="86.805037">
        <ele>4641.6</ele>
        <time>2022-10-27T09:35:32.000Z</time>
      </trkpt>
      <trkpt lat="27.924928" lon="86.805024">
        <ele>4641.4</ele>
        <time>2022-10-27T09:35:34.000Z</time>
      </trkpt>
      <trkpt lat="27.924902" lon="86.80503">
        <ele>4641.8</ele>
        <time>2022-10-27T09:35:37.000Z</time>
      </trkpt>
      <trkpt lat="27.92488" lon="86.805037">
        <ele>4641.4</ele>
        <time>2022-10-27T09:35:40.000Z</time>
      </trkpt>
      <trkpt lat="27.924854" lon="86.805043">
        <ele>4641</ele>
        <time>2022-10-27T09:35:43.000Z</time>
      </trkpt>
      <trkpt lat="27.924835" lon="86.805062">
        <ele>4640.8</ele>
        <time>2022-10-27T09:35:45.000Z</time>
      </trkpt>
      <trkpt lat="27.924813" lon="86.805062">
        <ele>4640.8</ele>
        <time>2022-10-27T09:35:47.000Z</time>
      </trkpt>
      <trkpt lat="27.924794" lon="86.805069">
        <ele>4640.2</ele>
        <time>2022-10-27T09:35:49.000Z</time>
      </trkpt>
      <trkpt lat="27.924774" lon="86.805075">
        <ele>4639.8</ele>
        <time>2022-10-27T09:35:51.000Z</time>
      </trkpt>
      <trkpt lat="27.924762" lon="86.805101">
        <ele>4639.8</ele>
        <time>2022-10-27T09:35:53.000Z</time>
      </trkpt>
      <trkpt lat="27.924736" lon="86.805114">
        <ele>4639.8</ele>
        <time>2022-10-27T09:35:56.000Z</time>
      </trkpt>
      <trkpt lat="27.924717" lon="86.805133">
        <ele>4639.6</ele>
        <time>2022-10-27T09:35:58.000Z</time>
      </trkpt>
      <trkpt lat="27.924694" lon="86.805139">
        <ele>4639.4</ele>
        <time>2022-10-27T09:36:01.000Z</time>
      </trkpt>
      <trkpt lat="27.924675" lon="86.805133">
        <ele>4639</ele>
        <time>2022-10-27T09:36:04.000Z</time>
      </trkpt>
      <trkpt lat="27.924624" lon="86.805114">
        <ele>4636</ele>
        <time>2022-10-27T09:36:57.000Z</time>
      </trkpt>
      <trkpt lat="27.924592" lon="86.805114">
        <ele>4635.4</ele>
        <time>2022-10-27T09:36:59.000Z</time>
      </trkpt>
      <trkpt lat="27.924563" lon="86.805133">
        <ele>4635.4</ele>
        <time>2022-10-27T09:37:01.000Z</time>
      </trkpt>
      <trkpt lat="27.924531" lon="86.805133">
        <ele>4635</ele>
        <time>2022-10-27T09:37:03.000Z</time>
      </trkpt>
      <trkpt lat="27.924499" lon="86.805133">
        <ele>4635</ele>
        <time>2022-10-27T09:37:05.000Z</time>
      </trkpt>
      <trkpt lat="27.92448" lon="86.80512">
        <ele>4635</ele>
        <time>2022-10-27T09:37:06.000Z</time>
      </trkpt>
      <trkpt lat="27.924458" lon="86.80512">
        <ele>4635.2</ele>
        <time>2022-10-27T09:37:08.000Z</time>
      </trkpt>
      <trkpt lat="27.924438" lon="86.80512">
        <ele>4635.2</ele>
        <time>2022-10-27T09:37:10.000Z</time>
      </trkpt>
      <trkpt lat="27.924413" lon="86.80512">
        <ele>4634.2</ele>
        <time>2022-10-27T09:37:12.000Z</time>
      </trkpt>
      <trkpt lat="27.924387" lon="86.80512">
        <ele>4633.8</ele>
        <time>2022-10-27T09:37:14.000Z</time>
      </trkpt>
      <trkpt lat="27.924368" lon="86.805133">
        <ele>4634.2</ele>
        <time>2022-10-27T09:37:16.000Z</time>
      </trkpt>
      <trkpt lat="27.924352" lon="86.80512">
        <ele>4634.2</ele>
        <time>2022-10-27T09:37:17.000Z</time>
      </trkpt>
      <trkpt lat="27.924333" lon="86.80512">
        <ele>4633.4</ele>
        <time>2022-10-27T09:37:19.000Z</time>
      </trkpt>
      <trkpt lat="27.924307" lon="86.805107">
        <ele>4632.8</ele>
        <time>2022-10-27T09:37:22.000Z</time>
      </trkpt>
      <trkpt lat="27.924282" lon="86.805101">
        <ele>4632.2</ele>
        <time>2022-10-27T09:37:25.000Z</time>
      </trkpt>
      <trkpt lat="27.924262" lon="86.805114">
        <ele>4631.8</ele>
        <time>2022-10-27T09:37:28.000Z</time>
      </trkpt>
      <trkpt lat="27.924243" lon="86.805133">
        <ele>4630.6</ele>
        <time>2022-10-27T09:37:31.000Z</time>
      </trkpt>
      <trkpt lat="27.924221" lon="86.805133">
        <ele>4630.2</ele>
        <time>2022-10-27T09:37:34.000Z</time>
      </trkpt>
      <trkpt lat="27.924202" lon="86.805152">
        <ele>4629.6</ele>
        <time>2022-10-27T09:37:37.000Z</time>
      </trkpt>
      <trkpt lat="27.924192" lon="86.805171">
        <ele>4629</ele>
        <time>2022-10-27T09:37:39.000Z</time>
      </trkpt>
      <trkpt lat="27.924173" lon="86.80519">
        <ele>4628.8</ele>
        <time>2022-10-27T09:37:43.000Z</time>
      </trkpt>
      <trkpt lat="27.92415" lon="86.80519">
        <ele>4628</ele>
        <time>2022-10-27T09:37:45.000Z</time>
      </trkpt>
      <trkpt lat="27.924128" lon="86.805197">
        <ele>4627.6</ele>
        <time>2022-10-27T09:37:48.000Z</time>
      </trkpt>
      <trkpt lat="27.924106" lon="86.805203">
        <ele>4627.2</ele>
        <time>2022-10-27T09:37:51.000Z</time>
      </trkpt>
      <trkpt lat="27.924096" lon="86.805222">
        <ele>4626.8</ele>
        <time>2022-10-27T09:37:53.000Z</time>
      </trkpt>
      <trkpt lat="27.92408" lon="86.805235">
        <ele>4626</ele>
        <time>2022-10-27T09:37:56.000Z</time>
      </trkpt>
      <trkpt lat="27.924083" lon="86.805261">
        <ele>4625.6</ele>
        <time>2022-10-27T09:38:00.000Z</time>
      </trkpt>
      <trkpt lat="27.924083" lon="86.805293">
        <ele>4624.8</ele>
        <time>2022-10-27T09:38:04.000Z</time>
      </trkpt>
      <trkpt lat="27.924064" lon="86.805312">
        <ele>4624</ele>
        <time>2022-10-27T09:38:08.000Z</time>
      </trkpt>
      <trkpt lat="27.924045" lon="86.805318">
        <ele>4622.8</ele>
        <time>2022-10-27T09:38:12.000Z</time>
      </trkpt>
      <trkpt lat="27.924029" lon="86.805331">
        <ele>4622.4</ele>
        <time>2022-10-27T09:38:14.000Z</time>
      </trkpt>
      <trkpt lat="27.92401" lon="86.805344">
        <ele>4621.8</ele>
        <time>2022-10-27T09:38:18.000Z</time>
      </trkpt>
      <trkpt lat="27.923984" lon="86.805357">
        <ele>4620.8</ele>
        <time>2022-10-27T09:38:22.000Z</time>
      </trkpt>
      <trkpt lat="27.923965" lon="86.805357">
        <ele>4620.2</ele>
        <time>2022-10-27T09:38:24.000Z</time>
      </trkpt>
      <trkpt lat="27.923949" lon="86.80537">
        <ele>4619.6</ele>
        <time>2022-10-27T09:38:26.000Z</time>
      </trkpt>
      <trkpt lat="27.92393" lon="86.805382">
        <ele>4619.4</ele>
        <time>2022-10-27T09:38:28.000Z</time>
      </trkpt>
      <trkpt lat="27.923914" lon="86.805402">
        <ele>4618.8</ele>
        <time>2022-10-27T09:38:31.000Z</time>
      </trkpt>
      <trkpt lat="27.92391" lon="86.805427">
        <ele>4618.6</ele>
        <time>2022-10-27T09:38:33.000Z</time>
      </trkpt>
      <trkpt lat="27.923904" lon="86.805453">
        <ele>4618.4</ele>
        <time>2022-10-27T09:38:35.000Z</time>
      </trkpt>
      <trkpt lat="27.923888" lon="86.805466">
        <ele>4618</ele>
        <time>2022-10-27T09:38:37.000Z</time>
      </trkpt>
      <trkpt lat="27.923869" lon="86.805466">
        <ele>4617.8</ele>
        <time>2022-10-27T09:38:39.000Z</time>
      </trkpt>
      <trkpt lat="27.92385" lon="86.805466">
        <ele>4617.8</ele>
        <time>2022-10-27T09:38:41.000Z</time>
      </trkpt>
      <trkpt lat="27.92383" lon="86.805472">
        <ele>4617.2</ele>
        <time>2022-10-27T09:38:43.000Z</time>
      </trkpt>
      <trkpt lat="27.923808" lon="86.805491">
        <ele>4616.4</ele>
        <time>2022-10-27T09:38:46.000Z</time>
      </trkpt>
      <trkpt lat="27.923782" lon="86.805504">
        <ele>4616.2</ele>
        <time>2022-10-27T09:38:49.000Z</time>
      </trkpt>
      <trkpt lat="27.923757" lon="86.805517">
        <ele>4615.6</ele>
        <time>2022-10-27T09:38:52.000Z</time>
      </trkpt>
      <trkpt lat="27.923741" lon="86.80553">
        <ele>4615</ele>
        <time>2022-10-27T09:38:54.000Z</time>
      </trkpt>
      <trkpt lat="27.923725" lon="86.805549">
        <ele>4614.4</ele>
        <time>2022-10-27T09:38:58.000Z</time>
      </trkpt>
      <trkpt lat="27.923718" lon="86.805574">
        <ele>4613.6</ele>
        <time>2022-10-27T09:39:01.000Z</time>
      </trkpt>
      <trkpt lat="27.923709" lon="86.8056">
        <ele>4613.2</ele>
        <time>2022-10-27T09:39:05.000Z</time>
      </trkpt>
      <trkpt lat="27.923715" lon="86.805619">
        <ele>4612.8</ele>
        <time>2022-10-27T09:39:10.000Z</time>
      </trkpt>
      <trkpt lat="27.923738" lon="86.805619">
        <ele>4612</ele>
        <time>2022-10-27T09:39:13.000Z</time>
      </trkpt>
      <trkpt lat="27.923757" lon="86.805613">
        <ele>4611.8</ele>
        <time>2022-10-27T09:39:15.000Z</time>
      </trkpt>
      <trkpt lat="27.923776" lon="86.805594">
        <ele>4611.2</ele>
        <time>2022-10-27T09:39:18.000Z</time>
      </trkpt>
      <trkpt lat="27.923786" lon="86.805613">
        <ele>4610.8</ele>
        <time>2022-10-27T09:39:29.000Z</time>
      </trkpt>
      <trkpt lat="27.923779" lon="86.805632">
        <ele>4610.4</ele>
        <time>2022-10-27T09:39:31.000Z</time>
      </trkpt>
      <trkpt lat="27.923779" lon="86.805658">
        <ele>4610</ele>
        <time>2022-10-27T09:39:34.000Z</time>
      </trkpt>
      <trkpt lat="27.92377" lon="86.80569">
        <ele>4609.8</ele>
        <time>2022-10-27T09:39:38.000Z</time>
      </trkpt>
      <trkpt lat="27.923773" lon="86.805715">
        <ele>4608.6</ele>
        <time>2022-10-27T09:39:43.000Z</time>
      </trkpt>
      <trkpt lat="27.923776" lon="86.805741">
        <ele>4608.4</ele>
        <time>2022-10-27T09:39:46.000Z</time>
      </trkpt>
      <trkpt lat="27.923782" lon="86.805766">
        <ele>4608</ele>
        <time>2022-10-27T09:39:53.000Z</time>
      </trkpt>
      <trkpt lat="27.923776" lon="86.805792">
        <ele>4607.2</ele>
        <time>2022-10-27T09:39:57.000Z</time>
      </trkpt>
      <trkpt lat="27.923786" lon="86.805811">
        <ele>4607.2</ele>
        <time>2022-10-27T09:40:00.000Z</time>
      </trkpt>
      <trkpt lat="27.923779" lon="86.80583">
        <ele>4606.6</ele>
        <time>2022-10-27T09:40:05.000Z</time>
      </trkpt>
      <trkpt lat="27.92377" lon="86.805856">
        <ele>4606.4</ele>
        <time>2022-10-27T09:40:08.000Z</time>
      </trkpt>
      <trkpt lat="27.923773" lon="86.805888">
        <ele>4605.6</ele>
        <time>2022-10-27T09:40:12.000Z</time>
      </trkpt>
      <trkpt lat="27.923766" lon="86.805907">
        <ele>4605.2</ele>
        <time>2022-10-27T09:40:14.000Z</time>
      </trkpt>
      <trkpt lat="27.923744" lon="86.805914">
        <ele>4604.8</ele>
        <time>2022-10-27T09:40:17.000Z</time>
      </trkpt>
      <trkpt lat="27.923728" lon="86.805933">
        <ele>4604.2</ele>
        <time>2022-10-27T09:40:20.000Z</time>
      </trkpt>
      <trkpt lat="27.923718" lon="86.805952">
        <ele>4604</ele>
        <time>2022-10-27T09:40:23.000Z</time>
      </trkpt>
      <trkpt lat="27.923725" lon="86.805971">
        <ele>4603.6</ele>
        <time>2022-10-27T09:40:25.000Z</time>
      </trkpt>
      <trkpt lat="27.923722" lon="86.805997">
        <ele>4602.6</ele>
        <time>2022-10-27T09:40:30.000Z</time>
      </trkpt>
      <trkpt lat="27.923728" lon="86.806016">
        <ele>4601.8</ele>
        <time>2022-10-27T09:40:33.000Z</time>
      </trkpt>
      <trkpt lat="27.923712" lon="86.806035">
        <ele>4601.4</ele>
        <time>2022-10-27T09:47:04.000Z</time>
      </trkpt>
      <trkpt lat="27.923693" lon="86.806061">
        <ele>4601</ele>
        <time>2022-10-27T09:47:06.000Z</time>
      </trkpt>
      <trkpt lat="27.923677" lon="86.806093">
        <ele>4600.8</ele>
        <time>2022-10-27T09:47:08.000Z</time>
      </trkpt>
      <trkpt lat="27.92367" lon="86.806112">
        <ele>4600.8</ele>
        <time>2022-10-27T09:47:10.000Z</time>
      </trkpt>
      <trkpt lat="27.923661" lon="86.806131">
        <ele>4600.6</ele>
        <time>2022-10-27T09:47:12.000Z</time>
      </trkpt>
      <trkpt lat="27.923638" lon="86.806138">
        <ele>4599.8</ele>
        <time>2022-10-27T09:47:16.000Z</time>
      </trkpt>
      <trkpt lat="27.923626" lon="86.806157">
        <ele>4599.8</ele>
        <time>2022-10-27T09:47:18.000Z</time>
      </trkpt>
      <trkpt lat="27.923619" lon="86.806182">
        <ele>4599.2</ele>
        <time>2022-10-27T09:47:21.000Z</time>
      </trkpt>
      <trkpt lat="27.923606" lon="86.806208">
        <ele>4599.2</ele>
        <time>2022-10-27T09:47:23.000Z</time>
      </trkpt>
      <trkpt lat="27.92359" lon="86.806227">
        <ele>4599</ele>
        <time>2022-10-27T09:47:29.000Z</time>
      </trkpt>
      <trkpt lat="27.923581" lon="86.806253">
        <ele>4598.8</ele>
        <time>2022-10-27T09:47:32.000Z</time>
      </trkpt>
      <trkpt lat="27.923562" lon="86.806266">
        <ele>4598.4</ele>
        <time>2022-10-27T09:47:34.000Z</time>
      </trkpt>
      <trkpt lat="27.923546" lon="86.806285">
        <ele>4597.6</ele>
        <time>2022-10-27T09:47:37.000Z</time>
      </trkpt>
      <trkpt lat="27.92353" lon="86.806298">
        <ele>4598</ele>
        <time>2022-10-27T09:47:40.000Z</time>
      </trkpt>
      <trkpt lat="27.923517" lon="86.806323">
        <ele>4596</ele>
        <time>2022-10-27T09:47:47.000Z</time>
      </trkpt>
      <trkpt lat="27.923523" lon="86.806342">
        <ele>4595.6</ele>
        <time>2022-10-27T09:47:51.000Z</time>
      </trkpt>
      <trkpt lat="27.923539" lon="86.806368">
        <ele>4594.4</ele>
        <time>2022-10-27T09:47:58.000Z</time>
      </trkpt>
      <trkpt lat="27.923558" lon="86.806368">
        <ele>4594.4</ele>
        <time>2022-10-27T09:48:01.000Z</time>
      </trkpt>
      <trkpt lat="27.923578" lon="86.806374">
        <ele>4595.2</ele>
        <time>2022-10-27T09:48:06.000Z</time>
      </trkpt>
      <trkpt lat="27.9236" lon="86.806374">
        <ele>4595.2</ele>
        <time>2022-10-27T09:48:14.000Z</time>
      </trkpt>
      <trkpt lat="27.923619" lon="86.806381">
        <ele>4595</ele>
        <time>2022-10-27T09:48:16.000Z</time>
      </trkpt>
      <trkpt lat="27.923638" lon="86.806387">
        <ele>4595.4</ele>
        <time>2022-10-27T09:48:19.000Z</time>
      </trkpt>
      <trkpt lat="27.923661" lon="86.806387">
        <ele>4595.8</ele>
        <time>2022-10-27T09:48:22.000Z</time>
      </trkpt>
      <trkpt lat="27.92368" lon="86.806374">
        <ele>4596</ele>
        <time>2022-10-27T09:48:26.000Z</time>
      </trkpt>
      <trkpt lat="27.923706" lon="86.806381">
        <ele>4596.2</ele>
        <time>2022-10-27T09:48:29.000Z</time>
      </trkpt>
      <trkpt lat="27.923725" lon="86.806381">
        <ele>4596.6</ele>
        <time>2022-10-27T09:48:31.000Z</time>
      </trkpt>
      <trkpt lat="27.923744" lon="86.806387">
        <ele>4597</ele>
        <time>2022-10-27T09:48:34.000Z</time>
      </trkpt>
      <trkpt lat="27.923747" lon="86.806419">
        <ele>4597.6</ele>
        <time>2022-10-27T09:48:36.000Z</time>
      </trkpt>
      <trkpt lat="27.923741" lon="86.806445">
        <ele>4598</ele>
        <time>2022-10-27T09:48:39.000Z</time>
      </trkpt>
      <trkpt lat="27.923757" lon="86.806458">
        <ele>4598.4</ele>
        <time>2022-10-27T09:48:43.000Z</time>
      </trkpt>
      <trkpt lat="27.923773" lon="86.806445">
        <ele>4598.6</ele>
        <time>2022-10-27T09:48:48.000Z</time>
      </trkpt>
      <trkpt lat="27.923795" lon="86.806445">
        <ele>4599.2</ele>
        <time>2022-10-27T09:48:51.000Z</time>
      </trkpt>
      <trkpt lat="27.923818" lon="86.806458">
        <ele>4599.4</ele>
        <time>2022-10-27T09:48:56.000Z</time>
      </trkpt>
      <trkpt lat="27.923834" lon="86.80647">
        <ele>4600.2</ele>
        <time>2022-10-27T09:48:59.000Z</time>
      </trkpt>
      <trkpt lat="27.923846" lon="86.80649">
        <ele>4600.4</ele>
        <time>2022-10-27T09:49:02.000Z</time>
      </trkpt>
      <trkpt lat="27.923862" lon="86.806502">
        <ele>4600.6</ele>
        <time>2022-10-27T09:49:07.000Z</time>
      </trkpt>
      <trkpt lat="27.923872" lon="86.806522">
        <ele>4600.6</ele>
        <time>2022-10-27T09:49:10.000Z</time>
      </trkpt>
      <trkpt lat="27.923891" lon="86.806534">
        <ele>4600.8</ele>
        <time>2022-10-27T09:49:14.000Z</time>
      </trkpt>
      <trkpt lat="27.923907" lon="86.806547">
        <ele>4601.2</ele>
        <time>2022-10-27T09:49:20.000Z</time>
      </trkpt>
      <trkpt lat="27.923917" lon="86.806566">
        <ele>4601.4</ele>
        <time>2022-10-27T09:49:26.000Z</time>
      </trkpt>
      <trkpt lat="27.923936" lon="86.806579">
        <ele>4602.4</ele>
        <time>2022-10-27T09:49:33.000Z</time>
      </trkpt>
      <trkpt lat="27.923952" lon="86.806592">
        <ele>4603</ele>
        <time>2022-10-27T09:49:37.000Z</time>
      </trkpt>
      <trkpt lat="27.923962" lon="86.806611">
        <ele>4603.8</ele>
        <time>2022-10-27T09:49:40.000Z</time>
      </trkpt>
      <trkpt lat="27.923981" lon="86.806618">
        <ele>4603.4</ele>
        <time>2022-10-27T09:49:46.000Z</time>
      </trkpt>
      <trkpt lat="27.923997" lon="86.80663">
        <ele>4603.4</ele>
        <time>2022-10-27T09:49:50.000Z</time>
      </trkpt>
      <trkpt lat="27.92401" lon="86.80665">
        <ele>4604</ele>
        <time>2022-10-27T09:49:54.000Z</time>
      </trkpt>
      <trkpt lat="27.924019" lon="86.806669">
        <ele>4603.8</ele>
        <time>2022-10-27T09:49:59.000Z</time>
      </trkpt>
      <trkpt lat="27.924035" lon="86.806682">
        <ele>4604.2</ele>
        <time>2022-10-27T09:50:03.000Z</time>
      </trkpt>
      <trkpt lat="27.924054" lon="86.806682">
        <ele>4604.8</ele>
        <time>2022-10-27T09:50:07.000Z</time>
      </trkpt>
      <trkpt lat="27.924064" lon="86.806662">
        <ele>4605.6</ele>
        <time>2022-10-27T09:50:11.000Z</time>
      </trkpt>
      <trkpt lat="27.92408" lon="86.80665">
        <ele>4605.8</ele>
        <time>2022-10-27T09:50:17.000Z</time>
      </trkpt>
      <trkpt lat="27.924102" lon="86.80665">
        <ele>4606.2</ele>
        <time>2022-10-27T09:50:22.000Z</time>
      </trkpt>
      <trkpt lat="27.924122" lon="86.806643">
        <ele>4606.4</ele>
        <time>2022-10-27T09:50:26.000Z</time>
      </trkpt>
      <trkpt lat="27.924141" lon="86.806643">
        <ele>4607.4</ele>
        <time>2022-10-27T09:50:32.000Z</time>
      </trkpt>
      <trkpt lat="27.924157" lon="86.806656">
        <ele>4607.8</ele>
        <time>2022-10-27T09:50:39.000Z</time>
      </trkpt>
      <trkpt lat="27.924176" lon="86.806662">
        <ele>4608.2</ele>
        <time>2022-10-27T09:50:41.000Z</time>
      </trkpt>
      <trkpt lat="27.924202" lon="86.806669">
        <ele>4608</ele>
        <time>2022-10-27T09:50:44.000Z</time>
      </trkpt>
      <trkpt lat="27.924221" lon="86.806669">
        <ele>4608</ele>
        <time>2022-10-27T09:50:47.000Z</time>
      </trkpt>
      <trkpt lat="27.924243" lon="86.806662">
        <ele>4607.4</ele>
        <time>2022-10-27T09:50:50.000Z</time>
      </trkpt>
      <trkpt lat="27.924262" lon="86.806682">
        <ele>4607.4</ele>
        <time>2022-10-27T09:50:57.000Z</time>
      </trkpt>
      <trkpt lat="27.924282" lon="86.806694">
        <ele>4608.8</ele>
        <time>2022-10-27T09:51:03.000Z</time>
      </trkpt>
      <trkpt lat="27.924301" lon="86.806682">
        <ele>4609.4</ele>
        <time>2022-10-27T09:51:11.000Z</time>
      </trkpt>
      <trkpt lat="27.924317" lon="86.806669">
        <ele>4610.2</ele>
        <time>2022-10-27T09:51:18.000Z</time>
      </trkpt>
      <trkpt lat="27.924336" lon="86.806688">
        <ele>4610.4</ele>
        <time>2022-10-27T09:51:23.000Z</time>
      </trkpt>
      <trkpt lat="27.924355" lon="86.806694">
        <ele>4611.2</ele>
        <time>2022-10-27T09:51:28.000Z</time>
      </trkpt>
      <trkpt lat="27.924374" lon="86.806688">
        <ele>4611</ele>
        <time>2022-10-27T09:51:34.000Z</time>
      </trkpt>
      <trkpt lat="27.924394" lon="86.806682">
        <ele>4611</ele>
        <time>2022-10-27T09:51:40.000Z</time>
      </trkpt>
      <trkpt lat="27.924413" lon="86.806669">
        <ele>4611</ele>
        <time>2022-10-27T09:51:48.000Z</time>
      </trkpt>
      <trkpt lat="27.924432" lon="86.806669">
        <ele>4611.2</ele>
        <time>2022-10-27T09:51:54.000Z</time>
      </trkpt>
      <trkpt lat="27.924438" lon="86.806694">
        <ele>4612.2</ele>
        <time>2022-10-27T09:51:58.000Z</time>
      </trkpt>
      <trkpt lat="27.924458" lon="86.806694">
        <ele>4612.6</ele>
        <time>2022-10-27T09:52:04.000Z</time>
      </trkpt>
      <trkpt lat="27.924477" lon="86.806688">
        <ele>4612.6</ele>
        <time>2022-10-27T09:52:09.000Z</time>
      </trkpt>
      <trkpt lat="27.924493" lon="86.806701">
        <ele>4613</ele>
        <time>2022-10-27T09:52:13.000Z</time>
      </trkpt>
      <trkpt lat="27.924509" lon="86.80672">
        <ele>4613</ele>
        <time>2022-10-27T09:52:16.000Z</time>
      </trkpt>
      <trkpt lat="27.924538" lon="86.806726">
        <ele>4614.6</ele>
        <time>2022-10-27T09:52:54.000Z</time>
      </trkpt>
      <trkpt lat="27.92456" lon="86.806739">
        <ele>4614.6</ele>
        <time>2022-10-27T09:52:56.000Z</time>
      </trkpt>
      <trkpt lat="27.924576" lon="86.806752">
        <ele>4614.6</ele>
        <time>2022-10-27T09:52:58.000Z</time>
      </trkpt>
      <trkpt lat="27.924586" lon="86.806771">
        <ele>4614.6</ele>
        <time>2022-10-27T09:52:59.000Z</time>
      </trkpt>
      <trkpt lat="27.924598" lon="86.80679">
        <ele>4614.6</ele>
        <time>2022-10-27T09:53:01.000Z</time>
      </trkpt>
      <trkpt lat="27.924592" lon="86.80681">
        <ele>4614.6</ele>
        <time>2022-10-27T09:53:05.000Z</time>
      </trkpt>
      <trkpt lat="27.924586" lon="86.806829">
        <ele>4614.2</ele>
        <time>2022-10-27T09:53:07.000Z</time>
      </trkpt>
      <trkpt lat="27.924573" lon="86.806848">
        <ele>4614.2</ele>
        <time>2022-10-27T09:53:10.000Z</time>
      </trkpt>
      <trkpt lat="27.92456" lon="86.80688">
        <ele>4614.2</ele>
        <time>2022-10-27T09:53:12.000Z</time>
      </trkpt>
      <trkpt lat="27.924541" lon="86.806899">
        <ele>4613.8</ele>
        <time>2022-10-27T09:53:15.000Z</time>
      </trkpt>
      <trkpt lat="27.924512" lon="86.806925">
        <ele>4613.4</ele>
        <time>2022-10-27T09:53:17.000Z</time>
      </trkpt>
      <trkpt lat="27.924486" lon="86.806938">
        <ele>4613.4</ele>
        <time>2022-10-27T09:53:19.000Z</time>
      </trkpt>
      <trkpt lat="27.924464" lon="86.806944">
        <ele>4613.4</ele>
        <time>2022-10-27T09:53:21.000Z</time>
      </trkpt>
      <trkpt lat="27.924442" lon="86.80695">
        <ele>4613.2</ele>
        <time>2022-10-27T09:53:23.000Z</time>
      </trkpt>
      <trkpt lat="27.924419" lon="86.806963">
        <ele>4613.4</ele>
        <time>2022-10-27T09:53:25.000Z</time>
      </trkpt>
      <trkpt lat="27.924397" lon="86.806976">
        <ele>4613.6</ele>
        <time>2022-10-27T09:53:28.000Z</time>
      </trkpt>
      <trkpt lat="27.924378" lon="86.806989">
        <ele>4613.6</ele>
        <time>2022-10-27T09:53:31.000Z</time>
      </trkpt>
      <trkpt lat="27.924355" lon="86.807002">
        <ele>4613.4</ele>
        <time>2022-10-27T09:53:33.000Z</time>
      </trkpt>
      <trkpt lat="27.924336" lon="86.807008">
        <ele>4612.6</ele>
        <time>2022-10-27T09:53:36.000Z</time>
      </trkpt>
      <trkpt lat="27.924323" lon="86.807027">
        <ele>4612.4</ele>
        <time>2022-10-27T09:53:40.000Z</time>
      </trkpt>
      <trkpt lat="27.924323" lon="86.807053">
        <ele>4611.8</ele>
        <time>2022-10-27T09:53:42.000Z</time>
      </trkpt>
      <trkpt lat="27.924304" lon="86.807078">
        <ele>4611.2</ele>
        <time>2022-10-27T09:53:45.000Z</time>
      </trkpt>
      <trkpt lat="27.924288" lon="86.807091">
        <ele>4610.8</ele>
        <time>2022-10-27T09:53:47.000Z</time>
      </trkpt>
      <trkpt lat="27.924266" lon="86.807098">
        <ele>4610.8</ele>
        <time>2022-10-27T09:53:51.000Z</time>
      </trkpt>
      <trkpt lat="27.924246" lon="86.807098">
        <ele>4610.6</ele>
        <time>2022-10-27T09:53:54.000Z</time>
      </trkpt>
      <trkpt lat="27.924221" lon="86.807098">
        <ele>4610.4</ele>
        <time>2022-10-27T09:53:57.000Z</time>
      </trkpt>
      <trkpt lat="27.924195" lon="86.807098">
        <ele>4609.8</ele>
        <time>2022-10-27T09:54:00.000Z</time>
      </trkpt>
      <trkpt lat="27.924176" lon="86.807098">
        <ele>4609.6</ele>
        <time>2022-10-27T09:54:02.000Z</time>
      </trkpt>
      <trkpt lat="27.924154" lon="86.807091">
        <ele>4609</ele>
        <time>2022-10-27T09:54:04.000Z</time>
      </trkpt>
      <trkpt lat="27.924128" lon="86.807091">
        <ele>4609</ele>
        <time>2022-10-27T09:54:07.000Z</time>
      </trkpt>
      <trkpt lat="27.924109" lon="86.807104">
        <ele>4608.6</ele>
        <time>2022-10-27T09:54:10.000Z</time>
      </trkpt>
      <trkpt lat="27.92409" lon="86.807117">
        <ele>4608.8</ele>
        <time>2022-10-27T09:54:12.000Z</time>
      </trkpt>
      <trkpt lat="27.924064" lon="86.807123">
        <ele>4608.2</ele>
        <time>2022-10-27T09:54:15.000Z</time>
      </trkpt>
      <trkpt lat="27.924058" lon="86.807104">
        <ele>4608</ele>
        <time>2022-10-27T09:54:17.000Z</time>
      </trkpt>
      <trkpt lat="27.924038" lon="86.807091">
        <ele>4607.8</ele>
        <time>2022-10-27T09:54:20.000Z</time>
      </trkpt>
      <trkpt lat="27.924019" lon="86.807091">
        <ele>4607.4</ele>
        <time>2022-10-27T09:54:22.000Z</time>
      </trkpt>
      <trkpt lat="27.923997" lon="86.807091">
        <ele>4607.2</ele>
        <time>2022-10-27T09:54:24.000Z</time>
      </trkpt>
      <trkpt lat="27.923974" lon="86.807085">
        <ele>4607.2</ele>
        <time>2022-10-27T09:54:27.000Z</time>
      </trkpt>
      <trkpt lat="27.923958" lon="86.807098">
        <ele>4607.2</ele>
        <time>2022-10-27T09:54:30.000Z</time>
      </trkpt>
      <trkpt lat="27.923949" lon="86.807117">
        <ele>4607.4</ele>
        <time>2022-10-27T09:54:32.000Z</time>
      </trkpt>
      <trkpt lat="27.923939" lon="86.807142">
        <ele>4606</ele>
        <time>2022-10-27T09:54:35.000Z</time>
      </trkpt>
      <trkpt lat="27.923936" lon="86.807168">
        <ele>4605.8</ele>
        <time>2022-10-27T09:54:37.000Z</time>
      </trkpt>
      <trkpt lat="27.923939" lon="86.8072">
        <ele>4605.8</ele>
        <time>2022-10-27T09:54:40.000Z</time>
      </trkpt>
      <trkpt lat="27.92393" lon="86.807219">
        <ele>4606.4</ele>
        <time>2022-10-27T09:54:43.000Z</time>
      </trkpt>
      <trkpt lat="27.923907" lon="86.807226">
        <ele>4607.2</ele>
        <time>2022-10-27T09:54:47.000Z</time>
      </trkpt>
      <trkpt lat="27.923891" lon="86.807238">
        <ele>4607.2</ele>
        <time>2022-10-27T09:54:50.000Z</time>
      </trkpt>
      <trkpt lat="27.923872" lon="86.807245">
        <ele>4607.6</ele>
        <time>2022-10-27T09:54:54.000Z</time>
      </trkpt>
      <trkpt lat="27.92385" lon="86.807251">
        <ele>4608.2</ele>
        <time>2022-10-27T09:54:57.000Z</time>
      </trkpt>
      <trkpt lat="27.923805" lon="86.807258">
        <ele>4609.2</ele>
        <time>2022-10-27T09:55:03.000Z</time>
      </trkpt>
      <trkpt lat="27.923786" lon="86.807264">
        <ele>4609</ele>
        <time>2022-10-27T09:55:05.000Z</time>
      </trkpt>
      <trkpt lat="27.923757" lon="86.807277">
        <ele>4609</ele>
        <time>2022-10-27T09:55:08.000Z</time>
      </trkpt>
      <trkpt lat="27.923738" lon="86.807277">
        <ele>4609</ele>
        <time>2022-10-27T09:55:11.000Z</time>
      </trkpt>
      <trkpt lat="27.923718" lon="86.807277">
        <ele>4609</ele>
        <time>2022-10-27T09:55:13.000Z</time>
      </trkpt>
      <trkpt lat="27.92369" lon="86.807283">
        <ele>4608.6</ele>
        <time>2022-10-27T09:55:16.000Z</time>
      </trkpt>
      <trkpt lat="27.923667" lon="86.807277">
        <ele>4608.4</ele>
        <time>2022-10-27T09:55:18.000Z</time>
      </trkpt>
      <trkpt lat="27.923648" lon="86.807283">
        <ele>4608.2</ele>
        <time>2022-10-27T09:55:20.000Z</time>
      </trkpt>
      <trkpt lat="27.923626" lon="86.80729">
        <ele>4608.4</ele>
        <time>2022-10-27T09:55:22.000Z</time>
      </trkpt>
      <trkpt lat="27.9236" lon="86.807296">
        <ele>4608.4</ele>
        <time>2022-10-27T09:55:25.000Z</time>
      </trkpt>
      <trkpt lat="27.923555" lon="86.807302">
        <ele>4608.6</ele>
        <time>2022-10-27T09:55:30.000Z</time>
      </trkpt>
      <trkpt lat="27.923533" lon="86.807315">
        <ele>4608.6</ele>
        <time>2022-10-27T09:55:33.000Z</time>
      </trkpt>
      <trkpt lat="27.923514" lon="86.807315">
        <ele>4608.6</ele>
        <time>2022-10-27T09:55:35.000Z</time>
      </trkpt>
      <trkpt lat="27.923494" lon="86.807315">
        <ele>4608.6</ele>
        <time>2022-10-27T09:55:37.000Z</time>
      </trkpt>
      <trkpt lat="27.923472" lon="86.807315">
        <ele>4608.6</ele>
        <time>2022-10-27T09:55:39.000Z</time>
      </trkpt>
      <trkpt lat="27.923453" lon="86.807315">
        <ele>4608.8</ele>
        <time>2022-10-27T09:55:41.000Z</time>
      </trkpt>
      <trkpt lat="27.923427" lon="86.807322">
        <ele>4609.2</ele>
        <time>2022-10-27T09:55:44.000Z</time>
      </trkpt>
      <trkpt lat="27.923408" lon="86.807322">
        <ele>4609.2</ele>
        <time>2022-10-27T09:55:46.000Z</time>
      </trkpt>
      <trkpt lat="27.923386" lon="86.807322">
        <ele>4609.4</ele>
        <time>2022-10-27T09:55:49.000Z</time>
      </trkpt>
      <trkpt lat="27.923366" lon="86.807334">
        <ele>4609.4</ele>
        <time>2022-10-27T09:55:51.000Z</time>
      </trkpt>
      <trkpt lat="27.923347" lon="86.807341">
        <ele>4609.4</ele>
        <time>2022-10-27T09:55:53.000Z</time>
      </trkpt>
      <trkpt lat="27.923322" lon="86.807347">
        <ele>4609.6</ele>
        <time>2022-10-27T09:55:55.000Z</time>
      </trkpt>
      <trkpt lat="27.923293" lon="86.80736">
        <ele>4609.4</ele>
        <time>2022-10-27T09:55:58.000Z</time>
      </trkpt>
      <trkpt lat="27.92327" lon="86.80736">
        <ele>4609.4</ele>
        <time>2022-10-27T09:56:01.000Z</time>
      </trkpt>
      <trkpt lat="27.923245" lon="86.80736">
        <ele>4609.8</ele>
        <time>2022-10-27T09:56:05.000Z</time>
      </trkpt>
      <trkpt lat="27.923219" lon="86.807366">
        <ele>4609.8</ele>
        <time>2022-10-27T09:56:08.000Z</time>
      </trkpt>
      <trkpt lat="27.923197" lon="86.807379">
        <ele>4610.2</ele>
        <time>2022-10-27T09:56:11.000Z</time>
      </trkpt>
      <trkpt lat="27.923174" lon="86.807398">
        <ele>4609.8</ele>
        <time>2022-10-27T09:56:14.000Z</time>
      </trkpt>
      <trkpt lat="27.923152" lon="86.807405">
        <ele>4609.8</ele>
        <time>2022-10-27T09:56:16.000Z</time>
      </trkpt>
      <trkpt lat="27.923123" lon="86.807418">
        <ele>4609.8</ele>
        <time>2022-10-27T09:56:19.000Z</time>
      </trkpt>
      <trkpt lat="27.923098" lon="86.807424">
        <ele>4609.8</ele>
        <time>2022-10-27T09:56:22.000Z</time>
      </trkpt>
      <trkpt lat="27.923075" lon="86.807443">
        <ele>4609.8</ele>
        <time>2022-10-27T09:56:25.000Z</time>
      </trkpt>
      <trkpt lat="27.923056" lon="86.807456">
        <ele>4610.4</ele>
        <time>2022-10-27T09:56:28.000Z</time>
      </trkpt>
      <trkpt lat="27.923037" lon="86.807456">
        <ele>4610.6</ele>
        <time>2022-10-27T09:56:30.000Z</time>
      </trkpt>
      <trkpt lat="27.923011" lon="86.807462">
        <ele>4610.2</ele>
        <time>2022-10-27T09:56:33.000Z</time>
      </trkpt>
      <trkpt lat="27.922992" lon="86.807462">
        <ele>4609.8</ele>
        <time>2022-10-27T09:56:35.000Z</time>
      </trkpt>
      <trkpt lat="27.92297" lon="86.807482">
        <ele>4609.6</ele>
        <time>2022-10-27T09:56:37.000Z</time>
      </trkpt>
      <trkpt lat="27.92295" lon="86.807488">
        <ele>4609.8</ele>
        <time>2022-10-27T09:56:39.000Z</time>
      </trkpt>
      <trkpt lat="27.922925" lon="86.807488">
        <ele>4609.4</ele>
        <time>2022-10-27T09:56:42.000Z</time>
      </trkpt>
      <trkpt lat="27.922899" lon="86.807494">
        <ele>4609.4</ele>
        <time>2022-10-27T09:56:44.000Z</time>
      </trkpt>
      <trkpt lat="27.922877" lon="86.807501">
        <ele>4609</ele>
        <time>2022-10-27T09:56:46.000Z</time>
      </trkpt>
      <trkpt lat="27.922858" lon="86.807501">
        <ele>4608.8</ele>
        <time>2022-10-27T09:56:48.000Z</time>
      </trkpt>
      <trkpt lat="27.922835" lon="86.807494">
        <ele>4608.2</ele>
        <time>2022-10-27T09:56:50.000Z</time>
      </trkpt>
      <trkpt lat="27.922806" lon="86.807488">
        <ele>4608</ele>
        <time>2022-10-27T09:56:53.000Z</time>
      </trkpt>
      <trkpt lat="27.922781" lon="86.807488">
        <ele>4607.4</ele>
        <time>2022-10-27T09:56:56.000Z</time>
      </trkpt>
      <trkpt lat="27.922762" lon="86.807501">
        <ele>4607.4</ele>
        <time>2022-10-27T09:56:58.000Z</time>
      </trkpt>
      <trkpt lat="27.922742" lon="86.807507">
        <ele>4607.2</ele>
        <time>2022-10-27T09:57:00.000Z</time>
      </trkpt>
      <trkpt lat="27.922723" lon="86.80752">
        <ele>4607.2</ele>
        <time>2022-10-27T09:57:02.000Z</time>
      </trkpt>
      <trkpt lat="27.922704" lon="86.807526">
        <ele>4606.8</ele>
        <time>2022-10-27T09:57:04.000Z</time>
      </trkpt>
      <trkpt lat="27.922685" lon="86.807533">
        <ele>4606.8</ele>
        <time>2022-10-27T09:57:06.000Z</time>
      </trkpt>
      <trkpt lat="27.922666" lon="86.807539">
        <ele>4606.8</ele>
        <time>2022-10-27T09:57:08.000Z</time>
      </trkpt>
      <trkpt lat="27.922646" lon="86.807546">
        <ele>4607.2</ele>
        <time>2022-10-27T09:57:10.000Z</time>
      </trkpt>
      <trkpt lat="27.922627" lon="86.807546">
        <ele>4607.2</ele>
        <time>2022-10-27T09:57:12.000Z</time>
      </trkpt>
      <trkpt lat="27.922605" lon="86.807558">
        <ele>4607.2</ele>
        <time>2022-10-27T09:57:15.000Z</time>
      </trkpt>
      <trkpt lat="27.922579" lon="86.807565">
        <ele>4606.6</ele>
        <time>2022-10-27T09:57:19.000Z</time>
      </trkpt>
      <trkpt lat="27.922557" lon="86.807571">
        <ele>4606</ele>
        <time>2022-10-27T09:57:35.000Z</time>
      </trkpt>
      <trkpt lat="27.922528" lon="86.807571">
        <ele>4605.6</ele>
        <time>2022-10-27T09:57:37.000Z</time>
      </trkpt>
      <trkpt lat="27.922499" lon="86.807558">
        <ele>4605.6</ele>
        <time>2022-10-27T09:57:39.000Z</time>
      </trkpt>
      <trkpt lat="27.922474" lon="86.807546">
        <ele>4605.6</ele>
        <time>2022-10-27T09:57:41.000Z</time>
      </trkpt>
      <trkpt lat="27.922454" lon="86.807546">
        <ele>4605.6</ele>
        <time>2022-10-27T09:57:43.000Z</time>
      </trkpt>
      <trkpt lat="27.922477" lon="86.807539">
        <ele>4605</ele>
        <time>2022-10-27T09:57:57.000Z</time>
      </trkpt>
      <trkpt lat="27.922454" lon="86.807526">
        <ele>4605.2</ele>
        <time>2022-10-27T09:58:06.000Z</time>
      </trkpt>
      <trkpt lat="27.922429" lon="86.807526">
        <ele>4605</ele>
        <time>2022-10-27T09:58:09.000Z</time>
      </trkpt>
      <trkpt lat="27.922406" lon="86.807526">
        <ele>4604.8</ele>
        <time>2022-10-27T09:58:12.000Z</time>
      </trkpt>
      <trkpt lat="27.922387" lon="86.80752">
        <ele>4604.8</ele>
        <time>2022-10-27T09:58:14.000Z</time>
      </trkpt>
      <trkpt lat="27.922358" lon="86.807533">
        <ele>4604.6</ele>
        <time>2022-10-27T09:58:17.000Z</time>
      </trkpt>
      <trkpt lat="27.922336" lon="86.807533">
        <ele>4604.2</ele>
        <time>2022-10-27T09:58:19.000Z</time>
      </trkpt>
      <trkpt lat="27.922317" lon="86.807526">
        <ele>4604.2</ele>
        <time>2022-10-27T09:58:21.000Z</time>
      </trkpt>
      <trkpt lat="27.922298" lon="86.80752">
        <ele>4604</ele>
        <time>2022-10-27T09:58:23.000Z</time>
      </trkpt>
      <trkpt lat="27.922278" lon="86.807507">
        <ele>4603.2</ele>
        <time>2022-10-27T09:58:25.000Z</time>
      </trkpt>
      <trkpt lat="27.922256" lon="86.807501">
        <ele>4602.6</ele>
        <time>2022-10-27T09:58:27.000Z</time>
      </trkpt>
      <trkpt lat="27.922237" lon="86.807501">
        <ele>4602.2</ele>
        <time>2022-10-27T09:58:29.000Z</time>
      </trkpt>
      <trkpt lat="27.922211" lon="86.807501">
        <ele>4601.8</ele>
        <time>2022-10-27T09:58:31.000Z</time>
      </trkpt>
      <trkpt lat="27.922192" lon="86.807501">
        <ele>4600.8</ele>
        <time>2022-10-27T09:58:33.000Z</time>
      </trkpt>
      <trkpt lat="27.92217" lon="86.807494">
        <ele>4600.8</ele>
        <time>2022-10-27T09:58:35.000Z</time>
      </trkpt>
      <trkpt lat="27.92215" lon="86.807494">
        <ele>4600.6</ele>
        <time>2022-10-27T09:58:37.000Z</time>
      </trkpt>
      <trkpt lat="27.922131" lon="86.807494">
        <ele>4600.6</ele>
        <time>2022-10-27T09:58:39.000Z</time>
      </trkpt>
      <trkpt lat="27.922106" lon="86.807494">
        <ele>4600.2</ele>
        <time>2022-10-27T09:58:41.000Z</time>
      </trkpt>
      <trkpt lat="27.922083" lon="86.807501">
        <ele>4600</ele>
        <time>2022-10-27T09:58:43.000Z</time>
      </trkpt>
      <trkpt lat="27.922061" lon="86.807501">
        <ele>4599.2</ele>
        <time>2022-10-27T09:58:45.000Z</time>
      </trkpt>
      <trkpt lat="27.922042" lon="86.807501">
        <ele>4599.2</ele>
        <time>2022-10-27T09:58:47.000Z</time>
      </trkpt>
      <trkpt lat="27.922016" lon="86.807494">
        <ele>4599.8</ele>
        <time>2022-10-27T09:58:50.000Z</time>
      </trkpt>
      <trkpt lat="27.921994" lon="86.807494">
        <ele>4598.6</ele>
        <time>2022-10-27T09:58:52.000Z</time>
      </trkpt>
      <trkpt lat="27.921974" lon="86.807494">
        <ele>4598.2</ele>
        <time>2022-10-27T09:58:54.000Z</time>
      </trkpt>
      <trkpt lat="27.921955" lon="86.807494">
        <ele>4597.6</ele>
        <time>2022-10-27T09:58:58.000Z</time>
      </trkpt>
      <trkpt lat="27.921933" lon="86.807488">
        <ele>4597.6</ele>
        <time>2022-10-27T09:59:01.000Z</time>
      </trkpt>
      <trkpt lat="27.92191" lon="86.807488">
        <ele>4597.4</ele>
        <time>2022-10-27T09:59:03.000Z</time>
      </trkpt>
      <trkpt lat="27.921888" lon="86.807482">
        <ele>4596.8</ele>
        <time>2022-10-27T09:59:05.000Z</time>
      </trkpt>
      <trkpt lat="27.921872" lon="86.807462">
        <ele>4596.6</ele>
        <time>2022-10-27T09:59:07.000Z</time>
      </trkpt>
      <trkpt lat="27.921853" lon="86.80745">
        <ele>4595.8</ele>
        <time>2022-10-27T09:59:09.000Z</time>
      </trkpt>
      <trkpt lat="27.921834" lon="86.807424">
        <ele>4595.8</ele>
        <time>2022-10-27T09:59:11.000Z</time>
      </trkpt>
      <trkpt lat="27.921814" lon="86.807411">
        <ele>4595</ele>
        <time>2022-10-27T09:59:13.000Z</time>
      </trkpt>
      <trkpt lat="27.921792" lon="86.807398">
        <ele>4594.8</ele>
        <time>2022-10-27T09:59:16.000Z</time>
      </trkpt>
      <trkpt lat="27.92177" lon="86.807386">
        <ele>4594.4</ele>
        <time>2022-10-27T09:59:18.000Z</time>
      </trkpt>
      <trkpt lat="27.92175" lon="86.807373">
        <ele>4593.6</ele>
        <time>2022-10-27T09:59:20.000Z</time>
      </trkpt>
      <trkpt lat="27.921731" lon="86.80736">
        <ele>4593.4</ele>
        <time>2022-10-27T09:59:22.000Z</time>
      </trkpt>
      <trkpt lat="27.921712" lon="86.807341">
        <ele>4593.2</ele>
        <time>2022-10-27T09:59:24.000Z</time>
      </trkpt>
      <trkpt lat="27.92169" lon="86.807322">
        <ele>4592.4</ele>
        <time>2022-10-27T09:59:27.000Z</time>
      </trkpt>
      <trkpt lat="27.92167" lon="86.807315">
        <ele>4591.6</ele>
        <time>2022-10-27T09:59:29.000Z</time>
      </trkpt>
      <trkpt lat="27.921654" lon="86.807302">
        <ele>4591.2</ele>
        <time>2022-10-27T09:59:31.000Z</time>
      </trkpt>
      <trkpt lat="27.921632" lon="86.807302">
        <ele>4591.2</ele>
        <time>2022-10-27T09:59:33.000Z</time>
      </trkpt>
      <trkpt lat="27.921606" lon="86.80729">
        <ele>4590.8</ele>
        <time>2022-10-27T09:59:35.000Z</time>
      </trkpt>
      <trkpt lat="27.921587" lon="86.807283">
        <ele>4590</ele>
        <time>2022-10-27T09:59:37.000Z</time>
      </trkpt>
      <trkpt lat="27.921565" lon="86.807264">
        <ele>4589.6</ele>
        <time>2022-10-27T09:59:39.000Z</time>
      </trkpt>
      <trkpt lat="27.921539" lon="86.807258">
        <ele>4589.2</ele>
        <time>2022-10-27T09:59:42.000Z</time>
      </trkpt>
      <trkpt lat="27.92152" lon="86.807258">
        <ele>4588.8</ele>
        <time>2022-10-27T09:59:44.000Z</time>
      </trkpt>
      <trkpt lat="27.921501" lon="86.807251">
        <ele>4588.6</ele>
        <time>2022-10-27T09:59:46.000Z</time>
      </trkpt>
      <trkpt lat="27.921475" lon="86.807251">
        <ele>4588</ele>
        <time>2022-10-27T09:59:48.000Z</time>
      </trkpt>
      <trkpt lat="27.921456" lon="86.807245">
        <ele>4587.8</ele>
        <time>2022-10-27T09:59:50.000Z</time>
      </trkpt>
      <trkpt lat="27.921437" lon="86.807245">
        <ele>4587.6</ele>
        <time>2022-10-27T09:59:52.000Z</time>
      </trkpt>
      <trkpt lat="27.921414" lon="86.807251">
        <ele>4587</ele>
        <time>2022-10-27T09:59:54.000Z</time>
      </trkpt>
      <trkpt lat="27.921395" lon="86.807245">
        <ele>4586.2</ele>
        <time>2022-10-27T09:59:56.000Z</time>
      </trkpt>
      <trkpt lat="27.921373" lon="86.807251">
        <ele>4585.6</ele>
        <time>2022-10-27T09:59:58.000Z</time>
      </trkpt>
      <trkpt lat="27.921354" lon="86.807251">
        <ele>4585.2</ele>
        <time>2022-10-27T10:00:00.000Z</time>
      </trkpt>
      <trkpt lat="27.921328" lon="86.807258">
        <ele>4584.6</ele>
        <time>2022-10-27T10:00:02.000Z</time>
      </trkpt>
      <trkpt lat="27.921309" lon="86.807251">
        <ele>4584.4</ele>
        <time>2022-10-27T10:00:04.000Z</time>
      </trkpt>
      <trkpt lat="27.921286" lon="86.807245">
        <ele>4583.8</ele>
        <time>2022-10-27T10:00:06.000Z</time>
      </trkpt>
      <trkpt lat="27.921264" lon="86.807238">
        <ele>4583.6</ele>
        <time>2022-10-27T10:00:08.000Z</time>
      </trkpt>
      <trkpt lat="27.921245" lon="86.807226">
        <ele>4583.6</ele>
        <time>2022-10-27T10:00:10.000Z</time>
      </trkpt>
      <trkpt lat="27.921226" lon="86.807219">
        <ele>4582.8</ele>
        <time>2022-10-27T10:00:12.000Z</time>
      </trkpt>
      <trkpt lat="27.921206" lon="86.807219">
        <ele>4582.2</ele>
        <time>2022-10-27T10:00:14.000Z</time>
      </trkpt>
      <trkpt lat="27.921187" lon="86.807219">
        <ele>4582</ele>
        <time>2022-10-27T10:00:16.000Z</time>
      </trkpt>
      <trkpt lat="27.921168" lon="86.807213">
        <ele>4581.6</ele>
        <time>2022-10-27T10:00:18.000Z</time>
      </trkpt>
      <trkpt lat="27.921149" lon="86.807213">
        <ele>4581.2</ele>
        <time>2022-10-27T10:00:20.000Z</time>
      </trkpt>
      <trkpt lat="27.92113" lon="86.807219">
        <ele>4580.6</ele>
        <time>2022-10-27T10:00:22.000Z</time>
      </trkpt>
      <trkpt lat="27.921107" lon="86.807226">
        <ele>4580</ele>
        <time>2022-10-27T10:00:24.000Z</time>
      </trkpt>
      <trkpt lat="27.921088" lon="86.807245">
        <ele>4579.2</ele>
        <time>2022-10-27T10:00:27.000Z</time>
      </trkpt>
      <trkpt lat="27.921062" lon="86.807264">
        <ele>4578.4</ele>
        <time>2022-10-27T10:00:30.000Z</time>
      </trkpt>
      <trkpt lat="27.921056" lon="86.807283">
        <ele>4577.6</ele>
        <time>2022-10-27T10:00:31.000Z</time>
      </trkpt>
      <trkpt lat="27.92103" lon="86.80729">
        <ele>4577.4</ele>
        <time>2022-10-27T10:00:34.000Z</time>
      </trkpt>
      <trkpt lat="27.921005" lon="86.807277">
        <ele>4576.8</ele>
        <time>2022-10-27T10:00:56.000Z</time>
      </trkpt>
      <trkpt lat="27.920989" lon="86.807264">
        <ele>4576.4</ele>
        <time>2022-10-27T10:00:57.000Z</time>
      </trkpt>
      <trkpt lat="27.920963" lon="86.807258">
        <ele>4576</ele>
        <time>2022-10-27T10:00:59.000Z</time>
      </trkpt>
      <trkpt lat="27.920941" lon="86.807251">
        <ele>4575.6</ele>
        <time>2022-10-27T10:01:01.000Z</time>
      </trkpt>
      <trkpt lat="27.920925" lon="86.807238">
        <ele>4575.6</ele>
        <time>2022-10-27T10:01:02.000Z</time>
      </trkpt>
      <trkpt lat="27.920912" lon="86.807219">
        <ele>4575.6</ele>
        <time>2022-10-27T10:01:03.000Z</time>
      </trkpt>
      <trkpt lat="27.920893" lon="86.807206">
        <ele>4574.8</ele>
        <time>2022-10-27T10:01:05.000Z</time>
      </trkpt>
      <trkpt lat="27.92087" lon="86.807187">
        <ele>4574</ele>
        <time>2022-10-27T10:01:07.000Z</time>
      </trkpt>
      <trkpt lat="27.920848" lon="86.807174">
        <ele>4573.6</ele>
        <time>2022-10-27T10:01:10.000Z</time>
      </trkpt>
      <trkpt lat="27.920826" lon="86.807168">
        <ele>4573.4</ele>
        <time>2022-10-27T10:01:12.000Z</time>
      </trkpt>
      <trkpt lat="27.9208" lon="86.807162">
        <ele>4572.6</ele>
        <time>2022-10-27T10:01:14.000Z</time>
      </trkpt>
      <trkpt lat="27.920778" lon="86.807149">
        <ele>4572.2</ele>
        <time>2022-10-27T10:01:16.000Z</time>
      </trkpt>
      <trkpt lat="27.920758" lon="86.807136">
        <ele>4571.6</ele>
        <time>2022-10-27T10:01:18.000Z</time>
      </trkpt>
      <trkpt lat="27.920742" lon="86.807123">
        <ele>4571</ele>
        <time>2022-10-27T10:01:20.000Z</time>
      </trkpt>
      <trkpt lat="27.920723" lon="86.807104">
        <ele>4570.8</ele>
        <time>2022-10-27T10:01:22.000Z</time>
      </trkpt>
      <trkpt lat="27.920701" lon="86.807098">
        <ele>4570.2</ele>
        <time>2022-10-27T10:01:24.000Z</time>
      </trkpt>
      <trkpt lat="27.920685" lon="86.807085">
        <ele>4569.8</ele>
        <time>2022-10-27T10:01:26.000Z</time>
      </trkpt>
      <trkpt lat="27.920678" lon="86.807066">
        <ele>4569.4</ele>
        <time>2022-10-27T10:01:27.000Z</time>
      </trkpt>
      <trkpt lat="27.920656" lon="86.807059">
        <ele>4569.4</ele>
        <time>2022-10-27T10:01:29.000Z</time>
      </trkpt>
      <trkpt lat="27.920637" lon="86.807046">
        <ele>4569.2</ele>
        <time>2022-10-27T10:01:31.000Z</time>
      </trkpt>
      <trkpt lat="27.920618" lon="86.807027">
        <ele>4568.4</ele>
        <time>2022-10-27T10:01:33.000Z</time>
      </trkpt>
      <trkpt lat="27.920598" lon="86.807014">
        <ele>4567.8</ele>
        <time>2022-10-27T10:01:35.000Z</time>
      </trkpt>
      <trkpt lat="27.920579" lon="86.807008">
        <ele>4567</ele>
        <time>2022-10-27T10:01:37.000Z</time>
      </trkpt>
      <trkpt lat="27.92055" lon="86.807002">
        <ele>4567</ele>
        <time>2022-10-27T10:01:39.000Z</time>
      </trkpt>
      <trkpt lat="27.920528" lon="86.807002">
        <ele>4566.6</ele>
        <time>2022-10-27T10:01:41.000Z</time>
      </trkpt>
      <trkpt lat="27.920506" lon="86.807002">
        <ele>4566.2</ele>
        <time>2022-10-27T10:01:43.000Z</time>
      </trkpt>
      <trkpt lat="27.920483" lon="86.806989">
        <ele>4565.8</ele>
        <time>2022-10-27T10:01:45.000Z</time>
      </trkpt>
      <trkpt lat="27.920454" lon="86.806989">
        <ele>4565.8</ele>
        <time>2022-10-27T10:01:47.000Z</time>
      </trkpt>
      <trkpt lat="27.920429" lon="86.806989">
        <ele>4565.2</ele>
        <time>2022-10-27T10:01:49.000Z</time>
      </trkpt>
      <trkpt lat="27.92041" lon="86.806976">
        <ele>4564.8</ele>
        <time>2022-10-27T10:01:51.000Z</time>
      </trkpt>
      <trkpt lat="27.92039" lon="86.806976">
        <ele>4564.2</ele>
        <time>2022-10-27T10:01:53.000Z</time>
      </trkpt>
      <trkpt lat="27.920368" lon="86.80697">
        <ele>4564</ele>
        <time>2022-10-27T10:01:55.000Z</time>
      </trkpt>
      <trkpt lat="27.920352" lon="86.806944">
        <ele>4563.4</ele>
        <time>2022-10-27T10:01:57.000Z</time>
      </trkpt>
      <trkpt lat="27.920336" lon="86.806925">
        <ele>4562.6</ele>
        <time>2022-10-27T10:01:59.000Z</time>
      </trkpt>
      <trkpt lat="27.920314" lon="86.806925">
        <ele>4562.4</ele>
        <time>2022-10-27T10:02:01.000Z</time>
      </trkpt>
      <trkpt lat="27.920291" lon="86.806925">
        <ele>4562.6</ele>
        <time>2022-10-27T10:02:03.000Z</time>
      </trkpt>
      <trkpt lat="27.920269" lon="86.806918">
        <ele>4562</ele>
        <time>2022-10-27T10:02:05.000Z</time>
      </trkpt>
      <trkpt lat="27.920246" lon="86.806906">
        <ele>4561.8</ele>
        <time>2022-10-27T10:02:07.000Z</time>
      </trkpt>
      <trkpt lat="27.920221" lon="86.806893">
        <ele>4561</ele>
        <time>2022-10-27T10:02:09.000Z</time>
      </trkpt>
      <trkpt lat="27.920195" lon="86.806886">
        <ele>4560.8</ele>
        <time>2022-10-27T10:02:11.000Z</time>
      </trkpt>
      <trkpt lat="27.920176" lon="86.80688">
        <ele>4560</ele>
        <time>2022-10-27T10:02:13.000Z</time>
      </trkpt>
      <trkpt lat="27.920157" lon="86.806867">
        <ele>4559.6</ele>
        <time>2022-10-27T10:02:16.000Z</time>
      </trkpt>
      <trkpt lat="27.920138" lon="86.806867">
        <ele>4559.4</ele>
        <time>2022-10-27T10:02:18.000Z</time>
      </trkpt>
      <trkpt lat="27.920115" lon="86.806867">
        <ele>4558.6</ele>
        <time>2022-10-27T10:02:20.000Z</time>
      </trkpt>
      <trkpt lat="27.920093" lon="86.806861">
        <ele>4558.4</ele>
        <time>2022-10-27T10:02:22.000Z</time>
      </trkpt>
      <trkpt lat="27.920074" lon="86.806854">
        <ele>4557.8</ele>
        <time>2022-10-27T10:02:24.000Z</time>
      </trkpt>
      <trkpt lat="27.920054" lon="86.806848">
        <ele>4557.2</ele>
        <time>2022-10-27T10:02:26.000Z</time>
      </trkpt>
      <trkpt lat="27.920032" lon="86.806842">
        <ele>4556.8</ele>
        <time>2022-10-27T10:02:28.000Z</time>
      </trkpt>
      <trkpt lat="27.920016" lon="86.806822">
        <ele>4556.4</ele>
        <time>2022-10-27T10:02:30.000Z</time>
      </trkpt>
      <trkpt lat="27.919997" lon="86.80681">
        <ele>4556.4</ele>
        <time>2022-10-27T10:02:32.000Z</time>
      </trkpt>
      <trkpt lat="27.919984" lon="86.80679">
        <ele>4555.6</ele>
        <time>2022-10-27T10:02:34.000Z</time>
      </trkpt>
      <trkpt lat="27.919955" lon="86.806784">
        <ele>4555.4</ele>
        <time>2022-10-27T10:02:37.000Z</time>
      </trkpt>
      <trkpt lat="27.919936" lon="86.806771">
        <ele>4554.8</ele>
        <time>2022-10-27T10:02:39.000Z</time>
      </trkpt>
      <trkpt lat="27.919917" lon="86.806771">
        <ele>4554.8</ele>
        <time>2022-10-27T10:02:41.000Z</time>
      </trkpt>
      <trkpt lat="27.919894" lon="86.806765">
        <ele>4554.8</ele>
        <time>2022-10-27T10:02:43.000Z</time>
      </trkpt>
      <trkpt lat="27.919875" lon="86.806765">
        <ele>4554.2</ele>
        <time>2022-10-27T10:02:45.000Z</time>
      </trkpt>
      <trkpt lat="27.919853" lon="86.806752">
        <ele>4553.8</ele>
        <time>2022-10-27T10:02:47.000Z</time>
      </trkpt>
      <trkpt lat="27.919834" lon="86.806746">
        <ele>4553.8</ele>
        <time>2022-10-27T10:02:49.000Z</time>
      </trkpt>
      <trkpt lat="27.919814" lon="86.806739">
        <ele>4553.2</ele>
        <time>2022-10-27T10:02:51.000Z</time>
      </trkpt>
      <trkpt lat="27.919792" lon="86.806733">
        <ele>4552.6</ele>
        <time>2022-10-27T10:02:53.000Z</time>
      </trkpt>
      <trkpt lat="27.91977" lon="86.806733">
        <ele>4552.4</ele>
        <time>2022-10-27T10:02:55.000Z</time>
      </trkpt>
      <trkpt lat="27.91975" lon="86.806739">
        <ele>4551.8</ele>
        <time>2022-10-27T10:02:58.000Z</time>
      </trkpt>
      <trkpt lat="27.919728" lon="86.806746">
        <ele>4551.6</ele>
        <time>2022-10-27T10:03:00.000Z</time>
      </trkpt>
      <trkpt lat="27.919706" lon="86.806746">
        <ele>4551.4</ele>
        <time>2022-10-27T10:03:02.000Z</time>
      </trkpt>
      <trkpt lat="27.91968" lon="86.806746">
        <ele>4550.8</ele>
        <time>2022-10-27T10:03:05.000Z</time>
      </trkpt>
      <trkpt lat="27.919664" lon="86.806726">
        <ele>4550.2</ele>
        <time>2022-10-27T10:03:08.000Z</time>
      </trkpt>
      <trkpt lat="27.919635" lon="86.806707">
        <ele>4549.8</ele>
        <time>2022-10-27T10:03:11.000Z</time>
      </trkpt>
      <trkpt lat="27.919616" lon="86.80672">
        <ele>4549.8</ele>
        <time>2022-10-27T10:03:14.000Z</time>
      </trkpt>
      <trkpt lat="27.91959" lon="86.80672">
        <ele>4549</ele>
        <time>2022-10-27T10:03:16.000Z</time>
      </trkpt>
      <trkpt lat="27.919571" lon="86.80672">
        <ele>4547.8</ele>
        <time>2022-10-27T10:03:19.000Z</time>
      </trkpt>
      <trkpt lat="27.919555" lon="86.806701">
        <ele>4546.8</ele>
        <time>2022-10-27T10:04:08.000Z</time>
      </trkpt>
      <trkpt lat="27.919539" lon="86.806682">
        <ele>4546.4</ele>
        <time>2022-10-27T10:04:12.000Z</time>
      </trkpt>
      <trkpt lat="27.919526" lon="86.806656">
        <ele>4546</ele>
        <time>2022-10-27T10:04:14.000Z</time>
      </trkpt>
      <trkpt lat="27.91951" lon="86.806643">
        <ele>4545.4</ele>
        <time>2022-10-27T10:04:16.000Z</time>
      </trkpt>
      <trkpt lat="27.919498" lon="86.806624">
        <ele>4545.4</ele>
        <time>2022-10-27T10:04:18.000Z</time>
      </trkpt>
      <trkpt lat="27.919478" lon="86.806618">
        <ele>4544</ele>
        <time>2022-10-27T10:04:22.000Z</time>
      </trkpt>
      <trkpt lat="27.91945" lon="86.806624">
        <ele>4544</ele>
        <time>2022-10-27T10:04:25.000Z</time>
      </trkpt>
      <trkpt lat="27.91943" lon="86.806618">
        <ele>4543.6</ele>
        <time>2022-10-27T10:04:27.000Z</time>
      </trkpt>
      <trkpt lat="27.919411" lon="86.806618">
        <ele>4542.8</ele>
        <time>2022-10-27T10:04:30.000Z</time>
      </trkpt>
      <trkpt lat="27.919392" lon="86.806618">
        <ele>4542.8</ele>
        <time>2022-10-27T10:04:32.000Z</time>
      </trkpt>
      <trkpt lat="27.919366" lon="86.806618">
        <ele>4542.8</ele>
        <time>2022-10-27T10:04:35.000Z</time>
      </trkpt>
      <trkpt lat="27.919347" lon="86.806605">
        <ele>4542.4</ele>
        <time>2022-10-27T10:04:37.000Z</time>
      </trkpt>
      <trkpt lat="27.919331" lon="86.806592">
        <ele>4542</ele>
        <time>2022-10-27T10:04:39.000Z</time>
      </trkpt>
      <trkpt lat="27.919306" lon="86.806586">
        <ele>4541.4</ele>
        <time>2022-10-27T10:04:42.000Z</time>
      </trkpt>
      <trkpt lat="27.91928" lon="86.806579">
        <ele>4541.2</ele>
        <time>2022-10-27T10:04:45.000Z</time>
      </trkpt>
      <trkpt lat="27.919258" lon="86.806573">
        <ele>4540</ele>
        <time>2022-10-27T10:04:48.000Z</time>
      </trkpt>
      <trkpt lat="27.919238" lon="86.806554">
        <ele>4539.8</ele>
        <time>2022-10-27T10:04:50.000Z</time>
      </trkpt>
      <trkpt lat="27.919213" lon="86.806547">
        <ele>4539</ele>
        <time>2022-10-27T10:04:53.000Z</time>
      </trkpt>
      <trkpt lat="27.919194" lon="86.806541">
        <ele>4539</ele>
        <time>2022-10-27T10:04:55.000Z</time>
      </trkpt>
      <trkpt lat="27.919174" lon="86.806534">
        <ele>4538.4</ele>
        <time>2022-10-27T10:04:57.000Z</time>
      </trkpt>
      <trkpt lat="27.919158" lon="86.806509">
        <ele>4538</ele>
        <time>2022-10-27T10:04:59.000Z</time>
      </trkpt>
      <trkpt lat="27.919139" lon="86.806496">
        <ele>4538</ele>
        <time>2022-10-27T10:05:02.000Z</time>
      </trkpt>
      <trkpt lat="27.91912" lon="86.806496">
        <ele>4537.4</ele>
        <time>2022-10-27T10:05:05.000Z</time>
      </trkpt>
      <trkpt lat="27.919101" lon="86.806496">
        <ele>4536.8</ele>
        <time>2022-10-27T10:05:08.000Z</time>
      </trkpt>
      <trkpt lat="27.919082" lon="86.80649">
        <ele>4535.8</ele>
        <time>2022-10-27T10:05:11.000Z</time>
      </trkpt>
      <trkpt lat="27.919053" lon="86.806496">
        <ele>4535.8</ele>
        <time>2022-10-27T10:05:14.000Z</time>
      </trkpt>
      <trkpt lat="27.919034" lon="86.80649">
        <ele>4535.4</ele>
        <time>2022-10-27T10:05:16.000Z</time>
      </trkpt>
      <trkpt lat="27.919024" lon="86.806464">
        <ele>4535</ele>
        <time>2022-10-27T10:05:18.000Z</time>
      </trkpt>
      <trkpt lat="27.919002" lon="86.806451">
        <ele>4534.2</ele>
        <time>2022-10-27T10:05:22.000Z</time>
      </trkpt>
      <trkpt lat="27.918989" lon="86.806432">
        <ele>4534</ele>
        <time>2022-10-27T10:05:24.000Z</time>
      </trkpt>
      <trkpt lat="27.918963" lon="86.806426">
        <ele>4533.8</ele>
        <time>2022-10-27T10:05:28.000Z</time>
      </trkpt>
      <trkpt lat="27.918944" lon="86.806426">
        <ele>4533.2</ele>
        <time>2022-10-27T10:05:31.000Z</time>
      </trkpt>
      <trkpt lat="27.918925" lon="86.806419">
        <ele>4532.4</ele>
        <time>2022-10-27T10:05:34.000Z</time>
      </trkpt>
      <trkpt lat="27.918906" lon="86.806406">
        <ele>4531.8</ele>
        <time>2022-10-27T10:05:38.000Z</time>
      </trkpt>
      <trkpt lat="27.918886" lon="86.806381">
        <ele>4531.4</ele>
        <time>2022-10-27T10:05:40.000Z</time>
      </trkpt>
      <trkpt lat="27.91887" lon="86.806355">
        <ele>4530.8</ele>
        <time>2022-10-27T10:05:42.000Z</time>
      </trkpt>
      <trkpt lat="27.918845" lon="86.806336">
        <ele>4529.8</ele>
        <time>2022-10-27T10:05:45.000Z</time>
      </trkpt>
      <trkpt lat="27.918826" lon="86.806323">
        <ele>4529.6</ele>
        <time>2022-10-27T10:05:47.000Z</time>
      </trkpt>
      <trkpt lat="27.918806" lon="86.806304">
        <ele>4529.4</ele>
        <time>2022-10-27T10:05:49.000Z</time>
      </trkpt>
      <trkpt lat="27.91879" lon="86.806291">
        <ele>4528.6</ele>
        <time>2022-10-27T10:05:51.000Z</time>
      </trkpt>
      <trkpt lat="27.918765" lon="86.806285">
        <ele>4528.4</ele>
        <time>2022-10-27T10:05:54.000Z</time>
      </trkpt>
      <trkpt lat="27.918739" lon="86.806266">
        <ele>4527.4</ele>
        <time>2022-10-27T10:05:57.000Z</time>
      </trkpt>
      <trkpt lat="27.91872" lon="86.806253">
        <ele>4527.2</ele>
        <time>2022-10-27T10:05:59.000Z</time>
      </trkpt>
      <trkpt lat="27.918694" lon="86.806234">
        <ele>4526.6</ele>
        <time>2022-10-27T10:06:02.000Z</time>
      </trkpt>
      <trkpt lat="27.918672" lon="86.806227">
        <ele>4526.2</ele>
        <time>2022-10-27T10:06:04.000Z</time>
      </trkpt>
      <trkpt lat="27.918656" lon="86.806214">
        <ele>4525.6</ele>
        <time>2022-10-27T10:06:06.000Z</time>
      </trkpt>
      <trkpt lat="27.918643" lon="86.806195">
        <ele>4525.4</ele>
        <time>2022-10-27T10:06:08.000Z</time>
      </trkpt>
      <trkpt lat="27.918624" lon="86.806176">
        <ele>4525</ele>
        <time>2022-10-27T10:06:10.000Z</time>
      </trkpt>
      <trkpt lat="27.918614" lon="86.806157">
        <ele>4524.8</ele>
        <time>2022-10-27T10:06:11.000Z</time>
      </trkpt>
      <trkpt lat="27.918598" lon="86.806144">
        <ele>4524.8</ele>
        <time>2022-10-27T10:06:13.000Z</time>
      </trkpt>
      <trkpt lat="27.918579" lon="86.806138">
        <ele>4524.2</ele>
        <time>2022-10-27T10:06:15.000Z</time>
      </trkpt>
      <trkpt lat="27.91856" lon="86.806131">
        <ele>4524</ele>
        <time>2022-10-27T10:06:18.000Z</time>
      </trkpt>
      <trkpt lat="27.918541" lon="86.806125">
        <ele>4523.2</ele>
        <time>2022-10-27T10:06:22.000Z</time>
      </trkpt>
      <trkpt lat="27.918528" lon="86.806106">
        <ele>4522.6</ele>
        <time>2022-10-27T10:06:24.000Z</time>
      </trkpt>
      <trkpt lat="27.918502" lon="86.806099">
        <ele>4522.2</ele>
        <time>2022-10-27T10:06:28.000Z</time>
      </trkpt>
      <trkpt lat="27.918483" lon="86.806086">
        <ele>4522</ele>
        <time>2022-10-27T10:06:30.000Z</time>
      </trkpt>
      <trkpt lat="27.918477" lon="86.806054">
        <ele>4520.6</ele>
        <time>2022-10-27T10:06:33.000Z</time>
      </trkpt>
      <trkpt lat="27.918454" lon="86.806035">
        <ele>4520.6</ele>
        <time>2022-10-27T10:06:36.000Z</time>
      </trkpt>
      <trkpt lat="27.918435" lon="86.806029">
        <ele>4519.8</ele>
        <time>2022-10-27T10:06:39.000Z</time>
      </trkpt>
      <trkpt lat="27.918416" lon="86.80601">
        <ele>4518.8</ele>
        <time>2022-10-27T10:06:42.000Z</time>
      </trkpt>
      <trkpt lat="27.918413" lon="86.805984">
        <ele>4518.2</ele>
        <time>2022-10-27T10:06:45.000Z</time>
      </trkpt>
      <trkpt lat="27.91841" lon="86.805952">
        <ele>4517.4</ele>
        <time>2022-10-27T10:06:48.000Z</time>
      </trkpt>
      <trkpt lat="27.91839" lon="86.805939">
        <ele>4517</ele>
        <time>2022-10-27T10:06:52.000Z</time>
      </trkpt>
      <trkpt lat="27.918368" lon="86.805926">
        <ele>4515.4</ele>
        <time>2022-10-27T10:06:56.000Z</time>
      </trkpt>
      <trkpt lat="27.918358" lon="86.805907">
        <ele>4515.2</ele>
        <time>2022-10-27T10:06:58.000Z</time>
      </trkpt>
      <trkpt lat="27.918339" lon="86.805888">
        <ele>4514.6</ele>
        <time>2022-10-27T10:07:01.000Z</time>
      </trkpt>
      <trkpt lat="27.91833" lon="86.805869">
        <ele>4514</ele>
        <time>2022-10-27T10:07:03.000Z</time>
      </trkpt>
      <trkpt lat="27.918298" lon="86.805875">
        <ele>4512.4</ele>
        <time>2022-10-27T10:07:23.000Z</time>
      </trkpt>
      <trkpt lat="27.918275" lon="86.805875">
        <ele>4511.8</ele>
        <time>2022-10-27T10:07:25.000Z</time>
      </trkpt>
      <trkpt lat="27.918259" lon="86.805888">
        <ele>4511.6</ele>
        <time>2022-10-27T10:07:27.000Z</time>
      </trkpt>
      <trkpt lat="27.918234" lon="86.805888">
        <ele>4511</ele>
        <time>2022-10-27T10:07:30.000Z</time>
      </trkpt>
      <trkpt lat="27.918214" lon="86.805894">
        <ele>4510.2</ele>
        <time>2022-10-27T10:07:32.000Z</time>
      </trkpt>
      <trkpt lat="27.918195" lon="86.805888">
        <ele>4509.4</ele>
        <time>2022-10-27T10:07:35.000Z</time>
      </trkpt>
      <trkpt lat="27.918189" lon="86.805869">
        <ele>4509.4</ele>
        <time>2022-10-27T10:07:36.000Z</time>
      </trkpt>
      <trkpt lat="27.91817" lon="86.805862">
        <ele>4509.2</ele>
        <time>2022-10-27T10:07:39.000Z</time>
      </trkpt>
      <trkpt lat="27.91815" lon="86.805862">
        <ele>4508.4</ele>
        <time>2022-10-27T10:07:42.000Z</time>
      </trkpt>
      <trkpt lat="27.918131" lon="86.80585">
        <ele>4508.2</ele>
        <time>2022-10-27T10:07:44.000Z</time>
      </trkpt>
      <trkpt lat="27.918109" lon="86.805856">
        <ele>4507.8</ele>
        <time>2022-10-27T10:07:46.000Z</time>
      </trkpt>
      <trkpt lat="27.91809" lon="86.805856">
        <ele>4507.8</ele>
        <time>2022-10-27T10:07:48.000Z</time>
      </trkpt>
      <trkpt lat="27.91807" lon="86.80585">
        <ele>4507.8</ele>
        <time>2022-10-27T10:07:50.000Z</time>
      </trkpt>
      <trkpt lat="27.918051" lon="86.805837">
        <ele>4507</ele>
        <time>2022-10-27T10:07:52.000Z</time>
      </trkpt>
      <trkpt lat="27.918032" lon="86.80583">
        <ele>4506.4</ele>
        <time>2022-10-27T10:07:54.000Z</time>
      </trkpt>
      <trkpt lat="27.918022" lon="86.805798">
        <ele>4506.2</ele>
        <time>2022-10-27T10:07:57.000Z</time>
      </trkpt>
      <trkpt lat="27.918029" lon="86.805773">
        <ele>4504.8</ele>
        <time>2022-10-27T10:08:01.000Z</time>
      </trkpt>
      <trkpt lat="27.918003" lon="86.805779">
        <ele>4504.8</ele>
        <time>2022-10-27T10:08:04.000Z</time>
      </trkpt>
      <trkpt lat="27.917984" lon="86.805766">
        <ele>4504.2</ele>
        <time>2022-10-27T10:08:07.000Z</time>
      </trkpt>
      <trkpt lat="27.917968" lon="86.805754">
        <ele>4503.4</ele>
        <time>2022-10-27T10:08:09.000Z</time>
      </trkpt>
      <trkpt lat="27.917949" lon="86.805747">
        <ele>4503</ele>
        <time>2022-10-27T10:08:11.000Z</time>
      </trkpt>
      <trkpt lat="27.91793" lon="86.805734">
        <ele>4501.8</ele>
        <time>2022-10-27T10:08:14.000Z</time>
      </trkpt>
      <trkpt lat="27.917907" lon="86.805734">
        <ele>4501.4</ele>
        <time>2022-10-27T10:08:16.000Z</time>
      </trkpt>
      <trkpt lat="27.917888" lon="86.805715">
        <ele>4500.8</ele>
        <time>2022-10-27T10:08:19.000Z</time>
      </trkpt>
      <trkpt lat="27.917869" lon="86.805715">
        <ele>4499.8</ele>
        <time>2022-10-27T10:08:22.000Z</time>
      </trkpt>
      <trkpt lat="27.917846" lon="86.805715">
        <ele>4500.2</ele>
        <time>2022-10-27T10:08:25.000Z</time>
      </trkpt>
      <trkpt lat="27.917827" lon="86.805709">
        <ele>4498.6</ele>
        <time>2022-10-27T10:08:30.000Z</time>
      </trkpt>
      <trkpt lat="27.917811" lon="86.805696">
        <ele>4497.8</ele>
        <time>2022-10-27T10:08:34.000Z</time>
      </trkpt>
      <trkpt lat="27.917795" lon="86.80567">
        <ele>4497</ele>
        <time>2022-10-27T10:08:38.000Z</time>
      </trkpt>
      <trkpt lat="27.917779" lon="86.805658">
        <ele>4496</ele>
        <time>2022-10-27T10:08:42.000Z</time>
      </trkpt>
      <trkpt lat="27.917773" lon="86.805638">
        <ele>4495.6</ele>
        <time>2022-10-27T10:08:45.000Z</time>
      </trkpt>
      <trkpt lat="27.917763" lon="86.805619">
        <ele>4494.4</ele>
        <time>2022-10-27T10:08:49.000Z</time>
      </trkpt>
      <trkpt lat="27.917741" lon="86.805626">
        <ele>4494.2</ele>
        <time>2022-10-27T10:08:53.000Z</time>
      </trkpt>
      <trkpt lat="27.917718" lon="86.805626">
        <ele>4493.8</ele>
        <time>2022-10-27T10:08:56.000Z</time>
      </trkpt>
      <trkpt lat="27.917696" lon="86.805626">
        <ele>4493</ele>
        <time>2022-10-27T10:09:00.000Z</time>
      </trkpt>
      <trkpt lat="27.91767" lon="86.805626">
        <ele>4492</ele>
        <time>2022-10-27T10:09:04.000Z</time>
      </trkpt>
      <trkpt lat="27.917648" lon="86.805632">
        <ele>4491.4</ele>
        <time>2022-10-27T10:09:08.000Z</time>
      </trkpt>
      <trkpt lat="27.917629" lon="86.805619">
        <ele>4490.4</ele>
        <time>2022-10-27T10:09:14.000Z</time>
      </trkpt>
      <trkpt lat="27.91761" lon="86.805613">
        <ele>4489.6</ele>
        <time>2022-10-27T10:09:17.000Z</time>
      </trkpt>
      <trkpt lat="27.917584" lon="86.8056">
        <ele>4488.8</ele>
        <time>2022-10-27T10:09:20.000Z</time>
      </trkpt>
      <trkpt lat="27.917562" lon="86.8056">
        <ele>4487.8</ele>
        <time>2022-10-27T10:09:23.000Z</time>
      </trkpt>
      <trkpt lat="27.917539" lon="86.805594">
        <ele>4487.2</ele>
        <time>2022-10-27T10:09:26.000Z</time>
      </trkpt>
      <trkpt lat="27.917523" lon="86.805581">
        <ele>4486.8</ele>
        <time>2022-10-27T10:09:29.000Z</time>
      </trkpt>
      <trkpt lat="27.917504" lon="86.805581">
        <ele>4486.2</ele>
        <time>2022-10-27T10:09:33.000Z</time>
      </trkpt>
      <trkpt lat="27.917485" lon="86.805568">
        <ele>4485.4</ele>
        <time>2022-10-27T10:09:37.000Z</time>
      </trkpt>
      <trkpt lat="27.917466" lon="86.805574">
        <ele>4485.2</ele>
        <time>2022-10-27T10:09:40.000Z</time>
      </trkpt>
      <trkpt lat="27.917443" lon="86.805581">
        <ele>4484.6</ele>
        <time>2022-10-27T10:09:44.000Z</time>
      </trkpt>
      <trkpt lat="27.917424" lon="86.805568">
        <ele>4484.2</ele>
        <time>2022-10-27T10:09:52.000Z</time>
      </trkpt>
      <trkpt lat="27.917405" lon="86.805555">
        <ele>4483.4</ele>
        <time>2022-10-27T10:09:56.000Z</time>
      </trkpt>
      <trkpt lat="27.917386" lon="86.805549">
        <ele>4482.8</ele>
        <time>2022-10-27T10:10:01.000Z</time>
      </trkpt>
      <trkpt lat="27.917366" lon="86.805542">
        <ele>4481.8</ele>
        <time>2022-10-27T10:10:06.000Z</time>
      </trkpt>
      <trkpt lat="27.917344" lon="86.805549">
        <ele>4481.6</ele>
        <time>2022-10-27T10:10:09.000Z</time>
      </trkpt>
      <trkpt lat="27.917322" lon="86.805549">
        <ele>4481</ele>
        <time>2022-10-27T10:10:13.000Z</time>
      </trkpt>
      <trkpt lat="27.917302" lon="86.805542">
        <ele>4480</ele>
        <time>2022-10-27T10:10:17.000Z</time>
      </trkpt>
      <trkpt lat="27.917283" lon="86.805542">
        <ele>4479</ele>
        <time>2022-10-27T10:10:22.000Z</time>
      </trkpt>
      <trkpt lat="27.917264" lon="86.805542">
        <ele>4478.6</ele>
        <time>2022-10-27T10:10:25.000Z</time>
      </trkpt>
      <trkpt lat="27.917245" lon="86.80553">
        <ele>4477.8</ele>
        <time>2022-10-27T10:10:29.000Z</time>
      </trkpt>
      <trkpt lat="27.917245" lon="86.805504">
        <ele>4476.6</ele>
        <time>2022-10-27T10:10:33.000Z</time>
      </trkpt>
      <trkpt lat="27.917222" lon="86.805504">
        <ele>4476</ele>
        <time>2022-10-27T10:10:39.000Z</time>
      </trkpt>
      <trkpt lat="27.917206" lon="86.805517">
        <ele>4475.4</ele>
        <time>2022-10-27T10:10:41.000Z</time>
      </trkpt>
      <trkpt lat="27.917187" lon="86.805504">
        <ele>4471.2</ele>
        <time>2022-10-27T10:11:26.000Z</time>
      </trkpt>
      <trkpt lat="27.917181" lon="86.805472">
        <ele>4470.8</ele>
        <time>2022-10-27T10:11:29.000Z</time>
      </trkpt>
      <trkpt lat="27.917171" lon="86.805453">
        <ele>4470.2</ele>
        <time>2022-10-27T10:11:33.000Z</time>
      </trkpt>
      <trkpt lat="27.917152" lon="86.805453">
        <ele>4468</ele>
        <time>2022-10-27T10:11:49.000Z</time>
      </trkpt>
      <trkpt lat="27.917133" lon="86.805472">
        <ele>4467.6</ele>
        <time>2022-10-27T10:11:51.000Z</time>
      </trkpt>
      <trkpt lat="27.91711" lon="86.805491">
        <ele>4467.8</ele>
        <time>2022-10-27T10:11:53.000Z</time>
      </trkpt>
      <trkpt lat="27.917085" lon="86.805498">
        <ele>4467.6</ele>
        <time>2022-10-27T10:11:55.000Z</time>
      </trkpt>
      <trkpt lat="27.917053" lon="86.805498">
        <ele>4467</ele>
        <time>2022-10-27T10:11:57.000Z</time>
      </trkpt>
      <trkpt lat="27.91703" lon="86.805498">
        <ele>4466</ele>
        <time>2022-10-27T10:12:00.000Z</time>
      </trkpt>
      <trkpt lat="27.917011" lon="86.805504">
        <ele>4465.6</ele>
        <time>2022-10-27T10:12:09.000Z</time>
      </trkpt>
      <trkpt lat="27.916995" lon="86.805517">
        <ele>4464.4</ele>
        <time>2022-10-27T10:12:30.000Z</time>
      </trkpt>
      <trkpt lat="27.916973" lon="86.805536">
        <ele>4464</ele>
        <time>2022-10-27T10:12:32.000Z</time>
      </trkpt>
      <trkpt lat="27.916954" lon="86.805549">
        <ele>4463.8</ele>
        <time>2022-10-27T10:12:34.000Z</time>
      </trkpt>
      <trkpt lat="27.916941" lon="86.805568">
        <ele>4463.6</ele>
        <time>2022-10-27T10:12:46.000Z</time>
      </trkpt>
      <trkpt lat="27.916918" lon="86.805574">
        <ele>4461.8</ele>
        <time>2022-10-27T10:13:06.000Z</time>
      </trkpt>
      <trkpt lat="27.91689" lon="86.805587">
        <ele>4461.8</ele>
        <time>2022-10-27T10:13:08.000Z</time>
      </trkpt>
      <trkpt lat="27.916861" lon="86.8056">
        <ele>4461.2</ele>
        <time>2022-10-27T10:13:10.000Z</time>
      </trkpt>
      <trkpt lat="27.916829" lon="86.805613">
        <ele>4461.2</ele>
        <time>2022-10-27T10:13:12.000Z</time>
      </trkpt>
      <trkpt lat="27.916797" lon="86.805619">
        <ele>4460.6</ele>
        <time>2022-10-27T10:13:14.000Z</time>
      </trkpt>
      <trkpt lat="27.916774" lon="86.805613">
        <ele>4460.2</ele>
        <time>2022-10-27T10:13:17.000Z</time>
      </trkpt>
      <trkpt lat="27.916752" lon="86.805619">
        <ele>4459.6</ele>
        <time>2022-10-27T10:13:20.000Z</time>
      </trkpt>
      <trkpt lat="27.916736" lon="86.805632">
        <ele>4459.4</ele>
        <time>2022-10-27T10:13:23.000Z</time>
      </trkpt>
      <trkpt lat="27.916717" lon="86.805651">
        <ele>4459.2</ele>
        <time>2022-10-27T10:13:25.000Z</time>
      </trkpt>
      <trkpt lat="27.916698" lon="86.805658">
        <ele>4458.6</ele>
        <time>2022-10-27T10:13:28.000Z</time>
      </trkpt>
      <trkpt lat="27.916678" lon="86.805658">
        <ele>4458.4</ele>
        <time>2022-10-27T10:13:34.000Z</time>
      </trkpt>
      <trkpt lat="27.916659" lon="86.805638">
        <ele>4457.8</ele>
        <time>2022-10-27T10:13:38.000Z</time>
      </trkpt>
      <trkpt lat="27.916637" lon="86.805638">
        <ele>4457.2</ele>
        <time>2022-10-27T10:13:41.000Z</time>
      </trkpt>
      <trkpt lat="27.916618" lon="86.805638">
        <ele>4456.8</ele>
        <time>2022-10-27T10:13:43.000Z</time>
      </trkpt>
      <trkpt lat="27.916598" lon="86.805632">
        <ele>4456.8</ele>
        <time>2022-10-27T10:13:46.000Z</time>
      </trkpt>
      <trkpt lat="27.916579" lon="86.805632">
        <ele>4456.6</ele>
        <time>2022-10-27T10:13:49.000Z</time>
      </trkpt>
      <trkpt lat="27.916563" lon="86.805651">
        <ele>4456.2</ele>
        <time>2022-10-27T10:13:53.000Z</time>
      </trkpt>
      <trkpt lat="27.916541" lon="86.805664">
        <ele>4455.2</ele>
        <time>2022-10-27T10:14:01.000Z</time>
      </trkpt>
      <trkpt lat="27.916525" lon="86.805677">
        <ele>4455.2</ele>
        <time>2022-10-27T10:14:04.000Z</time>
      </trkpt>
      <trkpt lat="27.916509" lon="86.80569">
        <ele>4454.6</ele>
        <time>2022-10-27T10:14:07.000Z</time>
      </trkpt>
      <trkpt lat="27.91649" lon="86.805709">
        <ele>4453.8</ele>
        <time>2022-10-27T10:14:11.000Z</time>
      </trkpt>
      <trkpt lat="27.916467" lon="86.805709">
        <ele>4453.2</ele>
        <time>2022-10-27T10:14:14.000Z</time>
      </trkpt>
      <trkpt lat="27.916438" lon="86.805702">
        <ele>4452.8</ele>
        <time>2022-10-27T10:14:17.000Z</time>
      </trkpt>
      <trkpt lat="27.916419" lon="86.805702">
        <ele>4452</ele>
        <time>2022-10-27T10:14:21.000Z</time>
      </trkpt>
      <trkpt lat="27.9164" lon="86.805709">
        <ele>4452</ele>
        <time>2022-10-27T10:14:24.000Z</time>
      </trkpt>
      <trkpt lat="27.916394" lon="86.805728">
        <ele>4451.8</ele>
        <time>2022-10-27T10:14:26.000Z</time>
      </trkpt>
      <trkpt lat="27.916384" lon="86.805747">
        <ele>4451.8</ele>
        <time>2022-10-27T10:14:30.000Z</time>
      </trkpt>
      <trkpt lat="27.916378" lon="86.805766">
        <ele>4451.2</ele>
        <time>2022-10-27T10:14:32.000Z</time>
      </trkpt>
      <trkpt lat="27.916355" lon="86.805766">
        <ele>4450.4</ele>
        <time>2022-10-27T10:14:35.000Z</time>
      </trkpt>
      <trkpt lat="27.916333" lon="86.805766">
        <ele>4450.2</ele>
        <time>2022-10-27T10:14:37.000Z</time>
      </trkpt>
      <trkpt lat="27.916314" lon="86.805773">
        <ele>4450</ele>
        <time>2022-10-27T10:14:40.000Z</time>
      </trkpt>
      <trkpt lat="27.916291" lon="86.805766">
        <ele>4449.6</ele>
        <time>2022-10-27T10:14:43.000Z</time>
      </trkpt>
      <trkpt lat="27.916275" lon="86.805754">
        <ele>4449.2</ele>
        <time>2022-10-27T10:14:47.000Z</time>
      </trkpt>
      <trkpt lat="27.916256" lon="86.805766">
        <ele>4448.8</ele>
        <time>2022-10-27T10:14:50.000Z</time>
      </trkpt>
      <trkpt lat="27.91624" lon="86.805754">
        <ele>4448.4</ele>
        <time>2022-10-27T10:14:53.000Z</time>
      </trkpt>
      <trkpt lat="27.916218" lon="86.805747">
        <ele>4448.6</ele>
        <time>2022-10-27T10:14:56.000Z</time>
      </trkpt>
      <trkpt lat="27.916208" lon="86.805766">
        <ele>4448.4</ele>
        <time>2022-10-27T10:14:59.000Z</time>
      </trkpt>
      <trkpt lat="27.916166" lon="86.805779">
        <ele>4447.8</ele>
        <time>2022-10-27T10:15:05.000Z</time>
      </trkpt>
      <trkpt lat="27.916144" lon="86.805779">
        <ele>4446.8</ele>
        <time>2022-10-27T10:15:09.000Z</time>
      </trkpt>
      <trkpt lat="27.916118" lon="86.805773">
        <ele>4446.2</ele>
        <time>2022-10-27T10:15:13.000Z</time>
      </trkpt>
      <trkpt lat="27.916099" lon="86.805766">
        <ele>4446</ele>
        <time>2022-10-27T10:15:15.000Z</time>
      </trkpt>
      <trkpt lat="27.916074" lon="86.805766">
        <ele>4446</ele>
        <time>2022-10-27T10:15:18.000Z</time>
      </trkpt>
      <trkpt lat="27.916054" lon="86.805773">
        <ele>4445.6</ele>
        <time>2022-10-27T10:15:21.000Z</time>
      </trkpt>
      <trkpt lat="27.916032" lon="86.805779">
        <ele>4445.4</ele>
        <time>2022-10-27T10:15:24.000Z</time>
      </trkpt>
      <trkpt lat="27.916016" lon="86.805792">
        <ele>4444.8</ele>
        <time>2022-10-27T10:15:28.000Z</time>
      </trkpt>
      <trkpt lat="27.916006" lon="86.805818">
        <ele>4444.4</ele>
        <time>2022-10-27T10:15:30.000Z</time>
      </trkpt>
      <trkpt lat="27.915984" lon="86.805824">
        <ele>4443.6</ele>
        <time>2022-10-27T10:15:34.000Z</time>
      </trkpt>
      <trkpt lat="27.915965" lon="86.80585">
        <ele>4443.2</ele>
        <time>2022-10-27T10:15:38.000Z</time>
      </trkpt>
      <trkpt lat="27.915942" lon="86.80585">
        <ele>4442.4</ele>
        <time>2022-10-27T10:15:41.000Z</time>
      </trkpt>
      <trkpt lat="27.915923" lon="86.80585">
        <ele>4442.2</ele>
        <time>2022-10-27T10:15:43.000Z</time>
      </trkpt>
      <trkpt lat="27.915904" lon="86.80583">
        <ele>4442</ele>
        <time>2022-10-27T10:15:45.000Z</time>
      </trkpt>
      <trkpt lat="27.915885" lon="86.805818">
        <ele>4441.4</ele>
        <time>2022-10-27T10:15:47.000Z</time>
      </trkpt>
      <trkpt lat="27.915856" lon="86.805811">
        <ele>4441.2</ele>
        <time>2022-10-27T10:15:50.000Z</time>
      </trkpt>
      <trkpt lat="27.91585" lon="86.80583">
        <ele>4441.2</ele>
        <time>2022-10-27T10:15:52.000Z</time>
      </trkpt>
      <trkpt lat="27.915843" lon="86.80585">
        <ele>4441.2</ele>
        <time>2022-10-27T10:15:54.000Z</time>
      </trkpt>
      <trkpt lat="27.915824" lon="86.805862">
        <ele>4440</ele>
        <time>2022-10-27T10:15:57.000Z</time>
      </trkpt>
      <trkpt lat="27.915805" lon="86.805875">
        <ele>4439.8</ele>
        <time>2022-10-27T10:16:00.000Z</time>
      </trkpt>
      <trkpt lat="27.915805" lon="86.805901">
        <ele>4440.4</ele>
        <time>2022-10-27T10:16:03.000Z</time>
      </trkpt>
      <trkpt lat="27.915792" lon="86.805926">
        <ele>4439</ele>
        <time>2022-10-27T10:16:07.000Z</time>
      </trkpt>
      <trkpt lat="27.91577" lon="86.805939">
        <ele>4438</ele>
        <time>2022-10-27T10:16:13.000Z</time>
      </trkpt>
      <trkpt lat="27.915747" lon="86.805965">
        <ele>4437.8</ele>
        <time>2022-10-27T10:16:16.000Z</time>
      </trkpt>
      <trkpt lat="27.915728" lon="86.805984">
        <ele>4437.4</ele>
        <time>2022-10-27T10:16:19.000Z</time>
      </trkpt>
      <trkpt lat="27.915715" lon="86.80601">
        <ele>4437.4</ele>
        <time>2022-10-27T10:16:22.000Z</time>
      </trkpt>
      <trkpt lat="27.915702" lon="86.806035">
        <ele>4436.6</ele>
        <time>2022-10-27T10:16:25.000Z</time>
      </trkpt>
      <trkpt lat="27.915686" lon="86.806048">
        <ele>4436.4</ele>
        <time>2022-10-27T10:16:27.000Z</time>
      </trkpt>
      <trkpt lat="27.915667" lon="86.806061">
        <ele>4435.8</ele>
        <time>2022-10-27T10:16:30.000Z</time>
      </trkpt>
      <trkpt lat="27.915645" lon="86.806074">
        <ele>4435.2</ele>
        <time>2022-10-27T10:16:33.000Z</time>
      </trkpt>
      <trkpt lat="27.915622" lon="86.806086">
        <ele>4435</ele>
        <time>2022-10-27T10:16:35.000Z</time>
      </trkpt>
      <trkpt lat="27.915603" lon="86.806086">
        <ele>4435</ele>
        <time>2022-10-27T10:16:37.000Z</time>
      </trkpt>
      <trkpt lat="27.915584" lon="86.806099">
        <ele>4434.8</ele>
        <time>2022-10-27T10:16:40.000Z</time>
      </trkpt>
      <trkpt lat="27.915562" lon="86.806125">
        <ele>4433.2</ele>
        <time>2022-10-27T10:16:43.000Z</time>
      </trkpt>
      <trkpt lat="27.915542" lon="86.806138">
        <ele>4433.2</ele>
        <time>2022-10-27T10:16:46.000Z</time>
      </trkpt>
      <trkpt lat="27.915526" lon="86.80615">
        <ele>4433.2</ele>
        <time>2022-10-27T10:16:48.000Z</time>
      </trkpt>
      <trkpt lat="27.915504" lon="86.80617">
        <ele>4432.4</ele>
        <time>2022-10-27T10:16:51.000Z</time>
      </trkpt>
      <trkpt lat="27.915475" lon="86.806176">
        <ele>4431.8</ele>
        <time>2022-10-27T10:16:54.000Z</time>
      </trkpt>
      <trkpt lat="27.915453" lon="86.806176">
        <ele>4431</ele>
        <time>2022-10-27T10:16:57.000Z</time>
      </trkpt>
      <trkpt lat="27.91543" lon="86.806176">
        <ele>4430.4</ele>
        <time>2022-10-27T10:17:00.000Z</time>
      </trkpt>
      <trkpt lat="27.915414" lon="86.806189">
        <ele>4429.8</ele>
        <time>2022-10-27T10:17:08.000Z</time>
      </trkpt>
      <trkpt lat="27.915408" lon="86.806208">
        <ele>4429.8</ele>
        <time>2022-10-27T10:17:10.000Z</time>
      </trkpt>
      <trkpt lat="27.915392" lon="86.806221">
        <ele>4429.4</ele>
        <time>2022-10-27T10:17:12.000Z</time>
      </trkpt>
      <trkpt lat="27.915373" lon="86.806214">
        <ele>4428.6</ele>
        <time>2022-10-27T10:17:15.000Z</time>
      </trkpt>
      <trkpt lat="27.915354" lon="86.806214">
        <ele>4428.6</ele>
        <time>2022-10-27T10:17:18.000Z</time>
      </trkpt>
      <trkpt lat="27.915334" lon="86.806221">
        <ele>4428</ele>
        <time>2022-10-27T10:17:21.000Z</time>
      </trkpt>
      <trkpt lat="27.915318" lon="86.806234">
        <ele>4427.2</ele>
        <time>2022-10-27T10:17:25.000Z</time>
      </trkpt>
      <trkpt lat="27.915302" lon="86.806246">
        <ele>4427.4</ele>
        <time>2022-10-27T10:17:27.000Z</time>
      </trkpt>
      <trkpt lat="27.915277" lon="86.806259">
        <ele>4426.6</ele>
        <time>2022-10-27T10:17:30.000Z</time>
      </trkpt>
      <trkpt lat="27.915258" lon="86.806272">
        <ele>4426.4</ele>
        <time>2022-10-27T10:17:33.000Z</time>
      </trkpt>
      <trkpt lat="27.915248" lon="86.806291">
        <ele>4426.2</ele>
        <time>2022-10-27T10:17:35.000Z</time>
      </trkpt>
      <trkpt lat="27.915229" lon="86.806291">
        <ele>4425.8</ele>
        <time>2022-10-27T10:17:37.000Z</time>
      </trkpt>
      <trkpt lat="27.915206" lon="86.806304">
        <ele>4425.8</ele>
        <time>2022-10-27T10:17:40.000Z</time>
      </trkpt>
      <trkpt lat="27.915187" lon="86.806323">
        <ele>4425.8</ele>
        <time>2022-10-27T10:17:43.000Z</time>
      </trkpt>
      <trkpt lat="27.915168" lon="86.806336">
        <ele>4426.4</ele>
        <time>2022-10-27T10:17:46.000Z</time>
      </trkpt>
      <trkpt lat="27.915146" lon="86.806342">
        <ele>4425.6</ele>
        <time>2022-10-27T10:17:50.000Z</time>
      </trkpt>
      <trkpt lat="27.915133" lon="86.806368">
        <ele>4425.8</ele>
        <time>2022-10-27T10:17:53.000Z</time>
      </trkpt>
      <trkpt lat="27.915107" lon="86.806355">
        <ele>4425.4</ele>
        <time>2022-10-27T10:17:56.000Z</time>
      </trkpt>
      <trkpt lat="27.915091" lon="86.806368">
        <ele>4424.2</ele>
        <time>2022-10-27T10:17:58.000Z</time>
      </trkpt>
      <trkpt lat="27.915078" lon="86.806387">
        <ele>4424.8</ele>
        <time>2022-10-27T10:18:02.000Z</time>
      </trkpt>
      <trkpt lat="27.915069" lon="86.806406">
        <ele>4424.8</ele>
        <time>2022-10-27T10:18:04.000Z</time>
      </trkpt>
      <trkpt lat="27.91504" lon="86.806419">
        <ele>4423.6</ele>
        <time>2022-10-27T10:18:07.000Z</time>
      </trkpt>
      <trkpt lat="27.915018" lon="86.806426">
        <ele>4423.4</ele>
        <time>2022-10-27T10:18:10.000Z</time>
      </trkpt>
      <trkpt lat="27.914992" lon="86.806445">
        <ele>4423.2</ele>
        <time>2022-10-27T10:18:14.000Z</time>
      </trkpt>
      <trkpt lat="27.914973" lon="86.806445">
        <ele>4422.4</ele>
        <time>2022-10-27T10:18:17.000Z</time>
      </trkpt>
      <trkpt lat="27.91495" lon="86.806451">
        <ele>4422</ele>
        <time>2022-10-27T10:18:20.000Z</time>
      </trkpt>
      <trkpt lat="27.914934" lon="86.806464">
        <ele>4421.8</ele>
        <time>2022-10-27T10:18:23.000Z</time>
      </trkpt>
      <trkpt lat="27.914922" lon="86.80649">
        <ele>4421.6</ele>
        <time>2022-10-27T10:18:25.000Z</time>
      </trkpt>
      <trkpt lat="27.914902" lon="86.806496">
        <ele>4421.2</ele>
        <time>2022-10-27T10:18:27.000Z</time>
      </trkpt>
      <trkpt lat="27.914883" lon="86.806502">
        <ele>4421</ele>
        <time>2022-10-27T10:18:30.000Z</time>
      </trkpt>
      <trkpt lat="27.91487" lon="86.806522">
        <ele>4420.6</ele>
        <time>2022-10-27T10:18:39.000Z</time>
      </trkpt>
      <trkpt lat="27.914854" lon="86.806541">
        <ele>4420.6</ele>
        <time>2022-10-27T10:18:42.000Z</time>
      </trkpt>
      <trkpt lat="27.914829" lon="86.806554">
        <ele>4419.8</ele>
        <time>2022-10-27T10:18:45.000Z</time>
      </trkpt>
      <trkpt lat="27.914816" lon="86.806573">
        <ele>4419.8</ele>
        <time>2022-10-27T10:18:47.000Z</time>
      </trkpt>
      <trkpt lat="27.914797" lon="86.806586">
        <ele>4419.4</ele>
        <time>2022-10-27T10:18:49.000Z</time>
      </trkpt>
      <trkpt lat="27.914778" lon="86.806592">
        <ele>4418.8</ele>
        <time>2022-10-27T10:18:51.000Z</time>
      </trkpt>
      <trkpt lat="27.914762" lon="86.806605">
        <ele>4418.8</ele>
        <time>2022-10-27T10:18:53.000Z</time>
      </trkpt>
      <trkpt lat="27.914733" lon="86.806618">
        <ele>4418</ele>
        <time>2022-10-27T10:18:56.000Z</time>
      </trkpt>
      <trkpt lat="27.91471" lon="86.806624">
        <ele>4417.8</ele>
        <time>2022-10-27T10:18:58.000Z</time>
      </trkpt>
      <trkpt lat="27.914694" lon="86.806643">
        <ele>4417.4</ele>
        <time>2022-10-27T10:19:00.000Z</time>
      </trkpt>
      <trkpt lat="27.914675" lon="86.80665">
        <ele>4417.4</ele>
        <time>2022-10-27T10:19:02.000Z</time>
      </trkpt>
      <trkpt lat="27.914653" lon="86.806669">
        <ele>4417.4</ele>
        <time>2022-10-27T10:19:05.000Z</time>
      </trkpt>
      <trkpt lat="27.91464" lon="86.806688">
        <ele>4417.4</ele>
        <time>2022-10-27T10:19:07.000Z</time>
      </trkpt>
      <trkpt lat="27.914624" lon="86.806707">
        <ele>4417.2</ele>
        <time>2022-10-27T10:19:10.000Z</time>
      </trkpt>
      <trkpt lat="27.914614" lon="86.806726">
        <ele>4416.6</ele>
        <time>2022-10-27T10:19:12.000Z</time>
      </trkpt>
      <trkpt lat="27.914592" lon="86.806746">
        <ele>4416.2</ele>
        <time>2022-10-27T10:19:15.000Z</time>
      </trkpt>
      <trkpt lat="27.914582" lon="86.806771">
        <ele>4416.2</ele>
        <time>2022-10-27T10:19:17.000Z</time>
      </trkpt>
      <trkpt lat="27.914576" lon="86.80679">
        <ele>4415.4</ele>
        <time>2022-10-27T10:19:19.000Z</time>
      </trkpt>
      <trkpt lat="27.914566" lon="86.806816">
        <ele>4415.2</ele>
        <time>2022-10-27T10:19:21.000Z</time>
      </trkpt>
      <trkpt lat="27.91455" lon="86.806842">
        <ele>4414.8</ele>
        <time>2022-10-27T10:19:24.000Z</time>
      </trkpt>
      <trkpt lat="27.914531" lon="86.806848">
        <ele>4414</ele>
        <time>2022-10-27T10:19:26.000Z</time>
      </trkpt>
      <trkpt lat="27.914512" lon="86.806854">
        <ele>4413.8</ele>
        <time>2022-10-27T10:19:28.000Z</time>
      </trkpt>
      <trkpt lat="27.914493" lon="86.80688">
        <ele>4413.4</ele>
        <time>2022-10-27T10:19:35.000Z</time>
      </trkpt>
      <trkpt lat="27.914474" lon="86.806899">
        <ele>4413.2</ele>
        <time>2022-10-27T10:19:38.000Z</time>
      </trkpt>
      <trkpt lat="27.914454" lon="86.806918">
        <ele>4412.4</ele>
        <time>2022-10-27T10:19:40.000Z</time>
      </trkpt>
      <trkpt lat="27.914432" lon="86.806925">
        <ele>4412.4</ele>
        <time>2022-10-27T10:19:42.000Z</time>
      </trkpt>
      <trkpt lat="27.914413" lon="86.806918">
        <ele>4412.6</ele>
        <time>2022-10-27T10:19:44.000Z</time>
      </trkpt>
      <trkpt lat="27.914394" lon="86.806906">
        <ele>4411.8</ele>
        <time>2022-10-27T10:19:46.000Z</time>
      </trkpt>
      <trkpt lat="27.914378" lon="86.806918">
        <ele>4411.6</ele>
        <time>2022-10-27T10:19:48.000Z</time>
      </trkpt>
      <trkpt lat="27.914362" lon="86.806906">
        <ele>4411.6</ele>
        <time>2022-10-27T10:19:50.000Z</time>
      </trkpt>
      <trkpt lat="27.914342" lon="86.806918">
        <ele>4411</ele>
        <time>2022-10-27T10:19:52.000Z</time>
      </trkpt>
      <trkpt lat="27.91432" lon="86.806931">
        <ele>4410.8</ele>
        <time>2022-10-27T10:19:55.000Z</time>
      </trkpt>
      <trkpt lat="27.914307" lon="86.80695">
        <ele>4410.2</ele>
        <time>2022-10-27T10:19:58.000Z</time>
      </trkpt>
      <trkpt lat="27.914301" lon="86.80697">
        <ele>4410.2</ele>
        <time>2022-10-27T10:20:00.000Z</time>
      </trkpt>
      <trkpt lat="27.914288" lon="86.806989">
        <ele>4410.2</ele>
        <time>2022-10-27T10:20:02.000Z</time>
      </trkpt>
      <trkpt lat="27.914272" lon="86.807002">
        <ele>4409.8</ele>
        <time>2022-10-27T10:20:04.000Z</time>
      </trkpt>
      <trkpt lat="27.914256" lon="86.807014">
        <ele>4409.8</ele>
        <time>2022-10-27T10:20:06.000Z</time>
      </trkpt>
      <trkpt lat="27.91424" lon="86.80704">
        <ele>4409.4</ele>
        <time>2022-10-27T10:20:09.000Z</time>
      </trkpt>
      <trkpt lat="27.914224" lon="86.807059">
        <ele>4409.4</ele>
        <time>2022-10-27T10:20:11.000Z</time>
      </trkpt>
      <trkpt lat="27.914208" lon="86.807078">
        <ele>4409.4</ele>
        <time>2022-10-27T10:20:13.000Z</time>
      </trkpt>
      <trkpt lat="27.914189" lon="86.807091">
        <ele>4408.8</ele>
        <time>2022-10-27T10:20:16.000Z</time>
      </trkpt>
      <trkpt lat="27.914173" lon="86.807117">
        <ele>4408.8</ele>
        <time>2022-10-27T10:20:18.000Z</time>
      </trkpt>
      <trkpt lat="27.914154" lon="86.80713">
        <ele>4408.6</ele>
        <time>2022-10-27T10:20:21.000Z</time>
      </trkpt>
      <trkpt lat="27.914134" lon="86.807136">
        <ele>4408.4</ele>
        <time>2022-10-27T10:20:23.000Z</time>
      </trkpt>
      <trkpt lat="27.914115" lon="86.807142">
        <ele>4407.8</ele>
        <time>2022-10-27T10:20:25.000Z</time>
      </trkpt>
      <trkpt lat="27.914096" lon="86.807149">
        <ele>4407.2</ele>
        <time>2022-10-27T10:20:27.000Z</time>
      </trkpt>
      <trkpt lat="27.914077" lon="86.807162">
        <ele>4406.8</ele>
        <time>2022-10-27T10:20:29.000Z</time>
      </trkpt>
      <trkpt lat="27.914051" lon="86.807168">
        <ele>4406.6</ele>
        <time>2022-10-27T10:20:31.000Z</time>
      </trkpt>
      <trkpt lat="27.914029" lon="86.807168">
        <ele>4406.4</ele>
        <time>2022-10-27T10:20:34.000Z</time>
      </trkpt>
      <trkpt lat="27.914013" lon="86.807181">
        <ele>4406.4</ele>
        <time>2022-10-27T10:20:36.000Z</time>
      </trkpt>
      <trkpt lat="27.913997" lon="86.8072">
        <ele>4406.4</ele>
        <time>2022-10-27T10:20:38.000Z</time>
      </trkpt>
      <trkpt lat="27.913981" lon="86.807213">
        <ele>4406.2</ele>
        <time>2022-10-27T10:20:40.000Z</time>
      </trkpt>
      <trkpt lat="27.913955" lon="86.807213">
        <ele>4405.6</ele>
        <time>2022-10-27T10:20:43.000Z</time>
      </trkpt>
      <trkpt lat="27.91393" lon="86.807238">
        <ele>4405.6</ele>
        <time>2022-10-27T10:20:46.000Z</time>
      </trkpt>
      <trkpt lat="27.913904" lon="86.807245">
        <ele>4405.2</ele>
        <time>2022-10-27T10:20:49.000Z</time>
      </trkpt>
      <trkpt lat="27.913878" lon="86.807238">
        <ele>4404.4</ele>
        <time>2022-10-27T10:20:52.000Z</time>
      </trkpt>
      <trkpt lat="27.913853" lon="86.807245">
        <ele>4403.8</ele>
        <time>2022-10-27T10:20:55.000Z</time>
      </trkpt>
      <trkpt lat="27.913837" lon="86.807258">
        <ele>4403.8</ele>
        <time>2022-10-27T10:20:57.000Z</time>
      </trkpt>
      <trkpt lat="27.91383" lon="86.807277">
        <ele>4403.8</ele>
        <time>2022-10-27T10:20:58.000Z</time>
      </trkpt>
      <trkpt lat="27.913811" lon="86.807296">
        <ele>4403</ele>
        <time>2022-10-27T10:21:01.000Z</time>
      </trkpt>
      <trkpt lat="27.913798" lon="86.807322">
        <ele>4403</ele>
        <time>2022-10-27T10:21:03.000Z</time>
      </trkpt>
      <trkpt lat="27.913792" lon="86.807341">
        <ele>4402.4</ele>
        <time>2022-10-27T10:21:07.000Z</time>
      </trkpt>
      <trkpt lat="27.913786" lon="86.80736">
        <ele>4402.4</ele>
        <time>2022-10-27T10:21:09.000Z</time>
      </trkpt>
      <trkpt lat="27.913766" lon="86.807373">
        <ele>4401.4</ele>
        <time>2022-10-27T10:21:12.000Z</time>
      </trkpt>
      <trkpt lat="27.913747" lon="86.807386">
        <ele>4401</ele>
        <time>2022-10-27T10:21:14.000Z</time>
      </trkpt>
      <trkpt lat="27.913725" lon="86.807398">
        <ele>4401</ele>
        <time>2022-10-27T10:21:16.000Z</time>
      </trkpt>
      <trkpt lat="27.913706" lon="86.807405">
        <ele>4400.8</ele>
        <time>2022-10-27T10:21:18.000Z</time>
      </trkpt>
      <trkpt lat="27.913686" lon="86.807405">
        <ele>4400.8</ele>
        <time>2022-10-27T10:21:20.000Z</time>
      </trkpt>
      <trkpt lat="27.913667" lon="86.807418">
        <ele>4400.8</ele>
        <time>2022-10-27T10:21:23.000Z</time>
      </trkpt>
      <trkpt lat="27.913648" lon="86.807424">
        <ele>4400.4</ele>
        <time>2022-10-27T10:21:25.000Z</time>
      </trkpt>
      <trkpt lat="27.913629" lon="86.807443">
        <ele>4400.6</ele>
        <time>2022-10-27T10:21:27.000Z</time>
      </trkpt>
      <trkpt lat="27.913613" lon="86.807456">
        <ele>4400.6</ele>
        <time>2022-10-27T10:21:40.000Z</time>
      </trkpt>
      <trkpt lat="27.913594" lon="86.807462">
        <ele>4400</ele>
        <time>2022-10-27T10:21:43.000Z</time>
      </trkpt>
      <trkpt lat="27.913578" lon="86.807482">
        <ele>4400.2</ele>
        <time>2022-10-27T10:21:45.000Z</time>
      </trkpt>
      <trkpt lat="27.913555" lon="86.807488">
        <ele>4400.2</ele>
        <time>2022-10-27T10:21:47.000Z</time>
      </trkpt>
      <trkpt lat="27.91353" lon="86.807494">
        <ele>4400</ele>
        <time>2022-10-27T10:21:49.000Z</time>
      </trkpt>
      <trkpt lat="27.91351" lon="86.807507">
        <ele>4399.4</ele>
        <time>2022-10-27T10:21:52.000Z</time>
      </trkpt>
      <trkpt lat="27.913494" lon="86.80752">
        <ele>4399.4</ele>
        <time>2022-10-27T10:21:54.000Z</time>
      </trkpt>
      <trkpt lat="27.913475" lon="86.807533">
        <ele>4399.4</ele>
        <time>2022-10-27T10:21:57.000Z</time>
      </trkpt>
      <trkpt lat="27.913446" lon="86.807546">
        <ele>4398.6</ele>
        <time>2022-10-27T10:22:00.000Z</time>
      </trkpt>
      <trkpt lat="27.913418" lon="86.807558">
        <ele>4398.2</ele>
        <time>2022-10-27T10:22:02.000Z</time>
      </trkpt>
      <trkpt lat="27.913398" lon="86.807571">
        <ele>4398.2</ele>
        <time>2022-10-27T10:22:04.000Z</time>
      </trkpt>
      <trkpt lat="27.913379" lon="86.807584">
        <ele>4397.8</ele>
        <time>2022-10-27T10:22:06.000Z</time>
      </trkpt>
      <trkpt lat="27.91336" lon="86.807603">
        <ele>4397.6</ele>
        <time>2022-10-27T10:22:08.000Z</time>
      </trkpt>
      <trkpt lat="27.913341" lon="86.807622">
        <ele>4397.4</ele>
        <time>2022-10-27T10:22:10.000Z</time>
      </trkpt>
      <trkpt lat="27.913318" lon="86.807642">
        <ele>4397</ele>
        <time>2022-10-27T10:22:12.000Z</time>
      </trkpt>
      <trkpt lat="27.913293" lon="86.807642">
        <ele>4396.8</ele>
        <time>2022-10-27T10:22:14.000Z</time>
      </trkpt>
      <trkpt lat="27.91327" lon="86.807622">
        <ele>4396.4</ele>
        <time>2022-10-27T10:22:16.000Z</time>
      </trkpt>
      <trkpt lat="27.913245" lon="86.807622">
        <ele>4395.8</ele>
        <time>2022-10-27T10:22:18.000Z</time>
      </trkpt>
      <trkpt lat="27.913232" lon="86.807642">
        <ele>4395.2</ele>
        <time>2022-10-27T10:22:20.000Z</time>
      </trkpt>
      <trkpt lat="27.913206" lon="86.807642">
        <ele>4395.6</ele>
        <time>2022-10-27T10:22:23.000Z</time>
      </trkpt>
      <trkpt lat="27.913181" lon="86.807648">
        <ele>4395</ele>
        <time>2022-10-27T10:22:26.000Z</time>
      </trkpt>
      <trkpt lat="27.913152" lon="86.807642">
        <ele>4394.2</ele>
        <time>2022-10-27T10:22:28.000Z</time>
      </trkpt>
      <trkpt lat="27.913126" lon="86.807648">
        <ele>4393.8</ele>
        <time>2022-10-27T10:22:31.000Z</time>
      </trkpt>
      <trkpt lat="27.913101" lon="86.807648">
        <ele>4393.8</ele>
        <time>2022-10-27T10:22:33.000Z</time>
      </trkpt>
      <trkpt lat="27.913075" lon="86.807642">
        <ele>4393.4</ele>
        <time>2022-10-27T10:22:35.000Z</time>
      </trkpt>
      <trkpt lat="27.913046" lon="86.807635">
        <ele>4393.2</ele>
        <time>2022-10-27T10:22:38.000Z</time>
      </trkpt>
      <trkpt lat="27.913027" lon="86.807622">
        <ele>4393</ele>
        <time>2022-10-27T10:22:41.000Z</time>
      </trkpt>
      <trkpt lat="27.913002" lon="86.807622">
        <ele>4392.4</ele>
        <time>2022-10-27T10:22:44.000Z</time>
      </trkpt>
      <trkpt lat="27.912986" lon="86.807642">
        <ele>4392.2</ele>
        <time>2022-10-27T10:22:46.000Z</time>
      </trkpt>
      <trkpt lat="27.912973" lon="86.807661">
        <ele>4391.8</ele>
        <time>2022-10-27T10:22:49.000Z</time>
      </trkpt>
      <trkpt lat="27.912954" lon="86.80768">
        <ele>4391</ele>
        <time>2022-10-27T10:22:51.000Z</time>
      </trkpt>
      <trkpt lat="27.912938" lon="86.807693">
        <ele>4391</ele>
        <time>2022-10-27T10:22:53.000Z</time>
      </trkpt>
      <trkpt lat="27.912918" lon="86.807699">
        <ele>4391</ele>
        <time>2022-10-27T10:23:08.000Z</time>
      </trkpt>
      <trkpt lat="27.912893" lon="86.807706">
        <ele>4390.8</ele>
        <time>2022-10-27T10:26:27.000Z</time>
      </trkpt>
      <trkpt lat="27.912874" lon="86.807731">
        <ele>4391</ele>
        <time>2022-10-27T10:26:29.000Z</time>
      </trkpt>
      <trkpt lat="27.912848" lon="86.807738">
        <ele>4390.8</ele>
        <time>2022-10-27T10:26:31.000Z</time>
      </trkpt>
      <trkpt lat="27.912835" lon="86.807757">
        <ele>4390.6</ele>
        <time>2022-10-27T10:26:32.000Z</time>
      </trkpt>
      <trkpt lat="27.912816" lon="86.80777">
        <ele>4390.4</ele>
        <time>2022-10-27T10:26:34.000Z</time>
      </trkpt>
      <trkpt lat="27.912794" lon="86.807782">
        <ele>4390</ele>
        <time>2022-10-27T10:26:36.000Z</time>
      </trkpt>
      <trkpt lat="27.912781" lon="86.807802">
        <ele>4389.8</ele>
        <time>2022-10-27T10:26:38.000Z</time>
      </trkpt>
      <trkpt lat="27.912765" lon="86.807814">
        <ele>4390</ele>
        <time>2022-10-27T10:26:40.000Z</time>
      </trkpt>
      <trkpt lat="27.912742" lon="86.807821">
        <ele>4389</ele>
        <time>2022-10-27T10:26:43.000Z</time>
      </trkpt>
      <trkpt lat="27.912726" lon="86.807834">
        <ele>4388.8</ele>
        <time>2022-10-27T10:26:46.000Z</time>
      </trkpt>
      <trkpt lat="27.912707" lon="86.807834">
        <ele>4388.2</ele>
        <time>2022-10-27T10:26:49.000Z</time>
      </trkpt>
      <trkpt lat="27.912688" lon="86.80784">
        <ele>4388</ele>
        <time>2022-10-27T10:26:51.000Z</time>
      </trkpt>
      <trkpt lat="27.912666" lon="86.80784">
        <ele>4387.2</ele>
        <time>2022-10-27T10:26:53.000Z</time>
      </trkpt>
      <trkpt lat="27.912637" lon="86.807853">
        <ele>4387.4</ele>
        <time>2022-10-27T10:26:56.000Z</time>
      </trkpt>
      <trkpt lat="27.912614" lon="86.807872">
        <ele>4387</ele>
        <time>2022-10-27T10:26:59.000Z</time>
      </trkpt>
      <trkpt lat="27.912598" lon="86.807885">
        <ele>4386.6</ele>
        <time>2022-10-27T10:27:01.000Z</time>
      </trkpt>
      <trkpt lat="27.912576" lon="86.807898">
        <ele>4386.4</ele>
        <time>2022-10-27T10:27:04.000Z</time>
      </trkpt>
      <trkpt lat="27.912557" lon="86.807917">
        <ele>4386.2</ele>
        <time>2022-10-27T10:27:06.000Z</time>
      </trkpt>
      <trkpt lat="27.912541" lon="86.807904">
        <ele>4386</ele>
        <time>2022-10-27T10:27:08.000Z</time>
      </trkpt>
      <trkpt lat="27.912518" lon="86.807923">
        <ele>4386</ele>
        <time>2022-10-27T10:27:11.000Z</time>
      </trkpt>
      <trkpt lat="27.91249" lon="86.80793">
        <ele>4385.4</ele>
        <time>2022-10-27T10:27:14.000Z</time>
      </trkpt>
      <trkpt lat="27.912467" lon="86.807923">
        <ele>4385.6</ele>
        <time>2022-10-27T10:27:17.000Z</time>
      </trkpt>
      <trkpt lat="27.912448" lon="86.807923">
        <ele>4384.8</ele>
        <time>2022-10-27T10:27:19.000Z</time>
      </trkpt>
      <trkpt lat="27.912429" lon="86.80793">
        <ele>4384.8</ele>
        <time>2022-10-27T10:27:21.000Z</time>
      </trkpt>
      <trkpt lat="27.912406" lon="86.807936">
        <ele>4384.4</ele>
        <time>2022-10-27T10:27:23.000Z</time>
      </trkpt>
      <trkpt lat="27.912387" lon="86.80793">
        <ele>4384</ele>
        <time>2022-10-27T10:27:25.000Z</time>
      </trkpt>
      <trkpt lat="27.912365" lon="86.807936">
        <ele>4383.8</ele>
        <time>2022-10-27T10:27:27.000Z</time>
      </trkpt>
      <trkpt lat="27.912346" lon="86.807955">
        <ele>4383.8</ele>
        <time>2022-10-27T10:27:30.000Z</time>
      </trkpt>
      <trkpt lat="27.91233" lon="86.807968">
        <ele>4383.4</ele>
        <time>2022-10-27T10:27:32.000Z</time>
      </trkpt>
      <trkpt lat="27.91231" lon="86.807981">
        <ele>4383.2</ele>
        <time>2022-10-27T10:27:34.000Z</time>
      </trkpt>
      <trkpt lat="27.912291" lon="86.807994">
        <ele>4383.2</ele>
        <time>2022-10-27T10:27:36.000Z</time>
      </trkpt>
      <trkpt lat="27.912269" lon="86.807994">
        <ele>4382.8</ele>
        <time>2022-10-27T10:27:38.000Z</time>
      </trkpt>
      <trkpt lat="27.912243" lon="86.808">
        <ele>4382.8</ele>
        <time>2022-10-27T10:27:41.000Z</time>
      </trkpt>
      <trkpt lat="27.912227" lon="86.808013">
        <ele>4382.8</ele>
        <time>2022-10-27T10:27:43.000Z</time>
      </trkpt>
      <trkpt lat="27.912218" lon="86.808032">
        <ele>4382.8</ele>
        <time>2022-10-27T10:27:44.000Z</time>
      </trkpt>
      <trkpt lat="27.912202" lon="86.808045">
        <ele>4382.2</ele>
        <time>2022-10-27T10:27:46.000Z</time>
      </trkpt>
      <trkpt lat="27.912192" lon="86.80807">
        <ele>4382.2</ele>
        <time>2022-10-27T10:27:49.000Z</time>
      </trkpt>
      <trkpt lat="27.912176" lon="86.808083">
        <ele>4382.2</ele>
        <time>2022-10-27T10:27:51.000Z</time>
      </trkpt>
      <trkpt lat="27.912157" lon="86.80809">
        <ele>4381.4</ele>
        <time>2022-10-27T10:27:53.000Z</time>
      </trkpt>
      <trkpt lat="27.912134" lon="86.808102">
        <ele>4381.2</ele>
        <time>2022-10-27T10:27:55.000Z</time>
      </trkpt>
      <trkpt lat="27.912118" lon="86.808115">
        <ele>4381.4</ele>
        <time>2022-10-27T10:27:57.000Z</time>
      </trkpt>
      <trkpt lat="27.912102" lon="86.808134">
        <ele>4381.4</ele>
        <time>2022-10-27T10:27:59.000Z</time>
      </trkpt>
      <trkpt lat="27.91209" lon="86.808154">
        <ele>4381.4</ele>
        <time>2022-10-27T10:28:01.000Z</time>
      </trkpt>
      <trkpt lat="27.912074" lon="86.808173">
        <ele>4381</ele>
        <time>2022-10-27T10:28:04.000Z</time>
      </trkpt>
      <trkpt lat="27.912067" lon="86.808192">
        <ele>4381</ele>
        <time>2022-10-27T10:28:05.000Z</time>
      </trkpt>
      <trkpt lat="27.912051" lon="86.808205">
        <ele>4380.8</ele>
        <time>2022-10-27T10:28:07.000Z</time>
      </trkpt>
      <trkpt lat="27.912032" lon="86.808218">
        <ele>4380.4</ele>
        <time>2022-10-27T10:28:09.000Z</time>
      </trkpt>
      <trkpt lat="27.912013" lon="86.80823">
        <ele>4380.2</ele>
        <time>2022-10-27T10:28:11.000Z</time>
      </trkpt>
      <trkpt lat="27.911994" lon="86.80825">
        <ele>4380.4</ele>
        <time>2022-10-27T10:28:13.000Z</time>
      </trkpt>
      <trkpt lat="27.911981" lon="86.808275">
        <ele>4380.2</ele>
        <time>2022-10-27T10:28:15.000Z</time>
      </trkpt>
      <trkpt lat="27.911974" lon="86.808294">
        <ele>4380.2</ele>
        <time>2022-10-27T10:28:17.000Z</time>
      </trkpt>
      <trkpt lat="27.911971" lon="86.80832">
        <ele>4379.8</ele>
        <time>2022-10-27T10:28:19.000Z</time>
      </trkpt>
      <trkpt lat="27.911965" lon="86.808352">
        <ele>4379.6</ele>
        <time>2022-10-27T10:28:21.000Z</time>
      </trkpt>
      <trkpt lat="27.911955" lon="86.808371">
        <ele>4379.4</ele>
        <time>2022-10-27T10:28:23.000Z</time>
      </trkpt>
      <trkpt lat="27.911949" lon="86.808397">
        <ele>4379.4</ele>
        <time>2022-10-27T10:28:25.000Z</time>
      </trkpt>
      <trkpt lat="27.911933" lon="86.808416">
        <ele>4379.6</ele>
        <time>2022-10-27T10:28:28.000Z</time>
      </trkpt>
      <trkpt lat="27.911914" lon="86.808429">
        <ele>4379.4</ele>
        <time>2022-10-27T10:28:30.000Z</time>
      </trkpt>
      <trkpt lat="27.911894" lon="86.808429">
        <ele>4379.4</ele>
        <time>2022-10-27T10:28:32.000Z</time>
      </trkpt>
      <trkpt lat="27.911872" lon="86.808429">
        <ele>4379</ele>
        <time>2022-10-27T10:28:35.000Z</time>
      </trkpt>
      <trkpt lat="27.911856" lon="86.808442">
        <ele>4378.8</ele>
        <time>2022-10-27T10:28:38.000Z</time>
      </trkpt>
      <trkpt lat="27.91184" lon="86.808454">
        <ele>4378.4</ele>
        <time>2022-10-27T10:28:40.000Z</time>
      </trkpt>
      <trkpt lat="27.91183" lon="86.808474">
        <ele>4378.2</ele>
        <time>2022-10-27T10:28:42.000Z</time>
      </trkpt>
      <trkpt lat="27.911814" lon="86.808486">
        <ele>4377.8</ele>
        <time>2022-10-27T10:28:44.000Z</time>
      </trkpt>
      <trkpt lat="27.911805" lon="86.808512">
        <ele>4377.6</ele>
        <time>2022-10-27T10:28:47.000Z</time>
      </trkpt>
      <trkpt lat="27.911792" lon="86.808531">
        <ele>4377.2</ele>
        <time>2022-10-27T10:28:49.000Z</time>
      </trkpt>
      <trkpt lat="27.911779" lon="86.80855">
        <ele>4377.2</ele>
        <time>2022-10-27T10:28:51.000Z</time>
      </trkpt>
      <trkpt lat="27.911763" lon="86.80857">
        <ele>4376.6</ele>
        <time>2022-10-27T10:28:54.000Z</time>
      </trkpt>
      <trkpt lat="27.91175" lon="86.808589">
        <ele>4376.6</ele>
        <time>2022-10-27T10:28:56.000Z</time>
      </trkpt>
      <trkpt lat="27.911731" lon="86.808602">
        <ele>4376</ele>
        <time>2022-10-27T10:28:58.000Z</time>
      </trkpt>
      <trkpt lat="27.911712" lon="86.808614">
        <ele>4376</ele>
        <time>2022-10-27T10:29:00.000Z</time>
      </trkpt>
      <trkpt lat="27.911696" lon="86.808634">
        <ele>4376</ele>
        <time>2022-10-27T10:29:02.000Z</time>
      </trkpt>
      <trkpt lat="27.91168" lon="86.808653">
        <ele>4375.6</ele>
        <time>2022-10-27T10:29:04.000Z</time>
      </trkpt>
      <trkpt lat="27.911667" lon="86.808672">
        <ele>4375.6</ele>
        <time>2022-10-27T10:29:06.000Z</time>
      </trkpt>
      <trkpt lat="27.911658" lon="86.808691">
        <ele>4375.6</ele>
        <time>2022-10-27T10:29:08.000Z</time>
      </trkpt>
      <trkpt lat="27.911642" lon="86.80871">
        <ele>4375</ele>
        <time>2022-10-27T10:29:10.000Z</time>
      </trkpt>
      <trkpt lat="27.911622" lon="86.808723">
        <ele>4374.8</ele>
        <time>2022-10-27T10:29:12.000Z</time>
      </trkpt>
      <trkpt lat="27.9116" lon="86.808736">
        <ele>4374.2</ele>
        <time>2022-10-27T10:29:15.000Z</time>
      </trkpt>
      <trkpt lat="27.91159" lon="86.808755">
        <ele>4374.2</ele>
        <time>2022-10-27T10:29:17.000Z</time>
      </trkpt>
      <trkpt lat="27.911568" lon="86.808768">
        <ele>4373.6</ele>
        <time>2022-10-27T10:29:19.000Z</time>
      </trkpt>
      <trkpt lat="27.911539" lon="86.808768">
        <ele>4372.8</ele>
        <time>2022-10-27T10:29:22.000Z</time>
      </trkpt>
      <trkpt lat="27.911523" lon="86.808787">
        <ele>4372.8</ele>
        <time>2022-10-27T10:29:24.000Z</time>
      </trkpt>
      <trkpt lat="27.911498" lon="86.808794">
        <ele>4372.8</ele>
        <time>2022-10-27T10:29:26.000Z</time>
      </trkpt>
      <trkpt lat="27.911475" lon="86.808806">
        <ele>4372.6</ele>
        <time>2022-10-27T10:29:29.000Z</time>
      </trkpt>
      <trkpt lat="27.911453" lon="86.808813">
        <ele>4372.2</ele>
        <time>2022-10-27T10:29:31.000Z</time>
      </trkpt>
      <trkpt lat="27.911446" lon="86.808832">
        <ele>4372</ele>
        <time>2022-10-27T10:29:32.000Z</time>
      </trkpt>
      <trkpt lat="27.911424" lon="86.808845">
        <ele>4372</ele>
        <time>2022-10-27T10:29:35.000Z</time>
      </trkpt>
      <trkpt lat="27.911414" lon="86.80887">
        <ele>4372</ele>
        <time>2022-10-27T10:29:37.000Z</time>
      </trkpt>
      <trkpt lat="27.911402" lon="86.80889">
        <ele>4371.8</ele>
        <time>2022-10-27T10:29:39.000Z</time>
      </trkpt>
      <trkpt lat="27.911379" lon="86.808896">
        <ele>4371</ele>
        <time>2022-10-27T10:29:42.000Z</time>
      </trkpt>
      <trkpt lat="27.911357" lon="86.808915">
        <ele>4370.8</ele>
        <time>2022-10-27T10:29:44.000Z</time>
      </trkpt>
      <trkpt lat="27.911331" lon="86.808922">
        <ele>4370.8</ele>
        <time>2022-10-27T10:29:46.000Z</time>
      </trkpt>
      <trkpt lat="27.911306" lon="86.808922">
        <ele>4370.6</ele>
        <time>2022-10-27T10:29:48.000Z</time>
      </trkpt>
      <trkpt lat="27.91128" lon="86.808922">
        <ele>4370.6</ele>
        <time>2022-10-27T10:29:51.000Z</time>
      </trkpt>
      <trkpt lat="27.911258" lon="86.808934">
        <ele>4370.2</ele>
        <time>2022-10-27T10:29:53.000Z</time>
      </trkpt>
      <trkpt lat="27.911235" lon="86.808947">
        <ele>4370</ele>
        <time>2022-10-27T10:29:56.000Z</time>
      </trkpt>
      <trkpt lat="27.911216" lon="86.808947">
        <ele>4370</ele>
        <time>2022-10-27T10:29:58.000Z</time>
      </trkpt>
      <trkpt lat="27.911197" lon="86.808954">
        <ele>4369.8</ele>
        <time>2022-10-27T10:30:00.000Z</time>
      </trkpt>
      <trkpt lat="27.911178" lon="86.808966">
        <ele>4369.4</ele>
        <time>2022-10-27T10:30:02.000Z</time>
      </trkpt>
      <trkpt lat="27.911155" lon="86.808973">
        <ele>4369.2</ele>
        <time>2022-10-27T10:30:05.000Z</time>
      </trkpt>
      <trkpt lat="27.91113" lon="86.808986">
        <ele>4369.2</ele>
        <time>2022-10-27T10:30:07.000Z</time>
      </trkpt>
      <trkpt lat="27.91111" lon="86.808992">
        <ele>4368.8</ele>
        <time>2022-10-27T10:30:09.000Z</time>
      </trkpt>
      <trkpt lat="27.911091" lon="86.808998">
        <ele>4368.6</ele>
        <time>2022-10-27T10:30:11.000Z</time>
      </trkpt>
      <trkpt lat="27.911072" lon="86.809005">
        <ele>4368.6</ele>
        <time>2022-10-27T10:30:13.000Z</time>
      </trkpt>
      <trkpt lat="27.911056" lon="86.809024">
        <ele>4368.4</ele>
        <time>2022-10-27T10:30:15.000Z</time>
      </trkpt>
      <trkpt lat="27.911037" lon="86.809024">
        <ele>4368</ele>
        <time>2022-10-27T10:30:17.000Z</time>
      </trkpt>
      <trkpt lat="27.911014" lon="86.809037">
        <ele>4367.8</ele>
        <time>2022-10-27T10:30:20.000Z</time>
      </trkpt>
      <trkpt lat="27.910995" lon="86.809043">
        <ele>4367.8</ele>
        <time>2022-10-27T10:30:22.000Z</time>
      </trkpt>
      <trkpt lat="27.910976" lon="86.80905">
        <ele>4367.2</ele>
        <time>2022-10-27T10:30:24.000Z</time>
      </trkpt>
      <trkpt lat="27.91096" lon="86.809069">
        <ele>4367</ele>
        <time>2022-10-27T10:30:26.000Z</time>
      </trkpt>
      <trkpt lat="27.910941" lon="86.809075">
        <ele>4366.6</ele>
        <time>2022-10-27T10:30:28.000Z</time>
      </trkpt>
      <trkpt lat="27.910922" lon="86.809088">
        <ele>4367</ele>
        <time>2022-10-27T10:30:30.000Z</time>
      </trkpt>
      <trkpt lat="27.910902" lon="86.809107">
        <ele>4366.4</ele>
        <time>2022-10-27T10:30:32.000Z</time>
      </trkpt>
      <trkpt lat="27.910886" lon="86.80912">
        <ele>4366.4</ele>
        <time>2022-10-27T10:30:34.000Z</time>
      </trkpt>
      <trkpt lat="27.910867" lon="86.809146">
        <ele>4366.2</ele>
        <time>2022-10-27T10:30:36.000Z</time>
      </trkpt>
      <trkpt lat="27.910848" lon="86.809158">
        <ele>4365.8</ele>
        <time>2022-10-27T10:30:38.000Z</time>
      </trkpt>
      <trkpt lat="27.910832" lon="86.809171">
        <ele>4366</ele>
        <time>2022-10-27T10:30:40.000Z</time>
      </trkpt>
      <trkpt lat="27.910822" lon="86.809203">
        <ele>4366</ele>
        <time>2022-10-27T10:30:42.000Z</time>
      </trkpt>
      <trkpt lat="27.910816" lon="86.809222">
        <ele>4366</ele>
        <time>2022-10-27T10:30:43.000Z</time>
      </trkpt>
      <trkpt lat="27.9108" lon="86.809242">
        <ele>4365.8</ele>
        <time>2022-10-27T10:30:45.000Z</time>
      </trkpt>
      <trkpt lat="27.910778" lon="86.809267">
        <ele>4365.6</ele>
        <time>2022-10-27T10:30:48.000Z</time>
      </trkpt>
      <trkpt lat="27.910758" lon="86.80928">
        <ele>4365</ele>
        <time>2022-10-27T10:30:50.000Z</time>
      </trkpt>
      <trkpt lat="27.910742" lon="86.809293">
        <ele>4365</ele>
        <time>2022-10-27T10:30:52.000Z</time>
      </trkpt>
      <trkpt lat="27.910723" lon="86.809306">
        <ele>4364.8</ele>
        <time>2022-10-27T10:30:54.000Z</time>
      </trkpt>
      <trkpt lat="27.910701" lon="86.809318">
        <ele>4364.4</ele>
        <time>2022-10-27T10:30:58.000Z</time>
      </trkpt>
      <trkpt lat="27.910682" lon="86.809331">
        <ele>4364.4</ele>
        <time>2022-10-27T10:31:00.000Z</time>
      </trkpt>
      <trkpt lat="27.910659" lon="86.80935">
        <ele>4364.4</ele>
        <time>2022-10-27T10:31:02.000Z</time>
      </trkpt>
      <trkpt lat="27.91064" lon="86.809363">
        <ele>4363.8</ele>
        <time>2022-10-27T10:31:05.000Z</time>
      </trkpt>
      <trkpt lat="27.910614" lon="86.809382">
        <ele>4363.6</ele>
        <time>2022-10-27T10:31:08.000Z</time>
      </trkpt>
      <trkpt lat="27.910592" lon="86.809382">
        <ele>4363.4</ele>
        <time>2022-10-27T10:31:12.000Z</time>
      </trkpt>
      <trkpt lat="27.910589" lon="86.809421">
        <ele>4362.6</ele>
        <time>2022-10-27T10:31:42.000Z</time>
      </trkpt>
      <trkpt lat="27.910579" lon="86.80944">
        <ele>4363</ele>
        <time>2022-10-27T10:31:44.000Z</time>
      </trkpt>
      <trkpt lat="27.91055" lon="86.809466">
        <ele>4363.2</ele>
        <time>2022-10-27T10:31:46.000Z</time>
      </trkpt>
      <trkpt lat="27.910525" lon="86.809478">
        <ele>4363</ele>
        <time>2022-10-27T10:31:48.000Z</time>
      </trkpt>
      <trkpt lat="27.910499" lon="86.809485">
        <ele>4363.2</ele>
        <time>2022-10-27T10:31:51.000Z</time>
      </trkpt>
      <trkpt lat="27.910474" lon="86.809491">
        <ele>4363</ele>
        <time>2022-10-27T10:31:54.000Z</time>
      </trkpt>
      <trkpt lat="27.910454" lon="86.809491">
        <ele>4363</ele>
        <time>2022-10-27T10:31:56.000Z</time>
      </trkpt>
      <trkpt lat="27.910438" lon="86.80951">
        <ele>4362.6</ele>
        <time>2022-10-27T10:31:59.000Z</time>
      </trkpt>
      <trkpt lat="27.910419" lon="86.809517">
        <ele>4362.6</ele>
        <time>2022-10-27T10:32:02.000Z</time>
      </trkpt>
      <trkpt lat="27.910403" lon="86.80953">
        <ele>4362.6</ele>
        <time>2022-10-27T10:32:04.000Z</time>
      </trkpt>
      <trkpt lat="27.91039" lon="86.809549">
        <ele>4362.4</ele>
        <time>2022-10-27T10:32:06.000Z</time>
      </trkpt>
      <trkpt lat="27.910365" lon="86.809555">
        <ele>4362.4</ele>
        <time>2022-10-27T10:32:08.000Z</time>
      </trkpt>
      <trkpt lat="27.910346" lon="86.809562">
        <ele>4362.2</ele>
        <time>2022-10-27T10:32:10.000Z</time>
      </trkpt>
      <trkpt lat="27.910333" lon="86.809581">
        <ele>4361.8</ele>
        <time>2022-10-27T10:32:12.000Z</time>
      </trkpt>
      <trkpt lat="27.910317" lon="86.809594">
        <ele>4361.4</ele>
        <time>2022-10-27T10:32:14.000Z</time>
      </trkpt>
      <trkpt lat="27.910298" lon="86.8096">
        <ele>4361.4</ele>
        <time>2022-10-27T10:32:16.000Z</time>
      </trkpt>
      <trkpt lat="27.910278" lon="86.809619">
        <ele>4361</ele>
        <time>2022-10-27T10:32:18.000Z</time>
      </trkpt>
      <trkpt lat="27.910259" lon="86.809638">
        <ele>4361</ele>
        <time>2022-10-27T10:32:21.000Z</time>
      </trkpt>
      <trkpt lat="27.910243" lon="86.809651">
        <ele>4361</ele>
        <time>2022-10-27T10:32:24.000Z</time>
      </trkpt>
      <trkpt lat="27.910227" lon="86.809664">
        <ele>4360.6</ele>
        <time>2022-10-27T10:32:26.000Z</time>
      </trkpt>
      <trkpt lat="27.910205" lon="86.809677">
        <ele>4360</ele>
        <time>2022-10-27T10:32:29.000Z</time>
      </trkpt>
      <trkpt lat="27.910186" lon="86.809702">
        <ele>4360</ele>
        <time>2022-10-27T10:32:32.000Z</time>
      </trkpt>
      <trkpt lat="27.910163" lon="86.809715">
        <ele>4359.6</ele>
        <time>2022-10-27T10:32:35.000Z</time>
      </trkpt>
      <trkpt lat="27.910147" lon="86.809728">
        <ele>4359.2</ele>
        <time>2022-10-27T10:32:37.000Z</time>
      </trkpt>
      <trkpt lat="27.910128" lon="86.809747">
        <ele>4358.8</ele>
        <time>2022-10-27T10:32:39.000Z</time>
      </trkpt>
      <trkpt lat="27.910112" lon="86.80976">
        <ele>4358.8</ele>
        <time>2022-10-27T10:32:42.000Z</time>
      </trkpt>
      <trkpt lat="27.910096" lon="86.809779">
        <ele>4358.8</ele>
        <time>2022-10-27T10:32:44.000Z</time>
      </trkpt>
      <trkpt lat="27.910086" lon="86.809805">
        <ele>4358.8</ele>
        <time>2022-10-27T10:32:47.000Z</time>
      </trkpt>
      <trkpt lat="27.91008" lon="86.80983">
        <ele>4358.4</ele>
        <time>2022-10-27T10:32:49.000Z</time>
      </trkpt>
      <trkpt lat="27.91007" lon="86.80985">
        <ele>4358.4</ele>
        <time>2022-10-27T10:32:51.000Z</time>
      </trkpt>
      <trkpt lat="27.910064" lon="86.809869">
        <ele>4358.4</ele>
        <time>2022-10-27T10:32:52.000Z</time>
      </trkpt>
      <trkpt lat="27.910048" lon="86.809888">
        <ele>4358</ele>
        <time>2022-10-27T10:32:55.000Z</time>
      </trkpt>
      <trkpt lat="27.910038" lon="86.809914">
        <ele>4358</ele>
        <time>2022-10-27T10:32:57.000Z</time>
      </trkpt>
      <trkpt lat="27.910026" lon="86.809939">
        <ele>4357.6</ele>
        <time>2022-10-27T10:33:00.000Z</time>
      </trkpt>
      <trkpt lat="27.910006" lon="86.809946">
        <ele>4357.4</ele>
        <time>2022-10-27T10:33:03.000Z</time>
      </trkpt>
      <trkpt lat="27.909987" lon="86.809958">
        <ele>4357.4</ele>
        <time>2022-10-27T10:33:06.000Z</time>
      </trkpt>
      <trkpt lat="27.909968" lon="86.809978">
        <ele>4357.4</ele>
        <time>2022-10-27T10:33:09.000Z</time>
      </trkpt>
      <trkpt lat="27.909949" lon="86.809984">
        <ele>4356.8</ele>
        <time>2022-10-27T10:33:15.000Z</time>
      </trkpt>
      <trkpt lat="27.90993" lon="86.809984">
        <ele>4357</ele>
        <time>2022-10-27T10:33:20.000Z</time>
      </trkpt>
      <trkpt lat="27.909914" lon="86.809997">
        <ele>4356.4</ele>
        <time>2022-10-27T10:33:24.000Z</time>
      </trkpt>
      <trkpt lat="27.909894" lon="86.810016">
        <ele>4355.8</ele>
        <time>2022-10-27T10:33:29.000Z</time>
      </trkpt>
      <trkpt lat="27.909878" lon="86.810029">
        <ele>4355.8</ele>
        <time>2022-10-27T10:33:32.000Z</time>
      </trkpt>
      <trkpt lat="27.909859" lon="86.810042">
        <ele>4355.2</ele>
        <time>2022-10-27T10:33:35.000Z</time>
      </trkpt>
      <trkpt lat="27.90984" lon="86.810048">
        <ele>4355.2</ele>
        <time>2022-10-27T10:33:38.000Z</time>
      </trkpt>
      <trkpt lat="27.909824" lon="86.810061">
        <ele>4355.2</ele>
        <time>2022-10-27T10:33:41.000Z</time>
      </trkpt>
      <trkpt lat="27.909805" lon="86.810067">
        <ele>4354.6</ele>
        <time>2022-10-27T10:33:44.000Z</time>
      </trkpt>
      <trkpt lat="27.909789" lon="86.81008">
        <ele>4354.4</ele>
        <time>2022-10-27T10:33:47.000Z</time>
      </trkpt>
      <trkpt lat="27.909773" lon="86.810099">
        <ele>4354.6</ele>
        <time>2022-10-27T10:33:50.000Z</time>
      </trkpt>
      <trkpt lat="27.90975" lon="86.810118">
        <ele>4354.2</ele>
        <time>2022-10-27T10:33:54.000Z</time>
      </trkpt>
      <trkpt lat="27.909725" lon="86.810125">
        <ele>4354</ele>
        <time>2022-10-27T10:33:57.000Z</time>
      </trkpt>
      <trkpt lat="27.909706" lon="86.810138">
        <ele>4353.6</ele>
        <time>2022-10-27T10:33:59.000Z</time>
      </trkpt>
      <trkpt lat="27.909686" lon="86.810144">
        <ele>4353.4</ele>
        <time>2022-10-27T10:34:01.000Z</time>
      </trkpt>
      <trkpt lat="27.909667" lon="86.810144">
        <ele>4353.4</ele>
        <time>2022-10-27T10:34:03.000Z</time>
      </trkpt>
      <trkpt lat="27.909645" lon="86.810157">
        <ele>4353.2</ele>
        <time>2022-10-27T10:34:06.000Z</time>
      </trkpt>
      <trkpt lat="27.909626" lon="86.810163">
        <ele>4352.8</ele>
        <time>2022-10-27T10:34:09.000Z</time>
      </trkpt>
      <trkpt lat="27.9096" lon="86.810163">
        <ele>4352.6</ele>
        <time>2022-10-27T10:34:12.000Z</time>
      </trkpt>
      <trkpt lat="27.909581" lon="86.810176">
        <ele>4352.6</ele>
        <time>2022-10-27T10:34:14.000Z</time>
      </trkpt>
      <trkpt lat="27.909565" lon="86.810189">
        <ele>4352.6</ele>
        <time>2022-10-27T10:34:16.000Z</time>
      </trkpt>
      <trkpt lat="27.909546" lon="86.810202">
        <ele>4352.2</ele>
        <time>2022-10-27T10:34:18.000Z</time>
      </trkpt>
      <trkpt lat="27.909526" lon="86.810208">
        <ele>4352.2</ele>
        <time>2022-10-27T10:34:20.000Z</time>
      </trkpt>
      <trkpt lat="27.909507" lon="86.810221">
        <ele>4352</ele>
        <time>2022-10-27T10:34:22.000Z</time>
      </trkpt>
      <trkpt lat="27.909482" lon="86.810227">
        <ele>4351.6</ele>
        <time>2022-10-27T10:34:24.000Z</time>
      </trkpt>
      <trkpt lat="27.909459" lon="86.81024">
        <ele>4352</ele>
        <time>2022-10-27T10:34:26.000Z</time>
      </trkpt>
      <trkpt lat="27.90944" lon="86.81024">
        <ele>4351.8</ele>
        <time>2022-10-27T10:34:28.000Z</time>
      </trkpt>
      <trkpt lat="27.909418" lon="86.810246">
        <ele>4351.6</ele>
        <time>2022-10-27T10:34:30.000Z</time>
      </trkpt>
      <trkpt lat="27.909398" lon="86.810259">
        <ele>4350.8</ele>
        <time>2022-10-27T10:34:32.000Z</time>
      </trkpt>
      <trkpt lat="27.909373" lon="86.810259">
        <ele>4350.6</ele>
        <time>2022-10-27T10:34:34.000Z</time>
      </trkpt>
      <trkpt lat="27.90935" lon="86.810259">
        <ele>4350.8</ele>
        <time>2022-10-27T10:34:36.000Z</time>
      </trkpt>
      <trkpt lat="27.909331" lon="86.810259">
        <ele>4350.4</ele>
        <time>2022-10-27T10:34:38.000Z</time>
      </trkpt>
      <trkpt lat="27.909312" lon="86.810259">
        <ele>4350.2</ele>
        <time>2022-10-27T10:34:40.000Z</time>
      </trkpt>
      <trkpt lat="27.90929" lon="86.810266">
        <ele>4350</ele>
        <time>2022-10-27T10:34:42.000Z</time>
      </trkpt>
      <trkpt lat="27.909267" lon="86.810278">
        <ele>4350</ele>
        <time>2022-10-27T10:34:44.000Z</time>
      </trkpt>
      <trkpt lat="27.909248" lon="86.810285">
        <ele>4349.6</ele>
        <time>2022-10-27T10:34:46.000Z</time>
      </trkpt>
      <trkpt lat="27.909229" lon="86.810298">
        <ele>4349.4</ele>
        <time>2022-10-27T10:34:48.000Z</time>
      </trkpt>
      <trkpt lat="27.90921" lon="86.810298">
        <ele>4349</ele>
        <time>2022-10-27T10:34:50.000Z</time>
      </trkpt>
      <trkpt lat="27.90919" lon="86.810304">
        <ele>4348.8</ele>
        <time>2022-10-27T10:34:52.000Z</time>
      </trkpt>
      <trkpt lat="27.909165" lon="86.81031">
        <ele>4348.6</ele>
        <time>2022-10-27T10:34:54.000Z</time>
      </trkpt>
      <trkpt lat="27.909136" lon="86.810317">
        <ele>4348</ele>
        <time>2022-10-27T10:34:57.000Z</time>
      </trkpt>
      <trkpt lat="27.909114" lon="86.810323">
        <ele>4348.2</ele>
        <time>2022-10-27T10:34:59.000Z</time>
      </trkpt>
      <trkpt lat="27.909072" lon="86.810317">
        <ele>4347.6</ele>
        <time>2022-10-27T10:35:03.000Z</time>
      </trkpt>
      <trkpt lat="27.909043" lon="86.81031">
        <ele>4347.2</ele>
        <time>2022-10-27T10:35:05.000Z</time>
      </trkpt>
      <trkpt lat="27.909018" lon="86.81031">
        <ele>4346.8</ele>
        <time>2022-10-27T10:35:08.000Z</time>
      </trkpt>
      <trkpt lat="27.908989" lon="86.81031">
        <ele>4346.8</ele>
        <time>2022-10-27T10:35:11.000Z</time>
      </trkpt>
      <trkpt lat="27.908963" lon="86.81031">
        <ele>4346.8</ele>
        <time>2022-10-27T10:35:13.000Z</time>
      </trkpt>
      <trkpt lat="27.908944" lon="86.81031">
        <ele>4346.6</ele>
        <time>2022-10-27T10:35:15.000Z</time>
      </trkpt>
      <trkpt lat="27.908922" lon="86.810317">
        <ele>4346</ele>
        <time>2022-10-27T10:35:18.000Z</time>
      </trkpt>
      <trkpt lat="27.908915" lon="86.810336">
        <ele>4346.2</ele>
        <time>2022-10-27T10:35:19.000Z</time>
      </trkpt>
      <trkpt lat="27.908896" lon="86.810342">
        <ele>4346.2</ele>
        <time>2022-10-27T10:35:21.000Z</time>
      </trkpt>
      <trkpt lat="27.90888" lon="86.810355">
        <ele>4346.2</ele>
        <time>2022-10-27T10:35:23.000Z</time>
      </trkpt>
      <trkpt lat="27.908858" lon="86.810374">
        <ele>4345.8</ele>
        <time>2022-10-27T10:35:26.000Z</time>
      </trkpt>
      <trkpt lat="27.908842" lon="86.810394">
        <ele>4345.4</ele>
        <time>2022-10-27T10:35:29.000Z</time>
      </trkpt>
      <trkpt lat="27.908813" lon="86.810445">
        <ele>4345</ele>
        <time>2022-10-27T10:35:34.000Z</time>
      </trkpt>
      <trkpt lat="27.908797" lon="86.810464">
        <ele>4344.8</ele>
        <time>2022-10-27T10:35:36.000Z</time>
      </trkpt>
      <trkpt lat="27.908778" lon="86.810477">
        <ele>4344.8</ele>
        <time>2022-10-27T10:35:38.000Z</time>
      </trkpt>
      <trkpt lat="27.908758" lon="86.810496">
        <ele>4344.6</ele>
        <time>2022-10-27T10:35:40.000Z</time>
      </trkpt>
      <trkpt lat="27.908733" lon="86.810509">
        <ele>4344.4</ele>
        <time>2022-10-27T10:35:43.000Z</time>
      </trkpt>
      <trkpt lat="27.908714" lon="86.810534">
        <ele>4344.4</ele>
        <time>2022-10-27T10:35:45.000Z</time>
      </trkpt>
      <trkpt lat="27.908698" lon="86.810554">
        <ele>4344.4</ele>
        <time>2022-10-27T10:35:47.000Z</time>
      </trkpt>
      <trkpt lat="27.908685" lon="86.810573">
        <ele>4343.8</ele>
        <time>2022-10-27T10:35:49.000Z</time>
      </trkpt>
      <trkpt lat="27.908666" lon="86.810586">
        <ele>4343.6</ele>
        <time>2022-10-27T10:35:51.000Z</time>
      </trkpt>
      <trkpt lat="27.908646" lon="86.810598">
        <ele>4343.2</ele>
        <time>2022-10-27T10:35:54.000Z</time>
      </trkpt>
      <trkpt lat="27.908634" lon="86.810618">
        <ele>4343</ele>
        <time>2022-10-27T10:35:56.000Z</time>
      </trkpt>
      <trkpt lat="27.908618" lon="86.810643">
        <ele>4343</ele>
        <time>2022-10-27T10:35:59.000Z</time>
      </trkpt>
      <trkpt lat="27.908614" lon="86.810669">
        <ele>4343.2</ele>
        <time>2022-10-27T10:36:01.000Z</time>
      </trkpt>
      <trkpt lat="27.908608" lon="86.810694">
        <ele>4343.2</ele>
        <time>2022-10-27T10:36:03.000Z</time>
      </trkpt>
      <trkpt lat="27.908598" lon="86.810714">
        <ele>4343</ele>
        <time>2022-10-27T10:36:05.000Z</time>
      </trkpt>
      <trkpt lat="27.908582" lon="86.810733">
        <ele>4342.4</ele>
        <time>2022-10-27T10:36:07.000Z</time>
      </trkpt>
      <trkpt lat="27.908566" lon="86.810746">
        <ele>4342.4</ele>
        <time>2022-10-27T10:36:09.000Z</time>
      </trkpt>
      <trkpt lat="27.908547" lon="86.810758">
        <ele>4342.2</ele>
        <time>2022-10-27T10:36:11.000Z</time>
      </trkpt>
      <trkpt lat="27.908531" lon="86.810771">
        <ele>4341.8</ele>
        <time>2022-10-27T10:36:13.000Z</time>
      </trkpt>
      <trkpt lat="27.908518" lon="86.81079">
        <ele>4341.8</ele>
        <time>2022-10-27T10:36:15.000Z</time>
      </trkpt>
      <trkpt lat="27.908506" lon="86.810816">
        <ele>4341.8</ele>
        <time>2022-10-27T10:36:17.000Z</time>
      </trkpt>
      <trkpt lat="27.90849" lon="86.810829">
        <ele>4341.8</ele>
        <time>2022-10-27T10:36:19.000Z</time>
      </trkpt>
      <trkpt lat="27.908467" lon="86.810854">
        <ele>4341.6</ele>
        <time>2022-10-27T10:36:22.000Z</time>
      </trkpt>
      <trkpt lat="27.908448" lon="86.81088">
        <ele>4341.4</ele>
        <time>2022-10-27T10:36:25.000Z</time>
      </trkpt>
      <trkpt lat="27.908435" lon="86.810906">
        <ele>4341.2</ele>
        <time>2022-10-27T10:36:27.000Z</time>
      </trkpt>
      <trkpt lat="27.908419" lon="86.810931">
        <ele>4341</ele>
        <time>2022-10-27T10:36:30.000Z</time>
      </trkpt>
      <trkpt lat="27.9084" lon="86.810944">
        <ele>4340.6</ele>
        <time>2022-10-27T10:36:32.000Z</time>
      </trkpt>
      <trkpt lat="27.908387" lon="86.81097">
        <ele>4340.6</ele>
        <time>2022-10-27T10:36:34.000Z</time>
      </trkpt>
      <trkpt lat="27.908381" lon="86.810989">
        <ele>4340.6</ele>
        <time>2022-10-27T10:36:36.000Z</time>
      </trkpt>
      <trkpt lat="27.908358" lon="86.811021">
        <ele>4339.8</ele>
        <time>2022-10-27T10:36:39.000Z</time>
      </trkpt>
      <trkpt lat="27.908346" lon="86.81104">
        <ele>4339.8</ele>
        <time>2022-10-27T10:36:41.000Z</time>
      </trkpt>
      <trkpt lat="27.908336" lon="86.811059">
        <ele>4339.8</ele>
        <time>2022-10-27T10:36:43.000Z</time>
      </trkpt>
      <trkpt lat="27.90832" lon="86.811078">
        <ele>4339.8</ele>
        <time>2022-10-27T10:36:45.000Z</time>
      </trkpt>
      <trkpt lat="27.908307" lon="86.811098">
        <ele>4339</ele>
        <time>2022-10-27T10:36:47.000Z</time>
      </trkpt>
      <trkpt lat="27.908298" lon="86.811117">
        <ele>4339.2</ele>
        <time>2022-10-27T10:36:49.000Z</time>
      </trkpt>
      <trkpt lat="27.908291" lon="86.811136">
        <ele>4339.2</ele>
        <time>2022-10-27T10:36:50.000Z</time>
      </trkpt>
      <trkpt lat="27.908275" lon="86.811168">
        <ele>4339</ele>
        <time>2022-10-27T10:36:53.000Z</time>
      </trkpt>
      <trkpt lat="27.908266" lon="86.811187">
        <ele>4339.2</ele>
        <time>2022-10-27T10:36:55.000Z</time>
      </trkpt>
      <trkpt lat="27.908246" lon="86.8112">
        <ele>4338.8</ele>
        <time>2022-10-27T10:36:57.000Z</time>
      </trkpt>
      <trkpt lat="27.90824" lon="86.811219">
        <ele>4338.6</ele>
        <time>2022-10-27T10:36:58.000Z</time>
      </trkpt>
      <trkpt lat="27.908227" lon="86.811251">
        <ele>4338</ele>
        <time>2022-10-27T10:37:01.000Z</time>
      </trkpt>
      <trkpt lat="27.908211" lon="86.811264">
        <ele>4338</ele>
        <time>2022-10-27T10:37:03.000Z</time>
      </trkpt>
      <trkpt lat="27.908198" lon="86.81129">
        <ele>4338</ele>
        <time>2022-10-27T10:37:05.000Z</time>
      </trkpt>
      <trkpt lat="27.908173" lon="86.811309">
        <ele>4337.6</ele>
        <time>2022-10-27T10:37:08.000Z</time>
      </trkpt>
      <trkpt lat="27.908154" lon="86.811334">
        <ele>4337.4</ele>
        <time>2022-10-27T10:37:10.000Z</time>
      </trkpt>
      <trkpt lat="27.908138" lon="86.811347">
        <ele>4337.2</ele>
        <time>2022-10-27T10:37:12.000Z</time>
      </trkpt>
      <trkpt lat="27.908118" lon="86.811354">
        <ele>4337</ele>
        <time>2022-10-27T10:37:14.000Z</time>
      </trkpt>
      <trkpt lat="27.908099" lon="86.811373">
        <ele>4337</ele>
        <time>2022-10-27T10:37:16.000Z</time>
      </trkpt>
      <trkpt lat="27.90808" lon="86.811392">
        <ele>4336.4</ele>
        <time>2022-10-27T10:37:18.000Z</time>
      </trkpt>
      <trkpt lat="27.908058" lon="86.811411">
        <ele>4336.6</ele>
        <time>2022-10-27T10:37:21.000Z</time>
      </trkpt>
      <trkpt lat="27.908042" lon="86.811424">
        <ele>4336.6</ele>
        <time>2022-10-27T10:37:23.000Z</time>
      </trkpt>
      <trkpt lat="27.908016" lon="86.81145">
        <ele>4336.4</ele>
        <time>2022-10-27T10:37:26.000Z</time>
      </trkpt>
      <trkpt lat="27.908" lon="86.811462">
        <ele>4336.4</ele>
        <time>2022-10-27T10:37:28.000Z</time>
      </trkpt>
      <trkpt lat="27.907981" lon="86.811475">
        <ele>4336.4</ele>
        <time>2022-10-27T10:37:30.000Z</time>
      </trkpt>
      <trkpt lat="27.907962" lon="86.811488">
        <ele>4335.8</ele>
        <time>2022-10-27T10:37:32.000Z</time>
      </trkpt>
      <trkpt lat="27.907942" lon="86.811494">
        <ele>4335.6</ele>
        <time>2022-10-27T10:37:34.000Z</time>
      </trkpt>
      <trkpt lat="27.90792" lon="86.811507">
        <ele>4335.2</ele>
        <time>2022-10-27T10:37:36.000Z</time>
      </trkpt>
      <trkpt lat="27.907901" lon="86.811526">
        <ele>4335.2</ele>
        <time>2022-10-27T10:37:38.000Z</time>
      </trkpt>
      <trkpt lat="27.907878" lon="86.811533">
        <ele>4335</ele>
        <time>2022-10-27T10:37:40.000Z</time>
      </trkpt>
      <trkpt lat="27.907859" lon="86.811539">
        <ele>4334.8</ele>
        <time>2022-10-27T10:37:42.000Z</time>
      </trkpt>
      <trkpt lat="27.90784" lon="86.811552">
        <ele>4334.4</ele>
        <time>2022-10-27T10:37:45.000Z</time>
      </trkpt>
      <trkpt lat="27.907811" lon="86.811558">
        <ele>4334</ele>
        <time>2022-10-27T10:37:48.000Z</time>
      </trkpt>
      <trkpt lat="27.907792" lon="86.811571">
        <ele>4333.6</ele>
        <time>2022-10-27T10:37:50.000Z</time>
      </trkpt>
      <trkpt lat="27.90777" lon="86.811584">
        <ele>4334</ele>
        <time>2022-10-27T10:37:52.000Z</time>
      </trkpt>
      <trkpt lat="27.90775" lon="86.81159">
        <ele>4333.6</ele>
        <time>2022-10-27T10:37:54.000Z</time>
      </trkpt>
      <trkpt lat="27.907728" lon="86.81159">
        <ele>4333.6</ele>
        <time>2022-10-27T10:37:56.000Z</time>
      </trkpt>
      <trkpt lat="27.907709" lon="86.81159">
        <ele>4333.4</ele>
        <time>2022-10-27T10:37:58.000Z</time>
      </trkpt>
      <trkpt lat="27.907683" lon="86.81159">
        <ele>4333.4</ele>
        <time>2022-10-27T10:38:00.000Z</time>
      </trkpt>
      <trkpt lat="27.907658" lon="86.811597">
        <ele>4333.4</ele>
        <time>2022-10-27T10:38:02.000Z</time>
      </trkpt>
      <trkpt lat="27.907642" lon="86.81161">
        <ele>4333.4</ele>
        <time>2022-10-27T10:38:03.000Z</time>
      </trkpt>
      <trkpt lat="27.907616" lon="86.811616">
        <ele>4333</ele>
        <time>2022-10-27T10:38:05.000Z</time>
      </trkpt>
      <trkpt lat="27.90759" lon="86.811622">
        <ele>4333</ele>
        <time>2022-10-27T10:38:07.000Z</time>
      </trkpt>
      <trkpt lat="27.907565" lon="86.811629">
        <ele>4333</ele>
        <time>2022-10-27T10:38:09.000Z</time>
      </trkpt>
      <trkpt lat="27.907539" lon="86.811635">
        <ele>4333</ele>
        <time>2022-10-27T10:38:11.000Z</time>
      </trkpt>
      <trkpt lat="27.907523" lon="86.811654">
        <ele>4332.6</ele>
        <time>2022-10-27T10:38:13.000Z</time>
      </trkpt>
      <trkpt lat="27.907504" lon="86.811661">
        <ele>4332.6</ele>
        <time>2022-10-27T10:38:15.000Z</time>
      </trkpt>
      <trkpt lat="27.907482" lon="86.811674">
        <ele>4332.6</ele>
        <time>2022-10-27T10:38:17.000Z</time>
      </trkpt>
      <trkpt lat="27.907456" lon="86.811686">
        <ele>4332.6</ele>
        <time>2022-10-27T10:38:19.000Z</time>
      </trkpt>
      <trkpt lat="27.907434" lon="86.811693">
        <ele>4332.6</ele>
        <time>2022-10-27T10:38:21.000Z</time>
      </trkpt>
      <trkpt lat="27.907414" lon="86.811699">
        <ele>4332</ele>
        <time>2022-10-27T10:38:23.000Z</time>
      </trkpt>
      <trkpt lat="27.907392" lon="86.811712">
        <ele>4331.4</ele>
        <time>2022-10-27T10:38:25.000Z</time>
      </trkpt>
      <trkpt lat="27.907366" lon="86.811725">
        <ele>4331.4</ele>
        <time>2022-10-27T10:38:27.000Z</time>
      </trkpt>
      <trkpt lat="27.907347" lon="86.811738">
        <ele>4331.2</ele>
        <time>2022-10-27T10:38:29.000Z</time>
      </trkpt>
      <trkpt lat="27.907325" lon="86.811738">
        <ele>4331</ele>
        <time>2022-10-27T10:38:31.000Z</time>
      </trkpt>
      <trkpt lat="27.907306" lon="86.81175">
        <ele>4330.4</ele>
        <time>2022-10-27T10:38:33.000Z</time>
      </trkpt>
      <trkpt lat="27.907283" lon="86.811757">
        <ele>4330.4</ele>
        <time>2022-10-27T10:38:35.000Z</time>
      </trkpt>
      <trkpt lat="27.907264" lon="86.811776">
        <ele>4330.4</ele>
        <time>2022-10-27T10:38:37.000Z</time>
      </trkpt>
      <trkpt lat="27.907248" lon="86.811789">
        <ele>4330.4</ele>
        <time>2022-10-27T10:38:39.000Z</time>
      </trkpt>
      <trkpt lat="27.907232" lon="86.811808">
        <ele>4330.4</ele>
        <time>2022-10-27T10:38:41.000Z</time>
      </trkpt>
      <trkpt lat="27.907213" lon="86.811821">
        <ele>4330.2</ele>
        <time>2022-10-27T10:38:43.000Z</time>
      </trkpt>
      <trkpt lat="27.907194" lon="86.811846">
        <ele>4329.8</ele>
        <time>2022-10-27T10:38:45.000Z</time>
      </trkpt>
      <trkpt lat="27.907178" lon="86.811859">
        <ele>4329.6</ele>
        <time>2022-10-27T10:38:47.000Z</time>
      </trkpt>
      <trkpt lat="27.907158" lon="86.811872">
        <ele>4329.6</ele>
        <time>2022-10-27T10:38:49.000Z</time>
      </trkpt>
      <trkpt lat="27.907142" lon="86.811891">
        <ele>4329</ele>
        <time>2022-10-27T10:38:51.000Z</time>
      </trkpt>
      <trkpt lat="27.907123" lon="86.811904">
        <ele>4329</ele>
        <time>2022-10-27T10:38:53.000Z</time>
      </trkpt>
      <trkpt lat="27.907107" lon="86.811923">
        <ele>4328.8</ele>
        <time>2022-10-27T10:38:55.000Z</time>
      </trkpt>
      <trkpt lat="27.907088" lon="86.811936">
        <ele>4329</ele>
        <time>2022-10-27T10:38:57.000Z</time>
      </trkpt>
      <trkpt lat="27.907066" lon="86.811949">
        <ele>4329</ele>
        <time>2022-10-27T10:38:59.000Z</time>
      </trkpt>
      <trkpt lat="27.907046" lon="86.811955">
        <ele>4328.8</ele>
        <time>2022-10-27T10:39:01.000Z</time>
      </trkpt>
      <trkpt lat="27.907037" lon="86.811974">
        <ele>4328.4</ele>
        <time>2022-10-27T10:39:02.000Z</time>
      </trkpt>
      <trkpt lat="27.907014" lon="86.811981">
        <ele>4328.2</ele>
        <time>2022-10-27T10:39:04.000Z</time>
      </trkpt>
      <trkpt lat="27.906995" lon="86.811987">
        <ele>4328.2</ele>
        <time>2022-10-27T10:39:06.000Z</time>
      </trkpt>
      <trkpt lat="27.90697" lon="86.811994">
        <ele>4328</ele>
        <time>2022-10-27T10:39:08.000Z</time>
      </trkpt>
      <trkpt lat="27.906944" lon="86.812006">
        <ele>4327.6</ele>
        <time>2022-10-27T10:39:10.000Z</time>
      </trkpt>
      <trkpt lat="27.906922" lon="86.812013">
        <ele>4327.4</ele>
        <time>2022-10-27T10:39:12.000Z</time>
      </trkpt>
      <trkpt lat="27.906902" lon="86.812026">
        <ele>4327.4</ele>
        <time>2022-10-27T10:39:14.000Z</time>
      </trkpt>
      <trkpt lat="27.90689" lon="86.812045">
        <ele>4327.2</ele>
        <time>2022-10-27T10:39:16.000Z</time>
      </trkpt>
      <trkpt lat="27.906864" lon="86.812051">
        <ele>4327.2</ele>
        <time>2022-10-27T10:39:18.000Z</time>
      </trkpt>
      <trkpt lat="27.906842" lon="86.812058">
        <ele>4326.8</ele>
        <time>2022-10-27T10:39:20.000Z</time>
      </trkpt>
      <trkpt lat="27.906822" lon="86.812064">
        <ele>4326.8</ele>
        <time>2022-10-27T10:39:22.000Z</time>
      </trkpt>
      <trkpt lat="27.906797" lon="86.812064">
        <ele>4326.8</ele>
        <time>2022-10-27T10:39:24.000Z</time>
      </trkpt>
      <trkpt lat="27.906774" lon="86.81207">
        <ele>4326.2</ele>
        <time>2022-10-27T10:39:26.000Z</time>
      </trkpt>
      <trkpt lat="27.906749" lon="86.812083">
        <ele>4326</ele>
        <time>2022-10-27T10:39:28.000Z</time>
      </trkpt>
      <trkpt lat="27.90673" lon="86.81209">
        <ele>4325.8</ele>
        <time>2022-10-27T10:39:30.000Z</time>
      </trkpt>
      <trkpt lat="27.906704" lon="86.812096">
        <ele>4325.6</ele>
        <time>2022-10-27T10:39:32.000Z</time>
      </trkpt>
      <trkpt lat="27.906682" lon="86.812102">
        <ele>4325.6</ele>
        <time>2022-10-27T10:39:34.000Z</time>
      </trkpt>
      <trkpt lat="27.906662" lon="86.812122">
        <ele>4325.8</ele>
        <time>2022-10-27T10:39:36.000Z</time>
      </trkpt>
      <trkpt lat="27.906643" lon="86.812128">
        <ele>4325.8</ele>
        <time>2022-10-27T10:39:38.000Z</time>
      </trkpt>
      <trkpt lat="27.906618" lon="86.812141">
        <ele>4325.4</ele>
        <time>2022-10-27T10:39:41.000Z</time>
      </trkpt>
      <trkpt lat="27.906595" lon="86.812154">
        <ele>4325</ele>
        <time>2022-10-27T10:39:44.000Z</time>
      </trkpt>
      <trkpt lat="27.906573" lon="86.812166">
        <ele>4325</ele>
        <time>2022-10-27T10:39:46.000Z</time>
      </trkpt>
      <trkpt lat="27.90655" lon="86.812173">
        <ele>4324.8</ele>
        <time>2022-10-27T10:39:48.000Z</time>
      </trkpt>
      <trkpt lat="27.906522" lon="86.812186">
        <ele>4324.4</ele>
        <time>2022-10-27T10:39:51.000Z</time>
      </trkpt>
      <trkpt lat="27.906502" lon="86.812192">
        <ele>4324.2</ele>
        <time>2022-10-27T10:39:54.000Z</time>
      </trkpt>
      <trkpt lat="27.90648" lon="86.812205">
        <ele>4324</ele>
        <time>2022-10-27T10:39:56.000Z</time>
      </trkpt>
      <trkpt lat="27.906461" lon="86.812218">
        <ele>4324</ele>
        <time>2022-10-27T10:39:58.000Z</time>
      </trkpt>
      <trkpt lat="27.906429" lon="86.812224">
        <ele>4324.4</ele>
        <time>2022-10-27T10:40:00.000Z</time>
      </trkpt>
      <trkpt lat="27.906403" lon="86.81223">
        <ele>4324</ele>
        <time>2022-10-27T10:40:02.000Z</time>
      </trkpt>
      <trkpt lat="27.906378" lon="86.812224">
        <ele>4324</ele>
        <time>2022-10-27T10:40:04.000Z</time>
      </trkpt>
      <trkpt lat="27.906358" lon="86.81223">
        <ele>4324</ele>
        <time>2022-10-27T10:40:06.000Z</time>
      </trkpt>
      <trkpt lat="27.906342" lon="86.81225">
        <ele>4323.6</ele>
        <time>2022-10-27T10:40:08.000Z</time>
      </trkpt>
      <trkpt lat="27.90632" lon="86.812262">
        <ele>4324</ele>
        <time>2022-10-27T10:40:10.000Z</time>
      </trkpt>
      <trkpt lat="27.906301" lon="86.812282">
        <ele>4323.4</ele>
        <time>2022-10-27T10:40:12.000Z</time>
      </trkpt>
      <trkpt lat="27.906282" lon="86.812288">
        <ele>4323.2</ele>
        <time>2022-10-27T10:40:14.000Z</time>
      </trkpt>
      <trkpt lat="27.906259" lon="86.812301">
        <ele>4323.2</ele>
        <time>2022-10-27T10:40:16.000Z</time>
      </trkpt>
      <trkpt lat="27.906234" lon="86.81232">
        <ele>4322.8</ele>
        <time>2022-10-27T10:40:18.000Z</time>
      </trkpt>
      <trkpt lat="27.906218" lon="86.812333">
        <ele>4322.8</ele>
        <time>2022-10-27T10:40:20.000Z</time>
      </trkpt>
      <trkpt lat="27.906195" lon="86.812339">
        <ele>4323.2</ele>
        <time>2022-10-27T10:40:22.000Z</time>
      </trkpt>
      <trkpt lat="27.906173" lon="86.812365">
        <ele>4323.4</ele>
        <time>2022-10-27T10:40:24.000Z</time>
      </trkpt>
      <trkpt lat="27.90615" lon="86.812378">
        <ele>4323.4</ele>
        <time>2022-10-27T10:40:26.000Z</time>
      </trkpt>
      <trkpt lat="27.906125" lon="86.812378">
        <ele>4323.2</ele>
        <time>2022-10-27T10:40:28.000Z</time>
      </trkpt>
      <trkpt lat="27.906099" lon="86.81239">
        <ele>4323.2</ele>
        <time>2022-10-27T10:40:30.000Z</time>
      </trkpt>
      <trkpt lat="27.906083" lon="86.812403">
        <ele>4322.8</ele>
        <time>2022-10-27T10:40:32.000Z</time>
      </trkpt>
      <trkpt lat="27.906061" lon="86.81241">
        <ele>4322.6</ele>
        <time>2022-10-27T10:40:34.000Z</time>
      </trkpt>
      <trkpt lat="27.906038" lon="86.812422">
        <ele>4322.4</ele>
        <time>2022-10-27T10:40:36.000Z</time>
      </trkpt>
      <trkpt lat="27.906019" lon="86.812422">
        <ele>4322</ele>
        <time>2022-10-27T10:40:38.000Z</time>
      </trkpt>
      <trkpt lat="27.905994" lon="86.812442">
        <ele>4322</ele>
        <time>2022-10-27T10:40:40.000Z</time>
      </trkpt>
      <trkpt lat="27.905971" lon="86.812448">
        <ele>4322.4</ele>
        <time>2022-10-27T10:40:42.000Z</time>
      </trkpt>
      <trkpt lat="27.905952" lon="86.812461">
        <ele>4322</ele>
        <time>2022-10-27T10:40:44.000Z</time>
      </trkpt>
      <trkpt lat="27.905933" lon="86.812461">
        <ele>4321.8</ele>
        <time>2022-10-27T10:40:46.000Z</time>
      </trkpt>
      <trkpt lat="27.905914" lon="86.812467">
        <ele>4321.6</ele>
        <time>2022-10-27T10:40:48.000Z</time>
      </trkpt>
      <trkpt lat="27.905894" lon="86.81248">
        <ele>4321.8</ele>
        <time>2022-10-27T10:40:50.000Z</time>
      </trkpt>
      <trkpt lat="27.905878" lon="86.812493">
        <ele>4321.6</ele>
        <time>2022-10-27T10:40:52.000Z</time>
      </trkpt>
      <trkpt lat="27.905853" lon="86.812506">
        <ele>4321.4</ele>
        <time>2022-10-27T10:40:55.000Z</time>
      </trkpt>
      <trkpt lat="27.905827" lon="86.812518">
        <ele>4320.8</ele>
        <time>2022-10-27T10:40:57.000Z</time>
      </trkpt>
      <trkpt lat="27.905808" lon="86.812525">
        <ele>4320.6</ele>
        <time>2022-10-27T10:40:59.000Z</time>
      </trkpt>
      <trkpt lat="27.905786" lon="86.812531">
        <ele>4320.8</ele>
        <time>2022-10-27T10:41:01.000Z</time>
      </trkpt>
      <trkpt lat="27.90577" lon="86.812544">
        <ele>4320.8</ele>
        <time>2022-10-27T10:41:03.000Z</time>
      </trkpt>
      <trkpt lat="27.905744" lon="86.81255">
        <ele>4320.6</ele>
        <time>2022-10-27T10:41:05.000Z</time>
      </trkpt>
      <trkpt lat="27.905718" lon="86.812563">
        <ele>4320.6</ele>
        <time>2022-10-27T10:41:07.000Z</time>
      </trkpt>
      <trkpt lat="27.905699" lon="86.812563">
        <ele>4320.6</ele>
        <time>2022-10-27T10:41:09.000Z</time>
      </trkpt>
      <trkpt lat="27.90568" lon="86.81257">
        <ele>4320.6</ele>
        <time>2022-10-27T10:41:11.000Z</time>
      </trkpt>
      <trkpt lat="27.905658" lon="86.812582">
        <ele>4319.8</ele>
        <time>2022-10-27T10:41:14.000Z</time>
      </trkpt>
      <trkpt lat="27.905638" lon="86.812602">
        <ele>4319.6</ele>
        <time>2022-10-27T10:41:16.000Z</time>
      </trkpt>
      <trkpt lat="27.905616" lon="86.812608">
        <ele>4319.8</ele>
        <time>2022-10-27T10:41:18.000Z</time>
      </trkpt>
      <trkpt lat="27.9056" lon="86.812621">
        <ele>4319.8</ele>
        <time>2022-10-27T10:41:20.000Z</time>
      </trkpt>
      <trkpt lat="27.905584" lon="86.81264">
        <ele>4319.8</ele>
        <time>2022-10-27T10:41:22.000Z</time>
      </trkpt>
      <trkpt lat="27.905565" lon="86.812653">
        <ele>4319.6</ele>
        <time>2022-10-27T10:41:24.000Z</time>
      </trkpt>
      <trkpt lat="27.905549" lon="86.812666">
        <ele>4319.8</ele>
        <time>2022-10-27T10:41:26.000Z</time>
      </trkpt>
      <trkpt lat="27.905533" lon="86.812685">
        <ele>4319.6</ele>
        <time>2022-10-27T10:41:28.000Z</time>
      </trkpt>
      <trkpt lat="27.905514" lon="86.812691">
        <ele>4319</ele>
        <time>2022-10-27T10:41:30.000Z</time>
      </trkpt>
      <trkpt lat="27.905491" lon="86.812704">
        <ele>4319</ele>
        <time>2022-10-27T10:41:32.000Z</time>
      </trkpt>
      <trkpt lat="27.905475" lon="86.812723">
        <ele>4318.8</ele>
        <time>2022-10-27T10:41:34.000Z</time>
      </trkpt>
      <trkpt lat="27.90545" lon="86.812736">
        <ele>4318.4</ele>
        <time>2022-10-27T10:41:36.000Z</time>
      </trkpt>
      <trkpt lat="27.905427" lon="86.812768">
        <ele>4318.8</ele>
        <time>2022-10-27T10:41:39.000Z</time>
      </trkpt>
      <trkpt lat="27.905402" lon="86.812774">
        <ele>4318.8</ele>
        <time>2022-10-27T10:41:41.000Z</time>
      </trkpt>
      <trkpt lat="27.905379" lon="86.812781">
        <ele>4318.8</ele>
        <time>2022-10-27T10:41:43.000Z</time>
      </trkpt>
      <trkpt lat="27.905354" lon="86.8128">
        <ele>4318.8</ele>
        <time>2022-10-27T10:41:46.000Z</time>
      </trkpt>
      <trkpt lat="27.905334" lon="86.812819">
        <ele>4318.8</ele>
        <time>2022-10-27T10:41:48.000Z</time>
      </trkpt>
      <trkpt lat="27.905315" lon="86.812826">
        <ele>4318.2</ele>
        <time>2022-10-27T10:41:50.000Z</time>
      </trkpt>
      <trkpt lat="27.905296" lon="86.812845">
        <ele>4318.2</ele>
        <time>2022-10-27T10:41:52.000Z</time>
      </trkpt>
      <trkpt lat="27.90528" lon="86.812858">
        <ele>4318.2</ele>
        <time>2022-10-27T10:41:54.000Z</time>
      </trkpt>
      <trkpt lat="27.905261" lon="86.812877">
        <ele>4318.2</ele>
        <time>2022-10-27T10:41:56.000Z</time>
      </trkpt>
      <trkpt lat="27.905242" lon="86.812883">
        <ele>4318.2</ele>
        <time>2022-10-27T10:41:58.000Z</time>
      </trkpt>
      <trkpt lat="27.905222" lon="86.812896">
        <ele>4317.6</ele>
        <time>2022-10-27T10:42:00.000Z</time>
      </trkpt>
      <trkpt lat="27.905206" lon="86.812922">
        <ele>4317.6</ele>
        <time>2022-10-27T10:42:02.000Z</time>
      </trkpt>
      <trkpt lat="27.90519" lon="86.812934">
        <ele>4317.2</ele>
        <time>2022-10-27T10:42:04.000Z</time>
      </trkpt>
      <trkpt lat="27.905171" lon="86.812947">
        <ele>4317.2</ele>
        <time>2022-10-27T10:42:06.000Z</time>
      </trkpt>
      <trkpt lat="27.905158" lon="86.812966">
        <ele>4317</ele>
        <time>2022-10-27T10:42:08.000Z</time>
      </trkpt>
      <trkpt lat="27.905139" lon="86.812986">
        <ele>4317</ele>
        <time>2022-10-27T10:42:10.000Z</time>
      </trkpt>
      <trkpt lat="27.905117" lon="86.812998">
        <ele>4317</ele>
        <time>2022-10-27T10:42:12.000Z</time>
      </trkpt>
      <trkpt lat="27.905101" lon="86.813011">
        <ele>4316.6</ele>
        <time>2022-10-27T10:42:14.000Z</time>
      </trkpt>
      <trkpt lat="27.905082" lon="86.813024">
        <ele>4316.4</ele>
        <time>2022-10-27T10:42:16.000Z</time>
      </trkpt>
      <trkpt lat="27.905066" lon="86.813037">
        <ele>4317.2</ele>
        <time>2022-10-27T10:42:18.000Z</time>
      </trkpt>
      <trkpt lat="27.905043" lon="86.813043">
        <ele>4317.2</ele>
        <time>2022-10-27T10:42:21.000Z</time>
      </trkpt>
      <trkpt lat="27.905024" lon="86.813062">
        <ele>4317.2</ele>
        <time>2022-10-27T10:42:23.000Z</time>
      </trkpt>
      <trkpt lat="27.905002" lon="86.813082">
        <ele>4317.2</ele>
        <time>2022-10-27T10:42:25.000Z</time>
      </trkpt>
      <trkpt lat="27.904989" lon="86.813101">
        <ele>4316.4</ele>
        <time>2022-10-27T10:42:27.000Z</time>
      </trkpt>
      <trkpt lat="27.904976" lon="86.813126">
        <ele>4316.4</ele>
        <time>2022-10-27T10:42:29.000Z</time>
      </trkpt>
      <trkpt lat="27.90496" lon="86.813158">
        <ele>4315.8</ele>
        <time>2022-10-27T10:42:31.000Z</time>
      </trkpt>
      <trkpt lat="27.904938" lon="86.813171">
        <ele>4316.2</ele>
        <time>2022-10-27T10:42:33.000Z</time>
      </trkpt>
      <trkpt lat="27.904922" lon="86.813184">
        <ele>4316.4</ele>
        <time>2022-10-27T10:42:35.000Z</time>
      </trkpt>
      <trkpt lat="27.904899" lon="86.813203">
        <ele>4316.4</ele>
        <time>2022-10-27T10:42:37.000Z</time>
      </trkpt>
      <trkpt lat="27.904874" lon="86.81321">
        <ele>4316.4</ele>
        <time>2022-10-27T10:42:39.000Z</time>
      </trkpt>
      <trkpt lat="27.904854" lon="86.813216">
        <ele>4316.2</ele>
        <time>2022-10-27T10:42:41.000Z</time>
      </trkpt>
      <trkpt lat="27.904832" lon="86.813235">
        <ele>4316.2</ele>
        <time>2022-10-27T10:42:43.000Z</time>
      </trkpt>
      <trkpt lat="27.904813" lon="86.813248">
        <ele>4315.6</ele>
        <time>2022-10-27T10:42:45.000Z</time>
      </trkpt>
      <trkpt lat="27.904794" lon="86.813261">
        <ele>4315.6</ele>
        <time>2022-10-27T10:42:47.000Z</time>
      </trkpt>
      <trkpt lat="27.904778" lon="86.81328">
        <ele>4315.6</ele>
        <time>2022-10-27T10:42:49.000Z</time>
      </trkpt>
      <trkpt lat="27.904755" lon="86.813299">
        <ele>4315.6</ele>
        <time>2022-10-27T10:42:52.000Z</time>
      </trkpt>
      <trkpt lat="27.904736" lon="86.813325">
        <ele>4315.4</ele>
        <time>2022-10-27T10:42:54.000Z</time>
      </trkpt>
      <trkpt lat="27.904714" lon="86.813338">
        <ele>4315</ele>
        <time>2022-10-27T10:42:57.000Z</time>
      </trkpt>
      <trkpt lat="27.904694" lon="86.813344">
        <ele>4315.4</ele>
        <time>2022-10-27T10:42:59.000Z</time>
      </trkpt>
      <trkpt lat="27.904672" lon="86.813363">
        <ele>4314.8</ele>
        <time>2022-10-27T10:43:01.000Z</time>
      </trkpt>
      <trkpt lat="27.904653" lon="86.813376">
        <ele>4314.6</ele>
        <time>2022-10-27T10:43:03.000Z</time>
      </trkpt>
      <trkpt lat="27.904634" lon="86.813395">
        <ele>4314.6</ele>
        <time>2022-10-27T10:43:05.000Z</time>
      </trkpt>
      <trkpt lat="27.904611" lon="86.813414">
        <ele>4314.8</ele>
        <time>2022-10-27T10:43:08.000Z</time>
      </trkpt>
      <trkpt lat="27.904586" lon="86.813434">
        <ele>4314</ele>
        <time>2022-10-27T10:43:11.000Z</time>
      </trkpt>
      <trkpt lat="27.904563" lon="86.81344">
        <ele>4313.4</ele>
        <time>2022-10-27T10:43:13.000Z</time>
      </trkpt>
      <trkpt lat="27.904544" lon="86.813453">
        <ele>4313.4</ele>
        <time>2022-10-27T10:43:15.000Z</time>
      </trkpt>
      <trkpt lat="27.904525" lon="86.813472">
        <ele>4313.2</ele>
        <time>2022-10-27T10:43:17.000Z</time>
      </trkpt>
      <trkpt lat="27.904502" lon="86.813491">
        <ele>4313.4</ele>
        <time>2022-10-27T10:43:20.000Z</time>
      </trkpt>
      <trkpt lat="27.904486" lon="86.813517">
        <ele>4313.4</ele>
        <time>2022-10-27T10:43:22.000Z</time>
      </trkpt>
      <trkpt lat="27.904474" lon="86.813536">
        <ele>4313.2</ele>
        <time>2022-10-27T10:43:24.000Z</time>
      </trkpt>
      <trkpt lat="27.904467" lon="86.813555">
        <ele>4313.2</ele>
        <time>2022-10-27T10:43:25.000Z</time>
      </trkpt>
      <trkpt lat="27.904451" lon="86.813568">
        <ele>4313</ele>
        <time>2022-10-27T10:43:27.000Z</time>
      </trkpt>
      <trkpt lat="27.904435" lon="86.813581">
        <ele>4312.8</ele>
        <time>2022-10-27T10:43:29.000Z</time>
      </trkpt>
      <trkpt lat="27.904422" lon="86.8136">
        <ele>4312.8</ele>
        <time>2022-10-27T10:43:30.000Z</time>
      </trkpt>
      <trkpt lat="27.904403" lon="86.813613">
        <ele>4313</ele>
        <time>2022-10-27T10:43:32.000Z</time>
      </trkpt>
      <trkpt lat="27.904384" lon="86.813632">
        <ele>4313</ele>
        <time>2022-10-27T10:43:34.000Z</time>
      </trkpt>
      <trkpt lat="27.904368" lon="86.813645">
        <ele>4312.6</ele>
        <time>2022-10-27T10:43:36.000Z</time>
      </trkpt>
      <trkpt lat="27.904352" lon="86.813658">
        <ele>4312.4</ele>
        <time>2022-10-27T10:43:38.000Z</time>
      </trkpt>
      <trkpt lat="27.904333" lon="86.813683">
        <ele>4312.6</ele>
        <time>2022-10-27T10:43:40.000Z</time>
      </trkpt>
      <trkpt lat="27.904314" lon="86.813696">
        <ele>4312.4</ele>
        <time>2022-10-27T10:43:42.000Z</time>
      </trkpt>
      <trkpt lat="27.904304" lon="86.813715">
        <ele>4312.4</ele>
        <time>2022-10-27T10:43:43.000Z</time>
      </trkpt>
      <trkpt lat="27.904288" lon="86.813728">
        <ele>4312.2</ele>
        <time>2022-10-27T10:43:45.000Z</time>
      </trkpt>
      <trkpt lat="27.904272" lon="86.813754">
        <ele>4311.6</ele>
        <time>2022-10-27T10:43:47.000Z</time>
      </trkpt>
      <trkpt lat="27.904256" lon="86.813766">
        <ele>4311.6</ele>
        <time>2022-10-27T10:43:49.000Z</time>
      </trkpt>
      <trkpt lat="27.90424" lon="86.813779">
        <ele>4311.6</ele>
        <time>2022-10-27T10:43:51.000Z</time>
      </trkpt>
      <trkpt lat="27.904234" lon="86.813798">
        <ele>4311.4</ele>
        <time>2022-10-27T10:43:52.000Z</time>
      </trkpt>
      <trkpt lat="27.904214" lon="86.813805">
        <ele>4311.4</ele>
        <time>2022-10-27T10:43:54.000Z</time>
      </trkpt>
      <trkpt lat="27.904195" lon="86.81383">
        <ele>4311</ele>
        <time>2022-10-27T10:43:56.000Z</time>
      </trkpt>
      <trkpt lat="27.904173" lon="86.813837">
        <ele>4310.6</ele>
        <time>2022-10-27T10:43:58.000Z</time>
      </trkpt>
      <trkpt lat="27.904157" lon="86.813856">
        <ele>4310.6</ele>
        <time>2022-10-27T10:44:00.000Z</time>
      </trkpt>
      <trkpt lat="27.904141" lon="86.813875">
        <ele>4310.8</ele>
        <time>2022-10-27T10:44:02.000Z</time>
      </trkpt>
      <trkpt lat="27.904122" lon="86.813888">
        <ele>4310.8</ele>
        <time>2022-10-27T10:44:04.000Z</time>
      </trkpt>
      <trkpt lat="27.904109" lon="86.813914">
        <ele>4310.8</ele>
        <time>2022-10-27T10:44:06.000Z</time>
      </trkpt>
      <trkpt lat="27.90409" lon="86.813933">
        <ele>4310.4</ele>
        <time>2022-10-27T10:44:08.000Z</time>
      </trkpt>
      <trkpt lat="27.904077" lon="86.813952">
        <ele>4310.8</ele>
        <time>2022-10-27T10:44:10.000Z</time>
      </trkpt>
      <trkpt lat="27.904054" lon="86.813978">
        <ele>4310.4</ele>
        <time>2022-10-27T10:44:12.000Z</time>
      </trkpt>
      <trkpt lat="27.904038" lon="86.813997">
        <ele>4310.4</ele>
        <time>2022-10-27T10:44:14.000Z</time>
      </trkpt>
      <trkpt lat="27.904019" lon="86.814016">
        <ele>4310</ele>
        <time>2022-10-27T10:44:16.000Z</time>
      </trkpt>
      <trkpt lat="27.90401" lon="86.814035">
        <ele>4310</ele>
        <time>2022-10-27T10:44:17.000Z</time>
      </trkpt>
      <trkpt lat="27.903984" lon="86.814048">
        <ele>4310</ele>
        <time>2022-10-27T10:44:19.000Z</time>
      </trkpt>
      <trkpt lat="27.903965" lon="86.814067">
        <ele>4309.6</ele>
        <time>2022-10-27T10:44:21.000Z</time>
      </trkpt>
      <trkpt lat="27.903958" lon="86.814086">
        <ele>4309.6</ele>
        <time>2022-10-27T10:44:23.000Z</time>
      </trkpt>
      <trkpt lat="27.903939" lon="86.814118">
        <ele>4309.4</ele>
        <time>2022-10-27T10:44:25.000Z</time>
      </trkpt>
      <trkpt lat="27.903923" lon="86.814131">
        <ele>4309.2</ele>
        <time>2022-10-27T10:44:27.000Z</time>
      </trkpt>
      <trkpt lat="27.903901" lon="86.814138">
        <ele>4309.4</ele>
        <time>2022-10-27T10:44:30.000Z</time>
      </trkpt>
      <trkpt lat="27.903891" lon="86.814157">
        <ele>4310</ele>
        <time>2022-10-27T10:44:39.000Z</time>
      </trkpt>
      <trkpt lat="27.903875" lon="86.814176">
        <ele>4309.2</ele>
        <time>2022-10-27T10:44:43.000Z</time>
      </trkpt>
      <trkpt lat="27.903862" lon="86.814195">
        <ele>4309.2</ele>
        <time>2022-10-27T10:44:45.000Z</time>
      </trkpt>
      <trkpt lat="27.903834" lon="86.814208">
        <ele>4309</ele>
        <time>2022-10-27T10:44:48.000Z</time>
      </trkpt>
      <trkpt lat="27.903821" lon="86.814227">
        <ele>4309</ele>
        <time>2022-10-27T10:44:50.000Z</time>
      </trkpt>
      <trkpt lat="27.903802" lon="86.814246">
        <ele>4308.4</ele>
        <time>2022-10-27T10:44:52.000Z</time>
      </trkpt>
      <trkpt lat="27.903786" lon="86.814272">
        <ele>4308.6</ele>
        <time>2022-10-27T10:44:54.000Z</time>
      </trkpt>
      <trkpt lat="27.903747" lon="86.81433">
        <ele>4308.6</ele>
        <time>2022-10-27T10:45:03.000Z</time>
      </trkpt>
      <trkpt lat="27.903734" lon="86.814355">
        <ele>4308.4</ele>
        <time>2022-10-27T10:45:05.000Z</time>
      </trkpt>
      <trkpt lat="27.903712" lon="86.814374">
        <ele>4308.2</ele>
        <time>2022-10-27T10:45:08.000Z</time>
      </trkpt>
      <trkpt lat="27.903686" lon="86.814387">
        <ele>4308.4</ele>
        <time>2022-10-27T10:45:10.000Z</time>
      </trkpt>
      <trkpt lat="27.90367" lon="86.8144">
        <ele>4308.2</ele>
        <time>2022-10-27T10:45:12.000Z</time>
      </trkpt>
      <trkpt lat="27.903654" lon="86.814426">
        <ele>4307.8</ele>
        <time>2022-10-27T10:45:15.000Z</time>
      </trkpt>
      <trkpt lat="27.903635" lon="86.814438">
        <ele>4307.8</ele>
        <time>2022-10-27T10:45:17.000Z</time>
      </trkpt>
      <trkpt lat="27.903619" lon="86.814451">
        <ele>4307.6</ele>
        <time>2022-10-27T10:45:19.000Z</time>
      </trkpt>
      <trkpt lat="27.903603" lon="86.81447">
        <ele>4307.6</ele>
        <time>2022-10-27T10:45:21.000Z</time>
      </trkpt>
      <trkpt lat="27.903587" lon="86.814483">
        <ele>4307.8</ele>
        <time>2022-10-27T10:45:23.000Z</time>
      </trkpt>
      <trkpt lat="27.903552" lon="86.814515">
        <ele>4307.6</ele>
        <time>2022-10-27T10:45:27.000Z</time>
      </trkpt>
      <trkpt lat="27.903533" lon="86.814528">
        <ele>4307.6</ele>
        <time>2022-10-27T10:45:29.000Z</time>
      </trkpt>
      <trkpt lat="27.903514" lon="86.814547">
        <ele>4307</ele>
        <time>2022-10-27T10:45:31.000Z</time>
      </trkpt>
      <trkpt lat="27.903485" lon="86.81456">
        <ele>4306.8</ele>
        <time>2022-10-27T10:45:34.000Z</time>
      </trkpt>
      <trkpt lat="27.903469" lon="86.814573">
        <ele>4306.8</ele>
        <time>2022-10-27T10:45:36.000Z</time>
      </trkpt>
      <trkpt lat="27.903459" lon="86.814592">
        <ele>4306.6</ele>
        <time>2022-10-27T10:45:38.000Z</time>
      </trkpt>
      <trkpt lat="27.903443" lon="86.814611">
        <ele>4306.6</ele>
        <time>2022-10-27T10:45:40.000Z</time>
      </trkpt>
      <trkpt lat="27.903427" lon="86.81463">
        <ele>4306.2</ele>
        <time>2022-10-27T10:45:42.000Z</time>
      </trkpt>
      <trkpt lat="27.903421" lon="86.814656">
        <ele>4306.2</ele>
        <time>2022-10-27T10:45:44.000Z</time>
      </trkpt>
      <trkpt lat="27.903414" lon="86.814682">
        <ele>4306</ele>
        <time>2022-10-27T10:45:46.000Z</time>
      </trkpt>
      <trkpt lat="27.903411" lon="86.814707">
        <ele>4305.8</ele>
        <time>2022-10-27T10:45:48.000Z</time>
      </trkpt>
      <trkpt lat="27.903402" lon="86.814726">
        <ele>4305.8</ele>
        <time>2022-10-27T10:45:50.000Z</time>
      </trkpt>
      <trkpt lat="27.903395" lon="86.814746">
        <ele>4305.8</ele>
        <time>2022-10-27T10:45:51.000Z</time>
      </trkpt>
      <trkpt lat="27.903392" lon="86.814771">
        <ele>4305.6</ele>
        <time>2022-10-27T10:45:54.000Z</time>
      </trkpt>
      <trkpt lat="27.903382" lon="86.814797">
        <ele>4305.8</ele>
        <time>2022-10-27T10:45:56.000Z</time>
      </trkpt>
      <trkpt lat="27.903376" lon="86.814822">
        <ele>4305.8</ele>
        <time>2022-10-27T10:45:58.000Z</time>
      </trkpt>
      <trkpt lat="27.903366" lon="86.814854">
        <ele>4305.4</ele>
        <time>2022-10-27T10:46:01.000Z</time>
      </trkpt>
      <trkpt lat="27.90336" lon="86.81488">
        <ele>4305.2</ele>
        <time>2022-10-27T10:46:03.000Z</time>
      </trkpt>
      <trkpt lat="27.90335" lon="86.814906">
        <ele>4305.4</ele>
        <time>2022-10-27T10:46:05.000Z</time>
      </trkpt>
      <trkpt lat="27.903341" lon="86.814925">
        <ele>4305.4</ele>
        <time>2022-10-27T10:46:07.000Z</time>
      </trkpt>
      <trkpt lat="27.903328" lon="86.81495">
        <ele>4305.4</ele>
        <time>2022-10-27T10:46:09.000Z</time>
      </trkpt>
      <trkpt lat="27.903312" lon="86.81497">
        <ele>4305.2</ele>
        <time>2022-10-27T10:46:11.000Z</time>
      </trkpt>
      <trkpt lat="27.903302" lon="86.814995">
        <ele>4305</ele>
        <time>2022-10-27T10:46:13.000Z</time>
      </trkpt>
      <trkpt lat="27.903293" lon="86.815021">
        <ele>4305</ele>
        <time>2022-10-27T10:46:15.000Z</time>
      </trkpt>
      <trkpt lat="27.903277" lon="86.81504">
        <ele>4304.8</ele>
        <time>2022-10-27T10:46:17.000Z</time>
      </trkpt>
      <trkpt lat="27.903261" lon="86.815053">
        <ele>4304.4</ele>
        <time>2022-10-27T10:46:19.000Z</time>
      </trkpt>
      <trkpt lat="27.903254" lon="86.815072">
        <ele>4304.4</ele>
        <time>2022-10-27T10:46:20.000Z</time>
      </trkpt>
      <trkpt lat="27.903242" lon="86.815091">
        <ele>4304.4</ele>
        <time>2022-10-27T10:46:22.000Z</time>
      </trkpt>
      <trkpt lat="27.903226" lon="86.815117">
        <ele>4304.2</ele>
        <time>2022-10-27T10:46:24.000Z</time>
      </trkpt>
      <trkpt lat="27.903206" lon="86.815142">
        <ele>4304.2</ele>
        <time>2022-10-27T10:46:27.000Z</time>
      </trkpt>
      <trkpt lat="27.90319" lon="86.815162">
        <ele>4303.8</ele>
        <time>2022-10-27T10:46:29.000Z</time>
      </trkpt>
      <trkpt lat="27.903171" lon="86.815187">
        <ele>4304.2</ele>
        <time>2022-10-27T10:46:31.000Z</time>
      </trkpt>
      <trkpt lat="27.903152" lon="86.8152">
        <ele>4303.6</ele>
        <time>2022-10-27T10:46:33.000Z</time>
      </trkpt>
      <trkpt lat="27.903136" lon="86.815219">
        <ele>4303.4</ele>
        <time>2022-10-27T10:46:35.000Z</time>
      </trkpt>
      <trkpt lat="27.903117" lon="86.815232">
        <ele>4303.4</ele>
        <time>2022-10-27T10:46:37.000Z</time>
      </trkpt>
      <trkpt lat="27.903094" lon="86.815245">
        <ele>4303.4</ele>
        <time>2022-10-27T10:46:39.000Z</time>
      </trkpt>
      <trkpt lat="27.903085" lon="86.81527">
        <ele>4303.4</ele>
        <time>2022-10-27T10:46:41.000Z</time>
      </trkpt>
      <trkpt lat="27.903062" lon="86.815302">
        <ele>4303</ele>
        <time>2022-10-27T10:46:43.000Z</time>
      </trkpt>
      <trkpt lat="27.90304" lon="86.815315">
        <ele>4303</ele>
        <time>2022-10-27T10:46:45.000Z</time>
      </trkpt>
      <trkpt lat="27.903021" lon="86.815328">
        <ele>4302.8</ele>
        <time>2022-10-27T10:46:47.000Z</time>
      </trkpt>
      <trkpt lat="27.902998" lon="86.815347">
        <ele>4302.6</ele>
        <time>2022-10-27T10:46:49.000Z</time>
      </trkpt>
      <trkpt lat="27.902982" lon="86.81536">
        <ele>4302.2</ele>
        <time>2022-10-27T10:46:51.000Z</time>
      </trkpt>
      <trkpt lat="27.902963" lon="86.815379">
        <ele>4302.2</ele>
        <time>2022-10-27T10:46:53.000Z</time>
      </trkpt>
      <trkpt lat="27.902944" lon="86.815398">
        <ele>4302.2</ele>
        <time>2022-10-27T10:46:55.000Z</time>
      </trkpt>
      <trkpt lat="27.902928" lon="86.815418">
        <ele>4301.8</ele>
        <time>2022-10-27T10:46:57.000Z</time>
      </trkpt>
      <trkpt lat="27.902918" lon="86.815437">
        <ele>4301.8</ele>
        <time>2022-10-27T10:46:59.000Z</time>
      </trkpt>
      <trkpt lat="27.902906" lon="86.815462">
        <ele>4301.8</ele>
        <time>2022-10-27T10:47:01.000Z</time>
      </trkpt>
      <trkpt lat="27.902893" lon="86.815482">
        <ele>4301.8</ele>
        <time>2022-10-27T10:47:03.000Z</time>
      </trkpt>
      <trkpt lat="27.902883" lon="86.815507">
        <ele>4301.8</ele>
        <time>2022-10-27T10:47:05.000Z</time>
      </trkpt>
      <trkpt lat="27.902864" lon="86.81552">
        <ele>4301.8</ele>
        <time>2022-10-27T10:47:07.000Z</time>
      </trkpt>
      <trkpt lat="27.902854" lon="86.815539">
        <ele>4301.8</ele>
        <time>2022-10-27T10:47:08.000Z</time>
      </trkpt>
      <trkpt lat="27.902835" lon="86.815565">
        <ele>4301.6</ele>
        <time>2022-10-27T10:47:11.000Z</time>
      </trkpt>
      <trkpt lat="27.902819" lon="86.815584">
        <ele>4301.4</ele>
        <time>2022-10-27T10:47:13.000Z</time>
      </trkpt>
      <trkpt lat="27.902797" lon="86.815597">
        <ele>4301.2</ele>
        <time>2022-10-27T10:47:15.000Z</time>
      </trkpt>
      <trkpt lat="27.902778" lon="86.815622">
        <ele>4301.2</ele>
        <time>2022-10-27T10:47:17.000Z</time>
      </trkpt>
      <trkpt lat="27.902758" lon="86.815629">
        <ele>4301.2</ele>
        <time>2022-10-27T10:47:19.000Z</time>
      </trkpt>
      <trkpt lat="27.902736" lon="86.815629">
        <ele>4300.8</ele>
        <time>2022-10-27T10:47:21.000Z</time>
      </trkpt>
      <trkpt lat="27.902717" lon="86.815635">
        <ele>4300.8</ele>
        <time>2022-10-27T10:47:23.000Z</time>
      </trkpt>
      <trkpt lat="27.902691" lon="86.815648">
        <ele>4300.6</ele>
        <time>2022-10-27T10:47:25.000Z</time>
      </trkpt>
      <trkpt lat="27.902675" lon="86.815661">
        <ele>4300.4</ele>
        <time>2022-10-27T10:47:27.000Z</time>
      </trkpt>
      <trkpt lat="27.90265" lon="86.81568">
        <ele>4300.6</ele>
        <time>2022-10-27T10:47:29.000Z</time>
      </trkpt>
      <trkpt lat="27.90263" lon="86.815686">
        <ele>4300.6</ele>
        <time>2022-10-27T10:47:30.000Z</time>
      </trkpt>
      <trkpt lat="27.902611" lon="86.815686">
        <ele>4300.6</ele>
        <time>2022-10-27T10:47:31.000Z</time>
      </trkpt>
      <trkpt lat="27.902592" lon="86.815699">
        <ele>4300.6</ele>
        <time>2022-10-27T10:47:33.000Z</time>
      </trkpt>
      <trkpt lat="27.902573" lon="86.815712">
        <ele>4300.6</ele>
        <time>2022-10-27T10:47:35.000Z</time>
      </trkpt>
      <trkpt lat="27.90255" lon="86.815718">
        <ele>4300.4</ele>
        <time>2022-10-27T10:47:37.000Z</time>
      </trkpt>
      <trkpt lat="27.902531" lon="86.815738">
        <ele>4300</ele>
        <time>2022-10-27T10:47:39.000Z</time>
      </trkpt>
      <trkpt lat="27.902512" lon="86.815744">
        <ele>4299.8</ele>
        <time>2022-10-27T10:47:41.000Z</time>
      </trkpt>
      <trkpt lat="27.90249" lon="86.815744">
        <ele>4299.8</ele>
        <time>2022-10-27T10:47:43.000Z</time>
      </trkpt>
      <trkpt lat="27.902467" lon="86.81575">
        <ele>4299.8</ele>
        <time>2022-10-27T10:47:45.000Z</time>
      </trkpt>
      <trkpt lat="27.902445" lon="86.815763">
        <ele>4299.6</ele>
        <time>2022-10-27T10:47:47.000Z</time>
      </trkpt>
      <trkpt lat="27.902422" lon="86.815776">
        <ele>4299.8</ele>
        <time>2022-10-27T10:47:49.000Z</time>
      </trkpt>
      <trkpt lat="27.9024" lon="86.815789">
        <ele>4299.4</ele>
        <time>2022-10-27T10:47:51.000Z</time>
      </trkpt>
      <trkpt lat="27.902378" lon="86.815802">
        <ele>4299</ele>
        <time>2022-10-27T10:47:53.000Z</time>
      </trkpt>
      <trkpt lat="27.902362" lon="86.815821">
        <ele>4299</ele>
        <time>2022-10-27T10:47:55.000Z</time>
      </trkpt>
      <trkpt lat="27.902339" lon="86.815834">
        <ele>4298.8</ele>
        <time>2022-10-27T10:47:57.000Z</time>
      </trkpt>
      <trkpt lat="27.902314" lon="86.815846">
        <ele>4298.8</ele>
        <time>2022-10-27T10:47:59.000Z</time>
      </trkpt>
      <trkpt lat="27.902294" lon="86.815859">
        <ele>4298.8</ele>
        <time>2022-10-27T10:48:01.000Z</time>
      </trkpt>
      <trkpt lat="27.902272" lon="86.815866">
        <ele>4298.8</ele>
        <time>2022-10-27T10:48:03.000Z</time>
      </trkpt>
      <trkpt lat="27.902253" lon="86.815878">
        <ele>4298.8</ele>
        <time>2022-10-27T10:48:05.000Z</time>
      </trkpt>
      <trkpt lat="27.90223" lon="86.815885">
        <ele>4298.8</ele>
        <time>2022-10-27T10:48:07.000Z</time>
      </trkpt>
      <trkpt lat="27.902205" lon="86.815898">
        <ele>4299.4</ele>
        <time>2022-10-27T10:48:09.000Z</time>
      </trkpt>
      <trkpt lat="27.902186" lon="86.815904">
        <ele>4298.8</ele>
        <time>2022-10-27T10:48:11.000Z</time>
      </trkpt>
      <trkpt lat="27.902166" lon="86.815917">
        <ele>4298.6</ele>
        <time>2022-10-27T10:48:13.000Z</time>
      </trkpt>
      <trkpt lat="27.902147" lon="86.815917">
        <ele>4297.8</ele>
        <time>2022-10-27T10:48:15.000Z</time>
      </trkpt>
      <trkpt lat="27.902125" lon="86.815936">
        <ele>4297.8</ele>
        <time>2022-10-27T10:48:17.000Z</time>
      </trkpt>
      <trkpt lat="27.902099" lon="86.815949">
        <ele>4297.6</ele>
        <time>2022-10-27T10:48:20.000Z</time>
      </trkpt>
      <trkpt lat="27.902077" lon="86.815962">
        <ele>4297.6</ele>
        <time>2022-10-27T10:48:22.000Z</time>
      </trkpt>
      <trkpt lat="27.902058" lon="86.815981">
        <ele>4297.8</ele>
        <time>2022-10-27T10:48:24.000Z</time>
      </trkpt>
      <trkpt lat="27.902035" lon="86.815994">
        <ele>4297.4</ele>
        <time>2022-10-27T10:48:26.000Z</time>
      </trkpt>
      <trkpt lat="27.902016" lon="86.816006">
        <ele>4297.6</ele>
        <time>2022-10-27T10:48:28.000Z</time>
      </trkpt>
      <trkpt lat="27.90199" lon="86.816026">
        <ele>4297.6</ele>
        <time>2022-10-27T10:48:30.000Z</time>
      </trkpt>
      <trkpt lat="27.901971" lon="86.816038">
        <ele>4297.4</ele>
        <time>2022-10-27T10:48:32.000Z</time>
      </trkpt>
      <trkpt lat="27.901952" lon="86.816064">
        <ele>4297</ele>
        <time>2022-10-27T10:48:34.000Z</time>
      </trkpt>
      <trkpt lat="27.901936" lon="86.816077">
        <ele>4297.4</ele>
        <time>2022-10-27T10:48:36.000Z</time>
      </trkpt>
      <trkpt lat="27.901923" lon="86.816096">
        <ele>4297.6</ele>
        <time>2022-10-27T10:48:38.000Z</time>
      </trkpt>
      <trkpt lat="27.901901" lon="86.816122">
        <ele>4297.4</ele>
        <time>2022-10-27T10:48:41.000Z</time>
      </trkpt>
      <trkpt lat="27.901891" lon="86.816147">
        <ele>4297.4</ele>
        <time>2022-10-27T10:48:43.000Z</time>
      </trkpt>
      <trkpt lat="27.901872" lon="86.81616">
        <ele>4297.2</ele>
        <time>2022-10-27T10:48:45.000Z</time>
      </trkpt>
      <trkpt lat="27.901853" lon="86.816173">
        <ele>4296.6</ele>
        <time>2022-10-27T10:48:47.000Z</time>
      </trkpt>
      <trkpt lat="27.901834" lon="86.816186">
        <ele>4296.6</ele>
        <time>2022-10-27T10:48:49.000Z</time>
      </trkpt>
      <trkpt lat="27.901811" lon="86.816192">
        <ele>4296.6</ele>
        <time>2022-10-27T10:48:51.000Z</time>
      </trkpt>
      <trkpt lat="27.901782" lon="86.816198">
        <ele>4296.4</ele>
        <time>2022-10-27T10:48:53.000Z</time>
      </trkpt>
      <trkpt lat="27.90176" lon="86.816218">
        <ele>4296</ele>
        <time>2022-10-27T10:48:55.000Z</time>
      </trkpt>
      <trkpt lat="27.901741" lon="86.81623">
        <ele>4296.4</ele>
        <time>2022-10-27T10:48:57.000Z</time>
      </trkpt>
      <trkpt lat="27.901725" lon="86.816243">
        <ele>4296.4</ele>
        <time>2022-10-27T10:48:59.000Z</time>
      </trkpt>
      <trkpt lat="27.901712" lon="86.816262">
        <ele>4296</ele>
        <time>2022-10-27T10:49:01.000Z</time>
      </trkpt>
      <trkpt lat="27.901693" lon="86.816275">
        <ele>4296</ele>
        <time>2022-10-27T10:49:03.000Z</time>
      </trkpt>
      <trkpt lat="27.901686" lon="86.816294">
        <ele>4295.8</ele>
        <time>2022-10-27T10:49:04.000Z</time>
      </trkpt>
      <trkpt lat="27.901674" lon="86.816314">
        <ele>4295.8</ele>
        <time>2022-10-27T10:49:07.000Z</time>
      </trkpt>
      <trkpt lat="27.901667" lon="86.816333">
        <ele>4295.8</ele>
        <time>2022-10-27T10:49:08.000Z</time>
      </trkpt>
      <trkpt lat="27.901648" lon="86.816358">
        <ele>4295.4</ele>
        <time>2022-10-27T10:49:11.000Z</time>
      </trkpt>
      <trkpt lat="27.901638" lon="86.816378">
        <ele>4295</ele>
        <time>2022-10-27T10:49:13.000Z</time>
      </trkpt>
      <trkpt lat="27.901632" lon="86.816397">
        <ele>4294.8</ele>
        <time>2022-10-27T10:49:15.000Z</time>
      </trkpt>
      <trkpt lat="27.901626" lon="86.816422">
        <ele>4294.8</ele>
        <time>2022-10-27T10:49:17.000Z</time>
      </trkpt>
      <trkpt lat="27.901606" lon="86.816454">
        <ele>4295</ele>
        <time>2022-10-27T10:49:20.000Z</time>
      </trkpt>
      <trkpt lat="27.90159" lon="86.816474">
        <ele>4294.8</ele>
        <time>2022-10-27T10:49:23.000Z</time>
      </trkpt>
      <trkpt lat="27.901581" lon="86.816499">
        <ele>4294.8</ele>
        <time>2022-10-27T10:49:25.000Z</time>
      </trkpt>
      <trkpt lat="27.901565" lon="86.816518">
        <ele>4294.4</ele>
        <time>2022-10-27T10:49:28.000Z</time>
      </trkpt>
      <trkpt lat="27.901549" lon="86.816538">
        <ele>4294.6</ele>
        <time>2022-10-27T10:49:30.000Z</time>
      </trkpt>
      <trkpt lat="27.901523" lon="86.81655">
        <ele>4294.6</ele>
        <time>2022-10-27T10:49:33.000Z</time>
      </trkpt>
      <trkpt lat="27.901504" lon="86.816557">
        <ele>4294.4</ele>
        <time>2022-10-27T10:49:35.000Z</time>
      </trkpt>
      <trkpt lat="27.901488" lon="86.81657">
        <ele>4294.6</ele>
        <time>2022-10-27T10:49:37.000Z</time>
      </trkpt>
      <trkpt lat="27.901469" lon="86.816589">
        <ele>4294.6</ele>
        <time>2022-10-27T10:49:40.000Z</time>
      </trkpt>
      <trkpt lat="27.90145" lon="86.816614">
        <ele>4294.4</ele>
        <time>2022-10-27T10:49:42.000Z</time>
      </trkpt>
      <trkpt lat="27.90143" lon="86.816627">
        <ele>4294.6</ele>
        <time>2022-10-27T10:49:44.000Z</time>
      </trkpt>
      <trkpt lat="27.901408" lon="86.816634">
        <ele>4294.2</ele>
        <time>2022-10-27T10:49:46.000Z</time>
      </trkpt>
      <trkpt lat="27.901395" lon="86.816653">
        <ele>4294.2</ele>
        <time>2022-10-27T10:49:47.000Z</time>
      </trkpt>
      <trkpt lat="27.901376" lon="86.816666">
        <ele>4294.2</ele>
        <time>2022-10-27T10:49:49.000Z</time>
      </trkpt>
      <trkpt lat="27.90136" lon="86.816678">
        <ele>4294.4</ele>
        <time>2022-10-27T10:49:51.000Z</time>
      </trkpt>
      <trkpt lat="27.901344" lon="86.816691">
        <ele>4293.8</ele>
        <time>2022-10-27T10:49:53.000Z</time>
      </trkpt>
      <trkpt lat="27.901328" lon="86.816704">
        <ele>4293.8</ele>
        <time>2022-10-27T10:49:55.000Z</time>
      </trkpt>
      <trkpt lat="27.901306" lon="86.81673">
        <ele>4293.8</ele>
        <time>2022-10-27T10:49:58.000Z</time>
      </trkpt>
      <trkpt lat="27.901283" lon="86.816742">
        <ele>4293.6</ele>
        <time>2022-10-27T10:50:01.000Z</time>
      </trkpt>
      <trkpt lat="27.901264" lon="86.816755">
        <ele>4293.6</ele>
        <time>2022-10-27T10:50:04.000Z</time>
      </trkpt>
      <trkpt lat="27.901245" lon="86.816768">
        <ele>4293.6</ele>
        <time>2022-10-27T10:50:06.000Z</time>
      </trkpt>
      <trkpt lat="27.901226" lon="86.816781">
        <ele>4293.6</ele>
        <time>2022-10-27T10:50:09.000Z</time>
      </trkpt>
      <trkpt lat="27.90121" lon="86.816794">
        <ele>4293.2</ele>
        <time>2022-10-27T10:50:11.000Z</time>
      </trkpt>
      <trkpt lat="27.901187" lon="86.816813">
        <ele>4293.2</ele>
        <time>2022-10-27T10:50:14.000Z</time>
      </trkpt>
      <trkpt lat="27.901168" lon="86.816826">
        <ele>4293.2</ele>
        <time>2022-10-27T10:50:16.000Z</time>
      </trkpt>
      <trkpt lat="27.901146" lon="86.816851">
        <ele>4293.2</ele>
        <time>2022-10-27T10:50:19.000Z</time>
      </trkpt>
      <trkpt lat="27.90113" lon="86.816864">
        <ele>4293.2</ele>
        <time>2022-10-27T10:50:21.000Z</time>
      </trkpt>
      <trkpt lat="27.901107" lon="86.816877">
        <ele>4293.2</ele>
        <time>2022-10-27T10:50:23.000Z</time>
      </trkpt>
      <trkpt lat="27.901091" lon="86.81689">
        <ele>4293.2</ele>
        <time>2022-10-27T10:50:24.000Z</time>
      </trkpt>
      <trkpt lat="27.901069" lon="86.816896">
        <ele>4293.2</ele>
        <time>2022-10-27T10:50:26.000Z</time>
      </trkpt>
      <trkpt lat="27.901053" lon="86.816909">
        <ele>4293.8</ele>
        <time>2022-10-27T10:50:28.000Z</time>
      </trkpt>
      <trkpt lat="27.90104" lon="86.816928">
        <ele>4293.8</ele>
        <time>2022-10-27T10:50:30.000Z</time>
      </trkpt>
      <trkpt lat="27.901024" lon="86.816941">
        <ele>4294.2</ele>
        <time>2022-10-27T10:50:32.000Z</time>
      </trkpt>
      <trkpt lat="27.901002" lon="86.816954">
        <ele>4293.8</ele>
        <time>2022-10-27T10:50:34.000Z</time>
      </trkpt>
      <trkpt lat="27.900982" lon="86.816979">
        <ele>4293.4</ele>
        <time>2022-10-27T10:50:36.000Z</time>
      </trkpt>
      <trkpt lat="27.900963" lon="86.816992">
        <ele>4293.2</ele>
        <time>2022-10-27T10:50:38.000Z</time>
      </trkpt>
      <trkpt lat="27.900944" lon="86.817011">
        <ele>4293.4</ele>
        <time>2022-10-27T10:50:40.000Z</time>
      </trkpt>
      <trkpt lat="27.900925" lon="86.817024">
        <ele>4293.4</ele>
        <time>2022-10-27T10:50:42.000Z</time>
      </trkpt>
      <trkpt lat="27.900902" lon="86.81703">
        <ele>4293.4</ele>
        <time>2022-10-27T10:50:44.000Z</time>
      </trkpt>
      <trkpt lat="27.900883" lon="86.81705">
        <ele>4293.2</ele>
        <time>2022-10-27T10:50:46.000Z</time>
      </trkpt>
      <trkpt lat="27.900864" lon="86.817062">
        <ele>4292.6</ele>
        <time>2022-10-27T10:50:48.000Z</time>
      </trkpt>
      <trkpt lat="27.900845" lon="86.817075">
        <ele>4292.6</ele>
        <time>2022-10-27T10:50:50.000Z</time>
      </trkpt>
      <trkpt lat="27.900838" lon="86.817094">
        <ele>4292.6</ele>
        <time>2022-10-27T10:50:51.000Z</time>
      </trkpt>
      <trkpt lat="27.900813" lon="86.817101">
        <ele>4292.4</ele>
        <time>2022-10-27T10:50:53.000Z</time>
      </trkpt>
      <trkpt lat="27.900797" lon="86.817114">
        <ele>4292.4</ele>
        <time>2022-10-27T10:50:55.000Z</time>
      </trkpt>
      <trkpt lat="27.900781" lon="86.817133">
        <ele>4292.2</ele>
        <time>2022-10-27T10:50:57.000Z</time>
      </trkpt>
      <trkpt lat="27.900758" lon="86.817146">
        <ele>4292.2</ele>
        <time>2022-10-27T10:50:59.000Z</time>
      </trkpt>
      <trkpt lat="27.900736" lon="86.817152">
        <ele>4292.2</ele>
        <time>2022-10-27T10:51:01.000Z</time>
      </trkpt>
      <trkpt lat="27.900704" lon="86.817178">
        <ele>4292.2</ele>
        <time>2022-10-27T10:51:04.000Z</time>
      </trkpt>
      <trkpt lat="27.900682" lon="86.817178">
        <ele>4292.2</ele>
        <time>2022-10-27T10:51:06.000Z</time>
      </trkpt>
      <trkpt lat="27.900662" lon="86.81719">
        <ele>4292.2</ele>
        <time>2022-10-27T10:51:08.000Z</time>
      </trkpt>
      <trkpt lat="27.90064" lon="86.817197">
        <ele>4291.8</ele>
        <time>2022-10-27T10:51:10.000Z</time>
      </trkpt>
      <trkpt lat="27.900618" lon="86.81721">
        <ele>4292.2</ele>
        <time>2022-10-27T10:51:12.000Z</time>
      </trkpt>
      <trkpt lat="27.900598" lon="86.817216">
        <ele>4291.8</ele>
        <time>2022-10-27T10:51:14.000Z</time>
      </trkpt>
      <trkpt lat="27.900576" lon="86.817229">
        <ele>4291.6</ele>
        <time>2022-10-27T10:51:16.000Z</time>
      </trkpt>
      <trkpt lat="27.90056" lon="86.817248">
        <ele>4291.6</ele>
        <time>2022-10-27T10:51:18.000Z</time>
      </trkpt>
      <trkpt lat="27.900534" lon="86.817261">
        <ele>4291.4</ele>
        <time>2022-10-27T10:51:20.000Z</time>
      </trkpt>
      <trkpt lat="27.900515" lon="86.817274">
        <ele>4291.6</ele>
        <time>2022-10-27T10:51:22.000Z</time>
      </trkpt>
      <trkpt lat="27.900496" lon="86.817286">
        <ele>4291.4</ele>
        <time>2022-10-27T10:51:24.000Z</time>
      </trkpt>
      <trkpt lat="27.900477" lon="86.817299">
        <ele>4291.4</ele>
        <time>2022-10-27T10:51:26.000Z</time>
      </trkpt>
      <trkpt lat="27.900451" lon="86.817312">
        <ele>4291</ele>
        <time>2022-10-27T10:51:28.000Z</time>
      </trkpt>
      <trkpt lat="27.900432" lon="86.817331">
        <ele>4290.8</ele>
        <time>2022-10-27T10:51:30.000Z</time>
      </trkpt>
      <trkpt lat="27.900406" lon="86.817344">
        <ele>4290.8</ele>
        <time>2022-10-27T10:51:32.000Z</time>
      </trkpt>
      <trkpt lat="27.900384" lon="86.817357">
        <ele>4290.8</ele>
        <time>2022-10-27T10:51:35.000Z</time>
      </trkpt>
      <trkpt lat="27.900374" lon="86.817376">
        <ele>4290.6</ele>
        <time>2022-10-27T10:51:36.000Z</time>
      </trkpt>
      <trkpt lat="27.900352" lon="86.817382">
        <ele>4290.6</ele>
        <time>2022-10-27T10:51:38.000Z</time>
      </trkpt>
      <trkpt lat="27.900336" lon="86.817395">
        <ele>4290.6</ele>
        <time>2022-10-27T10:51:40.000Z</time>
      </trkpt>
      <trkpt lat="27.900317" lon="86.817414">
        <ele>4290.6</ele>
        <time>2022-10-27T10:51:42.000Z</time>
      </trkpt>
      <trkpt lat="27.900298" lon="86.817427">
        <ele>4290.6</ele>
        <time>2022-10-27T10:51:44.000Z</time>
      </trkpt>
      <trkpt lat="27.900278" lon="86.817446">
        <ele>4290.2</ele>
        <time>2022-10-27T10:51:46.000Z</time>
      </trkpt>
      <trkpt lat="27.900262" lon="86.817459">
        <ele>4290.2</ele>
        <time>2022-10-27T10:51:48.000Z</time>
      </trkpt>
      <trkpt lat="27.900237" lon="86.817472">
        <ele>4290</ele>
        <time>2022-10-27T10:51:51.000Z</time>
      </trkpt>
      <trkpt lat="27.900218" lon="86.817472">
        <ele>4290</ele>
        <time>2022-10-27T10:51:53.000Z</time>
      </trkpt>
      <trkpt lat="27.900208" lon="86.817491">
        <ele>4290</ele>
        <time>2022-10-27T10:51:54.000Z</time>
      </trkpt>
      <trkpt lat="27.900186" lon="86.817498">
        <ele>4290</ele>
        <time>2022-10-27T10:51:57.000Z</time>
      </trkpt>
      <trkpt lat="27.900166" lon="86.81751">
        <ele>4289.8</ele>
        <time>2022-10-27T10:51:59.000Z</time>
      </trkpt>
      <trkpt lat="27.900147" lon="86.81751">
        <ele>4289.8</ele>
        <time>2022-10-27T10:52:01.000Z</time>
      </trkpt>
      <trkpt lat="27.900131" lon="86.817523">
        <ele>4289.8</ele>
        <time>2022-10-27T10:52:03.000Z</time>
      </trkpt>
      <trkpt lat="27.900099" lon="86.817536">
        <ele>4289.4</ele>
        <time>2022-10-27T10:52:06.000Z</time>
      </trkpt>
      <trkpt lat="27.900077" lon="86.817549">
        <ele>4289.4</ele>
        <time>2022-10-27T10:52:09.000Z</time>
      </trkpt>
      <trkpt lat="27.900058" lon="86.817555">
        <ele>4289.2</ele>
        <time>2022-10-27T10:52:11.000Z</time>
      </trkpt>
      <trkpt lat="27.900042" lon="86.817568">
        <ele>4289.2</ele>
        <time>2022-10-27T10:52:13.000Z</time>
      </trkpt>
      <trkpt lat="27.900022" lon="86.817581">
        <ele>4289.4</ele>
        <time>2022-10-27T10:52:15.000Z</time>
      </trkpt>
      <trkpt lat="27.900006" lon="86.817594">
        <ele>4289</ele>
        <time>2022-10-27T10:52:17.000Z</time>
      </trkpt>
      <trkpt lat="27.899984" lon="86.817606">
        <ele>4289.4</ele>
        <time>2022-10-27T10:52:19.000Z</time>
      </trkpt>
      <trkpt lat="27.899958" lon="86.817619">
        <ele>4288.8</ele>
        <time>2022-10-27T10:52:22.000Z</time>
      </trkpt>
      <trkpt lat="27.899936" lon="86.817632">
        <ele>4289.4</ele>
        <time>2022-10-27T10:52:25.000Z</time>
      </trkpt>
      <trkpt lat="27.89992" lon="86.817651">
        <ele>4288.8</ele>
        <time>2022-10-27T10:52:27.000Z</time>
      </trkpt>
      <trkpt lat="27.899898" lon="86.817664">
        <ele>4288.6</ele>
        <time>2022-10-27T10:52:30.000Z</time>
      </trkpt>
      <trkpt lat="27.899878" lon="86.817683">
        <ele>4288.6</ele>
        <time>2022-10-27T10:52:32.000Z</time>
      </trkpt>
      <trkpt lat="27.899853" lon="86.817696">
        <ele>4288.4</ele>
        <time>2022-10-27T10:52:35.000Z</time>
      </trkpt>
      <trkpt lat="27.899837" lon="86.817709">
        <ele>4288.4</ele>
        <time>2022-10-27T10:52:37.000Z</time>
      </trkpt>
      <trkpt lat="27.899818" lon="86.817722">
        <ele>4288</ele>
        <time>2022-10-27T10:52:39.000Z</time>
      </trkpt>
      <trkpt lat="27.899795" lon="86.817734">
        <ele>4288</ele>
        <time>2022-10-27T10:52:41.000Z</time>
      </trkpt>
      <trkpt lat="27.899776" lon="86.817741">
        <ele>4288</ele>
        <time>2022-10-27T10:52:43.000Z</time>
      </trkpt>
      <trkpt lat="27.89975" lon="86.817754">
        <ele>4288</ele>
        <time>2022-10-27T10:52:45.000Z</time>
      </trkpt>
      <trkpt lat="27.899728" lon="86.817773">
        <ele>4288</ele>
        <time>2022-10-27T10:52:47.000Z</time>
      </trkpt>
      <trkpt lat="27.899706" lon="86.817779">
        <ele>4287.8</ele>
        <time>2022-10-27T10:52:49.000Z</time>
      </trkpt>
      <trkpt lat="27.899686" lon="86.817792">
        <ele>4287.2</ele>
        <time>2022-10-27T10:52:51.000Z</time>
      </trkpt>
      <trkpt lat="27.899667" lon="86.817805">
        <ele>4287.6</ele>
        <time>2022-10-27T10:52:53.000Z</time>
      </trkpt>
      <trkpt lat="27.899642" lon="86.817818">
        <ele>4287.2</ele>
        <time>2022-10-27T10:52:55.000Z</time>
      </trkpt>
      <trkpt lat="27.899622" lon="86.81783">
        <ele>4287.2</ele>
        <time>2022-10-27T10:52:57.000Z</time>
      </trkpt>
      <trkpt lat="27.8996" lon="86.817843">
        <ele>4287.2</ele>
        <time>2022-10-27T10:52:59.000Z</time>
      </trkpt>
      <trkpt lat="27.899581" lon="86.81785">
        <ele>4287.2</ele>
        <time>2022-10-27T10:53:01.000Z</time>
      </trkpt>
      <trkpt lat="27.899558" lon="86.817862">
        <ele>4287.2</ele>
        <time>2022-10-27T10:53:03.000Z</time>
      </trkpt>
      <trkpt lat="27.899536" lon="86.817882">
        <ele>4287.2</ele>
        <time>2022-10-27T10:53:05.000Z</time>
      </trkpt>
      <trkpt lat="27.899514" lon="86.817888">
        <ele>4286.4</ele>
        <time>2022-10-27T10:53:07.000Z</time>
      </trkpt>
      <trkpt lat="27.899491" lon="86.817894">
        <ele>4286.4</ele>
        <time>2022-10-27T10:53:09.000Z</time>
      </trkpt>
      <trkpt lat="27.899472" lon="86.817901">
        <ele>4286.4</ele>
        <time>2022-10-27T10:53:11.000Z</time>
      </trkpt>
      <trkpt lat="27.89945" lon="86.817907">
        <ele>4286.4</ele>
        <time>2022-10-27T10:53:13.000Z</time>
      </trkpt>
      <trkpt lat="27.899434" lon="86.81792">
        <ele>4286.4</ele>
        <time>2022-10-27T10:53:14.000Z</time>
      </trkpt>
      <trkpt lat="27.899414" lon="86.817926">
        <ele>4286.4</ele>
        <time>2022-10-27T10:53:16.000Z</time>
      </trkpt>
      <trkpt lat="27.899398" lon="86.817939">
        <ele>4286.2</ele>
        <time>2022-10-27T10:53:18.000Z</time>
      </trkpt>
      <trkpt lat="27.899376" lon="86.817952">
        <ele>4286.4</ele>
        <time>2022-10-27T10:53:20.000Z</time>
      </trkpt>
      <trkpt lat="27.899354" lon="86.817971">
        <ele>4286.2</ele>
        <time>2022-10-27T10:53:22.000Z</time>
      </trkpt>
      <trkpt lat="27.899334" lon="86.817978">
        <ele>4286</ele>
        <time>2022-10-27T10:53:24.000Z</time>
      </trkpt>
      <trkpt lat="27.899322" lon="86.818003">
        <ele>4286</ele>
        <time>2022-10-27T10:53:26.000Z</time>
      </trkpt>
      <trkpt lat="27.899299" lon="86.818016">
        <ele>4286</ele>
        <time>2022-10-27T10:53:28.000Z</time>
      </trkpt>
      <trkpt lat="27.899283" lon="86.818042">
        <ele>4286</ele>
        <time>2022-10-27T10:53:30.000Z</time>
      </trkpt>
      <trkpt lat="27.899261" lon="86.818054">
        <ele>4285.6</ele>
        <time>2022-10-27T10:53:32.000Z</time>
      </trkpt>
      <trkpt lat="27.899242" lon="86.818067">
        <ele>4285.6</ele>
        <time>2022-10-27T10:53:34.000Z</time>
      </trkpt>
      <trkpt lat="27.899219" lon="86.818086">
        <ele>4285.4</ele>
        <time>2022-10-27T10:53:36.000Z</time>
      </trkpt>
      <trkpt lat="27.8992" lon="86.818099">
        <ele>4285.2</ele>
        <time>2022-10-27T10:53:38.000Z</time>
      </trkpt>
      <trkpt lat="27.899181" lon="86.818118">
        <ele>4285.4</ele>
        <time>2022-10-27T10:53:40.000Z</time>
      </trkpt>
      <trkpt lat="27.899165" lon="86.818131">
        <ele>4285.4</ele>
        <time>2022-10-27T10:53:42.000Z</time>
      </trkpt>
      <trkpt lat="27.899136" lon="86.81815">
        <ele>4285.2</ele>
        <time>2022-10-27T10:53:45.000Z</time>
      </trkpt>
      <trkpt lat="27.89912" lon="86.81817">
        <ele>4284.8</ele>
        <time>2022-10-27T10:53:47.000Z</time>
      </trkpt>
      <trkpt lat="27.899098" lon="86.818182">
        <ele>4284.6</ele>
        <time>2022-10-27T10:53:49.000Z</time>
      </trkpt>
      <trkpt lat="27.899072" lon="86.818208">
        <ele>4284.8</ele>
        <time>2022-10-27T10:53:51.000Z</time>
      </trkpt>
      <trkpt lat="27.89905" lon="86.818214">
        <ele>4284.8</ele>
        <time>2022-10-27T10:53:53.000Z</time>
      </trkpt>
      <trkpt lat="27.899027" lon="86.818221">
        <ele>4284.6</ele>
        <time>2022-10-27T10:53:55.000Z</time>
      </trkpt>
      <trkpt lat="27.899008" lon="86.81824">
        <ele>4284.4</ele>
        <time>2022-10-27T10:53:57.000Z</time>
      </trkpt>
      <trkpt lat="27.898986" lon="86.818253">
        <ele>4284.4</ele>
        <time>2022-10-27T10:53:59.000Z</time>
      </trkpt>
      <trkpt lat="27.898966" lon="86.818259">
        <ele>4284.4</ele>
        <time>2022-10-27T10:54:01.000Z</time>
      </trkpt>
      <trkpt lat="27.898941" lon="86.818278">
        <ele>4284.6</ele>
        <time>2022-10-27T10:54:03.000Z</time>
      </trkpt>
      <trkpt lat="27.898912" lon="86.818298">
        <ele>4284.6</ele>
        <time>2022-10-27T10:54:06.000Z</time>
      </trkpt>
      <trkpt lat="27.898886" lon="86.818304">
        <ele>4284.6</ele>
        <time>2022-10-27T10:54:08.000Z</time>
      </trkpt>
      <trkpt lat="27.898867" lon="86.81831">
        <ele>4284.2</ele>
        <time>2022-10-27T10:54:10.000Z</time>
      </trkpt>
      <trkpt lat="27.898848" lon="86.81833">
        <ele>4284.2</ele>
        <time>2022-10-27T10:54:12.000Z</time>
      </trkpt>
      <trkpt lat="27.898829" lon="86.818336">
        <ele>4284</ele>
        <time>2022-10-27T10:54:14.000Z</time>
      </trkpt>
      <trkpt lat="27.898806" lon="86.818342">
        <ele>4284</ele>
        <time>2022-10-27T10:54:16.000Z</time>
      </trkpt>
      <trkpt lat="27.898787" lon="86.818362">
        <ele>4283.8</ele>
        <time>2022-10-27T10:54:18.000Z</time>
      </trkpt>
      <trkpt lat="27.898762" lon="86.818368">
        <ele>4283.8</ele>
        <time>2022-10-27T10:54:20.000Z</time>
      </trkpt>
      <trkpt lat="27.898739" lon="86.818374">
        <ele>4283.8</ele>
        <time>2022-10-27T10:54:22.000Z</time>
      </trkpt>
      <trkpt lat="27.898717" lon="86.818387">
        <ele>4283.4</ele>
        <time>2022-10-27T10:54:24.000Z</time>
      </trkpt>
      <trkpt lat="27.898698" lon="86.8184">
        <ele>4283.2</ele>
        <time>2022-10-27T10:54:26.000Z</time>
      </trkpt>
      <trkpt lat="27.898675" lon="86.818413">
        <ele>4283.4</ele>
        <time>2022-10-27T10:54:28.000Z</time>
      </trkpt>
      <trkpt lat="27.898656" lon="86.818419">
        <ele>4283.4</ele>
        <time>2022-10-27T10:54:30.000Z</time>
      </trkpt>
      <trkpt lat="27.898634" lon="86.818426">
        <ele>4283</ele>
        <time>2022-10-27T10:54:32.000Z</time>
      </trkpt>
      <trkpt lat="27.898614" lon="86.818438">
        <ele>4283</ele>
        <time>2022-10-27T10:54:34.000Z</time>
      </trkpt>
      <trkpt lat="27.898595" lon="86.818451">
        <ele>4282.6</ele>
        <time>2022-10-27T10:54:36.000Z</time>
      </trkpt>
      <trkpt lat="27.898576" lon="86.818464">
        <ele>4282.6</ele>
        <time>2022-10-27T10:54:38.000Z</time>
      </trkpt>
      <trkpt lat="27.898557" lon="86.818483">
        <ele>4282.4</ele>
        <time>2022-10-27T10:54:40.000Z</time>
      </trkpt>
      <trkpt lat="27.898531" lon="86.81849">
        <ele>4282.6</ele>
        <time>2022-10-27T10:54:42.000Z</time>
      </trkpt>
      <trkpt lat="27.898512" lon="86.818502">
        <ele>4282.6</ele>
        <time>2022-10-27T10:54:44.000Z</time>
      </trkpt>
      <trkpt lat="27.89849" lon="86.818509">
        <ele>4282.2</ele>
        <time>2022-10-27T10:54:46.000Z</time>
      </trkpt>
      <trkpt lat="27.898467" lon="86.818522">
        <ele>4282.2</ele>
        <time>2022-10-27T10:54:48.000Z</time>
      </trkpt>
      <trkpt lat="27.898445" lon="86.818534">
        <ele>4282.2</ele>
        <time>2022-10-27T10:54:50.000Z</time>
      </trkpt>
      <trkpt lat="27.898419" lon="86.818541">
        <ele>4282.2</ele>
        <time>2022-10-27T10:54:52.000Z</time>
      </trkpt>
      <trkpt lat="27.898397" lon="86.818547">
        <ele>4282.2</ele>
        <time>2022-10-27T10:54:54.000Z</time>
      </trkpt>
      <trkpt lat="27.898374" lon="86.818566">
        <ele>4282.2</ele>
        <time>2022-10-27T10:54:56.000Z</time>
      </trkpt>
      <trkpt lat="27.898355" lon="86.818573">
        <ele>4282.4</ele>
        <time>2022-10-27T10:54:58.000Z</time>
      </trkpt>
      <trkpt lat="27.898317" lon="86.818598">
        <ele>4282.6</ele>
        <time>2022-10-27T10:55:02.000Z</time>
      </trkpt>
      <trkpt lat="27.898294" lon="86.818611">
        <ele>4282.2</ele>
        <time>2022-10-27T10:55:10.000Z</time>
      </trkpt>
      <trkpt lat="27.898275" lon="86.818624">
        <ele>4282.2</ele>
        <time>2022-10-27T10:55:12.000Z</time>
      </trkpt>
      <trkpt lat="27.898256" lon="86.818643">
        <ele>4282.2</ele>
        <time>2022-10-27T10:55:14.000Z</time>
      </trkpt>
      <trkpt lat="27.898234" lon="86.81865">
        <ele>4282.4</ele>
        <time>2022-10-27T10:55:16.000Z</time>
      </trkpt>
      <trkpt lat="27.898211" lon="86.818662">
        <ele>4282.2</ele>
        <time>2022-10-27T10:55:18.000Z</time>
      </trkpt>
      <trkpt lat="27.898163" lon="86.818682">
        <ele>4282</ele>
        <time>2022-10-27T10:55:22.000Z</time>
      </trkpt>
      <trkpt lat="27.898138" lon="86.818694">
        <ele>4281.6</ele>
        <time>2022-10-27T10:55:25.000Z</time>
      </trkpt>
      <trkpt lat="27.898118" lon="86.818707">
        <ele>4281.4</ele>
        <time>2022-10-27T10:55:27.000Z</time>
      </trkpt>
      <trkpt lat="27.898093" lon="86.818726">
        <ele>4281</ele>
        <time>2022-10-27T10:55:29.000Z</time>
      </trkpt>
      <trkpt lat="27.89807" lon="86.818733">
        <ele>4280.8</ele>
        <time>2022-10-27T10:55:31.000Z</time>
      </trkpt>
      <trkpt lat="27.898051" lon="86.818746">
        <ele>4280.6</ele>
        <time>2022-10-27T10:55:34.000Z</time>
      </trkpt>
      <trkpt lat="27.898035" lon="86.818765">
        <ele>4280.6</ele>
        <time>2022-10-27T10:55:36.000Z</time>
      </trkpt>
      <trkpt lat="27.898016" lon="86.818778">
        <ele>4280.8</ele>
        <time>2022-10-27T10:55:52.000Z</time>
      </trkpt>
      <trkpt lat="27.898003" lon="86.818797">
        <ele>4280.4</ele>
        <time>2022-10-27T10:55:54.000Z</time>
      </trkpt>
      <trkpt lat="27.897981" lon="86.81881">
        <ele>4280.4</ele>
        <time>2022-10-27T10:55:57.000Z</time>
      </trkpt>
      <trkpt lat="27.897962" lon="86.818822">
        <ele>4280.4</ele>
        <time>2022-10-27T10:55:59.000Z</time>
      </trkpt>
      <trkpt lat="27.897942" lon="86.818842">
        <ele>4280.2</ele>
        <time>2022-10-27T10:56:02.000Z</time>
      </trkpt>
      <trkpt lat="27.897923" lon="86.818854">
        <ele>4280</ele>
        <time>2022-10-27T10:56:04.000Z</time>
      </trkpt>
      <trkpt lat="27.897907" lon="86.818874">
        <ele>4279.8</ele>
        <time>2022-10-27T10:56:06.000Z</time>
      </trkpt>
      <trkpt lat="27.897888" lon="86.818886">
        <ele>4280</ele>
        <time>2022-10-27T10:56:08.000Z</time>
      </trkpt>
      <trkpt lat="27.897869" lon="86.818893">
        <ele>4280</ele>
        <time>2022-10-27T10:56:10.000Z</time>
      </trkpt>
      <trkpt lat="27.89785" lon="86.818906">
        <ele>4279.2</ele>
        <time>2022-10-27T10:56:12.000Z</time>
      </trkpt>
      <trkpt lat="27.89783" lon="86.818925">
        <ele>4279.4</ele>
        <time>2022-10-27T10:56:14.000Z</time>
      </trkpt>
      <trkpt lat="27.897805" lon="86.818944">
        <ele>4279.2</ele>
        <time>2022-10-27T10:56:16.000Z</time>
      </trkpt>
      <trkpt lat="27.897792" lon="86.818963">
        <ele>4279.2</ele>
        <time>2022-10-27T10:56:18.000Z</time>
      </trkpt>
      <trkpt lat="27.897776" lon="86.818976">
        <ele>4278.6</ele>
        <time>2022-10-27T10:56:21.000Z</time>
      </trkpt>
      <trkpt lat="27.897757" lon="86.818982">
        <ele>4279</ele>
        <time>2022-10-27T10:56:24.000Z</time>
      </trkpt>
      <trkpt lat="27.897744" lon="86.819002">
        <ele>4279</ele>
        <time>2022-10-27T10:56:26.000Z</time>
      </trkpt>
      <trkpt lat="27.897728" lon="86.819021">
        <ele>4279</ele>
        <time>2022-10-27T10:56:28.000Z</time>
      </trkpt>
      <trkpt lat="27.897706" lon="86.81904">
        <ele>4278.4</ele>
        <time>2022-10-27T10:56:30.000Z</time>
      </trkpt>
      <trkpt lat="27.897686" lon="86.819053">
        <ele>4278.6</ele>
        <time>2022-10-27T10:56:32.000Z</time>
      </trkpt>
      <trkpt lat="27.897667" lon="86.819078">
        <ele>4279</ele>
        <time>2022-10-27T10:56:34.000Z</time>
      </trkpt>
      <trkpt lat="27.897645" lon="86.819085">
        <ele>4279.2</ele>
        <time>2022-10-27T10:56:36.000Z</time>
      </trkpt>
      <trkpt lat="27.897626" lon="86.819091">
        <ele>4278.8</ele>
        <time>2022-10-27T10:56:38.000Z</time>
      </trkpt>
      <trkpt lat="27.897606" lon="86.819117">
        <ele>4278.6</ele>
        <time>2022-10-27T10:56:40.000Z</time>
      </trkpt>
      <trkpt lat="27.897587" lon="86.819123">
        <ele>4278.8</ele>
        <time>2022-10-27T10:56:42.000Z</time>
      </trkpt>
      <trkpt lat="27.897568" lon="86.819136">
        <ele>4278.4</ele>
        <time>2022-10-27T10:56:44.000Z</time>
      </trkpt>
      <trkpt lat="27.897546" lon="86.819142">
        <ele>4278.4</ele>
        <time>2022-10-27T10:56:46.000Z</time>
      </trkpt>
      <trkpt lat="27.897526" lon="86.819162">
        <ele>4278.4</ele>
        <time>2022-10-27T10:56:48.000Z</time>
      </trkpt>
      <trkpt lat="27.897504" lon="86.819174">
        <ele>4278.4</ele>
        <time>2022-10-27T10:56:50.000Z</time>
      </trkpt>
      <trkpt lat="27.897485" lon="86.819181">
        <ele>4278.2</ele>
        <time>2022-10-27T10:56:52.000Z</time>
      </trkpt>
      <trkpt lat="27.897466" lon="86.819194">
        <ele>4278</ele>
        <time>2022-10-27T10:56:54.000Z</time>
      </trkpt>
      <trkpt lat="27.897443" lon="86.8192">
        <ele>4277.6</ele>
        <time>2022-10-27T10:56:56.000Z</time>
      </trkpt>
      <trkpt lat="27.897424" lon="86.819206">
        <ele>4278</ele>
        <time>2022-10-27T10:56:58.000Z</time>
      </trkpt>
      <trkpt lat="27.897402" lon="86.819232">
        <ele>4277.6</ele>
        <time>2022-10-27T10:57:00.000Z</time>
      </trkpt>
      <trkpt lat="27.897379" lon="86.819245">
        <ele>4277.4</ele>
        <time>2022-10-27T10:57:02.000Z</time>
      </trkpt>
      <trkpt lat="27.897354" lon="86.819251">
        <ele>4277.4</ele>
        <time>2022-10-27T10:57:04.000Z</time>
      </trkpt>
      <trkpt lat="27.897331" lon="86.819258">
        <ele>4277.4</ele>
        <time>2022-10-27T10:57:06.000Z</time>
      </trkpt>
      <trkpt lat="27.897309" lon="86.81927">
        <ele>4277.6</ele>
        <time>2022-10-27T10:57:08.000Z</time>
      </trkpt>
      <trkpt lat="27.897286" lon="86.819277">
        <ele>4277.4</ele>
        <time>2022-10-27T10:57:10.000Z</time>
      </trkpt>
      <trkpt lat="27.897264" lon="86.819283">
        <ele>4277</ele>
        <time>2022-10-27T10:57:12.000Z</time>
      </trkpt>
      <trkpt lat="27.897238" lon="86.81929">
        <ele>4277</ele>
        <time>2022-10-27T10:57:14.000Z</time>
      </trkpt>
      <trkpt lat="27.89721" lon="86.819302">
        <ele>4277</ele>
        <time>2022-10-27T10:57:17.000Z</time>
      </trkpt>
      <trkpt lat="27.897194" lon="86.819315">
        <ele>4277</ele>
        <time>2022-10-27T10:57:19.000Z</time>
      </trkpt>
      <trkpt lat="27.897168" lon="86.819322">
        <ele>4277</ele>
        <time>2022-10-27T10:57:22.000Z</time>
      </trkpt>
      <trkpt lat="27.897142" lon="86.819334">
        <ele>4277.2</ele>
        <time>2022-10-27T10:57:25.000Z</time>
      </trkpt>
      <trkpt lat="27.897117" lon="86.819341">
        <ele>4277.2</ele>
        <time>2022-10-27T10:57:27.000Z</time>
      </trkpt>
      <trkpt lat="27.897094" lon="86.819341">
        <ele>4277</ele>
        <time>2022-10-27T10:57:29.000Z</time>
      </trkpt>
      <trkpt lat="27.897075" lon="86.819341">
        <ele>4277</ele>
        <time>2022-10-27T10:57:31.000Z</time>
      </trkpt>
      <trkpt lat="27.89705" lon="86.819341">
        <ele>4277</ele>
        <time>2022-10-27T10:57:33.000Z</time>
      </trkpt>
      <trkpt lat="27.897027" lon="86.819341">
        <ele>4276.8</ele>
        <time>2022-10-27T10:57:35.000Z</time>
      </trkpt>
      <trkpt lat="27.897002" lon="86.819354">
        <ele>4276.2</ele>
        <time>2022-10-27T10:57:37.000Z</time>
      </trkpt>
      <trkpt lat="27.896982" lon="86.819341">
        <ele>4276.2</ele>
        <time>2022-10-27T10:57:39.000Z</time>
      </trkpt>
      <trkpt lat="27.896957" lon="86.819341">
        <ele>4276.2</ele>
        <time>2022-10-27T10:57:41.000Z</time>
      </trkpt>
      <trkpt lat="27.896934" lon="86.819341">
        <ele>4276.2</ele>
        <time>2022-10-27T10:57:43.000Z</time>
      </trkpt>
      <trkpt lat="27.896912" lon="86.819341">
        <ele>4276.2</ele>
        <time>2022-10-27T10:57:45.000Z</time>
      </trkpt>
      <trkpt lat="27.89689" lon="86.819354">
        <ele>4276.2</ele>
        <time>2022-10-27T10:57:47.000Z</time>
      </trkpt>
      <trkpt lat="27.896867" lon="86.819354">
        <ele>4276</ele>
        <time>2022-10-27T10:57:49.000Z</time>
      </trkpt>
      <trkpt lat="27.896842" lon="86.81936">
        <ele>4276</ele>
        <time>2022-10-27T10:57:51.000Z</time>
      </trkpt>
      <trkpt lat="27.896819" lon="86.81936">
        <ele>4276</ele>
        <time>2022-10-27T10:57:53.000Z</time>
      </trkpt>
      <trkpt lat="27.8968" lon="86.81936">
        <ele>4276</ele>
        <time>2022-10-27T10:57:55.000Z</time>
      </trkpt>
      <trkpt lat="27.896778" lon="86.81936">
        <ele>4276</ele>
        <time>2022-10-27T10:57:57.000Z</time>
      </trkpt>
      <trkpt lat="27.896755" lon="86.819366">
        <ele>4276</ele>
        <time>2022-10-27T10:57:59.000Z</time>
      </trkpt>
      <trkpt lat="27.896733" lon="86.819366">
        <ele>4276</ele>
        <time>2022-10-27T10:58:01.000Z</time>
      </trkpt>
      <trkpt lat="27.896714" lon="86.819366">
        <ele>4276</ele>
        <time>2022-10-27T10:58:03.000Z</time>
      </trkpt>
      <trkpt lat="27.896691" lon="86.819373">
        <ele>4275.8</ele>
        <time>2022-10-27T10:58:05.000Z</time>
      </trkpt>
      <trkpt lat="27.896669" lon="86.819379">
        <ele>4275.8</ele>
        <time>2022-10-27T10:58:07.000Z</time>
      </trkpt>
      <trkpt lat="27.89665" lon="86.819392">
        <ele>4275.2</ele>
        <time>2022-10-27T10:58:09.000Z</time>
      </trkpt>
      <trkpt lat="27.89663" lon="86.819398">
        <ele>4275.2</ele>
        <time>2022-10-27T10:58:11.000Z</time>
      </trkpt>
      <trkpt lat="27.896605" lon="86.819398">
        <ele>4275.2</ele>
        <time>2022-10-27T10:58:13.000Z</time>
      </trkpt>
      <trkpt lat="27.896579" lon="86.819398">
        <ele>4275.2</ele>
        <time>2022-10-27T10:58:15.000Z</time>
      </trkpt>
      <trkpt lat="27.896557" lon="86.819405">
        <ele>4275.4</ele>
        <time>2022-10-27T10:58:17.000Z</time>
      </trkpt>
      <trkpt lat="27.896534" lon="86.819411">
        <ele>4275.4</ele>
        <time>2022-10-27T10:58:19.000Z</time>
      </trkpt>
      <trkpt lat="27.896515" lon="86.819418">
        <ele>4275.2</ele>
        <time>2022-10-27T10:58:21.000Z</time>
      </trkpt>
      <trkpt lat="27.896493" lon="86.819418">
        <ele>4274.8</ele>
        <time>2022-10-27T10:58:23.000Z</time>
      </trkpt>
      <trkpt lat="27.89647" lon="86.819418">
        <ele>4274.8</ele>
        <time>2022-10-27T10:58:25.000Z</time>
      </trkpt>
      <trkpt lat="27.896448" lon="86.81943">
        <ele>4274.8</ele>
        <time>2022-10-27T10:58:27.000Z</time>
      </trkpt>
      <trkpt lat="27.896426" lon="86.819437">
        <ele>4274.4</ele>
        <time>2022-10-27T10:58:29.000Z</time>
      </trkpt>
      <trkpt lat="27.896406" lon="86.819437">
        <ele>4274.8</ele>
        <time>2022-10-27T10:58:31.000Z</time>
      </trkpt>
      <trkpt lat="27.896387" lon="86.819443">
        <ele>4274.4</ele>
        <time>2022-10-27T10:58:33.000Z</time>
      </trkpt>
      <trkpt lat="27.896365" lon="86.81945">
        <ele>4274</ele>
        <time>2022-10-27T10:58:35.000Z</time>
      </trkpt>
      <trkpt lat="27.896342" lon="86.81945">
        <ele>4273.6</ele>
        <time>2022-10-27T10:58:37.000Z</time>
      </trkpt>
      <trkpt lat="27.89632" lon="86.819456">
        <ele>4274.2</ele>
        <time>2022-10-27T10:58:39.000Z</time>
      </trkpt>
      <trkpt lat="27.896301" lon="86.819456">
        <ele>4274.2</ele>
        <time>2022-10-27T10:58:41.000Z</time>
      </trkpt>
      <trkpt lat="27.896285" lon="86.819475">
        <ele>4274.2</ele>
        <time>2022-10-27T10:58:43.000Z</time>
      </trkpt>
      <trkpt lat="27.896266" lon="86.819482">
        <ele>4274</ele>
        <time>2022-10-27T10:58:45.000Z</time>
      </trkpt>
      <trkpt lat="27.896246" lon="86.819482">
        <ele>4274</ele>
        <time>2022-10-27T10:58:47.000Z</time>
      </trkpt>
      <trkpt lat="27.89623" lon="86.819494">
        <ele>4274</ele>
        <time>2022-10-27T10:58:49.000Z</time>
      </trkpt>
      <trkpt lat="27.896211" lon="86.819494">
        <ele>4273.6</ele>
        <time>2022-10-27T10:58:51.000Z</time>
      </trkpt>
      <trkpt lat="27.896192" lon="86.819501">
        <ele>4273.6</ele>
        <time>2022-10-27T10:58:53.000Z</time>
      </trkpt>
      <trkpt lat="27.896166" lon="86.819514">
        <ele>4273.4</ele>
        <time>2022-10-27T10:58:55.000Z</time>
      </trkpt>
      <trkpt lat="27.896144" lon="86.81952">
        <ele>4273.4</ele>
        <time>2022-10-27T10:58:58.000Z</time>
      </trkpt>
      <trkpt lat="27.896125" lon="86.81952">
        <ele>4273.4</ele>
        <time>2022-10-27T10:59:00.000Z</time>
      </trkpt>
      <trkpt lat="27.896106" lon="86.819526">
        <ele>4273.4</ele>
        <time>2022-10-27T10:59:02.000Z</time>
      </trkpt>
      <trkpt lat="27.896086" lon="86.819526">
        <ele>4274.4</ele>
        <time>2022-10-27T10:59:04.000Z</time>
      </trkpt>
      <trkpt lat="27.896058" lon="86.819526">
        <ele>4273.4</ele>
        <time>2022-10-27T10:59:06.000Z</time>
      </trkpt>
      <trkpt lat="27.896035" lon="86.819526">
        <ele>4273.4</ele>
        <time>2022-10-27T10:59:08.000Z</time>
      </trkpt>
      <trkpt lat="27.896013" lon="86.81952">
        <ele>4273.2</ele>
        <time>2022-10-27T10:59:10.000Z</time>
      </trkpt>
      <trkpt lat="27.895994" lon="86.819526">
        <ele>4273.2</ele>
        <time>2022-10-27T10:59:12.000Z</time>
      </trkpt>
      <trkpt lat="27.895968" lon="86.819533">
        <ele>4273.2</ele>
        <time>2022-10-27T10:59:14.000Z</time>
      </trkpt>
      <trkpt lat="27.895946" lon="86.819533">
        <ele>4272.6</ele>
        <time>2022-10-27T10:59:16.000Z</time>
      </trkpt>
      <trkpt lat="27.89592" lon="86.819539">
        <ele>4272.6</ele>
        <time>2022-10-27T10:59:18.000Z</time>
      </trkpt>
      <trkpt lat="27.895898" lon="86.819539">
        <ele>4272.6</ele>
        <time>2022-10-27T10:59:20.000Z</time>
      </trkpt>
      <trkpt lat="27.895878" lon="86.819552">
        <ele>4272.6</ele>
        <time>2022-10-27T10:59:22.000Z</time>
      </trkpt>
      <trkpt lat="27.895856" lon="86.819558">
        <ele>4272.4</ele>
        <time>2022-10-27T10:59:24.000Z</time>
      </trkpt>
      <trkpt lat="27.895837" lon="86.819558">
        <ele>4272.4</ele>
        <time>2022-10-27T10:59:26.000Z</time>
      </trkpt>
      <trkpt lat="27.895808" lon="86.819571">
        <ele>4272.4</ele>
        <time>2022-10-27T10:59:28.000Z</time>
      </trkpt>
      <trkpt lat="27.895786" lon="86.81959">
        <ele>4272.4</ele>
        <time>2022-10-27T10:59:31.000Z</time>
      </trkpt>
      <trkpt lat="27.895763" lon="86.819603">
        <ele>4272</ele>
        <time>2022-10-27T10:59:33.000Z</time>
      </trkpt>
      <trkpt lat="27.895744" lon="86.81961">
        <ele>4271.8</ele>
        <time>2022-10-27T10:59:35.000Z</time>
      </trkpt>
      <trkpt lat="27.895725" lon="86.819616">
        <ele>4272</ele>
        <time>2022-10-27T10:59:37.000Z</time>
      </trkpt>
      <trkpt lat="27.895706" lon="86.819635">
        <ele>4271.8</ele>
        <time>2022-10-27T10:59:39.000Z</time>
      </trkpt>
      <trkpt lat="27.895686" lon="86.819642">
        <ele>4271.8</ele>
        <time>2022-10-27T10:59:41.000Z</time>
      </trkpt>
      <trkpt lat="27.895667" lon="86.819654">
        <ele>4271.6</ele>
        <time>2022-10-27T10:59:43.000Z</time>
      </trkpt>
      <trkpt lat="27.895651" lon="86.819667">
        <ele>4271.6</ele>
        <time>2022-10-27T10:59:45.000Z</time>
      </trkpt>
      <trkpt lat="27.895632" lon="86.819674">
        <ele>4271.6</ele>
        <time>2022-10-27T10:59:47.000Z</time>
      </trkpt>
      <trkpt lat="27.89561" lon="86.819674">
        <ele>4271.4</ele>
        <time>2022-10-27T10:59:49.000Z</time>
      </trkpt>
      <trkpt lat="27.895587" lon="86.819686">
        <ele>4271.4</ele>
        <time>2022-10-27T10:59:51.000Z</time>
      </trkpt>
      <trkpt lat="27.895568" lon="86.819686">
        <ele>4271.4</ele>
        <time>2022-10-27T10:59:53.000Z</time>
      </trkpt>
      <trkpt lat="27.895546" lon="86.819686">
        <ele>4271</ele>
        <time>2022-10-27T10:59:55.000Z</time>
      </trkpt>
      <trkpt lat="27.895526" lon="86.819686">
        <ele>4270.8</ele>
        <time>2022-10-27T10:59:57.000Z</time>
      </trkpt>
      <trkpt lat="27.895501" lon="86.819693">
        <ele>4270.8</ele>
        <time>2022-10-27T10:59:59.000Z</time>
      </trkpt>
      <trkpt lat="27.895478" lon="86.819693">
        <ele>4270.2</ele>
        <time>2022-10-27T11:00:01.000Z</time>
      </trkpt>
      <trkpt lat="27.895456" lon="86.819699">
        <ele>4270.6</ele>
        <time>2022-10-27T11:00:03.000Z</time>
      </trkpt>
      <trkpt lat="27.89543" lon="86.819699">
        <ele>4270.6</ele>
        <time>2022-10-27T11:00:05.000Z</time>
      </trkpt>
      <trkpt lat="27.895408" lon="86.819712">
        <ele>4270.2</ele>
        <time>2022-10-27T11:00:07.000Z</time>
      </trkpt>
      <trkpt lat="27.895386" lon="86.819718">
        <ele>4270</ele>
        <time>2022-10-27T11:00:09.000Z</time>
      </trkpt>
      <trkpt lat="27.895363" lon="86.819718">
        <ele>4270</ele>
        <time>2022-10-27T11:00:11.000Z</time>
      </trkpt>
      <trkpt lat="27.895341" lon="86.819725">
        <ele>4270</ele>
        <time>2022-10-27T11:00:13.000Z</time>
      </trkpt>
      <trkpt lat="27.895318" lon="86.819725">
        <ele>4270</ele>
        <time>2022-10-27T11:00:15.000Z</time>
      </trkpt>
      <trkpt lat="27.89529" lon="86.819725">
        <ele>4270.4</ele>
        <time>2022-10-27T11:00:18.000Z</time>
      </trkpt>
      <trkpt lat="27.89527" lon="86.819731">
        <ele>4270.4</ele>
        <time>2022-10-27T11:00:20.000Z</time>
      </trkpt>
      <trkpt lat="27.895248" lon="86.819731">
        <ele>4270</ele>
        <time>2022-10-27T11:00:22.000Z</time>
      </trkpt>
      <trkpt lat="27.895226" lon="86.819731">
        <ele>4269.8</ele>
        <time>2022-10-27T11:00:24.000Z</time>
      </trkpt>
      <trkpt lat="27.895203" lon="86.819731">
        <ele>4269.8</ele>
        <time>2022-10-27T11:00:26.000Z</time>
      </trkpt>
      <trkpt lat="27.895178" lon="86.819731">
        <ele>4269.8</ele>
        <time>2022-10-27T11:00:28.000Z</time>
      </trkpt>
      <trkpt lat="27.895155" lon="86.819738">
        <ele>4269.8</ele>
        <time>2022-10-27T11:00:30.000Z</time>
      </trkpt>
      <trkpt lat="27.895133" lon="86.819738">
        <ele>4269.8</ele>
        <time>2022-10-27T11:00:32.000Z</time>
      </trkpt>
      <trkpt lat="27.895104" lon="86.81975">
        <ele>4269.2</ele>
        <time>2022-10-27T11:00:34.000Z</time>
      </trkpt>
      <trkpt lat="27.895082" lon="86.81975">
        <ele>4269.2</ele>
        <time>2022-10-27T11:00:36.000Z</time>
      </trkpt>
      <trkpt lat="27.895062" lon="86.81975">
        <ele>4268.8</ele>
        <time>2022-10-27T11:00:38.000Z</time>
      </trkpt>
      <trkpt lat="27.895043" lon="86.819738">
        <ele>4268.8</ele>
        <time>2022-10-27T11:00:40.000Z</time>
      </trkpt>
      <trkpt lat="27.895021" lon="86.81975">
        <ele>4269.2</ele>
        <time>2022-10-27T11:00:47.000Z</time>
      </trkpt>
      <trkpt lat="27.895005" lon="86.81977">
        <ele>4269.2</ele>
        <time>2022-10-27T11:00:49.000Z</time>
      </trkpt>
      <trkpt lat="27.894979" lon="86.819776">
        <ele>4269.2</ele>
        <time>2022-10-27T11:00:52.000Z</time>
      </trkpt>
      <trkpt lat="27.894954" lon="86.819776">
        <ele>4269</ele>
        <time>2022-10-27T11:00:54.000Z</time>
      </trkpt>
      <trkpt lat="27.894934" lon="86.819789">
        <ele>4268.8</ele>
        <time>2022-10-27T11:00:56.000Z</time>
      </trkpt>
      <trkpt lat="27.894915" lon="86.819776">
        <ele>4268.6</ele>
        <time>2022-10-27T11:00:58.000Z</time>
      </trkpt>
      <trkpt lat="27.894896" lon="86.819776">
        <ele>4268.8</ele>
        <time>2022-10-27T11:01:00.000Z</time>
      </trkpt>
      <trkpt lat="27.894877" lon="86.819776">
        <ele>4268.6</ele>
        <time>2022-10-27T11:01:02.000Z</time>
      </trkpt>
      <trkpt lat="27.894851" lon="86.819789">
        <ele>4268.2</ele>
        <time>2022-10-27T11:01:05.000Z</time>
      </trkpt>
      <trkpt lat="27.894826" lon="86.819795">
        <ele>4268</ele>
        <time>2022-10-27T11:01:07.000Z</time>
      </trkpt>
      <trkpt lat="27.894803" lon="86.819795">
        <ele>4268</ele>
        <time>2022-10-27T11:01:09.000Z</time>
      </trkpt>
      <trkpt lat="27.894781" lon="86.819795">
        <ele>4268</ele>
        <time>2022-10-27T11:01:11.000Z</time>
      </trkpt>
      <trkpt lat="27.894752" lon="86.819802">
        <ele>4268</ele>
        <time>2022-10-27T11:01:13.000Z</time>
      </trkpt>
      <trkpt lat="27.894723" lon="86.819802">
        <ele>4268</ele>
        <time>2022-10-27T11:01:15.000Z</time>
      </trkpt>
      <trkpt lat="27.894701" lon="86.819802">
        <ele>4268.2</ele>
        <time>2022-10-27T11:01:19.000Z</time>
      </trkpt>
      <trkpt lat="27.894675" lon="86.819795">
        <ele>4267.8</ele>
        <time>2022-10-27T11:01:22.000Z</time>
      </trkpt>
      <trkpt lat="27.894656" lon="86.819789">
        <ele>4267.8</ele>
        <time>2022-10-27T11:01:24.000Z</time>
      </trkpt>
      <trkpt lat="27.89463" lon="86.819795">
        <ele>4267.8</ele>
        <time>2022-10-27T11:01:27.000Z</time>
      </trkpt>
      <trkpt lat="27.894611" lon="86.819789">
        <ele>4268</ele>
        <time>2022-10-27T11:01:29.000Z</time>
      </trkpt>
      <trkpt lat="27.894589" lon="86.819795">
        <ele>4267.8</ele>
        <time>2022-10-27T11:01:32.000Z</time>
      </trkpt>
      <trkpt lat="27.894566" lon="86.819802">
        <ele>4268</ele>
        <time>2022-10-27T11:01:35.000Z</time>
      </trkpt>
      <trkpt lat="27.894541" lon="86.819802">
        <ele>4267.2</ele>
        <time>2022-10-27T11:01:37.000Z</time>
      </trkpt>
      <trkpt lat="27.894515" lon="86.819808">
        <ele>4267.2</ele>
        <time>2022-10-27T11:01:39.000Z</time>
      </trkpt>
      <trkpt lat="27.89449" lon="86.819814">
        <ele>4267.2</ele>
        <time>2022-10-27T11:01:42.000Z</time>
      </trkpt>
      <trkpt lat="27.89447" lon="86.819827">
        <ele>4267.2</ele>
        <time>2022-10-27T11:01:44.000Z</time>
      </trkpt>
      <trkpt lat="27.894448" lon="86.819834">
        <ele>4267</ele>
        <time>2022-10-27T11:01:46.000Z</time>
      </trkpt>
      <trkpt lat="27.894429" lon="86.819834">
        <ele>4267</ele>
        <time>2022-10-27T11:01:48.000Z</time>
      </trkpt>
      <trkpt lat="27.894406" lon="86.81984">
        <ele>4267</ele>
        <time>2022-10-27T11:01:50.000Z</time>
      </trkpt>
      <trkpt lat="27.894387" lon="86.81984">
        <ele>4267</ele>
        <time>2022-10-27T11:01:52.000Z</time>
      </trkpt>
      <trkpt lat="27.894368" lon="86.819846">
        <ele>4267</ele>
        <time>2022-10-27T11:01:54.000Z</time>
      </trkpt>
      <trkpt lat="27.894346" lon="86.819853">
        <ele>4266.6</ele>
        <time>2022-10-27T11:01:57.000Z</time>
      </trkpt>
      <trkpt lat="27.89432" lon="86.819859">
        <ele>4266.6</ele>
        <time>2022-10-27T11:02:00.000Z</time>
      </trkpt>
      <trkpt lat="27.894298" lon="86.819872">
        <ele>4266.4</ele>
        <time>2022-10-27T11:02:03.000Z</time>
      </trkpt>
      <trkpt lat="27.894278" lon="86.819872">
        <ele>4266.4</ele>
        <time>2022-10-27T11:02:05.000Z</time>
      </trkpt>
      <trkpt lat="27.894259" lon="86.819859">
        <ele>4266.4</ele>
        <time>2022-10-27T11:02:07.000Z</time>
      </trkpt>
      <trkpt lat="27.89424" lon="86.819859">
        <ele>4266.4</ele>
        <time>2022-10-27T11:02:09.000Z</time>
      </trkpt>
      <trkpt lat="27.894221" lon="86.819872">
        <ele>4266.2</ele>
        <time>2022-10-27T11:02:11.000Z</time>
      </trkpt>
      <trkpt lat="27.894202" lon="86.819872">
        <ele>4266.2</ele>
        <time>2022-10-27T11:02:13.000Z</time>
      </trkpt>
      <trkpt lat="27.894182" lon="86.819872">
        <ele>4265.8</ele>
        <time>2022-10-27T11:02:15.000Z</time>
      </trkpt>
      <trkpt lat="27.894157" lon="86.819872">
        <ele>4265.8</ele>
        <time>2022-10-27T11:02:17.000Z</time>
      </trkpt>
      <trkpt lat="27.894131" lon="86.819872">
        <ele>4265.6</ele>
        <time>2022-10-27T11:02:20.000Z</time>
      </trkpt>
      <trkpt lat="27.894112" lon="86.819859">
        <ele>4265.8</ele>
        <time>2022-10-27T11:02:22.000Z</time>
      </trkpt>
      <trkpt lat="27.89409" lon="86.819859">
        <ele>4265.6</ele>
        <time>2022-10-27T11:02:24.000Z</time>
      </trkpt>
      <trkpt lat="27.89407" lon="86.819853">
        <ele>4265.6</ele>
        <time>2022-10-27T11:02:26.000Z</time>
      </trkpt>
      <trkpt lat="27.894051" lon="86.819853">
        <ele>4265.6</ele>
        <time>2022-10-27T11:02:28.000Z</time>
      </trkpt>
      <trkpt lat="27.894022" lon="86.819846">
        <ele>4265.4</ele>
        <time>2022-10-27T11:02:30.000Z</time>
      </trkpt>
      <trkpt lat="27.894" lon="86.819846">
        <ele>4265.4</ele>
        <time>2022-10-27T11:02:32.000Z</time>
      </trkpt>
      <trkpt lat="27.893974" lon="86.81984">
        <ele>4265.4</ele>
        <time>2022-10-27T11:02:35.000Z</time>
      </trkpt>
      <trkpt lat="27.893949" lon="86.81984">
        <ele>4265</ele>
        <time>2022-10-27T11:02:38.000Z</time>
      </trkpt>
      <trkpt lat="27.893926" lon="86.81984">
        <ele>4265</ele>
        <time>2022-10-27T11:02:40.000Z</time>
      </trkpt>
      <trkpt lat="27.893907" lon="86.81984">
        <ele>4265</ele>
        <time>2022-10-27T11:02:42.000Z</time>
      </trkpt>
      <trkpt lat="27.893888" lon="86.819846">
        <ele>4265</ele>
        <time>2022-10-27T11:02:44.000Z</time>
      </trkpt>
      <trkpt lat="27.893869" lon="86.819853">
        <ele>4265.4</ele>
        <time>2022-10-27T11:02:46.000Z</time>
      </trkpt>
      <trkpt lat="27.89385" lon="86.819853">
        <ele>4265</ele>
        <time>2022-10-27T11:02:48.000Z</time>
      </trkpt>
      <trkpt lat="27.89383" lon="86.819859">
        <ele>4265</ele>
        <time>2022-10-27T11:02:50.000Z</time>
      </trkpt>
      <trkpt lat="27.893811" lon="86.819878">
        <ele>4265</ele>
        <time>2022-10-27T11:02:52.000Z</time>
      </trkpt>
      <trkpt lat="27.893792" lon="86.819885">
        <ele>4264.8</ele>
        <time>2022-10-27T11:02:54.000Z</time>
      </trkpt>
      <trkpt lat="27.89377" lon="86.819885">
        <ele>4264.8</ele>
        <time>2022-10-27T11:02:56.000Z</time>
      </trkpt>
      <trkpt lat="27.893747" lon="86.819885">
        <ele>4264.8</ele>
        <time>2022-10-27T11:02:59.000Z</time>
      </trkpt>
      <trkpt lat="27.893722" lon="86.819885">
        <ele>4264.6</ele>
        <time>2022-10-27T11:03:02.000Z</time>
      </trkpt>
      <trkpt lat="27.893702" lon="86.819885">
        <ele>4264.6</ele>
        <time>2022-10-27T11:03:04.000Z</time>
      </trkpt>
      <trkpt lat="27.893683" lon="86.819891">
        <ele>4264.8</ele>
        <time>2022-10-27T11:03:07.000Z</time>
      </trkpt>
      <trkpt lat="27.893664" lon="86.819898">
        <ele>4265</ele>
        <time>2022-10-27T11:03:10.000Z</time>
      </trkpt>
      <trkpt lat="27.893386" lon="86.819898">
        <ele>4265.6</ele>
        <time>2022-10-28T02:54:29.000Z</time>
      </trkpt>
      <trkpt lat="27.893366" lon="86.819898">
        <ele>4265.4</ele>
        <time>2022-10-28T02:54:31.000Z</time>
      </trkpt>
      <trkpt lat="27.893347" lon="86.819898">
        <ele>4265</ele>
        <time>2022-10-28T02:54:33.000Z</time>
      </trkpt>
      <trkpt lat="27.893328" lon="86.819898">
        <ele>4264.4</ele>
        <time>2022-10-28T02:54:35.000Z</time>
      </trkpt>
      <trkpt lat="27.893286" lon="86.819898">
        <ele>4265.2</ele>
        <time>2022-10-28T02:54:39.000Z</time>
      </trkpt>
      <trkpt lat="27.893264" lon="86.819898">
        <ele>4265.2</ele>
        <time>2022-10-28T02:54:41.000Z</time>
      </trkpt>
      <trkpt lat="27.893242" lon="86.819898">
        <ele>4265</ele>
        <time>2022-10-28T02:54:43.000Z</time>
      </trkpt>
      <trkpt lat="27.893222" lon="86.819898">
        <ele>4265</ele>
        <time>2022-10-28T02:54:45.000Z</time>
      </trkpt>
      <trkpt lat="27.8932" lon="86.81991">
        <ele>4264.6</ele>
        <time>2022-10-28T02:54:48.000Z</time>
      </trkpt>
      <trkpt lat="27.893178" lon="86.81991">
        <ele>4264.6</ele>
        <time>2022-10-28T02:54:50.000Z</time>
      </trkpt>
      <trkpt lat="27.893155" lon="86.81991">
        <ele>4264.6</ele>
        <time>2022-10-28T02:54:53.000Z</time>
      </trkpt>
      <trkpt lat="27.893136" lon="86.81991">
        <ele>4265</ele>
        <time>2022-10-28T02:54:55.000Z</time>
      </trkpt>
      <trkpt lat="27.893114" lon="86.819917">
        <ele>4265</ele>
        <time>2022-10-28T02:54:57.000Z</time>
      </trkpt>
      <trkpt lat="27.893085" lon="86.819923">
        <ele>4264.4</ele>
        <time>2022-10-28T02:55:00.000Z</time>
      </trkpt>
      <trkpt lat="27.893062" lon="86.819917">
        <ele>4264.4</ele>
        <time>2022-10-28T02:55:02.000Z</time>
      </trkpt>
      <trkpt lat="27.893043" lon="86.819923">
        <ele>4263.8</ele>
        <time>2022-10-28T02:55:04.000Z</time>
      </trkpt>
      <trkpt lat="27.893024" lon="86.819923">
        <ele>4264.2</ele>
        <time>2022-10-28T02:55:06.000Z</time>
      </trkpt>
      <trkpt lat="27.892998" lon="86.819923">
        <ele>4264.2</ele>
        <time>2022-10-28T02:55:08.000Z</time>
      </trkpt>
      <trkpt lat="27.892976" lon="86.81993">
        <ele>4263.4</ele>
        <time>2022-10-28T02:55:11.000Z</time>
      </trkpt>
      <trkpt lat="27.892957" lon="86.819936">
        <ele>4263.6</ele>
        <time>2022-10-28T02:55:14.000Z</time>
      </trkpt>
      <trkpt lat="27.892938" lon="86.819936">
        <ele>4263.6</ele>
        <time>2022-10-28T02:55:16.000Z</time>
      </trkpt>
      <trkpt lat="27.892915" lon="86.819936">
        <ele>4263.2</ele>
        <time>2022-10-28T02:55:18.000Z</time>
      </trkpt>
      <trkpt lat="27.892893" lon="86.819936">
        <ele>4263.2</ele>
        <time>2022-10-28T02:55:20.000Z</time>
      </trkpt>
      <trkpt lat="27.892864" lon="86.819936">
        <ele>4263.2</ele>
        <time>2022-10-28T02:55:23.000Z</time>
      </trkpt>
      <trkpt lat="27.892842" lon="86.819949">
        <ele>4263.2</ele>
        <time>2022-10-28T02:55:25.000Z</time>
      </trkpt>
      <trkpt lat="27.892819" lon="86.819949">
        <ele>4263.4</ele>
        <time>2022-10-28T02:55:27.000Z</time>
      </trkpt>
      <trkpt lat="27.8928" lon="86.819949">
        <ele>4263.4</ele>
        <time>2022-10-28T02:55:29.000Z</time>
      </trkpt>
      <trkpt lat="27.892781" lon="86.819949">
        <ele>4263.4</ele>
        <time>2022-10-28T02:55:31.000Z</time>
      </trkpt>
      <trkpt lat="27.892762" lon="86.819955">
        <ele>4263.4</ele>
        <time>2022-10-28T02:55:33.000Z</time>
      </trkpt>
      <trkpt lat="27.892736" lon="86.819955">
        <ele>4262.6</ele>
        <time>2022-10-28T02:55:36.000Z</time>
      </trkpt>
      <trkpt lat="27.892717" lon="86.819955">
        <ele>4263.2</ele>
        <time>2022-10-28T02:55:38.000Z</time>
      </trkpt>
      <trkpt lat="27.892688" lon="86.819955">
        <ele>4262.6</ele>
        <time>2022-10-28T02:55:41.000Z</time>
      </trkpt>
      <trkpt lat="27.892669" lon="86.819955">
        <ele>4262.6</ele>
        <time>2022-10-28T02:55:43.000Z</time>
      </trkpt>
      <trkpt lat="27.89265" lon="86.819955">
        <ele>4262.8</ele>
        <time>2022-10-28T02:55:45.000Z</time>
      </trkpt>
      <trkpt lat="27.89263" lon="86.819955">
        <ele>4262.4</ele>
        <time>2022-10-28T02:55:47.000Z</time>
      </trkpt>
      <trkpt lat="27.892611" lon="86.819962">
        <ele>4262.4</ele>
        <time>2022-10-28T02:55:49.000Z</time>
      </trkpt>
      <trkpt lat="27.892592" lon="86.819968">
        <ele>4262.6</ele>
        <time>2022-10-28T02:55:51.000Z</time>
      </trkpt>
      <trkpt lat="27.892573" lon="86.819968">
        <ele>4262.8</ele>
        <time>2022-10-28T02:55:53.000Z</time>
      </trkpt>
      <trkpt lat="27.89255" lon="86.819974">
        <ele>4263.2</ele>
        <time>2022-10-28T02:55:56.000Z</time>
      </trkpt>
      <trkpt lat="27.892525" lon="86.819987">
        <ele>4262</ele>
        <time>2022-10-28T02:55:59.000Z</time>
      </trkpt>
      <trkpt lat="27.892499" lon="86.819994">
        <ele>4262.4</ele>
        <time>2022-10-28T02:56:02.000Z</time>
      </trkpt>
      <trkpt lat="27.89248" lon="86.819994">
        <ele>4262.4</ele>
        <time>2022-10-28T02:56:04.000Z</time>
      </trkpt>
      <trkpt lat="27.892458" lon="86.819994">
        <ele>4261.8</ele>
        <time>2022-10-28T02:56:06.000Z</time>
      </trkpt>
      <trkpt lat="27.892435" lon="86.82">
        <ele>4261.8</ele>
        <time>2022-10-28T02:56:08.000Z</time>
      </trkpt>
      <trkpt lat="27.892413" lon="86.82">
        <ele>4262</ele>
        <time>2022-10-28T02:56:10.000Z</time>
      </trkpt>
      <trkpt lat="27.89239" lon="86.82">
        <ele>4262.4</ele>
        <time>2022-10-28T02:56:12.000Z</time>
      </trkpt>
      <trkpt lat="27.892371" lon="86.82">
        <ele>4262</ele>
        <time>2022-10-28T02:56:14.000Z</time>
      </trkpt>
      <trkpt lat="27.892349" lon="86.82">
        <ele>4261.8</ele>
        <time>2022-10-28T02:56:16.000Z</time>
      </trkpt>
      <trkpt lat="27.892326" lon="86.820006">
        <ele>4262.6</ele>
        <time>2022-10-28T02:56:18.000Z</time>
      </trkpt>
      <trkpt lat="27.892301" lon="86.820006">
        <ele>4262</ele>
        <time>2022-10-28T02:56:20.000Z</time>
      </trkpt>
      <trkpt lat="27.892282" lon="86.820013">
        <ele>4261.8</ele>
        <time>2022-10-28T02:56:22.000Z</time>
      </trkpt>
      <trkpt lat="27.892259" lon="86.820013">
        <ele>4261.6</ele>
        <time>2022-10-28T02:56:24.000Z</time>
      </trkpt>
      <trkpt lat="27.892234" lon="86.820013">
        <ele>4261.6</ele>
        <time>2022-10-28T02:56:26.000Z</time>
      </trkpt>
      <trkpt lat="27.892214" lon="86.820013">
        <ele>4261.6</ele>
        <time>2022-10-28T02:56:28.000Z</time>
      </trkpt>
      <trkpt lat="27.892189" lon="86.820026">
        <ele>4261.8</ele>
        <time>2022-10-28T02:56:30.000Z</time>
      </trkpt>
      <trkpt lat="27.89217" lon="86.820026">
        <ele>4261.6</ele>
        <time>2022-10-28T02:56:32.000Z</time>
      </trkpt>
      <trkpt lat="27.892144" lon="86.820026">
        <ele>4261.4</ele>
        <time>2022-10-28T02:56:34.000Z</time>
      </trkpt>
      <trkpt lat="27.892122" lon="86.820013">
        <ele>4261.4</ele>
        <time>2022-10-28T02:56:36.000Z</time>
      </trkpt>
      <trkpt lat="27.892096" lon="86.820013">
        <ele>4261.4</ele>
        <time>2022-10-28T02:56:38.000Z</time>
      </trkpt>
      <trkpt lat="27.892074" lon="86.820032">
        <ele>4261.4</ele>
        <time>2022-10-28T02:56:40.000Z</time>
      </trkpt>
      <trkpt lat="27.892054" lon="86.820032">
        <ele>4261.4</ele>
        <time>2022-10-28T02:56:42.000Z</time>
      </trkpt>
      <trkpt lat="27.892032" lon="86.820032">
        <ele>4261</ele>
        <time>2022-10-28T02:56:44.000Z</time>
      </trkpt>
      <trkpt lat="27.89201" lon="86.820032">
        <ele>4261.4</ele>
        <time>2022-10-28T02:56:46.000Z</time>
      </trkpt>
      <trkpt lat="27.891984" lon="86.820032">
        <ele>4261</ele>
        <time>2022-10-28T02:56:49.000Z</time>
      </trkpt>
      <trkpt lat="27.891962" lon="86.820038">
        <ele>4260.8</ele>
        <time>2022-10-28T02:56:51.000Z</time>
      </trkpt>
      <trkpt lat="27.891939" lon="86.820038">
        <ele>4260.8</ele>
        <time>2022-10-28T02:56:53.000Z</time>
      </trkpt>
      <trkpt lat="27.891917" lon="86.820045">
        <ele>4260</ele>
        <time>2022-10-28T02:56:55.000Z</time>
      </trkpt>
      <trkpt lat="27.891891" lon="86.820051">
        <ele>4260</ele>
        <time>2022-10-28T02:56:57.000Z</time>
      </trkpt>
      <trkpt lat="27.891872" lon="86.820051">
        <ele>4260.2</ele>
        <time>2022-10-28T02:56:59.000Z</time>
      </trkpt>
      <trkpt lat="27.891853" lon="86.820051">
        <ele>4259.8</ele>
        <time>2022-10-28T02:57:01.000Z</time>
      </trkpt>
      <trkpt lat="27.89183" lon="86.820051">
        <ele>4259.8</ele>
        <time>2022-10-28T02:57:03.000Z</time>
      </trkpt>
      <trkpt lat="27.891811" lon="86.820051">
        <ele>4260</ele>
        <time>2022-10-28T02:57:05.000Z</time>
      </trkpt>
      <trkpt lat="27.891789" lon="86.820038">
        <ele>4260</ele>
        <time>2022-10-28T02:57:07.000Z</time>
      </trkpt>
      <trkpt lat="27.89177" lon="86.820032">
        <ele>4259.6</ele>
        <time>2022-10-28T02:57:09.000Z</time>
      </trkpt>
      <trkpt lat="27.89176" lon="86.820013">
        <ele>4259.6</ele>
        <time>2022-10-28T02:57:11.000Z</time>
      </trkpt>
      <trkpt lat="27.891779" lon="86.820006">
        <ele>4260.8</ele>
        <time>2022-10-28T02:57:20.000Z</time>
      </trkpt>
      <trkpt lat="27.891754" lon="86.820013">
        <ele>4257.4</ele>
        <time>2022-10-28T03:02:28.000Z</time>
      </trkpt>
      <trkpt lat="27.891731" lon="86.820013">
        <ele>4257.2</ele>
        <time>2022-10-28T03:02:30.000Z</time>
      </trkpt>
      <trkpt lat="27.891706" lon="86.820013">
        <ele>4258.6</ele>
        <time>2022-10-28T03:02:32.000Z</time>
      </trkpt>
      <trkpt lat="27.891677" lon="86.820013">
        <ele>4258.6</ele>
        <time>2022-10-28T03:02:34.000Z</time>
      </trkpt>
      <trkpt lat="27.891658" lon="86.820013">
        <ele>4257.8</ele>
        <time>2022-10-28T03:02:35.000Z</time>
      </trkpt>
      <trkpt lat="27.891629" lon="86.820013">
        <ele>4257.4</ele>
        <time>2022-10-28T03:02:37.000Z</time>
      </trkpt>
      <trkpt lat="27.89161" lon="86.820013">
        <ele>4257.2</ele>
        <time>2022-10-28T03:02:39.000Z</time>
      </trkpt>
      <trkpt lat="27.89159" lon="86.820013">
        <ele>4257.2</ele>
        <time>2022-10-28T03:02:41.000Z</time>
      </trkpt>
      <trkpt lat="27.891571" lon="86.820026">
        <ele>4257</ele>
        <time>2022-10-28T03:02:43.000Z</time>
      </trkpt>
      <trkpt lat="27.891542" lon="86.820026">
        <ele>4256.4</ele>
        <time>2022-10-28T03:02:46.000Z</time>
      </trkpt>
      <trkpt lat="27.891517" lon="86.820026">
        <ele>4257</ele>
        <time>2022-10-28T03:02:49.000Z</time>
      </trkpt>
      <trkpt lat="27.891498" lon="86.820026">
        <ele>4256.4</ele>
        <time>2022-10-28T03:02:51.000Z</time>
      </trkpt>
      <trkpt lat="27.891478" lon="86.820032">
        <ele>4256.2</ele>
        <time>2022-10-28T03:02:53.000Z</time>
      </trkpt>
      <trkpt lat="27.891459" lon="86.820045">
        <ele>4255.4</ele>
        <time>2022-10-28T03:02:56.000Z</time>
      </trkpt>
      <trkpt lat="27.89145" lon="86.820077">
        <ele>4255.4</ele>
        <time>2022-10-28T03:02:59.000Z</time>
      </trkpt>
      <trkpt lat="27.891446" lon="86.820109">
        <ele>4255.2</ele>
        <time>2022-10-28T03:03:01.000Z</time>
      </trkpt>
      <trkpt lat="27.891427" lon="86.820122">
        <ele>4255.2</ele>
        <time>2022-10-28T03:03:03.000Z</time>
      </trkpt>
      <trkpt lat="27.891408" lon="86.820134">
        <ele>4254.6</ele>
        <time>2022-10-28T03:03:05.000Z</time>
      </trkpt>
      <trkpt lat="27.891382" lon="86.820134">
        <ele>4254.6</ele>
        <time>2022-10-28T03:03:07.000Z</time>
      </trkpt>
      <trkpt lat="27.891357" lon="86.820147">
        <ele>4254.4</ele>
        <time>2022-10-28T03:03:09.000Z</time>
      </trkpt>
      <trkpt lat="27.891331" lon="86.820134">
        <ele>4254.4</ele>
        <time>2022-10-28T03:03:11.000Z</time>
      </trkpt>
      <trkpt lat="27.891306" lon="86.820122">
        <ele>4254.2</ele>
        <time>2022-10-28T03:03:14.000Z</time>
      </trkpt>
      <trkpt lat="27.89129" lon="86.820109">
        <ele>4254.6</ele>
        <time>2022-10-28T03:03:16.000Z</time>
      </trkpt>
      <trkpt lat="27.891274" lon="86.820096">
        <ele>4253.8</ele>
        <time>2022-10-28T03:03:18.000Z</time>
      </trkpt>
      <trkpt lat="27.891251" lon="86.820083">
        <ele>4255.2</ele>
        <time>2022-10-28T03:03:21.000Z</time>
      </trkpt>
      <trkpt lat="27.891232" lon="86.82007">
        <ele>4255</ele>
        <time>2022-10-28T03:03:23.000Z</time>
      </trkpt>
      <trkpt lat="27.891213" lon="86.820058">
        <ele>4255</ele>
        <time>2022-10-28T03:03:25.000Z</time>
      </trkpt>
      <trkpt lat="27.89119" lon="86.820051">
        <ele>4255.2</ele>
        <time>2022-10-28T03:03:27.000Z</time>
      </trkpt>
      <trkpt lat="27.891162" lon="86.820051">
        <ele>4255.2</ele>
        <time>2022-10-28T03:03:30.000Z</time>
      </trkpt>
      <trkpt lat="27.891142" lon="86.820051">
        <ele>4255.2</ele>
        <time>2022-10-28T03:03:32.000Z</time>
      </trkpt>
      <trkpt lat="27.891123" lon="86.820051">
        <ele>4255.2</ele>
        <time>2022-10-28T03:03:34.000Z</time>
      </trkpt>
      <trkpt lat="27.891098" lon="86.820051">
        <ele>4254.4</ele>
        <time>2022-10-28T03:03:37.000Z</time>
      </trkpt>
      <trkpt lat="27.891072" lon="86.820058">
        <ele>4253.8</ele>
        <time>2022-10-28T03:03:49.000Z</time>
      </trkpt>
      <trkpt lat="27.891053" lon="86.820051">
        <ele>4254.6</ele>
        <time>2022-10-28T03:03:51.000Z</time>
      </trkpt>
      <trkpt lat="27.89103" lon="86.820038">
        <ele>4254.6</ele>
        <time>2022-10-28T03:03:55.000Z</time>
      </trkpt>
      <trkpt lat="27.891011" lon="86.820038">
        <ele>4255</ele>
        <time>2022-10-28T03:04:28.000Z</time>
      </trkpt>
      <trkpt lat="27.890976" lon="86.820032">
        <ele>4255</ele>
        <time>2022-10-28T03:04:30.000Z</time>
      </trkpt>
      <trkpt lat="27.890944" lon="86.820013">
        <ele>4255.6</ele>
        <time>2022-10-28T03:04:32.000Z</time>
      </trkpt>
      <trkpt lat="27.890912" lon="86.82">
        <ele>4254.2</ele>
        <time>2022-10-28T03:04:34.000Z</time>
      </trkpt>
      <trkpt lat="27.89088" lon="86.819987">
        <ele>4254.4</ele>
        <time>2022-10-28T03:04:36.000Z</time>
      </trkpt>
      <trkpt lat="27.890861" lon="86.819968">
        <ele>4255</ele>
        <time>2022-10-28T03:04:38.000Z</time>
      </trkpt>
      <trkpt lat="27.890842" lon="86.819962">
        <ele>4254.4</ele>
        <time>2022-10-28T03:04:40.000Z</time>
      </trkpt>
      <trkpt lat="27.890822" lon="86.819949">
        <ele>4254.4</ele>
        <time>2022-10-28T03:04:42.000Z</time>
      </trkpt>
      <trkpt lat="27.890803" lon="86.819936">
        <ele>4254.4</ele>
        <time>2022-10-28T03:04:44.000Z</time>
      </trkpt>
      <trkpt lat="27.890781" lon="86.81993">
        <ele>4255</ele>
        <time>2022-10-28T03:04:47.000Z</time>
      </trkpt>
      <trkpt lat="27.890762" lon="86.819923">
        <ele>4254.6</ele>
        <time>2022-10-28T03:04:50.000Z</time>
      </trkpt>
      <trkpt lat="27.890746" lon="86.81991">
        <ele>4255</ele>
        <time>2022-10-28T03:04:52.000Z</time>
      </trkpt>
      <trkpt lat="27.890723" lon="86.81991">
        <ele>4255.4</ele>
        <time>2022-10-28T03:04:55.000Z</time>
      </trkpt>
      <trkpt lat="27.890704" lon="86.819898">
        <ele>4255.6</ele>
        <time>2022-10-28T03:04:57.000Z</time>
      </trkpt>
      <trkpt lat="27.890685" lon="86.819898">
        <ele>4256</ele>
        <time>2022-10-28T03:05:00.000Z</time>
      </trkpt>
      <trkpt lat="27.890666" lon="86.819898">
        <ele>4255.4</ele>
        <time>2022-10-28T03:05:02.000Z</time>
      </trkpt>
      <trkpt lat="27.890643" lon="86.819898">
        <ele>4256</ele>
        <time>2022-10-28T03:05:04.000Z</time>
      </trkpt>
      <trkpt lat="27.890621" lon="86.81991">
        <ele>4256</ele>
        <time>2022-10-28T03:05:07.000Z</time>
      </trkpt>
      <trkpt lat="27.890598" lon="86.81991">
        <ele>4256</ele>
        <time>2022-10-28T03:05:09.000Z</time>
      </trkpt>
      <trkpt lat="27.890573" lon="86.81991">
        <ele>4255.6</ele>
        <time>2022-10-28T03:05:11.000Z</time>
      </trkpt>
      <trkpt lat="27.890554" lon="86.819898">
        <ele>4255.6</ele>
        <time>2022-10-28T03:05:13.000Z</time>
      </trkpt>
      <trkpt lat="27.890531" lon="86.819898">
        <ele>4255.4</ele>
        <time>2022-10-28T03:05:15.000Z</time>
      </trkpt>
      <trkpt lat="27.890512" lon="86.819898">
        <ele>4255.6</ele>
        <time>2022-10-28T03:05:17.000Z</time>
      </trkpt>
      <trkpt lat="27.89049" lon="86.819898">
        <ele>4255.6</ele>
        <time>2022-10-28T03:05:19.000Z</time>
      </trkpt>
      <trkpt lat="27.89047" lon="86.819891">
        <ele>4256</ele>
        <time>2022-10-28T03:05:21.000Z</time>
      </trkpt>
      <trkpt lat="27.890448" lon="86.819891">
        <ele>4256</ele>
        <time>2022-10-28T03:05:23.000Z</time>
      </trkpt>
      <trkpt lat="27.890422" lon="86.819885">
        <ele>4255.8</ele>
        <time>2022-10-28T03:05:26.000Z</time>
      </trkpt>
      <trkpt lat="27.890397" lon="86.819878">
        <ele>4255.4</ele>
        <time>2022-10-28T03:05:29.000Z</time>
      </trkpt>
      <trkpt lat="27.890374" lon="86.819872">
        <ele>4255.6</ele>
        <time>2022-10-28T03:05:32.000Z</time>
      </trkpt>
      <trkpt lat="27.890355" lon="86.819853">
        <ele>4255.6</ele>
        <time>2022-10-28T03:05:34.000Z</time>
      </trkpt>
      <trkpt lat="27.890333" lon="86.819853">
        <ele>4255.4</ele>
        <time>2022-10-28T03:05:36.000Z</time>
      </trkpt>
      <trkpt lat="27.890314" lon="86.81984">
        <ele>4255.4</ele>
        <time>2022-10-28T03:05:38.000Z</time>
      </trkpt>
      <trkpt lat="27.890291" lon="86.819827">
        <ele>4255.4</ele>
        <time>2022-10-28T03:05:41.000Z</time>
      </trkpt>
      <trkpt lat="27.890275" lon="86.819814">
        <ele>4255.8</ele>
        <time>2022-10-28T03:05:43.000Z</time>
      </trkpt>
      <trkpt lat="27.890256" lon="86.819808">
        <ele>4255.6</ele>
        <time>2022-10-28T03:05:45.000Z</time>
      </trkpt>
      <trkpt lat="27.89023" lon="86.819795">
        <ele>4256.2</ele>
        <time>2022-10-28T03:05:48.000Z</time>
      </trkpt>
      <trkpt lat="27.890208" lon="86.819789">
        <ele>4255.4</ele>
        <time>2022-10-28T03:05:50.000Z</time>
      </trkpt>
      <trkpt lat="27.890189" lon="86.819789">
        <ele>4255.8</ele>
        <time>2022-10-28T03:05:52.000Z</time>
      </trkpt>
      <trkpt lat="27.890166" lon="86.819776">
        <ele>4256.2</ele>
        <time>2022-10-28T03:05:55.000Z</time>
      </trkpt>
      <trkpt lat="27.890147" lon="86.819763">
        <ele>4256.4</ele>
        <time>2022-10-28T03:05:57.000Z</time>
      </trkpt>
      <trkpt lat="27.890128" lon="86.819757">
        <ele>4256.4</ele>
        <time>2022-10-28T03:05:59.000Z</time>
      </trkpt>
      <trkpt lat="27.890106" lon="86.819738">
        <ele>4255.8</ele>
        <time>2022-10-28T03:06:02.000Z</time>
      </trkpt>
      <trkpt lat="27.890086" lon="86.819725">
        <ele>4256.6</ele>
        <time>2022-10-28T03:06:05.000Z</time>
      </trkpt>
      <trkpt lat="27.890064" lon="86.819712">
        <ele>4256.8</ele>
        <time>2022-10-28T03:06:08.000Z</time>
      </trkpt>
      <trkpt lat="27.890058" lon="86.819693">
        <ele>4256.8</ele>
        <time>2022-10-28T03:06:10.000Z</time>
      </trkpt>
      <trkpt lat="27.890038" lon="86.819674">
        <ele>4257.8</ele>
        <time>2022-10-28T03:06:13.000Z</time>
      </trkpt>
      <trkpt lat="27.890016" lon="86.819654">
        <ele>4257.8</ele>
        <time>2022-10-28T03:06:16.000Z</time>
      </trkpt>
      <trkpt lat="27.88999" lon="86.819648">
        <ele>4258.4</ele>
        <time>2022-10-28T03:06:19.000Z</time>
      </trkpt>
      <trkpt lat="27.889968" lon="86.819642">
        <ele>4258.4</ele>
        <time>2022-10-28T03:06:21.000Z</time>
      </trkpt>
      <trkpt lat="27.889952" lon="86.819629">
        <ele>4258.4</ele>
        <time>2022-10-28T03:06:23.000Z</time>
      </trkpt>
      <trkpt lat="27.889933" lon="86.81961">
        <ele>4258.2</ele>
        <time>2022-10-28T03:06:25.000Z</time>
      </trkpt>
      <trkpt lat="27.889914" lon="86.819597">
        <ele>4258.2</ele>
        <time>2022-10-28T03:06:27.000Z</time>
      </trkpt>
      <trkpt lat="27.889898" lon="86.819578">
        <ele>4258.6</ele>
        <time>2022-10-28T03:06:29.000Z</time>
      </trkpt>
      <trkpt lat="27.889878" lon="86.819558">
        <ele>4258.2</ele>
        <time>2022-10-28T03:06:32.000Z</time>
      </trkpt>
      <trkpt lat="27.889859" lon="86.819552">
        <ele>4257.6</ele>
        <time>2022-10-28T03:06:34.000Z</time>
      </trkpt>
      <trkpt lat="27.889846" lon="86.819533">
        <ele>4257.6</ele>
        <time>2022-10-28T03:06:36.000Z</time>
      </trkpt>
      <trkpt lat="27.889827" lon="86.81952">
        <ele>4257.6</ele>
        <time>2022-10-28T03:06:38.000Z</time>
      </trkpt>
      <trkpt lat="27.889805" lon="86.819514">
        <ele>4257.6</ele>
        <time>2022-10-28T03:06:40.000Z</time>
      </trkpt>
      <trkpt lat="27.889789" lon="86.819501">
        <ele>4257.8</ele>
        <time>2022-10-28T03:06:42.000Z</time>
      </trkpt>
      <trkpt lat="27.889766" lon="86.819488">
        <ele>4257.8</ele>
        <time>2022-10-28T03:06:44.000Z</time>
      </trkpt>
      <trkpt lat="27.889747" lon="86.819482">
        <ele>4257.2</ele>
        <time>2022-10-28T03:06:46.000Z</time>
      </trkpt>
      <trkpt lat="27.889728" lon="86.819469">
        <ele>4257.4</ele>
        <time>2022-10-28T03:06:49.000Z</time>
      </trkpt>
      <trkpt lat="27.889709" lon="86.819456">
        <ele>4257.4</ele>
        <time>2022-10-28T03:06:51.000Z</time>
      </trkpt>
      <trkpt lat="27.88969" lon="86.819456">
        <ele>4257.4</ele>
        <time>2022-10-28T03:06:53.000Z</time>
      </trkpt>
      <trkpt lat="27.88967" lon="86.81945">
        <ele>4257.4</ele>
        <time>2022-10-28T03:06:55.000Z</time>
      </trkpt>
      <trkpt lat="27.889651" lon="86.81945">
        <ele>4257.2</ele>
        <time>2022-10-28T03:06:57.000Z</time>
      </trkpt>
      <trkpt lat="27.889629" lon="86.819437">
        <ele>4257.2</ele>
        <time>2022-10-28T03:07:00.000Z</time>
      </trkpt>
      <trkpt lat="27.88961" lon="86.81943">
        <ele>4256.8</ele>
        <time>2022-10-28T03:07:02.000Z</time>
      </trkpt>
      <trkpt lat="27.889594" lon="86.819411">
        <ele>4257.2</ele>
        <time>2022-10-28T03:07:04.000Z</time>
      </trkpt>
      <trkpt lat="27.889574" lon="86.819392">
        <ele>4256.6</ele>
        <time>2022-10-28T03:07:07.000Z</time>
      </trkpt>
      <trkpt lat="27.889552" lon="86.819379">
        <ele>4256.4</ele>
        <time>2022-10-28T03:07:09.000Z</time>
      </trkpt>
      <trkpt lat="27.889523" lon="86.819379">
        <ele>4257.4</ele>
        <time>2022-10-28T03:07:12.000Z</time>
      </trkpt>
      <trkpt lat="27.889504" lon="86.819366">
        <ele>4257.4</ele>
        <time>2022-10-28T03:07:14.000Z</time>
      </trkpt>
      <trkpt lat="27.889485" lon="86.819354">
        <ele>4257.2</ele>
        <time>2022-10-28T03:07:16.000Z</time>
      </trkpt>
      <trkpt lat="27.889466" lon="86.819354">
        <ele>4256.8</ele>
        <time>2022-10-28T03:07:18.000Z</time>
      </trkpt>
      <trkpt lat="27.889443" lon="86.819341">
        <ele>4256.4</ele>
        <time>2022-10-28T03:07:20.000Z</time>
      </trkpt>
      <trkpt lat="27.889421" lon="86.819334">
        <ele>4256.8</ele>
        <time>2022-10-28T03:07:22.000Z</time>
      </trkpt>
      <trkpt lat="27.889395" lon="86.819334">
        <ele>4256</ele>
        <time>2022-10-28T03:07:24.000Z</time>
      </trkpt>
      <trkpt lat="27.889373" lon="86.819334">
        <ele>4255.8</ele>
        <time>2022-10-28T03:07:26.000Z</time>
      </trkpt>
      <trkpt lat="27.88935" lon="86.819328">
        <ele>4255.8</ele>
        <time>2022-10-28T03:07:28.000Z</time>
      </trkpt>
      <trkpt lat="27.889331" lon="86.819322">
        <ele>4256</ele>
        <time>2022-10-28T03:07:30.000Z</time>
      </trkpt>
      <trkpt lat="27.889312" lon="86.819322">
        <ele>4256</ele>
        <time>2022-10-28T03:07:32.000Z</time>
      </trkpt>
      <trkpt lat="27.88929" lon="86.819315">
        <ele>4256</ele>
        <time>2022-10-28T03:07:34.000Z</time>
      </trkpt>
      <trkpt lat="27.88927" lon="86.819315">
        <ele>4255.6</ele>
        <time>2022-10-28T03:07:36.000Z</time>
      </trkpt>
      <trkpt lat="27.889245" lon="86.819302">
        <ele>4255.8</ele>
        <time>2022-10-28T03:07:38.000Z</time>
      </trkpt>
      <trkpt lat="27.889222" lon="86.819296">
        <ele>4255.8</ele>
        <time>2022-10-28T03:07:41.000Z</time>
      </trkpt>
      <trkpt lat="27.889203" lon="86.819296">
        <ele>4255.6</ele>
        <time>2022-10-28T03:07:43.000Z</time>
      </trkpt>
      <trkpt lat="27.889181" lon="86.81929">
        <ele>4255.6</ele>
        <time>2022-10-28T03:07:45.000Z</time>
      </trkpt>
      <trkpt lat="27.889158" lon="86.819283">
        <ele>4255.4</ele>
        <time>2022-10-28T03:07:47.000Z</time>
      </trkpt>
      <trkpt lat="27.889136" lon="86.819277">
        <ele>4255.4</ele>
        <time>2022-10-28T03:07:49.000Z</time>
      </trkpt>
      <trkpt lat="27.889117" lon="86.81927">
        <ele>4255.4</ele>
        <time>2022-10-28T03:07:51.000Z</time>
      </trkpt>
      <trkpt lat="27.889101" lon="86.819258">
        <ele>4254.8</ele>
        <time>2022-10-28T03:07:53.000Z</time>
      </trkpt>
      <trkpt lat="27.889082" lon="86.819251">
        <ele>4255.4</ele>
        <time>2022-10-28T03:07:55.000Z</time>
      </trkpt>
      <trkpt lat="27.889066" lon="86.819238">
        <ele>4255.6</ele>
        <time>2022-10-28T03:08:04.000Z</time>
      </trkpt>
      <trkpt lat="27.889046" lon="86.819232">
        <ele>4254.8</ele>
        <time>2022-10-28T03:08:07.000Z</time>
      </trkpt>
      <trkpt lat="27.889024" lon="86.819232">
        <ele>4254.8</ele>
        <time>2022-10-28T03:08:23.000Z</time>
      </trkpt>
      <trkpt lat="27.888998" lon="86.819232">
        <ele>4254</ele>
        <time>2022-10-28T03:08:25.000Z</time>
      </trkpt>
      <trkpt lat="27.888973" lon="86.819232">
        <ele>4254.2</ele>
        <time>2022-10-28T03:08:27.000Z</time>
      </trkpt>
      <trkpt lat="27.888954" lon="86.819232">
        <ele>4253.8</ele>
        <time>2022-10-28T03:08:29.000Z</time>
      </trkpt>
      <trkpt lat="27.888938" lon="86.819219">
        <ele>4255.6</ele>
        <time>2022-10-28T03:08:37.000Z</time>
      </trkpt>
      <trkpt lat="27.888918" lon="86.819219">
        <ele>4255.6</ele>
        <time>2022-10-28T03:08:39.000Z</time>
      </trkpt>
      <trkpt lat="27.888899" lon="86.819213">
        <ele>4254.8</ele>
        <time>2022-10-28T03:08:49.000Z</time>
      </trkpt>
      <trkpt lat="27.888874" lon="86.819206">
        <ele>4254.8</ele>
        <time>2022-10-28T03:08:52.000Z</time>
      </trkpt>
      <trkpt lat="27.888835" lon="86.819181">
        <ele>4253.8</ele>
        <time>2022-10-28T03:08:56.000Z</time>
      </trkpt>
      <trkpt lat="27.888813" lon="86.819174">
        <ele>4253.8</ele>
        <time>2022-10-28T03:08:58.000Z</time>
      </trkpt>
      <trkpt lat="27.888794" lon="86.819168">
        <ele>4254.8</ele>
        <time>2022-10-28T03:09:00.000Z</time>
      </trkpt>
      <trkpt lat="27.888774" lon="86.819168">
        <ele>4254.8</ele>
        <time>2022-10-28T03:09:02.000Z</time>
      </trkpt>
      <trkpt lat="27.888755" lon="86.819155">
        <ele>4253.2</ele>
        <time>2022-10-28T03:09:04.000Z</time>
      </trkpt>
      <trkpt lat="27.888736" lon="86.819142">
        <ele>4253.2</ele>
        <time>2022-10-28T03:09:06.000Z</time>
      </trkpt>
      <trkpt lat="27.888717" lon="86.819136">
        <ele>4254</ele>
        <time>2022-10-28T03:09:08.000Z</time>
      </trkpt>
      <trkpt lat="27.888698" lon="86.81913">
        <ele>4253.8</ele>
        <time>2022-10-28T03:09:10.000Z</time>
      </trkpt>
      <trkpt lat="27.888675" lon="86.819123">
        <ele>4254.6</ele>
        <time>2022-10-28T03:09:12.000Z</time>
      </trkpt>
      <trkpt lat="27.888656" lon="86.819104">
        <ele>4253.8</ele>
        <time>2022-10-28T03:09:14.000Z</time>
      </trkpt>
      <trkpt lat="27.888637" lon="86.819104">
        <ele>4254.4</ele>
        <time>2022-10-28T03:09:16.000Z</time>
      </trkpt>
      <trkpt lat="27.888614" lon="86.819098">
        <ele>4254</ele>
        <time>2022-10-28T03:09:18.000Z</time>
      </trkpt>
      <trkpt lat="27.888595" lon="86.819085">
        <ele>4254</ele>
        <time>2022-10-28T03:09:20.000Z</time>
      </trkpt>
      <trkpt lat="27.88857" lon="86.819078">
        <ele>4253.6</ele>
        <time>2022-10-28T03:09:22.000Z</time>
      </trkpt>
      <trkpt lat="27.88855" lon="86.819059">
        <ele>4253.6</ele>
        <time>2022-10-28T03:09:24.000Z</time>
      </trkpt>
      <trkpt lat="27.888525" lon="86.819053">
        <ele>4253.6</ele>
        <time>2022-10-28T03:09:26.000Z</time>
      </trkpt>
      <trkpt lat="27.888496" lon="86.81904">
        <ele>4253.6</ele>
        <time>2022-10-28T03:09:29.000Z</time>
      </trkpt>
      <trkpt lat="27.888467" lon="86.819021">
        <ele>4254.8</ele>
        <time>2022-10-28T03:09:32.000Z</time>
      </trkpt>
      <trkpt lat="27.888445" lon="86.819021">
        <ele>4254.8</ele>
        <time>2022-10-28T03:09:34.000Z</time>
      </trkpt>
      <trkpt lat="27.888422" lon="86.819021">
        <ele>4254.4</ele>
        <time>2022-10-28T03:09:36.000Z</time>
      </trkpt>
      <trkpt lat="27.888403" lon="86.819021">
        <ele>4254</ele>
        <time>2022-10-28T03:09:39.000Z</time>
      </trkpt>
      <trkpt lat="27.888381" lon="86.819014">
        <ele>4253.6</ele>
        <time>2022-10-28T03:09:43.000Z</time>
      </trkpt>
      <trkpt lat="27.888362" lon="86.819002">
        <ele>4254.6</ele>
        <time>2022-10-28T03:09:45.000Z</time>
      </trkpt>
      <trkpt lat="27.888342" lon="86.818995">
        <ele>4254.4</ele>
        <time>2022-10-28T03:09:48.000Z</time>
      </trkpt>
      <trkpt lat="27.88832" lon="86.818982">
        <ele>4254</ele>
        <time>2022-10-28T03:09:51.000Z</time>
      </trkpt>
      <trkpt lat="27.888294" lon="86.818982">
        <ele>4254.4</ele>
        <time>2022-10-28T03:09:54.000Z</time>
      </trkpt>
      <trkpt lat="27.888272" lon="86.818982">
        <ele>4254</ele>
        <time>2022-10-28T03:09:56.000Z</time>
      </trkpt>
      <trkpt lat="27.888253" lon="86.818982">
        <ele>4253.6</ele>
        <time>2022-10-28T03:09:58.000Z</time>
      </trkpt>
      <trkpt lat="27.88823" lon="86.818982">
        <ele>4253.6</ele>
        <time>2022-10-28T03:10:00.000Z</time>
      </trkpt>
      <trkpt lat="27.888202" lon="86.818995">
        <ele>4253.2</ele>
        <time>2022-10-28T03:10:03.000Z</time>
      </trkpt>
      <trkpt lat="27.888179" lon="86.818982">
        <ele>4253.8</ele>
        <time>2022-10-28T03:10:06.000Z</time>
      </trkpt>
      <trkpt lat="27.88816" lon="86.818982">
        <ele>4254</ele>
        <time>2022-10-28T03:10:08.000Z</time>
      </trkpt>
      <trkpt lat="27.888131" lon="86.818982">
        <ele>4253.6</ele>
        <time>2022-10-28T03:10:11.000Z</time>
      </trkpt>
      <trkpt lat="27.888109" lon="86.818982">
        <ele>4253.8</ele>
        <time>2022-10-28T03:10:14.000Z</time>
      </trkpt>
      <trkpt lat="27.888093" lon="86.81897">
        <ele>4252.2</ele>
        <time>2022-10-28T03:10:17.000Z</time>
      </trkpt>
      <trkpt lat="27.88807" lon="86.81897">
        <ele>4252.6</ele>
        <time>2022-10-28T03:10:20.000Z</time>
      </trkpt>
      <trkpt lat="27.888051" lon="86.818976">
        <ele>4252.8</ele>
        <time>2022-10-28T03:10:22.000Z</time>
      </trkpt>
      <trkpt lat="27.888032" lon="86.81897">
        <ele>4252.8</ele>
        <time>2022-10-28T03:10:24.000Z</time>
      </trkpt>
      <trkpt lat="27.888006" lon="86.818963">
        <ele>4252.8</ele>
        <time>2022-10-28T03:10:27.000Z</time>
      </trkpt>
      <trkpt lat="27.887978" lon="86.818963">
        <ele>4253</ele>
        <time>2022-10-28T03:10:30.000Z</time>
      </trkpt>
      <trkpt lat="27.887949" lon="86.818963">
        <ele>4253.2</ele>
        <time>2022-10-28T03:10:33.000Z</time>
      </trkpt>
      <trkpt lat="27.887923" lon="86.818957">
        <ele>4253.6</ele>
        <time>2022-10-28T03:10:36.000Z</time>
      </trkpt>
      <trkpt lat="27.887901" lon="86.818944">
        <ele>4253.8</ele>
        <time>2022-10-28T03:10:39.000Z</time>
      </trkpt>
      <trkpt lat="27.887878" lon="86.818938">
        <ele>4253.8</ele>
        <time>2022-10-28T03:10:42.000Z</time>
      </trkpt>
      <trkpt lat="27.887856" lon="86.818938">
        <ele>4253.2</ele>
        <time>2022-10-28T03:10:44.000Z</time>
      </trkpt>
      <trkpt lat="27.887834" lon="86.818944">
        <ele>4253.6</ele>
        <time>2022-10-28T03:10:47.000Z</time>
      </trkpt>
      <trkpt lat="27.887808" lon="86.818957">
        <ele>4253.2</ele>
        <time>2022-10-28T03:10:50.000Z</time>
      </trkpt>
      <trkpt lat="27.887782" lon="86.818957">
        <ele>4252.8</ele>
        <time>2022-10-28T03:10:53.000Z</time>
      </trkpt>
      <trkpt lat="27.887763" lon="86.818963">
        <ele>4252</ele>
        <time>2022-10-28T03:10:55.000Z</time>
      </trkpt>
      <trkpt lat="27.887744" lon="86.818963">
        <ele>4251.8</ele>
        <time>2022-10-28T03:10:57.000Z</time>
      </trkpt>
      <trkpt lat="27.887725" lon="86.818944">
        <ele>4251.8</ele>
        <time>2022-10-28T03:10:59.000Z</time>
      </trkpt>
      <trkpt lat="27.887706" lon="86.818944">
        <ele>4252.8</ele>
        <time>2022-10-28T03:11:01.000Z</time>
      </trkpt>
      <trkpt lat="27.887686" lon="86.818944">
        <ele>4252.8</ele>
        <time>2022-10-28T03:11:03.000Z</time>
      </trkpt>
      <trkpt lat="27.887658" lon="86.818938">
        <ele>4252.4</ele>
        <time>2022-10-28T03:11:06.000Z</time>
      </trkpt>
      <trkpt lat="27.887635" lon="86.818931">
        <ele>4252</ele>
        <time>2022-10-28T03:11:09.000Z</time>
      </trkpt>
      <trkpt lat="27.887616" lon="86.818931">
        <ele>4251.2</ele>
        <time>2022-10-28T03:11:11.000Z</time>
      </trkpt>
      <trkpt lat="27.887597" lon="86.818925">
        <ele>4252.2</ele>
        <time>2022-10-28T03:11:14.000Z</time>
      </trkpt>
      <trkpt lat="27.887549" lon="86.818906">
        <ele>4248.8</ele>
        <time>2022-10-28T03:14:16.000Z</time>
      </trkpt>
      <trkpt lat="27.88752" lon="86.818899">
        <ele>4249.8</ele>
        <time>2022-10-28T03:14:18.000Z</time>
      </trkpt>
      <trkpt lat="27.887494" lon="86.818893">
        <ele>4248.8</ele>
        <time>2022-10-28T03:14:20.000Z</time>
      </trkpt>
      <trkpt lat="27.887472" lon="86.818893">
        <ele>4248.8</ele>
        <time>2022-10-28T03:14:22.000Z</time>
      </trkpt>
      <trkpt lat="27.887446" lon="86.818886">
        <ele>4248.6</ele>
        <time>2022-10-28T03:14:24.000Z</time>
      </trkpt>
      <trkpt lat="27.887424" lon="86.818874">
        <ele>4248.6</ele>
        <time>2022-10-28T03:14:27.000Z</time>
      </trkpt>
      <trkpt lat="27.887408" lon="86.818861">
        <ele>4247.6</ele>
        <time>2022-10-28T03:14:30.000Z</time>
      </trkpt>
      <trkpt lat="27.887398" lon="86.818842">
        <ele>4246.4</ele>
        <time>2022-10-28T03:14:33.000Z</time>
      </trkpt>
      <trkpt lat="27.887386" lon="86.818822">
        <ele>4246.2</ele>
        <time>2022-10-28T03:14:35.000Z</time>
      </trkpt>
      <trkpt lat="27.88737" lon="86.81881">
        <ele>4245.8</ele>
        <time>2022-10-28T03:14:37.000Z</time>
      </trkpt>
      <trkpt lat="27.887347" lon="86.818784">
        <ele>4245.2</ele>
        <time>2022-10-28T03:14:40.000Z</time>
      </trkpt>
      <trkpt lat="27.887328" lon="86.818771">
        <ele>4245.2</ele>
        <time>2022-10-28T03:14:42.000Z</time>
      </trkpt>
      <trkpt lat="27.887309" lon="86.818746">
        <ele>4245</ele>
        <time>2022-10-28T03:14:44.000Z</time>
      </trkpt>
      <trkpt lat="27.887293" lon="86.818733">
        <ele>4244.2</ele>
        <time>2022-10-28T03:14:46.000Z</time>
      </trkpt>
      <trkpt lat="27.88727" lon="86.818707">
        <ele>4243.6</ele>
        <time>2022-10-28T03:14:49.000Z</time>
      </trkpt>
      <trkpt lat="27.887251" lon="86.818688">
        <ele>4243.6</ele>
        <time>2022-10-28T03:14:51.000Z</time>
      </trkpt>
      <trkpt lat="27.887235" lon="86.818675">
        <ele>4244</ele>
        <time>2022-10-28T03:14:53.000Z</time>
      </trkpt>
      <trkpt lat="27.887216" lon="86.818656">
        <ele>4242.4</ele>
        <time>2022-10-28T03:14:55.000Z</time>
      </trkpt>
      <trkpt lat="27.887197" lon="86.818643">
        <ele>4242.4</ele>
        <time>2022-10-28T03:14:57.000Z</time>
      </trkpt>
      <trkpt lat="27.887174" lon="86.818624">
        <ele>4243.2</ele>
        <time>2022-10-28T03:14:59.000Z</time>
      </trkpt>
      <trkpt lat="27.887139" lon="86.818598">
        <ele>4243</ele>
        <time>2022-10-28T03:15:03.000Z</time>
      </trkpt>
      <trkpt lat="27.887117" lon="86.818573">
        <ele>4243.2</ele>
        <time>2022-10-28T03:15:05.000Z</time>
      </trkpt>
      <trkpt lat="27.887091" lon="86.818541">
        <ele>4242.2</ele>
        <time>2022-10-28T03:15:08.000Z</time>
      </trkpt>
      <trkpt lat="27.887088" lon="86.818509">
        <ele>4242.2</ele>
        <time>2022-10-28T03:15:11.000Z</time>
      </trkpt>
      <trkpt lat="27.887082" lon="86.818483">
        <ele>4241.8</ele>
        <time>2022-10-28T03:15:13.000Z</time>
      </trkpt>
      <trkpt lat="27.887075" lon="86.818464">
        <ele>4241.2</ele>
        <time>2022-10-28T03:15:15.000Z</time>
      </trkpt>
      <trkpt lat="27.887056" lon="86.818451">
        <ele>4241.2</ele>
        <time>2022-10-28T03:15:19.000Z</time>
      </trkpt>
      <trkpt lat="27.887037" lon="86.818445">
        <ele>4239.6</ele>
        <time>2022-10-28T03:15:23.000Z</time>
      </trkpt>
      <trkpt lat="27.887018" lon="86.818445">
        <ele>4237.8</ele>
        <time>2022-10-28T03:15:53.000Z</time>
      </trkpt>
      <trkpt lat="27.886998" lon="86.818445">
        <ele>4237.8</ele>
        <time>2022-10-28T03:15:54.000Z</time>
      </trkpt>
      <trkpt lat="27.88697" lon="86.818426">
        <ele>4237</ele>
        <time>2022-10-28T03:15:56.000Z</time>
      </trkpt>
      <trkpt lat="27.886947" lon="86.818419">
        <ele>4236.4</ele>
        <time>2022-10-28T03:15:58.000Z</time>
      </trkpt>
      <trkpt lat="27.886931" lon="86.818406">
        <ele>4236</ele>
        <time>2022-10-28T03:15:59.000Z</time>
      </trkpt>
      <trkpt lat="27.886918" lon="86.818387">
        <ele>4235</ele>
        <time>2022-10-28T03:16:01.000Z</time>
      </trkpt>
      <trkpt lat="27.886909" lon="86.818368">
        <ele>4235.4</ele>
        <time>2022-10-28T03:16:03.000Z</time>
      </trkpt>
      <trkpt lat="27.886906" lon="86.818342">
        <ele>4235.4</ele>
        <time>2022-10-28T03:16:09.000Z</time>
      </trkpt>
      <trkpt lat="27.886899" lon="86.818323">
        <ele>4235</ele>
        <time>2022-10-28T03:16:12.000Z</time>
      </trkpt>
      <trkpt lat="27.886893" lon="86.818304">
        <ele>4235</ele>
        <time>2022-10-28T03:16:13.000Z</time>
      </trkpt>
      <trkpt lat="27.886886" lon="86.818259">
        <ele>4235.2</ele>
        <time>2022-10-28T03:16:16.000Z</time>
      </trkpt>
      <trkpt lat="27.886883" lon="86.818227">
        <ele>4234.6</ele>
        <time>2022-10-28T03:16:22.000Z</time>
      </trkpt>
      <trkpt lat="27.886851" lon="86.818221">
        <ele>4233.6</ele>
        <time>2022-10-28T03:16:53.000Z</time>
      </trkpt>
      <trkpt lat="27.886819" lon="86.818221">
        <ele>4232.6</ele>
        <time>2022-10-28T03:16:55.000Z</time>
      </trkpt>
      <trkpt lat="27.886794" lon="86.818214">
        <ele>4233</ele>
        <time>2022-10-28T03:16:57.000Z</time>
      </trkpt>
      <trkpt lat="27.886771" lon="86.818208">
        <ele>4233.6</ele>
        <time>2022-10-28T03:16:59.000Z</time>
      </trkpt>
      <trkpt lat="27.886749" lon="86.818214">
        <ele>4234</ele>
        <time>2022-10-28T03:17:01.000Z</time>
      </trkpt>
      <trkpt lat="27.88673" lon="86.818221">
        <ele>4234.4</ele>
        <time>2022-10-28T03:17:03.000Z</time>
      </trkpt>
      <trkpt lat="27.88671" lon="86.818227">
        <ele>4233.6</ele>
        <time>2022-10-28T03:17:05.000Z</time>
      </trkpt>
      <trkpt lat="27.886691" lon="86.818227">
        <ele>4234.4</ele>
        <time>2022-10-28T03:17:07.000Z</time>
      </trkpt>
      <trkpt lat="27.886672" lon="86.818227">
        <ele>4234.4</ele>
        <time>2022-10-28T03:17:09.000Z</time>
      </trkpt>
      <trkpt lat="27.88665" lon="86.818227">
        <ele>4233.8</ele>
        <time>2022-10-28T03:17:11.000Z</time>
      </trkpt>
      <trkpt lat="27.88663" lon="86.818227">
        <ele>4234.8</ele>
        <time>2022-10-28T03:17:13.000Z</time>
      </trkpt>
      <trkpt lat="27.886608" lon="86.818227">
        <ele>4233.8</ele>
        <time>2022-10-28T03:17:16.000Z</time>
      </trkpt>
      <trkpt lat="27.886592" lon="86.81824">
        <ele>4233.8</ele>
        <time>2022-10-28T03:17:18.000Z</time>
      </trkpt>
      <trkpt lat="27.886566" lon="86.818246">
        <ele>4233.8</ele>
        <time>2022-10-28T03:17:22.000Z</time>
      </trkpt>
      <trkpt lat="27.886541" lon="86.818253">
        <ele>4235.6</ele>
        <time>2022-10-28T03:17:25.000Z</time>
      </trkpt>
      <trkpt lat="27.886518" lon="86.818266">
        <ele>4234.4</ele>
        <time>2022-10-28T03:17:28.000Z</time>
      </trkpt>
      <trkpt lat="27.886496" lon="86.818278">
        <ele>4235.4</ele>
        <time>2022-10-28T03:17:32.000Z</time>
      </trkpt>
      <trkpt lat="27.886477" lon="86.818285">
        <ele>4235.4</ele>
        <time>2022-10-28T03:17:35.000Z</time>
      </trkpt>
      <trkpt lat="27.886458" lon="86.818291">
        <ele>4235.6</ele>
        <time>2022-10-28T03:17:38.000Z</time>
      </trkpt>
      <trkpt lat="27.886435" lon="86.818285">
        <ele>4236.2</ele>
        <time>2022-10-28T03:17:42.000Z</time>
      </trkpt>
      <trkpt lat="27.886416" lon="86.818291">
        <ele>4236.8</ele>
        <time>2022-10-28T03:17:46.000Z</time>
      </trkpt>
      <trkpt lat="27.88639" lon="86.818298">
        <ele>4236.4</ele>
        <time>2022-10-28T03:17:49.000Z</time>
      </trkpt>
      <trkpt lat="27.886371" lon="86.818298">
        <ele>4236.6</ele>
        <time>2022-10-28T03:17:52.000Z</time>
      </trkpt>
      <trkpt lat="27.886352" lon="86.818298">
        <ele>4236.6</ele>
        <time>2022-10-28T03:17:54.000Z</time>
      </trkpt>
      <trkpt lat="27.886333" lon="86.818304">
        <ele>4237.2</ele>
        <time>2022-10-28T03:17:57.000Z</time>
      </trkpt>
      <trkpt lat="27.886314" lon="86.818304">
        <ele>4237.2</ele>
        <time>2022-10-28T03:17:59.000Z</time>
      </trkpt>
      <trkpt lat="27.886294" lon="86.818304">
        <ele>4237.2</ele>
        <time>2022-10-28T03:18:02.000Z</time>
      </trkpt>
      <trkpt lat="27.886275" lon="86.818304">
        <ele>4237.6</ele>
        <time>2022-10-28T03:18:05.000Z</time>
      </trkpt>
      <trkpt lat="27.886253" lon="86.81831">
        <ele>4237.6</ele>
        <time>2022-10-28T03:18:13.000Z</time>
      </trkpt>
      <trkpt lat="27.886234" lon="86.81831">
        <ele>4238.2</ele>
        <time>2022-10-28T03:18:17.000Z</time>
      </trkpt>
      <trkpt lat="27.886218" lon="86.818323">
        <ele>4238.4</ele>
        <time>2022-10-28T03:18:20.000Z</time>
      </trkpt>
      <trkpt lat="27.886195" lon="86.81833">
        <ele>4238</ele>
        <time>2022-10-28T03:18:24.000Z</time>
      </trkpt>
      <trkpt lat="27.886166" lon="86.818336">
        <ele>4240.2</ele>
        <time>2022-10-28T03:19:12.000Z</time>
      </trkpt>
      <trkpt lat="27.886141" lon="86.818336">
        <ele>4239.6</ele>
        <time>2022-10-28T03:19:14.000Z</time>
      </trkpt>
      <trkpt lat="27.886115" lon="86.81833">
        <ele>4241.4</ele>
        <time>2022-10-28T03:19:16.000Z</time>
      </trkpt>
      <trkpt lat="27.88608" lon="86.81833">
        <ele>4241.4</ele>
        <time>2022-10-28T03:19:18.000Z</time>
      </trkpt>
      <trkpt lat="27.886054" lon="86.81833">
        <ele>4241.4</ele>
        <time>2022-10-28T03:19:20.000Z</time>
      </trkpt>
      <trkpt lat="27.886035" lon="86.818336">
        <ele>4242</ele>
        <time>2022-10-28T03:19:24.000Z</time>
      </trkpt>
      <trkpt lat="27.886016" lon="86.818336">
        <ele>4242.4</ele>
        <time>2022-10-28T03:19:27.000Z</time>
      </trkpt>
      <trkpt lat="27.885997" lon="86.81833">
        <ele>4241.8</ele>
        <time>2022-10-28T03:19:30.000Z</time>
      </trkpt>
      <trkpt lat="27.885974" lon="86.818323">
        <ele>4242.6</ele>
        <time>2022-10-28T03:19:34.000Z</time>
      </trkpt>
      <trkpt lat="27.885958" lon="86.81831">
        <ele>4242.8</ele>
        <time>2022-10-28T03:19:36.000Z</time>
      </trkpt>
      <trkpt lat="27.885942" lon="86.818298">
        <ele>4243.4</ele>
        <time>2022-10-28T03:19:39.000Z</time>
      </trkpt>
      <trkpt lat="27.88592" lon="86.818291">
        <ele>4244.4</ele>
        <time>2022-10-28T03:19:42.000Z</time>
      </trkpt>
      <trkpt lat="27.885894" lon="86.818291">
        <ele>4244.2</ele>
        <time>2022-10-28T03:19:45.000Z</time>
      </trkpt>
      <trkpt lat="27.885872" lon="86.818285">
        <ele>4243.6</ele>
        <time>2022-10-28T03:19:47.000Z</time>
      </trkpt>
      <trkpt lat="27.88585" lon="86.818285">
        <ele>4243.6</ele>
        <time>2022-10-28T03:19:49.000Z</time>
      </trkpt>
      <trkpt lat="27.885827" lon="86.818285">
        <ele>4242.8</ele>
        <time>2022-10-28T03:19:51.000Z</time>
      </trkpt>
      <trkpt lat="27.885805" lon="86.818285">
        <ele>4243.4</ele>
        <time>2022-10-28T03:19:54.000Z</time>
      </trkpt>
      <trkpt lat="27.885786" lon="86.818278">
        <ele>4244</ele>
        <time>2022-10-28T03:19:56.000Z</time>
      </trkpt>
      <trkpt lat="27.885776" lon="86.818259">
        <ele>4244</ele>
        <time>2022-10-28T03:19:58.000Z</time>
      </trkpt>
      <trkpt lat="27.885757" lon="86.818246">
        <ele>4243.6</ele>
        <time>2022-10-28T03:20:01.000Z</time>
      </trkpt>
      <trkpt lat="27.885747" lon="86.818227">
        <ele>4243.6</ele>
        <time>2022-10-28T03:20:03.000Z</time>
      </trkpt>
      <trkpt lat="27.885734" lon="86.818208">
        <ele>4243.6</ele>
        <time>2022-10-28T03:20:06.000Z</time>
      </trkpt>
      <trkpt lat="27.885722" lon="86.818189">
        <ele>4244</ele>
        <time>2022-10-28T03:20:09.000Z</time>
      </trkpt>
      <trkpt lat="27.885699" lon="86.818182">
        <ele>4244.6</ele>
        <time>2022-10-28T03:20:12.000Z</time>
      </trkpt>
      <trkpt lat="27.88568" lon="86.81817">
        <ele>4244.6</ele>
        <time>2022-10-28T03:20:15.000Z</time>
      </trkpt>
      <trkpt lat="27.885658" lon="86.818163">
        <ele>4245.8</ele>
        <time>2022-10-28T03:20:18.000Z</time>
      </trkpt>
      <trkpt lat="27.885635" lon="86.818163">
        <ele>4245</ele>
        <time>2022-10-28T03:20:21.000Z</time>
      </trkpt>
      <trkpt lat="27.885622" lon="86.818144">
        <ele>4245</ele>
        <time>2022-10-28T03:20:23.000Z</time>
      </trkpt>
      <trkpt lat="27.8856" lon="86.818138">
        <ele>4245</ele>
        <time>2022-10-28T03:20:26.000Z</time>
      </trkpt>
      <trkpt lat="27.885581" lon="86.818138">
        <ele>4246.2</ele>
        <time>2022-10-28T03:20:29.000Z</time>
      </trkpt>
      <trkpt lat="27.885558" lon="86.818138">
        <ele>4245.8</ele>
        <time>2022-10-28T03:20:32.000Z</time>
      </trkpt>
      <trkpt lat="27.885539" lon="86.818138">
        <ele>4246.4</ele>
        <time>2022-10-28T03:20:35.000Z</time>
      </trkpt>
      <trkpt lat="27.88552" lon="86.818138">
        <ele>4246.2</ele>
        <time>2022-10-28T03:20:38.000Z</time>
      </trkpt>
      <trkpt lat="27.885501" lon="86.818138">
        <ele>4246.8</ele>
        <time>2022-10-28T03:20:41.000Z</time>
      </trkpt>
      <trkpt lat="27.885482" lon="86.818138">
        <ele>4247.2</ele>
        <time>2022-10-28T03:20:44.000Z</time>
      </trkpt>
      <trkpt lat="27.885462" lon="86.818144">
        <ele>4247.4</ele>
        <time>2022-10-28T03:20:47.000Z</time>
      </trkpt>
      <trkpt lat="27.88544" lon="86.818138">
        <ele>4248</ele>
        <time>2022-10-28T03:20:52.000Z</time>
      </trkpt>
      <trkpt lat="27.885418" lon="86.818131">
        <ele>4248.6</ele>
        <time>2022-10-28T03:20:56.000Z</time>
      </trkpt>
      <trkpt lat="27.885398" lon="86.818125">
        <ele>4250</ele>
        <time>2022-10-28T03:21:00.000Z</time>
      </trkpt>
      <trkpt lat="27.885376" lon="86.818118">
        <ele>4249.6</ele>
        <time>2022-10-28T03:21:04.000Z</time>
      </trkpt>
      <trkpt lat="27.88536" lon="86.818106">
        <ele>4250.6</ele>
        <time>2022-10-28T03:21:07.000Z</time>
      </trkpt>
      <trkpt lat="27.885341" lon="86.818099">
        <ele>4250</ele>
        <time>2022-10-28T03:21:10.000Z</time>
      </trkpt>
      <trkpt lat="27.885322" lon="86.818093">
        <ele>4250.6</ele>
        <time>2022-10-28T03:21:13.000Z</time>
      </trkpt>
      <trkpt lat="27.885302" lon="86.818086">
        <ele>4251.4</ele>
        <time>2022-10-28T03:21:17.000Z</time>
      </trkpt>
      <trkpt lat="27.885283" lon="86.818093">
        <ele>4251.2</ele>
        <time>2022-10-28T03:21:25.000Z</time>
      </trkpt>
      <trkpt lat="27.885261" lon="86.818093">
        <ele>4251.4</ele>
        <time>2022-10-28T03:21:28.000Z</time>
      </trkpt>
      <trkpt lat="27.885242" lon="86.818093">
        <ele>4251.4</ele>
        <time>2022-10-28T03:21:30.000Z</time>
      </trkpt>
      <trkpt lat="27.885219" lon="86.818086">
        <ele>4251.2</ele>
        <time>2022-10-28T03:21:34.000Z</time>
      </trkpt>
      <trkpt lat="27.885194" lon="86.818093">
        <ele>4252.4</ele>
        <time>2022-10-28T03:21:38.000Z</time>
      </trkpt>
      <trkpt lat="27.885174" lon="86.818093">
        <ele>4253</ele>
        <time>2022-10-28T03:21:41.000Z</time>
      </trkpt>
      <trkpt lat="27.885155" lon="86.818086">
        <ele>4252.4</ele>
        <time>2022-10-28T03:21:44.000Z</time>
      </trkpt>
      <trkpt lat="27.885136" lon="86.81808">
        <ele>4253.8</ele>
        <time>2022-10-28T03:21:48.000Z</time>
      </trkpt>
      <trkpt lat="27.885114" lon="86.818086">
        <ele>4254.2</ele>
        <time>2022-10-28T03:21:51.000Z</time>
      </trkpt>
      <trkpt lat="27.885091" lon="86.818086">
        <ele>4254.2</ele>
        <time>2022-10-28T03:21:55.000Z</time>
      </trkpt>
      <trkpt lat="27.885072" lon="86.81808">
        <ele>4254.8</ele>
        <time>2022-10-28T03:21:59.000Z</time>
      </trkpt>
      <trkpt lat="27.885053" lon="86.81808">
        <ele>4255.8</ele>
        <time>2022-10-28T03:22:03.000Z</time>
      </trkpt>
      <trkpt lat="27.885034" lon="86.81808">
        <ele>4256.4</ele>
        <time>2022-10-28T03:22:07.000Z</time>
      </trkpt>
      <trkpt lat="27.885014" lon="86.81808">
        <ele>4257.2</ele>
        <time>2022-10-28T03:22:11.000Z</time>
      </trkpt>
      <trkpt lat="27.884995" lon="86.818067">
        <ele>4257.4</ele>
        <time>2022-10-28T03:22:14.000Z</time>
      </trkpt>
      <trkpt lat="27.884979" lon="86.81808">
        <ele>4257.8</ele>
        <time>2022-10-28T03:22:18.000Z</time>
      </trkpt>
      <trkpt lat="27.884954" lon="86.818086">
        <ele>4258.4</ele>
        <time>2022-10-28T03:22:22.000Z</time>
      </trkpt>
      <trkpt lat="27.884934" lon="86.818086">
        <ele>4258.6</ele>
        <time>2022-10-28T03:22:26.000Z</time>
      </trkpt>
      <trkpt lat="27.884915" lon="86.818067">
        <ele>4259.2</ele>
        <time>2022-10-28T03:22:30.000Z</time>
      </trkpt>
      <trkpt lat="27.884893" lon="86.818067">
        <ele>4259.4</ele>
        <time>2022-10-28T03:22:34.000Z</time>
      </trkpt>
      <trkpt lat="27.884874" lon="86.818067">
        <ele>4260.8</ele>
        <time>2022-10-28T03:22:38.000Z</time>
      </trkpt>
      <trkpt lat="27.884858" lon="86.81808">
        <ele>4261.2</ele>
        <time>2022-10-28T03:22:41.000Z</time>
      </trkpt>
      <trkpt lat="27.884835" lon="86.81808">
        <ele>4262</ele>
        <time>2022-10-28T03:22:45.000Z</time>
      </trkpt>
      <trkpt lat="27.884816" lon="86.818067">
        <ele>4262</ele>
        <time>2022-10-28T03:22:49.000Z</time>
      </trkpt>
      <trkpt lat="27.884797" lon="86.818061">
        <ele>4263</ele>
        <time>2022-10-28T03:22:54.000Z</time>
      </trkpt>
      <trkpt lat="27.884778" lon="86.818067">
        <ele>4263.4</ele>
        <time>2022-10-28T03:22:58.000Z</time>
      </trkpt>
      <trkpt lat="27.884762" lon="86.81808">
        <ele>4265.2</ele>
        <time>2022-10-28T03:23:02.000Z</time>
      </trkpt>
      <trkpt lat="27.884746" lon="86.818067">
        <ele>4264.6</ele>
        <time>2022-10-28T03:23:06.000Z</time>
      </trkpt>
      <trkpt lat="27.884726" lon="86.818061">
        <ele>4265.2</ele>
        <time>2022-10-28T03:23:09.000Z</time>
      </trkpt>
      <trkpt lat="27.884717" lon="86.818042">
        <ele>4265.6</ele>
        <time>2022-10-28T03:23:13.000Z</time>
      </trkpt>
      <trkpt lat="27.88471" lon="86.818022">
        <ele>4265.2</ele>
        <time>2022-10-28T03:23:16.000Z</time>
      </trkpt>
      <trkpt lat="27.884694" lon="86.818003">
        <ele>4266</ele>
        <time>2022-10-28T03:23:21.000Z</time>
      </trkpt>
      <trkpt lat="27.884678" lon="86.817984">
        <ele>4266.2</ele>
        <time>2022-10-28T03:23:26.000Z</time>
      </trkpt>
      <trkpt lat="27.884662" lon="86.817971">
        <ele>4266.4</ele>
        <time>2022-10-28T03:23:31.000Z</time>
      </trkpt>
      <trkpt lat="27.88465" lon="86.817952">
        <ele>4266.2</ele>
        <time>2022-10-28T03:23:35.000Z</time>
      </trkpt>
      <trkpt lat="27.884637" lon="86.817933">
        <ele>4268.2</ele>
        <time>2022-10-28T03:23:41.000Z</time>
      </trkpt>
      <trkpt lat="27.884624" lon="86.817907">
        <ele>4269.4</ele>
        <time>2022-10-28T03:23:48.000Z</time>
      </trkpt>
      <trkpt lat="27.884608" lon="86.817888">
        <ele>4268.8</ele>
        <time>2022-10-28T03:23:54.000Z</time>
      </trkpt>
      <trkpt lat="27.884589" lon="86.817869">
        <ele>4269.8</ele>
        <time>2022-10-28T03:23:59.000Z</time>
      </trkpt>
      <trkpt lat="27.88457" lon="86.817869">
        <ele>4269.8</ele>
        <time>2022-10-28T03:24:03.000Z</time>
      </trkpt>
      <trkpt lat="27.88455" lon="86.817856">
        <ele>4270.4</ele>
        <time>2022-10-28T03:24:08.000Z</time>
      </trkpt>
      <trkpt lat="27.884534" lon="86.817843">
        <ele>4271.6</ele>
        <time>2022-10-28T03:24:16.000Z</time>
      </trkpt>
      <trkpt lat="27.884518" lon="86.81783">
        <ele>4271.6</ele>
        <time>2022-10-28T03:24:19.000Z</time>
      </trkpt>
      <trkpt lat="27.884499" lon="86.817824">
        <ele>4271.6</ele>
        <time>2022-10-28T03:24:23.000Z</time>
      </trkpt>
      <trkpt lat="27.88448" lon="86.817818">
        <ele>4273</ele>
        <time>2022-10-28T03:24:26.000Z</time>
      </trkpt>
      <trkpt lat="27.88447" lon="86.817792">
        <ele>4273.2</ele>
        <time>2022-10-28T03:24:29.000Z</time>
      </trkpt>
      <trkpt lat="27.884464" lon="86.817773">
        <ele>4271.8</ele>
        <time>2022-10-28T03:24:32.000Z</time>
      </trkpt>
      <trkpt lat="27.884458" lon="86.817747">
        <ele>4272.4</ele>
        <time>2022-10-28T03:24:34.000Z</time>
      </trkpt>
      <trkpt lat="27.884448" lon="86.817728">
        <ele>4272.8</ele>
        <time>2022-10-28T03:24:38.000Z</time>
      </trkpt>
      <trkpt lat="27.884438" lon="86.817709">
        <ele>4273.6</ele>
        <time>2022-10-28T03:24:40.000Z</time>
      </trkpt>
      <trkpt lat="27.884426" lon="86.81769">
        <ele>4273.2</ele>
        <time>2022-10-28T03:24:44.000Z</time>
      </trkpt>
      <trkpt lat="27.884419" lon="86.81767">
        <ele>4274.6</ele>
        <time>2022-10-28T03:24:47.000Z</time>
      </trkpt>
      <trkpt lat="27.8844" lon="86.817651">
        <ele>4274.8</ele>
        <time>2022-10-28T03:24:52.000Z</time>
      </trkpt>
      <trkpt lat="27.884381" lon="86.817632">
        <ele>4274.8</ele>
        <time>2022-10-28T03:24:56.000Z</time>
      </trkpt>
      <trkpt lat="27.884349" lon="86.817606">
        <ele>4276</ele>
        <time>2022-10-28T03:25:07.000Z</time>
      </trkpt>
      <trkpt lat="27.884333" lon="86.817594">
        <ele>4277.2</ele>
        <time>2022-10-28T03:25:11.000Z</time>
      </trkpt>
      <trkpt lat="27.884317" lon="86.817581">
        <ele>4277.6</ele>
        <time>2022-10-28T03:25:16.000Z</time>
      </trkpt>
      <trkpt lat="27.884298" lon="86.817568">
        <ele>4278</ele>
        <time>2022-10-28T03:25:21.000Z</time>
      </trkpt>
      <trkpt lat="27.884291" lon="86.817549">
        <ele>4278.2</ele>
        <time>2022-10-28T03:25:24.000Z</time>
      </trkpt>
      <trkpt lat="27.884278" lon="86.81753">
        <ele>4279</ele>
        <time>2022-10-28T03:25:29.000Z</time>
      </trkpt>
      <trkpt lat="27.884262" lon="86.81751">
        <ele>4279.2</ele>
        <time>2022-10-28T03:25:33.000Z</time>
      </trkpt>
      <trkpt lat="27.884246" lon="86.817491">
        <ele>4280</ele>
        <time>2022-10-28T03:25:38.000Z</time>
      </trkpt>
      <trkpt lat="27.884227" lon="86.817472">
        <ele>4279.8</ele>
        <time>2022-10-28T03:25:42.000Z</time>
      </trkpt>
      <trkpt lat="27.884218" lon="86.817453">
        <ele>4280.8</ele>
        <time>2022-10-28T03:25:45.000Z</time>
      </trkpt>
      <trkpt lat="27.884198" lon="86.817446">
        <ele>4279.4</ele>
        <time>2022-10-28T03:25:48.000Z</time>
      </trkpt>
      <trkpt lat="27.884189" lon="86.817427">
        <ele>4280</ele>
        <time>2022-10-28T03:25:51.000Z</time>
      </trkpt>
      <trkpt lat="27.88417" lon="86.817414">
        <ele>4281.8</ele>
        <time>2022-10-28T03:26:12.000Z</time>
      </trkpt>
      <trkpt lat="27.88415" lon="86.817395">
        <ele>4280.8</ele>
        <time>2022-10-28T03:26:14.000Z</time>
      </trkpt>
      <trkpt lat="27.884128" lon="86.817389">
        <ele>4281</ele>
        <time>2022-10-28T03:26:16.000Z</time>
      </trkpt>
      <trkpt lat="27.884102" lon="86.817376">
        <ele>4281.6</ele>
        <time>2022-10-28T03:26:19.000Z</time>
      </trkpt>
      <trkpt lat="27.88408" lon="86.81737">
        <ele>4281.2</ele>
        <time>2022-10-28T03:26:22.000Z</time>
      </trkpt>
      <trkpt lat="27.884061" lon="86.817357">
        <ele>4281.2</ele>
        <time>2022-10-28T03:26:24.000Z</time>
      </trkpt>
      <trkpt lat="27.884042" lon="86.81735">
        <ele>4280.8</ele>
        <time>2022-10-28T03:26:27.000Z</time>
      </trkpt>
      <trkpt lat="27.884013" lon="86.817338">
        <ele>4280.8</ele>
        <time>2022-10-28T03:26:30.000Z</time>
      </trkpt>
      <trkpt lat="27.883994" lon="86.817325">
        <ele>4281.6</ele>
        <time>2022-10-28T03:26:33.000Z</time>
      </trkpt>
      <trkpt lat="27.883978" lon="86.817306">
        <ele>4281.8</ele>
        <time>2022-10-28T03:26:36.000Z</time>
      </trkpt>
      <trkpt lat="27.883962" lon="86.817293">
        <ele>4281.8</ele>
        <time>2022-10-28T03:26:38.000Z</time>
      </trkpt>
      <trkpt lat="27.883939" lon="86.817274">
        <ele>4282</ele>
        <time>2022-10-28T03:26:42.000Z</time>
      </trkpt>
      <trkpt lat="27.883923" lon="86.817261">
        <ele>4282</ele>
        <time>2022-10-28T03:26:45.000Z</time>
      </trkpt>
      <trkpt lat="27.883907" lon="86.817248">
        <ele>4282.2</ele>
        <time>2022-10-28T03:26:47.000Z</time>
      </trkpt>
      <trkpt lat="27.883891" lon="86.817229">
        <ele>4282.8</ele>
        <time>2022-10-28T03:26:50.000Z</time>
      </trkpt>
      <trkpt lat="27.883875" lon="86.817216">
        <ele>4283</ele>
        <time>2022-10-28T03:26:53.000Z</time>
      </trkpt>
      <trkpt lat="27.883856" lon="86.817197">
        <ele>4282.8</ele>
        <time>2022-10-28T03:26:57.000Z</time>
      </trkpt>
      <trkpt lat="27.883834" lon="86.81719">
        <ele>4284</ele>
        <time>2022-10-28T03:27:01.000Z</time>
      </trkpt>
      <trkpt lat="27.883814" lon="86.817178">
        <ele>4284</ele>
        <time>2022-10-28T03:27:04.000Z</time>
      </trkpt>
      <trkpt lat="27.883795" lon="86.817171">
        <ele>4283.8</ele>
        <time>2022-10-28T03:27:06.000Z</time>
      </trkpt>
      <trkpt lat="27.883782" lon="86.817152">
        <ele>4284.2</ele>
        <time>2022-10-28T03:27:08.000Z</time>
      </trkpt>
      <trkpt lat="27.883763" lon="86.817139">
        <ele>4284.2</ele>
        <time>2022-10-28T03:27:11.000Z</time>
      </trkpt>
      <trkpt lat="27.883741" lon="86.817126">
        <ele>4284.8</ele>
        <time>2022-10-28T03:27:46.000Z</time>
      </trkpt>
      <trkpt lat="27.883728" lon="86.817107">
        <ele>4284.8</ele>
        <time>2022-10-28T03:27:47.000Z</time>
      </trkpt>
      <trkpt lat="27.883706" lon="86.817094">
        <ele>4284</ele>
        <time>2022-10-28T03:27:49.000Z</time>
      </trkpt>
      <trkpt lat="27.883696" lon="86.817075">
        <ele>4284.8</ele>
        <time>2022-10-28T03:27:50.000Z</time>
      </trkpt>
      <trkpt lat="27.88367" lon="86.817062">
        <ele>4285</ele>
        <time>2022-10-28T03:27:52.000Z</time>
      </trkpt>
      <trkpt lat="27.883648" lon="86.817037">
        <ele>4285</ele>
        <time>2022-10-28T03:27:54.000Z</time>
      </trkpt>
      <trkpt lat="27.883632" lon="86.817024">
        <ele>4285.2</ele>
        <time>2022-10-28T03:27:56.000Z</time>
      </trkpt>
      <trkpt lat="27.883613" lon="86.816998">
        <ele>4285.6</ele>
        <time>2022-10-28T03:27:59.000Z</time>
      </trkpt>
      <trkpt lat="27.8836" lon="86.816979">
        <ele>4285.2</ele>
        <time>2022-10-28T03:28:02.000Z</time>
      </trkpt>
      <trkpt lat="27.883594" lon="86.81696">
        <ele>4285</ele>
        <time>2022-10-28T03:28:04.000Z</time>
      </trkpt>
      <trkpt lat="27.883574" lon="86.816954">
        <ele>4286</ele>
        <time>2022-10-28T03:28:07.000Z</time>
      </trkpt>
      <trkpt lat="27.883555" lon="86.816947">
        <ele>4285.6</ele>
        <time>2022-10-28T03:28:10.000Z</time>
      </trkpt>
      <trkpt lat="27.883536" lon="86.816941">
        <ele>4286.2</ele>
        <time>2022-10-28T03:28:14.000Z</time>
      </trkpt>
      <trkpt lat="27.883514" lon="86.816941">
        <ele>4287.4</ele>
        <time>2022-10-28T03:28:20.000Z</time>
      </trkpt>
      <trkpt lat="27.883494" lon="86.816941">
        <ele>4287.4</ele>
        <time>2022-10-28T03:28:23.000Z</time>
      </trkpt>
      <trkpt lat="27.883475" lon="86.816934">
        <ele>4287.6</ele>
        <time>2022-10-28T03:28:26.000Z</time>
      </trkpt>
      <trkpt lat="27.883469" lon="86.816915">
        <ele>4287.4</ele>
        <time>2022-10-28T03:28:28.000Z</time>
      </trkpt>
      <trkpt lat="27.883453" lon="86.816896">
        <ele>4287.6</ele>
        <time>2022-10-28T03:28:31.000Z</time>
      </trkpt>
      <trkpt lat="27.88344" lon="86.816877">
        <ele>4287.6</ele>
        <time>2022-10-28T03:28:34.000Z</time>
      </trkpt>
      <trkpt lat="27.883434" lon="86.816858">
        <ele>4288</ele>
        <time>2022-10-28T03:28:37.000Z</time>
      </trkpt>
      <trkpt lat="27.883427" lon="86.816838">
        <ele>4288.4</ele>
        <time>2022-10-28T03:28:38.000Z</time>
      </trkpt>
      <trkpt lat="27.883424" lon="86.816813">
        <ele>4288.6</ele>
        <time>2022-10-28T03:28:43.000Z</time>
      </trkpt>
      <trkpt lat="27.883424" lon="86.816787">
        <ele>4288.8</ele>
        <time>2022-10-28T03:28:46.000Z</time>
      </trkpt>
      <trkpt lat="27.883421" lon="86.816755">
        <ele>4289.8</ele>
        <time>2022-10-28T03:28:49.000Z</time>
      </trkpt>
      <trkpt lat="27.883414" lon="86.81673">
        <ele>4289.8</ele>
        <time>2022-10-28T03:28:53.000Z</time>
      </trkpt>
      <trkpt lat="27.883398" lon="86.81671">
        <ele>4290.4</ele>
        <time>2022-10-28T03:28:56.000Z</time>
      </trkpt>
      <trkpt lat="27.883382" lon="86.816698">
        <ele>4290.2</ele>
        <time>2022-10-28T03:28:59.000Z</time>
      </trkpt>
      <trkpt lat="27.883363" lon="86.816678">
        <ele>4289.2</ele>
        <time>2022-10-28T03:29:03.000Z</time>
      </trkpt>
      <trkpt lat="27.883347" lon="86.816659">
        <ele>4289.6</ele>
        <time>2022-10-28T03:29:06.000Z</time>
      </trkpt>
      <trkpt lat="27.883331" lon="86.81664">
        <ele>4291</ele>
        <time>2022-10-28T03:29:16.000Z</time>
      </trkpt>
      <trkpt lat="27.883309" lon="86.816627">
        <ele>4290.6</ele>
        <time>2022-10-28T03:29:19.000Z</time>
      </trkpt>
      <trkpt lat="27.883283" lon="86.816614">
        <ele>4290.6</ele>
        <time>2022-10-28T03:29:22.000Z</time>
      </trkpt>
      <trkpt lat="27.883264" lon="86.816595">
        <ele>4290.2</ele>
        <time>2022-10-28T03:29:24.000Z</time>
      </trkpt>
      <trkpt lat="27.883248" lon="86.816582">
        <ele>4290.2</ele>
        <time>2022-10-28T03:29:27.000Z</time>
      </trkpt>
      <trkpt lat="27.883229" lon="86.816576">
        <ele>4290.6</ele>
        <time>2022-10-28T03:29:29.000Z</time>
      </trkpt>
      <trkpt lat="27.88321" lon="86.81657">
        <ele>4291</ele>
        <time>2022-10-28T03:29:31.000Z</time>
      </trkpt>
      <trkpt lat="27.883194" lon="86.816557">
        <ele>4291.4</ele>
        <time>2022-10-28T03:29:33.000Z</time>
      </trkpt>
      <trkpt lat="27.883181" lon="86.816531">
        <ele>4291.2</ele>
        <time>2022-10-28T03:29:36.000Z</time>
      </trkpt>
      <trkpt lat="27.883184" lon="86.816506">
        <ele>4291.2</ele>
        <time>2022-10-28T03:29:39.000Z</time>
      </trkpt>
      <trkpt lat="27.883178" lon="86.81648">
        <ele>4291</ele>
        <time>2022-10-28T03:29:49.000Z</time>
      </trkpt>
      <trkpt lat="27.883178" lon="86.816454">
        <ele>4290.2</ele>
        <time>2022-10-28T03:29:53.000Z</time>
      </trkpt>
      <trkpt lat="27.883165" lon="86.816435">
        <ele>4289.2</ele>
        <time>2022-10-28T03:30:37.000Z</time>
      </trkpt>
      <trkpt lat="27.883142" lon="86.816416">
        <ele>4288.2</ele>
        <time>2022-10-28T03:30:39.000Z</time>
      </trkpt>
      <trkpt lat="27.883117" lon="86.816384">
        <ele>4287.4</ele>
        <time>2022-10-28T03:30:44.000Z</time>
      </trkpt>
      <trkpt lat="27.883104" lon="86.816352">
        <ele>4285.2</ele>
        <time>2022-10-28T03:31:41.000Z</time>
      </trkpt>
      <trkpt lat="27.883098" lon="86.81632">
        <ele>4284.6</ele>
        <time>2022-10-28T03:31:43.000Z</time>
      </trkpt>
      <trkpt lat="27.883085" lon="86.816301">
        <ele>4284.6</ele>
        <time>2022-10-28T03:31:45.000Z</time>
      </trkpt>
      <trkpt lat="27.883075" lon="86.816282">
        <ele>4284.4</ele>
        <time>2022-10-28T03:31:46.000Z</time>
      </trkpt>
      <trkpt lat="27.883056" lon="86.816256">
        <ele>4284</ele>
        <time>2022-10-28T03:31:48.000Z</time>
      </trkpt>
      <trkpt lat="27.88305" lon="86.816237">
        <ele>4283.4</ele>
        <time>2022-10-28T03:31:49.000Z</time>
      </trkpt>
      <trkpt lat="27.883043" lon="86.816205">
        <ele>4283.2</ele>
        <time>2022-10-28T03:31:52.000Z</time>
      </trkpt>
      <trkpt lat="27.883037" lon="86.816186">
        <ele>4282.2</ele>
        <time>2022-10-28T03:31:56.000Z</time>
      </trkpt>
      <trkpt lat="27.883011" lon="86.816186">
        <ele>4282.4</ele>
        <time>2022-10-28T03:32:02.000Z</time>
      </trkpt>
      <trkpt lat="27.882989" lon="86.816198">
        <ele>4281.4</ele>
        <time>2022-10-28T03:32:05.000Z</time>
      </trkpt>
      <trkpt lat="27.882966" lon="86.816218">
        <ele>4281</ele>
        <time>2022-10-28T03:32:08.000Z</time>
      </trkpt>
      <trkpt lat="27.88295" lon="86.81623">
        <ele>4280.6</ele>
        <time>2022-10-28T03:32:10.000Z</time>
      </trkpt>
      <trkpt lat="27.882934" lon="86.816243">
        <ele>4280.4</ele>
        <time>2022-10-28T03:32:12.000Z</time>
      </trkpt>
      <trkpt lat="27.882918" lon="86.816256">
        <ele>4279.8</ele>
        <time>2022-10-28T03:32:14.000Z</time>
      </trkpt>
      <trkpt lat="27.882896" lon="86.816262">
        <ele>4279.2</ele>
        <time>2022-10-28T03:32:17.000Z</time>
      </trkpt>
      <trkpt lat="27.882877" lon="86.816269">
        <ele>4279</ele>
        <time>2022-10-28T03:32:19.000Z</time>
      </trkpt>
      <trkpt lat="27.882851" lon="86.816269">
        <ele>4278.8</ele>
        <time>2022-10-28T03:32:21.000Z</time>
      </trkpt>
      <trkpt lat="27.882826" lon="86.816269">
        <ele>4277.8</ele>
        <time>2022-10-28T03:32:24.000Z</time>
      </trkpt>
      <trkpt lat="27.882806" lon="86.816269">
        <ele>4277</ele>
        <time>2022-10-28T03:32:26.000Z</time>
      </trkpt>
      <trkpt lat="27.882787" lon="86.816275">
        <ele>4276.8</ele>
        <time>2022-10-28T03:32:28.000Z</time>
      </trkpt>
      <trkpt lat="27.882765" lon="86.816269">
        <ele>4276.8</ele>
        <time>2022-10-28T03:32:30.000Z</time>
      </trkpt>
      <trkpt lat="27.882746" lon="86.816269">
        <ele>4276.2</ele>
        <time>2022-10-28T03:32:32.000Z</time>
      </trkpt>
      <trkpt lat="27.882723" lon="86.816262">
        <ele>4276</ele>
        <time>2022-10-28T03:32:34.000Z</time>
      </trkpt>
      <trkpt lat="27.882704" lon="86.816256">
        <ele>4276.2</ele>
        <time>2022-10-28T03:32:36.000Z</time>
      </trkpt>
      <trkpt lat="27.882682" lon="86.816243">
        <ele>4276.2</ele>
        <time>2022-10-28T03:32:39.000Z</time>
      </trkpt>
      <trkpt lat="27.882659" lon="86.816224">
        <ele>4275.2</ele>
        <time>2022-10-28T03:32:42.000Z</time>
      </trkpt>
      <trkpt lat="27.882653" lon="86.816205">
        <ele>4274.8</ele>
        <time>2022-10-28T03:32:44.000Z</time>
      </trkpt>
      <trkpt lat="27.882637" lon="86.816192">
        <ele>4274.6</ele>
        <time>2022-10-28T03:32:46.000Z</time>
      </trkpt>
      <trkpt lat="27.882621" lon="86.816173">
        <ele>4273.6</ele>
        <time>2022-10-28T03:32:48.000Z</time>
      </trkpt>
      <trkpt lat="27.882608" lon="86.816154">
        <ele>4273.4</ele>
        <time>2022-10-28T03:32:50.000Z</time>
      </trkpt>
      <trkpt lat="27.882589" lon="86.816134">
        <ele>4272.8</ele>
        <time>2022-10-28T03:32:53.000Z</time>
      </trkpt>
      <trkpt lat="27.88257" lon="86.816115">
        <ele>4272.4</ele>
        <time>2022-10-28T03:32:55.000Z</time>
      </trkpt>
      <trkpt lat="27.88255" lon="86.816109">
        <ele>4271.6</ele>
        <time>2022-10-28T03:32:57.000Z</time>
      </trkpt>
      <trkpt lat="27.882531" lon="86.816083">
        <ele>4271</ele>
        <time>2022-10-28T03:33:00.000Z</time>
      </trkpt>
      <trkpt lat="27.882512" lon="86.816064">
        <ele>4270.8</ele>
        <time>2022-10-28T03:33:02.000Z</time>
      </trkpt>
      <trkpt lat="27.882499" lon="86.816045">
        <ele>4270.2</ele>
        <time>2022-10-28T03:33:04.000Z</time>
      </trkpt>
      <trkpt lat="27.882483" lon="86.816032">
        <ele>4269.4</ele>
        <time>2022-10-28T03:33:07.000Z</time>
      </trkpt>
      <trkpt lat="27.882464" lon="86.816026">
        <ele>4269</ele>
        <time>2022-10-28T03:33:09.000Z</time>
      </trkpt>
      <trkpt lat="27.882442" lon="86.816019">
        <ele>4268.4</ele>
        <time>2022-10-28T03:33:12.000Z</time>
      </trkpt>
      <trkpt lat="27.882422" lon="86.816">
        <ele>4268</ele>
        <time>2022-10-28T03:33:15.000Z</time>
      </trkpt>
      <trkpt lat="27.882403" lon="86.815987">
        <ele>4267</ele>
        <time>2022-10-28T03:33:20.000Z</time>
      </trkpt>
      <trkpt lat="27.882384" lon="86.815974">
        <ele>4266.6</ele>
        <time>2022-10-28T03:33:23.000Z</time>
      </trkpt>
      <trkpt lat="27.882365" lon="86.815955">
        <ele>4265.8</ele>
        <time>2022-10-28T03:33:26.000Z</time>
      </trkpt>
      <trkpt lat="27.882346" lon="86.815942">
        <ele>4265</ele>
        <time>2022-10-28T03:33:29.000Z</time>
      </trkpt>
      <trkpt lat="27.882326" lon="86.815936">
        <ele>4264.4</ele>
        <time>2022-10-28T03:33:32.000Z</time>
      </trkpt>
      <trkpt lat="27.882301" lon="86.815936">
        <ele>4263.8</ele>
        <time>2022-10-28T03:33:35.000Z</time>
      </trkpt>
      <trkpt lat="27.882285" lon="86.815923">
        <ele>4263.2</ele>
        <time>2022-10-28T03:33:37.000Z</time>
      </trkpt>
      <trkpt lat="27.882269" lon="86.81591">
        <ele>4262.8</ele>
        <time>2022-10-28T03:33:40.000Z</time>
      </trkpt>
      <trkpt lat="27.882246" lon="86.815904">
        <ele>4262.2</ele>
        <time>2022-10-28T03:33:43.000Z</time>
      </trkpt>
      <trkpt lat="27.882218" lon="86.815898">
        <ele>4261.8</ele>
        <time>2022-10-28T03:33:46.000Z</time>
      </trkpt>
      <trkpt lat="27.882205" lon="86.815878">
        <ele>4261.4</ele>
        <time>2022-10-28T03:33:48.000Z</time>
      </trkpt>
      <trkpt lat="27.882189" lon="86.815859">
        <ele>4260.4</ele>
        <time>2022-10-28T03:33:51.000Z</time>
      </trkpt>
      <trkpt lat="27.882173" lon="86.81584">
        <ele>4260</ele>
        <time>2022-10-28T03:33:53.000Z</time>
      </trkpt>
      <trkpt lat="27.882147" lon="86.815827">
        <ele>4259.4</ele>
        <time>2022-10-28T03:33:56.000Z</time>
      </trkpt>
      <trkpt lat="27.882141" lon="86.815808">
        <ele>4258.4</ele>
        <time>2022-10-28T03:33:58.000Z</time>
      </trkpt>
      <trkpt lat="27.882122" lon="86.815808">
        <ele>4258.4</ele>
        <time>2022-10-28T03:34:06.000Z</time>
      </trkpt>
      <trkpt lat="27.882099" lon="86.815802">
        <ele>4258.2</ele>
        <time>2022-10-28T03:34:09.000Z</time>
      </trkpt>
      <trkpt lat="27.882077" lon="86.815789">
        <ele>4257.6</ele>
        <time>2022-10-28T03:34:12.000Z</time>
      </trkpt>
      <trkpt lat="27.882058" lon="86.815782">
        <ele>4257.4</ele>
        <time>2022-10-28T03:34:14.000Z</time>
      </trkpt>
      <trkpt lat="27.882042" lon="86.815763">
        <ele>4256.8</ele>
        <time>2022-10-28T03:34:17.000Z</time>
      </trkpt>
      <trkpt lat="27.882026" lon="86.81575">
        <ele>4255.8</ele>
        <time>2022-10-28T03:34:20.000Z</time>
      </trkpt>
      <trkpt lat="27.882006" lon="86.815725">
        <ele>4255.4</ele>
        <time>2022-10-28T03:34:23.000Z</time>
      </trkpt>
      <trkpt lat="27.881987" lon="86.815706">
        <ele>4254.4</ele>
        <time>2022-10-28T03:34:27.000Z</time>
      </trkpt>
      <trkpt lat="27.881981" lon="86.815686">
        <ele>4254</ele>
        <time>2022-10-28T03:34:29.000Z</time>
      </trkpt>
      <trkpt lat="27.881965" lon="86.815674">
        <ele>4253.8</ele>
        <time>2022-10-28T03:34:31.000Z</time>
      </trkpt>
      <trkpt lat="27.881946" lon="86.815661">
        <ele>4252.8</ele>
        <time>2022-10-28T03:34:34.000Z</time>
      </trkpt>
      <trkpt lat="27.881923" lon="86.815661">
        <ele>4252.2</ele>
        <time>2022-10-28T03:34:37.000Z</time>
      </trkpt>
      <trkpt lat="27.881914" lon="86.815642">
        <ele>4252.2</ele>
        <time>2022-10-28T03:34:39.000Z</time>
      </trkpt>
      <trkpt lat="27.881914" lon="86.81561">
        <ele>4251.6</ele>
        <time>2022-10-28T03:34:42.000Z</time>
      </trkpt>
      <trkpt lat="27.881894" lon="86.81559">
        <ele>4250.8</ele>
        <time>2022-10-28T03:34:45.000Z</time>
      </trkpt>
      <trkpt lat="27.881875" lon="86.815584">
        <ele>4250.8</ele>
        <time>2022-10-28T03:34:47.000Z</time>
      </trkpt>
      <trkpt lat="27.881862" lon="86.815565">
        <ele>4250</ele>
        <time>2022-10-28T03:34:49.000Z</time>
      </trkpt>
      <trkpt lat="27.881846" lon="86.815539">
        <ele>4249.8</ele>
        <time>2022-10-28T03:34:52.000Z</time>
      </trkpt>
      <trkpt lat="27.881837" lon="86.81552">
        <ele>4249.2</ele>
        <time>2022-10-28T03:34:54.000Z</time>
      </trkpt>
      <trkpt lat="27.881827" lon="86.815488">
        <ele>4249.2</ele>
        <time>2022-10-28T03:34:57.000Z</time>
      </trkpt>
      <trkpt lat="27.881814" lon="86.815469">
        <ele>4248.4</ele>
        <time>2022-10-28T03:34:59.000Z</time>
      </trkpt>
      <trkpt lat="27.881789" lon="86.815437">
        <ele>4247.4</ele>
        <time>2022-10-28T03:35:03.000Z</time>
      </trkpt>
      <trkpt lat="27.88177" lon="86.815418">
        <ele>4247.2</ele>
        <time>2022-10-28T03:35:05.000Z</time>
      </trkpt>
      <trkpt lat="27.88176" lon="86.815392">
        <ele>4246.4</ele>
        <time>2022-10-28T03:35:08.000Z</time>
      </trkpt>
      <trkpt lat="27.881741" lon="86.815386">
        <ele>4245.4</ele>
        <time>2022-10-28T03:35:57.000Z</time>
      </trkpt>
      <trkpt lat="27.881734" lon="86.815366">
        <ele>4245</ele>
        <time>2022-10-28T03:35:58.000Z</time>
      </trkpt>
      <trkpt lat="27.881725" lon="86.815347">
        <ele>4244.6</ele>
        <time>2022-10-28T03:36:00.000Z</time>
      </trkpt>
      <trkpt lat="27.881712" lon="86.815322">
        <ele>4244</ele>
        <time>2022-10-28T03:36:02.000Z</time>
      </trkpt>
      <trkpt lat="27.881706" lon="86.81529">
        <ele>4243.2</ele>
        <time>2022-10-28T03:36:05.000Z</time>
      </trkpt>
      <trkpt lat="27.88169" lon="86.81527">
        <ele>4242.4</ele>
        <time>2022-10-28T03:36:13.000Z</time>
      </trkpt>
      <trkpt lat="27.881686" lon="86.815245">
        <ele>4242.2</ele>
        <time>2022-10-28T03:36:16.000Z</time>
      </trkpt>
      <trkpt lat="27.88167" lon="86.815226">
        <ele>4241.2</ele>
        <time>2022-10-28T03:36:20.000Z</time>
      </trkpt>
      <trkpt lat="27.881664" lon="86.8152">
        <ele>4240.6</ele>
        <time>2022-10-28T03:36:23.000Z</time>
      </trkpt>
      <trkpt lat="27.881658" lon="86.815181">
        <ele>4240.2</ele>
        <time>2022-10-28T03:36:25.000Z</time>
      </trkpt>
      <trkpt lat="27.881648" lon="86.815162">
        <ele>4239.6</ele>
        <time>2022-10-28T03:36:28.000Z</time>
      </trkpt>
      <trkpt lat="27.881642" lon="86.81513">
        <ele>4239.2</ele>
        <time>2022-10-28T03:36:31.000Z</time>
      </trkpt>
      <trkpt lat="27.881638" lon="86.815104">
        <ele>4239.2</ele>
        <time>2022-10-28T03:36:36.000Z</time>
      </trkpt>
      <trkpt lat="27.881642" lon="86.815078">
        <ele>4237.8</ele>
        <time>2022-10-28T03:36:40.000Z</time>
      </trkpt>
      <trkpt lat="27.881645" lon="86.815053">
        <ele>4237.4</ele>
        <time>2022-10-28T03:36:43.000Z</time>
      </trkpt>
      <trkpt lat="27.881638" lon="86.815034">
        <ele>4236.6</ele>
        <time>2022-10-28T03:36:46.000Z</time>
      </trkpt>
      <trkpt lat="27.881642" lon="86.815008">
        <ele>4236</ele>
        <time>2022-10-28T03:36:48.000Z</time>
      </trkpt>
      <trkpt lat="27.881648" lon="86.814989">
        <ele>4235.8</ele>
        <time>2022-10-28T03:36:50.000Z</time>
      </trkpt>
      <trkpt lat="27.881638" lon="86.81497">
        <ele>4235.2</ele>
        <time>2022-10-28T03:36:53.000Z</time>
      </trkpt>
      <trkpt lat="27.881616" lon="86.814957">
        <ele>4235</ele>
        <time>2022-10-28T03:36:56.000Z</time>
      </trkpt>
      <trkpt lat="27.8816" lon="86.814944">
        <ele>4234.8</ele>
        <time>2022-10-28T03:36:59.000Z</time>
      </trkpt>
      <trkpt lat="27.88159" lon="86.814918">
        <ele>4233.8</ele>
        <time>2022-10-28T03:37:03.000Z</time>
      </trkpt>
      <trkpt lat="27.881571" lon="86.814886">
        <ele>4233</ele>
        <time>2022-10-28T03:37:06.000Z</time>
      </trkpt>
      <trkpt lat="27.881565" lon="86.814867">
        <ele>4232.4</ele>
        <time>2022-10-28T03:37:09.000Z</time>
      </trkpt>
      <trkpt lat="27.881558" lon="86.814848">
        <ele>4232</ele>
        <time>2022-10-28T03:37:11.000Z</time>
      </trkpt>
      <trkpt lat="27.881558" lon="86.814822">
        <ele>4231.6</ele>
        <time>2022-10-28T03:37:13.000Z</time>
      </trkpt>
      <trkpt lat="27.881562" lon="86.814797">
        <ele>4231.6</ele>
        <time>2022-10-28T03:37:15.000Z</time>
      </trkpt>
      <trkpt lat="27.881571" lon="86.814771">
        <ele>4231.2</ele>
        <time>2022-10-28T03:37:17.000Z</time>
      </trkpt>
      <trkpt lat="27.881565" lon="86.814733">
        <ele>4231.2</ele>
        <time>2022-10-28T03:37:20.000Z</time>
      </trkpt>
      <trkpt lat="27.881558" lon="86.814714">
        <ele>4231</ele>
        <time>2022-10-28T03:37:22.000Z</time>
      </trkpt>
      <trkpt lat="27.881558" lon="86.814688">
        <ele>4231</ele>
        <time>2022-10-28T03:37:24.000Z</time>
      </trkpt>
      <trkpt lat="27.881558" lon="86.814656">
        <ele>4231.2</ele>
        <time>2022-10-28T03:37:27.000Z</time>
      </trkpt>
      <trkpt lat="27.881555" lon="86.814624">
        <ele>4231.4</ele>
        <time>2022-10-28T03:37:30.000Z</time>
      </trkpt>
      <trkpt lat="27.881549" lon="86.814598">
        <ele>4231.4</ele>
        <time>2022-10-28T03:37:32.000Z</time>
      </trkpt>
      <trkpt lat="27.88153" lon="86.814573">
        <ele>4230.6</ele>
        <time>2022-10-28T03:37:35.000Z</time>
      </trkpt>
      <trkpt lat="27.88151" lon="86.814554">
        <ele>4230.4</ele>
        <time>2022-10-28T03:37:38.000Z</time>
      </trkpt>
      <trkpt lat="27.881501" lon="86.814528">
        <ele>4230.4</ele>
        <time>2022-10-28T03:37:40.000Z</time>
      </trkpt>
      <trkpt lat="27.881504" lon="86.814496">
        <ele>4231</ele>
        <time>2022-10-28T03:37:43.000Z</time>
      </trkpt>
      <trkpt lat="27.881504" lon="86.81447">
        <ele>4230.6</ele>
        <time>2022-10-28T03:37:46.000Z</time>
      </trkpt>
      <trkpt lat="27.881498" lon="86.814451">
        <ele>4230.6</ele>
        <time>2022-10-28T03:37:47.000Z</time>
      </trkpt>
      <trkpt lat="27.881482" lon="86.814432">
        <ele>4230.2</ele>
        <time>2022-10-28T03:37:49.000Z</time>
      </trkpt>
      <trkpt lat="27.881466" lon="86.814413">
        <ele>4229.8</ele>
        <time>2022-10-28T03:37:51.000Z</time>
      </trkpt>
      <trkpt lat="27.881453" lon="86.814394">
        <ele>4229.6</ele>
        <time>2022-10-28T03:37:53.000Z</time>
      </trkpt>
      <trkpt lat="27.88144" lon="86.814374">
        <ele>4229.4</ele>
        <time>2022-10-28T03:37:55.000Z</time>
      </trkpt>
      <trkpt lat="27.881421" lon="86.814349">
        <ele>4229</ele>
        <time>2022-10-28T03:37:58.000Z</time>
      </trkpt>
      <trkpt lat="27.881411" lon="86.81433">
        <ele>4229</ele>
        <time>2022-10-28T03:38:00.000Z</time>
      </trkpt>
      <trkpt lat="27.881398" lon="86.81431">
        <ele>4229.4</ele>
        <time>2022-10-28T03:38:03.000Z</time>
      </trkpt>
      <trkpt lat="27.881398" lon="86.814285">
        <ele>4229.4</ele>
        <time>2022-10-28T03:38:06.000Z</time>
      </trkpt>
      <trkpt lat="27.881389" lon="86.814259">
        <ele>4228.6</ele>
        <time>2022-10-28T03:38:10.000Z</time>
      </trkpt>
      <trkpt lat="27.881398" lon="86.81424">
        <ele>4228.4</ele>
        <time>2022-10-28T03:38:13.000Z</time>
      </trkpt>
      <trkpt lat="27.881421" lon="86.814214">
        <ele>4227.8</ele>
        <time>2022-10-28T03:38:17.000Z</time>
      </trkpt>
      <trkpt lat="27.881437" lon="86.814202">
        <ele>4227.2</ele>
        <time>2022-10-28T03:38:20.000Z</time>
      </trkpt>
      <trkpt lat="27.881427" lon="86.814176">
        <ele>4226</ele>
        <time>2022-10-28T03:38:24.000Z</time>
      </trkpt>
      <trkpt lat="27.881408" lon="86.81417">
        <ele>4225.2</ele>
        <time>2022-10-28T03:38:27.000Z</time>
      </trkpt>
      <trkpt lat="27.881389" lon="86.81417">
        <ele>4225.2</ele>
        <time>2022-10-28T03:38:30.000Z</time>
      </trkpt>
      <trkpt lat="27.881373" lon="86.81415">
        <ele>4224.4</ele>
        <time>2022-10-28T03:38:34.000Z</time>
      </trkpt>
      <trkpt lat="27.881366" lon="86.814131">
        <ele>4223.4</ele>
        <time>2022-10-28T03:38:37.000Z</time>
      </trkpt>
      <trkpt lat="27.881347" lon="86.814138">
        <ele>4223</ele>
        <time>2022-10-28T03:38:40.000Z</time>
      </trkpt>
      <trkpt lat="27.881331" lon="86.81415">
        <ele>4222.4</ele>
        <time>2022-10-28T03:38:42.000Z</time>
      </trkpt>
      <trkpt lat="27.881309" lon="86.81417">
        <ele>4222</ele>
        <time>2022-10-28T03:38:46.000Z</time>
      </trkpt>
      <trkpt lat="27.88129" lon="86.81417">
        <ele>4221</ele>
        <time>2022-10-28T03:38:49.000Z</time>
      </trkpt>
      <trkpt lat="27.88127" lon="86.814157">
        <ele>4220.4</ele>
        <time>2022-10-28T03:38:52.000Z</time>
      </trkpt>
      <trkpt lat="27.881251" lon="86.81415">
        <ele>4220</ele>
        <time>2022-10-28T03:38:55.000Z</time>
      </trkpt>
      <trkpt lat="27.881229" lon="86.814138">
        <ele>4218.8</ele>
        <time>2022-10-28T03:38:58.000Z</time>
      </trkpt>
      <trkpt lat="27.881213" lon="86.814125">
        <ele>4218.4</ele>
        <time>2022-10-28T03:39:00.000Z</time>
      </trkpt>
      <trkpt lat="27.88119" lon="86.814112">
        <ele>4218.2</ele>
        <time>2022-10-28T03:39:03.000Z</time>
      </trkpt>
      <trkpt lat="27.881178" lon="86.814093">
        <ele>4217.6</ele>
        <time>2022-10-28T03:39:05.000Z</time>
      </trkpt>
      <trkpt lat="27.881155" lon="86.81408">
        <ele>4217.2</ele>
        <time>2022-10-28T03:39:08.000Z</time>
      </trkpt>
      <trkpt lat="27.881133" lon="86.814086">
        <ele>4216.8</ele>
        <time>2022-10-28T03:39:10.000Z</time>
      </trkpt>
      <trkpt lat="27.88111" lon="86.81408">
        <ele>4216.8</ele>
        <time>2022-10-28T03:39:12.000Z</time>
      </trkpt>
      <trkpt lat="27.881088" lon="86.81408">
        <ele>4216.2</ele>
        <time>2022-10-28T03:39:14.000Z</time>
      </trkpt>
      <trkpt lat="27.881069" lon="86.814074">
        <ele>4215.6</ele>
        <time>2022-10-28T03:39:16.000Z</time>
      </trkpt>
      <trkpt lat="27.881046" lon="86.814074">
        <ele>4215.6</ele>
        <time>2022-10-28T03:39:18.000Z</time>
      </trkpt>
      <trkpt lat="27.881024" lon="86.814054">
        <ele>4215.6</ele>
        <time>2022-10-28T03:39:20.000Z</time>
      </trkpt>
      <trkpt lat="27.881002" lon="86.814054">
        <ele>4215.4</ele>
        <time>2022-10-28T03:39:22.000Z</time>
      </trkpt>
      <trkpt lat="27.880979" lon="86.814048">
        <ele>4215</ele>
        <time>2022-10-28T03:39:24.000Z</time>
      </trkpt>
      <trkpt lat="27.88096" lon="86.814042">
        <ele>4214.6</ele>
        <time>2022-10-28T03:39:26.000Z</time>
      </trkpt>
      <trkpt lat="27.880941" lon="86.814035">
        <ele>4214.6</ele>
        <time>2022-10-28T03:39:28.000Z</time>
      </trkpt>
      <trkpt lat="27.880912" lon="86.814029">
        <ele>4214.8</ele>
        <time>2022-10-28T03:39:31.000Z</time>
      </trkpt>
      <trkpt lat="27.88089" lon="86.814029">
        <ele>4215</ele>
        <time>2022-10-28T03:39:34.000Z</time>
      </trkpt>
      <trkpt lat="27.880867" lon="86.814042">
        <ele>4214.8</ele>
        <time>2022-10-28T03:39:37.000Z</time>
      </trkpt>
      <trkpt lat="27.880845" lon="86.814054">
        <ele>4214.8</ele>
        <time>2022-10-28T03:39:40.000Z</time>
      </trkpt>
      <trkpt lat="27.880826" lon="86.814067">
        <ele>4214.8</ele>
        <time>2022-10-28T03:39:42.000Z</time>
      </trkpt>
      <trkpt lat="27.880803" lon="86.814067">
        <ele>4214.6</ele>
        <time>2022-10-28T03:39:44.000Z</time>
      </trkpt>
      <trkpt lat="27.880784" lon="86.814074">
        <ele>4214.6</ele>
        <time>2022-10-28T03:39:46.000Z</time>
      </trkpt>
      <trkpt lat="27.880762" lon="86.814074">
        <ele>4214.4</ele>
        <time>2022-10-28T03:39:48.000Z</time>
      </trkpt>
      <trkpt lat="27.880742" lon="86.814074">
        <ele>4214</ele>
        <time>2022-10-28T03:39:50.000Z</time>
      </trkpt>
      <trkpt lat="27.880726" lon="86.814086">
        <ele>4214.4</ele>
        <time>2022-10-28T03:39:53.000Z</time>
      </trkpt>
      <trkpt lat="27.880698" lon="86.814093">
        <ele>4214</ele>
        <time>2022-10-28T03:39:56.000Z</time>
      </trkpt>
      <trkpt lat="27.880678" lon="86.814099">
        <ele>4213.8</ele>
        <time>2022-10-28T03:39:59.000Z</time>
      </trkpt>
      <trkpt lat="27.880659" lon="86.814099">
        <ele>4213.8</ele>
        <time>2022-10-28T03:40:01.000Z</time>
      </trkpt>
      <trkpt lat="27.88064" lon="86.814112">
        <ele>4213.6</ele>
        <time>2022-10-28T03:40:03.000Z</time>
      </trkpt>
      <trkpt lat="27.880618" lon="86.814112">
        <ele>4213</ele>
        <time>2022-10-28T03:40:05.000Z</time>
      </trkpt>
      <trkpt lat="27.880598" lon="86.814118">
        <ele>4212.8</ele>
        <time>2022-10-28T03:40:07.000Z</time>
      </trkpt>
      <trkpt lat="27.880566" lon="86.814118">
        <ele>4212.8</ele>
        <time>2022-10-28T03:40:10.000Z</time>
      </trkpt>
      <trkpt lat="27.880547" lon="86.814125">
        <ele>4213</ele>
        <time>2022-10-28T03:40:12.000Z</time>
      </trkpt>
      <trkpt lat="27.880528" lon="86.814131">
        <ele>4213</ele>
        <time>2022-10-28T03:40:14.000Z</time>
      </trkpt>
      <trkpt lat="27.880506" lon="86.814138">
        <ele>4213</ele>
        <time>2022-10-28T03:40:16.000Z</time>
      </trkpt>
      <trkpt lat="27.880486" lon="86.81415">
        <ele>4213</ele>
        <time>2022-10-28T03:40:18.000Z</time>
      </trkpt>
      <trkpt lat="27.880467" lon="86.81415">
        <ele>4213</ele>
        <time>2022-10-28T03:40:20.000Z</time>
      </trkpt>
      <trkpt lat="27.880445" lon="86.81415">
        <ele>4213</ele>
        <time>2022-10-28T03:40:22.000Z</time>
      </trkpt>
      <trkpt lat="27.880419" lon="86.81415">
        <ele>4212.8</ele>
        <time>2022-10-28T03:40:25.000Z</time>
      </trkpt>
      <trkpt lat="27.880397" lon="86.814163">
        <ele>4212.2</ele>
        <time>2022-10-28T03:40:30.000Z</time>
      </trkpt>
      <trkpt lat="27.880374" lon="86.814176">
        <ele>4212.4</ele>
        <time>2022-10-28T03:40:33.000Z</time>
      </trkpt>
      <trkpt lat="27.880355" lon="86.814195">
        <ele>4212</ele>
        <time>2022-10-28T03:40:35.000Z</time>
      </trkpt>
      <trkpt lat="27.880336" lon="86.814208">
        <ele>4211.8</ele>
        <time>2022-10-28T03:40:37.000Z</time>
      </trkpt>
      <trkpt lat="27.88031" lon="86.814214">
        <ele>4211.6</ele>
        <time>2022-10-28T03:40:39.000Z</time>
      </trkpt>
      <trkpt lat="27.880291" lon="86.814234">
        <ele>4211.2</ele>
        <time>2022-10-28T03:40:41.000Z</time>
      </trkpt>
      <trkpt lat="27.880266" lon="86.814253">
        <ele>4211</ele>
        <time>2022-10-28T03:40:44.000Z</time>
      </trkpt>
      <trkpt lat="27.880243" lon="86.814272">
        <ele>4211.2</ele>
        <time>2022-10-28T03:40:47.000Z</time>
      </trkpt>
      <trkpt lat="27.880224" lon="86.814285">
        <ele>4211.6</ele>
        <time>2022-10-28T03:40:55.000Z</time>
      </trkpt>
      <trkpt lat="27.880198" lon="86.814291">
        <ele>4211.6</ele>
        <time>2022-10-28T03:40:59.000Z</time>
      </trkpt>
      <trkpt lat="27.880176" lon="86.81431">
        <ele>4210.6</ele>
        <time>2022-10-28T03:41:02.000Z</time>
      </trkpt>
      <trkpt lat="27.880157" lon="86.81431">
        <ele>4210.6</ele>
        <time>2022-10-28T03:41:04.000Z</time>
      </trkpt>
      <trkpt lat="27.880131" lon="86.814317">
        <ele>4210</ele>
        <time>2022-10-28T03:41:07.000Z</time>
      </trkpt>
      <trkpt lat="27.880106" lon="86.814323">
        <ele>4209.8</ele>
        <time>2022-10-28T03:41:42.000Z</time>
      </trkpt>
      <trkpt lat="27.880077" lon="86.814336">
        <ele>4208.8</ele>
        <time>2022-10-28T03:41:44.000Z</time>
      </trkpt>
      <trkpt lat="27.880051" lon="86.814336">
        <ele>4209</ele>
        <time>2022-10-28T03:41:47.000Z</time>
      </trkpt>
      <trkpt lat="27.880032" lon="86.81433">
        <ele>4209</ele>
        <time>2022-10-28T03:41:50.000Z</time>
      </trkpt>
      <trkpt lat="27.880003" lon="86.814336">
        <ele>4207.2</ele>
        <time>2022-10-28T03:42:20.000Z</time>
      </trkpt>
      <trkpt lat="27.879984" lon="86.814336">
        <ele>4207.2</ele>
        <time>2022-10-28T03:42:21.000Z</time>
      </trkpt>
      <trkpt lat="27.879965" lon="86.814336">
        <ele>4207.2</ele>
        <time>2022-10-28T03:42:22.000Z</time>
      </trkpt>
      <trkpt lat="27.87993" lon="86.81433">
        <ele>4207</ele>
        <time>2022-10-28T03:42:24.000Z</time>
      </trkpt>
      <trkpt lat="27.879898" lon="86.814336">
        <ele>4207</ele>
        <time>2022-10-28T03:42:26.000Z</time>
      </trkpt>
      <trkpt lat="27.879866" lon="86.814349">
        <ele>4207</ele>
        <time>2022-10-28T03:42:28.000Z</time>
      </trkpt>
      <trkpt lat="27.87984" lon="86.814349">
        <ele>4207.8</ele>
        <time>2022-10-28T03:42:31.000Z</time>
      </trkpt>
      <trkpt lat="27.879824" lon="86.814336">
        <ele>4207.2</ele>
        <time>2022-10-28T03:42:33.000Z</time>
      </trkpt>
      <trkpt lat="27.879802" lon="86.814349">
        <ele>4207.2</ele>
        <time>2022-10-28T03:42:37.000Z</time>
      </trkpt>
      <trkpt lat="27.879779" lon="86.814349">
        <ele>4206.8</ele>
        <time>2022-10-28T03:42:40.000Z</time>
      </trkpt>
      <trkpt lat="27.87976" lon="86.814368">
        <ele>4206.4</ele>
        <time>2022-10-28T03:42:43.000Z</time>
      </trkpt>
      <trkpt lat="27.879734" lon="86.814374">
        <ele>4206.2</ele>
        <time>2022-10-28T03:42:46.000Z</time>
      </trkpt>
      <trkpt lat="27.879715" lon="86.814368">
        <ele>4205.6</ele>
        <time>2022-10-28T03:42:48.000Z</time>
      </trkpt>
      <trkpt lat="27.879696" lon="86.814362">
        <ele>4205.2</ele>
        <time>2022-10-28T03:42:50.000Z</time>
      </trkpt>
      <trkpt lat="27.879674" lon="86.814355">
        <ele>4204.8</ele>
        <time>2022-10-28T03:42:53.000Z</time>
      </trkpt>
      <trkpt lat="27.879654" lon="86.814349">
        <ele>4205.4</ele>
        <time>2022-10-28T03:42:55.000Z</time>
      </trkpt>
      <trkpt lat="27.879632" lon="86.814349">
        <ele>4205.4</ele>
        <time>2022-10-28T03:42:58.000Z</time>
      </trkpt>
      <trkpt lat="27.87961" lon="86.814336">
        <ele>4205.2</ele>
        <time>2022-10-28T03:43:01.000Z</time>
      </trkpt>
      <trkpt lat="27.879584" lon="86.814336">
        <ele>4204.6</ele>
        <time>2022-10-28T03:43:03.000Z</time>
      </trkpt>
      <trkpt lat="27.879562" lon="86.81433">
        <ele>4204.4</ele>
        <time>2022-10-28T03:43:05.000Z</time>
      </trkpt>
      <trkpt lat="27.879536" lon="86.814323">
        <ele>4204.4</ele>
        <time>2022-10-28T03:43:08.000Z</time>
      </trkpt>
      <trkpt lat="27.879517" lon="86.814317">
        <ele>4204.4</ele>
        <time>2022-10-28T03:43:10.000Z</time>
      </trkpt>
      <trkpt lat="27.879491" lon="86.814317">
        <ele>4204.4</ele>
        <time>2022-10-28T03:43:13.000Z</time>
      </trkpt>
      <trkpt lat="27.879466" lon="86.81431">
        <ele>4204.4</ele>
        <time>2022-10-28T03:43:16.000Z</time>
      </trkpt>
      <trkpt lat="27.879456" lon="86.814291">
        <ele>4204.2</ele>
        <time>2022-10-28T03:43:18.000Z</time>
      </trkpt>
      <trkpt lat="27.879434" lon="86.814278">
        <ele>4204.4</ele>
        <time>2022-10-28T03:44:07.000Z</time>
      </trkpt>
      <trkpt lat="27.879402" lon="86.814259">
        <ele>4204</ele>
        <time>2022-10-28T03:44:09.000Z</time>
      </trkpt>
      <trkpt lat="27.879376" lon="86.814253">
        <ele>4204</ele>
        <time>2022-10-28T03:44:11.000Z</time>
      </trkpt>
      <trkpt lat="27.879344" lon="86.81424">
        <ele>4203.8</ele>
        <time>2022-10-28T03:44:13.000Z</time>
      </trkpt>
      <trkpt lat="27.879318" lon="86.814227">
        <ele>4203.6</ele>
        <time>2022-10-28T03:44:15.000Z</time>
      </trkpt>
      <trkpt lat="27.879296" lon="86.814214">
        <ele>4203.6</ele>
        <time>2022-10-28T03:44:17.000Z</time>
      </trkpt>
      <trkpt lat="27.879274" lon="86.814202">
        <ele>4203.8</ele>
        <time>2022-10-28T03:44:20.000Z</time>
      </trkpt>
      <trkpt lat="27.879254" lon="86.814195">
        <ele>4202.8</ele>
        <time>2022-10-28T03:44:23.000Z</time>
      </trkpt>
      <trkpt lat="27.879245" lon="86.814176">
        <ele>4203</ele>
        <time>2022-10-28T03:44:25.000Z</time>
      </trkpt>
      <trkpt lat="27.879226" lon="86.81417">
        <ele>4201.2</ele>
        <time>2022-10-28T03:44:52.000Z</time>
      </trkpt>
      <trkpt lat="27.879206" lon="86.81415">
        <ele>4201.2</ele>
        <time>2022-10-28T03:44:55.000Z</time>
      </trkpt>
      <trkpt lat="27.879174" lon="86.814131">
        <ele>4200.8</ele>
        <time>2022-10-28T03:45:11.000Z</time>
      </trkpt>
      <trkpt lat="27.879149" lon="86.814118">
        <ele>4200.8</ele>
        <time>2022-10-28T03:45:13.000Z</time>
      </trkpt>
      <trkpt lat="27.879136" lon="86.814099">
        <ele>4200.8</ele>
        <time>2022-10-28T03:45:14.000Z</time>
      </trkpt>
      <trkpt lat="27.879114" lon="86.814086">
        <ele>4200.8</ele>
        <time>2022-10-28T03:45:16.000Z</time>
      </trkpt>
      <trkpt lat="27.879088" lon="86.814067">
        <ele>4200.8</ele>
        <time>2022-10-28T03:45:18.000Z</time>
      </trkpt>
      <trkpt lat="27.879075" lon="86.814048">
        <ele>4200.2</ele>
        <time>2022-10-28T03:45:20.000Z</time>
      </trkpt>
      <trkpt lat="27.879056" lon="86.814042">
        <ele>4199.6</ele>
        <time>2022-10-28T03:45:52.000Z</time>
      </trkpt>
      <trkpt lat="27.879034" lon="86.814035">
        <ele>4198.8</ele>
        <time>2022-10-28T03:45:54.000Z</time>
      </trkpt>
      <trkpt lat="27.879008" lon="86.814035">
        <ele>4198.4</ele>
        <time>2022-10-28T03:45:56.000Z</time>
      </trkpt>
      <trkpt lat="27.878957" lon="86.81401">
        <ele>4197.8</ele>
        <time>2022-10-28T03:46:00.000Z</time>
      </trkpt>
      <trkpt lat="27.878938" lon="86.814003">
        <ele>4197.6</ele>
        <time>2022-10-28T03:46:02.000Z</time>
      </trkpt>
      <trkpt lat="27.878918" lon="86.813997">
        <ele>4197.4</ele>
        <time>2022-10-28T03:46:04.000Z</time>
      </trkpt>
      <trkpt lat="27.878906" lon="86.813978">
        <ele>4196.8</ele>
        <time>2022-10-28T03:46:06.000Z</time>
      </trkpt>
      <trkpt lat="27.878877" lon="86.813965">
        <ele>4195.8</ele>
        <time>2022-10-28T03:46:09.000Z</time>
      </trkpt>
      <trkpt lat="27.878858" lon="86.813958">
        <ele>4195.2</ele>
        <time>2022-10-28T03:46:12.000Z</time>
      </trkpt>
      <trkpt lat="27.878838" lon="86.813952">
        <ele>4194.6</ele>
        <time>2022-10-28T03:46:15.000Z</time>
      </trkpt>
      <trkpt lat="27.878819" lon="86.813952">
        <ele>4193.6</ele>
        <time>2022-10-28T03:46:18.000Z</time>
      </trkpt>
      <trkpt lat="27.8788" lon="86.813952">
        <ele>4193.2</ele>
        <time>2022-10-28T03:46:21.000Z</time>
      </trkpt>
      <trkpt lat="27.878781" lon="86.813939">
        <ele>4192.8</ele>
        <time>2022-10-28T03:46:24.000Z</time>
      </trkpt>
      <trkpt lat="27.878758" lon="86.813939">
        <ele>4191.8</ele>
        <time>2022-10-28T03:46:27.000Z</time>
      </trkpt>
      <trkpt lat="27.878736" lon="86.813933">
        <ele>4191.2</ele>
        <time>2022-10-28T03:46:30.000Z</time>
      </trkpt>
      <trkpt lat="27.87871" lon="86.813926">
        <ele>4190.8</ele>
        <time>2022-10-28T03:46:33.000Z</time>
      </trkpt>
      <trkpt lat="27.878691" lon="86.81392">
        <ele>4190.4</ele>
        <time>2022-10-28T03:46:36.000Z</time>
      </trkpt>
      <trkpt lat="27.878678" lon="86.813901">
        <ele>4190</ele>
        <time>2022-10-28T03:46:38.000Z</time>
      </trkpt>
      <trkpt lat="27.878659" lon="86.813901">
        <ele>4189.4</ele>
        <time>2022-10-28T03:46:41.000Z</time>
      </trkpt>
      <trkpt lat="27.87864" lon="86.813901">
        <ele>4189.2</ele>
        <time>2022-10-28T03:46:43.000Z</time>
      </trkpt>
      <trkpt lat="27.878618" lon="86.813894">
        <ele>4188.4</ele>
        <time>2022-10-28T03:46:46.000Z</time>
      </trkpt>
      <trkpt lat="27.878598" lon="86.813888">
        <ele>4188</ele>
        <time>2022-10-28T03:46:49.000Z</time>
      </trkpt>
      <trkpt lat="27.878579" lon="86.813882">
        <ele>4187.8</ele>
        <time>2022-10-28T03:46:51.000Z</time>
      </trkpt>
      <trkpt lat="27.878554" lon="86.813882">
        <ele>4187</ele>
        <time>2022-10-28T03:46:54.000Z</time>
      </trkpt>
      <trkpt lat="27.878531" lon="86.813875">
        <ele>4186</ele>
        <time>2022-10-28T03:46:57.000Z</time>
      </trkpt>
      <trkpt lat="27.878518" lon="86.813856">
        <ele>4186</ele>
        <time>2022-10-28T03:46:59.000Z</time>
      </trkpt>
      <trkpt lat="27.878499" lon="86.81385">
        <ele>4185.6</ele>
        <time>2022-10-28T03:47:01.000Z</time>
      </trkpt>
      <trkpt lat="27.878483" lon="86.813837">
        <ele>4185</ele>
        <time>2022-10-28T03:47:03.000Z</time>
      </trkpt>
      <trkpt lat="27.878461" lon="86.81383">
        <ele>4184.4</ele>
        <time>2022-10-28T03:47:06.000Z</time>
      </trkpt>
      <trkpt lat="27.878438" lon="86.813837">
        <ele>4183.6</ele>
        <time>2022-10-28T03:47:08.000Z</time>
      </trkpt>
      <trkpt lat="27.878416" lon="86.81383">
        <ele>4183.6</ele>
        <time>2022-10-28T03:47:10.000Z</time>
      </trkpt>
      <trkpt lat="27.8784" lon="86.813818">
        <ele>4183.2</ele>
        <time>2022-10-28T03:47:12.000Z</time>
      </trkpt>
      <trkpt lat="27.878381" lon="86.813805">
        <ele>4182.6</ele>
        <time>2022-10-28T03:47:14.000Z</time>
      </trkpt>
      <trkpt lat="27.878352" lon="86.813798">
        <ele>4182.4</ele>
        <time>2022-10-28T03:47:17.000Z</time>
      </trkpt>
      <trkpt lat="27.878339" lon="86.813779">
        <ele>4181.8</ele>
        <time>2022-10-28T03:47:19.000Z</time>
      </trkpt>
      <trkpt lat="27.878323" lon="86.813766">
        <ele>4182.4</ele>
        <time>2022-10-28T03:47:24.000Z</time>
      </trkpt>
      <trkpt lat="27.878301" lon="86.813766">
        <ele>4182</ele>
        <time>2022-10-28T03:47:27.000Z</time>
      </trkpt>
      <trkpt lat="27.878282" lon="86.813792">
        <ele>4181.8</ele>
        <time>2022-10-28T03:47:30.000Z</time>
      </trkpt>
      <trkpt lat="27.878256" lon="86.813798">
        <ele>4181.4</ele>
        <time>2022-10-28T03:47:33.000Z</time>
      </trkpt>
      <trkpt lat="27.87824" lon="86.813811">
        <ele>4181.4</ele>
        <time>2022-10-28T03:47:35.000Z</time>
      </trkpt>
      <trkpt lat="27.878221" lon="86.813811">
        <ele>4181</ele>
        <time>2022-10-28T03:47:37.000Z</time>
      </trkpt>
      <trkpt lat="27.878202" lon="86.81383">
        <ele>4180.6</ele>
        <time>2022-10-28T03:47:39.000Z</time>
      </trkpt>
      <trkpt lat="27.878189" lon="86.81385">
        <ele>4180.4</ele>
        <time>2022-10-28T03:47:42.000Z</time>
      </trkpt>
      <trkpt lat="27.87817" lon="86.813875">
        <ele>4180.4</ele>
        <time>2022-10-28T03:47:45.000Z</time>
      </trkpt>
      <trkpt lat="27.87815" lon="86.813882">
        <ele>4180.6</ele>
        <time>2022-10-28T03:47:47.000Z</time>
      </trkpt>
      <trkpt lat="27.878131" lon="86.813888">
        <ele>4180.8</ele>
        <time>2022-10-28T03:47:52.000Z</time>
      </trkpt>
      <trkpt lat="27.878086" lon="86.813901">
        <ele>4180.8</ele>
        <time>2022-10-28T03:48:40.000Z</time>
      </trkpt>
      <trkpt lat="27.878064" lon="86.813914">
        <ele>4180.4</ele>
        <time>2022-10-28T03:48:42.000Z</time>
      </trkpt>
      <trkpt lat="27.878032" lon="86.813926">
        <ele>4180.4</ele>
        <time>2022-10-28T03:48:44.000Z</time>
      </trkpt>
      <trkpt lat="27.878006" lon="86.813933">
        <ele>4179.6</ele>
        <time>2022-10-28T03:48:46.000Z</time>
      </trkpt>
      <trkpt lat="27.877984" lon="86.813952">
        <ele>4180</ele>
        <time>2022-10-28T03:48:48.000Z</time>
      </trkpt>
      <trkpt lat="27.877965" lon="86.813965">
        <ele>4180</ele>
        <time>2022-10-28T03:48:50.000Z</time>
      </trkpt>
      <trkpt lat="27.877949" lon="86.813978">
        <ele>4180</ele>
        <time>2022-10-28T03:48:52.000Z</time>
      </trkpt>
      <trkpt lat="27.87793" lon="86.813997">
        <ele>4179.8</ele>
        <time>2022-10-28T03:48:54.000Z</time>
      </trkpt>
      <trkpt lat="27.87791" lon="86.81401">
        <ele>4179.4</ele>
        <time>2022-10-28T03:48:56.000Z</time>
      </trkpt>
      <trkpt lat="27.877891" lon="86.814016">
        <ele>4179</ele>
        <time>2022-10-28T03:48:58.000Z</time>
      </trkpt>
      <trkpt lat="27.877872" lon="86.814016">
        <ele>4178.8</ele>
        <time>2022-10-28T03:49:00.000Z</time>
      </trkpt>
      <trkpt lat="27.877853" lon="86.81401">
        <ele>4179.4</ele>
        <time>2022-10-28T03:49:02.000Z</time>
      </trkpt>
      <trkpt lat="27.877834" lon="86.814016">
        <ele>4179.4</ele>
        <time>2022-10-28T03:49:04.000Z</time>
      </trkpt>
      <trkpt lat="27.877808" lon="86.814016">
        <ele>4179</ele>
        <time>2022-10-28T03:49:07.000Z</time>
      </trkpt>
      <trkpt lat="27.877789" lon="86.81401">
        <ele>4179</ele>
        <time>2022-10-28T03:49:09.000Z</time>
      </trkpt>
      <trkpt lat="27.877766" lon="86.81401">
        <ele>4179</ele>
        <time>2022-10-28T03:49:11.000Z</time>
      </trkpt>
      <trkpt lat="27.877738" lon="86.814016">
        <ele>4179.4</ele>
        <time>2022-10-28T03:49:14.000Z</time>
      </trkpt>
      <trkpt lat="27.877715" lon="86.814029">
        <ele>4179</ele>
        <time>2022-10-28T03:49:17.000Z</time>
      </trkpt>
      <trkpt lat="27.877693" lon="86.814029">
        <ele>4179</ele>
        <time>2022-10-28T03:49:20.000Z</time>
      </trkpt>
      <trkpt lat="27.877674" lon="86.814029">
        <ele>4178.8</ele>
        <time>2022-10-28T03:49:22.000Z</time>
      </trkpt>
      <trkpt lat="27.877648" lon="86.814029">
        <ele>4178.4</ele>
        <time>2022-10-28T03:49:25.000Z</time>
      </trkpt>
      <trkpt lat="27.877626" lon="86.814035">
        <ele>4177.8</ele>
        <time>2022-10-28T03:49:28.000Z</time>
      </trkpt>
      <trkpt lat="27.877606" lon="86.814035">
        <ele>4177.6</ele>
        <time>2022-10-28T03:49:30.000Z</time>
      </trkpt>
      <trkpt lat="27.877587" lon="86.814029">
        <ele>4177.6</ele>
        <time>2022-10-28T03:49:32.000Z</time>
      </trkpt>
      <trkpt lat="27.877568" lon="86.814003">
        <ele>4177.2</ele>
        <time>2022-10-28T03:49:34.000Z</time>
      </trkpt>
      <trkpt lat="27.877542" lon="86.813997">
        <ele>4177</ele>
        <time>2022-10-28T03:49:37.000Z</time>
      </trkpt>
      <trkpt lat="27.877523" lon="86.814003">
        <ele>4177</ele>
        <time>2022-10-28T03:49:39.000Z</time>
      </trkpt>
      <trkpt lat="27.877494" lon="86.814003">
        <ele>4176.8</ele>
        <time>2022-10-28T03:49:42.000Z</time>
      </trkpt>
      <trkpt lat="27.877475" lon="86.814003">
        <ele>4176.2</ele>
        <time>2022-10-28T03:49:44.000Z</time>
      </trkpt>
      <trkpt lat="27.877453" lon="86.814003">
        <ele>4176.2</ele>
        <time>2022-10-28T03:49:47.000Z</time>
      </trkpt>
      <trkpt lat="27.877437" lon="86.81399">
        <ele>4175</ele>
        <time>2022-10-28T03:50:20.000Z</time>
      </trkpt>
      <trkpt lat="27.877421" lon="86.813978">
        <ele>4175</ele>
        <time>2022-10-28T03:50:22.000Z</time>
      </trkpt>
      <trkpt lat="27.877398" lon="86.813978">
        <ele>4174.8</ele>
        <time>2022-10-28T03:50:24.000Z</time>
      </trkpt>
      <trkpt lat="27.877379" lon="86.813978">
        <ele>4174.8</ele>
        <time>2022-10-28T03:50:26.000Z</time>
      </trkpt>
      <trkpt lat="27.877357" lon="86.813978">
        <ele>4173.8</ele>
        <time>2022-10-28T03:50:28.000Z</time>
      </trkpt>
      <trkpt lat="27.877338" lon="86.813978">
        <ele>4172.6</ele>
        <time>2022-10-28T03:50:30.000Z</time>
      </trkpt>
      <trkpt lat="27.877315" lon="86.813978">
        <ele>4172</ele>
        <time>2022-10-28T03:50:33.000Z</time>
      </trkpt>
      <trkpt lat="27.877293" lon="86.813997">
        <ele>4172.2</ele>
        <time>2022-10-28T03:50:36.000Z</time>
      </trkpt>
      <trkpt lat="27.877274" lon="86.814003">
        <ele>4171.6</ele>
        <time>2022-10-28T03:50:39.000Z</time>
      </trkpt>
      <trkpt lat="27.877251" lon="86.814003">
        <ele>4172.6</ele>
        <time>2022-10-28T03:50:52.000Z</time>
      </trkpt>
      <trkpt lat="27.877229" lon="86.814003">
        <ele>4172.2</ele>
        <time>2022-10-28T03:50:55.000Z</time>
      </trkpt>
      <trkpt lat="27.877213" lon="86.814029">
        <ele>4172</ele>
        <time>2022-10-28T03:50:58.000Z</time>
      </trkpt>
      <trkpt lat="27.8772" lon="86.814048">
        <ele>4171.6</ele>
        <time>2022-10-28T03:51:01.000Z</time>
      </trkpt>
      <trkpt lat="27.877187" lon="86.814067">
        <ele>4171.2</ele>
        <time>2022-10-28T03:51:03.000Z</time>
      </trkpt>
      <trkpt lat="27.877168" lon="86.814074">
        <ele>4170.4</ele>
        <time>2022-10-28T03:51:05.000Z</time>
      </trkpt>
      <trkpt lat="27.877146" lon="86.814067">
        <ele>4169.4</ele>
        <time>2022-10-28T03:51:07.000Z</time>
      </trkpt>
      <trkpt lat="27.877123" lon="86.814054">
        <ele>4169.4</ele>
        <time>2022-10-28T03:51:09.000Z</time>
      </trkpt>
      <trkpt lat="27.877104" lon="86.814042">
        <ele>4169.2</ele>
        <time>2022-10-28T03:51:11.000Z</time>
      </trkpt>
      <trkpt lat="27.877082" lon="86.814029">
        <ele>4169.2</ele>
        <time>2022-10-28T03:51:14.000Z</time>
      </trkpt>
      <trkpt lat="27.877062" lon="86.814029">
        <ele>4168.8</ele>
        <time>2022-10-28T03:51:16.000Z</time>
      </trkpt>
      <trkpt lat="27.87704" lon="86.814035">
        <ele>4168.6</ele>
        <time>2022-10-28T03:51:18.000Z</time>
      </trkpt>
      <trkpt lat="27.877021" lon="86.814029">
        <ele>4168</ele>
        <time>2022-10-28T03:51:20.000Z</time>
      </trkpt>
      <trkpt lat="27.877002" lon="86.814029">
        <ele>4167</ele>
        <time>2022-10-28T03:51:33.000Z</time>
      </trkpt>
      <trkpt lat="27.876986" lon="86.81401">
        <ele>4166</ele>
        <time>2022-10-28T03:51:49.000Z</time>
      </trkpt>
      <trkpt lat="27.876966" lon="86.81399">
        <ele>4165.6</ele>
        <time>2022-10-28T03:51:51.000Z</time>
      </trkpt>
      <trkpt lat="27.87695" lon="86.813965">
        <ele>4165.6</ele>
        <time>2022-10-28T03:51:53.000Z</time>
      </trkpt>
      <trkpt lat="27.876934" lon="86.813939">
        <ele>4166.8</ele>
        <time>2022-10-28T03:51:55.000Z</time>
      </trkpt>
      <trkpt lat="27.876928" lon="86.81392">
        <ele>4166.8</ele>
        <time>2022-10-28T03:51:57.000Z</time>
      </trkpt>
      <trkpt lat="27.876928" lon="86.813894">
        <ele>4166.8</ele>
        <time>2022-10-28T03:51:59.000Z</time>
      </trkpt>
      <trkpt lat="27.876922" lon="86.813875">
        <ele>4167</ele>
        <time>2022-10-28T03:52:01.000Z</time>
      </trkpt>
      <trkpt lat="27.876918" lon="86.81385">
        <ele>4166.2</ele>
        <time>2022-10-28T03:52:06.000Z</time>
      </trkpt>
      <trkpt lat="27.876909" lon="86.813818">
        <ele>4166</ele>
        <time>2022-10-28T03:52:09.000Z</time>
      </trkpt>
      <trkpt lat="27.87689" lon="86.813805">
        <ele>4166</ele>
        <time>2022-10-28T03:52:12.000Z</time>
      </trkpt>
      <trkpt lat="27.876874" lon="86.813792">
        <ele>4165.8</ele>
        <time>2022-10-28T03:52:15.000Z</time>
      </trkpt>
      <trkpt lat="27.876864" lon="86.813773">
        <ele>4166</ele>
        <time>2022-10-28T03:52:17.000Z</time>
      </trkpt>
      <trkpt lat="27.876845" lon="86.81376">
        <ele>4165.4</ele>
        <time>2022-10-28T03:52:19.000Z</time>
      </trkpt>
      <trkpt lat="27.876819" lon="86.813766">
        <ele>4165.8</ele>
        <time>2022-10-28T03:52:23.000Z</time>
      </trkpt>
      <trkpt lat="27.87679" lon="86.813766">
        <ele>4165.2</ele>
        <time>2022-10-28T03:52:26.000Z</time>
      </trkpt>
      <trkpt lat="27.876765" lon="86.813773">
        <ele>4165</ele>
        <time>2022-10-28T03:52:29.000Z</time>
      </trkpt>
      <trkpt lat="27.876746" lon="86.813792">
        <ele>4164.6</ele>
        <time>2022-10-28T03:52:32.000Z</time>
      </trkpt>
      <trkpt lat="27.876723" lon="86.813798">
        <ele>4164.6</ele>
        <time>2022-10-28T03:52:35.000Z</time>
      </trkpt>
      <trkpt lat="27.876698" lon="86.813798">
        <ele>4163.6</ele>
        <time>2022-10-28T03:52:38.000Z</time>
      </trkpt>
      <trkpt lat="27.876675" lon="86.813805">
        <ele>4163</ele>
        <time>2022-10-28T03:52:41.000Z</time>
      </trkpt>
      <trkpt lat="27.876653" lon="86.813805">
        <ele>4162.2</ele>
        <time>2022-10-28T03:52:44.000Z</time>
      </trkpt>
      <trkpt lat="27.87663" lon="86.813792">
        <ele>4161.6</ele>
        <time>2022-10-28T03:52:47.000Z</time>
      </trkpt>
      <trkpt lat="27.876614" lon="86.813773">
        <ele>4160.8</ele>
        <time>2022-10-28T03:52:49.000Z</time>
      </trkpt>
      <trkpt lat="27.876595" lon="86.813766">
        <ele>4160.6</ele>
        <time>2022-10-28T03:52:51.000Z</time>
      </trkpt>
      <trkpt lat="27.876573" lon="86.813754">
        <ele>4160.6</ele>
        <time>2022-10-28T03:52:53.000Z</time>
      </trkpt>
      <trkpt lat="27.876557" lon="86.813734">
        <ele>4160.2</ele>
        <time>2022-10-28T03:52:55.000Z</time>
      </trkpt>
      <trkpt lat="27.876541" lon="86.813722">
        <ele>4159.6</ele>
        <time>2022-10-28T03:52:57.000Z</time>
      </trkpt>
      <trkpt lat="27.876525" lon="86.813702">
        <ele>4159.4</ele>
        <time>2022-10-28T03:52:59.000Z</time>
      </trkpt>
      <trkpt lat="27.876502" lon="86.81369">
        <ele>4158.6</ele>
        <time>2022-10-28T03:53:01.000Z</time>
      </trkpt>
      <trkpt lat="27.876486" lon="86.813677">
        <ele>4158.4</ele>
        <time>2022-10-28T03:53:03.000Z</time>
      </trkpt>
      <trkpt lat="27.876474" lon="86.813658">
        <ele>4157.8</ele>
        <time>2022-10-28T03:53:05.000Z</time>
      </trkpt>
      <trkpt lat="27.876464" lon="86.813638">
        <ele>4157.6</ele>
        <time>2022-10-28T03:53:07.000Z</time>
      </trkpt>
      <trkpt lat="27.876454" lon="86.813619">
        <ele>4157</ele>
        <time>2022-10-28T03:53:09.000Z</time>
      </trkpt>
      <trkpt lat="27.876438" lon="86.8136">
        <ele>4156.8</ele>
        <time>2022-10-28T03:53:11.000Z</time>
      </trkpt>
      <trkpt lat="27.876422" lon="86.813581">
        <ele>4156.2</ele>
        <time>2022-10-28T03:53:13.000Z</time>
      </trkpt>
      <trkpt lat="27.876406" lon="86.813568">
        <ele>4156.2</ele>
        <time>2022-10-28T03:53:15.000Z</time>
      </trkpt>
      <trkpt lat="27.876387" lon="86.813562">
        <ele>4156.2</ele>
        <time>2022-10-28T03:53:17.000Z</time>
      </trkpt>
      <trkpt lat="27.876368" lon="86.813555">
        <ele>4156</ele>
        <time>2022-10-28T03:53:19.000Z</time>
      </trkpt>
      <trkpt lat="27.876346" lon="86.813542">
        <ele>4156</ele>
        <time>2022-10-28T03:53:21.000Z</time>
      </trkpt>
      <trkpt lat="27.876323" lon="86.813536">
        <ele>4155.2</ele>
        <time>2022-10-28T03:53:24.000Z</time>
      </trkpt>
      <trkpt lat="27.876307" lon="86.813523">
        <ele>4155</ele>
        <time>2022-10-28T03:53:26.000Z</time>
      </trkpt>
      <trkpt lat="27.876288" lon="86.813523">
        <ele>4154.4</ele>
        <time>2022-10-28T03:53:28.000Z</time>
      </trkpt>
      <trkpt lat="27.876269" lon="86.813517">
        <ele>4154.2</ele>
        <time>2022-10-28T03:53:30.000Z</time>
      </trkpt>
      <trkpt lat="27.876253" lon="86.813504">
        <ele>4153.4</ele>
        <time>2022-10-28T03:53:32.000Z</time>
      </trkpt>
      <trkpt lat="27.87623" lon="86.813491">
        <ele>4153.4</ele>
        <time>2022-10-28T03:53:34.000Z</time>
      </trkpt>
      <trkpt lat="27.876208" lon="86.813478">
        <ele>4153.2</ele>
        <time>2022-10-28T03:53:37.000Z</time>
      </trkpt>
      <trkpt lat="27.876189" lon="86.813472">
        <ele>4153</ele>
        <time>2022-10-28T03:53:39.000Z</time>
      </trkpt>
      <trkpt lat="27.87617" lon="86.813459">
        <ele>4152.6</ele>
        <time>2022-10-28T03:53:41.000Z</time>
      </trkpt>
      <trkpt lat="27.87615" lon="86.813453">
        <ele>4152.4</ele>
        <time>2022-10-28T03:53:43.000Z</time>
      </trkpt>
      <trkpt lat="27.876128" lon="86.813453">
        <ele>4151.6</ele>
        <time>2022-10-28T03:53:46.000Z</time>
      </trkpt>
      <trkpt lat="27.876102" lon="86.813446">
        <ele>4151.6</ele>
        <time>2022-10-28T03:53:49.000Z</time>
      </trkpt>
      <trkpt lat="27.876077" lon="86.813446">
        <ele>4151.4</ele>
        <time>2022-10-28T03:53:52.000Z</time>
      </trkpt>
      <trkpt lat="27.876058" lon="86.813453">
        <ele>4150.8</ele>
        <time>2022-10-28T03:53:55.000Z</time>
      </trkpt>
      <trkpt lat="27.876038" lon="86.813446">
        <ele>4151</ele>
        <time>2022-10-28T03:53:57.000Z</time>
      </trkpt>
      <trkpt lat="27.876019" lon="86.81344">
        <ele>4150</ele>
        <time>2022-10-28T03:54:00.000Z</time>
      </trkpt>
      <trkpt lat="27.875997" lon="86.813434">
        <ele>4149</ele>
        <time>2022-10-28T03:54:03.000Z</time>
      </trkpt>
      <trkpt lat="27.875981" lon="86.813421">
        <ele>4149</ele>
        <time>2022-10-28T03:54:05.000Z</time>
      </trkpt>
      <trkpt lat="27.875962" lon="86.813408">
        <ele>4148.2</ele>
        <time>2022-10-28T03:54:08.000Z</time>
      </trkpt>
      <trkpt lat="27.875939" lon="86.813395">
        <ele>4148.2</ele>
        <time>2022-10-28T03:54:11.000Z</time>
      </trkpt>
      <trkpt lat="27.87592" lon="86.813376">
        <ele>4148</ele>
        <time>2022-10-28T03:54:13.000Z</time>
      </trkpt>
      <trkpt lat="27.875901" lon="86.813376">
        <ele>4147.2</ele>
        <time>2022-10-28T03:54:15.000Z</time>
      </trkpt>
      <trkpt lat="27.875882" lon="86.81337">
        <ele>4147.2</ele>
        <time>2022-10-28T03:54:19.000Z</time>
      </trkpt>
      <trkpt lat="27.875859" lon="86.813376">
        <ele>4146.8</ele>
        <time>2022-10-28T03:54:22.000Z</time>
      </trkpt>
      <trkpt lat="27.87584" lon="86.813376">
        <ele>4146.6</ele>
        <time>2022-10-28T03:54:24.000Z</time>
      </trkpt>
      <trkpt lat="27.875821" lon="86.813382">
        <ele>4146</ele>
        <time>2022-10-28T03:54:26.000Z</time>
      </trkpt>
      <trkpt lat="27.875802" lon="86.813382">
        <ele>4146</ele>
        <time>2022-10-28T03:54:28.000Z</time>
      </trkpt>
      <trkpt lat="27.875782" lon="86.813395">
        <ele>4145.8</ele>
        <time>2022-10-28T03:54:30.000Z</time>
      </trkpt>
      <trkpt lat="27.875763" lon="86.813395">
        <ele>4145.8</ele>
        <time>2022-10-28T03:54:32.000Z</time>
      </trkpt>
      <trkpt lat="27.875741" lon="86.813395">
        <ele>4145.4</ele>
        <time>2022-10-28T03:54:34.000Z</time>
      </trkpt>
      <trkpt lat="27.875718" lon="86.813382">
        <ele>4145.4</ele>
        <time>2022-10-28T03:54:36.000Z</time>
      </trkpt>
      <trkpt lat="27.875699" lon="86.813376">
        <ele>4145.4</ele>
        <time>2022-10-28T03:54:38.000Z</time>
      </trkpt>
      <trkpt lat="27.87568" lon="86.813363">
        <ele>4145</ele>
        <time>2022-10-28T03:54:40.000Z</time>
      </trkpt>
      <trkpt lat="27.875658" lon="86.81337">
        <ele>4145.2</ele>
        <time>2022-10-28T03:54:43.000Z</time>
      </trkpt>
      <trkpt lat="27.875638" lon="86.813376">
        <ele>4145.8</ele>
        <time>2022-10-28T03:54:45.000Z</time>
      </trkpt>
      <trkpt lat="27.875619" lon="86.813382">
        <ele>4145.8</ele>
        <time>2022-10-28T03:54:47.000Z</time>
      </trkpt>
      <trkpt lat="27.875597" lon="86.813382">
        <ele>4145.4</ele>
        <time>2022-10-28T03:54:49.000Z</time>
      </trkpt>
      <trkpt lat="27.875578" lon="86.81337">
        <ele>4145.4</ele>
        <time>2022-10-28T03:54:51.000Z</time>
      </trkpt>
      <trkpt lat="27.875562" lon="86.813357">
        <ele>4145.4</ele>
        <time>2022-10-28T03:54:53.000Z</time>
      </trkpt>
      <trkpt lat="27.875549" lon="86.813338">
        <ele>4145.4</ele>
        <time>2022-10-28T03:54:55.000Z</time>
      </trkpt>
      <trkpt lat="27.875536" lon="86.813318">
        <ele>4145.2</ele>
        <time>2022-10-28T03:54:58.000Z</time>
      </trkpt>
      <trkpt lat="27.875501" lon="86.813299">
        <ele>4145</ele>
        <time>2022-10-28T03:55:03.000Z</time>
      </trkpt>
      <trkpt lat="27.875478" lon="86.813306">
        <ele>4144.8</ele>
        <time>2022-10-28T03:55:05.000Z</time>
      </trkpt>
      <trkpt lat="27.875459" lon="86.813318">
        <ele>4144.8</ele>
        <time>2022-10-28T03:55:07.000Z</time>
      </trkpt>
      <trkpt lat="27.875443" lon="86.813331">
        <ele>4144.4</ele>
        <time>2022-10-28T03:55:09.000Z</time>
      </trkpt>
      <trkpt lat="27.875421" lon="86.813331">
        <ele>4144.4</ele>
        <time>2022-10-28T03:55:11.000Z</time>
      </trkpt>
      <trkpt lat="27.875402" lon="86.813331">
        <ele>4144.4</ele>
        <time>2022-10-28T03:55:13.000Z</time>
      </trkpt>
      <trkpt lat="27.875379" lon="86.813338">
        <ele>4144.4</ele>
        <time>2022-10-28T03:55:16.000Z</time>
      </trkpt>
      <trkpt lat="27.87536" lon="86.813338">
        <ele>4144</ele>
        <time>2022-10-28T03:55:18.000Z</time>
      </trkpt>
      <trkpt lat="27.875344" lon="86.813325">
        <ele>4143.6</ele>
        <time>2022-10-28T03:55:20.000Z</time>
      </trkpt>
      <trkpt lat="27.875331" lon="86.813306">
        <ele>4143.2</ele>
        <time>2022-10-28T03:55:22.000Z</time>
      </trkpt>
      <trkpt lat="27.875312" lon="86.813293">
        <ele>4143.2</ele>
        <time>2022-10-28T03:55:25.000Z</time>
      </trkpt>
      <trkpt lat="27.875293" lon="86.813286">
        <ele>4142.8</ele>
        <time>2022-10-28T03:55:29.000Z</time>
      </trkpt>
      <trkpt lat="27.875274" lon="86.813286">
        <ele>4142.8</ele>
        <time>2022-10-28T03:55:31.000Z</time>
      </trkpt>
      <trkpt lat="27.875254" lon="86.813286">
        <ele>4142.4</ele>
        <time>2022-10-28T03:55:34.000Z</time>
      </trkpt>
      <trkpt lat="27.875216" lon="86.813261">
        <ele>4141</ele>
        <time>2022-10-28T03:55:39.000Z</time>
      </trkpt>
      <trkpt lat="27.875194" lon="86.813254">
        <ele>4140.4</ele>
        <time>2022-10-28T03:55:42.000Z</time>
      </trkpt>
      <trkpt lat="27.875168" lon="86.813261">
        <ele>4140</ele>
        <time>2022-10-28T03:55:45.000Z</time>
      </trkpt>
      <trkpt lat="27.875149" lon="86.813254">
        <ele>4140</ele>
        <time>2022-10-28T03:55:47.000Z</time>
      </trkpt>
      <trkpt lat="27.875126" lon="86.813254">
        <ele>4139.2</ele>
        <time>2022-10-28T03:55:50.000Z</time>
      </trkpt>
      <trkpt lat="27.875107" lon="86.813261">
        <ele>4139.2</ele>
        <time>2022-10-28T03:55:52.000Z</time>
      </trkpt>
      <trkpt lat="27.875088" lon="86.813254">
        <ele>4138.6</ele>
        <time>2022-10-28T03:55:54.000Z</time>
      </trkpt>
      <trkpt lat="27.875062" lon="86.813254">
        <ele>4138.2</ele>
        <time>2022-10-28T03:55:57.000Z</time>
      </trkpt>
      <trkpt lat="27.875043" lon="86.813261">
        <ele>4137.8</ele>
        <time>2022-10-28T03:56:00.000Z</time>
      </trkpt>
      <trkpt lat="27.875024" lon="86.813261">
        <ele>4137</ele>
        <time>2022-10-28T03:56:03.000Z</time>
      </trkpt>
      <trkpt lat="27.875005" lon="86.813254">
        <ele>4137</ele>
        <time>2022-10-28T03:56:06.000Z</time>
      </trkpt>
      <trkpt lat="27.874982" lon="86.813242">
        <ele>4136.8</ele>
        <time>2022-10-28T03:56:11.000Z</time>
      </trkpt>
      <trkpt lat="27.874963" lon="86.813222">
        <ele>4136.4</ele>
        <time>2022-10-28T03:56:14.000Z</time>
      </trkpt>
      <trkpt lat="27.874941" lon="86.813216">
        <ele>4136.4</ele>
        <time>2022-10-28T03:56:18.000Z</time>
      </trkpt>
      <trkpt lat="27.874922" lon="86.813203">
        <ele>4136.6</ele>
        <time>2022-10-28T03:56:22.000Z</time>
      </trkpt>
      <trkpt lat="27.874902" lon="86.813197">
        <ele>4136.4</ele>
        <time>2022-10-28T03:56:25.000Z</time>
      </trkpt>
      <trkpt lat="27.874883" lon="86.813184">
        <ele>4136.4</ele>
        <time>2022-10-28T03:56:27.000Z</time>
      </trkpt>
      <trkpt lat="27.874867" lon="86.813171">
        <ele>4136.4</ele>
        <time>2022-10-28T03:56:29.000Z</time>
      </trkpt>
      <trkpt lat="27.874864" lon="86.813146">
        <ele>4135.6</ele>
        <time>2022-10-28T03:56:31.000Z</time>
      </trkpt>
      <trkpt lat="27.874861" lon="86.81312">
        <ele>4135.4</ele>
        <time>2022-10-28T03:56:34.000Z</time>
      </trkpt>
      <trkpt lat="27.874848" lon="86.813101">
        <ele>4135.2</ele>
        <time>2022-10-28T03:56:36.000Z</time>
      </trkpt>
      <trkpt lat="27.874838" lon="86.813082">
        <ele>4135.4</ele>
        <time>2022-10-28T03:56:39.000Z</time>
      </trkpt>
      <trkpt lat="27.874826" lon="86.813062">
        <ele>4135</ele>
        <time>2022-10-28T03:56:41.000Z</time>
      </trkpt>
      <trkpt lat="27.8748" lon="86.81305">
        <ele>4134.6</ele>
        <time>2022-10-28T03:56:44.000Z</time>
      </trkpt>
      <trkpt lat="27.874778" lon="86.813043">
        <ele>4134.4</ele>
        <time>2022-10-28T03:56:47.000Z</time>
      </trkpt>
      <trkpt lat="27.874768" lon="86.813024">
        <ele>4134.2</ele>
        <time>2022-10-28T03:56:53.000Z</time>
      </trkpt>
      <trkpt lat="27.874749" lon="86.813018">
        <ele>4134.2</ele>
        <time>2022-10-28T03:56:55.000Z</time>
      </trkpt>
      <trkpt lat="27.874742" lon="86.812998">
        <ele>4134.2</ele>
        <time>2022-10-28T03:56:58.000Z</time>
      </trkpt>
      <trkpt lat="27.874736" lon="86.812979">
        <ele>4134.6</ele>
        <time>2022-10-28T03:57:02.000Z</time>
      </trkpt>
      <trkpt lat="27.874717" lon="86.81296">
        <ele>4134.6</ele>
        <time>2022-10-28T03:57:06.000Z</time>
      </trkpt>
      <trkpt lat="27.874691" lon="86.81296">
        <ele>4134</ele>
        <time>2022-10-28T03:57:10.000Z</time>
      </trkpt>
      <trkpt lat="27.874669" lon="86.81296">
        <ele>4133.8</ele>
        <time>2022-10-28T03:57:13.000Z</time>
      </trkpt>
      <trkpt lat="27.874646" lon="86.812966">
        <ele>4133</ele>
        <time>2022-10-28T03:57:15.000Z</time>
      </trkpt>
      <trkpt lat="27.874618" lon="86.812966">
        <ele>4133</ele>
        <time>2022-10-28T03:57:18.000Z</time>
      </trkpt>
      <trkpt lat="27.874598" lon="86.812973">
        <ele>4133</ele>
        <time>2022-10-28T03:57:20.000Z</time>
      </trkpt>
      <trkpt lat="27.874576" lon="86.812966">
        <ele>4132</ele>
        <time>2022-10-28T03:57:22.000Z</time>
      </trkpt>
      <trkpt lat="27.874554" lon="86.81296">
        <ele>4132</ele>
        <time>2022-10-28T03:57:24.000Z</time>
      </trkpt>
      <trkpt lat="27.874538" lon="86.812947">
        <ele>4132</ele>
        <time>2022-10-28T03:57:26.000Z</time>
      </trkpt>
      <trkpt lat="27.874518" lon="86.812941">
        <ele>4132</ele>
        <time>2022-10-28T03:57:28.000Z</time>
      </trkpt>
      <trkpt lat="27.874496" lon="86.812928">
        <ele>4132</ele>
        <time>2022-10-28T03:57:31.000Z</time>
      </trkpt>
      <trkpt lat="27.87447" lon="86.812928">
        <ele>4132.6</ele>
        <time>2022-10-28T03:57:34.000Z</time>
      </trkpt>
      <trkpt lat="27.874451" lon="86.812934">
        <ele>4132.6</ele>
        <time>2022-10-28T03:57:36.000Z</time>
      </trkpt>
      <trkpt lat="27.874432" lon="86.812934">
        <ele>4132.4</ele>
        <time>2022-10-28T03:57:38.000Z</time>
      </trkpt>
      <trkpt lat="27.874416" lon="86.812947">
        <ele>4132.4</ele>
        <time>2022-10-28T03:57:40.000Z</time>
      </trkpt>
      <trkpt lat="27.874397" lon="86.81296">
        <ele>4132</ele>
        <time>2022-10-28T03:57:43.000Z</time>
      </trkpt>
      <trkpt lat="27.874374" lon="86.812966">
        <ele>4132.4</ele>
        <time>2022-10-28T03:57:48.000Z</time>
      </trkpt>
      <trkpt lat="27.874346" lon="86.812966">
        <ele>4131.8</ele>
        <time>2022-10-28T03:57:51.000Z</time>
      </trkpt>
      <trkpt lat="27.874326" lon="86.812966">
        <ele>4131.2</ele>
        <time>2022-10-28T03:57:53.000Z</time>
      </trkpt>
      <trkpt lat="27.874307" lon="86.812966">
        <ele>4131</ele>
        <time>2022-10-28T03:57:55.000Z</time>
      </trkpt>
      <trkpt lat="27.874288" lon="86.812966">
        <ele>4131</ele>
        <time>2022-10-28T03:57:57.000Z</time>
      </trkpt>
      <trkpt lat="27.874269" lon="86.812973">
        <ele>4130.8</ele>
        <time>2022-10-28T03:58:02.000Z</time>
      </trkpt>
      <trkpt lat="27.87425" lon="86.812966">
        <ele>4130.8</ele>
        <time>2022-10-28T03:58:10.000Z</time>
      </trkpt>
      <trkpt lat="27.87423" lon="86.812973">
        <ele>4131</ele>
        <time>2022-10-28T03:58:14.000Z</time>
      </trkpt>
      <trkpt lat="27.874205" lon="86.812973">
        <ele>4130.6</ele>
        <time>2022-10-28T03:58:17.000Z</time>
      </trkpt>
      <trkpt lat="27.874179" lon="86.81296">
        <ele>4130.8</ele>
        <time>2022-10-28T03:58:20.000Z</time>
      </trkpt>
      <trkpt lat="27.874163" lon="86.812947">
        <ele>4130.8</ele>
        <time>2022-10-28T03:58:23.000Z</time>
      </trkpt>
      <trkpt lat="27.874144" lon="86.812941">
        <ele>4130.8</ele>
        <time>2022-10-28T03:58:25.000Z</time>
      </trkpt>
      <trkpt lat="27.874122" lon="86.812934">
        <ele>4130.8</ele>
        <time>2022-10-28T03:58:27.000Z</time>
      </trkpt>
      <trkpt lat="27.874099" lon="86.812922">
        <ele>4130.8</ele>
        <time>2022-10-28T03:58:29.000Z</time>
      </trkpt>
      <trkpt lat="27.87408" lon="86.812909">
        <ele>4130.2</ele>
        <time>2022-10-28T03:58:31.000Z</time>
      </trkpt>
      <trkpt lat="27.874061" lon="86.812896">
        <ele>4129.8</ele>
        <time>2022-10-28T03:58:34.000Z</time>
      </trkpt>
      <trkpt lat="27.874042" lon="86.812883">
        <ele>4130</ele>
        <time>2022-10-28T03:58:37.000Z</time>
      </trkpt>
      <trkpt lat="27.874022" lon="86.812877">
        <ele>4130.2</ele>
        <time>2022-10-28T03:58:39.000Z</time>
      </trkpt>
      <trkpt lat="27.874003" lon="86.812864">
        <ele>4130</ele>
        <time>2022-10-28T03:58:41.000Z</time>
      </trkpt>
      <trkpt lat="27.873978" lon="86.812858">
        <ele>4129.6</ele>
        <time>2022-10-28T03:58:43.000Z</time>
      </trkpt>
      <trkpt lat="27.873955" lon="86.812851">
        <ele>4129.4</ele>
        <time>2022-10-28T03:58:45.000Z</time>
      </trkpt>
      <trkpt lat="27.873933" lon="86.812845">
        <ele>4129.4</ele>
        <time>2022-10-28T03:58:47.000Z</time>
      </trkpt>
      <trkpt lat="27.873914" lon="86.812838">
        <ele>4129</ele>
        <time>2022-10-28T03:58:49.000Z</time>
      </trkpt>
      <trkpt lat="27.873898" lon="86.812826">
        <ele>4129</ele>
        <time>2022-10-28T03:58:51.000Z</time>
      </trkpt>
      <trkpt lat="27.873882" lon="86.812838">
        <ele>4128.8</ele>
        <time>2022-10-28T03:58:56.000Z</time>
      </trkpt>
      <trkpt lat="27.873866" lon="86.812826">
        <ele>4128.8</ele>
        <time>2022-10-28T03:59:04.000Z</time>
      </trkpt>
      <trkpt lat="27.873846" lon="86.812838">
        <ele>4128.4</ele>
        <time>2022-10-28T03:59:07.000Z</time>
      </trkpt>
      <trkpt lat="27.873824" lon="86.812851">
        <ele>4128</ele>
        <time>2022-10-28T03:59:10.000Z</time>
      </trkpt>
      <trkpt lat="27.873802" lon="86.812851">
        <ele>4128</ele>
        <time>2022-10-28T03:59:12.000Z</time>
      </trkpt>
      <trkpt lat="27.873782" lon="86.812851">
        <ele>4127.4</ele>
        <time>2022-10-28T03:59:14.000Z</time>
      </trkpt>
      <trkpt lat="27.873763" lon="86.812851">
        <ele>4127</ele>
        <time>2022-10-28T03:59:16.000Z</time>
      </trkpt>
      <trkpt lat="27.873741" lon="86.812845">
        <ele>4127</ele>
        <time>2022-10-28T03:59:18.000Z</time>
      </trkpt>
      <trkpt lat="27.873712" lon="86.812826">
        <ele>4126.8</ele>
        <time>2022-10-28T03:59:21.000Z</time>
      </trkpt>
      <trkpt lat="27.87369" lon="86.812826">
        <ele>4126.6</ele>
        <time>2022-10-28T03:59:23.000Z</time>
      </trkpt>
      <trkpt lat="27.873674" lon="86.812838">
        <ele>4126.6</ele>
        <time>2022-10-28T03:59:25.000Z</time>
      </trkpt>
      <trkpt lat="27.873648" lon="86.812826">
        <ele>4126.8</ele>
        <time>2022-10-28T03:59:27.000Z</time>
      </trkpt>
      <trkpt lat="27.873626" lon="86.812826">
        <ele>4126.8</ele>
        <time>2022-10-28T03:59:29.000Z</time>
      </trkpt>
      <trkpt lat="27.873597" lon="86.812813">
        <ele>4126.8</ele>
        <time>2022-10-28T03:59:32.000Z</time>
      </trkpt>
      <trkpt lat="27.873574" lon="86.812813">
        <ele>4126.6</ele>
        <time>2022-10-28T03:59:34.000Z</time>
      </trkpt>
      <trkpt lat="27.873555" lon="86.812813">
        <ele>4126.8</ele>
        <time>2022-10-28T03:59:36.000Z</time>
      </trkpt>
      <trkpt lat="27.873533" lon="86.812813">
        <ele>4126.6</ele>
        <time>2022-10-28T03:59:39.000Z</time>
      </trkpt>
      <trkpt lat="27.87351" lon="86.812813">
        <ele>4126.6</ele>
        <time>2022-10-28T03:59:41.000Z</time>
      </trkpt>
      <trkpt lat="27.873491" lon="86.812819">
        <ele>4126.6</ele>
        <time>2022-10-28T03:59:43.000Z</time>
      </trkpt>
      <trkpt lat="27.873469" lon="86.812826">
        <ele>4127</ele>
        <time>2022-10-28T03:59:47.000Z</time>
      </trkpt>
      <trkpt lat="27.87345" lon="86.812838">
        <ele>4127</ele>
        <time>2022-10-28T03:59:49.000Z</time>
      </trkpt>
      <trkpt lat="27.873427" lon="86.812845">
        <ele>4126.8</ele>
        <time>2022-10-28T03:59:51.000Z</time>
      </trkpt>
      <trkpt lat="27.873405" lon="86.812851">
        <ele>4126.8</ele>
        <time>2022-10-28T03:59:53.000Z</time>
      </trkpt>
      <trkpt lat="27.873386" lon="86.812858">
        <ele>4126.8</ele>
        <time>2022-10-28T03:59:55.000Z</time>
      </trkpt>
      <trkpt lat="27.873357" lon="86.812858">
        <ele>4126.6</ele>
        <time>2022-10-28T03:59:58.000Z</time>
      </trkpt>
      <trkpt lat="27.873338" lon="86.812858">
        <ele>4126.6</ele>
        <time>2022-10-28T04:00:00.000Z</time>
      </trkpt>
      <trkpt lat="27.873315" lon="86.812864">
        <ele>4126</ele>
        <time>2022-10-28T04:00:02.000Z</time>
      </trkpt>
      <trkpt lat="27.873296" lon="86.812877">
        <ele>4126</ele>
        <time>2022-10-28T04:00:04.000Z</time>
      </trkpt>
      <trkpt lat="27.873267" lon="86.812883">
        <ele>4126</ele>
        <time>2022-10-28T04:00:07.000Z</time>
      </trkpt>
      <trkpt lat="27.873238" lon="86.812883">
        <ele>4125.2</ele>
        <time>2022-10-28T04:00:33.000Z</time>
      </trkpt>
      <trkpt lat="27.87321" lon="86.812883">
        <ele>4124.8</ele>
        <time>2022-10-28T04:00:35.000Z</time>
      </trkpt>
      <trkpt lat="27.873187" lon="86.812883">
        <ele>4124.8</ele>
        <time>2022-10-28T04:00:37.000Z</time>
      </trkpt>
      <trkpt lat="27.873158" lon="86.81289">
        <ele>4124.4</ele>
        <time>2022-10-28T04:00:39.000Z</time>
      </trkpt>
      <trkpt lat="27.873126" lon="86.81289">
        <ele>4123.8</ele>
        <time>2022-10-28T04:00:41.000Z</time>
      </trkpt>
      <trkpt lat="27.873101" lon="86.812883">
        <ele>4123.8</ele>
        <time>2022-10-28T04:00:44.000Z</time>
      </trkpt>
      <trkpt lat="27.873078" lon="86.81289">
        <ele>4123.8</ele>
        <time>2022-10-28T04:00:46.000Z</time>
      </trkpt>
      <trkpt lat="27.87305" lon="86.812896">
        <ele>4123.4</ele>
        <time>2022-10-28T04:00:48.000Z</time>
      </trkpt>
      <trkpt lat="27.873027" lon="86.812896">
        <ele>4123</ele>
        <time>2022-10-28T04:00:50.000Z</time>
      </trkpt>
      <trkpt lat="27.872998" lon="86.812896">
        <ele>4122.8</ele>
        <time>2022-10-28T04:00:53.000Z</time>
      </trkpt>
      <trkpt lat="27.872979" lon="86.812909">
        <ele>4123.2</ele>
        <time>2022-10-28T04:01:06.000Z</time>
      </trkpt>
      <trkpt lat="27.87296" lon="86.812909">
        <ele>4122.8</ele>
        <time>2022-10-28T04:01:09.000Z</time>
      </trkpt>
      <trkpt lat="27.872941" lon="86.812902">
        <ele>4122.2</ele>
        <time>2022-10-28T04:01:11.000Z</time>
      </trkpt>
      <trkpt lat="27.872918" lon="86.812902">
        <ele>4122.2</ele>
        <time>2022-10-28T04:01:13.000Z</time>
      </trkpt>
      <trkpt lat="27.872896" lon="86.812902">
        <ele>4122.4</ele>
        <time>2022-10-28T04:01:15.000Z</time>
      </trkpt>
      <trkpt lat="27.87287" lon="86.812896">
        <ele>4122</ele>
        <time>2022-10-28T04:01:17.000Z</time>
      </trkpt>
      <trkpt lat="27.872848" lon="86.812896">
        <ele>4121.6</ele>
        <time>2022-10-28T04:01:19.000Z</time>
      </trkpt>
      <trkpt lat="27.872822" lon="86.81289">
        <ele>4121.6</ele>
        <time>2022-10-28T04:01:21.000Z</time>
      </trkpt>
      <trkpt lat="27.872794" lon="86.812883">
        <ele>4121</ele>
        <time>2022-10-28T04:01:23.000Z</time>
      </trkpt>
      <trkpt lat="27.872768" lon="86.812883">
        <ele>4121</ele>
        <time>2022-10-28T04:01:25.000Z</time>
      </trkpt>
      <trkpt lat="27.872746" lon="86.812883">
        <ele>4121</ele>
        <time>2022-10-28T04:01:27.000Z</time>
      </trkpt>
      <trkpt lat="27.872723" lon="86.812883">
        <ele>4120.6</ele>
        <time>2022-10-28T04:01:29.000Z</time>
      </trkpt>
      <trkpt lat="27.872701" lon="86.812883">
        <ele>4120.4</ele>
        <time>2022-10-28T04:01:31.000Z</time>
      </trkpt>
      <trkpt lat="27.872682" lon="86.812883">
        <ele>4120.2</ele>
        <time>2022-10-28T04:01:33.000Z</time>
      </trkpt>
      <trkpt lat="27.872662" lon="86.812883">
        <ele>4120.2</ele>
        <time>2022-10-28T04:01:35.000Z</time>
      </trkpt>
      <trkpt lat="27.87264" lon="86.81289">
        <ele>4120.2</ele>
        <time>2022-10-28T04:01:37.000Z</time>
      </trkpt>
      <trkpt lat="27.872621" lon="86.81289">
        <ele>4119.8</ele>
        <time>2022-10-28T04:01:39.000Z</time>
      </trkpt>
      <trkpt lat="27.872602" lon="86.81289">
        <ele>4119.4</ele>
        <time>2022-10-28T04:01:41.000Z</time>
      </trkpt>
      <trkpt lat="27.872582" lon="86.812883">
        <ele>4119</ele>
        <time>2022-10-28T04:01:43.000Z</time>
      </trkpt>
      <trkpt lat="27.872563" lon="86.812883">
        <ele>4119</ele>
        <time>2022-10-28T04:01:45.000Z</time>
      </trkpt>
      <trkpt lat="27.872544" lon="86.812864">
        <ele>4119.4</ele>
        <time>2022-10-28T04:01:47.000Z</time>
      </trkpt>
      <trkpt lat="27.872525" lon="86.812845">
        <ele>4119</ele>
        <time>2022-10-28T04:01:50.000Z</time>
      </trkpt>
      <trkpt lat="27.872502" lon="86.812826">
        <ele>4119</ele>
        <time>2022-10-28T04:01:53.000Z</time>
      </trkpt>
      <trkpt lat="27.872483" lon="86.812813">
        <ele>4118.6</ele>
        <time>2022-10-28T04:01:55.000Z</time>
      </trkpt>
      <trkpt lat="27.872461" lon="86.812813">
        <ele>4117.8</ele>
        <time>2022-10-28T04:01:57.000Z</time>
      </trkpt>
      <trkpt lat="27.872442" lon="86.812806">
        <ele>4117.6</ele>
        <time>2022-10-28T04:01:59.000Z</time>
      </trkpt>
      <trkpt lat="27.872422" lon="86.812806">
        <ele>4117.6</ele>
        <time>2022-10-28T04:02:01.000Z</time>
      </trkpt>
      <trkpt lat="27.87239" lon="86.8128">
        <ele>4117.6</ele>
        <time>2022-10-28T04:02:04.000Z</time>
      </trkpt>
      <trkpt lat="27.872368" lon="86.812781">
        <ele>4117.6</ele>
        <time>2022-10-28T04:02:06.000Z</time>
      </trkpt>
      <trkpt lat="27.872339" lon="86.812768">
        <ele>4116.6</ele>
        <time>2022-10-28T04:02:09.000Z</time>
      </trkpt>
      <trkpt lat="27.872314" lon="86.812762">
        <ele>4116.6</ele>
        <time>2022-10-28T04:02:11.000Z</time>
      </trkpt>
      <trkpt lat="27.872291" lon="86.812742">
        <ele>4116.8</ele>
        <time>2022-10-28T04:02:13.000Z</time>
      </trkpt>
      <trkpt lat="27.872272" lon="86.812736">
        <ele>4116.8</ele>
        <time>2022-10-28T04:02:15.000Z</time>
      </trkpt>
      <trkpt lat="27.87225" lon="86.812723">
        <ele>4116.6</ele>
        <time>2022-10-28T04:02:17.000Z</time>
      </trkpt>
      <trkpt lat="27.872227" lon="86.812723">
        <ele>4116.2</ele>
        <time>2022-10-28T04:02:19.000Z</time>
      </trkpt>
      <trkpt lat="27.872208" lon="86.812717">
        <ele>4116.4</ele>
        <time>2022-10-28T04:02:21.000Z</time>
      </trkpt>
      <trkpt lat="27.872189" lon="86.812698">
        <ele>4115.8</ele>
        <time>2022-10-28T04:02:23.000Z</time>
      </trkpt>
      <trkpt lat="27.872166" lon="86.812685">
        <ele>4115.8</ele>
        <time>2022-10-28T04:02:25.000Z</time>
      </trkpt>
      <trkpt lat="27.872144" lon="86.812666">
        <ele>4115.8</ele>
        <time>2022-10-28T04:02:28.000Z</time>
      </trkpt>
      <trkpt lat="27.872125" lon="86.812659">
        <ele>4115.8</ele>
        <time>2022-10-28T04:02:30.000Z</time>
      </trkpt>
      <trkpt lat="27.872106" lon="86.812646">
        <ele>4115.8</ele>
        <time>2022-10-28T04:02:32.000Z</time>
      </trkpt>
      <trkpt lat="27.872086" lon="86.812646">
        <ele>4115.6</ele>
        <time>2022-10-28T04:02:34.000Z</time>
      </trkpt>
      <trkpt lat="27.872067" lon="86.812627">
        <ele>4115.8</ele>
        <time>2022-10-28T04:02:36.000Z</time>
      </trkpt>
      <trkpt lat="27.872048" lon="86.812621">
        <ele>4115.8</ele>
        <time>2022-10-28T04:02:38.000Z</time>
      </trkpt>
      <trkpt lat="27.872022" lon="86.812608">
        <ele>4115.4</ele>
        <time>2022-10-28T04:02:41.000Z</time>
      </trkpt>
      <trkpt lat="27.872003" lon="86.812602">
        <ele>4115</ele>
        <time>2022-10-28T04:02:43.000Z</time>
      </trkpt>
      <trkpt lat="27.871978" lon="86.812589">
        <ele>4115</ele>
        <time>2022-10-28T04:02:45.000Z</time>
      </trkpt>
      <trkpt lat="27.871955" lon="86.812576">
        <ele>4115</ele>
        <time>2022-10-28T04:02:47.000Z</time>
      </trkpt>
      <trkpt lat="27.871933" lon="86.812563">
        <ele>4114.8</ele>
        <time>2022-10-28T04:02:50.000Z</time>
      </trkpt>
      <trkpt lat="27.871914" lon="86.812544">
        <ele>4114.8</ele>
        <time>2022-10-28T04:02:52.000Z</time>
      </trkpt>
      <trkpt lat="27.871888" lon="86.812538">
        <ele>4114.8</ele>
        <time>2022-10-28T04:02:55.000Z</time>
      </trkpt>
      <trkpt lat="27.871869" lon="86.812531">
        <ele>4114.8</ele>
        <time>2022-10-28T04:02:57.000Z</time>
      </trkpt>
      <trkpt lat="27.871843" lon="86.812525">
        <ele>4115.4</ele>
        <time>2022-10-28T04:03:00.000Z</time>
      </trkpt>
      <trkpt lat="27.871821" lon="86.812525">
        <ele>4115</ele>
        <time>2022-10-28T04:03:03.000Z</time>
      </trkpt>
      <trkpt lat="27.871798" lon="86.812525">
        <ele>4115</ele>
        <time>2022-10-28T04:03:05.000Z</time>
      </trkpt>
      <trkpt lat="27.871779" lon="86.812518">
        <ele>4114.8</ele>
        <time>2022-10-28T04:03:07.000Z</time>
      </trkpt>
      <trkpt lat="27.871757" lon="86.812499">
        <ele>4114.4</ele>
        <time>2022-10-28T04:03:09.000Z</time>
      </trkpt>
      <trkpt lat="27.871738" lon="86.81248">
        <ele>4113.6</ele>
        <time>2022-10-28T04:03:12.000Z</time>
      </trkpt>
      <trkpt lat="27.871731" lon="86.812461">
        <ele>4113.6</ele>
        <time>2022-10-28T04:03:13.000Z</time>
      </trkpt>
      <trkpt lat="27.871715" lon="86.812448">
        <ele>4113.4</ele>
        <time>2022-10-28T04:03:15.000Z</time>
      </trkpt>
      <trkpt lat="27.871709" lon="86.812429">
        <ele>4113.6</ele>
        <time>2022-10-28T04:03:16.000Z</time>
      </trkpt>
      <trkpt lat="27.87169" lon="86.812422">
        <ele>4113.6</ele>
        <time>2022-10-28T04:03:18.000Z</time>
      </trkpt>
      <trkpt lat="27.87167" lon="86.812422">
        <ele>4112.8</ele>
        <time>2022-10-28T04:03:20.000Z</time>
      </trkpt>
      <trkpt lat="27.871648" lon="86.81241">
        <ele>4112.8</ele>
        <time>2022-10-28T04:03:23.000Z</time>
      </trkpt>
      <trkpt lat="27.871622" lon="86.81239">
        <ele>4112.8</ele>
        <time>2022-10-28T04:03:25.000Z</time>
      </trkpt>
      <trkpt lat="27.8716" lon="86.812378">
        <ele>4112.8</ele>
        <time>2022-10-28T04:03:28.000Z</time>
      </trkpt>
      <trkpt lat="27.871581" lon="86.812371">
        <ele>4113.2</ele>
        <time>2022-10-28T04:03:30.000Z</time>
      </trkpt>
      <trkpt lat="27.871558" lon="86.812365">
        <ele>4112.6</ele>
        <time>2022-10-28T04:03:32.000Z</time>
      </trkpt>
      <trkpt lat="27.871539" lon="86.812352">
        <ele>4112.2</ele>
        <time>2022-10-28T04:03:34.000Z</time>
      </trkpt>
      <trkpt lat="27.87152" lon="86.812339">
        <ele>4112.2</ele>
        <time>2022-10-28T04:03:36.000Z</time>
      </trkpt>
      <trkpt lat="27.871501" lon="86.81232">
        <ele>4111.6</ele>
        <time>2022-10-28T04:03:39.000Z</time>
      </trkpt>
      <trkpt lat="27.871491" lon="86.812294">
        <ele>4111.8</ele>
        <time>2022-10-28T04:03:41.000Z</time>
      </trkpt>
      <trkpt lat="27.871478" lon="86.812262">
        <ele>4111.6</ele>
        <time>2022-10-28T04:03:44.000Z</time>
      </trkpt>
      <trkpt lat="27.871478" lon="86.81223">
        <ele>4111.2</ele>
        <time>2022-10-28T04:03:46.000Z</time>
      </trkpt>
      <trkpt lat="27.871469" lon="86.812211">
        <ele>4110.8</ele>
        <time>2022-10-28T04:03:48.000Z</time>
      </trkpt>
      <trkpt lat="27.871462" lon="86.812186">
        <ele>4110.6</ele>
        <time>2022-10-28T04:03:50.000Z</time>
      </trkpt>
      <trkpt lat="27.871443" lon="86.812166">
        <ele>4110.8</ele>
        <time>2022-10-28T04:03:53.000Z</time>
      </trkpt>
      <trkpt lat="27.87143" lon="86.812147">
        <ele>4110.8</ele>
        <time>2022-10-28T04:03:55.000Z</time>
      </trkpt>
      <trkpt lat="27.871408" lon="86.812134">
        <ele>4110.8</ele>
        <time>2022-10-28T04:03:57.000Z</time>
      </trkpt>
      <trkpt lat="27.871389" lon="86.812109">
        <ele>4110.6</ele>
        <time>2022-10-28T04:03:59.000Z</time>
      </trkpt>
      <trkpt lat="27.871363" lon="86.812096">
        <ele>4109.8</ele>
        <time>2022-10-28T04:04:02.000Z</time>
      </trkpt>
      <trkpt lat="27.871347" lon="86.812083">
        <ele>4108.8</ele>
        <time>2022-10-28T04:04:04.000Z</time>
      </trkpt>
      <trkpt lat="27.871331" lon="86.812064">
        <ele>4108.4</ele>
        <time>2022-10-28T04:04:06.000Z</time>
      </trkpt>
      <trkpt lat="27.871309" lon="86.812058">
        <ele>4108.4</ele>
        <time>2022-10-28T04:04:08.000Z</time>
      </trkpt>
      <trkpt lat="27.871293" lon="86.812045">
        <ele>4107.8</ele>
        <time>2022-10-28T04:04:10.000Z</time>
      </trkpt>
      <trkpt lat="27.87127" lon="86.812045">
        <ele>4107.8</ele>
        <time>2022-10-28T04:04:12.000Z</time>
      </trkpt>
      <trkpt lat="27.871254" lon="86.812026">
        <ele>4107.6</ele>
        <time>2022-10-28T04:04:14.000Z</time>
      </trkpt>
      <trkpt lat="27.871235" lon="86.812019">
        <ele>4107.6</ele>
        <time>2022-10-28T04:04:16.000Z</time>
      </trkpt>
      <trkpt lat="27.871216" lon="86.812006">
        <ele>4107.8</ele>
        <time>2022-10-28T04:04:18.000Z</time>
      </trkpt>
      <trkpt lat="27.871197" lon="86.811994">
        <ele>4107</ele>
        <time>2022-10-28T04:04:20.000Z</time>
      </trkpt>
      <trkpt lat="27.871174" lon="86.811981">
        <ele>4107</ele>
        <time>2022-10-28T04:04:22.000Z</time>
      </trkpt>
      <trkpt lat="27.871155" lon="86.811974">
        <ele>4107.2</ele>
        <time>2022-10-28T04:04:24.000Z</time>
      </trkpt>
      <trkpt lat="27.871136" lon="86.811974">
        <ele>4107.2</ele>
        <time>2022-10-28T04:04:26.000Z</time>
      </trkpt>
      <trkpt lat="27.871117" lon="86.811955">
        <ele>4106.8</ele>
        <time>2022-10-28T04:04:29.000Z</time>
      </trkpt>
      <trkpt lat="27.871094" lon="86.811949">
        <ele>4107</ele>
        <time>2022-10-28T04:04:59.000Z</time>
      </trkpt>
      <trkpt lat="27.871062" lon="86.811936">
        <ele>4106.6</ele>
        <time>2022-10-28T04:05:21.000Z</time>
      </trkpt>
      <trkpt lat="27.871053" lon="86.81191">
        <ele>4106.4</ele>
        <time>2022-10-28T04:05:23.000Z</time>
      </trkpt>
      <trkpt lat="27.87103" lon="86.811891">
        <ele>4106.6</ele>
        <time>2022-10-28T04:05:28.000Z</time>
      </trkpt>
      <trkpt lat="27.871008" lon="86.811891">
        <ele>4106.4</ele>
        <time>2022-10-28T04:05:31.000Z</time>
      </trkpt>
      <trkpt lat="27.870992" lon="86.811872">
        <ele>4106.6</ele>
        <time>2022-10-28T04:05:33.000Z</time>
      </trkpt>
      <trkpt lat="27.870976" lon="86.811859">
        <ele>4106.8</ele>
        <time>2022-10-28T04:05:35.000Z</time>
      </trkpt>
      <trkpt lat="27.870957" lon="86.811846">
        <ele>4106.6</ele>
        <time>2022-10-28T04:05:37.000Z</time>
      </trkpt>
      <trkpt lat="27.870941" lon="86.811834">
        <ele>4106.6</ele>
        <time>2022-10-28T04:05:40.000Z</time>
      </trkpt>
      <trkpt lat="27.870918" lon="86.811827">
        <ele>4105.8</ele>
        <time>2022-10-28T04:05:43.000Z</time>
      </trkpt>
      <trkpt lat="27.870896" lon="86.811821">
        <ele>4104.8</ele>
        <time>2022-10-28T04:05:45.000Z</time>
      </trkpt>
      <trkpt lat="27.870877" lon="86.811814">
        <ele>4104.4</ele>
        <time>2022-10-28T04:05:47.000Z</time>
      </trkpt>
      <trkpt lat="27.870858" lon="86.811808">
        <ele>4105.2</ele>
        <time>2022-10-28T04:05:49.000Z</time>
      </trkpt>
      <trkpt lat="27.870838" lon="86.811808">
        <ele>4105.6</ele>
        <time>2022-10-28T04:05:51.000Z</time>
      </trkpt>
      <trkpt lat="27.870819" lon="86.811795">
        <ele>4105.4</ele>
        <time>2022-10-28T04:05:53.000Z</time>
      </trkpt>
      <trkpt lat="27.870797" lon="86.811789">
        <ele>4105.4</ele>
        <time>2022-10-28T04:05:55.000Z</time>
      </trkpt>
      <trkpt lat="27.870781" lon="86.811776">
        <ele>4105.4</ele>
        <time>2022-10-28T04:05:57.000Z</time>
      </trkpt>
      <trkpt lat="27.870771" lon="86.811757">
        <ele>4104.8</ele>
        <time>2022-10-28T04:05:58.000Z</time>
      </trkpt>
      <trkpt lat="27.870755" lon="86.811744">
        <ele>4104.6</ele>
        <time>2022-10-28T04:06:00.000Z</time>
      </trkpt>
      <trkpt lat="27.870739" lon="86.811731">
        <ele>4104.8</ele>
        <time>2022-10-28T04:06:02.000Z</time>
      </trkpt>
      <trkpt lat="27.870723" lon="86.811712">
        <ele>4104.8</ele>
        <time>2022-10-28T04:06:04.000Z</time>
      </trkpt>
      <trkpt lat="27.870714" lon="86.811693">
        <ele>4105</ele>
        <time>2022-10-28T04:06:06.000Z</time>
      </trkpt>
      <trkpt lat="27.870704" lon="86.811674">
        <ele>4105</ele>
        <time>2022-10-28T04:06:08.000Z</time>
      </trkpt>
      <trkpt lat="27.870682" lon="86.811654">
        <ele>4104.8</ele>
        <time>2022-10-28T04:06:12.000Z</time>
      </trkpt>
      <trkpt lat="27.870666" lon="86.811629">
        <ele>4105</ele>
        <time>2022-10-28T04:06:14.000Z</time>
      </trkpt>
      <trkpt lat="27.870656" lon="86.811597">
        <ele>4104.6</ele>
        <time>2022-10-28T04:06:17.000Z</time>
      </trkpt>
      <trkpt lat="27.870646" lon="86.811578">
        <ele>4104.6</ele>
        <time>2022-10-28T04:06:19.000Z</time>
      </trkpt>
      <trkpt lat="27.870634" lon="86.811552">
        <ele>4104.6</ele>
        <time>2022-10-28T04:06:21.000Z</time>
      </trkpt>
      <trkpt lat="27.870614" lon="86.811533">
        <ele>4104.2</ele>
        <time>2022-10-28T04:06:24.000Z</time>
      </trkpt>
      <trkpt lat="27.870605" lon="86.811514">
        <ele>4103.8</ele>
        <time>2022-10-28T04:06:25.000Z</time>
      </trkpt>
      <trkpt lat="27.870586" lon="86.811494">
        <ele>4103.4</ele>
        <time>2022-10-28T04:06:28.000Z</time>
      </trkpt>
      <trkpt lat="27.87056" lon="86.811488">
        <ele>4103.8</ele>
        <time>2022-10-28T04:06:31.000Z</time>
      </trkpt>
      <trkpt lat="27.870541" lon="86.811488">
        <ele>4103.4</ele>
        <time>2022-10-28T04:06:33.000Z</time>
      </trkpt>
      <trkpt lat="27.870512" lon="86.811475">
        <ele>4103</ele>
        <time>2022-10-28T04:06:35.000Z</time>
      </trkpt>
      <trkpt lat="27.870486" lon="86.811475">
        <ele>4102.4</ele>
        <time>2022-10-28T04:06:37.000Z</time>
      </trkpt>
      <trkpt lat="27.870464" lon="86.811469">
        <ele>4102.2</ele>
        <time>2022-10-28T04:06:39.000Z</time>
      </trkpt>
      <trkpt lat="27.870445" lon="86.811456">
        <ele>4102.2</ele>
        <time>2022-10-28T04:06:41.000Z</time>
      </trkpt>
      <trkpt lat="27.870426" lon="86.811437">
        <ele>4102.2</ele>
        <time>2022-10-28T04:06:43.000Z</time>
      </trkpt>
      <trkpt lat="27.870406" lon="86.811424">
        <ele>4102</ele>
        <time>2022-10-28T04:06:45.000Z</time>
      </trkpt>
      <trkpt lat="27.870384" lon="86.811411">
        <ele>4102</ele>
        <time>2022-10-28T04:06:47.000Z</time>
      </trkpt>
      <trkpt lat="27.870365" lon="86.811398">
        <ele>4102.2</ele>
        <time>2022-10-28T04:06:49.000Z</time>
      </trkpt>
      <trkpt lat="27.870346" lon="86.811386">
        <ele>4102</ele>
        <time>2022-10-28T04:06:51.000Z</time>
      </trkpt>
      <trkpt lat="27.870333" lon="86.811366">
        <ele>4102</ele>
        <time>2022-10-28T04:06:53.000Z</time>
      </trkpt>
      <trkpt lat="27.870317" lon="86.811347">
        <ele>4101.6</ele>
        <time>2022-10-28T04:06:55.000Z</time>
      </trkpt>
      <trkpt lat="27.870294" lon="86.811334">
        <ele>4101.6</ele>
        <time>2022-10-28T04:06:57.000Z</time>
      </trkpt>
      <trkpt lat="27.870278" lon="86.811315">
        <ele>4101.4</ele>
        <time>2022-10-28T04:06:59.000Z</time>
      </trkpt>
      <trkpt lat="27.870262" lon="86.811302">
        <ele>4101.4</ele>
        <time>2022-10-28T04:07:01.000Z</time>
      </trkpt>
      <trkpt lat="27.870237" lon="86.81129">
        <ele>4101.4</ele>
        <time>2022-10-28T04:07:04.000Z</time>
      </trkpt>
      <trkpt lat="27.870218" lon="86.81127">
        <ele>4101</ele>
        <time>2022-10-28T04:07:06.000Z</time>
      </trkpt>
      <trkpt lat="27.870195" lon="86.811251">
        <ele>4101</ele>
        <time>2022-10-28T04:07:09.000Z</time>
      </trkpt>
      <trkpt lat="27.870176" lon="86.811232">
        <ele>4101</ele>
        <time>2022-10-28T04:07:11.000Z</time>
      </trkpt>
      <trkpt lat="27.870157" lon="86.811226">
        <ele>4100.6</ele>
        <time>2022-10-28T04:07:13.000Z</time>
      </trkpt>
      <trkpt lat="27.870138" lon="86.811213">
        <ele>4100.6</ele>
        <time>2022-10-28T04:07:15.000Z</time>
      </trkpt>
      <trkpt lat="27.870118" lon="86.8112">
        <ele>4100.4</ele>
        <time>2022-10-28T04:07:17.000Z</time>
      </trkpt>
      <trkpt lat="27.870099" lon="86.811181">
        <ele>4100.2</ele>
        <time>2022-10-28T04:07:19.000Z</time>
      </trkpt>
      <trkpt lat="27.87008" lon="86.811155">
        <ele>4100.4</ele>
        <time>2022-10-28T04:07:22.000Z</time>
      </trkpt>
      <trkpt lat="27.870061" lon="86.811142">
        <ele>4100.6</ele>
        <time>2022-10-28T04:07:24.000Z</time>
      </trkpt>
      <trkpt lat="27.870042" lon="86.811136">
        <ele>4101.2</ele>
        <time>2022-10-28T04:07:27.000Z</time>
      </trkpt>
      <trkpt lat="27.870022" lon="86.811136">
        <ele>4101.6</ele>
        <time>2022-10-28T04:07:29.000Z</time>
      </trkpt>
      <trkpt lat="27.87" lon="86.81113">
        <ele>4100.8</ele>
        <time>2022-10-28T04:07:32.000Z</time>
      </trkpt>
      <trkpt lat="27.869994" lon="86.81111">
        <ele>4100.6</ele>
        <time>2022-10-28T04:07:34.000Z</time>
      </trkpt>
      <trkpt lat="27.869981" lon="86.811091">
        <ele>4100.2</ele>
        <time>2022-10-28T04:07:37.000Z</time>
      </trkpt>
      <trkpt lat="27.869962" lon="86.811072">
        <ele>4100.2</ele>
        <time>2022-10-28T04:07:40.000Z</time>
      </trkpt>
      <trkpt lat="27.869949" lon="86.811053">
        <ele>4099.8</ele>
        <time>2022-10-28T04:07:42.000Z</time>
      </trkpt>
      <trkpt lat="27.869939" lon="86.811034">
        <ele>4099.8</ele>
        <time>2022-10-28T04:07:44.000Z</time>
      </trkpt>
      <trkpt lat="27.869923" lon="86.811014">
        <ele>4099.8</ele>
        <time>2022-10-28T04:07:47.000Z</time>
      </trkpt>
      <trkpt lat="27.86991" lon="86.810995">
        <ele>4099.8</ele>
        <time>2022-10-28T04:07:49.000Z</time>
      </trkpt>
      <trkpt lat="27.869894" lon="86.810982">
        <ele>4100</ele>
        <time>2022-10-28T04:07:52.000Z</time>
      </trkpt>
      <trkpt lat="27.869875" lon="86.81097">
        <ele>4099.8</ele>
        <time>2022-10-28T04:18:36.000Z</time>
      </trkpt>
      <trkpt lat="27.869862" lon="86.81095">
        <ele>4100</ele>
        <time>2022-10-28T04:18:37.000Z</time>
      </trkpt>
      <trkpt lat="27.869843" lon="86.810931">
        <ele>4100</ele>
        <time>2022-10-28T04:18:39.000Z</time>
      </trkpt>
      <trkpt lat="27.86983" lon="86.810912">
        <ele>4100</ele>
        <time>2022-10-28T04:18:40.000Z</time>
      </trkpt>
      <trkpt lat="27.869811" lon="86.810893">
        <ele>4099.8</ele>
        <time>2022-10-28T04:18:42.000Z</time>
      </trkpt>
      <trkpt lat="27.869795" lon="86.810874">
        <ele>4099.8</ele>
        <time>2022-10-28T04:18:43.000Z</time>
      </trkpt>
      <trkpt lat="27.869782" lon="86.810854">
        <ele>4099.8</ele>
        <time>2022-10-28T04:18:45.000Z</time>
      </trkpt>
      <trkpt lat="27.869763" lon="86.810842">
        <ele>4100.6</ele>
        <time>2022-10-28T04:18:49.000Z</time>
      </trkpt>
      <trkpt lat="27.869757" lon="86.810822">
        <ele>4100.6</ele>
        <time>2022-10-28T04:19:00.000Z</time>
      </trkpt>
      <trkpt lat="27.869741" lon="86.810803">
        <ele>4101</ele>
        <time>2022-10-28T04:19:05.000Z</time>
      </trkpt>
      <trkpt lat="27.869722" lon="86.810803">
        <ele>4100.8</ele>
        <time>2022-10-28T04:19:08.000Z</time>
      </trkpt>
      <trkpt lat="27.869706" lon="86.81079">
        <ele>4101</ele>
        <time>2022-10-28T04:19:11.000Z</time>
      </trkpt>
      <trkpt lat="27.869683" lon="86.810778">
        <ele>4101.4</ele>
        <time>2022-10-28T04:19:13.000Z</time>
      </trkpt>
      <trkpt lat="27.869674" lon="86.810758">
        <ele>4101</ele>
        <time>2022-10-28T04:19:15.000Z</time>
      </trkpt>
      <trkpt lat="27.869645" lon="86.810746">
        <ele>4101.4</ele>
        <time>2022-10-28T04:19:18.000Z</time>
      </trkpt>
      <trkpt lat="27.869626" lon="86.810733">
        <ele>4100.8</ele>
        <time>2022-10-28T04:19:20.000Z</time>
      </trkpt>
      <trkpt lat="27.869613" lon="86.810714">
        <ele>4100.6</ele>
        <time>2022-10-28T04:19:22.000Z</time>
      </trkpt>
      <trkpt lat="27.869594" lon="86.810694">
        <ele>4101.4</ele>
        <time>2022-10-28T04:19:25.000Z</time>
      </trkpt>
      <trkpt lat="27.869571" lon="86.810682">
        <ele>4101.6</ele>
        <time>2022-10-28T04:19:28.000Z</time>
      </trkpt>
      <trkpt lat="27.869552" lon="86.810675">
        <ele>4101.6</ele>
        <time>2022-10-28T04:19:31.000Z</time>
      </trkpt>
      <trkpt lat="27.869536" lon="86.810662">
        <ele>4101.6</ele>
        <time>2022-10-28T04:19:35.000Z</time>
      </trkpt>
      <trkpt lat="27.869526" lon="86.810643">
        <ele>4101.8</ele>
        <time>2022-10-28T04:19:37.000Z</time>
      </trkpt>
      <trkpt lat="27.869507" lon="86.81063">
        <ele>4101.6</ele>
        <time>2022-10-28T04:19:40.000Z</time>
      </trkpt>
      <trkpt lat="27.869485" lon="86.810618">
        <ele>4102.2</ele>
        <time>2022-10-28T04:19:43.000Z</time>
      </trkpt>
      <trkpt lat="27.869469" lon="86.810598">
        <ele>4102.6</ele>
        <time>2022-10-28T04:19:46.000Z</time>
      </trkpt>
      <trkpt lat="27.869462" lon="86.810579">
        <ele>4102.8</ele>
        <time>2022-10-28T04:19:49.000Z</time>
      </trkpt>
      <trkpt lat="27.869443" lon="86.810573">
        <ele>4103.4</ele>
        <time>2022-10-28T04:19:53.000Z</time>
      </trkpt>
      <trkpt lat="27.869427" lon="86.810554">
        <ele>4104.2</ele>
        <time>2022-10-28T04:19:55.000Z</time>
      </trkpt>
      <trkpt lat="27.869405" lon="86.810541">
        <ele>4103.8</ele>
        <time>2022-10-28T04:19:58.000Z</time>
      </trkpt>
      <trkpt lat="27.869395" lon="86.810522">
        <ele>4103.6</ele>
        <time>2022-10-28T04:20:00.000Z</time>
      </trkpt>
      <trkpt lat="27.869379" lon="86.810502">
        <ele>4103.8</ele>
        <time>2022-10-28T04:20:03.000Z</time>
      </trkpt>
      <trkpt lat="27.869366" lon="86.810483">
        <ele>4103.6</ele>
        <time>2022-10-28T04:20:05.000Z</time>
      </trkpt>
      <trkpt lat="27.869347" lon="86.81047">
        <ele>4104.2</ele>
        <time>2022-10-28T04:20:08.000Z</time>
      </trkpt>
      <trkpt lat="27.869331" lon="86.810445">
        <ele>4104.4</ele>
        <time>2022-10-28T04:20:11.000Z</time>
      </trkpt>
      <trkpt lat="27.869315" lon="86.810432">
        <ele>4104.6</ele>
        <time>2022-10-28T04:20:14.000Z</time>
      </trkpt>
      <trkpt lat="27.869306" lon="86.810406">
        <ele>4106.2</ele>
        <time>2022-10-28T04:20:52.000Z</time>
      </trkpt>
      <trkpt lat="27.869293" lon="86.810387">
        <ele>4106.2</ele>
        <time>2022-10-28T04:20:55.000Z</time>
      </trkpt>
      <trkpt lat="27.869286" lon="86.810355">
        <ele>4105.8</ele>
        <time>2022-10-28T04:20:57.000Z</time>
      </trkpt>
      <trkpt lat="27.86928" lon="86.810323">
        <ele>4105.4</ele>
        <time>2022-10-28T04:20:59.000Z</time>
      </trkpt>
      <trkpt lat="27.869264" lon="86.81031">
        <ele>4105.4</ele>
        <time>2022-10-28T04:21:01.000Z</time>
      </trkpt>
      <trkpt lat="27.869248" lon="86.810298">
        <ele>4105.8</ele>
        <time>2022-10-28T04:21:03.000Z</time>
      </trkpt>
      <trkpt lat="27.869229" lon="86.810278">
        <ele>4106</ele>
        <time>2022-10-28T04:21:07.000Z</time>
      </trkpt>
      <trkpt lat="27.869219" lon="86.81024">
        <ele>4108.2</ele>
        <time>2022-10-28T04:21:10.000Z</time>
      </trkpt>
      <trkpt lat="27.86921" lon="86.810221">
        <ele>4106</ele>
        <time>2022-10-28T04:21:13.000Z</time>
      </trkpt>
      <trkpt lat="27.869203" lon="86.810195">
        <ele>4106</ele>
        <time>2022-10-28T04:21:15.000Z</time>
      </trkpt>
      <trkpt lat="27.869197" lon="86.810163">
        <ele>4106</ele>
        <time>2022-10-28T04:21:18.000Z</time>
      </trkpt>
      <trkpt lat="27.869184" lon="86.810144">
        <ele>4105.8</ele>
        <time>2022-10-28T04:21:21.000Z</time>
      </trkpt>
      <trkpt lat="27.869168" lon="86.810125">
        <ele>4106</ele>
        <time>2022-10-28T04:21:24.000Z</time>
      </trkpt>
      <trkpt lat="27.869152" lon="86.810099">
        <ele>4106.4</ele>
        <time>2022-10-28T04:21:27.000Z</time>
      </trkpt>
      <trkpt lat="27.869139" lon="86.81008">
        <ele>4106</ele>
        <time>2022-10-28T04:21:29.000Z</time>
      </trkpt>
      <trkpt lat="27.869126" lon="86.810061">
        <ele>4105.6</ele>
        <time>2022-10-28T04:21:31.000Z</time>
      </trkpt>
      <trkpt lat="27.86911" lon="86.810042">
        <ele>4105.4</ele>
        <time>2022-10-28T04:21:33.000Z</time>
      </trkpt>
      <trkpt lat="27.869094" lon="86.810029">
        <ele>4104.8</ele>
        <time>2022-10-28T04:21:35.000Z</time>
      </trkpt>
      <trkpt lat="27.869075" lon="86.810003">
        <ele>4105</ele>
        <time>2022-10-28T04:21:38.000Z</time>
      </trkpt>
      <trkpt lat="27.869069" lon="86.809984">
        <ele>4104.8</ele>
        <time>2022-10-28T04:21:40.000Z</time>
      </trkpt>
      <trkpt lat="27.869056" lon="86.809965">
        <ele>4104.6</ele>
        <time>2022-10-28T04:21:42.000Z</time>
      </trkpt>
      <trkpt lat="27.869037" lon="86.809952">
        <ele>4104.6</ele>
        <time>2022-10-28T04:21:44.000Z</time>
      </trkpt>
      <trkpt lat="27.869021" lon="86.809926">
        <ele>4104</ele>
        <time>2022-10-28T04:22:05.000Z</time>
      </trkpt>
      <trkpt lat="27.869005" lon="86.809914">
        <ele>4104.2</ele>
        <time>2022-10-28T04:22:07.000Z</time>
      </trkpt>
      <trkpt lat="27.868979" lon="86.809888">
        <ele>4104.2</ele>
        <time>2022-10-28T04:22:09.000Z</time>
      </trkpt>
      <trkpt lat="27.86896" lon="86.809869">
        <ele>4104</ele>
        <time>2022-10-28T04:22:11.000Z</time>
      </trkpt>
      <trkpt lat="27.868954" lon="86.80985">
        <ele>4103.4</ele>
        <time>2022-10-28T04:22:12.000Z</time>
      </trkpt>
      <trkpt lat="27.868941" lon="86.80983">
        <ele>4103.4</ele>
        <time>2022-10-28T04:22:14.000Z</time>
      </trkpt>
      <trkpt lat="27.868925" lon="86.809805">
        <ele>4103</ele>
        <time>2022-10-28T04:22:16.000Z</time>
      </trkpt>
      <trkpt lat="27.868906" lon="86.809792">
        <ele>4102.4</ele>
        <time>2022-10-28T04:22:18.000Z</time>
      </trkpt>
      <trkpt lat="27.86888" lon="86.809779">
        <ele>4103.4</ele>
        <time>2022-10-28T04:22:21.000Z</time>
      </trkpt>
      <trkpt lat="27.868858" lon="86.809766">
        <ele>4103.2</ele>
        <time>2022-10-28T04:22:23.000Z</time>
      </trkpt>
      <trkpt lat="27.868842" lon="86.809754">
        <ele>4103</ele>
        <time>2022-10-28T04:22:25.000Z</time>
      </trkpt>
      <trkpt lat="27.868829" lon="86.809728">
        <ele>4102.4</ele>
        <time>2022-10-28T04:22:29.000Z</time>
      </trkpt>
      <trkpt lat="27.868816" lon="86.809709">
        <ele>4102.6</ele>
        <time>2022-10-28T04:22:32.000Z</time>
      </trkpt>
      <trkpt lat="27.86881" lon="86.80969">
        <ele>4102.4</ele>
        <time>2022-10-28T04:22:36.000Z</time>
      </trkpt>
      <trkpt lat="27.868803" lon="86.809664">
        <ele>4102.2</ele>
        <time>2022-10-28T04:22:40.000Z</time>
      </trkpt>
      <trkpt lat="27.868797" lon="86.809638">
        <ele>4102.2</ele>
        <time>2022-10-28T04:22:43.000Z</time>
      </trkpt>
      <trkpt lat="27.86879" lon="86.8096">
        <ele>4102.2</ele>
        <time>2022-10-28T04:22:46.000Z</time>
      </trkpt>
      <trkpt lat="27.86879" lon="86.809568">
        <ele>4101.6</ele>
        <time>2022-10-28T04:22:49.000Z</time>
      </trkpt>
      <trkpt lat="27.868787" lon="86.809542">
        <ele>4101.4</ele>
        <time>2022-10-28T04:22:52.000Z</time>
      </trkpt>
      <trkpt lat="27.868781" lon="86.809523">
        <ele>4101.4</ele>
        <time>2022-10-28T04:22:53.000Z</time>
      </trkpt>
      <trkpt lat="27.868758" lon="86.809504">
        <ele>4100.6</ele>
        <time>2022-10-28T04:22:56.000Z</time>
      </trkpt>
      <trkpt lat="27.868736" lon="86.809478">
        <ele>4100</ele>
        <time>2022-10-28T04:22:58.000Z</time>
      </trkpt>
      <trkpt lat="27.86872" lon="86.809466">
        <ele>4099</ele>
        <time>2022-10-28T04:23:00.000Z</time>
      </trkpt>
      <trkpt lat="27.868707" lon="86.80944">
        <ele>4098.6</ele>
        <time>2022-10-28T04:23:02.000Z</time>
      </trkpt>
      <trkpt lat="27.868691" lon="86.809408">
        <ele>4098.8</ele>
        <time>2022-10-28T04:23:04.000Z</time>
      </trkpt>
      <trkpt lat="27.868688" lon="86.809382">
        <ele>4098.6</ele>
        <time>2022-10-28T04:23:07.000Z</time>
      </trkpt>
      <trkpt lat="27.868685" lon="86.809357">
        <ele>4098.6</ele>
        <time>2022-10-28T04:23:09.000Z</time>
      </trkpt>
      <trkpt lat="27.868678" lon="86.809331">
        <ele>4099</ele>
        <time>2022-10-28T04:23:11.000Z</time>
      </trkpt>
      <trkpt lat="27.868672" lon="86.809312">
        <ele>4098.8</ele>
        <time>2022-10-28T04:23:13.000Z</time>
      </trkpt>
      <trkpt lat="27.868662" lon="86.809286">
        <ele>4098.4</ele>
        <time>2022-10-28T04:23:15.000Z</time>
      </trkpt>
      <trkpt lat="27.868653" lon="86.809267">
        <ele>4098</ele>
        <time>2022-10-28T04:23:17.000Z</time>
      </trkpt>
      <trkpt lat="27.86865" lon="86.809242">
        <ele>4097.8</ele>
        <time>2022-10-28T04:23:19.000Z</time>
      </trkpt>
      <trkpt lat="27.868634" lon="86.809222">
        <ele>4097.8</ele>
        <time>2022-10-28T04:23:21.000Z</time>
      </trkpt>
      <trkpt lat="27.868624" lon="86.809197">
        <ele>4097.2</ele>
        <time>2022-10-28T04:23:23.000Z</time>
      </trkpt>
      <trkpt lat="27.868611" lon="86.809171">
        <ele>4097.2</ele>
        <time>2022-10-28T04:23:25.000Z</time>
      </trkpt>
      <trkpt lat="27.868605" lon="86.809146">
        <ele>4097.2</ele>
        <time>2022-10-28T04:23:28.000Z</time>
      </trkpt>
      <trkpt lat="27.868602" lon="86.80912">
        <ele>4097.8</ele>
        <time>2022-10-28T04:23:30.000Z</time>
      </trkpt>
      <trkpt lat="27.868592" lon="86.809094">
        <ele>4098</ele>
        <time>2022-10-28T04:23:32.000Z</time>
      </trkpt>
      <trkpt lat="27.868579" lon="86.809075">
        <ele>4098.4</ele>
        <time>2022-10-28T04:23:34.000Z</time>
      </trkpt>
      <trkpt lat="27.86857" lon="86.80905">
        <ele>4098.4</ele>
        <time>2022-10-28T04:23:36.000Z</time>
      </trkpt>
      <trkpt lat="27.86857" lon="86.809024">
        <ele>4098.8</ele>
        <time>2022-10-28T04:23:39.000Z</time>
      </trkpt>
      <trkpt lat="27.868566" lon="86.808998">
        <ele>4098.4</ele>
        <time>2022-10-28T04:23:41.000Z</time>
      </trkpt>
      <trkpt lat="27.868563" lon="86.808966">
        <ele>4098</ele>
        <time>2022-10-28T04:23:43.000Z</time>
      </trkpt>
      <trkpt lat="27.86856" lon="86.808934">
        <ele>4097.2</ele>
        <time>2022-10-28T04:23:46.000Z</time>
      </trkpt>
      <trkpt lat="27.86855" lon="86.808915">
        <ele>4097.4</ele>
        <time>2022-10-28T04:23:48.000Z</time>
      </trkpt>
      <trkpt lat="27.868538" lon="86.80889">
        <ele>4097.2</ele>
        <time>2022-10-28T04:23:50.000Z</time>
      </trkpt>
      <trkpt lat="27.868525" lon="86.80887">
        <ele>4097.2</ele>
        <time>2022-10-28T04:23:52.000Z</time>
      </trkpt>
      <trkpt lat="27.868515" lon="86.808845">
        <ele>4098.2</ele>
        <time>2022-10-28T04:23:54.000Z</time>
      </trkpt>
      <trkpt lat="27.868506" lon="86.808826">
        <ele>4098.2</ele>
        <time>2022-10-28T04:23:56.000Z</time>
      </trkpt>
      <trkpt lat="27.868502" lon="86.8088">
        <ele>4097.4</ele>
        <time>2022-10-28T04:23:58.000Z</time>
      </trkpt>
      <trkpt lat="27.86849" lon="86.808774">
        <ele>4097.4</ele>
        <time>2022-10-28T04:24:00.000Z</time>
      </trkpt>
      <trkpt lat="27.868474" lon="86.808762">
        <ele>4097.2</ele>
        <time>2022-10-28T04:24:02.000Z</time>
      </trkpt>
      <trkpt lat="27.868458" lon="86.808749">
        <ele>4096.8</ele>
        <time>2022-10-28T04:24:04.000Z</time>
      </trkpt>
      <trkpt lat="27.868445" lon="86.80873">
        <ele>4097.2</ele>
        <time>2022-10-28T04:24:06.000Z</time>
      </trkpt>
      <trkpt lat="27.868438" lon="86.808691">
        <ele>4096.4</ele>
        <time>2022-10-28T04:24:09.000Z</time>
      </trkpt>
      <trkpt lat="27.868429" lon="86.808666">
        <ele>4096</ele>
        <time>2022-10-28T04:24:12.000Z</time>
      </trkpt>
      <trkpt lat="27.868419" lon="86.80864">
        <ele>4095.8</ele>
        <time>2022-10-28T04:24:14.000Z</time>
      </trkpt>
      <trkpt lat="27.868422" lon="86.808614">
        <ele>4095.4</ele>
        <time>2022-10-28T04:24:16.000Z</time>
      </trkpt>
      <trkpt lat="27.868416" lon="86.808589">
        <ele>4095.4</ele>
        <time>2022-10-28T04:24:22.000Z</time>
      </trkpt>
      <trkpt lat="27.868416" lon="86.808563">
        <ele>4095</ele>
        <time>2022-10-28T04:24:54.000Z</time>
      </trkpt>
      <trkpt lat="27.86841" lon="86.808538">
        <ele>4095</ele>
        <time>2022-10-28T04:24:56.000Z</time>
      </trkpt>
      <trkpt lat="27.8684" lon="86.808512">
        <ele>4094.4</ele>
        <time>2022-10-28T04:24:58.000Z</time>
      </trkpt>
      <trkpt lat="27.8684" lon="86.808486">
        <ele>4094.2</ele>
        <time>2022-10-28T04:24:59.000Z</time>
      </trkpt>
      <trkpt lat="27.868371" lon="86.808435">
        <ele>4093.2</ele>
        <time>2022-10-28T04:25:03.000Z</time>
      </trkpt>
      <trkpt lat="27.868362" lon="86.80841">
        <ele>4093.2</ele>
        <time>2022-10-28T04:25:05.000Z</time>
      </trkpt>
      <trkpt lat="27.868346" lon="86.808378">
        <ele>4093</ele>
        <time>2022-10-28T04:25:08.000Z</time>
      </trkpt>
      <trkpt lat="27.868339" lon="86.808358">
        <ele>4092.4</ele>
        <time>2022-10-28T04:25:10.000Z</time>
      </trkpt>
      <trkpt lat="27.868342" lon="86.808333">
        <ele>4092</ele>
        <time>2022-10-28T04:25:12.000Z</time>
      </trkpt>
      <trkpt lat="27.868336" lon="86.808314">
        <ele>4092.2</ele>
        <time>2022-10-28T04:25:14.000Z</time>
      </trkpt>
      <trkpt lat="27.868326" lon="86.808294">
        <ele>4092.4</ele>
        <time>2022-10-28T04:25:16.000Z</time>
      </trkpt>
      <trkpt lat="27.86832" lon="86.808269">
        <ele>4092.8</ele>
        <time>2022-10-28T04:25:18.000Z</time>
      </trkpt>
      <trkpt lat="27.868314" lon="86.808243">
        <ele>4093.2</ele>
        <time>2022-10-28T04:25:20.000Z</time>
      </trkpt>
      <trkpt lat="27.868307" lon="86.808218">
        <ele>4093</ele>
        <time>2022-10-28T04:25:22.000Z</time>
      </trkpt>
      <trkpt lat="27.868301" lon="86.808192">
        <ele>4093</ele>
        <time>2022-10-28T04:25:24.000Z</time>
      </trkpt>
      <trkpt lat="27.868294" lon="86.808166">
        <ele>4092.8</ele>
        <time>2022-10-28T04:25:26.000Z</time>
      </trkpt>
      <trkpt lat="27.868291" lon="86.808141">
        <ele>4092.4</ele>
        <time>2022-10-28T04:25:28.000Z</time>
      </trkpt>
      <trkpt lat="27.868285" lon="86.808122">
        <ele>4092</ele>
        <time>2022-10-28T04:25:30.000Z</time>
      </trkpt>
      <trkpt lat="27.868282" lon="86.808096">
        <ele>4092</ele>
        <time>2022-10-28T04:25:32.000Z</time>
      </trkpt>
      <trkpt lat="27.868278" lon="86.808058">
        <ele>4092.2</ele>
        <time>2022-10-28T04:25:35.000Z</time>
      </trkpt>
      <trkpt lat="27.868262" lon="86.808032">
        <ele>4092.2</ele>
        <time>2022-10-28T04:25:38.000Z</time>
      </trkpt>
      <trkpt lat="27.868256" lon="86.808006">
        <ele>4092.2</ele>
        <time>2022-10-28T04:25:40.000Z</time>
      </trkpt>
      <trkpt lat="27.868256" lon="86.807981">
        <ele>4092.2</ele>
        <time>2022-10-28T04:25:42.000Z</time>
      </trkpt>
      <trkpt lat="27.868246" lon="86.807962">
        <ele>4092.4</ele>
        <time>2022-10-28T04:25:44.000Z</time>
      </trkpt>
      <trkpt lat="27.868234" lon="86.807936">
        <ele>4092.4</ele>
        <time>2022-10-28T04:25:46.000Z</time>
      </trkpt>
      <trkpt lat="27.868221" lon="86.807917">
        <ele>4092.2</ele>
        <time>2022-10-28T04:25:48.000Z</time>
      </trkpt>
      <trkpt lat="27.868205" lon="86.807891">
        <ele>4092.2</ele>
        <time>2022-10-28T04:25:50.000Z</time>
      </trkpt>
      <trkpt lat="27.868198" lon="86.807872">
        <ele>4092.2</ele>
        <time>2022-10-28T04:25:52.000Z</time>
      </trkpt>
      <trkpt lat="27.868186" lon="86.807853">
        <ele>4092.2</ele>
        <time>2022-10-28T04:25:54.000Z</time>
      </trkpt>
      <trkpt lat="27.868173" lon="86.807834">
        <ele>4092.4</ele>
        <time>2022-10-28T04:25:56.000Z</time>
      </trkpt>
      <trkpt lat="27.86816" lon="86.807814">
        <ele>4092.6</ele>
        <time>2022-10-28T04:25:58.000Z</time>
      </trkpt>
      <trkpt lat="27.868141" lon="86.807782">
        <ele>4093</ele>
        <time>2022-10-28T04:26:01.000Z</time>
      </trkpt>
      <trkpt lat="27.868131" lon="86.807757">
        <ele>4093.2</ele>
        <time>2022-10-28T04:26:04.000Z</time>
      </trkpt>
      <trkpt lat="27.868125" lon="86.807738">
        <ele>4093.2</ele>
        <time>2022-10-28T04:26:05.000Z</time>
      </trkpt>
      <trkpt lat="27.868122" lon="86.807706">
        <ele>4093</ele>
        <time>2022-10-28T04:26:07.000Z</time>
      </trkpt>
      <trkpt lat="27.868125" lon="86.807674">
        <ele>4093</ele>
        <time>2022-10-28T04:26:10.000Z</time>
      </trkpt>
      <trkpt lat="27.868125" lon="86.807642">
        <ele>4093.2</ele>
        <time>2022-10-28T04:26:12.000Z</time>
      </trkpt>
      <trkpt lat="27.868122" lon="86.807616">
        <ele>4092.6</ele>
        <time>2022-10-28T04:26:14.000Z</time>
      </trkpt>
      <trkpt lat="27.868115" lon="86.807578">
        <ele>4093</ele>
        <time>2022-10-28T04:26:17.000Z</time>
      </trkpt>
      <trkpt lat="27.868102" lon="86.807558">
        <ele>4092.6</ele>
        <time>2022-10-28T04:26:20.000Z</time>
      </trkpt>
      <trkpt lat="27.868086" lon="86.807539">
        <ele>4093.2</ele>
        <time>2022-10-28T04:26:22.000Z</time>
      </trkpt>
      <trkpt lat="27.868067" lon="86.807526">
        <ele>4093</ele>
        <time>2022-10-28T04:26:24.000Z</time>
      </trkpt>
      <trkpt lat="27.868058" lon="86.807507">
        <ele>4092.4</ele>
        <time>2022-10-28T04:26:26.000Z</time>
      </trkpt>
      <trkpt lat="27.868045" lon="86.807482">
        <ele>4092.6</ele>
        <time>2022-10-28T04:26:29.000Z</time>
      </trkpt>
      <trkpt lat="27.868035" lon="86.807462">
        <ele>4092.4</ele>
        <time>2022-10-28T04:26:31.000Z</time>
      </trkpt>
      <trkpt lat="27.868022" lon="86.807443">
        <ele>4092.2</ele>
        <time>2022-10-28T04:26:33.000Z</time>
      </trkpt>
      <trkpt lat="27.868019" lon="86.807418">
        <ele>4092</ele>
        <time>2022-10-28T04:26:35.000Z</time>
      </trkpt>
      <trkpt lat="27.868026" lon="86.807379">
        <ele>4092.2</ele>
        <time>2022-10-28T04:26:38.000Z</time>
      </trkpt>
      <trkpt lat="27.868026" lon="86.807347">
        <ele>4092.2</ele>
        <time>2022-10-28T04:26:41.000Z</time>
      </trkpt>
      <trkpt lat="27.868026" lon="86.807322">
        <ele>4091.2</ele>
        <time>2022-10-28T04:26:44.000Z</time>
      </trkpt>
      <trkpt lat="27.868026" lon="86.807296">
        <ele>4091.2</ele>
        <time>2022-10-28T04:26:46.000Z</time>
      </trkpt>
      <trkpt lat="27.868022" lon="86.807258">
        <ele>4090.4</ele>
        <time>2022-10-28T04:26:49.000Z</time>
      </trkpt>
      <trkpt lat="27.868032" lon="86.807238">
        <ele>4091.6</ele>
        <time>2022-10-28T04:26:52.000Z</time>
      </trkpt>
      <trkpt lat="27.868038" lon="86.807219">
        <ele>4092</ele>
        <time>2022-10-28T04:26:54.000Z</time>
      </trkpt>
      <trkpt lat="27.868035" lon="86.807181">
        <ele>4092</ele>
        <time>2022-10-28T04:26:57.000Z</time>
      </trkpt>
      <trkpt lat="27.868029" lon="86.807149">
        <ele>4091.4</ele>
        <time>2022-10-28T04:27:00.000Z</time>
      </trkpt>
      <trkpt lat="27.868029" lon="86.807123">
        <ele>4091.2</ele>
        <time>2022-10-28T04:27:02.000Z</time>
      </trkpt>
      <trkpt lat="27.868032" lon="86.807091">
        <ele>4090.6</ele>
        <time>2022-10-28T04:27:04.000Z</time>
      </trkpt>
      <trkpt lat="27.868032" lon="86.807059">
        <ele>4090.8</ele>
        <time>2022-10-28T04:27:06.000Z</time>
      </trkpt>
      <trkpt lat="27.868042" lon="86.80704">
        <ele>4090.4</ele>
        <time>2022-10-28T04:27:08.000Z</time>
      </trkpt>
      <trkpt lat="27.868045" lon="86.807014">
        <ele>4090.2</ele>
        <time>2022-10-28T04:27:10.000Z</time>
      </trkpt>
      <trkpt lat="27.868051" lon="86.806989">
        <ele>4090.6</ele>
        <time>2022-10-28T04:27:13.000Z</time>
      </trkpt>
      <trkpt lat="27.868045" lon="86.80697">
        <ele>4090.4</ele>
        <time>2022-10-28T04:27:16.000Z</time>
      </trkpt>
      <trkpt lat="27.868038" lon="86.80695">
        <ele>4090.6</ele>
        <time>2022-10-28T04:27:18.000Z</time>
      </trkpt>
      <trkpt lat="27.868042" lon="86.806925">
        <ele>4090.8</ele>
        <time>2022-10-28T04:27:20.000Z</time>
      </trkpt>
      <trkpt lat="27.868045" lon="86.806899">
        <ele>4091</ele>
        <time>2022-10-28T04:27:22.000Z</time>
      </trkpt>
      <trkpt lat="27.868054" lon="86.80688">
        <ele>4091.2</ele>
        <time>2022-10-28T04:27:24.000Z</time>
      </trkpt>
      <trkpt lat="27.868061" lon="86.806861">
        <ele>4091.2</ele>
        <time>2022-10-28T04:27:25.000Z</time>
      </trkpt>
      <trkpt lat="27.868077" lon="86.806829">
        <ele>4091</ele>
        <time>2022-10-28T04:27:28.000Z</time>
      </trkpt>
      <trkpt lat="27.868086" lon="86.80681">
        <ele>4091.4</ele>
        <time>2022-10-28T04:27:30.000Z</time>
      </trkpt>
      <trkpt lat="27.868086" lon="86.806778">
        <ele>4091.4</ele>
        <time>2022-10-28T04:27:33.000Z</time>
      </trkpt>
      <trkpt lat="27.868093" lon="86.806752">
        <ele>4091.4</ele>
        <time>2022-10-28T04:27:36.000Z</time>
      </trkpt>
      <trkpt lat="27.868086" lon="86.806733">
        <ele>4091.6</ele>
        <time>2022-10-28T04:27:40.000Z</time>
      </trkpt>
      <trkpt lat="27.86807" lon="86.806707">
        <ele>4092</ele>
        <time>2022-10-28T04:27:44.000Z</time>
      </trkpt>
      <trkpt lat="27.868045" lon="86.806701">
        <ele>4092.2</ele>
        <time>2022-10-28T04:27:48.000Z</time>
      </trkpt>
      <trkpt lat="27.868019" lon="86.806694">
        <ele>4092.2</ele>
        <time>2022-10-28T04:27:51.000Z</time>
      </trkpt>
      <trkpt lat="27.867997" lon="86.806682">
        <ele>4092.4</ele>
        <time>2022-10-28T04:27:53.000Z</time>
      </trkpt>
      <trkpt lat="27.867978" lon="86.806662">
        <ele>4092.4</ele>
        <time>2022-10-28T04:27:55.000Z</time>
      </trkpt>
      <trkpt lat="27.867955" lon="86.80665">
        <ele>4092.4</ele>
        <time>2022-10-28T04:27:58.000Z</time>
      </trkpt>
      <trkpt lat="27.867942" lon="86.806624">
        <ele>4092.2</ele>
        <time>2022-10-28T04:28:00.000Z</time>
      </trkpt>
      <trkpt lat="27.867936" lon="86.806592">
        <ele>4092.2</ele>
        <time>2022-10-28T04:28:02.000Z</time>
      </trkpt>
      <trkpt lat="27.867926" lon="86.806554">
        <ele>4092</ele>
        <time>2022-10-28T04:28:05.000Z</time>
      </trkpt>
      <trkpt lat="27.867917" lon="86.806522">
        <ele>4092.2</ele>
        <time>2022-10-28T04:28:08.000Z</time>
      </trkpt>
      <trkpt lat="27.867914" lon="86.806496">
        <ele>4092.2</ele>
        <time>2022-10-28T04:28:10.000Z</time>
      </trkpt>
      <trkpt lat="27.86791" lon="86.80647">
        <ele>4092.2</ele>
        <time>2022-10-28T04:28:12.000Z</time>
      </trkpt>
      <trkpt lat="27.867904" lon="86.806451">
        <ele>4092.4</ele>
        <time>2022-10-28T04:28:14.000Z</time>
      </trkpt>
      <trkpt lat="27.867901" lon="86.806419">
        <ele>4091.4</ele>
        <time>2022-10-28T04:28:16.000Z</time>
      </trkpt>
      <trkpt lat="27.867898" lon="86.806387">
        <ele>4091.2</ele>
        <time>2022-10-28T04:28:18.000Z</time>
      </trkpt>
      <trkpt lat="27.867901" lon="86.806355">
        <ele>4091</ele>
        <time>2022-10-28T04:28:20.000Z</time>
      </trkpt>
      <trkpt lat="27.867901" lon="86.80633">
        <ele>4091</ele>
        <time>2022-10-28T04:28:23.000Z</time>
      </trkpt>
      <trkpt lat="27.867894" lon="86.806304">
        <ele>4091</ele>
        <time>2022-10-28T04:28:25.000Z</time>
      </trkpt>
      <trkpt lat="27.867888" lon="86.806285">
        <ele>4090.6</ele>
        <time>2022-10-28T04:28:27.000Z</time>
      </trkpt>
      <trkpt lat="27.867882" lon="86.806253">
        <ele>4090.4</ele>
        <time>2022-10-28T04:28:29.000Z</time>
      </trkpt>
      <trkpt lat="27.867882" lon="86.806227">
        <ele>4090.6</ele>
        <time>2022-10-28T04:28:31.000Z</time>
      </trkpt>
      <trkpt lat="27.867878" lon="86.806195">
        <ele>4090</ele>
        <time>2022-10-28T04:28:35.000Z</time>
      </trkpt>
      <trkpt lat="27.867869" lon="86.80617">
        <ele>4089.4</ele>
        <time>2022-10-28T04:28:38.000Z</time>
      </trkpt>
      <trkpt lat="27.867859" lon="86.80615">
        <ele>4089</ele>
        <time>2022-10-28T04:28:40.000Z</time>
      </trkpt>
      <trkpt lat="27.867843" lon="86.806138">
        <ele>4089</ele>
        <time>2022-10-28T04:28:43.000Z</time>
      </trkpt>
      <trkpt lat="27.867837" lon="86.806112">
        <ele>4088.4</ele>
        <time>2022-10-28T04:28:45.000Z</time>
      </trkpt>
      <trkpt lat="27.867834" lon="86.806074">
        <ele>4087.4</ele>
        <time>2022-10-28T04:28:48.000Z</time>
      </trkpt>
      <trkpt lat="27.867821" lon="86.806054">
        <ele>4087.4</ele>
        <time>2022-10-28T04:28:50.000Z</time>
      </trkpt>
      <trkpt lat="27.86784" lon="86.806035">
        <ele>4087.2</ele>
        <time>2022-10-28T04:29:09.000Z</time>
      </trkpt>
      <trkpt lat="27.867862" lon="86.806022">
        <ele>4086.6</ele>
        <time>2022-10-28T04:29:12.000Z</time>
      </trkpt>
      <trkpt lat="27.867878" lon="86.80601">
        <ele>4085.8</ele>
        <time>2022-10-28T04:29:15.000Z</time>
      </trkpt>
      <trkpt lat="27.867888" lon="86.80599">
        <ele>4085</ele>
        <time>2022-10-28T04:29:22.000Z</time>
      </trkpt>
      <trkpt lat="27.867875" lon="86.805946">
        <ele>4081.8</ele>
        <time>2022-10-28T04:30:30.000Z</time>
      </trkpt>
      <trkpt lat="27.867846" lon="86.805901">
        <ele>4081.4</ele>
        <time>2022-10-28T04:30:36.000Z</time>
      </trkpt>
      <trkpt lat="27.86783" lon="86.805875">
        <ele>4079.8</ele>
        <time>2022-10-28T04:31:01.000Z</time>
      </trkpt>
      <trkpt lat="27.867811" lon="86.805856">
        <ele>4079.8</ele>
        <time>2022-10-28T04:31:03.000Z</time>
      </trkpt>
      <trkpt lat="27.867795" lon="86.805837">
        <ele>4079</ele>
        <time>2022-10-28T04:31:05.000Z</time>
      </trkpt>
      <trkpt lat="27.867776" lon="86.805818">
        <ele>4078.8</ele>
        <time>2022-10-28T04:31:07.000Z</time>
      </trkpt>
      <trkpt lat="27.867757" lon="86.805798">
        <ele>4078.4</ele>
        <time>2022-10-28T04:31:09.000Z</time>
      </trkpt>
      <trkpt lat="27.867738" lon="86.805792">
        <ele>4078</ele>
        <time>2022-10-28T04:31:11.000Z</time>
      </trkpt>
      <trkpt lat="27.867722" lon="86.805779">
        <ele>4077.4</ele>
        <time>2022-10-28T04:31:14.000Z</time>
      </trkpt>
      <trkpt lat="27.867706" lon="86.805754">
        <ele>4076.8</ele>
        <time>2022-10-28T04:31:19.000Z</time>
      </trkpt>
      <trkpt lat="27.867706" lon="86.805728">
        <ele>4075.4</ele>
        <time>2022-10-28T04:31:23.000Z</time>
      </trkpt>
      <trkpt lat="27.867706" lon="86.805702">
        <ele>4075.2</ele>
        <time>2022-10-28T04:31:25.000Z</time>
      </trkpt>
      <trkpt lat="27.867712" lon="86.805677">
        <ele>4075.4</ele>
        <time>2022-10-28T04:31:27.000Z</time>
      </trkpt>
      <trkpt lat="27.867718" lon="86.805658">
        <ele>4075</ele>
        <time>2022-10-28T04:31:29.000Z</time>
      </trkpt>
      <trkpt lat="27.867725" lon="86.805638">
        <ele>4074.6</ele>
        <time>2022-10-28T04:31:31.000Z</time>
      </trkpt>
      <trkpt lat="27.867734" lon="86.805613">
        <ele>4074.4</ele>
        <time>2022-10-28T04:31:34.000Z</time>
      </trkpt>
      <trkpt lat="27.867741" lon="86.805587">
        <ele>4074.4</ele>
        <time>2022-10-28T04:31:37.000Z</time>
      </trkpt>
      <trkpt lat="27.867738" lon="86.805555">
        <ele>4074.4</ele>
        <time>2022-10-28T04:31:40.000Z</time>
      </trkpt>
      <trkpt lat="27.867744" lon="86.80553">
        <ele>4074</ele>
        <time>2022-10-28T04:31:43.000Z</time>
      </trkpt>
      <trkpt lat="27.86775" lon="86.80551">
        <ele>4073.6</ele>
        <time>2022-10-28T04:31:46.000Z</time>
      </trkpt>
      <trkpt lat="27.867757" lon="86.805478">
        <ele>4073.4</ele>
        <time>2022-10-28T04:31:53.000Z</time>
      </trkpt>
      <trkpt lat="27.867766" lon="86.805459">
        <ele>4072.8</ele>
        <time>2022-10-28T04:31:56.000Z</time>
      </trkpt>
      <trkpt lat="27.867773" lon="86.80544">
        <ele>4073</ele>
        <time>2022-10-28T04:32:02.000Z</time>
      </trkpt>
      <trkpt lat="27.867779" lon="86.805421">
        <ele>4073</ele>
        <time>2022-10-28T04:32:05.000Z</time>
      </trkpt>
      <trkpt lat="27.867786" lon="86.805402">
        <ele>4073</ele>
        <time>2022-10-28T04:32:06.000Z</time>
      </trkpt>
      <trkpt lat="27.867795" lon="86.805376">
        <ele>4072.4</ele>
        <time>2022-10-28T04:32:09.000Z</time>
      </trkpt>
      <trkpt lat="27.867798" lon="86.80535">
        <ele>4071.8</ele>
        <time>2022-10-28T04:32:12.000Z</time>
      </trkpt>
      <trkpt lat="27.867792" lon="86.805318">
        <ele>4071</ele>
        <time>2022-10-28T04:32:16.000Z</time>
      </trkpt>
      <trkpt lat="27.867786" lon="86.805299">
        <ele>4070.4</ele>
        <time>2022-10-28T04:32:18.000Z</time>
      </trkpt>
      <trkpt lat="27.867782" lon="86.805274">
        <ele>4069.8</ele>
        <time>2022-10-28T04:32:22.000Z</time>
      </trkpt>
      <trkpt lat="27.867779" lon="86.805242">
        <ele>4069.4</ele>
        <time>2022-10-28T04:32:34.000Z</time>
      </trkpt>
      <trkpt lat="27.867776" lon="86.805216">
        <ele>4068.4</ele>
        <time>2022-10-28T04:32:38.000Z</time>
      </trkpt>
      <trkpt lat="27.86777" lon="86.805197">
        <ele>4068.2</ele>
        <time>2022-10-28T04:32:42.000Z</time>
      </trkpt>
      <trkpt lat="27.867754" lon="86.805184">
        <ele>4067.4</ele>
        <time>2022-10-28T04:32:45.000Z</time>
      </trkpt>
      <trkpt lat="27.867734" lon="86.805178">
        <ele>4067</ele>
        <time>2022-10-28T04:32:48.000Z</time>
      </trkpt>
      <trkpt lat="27.867718" lon="86.805158">
        <ele>4066.8</ele>
        <time>2022-10-28T04:32:51.000Z</time>
      </trkpt>
      <trkpt lat="27.867699" lon="86.805139">
        <ele>4065.4</ele>
        <time>2022-10-28T04:32:54.000Z</time>
      </trkpt>
      <trkpt lat="27.86769" lon="86.80512">
        <ele>4065.2</ele>
        <time>2022-10-28T04:32:56.000Z</time>
      </trkpt>
      <trkpt lat="27.867677" lon="86.805101">
        <ele>4065</ele>
        <time>2022-10-28T04:32:59.000Z</time>
      </trkpt>
      <trkpt lat="27.867664" lon="86.805075">
        <ele>4064.4</ele>
        <time>2022-10-28T04:33:03.000Z</time>
      </trkpt>
      <trkpt lat="27.867648" lon="86.805062">
        <ele>4064</ele>
        <time>2022-10-28T04:33:05.000Z</time>
      </trkpt>
      <trkpt lat="27.867635" lon="86.805043">
        <ele>4063</ele>
        <time>2022-10-28T04:33:08.000Z</time>
      </trkpt>
      <trkpt lat="27.867616" lon="86.80503">
        <ele>4062.8</ele>
        <time>2022-10-28T04:33:10.000Z</time>
      </trkpt>
      <trkpt lat="27.8676" lon="86.805018">
        <ele>4062.4</ele>
        <time>2022-10-28T04:33:12.000Z</time>
      </trkpt>
      <trkpt lat="27.867587" lon="86.804998">
        <ele>4061.6</ele>
        <time>2022-10-28T04:33:14.000Z</time>
      </trkpt>
      <trkpt lat="27.867574" lon="86.804979">
        <ele>4061.2</ele>
        <time>2022-10-28T04:33:17.000Z</time>
      </trkpt>
      <trkpt lat="27.867571" lon="86.804954">
        <ele>4061.4</ele>
        <time>2022-10-28T04:33:19.000Z</time>
      </trkpt>
      <trkpt lat="27.867568" lon="86.804922">
        <ele>4061.6</ele>
        <time>2022-10-28T04:33:22.000Z</time>
      </trkpt>
      <trkpt lat="27.867587" lon="86.804896">
        <ele>4061.6</ele>
        <time>2022-10-28T04:33:25.000Z</time>
      </trkpt>
      <trkpt lat="27.867597" lon="86.804877">
        <ele>4060.6</ele>
        <time>2022-10-28T04:33:27.000Z</time>
      </trkpt>
      <trkpt lat="27.8676" lon="86.804845">
        <ele>4060.4</ele>
        <time>2022-10-28T04:33:30.000Z</time>
      </trkpt>
      <trkpt lat="27.86759" lon="86.804819">
        <ele>4060</ele>
        <time>2022-10-28T04:33:34.000Z</time>
      </trkpt>
      <trkpt lat="27.867578" lon="86.8048">
        <ele>4059.6</ele>
        <time>2022-10-28T04:33:36.000Z</time>
      </trkpt>
      <trkpt lat="27.867562" lon="86.804774">
        <ele>4059.2</ele>
        <time>2022-10-28T04:33:39.000Z</time>
      </trkpt>
      <trkpt lat="27.867549" lon="86.804755">
        <ele>4058.6</ele>
        <time>2022-10-28T04:33:41.000Z</time>
      </trkpt>
      <trkpt lat="27.867536" lon="86.804736">
        <ele>4058.4</ele>
        <time>2022-10-28T04:33:43.000Z</time>
      </trkpt>
      <trkpt lat="27.86752" lon="86.804717">
        <ele>4057.6</ele>
        <time>2022-10-28T04:33:45.000Z</time>
      </trkpt>
      <trkpt lat="27.867498" lon="86.80471">
        <ele>4057</ele>
        <time>2022-10-28T04:33:48.000Z</time>
      </trkpt>
      <trkpt lat="27.867478" lon="86.804698">
        <ele>4057</ele>
        <time>2022-10-28T04:33:50.000Z</time>
      </trkpt>
      <trkpt lat="27.867462" lon="86.804685">
        <ele>4056.4</ele>
        <time>2022-10-28T04:33:53.000Z</time>
      </trkpt>
      <trkpt lat="27.867446" lon="86.804666">
        <ele>4055.6</ele>
        <time>2022-10-28T04:33:59.000Z</time>
      </trkpt>
      <trkpt lat="27.867437" lon="86.804646">
        <ele>4055.6</ele>
        <time>2022-10-28T04:34:01.000Z</time>
      </trkpt>
      <trkpt lat="27.867427" lon="86.804627">
        <ele>4055.4</ele>
        <time>2022-10-28T04:34:04.000Z</time>
      </trkpt>
      <trkpt lat="27.867418" lon="86.804602">
        <ele>4055.2</ele>
        <time>2022-10-28T04:34:07.000Z</time>
      </trkpt>
      <trkpt lat="27.867398" lon="86.804582">
        <ele>4054.6</ele>
        <time>2022-10-28T04:34:11.000Z</time>
      </trkpt>
      <trkpt lat="27.867389" lon="86.804563">
        <ele>4054.6</ele>
        <time>2022-10-28T04:34:13.000Z</time>
      </trkpt>
      <trkpt lat="27.867379" lon="86.804544">
        <ele>4054.2</ele>
        <time>2022-10-28T04:34:16.000Z</time>
      </trkpt>
      <trkpt lat="27.86737" lon="86.804525">
        <ele>4053.6</ele>
        <time>2022-10-28T04:34:19.000Z</time>
      </trkpt>
      <trkpt lat="27.867354" lon="86.804512">
        <ele>4053.2</ele>
        <time>2022-10-28T04:34:23.000Z</time>
      </trkpt>
      <trkpt lat="27.867338" lon="86.804486">
        <ele>4051.8</ele>
        <time>2022-10-28T04:34:26.000Z</time>
      </trkpt>
      <trkpt lat="27.867331" lon="86.804467">
        <ele>4051</ele>
        <time>2022-10-28T04:34:36.000Z</time>
      </trkpt>
      <trkpt lat="27.867318" lon="86.804442">
        <ele>4051.4</ele>
        <time>2022-10-28T04:34:38.000Z</time>
      </trkpt>
      <trkpt lat="27.867299" lon="86.804422">
        <ele>4050.4</ele>
        <time>2022-10-28T04:34:41.000Z</time>
      </trkpt>
      <trkpt lat="27.867286" lon="86.804403">
        <ele>4049.8</ele>
        <time>2022-10-28T04:34:43.000Z</time>
      </trkpt>
      <trkpt lat="27.86728" lon="86.804378">
        <ele>4049.6</ele>
        <time>2022-10-28T04:34:45.000Z</time>
      </trkpt>
      <trkpt lat="27.867267" lon="86.804358">
        <ele>4049</ele>
        <time>2022-10-28T04:34:48.000Z</time>
      </trkpt>
      <trkpt lat="27.867242" lon="86.804346">
        <ele>4048</ele>
        <time>2022-10-28T04:34:51.000Z</time>
      </trkpt>
      <trkpt lat="27.867222" lon="86.804326">
        <ele>4047</ele>
        <time>2022-10-28T04:34:55.000Z</time>
      </trkpt>
      <trkpt lat="27.8672" lon="86.80432">
        <ele>4045.8</ele>
        <time>2022-10-28T04:34:58.000Z</time>
      </trkpt>
      <trkpt lat="27.867165" lon="86.804301">
        <ele>4045.6</ele>
        <time>2022-10-28T04:35:06.000Z</time>
      </trkpt>
      <trkpt lat="27.867149" lon="86.804282">
        <ele>4044.8</ele>
        <time>2022-10-28T04:35:09.000Z</time>
      </trkpt>
      <trkpt lat="27.867146" lon="86.80425">
        <ele>4043.8</ele>
        <time>2022-10-28T04:35:14.000Z</time>
      </trkpt>
      <trkpt lat="27.867133" lon="86.80423">
        <ele>4043</ele>
        <time>2022-10-28T04:35:18.000Z</time>
      </trkpt>
      <trkpt lat="27.86712" lon="86.804205">
        <ele>4041.6</ele>
        <time>2022-10-28T04:35:22.000Z</time>
      </trkpt>
      <trkpt lat="27.867094" lon="86.804166">
        <ele>4040</ele>
        <time>2022-10-28T04:35:27.000Z</time>
      </trkpt>
      <trkpt lat="27.867107" lon="86.804147">
        <ele>4039.2</ele>
        <time>2022-10-28T04:36:52.000Z</time>
      </trkpt>
      <trkpt lat="27.867101" lon="86.804128">
        <ele>4038.8</ele>
        <time>2022-10-28T04:36:53.000Z</time>
      </trkpt>
      <trkpt lat="27.867082" lon="86.804115">
        <ele>4038.4</ele>
        <time>2022-10-28T04:36:55.000Z</time>
      </trkpt>
      <trkpt lat="27.867066" lon="86.804083">
        <ele>4037.6</ele>
        <time>2022-10-28T04:36:57.000Z</time>
      </trkpt>
      <trkpt lat="27.867056" lon="86.804051">
        <ele>4037</ele>
        <time>2022-10-28T04:36:59.000Z</time>
      </trkpt>
      <trkpt lat="27.867059" lon="86.804019">
        <ele>4036.8</ele>
        <time>2022-10-28T04:37:01.000Z</time>
      </trkpt>
      <trkpt lat="27.867062" lon="86.803994">
        <ele>4036.2</ele>
        <time>2022-10-28T04:37:03.000Z</time>
      </trkpt>
      <trkpt lat="27.867059" lon="86.803962">
        <ele>4036</ele>
        <time>2022-10-28T04:37:05.000Z</time>
      </trkpt>
      <trkpt lat="27.867053" lon="86.803942">
        <ele>4036</ele>
        <time>2022-10-28T04:37:07.000Z</time>
      </trkpt>
      <trkpt lat="27.86705" lon="86.803917">
        <ele>4036</ele>
        <time>2022-10-28T04:37:09.000Z</time>
      </trkpt>
      <trkpt lat="27.86704" lon="86.803891">
        <ele>4035.2</ele>
        <time>2022-10-28T04:37:11.000Z</time>
      </trkpt>
      <trkpt lat="27.86703" lon="86.803866">
        <ele>4035</ele>
        <time>2022-10-28T04:37:13.000Z</time>
      </trkpt>
      <trkpt lat="27.867027" lon="86.80384">
        <ele>4034.6</ele>
        <time>2022-10-28T04:37:15.000Z</time>
      </trkpt>
      <trkpt lat="27.867011" lon="86.803821">
        <ele>4034.6</ele>
        <time>2022-10-28T04:37:17.000Z</time>
      </trkpt>
      <trkpt lat="27.866998" lon="86.803802">
        <ele>4034</ele>
        <time>2022-10-28T04:37:19.000Z</time>
      </trkpt>
      <trkpt lat="27.866982" lon="86.803782">
        <ele>4033.8</ele>
        <time>2022-10-28T04:37:21.000Z</time>
      </trkpt>
      <trkpt lat="27.866963" lon="86.803763">
        <ele>4033.6</ele>
        <time>2022-10-28T04:37:23.000Z</time>
      </trkpt>
      <trkpt lat="27.866944" lon="86.803744">
        <ele>4033.2</ele>
        <time>2022-10-28T04:37:25.000Z</time>
      </trkpt>
      <trkpt lat="27.866925" lon="86.803725">
        <ele>4033</ele>
        <time>2022-10-28T04:37:27.000Z</time>
      </trkpt>
      <trkpt lat="27.866906" lon="86.803706">
        <ele>4032.8</ele>
        <time>2022-10-28T04:37:29.000Z</time>
      </trkpt>
      <trkpt lat="27.866893" lon="86.80368">
        <ele>4032.6</ele>
        <time>2022-10-28T04:37:31.000Z</time>
      </trkpt>
      <trkpt lat="27.86688" lon="86.803654">
        <ele>4032.2</ele>
        <time>2022-10-28T04:37:33.000Z</time>
      </trkpt>
      <trkpt lat="27.866867" lon="86.803635">
        <ele>4032.2</ele>
        <time>2022-10-28T04:37:35.000Z</time>
      </trkpt>
      <trkpt lat="27.866861" lon="86.803603">
        <ele>4032</ele>
        <time>2022-10-28T04:37:37.000Z</time>
      </trkpt>
      <trkpt lat="27.866832" lon="86.803571">
        <ele>4029.8</ele>
        <time>2022-10-28T04:40:58.000Z</time>
      </trkpt>
      <trkpt lat="27.866816" lon="86.803552">
        <ele>4029.2</ele>
        <time>2022-10-28T04:41:00.000Z</time>
      </trkpt>
      <trkpt lat="27.866806" lon="86.803533">
        <ele>4029</ele>
        <time>2022-10-28T04:41:01.000Z</time>
      </trkpt>
      <trkpt lat="27.86679" lon="86.803507">
        <ele>4028.8</ele>
        <time>2022-10-28T04:41:03.000Z</time>
      </trkpt>
      <trkpt lat="27.866784" lon="86.803488">
        <ele>4028.6</ele>
        <time>2022-10-28T04:41:04.000Z</time>
      </trkpt>
      <trkpt lat="27.866771" lon="86.803469">
        <ele>4028.6</ele>
        <time>2022-10-28T04:41:06.000Z</time>
      </trkpt>
      <trkpt lat="27.866765" lon="86.80345">
        <ele>4028.4</ele>
        <time>2022-10-28T04:41:07.000Z</time>
      </trkpt>
      <trkpt lat="27.866746" lon="86.803437">
        <ele>4028</ele>
        <time>2022-10-28T04:41:09.000Z</time>
      </trkpt>
      <trkpt lat="27.866726" lon="86.803424">
        <ele>4027.6</ele>
        <time>2022-10-28T04:41:12.000Z</time>
      </trkpt>
      <trkpt lat="27.866704" lon="86.803405">
        <ele>4027</ele>
        <time>2022-10-28T04:41:14.000Z</time>
      </trkpt>
      <trkpt lat="27.866682" lon="86.803392">
        <ele>4026.6</ele>
        <time>2022-10-28T04:41:16.000Z</time>
      </trkpt>
      <trkpt lat="27.866666" lon="86.803373">
        <ele>4026.2</ele>
        <time>2022-10-28T04:41:18.000Z</time>
      </trkpt>
      <trkpt lat="27.866646" lon="86.80336">
        <ele>4026.2</ele>
        <time>2022-10-28T04:41:20.000Z</time>
      </trkpt>
      <trkpt lat="27.866627" lon="86.803328">
        <ele>4025.6</ele>
        <time>2022-10-28T04:41:23.000Z</time>
      </trkpt>
      <trkpt lat="27.866618" lon="86.803309">
        <ele>4025.2</ele>
        <time>2022-10-28T04:41:25.000Z</time>
      </trkpt>
      <trkpt lat="27.866614" lon="86.803283">
        <ele>4025</ele>
        <time>2022-10-28T04:41:27.000Z</time>
      </trkpt>
      <trkpt lat="27.866598" lon="86.803251">
        <ele>4024.6</ele>
        <time>2022-10-28T04:41:31.000Z</time>
      </trkpt>
      <trkpt lat="27.866582" lon="86.803238">
        <ele>4024.2</ele>
        <time>2022-10-28T04:41:33.000Z</time>
      </trkpt>
      <trkpt lat="27.866566" lon="86.803226">
        <ele>4023.2</ele>
        <time>2022-10-28T04:41:36.000Z</time>
      </trkpt>
      <trkpt lat="27.86656" lon="86.803206">
        <ele>4022.2</ele>
        <time>2022-10-28T04:41:40.000Z</time>
      </trkpt>
      <trkpt lat="27.866541" lon="86.803206">
        <ele>4022.6</ele>
        <time>2022-10-28T04:41:44.000Z</time>
      </trkpt>
      <trkpt lat="27.866518" lon="86.8032">
        <ele>4022</ele>
        <time>2022-10-28T04:41:47.000Z</time>
      </trkpt>
      <trkpt lat="27.866499" lon="86.803174">
        <ele>4021.2</ele>
        <time>2022-10-28T04:41:50.000Z</time>
      </trkpt>
      <trkpt lat="27.86648" lon="86.803155">
        <ele>4020.6</ele>
        <time>2022-10-28T04:41:53.000Z</time>
      </trkpt>
      <trkpt lat="27.866467" lon="86.803136">
        <ele>4020</ele>
        <time>2022-10-28T04:41:55.000Z</time>
      </trkpt>
      <trkpt lat="27.866451" lon="86.803123">
        <ele>4019.4</ele>
        <time>2022-10-28T04:41:57.000Z</time>
      </trkpt>
      <trkpt lat="27.866435" lon="86.803098">
        <ele>4018.6</ele>
        <time>2022-10-28T04:42:00.000Z</time>
      </trkpt>
      <trkpt lat="27.866419" lon="86.803085">
        <ele>4018.2</ele>
        <time>2022-10-28T04:42:02.000Z</time>
      </trkpt>
      <trkpt lat="27.866403" lon="86.803072">
        <ele>4017.6</ele>
        <time>2022-10-28T04:42:06.000Z</time>
      </trkpt>
      <trkpt lat="27.866397" lon="86.803046">
        <ele>4016</ele>
        <time>2022-10-28T04:42:25.000Z</time>
      </trkpt>
      <trkpt lat="27.866378" lon="86.803046">
        <ele>4016</ele>
        <time>2022-10-28T04:42:27.000Z</time>
      </trkpt>
      <trkpt lat="27.866365" lon="86.803027">
        <ele>4015</ele>
        <time>2022-10-28T04:42:29.000Z</time>
      </trkpt>
      <trkpt lat="27.866346" lon="86.803014">
        <ele>4014.4</ele>
        <time>2022-10-28T04:42:31.000Z</time>
      </trkpt>
      <trkpt lat="27.866317" lon="86.803014">
        <ele>4014.2</ele>
        <time>2022-10-28T04:42:33.000Z</time>
      </trkpt>
      <trkpt lat="27.866298" lon="86.803008">
        <ele>4013.6</ele>
        <time>2022-10-28T04:42:35.000Z</time>
      </trkpt>
      <trkpt lat="27.866278" lon="86.802989">
        <ele>4013.2</ele>
        <time>2022-10-28T04:42:37.000Z</time>
      </trkpt>
      <trkpt lat="27.866262" lon="86.802963">
        <ele>4012.6</ele>
        <time>2022-10-28T04:42:39.000Z</time>
      </trkpt>
      <trkpt lat="27.866237" lon="86.802938">
        <ele>4012.4</ele>
        <time>2022-10-28T04:42:42.000Z</time>
      </trkpt>
      <trkpt lat="27.866227" lon="86.802912">
        <ele>4012.4</ele>
        <time>2022-10-28T04:42:44.000Z</time>
      </trkpt>
      <trkpt lat="27.866211" lon="86.802886">
        <ele>4012.2</ele>
        <time>2022-10-28T04:42:46.000Z</time>
      </trkpt>
      <trkpt lat="27.866192" lon="86.80288">
        <ele>4012.2</ele>
        <time>2022-10-28T04:42:47.000Z</time>
      </trkpt>
      <trkpt lat="27.866179" lon="86.802854">
        <ele>4012.2</ele>
        <time>2022-10-28T04:42:49.000Z</time>
      </trkpt>
      <trkpt lat="27.86617" lon="86.802835">
        <ele>4011.4</ele>
        <time>2022-10-28T04:42:51.000Z</time>
      </trkpt>
      <trkpt lat="27.866157" lon="86.802816">
        <ele>4012</ele>
        <time>2022-10-28T04:42:53.000Z</time>
      </trkpt>
      <trkpt lat="27.86615" lon="86.802797">
        <ele>4012</ele>
        <time>2022-10-28T04:42:55.000Z</time>
      </trkpt>
      <trkpt lat="27.866144" lon="86.802778">
        <ele>4012.2</ele>
        <time>2022-10-28T04:42:57.000Z</time>
      </trkpt>
      <trkpt lat="27.866138" lon="86.802758">
        <ele>4012.4</ele>
        <time>2022-10-28T04:42:59.000Z</time>
      </trkpt>
      <trkpt lat="27.866131" lon="86.802739">
        <ele>4012.4</ele>
        <time>2022-10-28T04:43:00.000Z</time>
      </trkpt>
      <trkpt lat="27.866115" lon="86.802726">
        <ele>4012.8</ele>
        <time>2022-10-28T04:43:02.000Z</time>
      </trkpt>
      <trkpt lat="27.866099" lon="86.802701">
        <ele>4013</ele>
        <time>2022-10-28T04:43:05.000Z</time>
      </trkpt>
      <trkpt lat="27.866083" lon="86.802682">
        <ele>4013.4</ele>
        <time>2022-10-28T04:43:08.000Z</time>
      </trkpt>
      <trkpt lat="27.866067" lon="86.802656">
        <ele>4013.2</ele>
        <time>2022-10-28T04:43:11.000Z</time>
      </trkpt>
      <trkpt lat="27.866051" lon="86.802637">
        <ele>4012.8</ele>
        <time>2022-10-28T04:43:14.000Z</time>
      </trkpt>
      <trkpt lat="27.866038" lon="86.802618">
        <ele>4012.2</ele>
        <time>2022-10-28T04:43:16.000Z</time>
      </trkpt>
      <trkpt lat="27.866016" lon="86.802605">
        <ele>4012</ele>
        <time>2022-10-28T04:43:19.000Z</time>
      </trkpt>
      <trkpt lat="27.865997" lon="86.802592">
        <ele>4011.8</ele>
        <time>2022-10-28T04:43:22.000Z</time>
      </trkpt>
      <trkpt lat="27.865978" lon="86.802579">
        <ele>4011.8</ele>
        <time>2022-10-28T04:43:24.000Z</time>
      </trkpt>
      <trkpt lat="27.865952" lon="86.802566">
        <ele>4010.2</ele>
        <time>2022-10-28T04:43:27.000Z</time>
      </trkpt>
      <trkpt lat="27.865942" lon="86.802541">
        <ele>4010.2</ele>
        <time>2022-10-28T04:43:30.000Z</time>
      </trkpt>
      <trkpt lat="27.865933" lon="86.802522">
        <ele>4010</ele>
        <time>2022-10-28T04:43:32.000Z</time>
      </trkpt>
      <trkpt lat="27.865926" lon="86.802502">
        <ele>4010.2</ele>
        <time>2022-10-28T04:43:34.000Z</time>
      </trkpt>
      <trkpt lat="27.86591" lon="86.80249">
        <ele>4009.2</ele>
        <time>2022-10-28T04:43:38.000Z</time>
      </trkpt>
      <trkpt lat="27.865891" lon="86.802477">
        <ele>4008.4</ele>
        <time>2022-10-28T04:43:42.000Z</time>
      </trkpt>
      <trkpt lat="27.865882" lon="86.802458">
        <ele>4008.4</ele>
        <time>2022-10-28T04:43:44.000Z</time>
      </trkpt>
      <trkpt lat="27.865869" lon="86.802438">
        <ele>4007</ele>
        <time>2022-10-28T04:43:48.000Z</time>
      </trkpt>
      <trkpt lat="27.865853" lon="86.802419">
        <ele>4006.4</ele>
        <time>2022-10-28T04:43:50.000Z</time>
      </trkpt>
      <trkpt lat="27.865834" lon="86.8024">
        <ele>4006.2</ele>
        <time>2022-10-28T04:43:53.000Z</time>
      </trkpt>
      <trkpt lat="27.865827" lon="86.802381">
        <ele>4006</ele>
        <time>2022-10-28T04:43:55.000Z</time>
      </trkpt>
      <trkpt lat="27.865821" lon="86.802362">
        <ele>4006</ele>
        <time>2022-10-28T04:43:57.000Z</time>
      </trkpt>
      <trkpt lat="27.865818" lon="86.802336">
        <ele>4005.8</ele>
        <time>2022-10-28T04:43:59.000Z</time>
      </trkpt>
      <trkpt lat="27.865811" lon="86.802317">
        <ele>4005.2</ele>
        <time>2022-10-28T04:44:02.000Z</time>
      </trkpt>
      <trkpt lat="27.865808" lon="86.802291">
        <ele>4005.2</ele>
        <time>2022-10-28T04:44:04.000Z</time>
      </trkpt>
      <trkpt lat="27.865792" lon="86.802272">
        <ele>4005</ele>
        <time>2022-10-28T04:44:08.000Z</time>
      </trkpt>
      <trkpt lat="27.865782" lon="86.802253">
        <ele>4004.4</ele>
        <time>2022-10-28T04:44:10.000Z</time>
      </trkpt>
      <trkpt lat="27.865763" lon="86.802246">
        <ele>4004</ele>
        <time>2022-10-28T04:44:14.000Z</time>
      </trkpt>
      <trkpt lat="27.865744" lon="86.802246">
        <ele>4003.8</ele>
        <time>2022-10-28T04:44:16.000Z</time>
      </trkpt>
      <trkpt lat="27.865718" lon="86.802234">
        <ele>4003</ele>
        <time>2022-10-28T04:44:19.000Z</time>
      </trkpt>
      <trkpt lat="27.865696" lon="86.802214">
        <ele>4002.4</ele>
        <time>2022-10-28T04:44:22.000Z</time>
      </trkpt>
      <trkpt lat="27.86567" lon="86.802208">
        <ele>4002</ele>
        <time>2022-10-28T04:44:25.000Z</time>
      </trkpt>
      <trkpt lat="27.865645" lon="86.802195">
        <ele>4001.2</ele>
        <time>2022-10-28T04:44:28.000Z</time>
      </trkpt>
      <trkpt lat="27.865622" lon="86.802182">
        <ele>4001</ele>
        <time>2022-10-28T04:44:31.000Z</time>
      </trkpt>
      <trkpt lat="27.865603" lon="86.802176">
        <ele>4000.6</ele>
        <time>2022-10-28T04:44:33.000Z</time>
      </trkpt>
      <trkpt lat="27.865587" lon="86.802163">
        <ele>4000.4</ele>
        <time>2022-10-28T04:44:35.000Z</time>
      </trkpt>
      <trkpt lat="27.865565" lon="86.802157">
        <ele>4000.2</ele>
        <time>2022-10-28T04:44:38.000Z</time>
      </trkpt>
      <trkpt lat="27.865542" lon="86.802131">
        <ele>4000</ele>
        <time>2022-10-28T04:44:41.000Z</time>
      </trkpt>
      <trkpt lat="27.86552" lon="86.802118">
        <ele>3999.4</ele>
        <time>2022-10-28T04:44:44.000Z</time>
      </trkpt>
      <trkpt lat="27.865501" lon="86.802099">
        <ele>3999</ele>
        <time>2022-10-28T04:44:46.000Z</time>
      </trkpt>
      <trkpt lat="27.865482" lon="86.802086">
        <ele>3998.2</ele>
        <time>2022-10-28T04:44:49.000Z</time>
      </trkpt>
      <trkpt lat="27.865456" lon="86.80208">
        <ele>3998</ele>
        <time>2022-10-28T04:44:52.000Z</time>
      </trkpt>
      <trkpt lat="27.865434" lon="86.80208">
        <ele>3998</ele>
        <time>2022-10-28T04:44:54.000Z</time>
      </trkpt>
      <trkpt lat="27.865418" lon="86.802061">
        <ele>3997.4</ele>
        <time>2022-10-28T04:44:56.000Z</time>
      </trkpt>
      <trkpt lat="27.865395" lon="86.802054">
        <ele>3997</ele>
        <time>2022-10-28T04:44:58.000Z</time>
      </trkpt>
      <trkpt lat="27.865334" lon="86.80201">
        <ele>3997</ele>
        <time>2022-10-28T04:45:05.000Z</time>
      </trkpt>
      <trkpt lat="27.865325" lon="86.801984">
        <ele>3996.6</ele>
        <time>2022-10-28T04:45:14.000Z</time>
      </trkpt>
      <trkpt lat="27.865302" lon="86.801978">
        <ele>3996.2</ele>
        <time>2022-10-28T04:45:19.000Z</time>
      </trkpt>
      <trkpt lat="27.865286" lon="86.801965">
        <ele>3995.2</ele>
        <time>2022-10-28T04:45:24.000Z</time>
      </trkpt>
      <trkpt lat="27.86527" lon="86.801946">
        <ele>3994.2</ele>
        <time>2022-10-28T04:45:27.000Z</time>
      </trkpt>
      <trkpt lat="27.865245" lon="86.801939">
        <ele>3993.8</ele>
        <time>2022-10-28T04:45:31.000Z</time>
      </trkpt>
      <trkpt lat="27.865222" lon="86.801926">
        <ele>3993</ele>
        <time>2022-10-28T04:45:34.000Z</time>
      </trkpt>
      <trkpt lat="27.865197" lon="86.80192">
        <ele>3992</ele>
        <time>2022-10-28T04:45:37.000Z</time>
      </trkpt>
      <trkpt lat="27.865181" lon="86.801901">
        <ele>3992</ele>
        <time>2022-10-28T04:45:39.000Z</time>
      </trkpt>
      <trkpt lat="27.865158" lon="86.801894">
        <ele>3991.8</ele>
        <time>2022-10-28T04:45:41.000Z</time>
      </trkpt>
      <trkpt lat="27.865142" lon="86.801882">
        <ele>3991.2</ele>
        <time>2022-10-28T04:45:43.000Z</time>
      </trkpt>
      <trkpt lat="27.865136" lon="86.801862">
        <ele>3991</ele>
        <time>2022-10-28T04:45:44.000Z</time>
      </trkpt>
      <trkpt lat="27.865117" lon="86.801843">
        <ele>3990.8</ele>
        <time>2022-10-28T04:45:47.000Z</time>
      </trkpt>
      <trkpt lat="27.865107" lon="86.801824">
        <ele>3991</ele>
        <time>2022-10-28T04:45:49.000Z</time>
      </trkpt>
      <trkpt lat="27.865094" lon="86.801805">
        <ele>3991.2</ele>
        <time>2022-10-28T04:45:51.000Z</time>
      </trkpt>
      <trkpt lat="27.865075" lon="86.801786">
        <ele>3991.2</ele>
        <time>2022-10-28T04:45:54.000Z</time>
      </trkpt>
      <trkpt lat="27.865056" lon="86.801779">
        <ele>3990.4</ele>
        <time>2022-10-28T04:45:57.000Z</time>
      </trkpt>
      <trkpt lat="27.865037" lon="86.801773">
        <ele>3990</ele>
        <time>2022-10-28T04:45:59.000Z</time>
      </trkpt>
      <trkpt lat="27.865014" lon="86.80176">
        <ele>3989.6</ele>
        <time>2022-10-28T04:46:02.000Z</time>
      </trkpt>
      <trkpt lat="27.864995" lon="86.801747">
        <ele>3989.8</ele>
        <time>2022-10-28T04:46:04.000Z</time>
      </trkpt>
      <trkpt lat="27.864979" lon="86.801734">
        <ele>3989.2</ele>
        <time>2022-10-28T04:46:06.000Z</time>
      </trkpt>
      <trkpt lat="27.86496" lon="86.801741">
        <ele>3989</ele>
        <time>2022-10-28T04:46:08.000Z</time>
      </trkpt>
      <trkpt lat="27.864934" lon="86.801747">
        <ele>3988.8</ele>
        <time>2022-10-28T04:46:10.000Z</time>
      </trkpt>
      <trkpt lat="27.864915" lon="86.801734">
        <ele>3988.8</ele>
        <time>2022-10-28T04:46:12.000Z</time>
      </trkpt>
      <trkpt lat="27.864909" lon="86.801715">
        <ele>3988.8</ele>
        <time>2022-10-28T04:46:14.000Z</time>
      </trkpt>
      <trkpt lat="27.864902" lon="86.80169">
        <ele>3989</ele>
        <time>2022-10-28T04:46:16.000Z</time>
      </trkpt>
      <trkpt lat="27.864886" lon="86.801664">
        <ele>3989.2</ele>
        <time>2022-10-28T04:46:19.000Z</time>
      </trkpt>
      <trkpt lat="27.864877" lon="86.801645">
        <ele>3988.8</ele>
        <time>2022-10-28T04:46:21.000Z</time>
      </trkpt>
      <trkpt lat="27.86487" lon="86.801613">
        <ele>3988.4</ele>
        <time>2022-10-28T04:46:23.000Z</time>
      </trkpt>
      <trkpt lat="27.864867" lon="86.801581">
        <ele>3988.4</ele>
        <time>2022-10-28T04:46:25.000Z</time>
      </trkpt>
      <trkpt lat="27.864848" lon="86.801562">
        <ele>3988.4</ele>
        <time>2022-10-28T04:46:27.000Z</time>
      </trkpt>
      <trkpt lat="27.864838" lon="86.801536">
        <ele>3987.8</ele>
        <time>2022-10-28T04:46:29.000Z</time>
      </trkpt>
      <trkpt lat="27.864829" lon="86.801517">
        <ele>3987.8</ele>
        <time>2022-10-28T04:46:31.000Z</time>
      </trkpt>
      <trkpt lat="27.864816" lon="86.801498">
        <ele>3987.6</ele>
        <time>2022-10-28T04:46:33.000Z</time>
      </trkpt>
      <trkpt lat="27.864806" lon="86.801466">
        <ele>3988.2</ele>
        <time>2022-10-28T04:46:36.000Z</time>
      </trkpt>
      <trkpt lat="27.864797" lon="86.801446">
        <ele>3988.2</ele>
        <time>2022-10-28T04:46:39.000Z</time>
      </trkpt>
      <trkpt lat="27.864787" lon="86.801427">
        <ele>3989.2</ele>
        <time>2022-10-28T04:46:42.000Z</time>
      </trkpt>
      <trkpt lat="27.864771" lon="86.801414">
        <ele>3989.2</ele>
        <time>2022-10-28T04:46:48.000Z</time>
      </trkpt>
      <trkpt lat="27.864752" lon="86.801402">
        <ele>3990.4</ele>
        <time>2022-10-28T04:46:54.000Z</time>
      </trkpt>
      <trkpt lat="27.864739" lon="86.801382">
        <ele>3990.6</ele>
        <time>2022-10-28T04:46:58.000Z</time>
      </trkpt>
      <trkpt lat="27.86473" lon="86.801363">
        <ele>3991.8</ele>
        <time>2022-10-28T04:47:04.000Z</time>
      </trkpt>
      <trkpt lat="27.864714" lon="86.801344">
        <ele>3992.6</ele>
        <time>2022-10-28T04:47:09.000Z</time>
      </trkpt>
      <trkpt lat="27.864691" lon="86.801338">
        <ele>3993.2</ele>
        <time>2022-10-28T04:47:14.000Z</time>
      </trkpt>
      <trkpt lat="27.864672" lon="86.801325">
        <ele>3993.2</ele>
        <time>2022-10-28T04:47:17.000Z</time>
      </trkpt>
      <trkpt lat="27.86465" lon="86.801299">
        <ele>3993.6</ele>
        <time>2022-10-28T04:47:20.000Z</time>
      </trkpt>
      <trkpt lat="27.864627" lon="86.801286">
        <ele>3993.4</ele>
        <time>2022-10-28T04:47:24.000Z</time>
      </trkpt>
      <trkpt lat="27.864618" lon="86.801267">
        <ele>3993.4</ele>
        <time>2022-10-28T04:47:26.000Z</time>
      </trkpt>
      <trkpt lat="27.864608" lon="86.801248">
        <ele>3993.2</ele>
        <time>2022-10-28T04:47:29.000Z</time>
      </trkpt>
      <trkpt lat="27.864602" lon="86.801229">
        <ele>3993.2</ele>
        <time>2022-10-28T04:47:30.000Z</time>
      </trkpt>
      <trkpt lat="27.864595" lon="86.801203">
        <ele>3992.4</ele>
        <time>2022-10-28T04:47:33.000Z</time>
      </trkpt>
      <trkpt lat="27.864592" lon="86.801178">
        <ele>3992.6</ele>
        <time>2022-10-28T04:47:35.000Z</time>
      </trkpt>
      <trkpt lat="27.864589" lon="86.801152">
        <ele>3992.8</ele>
        <time>2022-10-28T04:47:37.000Z</time>
      </trkpt>
      <trkpt lat="27.864589" lon="86.80112">
        <ele>3993.2</ele>
        <time>2022-10-28T04:47:41.000Z</time>
      </trkpt>
      <trkpt lat="27.864589" lon="86.801094">
        <ele>3993.6</ele>
        <time>2022-10-28T04:47:44.000Z</time>
      </trkpt>
      <trkpt lat="27.86457" lon="86.801069">
        <ele>3993.6</ele>
        <time>2022-10-28T04:47:48.000Z</time>
      </trkpt>
      <trkpt lat="27.86455" lon="86.801069">
        <ele>3993.6</ele>
        <time>2022-10-28T04:47:50.000Z</time>
      </trkpt>
      <trkpt lat="27.864531" lon="86.801088">
        <ele>3993.8</ele>
        <time>2022-10-28T04:55:43.000Z</time>
      </trkpt>
      <trkpt lat="27.864509" lon="86.801088">
        <ele>3993.6</ele>
        <time>2022-10-28T04:55:47.000Z</time>
      </trkpt>
      <trkpt lat="27.864483" lon="86.801094">
        <ele>3993.4</ele>
        <time>2022-10-28T04:55:52.000Z</time>
      </trkpt>
      <trkpt lat="27.864458" lon="86.801088">
        <ele>3993.4</ele>
        <time>2022-10-28T04:55:55.000Z</time>
      </trkpt>
      <trkpt lat="27.864438" lon="86.801082">
        <ele>3993.4</ele>
        <time>2022-10-28T04:55:57.000Z</time>
      </trkpt>
      <trkpt lat="27.864422" lon="86.801062">
        <ele>3993.4</ele>
        <time>2022-10-28T04:55:59.000Z</time>
      </trkpt>
      <trkpt lat="27.864403" lon="86.801056">
        <ele>3993.2</ele>
        <time>2022-10-28T04:56:01.000Z</time>
      </trkpt>
      <trkpt lat="27.864381" lon="86.801062">
        <ele>3993.4</ele>
        <time>2022-10-28T04:56:04.000Z</time>
      </trkpt>
      <trkpt lat="27.864362" lon="86.801062">
        <ele>3993.2</ele>
        <time>2022-10-28T04:56:06.000Z</time>
      </trkpt>
      <trkpt lat="27.864342" lon="86.80105">
        <ele>3993</ele>
        <time>2022-10-28T04:56:08.000Z</time>
      </trkpt>
      <trkpt lat="27.864323" lon="86.80103">
        <ele>3992.4</ele>
        <time>2022-10-28T04:56:10.000Z</time>
      </trkpt>
      <trkpt lat="27.864301" lon="86.801018">
        <ele>3992.4</ele>
        <time>2022-10-28T04:56:13.000Z</time>
      </trkpt>
      <trkpt lat="27.864282" lon="86.801005">
        <ele>3992</ele>
        <time>2022-10-28T04:56:15.000Z</time>
      </trkpt>
      <trkpt lat="27.864262" lon="86.800986">
        <ele>3991.6</ele>
        <time>2022-10-28T04:56:17.000Z</time>
      </trkpt>
      <trkpt lat="27.864243" lon="86.800973">
        <ele>3991.2</ele>
        <time>2022-10-28T04:56:19.000Z</time>
      </trkpt>
      <trkpt lat="27.864221" lon="86.800954">
        <ele>3991.2</ele>
        <time>2022-10-28T04:56:21.000Z</time>
      </trkpt>
      <trkpt lat="27.864202" lon="86.800941">
        <ele>3991.2</ele>
        <time>2022-10-28T04:56:23.000Z</time>
      </trkpt>
      <trkpt lat="27.864179" lon="86.800934">
        <ele>3991</ele>
        <time>2022-10-28T04:56:25.000Z</time>
      </trkpt>
      <trkpt lat="27.86416" lon="86.800922">
        <ele>3991</ele>
        <time>2022-10-28T04:56:27.000Z</time>
      </trkpt>
      <trkpt lat="27.864118" lon="86.800896">
        <ele>3990</ele>
        <time>2022-10-28T04:56:32.000Z</time>
      </trkpt>
      <trkpt lat="27.864099" lon="86.80089">
        <ele>3990</ele>
        <time>2022-10-28T04:56:35.000Z</time>
      </trkpt>
      <trkpt lat="27.864083" lon="86.80087">
        <ele>3990</ele>
        <time>2022-10-28T04:56:37.000Z</time>
      </trkpt>
      <trkpt lat="27.864067" lon="86.800851">
        <ele>3990</ele>
        <time>2022-10-28T04:56:39.000Z</time>
      </trkpt>
      <trkpt lat="27.864051" lon="86.800832">
        <ele>3989.4</ele>
        <time>2022-10-28T04:56:41.000Z</time>
      </trkpt>
      <trkpt lat="27.864035" lon="86.800819">
        <ele>3989.4</ele>
        <time>2022-10-28T04:56:43.000Z</time>
      </trkpt>
      <trkpt lat="27.864016" lon="86.800806">
        <ele>3989.4</ele>
        <time>2022-10-28T04:56:45.000Z</time>
      </trkpt>
      <trkpt lat="27.864003" lon="86.800787">
        <ele>3989.6</ele>
        <time>2022-10-28T04:56:47.000Z</time>
      </trkpt>
      <trkpt lat="27.863984" lon="86.800774">
        <ele>3989.2</ele>
        <time>2022-10-28T04:56:51.000Z</time>
      </trkpt>
      <trkpt lat="27.863971" lon="86.800755">
        <ele>3989.2</ele>
        <time>2022-10-28T04:56:53.000Z</time>
      </trkpt>
      <trkpt lat="27.863955" lon="86.800742">
        <ele>3989.4</ele>
        <time>2022-10-28T04:56:57.000Z</time>
      </trkpt>
      <trkpt lat="27.863933" lon="86.800736">
        <ele>3989.8</ele>
        <time>2022-10-28T04:57:01.000Z</time>
      </trkpt>
      <trkpt lat="27.86391" lon="86.800723">
        <ele>3990</ele>
        <time>2022-10-28T04:57:04.000Z</time>
      </trkpt>
      <trkpt lat="27.863898" lon="86.800704">
        <ele>3990.2</ele>
        <time>2022-10-28T04:57:06.000Z</time>
      </trkpt>
      <trkpt lat="27.863888" lon="86.800685">
        <ele>3989</ele>
        <time>2022-10-28T04:57:08.000Z</time>
      </trkpt>
      <trkpt lat="27.863882" lon="86.800653">
        <ele>3989</ele>
        <time>2022-10-28T04:57:10.000Z</time>
      </trkpt>
      <trkpt lat="27.863872" lon="86.800634">
        <ele>3988.2</ele>
        <time>2022-10-28T04:57:12.000Z</time>
      </trkpt>
      <trkpt lat="27.863856" lon="86.800614">
        <ele>3988</ele>
        <time>2022-10-28T04:57:14.000Z</time>
      </trkpt>
      <trkpt lat="27.86384" lon="86.800595">
        <ele>3988</ele>
        <time>2022-10-28T04:57:16.000Z</time>
      </trkpt>
      <trkpt lat="27.863824" lon="86.800582">
        <ele>3988.2</ele>
        <time>2022-10-28T04:57:18.000Z</time>
      </trkpt>
      <trkpt lat="27.863811" lon="86.800557">
        <ele>3988.6</ele>
        <time>2022-10-28T04:57:20.000Z</time>
      </trkpt>
      <trkpt lat="27.863795" lon="86.800538">
        <ele>3988.4</ele>
        <time>2022-10-28T04:57:23.000Z</time>
      </trkpt>
      <trkpt lat="27.863782" lon="86.800512">
        <ele>3988.8</ele>
        <time>2022-10-28T04:57:38.000Z</time>
      </trkpt>
      <trkpt lat="27.863773" lon="86.800493">
        <ele>3988.4</ele>
        <time>2022-10-28T04:57:41.000Z</time>
      </trkpt>
      <trkpt lat="27.863763" lon="86.800467">
        <ele>3987.8</ele>
        <time>2022-10-28T04:57:43.000Z</time>
      </trkpt>
      <trkpt lat="27.863754" lon="86.800448">
        <ele>3987.6</ele>
        <time>2022-10-28T04:57:46.000Z</time>
      </trkpt>
      <trkpt lat="27.863741" lon="86.800429">
        <ele>3987.4</ele>
        <time>2022-10-28T04:57:50.000Z</time>
      </trkpt>
      <trkpt lat="27.863718" lon="86.80041">
        <ele>3987.2</ele>
        <time>2022-10-28T04:57:53.000Z</time>
      </trkpt>
      <trkpt lat="27.863712" lon="86.80039">
        <ele>3987.2</ele>
        <time>2022-10-28T04:57:54.000Z</time>
      </trkpt>
      <trkpt lat="27.863706" lon="86.800371">
        <ele>3986.8</ele>
        <time>2022-10-28T04:57:56.000Z</time>
      </trkpt>
      <trkpt lat="27.863702" lon="86.800339">
        <ele>3986.6</ele>
        <time>2022-10-28T04:57:59.000Z</time>
      </trkpt>
      <trkpt lat="27.863693" lon="86.800307">
        <ele>3987</ele>
        <time>2022-10-28T04:58:02.000Z</time>
      </trkpt>
      <trkpt lat="27.863683" lon="86.800288">
        <ele>3987</ele>
        <time>2022-10-28T04:58:05.000Z</time>
      </trkpt>
      <trkpt lat="27.863677" lon="86.800269">
        <ele>3987</ele>
        <time>2022-10-28T04:58:07.000Z</time>
      </trkpt>
      <trkpt lat="27.863664" lon="86.80025">
        <ele>3987</ele>
        <time>2022-10-28T04:58:10.000Z</time>
      </trkpt>
      <trkpt lat="27.863658" lon="86.800224">
        <ele>3987</ele>
        <time>2022-10-28T04:58:12.000Z</time>
      </trkpt>
      <trkpt lat="27.863654" lon="86.800198">
        <ele>3987</ele>
        <time>2022-10-28T04:58:14.000Z</time>
      </trkpt>
      <trkpt lat="27.863654" lon="86.800173">
        <ele>3987.2</ele>
        <time>2022-10-28T04:58:18.000Z</time>
      </trkpt>
      <trkpt lat="27.863648" lon="86.800154">
        <ele>3987.8</ele>
        <time>2022-10-28T04:58:21.000Z</time>
      </trkpt>
      <trkpt lat="27.863638" lon="86.800134">
        <ele>3988</ele>
        <time>2022-10-28T04:58:26.000Z</time>
      </trkpt>
      <trkpt lat="27.863629" lon="86.800115">
        <ele>3988</ele>
        <time>2022-10-28T04:58:29.000Z</time>
      </trkpt>
      <trkpt lat="27.863616" lon="86.800096">
        <ele>3988.8</ele>
        <time>2022-10-28T04:58:33.000Z</time>
      </trkpt>
      <trkpt lat="27.86361" lon="86.80007">
        <ele>3988.8</ele>
        <time>2022-10-28T04:58:35.000Z</time>
      </trkpt>
      <trkpt lat="27.863597" lon="86.800051">
        <ele>3988.8</ele>
        <time>2022-10-28T04:58:38.000Z</time>
      </trkpt>
      <trkpt lat="27.863587" lon="86.800032">
        <ele>3988.8</ele>
        <time>2022-10-28T04:58:40.000Z</time>
      </trkpt>
      <trkpt lat="27.863581" lon="86.800013">
        <ele>3988</ele>
        <time>2022-10-28T04:58:42.000Z</time>
      </trkpt>
      <trkpt lat="27.863578" lon="86.799987">
        <ele>3987.8</ele>
        <time>2022-10-28T04:58:44.000Z</time>
      </trkpt>
      <trkpt lat="27.863568" lon="86.799968">
        <ele>3987.6</ele>
        <time>2022-10-28T04:58:47.000Z</time>
      </trkpt>
      <trkpt lat="27.863555" lon="86.799942">
        <ele>3987.6</ele>
        <time>2022-10-28T04:58:49.000Z</time>
      </trkpt>
      <trkpt lat="27.863546" lon="86.799917">
        <ele>3987.6</ele>
        <time>2022-10-28T04:58:52.000Z</time>
      </trkpt>
      <trkpt lat="27.863523" lon="86.799904">
        <ele>3988</ele>
        <time>2022-10-28T04:58:55.000Z</time>
      </trkpt>
      <trkpt lat="27.863501" lon="86.799891">
        <ele>3987.8</ele>
        <time>2022-10-28T04:58:58.000Z</time>
      </trkpt>
      <trkpt lat="27.863485" lon="86.799878">
        <ele>3987.8</ele>
        <time>2022-10-28T04:59:00.000Z</time>
      </trkpt>
      <trkpt lat="27.863466" lon="86.799872">
        <ele>3987.8</ele>
        <time>2022-10-28T04:59:02.000Z</time>
      </trkpt>
      <trkpt lat="27.863456" lon="86.799853">
        <ele>3987.6</ele>
        <time>2022-10-28T04:59:05.000Z</time>
      </trkpt>
      <trkpt lat="27.86345" lon="86.799834">
        <ele>3987.4</ele>
        <time>2022-10-28T04:59:07.000Z</time>
      </trkpt>
      <trkpt lat="27.863437" lon="86.799802">
        <ele>3987.4</ele>
        <time>2022-10-28T04:59:10.000Z</time>
      </trkpt>
      <trkpt lat="27.863414" lon="86.799795">
        <ele>3987.4</ele>
        <time>2022-10-28T04:59:13.000Z</time>
      </trkpt>
      <trkpt lat="27.863395" lon="86.799776">
        <ele>3987</ele>
        <time>2022-10-28T04:59:16.000Z</time>
      </trkpt>
      <trkpt lat="27.863386" lon="86.799757">
        <ele>3986.8</ele>
        <time>2022-10-28T04:59:18.000Z</time>
      </trkpt>
      <trkpt lat="27.86337" lon="86.799744">
        <ele>3986</ele>
        <time>2022-10-28T04:59:22.000Z</time>
      </trkpt>
      <trkpt lat="27.863357" lon="86.799693">
        <ele>3984.2</ele>
        <time>2022-10-28T05:00:45.000Z</time>
      </trkpt>
      <trkpt lat="27.863338" lon="86.799674">
        <ele>3983.2</ele>
        <time>2022-10-28T05:00:48.000Z</time>
      </trkpt>
      <trkpt lat="27.863318" lon="86.799667">
        <ele>3983.4</ele>
        <time>2022-10-28T05:00:51.000Z</time>
      </trkpt>
      <trkpt lat="27.86329" lon="86.799642">
        <ele>3981.4</ele>
        <time>2022-10-28T05:02:35.000Z</time>
      </trkpt>
      <trkpt lat="27.863264" lon="86.799635">
        <ele>3981.2</ele>
        <time>2022-10-28T05:02:37.000Z</time>
      </trkpt>
      <trkpt lat="27.863251" lon="86.799603">
        <ele>3980.6</ele>
        <time>2022-10-28T05:02:39.000Z</time>
      </trkpt>
      <trkpt lat="27.863245" lon="86.799584">
        <ele>3980.2</ele>
        <time>2022-10-28T05:02:41.000Z</time>
      </trkpt>
      <trkpt lat="27.863229" lon="86.799571">
        <ele>3980</ele>
        <time>2022-10-28T05:02:43.000Z</time>
      </trkpt>
      <trkpt lat="27.86321" lon="86.799578">
        <ele>3979</ele>
        <time>2022-10-28T05:02:48.000Z</time>
      </trkpt>
      <trkpt lat="27.863171" lon="86.799552">
        <ele>3977</ele>
        <time>2022-10-28T05:03:48.000Z</time>
      </trkpt>
      <trkpt lat="27.863142" lon="86.799552">
        <ele>3977</ele>
        <time>2022-10-28T05:03:50.000Z</time>
      </trkpt>
      <trkpt lat="27.863117" lon="86.799539">
        <ele>3977</ele>
        <time>2022-10-28T05:03:52.000Z</time>
      </trkpt>
      <trkpt lat="27.863098" lon="86.79952">
        <ele>3976.8</ele>
        <time>2022-10-28T05:03:54.000Z</time>
      </trkpt>
      <trkpt lat="27.863078" lon="86.799507">
        <ele>3976.4</ele>
        <time>2022-10-28T05:03:57.000Z</time>
      </trkpt>
      <trkpt lat="27.863053" lon="86.799501">
        <ele>3976.6</ele>
        <time>2022-10-28T05:04:22.000Z</time>
      </trkpt>
      <trkpt lat="27.86304" lon="86.799475">
        <ele>3976.4</ele>
        <time>2022-10-28T05:04:24.000Z</time>
      </trkpt>
      <trkpt lat="27.863027" lon="86.799456">
        <ele>3976</ele>
        <time>2022-10-28T05:04:27.000Z</time>
      </trkpt>
      <trkpt lat="27.863021" lon="86.799437">
        <ele>3976</ele>
        <time>2022-10-28T05:04:28.000Z</time>
      </trkpt>
      <trkpt lat="27.863002" lon="86.799424">
        <ele>3975.8</ele>
        <time>2022-10-28T05:04:33.000Z</time>
      </trkpt>
      <trkpt lat="27.862979" lon="86.799418">
        <ele>3975.8</ele>
        <time>2022-10-28T05:04:36.000Z</time>
      </trkpt>
      <trkpt lat="27.86297" lon="86.799398">
        <ele>3975.6</ele>
        <time>2022-10-28T05:04:37.000Z</time>
      </trkpt>
      <trkpt lat="27.862954" lon="86.799386">
        <ele>3975</ele>
        <time>2022-10-28T05:04:40.000Z</time>
      </trkpt>
      <trkpt lat="27.862934" lon="86.79936">
        <ele>3975.4</ele>
        <time>2022-10-28T05:04:47.000Z</time>
      </trkpt>
      <trkpt lat="27.862918" lon="86.799309">
        <ele>3974.8</ele>
        <time>2022-10-28T05:05:03.000Z</time>
      </trkpt>
      <trkpt lat="27.862912" lon="86.799283">
        <ele>3974.8</ele>
        <time>2022-10-28T05:05:05.000Z</time>
      </trkpt>
      <trkpt lat="27.862909" lon="86.799258">
        <ele>3973.8</ele>
        <time>2022-10-28T05:05:09.000Z</time>
      </trkpt>
      <trkpt lat="27.862902" lon="86.799232">
        <ele>3973.8</ele>
        <time>2022-10-28T05:05:11.000Z</time>
      </trkpt>
      <trkpt lat="27.862902" lon="86.799206">
        <ele>3972.8</ele>
        <time>2022-10-28T05:05:14.000Z</time>
      </trkpt>
      <trkpt lat="27.86289" lon="86.799187">
        <ele>3972.6</ele>
        <time>2022-10-28T05:05:17.000Z</time>
      </trkpt>
      <trkpt lat="27.862874" lon="86.799174">
        <ele>3972.2</ele>
        <time>2022-10-28T05:05:20.000Z</time>
      </trkpt>
      <trkpt lat="27.862864" lon="86.799149">
        <ele>3972.2</ele>
        <time>2022-10-28T05:05:22.000Z</time>
      </trkpt>
      <trkpt lat="27.862851" lon="86.799123">
        <ele>3972.2</ele>
        <time>2022-10-28T05:05:25.000Z</time>
      </trkpt>
      <trkpt lat="27.862848" lon="86.799098">
        <ele>3972.2</ele>
        <time>2022-10-28T05:05:30.000Z</time>
      </trkpt>
      <trkpt lat="27.862832" lon="86.799085">
        <ele>3973</ele>
        <time>2022-10-28T05:05:33.000Z</time>
      </trkpt>
      <trkpt lat="27.862813" lon="86.799072">
        <ele>3973.2</ele>
        <time>2022-10-28T05:05:36.000Z</time>
      </trkpt>
      <trkpt lat="27.862797" lon="86.79904">
        <ele>3973.8</ele>
        <time>2022-10-28T05:05:39.000Z</time>
      </trkpt>
      <trkpt lat="27.862774" lon="86.799034">
        <ele>3974.6</ele>
        <time>2022-10-28T05:05:43.000Z</time>
      </trkpt>
      <trkpt lat="27.862755" lon="86.799014">
        <ele>3975</ele>
        <time>2022-10-28T05:05:46.000Z</time>
      </trkpt>
      <trkpt lat="27.862742" lon="86.798995">
        <ele>3975</ele>
        <time>2022-10-28T05:05:48.000Z</time>
      </trkpt>
      <trkpt lat="27.862723" lon="86.798976">
        <ele>3975</ele>
        <time>2022-10-28T05:05:51.000Z</time>
      </trkpt>
      <trkpt lat="27.862707" lon="86.798963">
        <ele>3974.8</ele>
        <time>2022-10-28T05:05:53.000Z</time>
      </trkpt>
      <trkpt lat="27.862685" lon="86.798944">
        <ele>3974.2</ele>
        <time>2022-10-28T05:05:56.000Z</time>
      </trkpt>
      <trkpt lat="27.862675" lon="86.798925">
        <ele>3974.8</ele>
        <time>2022-10-28T05:05:59.000Z</time>
      </trkpt>
      <trkpt lat="27.862656" lon="86.798918">
        <ele>3974.6</ele>
        <time>2022-10-28T05:06:03.000Z</time>
      </trkpt>
      <trkpt lat="27.86264" lon="86.798899">
        <ele>3974</ele>
        <time>2022-10-28T05:06:09.000Z</time>
      </trkpt>
      <trkpt lat="27.862634" lon="86.79888">
        <ele>3974.6</ele>
        <time>2022-10-28T05:06:11.000Z</time>
      </trkpt>
      <trkpt lat="27.862621" lon="86.798861">
        <ele>3973.6</ele>
        <time>2022-10-28T05:06:15.000Z</time>
      </trkpt>
      <trkpt lat="27.862614" lon="86.798842">
        <ele>3974.8</ele>
        <time>2022-10-28T05:06:17.000Z</time>
      </trkpt>
      <trkpt lat="27.862595" lon="86.798822">
        <ele>3974.4</ele>
        <time>2022-10-28T05:06:21.000Z</time>
      </trkpt>
      <trkpt lat="27.862586" lon="86.798803">
        <ele>3974.4</ele>
        <time>2022-10-28T05:06:23.000Z</time>
      </trkpt>
      <trkpt lat="27.862566" lon="86.79879">
        <ele>3974.4</ele>
        <time>2022-10-28T05:06:29.000Z</time>
      </trkpt>
      <trkpt lat="27.86255" lon="86.798778">
        <ele>3974.6</ele>
        <time>2022-10-28T05:06:33.000Z</time>
      </trkpt>
      <trkpt lat="27.862541" lon="86.798758">
        <ele>3974.4</ele>
        <time>2022-10-28T05:06:36.000Z</time>
      </trkpt>
      <trkpt lat="27.862528" lon="86.798739">
        <ele>3975.2</ele>
        <time>2022-10-28T05:06:59.000Z</time>
      </trkpt>
      <trkpt lat="27.862506" lon="86.798714">
        <ele>3975.2</ele>
        <time>2022-10-28T05:07:01.000Z</time>
      </trkpt>
      <trkpt lat="27.862486" lon="86.798701">
        <ele>3975.4</ele>
        <time>2022-10-28T05:07:03.000Z</time>
      </trkpt>
      <trkpt lat="27.862474" lon="86.798682">
        <ele>3975.4</ele>
        <time>2022-10-28T05:07:04.000Z</time>
      </trkpt>
      <trkpt lat="27.862458" lon="86.798669">
        <ele>3975.6</ele>
        <time>2022-10-28T05:07:06.000Z</time>
      </trkpt>
      <trkpt lat="27.862445" lon="86.79865">
        <ele>3976</ele>
        <time>2022-10-28T05:07:08.000Z</time>
      </trkpt>
      <trkpt lat="27.862432" lon="86.79863">
        <ele>3976</ele>
        <time>2022-10-28T05:07:11.000Z</time>
      </trkpt>
      <trkpt lat="27.862429" lon="86.798605">
        <ele>3976</ele>
        <time>2022-10-28T05:07:13.000Z</time>
      </trkpt>
      <trkpt lat="27.862426" lon="86.798579">
        <ele>3977</ele>
        <time>2022-10-28T05:07:17.000Z</time>
      </trkpt>
      <trkpt lat="27.862416" lon="86.798554">
        <ele>3977.6</ele>
        <time>2022-10-28T05:07:22.000Z</time>
      </trkpt>
      <trkpt lat="27.862394" lon="86.798528">
        <ele>3977.8</ele>
        <time>2022-10-28T05:07:29.000Z</time>
      </trkpt>
      <trkpt lat="27.862381" lon="86.798509">
        <ele>3978.6</ele>
        <time>2022-10-28T05:07:33.000Z</time>
      </trkpt>
      <trkpt lat="27.862374" lon="86.798483">
        <ele>3978.6</ele>
        <time>2022-10-28T05:07:35.000Z</time>
      </trkpt>
      <trkpt lat="27.862365" lon="86.798464">
        <ele>3978.8</ele>
        <time>2022-10-28T05:07:38.000Z</time>
      </trkpt>
      <trkpt lat="27.862358" lon="86.798445">
        <ele>3979.6</ele>
        <time>2022-10-28T05:07:40.000Z</time>
      </trkpt>
      <trkpt lat="27.862352" lon="86.798426">
        <ele>3979.2</ele>
        <time>2022-10-28T05:07:42.000Z</time>
      </trkpt>
      <trkpt lat="27.862342" lon="86.798406">
        <ele>3979</ele>
        <time>2022-10-28T05:07:44.000Z</time>
      </trkpt>
      <trkpt lat="27.862317" lon="86.798381">
        <ele>3979</ele>
        <time>2022-10-28T05:07:47.000Z</time>
      </trkpt>
      <trkpt lat="27.86231" lon="86.798362">
        <ele>3979.2</ele>
        <time>2022-10-28T05:07:49.000Z</time>
      </trkpt>
      <trkpt lat="27.862301" lon="86.798342">
        <ele>3979</ele>
        <time>2022-10-28T05:07:51.000Z</time>
      </trkpt>
      <trkpt lat="27.862291" lon="86.798317">
        <ele>3978.8</ele>
        <time>2022-10-28T05:07:53.000Z</time>
      </trkpt>
      <trkpt lat="27.862282" lon="86.798291">
        <ele>3978.8</ele>
        <time>2022-10-28T05:07:55.000Z</time>
      </trkpt>
      <trkpt lat="27.862272" lon="86.798266">
        <ele>3979</ele>
        <time>2022-10-28T05:07:58.000Z</time>
      </trkpt>
      <trkpt lat="27.862269" lon="86.79824">
        <ele>3979.2</ele>
        <time>2022-10-28T05:08:00.000Z</time>
      </trkpt>
      <trkpt lat="27.862262" lon="86.798221">
        <ele>3979</ele>
        <time>2022-10-28T05:08:02.000Z</time>
      </trkpt>
      <trkpt lat="27.862246" lon="86.798202">
        <ele>3979</ele>
        <time>2022-10-28T05:08:04.000Z</time>
      </trkpt>
      <trkpt lat="27.862227" lon="86.798195">
        <ele>3979.8</ele>
        <time>2022-10-28T05:08:06.000Z</time>
      </trkpt>
      <trkpt lat="27.862208" lon="86.798182">
        <ele>3979.6</ele>
        <time>2022-10-28T05:08:08.000Z</time>
      </trkpt>
      <trkpt lat="27.862189" lon="86.79817">
        <ele>3979.6</ele>
        <time>2022-10-28T05:08:10.000Z</time>
      </trkpt>
      <trkpt lat="27.86217" lon="86.798157">
        <ele>3979.6</ele>
        <time>2022-10-28T05:08:13.000Z</time>
      </trkpt>
      <trkpt lat="27.862154" lon="86.798144">
        <ele>3980</ele>
        <time>2022-10-28T05:08:15.000Z</time>
      </trkpt>
      <trkpt lat="27.862131" lon="86.798125">
        <ele>3980</ele>
        <time>2022-10-28T05:08:18.000Z</time>
      </trkpt>
      <trkpt lat="27.862125" lon="86.798093">
        <ele>3980</ele>
        <time>2022-10-28T05:08:21.000Z</time>
      </trkpt>
      <trkpt lat="27.862122" lon="86.798067">
        <ele>3980</ele>
        <time>2022-10-28T05:08:24.000Z</time>
      </trkpt>
      <trkpt lat="27.862131" lon="86.798048">
        <ele>3980</ele>
        <time>2022-10-28T05:08:27.000Z</time>
      </trkpt>
      <trkpt lat="27.862138" lon="86.798029">
        <ele>3981</ele>
        <time>2022-10-28T05:08:57.000Z</time>
      </trkpt>
      <trkpt lat="27.862141" lon="86.798003">
        <ele>3980.6</ele>
        <time>2022-10-28T05:08:59.000Z</time>
      </trkpt>
      <trkpt lat="27.86215" lon="86.797984">
        <ele>3980.2</ele>
        <time>2022-10-28T05:09:01.000Z</time>
      </trkpt>
      <trkpt lat="27.862163" lon="86.797965">
        <ele>3980</ele>
        <time>2022-10-28T05:09:03.000Z</time>
      </trkpt>
      <trkpt lat="27.862176" lon="86.797946">
        <ele>3980.8</ele>
        <time>2022-10-28T05:09:07.000Z</time>
      </trkpt>
      <trkpt lat="27.862176" lon="86.79792">
        <ele>3980.8</ele>
        <time>2022-10-28T05:09:11.000Z</time>
      </trkpt>
      <trkpt lat="27.86217" lon="86.797894">
        <ele>3981</ele>
        <time>2022-10-28T05:09:13.000Z</time>
      </trkpt>
      <trkpt lat="27.86215" lon="86.797882">
        <ele>3981.2</ele>
        <time>2022-10-28T05:09:17.000Z</time>
      </trkpt>
      <trkpt lat="27.862134" lon="86.797869">
        <ele>3982</ele>
        <time>2022-10-28T05:09:21.000Z</time>
      </trkpt>
      <trkpt lat="27.862115" lon="86.797856">
        <ele>3982.2</ele>
        <time>2022-10-28T05:09:24.000Z</time>
      </trkpt>
      <trkpt lat="27.862096" lon="86.79785">
        <ele>3982.4</ele>
        <time>2022-10-28T05:09:26.000Z</time>
      </trkpt>
      <trkpt lat="27.86207" lon="86.797843">
        <ele>3982.8</ele>
        <time>2022-10-28T05:09:29.000Z</time>
      </trkpt>
      <trkpt lat="27.862054" lon="86.79783">
        <ele>3983.2</ele>
        <time>2022-10-28T05:09:32.000Z</time>
      </trkpt>
      <trkpt lat="27.862048" lon="86.797811">
        <ele>3982.4</ele>
        <time>2022-10-28T05:09:34.000Z</time>
      </trkpt>
      <trkpt lat="27.862035" lon="86.797792">
        <ele>3982.4</ele>
        <time>2022-10-28T05:09:38.000Z</time>
      </trkpt>
      <trkpt lat="27.862022" lon="86.797773">
        <ele>3983</ele>
        <time>2022-10-28T05:09:41.000Z</time>
      </trkpt>
      <trkpt lat="27.862016" lon="86.797754">
        <ele>3983.2</ele>
        <time>2022-10-28T05:09:47.000Z</time>
      </trkpt>
      <trkpt lat="27.86201" lon="86.797728">
        <ele>3983.4</ele>
        <time>2022-10-28T05:09:53.000Z</time>
      </trkpt>
      <trkpt lat="27.862003" lon="86.797709">
        <ele>3983.8</ele>
        <time>2022-10-28T05:09:58.000Z</time>
      </trkpt>
      <trkpt lat="27.861997" lon="86.79769">
        <ele>3984.4</ele>
        <time>2022-10-28T05:10:02.000Z</time>
      </trkpt>
      <trkpt lat="27.86199" lon="86.79767">
        <ele>3984.8</ele>
        <time>2022-10-28T05:10:06.000Z</time>
      </trkpt>
      <trkpt lat="27.861997" lon="86.797651">
        <ele>3984.8</ele>
        <time>2022-10-28T05:10:11.000Z</time>
      </trkpt>
      <trkpt lat="27.862" lon="86.797626">
        <ele>3988</ele>
        <time>2022-10-28T05:10:43.000Z</time>
      </trkpt>
      <trkpt lat="27.861997" lon="86.7976">
        <ele>3988</ele>
        <time>2022-10-28T05:10:44.000Z</time>
      </trkpt>
      <trkpt lat="27.862" lon="86.797574">
        <ele>3987.8</ele>
        <time>2022-10-28T05:10:45.000Z</time>
      </trkpt>
      <trkpt lat="27.862003" lon="86.797536">
        <ele>3988.2</ele>
        <time>2022-10-28T05:10:47.000Z</time>
      </trkpt>
      <trkpt lat="27.862006" lon="86.797498">
        <ele>3988.2</ele>
        <time>2022-10-28T05:10:49.000Z</time>
      </trkpt>
      <trkpt lat="27.862019" lon="86.797466">
        <ele>3988.2</ele>
        <time>2022-10-28T05:10:51.000Z</time>
      </trkpt>
      <trkpt lat="27.862022" lon="86.79744">
        <ele>3988.4</ele>
        <time>2022-10-28T05:10:53.000Z</time>
      </trkpt>
      <trkpt lat="27.862019" lon="86.797414">
        <ele>3988</ele>
        <time>2022-10-28T05:10:55.000Z</time>
      </trkpt>
      <trkpt lat="27.862003" lon="86.797395">
        <ele>3987.6</ele>
        <time>2022-10-28T05:10:58.000Z</time>
      </trkpt>
      <trkpt lat="27.86199" lon="86.797376">
        <ele>3987.2</ele>
        <time>2022-10-28T05:11:00.000Z</time>
      </trkpt>
      <trkpt lat="27.861974" lon="86.797357">
        <ele>3987.2</ele>
        <time>2022-10-28T05:11:03.000Z</time>
      </trkpt>
      <trkpt lat="27.861962" lon="86.797338">
        <ele>3987.2</ele>
        <time>2022-10-28T05:11:05.000Z</time>
      </trkpt>
      <trkpt lat="27.861942" lon="86.797318">
        <ele>3986.4</ele>
        <time>2022-10-28T05:11:08.000Z</time>
      </trkpt>
      <trkpt lat="27.86193" lon="86.797299">
        <ele>3986</ele>
        <time>2022-10-28T05:11:10.000Z</time>
      </trkpt>
      <trkpt lat="27.86191" lon="86.797293">
        <ele>3985.8</ele>
        <time>2022-10-28T05:11:12.000Z</time>
      </trkpt>
      <trkpt lat="27.861891" lon="86.797286">
        <ele>3985.8</ele>
        <time>2022-10-28T05:11:14.000Z</time>
      </trkpt>
      <trkpt lat="27.861869" lon="86.797286">
        <ele>3986</ele>
        <time>2022-10-28T05:11:16.000Z</time>
      </trkpt>
      <trkpt lat="27.86185" lon="86.797274">
        <ele>3986.2</ele>
        <time>2022-10-28T05:11:19.000Z</time>
      </trkpt>
      <trkpt lat="27.861834" lon="86.797254">
        <ele>3986.8</ele>
        <time>2022-10-28T05:11:22.000Z</time>
      </trkpt>
      <trkpt lat="27.861824" lon="86.797235">
        <ele>3987.6</ele>
        <time>2022-10-28T05:11:25.000Z</time>
      </trkpt>
      <trkpt lat="27.861818" lon="86.797216">
        <ele>3988</ele>
        <time>2022-10-28T05:11:31.000Z</time>
      </trkpt>
      <trkpt lat="27.861802" lon="86.797203">
        <ele>3988</ele>
        <time>2022-10-28T05:11:36.000Z</time>
      </trkpt>
      <trkpt lat="27.861789" lon="86.797178">
        <ele>3988.2</ele>
        <time>2022-10-28T05:11:39.000Z</time>
      </trkpt>
      <trkpt lat="27.861776" lon="86.797158">
        <ele>3989.2</ele>
        <time>2022-10-28T05:11:42.000Z</time>
      </trkpt>
      <trkpt lat="27.861766" lon="86.797139">
        <ele>3989.2</ele>
        <time>2022-10-28T05:11:44.000Z</time>
      </trkpt>
      <trkpt lat="27.861747" lon="86.79712">
        <ele>3989.6</ele>
        <time>2022-10-28T05:11:47.000Z</time>
      </trkpt>
      <trkpt lat="27.861738" lon="86.797101">
        <ele>3989.8</ele>
        <time>2022-10-28T05:11:49.000Z</time>
      </trkpt>
      <trkpt lat="27.861722" lon="86.797088">
        <ele>3990</ele>
        <time>2022-10-28T05:11:52.000Z</time>
      </trkpt>
      <trkpt lat="27.861706" lon="86.797075">
        <ele>3990</ele>
        <time>2022-10-28T05:11:55.000Z</time>
      </trkpt>
      <trkpt lat="27.861699" lon="86.797056">
        <ele>3990</ele>
        <time>2022-10-28T05:11:57.000Z</time>
      </trkpt>
      <trkpt lat="27.861693" lon="86.797037">
        <ele>3989.8</ele>
        <time>2022-10-28T05:11:59.000Z</time>
      </trkpt>
      <trkpt lat="27.861686" lon="86.797011">
        <ele>3989.8</ele>
        <time>2022-10-28T05:12:01.000Z</time>
      </trkpt>
      <trkpt lat="27.86169" lon="86.796979">
        <ele>3989.4</ele>
        <time>2022-10-28T05:12:04.000Z</time>
      </trkpt>
      <trkpt lat="27.861683" lon="86.796954">
        <ele>3990</ele>
        <time>2022-10-28T05:12:08.000Z</time>
      </trkpt>
      <trkpt lat="27.86167" lon="86.796934">
        <ele>3990.2</ele>
        <time>2022-10-28T05:12:12.000Z</time>
      </trkpt>
      <trkpt lat="27.861648" lon="86.796922">
        <ele>3989.6</ele>
        <time>2022-10-28T05:12:15.000Z</time>
      </trkpt>
      <trkpt lat="27.861629" lon="86.796902">
        <ele>3989</ele>
        <time>2022-10-28T05:12:17.000Z</time>
      </trkpt>
      <trkpt lat="27.861613" lon="86.79689">
        <ele>3988.4</ele>
        <time>2022-10-28T05:12:19.000Z</time>
      </trkpt>
      <trkpt lat="27.8616" lon="86.79687">
        <ele>3988.4</ele>
        <time>2022-10-28T05:12:21.000Z</time>
      </trkpt>
      <trkpt lat="27.861597" lon="86.796845">
        <ele>3988.4</ele>
        <time>2022-10-28T05:12:23.000Z</time>
      </trkpt>
      <trkpt lat="27.861581" lon="86.796832">
        <ele>3988.2</ele>
        <time>2022-10-28T05:12:25.000Z</time>
      </trkpt>
      <trkpt lat="27.861574" lon="86.796813">
        <ele>3988.2</ele>
        <time>2022-10-28T05:12:26.000Z</time>
      </trkpt>
      <trkpt lat="27.861555" lon="86.7968">
        <ele>3988.2</ele>
        <time>2022-10-28T05:12:29.000Z</time>
      </trkpt>
      <trkpt lat="27.861549" lon="86.796781">
        <ele>3988.2</ele>
        <time>2022-10-28T05:12:30.000Z</time>
      </trkpt>
      <trkpt lat="27.861533" lon="86.796768">
        <ele>3988.2</ele>
        <time>2022-10-28T05:12:32.000Z</time>
      </trkpt>
      <trkpt lat="27.861514" lon="86.796742">
        <ele>3988.2</ele>
        <time>2022-10-28T05:12:35.000Z</time>
      </trkpt>
      <trkpt lat="27.861498" lon="86.79673">
        <ele>3988.6</ele>
        <time>2022-10-28T05:12:37.000Z</time>
      </trkpt>
      <trkpt lat="27.861482" lon="86.796717">
        <ele>3988.4</ele>
        <time>2022-10-28T05:12:39.000Z</time>
      </trkpt>
      <trkpt lat="27.861469" lon="86.796698">
        <ele>3988.2</ele>
        <time>2022-10-28T05:12:41.000Z</time>
      </trkpt>
      <trkpt lat="27.861453" lon="86.796685">
        <ele>3988.2</ele>
        <time>2022-10-28T05:12:43.000Z</time>
      </trkpt>
      <trkpt lat="27.861443" lon="86.796653">
        <ele>3988.4</ele>
        <time>2022-10-28T05:12:46.000Z</time>
      </trkpt>
      <trkpt lat="27.86143" lon="86.796621">
        <ele>3988.6</ele>
        <time>2022-10-28T05:12:49.000Z</time>
      </trkpt>
      <trkpt lat="27.861418" lon="86.796602">
        <ele>3988.8</ele>
        <time>2022-10-28T05:12:53.000Z</time>
      </trkpt>
      <trkpt lat="27.861402" lon="86.796582">
        <ele>3988.6</ele>
        <time>2022-10-28T05:12:55.000Z</time>
      </trkpt>
      <trkpt lat="27.861376" lon="86.796576">
        <ele>3988.6</ele>
        <time>2022-10-28T05:12:58.000Z</time>
      </trkpt>
      <trkpt lat="27.861357" lon="86.79657">
        <ele>3988.4</ele>
        <time>2022-10-28T05:13:00.000Z</time>
      </trkpt>
      <trkpt lat="27.861341" lon="86.796557">
        <ele>3988.8</ele>
        <time>2022-10-28T05:13:02.000Z</time>
      </trkpt>
      <trkpt lat="27.861325" lon="86.796544">
        <ele>3988.4</ele>
        <time>2022-10-28T05:13:04.000Z</time>
      </trkpt>
      <trkpt lat="27.861309" lon="86.796531">
        <ele>3988.4</ele>
        <time>2022-10-28T05:13:08.000Z</time>
      </trkpt>
      <trkpt lat="27.86129" lon="86.796525">
        <ele>3988.4</ele>
        <time>2022-10-28T05:13:10.000Z</time>
      </trkpt>
      <trkpt lat="27.861277" lon="86.796506">
        <ele>3988.2</ele>
        <time>2022-10-28T05:13:13.000Z</time>
      </trkpt>
      <trkpt lat="27.861258" lon="86.796493">
        <ele>3989.6</ele>
        <time>2022-10-28T05:13:54.000Z</time>
      </trkpt>
      <trkpt lat="27.861242" lon="86.79648">
        <ele>3989.6</ele>
        <time>2022-10-28T05:13:55.000Z</time>
      </trkpt>
      <trkpt lat="27.861216" lon="86.796454">
        <ele>3989.6</ele>
        <time>2022-10-28T05:13:57.000Z</time>
      </trkpt>
      <trkpt lat="27.861197" lon="86.796435">
        <ele>3989.6</ele>
        <time>2022-10-28T05:13:59.000Z</time>
      </trkpt>
      <trkpt lat="27.861184" lon="86.796416">
        <ele>3989.6</ele>
        <time>2022-10-28T05:14:00.000Z</time>
      </trkpt>
      <trkpt lat="27.861165" lon="86.796403">
        <ele>3989.8</ele>
        <time>2022-10-28T05:14:02.000Z</time>
      </trkpt>
      <trkpt lat="27.861155" lon="86.796384">
        <ele>3990</ele>
        <time>2022-10-28T05:14:04.000Z</time>
      </trkpt>
      <trkpt lat="27.861136" lon="86.796378">
        <ele>3989.6</ele>
        <time>2022-10-28T05:15:06.000Z</time>
      </trkpt>
      <trkpt lat="27.861117" lon="86.796371">
        <ele>3989.6</ele>
        <time>2022-10-28T05:15:08.000Z</time>
      </trkpt>
      <trkpt lat="27.861101" lon="86.796358">
        <ele>3989.8</ele>
        <time>2022-10-28T05:15:11.000Z</time>
      </trkpt>
      <trkpt lat="27.861082" lon="86.796346">
        <ele>3990</ele>
        <time>2022-10-28T05:15:13.000Z</time>
      </trkpt>
      <trkpt lat="27.861066" lon="86.796333">
        <ele>3990</ele>
        <time>2022-10-28T05:15:15.000Z</time>
      </trkpt>
      <trkpt lat="27.861046" lon="86.79632">
        <ele>3989.8</ele>
        <time>2022-10-28T05:15:18.000Z</time>
      </trkpt>
      <trkpt lat="27.861024" lon="86.79632">
        <ele>3990.4</ele>
        <time>2022-10-28T05:15:20.000Z</time>
      </trkpt>
      <trkpt lat="27.861005" lon="86.796314">
        <ele>3990.6</ele>
        <time>2022-10-28T05:15:22.000Z</time>
      </trkpt>
      <trkpt lat="27.860986" lon="86.796301">
        <ele>3990.6</ele>
        <time>2022-10-28T05:15:24.000Z</time>
      </trkpt>
      <trkpt lat="27.860966" lon="86.796294">
        <ele>3990.8</ele>
        <time>2022-10-28T05:15:26.000Z</time>
      </trkpt>
      <trkpt lat="27.860944" lon="86.796282">
        <ele>3991</ele>
        <time>2022-10-28T05:15:29.000Z</time>
      </trkpt>
      <trkpt lat="27.860928" lon="86.796262">
        <ele>3990.8</ele>
        <time>2022-10-28T05:15:31.000Z</time>
      </trkpt>
      <trkpt lat="27.860912" lon="86.79625">
        <ele>3991</ele>
        <time>2022-10-28T05:15:35.000Z</time>
      </trkpt>
      <trkpt lat="27.860902" lon="86.796224">
        <ele>3990.8</ele>
        <time>2022-10-28T05:15:43.000Z</time>
      </trkpt>
      <trkpt lat="27.860886" lon="86.796205">
        <ele>3990.8</ele>
        <time>2022-10-28T05:15:46.000Z</time>
      </trkpt>
      <trkpt lat="27.860877" lon="86.796186">
        <ele>3990.8</ele>
        <time>2022-10-28T05:15:48.000Z</time>
      </trkpt>
      <trkpt lat="27.860864" lon="86.796166">
        <ele>3990.4</ele>
        <time>2022-10-28T05:15:51.000Z</time>
      </trkpt>
      <trkpt lat="27.860854" lon="86.796147">
        <ele>3990.4</ele>
        <time>2022-10-28T05:15:53.000Z</time>
      </trkpt>
      <trkpt lat="27.860848" lon="86.796122">
        <ele>3990.4</ele>
        <time>2022-10-28T05:15:56.000Z</time>
      </trkpt>
      <trkpt lat="27.860845" lon="86.796096">
        <ele>3990.4</ele>
        <time>2022-10-28T05:15:58.000Z</time>
      </trkpt>
      <trkpt lat="27.860838" lon="86.796064">
        <ele>3990.4</ele>
        <time>2022-10-28T05:16:02.000Z</time>
      </trkpt>
      <trkpt lat="27.860832" lon="86.796045">
        <ele>3990</ele>
        <time>2022-10-28T05:16:05.000Z</time>
      </trkpt>
      <trkpt lat="27.860826" lon="86.796026">
        <ele>3990</ele>
        <time>2022-10-28T05:16:06.000Z</time>
      </trkpt>
      <trkpt lat="27.860813" lon="86.796006">
        <ele>3990.4</ele>
        <time>2022-10-28T05:16:09.000Z</time>
      </trkpt>
      <trkpt lat="27.860806" lon="86.795987">
        <ele>3990.6</ele>
        <time>2022-10-28T05:16:11.000Z</time>
      </trkpt>
      <trkpt lat="27.860797" lon="86.795968">
        <ele>3990.6</ele>
        <time>2022-10-28T05:16:14.000Z</time>
      </trkpt>
      <trkpt lat="27.860794" lon="86.795942">
        <ele>3990.8</ele>
        <time>2022-10-28T05:16:17.000Z</time>
      </trkpt>
      <trkpt lat="27.860784" lon="86.795923">
        <ele>3990.8</ele>
        <time>2022-10-28T05:16:20.000Z</time>
      </trkpt>
      <trkpt lat="27.860765" lon="86.795878">
        <ele>3991.8</ele>
        <time>2022-10-28T05:17:25.000Z</time>
      </trkpt>
      <trkpt lat="27.860758" lon="86.795853">
        <ele>3992.6</ele>
        <time>2022-10-28T05:17:27.000Z</time>
      </trkpt>
      <trkpt lat="27.860755" lon="86.795821">
        <ele>3992.6</ele>
        <time>2022-10-28T05:17:30.000Z</time>
      </trkpt>
      <trkpt lat="27.860742" lon="86.795782">
        <ele>3992.8</ele>
        <time>2022-10-28T05:17:35.000Z</time>
      </trkpt>
      <trkpt lat="27.86073" lon="86.79575">
        <ele>3993.4</ele>
        <time>2022-10-28T05:17:54.000Z</time>
      </trkpt>
      <trkpt lat="27.86072" lon="86.795731">
        <ele>3993.6</ele>
        <time>2022-10-28T05:17:56.000Z</time>
      </trkpt>
      <trkpt lat="27.86071" lon="86.795706">
        <ele>3993.6</ele>
        <time>2022-10-28T05:17:58.000Z</time>
      </trkpt>
      <trkpt lat="27.860691" lon="86.79568">
        <ele>3994.2</ele>
        <time>2022-10-28T05:18:00.000Z</time>
      </trkpt>
      <trkpt lat="27.860678" lon="86.795661">
        <ele>3994.2</ele>
        <time>2022-10-28T05:18:01.000Z</time>
      </trkpt>
      <trkpt lat="27.860666" lon="86.795642">
        <ele>3994.4</ele>
        <time>2022-10-28T05:18:04.000Z</time>
      </trkpt>
      <trkpt lat="27.860656" lon="86.795622">
        <ele>3994.6</ele>
        <time>2022-10-28T05:18:06.000Z</time>
      </trkpt>
      <trkpt lat="27.860643" lon="86.79559">
        <ele>3994.6</ele>
        <time>2022-10-28T05:18:09.000Z</time>
      </trkpt>
      <trkpt lat="27.860627" lon="86.795571">
        <ele>3994.8</ele>
        <time>2022-10-28T05:18:13.000Z</time>
      </trkpt>
      <trkpt lat="27.860618" lon="86.795552">
        <ele>3994.8</ele>
        <time>2022-10-28T05:18:15.000Z</time>
      </trkpt>
      <trkpt lat="27.860605" lon="86.795533">
        <ele>3995.4</ele>
        <time>2022-10-28T05:18:21.000Z</time>
      </trkpt>
      <trkpt lat="27.860589" lon="86.79552">
        <ele>3995.8</ele>
        <time>2022-10-28T05:18:25.000Z</time>
      </trkpt>
      <trkpt lat="27.86057" lon="86.795501">
        <ele>3996.6</ele>
        <time>2022-10-28T05:18:30.000Z</time>
      </trkpt>
      <trkpt lat="27.86055" lon="86.795482">
        <ele>3997</ele>
        <time>2022-10-28T05:18:35.000Z</time>
      </trkpt>
      <trkpt lat="27.860541" lon="86.795462">
        <ele>3997.8</ele>
        <time>2022-10-28T05:18:38.000Z</time>
      </trkpt>
      <trkpt lat="27.860528" lon="86.795443">
        <ele>3998</ele>
        <time>2022-10-28T05:18:41.000Z</time>
      </trkpt>
      <trkpt lat="27.860512" lon="86.795424">
        <ele>3998.6</ele>
        <time>2022-10-28T05:18:44.000Z</time>
      </trkpt>
      <trkpt lat="27.860499" lon="86.795405">
        <ele>3999</ele>
        <time>2022-10-28T05:18:47.000Z</time>
      </trkpt>
      <trkpt lat="27.860486" lon="86.795386">
        <ele>3999</ele>
        <time>2022-10-28T05:18:51.000Z</time>
      </trkpt>
      <trkpt lat="27.86047" lon="86.795366">
        <ele>3999</ele>
        <time>2022-10-28T05:18:57.000Z</time>
      </trkpt>
      <trkpt lat="27.860464" lon="86.795347">
        <ele>3999</ele>
        <time>2022-10-28T05:19:00.000Z</time>
      </trkpt>
      <trkpt lat="27.860458" lon="86.795328">
        <ele>4000.2</ele>
        <time>2022-10-28T05:19:09.000Z</time>
      </trkpt>
      <trkpt lat="27.860438" lon="86.795322">
        <ele>4000.2</ele>
        <time>2022-10-28T05:19:14.000Z</time>
      </trkpt>
      <trkpt lat="27.860432" lon="86.795302">
        <ele>4000</ele>
        <time>2022-10-28T05:19:16.000Z</time>
      </trkpt>
      <trkpt lat="27.860422" lon="86.795283">
        <ele>4001.2</ele>
        <time>2022-10-28T05:19:20.000Z</time>
      </trkpt>
      <trkpt lat="27.860416" lon="86.795264">
        <ele>4001.4</ele>
        <time>2022-10-28T05:19:24.000Z</time>
      </trkpt>
      <trkpt lat="27.86041" lon="86.795245">
        <ele>4001.8</ele>
        <time>2022-10-28T05:19:29.000Z</time>
      </trkpt>
      <trkpt lat="27.860397" lon="86.795226">
        <ele>4002.4</ele>
        <time>2022-10-28T05:19:34.000Z</time>
      </trkpt>
      <trkpt lat="27.860378" lon="86.795213">
        <ele>4003.2</ele>
        <time>2022-10-28T05:19:38.000Z</time>
      </trkpt>
      <trkpt lat="27.860358" lon="86.795194">
        <ele>4003.8</ele>
        <time>2022-10-28T05:19:44.000Z</time>
      </trkpt>
      <trkpt lat="27.860342" lon="86.795181">
        <ele>4005</ele>
        <time>2022-10-28T05:19:50.000Z</time>
      </trkpt>
      <trkpt lat="27.860326" lon="86.795168">
        <ele>4005</ele>
        <time>2022-10-28T05:19:55.000Z</time>
      </trkpt>
      <trkpt lat="27.860317" lon="86.795149">
        <ele>4005.8</ele>
        <time>2022-10-28T05:19:58.000Z</time>
      </trkpt>
      <trkpt lat="27.860298" lon="86.795136">
        <ele>4006</ele>
        <time>2022-10-28T05:20:02.000Z</time>
      </trkpt>
      <trkpt lat="27.860275" lon="86.79513">
        <ele>4006.2</ele>
        <time>2022-10-28T05:20:07.000Z</time>
      </trkpt>
      <trkpt lat="27.860259" lon="86.79511">
        <ele>4007</ele>
        <time>2022-10-28T05:20:10.000Z</time>
      </trkpt>
      <trkpt lat="27.860237" lon="86.795098">
        <ele>4007.4</ele>
        <time>2022-10-28T05:20:14.000Z</time>
      </trkpt>
      <trkpt lat="27.860221" lon="86.795085">
        <ele>4008</ele>
        <time>2022-10-28T05:20:17.000Z</time>
      </trkpt>
      <trkpt lat="27.860211" lon="86.795066">
        <ele>4007.8</ele>
        <time>2022-10-28T05:20:19.000Z</time>
      </trkpt>
      <trkpt lat="27.860192" lon="86.795053">
        <ele>4008</ele>
        <time>2022-10-28T05:20:22.000Z</time>
      </trkpt>
      <trkpt lat="27.860173" lon="86.795046">
        <ele>4008.6</ele>
        <time>2022-10-28T05:20:25.000Z</time>
      </trkpt>
      <trkpt lat="27.860154" lon="86.795027">
        <ele>4009</ele>
        <time>2022-10-28T05:20:29.000Z</time>
      </trkpt>
      <trkpt lat="27.860134" lon="86.795021">
        <ele>4009.4</ele>
        <time>2022-10-28T05:20:33.000Z</time>
      </trkpt>
      <trkpt lat="27.860115" lon="86.795014">
        <ele>4009.8</ele>
        <time>2022-10-28T05:20:36.000Z</time>
      </trkpt>
      <trkpt lat="27.860099" lon="86.794995">
        <ele>4010.4</ele>
        <time>2022-10-28T05:20:40.000Z</time>
      </trkpt>
      <trkpt lat="27.86008" lon="86.794982">
        <ele>4010.8</ele>
        <time>2022-10-28T05:20:44.000Z</time>
      </trkpt>
      <trkpt lat="27.860067" lon="86.794963">
        <ele>4012</ele>
        <time>2022-10-28T05:20:50.000Z</time>
      </trkpt>
      <trkpt lat="27.860061" lon="86.794938">
        <ele>4012</ele>
        <time>2022-10-28T05:20:53.000Z</time>
      </trkpt>
      <trkpt lat="27.860045" lon="86.794912">
        <ele>4012.2</ele>
        <time>2022-10-28T05:20:58.000Z</time>
      </trkpt>
      <trkpt lat="27.860029" lon="86.794899">
        <ele>4012.8</ele>
        <time>2022-10-28T05:21:03.000Z</time>
      </trkpt>
      <trkpt lat="27.860013" lon="86.794874">
        <ele>4013.2</ele>
        <time>2022-10-28T05:21:09.000Z</time>
      </trkpt>
      <trkpt lat="27.860003" lon="86.794854">
        <ele>4014.2</ele>
        <time>2022-10-28T05:21:14.000Z</time>
      </trkpt>
      <trkpt lat="27.859984" lon="86.794848">
        <ele>4014.6</ele>
        <time>2022-10-28T05:21:18.000Z</time>
      </trkpt>
      <trkpt lat="27.859965" lon="86.794835">
        <ele>4014.6</ele>
        <time>2022-10-28T05:21:21.000Z</time>
      </trkpt>
      <trkpt lat="27.859939" lon="86.794829">
        <ele>4014.8</ele>
        <time>2022-10-28T05:21:25.000Z</time>
      </trkpt>
      <trkpt lat="27.85992" lon="86.794829">
        <ele>4014.8</ele>
        <time>2022-10-28T05:21:28.000Z</time>
      </trkpt>
      <trkpt lat="27.859901" lon="86.794822">
        <ele>4015.8</ele>
        <time>2022-10-28T05:21:36.000Z</time>
      </trkpt>
      <trkpt lat="27.859888" lon="86.794797">
        <ele>4016.6</ele>
        <time>2022-10-28T05:22:08.000Z</time>
      </trkpt>
      <trkpt lat="27.859872" lon="86.794778">
        <ele>4017</ele>
        <time>2022-10-28T05:22:29.000Z</time>
      </trkpt>
      <trkpt lat="27.859869" lon="86.794752">
        <ele>4016.6</ele>
        <time>2022-10-28T05:22:31.000Z</time>
      </trkpt>
      <trkpt lat="27.859853" lon="86.794733">
        <ele>4017.4</ele>
        <time>2022-10-28T05:22:34.000Z</time>
      </trkpt>
      <trkpt lat="27.859843" lon="86.794707">
        <ele>4017.6</ele>
        <time>2022-10-28T05:22:36.000Z</time>
      </trkpt>
      <trkpt lat="27.859834" lon="86.794688">
        <ele>4017.6</ele>
        <time>2022-10-28T05:22:38.000Z</time>
      </trkpt>
      <trkpt lat="27.859814" lon="86.794669">
        <ele>4017.6</ele>
        <time>2022-10-28T05:22:41.000Z</time>
      </trkpt>
      <trkpt lat="27.859795" lon="86.794656">
        <ele>4018</ele>
        <time>2022-10-28T05:22:44.000Z</time>
      </trkpt>
      <trkpt lat="27.859776" lon="86.794637">
        <ele>4018.4</ele>
        <time>2022-10-28T05:22:47.000Z</time>
      </trkpt>
      <trkpt lat="27.859754" lon="86.794637">
        <ele>4018.8</ele>
        <time>2022-10-28T05:22:52.000Z</time>
      </trkpt>
      <trkpt lat="27.859734" lon="86.79465">
        <ele>4019</ele>
        <time>2022-10-28T05:22:54.000Z</time>
      </trkpt>
      <trkpt lat="27.859718" lon="86.794637">
        <ele>4019.2</ele>
        <time>2022-10-28T05:22:56.000Z</time>
      </trkpt>
      <trkpt lat="27.859696" lon="86.794624">
        <ele>4019.2</ele>
        <time>2022-10-28T05:22:59.000Z</time>
      </trkpt>
      <trkpt lat="27.859677" lon="86.794598">
        <ele>4019.8</ele>
        <time>2022-10-28T05:23:02.000Z</time>
      </trkpt>
      <trkpt lat="27.859667" lon="86.794579">
        <ele>4019.8</ele>
        <time>2022-10-28T05:23:04.000Z</time>
      </trkpt>
      <trkpt lat="27.859648" lon="86.794566">
        <ele>4020</ele>
        <time>2022-10-28T05:23:07.000Z</time>
      </trkpt>
      <trkpt lat="27.859638" lon="86.794541">
        <ele>4019.4</ele>
        <time>2022-10-28T05:23:09.000Z</time>
      </trkpt>
      <trkpt lat="27.859619" lon="86.794528">
        <ele>4019.8</ele>
        <time>2022-10-28T05:23:12.000Z</time>
      </trkpt>
      <trkpt lat="27.859603" lon="86.794515">
        <ele>4019.8</ele>
        <time>2022-10-28T05:23:14.000Z</time>
      </trkpt>
      <trkpt lat="27.859587" lon="86.794502">
        <ele>4019.8</ele>
        <time>2022-10-28T05:23:17.000Z</time>
      </trkpt>
      <trkpt lat="27.859571" lon="86.79449">
        <ele>4020.4</ele>
        <time>2022-10-28T05:23:20.000Z</time>
      </trkpt>
      <trkpt lat="27.859555" lon="86.794477">
        <ele>4021</ele>
        <time>2022-10-28T05:23:22.000Z</time>
      </trkpt>
      <trkpt lat="27.859536" lon="86.794464">
        <ele>4021.2</ele>
        <time>2022-10-28T05:23:25.000Z</time>
      </trkpt>
      <trkpt lat="27.859514" lon="86.794451">
        <ele>4021.8</ele>
        <time>2022-10-28T05:23:28.000Z</time>
      </trkpt>
      <trkpt lat="27.859501" lon="86.794432">
        <ele>4021.4</ele>
        <time>2022-10-28T05:23:30.000Z</time>
      </trkpt>
      <trkpt lat="27.859478" lon="86.794419">
        <ele>4022</ele>
        <time>2022-10-28T05:23:33.000Z</time>
      </trkpt>
      <trkpt lat="27.859466" lon="86.7944">
        <ele>4022</ele>
        <time>2022-10-28T05:23:35.000Z</time>
      </trkpt>
      <trkpt lat="27.859446" lon="86.794374">
        <ele>4022.2</ele>
        <time>2022-10-28T05:23:38.000Z</time>
      </trkpt>
      <trkpt lat="27.859437" lon="86.794355">
        <ele>4022.2</ele>
        <time>2022-10-28T05:23:40.000Z</time>
      </trkpt>
      <trkpt lat="27.859427" lon="86.79433">
        <ele>4022.4</ele>
        <time>2022-10-28T05:23:43.000Z</time>
      </trkpt>
      <trkpt lat="27.859414" lon="86.79431">
        <ele>4022.8</ele>
        <time>2022-10-28T05:23:45.000Z</time>
      </trkpt>
      <trkpt lat="27.859398" lon="86.794278">
        <ele>4022.8</ele>
        <time>2022-10-28T05:23:48.000Z</time>
      </trkpt>
      <trkpt lat="27.859382" lon="86.794259">
        <ele>4022.4</ele>
        <time>2022-10-28T05:23:51.000Z</time>
      </trkpt>
      <trkpt lat="27.859363" lon="86.79424">
        <ele>4022.8</ele>
        <time>2022-10-28T05:23:54.000Z</time>
      </trkpt>
      <trkpt lat="27.859344" lon="86.794221">
        <ele>4022.8</ele>
        <time>2022-10-28T05:23:57.000Z</time>
      </trkpt>
      <trkpt lat="27.859331" lon="86.794202">
        <ele>4023.2</ele>
        <time>2022-10-28T05:24:00.000Z</time>
      </trkpt>
      <trkpt lat="27.859318" lon="86.794182">
        <ele>4023.8</ele>
        <time>2022-10-28T05:24:03.000Z</time>
      </trkpt>
      <trkpt lat="27.859306" lon="86.794157">
        <ele>4023.4</ele>
        <time>2022-10-28T05:24:06.000Z</time>
      </trkpt>
      <trkpt lat="27.85929" lon="86.794144">
        <ele>4023.2</ele>
        <time>2022-10-28T05:24:08.000Z</time>
      </trkpt>
      <trkpt lat="27.859274" lon="86.794118">
        <ele>4022.8</ele>
        <time>2022-10-28T05:24:11.000Z</time>
      </trkpt>
      <trkpt lat="27.859264" lon="86.794099">
        <ele>4022.8</ele>
        <time>2022-10-28T05:24:13.000Z</time>
      </trkpt>
      <trkpt lat="27.859251" lon="86.79408">
        <ele>4023.4</ele>
        <time>2022-10-28T05:24:15.000Z</time>
      </trkpt>
      <trkpt lat="27.859235" lon="86.794054">
        <ele>4023.2</ele>
        <time>2022-10-28T05:24:18.000Z</time>
      </trkpt>
      <trkpt lat="27.859226" lon="86.794035">
        <ele>4023.4</ele>
        <time>2022-10-28T05:24:20.000Z</time>
      </trkpt>
      <trkpt lat="27.85921" lon="86.794022">
        <ele>4023.6</ele>
        <time>2022-10-28T05:24:22.000Z</time>
      </trkpt>
      <trkpt lat="27.859197" lon="86.794003">
        <ele>4023.8</ele>
        <time>2022-10-28T05:24:24.000Z</time>
      </trkpt>
      <trkpt lat="27.859181" lon="86.793984">
        <ele>4023.8</ele>
        <time>2022-10-28T05:24:27.000Z</time>
      </trkpt>
      <trkpt lat="27.859165" lon="86.793958">
        <ele>4024</ele>
        <time>2022-10-28T05:24:30.000Z</time>
      </trkpt>
      <trkpt lat="27.859142" lon="86.793946">
        <ele>4023.8</ele>
        <time>2022-10-28T05:24:33.000Z</time>
      </trkpt>
      <trkpt lat="27.859123" lon="86.793933">
        <ele>4024.8</ele>
        <time>2022-10-28T05:24:35.000Z</time>
      </trkpt>
      <trkpt lat="27.859104" lon="86.793914">
        <ele>4025.8</ele>
        <time>2022-10-28T05:24:37.000Z</time>
      </trkpt>
      <trkpt lat="27.859082" lon="86.793901">
        <ele>4025.6</ele>
        <time>2022-10-28T05:24:40.000Z</time>
      </trkpt>
      <trkpt lat="27.859066" lon="86.793882">
        <ele>4024.6</ele>
        <time>2022-10-28T05:24:42.000Z</time>
      </trkpt>
      <trkpt lat="27.859046" lon="86.793862">
        <ele>4024.8</ele>
        <time>2022-10-28T05:24:45.000Z</time>
      </trkpt>
      <trkpt lat="27.85903" lon="86.793843">
        <ele>4024.8</ele>
        <time>2022-10-28T05:24:47.000Z</time>
      </trkpt>
      <trkpt lat="27.859011" lon="86.79383">
        <ele>4025</ele>
        <time>2022-10-28T05:24:49.000Z</time>
      </trkpt>
      <trkpt lat="27.858995" lon="86.793818">
        <ele>4025.4</ele>
        <time>2022-10-28T05:24:51.000Z</time>
      </trkpt>
      <trkpt lat="27.858989" lon="86.793798">
        <ele>4025</ele>
        <time>2022-10-28T05:24:53.000Z</time>
      </trkpt>
      <trkpt lat="27.858986" lon="86.793773">
        <ele>4025.6</ele>
        <time>2022-10-28T05:25:02.000Z</time>
      </trkpt>
      <trkpt lat="27.858966" lon="86.793754">
        <ele>4025.4</ele>
        <time>2022-10-28T05:26:42.000Z</time>
      </trkpt>
      <trkpt lat="27.858957" lon="86.793722">
        <ele>4025.4</ele>
        <time>2022-10-28T05:26:44.000Z</time>
      </trkpt>
      <trkpt lat="27.858947" lon="86.793702">
        <ele>4025.4</ele>
        <time>2022-10-28T05:26:46.000Z</time>
      </trkpt>
      <trkpt lat="27.858938" lon="86.793683">
        <ele>4025.2</ele>
        <time>2022-10-28T05:26:47.000Z</time>
      </trkpt>
      <trkpt lat="27.858925" lon="86.793664">
        <ele>4024.8</ele>
        <time>2022-10-28T05:26:49.000Z</time>
      </trkpt>
      <trkpt lat="27.858918" lon="86.793645">
        <ele>4025.2</ele>
        <time>2022-10-28T05:26:51.000Z</time>
      </trkpt>
      <trkpt lat="27.858906" lon="86.793626">
        <ele>4024.6</ele>
        <time>2022-10-28T05:26:53.000Z</time>
      </trkpt>
      <trkpt lat="27.85889" lon="86.7936">
        <ele>4025.4</ele>
        <time>2022-10-28T05:26:56.000Z</time>
      </trkpt>
      <trkpt lat="27.858877" lon="86.793581">
        <ele>4025.4</ele>
        <time>2022-10-28T05:26:58.000Z</time>
      </trkpt>
      <trkpt lat="27.85887" lon="86.793562">
        <ele>4025.6</ele>
        <time>2022-10-28T05:27:00.000Z</time>
      </trkpt>
      <trkpt lat="27.858851" lon="86.793536">
        <ele>4025.4</ele>
        <time>2022-10-28T05:27:03.000Z</time>
      </trkpt>
      <trkpt lat="27.858842" lon="86.793517">
        <ele>4025.4</ele>
        <time>2022-10-28T05:27:05.000Z</time>
      </trkpt>
      <trkpt lat="27.858835" lon="86.793485">
        <ele>4024.8</ele>
        <time>2022-10-28T05:27:07.000Z</time>
      </trkpt>
      <trkpt lat="27.858826" lon="86.793466">
        <ele>4024.8</ele>
        <time>2022-10-28T05:27:09.000Z</time>
      </trkpt>
      <trkpt lat="27.858822" lon="86.79344">
        <ele>4025.8</ele>
        <time>2022-10-28T05:27:13.000Z</time>
      </trkpt>
      <trkpt lat="27.858829" lon="86.793414">
        <ele>4026.2</ele>
        <time>2022-10-28T05:27:17.000Z</time>
      </trkpt>
      <trkpt lat="27.858835" lon="86.793389">
        <ele>4025.6</ele>
        <time>2022-10-28T05:27:19.000Z</time>
      </trkpt>
      <trkpt lat="27.858842" lon="86.793363">
        <ele>4024.8</ele>
        <time>2022-10-28T05:27:21.000Z</time>
      </trkpt>
      <trkpt lat="27.858854" lon="86.793344">
        <ele>4024.2</ele>
        <time>2022-10-28T05:27:24.000Z</time>
      </trkpt>
      <trkpt lat="27.858867" lon="86.793318">
        <ele>4023.6</ele>
        <time>2022-10-28T05:27:26.000Z</time>
      </trkpt>
      <trkpt lat="27.85888" lon="86.793299">
        <ele>4023</ele>
        <time>2022-10-28T05:27:28.000Z</time>
      </trkpt>
      <trkpt lat="27.858893" lon="86.79328">
        <ele>4022.2</ele>
        <time>2022-10-28T05:27:30.000Z</time>
      </trkpt>
      <trkpt lat="27.858915" lon="86.793267">
        <ele>4022.2</ele>
        <time>2022-10-28T05:27:32.000Z</time>
      </trkpt>
      <trkpt lat="27.858925" lon="86.793248">
        <ele>4022.2</ele>
        <time>2022-10-28T05:27:34.000Z</time>
      </trkpt>
      <trkpt lat="27.858947" lon="86.793229">
        <ele>4022.2</ele>
        <time>2022-10-28T05:27:37.000Z</time>
      </trkpt>
      <trkpt lat="27.858963" lon="86.793216">
        <ele>4021.6</ele>
        <time>2022-10-28T05:27:49.000Z</time>
      </trkpt>
      <trkpt lat="27.858973" lon="86.793197">
        <ele>4021.6</ele>
        <time>2022-10-28T05:27:51.000Z</time>
      </trkpt>
      <trkpt lat="27.858979" lon="86.793178">
        <ele>4021.4</ele>
        <time>2022-10-28T05:27:54.000Z</time>
      </trkpt>
      <trkpt lat="27.858989" lon="86.793152">
        <ele>4021</ele>
        <time>2022-10-28T05:27:56.000Z</time>
      </trkpt>
      <trkpt lat="27.859002" lon="86.793126">
        <ele>4021</ele>
        <time>2022-10-28T05:27:58.000Z</time>
      </trkpt>
      <trkpt lat="27.85903" lon="86.793114">
        <ele>4020.4</ele>
        <time>2022-10-28T05:28:01.000Z</time>
      </trkpt>
      <trkpt lat="27.859046" lon="86.793101">
        <ele>4020</ele>
        <time>2022-10-28T05:28:03.000Z</time>
      </trkpt>
      <trkpt lat="27.859066" lon="86.793069">
        <ele>4019.2</ele>
        <time>2022-10-28T05:28:05.000Z</time>
      </trkpt>
      <trkpt lat="27.859078" lon="86.79305">
        <ele>4018.4</ele>
        <time>2022-10-28T05:28:08.000Z</time>
      </trkpt>
      <trkpt lat="27.859094" lon="86.79303">
        <ele>4018</ele>
        <time>2022-10-28T05:28:12.000Z</time>
      </trkpt>
      <trkpt lat="27.859107" lon="86.793005">
        <ele>4017</ele>
        <time>2022-10-28T05:28:15.000Z</time>
      </trkpt>
      <trkpt lat="27.859117" lon="86.792986">
        <ele>4016.8</ele>
        <time>2022-10-28T05:28:17.000Z</time>
      </trkpt>
      <trkpt lat="27.85913" lon="86.792966">
        <ele>4016.2</ele>
        <time>2022-10-28T05:28:19.000Z</time>
      </trkpt>
      <trkpt lat="27.859142" lon="86.792947">
        <ele>4015.8</ele>
        <time>2022-10-28T05:28:21.000Z</time>
      </trkpt>
      <trkpt lat="27.859155" lon="86.792922">
        <ele>4015.2</ele>
        <time>2022-10-28T05:28:23.000Z</time>
      </trkpt>
      <trkpt lat="27.859168" lon="86.792902">
        <ele>4015</ele>
        <time>2022-10-28T05:28:25.000Z</time>
      </trkpt>
      <trkpt lat="27.859187" lon="86.792877">
        <ele>4014.4</ele>
        <time>2022-10-28T05:28:27.000Z</time>
      </trkpt>
      <trkpt lat="27.85921" lon="86.792845">
        <ele>4014</ele>
        <time>2022-10-28T05:28:30.000Z</time>
      </trkpt>
      <trkpt lat="27.859216" lon="86.792806">
        <ele>4013.4</ele>
        <time>2022-10-28T05:28:33.000Z</time>
      </trkpt>
      <trkpt lat="27.859229" lon="86.792787">
        <ele>4014.6</ele>
        <time>2022-10-28T05:29:14.000Z</time>
      </trkpt>
      <trkpt lat="27.859235" lon="86.792768">
        <ele>4014.8</ele>
        <time>2022-10-28T05:29:15.000Z</time>
      </trkpt>
      <trkpt lat="27.859245" lon="86.792742">
        <ele>4014.6</ele>
        <time>2022-10-28T05:29:17.000Z</time>
      </trkpt>
      <trkpt lat="27.859248" lon="86.792717">
        <ele>4014.6</ele>
        <time>2022-10-28T05:29:19.000Z</time>
      </trkpt>
      <trkpt lat="27.859245" lon="86.792685">
        <ele>4014.8</ele>
        <time>2022-10-28T05:29:21.000Z</time>
      </trkpt>
      <trkpt lat="27.859226" lon="86.792666">
        <ele>4014.6</ele>
        <time>2022-10-28T05:29:24.000Z</time>
      </trkpt>
      <trkpt lat="27.859216" lon="86.792646">
        <ele>4014.8</ele>
        <time>2022-10-28T05:29:26.000Z</time>
      </trkpt>
      <trkpt lat="27.85921" lon="86.792621">
        <ele>4014.8</ele>
        <time>2022-10-28T05:29:29.000Z</time>
      </trkpt>
      <trkpt lat="27.859216" lon="86.792595">
        <ele>4014.6</ele>
        <time>2022-10-28T05:29:31.000Z</time>
      </trkpt>
      <trkpt lat="27.859222" lon="86.79257">
        <ele>4014.4</ele>
        <time>2022-10-28T05:29:34.000Z</time>
      </trkpt>
      <trkpt lat="27.859216" lon="86.792544">
        <ele>4014.4</ele>
        <time>2022-10-28T05:29:37.000Z</time>
      </trkpt>
      <trkpt lat="27.85921" lon="86.792518">
        <ele>4014.6</ele>
        <time>2022-10-28T05:29:39.000Z</time>
      </trkpt>
      <trkpt lat="27.85921" lon="86.792493">
        <ele>4014.4</ele>
        <time>2022-10-28T05:29:46.000Z</time>
      </trkpt>
      <trkpt lat="27.859216" lon="86.792467">
        <ele>4014.6</ele>
        <time>2022-10-28T05:29:51.000Z</time>
      </trkpt>
      <trkpt lat="27.859226" lon="86.792435">
        <ele>4012.4</ele>
        <time>2022-10-28T05:30:10.000Z</time>
      </trkpt>
      <trkpt lat="27.859235" lon="86.792403">
        <ele>4012.2</ele>
        <time>2022-10-28T05:30:12.000Z</time>
      </trkpt>
      <trkpt lat="27.859242" lon="86.792365">
        <ele>4011.4</ele>
        <time>2022-10-28T05:30:15.000Z</time>
      </trkpt>
      <trkpt lat="27.859245" lon="86.792326">
        <ele>4011</ele>
        <time>2022-10-28T05:30:17.000Z</time>
      </trkpt>
      <trkpt lat="27.859238" lon="86.792307">
        <ele>4010.6</ele>
        <time>2022-10-28T05:30:19.000Z</time>
      </trkpt>
      <trkpt lat="27.859229" lon="86.792288">
        <ele>4010.8</ele>
        <time>2022-10-28T05:30:22.000Z</time>
      </trkpt>
      <trkpt lat="27.85921" lon="86.792275">
        <ele>4010.8</ele>
        <time>2022-10-28T05:30:25.000Z</time>
      </trkpt>
      <trkpt lat="27.859187" lon="86.792269">
        <ele>4010.8</ele>
        <time>2022-10-28T05:30:29.000Z</time>
      </trkpt>
      <trkpt lat="27.859168" lon="86.792269">
        <ele>4011.4</ele>
        <time>2022-10-28T05:30:32.000Z</time>
      </trkpt>
      <trkpt lat="27.859146" lon="86.792282">
        <ele>4011.4</ele>
        <time>2022-10-28T05:30:35.000Z</time>
      </trkpt>
      <trkpt lat="27.859123" lon="86.792282">
        <ele>4011.2</ele>
        <time>2022-10-28T05:30:39.000Z</time>
      </trkpt>
      <trkpt lat="27.859104" lon="86.792282">
        <ele>4011.6</ele>
        <time>2022-10-28T05:30:42.000Z</time>
      </trkpt>
      <trkpt lat="27.859085" lon="86.792282">
        <ele>4011.6</ele>
        <time>2022-10-28T05:30:45.000Z</time>
      </trkpt>
      <trkpt lat="27.859066" lon="86.792275">
        <ele>4011.8</ele>
        <time>2022-10-28T05:30:48.000Z</time>
      </trkpt>
      <trkpt lat="27.85904" lon="86.792269">
        <ele>4012.4</ele>
        <time>2022-10-28T05:30:52.000Z</time>
      </trkpt>
      <trkpt lat="27.859021" lon="86.792269">
        <ele>4013.2</ele>
        <time>2022-10-28T05:30:56.000Z</time>
      </trkpt>
      <trkpt lat="27.858998" lon="86.792262">
        <ele>4013.4</ele>
        <time>2022-10-28T05:31:00.000Z</time>
      </trkpt>
      <trkpt lat="27.858979" lon="86.792262">
        <ele>4014.2</ele>
        <time>2022-10-28T05:31:04.000Z</time>
      </trkpt>
      <trkpt lat="27.85896" lon="86.792262">
        <ele>4014.6</ele>
        <time>2022-10-28T05:31:07.000Z</time>
      </trkpt>
      <trkpt lat="27.858941" lon="86.792275">
        <ele>4014.8</ele>
        <time>2022-10-28T05:31:10.000Z</time>
      </trkpt>
      <trkpt lat="27.858918" lon="86.792288">
        <ele>4014.6</ele>
        <time>2022-10-28T05:31:13.000Z</time>
      </trkpt>
      <trkpt lat="27.858893" lon="86.792294">
        <ele>4014.6</ele>
        <time>2022-10-28T05:31:15.000Z</time>
      </trkpt>
      <trkpt lat="27.858864" lon="86.792294">
        <ele>4014.6</ele>
        <time>2022-10-28T05:31:18.000Z</time>
      </trkpt>
      <trkpt lat="27.858842" lon="86.792288">
        <ele>4014.4</ele>
        <time>2022-10-28T05:31:21.000Z</time>
      </trkpt>
      <trkpt lat="27.858819" lon="86.792288">
        <ele>4014.4</ele>
        <time>2022-10-28T05:31:23.000Z</time>
      </trkpt>
      <trkpt lat="27.8588" lon="86.792288">
        <ele>4014.6</ele>
        <time>2022-10-28T05:31:25.000Z</time>
      </trkpt>
      <trkpt lat="27.858774" lon="86.792294">
        <ele>4014.6</ele>
        <time>2022-10-28T05:31:28.000Z</time>
      </trkpt>
      <trkpt lat="27.858752" lon="86.792294">
        <ele>4014.8</ele>
        <time>2022-10-28T05:31:31.000Z</time>
      </trkpt>
      <trkpt lat="27.858736" lon="86.792307">
        <ele>4015.8</ele>
        <time>2022-10-28T05:31:34.000Z</time>
      </trkpt>
      <trkpt lat="27.85871" lon="86.792314">
        <ele>4015.8</ele>
        <time>2022-10-28T05:31:36.000Z</time>
      </trkpt>
      <trkpt lat="27.858682" lon="86.792307">
        <ele>4014.8</ele>
        <time>2022-10-28T05:31:39.000Z</time>
      </trkpt>
      <trkpt lat="27.858659" lon="86.792314">
        <ele>4015</ele>
        <time>2022-10-28T05:31:42.000Z</time>
      </trkpt>
      <trkpt lat="27.85864" lon="86.792314">
        <ele>4015.4</ele>
        <time>2022-10-28T05:31:46.000Z</time>
      </trkpt>
      <trkpt lat="27.858618" lon="86.792314">
        <ele>4015.6</ele>
        <time>2022-10-28T05:31:49.000Z</time>
      </trkpt>
      <trkpt lat="27.858592" lon="86.792314">
        <ele>4016.4</ele>
        <time>2022-10-28T05:31:52.000Z</time>
      </trkpt>
      <trkpt lat="27.858573" lon="86.79232">
        <ele>4016.6</ele>
        <time>2022-10-28T05:31:54.000Z</time>
      </trkpt>
      <trkpt lat="27.85855" lon="86.79232">
        <ele>4016</ele>
        <time>2022-10-28T05:31:57.000Z</time>
      </trkpt>
      <trkpt lat="27.858525" lon="86.792326">
        <ele>4016.4</ele>
        <time>2022-10-28T05:31:59.000Z</time>
      </trkpt>
      <trkpt lat="27.858499" lon="86.792333">
        <ele>4016.8</ele>
        <time>2022-10-28T05:32:02.000Z</time>
      </trkpt>
      <trkpt lat="27.858483" lon="86.792346">
        <ele>4016.8</ele>
        <time>2022-10-28T05:32:03.000Z</time>
      </trkpt>
      <trkpt lat="27.858461" lon="86.792352">
        <ele>4017</ele>
        <time>2022-10-28T05:32:06.000Z</time>
      </trkpt>
      <trkpt lat="27.858442" lon="86.792358">
        <ele>4016.8</ele>
        <time>2022-10-28T05:32:09.000Z</time>
      </trkpt>
      <trkpt lat="27.858416" lon="86.792352">
        <ele>4017.6</ele>
        <time>2022-10-28T05:32:12.000Z</time>
      </trkpt>
      <trkpt lat="27.858397" lon="86.792352">
        <ele>4017.8</ele>
        <time>2022-10-28T05:32:15.000Z</time>
      </trkpt>
      <trkpt lat="27.858378" lon="86.792358">
        <ele>4018</ele>
        <time>2022-10-28T05:32:17.000Z</time>
      </trkpt>
      <trkpt lat="27.858355" lon="86.792358">
        <ele>4018.6</ele>
        <time>2022-10-28T05:32:20.000Z</time>
      </trkpt>
      <trkpt lat="27.858336" lon="86.792358">
        <ele>4019</ele>
        <time>2022-10-28T05:32:25.000Z</time>
      </trkpt>
      <trkpt lat="27.858314" lon="86.792352">
        <ele>4019.4</ele>
        <time>2022-10-28T05:32:29.000Z</time>
      </trkpt>
      <trkpt lat="27.858294" lon="86.792352">
        <ele>4019.8</ele>
        <time>2022-10-28T05:32:32.000Z</time>
      </trkpt>
      <trkpt lat="27.858272" lon="86.792352">
        <ele>4020.2</ele>
        <time>2022-10-28T05:32:37.000Z</time>
      </trkpt>
      <trkpt lat="27.85825" lon="86.792358">
        <ele>4020.4</ele>
        <time>2022-10-28T05:32:41.000Z</time>
      </trkpt>
      <trkpt lat="27.858227" lon="86.792371">
        <ele>4021</ele>
        <time>2022-10-28T05:32:44.000Z</time>
      </trkpt>
      <trkpt lat="27.858208" lon="86.792371">
        <ele>4020.6</ele>
        <time>2022-10-28T05:32:46.000Z</time>
      </trkpt>
      <trkpt lat="27.858182" lon="86.792365">
        <ele>4019.6</ele>
        <time>2022-10-28T05:32:49.000Z</time>
      </trkpt>
      <trkpt lat="27.858163" lon="86.792358">
        <ele>4019.6</ele>
        <time>2022-10-28T05:32:53.000Z</time>
      </trkpt>
      <trkpt lat="27.858147" lon="86.792346">
        <ele>4019.4</ele>
        <time>2022-10-28T05:32:56.000Z</time>
      </trkpt>
      <trkpt lat="27.858131" lon="86.792326">
        <ele>4019.8</ele>
        <time>2022-10-28T05:32:59.000Z</time>
      </trkpt>
      <trkpt lat="27.858128" lon="86.792288">
        <ele>4020.6</ele>
        <time>2022-10-28T05:33:03.000Z</time>
      </trkpt>
      <trkpt lat="27.858128" lon="86.79225">
        <ele>4020.6</ele>
        <time>2022-10-28T05:33:06.000Z</time>
      </trkpt>
      <trkpt lat="27.858115" lon="86.79223">
        <ele>4020</ele>
        <time>2022-10-28T05:33:09.000Z</time>
      </trkpt>
      <trkpt lat="27.858115" lon="86.792205">
        <ele>4020</ele>
        <time>2022-10-28T05:33:11.000Z</time>
      </trkpt>
      <trkpt lat="27.858112" lon="86.792173">
        <ele>4020</ele>
        <time>2022-10-28T05:33:14.000Z</time>
      </trkpt>
      <trkpt lat="27.858115" lon="86.792147">
        <ele>4019.6</ele>
        <time>2022-10-28T05:33:17.000Z</time>
      </trkpt>
      <trkpt lat="27.858118" lon="86.792122">
        <ele>4019.2</ele>
        <time>2022-10-28T05:33:19.000Z</time>
      </trkpt>
      <trkpt lat="27.858125" lon="86.792096">
        <ele>4019.2</ele>
        <time>2022-10-28T05:33:21.000Z</time>
      </trkpt>
      <trkpt lat="27.858128" lon="86.79207">
        <ele>4018.4</ele>
        <time>2022-10-28T05:33:24.000Z</time>
      </trkpt>
      <trkpt lat="27.858122" lon="86.792045">
        <ele>4019</ele>
        <time>2022-10-28T05:33:26.000Z</time>
      </trkpt>
      <trkpt lat="27.858099" lon="86.792038">
        <ele>4018</ele>
        <time>2022-10-28T05:33:29.000Z</time>
      </trkpt>
      <trkpt lat="27.858074" lon="86.792038">
        <ele>4017.8</ele>
        <time>2022-10-28T05:33:32.000Z</time>
      </trkpt>
      <trkpt lat="27.858045" lon="86.792045">
        <ele>4017.8</ele>
        <time>2022-10-28T05:33:35.000Z</time>
      </trkpt>
      <trkpt lat="27.858026" lon="86.792064">
        <ele>4018.2</ele>
        <time>2022-10-28T05:33:38.000Z</time>
      </trkpt>
      <trkpt lat="27.858006" lon="86.792064">
        <ele>4018</ele>
        <time>2022-10-28T05:33:42.000Z</time>
      </trkpt>
      <trkpt lat="27.857987" lon="86.792051">
        <ele>4018.6</ele>
        <time>2022-10-28T05:33:45.000Z</time>
      </trkpt>
      <trkpt lat="27.857968" lon="86.792051">
        <ele>4019.2</ele>
        <time>2022-10-28T05:33:48.000Z</time>
      </trkpt>
      <trkpt lat="27.857946" lon="86.792045">
        <ele>4019.4</ele>
        <time>2022-10-28T05:33:52.000Z</time>
      </trkpt>
      <trkpt lat="27.857923" lon="86.792045">
        <ele>4019.4</ele>
        <time>2022-10-28T05:33:56.000Z</time>
      </trkpt>
      <trkpt lat="27.857904" lon="86.792038">
        <ele>4019.6</ele>
        <time>2022-10-28T05:33:59.000Z</time>
      </trkpt>
      <trkpt lat="27.857885" lon="86.792032">
        <ele>4019.4</ele>
        <time>2022-10-28T05:34:02.000Z</time>
      </trkpt>
      <trkpt lat="27.857866" lon="86.792032">
        <ele>4019.2</ele>
        <time>2022-10-28T05:34:04.000Z</time>
      </trkpt>
      <trkpt lat="27.85784" lon="86.792013">
        <ele>4019.4</ele>
        <time>2022-10-28T05:34:07.000Z</time>
      </trkpt>
      <trkpt lat="27.857821" lon="86.792013">
        <ele>4019.8</ele>
        <time>2022-10-28T05:34:10.000Z</time>
      </trkpt>
      <trkpt lat="27.857802" lon="86.792006">
        <ele>4019.8</ele>
        <time>2022-10-28T05:34:13.000Z</time>
      </trkpt>
      <trkpt lat="27.857779" lon="86.792006">
        <ele>4020.4</ele>
        <time>2022-10-28T05:34:17.000Z</time>
      </trkpt>
      <trkpt lat="27.857757" lon="86.792006">
        <ele>4020.6</ele>
        <time>2022-10-28T05:34:29.000Z</time>
      </trkpt>
      <trkpt lat="27.857738" lon="86.792006">
        <ele>4020.6</ele>
        <time>2022-10-28T05:34:32.000Z</time>
      </trkpt>
      <trkpt lat="27.857718" lon="86.792006">
        <ele>4020.6</ele>
        <time>2022-10-28T05:34:34.000Z</time>
      </trkpt>
      <trkpt lat="27.857699" lon="86.792006">
        <ele>4020.8</ele>
        <time>2022-10-28T05:34:36.000Z</time>
      </trkpt>
      <trkpt lat="27.85768" lon="86.792">
        <ele>4021</ele>
        <time>2022-10-28T05:34:38.000Z</time>
      </trkpt>
      <trkpt lat="27.857658" lon="86.791994">
        <ele>4021.8</ele>
        <time>2022-10-28T05:34:41.000Z</time>
      </trkpt>
      <trkpt lat="27.857638" lon="86.791994">
        <ele>4022</ele>
        <time>2022-10-28T05:34:43.000Z</time>
      </trkpt>
      <trkpt lat="27.857616" lon="86.791994">
        <ele>4021.8</ele>
        <time>2022-10-28T05:34:46.000Z</time>
      </trkpt>
      <trkpt lat="27.857597" lon="86.791974">
        <ele>4022</ele>
        <time>2022-10-28T05:34:49.000Z</time>
      </trkpt>
      <trkpt lat="27.857571" lon="86.791974">
        <ele>4022.8</ele>
        <time>2022-10-28T05:34:53.000Z</time>
      </trkpt>
      <trkpt lat="27.857546" lon="86.791968">
        <ele>4023.4</ele>
        <time>2022-10-28T05:34:57.000Z</time>
      </trkpt>
      <trkpt lat="27.857507" lon="86.791949">
        <ele>4024</ele>
        <time>2022-10-28T05:35:03.000Z</time>
      </trkpt>
      <trkpt lat="27.857488" lon="86.791936">
        <ele>4024.2</ele>
        <time>2022-10-28T05:35:06.000Z</time>
      </trkpt>
      <trkpt lat="27.857469" lon="86.79193">
        <ele>4024.4</ele>
        <time>2022-10-28T05:35:08.000Z</time>
      </trkpt>
      <trkpt lat="27.85745" lon="86.791917">
        <ele>4024.8</ele>
        <time>2022-10-28T05:35:11.000Z</time>
      </trkpt>
      <trkpt lat="27.857427" lon="86.791898">
        <ele>4025.2</ele>
        <time>2022-10-28T05:35:15.000Z</time>
      </trkpt>
      <trkpt lat="27.857408" lon="86.791898">
        <ele>4026.2</ele>
        <time>2022-10-28T05:35:18.000Z</time>
      </trkpt>
      <trkpt lat="27.857392" lon="86.79191">
        <ele>4025.8</ele>
        <time>2022-10-28T05:35:20.000Z</time>
      </trkpt>
      <trkpt lat="27.857366" lon="86.79191">
        <ele>4026.4</ele>
        <time>2022-10-28T05:35:23.000Z</time>
      </trkpt>
      <trkpt lat="27.857344" lon="86.791891">
        <ele>4026.8</ele>
        <time>2022-10-28T05:35:26.000Z</time>
      </trkpt>
      <trkpt lat="27.857325" lon="86.791878">
        <ele>4026.8</ele>
        <time>2022-10-28T05:35:29.000Z</time>
      </trkpt>
      <trkpt lat="27.857299" lon="86.791866">
        <ele>4026.6</ele>
        <time>2022-10-28T05:35:32.000Z</time>
      </trkpt>
      <trkpt lat="27.85728" lon="86.791853">
        <ele>4026.8</ele>
        <time>2022-10-28T05:35:34.000Z</time>
      </trkpt>
      <trkpt lat="27.857264" lon="86.79184">
        <ele>4026.8</ele>
        <time>2022-10-28T05:35:36.000Z</time>
      </trkpt>
      <trkpt lat="27.857245" lon="86.791827">
        <ele>4026.8</ele>
        <time>2022-10-28T05:35:39.000Z</time>
      </trkpt>
      <trkpt lat="27.857229" lon="86.791808">
        <ele>4027.2</ele>
        <time>2022-10-28T05:35:42.000Z</time>
      </trkpt>
      <trkpt lat="27.857213" lon="86.791795">
        <ele>4027.6</ele>
        <time>2022-10-28T05:35:44.000Z</time>
      </trkpt>
      <trkpt lat="27.857203" lon="86.791776">
        <ele>4027.6</ele>
        <time>2022-10-28T05:35:46.000Z</time>
      </trkpt>
      <trkpt lat="27.857181" lon="86.791763">
        <ele>4027.6</ele>
        <time>2022-10-28T05:35:49.000Z</time>
      </trkpt>
      <trkpt lat="27.857165" lon="86.79175">
        <ele>4028</ele>
        <time>2022-10-28T05:35:52.000Z</time>
      </trkpt>
      <trkpt lat="27.857146" lon="86.791738">
        <ele>4028.2</ele>
        <time>2022-10-28T05:35:55.000Z</time>
      </trkpt>
      <trkpt lat="27.85713" lon="86.791725">
        <ele>4028.2</ele>
        <time>2022-10-28T05:35:57.000Z</time>
      </trkpt>
      <trkpt lat="27.857114" lon="86.791712">
        <ele>4028.4</ele>
        <time>2022-10-28T05:36:00.000Z</time>
      </trkpt>
      <trkpt lat="27.857104" lon="86.791693">
        <ele>4028.4</ele>
        <time>2022-10-28T05:36:02.000Z</time>
      </trkpt>
      <trkpt lat="27.857098" lon="86.791667">
        <ele>4028.4</ele>
        <time>2022-10-28T05:36:05.000Z</time>
      </trkpt>
      <trkpt lat="27.857091" lon="86.791642">
        <ele>4029.2</ele>
        <time>2022-10-28T05:36:07.000Z</time>
      </trkpt>
      <trkpt lat="27.857082" lon="86.791616">
        <ele>4028.8</ele>
        <time>2022-10-28T05:36:10.000Z</time>
      </trkpt>
      <trkpt lat="27.857075" lon="86.791597">
        <ele>4028.6</ele>
        <time>2022-10-28T05:36:13.000Z</time>
      </trkpt>
      <trkpt lat="27.857066" lon="86.791578">
        <ele>4028.6</ele>
        <time>2022-10-28T05:36:15.000Z</time>
      </trkpt>
      <trkpt lat="27.857043" lon="86.791558">
        <ele>4028.8</ele>
        <time>2022-10-28T05:36:18.000Z</time>
      </trkpt>
      <trkpt lat="27.85703" lon="86.791539">
        <ele>4028.6</ele>
        <time>2022-10-28T05:36:20.000Z</time>
      </trkpt>
      <trkpt lat="27.857014" lon="86.791526">
        <ele>4028.8</ele>
        <time>2022-10-28T05:36:22.000Z</time>
      </trkpt>
      <trkpt lat="27.856995" lon="86.791514">
        <ele>4028.6</ele>
        <time>2022-10-28T05:36:24.000Z</time>
      </trkpt>
      <trkpt lat="27.856976" lon="86.791494">
        <ele>4027.8</ele>
        <time>2022-10-28T05:36:26.000Z</time>
      </trkpt>
      <trkpt lat="27.856954" lon="86.791488">
        <ele>4025.8</ele>
        <time>2022-10-28T05:36:28.000Z</time>
      </trkpt>
      <trkpt lat="27.856934" lon="86.791475">
        <ele>4025.8</ele>
        <time>2022-10-28T05:36:30.000Z</time>
      </trkpt>
      <trkpt lat="27.856912" lon="86.791469">
        <ele>4025.6</ele>
        <time>2022-10-28T05:36:32.000Z</time>
      </trkpt>
      <trkpt lat="27.85689" lon="86.791469">
        <ele>4025</ele>
        <time>2022-10-28T05:36:34.000Z</time>
      </trkpt>
      <trkpt lat="27.856867" lon="86.791456">
        <ele>4024.8</ele>
        <time>2022-10-28T05:36:36.000Z</time>
      </trkpt>
      <trkpt lat="27.856848" lon="86.79145">
        <ele>4024</ele>
        <time>2022-10-28T05:36:39.000Z</time>
      </trkpt>
      <trkpt lat="27.856864" lon="86.791411">
        <ele>4023.8</ele>
        <time>2022-10-28T05:37:57.000Z</time>
      </trkpt>
      <trkpt lat="27.856854" lon="86.791379">
        <ele>4023.6</ele>
        <time>2022-10-28T05:37:59.000Z</time>
      </trkpt>
      <trkpt lat="27.856842" lon="86.791354">
        <ele>4022.2</ele>
        <time>2022-10-28T05:38:01.000Z</time>
      </trkpt>
      <trkpt lat="27.856832" lon="86.791334">
        <ele>4022.2</ele>
        <time>2022-10-28T05:38:02.000Z</time>
      </trkpt>
      <trkpt lat="27.856816" lon="86.791302">
        <ele>4022.8</ele>
        <time>2022-10-28T05:38:04.000Z</time>
      </trkpt>
      <trkpt lat="27.856806" lon="86.791277">
        <ele>4022.2</ele>
        <time>2022-10-28T05:38:06.000Z</time>
      </trkpt>
      <trkpt lat="27.856794" lon="86.791245">
        <ele>4022.6</ele>
        <time>2022-10-28T05:38:08.000Z</time>
      </trkpt>
      <trkpt lat="27.856778" lon="86.791232">
        <ele>4023</ele>
        <time>2022-10-28T05:38:10.000Z</time>
      </trkpt>
      <trkpt lat="27.856768" lon="86.791206">
        <ele>4024.6</ele>
        <time>2022-10-28T05:38:12.000Z</time>
      </trkpt>
      <trkpt lat="27.856762" lon="86.791181">
        <ele>4022.2</ele>
        <time>2022-10-28T05:38:14.000Z</time>
      </trkpt>
      <trkpt lat="27.856746" lon="86.791162">
        <ele>4022</ele>
        <time>2022-10-28T05:38:16.000Z</time>
      </trkpt>
      <trkpt lat="27.856739" lon="86.791142">
        <ele>4021.2</ele>
        <time>2022-10-28T05:38:17.000Z</time>
      </trkpt>
      <trkpt lat="27.856733" lon="86.791117">
        <ele>4021.8</ele>
        <time>2022-10-28T05:38:20.000Z</time>
      </trkpt>
      <trkpt lat="27.856726" lon="86.791085">
        <ele>4021.2</ele>
        <time>2022-10-28T05:38:22.000Z</time>
      </trkpt>
      <trkpt lat="27.856717" lon="86.791053">
        <ele>4020.6</ele>
        <time>2022-10-28T05:38:25.000Z</time>
      </trkpt>
      <trkpt lat="27.856717" lon="86.791021">
        <ele>4019.8</ele>
        <time>2022-10-28T05:38:27.000Z</time>
      </trkpt>
      <trkpt lat="27.85671" lon="86.791002">
        <ele>4019.8</ele>
        <time>2022-10-28T05:38:29.000Z</time>
      </trkpt>
      <trkpt lat="27.856698" lon="86.790982">
        <ele>4018.8</ele>
        <time>2022-10-28T05:38:31.000Z</time>
      </trkpt>
      <trkpt lat="27.856688" lon="86.790963">
        <ele>4019.2</ele>
        <time>2022-10-28T05:38:33.000Z</time>
      </trkpt>
      <trkpt lat="27.856682" lon="86.790931">
        <ele>4019.8</ele>
        <time>2022-10-28T05:38:35.000Z</time>
      </trkpt>
      <trkpt lat="27.856675" lon="86.790912">
        <ele>4018.8</ele>
        <time>2022-10-28T05:38:37.000Z</time>
      </trkpt>
      <trkpt lat="27.856678" lon="86.790886">
        <ele>4018.8</ele>
        <time>2022-10-28T05:38:39.000Z</time>
      </trkpt>
      <trkpt lat="27.856675" lon="86.790861">
        <ele>4019.2</ele>
        <time>2022-10-28T05:38:41.000Z</time>
      </trkpt>
      <trkpt lat="27.856669" lon="86.790835">
        <ele>4019</ele>
        <time>2022-10-28T05:38:43.000Z</time>
      </trkpt>
      <trkpt lat="27.856672" lon="86.79081">
        <ele>4018</ele>
        <time>2022-10-28T05:38:45.000Z</time>
      </trkpt>
      <trkpt lat="27.856672" lon="86.790784">
        <ele>4018.2</ele>
        <time>2022-10-28T05:38:47.000Z</time>
      </trkpt>
      <trkpt lat="27.856662" lon="86.790765">
        <ele>4018.2</ele>
        <time>2022-10-28T05:38:49.000Z</time>
      </trkpt>
      <trkpt lat="27.856656" lon="86.790733">
        <ele>4018.2</ele>
        <time>2022-10-28T05:38:51.000Z</time>
      </trkpt>
      <trkpt lat="27.856646" lon="86.790714">
        <ele>4017.4</ele>
        <time>2022-10-28T05:38:53.000Z</time>
      </trkpt>
      <trkpt lat="27.856643" lon="86.790688">
        <ele>4017.4</ele>
        <time>2022-10-28T05:38:55.000Z</time>
      </trkpt>
      <trkpt lat="27.856634" lon="86.790662">
        <ele>4016.8</ele>
        <time>2022-10-28T05:38:57.000Z</time>
      </trkpt>
      <trkpt lat="27.856627" lon="86.790643">
        <ele>4016</ele>
        <time>2022-10-28T05:38:59.000Z</time>
      </trkpt>
      <trkpt lat="27.856624" lon="86.790611">
        <ele>4015.6</ele>
        <time>2022-10-28T05:39:01.000Z</time>
      </trkpt>
      <trkpt lat="27.856618" lon="86.790586">
        <ele>4015.4</ele>
        <time>2022-10-28T05:39:03.000Z</time>
      </trkpt>
      <trkpt lat="27.856598" lon="86.790566">
        <ele>4015.6</ele>
        <time>2022-10-28T05:39:06.000Z</time>
      </trkpt>
      <trkpt lat="27.856589" lon="86.790541">
        <ele>4015.2</ele>
        <time>2022-10-28T05:39:08.000Z</time>
      </trkpt>
      <trkpt lat="27.856573" lon="86.790522">
        <ele>4015.2</ele>
        <time>2022-10-28T05:39:10.000Z</time>
      </trkpt>
      <trkpt lat="27.856557" lon="86.790502">
        <ele>4014.2</ele>
        <time>2022-10-28T05:39:12.000Z</time>
      </trkpt>
      <trkpt lat="27.85655" lon="86.790483">
        <ele>4014</ele>
        <time>2022-10-28T05:39:14.000Z</time>
      </trkpt>
      <trkpt lat="27.856538" lon="86.790458">
        <ele>4014</ele>
        <time>2022-10-28T05:39:16.000Z</time>
      </trkpt>
      <trkpt lat="27.856525" lon="86.790438">
        <ele>4013.8</ele>
        <time>2022-10-28T05:39:18.000Z</time>
      </trkpt>
      <trkpt lat="27.856515" lon="86.790413">
        <ele>4013.8</ele>
        <time>2022-10-28T05:39:20.000Z</time>
      </trkpt>
      <trkpt lat="27.856509" lon="86.790387">
        <ele>4013.4</ele>
        <time>2022-10-28T05:39:22.000Z</time>
      </trkpt>
      <trkpt lat="27.856502" lon="86.790362">
        <ele>4013.4</ele>
        <time>2022-10-28T05:39:24.000Z</time>
      </trkpt>
      <trkpt lat="27.856496" lon="86.790342">
        <ele>4013.2</ele>
        <time>2022-10-28T05:39:26.000Z</time>
      </trkpt>
      <trkpt lat="27.85649" lon="86.790323">
        <ele>4013.2</ele>
        <time>2022-10-28T05:39:28.000Z</time>
      </trkpt>
      <trkpt lat="27.856483" lon="86.790298">
        <ele>4014.4</ele>
        <time>2022-10-28T05:39:30.000Z</time>
      </trkpt>
      <trkpt lat="27.856474" lon="86.790278">
        <ele>4014.2</ele>
        <time>2022-10-28T05:39:33.000Z</time>
      </trkpt>
      <trkpt lat="27.856467" lon="86.790259">
        <ele>4012.8</ele>
        <time>2022-10-28T05:39:35.000Z</time>
      </trkpt>
      <trkpt lat="27.856467" lon="86.790227">
        <ele>4013</ele>
        <time>2022-10-28T05:39:38.000Z</time>
      </trkpt>
      <trkpt lat="27.856461" lon="86.790208">
        <ele>4013.2</ele>
        <time>2022-10-28T05:39:40.000Z</time>
      </trkpt>
      <trkpt lat="27.856454" lon="86.790189">
        <ele>4013</ele>
        <time>2022-10-28T05:39:41.000Z</time>
      </trkpt>
      <trkpt lat="27.856448" lon="86.79017">
        <ele>4012.6</ele>
        <time>2022-10-28T05:39:43.000Z</time>
      </trkpt>
      <trkpt lat="27.856442" lon="86.79015">
        <ele>4012.4</ele>
        <time>2022-10-28T05:39:44.000Z</time>
      </trkpt>
      <trkpt lat="27.856435" lon="86.790131">
        <ele>4012.2</ele>
        <time>2022-10-28T05:39:46.000Z</time>
      </trkpt>
      <trkpt lat="27.856435" lon="86.790106">
        <ele>4011.6</ele>
        <time>2022-10-28T05:39:48.000Z</time>
      </trkpt>
      <trkpt lat="27.856429" lon="86.790086">
        <ele>4011.6</ele>
        <time>2022-10-28T05:39:51.000Z</time>
      </trkpt>
      <trkpt lat="27.856426" lon="86.790061">
        <ele>4011.6</ele>
        <time>2022-10-28T05:39:53.000Z</time>
      </trkpt>
      <trkpt lat="27.856416" lon="86.790029">
        <ele>4011.2</ele>
        <time>2022-10-28T05:39:56.000Z</time>
      </trkpt>
      <trkpt lat="27.856432" lon="86.790048">
        <ele>4012.8</ele>
        <time>2022-10-28T05:40:27.000Z</time>
      </trkpt>
      <trkpt lat="27.856448" lon="86.790029">
        <ele>4013</ele>
        <time>2022-10-28T05:40:32.000Z</time>
      </trkpt>
      <trkpt lat="27.856467" lon="86.79001">
        <ele>4012.2</ele>
        <time>2022-10-28T05:40:35.000Z</time>
      </trkpt>
      <trkpt lat="27.856477" lon="86.78999">
        <ele>4012</ele>
        <time>2022-10-28T05:40:36.000Z</time>
      </trkpt>
      <trkpt lat="27.856496" lon="86.789978">
        <ele>4012.2</ele>
        <time>2022-10-28T05:40:39.000Z</time>
      </trkpt>
      <trkpt lat="27.856506" lon="86.790003">
        <ele>4012.4</ele>
        <time>2022-10-28T05:42:28.000Z</time>
      </trkpt>
      <trkpt lat="27.856496" lon="86.790022">
        <ele>4012.2</ele>
        <time>2022-10-28T05:42:30.000Z</time>
      </trkpt>
      <trkpt lat="27.85648" lon="86.790054">
        <ele>4012.6</ele>
        <time>2022-10-28T05:42:36.000Z</time>
      </trkpt>
      <trkpt lat="27.856483" lon="86.79008">
        <ele>4013</ele>
        <time>2022-10-28T05:42:49.000Z</time>
      </trkpt>
      <trkpt lat="27.856477" lon="86.790099">
        <ele>4013.2</ele>
        <time>2022-10-28T05:42:51.000Z</time>
      </trkpt>
      <trkpt lat="27.856458" lon="86.790106">
        <ele>4014.8</ele>
        <time>2022-10-28T05:42:54.000Z</time>
      </trkpt>
      <trkpt lat="27.856438" lon="86.79008">
        <ele>4011.4</ele>
        <time>2022-10-28T05:42:59.000Z</time>
      </trkpt>
      <trkpt lat="27.856429" lon="86.790054">
        <ele>4011</ele>
        <time>2022-10-28T05:43:03.000Z</time>
      </trkpt>
      <trkpt lat="27.856426" lon="86.790029">
        <ele>4010.2</ele>
        <time>2022-10-28T05:43:07.000Z</time>
      </trkpt>
      <trkpt lat="27.856432" lon="86.79001">
        <ele>4009.8</ele>
        <time>2022-10-28T05:43:10.000Z</time>
      </trkpt>
      <trkpt lat="27.856438" lon="86.78999">
        <ele>4009.4</ele>
        <time>2022-10-28T05:43:12.000Z</time>
      </trkpt>
      <trkpt lat="27.856445" lon="86.789971">
        <ele>4008.2</ele>
        <time>2022-10-28T05:43:16.000Z</time>
      </trkpt>
      <trkpt lat="27.856448" lon="86.789946">
        <ele>4008.2</ele>
        <time>2022-10-28T05:43:19.000Z</time>
      </trkpt>
      <trkpt lat="27.856454" lon="86.789926">
        <ele>4008.2</ele>
        <time>2022-10-28T05:43:21.000Z</time>
      </trkpt>
      <trkpt lat="27.856464" lon="86.789907">
        <ele>4007.2</ele>
        <time>2022-10-28T05:43:24.000Z</time>
      </trkpt>
      <trkpt lat="27.85647" lon="86.789888">
        <ele>4006.4</ele>
        <time>2022-10-28T05:43:27.000Z</time>
      </trkpt>
      <trkpt lat="27.856477" lon="86.789869">
        <ele>4006</ele>
        <time>2022-10-28T05:43:29.000Z</time>
      </trkpt>
      <trkpt lat="27.856496" lon="86.78985">
        <ele>4005.4</ele>
        <time>2022-10-28T05:43:32.000Z</time>
      </trkpt>
      <trkpt lat="27.856506" lon="86.78983">
        <ele>4005.2</ele>
        <time>2022-10-28T05:43:34.000Z</time>
      </trkpt>
      <trkpt lat="27.856525" lon="86.789811">
        <ele>4004.2</ele>
        <time>2022-10-28T05:43:37.000Z</time>
      </trkpt>
      <trkpt lat="27.856531" lon="86.789792">
        <ele>4003.8</ele>
        <time>2022-10-28T05:43:39.000Z</time>
      </trkpt>
      <trkpt lat="27.856538" lon="86.789773">
        <ele>4002.8</ele>
        <time>2022-10-28T05:43:43.000Z</time>
      </trkpt>
      <trkpt lat="27.856544" lon="86.789741">
        <ele>4002.2</ele>
        <time>2022-10-28T05:43:45.000Z</time>
      </trkpt>
      <trkpt lat="27.856563" lon="86.789728">
        <ele>4001.2</ele>
        <time>2022-10-28T05:43:47.000Z</time>
      </trkpt>
      <trkpt lat="27.85657" lon="86.789709">
        <ele>4001.2</ele>
        <time>2022-10-28T05:43:49.000Z</time>
      </trkpt>
      <trkpt lat="27.856576" lon="86.78969">
        <ele>4000.4</ele>
        <time>2022-10-28T05:43:51.000Z</time>
      </trkpt>
      <trkpt lat="27.856582" lon="86.789658">
        <ele>4000.4</ele>
        <time>2022-10-28T05:43:54.000Z</time>
      </trkpt>
      <trkpt lat="27.856595" lon="86.789632">
        <ele>3999.4</ele>
        <time>2022-10-28T05:43:56.000Z</time>
      </trkpt>
      <trkpt lat="27.856614" lon="86.789619">
        <ele>3999.2</ele>
        <time>2022-10-28T05:43:58.000Z</time>
      </trkpt>
      <trkpt lat="27.856634" lon="86.789613">
        <ele>3999.2</ele>
        <time>2022-10-28T05:44:00.000Z</time>
      </trkpt>
      <trkpt lat="27.856646" lon="86.789594">
        <ele>3999</ele>
        <time>2022-10-28T05:44:02.000Z</time>
      </trkpt>
      <trkpt lat="27.856662" lon="86.789574">
        <ele>3998.4</ele>
        <time>2022-10-28T05:44:05.000Z</time>
      </trkpt>
      <trkpt lat="27.856675" lon="86.789549">
        <ele>3998.4</ele>
        <time>2022-10-28T05:44:08.000Z</time>
      </trkpt>
      <trkpt lat="27.856701" lon="86.78953">
        <ele>3998</ele>
        <time>2022-10-28T05:44:11.000Z</time>
      </trkpt>
      <trkpt lat="27.856714" lon="86.78951">
        <ele>3997.4</ele>
        <time>2022-10-28T05:44:12.000Z</time>
      </trkpt>
      <trkpt lat="27.85673" lon="86.789485">
        <ele>3996.4</ele>
        <time>2022-10-28T05:44:15.000Z</time>
      </trkpt>
      <trkpt lat="27.856742" lon="86.789459">
        <ele>3996.2</ele>
        <time>2022-10-28T05:44:17.000Z</time>
      </trkpt>
      <trkpt lat="27.856762" lon="86.789446">
        <ele>3996.2</ele>
        <time>2022-10-28T05:44:19.000Z</time>
      </trkpt>
      <trkpt lat="27.856774" lon="86.789427">
        <ele>3996.2</ele>
        <time>2022-10-28T05:44:21.000Z</time>
      </trkpt>
      <trkpt lat="27.856784" lon="86.789408">
        <ele>3996.2</ele>
        <time>2022-10-28T05:44:23.000Z</time>
      </trkpt>
      <trkpt lat="27.856797" lon="86.789389">
        <ele>3996.4</ele>
        <time>2022-10-28T05:44:25.000Z</time>
      </trkpt>
      <trkpt lat="27.856816" lon="86.789376">
        <ele>3996.4</ele>
        <time>2022-10-28T05:44:27.000Z</time>
      </trkpt>
      <trkpt lat="27.856832" lon="86.78935">
        <ele>3996.8</ele>
        <time>2022-10-28T05:44:29.000Z</time>
      </trkpt>
      <trkpt lat="27.856848" lon="86.789331">
        <ele>3996.8</ele>
        <time>2022-10-28T05:44:31.000Z</time>
      </trkpt>
      <trkpt lat="27.856854" lon="86.789312">
        <ele>3996.2</ele>
        <time>2022-10-28T05:44:32.000Z</time>
      </trkpt>
      <trkpt lat="27.856867" lon="86.789293">
        <ele>3996.2</ele>
        <time>2022-10-28T05:44:34.000Z</time>
      </trkpt>
      <trkpt lat="27.856874" lon="86.789274">
        <ele>3996.2</ele>
        <time>2022-10-28T05:44:35.000Z</time>
      </trkpt>
      <trkpt lat="27.856883" lon="86.789254">
        <ele>3996</ele>
        <time>2022-10-28T05:44:37.000Z</time>
      </trkpt>
      <trkpt lat="27.856886" lon="86.789229">
        <ele>3995.8</ele>
        <time>2022-10-28T05:44:40.000Z</time>
      </trkpt>
      <trkpt lat="27.856893" lon="86.78921">
        <ele>3995.8</ele>
        <time>2022-10-28T05:44:42.000Z</time>
      </trkpt>
      <trkpt lat="27.856893" lon="86.789184">
        <ele>3996.6</ele>
        <time>2022-10-28T05:44:44.000Z</time>
      </trkpt>
      <trkpt lat="27.856902" lon="86.789165">
        <ele>3996.6</ele>
        <time>2022-10-28T05:44:46.000Z</time>
      </trkpt>
      <trkpt lat="27.856915" lon="86.789139">
        <ele>3996.8</ele>
        <time>2022-10-28T05:44:48.000Z</time>
      </trkpt>
      <trkpt lat="27.856928" lon="86.789114">
        <ele>3996.6</ele>
        <time>2022-10-28T05:44:50.000Z</time>
      </trkpt>
      <trkpt lat="27.856941" lon="86.789094">
        <ele>3996.6</ele>
        <time>2022-10-28T05:44:52.000Z</time>
      </trkpt>
      <trkpt lat="27.85695" lon="86.789075">
        <ele>3996.6</ele>
        <time>2022-10-28T05:44:54.000Z</time>
      </trkpt>
      <trkpt lat="27.856963" lon="86.789056">
        <ele>3996.8</ele>
        <time>2022-10-28T05:44:56.000Z</time>
      </trkpt>
      <trkpt lat="27.856973" lon="86.78903">
        <ele>3996.8</ele>
        <time>2022-10-28T05:44:58.000Z</time>
      </trkpt>
      <trkpt lat="27.856998" lon="86.788998">
        <ele>3997.6</ele>
        <time>2022-10-28T05:45:04.000Z</time>
      </trkpt>
      <trkpt lat="27.857021" lon="86.788986">
        <ele>3997.2</ele>
        <time>2022-10-28T05:45:07.000Z</time>
      </trkpt>
      <trkpt lat="27.857014" lon="86.788966">
        <ele>3997.6</ele>
        <time>2022-10-28T05:45:11.000Z</time>
      </trkpt>
      <trkpt lat="27.857018" lon="86.788941">
        <ele>3997.6</ele>
        <time>2022-10-28T05:45:13.000Z</time>
      </trkpt>
      <trkpt lat="27.857034" lon="86.788928">
        <ele>3997.4</ele>
        <time>2022-10-28T05:45:16.000Z</time>
      </trkpt>
      <trkpt lat="27.857043" lon="86.788909">
        <ele>3997.2</ele>
        <time>2022-10-28T05:45:18.000Z</time>
      </trkpt>
      <trkpt lat="27.857056" lon="86.78889">
        <ele>3997.2</ele>
        <time>2022-10-28T05:45:22.000Z</time>
      </trkpt>
      <trkpt lat="27.857072" lon="86.788877">
        <ele>3997.2</ele>
        <time>2022-10-28T05:45:26.000Z</time>
      </trkpt>
      <trkpt lat="27.857091" lon="86.788858">
        <ele>3997.4</ele>
        <time>2022-10-28T05:45:38.000Z</time>
      </trkpt>
      <trkpt lat="27.857098" lon="86.788838">
        <ele>3997.4</ele>
        <time>2022-10-28T05:45:40.000Z</time>
      </trkpt>
      <trkpt lat="27.85711" lon="86.788819">
        <ele>3997.8</ele>
        <time>2022-10-28T05:45:43.000Z</time>
      </trkpt>
      <trkpt lat="27.857117" lon="86.7888">
        <ele>3998.4</ele>
        <time>2022-10-28T05:45:46.000Z</time>
      </trkpt>
      <trkpt lat="27.85712" lon="86.788774">
        <ele>3998.6</ele>
        <time>2022-10-28T05:45:50.000Z</time>
      </trkpt>
      <trkpt lat="27.85711" lon="86.788755">
        <ele>3999</ele>
        <time>2022-10-28T05:45:53.000Z</time>
      </trkpt>
      <trkpt lat="27.857094" lon="86.788736">
        <ele>3999</ele>
        <time>2022-10-28T05:45:56.000Z</time>
      </trkpt>
      <trkpt lat="27.857082" lon="86.788717">
        <ele>3999</ele>
        <time>2022-10-28T05:45:58.000Z</time>
      </trkpt>
      <trkpt lat="27.857066" lon="86.788698">
        <ele>3999</ele>
        <time>2022-10-28T05:46:01.000Z</time>
      </trkpt>
      <trkpt lat="27.857046" lon="86.788691">
        <ele>3998.8</ele>
        <time>2022-10-28T05:46:03.000Z</time>
      </trkpt>
      <trkpt lat="27.857024" lon="86.788672">
        <ele>3998.8</ele>
        <time>2022-10-28T05:46:05.000Z</time>
      </trkpt>
      <trkpt lat="27.857005" lon="86.788666">
        <ele>3998.8</ele>
        <time>2022-10-28T05:46:09.000Z</time>
      </trkpt>
      <trkpt lat="27.857002" lon="86.788634">
        <ele>3998.8</ele>
        <time>2022-10-28T05:46:22.000Z</time>
      </trkpt>
      <trkpt lat="27.856976" lon="86.788634">
        <ele>3998.4</ele>
        <time>2022-10-28T05:46:35.000Z</time>
      </trkpt>
      <trkpt lat="27.856957" lon="86.788627">
        <ele>3998</ele>
        <time>2022-10-28T05:46:37.000Z</time>
      </trkpt>
      <trkpt lat="27.856941" lon="86.788653">
        <ele>3997.4</ele>
        <time>2022-10-28T05:46:41.000Z</time>
      </trkpt>
      <trkpt lat="27.856922" lon="86.788666">
        <ele>3997.2</ele>
        <time>2022-10-28T05:46:44.000Z</time>
      </trkpt>
      <trkpt lat="27.856902" lon="86.788653">
        <ele>3997</ele>
        <time>2022-10-28T05:46:46.000Z</time>
      </trkpt>
      <trkpt lat="27.856886" lon="86.78864">
        <ele>3997.8</ele>
        <time>2022-10-28T05:46:54.000Z</time>
      </trkpt>
      <trkpt lat="27.856893" lon="86.788659">
        <ele>3997.2</ele>
        <time>2022-10-28T05:47:11.000Z</time>
      </trkpt>
      <trkpt lat="27.856912" lon="86.788666">
        <ele>3998.2</ele>
        <time>2022-10-28T05:47:22.000Z</time>
      </trkpt>
      <trkpt lat="27.856934" lon="86.788659">
        <ele>3998</ele>
        <time>2022-10-28T05:47:24.000Z</time>
      </trkpt>
      <trkpt lat="27.856941" lon="86.78864">
        <ele>3997.8</ele>
        <time>2022-10-28T05:47:26.000Z</time>
      </trkpt>
      <trkpt lat="27.856963" lon="86.788634">
        <ele>3998</ele>
        <time>2022-10-28T05:47:30.000Z</time>
      </trkpt>
      <trkpt lat="27.856954" lon="86.788614">
        <ele>3998.2</ele>
        <time>2022-10-28T05:47:35.000Z</time>
      </trkpt>
      <trkpt lat="27.856934" lon="86.788595">
        <ele>3998</ele>
        <time>2022-10-28T05:47:38.000Z</time>
      </trkpt>
      <trkpt lat="27.85695" lon="86.788582">
        <ele>3998.2</ele>
        <time>2022-10-28T05:47:41.000Z</time>
      </trkpt>
      <trkpt lat="27.856957" lon="86.788557">
        <ele>3998.2</ele>
        <time>2022-10-28T05:47:45.000Z</time>
      </trkpt>
      <trkpt lat="27.856976" lon="86.78857">
        <ele>3998.2</ele>
        <time>2022-10-28T05:48:12.000Z</time>
      </trkpt>
      <trkpt lat="27.856995" lon="86.78857">
        <ele>3998.2</ele>
        <time>2022-10-28T05:48:14.000Z</time>
      </trkpt>
      <trkpt lat="27.857014" lon="86.78857">
        <ele>3998.8</ele>
        <time>2022-10-28T05:48:16.000Z</time>
      </trkpt>
      <trkpt lat="27.857034" lon="86.78857">
        <ele>3999.2</ele>
        <time>2022-10-28T05:48:18.000Z</time>
      </trkpt>
      <trkpt lat="27.857056" lon="86.78857">
        <ele>3999.2</ele>
        <time>2022-10-28T05:48:20.000Z</time>
      </trkpt>
      <trkpt lat="27.857075" lon="86.788557">
        <ele>3999.2</ele>
        <time>2022-10-28T05:48:24.000Z</time>
      </trkpt>
      <trkpt lat="27.857094" lon="86.788557">
        <ele>4000.2</ele>
        <time>2022-10-28T05:48:28.000Z</time>
      </trkpt>
      <trkpt lat="27.85712" lon="86.78857">
        <ele>4000.2</ele>
        <time>2022-10-28T05:48:31.000Z</time>
      </trkpt>
      <trkpt lat="27.857123" lon="86.788544">
        <ele>4001.2</ele>
        <time>2022-10-28T05:48:35.000Z</time>
      </trkpt>
      <trkpt lat="27.857136" lon="86.788512">
        <ele>4004</ele>
        <time>2022-10-28T05:49:14.000Z</time>
      </trkpt>
      <trkpt lat="27.857152" lon="86.788499">
        <ele>4003.6</ele>
        <time>2022-10-28T05:49:16.000Z</time>
      </trkpt>
      <trkpt lat="27.857165" lon="86.78848">
        <ele>4004.2</ele>
        <time>2022-10-28T05:49:18.000Z</time>
      </trkpt>
      <trkpt lat="27.857178" lon="86.788461">
        <ele>4004.2</ele>
        <time>2022-10-28T05:49:20.000Z</time>
      </trkpt>
      <trkpt lat="27.85719" lon="86.788442">
        <ele>4004.6</ele>
        <time>2022-10-28T05:49:22.000Z</time>
      </trkpt>
      <trkpt lat="27.857181" lon="86.788422">
        <ele>4005</ele>
        <time>2022-10-28T05:49:27.000Z</time>
      </trkpt>
      <trkpt lat="27.85719" lon="86.788403">
        <ele>4004.4</ele>
        <time>2022-10-28T05:49:30.000Z</time>
      </trkpt>
      <trkpt lat="27.85721" lon="86.788397">
        <ele>4006.4</ele>
        <time>2022-10-28T05:49:36.000Z</time>
      </trkpt>
      <trkpt lat="27.857229" lon="86.788403">
        <ele>4006.4</ele>
        <time>2022-10-28T05:49:40.000Z</time>
      </trkpt>
      <trkpt lat="27.857248" lon="86.788403">
        <ele>4006.8</ele>
        <time>2022-10-28T05:49:44.000Z</time>
      </trkpt>
      <trkpt lat="27.85727" lon="86.788422">
        <ele>4006.6</ele>
        <time>2022-10-28T05:50:54.000Z</time>
      </trkpt>
      <trkpt lat="27.857293" lon="86.788435">
        <ele>4006.4</ele>
        <time>2022-10-28T05:50:57.000Z</time>
      </trkpt>
      <trkpt lat="27.857318" lon="86.788442">
        <ele>4006.6</ele>
        <time>2022-10-28T05:50:59.000Z</time>
      </trkpt>
      <trkpt lat="27.857341" lon="86.788461">
        <ele>4006.4</ele>
        <time>2022-10-28T05:51:01.000Z</time>
      </trkpt>
      <trkpt lat="27.85735" lon="86.78848">
        <ele>4006.4</ele>
        <time>2022-10-28T05:51:03.000Z</time>
      </trkpt>
      <trkpt lat="27.85737" lon="86.788474">
        <ele>4006.4</ele>
        <time>2022-10-28T05:51:12.000Z</time>
      </trkpt>
      <trkpt lat="27.85736" lon="86.788493">
        <ele>4005.6</ele>
        <time>2022-10-28T05:52:00.000Z</time>
      </trkpt>
      <trkpt lat="27.857347" lon="86.788512">
        <ele>4006</ele>
        <time>2022-10-28T05:52:26.000Z</time>
      </trkpt>
      <trkpt lat="27.857315" lon="86.788531">
        <ele>4005.8</ele>
        <time>2022-10-28T05:52:28.000Z</time>
      </trkpt>
      <trkpt lat="27.857309" lon="86.78855">
        <ele>4006.8</ele>
        <time>2022-10-28T05:52:43.000Z</time>
      </trkpt>
      <trkpt lat="27.857293" lon="86.78857">
        <ele>4005.8</ele>
        <time>2022-10-28T05:52:47.000Z</time>
      </trkpt>
      <trkpt lat="27.85727" lon="86.788576">
        <ele>4005.6</ele>
        <time>2022-10-28T05:53:14.000Z</time>
      </trkpt>
      <trkpt lat="27.857251" lon="86.788576">
        <ele>4005.6</ele>
        <time>2022-10-28T05:53:20.000Z</time>
      </trkpt>
      <trkpt lat="27.857203" lon="86.788595">
        <ele>4005.8</ele>
        <time>2022-10-28T05:54:13.000Z</time>
      </trkpt>
      <trkpt lat="27.857226" lon="86.788582">
        <ele>4005.8</ele>
        <time>2022-10-28T05:54:15.000Z</time>
      </trkpt>
      <trkpt lat="27.857245" lon="86.788582">
        <ele>4006.6</ele>
        <time>2022-10-28T05:54:30.000Z</time>
      </trkpt>
      <trkpt lat="27.857267" lon="86.78857">
        <ele>4006.6</ele>
        <time>2022-10-28T05:54:32.000Z</time>
      </trkpt>
      <trkpt lat="27.857286" lon="86.788557">
        <ele>4006.6</ele>
        <time>2022-10-28T05:54:34.000Z</time>
      </trkpt>
      <trkpt lat="27.85727" lon="86.78857">
        <ele>4006.8</ele>
        <time>2022-10-28T05:54:42.000Z</time>
      </trkpt>
      <trkpt lat="27.857248" lon="86.788582">
        <ele>4007</ele>
        <time>2022-10-28T05:55:06.000Z</time>
      </trkpt>
      <trkpt lat="27.857226" lon="86.788582">
        <ele>4007</ele>
        <time>2022-10-28T05:55:09.000Z</time>
      </trkpt>
      <trkpt lat="27.857248" lon="86.788582">
        <ele>4008</ele>
        <time>2022-10-28T05:55:27.000Z</time>
      </trkpt>
      <trkpt lat="27.857267" lon="86.78857">
        <ele>4008</ele>
        <time>2022-10-28T05:55:33.000Z</time>
      </trkpt>
      <trkpt lat="27.857245" lon="86.788576">
        <ele>4007.8</ele>
        <time>2022-10-28T05:55:46.000Z</time>
      </trkpt>
      <trkpt lat="27.857222" lon="86.788595">
        <ele>4007.2</ele>
        <time>2022-10-28T05:56:00.000Z</time>
      </trkpt>
      <trkpt lat="27.857238" lon="86.788576">
        <ele>4007.8</ele>
        <time>2022-10-28T05:56:14.000Z</time>
      </trkpt>
      <trkpt lat="27.857245" lon="86.788557">
        <ele>4007.6</ele>
        <time>2022-10-28T05:56:30.000Z</time>
      </trkpt>
      <trkpt lat="27.857216" lon="86.788582">
        <ele>4007.6</ele>
        <time>2022-10-28T05:57:19.000Z</time>
      </trkpt>
      <trkpt lat="27.857197" lon="86.788595">
        <ele>4007.8</ele>
        <time>2022-10-28T05:57:23.000Z</time>
      </trkpt>
      <trkpt lat="27.857178" lon="86.788602">
        <ele>4008.2</ele>
        <time>2022-10-28T05:57:51.000Z</time>
      </trkpt>
      <trkpt lat="27.857149" lon="86.788621">
        <ele>4008.2</ele>
        <time>2022-10-28T05:57:53.000Z</time>
      </trkpt>
      <trkpt lat="27.85713" lon="86.788634">
        <ele>4008.2</ele>
        <time>2022-10-28T05:57:57.000Z</time>
      </trkpt>
      <trkpt lat="27.857149" lon="86.788621">
        <ele>4007.4</ele>
        <time>2022-10-28T05:58:01.000Z</time>
      </trkpt>
      <trkpt lat="27.857171" lon="86.788602">
        <ele>4008.4</ele>
        <time>2022-10-28T05:59:38.000Z</time>
      </trkpt>
      <trkpt lat="27.85719" lon="86.788595">
        <ele>4008.2</ele>
        <time>2022-10-28T05:59:42.000Z</time>
      </trkpt>
      <trkpt lat="27.85721" lon="86.788589">
        <ele>4008</ele>
        <time>2022-10-28T05:59:54.000Z</time>
      </trkpt>
      <trkpt lat="27.857181" lon="86.788589">
        <ele>4008.2</ele>
        <time>2022-10-28T06:00:25.000Z</time>
      </trkpt>
      <trkpt lat="27.857162" lon="86.788589">
        <ele>4008</ele>
        <time>2022-10-28T06:00:31.000Z</time>
      </trkpt>
      <trkpt lat="27.857181" lon="86.788589">
        <ele>4008.2</ele>
        <time>2022-10-28T06:00:34.000Z</time>
      </trkpt>
      <trkpt lat="27.857165" lon="86.788602">
        <ele>4008.2</ele>
        <time>2022-10-28T06:00:42.000Z</time>
      </trkpt>
      <trkpt lat="27.85719" lon="86.788589">
        <ele>4008.4</ele>
        <time>2022-10-28T06:01:17.000Z</time>
      </trkpt>
      <trkpt lat="27.85721" lon="86.788582">
        <ele>4008.8</ele>
        <time>2022-10-28T06:01:19.000Z</time>
      </trkpt>
      <trkpt lat="27.857229" lon="86.78857">
        <ele>4008.4</ele>
        <time>2022-10-28T06:01:22.000Z</time>
      </trkpt>
      <trkpt lat="27.85721" lon="86.788576">
        <ele>4009</ele>
        <time>2022-10-28T06:01:48.000Z</time>
      </trkpt>
      <trkpt lat="27.85719" lon="86.788582">
        <ele>4008.8</ele>
        <time>2022-10-28T06:01:51.000Z</time>
      </trkpt>
      <trkpt lat="27.857171" lon="86.788582">
        <ele>4008.8</ele>
        <time>2022-10-28T06:01:56.000Z</time>
      </trkpt>
      <trkpt lat="27.85719" lon="86.788576">
        <ele>4008.8</ele>
        <time>2022-10-28T06:02:01.000Z</time>
      </trkpt>
      <trkpt lat="27.857203" lon="86.78855">
        <ele>4008.8</ele>
        <time>2022-10-28T06:02:29.000Z</time>
      </trkpt>
      <trkpt lat="27.857194" lon="86.78857">
        <ele>4008.2</ele>
        <time>2022-10-28T06:02:47.000Z</time>
      </trkpt>
      <trkpt lat="27.857174" lon="86.788582">
        <ele>4009.2</ele>
        <time>2022-10-28T06:02:53.000Z</time>
      </trkpt>
      <trkpt lat="27.857155" lon="86.788589">
        <ele>4008.2</ele>
        <time>2022-10-28T06:02:57.000Z</time>
      </trkpt>
      <trkpt lat="27.857136" lon="86.788595">
        <ele>4008.6</ele>
        <time>2022-10-28T06:03:01.000Z</time>
      </trkpt>
      <trkpt lat="27.857264" lon="86.788538">
        <ele>4009.8</ele>
        <time>2022-10-28T06:08:45.000Z</time>
      </trkpt>
      <trkpt lat="27.85728" lon="86.788518">
        <ele>4009</ele>
        <time>2022-10-28T06:08:48.000Z</time>
      </trkpt>
      <trkpt lat="27.857299" lon="86.788506">
        <ele>4009.2</ele>
        <time>2022-10-28T06:08:51.000Z</time>
      </trkpt>
      <trkpt lat="27.857318" lon="86.788512">
        <ele>4008.4</ele>
        <time>2022-10-28T06:09:19.000Z</time>
      </trkpt>
      <trkpt lat="27.857334" lon="86.788499">
        <ele>4009</ele>
        <time>2022-10-28T06:09:26.000Z</time>
      </trkpt>
      <trkpt lat="27.85735" lon="86.788512">
        <ele>4009.6</ele>
        <time>2022-10-28T06:09:48.000Z</time>
      </trkpt>
      <trkpt lat="27.857331" lon="86.788531">
        <ele>4009.6</ele>
        <time>2022-10-28T06:09:55.000Z</time>
      </trkpt>
      <trkpt lat="27.857309" lon="86.788544">
        <ele>4009.2</ele>
        <time>2022-10-28T06:10:14.000Z</time>
      </trkpt>
      <trkpt lat="27.85729" lon="86.788557">
        <ele>4009</ele>
        <time>2022-10-28T06:11:14.000Z</time>
      </trkpt>
      <trkpt lat="27.857328" lon="86.78855">
        <ele>4010</ele>
        <time>2022-10-28T06:13:38.000Z</time>
      </trkpt>
      <trkpt lat="27.857309" lon="86.788557">
        <ele>4010.6</ele>
        <time>2022-10-28T06:13:43.000Z</time>
      </trkpt>
      <trkpt lat="27.857328" lon="86.78855">
        <ele>4010.4</ele>
        <time>2022-10-28T06:15:46.000Z</time>
      </trkpt>
      <trkpt lat="27.857312" lon="86.78857">
        <ele>4010</ele>
        <time>2022-10-28T06:15:48.000Z</time>
      </trkpt>
      <trkpt lat="27.85729" lon="86.788589">
        <ele>4009.6</ele>
        <time>2022-10-28T06:15:55.000Z</time>
      </trkpt>
      <trkpt lat="27.857309" lon="86.788582">
        <ele>4009.6</ele>
        <time>2022-10-28T06:15:59.000Z</time>
      </trkpt>
      <trkpt lat="27.85729" lon="86.788602">
        <ele>4009.6</ele>
        <time>2022-10-28T06:16:56.000Z</time>
      </trkpt>
      <trkpt lat="27.857306" lon="86.788589">
        <ele>4010.4</ele>
        <time>2022-10-28T06:17:02.000Z</time>
      </trkpt>
      <trkpt lat="27.857322" lon="86.788576">
        <ele>4010.4</ele>
        <time>2022-10-28T06:17:40.000Z</time>
      </trkpt>
      <trkpt lat="27.857341" lon="86.788557">
        <ele>4009.6</ele>
        <time>2022-10-28T06:17:43.000Z</time>
      </trkpt>
      <trkpt lat="27.857386" lon="86.78848">
        <ele>4011.8</ele>
        <time>2022-10-28T06:22:12.000Z</time>
      </trkpt>
      <trkpt lat="27.857402" lon="86.788467">
        <ele>4012</ele>
        <time>2022-10-28T06:22:15.000Z</time>
      </trkpt>
      <trkpt lat="27.857424" lon="86.788454">
        <ele>4011.8</ele>
        <time>2022-10-28T06:22:20.000Z</time>
      </trkpt>
      <trkpt lat="27.857418" lon="86.788474">
        <ele>4010.6</ele>
        <time>2022-10-28T06:24:31.000Z</time>
      </trkpt>
      <trkpt lat="27.857504" lon="86.788429">
        <ele>4010.6</ele>
        <time>2022-10-28T06:24:32.000Z</time>
      </trkpt>
      <trkpt lat="27.857526" lon="86.788422">
        <ele>4010.6</ele>
        <time>2022-10-28T06:24:33.000Z</time>
      </trkpt>
      <trkpt lat="27.857555" lon="86.788416">
        <ele>4010.8</ele>
        <time>2022-10-28T06:24:35.000Z</time>
      </trkpt>
      <trkpt lat="27.857581" lon="86.788416">
        <ele>4010.6</ele>
        <time>2022-10-28T06:24:37.000Z</time>
      </trkpt>
      <trkpt lat="27.857606" lon="86.788416">
        <ele>4010.8</ele>
        <time>2022-10-28T06:24:39.000Z</time>
      </trkpt>
      <trkpt lat="27.857626" lon="86.788403">
        <ele>4010.6</ele>
        <time>2022-10-28T06:24:40.000Z</time>
      </trkpt>
      <trkpt lat="27.857613" lon="86.788397">
        <ele>4010.2</ele>
        <time>2022-10-28T06:25:52.000Z</time>
      </trkpt>
      <trkpt lat="27.857472" lon="86.788461">
        <ele>4008.6</ele>
        <time>2022-10-28T06:28:56.000Z</time>
      </trkpt>
      <trkpt lat="27.857459" lon="86.788435">
        <ele>4008.6</ele>
        <time>2022-10-28T06:32:01.000Z</time>
      </trkpt>
      <trkpt lat="27.857456" lon="86.78839">
        <ele>4007.4</ele>
        <time>2022-10-28T06:33:41.000Z</time>
      </trkpt>
      <trkpt lat="27.857453" lon="86.788416">
        <ele>4007</ele>
        <time>2022-10-28T06:33:45.000Z</time>
      </trkpt>
      <trkpt lat="27.85736" lon="86.788454">
        <ele>4006.4</ele>
        <time>2022-10-28T06:36:19.000Z</time>
      </trkpt>
      <trkpt lat="27.857354" lon="86.788435">
        <ele>4006.4</ele>
        <time>2022-10-28T06:36:22.000Z</time>
      </trkpt>
      <trkpt lat="27.857341" lon="86.788454">
        <ele>4006.6</ele>
        <time>2022-10-28T06:36:27.000Z</time>
      </trkpt>
      <trkpt lat="27.857322" lon="86.788454">
        <ele>4007.4</ele>
        <time>2022-10-28T06:36:30.000Z</time>
      </trkpt>
      <trkpt lat="27.857296" lon="86.788442">
        <ele>4007.4</ele>
        <time>2022-10-28T06:36:34.000Z</time>
      </trkpt>
      <trkpt lat="27.85728" lon="86.788454">
        <ele>4007</ele>
        <time>2022-10-28T06:36:37.000Z</time>
      </trkpt>
      <trkpt lat="27.857261" lon="86.788454">
        <ele>4007.2</ele>
        <time>2022-10-28T06:36:39.000Z</time>
      </trkpt>
      <trkpt lat="27.857242" lon="86.788454">
        <ele>4007.2</ele>
        <time>2022-10-28T06:36:41.000Z</time>
      </trkpt>
      <trkpt lat="27.857222" lon="86.788454">
        <ele>4006.6</ele>
        <time>2022-10-28T06:36:44.000Z</time>
      </trkpt>
      <trkpt lat="27.857203" lon="86.788454">
        <ele>4006.2</ele>
        <time>2022-10-28T06:36:47.000Z</time>
      </trkpt>
      <trkpt lat="27.8572" lon="86.78848">
        <ele>4004.6</ele>
        <time>2022-10-28T06:36:54.000Z</time>
      </trkpt>
      <trkpt lat="27.85719" lon="86.788499">
        <ele>4004.6</ele>
        <time>2022-10-28T06:36:56.000Z</time>
      </trkpt>
      <trkpt lat="27.857171" lon="86.788506">
        <ele>4004</ele>
        <time>2022-10-28T06:36:59.000Z</time>
      </trkpt>
      <trkpt lat="27.857155" lon="86.788518">
        <ele>4003.4</ele>
        <time>2022-10-28T06:37:02.000Z</time>
      </trkpt>
      <trkpt lat="27.857142" lon="86.788538">
        <ele>4003.2</ele>
        <time>2022-10-28T06:37:05.000Z</time>
      </trkpt>
      <trkpt lat="27.857123" lon="86.788544">
        <ele>4002.6</ele>
        <time>2022-10-28T06:37:08.000Z</time>
      </trkpt>
      <trkpt lat="27.857104" lon="86.788538">
        <ele>4001.6</ele>
        <time>2022-10-28T06:37:14.000Z</time>
      </trkpt>
      <trkpt lat="27.857088" lon="86.788512">
        <ele>4001.4</ele>
        <time>2022-10-28T06:37:17.000Z</time>
      </trkpt>
      <trkpt lat="27.857082" lon="86.788493">
        <ele>4002</ele>
        <time>2022-10-28T06:37:20.000Z</time>
      </trkpt>
      <trkpt lat="27.857075" lon="86.788467">
        <ele>4002.2</ele>
        <time>2022-10-28T06:37:23.000Z</time>
      </trkpt>
      <trkpt lat="27.857059" lon="86.788442">
        <ele>4003</ele>
        <time>2022-10-28T06:37:30.000Z</time>
      </trkpt>
      <trkpt lat="27.85704" lon="86.788422">
        <ele>4003.4</ele>
        <time>2022-10-28T06:37:33.000Z</time>
      </trkpt>
      <trkpt lat="27.857027" lon="86.788403">
        <ele>4003.4</ele>
        <time>2022-10-28T06:37:35.000Z</time>
      </trkpt>
      <trkpt lat="27.857011" lon="86.788384">
        <ele>4003.2</ele>
        <time>2022-10-28T06:37:37.000Z</time>
      </trkpt>
      <trkpt lat="27.857002" lon="86.788358">
        <ele>4003.2</ele>
        <time>2022-10-28T06:37:39.000Z</time>
      </trkpt>
      <trkpt lat="27.856989" lon="86.788333">
        <ele>4003.4</ele>
        <time>2022-10-28T06:37:42.000Z</time>
      </trkpt>
      <trkpt lat="27.856979" lon="86.788314">
        <ele>4003.6</ele>
        <time>2022-10-28T06:37:43.000Z</time>
      </trkpt>
      <trkpt lat="27.856963" lon="86.788282">
        <ele>4003.4</ele>
        <time>2022-10-28T06:37:46.000Z</time>
      </trkpt>
      <trkpt lat="27.856947" lon="86.788262">
        <ele>4003.4</ele>
        <time>2022-10-28T06:37:49.000Z</time>
      </trkpt>
      <trkpt lat="27.856938" lon="86.788237">
        <ele>4003.8</ele>
        <time>2022-10-28T06:37:51.000Z</time>
      </trkpt>
      <trkpt lat="27.856925" lon="86.788218">
        <ele>4003.8</ele>
        <time>2022-10-28T06:37:54.000Z</time>
      </trkpt>
      <trkpt lat="27.856918" lon="86.788198">
        <ele>4003.8</ele>
        <time>2022-10-28T06:37:55.000Z</time>
      </trkpt>
      <trkpt lat="27.856902" lon="86.788173">
        <ele>4003.8</ele>
        <time>2022-10-28T06:37:58.000Z</time>
      </trkpt>
      <trkpt lat="27.856886" lon="86.788154">
        <ele>4003.8</ele>
        <time>2022-10-28T06:38:00.000Z</time>
      </trkpt>
      <trkpt lat="27.856864" lon="86.788141">
        <ele>4004.6</ele>
        <time>2022-10-28T06:38:03.000Z</time>
      </trkpt>
      <trkpt lat="27.856851" lon="86.788122">
        <ele>4004.2</ele>
        <time>2022-10-28T06:38:05.000Z</time>
      </trkpt>
      <trkpt lat="27.856829" lon="86.788115">
        <ele>4003.8</ele>
        <time>2022-10-28T06:38:07.000Z</time>
      </trkpt>
      <trkpt lat="27.856806" lon="86.788109">
        <ele>4004.2</ele>
        <time>2022-10-28T06:38:10.000Z</time>
      </trkpt>
      <trkpt lat="27.856787" lon="86.788083">
        <ele>4004</ele>
        <time>2022-10-28T06:38:13.000Z</time>
      </trkpt>
      <trkpt lat="27.856771" lon="86.788064">
        <ele>4004.4</ele>
        <time>2022-10-28T06:39:25.000Z</time>
      </trkpt>
      <trkpt lat="27.856755" lon="86.788045">
        <ele>4004.4</ele>
        <time>2022-10-28T06:39:27.000Z</time>
      </trkpt>
      <trkpt lat="27.856739" lon="86.788026">
        <ele>4004.6</ele>
        <time>2022-10-28T06:39:29.000Z</time>
      </trkpt>
      <trkpt lat="27.85672" lon="86.787994">
        <ele>4004.6</ele>
        <time>2022-10-28T06:39:31.000Z</time>
      </trkpt>
      <trkpt lat="27.856704" lon="86.787981">
        <ele>4004.4</ele>
        <time>2022-10-28T06:39:33.000Z</time>
      </trkpt>
      <trkpt lat="27.856688" lon="86.787955">
        <ele>4004.6</ele>
        <time>2022-10-28T06:39:35.000Z</time>
      </trkpt>
      <trkpt lat="27.856675" lon="86.787936">
        <ele>4004.4</ele>
        <time>2022-10-28T06:39:38.000Z</time>
      </trkpt>
      <trkpt lat="27.856666" lon="86.787917">
        <ele>4004.6</ele>
        <time>2022-10-28T06:39:41.000Z</time>
      </trkpt>
      <trkpt lat="27.85665" lon="86.787898">
        <ele>4004.8</ele>
        <time>2022-10-28T06:39:45.000Z</time>
      </trkpt>
      <trkpt lat="27.856634" lon="86.787885">
        <ele>4004.8</ele>
        <time>2022-10-28T06:39:48.000Z</time>
      </trkpt>
      <trkpt lat="27.856618" lon="86.787872">
        <ele>4005.2</ele>
        <time>2022-10-28T06:39:55.000Z</time>
      </trkpt>
      <trkpt lat="27.856598" lon="86.787866">
        <ele>4005.2</ele>
        <time>2022-10-28T06:39:57.000Z</time>
      </trkpt>
      <trkpt lat="27.856576" lon="86.787846">
        <ele>4005.6</ele>
        <time>2022-10-28T06:40:00.000Z</time>
      </trkpt>
      <trkpt lat="27.856557" lon="86.787846">
        <ele>4005.2</ele>
        <time>2022-10-28T06:40:03.000Z</time>
      </trkpt>
      <trkpt lat="27.856541" lon="86.787834">
        <ele>4005.2</ele>
        <time>2022-10-28T06:40:05.000Z</time>
      </trkpt>
      <trkpt lat="27.856534" lon="86.787859">
        <ele>4005.6</ele>
        <time>2022-10-28T06:40:08.000Z</time>
      </trkpt>
      <trkpt lat="27.856515" lon="86.78784">
        <ele>4005.8</ele>
        <time>2022-10-28T06:40:10.000Z</time>
      </trkpt>
      <trkpt lat="27.85649" lon="86.787846">
        <ele>4006.2</ele>
        <time>2022-10-28T06:40:13.000Z</time>
      </trkpt>
      <trkpt lat="27.856474" lon="86.787834">
        <ele>4005.8</ele>
        <time>2022-10-28T06:40:16.000Z</time>
      </trkpt>
      <trkpt lat="27.85648" lon="86.787789">
        <ele>4005.6</ele>
        <time>2022-10-28T06:40:52.000Z</time>
      </trkpt>
      <trkpt lat="27.85649" lon="86.787757">
        <ele>4006</ele>
        <time>2022-10-28T06:40:54.000Z</time>
      </trkpt>
      <trkpt lat="27.856496" lon="86.787725">
        <ele>4006.4</ele>
        <time>2022-10-28T06:40:56.000Z</time>
      </trkpt>
      <trkpt lat="27.856502" lon="86.787699">
        <ele>4006.6</ele>
        <time>2022-10-28T06:40:59.000Z</time>
      </trkpt>
      <trkpt lat="27.856515" lon="86.78768">
        <ele>4007</ele>
        <time>2022-10-28T06:41:01.000Z</time>
      </trkpt>
      <trkpt lat="27.856512" lon="86.787642">
        <ele>4007.6</ele>
        <time>2022-10-28T06:41:08.000Z</time>
      </trkpt>
      <trkpt lat="27.856502" lon="86.787622">
        <ele>4008.2</ele>
        <time>2022-10-28T06:41:10.000Z</time>
      </trkpt>
      <trkpt lat="27.85649" lon="86.787603">
        <ele>4008.6</ele>
        <time>2022-10-28T06:41:13.000Z</time>
      </trkpt>
      <trkpt lat="27.856483" lon="86.787584">
        <ele>4009.6</ele>
        <time>2022-10-28T06:41:19.000Z</time>
      </trkpt>
      <trkpt lat="27.85649" lon="86.787558">
        <ele>4010.6</ele>
        <time>2022-10-28T06:41:27.000Z</time>
      </trkpt>
      <trkpt lat="27.856499" lon="86.787526">
        <ele>4010.8</ele>
        <time>2022-10-28T06:41:33.000Z</time>
      </trkpt>
      <trkpt lat="27.856502" lon="86.787501">
        <ele>4011.8</ele>
        <time>2022-10-28T06:41:41.000Z</time>
      </trkpt>
      <trkpt lat="27.856496" lon="86.787482">
        <ele>4012</ele>
        <time>2022-10-28T06:41:43.000Z</time>
      </trkpt>
      <trkpt lat="27.85648" lon="86.787462">
        <ele>4013.8</ele>
        <time>2022-10-28T06:41:51.000Z</time>
      </trkpt>
      <trkpt lat="27.85647" lon="86.787443">
        <ele>4014.4</ele>
        <time>2022-10-28T06:42:40.000Z</time>
      </trkpt>
      <trkpt lat="27.856451" lon="86.78743">
        <ele>4014.4</ele>
        <time>2022-10-28T06:42:42.000Z</time>
      </trkpt>
      <trkpt lat="27.856435" lon="86.787405">
        <ele>4014.4</ele>
        <time>2022-10-28T06:42:44.000Z</time>
      </trkpt>
      <trkpt lat="27.85641" lon="86.787392">
        <ele>4014.2</ele>
        <time>2022-10-28T06:42:46.000Z</time>
      </trkpt>
      <trkpt lat="27.856394" lon="86.787366">
        <ele>4014.2</ele>
        <time>2022-10-28T06:42:48.000Z</time>
      </trkpt>
      <trkpt lat="27.856378" lon="86.787354">
        <ele>4014</ele>
        <time>2022-10-28T06:42:50.000Z</time>
      </trkpt>
      <trkpt lat="27.856368" lon="86.787328">
        <ele>4013.6</ele>
        <time>2022-10-28T06:44:08.000Z</time>
      </trkpt>
      <trkpt lat="27.856352" lon="86.787302">
        <ele>4013.6</ele>
        <time>2022-10-28T06:44:10.000Z</time>
      </trkpt>
      <trkpt lat="27.856346" lon="86.787283">
        <ele>4013.4</ele>
        <time>2022-10-28T06:44:11.000Z</time>
      </trkpt>
      <trkpt lat="27.85633" lon="86.787264">
        <ele>4013.4</ele>
        <time>2022-10-28T06:44:13.000Z</time>
      </trkpt>
      <trkpt lat="27.856317" lon="86.787245">
        <ele>4014</ele>
        <time>2022-10-28T06:44:14.000Z</time>
      </trkpt>
      <trkpt lat="27.856301" lon="86.787219">
        <ele>4014</ele>
        <time>2022-10-28T06:44:16.000Z</time>
      </trkpt>
      <trkpt lat="27.856282" lon="86.7872">
        <ele>4013.2</ele>
        <time>2022-10-28T06:44:18.000Z</time>
      </trkpt>
      <trkpt lat="27.856275" lon="86.787181">
        <ele>4013</ele>
        <time>2022-10-28T06:44:20.000Z</time>
      </trkpt>
      <trkpt lat="27.856266" lon="86.787162">
        <ele>4012.4</ele>
        <time>2022-10-28T06:44:22.000Z</time>
      </trkpt>
      <trkpt lat="27.856253" lon="86.787142">
        <ele>4013</ele>
        <time>2022-10-28T06:44:24.000Z</time>
      </trkpt>
      <trkpt lat="27.85625" lon="86.787117">
        <ele>4012.4</ele>
        <time>2022-10-28T06:44:27.000Z</time>
      </trkpt>
      <trkpt lat="27.856256" lon="86.787091">
        <ele>4012.6</ele>
        <time>2022-10-28T06:44:30.000Z</time>
      </trkpt>
      <trkpt lat="27.856266" lon="86.787072">
        <ele>4013.2</ele>
        <time>2022-10-28T06:44:45.000Z</time>
      </trkpt>
      <trkpt lat="27.856259" lon="86.787053">
        <ele>4012.6</ele>
        <time>2022-10-28T06:44:48.000Z</time>
      </trkpt>
      <trkpt lat="27.856246" lon="86.787034">
        <ele>4012.4</ele>
        <time>2022-10-28T06:44:51.000Z</time>
      </trkpt>
      <trkpt lat="27.85623" lon="86.787021">
        <ele>4011.6</ele>
        <time>2022-10-28T06:44:54.000Z</time>
      </trkpt>
      <trkpt lat="27.856214" lon="86.787002">
        <ele>4012</ele>
        <time>2022-10-28T06:44:56.000Z</time>
      </trkpt>
      <trkpt lat="27.856202" lon="86.786982">
        <ele>4011.4</ele>
        <time>2022-10-28T06:44:59.000Z</time>
      </trkpt>
      <trkpt lat="27.856214" lon="86.786925">
        <ele>4011.6</ele>
        <time>2022-10-28T06:45:04.000Z</time>
      </trkpt>
      <trkpt lat="27.856211" lon="86.786893">
        <ele>4011.6</ele>
        <time>2022-10-28T06:45:07.000Z</time>
      </trkpt>
      <trkpt lat="27.856205" lon="86.786874">
        <ele>4012</ele>
        <time>2022-10-28T06:45:09.000Z</time>
      </trkpt>
      <trkpt lat="27.856192" lon="86.786842">
        <ele>4011.8</ele>
        <time>2022-10-28T06:45:12.000Z</time>
      </trkpt>
      <trkpt lat="27.856176" lon="86.786822">
        <ele>4011.6</ele>
        <time>2022-10-28T06:45:15.000Z</time>
      </trkpt>
      <trkpt lat="27.856166" lon="86.786797">
        <ele>4011.2</ele>
        <time>2022-10-28T06:45:17.000Z</time>
      </trkpt>
      <trkpt lat="27.856154" lon="86.786771">
        <ele>4011.6</ele>
        <time>2022-10-28T06:45:20.000Z</time>
      </trkpt>
      <trkpt lat="27.856138" lon="86.786752">
        <ele>4011.6</ele>
        <time>2022-10-28T06:45:23.000Z</time>
      </trkpt>
      <trkpt lat="27.856115" lon="86.786746">
        <ele>4012.2</ele>
        <time>2022-10-28T06:45:26.000Z</time>
      </trkpt>
      <trkpt lat="27.856093" lon="86.786746">
        <ele>4012</ele>
        <time>2022-10-28T06:45:30.000Z</time>
      </trkpt>
      <trkpt lat="27.856061" lon="86.786726">
        <ele>4012</ele>
        <time>2022-10-28T06:45:42.000Z</time>
      </trkpt>
      <trkpt lat="27.856029" lon="86.786714">
        <ele>4011.4</ele>
        <time>2022-10-28T06:46:11.000Z</time>
      </trkpt>
      <trkpt lat="27.856019" lon="86.786694">
        <ele>4011</ele>
        <time>2022-10-28T06:46:12.000Z</time>
      </trkpt>
      <trkpt lat="27.856006" lon="86.786669">
        <ele>4010.6</ele>
        <time>2022-10-28T06:46:14.000Z</time>
      </trkpt>
      <trkpt lat="27.856" lon="86.78665">
        <ele>4010.6</ele>
        <time>2022-10-28T06:46:15.000Z</time>
      </trkpt>
      <trkpt lat="27.855994" lon="86.78663">
        <ele>4010.6</ele>
        <time>2022-10-28T06:46:16.000Z</time>
      </trkpt>
      <trkpt lat="27.855978" lon="86.786605">
        <ele>4010.6</ele>
        <time>2022-10-28T06:46:17.000Z</time>
      </trkpt>
      <trkpt lat="27.855962" lon="86.786573">
        <ele>4010.6</ele>
        <time>2022-10-28T06:46:19.000Z</time>
      </trkpt>
      <trkpt lat="27.855958" lon="86.786547">
        <ele>4010</ele>
        <time>2022-10-28T06:46:21.000Z</time>
      </trkpt>
      <trkpt lat="27.855958" lon="86.786522">
        <ele>4009.8</ele>
        <time>2022-10-28T06:46:23.000Z</time>
      </trkpt>
      <trkpt lat="27.855958" lon="86.78649">
        <ele>4010</ele>
        <time>2022-10-28T06:46:25.000Z</time>
      </trkpt>
      <trkpt lat="27.855952" lon="86.78647">
        <ele>4010.2</ele>
        <time>2022-10-28T06:46:27.000Z</time>
      </trkpt>
      <trkpt lat="27.855946" lon="86.786451">
        <ele>4010.2</ele>
        <time>2022-10-28T06:46:29.000Z</time>
      </trkpt>
      <trkpt lat="27.85593" lon="86.786432">
        <ele>4010.6</ele>
        <time>2022-10-28T06:46:31.000Z</time>
      </trkpt>
      <trkpt lat="27.855907" lon="86.786426">
        <ele>4010.6</ele>
        <time>2022-10-28T06:46:33.000Z</time>
      </trkpt>
      <trkpt lat="27.855894" lon="86.786406">
        <ele>4010.6</ele>
        <time>2022-10-28T06:46:35.000Z</time>
      </trkpt>
      <trkpt lat="27.855878" lon="86.786394">
        <ele>4010.8</ele>
        <time>2022-10-28T06:46:37.000Z</time>
      </trkpt>
      <trkpt lat="27.855859" lon="86.786374">
        <ele>4011.6</ele>
        <time>2022-10-28T06:46:39.000Z</time>
      </trkpt>
      <trkpt lat="27.855843" lon="86.786362">
        <ele>4011.8</ele>
        <time>2022-10-28T06:46:41.000Z</time>
      </trkpt>
      <trkpt lat="27.85583" lon="86.786336">
        <ele>4012.6</ele>
        <time>2022-10-28T06:46:44.000Z</time>
      </trkpt>
      <trkpt lat="27.855808" lon="86.786323">
        <ele>4013</ele>
        <time>2022-10-28T06:46:47.000Z</time>
      </trkpt>
      <trkpt lat="27.855792" lon="86.786298">
        <ele>4013.2</ele>
        <time>2022-10-28T06:46:51.000Z</time>
      </trkpt>
      <trkpt lat="27.855776" lon="86.786285">
        <ele>4014</ele>
        <time>2022-10-28T06:46:56.000Z</time>
      </trkpt>
      <trkpt lat="27.855766" lon="86.786266">
        <ele>4014</ele>
        <time>2022-10-28T06:46:58.000Z</time>
      </trkpt>
      <trkpt lat="27.85576" lon="86.786246">
        <ele>4014</ele>
        <time>2022-10-28T06:47:00.000Z</time>
      </trkpt>
      <trkpt lat="27.855744" lon="86.786234">
        <ele>4014.2</ele>
        <time>2022-10-28T06:47:02.000Z</time>
      </trkpt>
      <trkpt lat="27.855728" lon="86.786214">
        <ele>4014.2</ele>
        <time>2022-10-28T06:47:04.000Z</time>
      </trkpt>
      <trkpt lat="27.855712" lon="86.786202">
        <ele>4014.2</ele>
        <time>2022-10-28T06:47:06.000Z</time>
      </trkpt>
      <trkpt lat="27.855699" lon="86.786176">
        <ele>4014.2</ele>
        <time>2022-10-28T06:47:08.000Z</time>
      </trkpt>
      <trkpt lat="27.855683" lon="86.78615">
        <ele>4013.4</ele>
        <time>2022-10-28T06:47:11.000Z</time>
      </trkpt>
      <trkpt lat="27.855674" lon="86.786125">
        <ele>4013.4</ele>
        <time>2022-10-28T06:47:13.000Z</time>
      </trkpt>
      <trkpt lat="27.855667" lon="86.786099">
        <ele>4013.4</ele>
        <time>2022-10-28T06:47:15.000Z</time>
      </trkpt>
      <trkpt lat="27.855661" lon="86.786074">
        <ele>4012.6</ele>
        <time>2022-10-28T06:47:18.000Z</time>
      </trkpt>
      <trkpt lat="27.855654" lon="86.786054">
        <ele>4012.6</ele>
        <time>2022-10-28T06:47:19.000Z</time>
      </trkpt>
      <trkpt lat="27.855645" lon="86.786035">
        <ele>4012.6</ele>
        <time>2022-10-28T06:47:21.000Z</time>
      </trkpt>
      <trkpt lat="27.855635" lon="86.786016">
        <ele>4012.4</ele>
        <time>2022-10-28T06:47:23.000Z</time>
      </trkpt>
      <trkpt lat="27.855626" lon="86.78599">
        <ele>4012.4</ele>
        <time>2022-10-28T06:47:25.000Z</time>
      </trkpt>
      <trkpt lat="27.855619" lon="86.785965">
        <ele>4011.8</ele>
        <time>2022-10-28T06:47:27.000Z</time>
      </trkpt>
      <trkpt lat="27.85561" lon="86.785939">
        <ele>4012.2</ele>
        <time>2022-10-28T06:47:29.000Z</time>
      </trkpt>
      <trkpt lat="27.855594" lon="86.785914">
        <ele>4011.8</ele>
        <time>2022-10-28T06:47:32.000Z</time>
      </trkpt>
      <trkpt lat="27.855584" lon="86.785888">
        <ele>4011.8</ele>
        <time>2022-10-28T06:47:34.000Z</time>
      </trkpt>
      <trkpt lat="27.855571" lon="86.785856">
        <ele>4011.8</ele>
        <time>2022-10-28T06:47:36.000Z</time>
      </trkpt>
      <trkpt lat="27.855558" lon="86.785837">
        <ele>4012.2</ele>
        <time>2022-10-28T06:47:39.000Z</time>
      </trkpt>
      <trkpt lat="27.855552" lon="86.785818">
        <ele>4012.2</ele>
        <time>2022-10-28T06:47:40.000Z</time>
      </trkpt>
      <trkpt lat="27.855536" lon="86.785805">
        <ele>4012.2</ele>
        <time>2022-10-28T06:47:42.000Z</time>
      </trkpt>
      <trkpt lat="27.855526" lon="86.785779">
        <ele>4012.4</ele>
        <time>2022-10-28T06:47:44.000Z</time>
      </trkpt>
      <trkpt lat="27.85551" lon="86.785766">
        <ele>4012.4</ele>
        <time>2022-10-28T06:47:46.000Z</time>
      </trkpt>
      <trkpt lat="27.855485" lon="86.785734">
        <ele>4012.8</ele>
        <time>2022-10-28T06:47:49.000Z</time>
      </trkpt>
      <trkpt lat="27.855472" lon="86.785715">
        <ele>4012.4</ele>
        <time>2022-10-28T06:47:52.000Z</time>
      </trkpt>
      <trkpt lat="27.855459" lon="86.785696">
        <ele>4012.6</ele>
        <time>2022-10-28T06:47:54.000Z</time>
      </trkpt>
      <trkpt lat="27.855443" lon="86.785683">
        <ele>4012.8</ele>
        <time>2022-10-28T06:47:57.000Z</time>
      </trkpt>
      <trkpt lat="27.855424" lon="86.785677">
        <ele>4013.4</ele>
        <time>2022-10-28T06:48:02.000Z</time>
      </trkpt>
      <trkpt lat="27.855411" lon="86.785658">
        <ele>4013</ele>
        <time>2022-10-28T06:48:04.000Z</time>
      </trkpt>
      <trkpt lat="27.855392" lon="86.785645">
        <ele>4012.8</ele>
        <time>2022-10-28T06:48:06.000Z</time>
      </trkpt>
      <trkpt lat="27.85537" lon="86.785632">
        <ele>4012.8</ele>
        <time>2022-10-28T06:48:09.000Z</time>
      </trkpt>
      <trkpt lat="27.855309" lon="86.785574">
        <ele>4015</ele>
        <time>2022-10-28T06:50:16.000Z</time>
      </trkpt>
      <trkpt lat="27.855277" lon="86.785562">
        <ele>4015.2</ele>
        <time>2022-10-28T06:50:28.000Z</time>
      </trkpt>
      <trkpt lat="27.855261" lon="86.785542">
        <ele>4015.2</ele>
        <time>2022-10-28T06:50:30.000Z</time>
      </trkpt>
      <trkpt lat="27.855245" lon="86.78553">
        <ele>4014.8</ele>
        <time>2022-10-28T06:50:32.000Z</time>
      </trkpt>
      <trkpt lat="27.855229" lon="86.785517">
        <ele>4014.8</ele>
        <time>2022-10-28T06:50:34.000Z</time>
      </trkpt>
      <trkpt lat="27.85521" lon="86.785498">
        <ele>4014.6</ele>
        <time>2022-10-28T06:50:36.000Z</time>
      </trkpt>
      <trkpt lat="27.855197" lon="86.785478">
        <ele>4014.4</ele>
        <time>2022-10-28T06:50:39.000Z</time>
      </trkpt>
      <trkpt lat="27.855187" lon="86.785459">
        <ele>4015.6</ele>
        <time>2022-10-28T06:50:49.000Z</time>
      </trkpt>
      <trkpt lat="27.855187" lon="86.785434">
        <ele>4015.6</ele>
        <time>2022-10-28T06:50:53.000Z</time>
      </trkpt>
      <trkpt lat="27.855187" lon="86.785408">
        <ele>4013.8</ele>
        <time>2022-10-28T06:51:05.000Z</time>
      </trkpt>
      <trkpt lat="27.855178" lon="86.785376">
        <ele>4013.8</ele>
        <time>2022-10-28T06:51:07.000Z</time>
      </trkpt>
      <trkpt lat="27.855168" lon="86.785338">
        <ele>4013</ele>
        <time>2022-10-28T06:51:09.000Z</time>
      </trkpt>
      <trkpt lat="27.855155" lon="86.785312">
        <ele>4013.8</ele>
        <time>2022-10-28T06:51:11.000Z</time>
      </trkpt>
      <trkpt lat="27.855149" lon="86.785286">
        <ele>4013.6</ele>
        <time>2022-10-28T06:51:15.000Z</time>
      </trkpt>
      <trkpt lat="27.855142" lon="86.785261">
        <ele>4012.8</ele>
        <time>2022-10-28T06:51:43.000Z</time>
      </trkpt>
      <trkpt lat="27.855139" lon="86.785235">
        <ele>4012.6</ele>
        <time>2022-10-28T06:51:45.000Z</time>
      </trkpt>
      <trkpt lat="27.85513" lon="86.785203">
        <ele>4012.6</ele>
        <time>2022-10-28T06:51:47.000Z</time>
      </trkpt>
      <trkpt lat="27.855123" lon="86.785171">
        <ele>4012.2</ele>
        <time>2022-10-28T06:51:49.000Z</time>
      </trkpt>
      <trkpt lat="27.855123" lon="86.785133">
        <ele>4011.8</ele>
        <time>2022-10-28T06:51:51.000Z</time>
      </trkpt>
      <trkpt lat="27.855117" lon="86.785114">
        <ele>4011.6</ele>
        <time>2022-10-28T06:51:53.000Z</time>
      </trkpt>
      <trkpt lat="27.855117" lon="86.785088">
        <ele>4011.6</ele>
        <time>2022-10-28T06:51:55.000Z</time>
      </trkpt>
      <trkpt lat="27.855117" lon="86.785062">
        <ele>4011.6</ele>
        <time>2022-10-28T06:51:57.000Z</time>
      </trkpt>
      <trkpt lat="27.855117" lon="86.785037">
        <ele>4011.6</ele>
        <time>2022-10-28T06:52:00.000Z</time>
      </trkpt>
      <trkpt lat="27.855114" lon="86.785011">
        <ele>4011.8</ele>
        <time>2022-10-28T06:52:02.000Z</time>
      </trkpt>
      <trkpt lat="27.855107" lon="86.784979">
        <ele>4012</ele>
        <time>2022-10-28T06:52:05.000Z</time>
      </trkpt>
      <trkpt lat="27.855098" lon="86.78496">
        <ele>4012.2</ele>
        <time>2022-10-28T06:52:08.000Z</time>
      </trkpt>
      <trkpt lat="27.855085" lon="86.784934">
        <ele>4012.6</ele>
        <time>2022-10-28T06:52:10.000Z</time>
      </trkpt>
      <trkpt lat="27.855066" lon="86.784902">
        <ele>4012.6</ele>
        <time>2022-10-28T06:52:13.000Z</time>
      </trkpt>
      <trkpt lat="27.855059" lon="86.784883">
        <ele>4012.4</ele>
        <time>2022-10-28T06:52:15.000Z</time>
      </trkpt>
      <trkpt lat="27.855056" lon="86.784858">
        <ele>4012.2</ele>
        <time>2022-10-28T06:52:17.000Z</time>
      </trkpt>
      <trkpt lat="27.855053" lon="86.784826">
        <ele>4012.2</ele>
        <time>2022-10-28T06:52:20.000Z</time>
      </trkpt>
      <trkpt lat="27.855053" lon="86.7848">
        <ele>4012.2</ele>
        <time>2022-10-28T06:52:22.000Z</time>
      </trkpt>
      <trkpt lat="27.855053" lon="86.784774">
        <ele>4011.8</ele>
        <time>2022-10-28T06:52:24.000Z</time>
      </trkpt>
      <trkpt lat="27.855059" lon="86.784749">
        <ele>4011.2</ele>
        <time>2022-10-28T06:52:26.000Z</time>
      </trkpt>
      <trkpt lat="27.855066" lon="86.784717">
        <ele>4012</ele>
        <time>2022-10-28T06:52:29.000Z</time>
      </trkpt>
      <trkpt lat="27.855066" lon="86.784691">
        <ele>4011.8</ele>
        <time>2022-10-28T06:52:31.000Z</time>
      </trkpt>
      <trkpt lat="27.855066" lon="86.784659">
        <ele>4011</ele>
        <time>2022-10-28T06:52:33.000Z</time>
      </trkpt>
      <trkpt lat="27.855075" lon="86.784627">
        <ele>4010.4</ele>
        <time>2022-10-28T06:52:36.000Z</time>
      </trkpt>
      <trkpt lat="27.855075" lon="86.784602">
        <ele>4010.2</ele>
        <time>2022-10-28T06:52:38.000Z</time>
      </trkpt>
      <trkpt lat="27.855078" lon="86.784576">
        <ele>4009.8</ele>
        <time>2022-10-28T06:52:40.000Z</time>
      </trkpt>
      <trkpt lat="27.855085" lon="86.784544">
        <ele>4009.8</ele>
        <time>2022-10-28T06:52:42.000Z</time>
      </trkpt>
      <trkpt lat="27.855088" lon="86.784506">
        <ele>4008</ele>
        <time>2022-10-28T06:52:45.000Z</time>
      </trkpt>
      <trkpt lat="27.855094" lon="86.784486">
        <ele>4007.8</ele>
        <time>2022-10-28T06:52:47.000Z</time>
      </trkpt>
      <trkpt lat="27.855098" lon="86.784461">
        <ele>4008</ele>
        <time>2022-10-28T06:52:49.000Z</time>
      </trkpt>
      <trkpt lat="27.855107" lon="86.784442">
        <ele>4008</ele>
        <time>2022-10-28T06:52:51.000Z</time>
      </trkpt>
      <trkpt lat="27.855114" lon="86.784416">
        <ele>4007.8</ele>
        <time>2022-10-28T06:52:53.000Z</time>
      </trkpt>
      <trkpt lat="27.855107" lon="86.78439">
        <ele>4007.8</ele>
        <time>2022-10-28T06:52:55.000Z</time>
      </trkpt>
      <trkpt lat="27.855098" lon="86.784371">
        <ele>4007.4</ele>
        <time>2022-10-28T06:52:57.000Z</time>
      </trkpt>
      <trkpt lat="27.855088" lon="86.784352">
        <ele>4007.2</ele>
        <time>2022-10-28T06:52:59.000Z</time>
      </trkpt>
      <trkpt lat="27.855069" lon="86.784333">
        <ele>4007.4</ele>
        <time>2022-10-28T06:53:01.000Z</time>
      </trkpt>
      <trkpt lat="27.855053" lon="86.78432">
        <ele>4007</ele>
        <time>2022-10-28T06:53:04.000Z</time>
      </trkpt>
      <trkpt lat="27.855043" lon="86.784301">
        <ele>4007.2</ele>
        <time>2022-10-28T06:53:06.000Z</time>
      </trkpt>
      <trkpt lat="27.855027" lon="86.784288">
        <ele>4007</ele>
        <time>2022-10-28T06:53:09.000Z</time>
      </trkpt>
      <trkpt lat="27.855014" lon="86.784269">
        <ele>4005.2</ele>
        <time>2022-10-28T06:53:13.000Z</time>
      </trkpt>
      <trkpt lat="27.85503" lon="86.784256">
        <ele>4005.4</ele>
        <time>2022-10-28T06:53:18.000Z</time>
      </trkpt>
      <trkpt lat="27.85504" lon="86.78423">
        <ele>4005</ele>
        <time>2022-10-28T06:53:21.000Z</time>
      </trkpt>
      <trkpt lat="27.855056" lon="86.784218">
        <ele>4004.2</ele>
        <time>2022-10-28T06:53:23.000Z</time>
      </trkpt>
      <trkpt lat="27.855072" lon="86.784192">
        <ele>4003.8</ele>
        <time>2022-10-28T06:53:26.000Z</time>
      </trkpt>
      <trkpt lat="27.855088" lon="86.784166">
        <ele>4003.2</ele>
        <time>2022-10-28T06:53:29.000Z</time>
      </trkpt>
      <trkpt lat="27.855104" lon="86.784147">
        <ele>4003</ele>
        <time>2022-10-28T06:53:31.000Z</time>
      </trkpt>
      <trkpt lat="27.855098" lon="86.784122">
        <ele>4003.6</ele>
        <time>2022-10-28T06:53:36.000Z</time>
      </trkpt>
      <trkpt lat="27.855091" lon="86.784102">
        <ele>4003.6</ele>
        <time>2022-10-28T06:53:38.000Z</time>
      </trkpt>
      <trkpt lat="27.855078" lon="86.784083">
        <ele>4003.6</ele>
        <time>2022-10-28T06:53:40.000Z</time>
      </trkpt>
      <trkpt lat="27.855072" lon="86.784064">
        <ele>4003.8</ele>
        <time>2022-10-28T06:53:42.000Z</time>
      </trkpt>
      <trkpt lat="27.85505" lon="86.784058">
        <ele>4003.8</ele>
        <time>2022-10-28T06:53:45.000Z</time>
      </trkpt>
      <trkpt lat="27.855024" lon="86.784051">
        <ele>4004.2</ele>
        <time>2022-10-28T06:53:48.000Z</time>
      </trkpt>
      <trkpt lat="27.855005" lon="86.784051">
        <ele>4004.6</ele>
        <time>2022-10-28T06:53:50.000Z</time>
      </trkpt>
      <trkpt lat="27.854986" lon="86.784051">
        <ele>4004.6</ele>
        <time>2022-10-28T06:53:52.000Z</time>
      </trkpt>
      <trkpt lat="27.854966" lon="86.784051">
        <ele>4004.6</ele>
        <time>2022-10-28T06:53:54.000Z</time>
      </trkpt>
      <trkpt lat="27.854944" lon="86.784045">
        <ele>4004.8</ele>
        <time>2022-10-28T06:53:56.000Z</time>
      </trkpt>
      <trkpt lat="27.854928" lon="86.784026">
        <ele>4004.8</ele>
        <time>2022-10-28T06:53:59.000Z</time>
      </trkpt>
      <trkpt lat="27.854918" lon="86.783994">
        <ele>4004.2</ele>
        <time>2022-10-28T06:54:01.000Z</time>
      </trkpt>
      <trkpt lat="27.854906" lon="86.783968">
        <ele>4003.8</ele>
        <time>2022-10-28T06:54:04.000Z</time>
      </trkpt>
      <trkpt lat="27.85489" lon="86.783949">
        <ele>4003</ele>
        <time>2022-10-28T06:54:06.000Z</time>
      </trkpt>
      <trkpt lat="27.854877" lon="86.78393">
        <ele>4002.8</ele>
        <time>2022-10-28T06:54:08.000Z</time>
      </trkpt>
      <trkpt lat="27.854867" lon="86.78391">
        <ele>4002.8</ele>
        <time>2022-10-28T06:54:09.000Z</time>
      </trkpt>
      <trkpt lat="27.854851" lon="86.783898">
        <ele>4003.6</ele>
        <time>2022-10-28T06:54:11.000Z</time>
      </trkpt>
      <trkpt lat="27.854838" lon="86.783872">
        <ele>4003.2</ele>
        <time>2022-10-28T06:54:13.000Z</time>
      </trkpt>
      <trkpt lat="27.854813" lon="86.783859">
        <ele>4003.2</ele>
        <time>2022-10-28T06:54:16.000Z</time>
      </trkpt>
      <trkpt lat="27.85479" lon="86.783859">
        <ele>4003.2</ele>
        <time>2022-10-28T06:54:18.000Z</time>
      </trkpt>
      <trkpt lat="27.854771" lon="86.783853">
        <ele>4003.6</ele>
        <time>2022-10-28T06:54:20.000Z</time>
      </trkpt>
      <trkpt lat="27.854752" lon="86.783834">
        <ele>4003.6</ele>
        <time>2022-10-28T06:54:22.000Z</time>
      </trkpt>
      <trkpt lat="27.854726" lon="86.783821">
        <ele>4003.6</ele>
        <time>2022-10-28T06:54:25.000Z</time>
      </trkpt>
      <trkpt lat="27.854707" lon="86.783808">
        <ele>4003.6</ele>
        <time>2022-10-28T06:54:27.000Z</time>
      </trkpt>
      <trkpt lat="27.854688" lon="86.783789">
        <ele>4003.8</ele>
        <time>2022-10-28T06:54:29.000Z</time>
      </trkpt>
      <trkpt lat="27.854666" lon="86.783782">
        <ele>4003.6</ele>
        <time>2022-10-28T06:54:31.000Z</time>
      </trkpt>
      <trkpt lat="27.854643" lon="86.78377">
        <ele>4003.6</ele>
        <time>2022-10-28T06:54:33.000Z</time>
      </trkpt>
      <trkpt lat="27.854634" lon="86.78375">
        <ele>4003.6</ele>
        <time>2022-10-28T06:54:35.000Z</time>
      </trkpt>
      <trkpt lat="27.854614" lon="86.783738">
        <ele>4003.6</ele>
        <time>2022-10-28T06:54:37.000Z</time>
      </trkpt>
      <trkpt lat="27.854598" lon="86.783725">
        <ele>4003.2</ele>
        <time>2022-10-28T06:54:39.000Z</time>
      </trkpt>
      <trkpt lat="27.854579" lon="86.783706">
        <ele>4003</ele>
        <time>2022-10-28T06:54:41.000Z</time>
      </trkpt>
      <trkpt lat="27.85456" lon="86.783693">
        <ele>4003.2</ele>
        <time>2022-10-28T06:54:43.000Z</time>
      </trkpt>
      <trkpt lat="27.85455" lon="86.783674">
        <ele>4003.6</ele>
        <time>2022-10-28T06:54:45.000Z</time>
      </trkpt>
      <trkpt lat="27.854531" lon="86.783661">
        <ele>4003.8</ele>
        <time>2022-10-28T06:54:47.000Z</time>
      </trkpt>
      <trkpt lat="27.854512" lon="86.783654">
        <ele>4003</ele>
        <time>2022-10-28T06:54:49.000Z</time>
      </trkpt>
      <trkpt lat="27.854493" lon="86.783635">
        <ele>4003</ele>
        <time>2022-10-28T06:54:51.000Z</time>
      </trkpt>
      <trkpt lat="27.854474" lon="86.783629">
        <ele>4003.2</ele>
        <time>2022-10-28T06:54:53.000Z</time>
      </trkpt>
      <trkpt lat="27.854451" lon="86.783622">
        <ele>4003.6</ele>
        <time>2022-10-28T06:54:55.000Z</time>
      </trkpt>
      <trkpt lat="27.854429" lon="86.783616">
        <ele>4003.6</ele>
        <time>2022-10-28T06:54:58.000Z</time>
      </trkpt>
      <trkpt lat="27.85439" lon="86.78359">
        <ele>4003.8</ele>
        <time>2022-10-28T06:55:02.000Z</time>
      </trkpt>
      <trkpt lat="27.854368" lon="86.783584">
        <ele>4003.4</ele>
        <time>2022-10-28T06:55:04.000Z</time>
      </trkpt>
      <trkpt lat="27.854349" lon="86.783578">
        <ele>4003.8</ele>
        <time>2022-10-28T06:55:06.000Z</time>
      </trkpt>
      <trkpt lat="27.85433" lon="86.783578">
        <ele>4003.2</ele>
        <time>2022-10-28T06:55:09.000Z</time>
      </trkpt>
      <trkpt lat="27.854288" lon="86.783552">
        <ele>4003.2</ele>
        <time>2022-10-28T06:55:15.000Z</time>
      </trkpt>
      <trkpt lat="27.854272" lon="86.783539">
        <ele>4003</ele>
        <time>2022-10-28T06:55:17.000Z</time>
      </trkpt>
      <trkpt lat="27.85425" lon="86.783526">
        <ele>4003.4</ele>
        <time>2022-10-28T06:55:20.000Z</time>
      </trkpt>
      <trkpt lat="27.854234" lon="86.783507">
        <ele>4003.4</ele>
        <time>2022-10-28T06:55:22.000Z</time>
      </trkpt>
      <trkpt lat="27.854211" lon="86.783488">
        <ele>4003.2</ele>
        <time>2022-10-28T06:55:25.000Z</time>
      </trkpt>
      <trkpt lat="27.854192" lon="86.783469">
        <ele>4003.8</ele>
        <time>2022-10-28T06:55:27.000Z</time>
      </trkpt>
      <trkpt lat="27.854173" lon="86.783462">
        <ele>4004.2</ele>
        <time>2022-10-28T06:55:29.000Z</time>
      </trkpt>
      <trkpt lat="27.854154" lon="86.783456">
        <ele>4004.2</ele>
        <time>2022-10-28T06:55:31.000Z</time>
      </trkpt>
      <trkpt lat="27.854144" lon="86.783437">
        <ele>4004</ele>
        <time>2022-10-28T06:55:32.000Z</time>
      </trkpt>
      <trkpt lat="27.854134" lon="86.783418">
        <ele>4003.6</ele>
        <time>2022-10-28T06:55:34.000Z</time>
      </trkpt>
      <trkpt lat="27.854125" lon="86.783392">
        <ele>4004.6</ele>
        <time>2022-10-28T06:55:36.000Z</time>
      </trkpt>
      <trkpt lat="27.854115" lon="86.783373">
        <ele>4004.8</ele>
        <time>2022-10-28T06:55:38.000Z</time>
      </trkpt>
      <trkpt lat="27.854106" lon="86.783354">
        <ele>4004.8</ele>
        <time>2022-10-28T06:55:40.000Z</time>
      </trkpt>
      <trkpt lat="27.854093" lon="86.783334">
        <ele>4004.6</ele>
        <time>2022-10-28T06:55:42.000Z</time>
      </trkpt>
      <trkpt lat="27.854083" lon="86.783315">
        <ele>4004.6</ele>
        <time>2022-10-28T06:55:44.000Z</time>
      </trkpt>
      <trkpt lat="27.854074" lon="86.783296">
        <ele>4004.6</ele>
        <time>2022-10-28T06:55:46.000Z</time>
      </trkpt>
      <trkpt lat="27.854061" lon="86.783277">
        <ele>4004.8</ele>
        <time>2022-10-28T06:55:48.000Z</time>
      </trkpt>
      <trkpt lat="27.854054" lon="86.783258">
        <ele>4005</ele>
        <time>2022-10-28T06:55:51.000Z</time>
      </trkpt>
      <trkpt lat="27.854048" lon="86.783232">
        <ele>4005.6</ele>
        <time>2022-10-28T06:55:53.000Z</time>
      </trkpt>
      <trkpt lat="27.854038" lon="86.7832">
        <ele>4006</ele>
        <time>2022-10-28T06:55:56.000Z</time>
      </trkpt>
      <trkpt lat="27.854032" lon="86.783181">
        <ele>4006.4</ele>
        <time>2022-10-28T06:55:59.000Z</time>
      </trkpt>
      <trkpt lat="27.854016" lon="86.783168">
        <ele>4006.2</ele>
        <time>2022-10-28T06:56:01.000Z</time>
      </trkpt>
      <trkpt lat="27.854006" lon="86.783149">
        <ele>4006</ele>
        <time>2022-10-28T06:56:03.000Z</time>
      </trkpt>
      <trkpt lat="27.853994" lon="86.78313">
        <ele>4006.2</ele>
        <time>2022-10-28T06:56:05.000Z</time>
      </trkpt>
      <trkpt lat="27.853978" lon="86.783117">
        <ele>4006.8</ele>
        <time>2022-10-28T06:56:07.000Z</time>
      </trkpt>
      <trkpt lat="27.853952" lon="86.783104">
        <ele>4006.8</ele>
        <time>2022-10-28T06:56:10.000Z</time>
      </trkpt>
      <trkpt lat="27.85393" lon="86.783091">
        <ele>4007.2</ele>
        <time>2022-10-28T06:56:13.000Z</time>
      </trkpt>
      <trkpt lat="27.853914" lon="86.783078">
        <ele>4007.4</ele>
        <time>2022-10-28T06:56:15.000Z</time>
      </trkpt>
      <trkpt lat="27.853894" lon="86.783066">
        <ele>4007.2</ele>
        <time>2022-10-28T06:56:18.000Z</time>
      </trkpt>
      <trkpt lat="27.853875" lon="86.783053">
        <ele>4007.2</ele>
        <time>2022-10-28T06:56:20.000Z</time>
      </trkpt>
      <trkpt lat="27.85385" lon="86.783034">
        <ele>4007</ele>
        <time>2022-10-28T06:56:23.000Z</time>
      </trkpt>
      <trkpt lat="27.853824" lon="86.783021">
        <ele>4008</ele>
        <time>2022-10-28T06:56:26.000Z</time>
      </trkpt>
      <trkpt lat="27.853805" lon="86.783014">
        <ele>4008</ele>
        <time>2022-10-28T06:56:28.000Z</time>
      </trkpt>
      <trkpt lat="27.853786" lon="86.783014">
        <ele>4009.2</ele>
        <time>2022-10-28T06:56:30.000Z</time>
      </trkpt>
      <trkpt lat="27.853766" lon="86.783002">
        <ele>4009.2</ele>
        <time>2022-10-28T06:56:32.000Z</time>
      </trkpt>
      <trkpt lat="27.853747" lon="86.782995">
        <ele>4009</ele>
        <time>2022-10-28T06:56:34.000Z</time>
      </trkpt>
      <trkpt lat="27.853728" lon="86.782989">
        <ele>4009</ele>
        <time>2022-10-28T06:56:36.000Z</time>
      </trkpt>
      <trkpt lat="27.853709" lon="86.782976">
        <ele>4008.6</ele>
        <time>2022-10-28T06:56:38.000Z</time>
      </trkpt>
      <trkpt lat="27.85369" lon="86.782957">
        <ele>4009</ele>
        <time>2022-10-28T06:56:41.000Z</time>
      </trkpt>
      <trkpt lat="27.853677" lon="86.782938">
        <ele>4009.4</ele>
        <time>2022-10-28T06:56:44.000Z</time>
      </trkpt>
      <trkpt lat="27.853664" lon="86.782918">
        <ele>4009.4</ele>
        <time>2022-10-28T06:56:46.000Z</time>
      </trkpt>
      <trkpt lat="27.853648" lon="86.782899">
        <ele>4010.4</ele>
        <time>2022-10-28T06:56:49.000Z</time>
      </trkpt>
      <trkpt lat="27.853638" lon="86.78288">
        <ele>4010.6</ele>
        <time>2022-10-28T06:56:52.000Z</time>
      </trkpt>
      <trkpt lat="27.853626" lon="86.782861">
        <ele>4011.4</ele>
        <time>2022-10-28T06:56:55.000Z</time>
      </trkpt>
      <trkpt lat="27.853619" lon="86.782842">
        <ele>4011.4</ele>
        <time>2022-10-28T06:56:57.000Z</time>
      </trkpt>
      <trkpt lat="27.85361" lon="86.782822">
        <ele>4011.4</ele>
        <time>2022-10-28T06:57:00.000Z</time>
      </trkpt>
      <trkpt lat="27.853606" lon="86.782797">
        <ele>4011.6</ele>
        <time>2022-10-28T06:57:02.000Z</time>
      </trkpt>
      <trkpt lat="27.8536" lon="86.782778">
        <ele>4011.6</ele>
        <time>2022-10-28T06:57:04.000Z</time>
      </trkpt>
      <trkpt lat="27.853597" lon="86.782752">
        <ele>4011.8</ele>
        <time>2022-10-28T06:57:06.000Z</time>
      </trkpt>
      <trkpt lat="27.853584" lon="86.782733">
        <ele>4011.8</ele>
        <time>2022-10-28T06:57:09.000Z</time>
      </trkpt>
      <trkpt lat="27.853574" lon="86.782707">
        <ele>4011.8</ele>
        <time>2022-10-28T06:57:11.000Z</time>
      </trkpt>
      <trkpt lat="27.853558" lon="86.782682">
        <ele>4011.8</ele>
        <time>2022-10-28T06:57:14.000Z</time>
      </trkpt>
      <trkpt lat="27.853536" lon="86.782669">
        <ele>4011.8</ele>
        <time>2022-10-28T06:57:17.000Z</time>
      </trkpt>
      <trkpt lat="27.85352" lon="86.782656">
        <ele>4012.4</ele>
        <time>2022-10-28T06:57:19.000Z</time>
      </trkpt>
      <trkpt lat="27.853507" lon="86.782637">
        <ele>4012.4</ele>
        <time>2022-10-28T06:57:21.000Z</time>
      </trkpt>
      <trkpt lat="27.853491" lon="86.782624">
        <ele>4012.6</ele>
        <time>2022-10-28T06:57:24.000Z</time>
      </trkpt>
      <trkpt lat="27.853472" lon="86.782611">
        <ele>4012.8</ele>
        <time>2022-10-28T06:57:27.000Z</time>
      </trkpt>
      <trkpt lat="27.853466" lon="86.782592">
        <ele>4012.8</ele>
        <time>2022-10-28T06:57:28.000Z</time>
      </trkpt>
      <trkpt lat="27.85345" lon="86.782573">
        <ele>4012.6</ele>
        <time>2022-10-28T06:57:31.000Z</time>
      </trkpt>
      <trkpt lat="27.853437" lon="86.782554">
        <ele>4012.8</ele>
        <time>2022-10-28T06:57:33.000Z</time>
      </trkpt>
      <trkpt lat="27.853424" lon="86.782534">
        <ele>4013</ele>
        <time>2022-10-28T06:57:35.000Z</time>
      </trkpt>
      <trkpt lat="27.853418" lon="86.782509">
        <ele>4013.2</ele>
        <time>2022-10-28T06:57:37.000Z</time>
      </trkpt>
      <trkpt lat="27.853402" lon="86.782496">
        <ele>4013.4</ele>
        <time>2022-10-28T06:57:41.000Z</time>
      </trkpt>
      <trkpt lat="27.853392" lon="86.782477">
        <ele>4014</ele>
        <time>2022-10-28T06:57:43.000Z</time>
      </trkpt>
      <trkpt lat="27.853379" lon="86.782458">
        <ele>4014</ele>
        <time>2022-10-28T06:57:45.000Z</time>
      </trkpt>
      <trkpt lat="27.85337" lon="86.782438">
        <ele>4014</ele>
        <time>2022-10-28T06:57:47.000Z</time>
      </trkpt>
      <trkpt lat="27.853354" lon="86.782413">
        <ele>4014</ele>
        <time>2022-10-28T06:57:50.000Z</time>
      </trkpt>
      <trkpt lat="27.853341" lon="86.782394">
        <ele>4014</ele>
        <time>2022-10-28T06:57:52.000Z</time>
      </trkpt>
      <trkpt lat="27.853318" lon="86.782374">
        <ele>4014.4</ele>
        <time>2022-10-28T06:57:56.000Z</time>
      </trkpt>
      <trkpt lat="27.853306" lon="86.782349">
        <ele>4014.6</ele>
        <time>2022-10-28T06:58:17.000Z</time>
      </trkpt>
      <trkpt lat="27.853299" lon="86.782317">
        <ele>4014.8</ele>
        <time>2022-10-28T06:58:19.000Z</time>
      </trkpt>
      <trkpt lat="27.85329" lon="86.782298">
        <ele>4014.8</ele>
        <time>2022-10-28T06:58:21.000Z</time>
      </trkpt>
      <trkpt lat="27.853277" lon="86.782272">
        <ele>4015.2</ele>
        <time>2022-10-28T06:58:23.000Z</time>
      </trkpt>
      <trkpt lat="27.853258" lon="86.78224">
        <ele>4015.4</ele>
        <time>2022-10-28T06:58:25.000Z</time>
      </trkpt>
      <trkpt lat="27.853242" lon="86.782227">
        <ele>4014.8</ele>
        <time>2022-10-28T06:58:28.000Z</time>
      </trkpt>
      <trkpt lat="27.853226" lon="86.782202">
        <ele>4015.4</ele>
        <time>2022-10-28T06:58:35.000Z</time>
      </trkpt>
      <trkpt lat="27.853213" lon="86.782182">
        <ele>4015</ele>
        <time>2022-10-28T06:58:37.000Z</time>
      </trkpt>
      <trkpt lat="27.853203" lon="86.782163">
        <ele>4015.4</ele>
        <time>2022-10-28T06:58:39.000Z</time>
      </trkpt>
      <trkpt lat="27.853187" lon="86.782144">
        <ele>4015.4</ele>
        <time>2022-10-28T06:58:42.000Z</time>
      </trkpt>
      <trkpt lat="27.853178" lon="86.782118">
        <ele>4015.8</ele>
        <time>2022-10-28T06:58:44.000Z</time>
      </trkpt>
      <trkpt lat="27.853165" lon="86.782099">
        <ele>4015.8</ele>
        <time>2022-10-28T06:58:47.000Z</time>
      </trkpt>
      <trkpt lat="27.853158" lon="86.782074">
        <ele>4015.2</ele>
        <time>2022-10-28T06:58:49.000Z</time>
      </trkpt>
      <trkpt lat="27.853149" lon="86.782048">
        <ele>4016.6</ele>
        <time>2022-10-28T06:58:52.000Z</time>
      </trkpt>
      <trkpt lat="27.853142" lon="86.782029">
        <ele>4015.8</ele>
        <time>2022-10-28T06:58:54.000Z</time>
      </trkpt>
      <trkpt lat="27.853133" lon="86.782003">
        <ele>4016.6</ele>
        <time>2022-10-28T06:58:58.000Z</time>
      </trkpt>
      <trkpt lat="27.85312" lon="86.781984">
        <ele>4016.8</ele>
        <time>2022-10-28T06:59:01.000Z</time>
      </trkpt>
      <trkpt lat="27.85311" lon="86.781958">
        <ele>4016.8</ele>
        <time>2022-10-28T06:59:03.000Z</time>
      </trkpt>
      <trkpt lat="27.853104" lon="86.78192">
        <ele>4017.6</ele>
        <time>2022-10-28T06:59:07.000Z</time>
      </trkpt>
      <trkpt lat="27.853098" lon="86.781901">
        <ele>4017.8</ele>
        <time>2022-10-28T06:59:10.000Z</time>
      </trkpt>
      <trkpt lat="27.853094" lon="86.781875">
        <ele>4018</ele>
        <time>2022-10-28T06:59:12.000Z</time>
      </trkpt>
      <trkpt lat="27.853088" lon="86.78185">
        <ele>4017.8</ele>
        <time>2022-10-28T06:59:14.000Z</time>
      </trkpt>
      <trkpt lat="27.853082" lon="86.78183">
        <ele>4018.2</ele>
        <time>2022-10-28T06:59:16.000Z</time>
      </trkpt>
      <trkpt lat="27.853082" lon="86.781805">
        <ele>4018</ele>
        <time>2022-10-28T06:59:18.000Z</time>
      </trkpt>
      <trkpt lat="27.853078" lon="86.781779">
        <ele>4019</ele>
        <time>2022-10-28T06:59:22.000Z</time>
      </trkpt>
      <trkpt lat="27.853078" lon="86.781754">
        <ele>4019.4</ele>
        <time>2022-10-28T06:59:27.000Z</time>
      </trkpt>
      <trkpt lat="27.853062" lon="86.781741">
        <ele>4019</ele>
        <time>2022-10-28T06:59:30.000Z</time>
      </trkpt>
      <trkpt lat="27.853056" lon="86.781709">
        <ele>4019</ele>
        <time>2022-10-28T06:59:33.000Z</time>
      </trkpt>
      <trkpt lat="27.853053" lon="86.781683">
        <ele>4019</ele>
        <time>2022-10-28T06:59:36.000Z</time>
      </trkpt>
      <trkpt lat="27.853053" lon="86.781651">
        <ele>4020.6</ele>
        <time>2022-10-28T06:59:41.000Z</time>
      </trkpt>
      <trkpt lat="27.853062" lon="86.781632">
        <ele>4020.6</ele>
        <time>2022-10-28T06:59:44.000Z</time>
      </trkpt>
      <trkpt lat="27.853066" lon="86.781606">
        <ele>4020.8</ele>
        <time>2022-10-28T06:59:48.000Z</time>
      </trkpt>
      <trkpt lat="27.853069" lon="86.781581">
        <ele>4022.6</ele>
        <time>2022-10-28T07:00:01.000Z</time>
      </trkpt>
      <trkpt lat="27.853069" lon="86.781555">
        <ele>4022.8</ele>
        <time>2022-10-28T07:00:03.000Z</time>
      </trkpt>
      <trkpt lat="27.853066" lon="86.78153">
        <ele>4021.4</ele>
        <time>2022-10-28T07:00:05.000Z</time>
      </trkpt>
      <trkpt lat="27.853062" lon="86.781491">
        <ele>4021.4</ele>
        <time>2022-10-28T07:00:08.000Z</time>
      </trkpt>
      <trkpt lat="27.853053" lon="86.781466">
        <ele>4019.8</ele>
        <time>2022-10-28T07:00:11.000Z</time>
      </trkpt>
      <trkpt lat="27.853046" lon="86.78144">
        <ele>4019.4</ele>
        <time>2022-10-28T07:00:13.000Z</time>
      </trkpt>
      <trkpt lat="27.853034" lon="86.781408">
        <ele>4019</ele>
        <time>2022-10-28T07:00:16.000Z</time>
      </trkpt>
      <trkpt lat="27.853024" lon="86.781389">
        <ele>4019.8</ele>
        <time>2022-10-28T07:00:18.000Z</time>
      </trkpt>
      <trkpt lat="27.853014" lon="86.78137">
        <ele>4019.6</ele>
        <time>2022-10-28T07:00:20.000Z</time>
      </trkpt>
      <trkpt lat="27.853008" lon="86.78135">
        <ele>4020</ele>
        <time>2022-10-28T07:00:22.000Z</time>
      </trkpt>
      <trkpt lat="27.853014" lon="86.781318">
        <ele>4019.8</ele>
        <time>2022-10-28T07:01:12.000Z</time>
      </trkpt>
      <trkpt lat="27.853011" lon="86.781286">
        <ele>4020.2</ele>
        <time>2022-10-28T07:01:14.000Z</time>
      </trkpt>
      <trkpt lat="27.853008" lon="86.781261">
        <ele>4020.2</ele>
        <time>2022-10-28T07:01:16.000Z</time>
      </trkpt>
      <trkpt lat="27.853005" lon="86.781229">
        <ele>4020.8</ele>
        <time>2022-10-28T07:01:18.000Z</time>
      </trkpt>
      <trkpt lat="27.852998" lon="86.781197">
        <ele>4021</ele>
        <time>2022-10-28T07:01:20.000Z</time>
      </trkpt>
      <trkpt lat="27.852998" lon="86.781171">
        <ele>4020.8</ele>
        <time>2022-10-28T07:01:22.000Z</time>
      </trkpt>
      <trkpt lat="27.853002" lon="86.781146">
        <ele>4021.6</ele>
        <time>2022-10-28T07:01:26.000Z</time>
      </trkpt>
      <trkpt lat="27.853002" lon="86.78112">
        <ele>4022.2</ele>
        <time>2022-10-28T07:01:29.000Z</time>
      </trkpt>
      <trkpt lat="27.853008" lon="86.781094">
        <ele>4022.4</ele>
        <time>2022-10-28T07:01:32.000Z</time>
      </trkpt>
      <trkpt lat="27.853014" lon="86.781075">
        <ele>4022.4</ele>
        <time>2022-10-28T07:01:35.000Z</time>
      </trkpt>
      <trkpt lat="27.853014" lon="86.78105">
        <ele>4023.8</ele>
        <time>2022-10-28T07:01:38.000Z</time>
      </trkpt>
      <trkpt lat="27.853024" lon="86.78103">
        <ele>4024.2</ele>
        <time>2022-10-28T07:01:42.000Z</time>
      </trkpt>
      <trkpt lat="27.853027" lon="86.781005">
        <ele>4025</ele>
        <time>2022-10-28T07:01:45.000Z</time>
      </trkpt>
      <trkpt lat="27.85303" lon="86.780973">
        <ele>4025</ele>
        <time>2022-10-28T07:01:49.000Z</time>
      </trkpt>
      <trkpt lat="27.853024" lon="86.780954">
        <ele>4024.8</ele>
        <time>2022-10-28T07:01:52.000Z</time>
      </trkpt>
      <trkpt lat="27.853024" lon="86.780928">
        <ele>4024.4</ele>
        <time>2022-10-28T07:01:56.000Z</time>
      </trkpt>
      <trkpt lat="27.85303" lon="86.780896">
        <ele>4025.4</ele>
        <time>2022-10-28T07:02:00.000Z</time>
      </trkpt>
      <trkpt lat="27.85303" lon="86.78087">
        <ele>4025.6</ele>
        <time>2022-10-28T07:02:03.000Z</time>
      </trkpt>
      <trkpt lat="27.853024" lon="86.780845">
        <ele>4025.4</ele>
        <time>2022-10-28T07:02:05.000Z</time>
      </trkpt>
      <trkpt lat="27.853021" lon="86.780813">
        <ele>4025.2</ele>
        <time>2022-10-28T07:02:08.000Z</time>
      </trkpt>
      <trkpt lat="27.853011" lon="86.780794">
        <ele>4025</ele>
        <time>2022-10-28T07:02:10.000Z</time>
      </trkpt>
      <trkpt lat="27.852998" lon="86.780774">
        <ele>4024</ele>
        <time>2022-10-28T07:02:12.000Z</time>
      </trkpt>
      <trkpt lat="27.852989" lon="86.780755">
        <ele>4024</ele>
        <time>2022-10-28T07:02:14.000Z</time>
      </trkpt>
      <trkpt lat="27.852979" lon="86.78073">
        <ele>4023.2</ele>
        <time>2022-10-28T07:02:16.000Z</time>
      </trkpt>
      <trkpt lat="27.852966" lon="86.78071">
        <ele>4023.4</ele>
        <time>2022-10-28T07:02:19.000Z</time>
      </trkpt>
      <trkpt lat="27.85296" lon="86.780691">
        <ele>4023.4</ele>
        <time>2022-10-28T07:02:20.000Z</time>
      </trkpt>
      <trkpt lat="27.85295" lon="86.780672">
        <ele>4025.6</ele>
        <time>2022-10-28T07:02:34.000Z</time>
      </trkpt>
      <trkpt lat="27.852944" lon="86.780653">
        <ele>4025.4</ele>
        <time>2022-10-28T07:02:36.000Z</time>
      </trkpt>
      <trkpt lat="27.852934" lon="86.780627">
        <ele>4022.2</ele>
        <time>2022-10-28T07:02:39.000Z</time>
      </trkpt>
      <trkpt lat="27.852934" lon="86.780602">
        <ele>4022.6</ele>
        <time>2022-10-28T07:02:41.000Z</time>
      </trkpt>
      <trkpt lat="27.852931" lon="86.780576">
        <ele>4022</ele>
        <time>2022-10-28T07:02:43.000Z</time>
      </trkpt>
      <trkpt lat="27.852931" lon="86.78055">
        <ele>4022.2</ele>
        <time>2022-10-28T07:02:46.000Z</time>
      </trkpt>
      <trkpt lat="27.852925" lon="86.780531">
        <ele>4022.4</ele>
        <time>2022-10-28T07:02:56.000Z</time>
      </trkpt>
      <trkpt lat="27.852915" lon="86.780493">
        <ele>4021.2</ele>
        <time>2022-10-28T07:03:01.000Z</time>
      </trkpt>
      <trkpt lat="27.852909" lon="86.780474">
        <ele>4021.4</ele>
        <time>2022-10-28T07:03:03.000Z</time>
      </trkpt>
      <trkpt lat="27.852909" lon="86.780442">
        <ele>4021</ele>
        <time>2022-10-28T07:03:06.000Z</time>
      </trkpt>
      <trkpt lat="27.852925" lon="86.780416">
        <ele>4020</ele>
        <time>2022-10-28T07:03:09.000Z</time>
      </trkpt>
      <trkpt lat="27.852931" lon="86.78039">
        <ele>4020.6</ele>
        <time>2022-10-28T07:03:12.000Z</time>
      </trkpt>
      <trkpt lat="27.852934" lon="86.780358">
        <ele>4021</ele>
        <time>2022-10-28T07:03:15.000Z</time>
      </trkpt>
      <trkpt lat="27.852934" lon="86.780333">
        <ele>4021.4</ele>
        <time>2022-10-28T07:03:18.000Z</time>
      </trkpt>
      <trkpt lat="27.852928" lon="86.780314">
        <ele>4021.6</ele>
        <time>2022-10-28T07:03:20.000Z</time>
      </trkpt>
      <trkpt lat="27.852925" lon="86.780288">
        <ele>4021.8</ele>
        <time>2022-10-28T07:03:22.000Z</time>
      </trkpt>
      <trkpt lat="27.852915" lon="86.780269">
        <ele>4022.2</ele>
        <time>2022-10-28T07:03:25.000Z</time>
      </trkpt>
      <trkpt lat="27.852906" lon="86.78025">
        <ele>4021.6</ele>
        <time>2022-10-28T07:03:27.000Z</time>
      </trkpt>
      <trkpt lat="27.85289" lon="86.78023">
        <ele>4021</ele>
        <time>2022-10-28T07:03:30.000Z</time>
      </trkpt>
      <trkpt lat="27.852877" lon="86.780211">
        <ele>4021</ele>
        <time>2022-10-28T07:03:32.000Z</time>
      </trkpt>
      <trkpt lat="27.852858" lon="86.780198">
        <ele>4021</ele>
        <time>2022-10-28T07:03:35.000Z</time>
      </trkpt>
      <trkpt lat="27.852842" lon="86.780179">
        <ele>4021.2</ele>
        <time>2022-10-28T07:03:37.000Z</time>
      </trkpt>
      <trkpt lat="27.852822" lon="86.78016">
        <ele>4021.8</ele>
        <time>2022-10-28T07:03:40.000Z</time>
      </trkpt>
      <trkpt lat="27.852813" lon="86.780141">
        <ele>4022</ele>
        <time>2022-10-28T07:03:42.000Z</time>
      </trkpt>
      <trkpt lat="27.852813" lon="86.780102">
        <ele>4022.2</ele>
        <time>2022-10-28T07:04:05.000Z</time>
      </trkpt>
      <trkpt lat="27.852806" lon="86.780077">
        <ele>4022</ele>
        <time>2022-10-28T07:04:07.000Z</time>
      </trkpt>
      <trkpt lat="27.852803" lon="86.780045">
        <ele>4022</ele>
        <time>2022-10-28T07:04:09.000Z</time>
      </trkpt>
      <trkpt lat="27.852803" lon="86.780013">
        <ele>4022</ele>
        <time>2022-10-28T07:04:11.000Z</time>
      </trkpt>
      <trkpt lat="27.852803" lon="86.779981">
        <ele>4021.6</ele>
        <time>2022-10-28T07:04:14.000Z</time>
      </trkpt>
      <trkpt lat="27.852803" lon="86.779942">
        <ele>4020.6</ele>
        <time>2022-10-28T07:04:17.000Z</time>
      </trkpt>
      <trkpt lat="27.8528" lon="86.779917">
        <ele>4021</ele>
        <time>2022-10-28T07:04:20.000Z</time>
      </trkpt>
      <trkpt lat="27.8528" lon="86.779885">
        <ele>4022.2</ele>
        <time>2022-10-28T07:04:23.000Z</time>
      </trkpt>
      <trkpt lat="27.852794" lon="86.779859">
        <ele>4022.6</ele>
        <time>2022-10-28T07:04:25.000Z</time>
      </trkpt>
      <trkpt lat="27.852794" lon="86.779834">
        <ele>4022.2</ele>
        <time>2022-10-28T07:04:28.000Z</time>
      </trkpt>
      <trkpt lat="27.852794" lon="86.779808">
        <ele>4022.2</ele>
        <time>2022-10-28T07:04:30.000Z</time>
      </trkpt>
      <trkpt lat="27.852797" lon="86.779776">
        <ele>4022.2</ele>
        <time>2022-10-28T07:04:32.000Z</time>
      </trkpt>
      <trkpt lat="27.852797" lon="86.779744">
        <ele>4023.2</ele>
        <time>2022-10-28T07:04:35.000Z</time>
      </trkpt>
      <trkpt lat="27.8528" lon="86.779718">
        <ele>4023.2</ele>
        <time>2022-10-28T07:04:38.000Z</time>
      </trkpt>
      <trkpt lat="27.852806" lon="86.779693">
        <ele>4023.2</ele>
        <time>2022-10-28T07:04:40.000Z</time>
      </trkpt>
      <trkpt lat="27.852826" lon="86.779661">
        <ele>4023</ele>
        <time>2022-10-28T07:04:43.000Z</time>
      </trkpt>
      <trkpt lat="27.852832" lon="86.779642">
        <ele>4023</ele>
        <time>2022-10-28T07:04:46.000Z</time>
      </trkpt>
      <trkpt lat="27.852832" lon="86.779616">
        <ele>4023.2</ele>
        <time>2022-10-28T07:04:49.000Z</time>
      </trkpt>
      <trkpt lat="27.852832" lon="86.779584">
        <ele>4024</ele>
        <time>2022-10-28T07:04:53.000Z</time>
      </trkpt>
      <trkpt lat="27.852829" lon="86.779558">
        <ele>4024.4</ele>
        <time>2022-10-28T07:04:57.000Z</time>
      </trkpt>
      <trkpt lat="27.852835" lon="86.779533">
        <ele>4023.2</ele>
        <time>2022-10-28T07:05:05.000Z</time>
      </trkpt>
      <trkpt lat="27.852832" lon="86.779501">
        <ele>4022</ele>
        <time>2022-10-28T07:05:19.000Z</time>
      </trkpt>
      <trkpt lat="27.852832" lon="86.779475">
        <ele>4021.2</ele>
        <time>2022-10-28T07:05:21.000Z</time>
      </trkpt>
      <trkpt lat="27.852835" lon="86.779373">
        <ele>4021.4</ele>
        <time>2022-10-28T07:05:27.000Z</time>
      </trkpt>
      <trkpt lat="27.852835" lon="86.779347">
        <ele>4022</ele>
        <time>2022-10-28T07:05:29.000Z</time>
      </trkpt>
      <trkpt lat="27.852829" lon="86.779322">
        <ele>4022.2</ele>
        <time>2022-10-28T07:05:32.000Z</time>
      </trkpt>
      <trkpt lat="27.852822" lon="86.779302">
        <ele>4022.8</ele>
        <time>2022-10-28T07:05:35.000Z</time>
      </trkpt>
      <trkpt lat="27.852816" lon="86.779283">
        <ele>4022.4</ele>
        <time>2022-10-28T07:05:37.000Z</time>
      </trkpt>
      <trkpt lat="27.852813" lon="86.779258">
        <ele>4022.4</ele>
        <time>2022-10-28T07:05:39.000Z</time>
      </trkpt>
      <trkpt lat="27.852816" lon="86.779226">
        <ele>4022.8</ele>
        <time>2022-10-28T07:05:42.000Z</time>
      </trkpt>
      <trkpt lat="27.852813" lon="86.7792">
        <ele>4022.2</ele>
        <time>2022-10-28T07:05:45.000Z</time>
      </trkpt>
      <trkpt lat="27.852806" lon="86.779181">
        <ele>4022.2</ele>
        <time>2022-10-28T07:05:47.000Z</time>
      </trkpt>
      <trkpt lat="27.8528" lon="86.779162">
        <ele>4022.2</ele>
        <time>2022-10-28T07:05:49.000Z</time>
      </trkpt>
      <trkpt lat="27.852794" lon="86.779136">
        <ele>4022.2</ele>
        <time>2022-10-28T07:05:51.000Z</time>
      </trkpt>
      <trkpt lat="27.85279" lon="86.779104">
        <ele>4021.8</ele>
        <time>2022-10-28T07:05:54.000Z</time>
      </trkpt>
      <trkpt lat="27.852781" lon="86.779085">
        <ele>4021.4</ele>
        <time>2022-10-28T07:05:57.000Z</time>
      </trkpt>
      <trkpt lat="27.852778" lon="86.779059">
        <ele>4021.4</ele>
        <time>2022-10-28T07:05:59.000Z</time>
      </trkpt>
      <trkpt lat="27.852781" lon="86.779021">
        <ele>4020.4</ele>
        <time>2022-10-28T07:06:02.000Z</time>
      </trkpt>
      <trkpt lat="27.85279" lon="86.778989">
        <ele>4020</ele>
        <time>2022-10-28T07:06:05.000Z</time>
      </trkpt>
      <trkpt lat="27.852803" lon="86.778963">
        <ele>4019.4</ele>
        <time>2022-10-28T07:06:07.000Z</time>
      </trkpt>
      <trkpt lat="27.852813" lon="86.778938">
        <ele>4019</ele>
        <time>2022-10-28T07:06:09.000Z</time>
      </trkpt>
      <trkpt lat="27.852822" lon="86.778918">
        <ele>4019.2</ele>
        <time>2022-10-28T07:06:11.000Z</time>
      </trkpt>
      <trkpt lat="27.852832" lon="86.778893">
        <ele>4019.2</ele>
        <time>2022-10-28T07:06:13.000Z</time>
      </trkpt>
      <trkpt lat="27.852845" lon="86.778867">
        <ele>4019.4</ele>
        <time>2022-10-28T07:06:15.000Z</time>
      </trkpt>
      <trkpt lat="27.852864" lon="86.778848">
        <ele>4019.4</ele>
        <time>2022-10-28T07:06:18.000Z</time>
      </trkpt>
      <trkpt lat="27.85287" lon="86.778829">
        <ele>4019.4</ele>
        <time>2022-10-28T07:06:19.000Z</time>
      </trkpt>
      <trkpt lat="27.85288" lon="86.778803">
        <ele>4018.8</ele>
        <time>2022-10-28T07:06:22.000Z</time>
      </trkpt>
      <trkpt lat="27.852883" lon="86.778778">
        <ele>4018.8</ele>
        <time>2022-10-28T07:06:24.000Z</time>
      </trkpt>
      <trkpt lat="27.852883" lon="86.778752">
        <ele>4019</ele>
        <time>2022-10-28T07:06:27.000Z</time>
      </trkpt>
      <trkpt lat="27.852883" lon="86.778726">
        <ele>4019.4</ele>
        <time>2022-10-28T07:06:30.000Z</time>
      </trkpt>
      <trkpt lat="27.852883" lon="86.778701">
        <ele>4021</ele>
        <time>2022-10-28T07:06:35.000Z</time>
      </trkpt>
      <trkpt lat="27.852899" lon="86.778682">
        <ele>4021.4</ele>
        <time>2022-10-28T07:06:45.000Z</time>
      </trkpt>
      <trkpt lat="27.852915" lon="86.778669">
        <ele>4021.2</ele>
        <time>2022-10-28T07:06:51.000Z</time>
      </trkpt>
      <trkpt lat="27.852928" lon="86.778688">
        <ele>4022.2</ele>
        <time>2022-10-28T07:06:55.000Z</time>
      </trkpt>
      <trkpt lat="27.853002" lon="86.778707">
        <ele>4030</ele>
        <time>2022-10-28T07:08:56.000Z</time>
      </trkpt>
      <trkpt lat="27.853021" lon="86.778701">
        <ele>4030.4</ele>
        <time>2022-10-28T07:08:58.000Z</time>
      </trkpt>
      <trkpt lat="27.85304" lon="86.778694">
        <ele>4031</ele>
        <time>2022-10-28T07:09:00.000Z</time>
      </trkpt>
      <trkpt lat="27.853059" lon="86.778682">
        <ele>4031.4</ele>
        <time>2022-10-28T07:09:03.000Z</time>
      </trkpt>
      <trkpt lat="27.853075" lon="86.778662">
        <ele>4031.8</ele>
        <time>2022-10-28T07:09:06.000Z</time>
      </trkpt>
      <trkpt lat="27.853094" lon="86.77865">
        <ele>4032.8</ele>
        <time>2022-10-28T07:09:13.000Z</time>
      </trkpt>
      <trkpt lat="27.853136" lon="86.77863">
        <ele>4036.8</ele>
        <time>2022-10-28T07:10:12.000Z</time>
      </trkpt>
      <trkpt lat="27.853162" lon="86.778624">
        <ele>4037.2</ele>
        <time>2022-10-28T07:10:14.000Z</time>
      </trkpt>
      <trkpt lat="27.853181" lon="86.778611">
        <ele>4037.8</ele>
        <time>2022-10-28T07:10:16.000Z</time>
      </trkpt>
      <trkpt lat="27.853187" lon="86.778592">
        <ele>4038</ele>
        <time>2022-10-28T07:10:17.000Z</time>
      </trkpt>
      <trkpt lat="27.853213" lon="86.778579">
        <ele>4037.8</ele>
        <time>2022-10-28T07:10:20.000Z</time>
      </trkpt>
      <trkpt lat="27.853232" lon="86.778573">
        <ele>4036.8</ele>
        <time>2022-10-28T07:10:24.000Z</time>
      </trkpt>
      <trkpt lat="27.853251" lon="86.778566">
        <ele>4036</ele>
        <time>2022-10-28T07:10:29.000Z</time>
      </trkpt>
      <trkpt lat="27.853258" lon="86.778547">
        <ele>4035.2</ele>
        <time>2022-10-28T07:10:34.000Z</time>
      </trkpt>
      <trkpt lat="27.853242" lon="86.778534">
        <ele>4034.8</ele>
        <time>2022-10-28T07:10:37.000Z</time>
      </trkpt>
      <trkpt lat="27.853258" lon="86.778509">
        <ele>4033</ele>
        <time>2022-10-28T07:10:45.000Z</time>
      </trkpt>
      <trkpt lat="27.853274" lon="86.778496">
        <ele>4032.2</ele>
        <time>2022-10-28T07:10:49.000Z</time>
      </trkpt>
      <trkpt lat="27.853293" lon="86.77847">
        <ele>4031</ele>
        <time>2022-10-28T07:10:53.000Z</time>
      </trkpt>
      <trkpt lat="27.853312" lon="86.778464">
        <ele>4030.4</ele>
        <time>2022-10-28T07:10:56.000Z</time>
      </trkpt>
      <trkpt lat="27.853328" lon="86.778451">
        <ele>4029.8</ele>
        <time>2022-10-28T07:10:59.000Z</time>
      </trkpt>
      <trkpt lat="27.853338" lon="86.778432">
        <ele>4030</ele>
        <time>2022-10-28T07:11:01.000Z</time>
      </trkpt>
      <trkpt lat="27.853347" lon="86.778413">
        <ele>4029.8</ele>
        <time>2022-10-28T07:11:03.000Z</time>
      </trkpt>
      <trkpt lat="27.853347" lon="86.778387">
        <ele>4029</ele>
        <time>2022-10-28T07:11:04.000Z</time>
      </trkpt>
      <trkpt lat="27.85335" lon="86.778349">
        <ele>4028.8</ele>
        <time>2022-10-28T07:11:07.000Z</time>
      </trkpt>
      <trkpt lat="27.853347" lon="86.778323">
        <ele>4028.8</ele>
        <time>2022-10-28T07:11:09.000Z</time>
      </trkpt>
      <trkpt lat="27.853357" lon="86.778304">
        <ele>4028.6</ele>
        <time>2022-10-28T07:11:10.000Z</time>
      </trkpt>
      <trkpt lat="27.85337" lon="86.778272">
        <ele>4028.2</ele>
        <time>2022-10-28T07:11:13.000Z</time>
      </trkpt>
      <trkpt lat="27.853386" lon="86.778259">
        <ele>4028.2</ele>
        <time>2022-10-28T07:11:15.000Z</time>
      </trkpt>
      <trkpt lat="27.853408" lon="86.778234">
        <ele>4028.2</ele>
        <time>2022-10-28T07:11:18.000Z</time>
      </trkpt>
      <trkpt lat="27.853427" lon="86.778234">
        <ele>4029</ele>
        <time>2022-10-28T07:11:21.000Z</time>
      </trkpt>
      <trkpt lat="27.853446" lon="86.778227">
        <ele>4029.6</ele>
        <time>2022-10-28T07:11:25.000Z</time>
      </trkpt>
      <trkpt lat="27.853446" lon="86.778195">
        <ele>4030</ele>
        <time>2022-10-28T07:11:28.000Z</time>
      </trkpt>
      <trkpt lat="27.85344" lon="86.778163">
        <ele>4030.2</ele>
        <time>2022-10-28T07:11:31.000Z</time>
      </trkpt>
      <trkpt lat="27.85345" lon="86.778144">
        <ele>4030.8</ele>
        <time>2022-10-28T07:11:34.000Z</time>
      </trkpt>
      <trkpt lat="27.853446" lon="86.778112">
        <ele>4031.8</ele>
        <time>2022-10-28T07:11:40.000Z</time>
      </trkpt>
      <trkpt lat="27.85344" lon="86.778093">
        <ele>4032.2</ele>
        <time>2022-10-28T07:11:43.000Z</time>
      </trkpt>
      <trkpt lat="27.853446" lon="86.778074">
        <ele>4032.8</ele>
        <time>2022-10-28T07:11:47.000Z</time>
      </trkpt>
      <trkpt lat="27.853466" lon="86.778067">
        <ele>4033.6</ele>
        <time>2022-10-28T07:11:51.000Z</time>
      </trkpt>
      <trkpt lat="27.853485" lon="86.778061">
        <ele>4035</ele>
        <time>2022-10-28T07:11:58.000Z</time>
      </trkpt>
      <trkpt lat="27.853504" lon="86.778048">
        <ele>4035.8</ele>
        <time>2022-10-28T07:12:02.000Z</time>
      </trkpt>
      <trkpt lat="27.853526" lon="86.778035">
        <ele>4035.6</ele>
        <time>2022-10-28T07:12:05.000Z</time>
      </trkpt>
      <trkpt lat="27.853549" lon="86.778035">
        <ele>4035.6</ele>
        <time>2022-10-28T07:12:07.000Z</time>
      </trkpt>
      <trkpt lat="27.853568" lon="86.778035">
        <ele>4035.6</ele>
        <time>2022-10-28T07:12:09.000Z</time>
      </trkpt>
      <trkpt lat="27.85359" lon="86.778029">
        <ele>4035.4</ele>
        <time>2022-10-28T07:12:13.000Z</time>
      </trkpt>
      <trkpt lat="27.853606" lon="86.778016">
        <ele>4034.8</ele>
        <time>2022-10-28T07:12:19.000Z</time>
      </trkpt>
      <trkpt lat="27.853638" lon="86.778016">
        <ele>4034.6</ele>
        <time>2022-10-28T07:12:21.000Z</time>
      </trkpt>
      <trkpt lat="27.853658" lon="86.778016">
        <ele>4033.2</ele>
        <time>2022-10-28T07:12:24.000Z</time>
      </trkpt>
      <trkpt lat="27.853677" lon="86.77801">
        <ele>4032.4</ele>
        <time>2022-10-28T07:12:28.000Z</time>
      </trkpt>
      <trkpt lat="27.853674" lon="86.777984">
        <ele>4032</ele>
        <time>2022-10-28T07:12:32.000Z</time>
      </trkpt>
      <trkpt lat="27.853667" lon="86.777933">
        <ele>4032.4</ele>
        <time>2022-10-28T07:13:20.000Z</time>
      </trkpt>
      <trkpt lat="27.853664" lon="86.777901">
        <ele>4032.8</ele>
        <time>2022-10-28T07:13:25.000Z</time>
      </trkpt>
      <trkpt lat="27.853658" lon="86.777869">
        <ele>4032.2</ele>
        <time>2022-10-28T07:13:27.000Z</time>
      </trkpt>
      <trkpt lat="27.853664" lon="86.77785">
        <ele>4031.8</ele>
        <time>2022-10-28T07:13:29.000Z</time>
      </trkpt>
      <trkpt lat="27.853667" lon="86.777824">
        <ele>4031.8</ele>
        <time>2022-10-28T07:13:31.000Z</time>
      </trkpt>
      <trkpt lat="27.853677" lon="86.777798">
        <ele>4031</ele>
        <time>2022-10-28T07:13:34.000Z</time>
      </trkpt>
      <trkpt lat="27.853677" lon="86.777773">
        <ele>4030.6</ele>
        <time>2022-10-28T07:13:37.000Z</time>
      </trkpt>
      <trkpt lat="27.853686" lon="86.777747">
        <ele>4030.2</ele>
        <time>2022-10-28T07:13:39.000Z</time>
      </trkpt>
      <trkpt lat="27.85368" lon="86.777715">
        <ele>4030</ele>
        <time>2022-10-28T07:13:44.000Z</time>
      </trkpt>
      <trkpt lat="27.853674" lon="86.777747">
        <ele>4030.4</ele>
        <time>2022-10-28T07:13:50.000Z</time>
      </trkpt>
      <trkpt lat="27.85368" lon="86.777766">
        <ele>4030.4</ele>
        <time>2022-10-28T07:13:51.000Z</time>
      </trkpt>
      <trkpt lat="27.85368" lon="86.777792">
        <ele>4030.2</ele>
        <time>2022-10-28T07:13:54.000Z</time>
      </trkpt>
      <trkpt lat="27.853664" lon="86.777779">
        <ele>4030.8</ele>
        <time>2022-10-28T07:13:58.000Z</time>
      </trkpt>
      <trkpt lat="27.853661" lon="86.777747">
        <ele>4030.2</ele>
        <time>2022-10-28T07:14:01.000Z</time>
      </trkpt>
      <trkpt lat="27.853638" lon="86.777741">
        <ele>4029.8</ele>
        <time>2022-10-28T07:14:03.000Z</time>
      </trkpt>
      <trkpt lat="27.853619" lon="86.777741">
        <ele>4029.4</ele>
        <time>2022-10-28T07:14:06.000Z</time>
      </trkpt>
      <trkpt lat="27.8536" lon="86.777747">
        <ele>4029.6</ele>
        <time>2022-10-28T07:14:10.000Z</time>
      </trkpt>
      <trkpt lat="27.853578" lon="86.777741">
        <ele>4029.4</ele>
        <time>2022-10-28T07:14:34.000Z</time>
      </trkpt>
      <trkpt lat="27.853549" lon="86.777728">
        <ele>4030.2</ele>
        <time>2022-10-28T07:14:36.000Z</time>
      </trkpt>
      <trkpt lat="27.853526" lon="86.777709">
        <ele>4030.2</ele>
        <time>2022-10-28T07:14:38.000Z</time>
      </trkpt>
      <trkpt lat="27.853501" lon="86.777696">
        <ele>4031</ele>
        <time>2022-10-28T07:14:40.000Z</time>
      </trkpt>
      <trkpt lat="27.853469" lon="86.777677">
        <ele>4030.8</ele>
        <time>2022-10-28T07:14:42.000Z</time>
      </trkpt>
      <trkpt lat="27.85345" lon="86.77767">
        <ele>4030.8</ele>
        <time>2022-10-28T07:14:44.000Z</time>
      </trkpt>
      <trkpt lat="27.853427" lon="86.777664">
        <ele>4031.2</ele>
        <time>2022-10-28T07:14:47.000Z</time>
      </trkpt>
      <trkpt lat="27.853402" lon="86.77767">
        <ele>4031.6</ele>
        <time>2022-10-28T07:14:50.000Z</time>
      </trkpt>
      <trkpt lat="27.853382" lon="86.777664">
        <ele>4031.8</ele>
        <time>2022-10-28T07:14:52.000Z</time>
      </trkpt>
      <trkpt lat="27.85336" lon="86.77767">
        <ele>4031.8</ele>
        <time>2022-10-28T07:14:55.000Z</time>
      </trkpt>
      <trkpt lat="27.853341" lon="86.77767">
        <ele>4031.8</ele>
        <time>2022-10-28T07:14:57.000Z</time>
      </trkpt>
      <trkpt lat="27.853286" lon="86.777677">
        <ele>4032.6</ele>
        <time>2022-10-28T07:15:03.000Z</time>
      </trkpt>
      <trkpt lat="27.853267" lon="86.777677">
        <ele>4032.6</ele>
        <time>2022-10-28T07:15:05.000Z</time>
      </trkpt>
      <trkpt lat="27.853251" lon="86.77769">
        <ele>4032.6</ele>
        <time>2022-10-28T07:15:07.000Z</time>
      </trkpt>
      <trkpt lat="27.853229" lon="86.777677">
        <ele>4032.2</ele>
        <time>2022-10-28T07:15:09.000Z</time>
      </trkpt>
      <trkpt lat="27.85321" lon="86.777677">
        <ele>4031.8</ele>
        <time>2022-10-28T07:15:11.000Z</time>
      </trkpt>
      <trkpt lat="27.853187" lon="86.77767">
        <ele>4031.8</ele>
        <time>2022-10-28T07:15:13.000Z</time>
      </trkpt>
      <trkpt lat="27.853149" lon="86.777658">
        <ele>4032.2</ele>
        <time>2022-10-28T07:15:17.000Z</time>
      </trkpt>
      <trkpt lat="27.853123" lon="86.777658">
        <ele>4032.2</ele>
        <time>2022-10-28T07:15:20.000Z</time>
      </trkpt>
      <trkpt lat="27.853101" lon="86.777664">
        <ele>4032.6</ele>
        <time>2022-10-28T07:15:24.000Z</time>
      </trkpt>
      <trkpt lat="27.853078" lon="86.777664">
        <ele>4032.8</ele>
        <time>2022-10-28T07:15:27.000Z</time>
      </trkpt>
      <trkpt lat="27.853053" lon="86.777658">
        <ele>4032.6</ele>
        <time>2022-10-28T07:15:29.000Z</time>
      </trkpt>
      <trkpt lat="27.853027" lon="86.777651">
        <ele>4032.4</ele>
        <time>2022-10-28T07:15:32.000Z</time>
      </trkpt>
      <trkpt lat="27.853014" lon="86.777632">
        <ele>4032.4</ele>
        <time>2022-10-28T07:15:34.000Z</time>
      </trkpt>
      <trkpt lat="27.852998" lon="86.777619">
        <ele>4032.2</ele>
        <time>2022-10-28T07:15:37.000Z</time>
      </trkpt>
      <trkpt lat="27.852989" lon="86.777594">
        <ele>4032.8</ele>
        <time>2022-10-28T07:15:39.000Z</time>
      </trkpt>
      <trkpt lat="27.852973" lon="86.777568">
        <ele>4033</ele>
        <time>2022-10-28T07:15:42.000Z</time>
      </trkpt>
      <trkpt lat="27.85296" lon="86.777549">
        <ele>4033</ele>
        <time>2022-10-28T07:15:45.000Z</time>
      </trkpt>
      <trkpt lat="27.852938" lon="86.77753">
        <ele>4033.4</ele>
        <time>2022-10-28T07:15:48.000Z</time>
      </trkpt>
      <trkpt lat="27.852918" lon="86.77751">
        <ele>4032.8</ele>
        <time>2022-10-28T07:15:50.000Z</time>
      </trkpt>
      <trkpt lat="27.852899" lon="86.777498">
        <ele>4032</ele>
        <time>2022-10-28T07:15:52.000Z</time>
      </trkpt>
      <trkpt lat="27.85289" lon="86.777478">
        <ele>4032</ele>
        <time>2022-10-28T07:15:53.000Z</time>
      </trkpt>
      <trkpt lat="27.85287" lon="86.777459">
        <ele>4032.4</ele>
        <time>2022-10-28T07:15:56.000Z</time>
      </trkpt>
      <trkpt lat="27.852861" lon="86.77744">
        <ele>4032.4</ele>
        <time>2022-10-28T07:16:05.000Z</time>
      </trkpt>
      <trkpt lat="27.852835" lon="86.777427">
        <ele>4032.4</ele>
        <time>2022-10-28T07:16:21.000Z</time>
      </trkpt>
      <trkpt lat="27.85281" lon="86.777414">
        <ele>4032.4</ele>
        <time>2022-10-28T07:16:23.000Z</time>
      </trkpt>
      <trkpt lat="27.852797" lon="86.777395">
        <ele>4033.2</ele>
        <time>2022-10-28T07:16:26.000Z</time>
      </trkpt>
      <trkpt lat="27.852778" lon="86.777382">
        <ele>4033.2</ele>
        <time>2022-10-28T07:16:31.000Z</time>
      </trkpt>
      <trkpt lat="27.852755" lon="86.777376">
        <ele>4033.2</ele>
        <time>2022-10-28T07:16:33.000Z</time>
      </trkpt>
      <trkpt lat="27.852733" lon="86.777376">
        <ele>4033.2</ele>
        <time>2022-10-28T07:16:35.000Z</time>
      </trkpt>
      <trkpt lat="27.85271" lon="86.77737">
        <ele>4033</ele>
        <time>2022-10-28T07:16:37.000Z</time>
      </trkpt>
      <trkpt lat="27.852691" lon="86.77735">
        <ele>4032.8</ele>
        <time>2022-10-28T07:16:39.000Z</time>
      </trkpt>
      <trkpt lat="27.852669" lon="86.777338">
        <ele>4032.8</ele>
        <time>2022-10-28T07:16:41.000Z</time>
      </trkpt>
      <trkpt lat="27.852646" lon="86.777318">
        <ele>4032.8</ele>
        <time>2022-10-28T07:16:43.000Z</time>
      </trkpt>
      <trkpt lat="27.852624" lon="86.777312">
        <ele>4032.8</ele>
        <time>2022-10-28T07:16:45.000Z</time>
      </trkpt>
      <trkpt lat="27.852608" lon="86.777299">
        <ele>4032.8</ele>
        <time>2022-10-28T07:16:47.000Z</time>
      </trkpt>
      <trkpt lat="27.852595" lon="86.77728">
        <ele>4032.8</ele>
        <time>2022-10-28T07:16:49.000Z</time>
      </trkpt>
      <trkpt lat="27.852573" lon="86.777274">
        <ele>4032.8</ele>
        <time>2022-10-28T07:16:52.000Z</time>
      </trkpt>
      <trkpt lat="27.852554" lon="86.777261">
        <ele>4033.2</ele>
        <time>2022-10-28T07:16:54.000Z</time>
      </trkpt>
      <trkpt lat="27.852534" lon="86.777254">
        <ele>4033</ele>
        <time>2022-10-28T07:16:56.000Z</time>
      </trkpt>
      <trkpt lat="27.852528" lon="86.777235">
        <ele>4033</ele>
        <time>2022-10-28T07:16:57.000Z</time>
      </trkpt>
      <trkpt lat="27.852512" lon="86.777222">
        <ele>4032.8</ele>
        <time>2022-10-28T07:16:59.000Z</time>
      </trkpt>
      <trkpt lat="27.852496" lon="86.777197">
        <ele>4033</ele>
        <time>2022-10-28T07:17:02.000Z</time>
      </trkpt>
      <trkpt lat="27.852474" lon="86.777184">
        <ele>4034.2</ele>
        <time>2022-10-28T07:17:05.000Z</time>
      </trkpt>
      <trkpt lat="27.852454" lon="86.777171">
        <ele>4034</ele>
        <time>2022-10-28T07:17:08.000Z</time>
      </trkpt>
      <trkpt lat="27.852445" lon="86.777146">
        <ele>4034.4</ele>
        <time>2022-10-28T07:17:10.000Z</time>
      </trkpt>
      <trkpt lat="27.852429" lon="86.777133">
        <ele>4034.6</ele>
        <time>2022-10-28T07:17:12.000Z</time>
      </trkpt>
      <trkpt lat="27.852419" lon="86.777114">
        <ele>4035.2</ele>
        <time>2022-10-28T07:17:14.000Z</time>
      </trkpt>
      <trkpt lat="27.852397" lon="86.777101">
        <ele>4035.6</ele>
        <time>2022-10-28T07:17:17.000Z</time>
      </trkpt>
      <trkpt lat="27.852384" lon="86.777075">
        <ele>4035.4</ele>
        <time>2022-10-28T07:17:19.000Z</time>
      </trkpt>
      <trkpt lat="27.852368" lon="86.777062">
        <ele>4036.2</ele>
        <time>2022-10-28T07:17:23.000Z</time>
      </trkpt>
      <trkpt lat="27.852365" lon="86.777037">
        <ele>4036.8</ele>
        <time>2022-10-28T07:17:28.000Z</time>
      </trkpt>
      <trkpt lat="27.852365" lon="86.777011">
        <ele>4037.8</ele>
        <time>2022-10-28T07:17:50.000Z</time>
      </trkpt>
      <trkpt lat="27.852374" lon="86.776979">
        <ele>4037.6</ele>
        <time>2022-10-28T07:17:52.000Z</time>
      </trkpt>
      <trkpt lat="27.852381" lon="86.77696">
        <ele>4037.6</ele>
        <time>2022-10-28T07:17:53.000Z</time>
      </trkpt>
      <trkpt lat="27.85239" lon="86.776922">
        <ele>4037.6</ele>
        <time>2022-10-28T07:17:55.000Z</time>
      </trkpt>
      <trkpt lat="27.852397" lon="86.776902">
        <ele>4038</ele>
        <time>2022-10-28T07:17:57.000Z</time>
      </trkpt>
      <trkpt lat="27.852406" lon="86.776883">
        <ele>4037.6</ele>
        <time>2022-10-28T07:17:59.000Z</time>
      </trkpt>
      <trkpt lat="27.852413" lon="86.776864">
        <ele>4038</ele>
        <time>2022-10-28T07:18:02.000Z</time>
      </trkpt>
      <trkpt lat="27.852422" lon="86.776845">
        <ele>4038.2</ele>
        <time>2022-10-28T07:18:06.000Z</time>
      </trkpt>
      <trkpt lat="27.852419" lon="86.776819">
        <ele>4039.2</ele>
        <time>2022-10-28T07:18:11.000Z</time>
      </trkpt>
      <trkpt lat="27.852416" lon="86.776794">
        <ele>4040</ele>
        <time>2022-10-28T07:18:15.000Z</time>
      </trkpt>
      <trkpt lat="27.852406" lon="86.776774">
        <ele>4040.8</ele>
        <time>2022-10-28T07:18:19.000Z</time>
      </trkpt>
      <trkpt lat="27.852403" lon="86.776749">
        <ele>4041</ele>
        <time>2022-10-28T07:18:22.000Z</time>
      </trkpt>
      <trkpt lat="27.852394" lon="86.776723">
        <ele>4041.4</ele>
        <time>2022-10-28T07:18:26.000Z</time>
      </trkpt>
      <trkpt lat="27.852378" lon="86.77671">
        <ele>4042.4</ele>
        <time>2022-10-28T07:18:31.000Z</time>
      </trkpt>
      <trkpt lat="27.852368" lon="86.776685">
        <ele>4043</ele>
        <time>2022-10-28T07:18:35.000Z</time>
      </trkpt>
      <trkpt lat="27.852358" lon="86.776666">
        <ele>4044</ele>
        <time>2022-10-28T07:18:37.000Z</time>
      </trkpt>
      <trkpt lat="27.852355" lon="86.77664">
        <ele>4044.2</ele>
        <time>2022-10-28T07:18:40.000Z</time>
      </trkpt>
      <trkpt lat="27.852346" lon="86.776621">
        <ele>4044.2</ele>
        <time>2022-10-28T07:18:46.000Z</time>
      </trkpt>
      <trkpt lat="27.852339" lon="86.776602">
        <ele>4043.8</ele>
        <time>2022-10-28T07:18:51.000Z</time>
      </trkpt>
      <trkpt lat="27.852317" lon="86.776595">
        <ele>4044</ele>
        <time>2022-10-28T07:18:54.000Z</time>
      </trkpt>
      <trkpt lat="27.852291" lon="86.776582">
        <ele>4044.4</ele>
        <time>2022-10-28T07:18:58.000Z</time>
      </trkpt>
      <trkpt lat="27.852278" lon="86.776563">
        <ele>4044.4</ele>
        <time>2022-10-28T07:19:00.000Z</time>
      </trkpt>
      <trkpt lat="27.852266" lon="86.776544">
        <ele>4043.8</ele>
        <time>2022-10-28T07:19:02.000Z</time>
      </trkpt>
      <trkpt lat="27.852253" lon="86.776525">
        <ele>4043.6</ele>
        <time>2022-10-28T07:19:04.000Z</time>
      </trkpt>
      <trkpt lat="27.85224" lon="86.776506">
        <ele>4043.4</ele>
        <time>2022-10-28T07:19:06.000Z</time>
      </trkpt>
      <trkpt lat="27.85223" lon="86.776486">
        <ele>4042.8</ele>
        <time>2022-10-28T07:19:08.000Z</time>
      </trkpt>
      <trkpt lat="27.852218" lon="86.776467">
        <ele>4043</ele>
        <time>2022-10-28T07:19:11.000Z</time>
      </trkpt>
      <trkpt lat="27.852211" lon="86.776442">
        <ele>4042.8</ele>
        <time>2022-10-28T07:19:13.000Z</time>
      </trkpt>
      <trkpt lat="27.852195" lon="86.776416">
        <ele>4042.8</ele>
        <time>2022-10-28T07:19:17.000Z</time>
      </trkpt>
      <trkpt lat="27.852189" lon="86.776397">
        <ele>4043.2</ele>
        <time>2022-10-28T07:19:19.000Z</time>
      </trkpt>
      <trkpt lat="27.852176" lon="86.776365">
        <ele>4043.6</ele>
        <time>2022-10-28T07:19:22.000Z</time>
      </trkpt>
      <trkpt lat="27.852166" lon="86.776346">
        <ele>4044.2</ele>
        <time>2022-10-28T07:19:25.000Z</time>
      </trkpt>
      <trkpt lat="27.852154" lon="86.776326">
        <ele>4044.4</ele>
        <time>2022-10-28T07:19:28.000Z</time>
      </trkpt>
      <trkpt lat="27.852154" lon="86.776301">
        <ele>4044</ele>
        <time>2022-10-28T07:19:31.000Z</time>
      </trkpt>
      <trkpt lat="27.85215" lon="86.776269">
        <ele>4044.2</ele>
        <time>2022-10-28T07:19:34.000Z</time>
      </trkpt>
      <trkpt lat="27.852144" lon="86.77625">
        <ele>4044</ele>
        <time>2022-10-28T07:19:36.000Z</time>
      </trkpt>
      <trkpt lat="27.852131" lon="86.77623">
        <ele>4044</ele>
        <time>2022-10-28T07:19:38.000Z</time>
      </trkpt>
      <trkpt lat="27.852125" lon="86.776198">
        <ele>4043.8</ele>
        <time>2022-10-28T07:19:40.000Z</time>
      </trkpt>
      <trkpt lat="27.852118" lon="86.77616">
        <ele>4044</ele>
        <time>2022-10-28T07:19:43.000Z</time>
      </trkpt>
      <trkpt lat="27.852118" lon="86.776122">
        <ele>4043.8</ele>
        <time>2022-10-28T07:19:46.000Z</time>
      </trkpt>
      <trkpt lat="27.852118" lon="86.77609">
        <ele>4044.2</ele>
        <time>2022-10-28T07:19:49.000Z</time>
      </trkpt>
      <trkpt lat="27.852109" lon="86.77607">
        <ele>4044.2</ele>
        <time>2022-10-28T07:19:51.000Z</time>
      </trkpt>
      <trkpt lat="27.852102" lon="86.776045">
        <ele>4043.8</ele>
        <time>2022-10-28T07:19:53.000Z</time>
      </trkpt>
      <trkpt lat="27.852096" lon="86.776026">
        <ele>4043.6</ele>
        <time>2022-10-28T07:19:56.000Z</time>
      </trkpt>
      <trkpt lat="27.852086" lon="86.776006">
        <ele>4043</ele>
        <time>2022-10-28T07:19:59.000Z</time>
      </trkpt>
      <trkpt lat="27.852083" lon="86.775981">
        <ele>4042.2</ele>
        <time>2022-10-28T07:20:03.000Z</time>
      </trkpt>
      <trkpt lat="27.85207" lon="86.775955">
        <ele>4042.4</ele>
        <time>2022-10-28T07:20:09.000Z</time>
      </trkpt>
      <trkpt lat="27.852064" lon="86.77593">
        <ele>4041.8</ele>
        <time>2022-10-28T07:20:15.000Z</time>
      </trkpt>
      <trkpt lat="27.852058" lon="86.77591">
        <ele>4041.2</ele>
        <time>2022-10-28T07:20:18.000Z</time>
      </trkpt>
      <trkpt lat="27.852048" lon="86.775891">
        <ele>4041.6</ele>
        <time>2022-10-28T07:20:21.000Z</time>
      </trkpt>
      <trkpt lat="27.852029" lon="86.775878">
        <ele>4040.6</ele>
        <time>2022-10-28T07:20:25.000Z</time>
      </trkpt>
      <trkpt lat="27.852006" lon="86.775866">
        <ele>4040.4</ele>
        <time>2022-10-28T07:20:28.000Z</time>
      </trkpt>
      <trkpt lat="27.851994" lon="86.775846">
        <ele>4040.2</ele>
        <time>2022-10-28T07:20:30.000Z</time>
      </trkpt>
      <trkpt lat="27.851971" lon="86.775827">
        <ele>4039.6</ele>
        <time>2022-10-28T07:20:33.000Z</time>
      </trkpt>
      <trkpt lat="27.851955" lon="86.775808">
        <ele>4039.4</ele>
        <time>2022-10-28T07:20:35.000Z</time>
      </trkpt>
      <trkpt lat="27.851936" lon="86.775795">
        <ele>4039</ele>
        <time>2022-10-28T07:20:37.000Z</time>
      </trkpt>
      <trkpt lat="27.851917" lon="86.77577">
        <ele>4039</ele>
        <time>2022-10-28T07:20:39.000Z</time>
      </trkpt>
      <trkpt lat="27.851898" lon="86.775757">
        <ele>4039</ele>
        <time>2022-10-28T07:20:41.000Z</time>
      </trkpt>
      <trkpt lat="27.851878" lon="86.77575">
        <ele>4039</ele>
        <time>2022-10-28T07:20:43.000Z</time>
      </trkpt>
      <trkpt lat="27.851862" lon="86.775731">
        <ele>4039</ele>
        <time>2022-10-28T07:20:45.000Z</time>
      </trkpt>
      <trkpt lat="27.851843" lon="86.775718">
        <ele>4040.4</ele>
        <time>2022-10-28T07:21:23.000Z</time>
      </trkpt>
      <trkpt lat="27.851827" lon="86.775686">
        <ele>4040.8</ele>
        <time>2022-10-28T07:21:26.000Z</time>
      </trkpt>
      <trkpt lat="27.851818" lon="86.775661">
        <ele>4040.6</ele>
        <time>2022-10-28T07:21:29.000Z</time>
      </trkpt>
      <trkpt lat="27.851808" lon="86.775635">
        <ele>4041.2</ele>
        <time>2022-10-28T07:21:31.000Z</time>
      </trkpt>
      <trkpt lat="27.851802" lon="86.77561">
        <ele>4041.6</ele>
        <time>2022-10-28T07:21:33.000Z</time>
      </trkpt>
      <trkpt lat="27.851795" lon="86.775584">
        <ele>4041.6</ele>
        <time>2022-10-28T07:21:37.000Z</time>
      </trkpt>
      <trkpt lat="27.851792" lon="86.775558">
        <ele>4041.4</ele>
        <time>2022-10-28T07:21:39.000Z</time>
      </trkpt>
      <trkpt lat="27.851789" lon="86.775533">
        <ele>4041.4</ele>
        <time>2022-10-28T07:21:41.000Z</time>
      </trkpt>
      <trkpt lat="27.851782" lon="86.775514">
        <ele>4041</ele>
        <time>2022-10-28T07:21:43.000Z</time>
      </trkpt>
      <trkpt lat="27.851776" lon="86.775494">
        <ele>4040.6</ele>
        <time>2022-10-28T07:21:45.000Z</time>
      </trkpt>
      <trkpt lat="27.851763" lon="86.775469">
        <ele>4041</ele>
        <time>2022-10-28T07:21:48.000Z</time>
      </trkpt>
      <trkpt lat="27.851754" lon="86.77545">
        <ele>4041</ele>
        <time>2022-10-28T07:21:50.000Z</time>
      </trkpt>
      <trkpt lat="27.851738" lon="86.77543">
        <ele>4041.4</ele>
        <time>2022-10-28T07:21:54.000Z</time>
      </trkpt>
      <trkpt lat="27.851731" lon="86.775411">
        <ele>4041.6</ele>
        <time>2022-10-28T07:21:56.000Z</time>
      </trkpt>
      <trkpt lat="27.851738" lon="86.775392">
        <ele>4042.2</ele>
        <time>2022-10-28T07:22:00.000Z</time>
      </trkpt>
      <trkpt lat="27.851744" lon="86.775366">
        <ele>4042.4</ele>
        <time>2022-10-28T07:22:03.000Z</time>
      </trkpt>
      <trkpt lat="27.851754" lon="86.775347">
        <ele>4042.4</ele>
        <time>2022-10-28T07:22:07.000Z</time>
      </trkpt>
      <trkpt lat="27.85176" lon="86.775328">
        <ele>4043.2</ele>
        <time>2022-10-28T07:22:11.000Z</time>
      </trkpt>
      <trkpt lat="27.851744" lon="86.775315">
        <ele>4044.8</ele>
        <time>2022-10-28T07:24:10.000Z</time>
      </trkpt>
      <trkpt lat="27.851738" lon="86.775283">
        <ele>4043.8</ele>
        <time>2022-10-28T07:24:12.000Z</time>
      </trkpt>
      <trkpt lat="27.851722" lon="86.775251">
        <ele>4042.8</ele>
        <time>2022-10-28T07:24:15.000Z</time>
      </trkpt>
      <trkpt lat="27.851712" lon="86.775213">
        <ele>4041.8</ele>
        <time>2022-10-28T07:24:18.000Z</time>
      </trkpt>
      <trkpt lat="27.851693" lon="86.775213">
        <ele>4041.6</ele>
        <time>2022-10-28T07:24:21.000Z</time>
      </trkpt>
      <trkpt lat="27.851674" lon="86.775206">
        <ele>4040.6</ele>
        <time>2022-10-28T07:24:25.000Z</time>
      </trkpt>
      <trkpt lat="27.851654" lon="86.7752">
        <ele>4041</ele>
        <time>2022-10-28T07:24:28.000Z</time>
      </trkpt>
      <trkpt lat="27.851632" lon="86.775187">
        <ele>4040.6</ele>
        <time>2022-10-28T07:24:31.000Z</time>
      </trkpt>
      <trkpt lat="27.85161" lon="86.775174">
        <ele>4040.4</ele>
        <time>2022-10-28T07:24:35.000Z</time>
      </trkpt>
      <trkpt lat="27.851587" lon="86.775174">
        <ele>4040.2</ele>
        <time>2022-10-28T07:24:38.000Z</time>
      </trkpt>
      <trkpt lat="27.851571" lon="86.775162">
        <ele>4040.2</ele>
        <time>2022-10-28T07:24:40.000Z</time>
      </trkpt>
      <trkpt lat="27.851552" lon="86.775155">
        <ele>4039.4</ele>
        <time>2022-10-28T07:24:42.000Z</time>
      </trkpt>
      <trkpt lat="27.851539" lon="86.775136">
        <ele>4039.2</ele>
        <time>2022-10-28T07:24:44.000Z</time>
      </trkpt>
      <trkpt lat="27.851517" lon="86.77513">
        <ele>4038.2</ele>
        <time>2022-10-28T07:24:47.000Z</time>
      </trkpt>
      <trkpt lat="27.851498" lon="86.775123">
        <ele>4038.4</ele>
        <time>2022-10-28T07:24:50.000Z</time>
      </trkpt>
      <trkpt lat="27.851478" lon="86.775117">
        <ele>4039</ele>
        <time>2022-10-28T07:24:54.000Z</time>
      </trkpt>
      <trkpt lat="27.851456" lon="86.77511">
        <ele>4039.8</ele>
        <time>2022-10-28T07:24:58.000Z</time>
      </trkpt>
      <trkpt lat="27.85144" lon="86.775091">
        <ele>4040.8</ele>
        <time>2022-10-28T07:25:04.000Z</time>
      </trkpt>
      <trkpt lat="27.851421" lon="86.775091">
        <ele>4042.2</ele>
        <time>2022-10-28T07:25:12.000Z</time>
      </trkpt>
      <trkpt lat="27.851402" lon="86.775098">
        <ele>4042.4</ele>
        <time>2022-10-28T07:25:17.000Z</time>
      </trkpt>
      <trkpt lat="27.851386" lon="86.775085">
        <ele>4043.2</ele>
        <time>2022-10-28T07:25:25.000Z</time>
      </trkpt>
      <trkpt lat="27.851286" lon="86.775002">
        <ele>4050.4</ele>
        <time>2022-10-28T07:26:51.000Z</time>
      </trkpt>
      <trkpt lat="27.851264" lon="86.775002">
        <ele>4050.8</ele>
        <time>2022-10-28T07:26:53.000Z</time>
      </trkpt>
      <trkpt lat="27.851245" lon="86.775002">
        <ele>4051.2</ele>
        <time>2022-10-28T07:26:55.000Z</time>
      </trkpt>
      <trkpt lat="27.851222" lon="86.775002">
        <ele>4051.6</ele>
        <time>2022-10-28T07:26:57.000Z</time>
      </trkpt>
      <trkpt lat="27.8512" lon="86.775002">
        <ele>4051.6</ele>
        <time>2022-10-28T07:26:59.000Z</time>
      </trkpt>
      <trkpt lat="27.851178" lon="86.775014">
        <ele>4052.6</ele>
        <time>2022-10-28T07:27:03.000Z</time>
      </trkpt>
      <trkpt lat="27.851162" lon="86.775034">
        <ele>4053.8</ele>
        <time>2022-10-28T07:27:08.000Z</time>
      </trkpt>
      <trkpt lat="27.851142" lon="86.775002">
        <ele>4056.6</ele>
        <time>2022-10-28T07:27:48.000Z</time>
      </trkpt>
      <trkpt lat="27.851126" lon="86.774989">
        <ele>4056</ele>
        <time>2022-10-28T07:27:50.000Z</time>
      </trkpt>
      <trkpt lat="27.851104" lon="86.77497">
        <ele>4056</ele>
        <time>2022-10-28T07:27:53.000Z</time>
      </trkpt>
      <trkpt lat="27.851088" lon="86.774957">
        <ele>4056</ele>
        <time>2022-10-28T07:27:55.000Z</time>
      </trkpt>
      <trkpt lat="27.851075" lon="86.774938">
        <ele>4056</ele>
        <time>2022-10-28T07:27:56.000Z</time>
      </trkpt>
      <trkpt lat="27.851059" lon="86.774918">
        <ele>4056</ele>
        <time>2022-10-28T07:27:59.000Z</time>
      </trkpt>
      <trkpt lat="27.851043" lon="86.774893">
        <ele>4056.4</ele>
        <time>2022-10-28T07:28:02.000Z</time>
      </trkpt>
      <trkpt lat="27.851027" lon="86.774874">
        <ele>4056.6</ele>
        <time>2022-10-28T07:28:05.000Z</time>
      </trkpt>
      <trkpt lat="27.851018" lon="86.774854">
        <ele>4056.4</ele>
        <time>2022-10-28T07:28:07.000Z</time>
      </trkpt>
      <trkpt lat="27.850998" lon="86.774835">
        <ele>4056.6</ele>
        <time>2022-10-28T07:28:10.000Z</time>
      </trkpt>
      <trkpt lat="27.850986" lon="86.774816">
        <ele>4056.4</ele>
        <time>2022-10-28T07:28:12.000Z</time>
      </trkpt>
      <trkpt lat="27.850966" lon="86.77481">
        <ele>4056.6</ele>
        <time>2022-10-28T07:28:15.000Z</time>
      </trkpt>
      <trkpt lat="27.850944" lon="86.774803">
        <ele>4057</ele>
        <time>2022-10-28T07:28:18.000Z</time>
      </trkpt>
      <trkpt lat="27.850925" lon="86.774803">
        <ele>4057.8</ele>
        <time>2022-10-28T07:28:21.000Z</time>
      </trkpt>
      <trkpt lat="27.850906" lon="86.774803">
        <ele>4058.4</ele>
        <time>2022-10-28T07:28:24.000Z</time>
      </trkpt>
      <trkpt lat="27.850886" lon="86.77479">
        <ele>4058.4</ele>
        <time>2022-10-28T07:28:28.000Z</time>
      </trkpt>
      <trkpt lat="27.850867" lon="86.77479">
        <ele>4059.2</ele>
        <time>2022-10-28T07:28:33.000Z</time>
      </trkpt>
      <trkpt lat="27.850842" lon="86.77479">
        <ele>4062.6</ele>
        <time>2022-10-28T07:29:18.000Z</time>
      </trkpt>
      <trkpt lat="27.850819" lon="86.774797">
        <ele>4064</ele>
        <time>2022-10-28T07:29:20.000Z</time>
      </trkpt>
      <trkpt lat="27.850797" lon="86.774803">
        <ele>4065</ele>
        <time>2022-10-28T07:29:22.000Z</time>
      </trkpt>
      <trkpt lat="27.850774" lon="86.77481">
        <ele>4064.8</ele>
        <time>2022-10-28T07:29:24.000Z</time>
      </trkpt>
      <trkpt lat="27.850755" lon="86.774816">
        <ele>4064.4</ele>
        <time>2022-10-28T07:29:26.000Z</time>
      </trkpt>
      <trkpt lat="27.850739" lon="86.774829">
        <ele>4064.4</ele>
        <time>2022-10-28T07:29:28.000Z</time>
      </trkpt>
      <trkpt lat="27.850723" lon="86.774842">
        <ele>4064.4</ele>
        <time>2022-10-28T07:29:31.000Z</time>
      </trkpt>
      <trkpt lat="27.850707" lon="86.774854">
        <ele>4064</ele>
        <time>2022-10-28T07:29:34.000Z</time>
      </trkpt>
      <trkpt lat="27.850698" lon="86.774874">
        <ele>4065</ele>
        <time>2022-10-28T07:29:36.000Z</time>
      </trkpt>
      <trkpt lat="27.850678" lon="86.774886">
        <ele>4065.6</ele>
        <time>2022-10-28T07:29:39.000Z</time>
      </trkpt>
      <trkpt lat="27.850659" lon="86.774886">
        <ele>4065.6</ele>
        <time>2022-10-28T07:29:42.000Z</time>
      </trkpt>
      <trkpt lat="27.850637" lon="86.774893">
        <ele>4065.6</ele>
        <time>2022-10-28T07:29:45.000Z</time>
      </trkpt>
      <trkpt lat="27.850618" lon="86.774893">
        <ele>4066</ele>
        <time>2022-10-28T07:29:48.000Z</time>
      </trkpt>
      <trkpt lat="27.850592" lon="86.774886">
        <ele>4066.2</ele>
        <time>2022-10-28T07:29:51.000Z</time>
      </trkpt>
      <trkpt lat="27.850573" lon="86.774867">
        <ele>4066.8</ele>
        <time>2022-10-28T07:29:55.000Z</time>
      </trkpt>
      <trkpt lat="27.85056" lon="86.774848">
        <ele>4067</ele>
        <time>2022-10-28T07:29:58.000Z</time>
      </trkpt>
      <trkpt lat="27.850541" lon="86.774829">
        <ele>4067.2</ele>
        <time>2022-10-28T07:30:02.000Z</time>
      </trkpt>
      <trkpt lat="27.850525" lon="86.77481">
        <ele>4068</ele>
        <time>2022-10-28T07:30:07.000Z</time>
      </trkpt>
      <trkpt lat="27.850506" lon="86.774803">
        <ele>4068.6</ele>
        <time>2022-10-28T07:30:12.000Z</time>
      </trkpt>
      <trkpt lat="27.85049" lon="86.77479">
        <ele>4069</ele>
        <time>2022-10-28T07:30:16.000Z</time>
      </trkpt>
      <trkpt lat="27.850467" lon="86.774778">
        <ele>4068.8</ele>
        <time>2022-10-28T07:30:19.000Z</time>
      </trkpt>
      <trkpt lat="27.850448" lon="86.774771">
        <ele>4069.6</ele>
        <time>2022-10-28T07:30:22.000Z</time>
      </trkpt>
      <trkpt lat="27.850426" lon="86.774765">
        <ele>4069.6</ele>
        <time>2022-10-28T07:30:25.000Z</time>
      </trkpt>
      <trkpt lat="27.850403" lon="86.774765">
        <ele>4069.8</ele>
        <time>2022-10-28T07:30:28.000Z</time>
      </trkpt>
      <trkpt lat="27.850384" lon="86.774752">
        <ele>4069.8</ele>
        <time>2022-10-28T07:30:31.000Z</time>
      </trkpt>
      <trkpt lat="27.850362" lon="86.774739">
        <ele>4069.4</ele>
        <time>2022-10-28T07:30:34.000Z</time>
      </trkpt>
      <trkpt lat="27.850342" lon="86.774733">
        <ele>4069.8</ele>
        <time>2022-10-28T07:30:37.000Z</time>
      </trkpt>
      <trkpt lat="27.85032" lon="86.77472">
        <ele>4070.8</ele>
        <time>2022-10-28T07:30:41.000Z</time>
      </trkpt>
      <trkpt lat="27.850298" lon="86.774694">
        <ele>4070.8</ele>
        <time>2022-10-28T07:30:45.000Z</time>
      </trkpt>
      <trkpt lat="27.850282" lon="86.774682">
        <ele>4071.4</ele>
        <time>2022-10-28T07:30:48.000Z</time>
      </trkpt>
      <trkpt lat="27.850262" lon="86.774669">
        <ele>4071.4</ele>
        <time>2022-10-28T07:30:51.000Z</time>
      </trkpt>
      <trkpt lat="27.850243" lon="86.77465">
        <ele>4071.4</ele>
        <time>2022-10-28T07:30:53.000Z</time>
      </trkpt>
      <trkpt lat="27.850227" lon="86.774637">
        <ele>4071.8</ele>
        <time>2022-10-28T07:30:56.000Z</time>
      </trkpt>
      <trkpt lat="27.850211" lon="86.774618">
        <ele>4072.4</ele>
        <time>2022-10-28T07:30:59.000Z</time>
      </trkpt>
      <trkpt lat="27.850205" lon="86.774598">
        <ele>4072.8</ele>
        <time>2022-10-28T07:31:02.000Z</time>
      </trkpt>
      <trkpt lat="27.850205" lon="86.774573">
        <ele>4072.6</ele>
        <time>2022-10-28T07:31:04.000Z</time>
      </trkpt>
      <trkpt lat="27.850198" lon="86.774541">
        <ele>4071.8</ele>
        <time>2022-10-28T07:31:07.000Z</time>
      </trkpt>
      <trkpt lat="27.850179" lon="86.774528">
        <ele>4072.6</ele>
        <time>2022-10-28T07:31:10.000Z</time>
      </trkpt>
      <trkpt lat="27.850163" lon="86.774515">
        <ele>4072.4</ele>
        <time>2022-10-28T07:31:12.000Z</time>
      </trkpt>
      <trkpt lat="27.850144" lon="86.774496">
        <ele>4072.6</ele>
        <time>2022-10-28T07:31:15.000Z</time>
      </trkpt>
      <trkpt lat="27.850128" lon="86.774477">
        <ele>4074.4</ele>
        <time>2022-10-28T07:31:20.000Z</time>
      </trkpt>
      <trkpt lat="27.850112" lon="86.774458">
        <ele>4074.8</ele>
        <time>2022-10-28T07:31:24.000Z</time>
      </trkpt>
      <trkpt lat="27.850093" lon="86.774451">
        <ele>4075</ele>
        <time>2022-10-28T07:31:29.000Z</time>
      </trkpt>
      <trkpt lat="27.850074" lon="86.774451">
        <ele>4074.6</ele>
        <time>2022-10-28T07:31:35.000Z</time>
      </trkpt>
      <trkpt lat="27.850054" lon="86.774451">
        <ele>4074.8</ele>
        <time>2022-10-28T07:31:40.000Z</time>
      </trkpt>
      <trkpt lat="27.850038" lon="86.774432">
        <ele>4075</ele>
        <time>2022-10-28T07:31:43.000Z</time>
      </trkpt>
      <trkpt lat="27.850026" lon="86.774413">
        <ele>4075.8</ele>
        <time>2022-10-28T07:31:45.000Z</time>
      </trkpt>
      <trkpt lat="27.85" lon="86.7744">
        <ele>4076.8</ele>
        <time>2022-10-28T07:31:48.000Z</time>
      </trkpt>
      <trkpt lat="27.849981" lon="86.7744">
        <ele>4076.2</ele>
        <time>2022-10-28T07:31:57.000Z</time>
      </trkpt>
      <trkpt lat="27.849958" lon="86.774394">
        <ele>4076.2</ele>
        <time>2022-10-28T07:32:00.000Z</time>
      </trkpt>
      <trkpt lat="27.849933" lon="86.774374">
        <ele>4076.8</ele>
        <time>2022-10-28T07:32:02.000Z</time>
      </trkpt>
      <trkpt lat="27.849914" lon="86.774374">
        <ele>4076.8</ele>
        <time>2022-10-28T07:32:04.000Z</time>
      </trkpt>
      <trkpt lat="27.849898" lon="86.774362">
        <ele>4077.8</ele>
        <time>2022-10-28T07:32:08.000Z</time>
      </trkpt>
      <trkpt lat="27.849882" lon="86.774342">
        <ele>4077.2</ele>
        <time>2022-10-28T07:32:11.000Z</time>
      </trkpt>
      <trkpt lat="27.849862" lon="86.774323">
        <ele>4076.4</ele>
        <time>2022-10-28T07:32:13.000Z</time>
      </trkpt>
      <trkpt lat="27.849856" lon="86.774298">
        <ele>4076.2</ele>
        <time>2022-10-28T07:32:18.000Z</time>
      </trkpt>
      <trkpt lat="27.849834" lon="86.774291">
        <ele>4076.8</ele>
        <time>2022-10-28T07:32:51.000Z</time>
      </trkpt>
      <trkpt lat="27.849805" lon="86.774285">
        <ele>4076.8</ele>
        <time>2022-10-28T07:32:53.000Z</time>
      </trkpt>
      <trkpt lat="27.849779" lon="86.774278">
        <ele>4077</ele>
        <time>2022-10-28T07:32:55.000Z</time>
      </trkpt>
      <trkpt lat="27.849757" lon="86.774272">
        <ele>4077.6</ele>
        <time>2022-10-28T07:32:57.000Z</time>
      </trkpt>
      <trkpt lat="27.849734" lon="86.774253">
        <ele>4077.6</ele>
        <time>2022-10-28T07:32:59.000Z</time>
      </trkpt>
      <trkpt lat="27.849715" lon="86.77424">
        <ele>4078.2</ele>
        <time>2022-10-28T07:33:02.000Z</time>
      </trkpt>
      <trkpt lat="27.849709" lon="86.774221">
        <ele>4078.6</ele>
        <time>2022-10-28T07:33:04.000Z</time>
      </trkpt>
      <trkpt lat="27.849693" lon="86.774202">
        <ele>4078.2</ele>
        <time>2022-10-28T07:33:08.000Z</time>
      </trkpt>
      <trkpt lat="27.849683" lon="86.774182">
        <ele>4078.2</ele>
        <time>2022-10-28T07:33:11.000Z</time>
      </trkpt>
      <trkpt lat="27.849674" lon="86.774163">
        <ele>4078</ele>
        <time>2022-10-28T07:33:14.000Z</time>
      </trkpt>
      <trkpt lat="27.849667" lon="86.774144">
        <ele>4079</ele>
        <time>2022-10-28T07:33:17.000Z</time>
      </trkpt>
      <trkpt lat="27.849651" lon="86.774125">
        <ele>4079</ele>
        <time>2022-10-28T07:33:22.000Z</time>
      </trkpt>
      <trkpt lat="27.849635" lon="86.774112">
        <ele>4080.2</ele>
        <time>2022-10-28T07:33:26.000Z</time>
      </trkpt>
      <trkpt lat="27.849626" lon="86.774093">
        <ele>4081.2</ele>
        <time>2022-10-28T07:33:29.000Z</time>
      </trkpt>
      <trkpt lat="27.84961" lon="86.774074">
        <ele>4082</ele>
        <time>2022-10-28T07:33:35.000Z</time>
      </trkpt>
      <trkpt lat="27.849594" lon="86.774061">
        <ele>4082</ele>
        <time>2022-10-28T07:33:38.000Z</time>
      </trkpt>
      <trkpt lat="27.849574" lon="86.774048">
        <ele>4083</ele>
        <time>2022-10-28T07:33:42.000Z</time>
      </trkpt>
      <trkpt lat="27.849558" lon="86.774035">
        <ele>4083.4</ele>
        <time>2022-10-28T07:33:45.000Z</time>
      </trkpt>
      <trkpt lat="27.849549" lon="86.774016">
        <ele>4083.4</ele>
        <time>2022-10-28T07:33:47.000Z</time>
      </trkpt>
      <trkpt lat="27.84953" lon="86.774003">
        <ele>4084.2</ele>
        <time>2022-10-28T07:33:51.000Z</time>
      </trkpt>
      <trkpt lat="27.84952" lon="86.773984">
        <ele>4084.4</ele>
        <time>2022-10-28T07:33:54.000Z</time>
      </trkpt>
      <trkpt lat="27.849507" lon="86.773958">
        <ele>4084.6</ele>
        <time>2022-10-28T07:34:25.000Z</time>
      </trkpt>
      <trkpt lat="27.849498" lon="86.773939">
        <ele>4084.4</ele>
        <time>2022-10-28T07:34:26.000Z</time>
      </trkpt>
      <trkpt lat="27.849482" lon="86.77392">
        <ele>4084.4</ele>
        <time>2022-10-28T07:34:28.000Z</time>
      </trkpt>
      <trkpt lat="27.849475" lon="86.773901">
        <ele>4084</ele>
        <time>2022-10-28T07:34:30.000Z</time>
      </trkpt>
      <trkpt lat="27.849488" lon="86.77392">
        <ele>4083.8</ele>
        <time>2022-10-28T07:34:40.000Z</time>
      </trkpt>
      <trkpt lat="27.849504" lon="86.773939">
        <ele>4084.2</ele>
        <time>2022-10-28T07:34:43.000Z</time>
      </trkpt>
      <trkpt lat="27.849507" lon="86.773965">
        <ele>4085</ele>
        <time>2022-10-28T07:34:49.000Z</time>
      </trkpt>
      <trkpt lat="27.849482" lon="86.773946">
        <ele>4084.4</ele>
        <time>2022-10-28T07:35:21.000Z</time>
      </trkpt>
      <trkpt lat="27.849466" lon="86.773933">
        <ele>4084.4</ele>
        <time>2022-10-28T07:35:23.000Z</time>
      </trkpt>
      <trkpt lat="27.849434" lon="86.773901">
        <ele>4084</ele>
        <time>2022-10-28T07:35:33.000Z</time>
      </trkpt>
      <trkpt lat="27.849414" lon="86.773882">
        <ele>4083.4</ele>
        <time>2022-10-28T07:35:35.000Z</time>
      </trkpt>
      <trkpt lat="27.849395" lon="86.773875">
        <ele>4083.2</ele>
        <time>2022-10-28T07:35:37.000Z</time>
      </trkpt>
      <trkpt lat="27.84937" lon="86.773856">
        <ele>4082</ele>
        <time>2022-10-28T07:35:39.000Z</time>
      </trkpt>
      <trkpt lat="27.84935" lon="86.773837">
        <ele>4081.6</ele>
        <time>2022-10-28T07:35:41.000Z</time>
      </trkpt>
      <trkpt lat="27.849328" lon="86.773818">
        <ele>4082.2</ele>
        <time>2022-10-28T07:35:43.000Z</time>
      </trkpt>
      <trkpt lat="27.849306" lon="86.773805">
        <ele>4082.4</ele>
        <time>2022-10-28T07:35:46.000Z</time>
      </trkpt>
      <trkpt lat="27.849286" lon="86.773798">
        <ele>4083.8</ele>
        <time>2022-10-28T07:35:48.000Z</time>
      </trkpt>
      <trkpt lat="27.849264" lon="86.773786">
        <ele>4083.8</ele>
        <time>2022-10-28T07:35:50.000Z</time>
      </trkpt>
      <trkpt lat="27.849242" lon="86.773773">
        <ele>4083.2</ele>
        <time>2022-10-28T07:35:52.000Z</time>
      </trkpt>
      <trkpt lat="27.849226" lon="86.77376">
        <ele>4083.2</ele>
        <time>2022-10-28T07:35:54.000Z</time>
      </trkpt>
      <trkpt lat="27.84921" lon="86.773741">
        <ele>4083.6</ele>
        <time>2022-10-28T07:35:56.000Z</time>
      </trkpt>
      <trkpt lat="27.849184" lon="86.773728">
        <ele>4084.4</ele>
        <time>2022-10-28T07:35:59.000Z</time>
      </trkpt>
      <trkpt lat="27.849162" lon="86.773715">
        <ele>4084.4</ele>
        <time>2022-10-28T07:36:01.000Z</time>
      </trkpt>
      <trkpt lat="27.849146" lon="86.773702">
        <ele>4084.6</ele>
        <time>2022-10-28T07:36:03.000Z</time>
      </trkpt>
      <trkpt lat="27.849126" lon="86.773683">
        <ele>4085.2</ele>
        <time>2022-10-28T07:36:06.000Z</time>
      </trkpt>
      <trkpt lat="27.849104" lon="86.773664">
        <ele>4085.6</ele>
        <time>2022-10-28T07:36:09.000Z</time>
      </trkpt>
      <trkpt lat="27.849085" lon="86.773658">
        <ele>4085.4</ele>
        <time>2022-10-28T07:36:11.000Z</time>
      </trkpt>
      <trkpt lat="27.849059" lon="86.773658">
        <ele>4086.6</ele>
        <time>2022-10-28T07:36:14.000Z</time>
      </trkpt>
      <trkpt lat="27.84904" lon="86.773664">
        <ele>4086.8</ele>
        <time>2022-10-28T07:36:16.000Z</time>
      </trkpt>
      <trkpt lat="27.849018" lon="86.773658">
        <ele>4086.8</ele>
        <time>2022-10-28T07:36:18.000Z</time>
      </trkpt>
      <trkpt lat="27.848992" lon="86.773651">
        <ele>4086.8</ele>
        <time>2022-10-28T07:36:20.000Z</time>
      </trkpt>
      <trkpt lat="27.84897" lon="86.773645">
        <ele>4086.8</ele>
        <time>2022-10-28T07:36:23.000Z</time>
      </trkpt>
      <trkpt lat="27.84895" lon="86.773626">
        <ele>4086.6</ele>
        <time>2022-10-28T07:36:25.000Z</time>
      </trkpt>
      <trkpt lat="27.848934" lon="86.773613">
        <ele>4086</ele>
        <time>2022-10-28T07:36:27.000Z</time>
      </trkpt>
      <trkpt lat="27.848912" lon="86.773606">
        <ele>4085.8</ele>
        <time>2022-10-28T07:36:29.000Z</time>
      </trkpt>
      <trkpt lat="27.848883" lon="86.773587">
        <ele>4086.4</ele>
        <time>2022-10-28T07:36:32.000Z</time>
      </trkpt>
      <trkpt lat="27.848858" lon="86.773574">
        <ele>4087</ele>
        <time>2022-10-28T07:36:35.000Z</time>
      </trkpt>
      <trkpt lat="27.848829" lon="86.773562">
        <ele>4087.8</ele>
        <time>2022-10-28T07:36:38.000Z</time>
      </trkpt>
      <trkpt lat="27.84881" lon="86.773542">
        <ele>4087.6</ele>
        <time>2022-10-28T07:36:40.000Z</time>
      </trkpt>
      <trkpt lat="27.848794" lon="86.773523">
        <ele>4087.6</ele>
        <time>2022-10-28T07:36:42.000Z</time>
      </trkpt>
      <trkpt lat="27.848784" lon="86.773504">
        <ele>4087</ele>
        <time>2022-10-28T07:36:44.000Z</time>
      </trkpt>
      <trkpt lat="27.848768" lon="86.773491">
        <ele>4087.4</ele>
        <time>2022-10-28T07:36:46.000Z</time>
      </trkpt>
      <trkpt lat="27.848749" lon="86.773466">
        <ele>4086.8</ele>
        <time>2022-10-28T07:36:49.000Z</time>
      </trkpt>
      <trkpt lat="27.848723" lon="86.773453">
        <ele>4087.8</ele>
        <time>2022-10-28T07:36:52.000Z</time>
      </trkpt>
      <trkpt lat="27.848704" lon="86.77344">
        <ele>4088.2</ele>
        <time>2022-10-28T07:36:56.000Z</time>
      </trkpt>
      <trkpt lat="27.848688" lon="86.773427">
        <ele>4088.6</ele>
        <time>2022-10-28T07:37:00.000Z</time>
      </trkpt>
      <trkpt lat="27.848672" lon="86.773414">
        <ele>4089.2</ele>
        <time>2022-10-28T07:37:04.000Z</time>
      </trkpt>
      <trkpt lat="27.848656" lon="86.773402">
        <ele>4089.2</ele>
        <time>2022-10-28T07:37:06.000Z</time>
      </trkpt>
      <trkpt lat="27.84864" lon="86.773382">
        <ele>4090</ele>
        <time>2022-10-28T07:37:59.000Z</time>
      </trkpt>
      <trkpt lat="27.848614" lon="86.773376">
        <ele>4090.2</ele>
        <time>2022-10-28T07:38:04.000Z</time>
      </trkpt>
      <trkpt lat="27.848637" lon="86.773376">
        <ele>4090</ele>
        <time>2022-10-28T07:38:12.000Z</time>
      </trkpt>
      <trkpt lat="27.84865" lon="86.773402">
        <ele>4090</ele>
        <time>2022-10-28T07:38:15.000Z</time>
      </trkpt>
      <trkpt lat="27.848634" lon="86.773389">
        <ele>4091.2</ele>
        <time>2022-10-28T07:38:47.000Z</time>
      </trkpt>
      <trkpt lat="27.848621" lon="86.77337">
        <ele>4090.6</ele>
        <time>2022-10-28T07:41:00.000Z</time>
      </trkpt>
      <trkpt lat="27.84864" lon="86.773376">
        <ele>4086.4</ele>
        <time>2022-10-28T07:47:31.000Z</time>
      </trkpt>
      <trkpt lat="27.848618" lon="86.773363">
        <ele>4087.8</ele>
        <time>2022-10-28T07:47:33.000Z</time>
      </trkpt>
      <trkpt lat="27.848598" lon="86.773338">
        <ele>4087.8</ele>
        <time>2022-10-28T07:47:35.000Z</time>
      </trkpt>
      <trkpt lat="27.848582" lon="86.773325">
        <ele>4086.6</ele>
        <time>2022-10-28T07:47:37.000Z</time>
      </trkpt>
      <trkpt lat="27.848573" lon="86.773306">
        <ele>4086</ele>
        <time>2022-10-28T07:47:38.000Z</time>
      </trkpt>
      <trkpt lat="27.848554" lon="86.77328">
        <ele>4085.6</ele>
        <time>2022-10-28T07:47:40.000Z</time>
      </trkpt>
      <trkpt lat="27.848541" lon="86.773254">
        <ele>4084.6</ele>
        <time>2022-10-28T07:47:42.000Z</time>
      </trkpt>
      <trkpt lat="27.848525" lon="86.773229">
        <ele>4084</ele>
        <time>2022-10-28T07:47:45.000Z</time>
      </trkpt>
      <trkpt lat="27.848512" lon="86.77321">
        <ele>4084</ele>
        <time>2022-10-28T07:47:49.000Z</time>
      </trkpt>
      <trkpt lat="27.848499" lon="86.77319">
        <ele>4084</ele>
        <time>2022-10-28T07:47:51.000Z</time>
      </trkpt>
      <trkpt lat="27.848486" lon="86.773171">
        <ele>4084</ele>
        <time>2022-10-28T07:47:53.000Z</time>
      </trkpt>
      <trkpt lat="27.848486" lon="86.773146">
        <ele>4083.8</ele>
        <time>2022-10-28T07:47:55.000Z</time>
      </trkpt>
      <trkpt lat="27.848483" lon="86.77312">
        <ele>4082.8</ele>
        <time>2022-10-28T07:48:02.000Z</time>
      </trkpt>
      <trkpt lat="27.848477" lon="86.773101">
        <ele>4081.2</ele>
        <time>2022-10-28T07:48:07.000Z</time>
      </trkpt>
      <trkpt lat="27.84848" lon="86.773069">
        <ele>4079.6</ele>
        <time>2022-10-28T07:48:16.000Z</time>
      </trkpt>
      <trkpt lat="27.848486" lon="86.773043">
        <ele>4078</ele>
        <time>2022-10-28T07:48:24.000Z</time>
      </trkpt>
      <trkpt lat="27.848493" lon="86.773024">
        <ele>4076.6</ele>
        <time>2022-10-28T07:48:27.000Z</time>
      </trkpt>
      <trkpt lat="27.848474" lon="86.77303">
        <ele>4076.8</ele>
        <time>2022-10-28T07:48:34.000Z</time>
      </trkpt>
      <trkpt lat="27.848451" lon="86.77305">
        <ele>4075.4</ele>
        <time>2022-10-28T07:48:40.000Z</time>
      </trkpt>
      <trkpt lat="27.848445" lon="86.77303">
        <ele>4074.4</ele>
        <time>2022-10-28T07:48:43.000Z</time>
      </trkpt>
      <trkpt lat="27.848454" lon="86.773011">
        <ele>4074.4</ele>
        <time>2022-10-28T07:48:47.000Z</time>
      </trkpt>
      <trkpt lat="27.848461" lon="86.772992">
        <ele>4073.2</ele>
        <time>2022-10-28T07:48:50.000Z</time>
      </trkpt>
      <trkpt lat="27.848416" lon="86.772902">
        <ele>4072</ele>
        <time>2022-10-28T07:48:59.000Z</time>
      </trkpt>
      <trkpt lat="27.84841" lon="86.772883">
        <ele>4072.2</ele>
        <time>2022-10-28T07:49:01.000Z</time>
      </trkpt>
      <trkpt lat="27.848406" lon="86.772858">
        <ele>4072.4</ele>
        <time>2022-10-28T07:49:03.000Z</time>
      </trkpt>
      <trkpt lat="27.8484" lon="86.772826">
        <ele>4072.4</ele>
        <time>2022-10-28T07:49:05.000Z</time>
      </trkpt>
      <trkpt lat="27.848384" lon="86.772806">
        <ele>4072.4</ele>
        <time>2022-10-28T07:49:10.000Z</time>
      </trkpt>
      <trkpt lat="27.848371" lon="86.772787">
        <ele>4072</ele>
        <time>2022-10-28T07:49:13.000Z</time>
      </trkpt>
      <trkpt lat="27.848355" lon="86.772768">
        <ele>4071.2</ele>
        <time>2022-10-28T07:49:16.000Z</time>
      </trkpt>
      <trkpt lat="27.848346" lon="86.772742">
        <ele>4071.2</ele>
        <time>2022-10-28T07:49:18.000Z</time>
      </trkpt>
      <trkpt lat="27.848326" lon="86.77271">
        <ele>4071.2</ele>
        <time>2022-10-28T07:49:21.000Z</time>
      </trkpt>
      <trkpt lat="27.848314" lon="86.772691">
        <ele>4070.4</ele>
        <time>2022-10-28T07:49:24.000Z</time>
      </trkpt>
      <trkpt lat="27.848307" lon="86.772672">
        <ele>4070</ele>
        <time>2022-10-28T07:49:26.000Z</time>
      </trkpt>
      <trkpt lat="27.848298" lon="86.772653">
        <ele>4068.6</ele>
        <time>2022-10-28T07:49:29.000Z</time>
      </trkpt>
      <trkpt lat="27.848288" lon="86.772627">
        <ele>4069</ele>
        <time>2022-10-28T07:49:32.000Z</time>
      </trkpt>
      <trkpt lat="27.848298" lon="86.772589">
        <ele>4068.2</ele>
        <time>2022-10-28T07:50:10.000Z</time>
      </trkpt>
      <trkpt lat="27.848307" lon="86.77257">
        <ele>4068</ele>
        <time>2022-10-28T07:50:12.000Z</time>
      </trkpt>
      <trkpt lat="27.848317" lon="86.77255">
        <ele>4068.2</ele>
        <time>2022-10-28T07:50:13.000Z</time>
      </trkpt>
      <trkpt lat="27.848326" lon="86.772531">
        <ele>4067.4</ele>
        <time>2022-10-28T07:50:15.000Z</time>
      </trkpt>
      <trkpt lat="27.848333" lon="86.772493">
        <ele>4065.6</ele>
        <time>2022-10-28T07:50:17.000Z</time>
      </trkpt>
      <trkpt lat="27.848333" lon="86.772467">
        <ele>4065.2</ele>
        <time>2022-10-28T07:50:19.000Z</time>
      </trkpt>
      <trkpt lat="27.848336" lon="86.772429">
        <ele>4065.2</ele>
        <time>2022-10-28T07:50:22.000Z</time>
      </trkpt>
      <trkpt lat="27.848342" lon="86.772397">
        <ele>4064.6</ele>
        <time>2022-10-28T07:50:24.000Z</time>
      </trkpt>
      <trkpt lat="27.848336" lon="86.772371">
        <ele>4063.8</ele>
        <time>2022-10-28T07:50:27.000Z</time>
      </trkpt>
      <trkpt lat="27.848326" lon="86.772346">
        <ele>4063.6</ele>
        <time>2022-10-28T07:50:29.000Z</time>
      </trkpt>
      <trkpt lat="27.84832" lon="86.772314">
        <ele>4063.4</ele>
        <time>2022-10-28T07:50:31.000Z</time>
      </trkpt>
      <trkpt lat="27.848314" lon="86.772288">
        <ele>4063.2</ele>
        <time>2022-10-28T07:50:33.000Z</time>
      </trkpt>
      <trkpt lat="27.848307" lon="86.772269">
        <ele>4063.2</ele>
        <time>2022-10-28T07:50:35.000Z</time>
      </trkpt>
      <trkpt lat="27.848301" lon="86.772237">
        <ele>4062.6</ele>
        <time>2022-10-28T07:50:37.000Z</time>
      </trkpt>
      <trkpt lat="27.848291" lon="86.772218">
        <ele>4062.4</ele>
        <time>2022-10-28T07:50:39.000Z</time>
      </trkpt>
      <trkpt lat="27.848288" lon="86.772192">
        <ele>4061.6</ele>
        <time>2022-10-28T07:50:41.000Z</time>
      </trkpt>
      <trkpt lat="27.848282" lon="86.772166">
        <ele>4061.2</ele>
        <time>2022-10-28T07:50:43.000Z</time>
      </trkpt>
      <trkpt lat="27.848285" lon="86.772141">
        <ele>4060.8</ele>
        <time>2022-10-28T07:50:45.000Z</time>
      </trkpt>
      <trkpt lat="27.848285" lon="86.772115">
        <ele>4061.6</ele>
        <time>2022-10-28T07:50:47.000Z</time>
      </trkpt>
      <trkpt lat="27.848282" lon="86.772077">
        <ele>4061.8</ele>
        <time>2022-10-28T07:50:50.000Z</time>
      </trkpt>
      <trkpt lat="27.848272" lon="86.772058">
        <ele>4061.8</ele>
        <time>2022-10-28T07:50:52.000Z</time>
      </trkpt>
      <trkpt lat="27.848266" lon="86.772038">
        <ele>4061.8</ele>
        <time>2022-10-28T07:50:53.000Z</time>
      </trkpt>
      <trkpt lat="27.84825" lon="86.772019">
        <ele>4061.8</ele>
        <time>2022-10-28T07:50:55.000Z</time>
      </trkpt>
      <trkpt lat="27.84824" lon="86.772">
        <ele>4061.8</ele>
        <time>2022-10-28T07:50:57.000Z</time>
      </trkpt>
      <trkpt lat="27.848227" lon="86.771981">
        <ele>4061.8</ele>
        <time>2022-10-28T07:50:59.000Z</time>
      </trkpt>
      <trkpt lat="27.848208" lon="86.771955">
        <ele>4061.4</ele>
        <time>2022-10-28T07:51:02.000Z</time>
      </trkpt>
      <trkpt lat="27.848195" lon="86.771936">
        <ele>4060.8</ele>
        <time>2022-10-28T07:51:04.000Z</time>
      </trkpt>
      <trkpt lat="27.848182" lon="86.771917">
        <ele>4060</ele>
        <time>2022-10-28T07:51:06.000Z</time>
      </trkpt>
      <trkpt lat="27.848173" lon="86.771898">
        <ele>4059.8</ele>
        <time>2022-10-28T07:51:15.000Z</time>
      </trkpt>
      <trkpt lat="27.84816" lon="86.771878">
        <ele>4060</ele>
        <time>2022-10-28T07:51:17.000Z</time>
      </trkpt>
      <trkpt lat="27.84815" lon="86.771859">
        <ele>4060</ele>
        <time>2022-10-28T07:51:20.000Z</time>
      </trkpt>
      <trkpt lat="27.848144" lon="86.771834">
        <ele>4059.4</ele>
        <time>2022-10-28T07:51:26.000Z</time>
      </trkpt>
      <trkpt lat="27.848138" lon="86.771814">
        <ele>4060.8</ele>
        <time>2022-10-28T07:51:28.000Z</time>
      </trkpt>
      <trkpt lat="27.848131" lon="86.771795">
        <ele>4060.8</ele>
        <time>2022-10-28T07:51:30.000Z</time>
      </trkpt>
      <trkpt lat="27.848118" lon="86.771776">
        <ele>4061</ele>
        <time>2022-10-28T07:51:33.000Z</time>
      </trkpt>
      <trkpt lat="27.848106" lon="86.77175">
        <ele>4061</ele>
        <time>2022-10-28T07:51:35.000Z</time>
      </trkpt>
      <trkpt lat="27.848096" lon="86.771731">
        <ele>4060.2</ele>
        <time>2022-10-28T07:51:37.000Z</time>
      </trkpt>
      <trkpt lat="27.848086" lon="86.771706">
        <ele>4059.6</ele>
        <time>2022-10-28T07:51:39.000Z</time>
      </trkpt>
      <trkpt lat="27.848067" lon="86.771693">
        <ele>4060</ele>
        <time>2022-10-28T07:51:42.000Z</time>
      </trkpt>
      <trkpt lat="27.848058" lon="86.771674">
        <ele>4060.2</ele>
        <time>2022-10-28T07:51:44.000Z</time>
      </trkpt>
      <trkpt lat="27.848038" lon="86.771661">
        <ele>4061.2</ele>
        <time>2022-10-28T07:51:51.000Z</time>
      </trkpt>
      <trkpt lat="27.848022" lon="86.771642">
        <ele>4062.2</ele>
        <time>2022-10-28T07:51:55.000Z</time>
      </trkpt>
      <trkpt lat="27.84801" lon="86.771622">
        <ele>4062.4</ele>
        <time>2022-10-28T07:51:59.000Z</time>
      </trkpt>
      <trkpt lat="27.848006" lon="86.771597">
        <ele>4062.4</ele>
        <time>2022-10-28T07:52:01.000Z</time>
      </trkpt>
      <trkpt lat="27.848006" lon="86.771571">
        <ele>4062.8</ele>
        <time>2022-10-28T07:52:04.000Z</time>
      </trkpt>
      <trkpt lat="27.848006" lon="86.771546">
        <ele>4062.8</ele>
        <time>2022-10-28T07:52:06.000Z</time>
      </trkpt>
      <trkpt lat="27.847997" lon="86.77152">
        <ele>4063.4</ele>
        <time>2022-10-28T07:52:09.000Z</time>
      </trkpt>
      <trkpt lat="27.847994" lon="86.771494">
        <ele>4062.8</ele>
        <time>2022-10-28T07:52:14.000Z</time>
      </trkpt>
      <trkpt lat="27.847987" lon="86.771469">
        <ele>4062.6</ele>
        <time>2022-10-28T07:52:21.000Z</time>
      </trkpt>
      <trkpt lat="27.847974" lon="86.771443">
        <ele>4062.2</ele>
        <time>2022-10-28T07:52:24.000Z</time>
      </trkpt>
      <trkpt lat="27.847971" lon="86.771418">
        <ele>4061.2</ele>
        <time>2022-10-28T07:52:28.000Z</time>
      </trkpt>
      <trkpt lat="27.847978" lon="86.771398">
        <ele>4060.4</ele>
        <time>2022-10-28T07:52:31.000Z</time>
      </trkpt>
      <trkpt lat="27.847978" lon="86.771373">
        <ele>4059</ele>
        <time>2022-10-28T07:52:36.000Z</time>
      </trkpt>
      <trkpt lat="27.847958" lon="86.77136">
        <ele>4057.8</ele>
        <time>2022-10-28T07:52:41.000Z</time>
      </trkpt>
      <trkpt lat="27.847955" lon="86.771334">
        <ele>4056.8</ele>
        <time>2022-10-28T07:52:45.000Z</time>
      </trkpt>
      <trkpt lat="27.847949" lon="86.771315">
        <ele>4056.4</ele>
        <time>2022-10-28T07:52:47.000Z</time>
      </trkpt>
      <trkpt lat="27.847939" lon="86.771296">
        <ele>4055.6</ele>
        <time>2022-10-28T07:52:50.000Z</time>
      </trkpt>
      <trkpt lat="27.84793" lon="86.771264">
        <ele>4054.6</ele>
        <time>2022-10-28T07:52:53.000Z</time>
      </trkpt>
      <trkpt lat="27.847926" lon="86.771238">
        <ele>4053.8</ele>
        <time>2022-10-28T07:52:55.000Z</time>
      </trkpt>
      <trkpt lat="27.847914" lon="86.771219">
        <ele>4053.2</ele>
        <time>2022-10-28T07:52:58.000Z</time>
      </trkpt>
      <trkpt lat="27.847904" lon="86.7712">
        <ele>4052.6</ele>
        <time>2022-10-28T07:53:00.000Z</time>
      </trkpt>
      <trkpt lat="27.847891" lon="86.771174">
        <ele>4050.8</ele>
        <time>2022-10-28T07:53:03.000Z</time>
      </trkpt>
      <trkpt lat="27.847882" lon="86.771149">
        <ele>4050.8</ele>
        <time>2022-10-28T07:53:05.000Z</time>
      </trkpt>
      <trkpt lat="27.847878" lon="86.771117">
        <ele>4050</ele>
        <time>2022-10-28T07:53:07.000Z</time>
      </trkpt>
      <trkpt lat="27.847878" lon="86.771078">
        <ele>4049.2</ele>
        <time>2022-10-28T07:53:10.000Z</time>
      </trkpt>
      <trkpt lat="27.847878" lon="86.771046">
        <ele>4049.2</ele>
        <time>2022-10-28T07:53:13.000Z</time>
      </trkpt>
      <trkpt lat="27.847878" lon="86.771021">
        <ele>4049</ele>
        <time>2022-10-28T07:53:18.000Z</time>
      </trkpt>
      <trkpt lat="27.847872" lon="86.771002">
        <ele>4048.8</ele>
        <time>2022-10-28T07:53:20.000Z</time>
      </trkpt>
      <trkpt lat="27.847862" lon="86.770982">
        <ele>4047.2</ele>
        <time>2022-10-28T07:53:23.000Z</time>
      </trkpt>
      <trkpt lat="27.847856" lon="86.770957">
        <ele>4046.4</ele>
        <time>2022-10-28T07:53:25.000Z</time>
      </trkpt>
      <trkpt lat="27.847846" lon="86.770925">
        <ele>4045.8</ele>
        <time>2022-10-28T07:53:28.000Z</time>
      </trkpt>
      <trkpt lat="27.84784" lon="86.770899">
        <ele>4045</ele>
        <time>2022-10-28T07:53:31.000Z</time>
      </trkpt>
      <trkpt lat="27.847843" lon="86.770861">
        <ele>4044.8</ele>
        <time>2022-10-28T07:53:33.000Z</time>
      </trkpt>
      <trkpt lat="27.847843" lon="86.770835">
        <ele>4044</ele>
        <time>2022-10-28T07:53:35.000Z</time>
      </trkpt>
      <trkpt lat="27.84784" lon="86.770803">
        <ele>4044</ele>
        <time>2022-10-28T07:53:38.000Z</time>
      </trkpt>
      <trkpt lat="27.847834" lon="86.770765">
        <ele>4043.2</ele>
        <time>2022-10-28T07:53:41.000Z</time>
      </trkpt>
      <trkpt lat="27.84783" lon="86.770739">
        <ele>4043</ele>
        <time>2022-10-28T07:53:44.000Z</time>
      </trkpt>
      <trkpt lat="27.847821" lon="86.770688">
        <ele>4043.2</ele>
        <time>2022-10-28T07:53:58.000Z</time>
      </trkpt>
      <trkpt lat="27.847814" lon="86.770662">
        <ele>4043</ele>
        <time>2022-10-28T07:54:01.000Z</time>
      </trkpt>
      <trkpt lat="27.847805" lon="86.770637">
        <ele>4042.4</ele>
        <time>2022-10-28T07:54:04.000Z</time>
      </trkpt>
      <trkpt lat="27.847786" lon="86.770618">
        <ele>4042</ele>
        <time>2022-10-28T07:54:07.000Z</time>
      </trkpt>
      <trkpt lat="27.84777" lon="86.770592">
        <ele>4041.8</ele>
        <time>2022-10-28T07:54:09.000Z</time>
      </trkpt>
      <trkpt lat="27.847754" lon="86.770566">
        <ele>4041.8</ele>
        <time>2022-10-28T07:54:11.000Z</time>
      </trkpt>
      <trkpt lat="27.847734" lon="86.770547">
        <ele>4041.2</ele>
        <time>2022-10-28T07:54:13.000Z</time>
      </trkpt>
      <trkpt lat="27.847712" lon="86.770541">
        <ele>4040.8</ele>
        <time>2022-10-28T07:54:15.000Z</time>
      </trkpt>
      <trkpt lat="27.847686" lon="86.770522">
        <ele>4041</ele>
        <time>2022-10-28T07:54:17.000Z</time>
      </trkpt>
      <trkpt lat="27.847667" lon="86.770509">
        <ele>4041</ele>
        <time>2022-10-28T07:54:19.000Z</time>
      </trkpt>
      <trkpt lat="27.847642" lon="86.770502">
        <ele>4040.8</ele>
        <time>2022-10-28T07:54:21.000Z</time>
      </trkpt>
      <trkpt lat="27.847626" lon="86.77049">
        <ele>4041</ele>
        <time>2022-10-28T07:54:23.000Z</time>
      </trkpt>
      <trkpt lat="27.847603" lon="86.770502">
        <ele>4040.2</ele>
        <time>2022-10-28T07:54:27.000Z</time>
      </trkpt>
      <trkpt lat="27.847587" lon="86.770515">
        <ele>4040.2</ele>
        <time>2022-10-28T07:54:30.000Z</time>
      </trkpt>
      <trkpt lat="27.847568" lon="86.770522">
        <ele>4040</ele>
        <time>2022-10-28T07:54:33.000Z</time>
      </trkpt>
      <trkpt lat="27.847546" lon="86.770522">
        <ele>4039.4</ele>
        <time>2022-10-28T07:54:36.000Z</time>
      </trkpt>
      <trkpt lat="27.847523" lon="86.770515">
        <ele>4039.2</ele>
        <time>2022-10-28T07:54:38.000Z</time>
      </trkpt>
      <trkpt lat="27.847504" lon="86.770502">
        <ele>4038.2</ele>
        <time>2022-10-28T07:54:40.000Z</time>
      </trkpt>
      <trkpt lat="27.847482" lon="86.77049">
        <ele>4036.8</ele>
        <time>2022-10-28T07:54:42.000Z</time>
      </trkpt>
      <trkpt lat="27.847459" lon="86.77049">
        <ele>4036.4</ele>
        <time>2022-10-28T07:54:44.000Z</time>
      </trkpt>
      <trkpt lat="27.84743" lon="86.77049">
        <ele>4035.4</ele>
        <time>2022-10-28T07:54:47.000Z</time>
      </trkpt>
      <trkpt lat="27.847411" lon="86.770502">
        <ele>4035</ele>
        <time>2022-10-28T07:54:50.000Z</time>
      </trkpt>
      <trkpt lat="27.847382" lon="86.770509">
        <ele>4034.6</ele>
        <time>2022-10-28T07:54:52.000Z</time>
      </trkpt>
      <trkpt lat="27.847357" lon="86.770509">
        <ele>4033</ele>
        <time>2022-10-28T07:54:54.000Z</time>
      </trkpt>
      <trkpt lat="27.847334" lon="86.770515">
        <ele>4033</ele>
        <time>2022-10-28T07:54:56.000Z</time>
      </trkpt>
      <trkpt lat="27.847296" lon="86.770515">
        <ele>4032.6</ele>
        <time>2022-10-28T07:55:03.000Z</time>
      </trkpt>
      <trkpt lat="27.84727" lon="86.770515">
        <ele>4032.2</ele>
        <time>2022-10-28T07:55:07.000Z</time>
      </trkpt>
      <trkpt lat="27.847251" lon="86.770515">
        <ele>4032</ele>
        <time>2022-10-28T07:55:10.000Z</time>
      </trkpt>
      <trkpt lat="27.847232" lon="86.770477">
        <ele>4033.4</ele>
        <time>2022-10-28T07:56:57.000Z</time>
      </trkpt>
      <trkpt lat="27.84727" lon="86.770502">
        <ele>4033.2</ele>
        <time>2022-10-28T07:57:26.000Z</time>
      </trkpt>
      <trkpt lat="27.847242" lon="86.770502">
        <ele>4033.2</ele>
        <time>2022-10-28T07:57:28.000Z</time>
      </trkpt>
      <trkpt lat="27.847216" lon="86.770502">
        <ele>4033</ele>
        <time>2022-10-28T07:57:30.000Z</time>
      </trkpt>
      <trkpt lat="27.847197" lon="86.770502">
        <ele>4033</ele>
        <time>2022-10-28T07:57:34.000Z</time>
      </trkpt>
      <trkpt lat="27.847178" lon="86.77049">
        <ele>4032.2</ele>
        <time>2022-10-28T07:57:58.000Z</time>
      </trkpt>
      <trkpt lat="27.847152" lon="86.770483">
        <ele>4031.8</ele>
        <time>2022-10-28T07:58:00.000Z</time>
      </trkpt>
      <trkpt lat="27.847133" lon="86.770477">
        <ele>4031</ele>
        <time>2022-10-28T07:58:02.000Z</time>
      </trkpt>
      <trkpt lat="27.847114" lon="86.770464">
        <ele>4031.4</ele>
        <time>2022-10-28T07:58:07.000Z</time>
      </trkpt>
      <trkpt lat="27.847107" lon="86.770445">
        <ele>4031</ele>
        <time>2022-10-28T07:58:09.000Z</time>
      </trkpt>
      <trkpt lat="27.847085" lon="86.770432">
        <ele>4030.8</ele>
        <time>2022-10-28T07:58:12.000Z</time>
      </trkpt>
      <trkpt lat="27.847062" lon="86.770426">
        <ele>4031</ele>
        <time>2022-10-28T07:58:33.000Z</time>
      </trkpt>
      <trkpt lat="27.847043" lon="86.770432">
        <ele>4031.2</ele>
        <time>2022-10-28T07:58:35.000Z</time>
      </trkpt>
      <trkpt lat="27.847018" lon="86.770419">
        <ele>4031.2</ele>
        <time>2022-10-28T07:58:38.000Z</time>
      </trkpt>
      <trkpt lat="27.847002" lon="86.770406">
        <ele>4030.6</ele>
        <time>2022-10-28T07:58:40.000Z</time>
      </trkpt>
      <trkpt lat="27.846982" lon="86.770394">
        <ele>4030.2</ele>
        <time>2022-10-28T07:58:42.000Z</time>
      </trkpt>
      <trkpt lat="27.846966" lon="86.770368">
        <ele>4029.2</ele>
        <time>2022-10-28T07:58:45.000Z</time>
      </trkpt>
      <trkpt lat="27.846957" lon="86.770342">
        <ele>4028.8</ele>
        <time>2022-10-28T07:58:48.000Z</time>
      </trkpt>
      <trkpt lat="27.846954" lon="86.77031">
        <ele>4028.6</ele>
        <time>2022-10-28T07:58:51.000Z</time>
      </trkpt>
      <trkpt lat="27.846944" lon="86.770285">
        <ele>4027.8</ele>
        <time>2022-10-28T07:58:53.000Z</time>
      </trkpt>
      <trkpt lat="27.846925" lon="86.770272">
        <ele>4027.6</ele>
        <time>2022-10-28T07:58:56.000Z</time>
      </trkpt>
      <trkpt lat="27.846896" lon="86.770266">
        <ele>4027.2</ele>
        <time>2022-10-28T07:58:58.000Z</time>
      </trkpt>
      <trkpt lat="27.846874" lon="86.770259">
        <ele>4026.4</ele>
        <time>2022-10-28T07:59:00.000Z</time>
      </trkpt>
      <trkpt lat="27.846858" lon="86.77024">
        <ele>4026.4</ele>
        <time>2022-10-28T07:59:02.000Z</time>
      </trkpt>
      <trkpt lat="27.846838" lon="86.770227">
        <ele>4026.8</ele>
        <time>2022-10-28T07:59:04.000Z</time>
      </trkpt>
      <trkpt lat="27.846822" lon="86.770208">
        <ele>4026.6</ele>
        <time>2022-10-28T07:59:06.000Z</time>
      </trkpt>
      <trkpt lat="27.846806" lon="86.770189">
        <ele>4025.6</ele>
        <time>2022-10-28T07:59:09.000Z</time>
      </trkpt>
      <trkpt lat="27.846787" lon="86.77017">
        <ele>4025</ele>
        <time>2022-10-28T07:59:12.000Z</time>
      </trkpt>
      <trkpt lat="27.846771" lon="86.77015">
        <ele>4023.2</ele>
        <time>2022-10-28T07:59:22.000Z</time>
      </trkpt>
      <trkpt lat="27.846778" lon="86.770131">
        <ele>4023.2</ele>
        <time>2022-10-28T07:59:27.000Z</time>
      </trkpt>
      <trkpt lat="27.846746" lon="86.770131">
        <ele>4017.4</ele>
        <time>2022-10-28T08:01:18.000Z</time>
      </trkpt>
      <trkpt lat="27.84672" lon="86.770131">
        <ele>4016.8</ele>
        <time>2022-10-28T08:01:20.000Z</time>
      </trkpt>
      <trkpt lat="27.846698" lon="86.770125">
        <ele>4016.2</ele>
        <time>2022-10-28T08:01:23.000Z</time>
      </trkpt>
      <trkpt lat="27.846678" lon="86.770112">
        <ele>4015.8</ele>
        <time>2022-10-28T08:01:25.000Z</time>
      </trkpt>
      <trkpt lat="27.846659" lon="86.770112">
        <ele>4015.6</ele>
        <time>2022-10-28T08:01:27.000Z</time>
      </trkpt>
      <trkpt lat="27.84665" lon="86.770144">
        <ele>4014.6</ele>
        <time>2022-10-28T08:01:31.000Z</time>
      </trkpt>
      <trkpt lat="27.846637" lon="86.770163">
        <ele>4013.2</ele>
        <time>2022-10-28T08:01:35.000Z</time>
      </trkpt>
      <trkpt lat="27.846618" lon="86.77017">
        <ele>4012.2</ele>
        <time>2022-10-28T08:01:38.000Z</time>
      </trkpt>
      <trkpt lat="27.846605" lon="86.77015">
        <ele>4010.6</ele>
        <time>2022-10-28T08:01:43.000Z</time>
      </trkpt>
      <trkpt lat="27.846595" lon="86.770131">
        <ele>4009.4</ele>
        <time>2022-10-28T08:01:46.000Z</time>
      </trkpt>
      <trkpt lat="27.846576" lon="86.770125">
        <ele>4008.6</ele>
        <time>2022-10-28T08:01:49.000Z</time>
      </trkpt>
      <trkpt lat="27.846557" lon="86.770112">
        <ele>4008.6</ele>
        <time>2022-10-28T08:01:52.000Z</time>
      </trkpt>
      <trkpt lat="27.846538" lon="86.770093">
        <ele>4006.8</ele>
        <time>2022-10-28T08:01:55.000Z</time>
      </trkpt>
      <trkpt lat="27.846522" lon="86.770106">
        <ele>4005.8</ele>
        <time>2022-10-28T08:01:59.000Z</time>
      </trkpt>
      <trkpt lat="27.846528" lon="86.770125">
        <ele>4004.8</ele>
        <time>2022-10-28T08:02:05.000Z</time>
      </trkpt>
      <trkpt lat="27.846534" lon="86.77015">
        <ele>4003.8</ele>
        <time>2022-10-28T08:02:08.000Z</time>
      </trkpt>
      <trkpt lat="27.846541" lon="86.77017">
        <ele>4003</ele>
        <time>2022-10-28T08:02:12.000Z</time>
      </trkpt>
      <trkpt lat="27.846534" lon="86.770189">
        <ele>4002.4</ele>
        <time>2022-10-28T08:02:15.000Z</time>
      </trkpt>
      <trkpt lat="27.846512" lon="86.770189">
        <ele>4000.8</ele>
        <time>2022-10-28T08:02:20.000Z</time>
      </trkpt>
      <trkpt lat="27.846499" lon="86.77017">
        <ele>4000.2</ele>
        <time>2022-10-28T08:02:23.000Z</time>
      </trkpt>
      <trkpt lat="27.84649" lon="86.77015">
        <ele>3999.4</ele>
        <time>2022-10-28T08:02:27.000Z</time>
      </trkpt>
      <trkpt lat="27.846493" lon="86.770182">
        <ele>3998.8</ele>
        <time>2022-10-28T08:02:32.000Z</time>
      </trkpt>
      <trkpt lat="27.84649" lon="86.770208">
        <ele>3997.8</ele>
        <time>2022-10-28T08:02:35.000Z</time>
      </trkpt>
      <trkpt lat="27.846477" lon="86.770227">
        <ele>3997.6</ele>
        <time>2022-10-28T08:02:37.000Z</time>
      </trkpt>
      <trkpt lat="27.846467" lon="86.770208">
        <ele>3995.6</ele>
        <time>2022-10-28T08:02:41.000Z</time>
      </trkpt>
      <trkpt lat="27.846461" lon="86.770182">
        <ele>3995.4</ele>
        <time>2022-10-28T08:02:45.000Z</time>
      </trkpt>
      <trkpt lat="27.846445" lon="86.77017">
        <ele>3994.4</ele>
        <time>2022-10-28T08:02:48.000Z</time>
      </trkpt>
      <trkpt lat="27.846435" lon="86.77015">
        <ele>3993.6</ele>
        <time>2022-10-28T08:02:51.000Z</time>
      </trkpt>
      <trkpt lat="27.846426" lon="86.770131">
        <ele>3994</ele>
        <time>2022-10-28T08:02:53.000Z</time>
      </trkpt>
      <trkpt lat="27.84641" lon="86.770118">
        <ele>3992</ele>
        <time>2022-10-28T08:02:58.000Z</time>
      </trkpt>
      <trkpt lat="27.8464" lon="86.770144">
        <ele>3991.8</ele>
        <time>2022-10-28T08:03:01.000Z</time>
      </trkpt>
      <trkpt lat="27.846381" lon="86.770144">
        <ele>3990.6</ele>
        <time>2022-10-28T08:03:05.000Z</time>
      </trkpt>
      <trkpt lat="27.846374" lon="86.770118">
        <ele>3989.6</ele>
        <time>2022-10-28T08:03:08.000Z</time>
      </trkpt>
      <trkpt lat="27.846355" lon="86.770112">
        <ele>3989.2</ele>
        <time>2022-10-28T08:03:12.000Z</time>
      </trkpt>
      <trkpt lat="27.846333" lon="86.770093">
        <ele>3988</ele>
        <time>2022-10-28T08:03:15.000Z</time>
      </trkpt>
      <trkpt lat="27.84631" lon="86.770086">
        <ele>3987.4</ele>
        <time>2022-10-28T08:03:20.000Z</time>
      </trkpt>
      <trkpt lat="27.846294" lon="86.770074">
        <ele>3986.2</ele>
        <time>2022-10-28T08:03:24.000Z</time>
      </trkpt>
      <trkpt lat="27.846272" lon="86.770067">
        <ele>3985.8</ele>
        <time>2022-10-28T08:03:27.000Z</time>
      </trkpt>
      <trkpt lat="27.846253" lon="86.770061">
        <ele>3984.8</ele>
        <time>2022-10-28T08:03:29.000Z</time>
      </trkpt>
      <trkpt lat="27.84624" lon="86.770035">
        <ele>3984.2</ele>
        <time>2022-10-28T08:03:31.000Z</time>
      </trkpt>
      <trkpt lat="27.846221" lon="86.770022">
        <ele>3984.2</ele>
        <time>2022-10-28T08:03:33.000Z</time>
      </trkpt>
      <trkpt lat="27.846205" lon="86.770003">
        <ele>3984</ele>
        <time>2022-10-28T08:03:35.000Z</time>
      </trkpt>
      <trkpt lat="27.846192" lon="86.769984">
        <ele>3984.6</ele>
        <time>2022-10-28T08:03:37.000Z</time>
      </trkpt>
      <trkpt lat="27.846179" lon="86.769965">
        <ele>3984.6</ele>
        <time>2022-10-28T08:03:39.000Z</time>
      </trkpt>
      <trkpt lat="27.84617" lon="86.769946">
        <ele>3984</ele>
        <time>2022-10-28T08:03:41.000Z</time>
      </trkpt>
      <trkpt lat="27.84616" lon="86.769926">
        <ele>3984</ele>
        <time>2022-10-28T08:03:42.000Z</time>
      </trkpt>
      <trkpt lat="27.846138" lon="86.769907">
        <ele>3983.8</ele>
        <time>2022-10-28T08:03:45.000Z</time>
      </trkpt>
      <trkpt lat="27.846131" lon="86.769888">
        <ele>3983.4</ele>
        <time>2022-10-28T08:03:46.000Z</time>
      </trkpt>
      <trkpt lat="27.846112" lon="86.769875">
        <ele>3983.2</ele>
        <time>2022-10-28T08:03:48.000Z</time>
      </trkpt>
      <trkpt lat="27.846093" lon="86.769862">
        <ele>3983.4</ele>
        <time>2022-10-28T08:03:50.000Z</time>
      </trkpt>
      <trkpt lat="27.84608" lon="86.769837">
        <ele>3983.2</ele>
        <time>2022-10-28T08:03:52.000Z</time>
      </trkpt>
      <trkpt lat="27.84607" lon="86.769811">
        <ele>3983.2</ele>
        <time>2022-10-28T08:03:55.000Z</time>
      </trkpt>
      <trkpt lat="27.846058" lon="86.769786">
        <ele>3982.8</ele>
        <time>2022-10-28T08:03:58.000Z</time>
      </trkpt>
      <trkpt lat="27.846042" lon="86.76976">
        <ele>3982.6</ele>
        <time>2022-10-28T08:04:00.000Z</time>
      </trkpt>
      <trkpt lat="27.846026" lon="86.769747">
        <ele>3982.2</ele>
        <time>2022-10-28T08:04:02.000Z</time>
      </trkpt>
      <trkpt lat="27.846016" lon="86.769728">
        <ele>3982.2</ele>
        <time>2022-10-28T08:04:03.000Z</time>
      </trkpt>
      <trkpt lat="27.846" lon="86.769709">
        <ele>3982.2</ele>
        <time>2022-10-28T08:04:06.000Z</time>
      </trkpt>
      <trkpt lat="27.845994" lon="86.76969">
        <ele>3982.4</ele>
        <time>2022-10-28T08:04:07.000Z</time>
      </trkpt>
      <trkpt lat="27.845984" lon="86.76967">
        <ele>3982.4</ele>
        <time>2022-10-28T08:04:11.000Z</time>
      </trkpt>
      <trkpt lat="27.845978" lon="86.769651">
        <ele>3982.2</ele>
        <time>2022-10-28T08:04:13.000Z</time>
      </trkpt>
      <trkpt lat="27.845962" lon="86.769638">
        <ele>3982</ele>
        <time>2022-10-28T08:04:16.000Z</time>
      </trkpt>
      <trkpt lat="27.845939" lon="86.769638">
        <ele>3980.6</ele>
        <time>2022-10-28T08:04:20.000Z</time>
      </trkpt>
      <trkpt lat="27.845923" lon="86.769626">
        <ele>3980.4</ele>
        <time>2022-10-28T08:04:23.000Z</time>
      </trkpt>
      <trkpt lat="27.845904" lon="86.769613">
        <ele>3980.2</ele>
        <time>2022-10-28T08:04:26.000Z</time>
      </trkpt>
      <trkpt lat="27.845885" lon="86.7696">
        <ele>3979.8</ele>
        <time>2022-10-28T08:04:29.000Z</time>
      </trkpt>
      <trkpt lat="27.845866" lon="86.769594">
        <ele>3979.4</ele>
        <time>2022-10-28T08:04:32.000Z</time>
      </trkpt>
      <trkpt lat="27.84585" lon="86.769574">
        <ele>3978.6</ele>
        <time>2022-10-28T08:04:35.000Z</time>
      </trkpt>
      <trkpt lat="27.845827" lon="86.769562">
        <ele>3977.6</ele>
        <time>2022-10-28T08:04:39.000Z</time>
      </trkpt>
      <trkpt lat="27.845805" lon="86.769562">
        <ele>3977.6</ele>
        <time>2022-10-28T08:04:42.000Z</time>
      </trkpt>
      <trkpt lat="27.845789" lon="86.769536">
        <ele>3976.4</ele>
        <time>2022-10-28T08:04:45.000Z</time>
      </trkpt>
      <trkpt lat="27.845773" lon="86.769517">
        <ele>3975.6</ele>
        <time>2022-10-28T08:04:48.000Z</time>
      </trkpt>
      <trkpt lat="27.84576" lon="86.769498">
        <ele>3975.6</ele>
        <time>2022-10-28T08:04:50.000Z</time>
      </trkpt>
      <trkpt lat="27.845741" lon="86.769478">
        <ele>3975.6</ele>
        <time>2022-10-28T08:04:53.000Z</time>
      </trkpt>
      <trkpt lat="27.845725" lon="86.769466">
        <ele>3975.6</ele>
        <time>2022-10-28T08:04:55.000Z</time>
      </trkpt>
      <trkpt lat="27.845709" lon="86.769446">
        <ele>3975</ele>
        <time>2022-10-28T08:04:57.000Z</time>
      </trkpt>
      <trkpt lat="27.84569" lon="86.76944">
        <ele>3974.4</ele>
        <time>2022-10-28T08:04:59.000Z</time>
      </trkpt>
      <trkpt lat="27.845648" lon="86.769414">
        <ele>3973.4</ele>
        <time>2022-10-28T08:05:03.000Z</time>
      </trkpt>
      <trkpt lat="27.845632" lon="86.769402">
        <ele>3973</ele>
        <time>2022-10-28T08:05:05.000Z</time>
      </trkpt>
      <trkpt lat="27.845606" lon="86.769389">
        <ele>3972.8</ele>
        <time>2022-10-28T08:05:07.000Z</time>
      </trkpt>
      <trkpt lat="27.845584" lon="86.769376">
        <ele>3972.8</ele>
        <time>2022-10-28T08:05:09.000Z</time>
      </trkpt>
      <trkpt lat="27.845565" lon="86.769376">
        <ele>3973.2</ele>
        <time>2022-10-28T08:05:11.000Z</time>
      </trkpt>
      <trkpt lat="27.845546" lon="86.76937">
        <ele>3973.6</ele>
        <time>2022-10-28T08:05:13.000Z</time>
      </trkpt>
      <trkpt lat="27.845523" lon="86.769357">
        <ele>3974.2</ele>
        <time>2022-10-28T08:05:16.000Z</time>
      </trkpt>
      <trkpt lat="27.845504" lon="86.76935">
        <ele>3974.2</ele>
        <time>2022-10-28T08:05:18.000Z</time>
      </trkpt>
      <trkpt lat="27.845488" lon="86.769338">
        <ele>3975</ele>
        <time>2022-10-28T08:05:20.000Z</time>
      </trkpt>
      <trkpt lat="27.845469" lon="86.769338">
        <ele>3975.2</ele>
        <time>2022-10-28T08:05:22.000Z</time>
      </trkpt>
      <trkpt lat="27.845443" lon="86.769338">
        <ele>3975.4</ele>
        <time>2022-10-28T08:05:25.000Z</time>
      </trkpt>
      <trkpt lat="27.845424" lon="86.769338">
        <ele>3974.8</ele>
        <time>2022-10-28T08:05:27.000Z</time>
      </trkpt>
      <trkpt lat="27.845386" lon="86.769331">
        <ele>3974.2</ele>
        <time>2022-10-28T08:05:34.000Z</time>
      </trkpt>
      <trkpt lat="27.845366" lon="86.769325">
        <ele>3973.2</ele>
        <time>2022-10-28T08:05:39.000Z</time>
      </trkpt>
      <trkpt lat="27.845347" lon="86.769325">
        <ele>3972.4</ele>
        <time>2022-10-28T08:05:42.000Z</time>
      </trkpt>
      <trkpt lat="27.845325" lon="86.769325">
        <ele>3972</ele>
        <time>2022-10-28T08:05:47.000Z</time>
      </trkpt>
      <trkpt lat="27.845306" lon="86.769325">
        <ele>3971.6</ele>
        <time>2022-10-28T08:05:58.000Z</time>
      </trkpt>
      <trkpt lat="27.845283" lon="86.769325">
        <ele>3971.6</ele>
        <time>2022-10-28T08:06:01.000Z</time>
      </trkpt>
      <trkpt lat="27.845264" lon="86.769318">
        <ele>3971.2</ele>
        <time>2022-10-28T08:06:04.000Z</time>
      </trkpt>
      <trkpt lat="27.845245" lon="86.769299">
        <ele>3971</ele>
        <time>2022-10-28T08:06:10.000Z</time>
      </trkpt>
      <trkpt lat="27.845229" lon="86.76928">
        <ele>3969.8</ele>
        <time>2022-10-28T08:06:18.000Z</time>
      </trkpt>
      <trkpt lat="27.845226" lon="86.769254">
        <ele>3970</ele>
        <time>2022-10-28T08:06:20.000Z</time>
      </trkpt>
      <trkpt lat="27.845216" lon="86.769235">
        <ele>3969.2</ele>
        <time>2022-10-28T08:06:23.000Z</time>
      </trkpt>
      <trkpt lat="27.84521" lon="86.769216">
        <ele>3969</ele>
        <time>2022-10-28T08:06:24.000Z</time>
      </trkpt>
      <trkpt lat="27.845197" lon="86.76919">
        <ele>3968</ele>
        <time>2022-10-28T08:06:27.000Z</time>
      </trkpt>
      <trkpt lat="27.845187" lon="86.769165">
        <ele>3967.8</ele>
        <time>2022-10-28T08:06:29.000Z</time>
      </trkpt>
      <trkpt lat="27.845184" lon="86.769139">
        <ele>3967.8</ele>
        <time>2022-10-28T08:06:31.000Z</time>
      </trkpt>
      <trkpt lat="27.845178" lon="86.769114">
        <ele>3968</ele>
        <time>2022-10-28T08:06:33.000Z</time>
      </trkpt>
      <trkpt lat="27.845168" lon="86.769094">
        <ele>3967.6</ele>
        <time>2022-10-28T08:06:35.000Z</time>
      </trkpt>
      <trkpt lat="27.845162" lon="86.769075">
        <ele>3967</ele>
        <time>2022-10-28T08:06:38.000Z</time>
      </trkpt>
      <trkpt lat="27.845158" lon="86.76905">
        <ele>3967</ele>
        <time>2022-10-28T08:06:41.000Z</time>
      </trkpt>
      <trkpt lat="27.845155" lon="86.769018">
        <ele>3968.8</ele>
        <time>2022-10-28T08:06:45.000Z</time>
      </trkpt>
      <trkpt lat="27.845149" lon="86.768998">
        <ele>3970.2</ele>
        <time>2022-10-28T08:06:50.000Z</time>
      </trkpt>
      <trkpt lat="27.845149" lon="86.768973">
        <ele>3970.6</ele>
        <time>2022-10-28T08:06:54.000Z</time>
      </trkpt>
      <trkpt lat="27.845142" lon="86.768954">
        <ele>3971.6</ele>
        <time>2022-10-28T08:07:04.000Z</time>
      </trkpt>
      <trkpt lat="27.845136" lon="86.768934">
        <ele>3972</ele>
        <time>2022-10-28T08:07:06.000Z</time>
      </trkpt>
      <trkpt lat="27.84513" lon="86.768915">
        <ele>3973.2</ele>
        <time>2022-10-28T08:07:10.000Z</time>
      </trkpt>
      <trkpt lat="27.84513" lon="86.76889">
        <ele>3974</ele>
        <time>2022-10-28T08:07:15.000Z</time>
      </trkpt>
      <trkpt lat="27.845117" lon="86.76887">
        <ele>3975.4</ele>
        <time>2022-10-28T08:07:23.000Z</time>
      </trkpt>
      <trkpt lat="27.84511" lon="86.768851">
        <ele>3975.4</ele>
        <time>2022-10-28T08:07:27.000Z</time>
      </trkpt>
      <trkpt lat="27.845094" lon="86.768832">
        <ele>3977.4</ele>
        <time>2022-10-28T08:07:36.000Z</time>
      </trkpt>
      <trkpt lat="27.845091" lon="86.7688">
        <ele>3978.2</ele>
        <time>2022-10-28T08:07:56.000Z</time>
      </trkpt>
      <trkpt lat="27.845101" lon="86.768755">
        <ele>3979.8</ele>
        <time>2022-10-28T08:08:23.000Z</time>
      </trkpt>
      <trkpt lat="27.845104" lon="86.76873">
        <ele>3980</ele>
        <time>2022-10-28T08:08:25.000Z</time>
      </trkpt>
      <trkpt lat="27.845114" lon="86.768698">
        <ele>3980.6</ele>
        <time>2022-10-28T08:08:27.000Z</time>
      </trkpt>
      <trkpt lat="27.84513" lon="86.768672">
        <ele>3981.8</ele>
        <time>2022-10-28T08:08:30.000Z</time>
      </trkpt>
      <trkpt lat="27.845136" lon="86.768646">
        <ele>3981.8</ele>
        <time>2022-10-28T08:08:32.000Z</time>
      </trkpt>
      <trkpt lat="27.84513" lon="86.768621">
        <ele>3982</ele>
        <time>2022-10-28T08:08:36.000Z</time>
      </trkpt>
      <trkpt lat="27.84512" lon="86.768602">
        <ele>3982.6</ele>
        <time>2022-10-28T08:08:40.000Z</time>
      </trkpt>
      <trkpt lat="27.845117" lon="86.76857">
        <ele>3983.6</ele>
        <time>2022-10-28T08:08:44.000Z</time>
      </trkpt>
      <trkpt lat="27.845107" lon="86.768544">
        <ele>3984.4</ele>
        <time>2022-10-28T08:08:48.000Z</time>
      </trkpt>
      <trkpt lat="27.845101" lon="86.768525">
        <ele>3984.4</ele>
        <time>2022-10-28T08:08:51.000Z</time>
      </trkpt>
      <trkpt lat="27.845091" lon="86.768499">
        <ele>3984.4</ele>
        <time>2022-10-28T08:08:53.000Z</time>
      </trkpt>
      <trkpt lat="27.845072" lon="86.768486">
        <ele>3985</ele>
        <time>2022-10-28T08:08:57.000Z</time>
      </trkpt>
      <trkpt lat="27.84505" lon="86.768474">
        <ele>3985.4</ele>
        <time>2022-10-28T08:09:00.000Z</time>
      </trkpt>
      <trkpt lat="27.845046" lon="86.768448">
        <ele>3986</ele>
        <time>2022-10-28T08:09:03.000Z</time>
      </trkpt>
      <trkpt lat="27.845037" lon="86.768422">
        <ele>3986.4</ele>
        <time>2022-10-28T08:09:08.000Z</time>
      </trkpt>
      <trkpt lat="27.845021" lon="86.768403">
        <ele>3987.6</ele>
        <time>2022-10-28T08:09:16.000Z</time>
      </trkpt>
      <trkpt lat="27.845011" lon="86.768384">
        <ele>3988.2</ele>
        <time>2022-10-28T08:09:20.000Z</time>
      </trkpt>
      <trkpt lat="27.844992" lon="86.768371">
        <ele>3988.6</ele>
        <time>2022-10-28T08:09:25.000Z</time>
      </trkpt>
      <trkpt lat="27.84497" lon="86.768358">
        <ele>3989.8</ele>
        <time>2022-10-28T08:09:32.000Z</time>
      </trkpt>
      <trkpt lat="27.844947" lon="86.768358">
        <ele>3990.4</ele>
        <time>2022-10-28T08:09:36.000Z</time>
      </trkpt>
      <trkpt lat="27.844931" lon="86.768339">
        <ele>3990.4</ele>
        <time>2022-10-28T08:09:40.000Z</time>
      </trkpt>
      <trkpt lat="27.844912" lon="86.768333">
        <ele>3991.4</ele>
        <time>2022-10-28T08:09:46.000Z</time>
      </trkpt>
      <trkpt lat="27.844896" lon="86.76832">
        <ele>3992</ele>
        <time>2022-10-28T08:09:50.000Z</time>
      </trkpt>
      <trkpt lat="27.84488" lon="86.768301">
        <ele>3993</ele>
        <time>2022-10-28T08:09:54.000Z</time>
      </trkpt>
      <trkpt lat="27.844861" lon="86.768294">
        <ele>3993</ele>
        <time>2022-10-28T08:09:57.000Z</time>
      </trkpt>
      <trkpt lat="27.844842" lon="86.768288">
        <ele>3993.2</ele>
        <time>2022-10-28T08:09:59.000Z</time>
      </trkpt>
      <trkpt lat="27.844822" lon="86.768275">
        <ele>3993.2</ele>
        <time>2022-10-28T08:10:01.000Z</time>
      </trkpt>
      <trkpt lat="27.844813" lon="86.76825">
        <ele>3993.2</ele>
        <time>2022-10-28T08:10:03.000Z</time>
      </trkpt>
      <trkpt lat="27.84481" lon="86.768218">
        <ele>3993.6</ele>
        <time>2022-10-28T08:10:05.000Z</time>
      </trkpt>
      <trkpt lat="27.844813" lon="86.768179">
        <ele>3993.8</ele>
        <time>2022-10-28T08:10:07.000Z</time>
      </trkpt>
      <trkpt lat="27.844813" lon="86.768141">
        <ele>3994.2</ele>
        <time>2022-10-28T08:10:10.000Z</time>
      </trkpt>
      <trkpt lat="27.844803" lon="86.768122">
        <ele>3994.2</ele>
        <time>2022-10-28T08:10:12.000Z</time>
      </trkpt>
      <trkpt lat="27.844787" lon="86.768102">
        <ele>3994.6</ele>
        <time>2022-10-28T08:10:14.000Z</time>
      </trkpt>
      <trkpt lat="27.844768" lon="86.768083">
        <ele>3994.2</ele>
        <time>2022-10-28T08:10:16.000Z</time>
      </trkpt>
      <trkpt lat="27.844755" lon="86.768058">
        <ele>3993.4</ele>
        <time>2022-10-28T08:10:18.000Z</time>
      </trkpt>
      <trkpt lat="27.844742" lon="86.768038">
        <ele>3993.6</ele>
        <time>2022-10-28T08:10:20.000Z</time>
      </trkpt>
      <trkpt lat="27.844739" lon="86.768013">
        <ele>3993.2</ele>
        <time>2022-10-28T08:10:22.000Z</time>
      </trkpt>
      <trkpt lat="27.844739" lon="86.767987">
        <ele>3992.8</ele>
        <time>2022-10-28T08:10:24.000Z</time>
      </trkpt>
      <trkpt lat="27.844739" lon="86.767962">
        <ele>3994.4</ele>
        <time>2022-10-28T08:10:28.000Z</time>
      </trkpt>
      <trkpt lat="27.844742" lon="86.767936">
        <ele>3994.2</ele>
        <time>2022-10-28T08:10:31.000Z</time>
      </trkpt>
      <trkpt lat="27.844742" lon="86.767904">
        <ele>3995.4</ele>
        <time>2022-10-28T08:10:36.000Z</time>
      </trkpt>
      <trkpt lat="27.844749" lon="86.767885">
        <ele>3995.6</ele>
        <time>2022-10-28T08:10:40.000Z</time>
      </trkpt>
      <trkpt lat="27.844755" lon="86.767866">
        <ele>3995.8</ele>
        <time>2022-10-28T08:10:43.000Z</time>
      </trkpt>
      <trkpt lat="27.844771" lon="86.767846">
        <ele>3996.6</ele>
        <time>2022-10-28T08:10:48.000Z</time>
      </trkpt>
      <trkpt lat="27.844771" lon="86.767821">
        <ele>3997.2</ele>
        <time>2022-10-28T08:10:53.000Z</time>
      </trkpt>
      <trkpt lat="27.844762" lon="86.767802">
        <ele>3997.4</ele>
        <time>2022-10-28T08:10:56.000Z</time>
      </trkpt>
      <trkpt lat="27.844752" lon="86.767776">
        <ele>3997.6</ele>
        <time>2022-10-28T08:10:59.000Z</time>
      </trkpt>
      <trkpt lat="27.844752" lon="86.767744">
        <ele>3994.4</ele>
        <time>2022-10-28T08:11:34.000Z</time>
      </trkpt>
      <trkpt lat="27.844758" lon="86.767718">
        <ele>3993.8</ele>
        <time>2022-10-28T08:11:37.000Z</time>
      </trkpt>
      <trkpt lat="27.844762" lon="86.767693">
        <ele>3993.4</ele>
        <time>2022-10-28T08:11:39.000Z</time>
      </trkpt>
      <trkpt lat="27.844762" lon="86.767667">
        <ele>3992.8</ele>
        <time>2022-10-28T08:11:42.000Z</time>
      </trkpt>
      <trkpt lat="27.844768" lon="86.767648">
        <ele>3991.8</ele>
        <time>2022-10-28T08:11:45.000Z</time>
      </trkpt>
      <trkpt lat="27.844762" lon="86.767622">
        <ele>3990.6</ele>
        <time>2022-10-28T08:11:49.000Z</time>
      </trkpt>
      <trkpt lat="27.844755" lon="86.76759">
        <ele>3989.6</ele>
        <time>2022-10-28T08:11:52.000Z</time>
      </trkpt>
      <trkpt lat="27.844752" lon="86.767558">
        <ele>3988.8</ele>
        <time>2022-10-28T08:11:55.000Z</time>
      </trkpt>
      <trkpt lat="27.844749" lon="86.767533">
        <ele>3988.2</ele>
        <time>2022-10-28T08:11:57.000Z</time>
      </trkpt>
      <trkpt lat="27.844742" lon="86.767507">
        <ele>3987.6</ele>
        <time>2022-10-28T08:11:59.000Z</time>
      </trkpt>
      <trkpt lat="27.84473" lon="86.767488">
        <ele>3987.6</ele>
        <time>2022-10-28T08:12:02.000Z</time>
      </trkpt>
      <trkpt lat="27.84472" lon="86.767462">
        <ele>3987.6</ele>
        <time>2022-10-28T08:12:04.000Z</time>
      </trkpt>
      <trkpt lat="27.84471" lon="86.767443">
        <ele>3987.6</ele>
        <time>2022-10-28T08:12:06.000Z</time>
      </trkpt>
      <trkpt lat="27.844694" lon="86.767424">
        <ele>3987.4</ele>
        <time>2022-10-28T08:12:08.000Z</time>
      </trkpt>
      <trkpt lat="27.844669" lon="86.767411">
        <ele>3987.2</ele>
        <time>2022-10-28T08:12:11.000Z</time>
      </trkpt>
      <trkpt lat="27.844653" lon="86.767392">
        <ele>3986.6</ele>
        <time>2022-10-28T08:12:13.000Z</time>
      </trkpt>
      <trkpt lat="27.84464" lon="86.767366">
        <ele>3985.8</ele>
        <time>2022-10-28T08:12:16.000Z</time>
      </trkpt>
      <trkpt lat="27.844634" lon="86.767341">
        <ele>3985</ele>
        <time>2022-10-28T08:12:18.000Z</time>
      </trkpt>
      <trkpt lat="27.84463" lon="86.767309">
        <ele>3984.8</ele>
        <time>2022-10-28T08:12:20.000Z</time>
      </trkpt>
      <trkpt lat="27.844621" lon="86.767283">
        <ele>3984.8</ele>
        <time>2022-10-28T08:12:23.000Z</time>
      </trkpt>
      <trkpt lat="27.844602" lon="86.767264">
        <ele>3985.2</ele>
        <time>2022-10-28T08:12:26.000Z</time>
      </trkpt>
      <trkpt lat="27.844586" lon="86.767232">
        <ele>3984.8</ele>
        <time>2022-10-28T08:12:29.000Z</time>
      </trkpt>
      <trkpt lat="27.844566" lon="86.767213">
        <ele>3984.8</ele>
        <time>2022-10-28T08:12:32.000Z</time>
      </trkpt>
      <trkpt lat="27.844544" lon="86.767206">
        <ele>3984.8</ele>
        <time>2022-10-28T08:12:35.000Z</time>
      </trkpt>
      <trkpt lat="27.844525" lon="86.767187">
        <ele>3984.2</ele>
        <time>2022-10-28T08:12:38.000Z</time>
      </trkpt>
      <trkpt lat="27.844515" lon="86.767168">
        <ele>3983.8</ele>
        <time>2022-10-28T08:12:45.000Z</time>
      </trkpt>
      <trkpt lat="27.844502" lon="86.767149">
        <ele>3983.6</ele>
        <time>2022-10-28T08:12:48.000Z</time>
      </trkpt>
      <trkpt lat="27.844486" lon="86.767136">
        <ele>3982.6</ele>
        <time>2022-10-28T08:12:51.000Z</time>
      </trkpt>
      <trkpt lat="27.844483" lon="86.76711">
        <ele>3981.8</ele>
        <time>2022-10-28T08:13:00.000Z</time>
      </trkpt>
      <trkpt lat="27.844499" lon="86.767091">
        <ele>3982</ele>
        <time>2022-10-28T08:13:04.000Z</time>
      </trkpt>
      <trkpt lat="27.844512" lon="86.767072">
        <ele>3982</ele>
        <time>2022-10-28T08:13:06.000Z</time>
      </trkpt>
      <trkpt lat="27.844528" lon="86.767053">
        <ele>3980.6</ele>
        <time>2022-10-28T08:13:10.000Z</time>
      </trkpt>
      <trkpt lat="27.844544" lon="86.767034">
        <ele>3980</ele>
        <time>2022-10-28T08:13:12.000Z</time>
      </trkpt>
      <trkpt lat="27.844563" lon="86.767014">
        <ele>3979</ele>
        <time>2022-10-28T08:13:15.000Z</time>
      </trkpt>
      <trkpt lat="27.844576" lon="86.766995">
        <ele>3978.2</ele>
        <time>2022-10-28T08:13:17.000Z</time>
      </trkpt>
      <trkpt lat="27.844589" lon="86.766976">
        <ele>3977.4</ele>
        <time>2022-10-28T08:13:20.000Z</time>
      </trkpt>
      <trkpt lat="27.844602" lon="86.76695">
        <ele>3976.8</ele>
        <time>2022-10-28T08:13:22.000Z</time>
      </trkpt>
      <trkpt lat="27.844618" lon="86.766931">
        <ele>3976.4</ele>
        <time>2022-10-28T08:13:25.000Z</time>
      </trkpt>
      <trkpt lat="27.844634" lon="86.766912">
        <ele>3975.8</ele>
        <time>2022-10-28T08:13:28.000Z</time>
      </trkpt>
      <trkpt lat="27.844643" lon="86.766893">
        <ele>3975</ele>
        <time>2022-10-28T08:13:30.000Z</time>
      </trkpt>
      <trkpt lat="27.844653" lon="86.766874">
        <ele>3974.4</ele>
        <time>2022-10-28T08:13:32.000Z</time>
      </trkpt>
      <trkpt lat="27.844669" lon="86.766861">
        <ele>3973.2</ele>
        <time>2022-10-28T08:13:35.000Z</time>
      </trkpt>
      <trkpt lat="27.844685" lon="86.766835">
        <ele>3972.4</ele>
        <time>2022-10-28T08:13:38.000Z</time>
      </trkpt>
      <trkpt lat="27.844698" lon="86.766816">
        <ele>3971.8</ele>
        <time>2022-10-28T08:13:41.000Z</time>
      </trkpt>
      <trkpt lat="27.84471" lon="86.766797">
        <ele>3970.8</ele>
        <time>2022-10-28T08:13:43.000Z</time>
      </trkpt>
      <trkpt lat="27.844714" lon="86.766771">
        <ele>3969.8</ele>
        <time>2022-10-28T08:13:47.000Z</time>
      </trkpt>
      <trkpt lat="27.844714" lon="86.766746">
        <ele>3968.2</ele>
        <time>2022-10-28T08:13:50.000Z</time>
      </trkpt>
      <trkpt lat="27.844726" lon="86.766726">
        <ele>3967.8</ele>
        <time>2022-10-28T08:13:54.000Z</time>
      </trkpt>
      <trkpt lat="27.844733" lon="86.766701">
        <ele>3967</ele>
        <time>2022-10-28T08:13:56.000Z</time>
      </trkpt>
      <trkpt lat="27.844746" lon="86.766675">
        <ele>3966.6</ele>
        <time>2022-10-28T08:13:58.000Z</time>
      </trkpt>
      <trkpt lat="27.844742" lon="86.76665">
        <ele>3965.2</ele>
        <time>2022-10-28T08:14:01.000Z</time>
      </trkpt>
      <trkpt lat="27.844742" lon="86.766618">
        <ele>3964.8</ele>
        <time>2022-10-28T08:14:03.000Z</time>
      </trkpt>
      <trkpt lat="27.844733" lon="86.766592">
        <ele>3964.2</ele>
        <time>2022-10-28T08:14:05.000Z</time>
      </trkpt>
      <trkpt lat="27.844726" lon="86.766566">
        <ele>3963.8</ele>
        <time>2022-10-28T08:14:07.000Z</time>
      </trkpt>
      <trkpt lat="27.844723" lon="86.766534">
        <ele>3963.6</ele>
        <time>2022-10-28T08:14:09.000Z</time>
      </trkpt>
      <trkpt lat="27.84472" lon="86.766502">
        <ele>3963.2</ele>
        <time>2022-10-28T08:14:11.000Z</time>
      </trkpt>
      <trkpt lat="27.84472" lon="86.766477">
        <ele>3963.2</ele>
        <time>2022-10-28T08:14:13.000Z</time>
      </trkpt>
      <trkpt lat="27.84472" lon="86.766438">
        <ele>3962.8</ele>
        <time>2022-10-28T08:14:16.000Z</time>
      </trkpt>
      <trkpt lat="27.844704" lon="86.766426">
        <ele>3962.4</ele>
        <time>2022-10-28T08:14:19.000Z</time>
      </trkpt>
      <trkpt lat="27.844688" lon="86.766413">
        <ele>3961</ele>
        <time>2022-10-28T08:14:32.000Z</time>
      </trkpt>
      <trkpt lat="27.844682" lon="86.766394">
        <ele>3960.6</ele>
        <time>2022-10-28T08:16:51.000Z</time>
      </trkpt>
      <trkpt lat="27.844662" lon="86.766374">
        <ele>3960.4</ele>
        <time>2022-10-28T08:16:53.000Z</time>
      </trkpt>
      <trkpt lat="27.844653" lon="86.766349">
        <ele>3960.8</ele>
        <time>2022-10-28T08:16:55.000Z</time>
      </trkpt>
      <trkpt lat="27.844634" lon="86.76633">
        <ele>3961.4</ele>
        <time>2022-10-28T08:16:58.000Z</time>
      </trkpt>
      <trkpt lat="27.844621" lon="86.76631">
        <ele>3961.4</ele>
        <time>2022-10-28T08:17:01.000Z</time>
      </trkpt>
      <trkpt lat="27.844602" lon="86.766298">
        <ele>3961.8</ele>
        <time>2022-10-28T08:17:04.000Z</time>
      </trkpt>
      <trkpt lat="27.844589" lon="86.766278">
        <ele>3961.6</ele>
        <time>2022-10-28T08:17:06.000Z</time>
      </trkpt>
      <trkpt lat="27.84457" lon="86.766259">
        <ele>3961.8</ele>
        <time>2022-10-28T08:17:10.000Z</time>
      </trkpt>
      <trkpt lat="27.844563" lon="86.76624">
        <ele>3962.2</ele>
        <time>2022-10-28T08:17:11.000Z</time>
      </trkpt>
      <trkpt lat="27.844541" lon="86.766221">
        <ele>3961.8</ele>
        <time>2022-10-28T08:17:15.000Z</time>
      </trkpt>
      <trkpt lat="27.844515" lon="86.766208">
        <ele>3961.6</ele>
        <time>2022-10-28T08:17:18.000Z</time>
      </trkpt>
      <trkpt lat="27.844499" lon="86.766189">
        <ele>3961.4</ele>
        <time>2022-10-28T08:17:20.000Z</time>
      </trkpt>
      <trkpt lat="27.844474" lon="86.766176">
        <ele>3961.4</ele>
        <time>2022-10-28T08:17:23.000Z</time>
      </trkpt>
      <trkpt lat="27.844454" lon="86.766157">
        <ele>3961.4</ele>
        <time>2022-10-28T08:17:26.000Z</time>
      </trkpt>
      <trkpt lat="27.844435" lon="86.766138">
        <ele>3961.8</ele>
        <time>2022-10-28T08:17:29.000Z</time>
      </trkpt>
      <trkpt lat="27.844432" lon="86.766112">
        <ele>3962.2</ele>
        <time>2022-10-28T08:17:31.000Z</time>
      </trkpt>
      <trkpt lat="27.844442" lon="86.766093">
        <ele>3962.6</ele>
        <time>2022-10-28T08:17:34.000Z</time>
      </trkpt>
      <trkpt lat="27.844451" lon="86.766074">
        <ele>3962.4</ele>
        <time>2022-10-28T08:17:36.000Z</time>
      </trkpt>
      <trkpt lat="27.844461" lon="86.766042">
        <ele>3962</ele>
        <time>2022-10-28T08:17:39.000Z</time>
      </trkpt>
      <trkpt lat="27.844474" lon="86.766022">
        <ele>3961.6</ele>
        <time>2022-10-28T08:17:41.000Z</time>
      </trkpt>
      <trkpt lat="27.844493" lon="86.76601">
        <ele>3961.8</ele>
        <time>2022-10-28T08:17:44.000Z</time>
      </trkpt>
      <trkpt lat="27.844499" lon="86.76599">
        <ele>3962</ele>
        <time>2022-10-28T08:17:45.000Z</time>
      </trkpt>
      <trkpt lat="27.844509" lon="86.765971">
        <ele>3961.2</ele>
        <time>2022-10-28T08:17:48.000Z</time>
      </trkpt>
      <trkpt lat="27.844515" lon="86.765946">
        <ele>3960.8</ele>
        <time>2022-10-28T08:17:50.000Z</time>
      </trkpt>
      <trkpt lat="27.844518" lon="86.765914">
        <ele>3960</ele>
        <time>2022-10-28T08:17:53.000Z</time>
      </trkpt>
      <trkpt lat="27.844502" lon="86.765894">
        <ele>3959.8</ele>
        <time>2022-10-28T08:17:57.000Z</time>
      </trkpt>
      <trkpt lat="27.84448" lon="86.765894">
        <ele>3960.2</ele>
        <time>2022-10-28T08:18:01.000Z</time>
      </trkpt>
      <trkpt lat="27.844461" lon="86.765882">
        <ele>3960.8</ele>
        <time>2022-10-28T08:18:05.000Z</time>
      </trkpt>
      <trkpt lat="27.844442" lon="86.765869">
        <ele>3961.2</ele>
        <time>2022-10-28T08:18:09.000Z</time>
      </trkpt>
      <trkpt lat="27.844426" lon="86.765856">
        <ele>3961</ele>
        <time>2022-10-28T08:18:11.000Z</time>
      </trkpt>
      <trkpt lat="27.844419" lon="86.765837">
        <ele>3960.8</ele>
        <time>2022-10-28T08:18:12.000Z</time>
      </trkpt>
      <trkpt lat="27.844413" lon="86.765818">
        <ele>3960.8</ele>
        <time>2022-10-28T08:18:14.000Z</time>
      </trkpt>
      <trkpt lat="27.844416" lon="86.765792">
        <ele>3961</ele>
        <time>2022-10-28T08:18:20.000Z</time>
      </trkpt>
      <trkpt lat="27.844426" lon="86.765773">
        <ele>3961.4</ele>
        <time>2022-10-28T08:18:23.000Z</time>
      </trkpt>
      <trkpt lat="27.844432" lon="86.765754">
        <ele>3961.4</ele>
        <time>2022-10-28T08:18:25.000Z</time>
      </trkpt>
      <trkpt lat="27.844451" lon="86.765734">
        <ele>3961</ele>
        <time>2022-10-28T08:18:28.000Z</time>
      </trkpt>
      <trkpt lat="27.84447" lon="86.765715">
        <ele>3960.2</ele>
        <time>2022-10-28T08:18:31.000Z</time>
      </trkpt>
      <trkpt lat="27.844493" lon="86.765715">
        <ele>3960.2</ele>
        <time>2022-10-28T08:18:33.000Z</time>
      </trkpt>
      <trkpt lat="27.844512" lon="86.765702">
        <ele>3959.8</ele>
        <time>2022-10-28T08:18:35.000Z</time>
      </trkpt>
      <trkpt lat="27.844531" lon="86.765696">
        <ele>3959.8</ele>
        <time>2022-10-28T08:18:37.000Z</time>
      </trkpt>
      <trkpt lat="27.844544" lon="86.765677">
        <ele>3959.8</ele>
        <time>2022-10-28T08:18:39.000Z</time>
      </trkpt>
      <trkpt lat="27.844563" lon="86.765664">
        <ele>3959.8</ele>
        <time>2022-10-28T08:18:42.000Z</time>
      </trkpt>
      <trkpt lat="27.844579" lon="86.765638">
        <ele>3960</ele>
        <time>2022-10-28T08:18:44.000Z</time>
      </trkpt>
      <trkpt lat="27.844595" lon="86.765626">
        <ele>3959.8</ele>
        <time>2022-10-28T08:18:46.000Z</time>
      </trkpt>
      <trkpt lat="27.844611" lon="86.765613">
        <ele>3959.8</ele>
        <time>2022-10-28T08:18:48.000Z</time>
      </trkpt>
      <trkpt lat="27.844618" lon="86.765594">
        <ele>3959.8</ele>
        <time>2022-10-28T08:18:49.000Z</time>
      </trkpt>
      <trkpt lat="27.844634" lon="86.765581">
        <ele>3959.6</ele>
        <time>2022-10-28T08:18:51.000Z</time>
      </trkpt>
      <trkpt lat="27.844646" lon="86.765555">
        <ele>3959.2</ele>
        <time>2022-10-28T08:18:53.000Z</time>
      </trkpt>
      <trkpt lat="27.844666" lon="86.765549">
        <ele>3959.2</ele>
        <time>2022-10-28T08:18:55.000Z</time>
      </trkpt>
      <trkpt lat="27.844682" lon="86.765536">
        <ele>3959.6</ele>
        <time>2022-10-28T08:18:57.000Z</time>
      </trkpt>
      <trkpt lat="27.844688" lon="86.765517">
        <ele>3959.6</ele>
        <time>2022-10-28T08:18:58.000Z</time>
      </trkpt>
      <trkpt lat="27.844704" lon="86.765498">
        <ele>3959.8</ele>
        <time>2022-10-28T08:19:01.000Z</time>
      </trkpt>
      <trkpt lat="27.84471" lon="86.765478">
        <ele>3959.8</ele>
        <time>2022-10-28T08:19:03.000Z</time>
      </trkpt>
      <trkpt lat="27.84472" lon="86.765459">
        <ele>3960.4</ele>
        <time>2022-10-28T08:19:12.000Z</time>
      </trkpt>
      <trkpt lat="27.84473" lon="86.765427">
        <ele>3959.8</ele>
        <time>2022-10-28T08:19:30.000Z</time>
      </trkpt>
      <trkpt lat="27.844739" lon="86.765395">
        <ele>3959.4</ele>
        <time>2022-10-28T08:19:32.000Z</time>
      </trkpt>
      <trkpt lat="27.844752" lon="86.765363">
        <ele>3958.8</ele>
        <time>2022-10-28T08:19:34.000Z</time>
      </trkpt>
      <trkpt lat="27.844771" lon="86.765344">
        <ele>3958.6</ele>
        <time>2022-10-28T08:19:36.000Z</time>
      </trkpt>
      <trkpt lat="27.844778" lon="86.765318">
        <ele>3958.6</ele>
        <time>2022-10-28T08:19:37.000Z</time>
      </trkpt>
      <trkpt lat="27.84479" lon="86.765286">
        <ele>3958.6</ele>
        <time>2022-10-28T08:19:40.000Z</time>
      </trkpt>
      <trkpt lat="27.844784" lon="86.765261">
        <ele>3958.8</ele>
        <time>2022-10-28T08:19:42.000Z</time>
      </trkpt>
      <trkpt lat="27.844794" lon="86.765235">
        <ele>3959.4</ele>
        <time>2022-10-28T08:19:44.000Z</time>
      </trkpt>
      <trkpt lat="27.844813" lon="86.765216">
        <ele>3960.4</ele>
        <time>2022-10-28T08:19:47.000Z</time>
      </trkpt>
      <trkpt lat="27.844832" lon="86.765197">
        <ele>3960.2</ele>
        <time>2022-10-28T08:19:50.000Z</time>
      </trkpt>
      <trkpt lat="27.844838" lon="86.765178">
        <ele>3959.8</ele>
        <time>2022-10-28T08:19:52.000Z</time>
      </trkpt>
      <trkpt lat="27.844851" lon="86.765158">
        <ele>3959.2</ele>
        <time>2022-10-28T08:19:54.000Z</time>
      </trkpt>
      <trkpt lat="27.844874" lon="86.765158">
        <ele>3959.8</ele>
        <time>2022-10-28T08:19:56.000Z</time>
      </trkpt>
      <trkpt lat="27.84489" lon="86.765146">
        <ele>3959.8</ele>
        <time>2022-10-28T08:19:58.000Z</time>
      </trkpt>
      <trkpt lat="27.844899" lon="86.76512">
        <ele>3959.8</ele>
        <time>2022-10-28T08:20:00.000Z</time>
      </trkpt>
      <trkpt lat="27.844915" lon="86.765107">
        <ele>3959.6</ele>
        <time>2022-10-28T08:20:04.000Z</time>
      </trkpt>
      <trkpt lat="27.844918" lon="86.765082">
        <ele>3960.2</ele>
        <time>2022-10-28T08:20:10.000Z</time>
      </trkpt>
      <trkpt lat="27.844915" lon="86.76505">
        <ele>3960</ele>
        <time>2022-10-28T08:20:13.000Z</time>
      </trkpt>
      <trkpt lat="27.844909" lon="86.76503">
        <ele>3959</ele>
        <time>2022-10-28T08:20:16.000Z</time>
      </trkpt>
      <trkpt lat="27.844893" lon="86.765018">
        <ele>3959.8</ele>
        <time>2022-10-28T08:20:21.000Z</time>
      </trkpt>
      <trkpt lat="27.84488" lon="86.764998">
        <ele>3960.8</ele>
        <time>2022-10-28T08:20:26.000Z</time>
      </trkpt>
      <trkpt lat="27.844864" lon="86.764979">
        <ele>3960.8</ele>
        <time>2022-10-28T08:20:31.000Z</time>
      </trkpt>
      <trkpt lat="27.844858" lon="86.76496">
        <ele>3961.8</ele>
        <time>2022-10-28T08:20:35.000Z</time>
      </trkpt>
      <trkpt lat="27.844842" lon="86.764947">
        <ele>3962.6</ele>
        <time>2022-10-28T08:20:40.000Z</time>
      </trkpt>
      <trkpt lat="27.844838" lon="86.764922">
        <ele>3963.2</ele>
        <time>2022-10-28T08:20:42.000Z</time>
      </trkpt>
      <trkpt lat="27.844829" lon="86.764902">
        <ele>3963.4</ele>
        <time>2022-10-28T08:20:47.000Z</time>
      </trkpt>
      <trkpt lat="27.844816" lon="86.764883">
        <ele>3964.6</ele>
        <time>2022-10-28T08:20:54.000Z</time>
      </trkpt>
      <trkpt lat="27.844797" lon="86.764883">
        <ele>3965.2</ele>
        <time>2022-10-28T08:20:59.000Z</time>
      </trkpt>
      <trkpt lat="27.844778" lon="86.764877">
        <ele>3965.6</ele>
        <time>2022-10-28T08:21:05.000Z</time>
      </trkpt>
      <trkpt lat="27.844758" lon="86.76487">
        <ele>3967.2</ele>
        <time>2022-10-28T08:21:13.000Z</time>
      </trkpt>
      <trkpt lat="27.844739" lon="86.764864">
        <ele>3968.4</ele>
        <time>2022-10-28T08:21:21.000Z</time>
      </trkpt>
      <trkpt lat="27.844726" lon="86.764845">
        <ele>3969.2</ele>
        <time>2022-10-28T08:21:25.000Z</time>
      </trkpt>
      <trkpt lat="27.84471" lon="86.764832">
        <ele>3969.2</ele>
        <time>2022-10-28T08:21:30.000Z</time>
      </trkpt>
      <trkpt lat="27.844694" lon="86.764819">
        <ele>3970</ele>
        <time>2022-10-28T08:21:40.000Z</time>
      </trkpt>
      <trkpt lat="27.844634" lon="86.764768">
        <ele>3976.6</ele>
        <time>2022-10-28T08:23:04.000Z</time>
      </trkpt>
      <trkpt lat="27.844602" lon="86.764755">
        <ele>3976.8</ele>
        <time>2022-10-28T08:23:06.000Z</time>
      </trkpt>
      <trkpt lat="27.844576" lon="86.76473">
        <ele>3977.4</ele>
        <time>2022-10-28T08:23:08.000Z</time>
      </trkpt>
      <trkpt lat="27.844554" lon="86.76471">
        <ele>3977.2</ele>
        <time>2022-10-28T08:23:10.000Z</time>
      </trkpt>
      <trkpt lat="27.844534" lon="86.764685">
        <ele>3976.8</ele>
        <time>2022-10-28T08:23:12.000Z</time>
      </trkpt>
      <trkpt lat="27.844525" lon="86.764659">
        <ele>3977.2</ele>
        <time>2022-10-28T08:23:14.000Z</time>
      </trkpt>
      <trkpt lat="27.844525" lon="86.764634">
        <ele>3977.2</ele>
        <time>2022-10-28T08:23:16.000Z</time>
      </trkpt>
      <trkpt lat="27.844528" lon="86.764608">
        <ele>3977.6</ele>
        <time>2022-10-28T08:23:19.000Z</time>
      </trkpt>
      <trkpt lat="27.844528" lon="86.76457">
        <ele>3977.6</ele>
        <time>2022-10-28T08:23:23.000Z</time>
      </trkpt>
      <trkpt lat="27.844531" lon="86.764544">
        <ele>3978.8</ele>
        <time>2022-10-28T08:23:43.000Z</time>
      </trkpt>
      <trkpt lat="27.844531" lon="86.764512">
        <ele>3978.4</ele>
        <time>2022-10-28T08:23:45.000Z</time>
      </trkpt>
      <trkpt lat="27.844534" lon="86.76448">
        <ele>3978.4</ele>
        <time>2022-10-28T08:23:47.000Z</time>
      </trkpt>
      <trkpt lat="27.844544" lon="86.764448">
        <ele>3978.8</ele>
        <time>2022-10-28T08:23:49.000Z</time>
      </trkpt>
      <trkpt lat="27.844554" lon="86.764429">
        <ele>3979.4</ele>
        <time>2022-10-28T08:23:52.000Z</time>
      </trkpt>
      <trkpt lat="27.84456" lon="86.76441">
        <ele>3979.6</ele>
        <time>2022-10-28T08:23:54.000Z</time>
      </trkpt>
      <trkpt lat="27.844566" lon="86.76439">
        <ele>3979.8</ele>
        <time>2022-10-28T08:23:56.000Z</time>
      </trkpt>
      <trkpt lat="27.844573" lon="86.764371">
        <ele>3980.2</ele>
        <time>2022-10-28T08:23:58.000Z</time>
      </trkpt>
      <trkpt lat="27.844589" lon="86.764352">
        <ele>3980.6</ele>
        <time>2022-10-28T08:24:02.000Z</time>
      </trkpt>
      <trkpt lat="27.844589" lon="86.76432">
        <ele>3981.6</ele>
        <time>2022-10-28T08:24:05.000Z</time>
      </trkpt>
      <trkpt lat="27.844592" lon="86.764294">
        <ele>3981.6</ele>
        <time>2022-10-28T08:24:07.000Z</time>
      </trkpt>
      <trkpt lat="27.844605" lon="86.764275">
        <ele>3981.2</ele>
        <time>2022-10-28T08:24:09.000Z</time>
      </trkpt>
      <trkpt lat="27.844614" lon="86.76425">
        <ele>3980.6</ele>
        <time>2022-10-28T08:24:11.000Z</time>
      </trkpt>
      <trkpt lat="27.844627" lon="86.764224">
        <ele>3980.4</ele>
        <time>2022-10-28T08:24:13.000Z</time>
      </trkpt>
      <trkpt lat="27.84463" lon="86.764198">
        <ele>3980.4</ele>
        <time>2022-10-28T08:24:15.000Z</time>
      </trkpt>
      <trkpt lat="27.844634" lon="86.764173">
        <ele>3980.6</ele>
        <time>2022-10-28T08:24:17.000Z</time>
      </trkpt>
      <trkpt lat="27.84464" lon="86.764147">
        <ele>3981.2</ele>
        <time>2022-10-28T08:24:19.000Z</time>
      </trkpt>
      <trkpt lat="27.844643" lon="86.764122">
        <ele>3981.4</ele>
        <time>2022-10-28T08:24:21.000Z</time>
      </trkpt>
      <trkpt lat="27.844653" lon="86.764096">
        <ele>3981.4</ele>
        <time>2022-10-28T08:24:23.000Z</time>
      </trkpt>
      <trkpt lat="27.844662" lon="86.764077">
        <ele>3982</ele>
        <time>2022-10-28T08:24:26.000Z</time>
      </trkpt>
      <trkpt lat="27.844669" lon="86.764051">
        <ele>3982.4</ele>
        <time>2022-10-28T08:24:29.000Z</time>
      </trkpt>
      <trkpt lat="27.844675" lon="86.764032">
        <ele>3982.6</ele>
        <time>2022-10-28T08:24:31.000Z</time>
      </trkpt>
      <trkpt lat="27.844685" lon="86.764006">
        <ele>3982.6</ele>
        <time>2022-10-28T08:24:33.000Z</time>
      </trkpt>
      <trkpt lat="27.844704" lon="86.763974">
        <ele>3982.4</ele>
        <time>2022-10-28T08:24:36.000Z</time>
      </trkpt>
      <trkpt lat="27.84472" lon="86.763949">
        <ele>3982.4</ele>
        <time>2022-10-28T08:24:39.000Z</time>
      </trkpt>
      <trkpt lat="27.84473" lon="86.763923">
        <ele>3982</ele>
        <time>2022-10-28T08:24:41.000Z</time>
      </trkpt>
      <trkpt lat="27.844742" lon="86.763898">
        <ele>3982</ele>
        <time>2022-10-28T08:24:43.000Z</time>
      </trkpt>
      <trkpt lat="27.844768" lon="86.763885">
        <ele>3982</ele>
        <time>2022-10-28T08:24:46.000Z</time>
      </trkpt>
      <trkpt lat="27.84479" lon="86.763872">
        <ele>3981.8</ele>
        <time>2022-10-28T08:24:48.000Z</time>
      </trkpt>
      <trkpt lat="27.844813" lon="86.763866">
        <ele>3981.8</ele>
        <time>2022-10-28T08:24:50.000Z</time>
      </trkpt>
      <trkpt lat="27.844835" lon="86.763846">
        <ele>3981.8</ele>
        <time>2022-10-28T08:24:52.000Z</time>
      </trkpt>
      <trkpt lat="27.844851" lon="86.763827">
        <ele>3981.4</ele>
        <time>2022-10-28T08:24:54.000Z</time>
      </trkpt>
      <trkpt lat="27.844861" lon="86.763808">
        <ele>3981.2</ele>
        <time>2022-10-28T08:24:56.000Z</time>
      </trkpt>
      <trkpt lat="27.844886" lon="86.763776">
        <ele>3980.2</ele>
        <time>2022-10-28T08:25:02.000Z</time>
      </trkpt>
      <trkpt lat="27.844899" lon="86.763757">
        <ele>3980.8</ele>
        <time>2022-10-28T08:25:04.000Z</time>
      </trkpt>
      <trkpt lat="27.844909" lon="86.763738">
        <ele>3980.8</ele>
        <time>2022-10-28T08:25:07.000Z</time>
      </trkpt>
      <trkpt lat="27.844931" lon="86.763718">
        <ele>3981</ele>
        <time>2022-10-28T08:25:10.000Z</time>
      </trkpt>
      <trkpt lat="27.844947" lon="86.763699">
        <ele>3981.2</ele>
        <time>2022-10-28T08:25:12.000Z</time>
      </trkpt>
      <trkpt lat="27.844963" lon="86.763686">
        <ele>3981.4</ele>
        <time>2022-10-28T08:25:15.000Z</time>
      </trkpt>
      <trkpt lat="27.844982" lon="86.763667">
        <ele>3981.6</ele>
        <time>2022-10-28T08:25:18.000Z</time>
      </trkpt>
      <trkpt lat="27.844992" lon="86.763648">
        <ele>3982</ele>
        <time>2022-10-28T08:25:20.000Z</time>
      </trkpt>
      <trkpt lat="27.845008" lon="86.763616">
        <ele>3981.8</ele>
        <time>2022-10-28T08:25:23.000Z</time>
      </trkpt>
      <trkpt lat="27.845018" lon="86.76359">
        <ele>3981.6</ele>
        <time>2022-10-28T08:25:29.000Z</time>
      </trkpt>
      <trkpt lat="27.845024" lon="86.763565">
        <ele>3981.8</ele>
        <time>2022-10-28T08:25:31.000Z</time>
      </trkpt>
      <trkpt lat="27.84503" lon="86.763533">
        <ele>3981.8</ele>
        <time>2022-10-28T08:25:33.000Z</time>
      </trkpt>
      <trkpt lat="27.84504" lon="86.763514">
        <ele>3981.6</ele>
        <time>2022-10-28T08:25:35.000Z</time>
      </trkpt>
      <trkpt lat="27.845046" lon="86.763494">
        <ele>3981.6</ele>
        <time>2022-10-28T08:25:36.000Z</time>
      </trkpt>
      <trkpt lat="27.845053" lon="86.763469">
        <ele>3981.8</ele>
        <time>2022-10-28T08:25:39.000Z</time>
      </trkpt>
      <trkpt lat="27.845066" lon="86.763443">
        <ele>3982.2</ele>
        <time>2022-10-28T08:25:41.000Z</time>
      </trkpt>
      <trkpt lat="27.845078" lon="86.763418">
        <ele>3982</ele>
        <time>2022-10-28T08:25:44.000Z</time>
      </trkpt>
      <trkpt lat="27.845091" lon="86.763398">
        <ele>3982.2</ele>
        <time>2022-10-28T08:25:46.000Z</time>
      </trkpt>
      <trkpt lat="27.845104" lon="86.763379">
        <ele>3982.4</ele>
        <time>2022-10-28T08:25:48.000Z</time>
      </trkpt>
      <trkpt lat="27.84512" lon="86.763366">
        <ele>3982.4</ele>
        <time>2022-10-28T08:25:50.000Z</time>
      </trkpt>
      <trkpt lat="27.845133" lon="86.763341">
        <ele>3982.6</ele>
        <time>2022-10-28T08:25:52.000Z</time>
      </trkpt>
      <trkpt lat="27.845146" lon="86.763322">
        <ele>3982.8</ele>
        <time>2022-10-28T08:25:55.000Z</time>
      </trkpt>
      <trkpt lat="27.845165" lon="86.763296">
        <ele>3982.8</ele>
        <time>2022-10-28T08:25:58.000Z</time>
      </trkpt>
      <trkpt lat="27.845184" lon="86.763283">
        <ele>3982.8</ele>
        <time>2022-10-28T08:26:00.000Z</time>
      </trkpt>
      <trkpt lat="27.845203" lon="86.76327">
        <ele>3982.8</ele>
        <time>2022-10-28T08:26:02.000Z</time>
      </trkpt>
      <trkpt lat="27.845222" lon="86.763251">
        <ele>3982.8</ele>
        <time>2022-10-28T08:26:05.000Z</time>
      </trkpt>
      <trkpt lat="27.845248" lon="86.763245">
        <ele>3983</ele>
        <time>2022-10-28T08:26:07.000Z</time>
      </trkpt>
      <trkpt lat="27.845267" lon="86.763238">
        <ele>3983</ele>
        <time>2022-10-28T08:26:09.000Z</time>
      </trkpt>
      <trkpt lat="27.84529" lon="86.763232">
        <ele>3983</ele>
        <time>2022-10-28T08:26:11.000Z</time>
      </trkpt>
      <trkpt lat="27.845306" lon="86.763219">
        <ele>3983.2</ele>
        <time>2022-10-28T08:26:13.000Z</time>
      </trkpt>
      <trkpt lat="27.845325" lon="86.7632">
        <ele>3983.2</ele>
        <time>2022-10-28T08:26:16.000Z</time>
      </trkpt>
      <trkpt lat="27.845334" lon="86.763181">
        <ele>3983.2</ele>
        <time>2022-10-28T08:26:18.000Z</time>
      </trkpt>
      <trkpt lat="27.84535" lon="86.763168">
        <ele>3983.8</ele>
        <time>2022-10-28T08:26:22.000Z</time>
      </trkpt>
      <trkpt lat="27.845366" lon="86.763155">
        <ele>3983.6</ele>
        <time>2022-10-28T08:26:56.000Z</time>
      </trkpt>
      <trkpt lat="27.845382" lon="86.763136">
        <ele>3983.8</ele>
        <time>2022-10-28T08:26:58.000Z</time>
      </trkpt>
      <trkpt lat="27.845395" lon="86.763117">
        <ele>3983.8</ele>
        <time>2022-10-28T08:27:00.000Z</time>
      </trkpt>
      <trkpt lat="27.845408" lon="86.763091">
        <ele>3984.6</ele>
        <time>2022-10-28T08:27:02.000Z</time>
      </trkpt>
      <trkpt lat="27.845418" lon="86.763072">
        <ele>3984.8</ele>
        <time>2022-10-28T08:27:04.000Z</time>
      </trkpt>
      <trkpt lat="27.845421" lon="86.763046">
        <ele>3984.8</ele>
        <time>2022-10-28T08:27:06.000Z</time>
      </trkpt>
      <trkpt lat="27.845424" lon="86.763021">
        <ele>3984.8</ele>
        <time>2022-10-28T08:27:08.000Z</time>
      </trkpt>
      <trkpt lat="27.845434" lon="86.763002">
        <ele>3985.6</ele>
        <time>2022-10-28T08:27:11.000Z</time>
      </trkpt>
      <trkpt lat="27.845443" lon="86.762982">
        <ele>3985.8</ele>
        <time>2022-10-28T08:27:13.000Z</time>
      </trkpt>
      <trkpt lat="27.845462" lon="86.76297">
        <ele>3986</ele>
        <time>2022-10-28T08:27:17.000Z</time>
      </trkpt>
      <trkpt lat="27.845475" lon="86.762944">
        <ele>3986.8</ele>
        <time>2022-10-28T08:27:21.000Z</time>
      </trkpt>
      <trkpt lat="27.845494" lon="86.762931">
        <ele>3987.4</ele>
        <time>2022-10-28T08:27:25.000Z</time>
      </trkpt>
      <trkpt lat="27.84551" lon="86.762912">
        <ele>3988</ele>
        <time>2022-10-28T08:27:30.000Z</time>
      </trkpt>
      <trkpt lat="27.845526" lon="86.762899">
        <ele>3988.2</ele>
        <time>2022-10-28T08:27:33.000Z</time>
      </trkpt>
      <trkpt lat="27.845542" lon="86.762886">
        <ele>3988.4</ele>
        <time>2022-10-28T08:27:35.000Z</time>
      </trkpt>
      <trkpt lat="27.845562" lon="86.762861">
        <ele>3988.2</ele>
        <time>2022-10-28T08:27:38.000Z</time>
      </trkpt>
      <trkpt lat="27.845578" lon="86.762842">
        <ele>3988.6</ele>
        <time>2022-10-28T08:27:42.000Z</time>
      </trkpt>
      <trkpt lat="27.845594" lon="86.762822">
        <ele>3989</ele>
        <time>2022-10-28T08:27:45.000Z</time>
      </trkpt>
      <trkpt lat="27.845613" lon="86.76281">
        <ele>3989.8</ele>
        <time>2022-10-28T08:27:49.000Z</time>
      </trkpt>
      <trkpt lat="27.845619" lon="86.762784">
        <ele>3990</ele>
        <time>2022-10-28T08:27:53.000Z</time>
      </trkpt>
      <trkpt lat="27.845629" lon="86.762765">
        <ele>3990.4</ele>
        <time>2022-10-28T08:27:59.000Z</time>
      </trkpt>
      <trkpt lat="27.845795" lon="86.762637">
        <ele>3999.2</ele>
        <time>2022-10-28T08:29:29.000Z</time>
      </trkpt>
      <trkpt lat="27.845805" lon="86.762618">
        <ele>3999.4</ele>
        <time>2022-10-28T08:29:30.000Z</time>
      </trkpt>
      <trkpt lat="27.845824" lon="86.762598">
        <ele>3999.2</ele>
        <time>2022-10-28T08:29:32.000Z</time>
      </trkpt>
      <trkpt lat="27.845846" lon="86.762579">
        <ele>3999.2</ele>
        <time>2022-10-28T08:29:34.000Z</time>
      </trkpt>
      <trkpt lat="27.845866" lon="86.76256">
        <ele>3999.4</ele>
        <time>2022-10-28T08:29:36.000Z</time>
      </trkpt>
      <trkpt lat="27.845882" lon="86.762534">
        <ele>3999.6</ele>
        <time>2022-10-28T08:29:38.000Z</time>
      </trkpt>
      <trkpt lat="27.845901" lon="86.762515">
        <ele>4000</ele>
        <time>2022-10-28T08:29:42.000Z</time>
      </trkpt>
      <trkpt lat="27.845914" lon="86.762496">
        <ele>4000.8</ele>
        <time>2022-10-28T08:29:48.000Z</time>
      </trkpt>
      <trkpt lat="27.84593" lon="86.762483">
        <ele>4001.2</ele>
        <time>2022-10-28T08:29:54.000Z</time>
      </trkpt>
      <trkpt lat="27.845949" lon="86.762464">
        <ele>4002.2</ele>
        <time>2022-10-28T08:29:59.000Z</time>
      </trkpt>
      <trkpt lat="27.845968" lon="86.762451">
        <ele>4002.4</ele>
        <time>2022-10-28T08:30:03.000Z</time>
      </trkpt>
      <trkpt lat="27.845981" lon="86.762426">
        <ele>4002.8</ele>
        <time>2022-10-28T08:30:08.000Z</time>
      </trkpt>
      <trkpt lat="27.846" lon="86.762419">
        <ele>4003.2</ele>
        <time>2022-10-28T08:30:14.000Z</time>
      </trkpt>
      <trkpt lat="27.846022" lon="86.762413">
        <ele>4004.2</ele>
        <time>2022-10-28T08:30:19.000Z</time>
      </trkpt>
      <trkpt lat="27.846042" lon="86.7624">
        <ele>4005</ele>
        <time>2022-10-28T08:30:23.000Z</time>
      </trkpt>
      <trkpt lat="27.846054" lon="86.762381">
        <ele>4005.2</ele>
        <time>2022-10-28T08:30:27.000Z</time>
      </trkpt>
      <trkpt lat="27.846074" lon="86.762374">
        <ele>4005.6</ele>
        <time>2022-10-28T08:30:32.000Z</time>
      </trkpt>
      <trkpt lat="27.846093" lon="86.762362">
        <ele>4007.2</ele>
        <time>2022-10-28T08:30:58.000Z</time>
      </trkpt>
      <trkpt lat="27.846109" lon="86.762349">
        <ele>4007.2</ele>
        <time>2022-10-28T08:30:59.000Z</time>
      </trkpt>
      <trkpt lat="27.846134" lon="86.762336">
        <ele>4008</ele>
        <time>2022-10-28T08:31:02.000Z</time>
      </trkpt>
      <trkpt lat="27.846154" lon="86.762323">
        <ele>4008.2</ele>
        <time>2022-10-28T08:31:04.000Z</time>
      </trkpt>
      <trkpt lat="27.846173" lon="86.762298">
        <ele>4007.8</ele>
        <time>2022-10-28T08:31:06.000Z</time>
      </trkpt>
      <trkpt lat="27.846189" lon="86.762285">
        <ele>4008.2</ele>
        <time>2022-10-28T08:31:09.000Z</time>
      </trkpt>
      <trkpt lat="27.846208" lon="86.762291">
        <ele>4008.8</ele>
        <time>2022-10-28T08:31:14.000Z</time>
      </trkpt>
      <trkpt lat="27.846221" lon="86.762266">
        <ele>4009.2</ele>
        <time>2022-10-28T08:31:26.000Z</time>
      </trkpt>
      <trkpt lat="27.846221" lon="86.76224">
        <ele>4010.2</ele>
        <time>2022-10-28T08:31:34.000Z</time>
      </trkpt>
      <trkpt lat="27.846227" lon="86.762221">
        <ele>4011</ele>
        <time>2022-10-28T08:31:38.000Z</time>
      </trkpt>
      <trkpt lat="27.846227" lon="86.762189">
        <ele>4011.4</ele>
        <time>2022-10-28T08:31:46.000Z</time>
      </trkpt>
      <trkpt lat="27.846237" lon="86.76217">
        <ele>4012.2</ele>
        <time>2022-10-28T08:31:51.000Z</time>
      </trkpt>
      <trkpt lat="27.846256" lon="86.762176">
        <ele>4012</ele>
        <time>2022-10-28T08:32:26.000Z</time>
      </trkpt>
      <trkpt lat="27.846266" lon="86.762157">
        <ele>4012.4</ele>
        <time>2022-10-28T08:32:28.000Z</time>
      </trkpt>
      <trkpt lat="27.846278" lon="86.762138">
        <ele>4012.6</ele>
        <time>2022-10-28T08:32:30.000Z</time>
      </trkpt>
      <trkpt lat="27.846291" lon="86.762106">
        <ele>4013.6</ele>
        <time>2022-10-28T08:32:33.000Z</time>
      </trkpt>
      <trkpt lat="27.846301" lon="86.762086">
        <ele>4013.8</ele>
        <time>2022-10-28T08:32:36.000Z</time>
      </trkpt>
      <trkpt lat="27.846317" lon="86.762067">
        <ele>4014.4</ele>
        <time>2022-10-28T08:32:39.000Z</time>
      </trkpt>
      <trkpt lat="27.846336" lon="86.762054">
        <ele>4015.4</ele>
        <time>2022-10-28T08:32:43.000Z</time>
      </trkpt>
      <trkpt lat="27.846355" lon="86.762048">
        <ele>4016.6</ele>
        <time>2022-10-28T08:32:48.000Z</time>
      </trkpt>
      <trkpt lat="27.846365" lon="86.762029">
        <ele>4016.6</ele>
        <time>2022-10-28T08:32:52.000Z</time>
      </trkpt>
      <trkpt lat="27.846368" lon="86.762003">
        <ele>4017.8</ele>
        <time>2022-10-28T08:32:58.000Z</time>
      </trkpt>
      <trkpt lat="27.846374" lon="86.761984">
        <ele>4017.8</ele>
        <time>2022-10-28T08:33:01.000Z</time>
      </trkpt>
      <trkpt lat="27.846381" lon="86.761965">
        <ele>4018.8</ele>
        <time>2022-10-28T08:33:06.000Z</time>
      </trkpt>
      <trkpt lat="27.846387" lon="86.761939">
        <ele>4019.6</ele>
        <time>2022-10-28T08:33:10.000Z</time>
      </trkpt>
      <trkpt lat="27.846403" lon="86.761926">
        <ele>4020</ele>
        <time>2022-10-28T08:33:14.000Z</time>
      </trkpt>
      <trkpt lat="27.84641" lon="86.761907">
        <ele>4020.2</ele>
        <time>2022-10-28T08:33:16.000Z</time>
      </trkpt>
      <trkpt lat="27.846426" lon="86.761888">
        <ele>4020.4</ele>
        <time>2022-10-28T08:33:19.000Z</time>
      </trkpt>
      <trkpt lat="27.846432" lon="86.761862">
        <ele>4021.2</ele>
        <time>2022-10-28T08:33:22.000Z</time>
      </trkpt>
      <trkpt lat="27.846442" lon="86.761843">
        <ele>4021.2</ele>
        <time>2022-10-28T08:33:25.000Z</time>
      </trkpt>
      <trkpt lat="27.846451" lon="86.761818">
        <ele>4021.4</ele>
        <time>2022-10-28T08:33:27.000Z</time>
      </trkpt>
      <trkpt lat="27.846464" lon="86.761792">
        <ele>4021.6</ele>
        <time>2022-10-28T08:33:30.000Z</time>
      </trkpt>
      <trkpt lat="27.84648" lon="86.761773">
        <ele>4022.2</ele>
        <time>2022-10-28T08:33:34.000Z</time>
      </trkpt>
      <trkpt lat="27.84649" lon="86.761747">
        <ele>4022.4</ele>
        <time>2022-10-28T08:33:38.000Z</time>
      </trkpt>
      <trkpt lat="27.846499" lon="86.761728">
        <ele>4023</ele>
        <time>2022-10-28T08:33:42.000Z</time>
      </trkpt>
      <trkpt lat="27.846518" lon="86.761722">
        <ele>4024.2</ele>
        <time>2022-10-28T08:33:45.000Z</time>
      </trkpt>
      <trkpt lat="27.846538" lon="86.761702">
        <ele>4024.6</ele>
        <time>2022-10-28T08:33:49.000Z</time>
      </trkpt>
      <trkpt lat="27.84656" lon="86.76169">
        <ele>4025</ele>
        <time>2022-10-28T08:33:53.000Z</time>
      </trkpt>
      <trkpt lat="27.846579" lon="86.761664">
        <ele>4025.2</ele>
        <time>2022-10-28T08:33:57.000Z</time>
      </trkpt>
      <trkpt lat="27.846586" lon="86.761632">
        <ele>4024.6</ele>
        <time>2022-10-28T08:34:00.000Z</time>
      </trkpt>
      <trkpt lat="27.846586" lon="86.761606">
        <ele>4024.2</ele>
        <time>2022-10-28T08:34:03.000Z</time>
      </trkpt>
      <trkpt lat="27.846595" lon="86.761581">
        <ele>4024.2</ele>
        <time>2022-10-28T08:34:05.000Z</time>
      </trkpt>
      <trkpt lat="27.846605" lon="86.761562">
        <ele>4024.2</ele>
        <time>2022-10-28T08:34:08.000Z</time>
      </trkpt>
      <trkpt lat="27.846611" lon="86.761542">
        <ele>4024.6</ele>
        <time>2022-10-28T08:34:10.000Z</time>
      </trkpt>
      <trkpt lat="27.846624" lon="86.761523">
        <ele>4024.6</ele>
        <time>2022-10-28T08:34:12.000Z</time>
      </trkpt>
      <trkpt lat="27.846634" lon="86.761504">
        <ele>4024.2</ele>
        <time>2022-10-28T08:34:14.000Z</time>
      </trkpt>
      <trkpt lat="27.846646" lon="86.761485">
        <ele>4024.4</ele>
        <time>2022-10-28T08:34:17.000Z</time>
      </trkpt>
      <trkpt lat="27.84664" lon="86.761466">
        <ele>4024.8</ele>
        <time>2022-10-28T08:34:22.000Z</time>
      </trkpt>
      <trkpt lat="27.846624" lon="86.761446">
        <ele>4024.6</ele>
        <time>2022-10-28T08:34:32.000Z</time>
      </trkpt>
      <trkpt lat="27.846618" lon="86.761427">
        <ele>4024.6</ele>
        <time>2022-10-28T08:34:35.000Z</time>
      </trkpt>
      <trkpt lat="27.846624" lon="86.761408">
        <ele>4023.8</ele>
        <time>2022-10-28T08:34:42.000Z</time>
      </trkpt>
      <trkpt lat="27.84664" lon="86.761395">
        <ele>4023.8</ele>
        <time>2022-10-28T08:34:44.000Z</time>
      </trkpt>
      <trkpt lat="27.846659" lon="86.761395">
        <ele>4023.8</ele>
        <time>2022-10-28T08:34:47.000Z</time>
      </trkpt>
      <trkpt lat="27.846675" lon="86.761382">
        <ele>4023.4</ele>
        <time>2022-10-28T08:34:50.000Z</time>
      </trkpt>
      <trkpt lat="27.846701" lon="86.761363">
        <ele>4021.6</ele>
        <time>2022-10-28T08:34:53.000Z</time>
      </trkpt>
      <trkpt lat="27.846714" lon="86.761344">
        <ele>4021.2</ele>
        <time>2022-10-28T08:34:54.000Z</time>
      </trkpt>
      <trkpt lat="27.846736" lon="86.761331">
        <ele>4020.4</ele>
        <time>2022-10-28T08:34:56.000Z</time>
      </trkpt>
      <trkpt lat="27.846746" lon="86.761306">
        <ele>4020.4</ele>
        <time>2022-10-28T08:34:58.000Z</time>
      </trkpt>
      <trkpt lat="27.846765" lon="86.761261">
        <ele>4021.2</ele>
        <time>2022-10-28T08:35:04.000Z</time>
      </trkpt>
      <trkpt lat="27.846784" lon="86.761235">
        <ele>4021.4</ele>
        <time>2022-10-28T08:35:08.000Z</time>
      </trkpt>
      <trkpt lat="27.846784" lon="86.761197">
        <ele>4021.6</ele>
        <time>2022-10-28T08:35:12.000Z</time>
      </trkpt>
      <trkpt lat="27.846794" lon="86.761152">
        <ele>4022.4</ele>
        <time>2022-10-28T08:35:19.000Z</time>
      </trkpt>
      <trkpt lat="27.846787" lon="86.761126">
        <ele>4022.6</ele>
        <time>2022-10-28T08:35:24.000Z</time>
      </trkpt>
      <trkpt lat="27.846787" lon="86.761101">
        <ele>4023.4</ele>
        <time>2022-10-28T08:35:29.000Z</time>
      </trkpt>
      <trkpt lat="27.846784" lon="86.761075">
        <ele>4024</ele>
        <time>2022-10-28T08:35:34.000Z</time>
      </trkpt>
      <trkpt lat="27.846774" lon="86.761056">
        <ele>4024.6</ele>
        <time>2022-10-28T08:35:39.000Z</time>
      </trkpt>
      <trkpt lat="27.846774" lon="86.76103">
        <ele>4025.4</ele>
        <time>2022-10-28T08:35:42.000Z</time>
      </trkpt>
      <trkpt lat="27.846781" lon="86.760998">
        <ele>4025.6</ele>
        <time>2022-10-28T08:35:47.000Z</time>
      </trkpt>
      <trkpt lat="27.846803" lon="86.760954">
        <ele>4026</ele>
        <time>2022-10-28T08:35:58.000Z</time>
      </trkpt>
      <trkpt lat="27.846813" lon="86.760934">
        <ele>4027</ele>
        <time>2022-10-28T08:36:02.000Z</time>
      </trkpt>
      <trkpt lat="27.846826" lon="86.76089">
        <ele>4027.4</ele>
        <time>2022-10-28T08:36:09.000Z</time>
      </trkpt>
      <trkpt lat="27.846835" lon="86.76087">
        <ele>4028</ele>
        <time>2022-10-28T08:36:12.000Z</time>
      </trkpt>
      <trkpt lat="27.846835" lon="86.760838">
        <ele>4028.8</ele>
        <time>2022-10-28T08:36:18.000Z</time>
      </trkpt>
      <trkpt lat="27.846838" lon="86.760813">
        <ele>4029</ele>
        <time>2022-10-28T08:36:22.000Z</time>
      </trkpt>
      <trkpt lat="27.846845" lon="86.760794">
        <ele>4029.2</ele>
        <time>2022-10-28T08:36:25.000Z</time>
      </trkpt>
      <trkpt lat="27.846848" lon="86.760768">
        <ele>4030</ele>
        <time>2022-10-28T08:36:31.000Z</time>
      </trkpt>
      <trkpt lat="27.846861" lon="86.760749">
        <ele>4031</ele>
        <time>2022-10-28T08:36:36.000Z</time>
      </trkpt>
      <trkpt lat="27.846874" lon="86.76073">
        <ele>4031.2</ele>
        <time>2022-10-28T08:36:39.000Z</time>
      </trkpt>
      <trkpt lat="27.846883" lon="86.76071">
        <ele>4031.2</ele>
        <time>2022-10-28T08:36:41.000Z</time>
      </trkpt>
      <trkpt lat="27.84689" lon="86.760691">
        <ele>4030.8</ele>
        <time>2022-10-28T08:36:50.000Z</time>
      </trkpt>
      <trkpt lat="27.846893" lon="86.760634">
        <ele>4029.6</ele>
        <time>2022-10-28T08:37:34.000Z</time>
      </trkpt>
      <trkpt lat="27.846893" lon="86.760608">
        <ele>4029.6</ele>
        <time>2022-10-28T08:37:36.000Z</time>
      </trkpt>
      <trkpt lat="27.846886" lon="86.76057">
        <ele>4029</ele>
        <time>2022-10-28T08:37:38.000Z</time>
      </trkpt>
      <trkpt lat="27.846886" lon="86.760531">
        <ele>4028.4</ele>
        <time>2022-10-28T08:37:40.000Z</time>
      </trkpt>
      <trkpt lat="27.846886" lon="86.760499">
        <ele>4028</ele>
        <time>2022-10-28T08:37:42.000Z</time>
      </trkpt>
      <trkpt lat="27.846893" lon="86.760474">
        <ele>4028</ele>
        <time>2022-10-28T08:37:44.000Z</time>
      </trkpt>
      <trkpt lat="27.846899" lon="86.760442">
        <ele>4028.4</ele>
        <time>2022-10-28T08:37:59.000Z</time>
      </trkpt>
      <trkpt lat="27.846906" lon="86.760416">
        <ele>4028.8</ele>
        <time>2022-10-28T08:38:03.000Z</time>
      </trkpt>
      <trkpt lat="27.846912" lon="86.760397">
        <ele>4028.6</ele>
        <time>2022-10-28T08:38:05.000Z</time>
      </trkpt>
      <trkpt lat="27.846922" lon="86.760371">
        <ele>4028.6</ele>
        <time>2022-10-28T08:38:08.000Z</time>
      </trkpt>
      <trkpt lat="27.846928" lon="86.760346">
        <ele>4029</ele>
        <time>2022-10-28T08:38:10.000Z</time>
      </trkpt>
      <trkpt lat="27.846928" lon="86.760314">
        <ele>4029.4</ele>
        <time>2022-10-28T08:38:12.000Z</time>
      </trkpt>
      <trkpt lat="27.846938" lon="86.760294">
        <ele>4029.6</ele>
        <time>2022-10-28T08:38:14.000Z</time>
      </trkpt>
      <trkpt lat="27.846941" lon="86.760262">
        <ele>4029.2</ele>
        <time>2022-10-28T08:38:17.000Z</time>
      </trkpt>
      <trkpt lat="27.846947" lon="86.760237">
        <ele>4028.8</ele>
        <time>2022-10-28T08:38:19.000Z</time>
      </trkpt>
      <trkpt lat="27.846944" lon="86.760198">
        <ele>4029.8</ele>
        <time>2022-10-28T08:38:22.000Z</time>
      </trkpt>
      <trkpt lat="27.846947" lon="86.760173">
        <ele>4028.8</ele>
        <time>2022-10-28T08:38:25.000Z</time>
      </trkpt>
      <trkpt lat="27.846947" lon="86.760147">
        <ele>4028.6</ele>
        <time>2022-10-28T08:38:27.000Z</time>
      </trkpt>
      <trkpt lat="27.846947" lon="86.760122">
        <ele>4028.2</ele>
        <time>2022-10-28T08:38:29.000Z</time>
      </trkpt>
      <trkpt lat="27.846947" lon="86.760096">
        <ele>4028</ele>
        <time>2022-10-28T08:38:32.000Z</time>
      </trkpt>
      <trkpt lat="27.846944" lon="86.76007">
        <ele>4028.2</ele>
        <time>2022-10-28T08:38:34.000Z</time>
      </trkpt>
      <trkpt lat="27.846944" lon="86.760045">
        <ele>4028.4</ele>
        <time>2022-10-28T08:38:36.000Z</time>
      </trkpt>
      <trkpt lat="27.846938" lon="86.760026">
        <ele>4028.2</ele>
        <time>2022-10-28T08:38:39.000Z</time>
      </trkpt>
      <trkpt lat="27.846938" lon="86.76">
        <ele>4028.2</ele>
        <time>2022-10-28T08:38:41.000Z</time>
      </trkpt>
      <trkpt lat="27.846938" lon="86.759974">
        <ele>4028</ele>
        <time>2022-10-28T08:38:44.000Z</time>
      </trkpt>
      <trkpt lat="27.846934" lon="86.759949">
        <ele>4027.4</ele>
        <time>2022-10-28T08:38:47.000Z</time>
      </trkpt>
      <trkpt lat="27.846934" lon="86.759917">
        <ele>4026.6</ele>
        <time>2022-10-28T08:38:50.000Z</time>
      </trkpt>
      <trkpt lat="27.846934" lon="86.759885">
        <ele>4025.8</ele>
        <time>2022-10-28T08:38:52.000Z</time>
      </trkpt>
      <trkpt lat="27.846934" lon="86.759859">
        <ele>4025</ele>
        <time>2022-10-28T08:38:55.000Z</time>
      </trkpt>
      <trkpt lat="27.846928" lon="86.759834">
        <ele>4025.4</ele>
        <time>2022-10-28T08:39:03.000Z</time>
      </trkpt>
      <trkpt lat="27.846925" lon="86.759802">
        <ele>4025</ele>
        <time>2022-10-28T08:39:06.000Z</time>
      </trkpt>
      <trkpt lat="27.846931" lon="86.759776">
        <ele>4024.6</ele>
        <time>2022-10-28T08:39:08.000Z</time>
      </trkpt>
      <trkpt lat="27.846934" lon="86.75975">
        <ele>4024.6</ele>
        <time>2022-10-28T08:39:10.000Z</time>
      </trkpt>
      <trkpt lat="27.84695" lon="86.759706">
        <ele>4024.8</ele>
        <time>2022-10-28T08:39:14.000Z</time>
      </trkpt>
      <trkpt lat="27.846957" lon="86.75968">
        <ele>4024.8</ele>
        <time>2022-10-28T08:39:16.000Z</time>
      </trkpt>
      <trkpt lat="27.846963" lon="86.759661">
        <ele>4024.8</ele>
        <time>2022-10-28T08:39:18.000Z</time>
      </trkpt>
      <trkpt lat="27.846966" lon="86.759635">
        <ele>4024.8</ele>
        <time>2022-10-28T08:39:20.000Z</time>
      </trkpt>
      <trkpt lat="27.846973" lon="86.759603">
        <ele>4025</ele>
        <time>2022-10-28T08:39:23.000Z</time>
      </trkpt>
      <trkpt lat="27.846976" lon="86.759578">
        <ele>4024.8</ele>
        <time>2022-10-28T08:39:26.000Z</time>
      </trkpt>
      <trkpt lat="27.846979" lon="86.759552">
        <ele>4025.2</ele>
        <time>2022-10-28T08:39:29.000Z</time>
      </trkpt>
      <trkpt lat="27.846989" lon="86.759526">
        <ele>4024.8</ele>
        <time>2022-10-28T08:39:31.000Z</time>
      </trkpt>
      <trkpt lat="27.846992" lon="86.759501">
        <ele>4024.2</ele>
        <time>2022-10-28T08:39:33.000Z</time>
      </trkpt>
      <trkpt lat="27.846982" lon="86.759469">
        <ele>4024</ele>
        <time>2022-10-28T08:39:35.000Z</time>
      </trkpt>
      <trkpt lat="27.846966" lon="86.759456">
        <ele>4023.4</ele>
        <time>2022-10-28T08:39:38.000Z</time>
      </trkpt>
      <trkpt lat="27.846954" lon="86.759437">
        <ele>4023.6</ele>
        <time>2022-10-28T08:39:40.000Z</time>
      </trkpt>
      <trkpt lat="27.846938" lon="86.759405">
        <ele>4023.8</ele>
        <time>2022-10-28T08:39:43.000Z</time>
      </trkpt>
      <trkpt lat="27.846928" lon="86.759379">
        <ele>4023.8</ele>
        <time>2022-10-28T08:39:46.000Z</time>
      </trkpt>
      <trkpt lat="27.846922" lon="86.75936">
        <ele>4023.6</ele>
        <time>2022-10-28T08:39:47.000Z</time>
      </trkpt>
      <trkpt lat="27.846902" lon="86.759347">
        <ele>4023</ele>
        <time>2022-10-28T08:39:50.000Z</time>
      </trkpt>
      <trkpt lat="27.846883" lon="86.759341">
        <ele>4022.8</ele>
        <time>2022-10-28T08:39:52.000Z</time>
      </trkpt>
      <trkpt lat="27.846858" lon="86.759322">
        <ele>4022.6</ele>
        <time>2022-10-28T08:39:54.000Z</time>
      </trkpt>
      <trkpt lat="27.846835" lon="86.759309">
        <ele>4022.6</ele>
        <time>2022-10-28T08:39:56.000Z</time>
      </trkpt>
      <trkpt lat="27.846813" lon="86.759302">
        <ele>4022.4</ele>
        <time>2022-10-28T08:39:58.000Z</time>
      </trkpt>
      <trkpt lat="27.846797" lon="86.759283">
        <ele>4022.8</ele>
        <time>2022-10-28T08:40:00.000Z</time>
      </trkpt>
      <trkpt lat="27.846787" lon="86.759264">
        <ele>4022.6</ele>
        <time>2022-10-28T08:40:02.000Z</time>
      </trkpt>
      <trkpt lat="27.846781" lon="86.759245">
        <ele>4022.6</ele>
        <time>2022-10-28T08:40:03.000Z</time>
      </trkpt>
      <trkpt lat="27.846774" lon="86.759226">
        <ele>4022.6</ele>
        <time>2022-10-28T08:40:05.000Z</time>
      </trkpt>
      <trkpt lat="27.846774" lon="86.7592">
        <ele>4022.6</ele>
        <time>2022-10-28T08:40:07.000Z</time>
      </trkpt>
      <trkpt lat="27.846768" lon="86.759181">
        <ele>4022</ele>
        <time>2022-10-28T08:40:09.000Z</time>
      </trkpt>
      <trkpt lat="27.846768" lon="86.759155">
        <ele>4021.8</ele>
        <time>2022-10-28T08:40:10.000Z</time>
      </trkpt>
      <trkpt lat="27.846768" lon="86.759123">
        <ele>4021.4</ele>
        <time>2022-10-28T08:40:12.000Z</time>
      </trkpt>
      <trkpt lat="27.846762" lon="86.759104">
        <ele>4021.2</ele>
        <time>2022-10-28T08:40:16.000Z</time>
      </trkpt>
      <trkpt lat="27.846762" lon="86.759078">
        <ele>4020.6</ele>
        <time>2022-10-28T08:40:32.000Z</time>
      </trkpt>
      <trkpt lat="27.846765" lon="86.75904">
        <ele>4019.8</ele>
        <time>2022-10-28T08:40:35.000Z</time>
      </trkpt>
      <trkpt lat="27.846758" lon="86.759008">
        <ele>4019.4</ele>
        <time>2022-10-28T08:40:38.000Z</time>
      </trkpt>
      <trkpt lat="27.846752" lon="86.758982">
        <ele>4018.8</ele>
        <time>2022-10-28T08:40:41.000Z</time>
      </trkpt>
      <trkpt lat="27.846755" lon="86.758957">
        <ele>4018</ele>
        <time>2022-10-28T08:40:44.000Z</time>
      </trkpt>
      <trkpt lat="27.846746" lon="86.758931">
        <ele>4018.4</ele>
        <time>2022-10-28T08:40:47.000Z</time>
      </trkpt>
      <trkpt lat="27.846752" lon="86.758906">
        <ele>4016.6</ele>
        <time>2022-10-28T08:40:50.000Z</time>
      </trkpt>
      <trkpt lat="27.846765" lon="86.758886">
        <ele>4016</ele>
        <time>2022-10-28T08:40:54.000Z</time>
      </trkpt>
      <trkpt lat="27.846774" lon="86.758861">
        <ele>4015</ele>
        <time>2022-10-28T08:40:58.000Z</time>
      </trkpt>
      <trkpt lat="27.846781" lon="86.758842">
        <ele>4014.6</ele>
        <time>2022-10-28T08:41:00.000Z</time>
      </trkpt>
      <trkpt lat="27.84679" lon="86.75881">
        <ele>4012.2</ele>
        <time>2022-10-28T08:41:24.000Z</time>
      </trkpt>
      <trkpt lat="27.846806" lon="86.758784">
        <ele>4012</ele>
        <time>2022-10-28T08:41:26.000Z</time>
      </trkpt>
      <trkpt lat="27.846822" lon="86.758758">
        <ele>4011.2</ele>
        <time>2022-10-28T08:41:28.000Z</time>
      </trkpt>
      <trkpt lat="27.846835" lon="86.758726">
        <ele>4010.6</ele>
        <time>2022-10-28T08:41:30.000Z</time>
      </trkpt>
      <trkpt lat="27.846845" lon="86.758694">
        <ele>4010.2</ele>
        <time>2022-10-28T08:41:32.000Z</time>
      </trkpt>
      <trkpt lat="27.846854" lon="86.758669">
        <ele>4009.6</ele>
        <time>2022-10-28T08:41:34.000Z</time>
      </trkpt>
      <trkpt lat="27.846858" lon="86.758637">
        <ele>4009.4</ele>
        <time>2022-10-28T08:41:36.000Z</time>
      </trkpt>
      <trkpt lat="27.846858" lon="86.758611">
        <ele>4009.4</ele>
        <time>2022-10-28T08:41:38.000Z</time>
      </trkpt>
      <trkpt lat="27.846851" lon="86.758592">
        <ele>4009.6</ele>
        <time>2022-10-28T08:41:40.000Z</time>
      </trkpt>
      <trkpt lat="27.846854" lon="86.75856">
        <ele>4009.4</ele>
        <time>2022-10-28T08:41:43.000Z</time>
      </trkpt>
      <trkpt lat="27.846848" lon="86.758534">
        <ele>4009.4</ele>
        <time>2022-10-28T08:41:45.000Z</time>
      </trkpt>
      <trkpt lat="27.846838" lon="86.758515">
        <ele>4008</ele>
        <time>2022-10-28T08:41:48.000Z</time>
      </trkpt>
      <trkpt lat="27.846829" lon="86.758496">
        <ele>4007.8</ele>
        <time>2022-10-28T08:41:50.000Z</time>
      </trkpt>
      <trkpt lat="27.846822" lon="86.758477">
        <ele>4007</ele>
        <time>2022-10-28T08:41:53.000Z</time>
      </trkpt>
      <trkpt lat="27.846819" lon="86.758451">
        <ele>4006.6</ele>
        <time>2022-10-28T08:41:56.000Z</time>
      </trkpt>
      <trkpt lat="27.846797" lon="86.758438">
        <ele>4005.4</ele>
        <time>2022-10-28T08:42:00.000Z</time>
      </trkpt>
      <trkpt lat="27.846794" lon="86.758413">
        <ele>4003.4</ele>
        <time>2022-10-28T08:43:16.000Z</time>
      </trkpt>
      <trkpt lat="27.846787" lon="86.758394">
        <ele>4003.2</ele>
        <time>2022-10-28T08:43:18.000Z</time>
      </trkpt>
      <trkpt lat="27.846778" lon="86.758362">
        <ele>4002.4</ele>
        <time>2022-10-28T08:43:24.000Z</time>
      </trkpt>
      <trkpt lat="27.846787" lon="86.75833">
        <ele>4000.8</ele>
        <time>2022-10-28T08:44:02.000Z</time>
      </trkpt>
      <trkpt lat="27.846803" lon="86.758298">
        <ele>3999.6</ele>
        <time>2022-10-28T08:44:04.000Z</time>
      </trkpt>
      <trkpt lat="27.846806" lon="86.758272">
        <ele>3999</ele>
        <time>2022-10-28T08:44:06.000Z</time>
      </trkpt>
      <trkpt lat="27.84681" lon="86.758246">
        <ele>3999.4</ele>
        <time>2022-10-28T08:44:08.000Z</time>
      </trkpt>
      <trkpt lat="27.846822" lon="86.758214">
        <ele>3999</ele>
        <time>2022-10-28T08:44:10.000Z</time>
      </trkpt>
      <trkpt lat="27.846826" lon="86.758189">
        <ele>3997.6</ele>
        <time>2022-10-28T08:44:14.000Z</time>
      </trkpt>
      <trkpt lat="27.846832" lon="86.75817">
        <ele>3997</ele>
        <time>2022-10-28T08:44:16.000Z</time>
      </trkpt>
      <trkpt lat="27.846845" lon="86.75815">
        <ele>3996</ele>
        <time>2022-10-28T08:44:19.000Z</time>
      </trkpt>
      <trkpt lat="27.846851" lon="86.758125">
        <ele>3995.6</ele>
        <time>2022-10-28T08:44:22.000Z</time>
      </trkpt>
      <trkpt lat="27.84687" lon="86.758106">
        <ele>3995</ele>
        <time>2022-10-28T08:44:25.000Z</time>
      </trkpt>
      <trkpt lat="27.846877" lon="86.758086">
        <ele>3994.2</ele>
        <time>2022-10-28T08:44:27.000Z</time>
      </trkpt>
      <trkpt lat="27.846886" lon="86.758067">
        <ele>3993.6</ele>
        <time>2022-10-28T08:44:30.000Z</time>
      </trkpt>
      <trkpt lat="27.846893" lon="86.758048">
        <ele>3993.2</ele>
        <time>2022-10-28T08:44:32.000Z</time>
      </trkpt>
      <trkpt lat="27.846886" lon="86.758016">
        <ele>3992.4</ele>
        <time>2022-10-28T08:44:36.000Z</time>
      </trkpt>
      <trkpt lat="27.846877" lon="86.75799">
        <ele>3992.2</ele>
        <time>2022-10-28T08:44:39.000Z</time>
      </trkpt>
      <trkpt lat="27.846867" lon="86.757965">
        <ele>3991.2</ele>
        <time>2022-10-28T08:44:42.000Z</time>
      </trkpt>
      <trkpt lat="27.846861" lon="86.757939">
        <ele>3990.4</ele>
        <time>2022-10-28T08:44:45.000Z</time>
      </trkpt>
      <trkpt lat="27.846864" lon="86.757914">
        <ele>3989.2</ele>
        <time>2022-10-28T08:44:59.000Z</time>
      </trkpt>
      <trkpt lat="27.846874" lon="86.757888">
        <ele>3988.2</ele>
        <time>2022-10-28T08:45:03.000Z</time>
      </trkpt>
      <trkpt lat="27.84688" lon="86.757856">
        <ele>3986.4</ele>
        <time>2022-10-28T08:45:10.000Z</time>
      </trkpt>
      <trkpt lat="27.84687" lon="86.757837">
        <ele>3985</ele>
        <time>2022-10-28T08:45:15.000Z</time>
      </trkpt>
      <trkpt lat="27.846909" lon="86.757818">
        <ele>3983</ele>
        <time>2022-10-28T08:45:22.000Z</time>
      </trkpt>
      <trkpt lat="27.846925" lon="86.757798">
        <ele>3979</ele>
        <time>2022-10-28T08:45:47.000Z</time>
      </trkpt>
      <trkpt lat="27.846925" lon="86.757766">
        <ele>3978.2</ele>
        <time>2022-10-28T08:45:49.000Z</time>
      </trkpt>
      <trkpt lat="27.846922" lon="86.757734">
        <ele>3977.4</ele>
        <time>2022-10-28T08:45:51.000Z</time>
      </trkpt>
      <trkpt lat="27.846912" lon="86.757715">
        <ele>3977.2</ele>
        <time>2022-10-28T08:45:52.000Z</time>
      </trkpt>
      <trkpt lat="27.846906" lon="86.757696">
        <ele>3977</ele>
        <time>2022-10-28T08:45:53.000Z</time>
      </trkpt>
      <trkpt lat="27.846886" lon="86.75767">
        <ele>3976.4</ele>
        <time>2022-10-28T08:45:55.000Z</time>
      </trkpt>
      <trkpt lat="27.84688" lon="86.757651">
        <ele>3976.4</ele>
        <time>2022-10-28T08:45:57.000Z</time>
      </trkpt>
      <trkpt lat="27.846877" lon="86.757619">
        <ele>3977.6</ele>
        <time>2022-10-28T08:46:01.000Z</time>
      </trkpt>
      <trkpt lat="27.846886" lon="86.7576">
        <ele>3977.4</ele>
        <time>2022-10-28T08:46:04.000Z</time>
      </trkpt>
      <trkpt lat="27.846896" lon="86.757581">
        <ele>3978</ele>
        <time>2022-10-28T08:46:06.000Z</time>
      </trkpt>
      <trkpt lat="27.846912" lon="86.757568">
        <ele>3978</ele>
        <time>2022-10-28T08:46:08.000Z</time>
      </trkpt>
      <trkpt lat="27.846934" lon="86.757555">
        <ele>3978.2</ele>
        <time>2022-10-28T08:46:11.000Z</time>
      </trkpt>
      <trkpt lat="27.846957" lon="86.757555">
        <ele>3978.8</ele>
        <time>2022-10-28T08:46:14.000Z</time>
      </trkpt>
      <trkpt lat="27.846979" lon="86.757542">
        <ele>3979.2</ele>
        <time>2022-10-28T08:46:16.000Z</time>
      </trkpt>
      <trkpt lat="27.846995" lon="86.757555">
        <ele>3979.8</ele>
        <time>2022-10-28T08:46:18.000Z</time>
      </trkpt>
      <trkpt lat="27.847011" lon="86.757542">
        <ele>3980</ele>
        <time>2022-10-28T08:46:20.000Z</time>
      </trkpt>
      <trkpt lat="27.847034" lon="86.757536">
        <ele>3980.2</ele>
        <time>2022-10-28T08:46:23.000Z</time>
      </trkpt>
      <trkpt lat="27.847053" lon="86.75753">
        <ele>3980</ele>
        <time>2022-10-28T08:46:26.000Z</time>
      </trkpt>
      <trkpt lat="27.847072" lon="86.757523">
        <ele>3981.2</ele>
        <time>2022-10-28T08:46:43.000Z</time>
      </trkpt>
      <trkpt lat="27.847082" lon="86.757498">
        <ele>3981.2</ele>
        <time>2022-10-28T08:46:45.000Z</time>
      </trkpt>
      <trkpt lat="27.847088" lon="86.757472">
        <ele>3980.4</ele>
        <time>2022-10-28T08:46:48.000Z</time>
      </trkpt>
      <trkpt lat="27.847098" lon="86.75744">
        <ele>3980.8</ele>
        <time>2022-10-28T08:46:50.000Z</time>
      </trkpt>
      <trkpt lat="27.84711" lon="86.757421">
        <ele>3981.2</ele>
        <time>2022-10-28T08:46:52.000Z</time>
      </trkpt>
      <trkpt lat="27.847126" lon="86.757408">
        <ele>3981.4</ele>
        <time>2022-10-28T08:46:55.000Z</time>
      </trkpt>
      <trkpt lat="27.847142" lon="86.757395">
        <ele>3982</ele>
        <time>2022-10-28T08:46:57.000Z</time>
      </trkpt>
      <trkpt lat="27.847162" lon="86.757382">
        <ele>3982.2</ele>
        <time>2022-10-28T08:46:59.000Z</time>
      </trkpt>
      <trkpt lat="27.847181" lon="86.757357">
        <ele>3982.2</ele>
        <time>2022-10-28T08:47:02.000Z</time>
      </trkpt>
      <trkpt lat="27.847203" lon="86.757338">
        <ele>3982</ele>
        <time>2022-10-28T08:47:05.000Z</time>
      </trkpt>
      <trkpt lat="27.847216" lon="86.757318">
        <ele>3982</ele>
        <time>2022-10-28T08:47:07.000Z</time>
      </trkpt>
      <trkpt lat="27.847226" lon="86.757299">
        <ele>3981.8</ele>
        <time>2022-10-28T08:47:09.000Z</time>
      </trkpt>
      <trkpt lat="27.847235" lon="86.75728">
        <ele>3981.4</ele>
        <time>2022-10-28T08:47:11.000Z</time>
      </trkpt>
      <trkpt lat="27.847242" lon="86.757261">
        <ele>3981.8</ele>
        <time>2022-10-28T08:47:13.000Z</time>
      </trkpt>
      <trkpt lat="27.847261" lon="86.757242">
        <ele>3981.2</ele>
        <time>2022-10-28T08:47:16.000Z</time>
      </trkpt>
      <trkpt lat="27.847283" lon="86.757222">
        <ele>3980.8</ele>
        <time>2022-10-28T08:47:19.000Z</time>
      </trkpt>
      <trkpt lat="27.84729" lon="86.757203">
        <ele>3981</ele>
        <time>2022-10-28T08:47:21.000Z</time>
      </trkpt>
      <trkpt lat="27.847299" lon="86.757184">
        <ele>3981.2</ele>
        <time>2022-10-28T08:47:23.000Z</time>
      </trkpt>
      <trkpt lat="27.847322" lon="86.757165">
        <ele>3981</ele>
        <time>2022-10-28T08:47:26.000Z</time>
      </trkpt>
      <trkpt lat="27.847334" lon="86.757139">
        <ele>3980.8</ele>
        <time>2022-10-28T08:47:28.000Z</time>
      </trkpt>
      <trkpt lat="27.84736" lon="86.757126">
        <ele>3981</ele>
        <time>2022-10-28T08:47:31.000Z</time>
      </trkpt>
      <trkpt lat="27.847379" lon="86.757114">
        <ele>3980.6</ele>
        <time>2022-10-28T08:47:33.000Z</time>
      </trkpt>
      <trkpt lat="27.847398" lon="86.757094">
        <ele>3980.2</ele>
        <time>2022-10-28T08:47:36.000Z</time>
      </trkpt>
      <trkpt lat="27.847411" lon="86.757075">
        <ele>3980.2</ele>
        <time>2022-10-28T08:47:38.000Z</time>
      </trkpt>
      <trkpt lat="27.847427" lon="86.757056">
        <ele>3979.4</ele>
        <time>2022-10-28T08:47:40.000Z</time>
      </trkpt>
      <trkpt lat="27.847443" lon="86.757043">
        <ele>3979</ele>
        <time>2022-10-28T08:47:42.000Z</time>
      </trkpt>
      <trkpt lat="27.84745" lon="86.757024">
        <ele>3978.8</ele>
        <time>2022-10-28T08:47:45.000Z</time>
      </trkpt>
      <trkpt lat="27.847456" lon="86.756986">
        <ele>3978.2</ele>
        <time>2022-10-28T08:47:48.000Z</time>
      </trkpt>
      <trkpt lat="27.847466" lon="86.756966">
        <ele>3977.2</ele>
        <time>2022-10-28T08:47:52.000Z</time>
      </trkpt>
      <trkpt lat="27.847472" lon="86.756947">
        <ele>3976.8</ele>
        <time>2022-10-28T08:47:54.000Z</time>
      </trkpt>
      <trkpt lat="27.847491" lon="86.756941">
        <ele>3976.4</ele>
        <time>2022-10-28T08:47:56.000Z</time>
      </trkpt>
      <trkpt lat="27.847498" lon="86.756915">
        <ele>3975.8</ele>
        <time>2022-10-28T08:48:00.000Z</time>
      </trkpt>
      <trkpt lat="27.847501" lon="86.75689">
        <ele>3975.8</ele>
        <time>2022-10-28T08:48:03.000Z</time>
      </trkpt>
      <trkpt lat="27.847501" lon="86.756864">
        <ele>3974.8</ele>
        <time>2022-10-28T08:48:05.000Z</time>
      </trkpt>
      <trkpt lat="27.847501" lon="86.756826">
        <ele>3974.2</ele>
        <time>2022-10-28T08:48:08.000Z</time>
      </trkpt>
      <trkpt lat="27.847491" lon="86.756806">
        <ele>3974</ele>
        <time>2022-10-28T08:48:12.000Z</time>
      </trkpt>
      <trkpt lat="27.847469" lon="86.7568">
        <ele>3973.4</ele>
        <time>2022-10-28T08:48:15.000Z</time>
      </trkpt>
      <trkpt lat="27.847453" lon="86.756787">
        <ele>3973.2</ele>
        <time>2022-10-28T08:48:17.000Z</time>
      </trkpt>
      <trkpt lat="27.847434" lon="86.756768">
        <ele>3972.8</ele>
        <time>2022-10-28T08:48:21.000Z</time>
      </trkpt>
      <trkpt lat="27.847421" lon="86.756742">
        <ele>3972</ele>
        <time>2022-10-28T08:48:25.000Z</time>
      </trkpt>
      <trkpt lat="27.847408" lon="86.756723">
        <ele>3971.2</ele>
        <time>2022-10-28T08:48:29.000Z</time>
      </trkpt>
      <trkpt lat="27.847395" lon="86.756704">
        <ele>3970.8</ele>
        <time>2022-10-28T08:48:32.000Z</time>
      </trkpt>
      <trkpt lat="27.847389" lon="86.756685">
        <ele>3968.4</ele>
        <time>2022-10-28T08:48:38.000Z</time>
      </trkpt>
      <trkpt lat="27.847382" lon="86.756666">
        <ele>3968.2</ele>
        <time>2022-10-28T08:48:40.000Z</time>
      </trkpt>
      <trkpt lat="27.847382" lon="86.75664">
        <ele>3966.6</ele>
        <time>2022-10-28T08:48:43.000Z</time>
      </trkpt>
      <trkpt lat="27.847382" lon="86.756608">
        <ele>3966</ele>
        <time>2022-10-28T08:48:45.000Z</time>
      </trkpt>
      <trkpt lat="27.847382" lon="86.756582">
        <ele>3965.2</ele>
        <time>2022-10-28T08:48:47.000Z</time>
      </trkpt>
      <trkpt lat="27.847382" lon="86.756557">
        <ele>3964.8</ele>
        <time>2022-10-28T08:48:57.000Z</time>
      </trkpt>
      <trkpt lat="27.847376" lon="86.756531">
        <ele>3964.6</ele>
        <time>2022-10-28T08:49:00.000Z</time>
      </trkpt>
      <trkpt lat="27.847376" lon="86.756506">
        <ele>3965</ele>
        <time>2022-10-28T08:49:02.000Z</time>
      </trkpt>
      <trkpt lat="27.847373" lon="86.75648">
        <ele>3964.6</ele>
        <time>2022-10-28T08:49:05.000Z</time>
      </trkpt>
      <trkpt lat="27.847366" lon="86.756461">
        <ele>3963.6</ele>
        <time>2022-10-28T08:49:09.000Z</time>
      </trkpt>
      <trkpt lat="27.847376" lon="86.756429">
        <ele>3962</ele>
        <time>2022-10-28T08:49:14.000Z</time>
      </trkpt>
      <trkpt lat="27.847389" lon="86.75641">
        <ele>3961</ele>
        <time>2022-10-28T08:49:17.000Z</time>
      </trkpt>
      <trkpt lat="27.847405" lon="86.75639">
        <ele>3957</ele>
        <time>2022-10-28T08:49:45.000Z</time>
      </trkpt>
      <trkpt lat="27.847398" lon="86.756358">
        <ele>3956.6</ele>
        <time>2022-10-28T08:49:48.000Z</time>
      </trkpt>
      <trkpt lat="27.847392" lon="86.756339">
        <ele>3956.4</ele>
        <time>2022-10-28T08:49:49.000Z</time>
      </trkpt>
      <trkpt lat="27.847386" lon="86.756294">
        <ele>3955.2</ele>
        <time>2022-10-28T08:49:52.000Z</time>
      </trkpt>
      <trkpt lat="27.847389" lon="86.756262">
        <ele>3954.6</ele>
        <time>2022-10-28T08:49:54.000Z</time>
      </trkpt>
      <trkpt lat="27.847392" lon="86.756224">
        <ele>3953.8</ele>
        <time>2022-10-28T08:49:57.000Z</time>
      </trkpt>
      <trkpt lat="27.847389" lon="86.756186">
        <ele>3953.8</ele>
        <time>2022-10-28T08:50:00.000Z</time>
      </trkpt>
      <trkpt lat="27.847398" lon="86.756166">
        <ele>3953.6</ele>
        <time>2022-10-28T08:50:02.000Z</time>
      </trkpt>
      <trkpt lat="27.847405" lon="86.756147">
        <ele>3953.4</ele>
        <time>2022-10-28T08:50:04.000Z</time>
      </trkpt>
      <trkpt lat="27.847408" lon="86.756122">
        <ele>3953.6</ele>
        <time>2022-10-28T08:50:09.000Z</time>
      </trkpt>
      <trkpt lat="27.847408" lon="86.756045">
        <ele>3952.6</ele>
        <time>2022-10-28T08:51:36.000Z</time>
      </trkpt>
      <trkpt lat="27.847398" lon="86.756019">
        <ele>3952.8</ele>
        <time>2022-10-28T08:51:38.000Z</time>
      </trkpt>
      <trkpt lat="27.847392" lon="86.755987">
        <ele>3952.8</ele>
        <time>2022-10-28T08:51:40.000Z</time>
      </trkpt>
      <trkpt lat="27.847386" lon="86.755942">
        <ele>3952.8</ele>
        <time>2022-10-28T08:51:43.000Z</time>
      </trkpt>
      <trkpt lat="27.847379" lon="86.755904">
        <ele>3952.8</ele>
        <time>2022-10-28T08:51:45.000Z</time>
      </trkpt>
      <trkpt lat="27.847354" lon="86.755891">
        <ele>3952</ele>
        <time>2022-10-28T08:51:48.000Z</time>
      </trkpt>
      <trkpt lat="27.847334" lon="86.755898">
        <ele>3952</ele>
        <time>2022-10-28T08:51:50.000Z</time>
      </trkpt>
      <trkpt lat="27.847315" lon="86.755904">
        <ele>3952</ele>
        <time>2022-10-28T08:51:52.000Z</time>
      </trkpt>
      <trkpt lat="27.847296" lon="86.75591">
        <ele>3951.4</ele>
        <time>2022-10-28T08:51:54.000Z</time>
      </trkpt>
      <trkpt lat="27.84727" lon="86.75591">
        <ele>3951.2</ele>
        <time>2022-10-28T08:52:13.000Z</time>
      </trkpt>
      <trkpt lat="27.847245" lon="86.755904">
        <ele>3951</ele>
        <time>2022-10-28T08:52:15.000Z</time>
      </trkpt>
      <trkpt lat="27.847216" lon="86.755904">
        <ele>3950.4</ele>
        <time>2022-10-28T08:52:17.000Z</time>
      </trkpt>
      <trkpt lat="27.84719" lon="86.755898">
        <ele>3950.4</ele>
        <time>2022-10-28T08:52:19.000Z</time>
      </trkpt>
      <trkpt lat="27.847165" lon="86.755885">
        <ele>3950.4</ele>
        <time>2022-10-28T08:52:21.000Z</time>
      </trkpt>
      <trkpt lat="27.847139" lon="86.755859">
        <ele>3951.6</ele>
        <time>2022-10-28T08:52:47.000Z</time>
      </trkpt>
      <trkpt lat="27.847123" lon="86.755846">
        <ele>3951.6</ele>
        <time>2022-10-28T08:52:49.000Z</time>
      </trkpt>
      <trkpt lat="27.847117" lon="86.755827">
        <ele>3952.4</ele>
        <time>2022-10-28T08:52:50.000Z</time>
      </trkpt>
      <trkpt lat="27.847094" lon="86.755814">
        <ele>3952.6</ele>
        <time>2022-10-28T08:52:52.000Z</time>
      </trkpt>
      <trkpt lat="27.847085" lon="86.755795">
        <ele>3952.6</ele>
        <time>2022-10-28T08:52:53.000Z</time>
      </trkpt>
      <trkpt lat="27.847069" lon="86.755776">
        <ele>3952.8</ele>
        <time>2022-10-28T08:52:55.000Z</time>
      </trkpt>
      <trkpt lat="27.847053" lon="86.755763">
        <ele>3953.4</ele>
        <time>2022-10-28T08:52:58.000Z</time>
      </trkpt>
      <trkpt lat="27.847037" lon="86.75575">
        <ele>3953.2</ele>
        <time>2022-10-28T08:53:00.000Z</time>
      </trkpt>
      <trkpt lat="27.847021" lon="86.755731">
        <ele>3954.2</ele>
        <time>2022-10-28T08:53:05.000Z</time>
      </trkpt>
      <trkpt lat="27.847011" lon="86.755712">
        <ele>3954.6</ele>
        <time>2022-10-28T08:53:09.000Z</time>
      </trkpt>
      <trkpt lat="27.847011" lon="86.755686">
        <ele>3955.6</ele>
        <time>2022-10-28T08:53:19.000Z</time>
      </trkpt>
      <trkpt lat="27.846925" lon="86.755571">
        <ele>3963</ele>
        <time>2022-10-28T08:54:56.000Z</time>
      </trkpt>
      <trkpt lat="27.846912" lon="86.755552">
        <ele>3963.4</ele>
        <time>2022-10-28T08:54:58.000Z</time>
      </trkpt>
      <trkpt lat="27.846877" lon="86.755514">
        <ele>3963.4</ele>
        <time>2022-10-28T08:55:02.000Z</time>
      </trkpt>
      <trkpt lat="27.846864" lon="86.755494">
        <ele>3963.6</ele>
        <time>2022-10-28T08:55:04.000Z</time>
      </trkpt>
      <trkpt lat="27.846854" lon="86.755475">
        <ele>3963.8</ele>
        <time>2022-10-28T08:55:05.000Z</time>
      </trkpt>
      <trkpt lat="27.846835" lon="86.755469">
        <ele>3964</ele>
        <time>2022-10-28T08:55:07.000Z</time>
      </trkpt>
      <trkpt lat="27.846816" lon="86.755456">
        <ele>3964</ele>
        <time>2022-10-28T08:55:09.000Z</time>
      </trkpt>
      <trkpt lat="27.846794" lon="86.75545">
        <ele>3963.8</ele>
        <time>2022-10-28T08:55:11.000Z</time>
      </trkpt>
      <trkpt lat="27.846778" lon="86.755437">
        <ele>3963.8</ele>
        <time>2022-10-28T08:55:13.000Z</time>
      </trkpt>
      <trkpt lat="27.846755" lon="86.755437">
        <ele>3963.8</ele>
        <time>2022-10-28T08:55:17.000Z</time>
      </trkpt>
      <trkpt lat="27.846739" lon="86.755424">
        <ele>3964.2</ele>
        <time>2022-10-28T08:55:19.000Z</time>
      </trkpt>
      <trkpt lat="27.846707" lon="86.755392">
        <ele>3964.4</ele>
        <time>2022-10-28T08:55:24.000Z</time>
      </trkpt>
      <trkpt lat="27.846688" lon="86.755373">
        <ele>3965</ele>
        <time>2022-10-28T08:55:27.000Z</time>
      </trkpt>
      <trkpt lat="27.846675" lon="86.755347">
        <ele>3965.2</ele>
        <time>2022-10-28T08:55:29.000Z</time>
      </trkpt>
      <trkpt lat="27.846662" lon="86.755315">
        <ele>3965.2</ele>
        <time>2022-10-28T08:55:32.000Z</time>
      </trkpt>
      <trkpt lat="27.846659" lon="86.75529">
        <ele>3965.4</ele>
        <time>2022-10-28T08:55:35.000Z</time>
      </trkpt>
      <trkpt lat="27.84665" lon="86.755264">
        <ele>3965.4</ele>
        <time>2022-10-28T08:55:37.000Z</time>
      </trkpt>
      <trkpt lat="27.84664" lon="86.755238">
        <ele>3965.4</ele>
        <time>2022-10-28T08:55:39.000Z</time>
      </trkpt>
      <trkpt lat="27.846624" lon="86.755226">
        <ele>3965.8</ele>
        <time>2022-10-28T08:55:42.000Z</time>
      </trkpt>
      <trkpt lat="27.846602" lon="86.755219">
        <ele>3966.4</ele>
        <time>2022-10-28T08:55:45.000Z</time>
      </trkpt>
      <trkpt lat="27.846582" lon="86.755213">
        <ele>3966.6</ele>
        <time>2022-10-28T08:55:47.000Z</time>
      </trkpt>
      <trkpt lat="27.84656" lon="86.755206">
        <ele>3966.8</ele>
        <time>2022-10-28T08:55:49.000Z</time>
      </trkpt>
      <trkpt lat="27.846534" lon="86.755206">
        <ele>3967.2</ele>
        <time>2022-10-28T08:55:52.000Z</time>
      </trkpt>
      <trkpt lat="27.846515" lon="86.755206">
        <ele>3967.4</ele>
        <time>2022-10-28T08:55:54.000Z</time>
      </trkpt>
      <trkpt lat="27.846496" lon="86.755187">
        <ele>3967.2</ele>
        <time>2022-10-28T08:55:56.000Z</time>
      </trkpt>
      <trkpt lat="27.846477" lon="86.755181">
        <ele>3966.8</ele>
        <time>2022-10-28T08:55:58.000Z</time>
      </trkpt>
      <trkpt lat="27.846461" lon="86.755168">
        <ele>3966.8</ele>
        <time>2022-10-28T08:56:00.000Z</time>
      </trkpt>
      <trkpt lat="27.846442" lon="86.755155">
        <ele>3966</ele>
        <time>2022-10-28T08:56:02.000Z</time>
      </trkpt>
      <trkpt lat="27.846416" lon="86.755149">
        <ele>3965.4</ele>
        <time>2022-10-28T08:56:05.000Z</time>
      </trkpt>
      <trkpt lat="27.846397" lon="86.755142">
        <ele>3964.8</ele>
        <time>2022-10-28T08:56:07.000Z</time>
      </trkpt>
      <trkpt lat="27.846371" lon="86.75513">
        <ele>3964</ele>
        <time>2022-10-28T08:56:09.000Z</time>
      </trkpt>
      <trkpt lat="27.846352" lon="86.755117">
        <ele>3963.6</ele>
        <time>2022-10-28T08:56:11.000Z</time>
      </trkpt>
      <trkpt lat="27.84633" lon="86.755104">
        <ele>3962.8</ele>
        <time>2022-10-28T08:56:13.000Z</time>
      </trkpt>
      <trkpt lat="27.846307" lon="86.755098">
        <ele>3962.2</ele>
        <time>2022-10-28T08:56:15.000Z</time>
      </trkpt>
      <trkpt lat="27.846282" lon="86.755078">
        <ele>3962</ele>
        <time>2022-10-28T08:56:17.000Z</time>
      </trkpt>
      <trkpt lat="27.846262" lon="86.755072">
        <ele>3961.2</ele>
        <time>2022-10-28T08:56:19.000Z</time>
      </trkpt>
      <trkpt lat="27.84624" lon="86.755066">
        <ele>3961</ele>
        <time>2022-10-28T08:56:21.000Z</time>
      </trkpt>
      <trkpt lat="27.846218" lon="86.755053">
        <ele>3960.6</ele>
        <time>2022-10-28T08:56:23.000Z</time>
      </trkpt>
      <trkpt lat="27.846192" lon="86.75504">
        <ele>3960.6</ele>
        <time>2022-10-28T08:56:25.000Z</time>
      </trkpt>
      <trkpt lat="27.84617" lon="86.755034">
        <ele>3960</ele>
        <time>2022-10-28T08:56:27.000Z</time>
      </trkpt>
      <trkpt lat="27.846154" lon="86.755021">
        <ele>3959.8</ele>
        <time>2022-10-28T08:56:29.000Z</time>
      </trkpt>
      <trkpt lat="27.846141" lon="86.754989">
        <ele>3959.8</ele>
        <time>2022-10-28T08:56:31.000Z</time>
      </trkpt>
      <trkpt lat="27.846131" lon="86.75497">
        <ele>3959.2</ele>
        <time>2022-10-28T08:56:33.000Z</time>
      </trkpt>
      <trkpt lat="27.846122" lon="86.754938">
        <ele>3959.2</ele>
        <time>2022-10-28T08:56:35.000Z</time>
      </trkpt>
      <trkpt lat="27.846115" lon="86.754912">
        <ele>3959</ele>
        <time>2022-10-28T08:56:37.000Z</time>
      </trkpt>
      <trkpt lat="27.846102" lon="86.754893">
        <ele>3958.8</ele>
        <time>2022-10-28T08:56:39.000Z</time>
      </trkpt>
      <trkpt lat="27.846096" lon="86.754874">
        <ele>3958.8</ele>
        <time>2022-10-28T08:56:40.000Z</time>
      </trkpt>
      <trkpt lat="27.846083" lon="86.754854">
        <ele>3958.6</ele>
        <time>2022-10-28T08:56:42.000Z</time>
      </trkpt>
      <trkpt lat="27.846074" lon="86.754829">
        <ele>3958.2</ele>
        <time>2022-10-28T08:56:44.000Z</time>
      </trkpt>
      <trkpt lat="27.846064" lon="86.75481">
        <ele>3958.2</ele>
        <time>2022-10-28T08:56:46.000Z</time>
      </trkpt>
      <trkpt lat="27.846058" lon="86.75479">
        <ele>3958.2</ele>
        <time>2022-10-28T08:56:47.000Z</time>
      </trkpt>
      <trkpt lat="27.846048" lon="86.754771">
        <ele>3958</ele>
        <time>2022-10-28T08:56:49.000Z</time>
      </trkpt>
      <trkpt lat="27.846038" lon="86.754746">
        <ele>3958.2</ele>
        <time>2022-10-28T08:56:51.000Z</time>
      </trkpt>
      <trkpt lat="27.846022" lon="86.754733">
        <ele>3958.4</ele>
        <time>2022-10-28T08:56:53.000Z</time>
      </trkpt>
      <trkpt lat="27.84601" lon="86.754714">
        <ele>3958.8</ele>
        <time>2022-10-28T08:56:55.000Z</time>
      </trkpt>
      <trkpt lat="27.845994" lon="86.754701">
        <ele>3959</ele>
        <time>2022-10-28T08:56:57.000Z</time>
      </trkpt>
      <trkpt lat="27.845974" lon="86.754675">
        <ele>3959</ele>
        <time>2022-10-28T08:57:00.000Z</time>
      </trkpt>
      <trkpt lat="27.845952" lon="86.754656">
        <ele>3959.4</ele>
        <time>2022-10-28T08:57:03.000Z</time>
      </trkpt>
      <trkpt lat="27.845936" lon="86.754637">
        <ele>3959.4</ele>
        <time>2022-10-28T08:57:05.000Z</time>
      </trkpt>
      <trkpt lat="27.845914" lon="86.754624">
        <ele>3959.2</ele>
        <time>2022-10-28T08:57:07.000Z</time>
      </trkpt>
      <trkpt lat="27.845898" lon="86.754611">
        <ele>3958.8</ele>
        <time>2022-10-28T08:57:09.000Z</time>
      </trkpt>
      <trkpt lat="27.845882" lon="86.754598">
        <ele>3958.2</ele>
        <time>2022-10-28T08:57:16.000Z</time>
      </trkpt>
      <trkpt lat="27.845866" lon="86.754579">
        <ele>3958</ele>
        <time>2022-10-28T08:57:20.000Z</time>
      </trkpt>
      <trkpt lat="27.845843" lon="86.75456">
        <ele>3957.6</ele>
        <time>2022-10-28T08:59:24.000Z</time>
      </trkpt>
      <trkpt lat="27.845885" lon="86.754541">
        <ele>3956.8</ele>
        <time>2022-10-28T08:59:48.000Z</time>
      </trkpt>
      <trkpt lat="27.845894" lon="86.754522">
        <ele>3956.8</ele>
        <time>2022-10-28T08:59:49.000Z</time>
      </trkpt>
      <trkpt lat="27.84592" lon="86.754509">
        <ele>3955.8</ele>
        <time>2022-10-28T08:59:51.000Z</time>
      </trkpt>
      <trkpt lat="27.845946" lon="86.754483">
        <ele>3955.6</ele>
        <time>2022-10-28T08:59:53.000Z</time>
      </trkpt>
      <trkpt lat="27.845971" lon="86.754464">
        <ele>3956.4</ele>
        <time>2022-10-28T08:59:55.000Z</time>
      </trkpt>
      <trkpt lat="27.84599" lon="86.754445">
        <ele>3956.2</ele>
        <time>2022-10-28T08:59:57.000Z</time>
      </trkpt>
      <trkpt lat="27.846013" lon="86.754432">
        <ele>3954.4</ele>
        <time>2022-10-28T09:00:05.000Z</time>
      </trkpt>
      <trkpt lat="27.846026" lon="86.754413">
        <ele>3954.8</ele>
        <time>2022-10-28T09:00:08.000Z</time>
      </trkpt>
      <trkpt lat="27.846035" lon="86.754387">
        <ele>3954.2</ele>
        <time>2022-10-28T09:00:10.000Z</time>
      </trkpt>
      <trkpt lat="27.846054" lon="86.754362">
        <ele>3953.2</ele>
        <time>2022-10-28T09:00:13.000Z</time>
      </trkpt>
      <trkpt lat="27.846067" lon="86.754342">
        <ele>3953.2</ele>
        <time>2022-10-28T09:00:15.000Z</time>
      </trkpt>
      <trkpt lat="27.84608" lon="86.754317">
        <ele>3953</ele>
        <time>2022-10-28T09:00:17.000Z</time>
      </trkpt>
      <trkpt lat="27.846096" lon="86.754298">
        <ele>3951.8</ele>
        <time>2022-10-28T09:00:20.000Z</time>
      </trkpt>
      <trkpt lat="27.846102" lon="86.754272">
        <ele>3951.4</ele>
        <time>2022-10-28T09:00:22.000Z</time>
      </trkpt>
      <trkpt lat="27.84609" lon="86.75431">
        <ele>3952.6</ele>
        <time>2022-10-28T09:01:21.000Z</time>
      </trkpt>
      <trkpt lat="27.84607" lon="86.754355">
        <ele>3953.2</ele>
        <time>2022-10-28T09:01:29.000Z</time>
      </trkpt>
      <trkpt lat="27.84609" lon="86.754336">
        <ele>3951.6</ele>
        <time>2022-10-28T09:01:54.000Z</time>
      </trkpt>
      <trkpt lat="27.846096" lon="86.754317">
        <ele>3951.6</ele>
        <time>2022-10-28T09:01:55.000Z</time>
      </trkpt>
      <trkpt lat="27.846118" lon="86.754285">
        <ele>3950.8</ele>
        <time>2022-10-28T09:01:57.000Z</time>
      </trkpt>
      <trkpt lat="27.846138" lon="86.754246">
        <ele>3950.8</ele>
        <time>2022-10-28T09:01:59.000Z</time>
      </trkpt>
      <trkpt lat="27.84615" lon="86.754227">
        <ele>3950.6</ele>
        <time>2022-10-28T09:02:01.000Z</time>
      </trkpt>
      <trkpt lat="27.84617" lon="86.754202">
        <ele>3950.2</ele>
        <time>2022-10-28T09:02:03.000Z</time>
      </trkpt>
      <trkpt lat="27.846182" lon="86.754182">
        <ele>3949.6</ele>
        <time>2022-10-28T09:02:06.000Z</time>
      </trkpt>
      <trkpt lat="27.846192" lon="86.754163">
        <ele>3949.2</ele>
        <time>2022-10-28T09:02:08.000Z</time>
      </trkpt>
      <trkpt lat="27.846198" lon="86.754144">
        <ele>3949</ele>
        <time>2022-10-28T09:02:10.000Z</time>
      </trkpt>
      <trkpt lat="27.846211" lon="86.754125">
        <ele>3948.6</ele>
        <time>2022-10-28T09:02:12.000Z</time>
      </trkpt>
      <trkpt lat="27.846227" lon="86.754112">
        <ele>3948.4</ele>
        <time>2022-10-28T09:02:14.000Z</time>
      </trkpt>
      <trkpt lat="27.84625" lon="86.754099">
        <ele>3947.6</ele>
        <time>2022-10-28T09:02:17.000Z</time>
      </trkpt>
      <trkpt lat="27.846259" lon="86.754074">
        <ele>3947.2</ele>
        <time>2022-10-28T09:02:19.000Z</time>
      </trkpt>
      <trkpt lat="27.846266" lon="86.754042">
        <ele>3946.4</ele>
        <time>2022-10-28T09:02:22.000Z</time>
      </trkpt>
      <trkpt lat="27.846282" lon="86.754016">
        <ele>3946</ele>
        <time>2022-10-28T09:02:25.000Z</time>
      </trkpt>
      <trkpt lat="27.846291" lon="86.753997">
        <ele>3945.4</ele>
        <time>2022-10-28T09:02:27.000Z</time>
      </trkpt>
      <trkpt lat="27.846298" lon="86.753978">
        <ele>3944.6</ele>
        <time>2022-10-28T09:02:29.000Z</time>
      </trkpt>
      <trkpt lat="27.846307" lon="86.753952">
        <ele>3944.2</ele>
        <time>2022-10-28T09:02:31.000Z</time>
      </trkpt>
      <trkpt lat="27.84632" lon="86.753926">
        <ele>3944</ele>
        <time>2022-10-28T09:02:33.000Z</time>
      </trkpt>
      <trkpt lat="27.846326" lon="86.753901">
        <ele>3943.6</ele>
        <time>2022-10-28T09:02:36.000Z</time>
      </trkpt>
      <trkpt lat="27.846336" lon="86.753875">
        <ele>3943</ele>
        <time>2022-10-28T09:02:38.000Z</time>
      </trkpt>
      <trkpt lat="27.846342" lon="86.753843">
        <ele>3943.6</ele>
        <time>2022-10-28T09:02:41.000Z</time>
      </trkpt>
      <trkpt lat="27.846349" lon="86.753818">
        <ele>3943.2</ele>
        <time>2022-10-28T09:02:43.000Z</time>
      </trkpt>
      <trkpt lat="27.846352" lon="86.753792">
        <ele>3942.8</ele>
        <time>2022-10-28T09:02:45.000Z</time>
      </trkpt>
      <trkpt lat="27.846358" lon="86.75376">
        <ele>3942</ele>
        <time>2022-10-28T09:02:47.000Z</time>
      </trkpt>
      <trkpt lat="27.846368" lon="86.753722">
        <ele>3941.8</ele>
        <time>2022-10-28T09:02:50.000Z</time>
      </trkpt>
      <trkpt lat="27.846378" lon="86.75369">
        <ele>3942</ele>
        <time>2022-10-28T09:02:52.000Z</time>
      </trkpt>
      <trkpt lat="27.846387" lon="86.75367">
        <ele>3941.6</ele>
        <time>2022-10-28T09:02:54.000Z</time>
      </trkpt>
      <trkpt lat="27.846403" lon="86.753645">
        <ele>3941.6</ele>
        <time>2022-10-28T09:02:57.000Z</time>
      </trkpt>
      <trkpt lat="27.846406" lon="86.753619">
        <ele>3941.6</ele>
        <time>2022-10-28T09:03:00.000Z</time>
      </trkpt>
      <trkpt lat="27.846416" lon="86.753594">
        <ele>3940.8</ele>
        <time>2022-10-28T09:03:02.000Z</time>
      </trkpt>
      <trkpt lat="27.846426" lon="86.753568">
        <ele>3940.6</ele>
        <time>2022-10-28T09:03:04.000Z</time>
      </trkpt>
      <trkpt lat="27.846435" lon="86.753549">
        <ele>3940</ele>
        <time>2022-10-28T09:03:06.000Z</time>
      </trkpt>
      <trkpt lat="27.846442" lon="86.75353">
        <ele>3940</ele>
        <time>2022-10-28T09:03:07.000Z</time>
      </trkpt>
      <trkpt lat="27.846461" lon="86.75351">
        <ele>3940</ele>
        <time>2022-10-28T09:03:09.000Z</time>
      </trkpt>
      <trkpt lat="27.846477" lon="86.753485">
        <ele>3939.8</ele>
        <time>2022-10-28T09:03:11.000Z</time>
      </trkpt>
      <trkpt lat="27.84649" lon="86.753466">
        <ele>3939.6</ele>
        <time>2022-10-28T09:03:13.000Z</time>
      </trkpt>
      <trkpt lat="27.846509" lon="86.75344">
        <ele>3939.6</ele>
        <time>2022-10-28T09:03:15.000Z</time>
      </trkpt>
      <trkpt lat="27.846518" lon="86.753421">
        <ele>3939.4</ele>
        <time>2022-10-28T09:03:17.000Z</time>
      </trkpt>
      <trkpt lat="27.846525" lon="86.753402">
        <ele>3939.4</ele>
        <time>2022-10-28T09:03:18.000Z</time>
      </trkpt>
      <trkpt lat="27.846538" lon="86.753382">
        <ele>3939</ele>
        <time>2022-10-28T09:03:20.000Z</time>
      </trkpt>
      <trkpt lat="27.846547" lon="86.753363">
        <ele>3939</ele>
        <time>2022-10-28T09:03:22.000Z</time>
      </trkpt>
      <trkpt lat="27.846557" lon="86.753331">
        <ele>3938.6</ele>
        <time>2022-10-28T09:03:24.000Z</time>
      </trkpt>
      <trkpt lat="27.846566" lon="86.753312">
        <ele>3938.6</ele>
        <time>2022-10-28T09:03:26.000Z</time>
      </trkpt>
      <trkpt lat="27.846579" lon="86.753286">
        <ele>3938.8</ele>
        <time>2022-10-28T09:03:28.000Z</time>
      </trkpt>
      <trkpt lat="27.846586" lon="86.753267">
        <ele>3938.4</ele>
        <time>2022-10-28T09:03:30.000Z</time>
      </trkpt>
      <trkpt lat="27.846589" lon="86.753235">
        <ele>3937.8</ele>
        <time>2022-10-28T09:03:33.000Z</time>
      </trkpt>
      <trkpt lat="27.846602" lon="86.75321">
        <ele>3937.4</ele>
        <time>2022-10-28T09:03:36.000Z</time>
      </trkpt>
      <trkpt lat="27.846608" lon="86.75319">
        <ele>3937</ele>
        <time>2022-10-28T09:03:39.000Z</time>
      </trkpt>
      <trkpt lat="27.846614" lon="86.753165">
        <ele>3937</ele>
        <time>2022-10-28T09:03:41.000Z</time>
      </trkpt>
      <trkpt lat="27.846624" lon="86.753146">
        <ele>3936.8</ele>
        <time>2022-10-28T09:03:43.000Z</time>
      </trkpt>
      <trkpt lat="27.846634" lon="86.753126">
        <ele>3936.8</ele>
        <time>2022-10-28T09:03:45.000Z</time>
      </trkpt>
      <trkpt lat="27.84665" lon="86.753107">
        <ele>3936.6</ele>
        <time>2022-10-28T09:03:47.000Z</time>
      </trkpt>
      <trkpt lat="27.846666" lon="86.753094">
        <ele>3936.8</ele>
        <time>2022-10-28T09:03:49.000Z</time>
      </trkpt>
      <trkpt lat="27.846682" lon="86.753082">
        <ele>3936.8</ele>
        <time>2022-10-28T09:03:51.000Z</time>
      </trkpt>
      <trkpt lat="27.846698" lon="86.753062">
        <ele>3936.6</ele>
        <time>2022-10-28T09:03:54.000Z</time>
      </trkpt>
      <trkpt lat="27.84671" lon="86.753037">
        <ele>3936.8</ele>
        <time>2022-10-28T09:03:56.000Z</time>
      </trkpt>
      <trkpt lat="27.846726" lon="86.753024">
        <ele>3936.6</ele>
        <time>2022-10-28T09:03:58.000Z</time>
      </trkpt>
      <trkpt lat="27.846742" lon="86.753005">
        <ele>3935.8</ele>
        <time>2022-10-28T09:04:01.000Z</time>
      </trkpt>
      <trkpt lat="27.846758" lon="86.752986">
        <ele>3935.8</ele>
        <time>2022-10-28T09:04:04.000Z</time>
      </trkpt>
      <trkpt lat="27.846765" lon="86.752966">
        <ele>3935</ele>
        <time>2022-10-28T09:04:06.000Z</time>
      </trkpt>
      <trkpt lat="27.846774" lon="86.752947">
        <ele>3934.4</ele>
        <time>2022-10-28T09:04:08.000Z</time>
      </trkpt>
      <trkpt lat="27.846781" lon="86.752928">
        <ele>3934</ele>
        <time>2022-10-28T09:04:10.000Z</time>
      </trkpt>
      <trkpt lat="27.846797" lon="86.752909">
        <ele>3933.6</ele>
        <time>2022-10-28T09:04:13.000Z</time>
      </trkpt>
      <trkpt lat="27.846813" lon="86.75289">
        <ele>3933.6</ele>
        <time>2022-10-28T09:04:15.000Z</time>
      </trkpt>
      <trkpt lat="27.846829" lon="86.75287">
        <ele>3932.8</ele>
        <time>2022-10-28T09:04:18.000Z</time>
      </trkpt>
      <trkpt lat="27.846835" lon="86.752851">
        <ele>3932.6</ele>
        <time>2022-10-28T09:04:19.000Z</time>
      </trkpt>
      <trkpt lat="27.846851" lon="86.752832">
        <ele>3932</ele>
        <time>2022-10-28T09:04:22.000Z</time>
      </trkpt>
      <trkpt lat="27.846864" lon="86.752813">
        <ele>3931.6</ele>
        <time>2022-10-28T09:04:24.000Z</time>
      </trkpt>
      <trkpt lat="27.84688" lon="86.752794">
        <ele>3930.8</ele>
        <time>2022-10-28T09:04:27.000Z</time>
      </trkpt>
      <trkpt lat="27.84689" lon="86.752774">
        <ele>3930.6</ele>
        <time>2022-10-28T09:04:29.000Z</time>
      </trkpt>
      <trkpt lat="27.846906" lon="86.752762">
        <ele>3930.4</ele>
        <time>2022-10-28T09:04:31.000Z</time>
      </trkpt>
      <trkpt lat="27.846922" lon="86.752749">
        <ele>3930</ele>
        <time>2022-10-28T09:04:33.000Z</time>
      </trkpt>
      <trkpt lat="27.846928" lon="86.752723">
        <ele>3929.8</ele>
        <time>2022-10-28T09:04:35.000Z</time>
      </trkpt>
      <trkpt lat="27.846938" lon="86.752704">
        <ele>3929.6</ele>
        <time>2022-10-28T09:04:37.000Z</time>
      </trkpt>
      <trkpt lat="27.846947" lon="86.752685">
        <ele>3929.4</ele>
        <time>2022-10-28T09:04:39.000Z</time>
      </trkpt>
      <trkpt lat="27.84696" lon="86.752666">
        <ele>3929</ele>
        <time>2022-10-28T09:04:42.000Z</time>
      </trkpt>
      <trkpt lat="27.846966" lon="86.752646">
        <ele>3928.8</ele>
        <time>2022-10-28T09:04:45.000Z</time>
      </trkpt>
      <trkpt lat="27.846973" lon="86.752614">
        <ele>3927.8</ele>
        <time>2022-10-28T09:04:49.000Z</time>
      </trkpt>
      <trkpt lat="27.846989" lon="86.752595">
        <ele>3927</ele>
        <time>2022-10-28T09:04:52.000Z</time>
      </trkpt>
      <trkpt lat="27.846998" lon="86.75257">
        <ele>3927</ele>
        <time>2022-10-28T09:04:54.000Z</time>
      </trkpt>
      <trkpt lat="27.847005" lon="86.75255">
        <ele>3926.6</ele>
        <time>2022-10-28T09:04:56.000Z</time>
      </trkpt>
      <trkpt lat="27.847024" lon="86.752525">
        <ele>3925.8</ele>
        <time>2022-10-28T09:04:58.000Z</time>
      </trkpt>
      <trkpt lat="27.847056" lon="86.752493">
        <ele>3925.6</ele>
        <time>2022-10-28T09:05:02.000Z</time>
      </trkpt>
      <trkpt lat="27.847085" lon="86.75248">
        <ele>3925.4</ele>
        <time>2022-10-28T09:05:05.000Z</time>
      </trkpt>
      <trkpt lat="27.847104" lon="86.752474">
        <ele>3925.2</ele>
        <time>2022-10-28T09:05:07.000Z</time>
      </trkpt>
      <trkpt lat="27.847123" lon="86.752467">
        <ele>3925.2</ele>
        <time>2022-10-28T09:05:09.000Z</time>
      </trkpt>
      <trkpt lat="27.847142" lon="86.752467">
        <ele>3925.2</ele>
        <time>2022-10-28T09:05:11.000Z</time>
      </trkpt>
      <trkpt lat="27.847158" lon="86.752448">
        <ele>3924.8</ele>
        <time>2022-10-28T09:05:15.000Z</time>
      </trkpt>
      <trkpt lat="27.847178" lon="86.752442">
        <ele>3924.8</ele>
        <time>2022-10-28T09:05:20.000Z</time>
      </trkpt>
      <trkpt lat="27.847203" lon="86.752429">
        <ele>3924.6</ele>
        <time>2022-10-28T09:05:40.000Z</time>
      </trkpt>
      <trkpt lat="27.847232" lon="86.75241">
        <ele>3924.2</ele>
        <time>2022-10-28T09:05:42.000Z</time>
      </trkpt>
      <trkpt lat="27.847254" lon="86.752397">
        <ele>3924.2</ele>
        <time>2022-10-28T09:05:44.000Z</time>
      </trkpt>
      <trkpt lat="27.84728" lon="86.75239">
        <ele>3924.2</ele>
        <time>2022-10-28T09:05:46.000Z</time>
      </trkpt>
      <trkpt lat="27.847309" lon="86.752371">
        <ele>3924</ele>
        <time>2022-10-28T09:05:48.000Z</time>
      </trkpt>
      <trkpt lat="27.847331" lon="86.752358">
        <ele>3923.2</ele>
        <time>2022-10-28T09:05:50.000Z</time>
      </trkpt>
      <trkpt lat="27.847344" lon="86.752339">
        <ele>3923</ele>
        <time>2022-10-28T09:05:51.000Z</time>
      </trkpt>
      <trkpt lat="27.84736" lon="86.752326">
        <ele>3922.8</ele>
        <time>2022-10-28T09:05:53.000Z</time>
      </trkpt>
      <trkpt lat="27.847382" lon="86.752314">
        <ele>3922.4</ele>
        <time>2022-10-28T09:05:55.000Z</time>
      </trkpt>
      <trkpt lat="27.847402" lon="86.752294">
        <ele>3922.2</ele>
        <time>2022-10-28T09:05:57.000Z</time>
      </trkpt>
      <trkpt lat="27.847427" lon="86.752275">
        <ele>3921.4</ele>
        <time>2022-10-28T09:06:00.000Z</time>
      </trkpt>
      <trkpt lat="27.847437" lon="86.752256">
        <ele>3921.4</ele>
        <time>2022-10-28T09:06:01.000Z</time>
      </trkpt>
      <trkpt lat="27.847466" lon="86.75225">
        <ele>3921.2</ele>
        <time>2022-10-28T09:06:04.000Z</time>
      </trkpt>
      <trkpt lat="27.847485" lon="86.752243">
        <ele>3921.2</ele>
        <time>2022-10-28T09:06:06.000Z</time>
      </trkpt>
      <trkpt lat="27.847507" lon="86.752237">
        <ele>3921</ele>
        <time>2022-10-28T09:06:08.000Z</time>
      </trkpt>
      <trkpt lat="27.847533" lon="86.752218">
        <ele>3920.8</ele>
        <time>2022-10-28T09:06:10.000Z</time>
      </trkpt>
      <trkpt lat="27.847558" lon="86.752211">
        <ele>3920.8</ele>
        <time>2022-10-28T09:06:12.000Z</time>
      </trkpt>
      <trkpt lat="27.847581" lon="86.752205">
        <ele>3920.6</ele>
        <time>2022-10-28T09:06:14.000Z</time>
      </trkpt>
      <trkpt lat="27.8476" lon="86.752192">
        <ele>3920.2</ele>
        <time>2022-10-28T09:06:16.000Z</time>
      </trkpt>
      <trkpt lat="27.847619" lon="86.752179">
        <ele>3920.6</ele>
        <time>2022-10-28T09:06:18.000Z</time>
      </trkpt>
      <trkpt lat="27.847642" lon="86.752166">
        <ele>3920</ele>
        <time>2022-10-28T09:06:21.000Z</time>
      </trkpt>
      <trkpt lat="27.847661" lon="86.752166">
        <ele>3919.6</ele>
        <time>2022-10-28T09:06:23.000Z</time>
      </trkpt>
      <trkpt lat="27.847677" lon="86.752154">
        <ele>3919.2</ele>
        <time>2022-10-28T09:06:25.000Z</time>
      </trkpt>
      <trkpt lat="27.847693" lon="86.752141">
        <ele>3918.6</ele>
        <time>2022-10-28T09:06:27.000Z</time>
      </trkpt>
      <trkpt lat="27.847712" lon="86.752128">
        <ele>3918.6</ele>
        <time>2022-10-28T09:06:29.000Z</time>
      </trkpt>
      <trkpt lat="27.847734" lon="86.752115">
        <ele>3918</ele>
        <time>2022-10-28T09:06:31.000Z</time>
      </trkpt>
      <trkpt lat="27.84776" lon="86.752109">
        <ele>3917.6</ele>
        <time>2022-10-28T09:06:34.000Z</time>
      </trkpt>
      <trkpt lat="27.847779" lon="86.752096">
        <ele>3917.2</ele>
        <time>2022-10-28T09:06:36.000Z</time>
      </trkpt>
      <trkpt lat="27.847798" lon="86.75209">
        <ele>3917</ele>
        <time>2022-10-28T09:06:38.000Z</time>
      </trkpt>
      <trkpt lat="27.847821" lon="86.75209">
        <ele>3916</ele>
        <time>2022-10-28T09:06:40.000Z</time>
      </trkpt>
      <trkpt lat="27.84784" lon="86.752096">
        <ele>3915.8</ele>
        <time>2022-10-28T09:06:43.000Z</time>
      </trkpt>
      <trkpt lat="27.847859" lon="86.752096">
        <ele>3915.6</ele>
        <time>2022-10-28T09:06:45.000Z</time>
      </trkpt>
      <trkpt lat="27.847882" lon="86.752096">
        <ele>3915.4</ele>
        <time>2022-10-28T09:06:47.000Z</time>
      </trkpt>
      <trkpt lat="27.847904" lon="86.752109">
        <ele>3915</ele>
        <time>2022-10-28T09:06:49.000Z</time>
      </trkpt>
      <trkpt lat="27.847926" lon="86.752096">
        <ele>3914.6</ele>
        <time>2022-10-28T09:06:51.000Z</time>
      </trkpt>
      <trkpt lat="27.847952" lon="86.752096">
        <ele>3914</ele>
        <time>2022-10-28T09:06:54.000Z</time>
      </trkpt>
      <trkpt lat="27.847978" lon="86.752083">
        <ele>3913.4</ele>
        <time>2022-10-28T09:06:58.000Z</time>
      </trkpt>
      <trkpt lat="27.847997" lon="86.752083">
        <ele>3913</ele>
        <time>2022-10-28T09:07:00.000Z</time>
      </trkpt>
      <trkpt lat="27.848016" lon="86.752077">
        <ele>3912.6</ele>
        <time>2022-10-28T09:07:03.000Z</time>
      </trkpt>
      <trkpt lat="27.848029" lon="86.752058">
        <ele>3911.8</ele>
        <time>2022-10-28T09:07:05.000Z</time>
      </trkpt>
      <trkpt lat="27.848048" lon="86.752038">
        <ele>3911.8</ele>
        <time>2022-10-28T09:07:07.000Z</time>
      </trkpt>
      <trkpt lat="27.848074" lon="86.752019">
        <ele>3911.6</ele>
        <time>2022-10-28T09:07:09.000Z</time>
      </trkpt>
      <trkpt lat="27.84809" lon="86.752006">
        <ele>3910.8</ele>
        <time>2022-10-28T09:07:12.000Z</time>
      </trkpt>
      <trkpt lat="27.848109" lon="86.752">
        <ele>3910.8</ele>
        <time>2022-10-28T09:07:14.000Z</time>
      </trkpt>
      <trkpt lat="27.848128" lon="86.751981">
        <ele>3910.8</ele>
        <time>2022-10-28T09:07:16.000Z</time>
      </trkpt>
      <trkpt lat="27.848147" lon="86.751974">
        <ele>3910.4</ele>
        <time>2022-10-28T09:07:18.000Z</time>
      </trkpt>
      <trkpt lat="27.848166" lon="86.751968">
        <ele>3910.2</ele>
        <time>2022-10-28T09:07:20.000Z</time>
      </trkpt>
      <trkpt lat="27.848189" lon="86.751968">
        <ele>3909.4</ele>
        <time>2022-10-28T09:07:23.000Z</time>
      </trkpt>
      <trkpt lat="27.848208" lon="86.751968">
        <ele>3908.6</ele>
        <time>2022-10-28T09:07:26.000Z</time>
      </trkpt>
      <trkpt lat="27.848234" lon="86.751955">
        <ele>3907.6</ele>
        <time>2022-10-28T09:07:29.000Z</time>
      </trkpt>
      <trkpt lat="27.848246" lon="86.751936">
        <ele>3907.6</ele>
        <time>2022-10-28T09:07:31.000Z</time>
      </trkpt>
      <trkpt lat="27.848266" lon="86.751936">
        <ele>3907</ele>
        <time>2022-10-28T09:07:33.000Z</time>
      </trkpt>
      <trkpt lat="27.848288" lon="86.75193">
        <ele>3906.4</ele>
        <time>2022-10-28T09:07:36.000Z</time>
      </trkpt>
      <trkpt lat="27.84831" lon="86.75193">
        <ele>3906</ele>
        <time>2022-10-28T09:07:38.000Z</time>
      </trkpt>
      <trkpt lat="27.84833" lon="86.751923">
        <ele>3905.4</ele>
        <time>2022-10-28T09:07:41.000Z</time>
      </trkpt>
      <trkpt lat="27.848349" lon="86.75191">
        <ele>3904.6</ele>
        <time>2022-10-28T09:07:44.000Z</time>
      </trkpt>
      <trkpt lat="27.848378" lon="86.75191">
        <ele>3904</ele>
        <time>2022-10-28T09:07:47.000Z</time>
      </trkpt>
      <trkpt lat="27.848403" lon="86.75191">
        <ele>3903.2</ele>
        <time>2022-10-28T09:07:50.000Z</time>
      </trkpt>
      <trkpt lat="27.848422" lon="86.751917">
        <ele>3903.2</ele>
        <time>2022-10-28T09:07:56.000Z</time>
      </trkpt>
      <trkpt lat="27.848445" lon="86.75191">
        <ele>3902.8</ele>
        <time>2022-10-28T09:07:58.000Z</time>
      </trkpt>
      <trkpt lat="27.84847" lon="86.751898">
        <ele>3902.2</ele>
        <time>2022-10-28T09:08:00.000Z</time>
      </trkpt>
      <trkpt lat="27.848493" lon="86.751891">
        <ele>3901.8</ele>
        <time>2022-10-28T09:08:02.000Z</time>
      </trkpt>
      <trkpt lat="27.848515" lon="86.751878">
        <ele>3901</ele>
        <time>2022-10-28T09:08:04.000Z</time>
      </trkpt>
      <trkpt lat="27.848538" lon="86.751859">
        <ele>3901</ele>
        <time>2022-10-28T09:08:06.000Z</time>
      </trkpt>
      <trkpt lat="27.84856" lon="86.751859">
        <ele>3900.6</ele>
        <time>2022-10-28T09:08:08.000Z</time>
      </trkpt>
      <trkpt lat="27.848582" lon="86.751846">
        <ele>3900.2</ele>
        <time>2022-10-28T09:08:10.000Z</time>
      </trkpt>
      <trkpt lat="27.848557" lon="86.75184">
        <ele>3898.8</ele>
        <time>2022-10-28T09:08:16.000Z</time>
      </trkpt>
      <trkpt lat="27.848534" lon="86.751846">
        <ele>3898.4</ele>
        <time>2022-10-28T09:08:18.000Z</time>
      </trkpt>
      <trkpt lat="27.848512" lon="86.751834">
        <ele>3897</ele>
        <time>2022-10-28T09:08:48.000Z</time>
      </trkpt>
      <trkpt lat="27.848493" lon="86.751834">
        <ele>3897</ele>
        <time>2022-10-28T09:08:49.000Z</time>
      </trkpt>
      <trkpt lat="27.848458" lon="86.751821">
        <ele>3897</ele>
        <time>2022-10-28T09:08:51.000Z</time>
      </trkpt>
      <trkpt lat="27.848422" lon="86.751821">
        <ele>3897</ele>
        <time>2022-10-28T09:08:53.000Z</time>
      </trkpt>
      <trkpt lat="27.84839" lon="86.751814">
        <ele>3896.8</ele>
        <time>2022-10-28T09:08:55.000Z</time>
      </trkpt>
      <trkpt lat="27.848362" lon="86.751808">
        <ele>3897.2</ele>
        <time>2022-10-28T09:08:57.000Z</time>
      </trkpt>
      <trkpt lat="27.848339" lon="86.751802">
        <ele>3897</ele>
        <time>2022-10-28T09:08:59.000Z</time>
      </trkpt>
      <trkpt lat="27.84831" lon="86.751795">
        <ele>3896.6</ele>
        <time>2022-10-28T09:09:02.000Z</time>
      </trkpt>
      <trkpt lat="27.848288" lon="86.751782">
        <ele>3896.6</ele>
        <time>2022-10-28T09:09:04.000Z</time>
      </trkpt>
      <trkpt lat="27.848262" lon="86.751776">
        <ele>3896</ele>
        <time>2022-10-28T09:09:06.000Z</time>
      </trkpt>
      <trkpt lat="27.848237" lon="86.75177">
        <ele>3895.4</ele>
        <time>2022-10-28T09:09:08.000Z</time>
      </trkpt>
      <trkpt lat="27.848218" lon="86.751757">
        <ele>3895.4</ele>
        <time>2022-10-28T09:09:10.000Z</time>
      </trkpt>
      <trkpt lat="27.848195" lon="86.751757">
        <ele>3895.2</ele>
        <time>2022-10-28T09:09:12.000Z</time>
      </trkpt>
      <trkpt lat="27.848176" lon="86.751744">
        <ele>3895</ele>
        <time>2022-10-28T09:09:14.000Z</time>
      </trkpt>
      <trkpt lat="27.848154" lon="86.751744">
        <ele>3894.4</ele>
        <time>2022-10-28T09:09:16.000Z</time>
      </trkpt>
      <trkpt lat="27.848128" lon="86.751744">
        <ele>3894.2</ele>
        <time>2022-10-28T09:09:18.000Z</time>
      </trkpt>
      <trkpt lat="27.848099" lon="86.751738">
        <ele>3893.6</ele>
        <time>2022-10-28T09:09:20.000Z</time>
      </trkpt>
      <trkpt lat="27.84808" lon="86.751731">
        <ele>3893.2</ele>
        <time>2022-10-28T09:09:22.000Z</time>
      </trkpt>
      <trkpt lat="27.848054" lon="86.751725">
        <ele>3893.2</ele>
        <time>2022-10-28T09:09:25.000Z</time>
      </trkpt>
      <trkpt lat="27.848035" lon="86.751725">
        <ele>3892.8</ele>
        <time>2022-10-28T09:09:27.000Z</time>
      </trkpt>
      <trkpt lat="27.84801" lon="86.751725">
        <ele>3892.6</ele>
        <time>2022-10-28T09:09:29.000Z</time>
      </trkpt>
      <trkpt lat="27.847987" lon="86.751718">
        <ele>3892.4</ele>
        <time>2022-10-28T09:09:31.000Z</time>
      </trkpt>
      <trkpt lat="27.847965" lon="86.751718">
        <ele>3892</ele>
        <time>2022-10-28T09:09:33.000Z</time>
      </trkpt>
      <trkpt lat="27.847942" lon="86.751718">
        <ele>3892</ele>
        <time>2022-10-28T09:09:35.000Z</time>
      </trkpt>
      <trkpt lat="27.847917" lon="86.751718">
        <ele>3891.2</ele>
        <time>2022-10-28T09:09:37.000Z</time>
      </trkpt>
      <trkpt lat="27.847898" lon="86.751712">
        <ele>3890.8</ele>
        <time>2022-10-28T09:09:39.000Z</time>
      </trkpt>
      <trkpt lat="27.847872" lon="86.751699">
        <ele>3890.8</ele>
        <time>2022-10-28T09:09:41.000Z</time>
      </trkpt>
      <trkpt lat="27.84785" lon="86.751693">
        <ele>3890.2</ele>
        <time>2022-10-28T09:09:43.000Z</time>
      </trkpt>
      <trkpt lat="27.847824" lon="86.75168">
        <ele>3890.4</ele>
        <time>2022-10-28T09:09:45.000Z</time>
      </trkpt>
      <trkpt lat="27.847802" lon="86.751674">
        <ele>3890.4</ele>
        <time>2022-10-28T09:09:47.000Z</time>
      </trkpt>
      <trkpt lat="27.847779" lon="86.751661">
        <ele>3890.2</ele>
        <time>2022-10-28T09:09:49.000Z</time>
      </trkpt>
      <trkpt lat="27.84775" lon="86.751654">
        <ele>3890</ele>
        <time>2022-10-28T09:09:51.000Z</time>
      </trkpt>
      <trkpt lat="27.847731" lon="86.751654">
        <ele>3890</ele>
        <time>2022-10-28T09:09:53.000Z</time>
      </trkpt>
      <trkpt lat="27.847706" lon="86.751648">
        <ele>3889.8</ele>
        <time>2022-10-28T09:09:55.000Z</time>
      </trkpt>
      <trkpt lat="27.84768" lon="86.751648">
        <ele>3889.4</ele>
        <time>2022-10-28T09:09:57.000Z</time>
      </trkpt>
      <trkpt lat="27.847651" lon="86.751648">
        <ele>3889.6</ele>
        <time>2022-10-28T09:10:00.000Z</time>
      </trkpt>
      <trkpt lat="27.847629" lon="86.751642">
        <ele>3889.6</ele>
        <time>2022-10-28T09:10:02.000Z</time>
      </trkpt>
      <trkpt lat="27.84761" lon="86.751642">
        <ele>3889.6</ele>
        <time>2022-10-28T09:10:04.000Z</time>
      </trkpt>
      <trkpt lat="27.847587" lon="86.751642">
        <ele>3889.4</ele>
        <time>2022-10-28T09:10:06.000Z</time>
      </trkpt>
      <trkpt lat="27.847562" lon="86.751635">
        <ele>3889.4</ele>
        <time>2022-10-28T09:10:08.000Z</time>
      </trkpt>
      <trkpt lat="27.847539" lon="86.751635">
        <ele>3888.8</ele>
        <time>2022-10-28T09:10:10.000Z</time>
      </trkpt>
      <trkpt lat="27.847514" lon="86.751622">
        <ele>3888.4</ele>
        <time>2022-10-28T09:10:12.000Z</time>
      </trkpt>
      <trkpt lat="27.847494" lon="86.751622">
        <ele>3888</ele>
        <time>2022-10-28T09:10:14.000Z</time>
      </trkpt>
      <trkpt lat="27.847469" lon="86.751635">
        <ele>3887.8</ele>
        <time>2022-10-28T09:10:24.000Z</time>
      </trkpt>
      <trkpt lat="27.84744" lon="86.751642">
        <ele>3887.8</ele>
        <time>2022-10-28T09:10:27.000Z</time>
      </trkpt>
      <trkpt lat="27.847418" lon="86.751648">
        <ele>3887.6</ele>
        <time>2022-10-28T09:10:31.000Z</time>
      </trkpt>
      <trkpt lat="27.847398" lon="86.751642">
        <ele>3886.6</ele>
        <time>2022-10-28T09:11:07.000Z</time>
      </trkpt>
      <trkpt lat="27.84737" lon="86.751642">
        <ele>3886.2</ele>
        <time>2022-10-28T09:11:26.000Z</time>
      </trkpt>
      <trkpt lat="27.847389" lon="86.751622">
        <ele>3886.6</ele>
        <time>2022-10-28T09:11:28.000Z</time>
      </trkpt>
      <trkpt lat="27.847418" lon="86.75161">
        <ele>3886.6</ele>
        <time>2022-10-28T09:11:38.000Z</time>
      </trkpt>
      <trkpt lat="27.847392" lon="86.751603">
        <ele>3885.6</ele>
        <time>2022-10-28T09:12:15.000Z</time>
      </trkpt>
      <trkpt lat="27.84737" lon="86.751597">
        <ele>3885</ele>
        <time>2022-10-28T09:12:17.000Z</time>
      </trkpt>
      <trkpt lat="27.847341" lon="86.751584">
        <ele>3884</ele>
        <time>2022-10-28T09:12:19.000Z</time>
      </trkpt>
      <trkpt lat="27.847322" lon="86.751597">
        <ele>3883.8</ele>
        <time>2022-10-28T09:12:20.000Z</time>
      </trkpt>
      <trkpt lat="27.847299" lon="86.751584">
        <ele>3882.6</ele>
        <time>2022-10-28T09:12:22.000Z</time>
      </trkpt>
      <trkpt lat="27.847312" lon="86.751565">
        <ele>3881.6</ele>
        <time>2022-10-28T09:12:25.000Z</time>
      </trkpt>
      <trkpt lat="27.847331" lon="86.751546">
        <ele>3881.6</ele>
        <time>2022-10-28T09:12:27.000Z</time>
      </trkpt>
      <trkpt lat="27.84735" lon="86.751533">
        <ele>3881.6</ele>
        <time>2022-10-28T09:12:29.000Z</time>
      </trkpt>
      <trkpt lat="27.84737" lon="86.751514">
        <ele>3880.8</ele>
        <time>2022-10-28T09:12:32.000Z</time>
      </trkpt>
      <trkpt lat="27.847382" lon="86.751494">
        <ele>3880.4</ele>
        <time>2022-10-28T09:12:34.000Z</time>
      </trkpt>
      <trkpt lat="27.847392" lon="86.751475">
        <ele>3878.8</ele>
        <time>2022-10-28T09:12:37.000Z</time>
      </trkpt>
      <trkpt lat="27.847402" lon="86.751456">
        <ele>3878.4</ele>
        <time>2022-10-28T09:12:39.000Z</time>
      </trkpt>
      <trkpt lat="27.847408" lon="86.751437">
        <ele>3877.8</ele>
        <time>2022-10-28T09:12:42.000Z</time>
      </trkpt>
      <trkpt lat="27.847398" lon="86.751418">
        <ele>3876.4</ele>
        <time>2022-10-28T09:12:45.000Z</time>
      </trkpt>
      <trkpt lat="27.847379" lon="86.751405">
        <ele>3875.6</ele>
        <time>2022-10-28T09:12:47.000Z</time>
      </trkpt>
      <trkpt lat="27.847389" lon="86.751379">
        <ele>3874.6</ele>
        <time>2022-10-28T09:12:49.000Z</time>
      </trkpt>
      <trkpt lat="27.847411" lon="86.75136">
        <ele>3873.8</ele>
        <time>2022-10-28T09:12:51.000Z</time>
      </trkpt>
      <trkpt lat="27.84744" lon="86.751341">
        <ele>3873.6</ele>
        <time>2022-10-28T09:12:53.000Z</time>
      </trkpt>
      <trkpt lat="27.847469" lon="86.751334">
        <ele>3873</ele>
        <time>2022-10-28T09:12:55.000Z</time>
      </trkpt>
      <trkpt lat="27.847491" lon="86.751328">
        <ele>3873</ele>
        <time>2022-10-28T09:12:57.000Z</time>
      </trkpt>
      <trkpt lat="27.847514" lon="86.751328">
        <ele>3873</ele>
        <time>2022-10-28T09:12:59.000Z</time>
      </trkpt>
      <trkpt lat="27.847542" lon="86.751315">
        <ele>3873</ele>
        <time>2022-10-28T09:13:01.000Z</time>
      </trkpt>
      <trkpt lat="27.847568" lon="86.751302">
        <ele>3872.4</ele>
        <time>2022-10-28T09:13:03.000Z</time>
      </trkpt>
      <trkpt lat="27.847594" lon="86.751296">
        <ele>3872.4</ele>
        <time>2022-10-28T09:13:05.000Z</time>
      </trkpt>
      <trkpt lat="27.847616" lon="86.751283">
        <ele>3872.4</ele>
        <time>2022-10-28T09:13:07.000Z</time>
      </trkpt>
      <trkpt lat="27.847642" lon="86.751283">
        <ele>3871.6</ele>
        <time>2022-10-28T09:13:09.000Z</time>
      </trkpt>
      <trkpt lat="27.847661" lon="86.751283">
        <ele>3871</ele>
        <time>2022-10-28T09:13:10.000Z</time>
      </trkpt>
      <trkpt lat="27.847686" lon="86.751277">
        <ele>3871.4</ele>
        <time>2022-10-28T09:13:12.000Z</time>
      </trkpt>
      <trkpt lat="27.847712" lon="86.751277">
        <ele>3871.6</ele>
        <time>2022-10-28T09:13:14.000Z</time>
      </trkpt>
      <trkpt lat="27.847728" lon="86.751264">
        <ele>3871.6</ele>
        <time>2022-10-28T09:13:15.000Z</time>
      </trkpt>
      <trkpt lat="27.847757" lon="86.751264">
        <ele>3871.6</ele>
        <time>2022-10-28T09:13:17.000Z</time>
      </trkpt>
      <trkpt lat="27.847786" lon="86.751264">
        <ele>3871.6</ele>
        <time>2022-10-28T09:13:19.000Z</time>
      </trkpt>
      <trkpt lat="27.847811" lon="86.751264">
        <ele>3871</ele>
        <time>2022-10-28T09:13:21.000Z</time>
      </trkpt>
      <trkpt lat="27.847837" lon="86.751264">
        <ele>3871</ele>
        <time>2022-10-28T09:13:23.000Z</time>
      </trkpt>
      <trkpt lat="27.847866" lon="86.751264">
        <ele>3871</ele>
        <time>2022-10-28T09:13:25.000Z</time>
      </trkpt>
      <trkpt lat="27.847891" lon="86.751258">
        <ele>3870.8</ele>
        <time>2022-10-28T09:13:27.000Z</time>
      </trkpt>
      <trkpt lat="27.84792" lon="86.751251">
        <ele>3870.8</ele>
        <time>2022-10-28T09:13:29.000Z</time>
      </trkpt>
      <trkpt lat="27.847946" lon="86.751245">
        <ele>3870.8</ele>
        <time>2022-10-28T09:13:31.000Z</time>
      </trkpt>
      <trkpt lat="27.847971" lon="86.751226">
        <ele>3870.4</ele>
        <time>2022-10-28T09:13:33.000Z</time>
      </trkpt>
      <trkpt lat="27.847997" lon="86.751213">
        <ele>3870.6</ele>
        <time>2022-10-28T09:13:35.000Z</time>
      </trkpt>
      <trkpt lat="27.848022" lon="86.751206">
        <ele>3870.4</ele>
        <time>2022-10-28T09:13:37.000Z</time>
      </trkpt>
      <trkpt lat="27.848048" lon="86.751187">
        <ele>3870.6</ele>
        <time>2022-10-28T09:13:39.000Z</time>
      </trkpt>
      <trkpt lat="27.84808" lon="86.751181">
        <ele>3870.2</ele>
        <time>2022-10-28T09:13:41.000Z</time>
      </trkpt>
      <trkpt lat="27.848109" lon="86.751174">
        <ele>3870</ele>
        <time>2022-10-28T09:13:43.000Z</time>
      </trkpt>
      <trkpt lat="27.848134" lon="86.751168">
        <ele>3870.2</ele>
        <time>2022-10-28T09:13:45.000Z</time>
      </trkpt>
      <trkpt lat="27.84816" lon="86.751162">
        <ele>3870</ele>
        <time>2022-10-28T09:13:47.000Z</time>
      </trkpt>
      <trkpt lat="27.848186" lon="86.751155">
        <ele>3869.6</ele>
        <time>2022-10-28T09:13:49.000Z</time>
      </trkpt>
      <trkpt lat="27.848214" lon="86.751142">
        <ele>3869.6</ele>
        <time>2022-10-28T09:13:51.000Z</time>
      </trkpt>
      <trkpt lat="27.848237" lon="86.751136">
        <ele>3869.6</ele>
        <time>2022-10-28T09:13:53.000Z</time>
      </trkpt>
      <trkpt lat="27.848256" lon="86.75113">
        <ele>3869.4</ele>
        <time>2022-10-28T09:13:55.000Z</time>
      </trkpt>
      <trkpt lat="27.848272" lon="86.751104">
        <ele>3866.2</ele>
        <time>2022-10-28T09:14:28.000Z</time>
      </trkpt>
      <trkpt lat="27.848259" lon="86.751066">
        <ele>3865.8</ele>
        <time>2022-10-28T09:14:30.000Z</time>
      </trkpt>
      <trkpt lat="27.848253" lon="86.75104">
        <ele>3865.8</ele>
        <time>2022-10-28T09:14:32.000Z</time>
      </trkpt>
      <trkpt lat="27.84825" lon="86.751014">
        <ele>3865.8</ele>
        <time>2022-10-28T09:14:33.000Z</time>
      </trkpt>
      <trkpt lat="27.848243" lon="86.750982">
        <ele>3865</ele>
        <time>2022-10-28T09:14:35.000Z</time>
      </trkpt>
      <trkpt lat="27.848234" lon="86.750957">
        <ele>3864.6</ele>
        <time>2022-10-28T09:14:37.000Z</time>
      </trkpt>
      <trkpt lat="27.848218" lon="86.750938">
        <ele>3864.8</ele>
        <time>2022-10-28T09:14:39.000Z</time>
      </trkpt>
      <trkpt lat="27.848205" lon="86.750918">
        <ele>3863.8</ele>
        <time>2022-10-28T09:14:41.000Z</time>
      </trkpt>
      <trkpt lat="27.848195" lon="86.750893">
        <ele>3862.8</ele>
        <time>2022-10-28T09:14:43.000Z</time>
      </trkpt>
      <trkpt lat="27.848186" lon="86.750861">
        <ele>3862</ele>
        <time>2022-10-28T09:14:46.000Z</time>
      </trkpt>
      <trkpt lat="27.848179" lon="86.750842">
        <ele>3861.2</ele>
        <time>2022-10-28T09:14:48.000Z</time>
      </trkpt>
      <trkpt lat="27.848176" lon="86.750816">
        <ele>3860.8</ele>
        <time>2022-10-28T09:14:50.000Z</time>
      </trkpt>
      <trkpt lat="27.848166" lon="86.75079">
        <ele>3860.2</ele>
        <time>2022-10-28T09:14:53.000Z</time>
      </trkpt>
      <trkpt lat="27.848157" lon="86.750771">
        <ele>3860</ele>
        <time>2022-10-28T09:14:55.000Z</time>
      </trkpt>
      <trkpt lat="27.848147" lon="86.750746">
        <ele>3859.2</ele>
        <time>2022-10-28T09:14:57.000Z</time>
      </trkpt>
      <trkpt lat="27.848099" lon="86.750662">
        <ele>3857.8</ele>
        <time>2022-10-28T09:15:06.000Z</time>
      </trkpt>
      <trkpt lat="27.84808" lon="86.75063">
        <ele>3857</ele>
        <time>2022-10-28T09:15:09.000Z</time>
      </trkpt>
      <trkpt lat="27.84807" lon="86.750611">
        <ele>3856.2</ele>
        <time>2022-10-28T09:15:12.000Z</time>
      </trkpt>
      <trkpt lat="27.848054" lon="86.750592">
        <ele>3855.6</ele>
        <time>2022-10-28T09:15:14.000Z</time>
      </trkpt>
      <trkpt lat="27.848038" lon="86.750566">
        <ele>3855</ele>
        <time>2022-10-28T09:15:17.000Z</time>
      </trkpt>
      <trkpt lat="27.848029" lon="86.750547">
        <ele>3854.8</ele>
        <time>2022-10-28T09:15:19.000Z</time>
      </trkpt>
      <trkpt lat="27.848016" lon="86.750528">
        <ele>3854.4</ele>
        <time>2022-10-28T09:15:21.000Z</time>
      </trkpt>
      <trkpt lat="27.848" lon="86.750509">
        <ele>3853.6</ele>
        <time>2022-10-28T09:15:24.000Z</time>
      </trkpt>
      <trkpt lat="27.847981" lon="86.75049">
        <ele>3853</ele>
        <time>2022-10-28T09:15:27.000Z</time>
      </trkpt>
      <trkpt lat="27.847968" lon="86.75047">
        <ele>3852.8</ele>
        <time>2022-10-28T09:15:29.000Z</time>
      </trkpt>
      <trkpt lat="27.847949" lon="86.750458">
        <ele>3851.4</ele>
        <time>2022-10-28T09:15:32.000Z</time>
      </trkpt>
      <trkpt lat="27.84793" lon="86.750432">
        <ele>3850.8</ele>
        <time>2022-10-28T09:15:38.000Z</time>
      </trkpt>
      <trkpt lat="27.847914" lon="86.750413">
        <ele>3850.2</ele>
        <time>2022-10-28T09:15:41.000Z</time>
      </trkpt>
      <trkpt lat="27.847904" lon="86.750394">
        <ele>3849.8</ele>
        <time>2022-10-28T09:15:43.000Z</time>
      </trkpt>
      <trkpt lat="27.847898" lon="86.750374">
        <ele>3849.8</ele>
        <time>2022-10-28T09:15:45.000Z</time>
      </trkpt>
      <trkpt lat="27.847888" lon="86.750349">
        <ele>3849</ele>
        <time>2022-10-28T09:15:48.000Z</time>
      </trkpt>
      <trkpt lat="27.847878" lon="86.75033">
        <ele>3848.6</ele>
        <time>2022-10-28T09:15:51.000Z</time>
      </trkpt>
      <trkpt lat="27.847872" lon="86.750304">
        <ele>3848</ele>
        <time>2022-10-28T09:15:53.000Z</time>
      </trkpt>
      <trkpt lat="27.847859" lon="86.750285">
        <ele>3847</ele>
        <time>2022-10-28T09:15:56.000Z</time>
      </trkpt>
      <trkpt lat="27.847853" lon="86.750266">
        <ele>3847</ele>
        <time>2022-10-28T09:15:57.000Z</time>
      </trkpt>
      <trkpt lat="27.847837" lon="86.750234">
        <ele>3845.8</ele>
        <time>2022-10-28T09:16:00.000Z</time>
      </trkpt>
      <trkpt lat="27.847827" lon="86.750214">
        <ele>3845</ele>
        <time>2022-10-28T09:16:03.000Z</time>
      </trkpt>
      <trkpt lat="27.84783" lon="86.750189">
        <ele>3844.2</ele>
        <time>2022-10-28T09:16:06.000Z</time>
      </trkpt>
      <trkpt lat="27.84783" lon="86.750163">
        <ele>3842.2</ele>
        <time>2022-10-28T09:16:43.000Z</time>
      </trkpt>
      <trkpt lat="27.847818" lon="86.750144">
        <ele>3842.2</ele>
        <time>2022-10-28T09:16:44.000Z</time>
      </trkpt>
      <trkpt lat="27.847798" lon="86.750125">
        <ele>3842</ele>
        <time>2022-10-28T09:16:46.000Z</time>
      </trkpt>
      <trkpt lat="27.84777" lon="86.750106">
        <ele>3841.4</ele>
        <time>2022-10-28T09:16:48.000Z</time>
      </trkpt>
      <trkpt lat="27.84775" lon="86.750086">
        <ele>3840.8</ele>
        <time>2022-10-28T09:16:50.000Z</time>
      </trkpt>
      <trkpt lat="27.847741" lon="86.750067">
        <ele>3840.4</ele>
        <time>2022-10-28T09:16:51.000Z</time>
      </trkpt>
      <trkpt lat="27.847741" lon="86.750035">
        <ele>3840</ele>
        <time>2022-10-28T09:16:53.000Z</time>
      </trkpt>
      <trkpt lat="27.84775" lon="86.750016">
        <ele>3839.8</ele>
        <time>2022-10-28T09:16:55.000Z</time>
      </trkpt>
      <trkpt lat="27.847757" lon="86.749984">
        <ele>3839.8</ele>
        <time>2022-10-28T09:16:57.000Z</time>
      </trkpt>
      <trkpt lat="27.847763" lon="86.749965">
        <ele>3839.4</ele>
        <time>2022-10-28T09:16:59.000Z</time>
      </trkpt>
      <trkpt lat="27.84777" lon="86.749933">
        <ele>3839.4</ele>
        <time>2022-10-28T09:17:01.000Z</time>
      </trkpt>
      <trkpt lat="27.847779" lon="86.749907">
        <ele>3839.2</ele>
        <time>2022-10-28T09:17:03.000Z</time>
      </trkpt>
      <trkpt lat="27.847786" lon="86.749888">
        <ele>3838.4</ele>
        <time>2022-10-28T09:17:05.000Z</time>
      </trkpt>
      <trkpt lat="27.847792" lon="86.749869">
        <ele>3838.4</ele>
        <time>2022-10-28T09:17:06.000Z</time>
      </trkpt>
      <trkpt lat="27.847798" lon="86.74985">
        <ele>3838.8</ele>
        <time>2022-10-28T09:17:08.000Z</time>
      </trkpt>
      <trkpt lat="27.847798" lon="86.749824">
        <ele>3838.4</ele>
        <time>2022-10-28T09:17:11.000Z</time>
      </trkpt>
      <trkpt lat="27.847786" lon="86.749805">
        <ele>3838</ele>
        <time>2022-10-28T09:17:14.000Z</time>
      </trkpt>
      <trkpt lat="27.84777" lon="86.749786">
        <ele>3837.4</ele>
        <time>2022-10-28T09:17:16.000Z</time>
      </trkpt>
      <trkpt lat="27.84775" lon="86.749766">
        <ele>3836.8</ele>
        <time>2022-10-28T09:17:19.000Z</time>
      </trkpt>
      <trkpt lat="27.847728" lon="86.749754">
        <ele>3836.2</ele>
        <time>2022-10-28T09:17:21.000Z</time>
      </trkpt>
      <trkpt lat="27.847706" lon="86.749734">
        <ele>3835.2</ele>
        <time>2022-10-28T09:17:24.000Z</time>
      </trkpt>
      <trkpt lat="27.847699" lon="86.749715">
        <ele>3835</ele>
        <time>2022-10-28T09:17:26.000Z</time>
      </trkpt>
      <trkpt lat="27.847686" lon="86.749696">
        <ele>3834.4</ele>
        <time>2022-10-28T09:17:29.000Z</time>
      </trkpt>
      <trkpt lat="27.84767" lon="86.74967">
        <ele>3833.8</ele>
        <time>2022-10-28T09:17:31.000Z</time>
      </trkpt>
      <trkpt lat="27.847648" lon="86.749651">
        <ele>3833</ele>
        <time>2022-10-28T09:17:34.000Z</time>
      </trkpt>
      <trkpt lat="27.847629" lon="86.749638">
        <ele>3832.6</ele>
        <time>2022-10-28T09:17:36.000Z</time>
      </trkpt>
      <trkpt lat="27.84761" lon="86.749619">
        <ele>3832.6</ele>
        <time>2022-10-28T09:17:38.000Z</time>
      </trkpt>
      <trkpt lat="27.847584" lon="86.749606">
        <ele>3832</ele>
        <time>2022-10-28T09:17:40.000Z</time>
      </trkpt>
      <trkpt lat="27.847558" lon="86.749594">
        <ele>3831.8</ele>
        <time>2022-10-28T09:17:42.000Z</time>
      </trkpt>
      <trkpt lat="27.847536" lon="86.749587">
        <ele>3831.6</ele>
        <time>2022-10-28T09:17:44.000Z</time>
      </trkpt>
      <trkpt lat="27.84752" lon="86.749574">
        <ele>3831.2</ele>
        <time>2022-10-28T09:17:46.000Z</time>
      </trkpt>
      <trkpt lat="27.847501" lon="86.749568">
        <ele>3830.8</ele>
        <time>2022-10-28T09:17:48.000Z</time>
      </trkpt>
      <trkpt lat="27.847482" lon="86.749549">
        <ele>3830.4</ele>
        <time>2022-10-28T09:17:51.000Z</time>
      </trkpt>
      <trkpt lat="27.847459" lon="86.749536">
        <ele>3830</ele>
        <time>2022-10-28T09:17:54.000Z</time>
      </trkpt>
      <trkpt lat="27.847443" lon="86.749517">
        <ele>3829.4</ele>
        <time>2022-10-28T09:17:56.000Z</time>
      </trkpt>
      <trkpt lat="27.847424" lon="86.749504">
        <ele>3828.4</ele>
        <time>2022-10-28T09:17:59.000Z</time>
      </trkpt>
      <trkpt lat="27.847405" lon="86.749491">
        <ele>3828.2</ele>
        <time>2022-10-28T09:18:01.000Z</time>
      </trkpt>
      <trkpt lat="27.847389" lon="86.749478">
        <ele>3827.6</ele>
        <time>2022-10-28T09:18:03.000Z</time>
      </trkpt>
      <trkpt lat="27.847366" lon="86.749472">
        <ele>3826.8</ele>
        <time>2022-10-28T09:18:06.000Z</time>
      </trkpt>
      <trkpt lat="27.847341" lon="86.749466">
        <ele>3826.6</ele>
        <time>2022-10-28T09:18:09.000Z</time>
      </trkpt>
      <trkpt lat="27.847318" lon="86.749466">
        <ele>3826</ele>
        <time>2022-10-28T09:18:11.000Z</time>
      </trkpt>
      <trkpt lat="27.847299" lon="86.749459">
        <ele>3825.6</ele>
        <time>2022-10-28T09:18:13.000Z</time>
      </trkpt>
      <trkpt lat="27.84728" lon="86.749459">
        <ele>3825</ele>
        <time>2022-10-28T09:18:15.000Z</time>
      </trkpt>
      <trkpt lat="27.847264" lon="86.74944">
        <ele>3824.6</ele>
        <time>2022-10-28T09:18:17.000Z</time>
      </trkpt>
      <trkpt lat="27.847251" lon="86.749421">
        <ele>3823.8</ele>
        <time>2022-10-28T09:18:20.000Z</time>
      </trkpt>
      <trkpt lat="27.847235" lon="86.749408">
        <ele>3823.6</ele>
        <time>2022-10-28T09:18:22.000Z</time>
      </trkpt>
      <trkpt lat="27.847226" lon="86.749382">
        <ele>3823.2</ele>
        <time>2022-10-28T09:18:24.000Z</time>
      </trkpt>
      <trkpt lat="27.84721" lon="86.74937">
        <ele>3822.8</ele>
        <time>2022-10-28T09:18:26.000Z</time>
      </trkpt>
      <trkpt lat="27.847203" lon="86.74935">
        <ele>3822.8</ele>
        <time>2022-10-28T09:18:27.000Z</time>
      </trkpt>
      <trkpt lat="27.847184" lon="86.749331">
        <ele>3822</ele>
        <time>2022-10-28T09:18:30.000Z</time>
      </trkpt>
      <trkpt lat="27.847171" lon="86.749312">
        <ele>3822</ele>
        <time>2022-10-28T09:18:32.000Z</time>
      </trkpt>
      <trkpt lat="27.847162" lon="86.749293">
        <ele>3821.4</ele>
        <time>2022-10-28T09:18:35.000Z</time>
      </trkpt>
      <trkpt lat="27.847155" lon="86.749274">
        <ele>3821.2</ele>
        <time>2022-10-28T09:18:36.000Z</time>
      </trkpt>
      <trkpt lat="27.847142" lon="86.749254">
        <ele>3820.8</ele>
        <time>2022-10-28T09:18:38.000Z</time>
      </trkpt>
      <trkpt lat="27.847136" lon="86.749235">
        <ele>3820.8</ele>
        <time>2022-10-28T09:18:39.000Z</time>
      </trkpt>
      <trkpt lat="27.847123" lon="86.749216">
        <ele>3820.4</ele>
        <time>2022-10-28T09:18:41.000Z</time>
      </trkpt>
      <trkpt lat="27.847117" lon="86.74919">
        <ele>3820.2</ele>
        <time>2022-10-28T09:18:43.000Z</time>
      </trkpt>
      <trkpt lat="27.84711" lon="86.749158">
        <ele>3820.2</ele>
        <time>2022-10-28T09:18:45.000Z</time>
      </trkpt>
      <trkpt lat="27.847101" lon="86.749139">
        <ele>3820.2</ele>
        <time>2022-10-28T09:18:47.000Z</time>
      </trkpt>
      <trkpt lat="27.847094" lon="86.749107">
        <ele>3820</ele>
        <time>2022-10-28T09:18:49.000Z</time>
      </trkpt>
      <trkpt lat="27.847091" lon="86.749082">
        <ele>3819.8</ele>
        <time>2022-10-28T09:18:51.000Z</time>
      </trkpt>
      <trkpt lat="27.847088" lon="86.749056">
        <ele>3819.6</ele>
        <time>2022-10-28T09:18:53.000Z</time>
      </trkpt>
      <trkpt lat="27.847088" lon="86.74903">
        <ele>3819.4</ele>
        <time>2022-10-28T09:18:55.000Z</time>
      </trkpt>
      <trkpt lat="27.847085" lon="86.748992">
        <ele>3819.2</ele>
        <time>2022-10-28T09:18:58.000Z</time>
      </trkpt>
      <trkpt lat="27.847075" lon="86.748973">
        <ele>3819</ele>
        <time>2022-10-28T09:19:01.000Z</time>
      </trkpt>
      <trkpt lat="27.847062" lon="86.748954">
        <ele>3818.4</ele>
        <time>2022-10-28T09:19:04.000Z</time>
      </trkpt>
      <trkpt lat="27.847053" lon="86.748934">
        <ele>3817.8</ele>
        <time>2022-10-28T09:19:06.000Z</time>
      </trkpt>
      <trkpt lat="27.847037" lon="86.748922">
        <ele>3817.4</ele>
        <time>2022-10-28T09:19:08.000Z</time>
      </trkpt>
      <trkpt lat="27.847018" lon="86.748909">
        <ele>3816.8</ele>
        <time>2022-10-28T09:19:10.000Z</time>
      </trkpt>
      <trkpt lat="27.846992" lon="86.748896">
        <ele>3816</ele>
        <time>2022-10-28T09:19:13.000Z</time>
      </trkpt>
      <trkpt lat="27.846976" lon="86.748883">
        <ele>3815.8</ele>
        <time>2022-10-28T09:19:15.000Z</time>
      </trkpt>
      <trkpt lat="27.846957" lon="86.748877">
        <ele>3815.2</ele>
        <time>2022-10-28T09:19:17.000Z</time>
      </trkpt>
      <trkpt lat="27.846938" lon="86.748877">
        <ele>3815.2</ele>
        <time>2022-10-28T09:19:19.000Z</time>
      </trkpt>
      <trkpt lat="27.846915" lon="86.748864">
        <ele>3814.4</ele>
        <time>2022-10-28T09:19:21.000Z</time>
      </trkpt>
      <trkpt lat="27.846896" lon="86.748845">
        <ele>3814</ele>
        <time>2022-10-28T09:19:23.000Z</time>
      </trkpt>
      <trkpt lat="27.846877" lon="86.748832">
        <ele>3814</ele>
        <time>2022-10-28T09:19:25.000Z</time>
      </trkpt>
      <trkpt lat="27.846851" lon="86.748819">
        <ele>3813.8</ele>
        <time>2022-10-28T09:19:28.000Z</time>
      </trkpt>
      <trkpt lat="27.846694" lon="86.748704">
        <ele>3801.6</ele>
        <time>2022-10-29T02:26:23.000Z</time>
      </trkpt>
      <trkpt lat="27.84665" lon="86.748621">
        <ele>3800.4</ele>
        <time>2022-10-29T02:26:29.000Z</time>
      </trkpt>
      <trkpt lat="27.846637" lon="86.748589">
        <ele>3800.2</ele>
        <time>2022-10-29T02:26:31.000Z</time>
      </trkpt>
      <trkpt lat="27.846618" lon="86.748563">
        <ele>3800</ele>
        <time>2022-10-29T02:26:33.000Z</time>
      </trkpt>
      <trkpt lat="27.846598" lon="86.748544">
        <ele>3799.8</ele>
        <time>2022-10-29T02:26:36.000Z</time>
      </trkpt>
      <trkpt lat="27.846579" lon="86.748525">
        <ele>3799.2</ele>
        <time>2022-10-29T02:26:39.000Z</time>
      </trkpt>
      <trkpt lat="27.84656" lon="86.748512">
        <ele>3799</ele>
        <time>2022-10-29T02:26:41.000Z</time>
      </trkpt>
      <trkpt lat="27.846541" lon="86.748486">
        <ele>3799</ele>
        <time>2022-10-29T02:26:44.000Z</time>
      </trkpt>
      <trkpt lat="27.846522" lon="86.748474">
        <ele>3798.8</ele>
        <time>2022-10-29T02:26:46.000Z</time>
      </trkpt>
      <trkpt lat="27.846506" lon="86.748461">
        <ele>3798.6</ele>
        <time>2022-10-29T02:26:48.000Z</time>
      </trkpt>
      <trkpt lat="27.84648" lon="86.748442">
        <ele>3798</ele>
        <time>2022-10-29T02:26:51.000Z</time>
      </trkpt>
      <trkpt lat="27.846464" lon="86.748429">
        <ele>3797.6</ele>
        <time>2022-10-29T02:26:53.000Z</time>
      </trkpt>
      <trkpt lat="27.846451" lon="86.748403">
        <ele>3797.6</ele>
        <time>2022-10-29T02:26:55.000Z</time>
      </trkpt>
      <trkpt lat="27.846435" lon="86.74839">
        <ele>3796.8</ele>
        <time>2022-10-29T02:27:01.000Z</time>
      </trkpt>
      <trkpt lat="27.846416" lon="86.748384">
        <ele>3796.8</ele>
        <time>2022-10-29T02:27:03.000Z</time>
      </trkpt>
      <trkpt lat="27.84639" lon="86.748365">
        <ele>3796.4</ele>
        <time>2022-10-29T02:27:06.000Z</time>
      </trkpt>
      <trkpt lat="27.846371" lon="86.748358">
        <ele>3796.2</ele>
        <time>2022-10-29T02:27:08.000Z</time>
      </trkpt>
      <trkpt lat="27.846349" lon="86.748346">
        <ele>3795.6</ele>
        <time>2022-10-29T02:27:10.000Z</time>
      </trkpt>
      <trkpt lat="27.846323" lon="86.74832">
        <ele>3795.6</ele>
        <time>2022-10-29T02:27:13.000Z</time>
      </trkpt>
      <trkpt lat="27.846301" lon="86.748307">
        <ele>3795.4</ele>
        <time>2022-10-29T02:27:15.000Z</time>
      </trkpt>
      <trkpt lat="27.846278" lon="86.748301">
        <ele>3795.2</ele>
        <time>2022-10-29T02:27:18.000Z</time>
      </trkpt>
      <trkpt lat="27.846262" lon="86.748288">
        <ele>3795.2</ele>
        <time>2022-10-29T02:27:20.000Z</time>
      </trkpt>
      <trkpt lat="27.846246" lon="86.748269">
        <ele>3794.6</ele>
        <time>2022-10-29T02:27:23.000Z</time>
      </trkpt>
      <trkpt lat="27.84624" lon="86.748243">
        <ele>3793.8</ele>
        <time>2022-10-29T02:27:26.000Z</time>
      </trkpt>
      <trkpt lat="27.846227" lon="86.748224">
        <ele>3793.4</ele>
        <time>2022-10-29T02:27:28.000Z</time>
      </trkpt>
      <trkpt lat="27.846214" lon="86.748205">
        <ele>3793.2</ele>
        <time>2022-10-29T02:27:30.000Z</time>
      </trkpt>
      <trkpt lat="27.846198" lon="86.748179">
        <ele>3792.6</ele>
        <time>2022-10-29T02:27:33.000Z</time>
      </trkpt>
      <trkpt lat="27.846189" lon="86.74816">
        <ele>3792</ele>
        <time>2022-10-29T02:27:35.000Z</time>
      </trkpt>
      <trkpt lat="27.84617" lon="86.748141">
        <ele>3791.4</ele>
        <time>2022-10-29T02:27:38.000Z</time>
      </trkpt>
      <trkpt lat="27.84615" lon="86.748122">
        <ele>3790.6</ele>
        <time>2022-10-29T02:27:41.000Z</time>
      </trkpt>
      <trkpt lat="27.846131" lon="86.748102">
        <ele>3789.8</ele>
        <time>2022-10-29T02:27:44.000Z</time>
      </trkpt>
      <trkpt lat="27.846118" lon="86.748083">
        <ele>3789.4</ele>
        <time>2022-10-29T02:27:46.000Z</time>
      </trkpt>
      <trkpt lat="27.846106" lon="86.748064">
        <ele>3789.2</ele>
        <time>2022-10-29T02:27:48.000Z</time>
      </trkpt>
      <trkpt lat="27.846086" lon="86.748045">
        <ele>3789.2</ele>
        <time>2022-10-29T02:27:50.000Z</time>
      </trkpt>
      <trkpt lat="27.84607" lon="86.748032">
        <ele>3788.6</ele>
        <time>2022-10-29T02:27:52.000Z</time>
      </trkpt>
      <trkpt lat="27.846054" lon="86.748">
        <ele>3788.4</ele>
        <time>2022-10-29T02:27:55.000Z</time>
      </trkpt>
      <trkpt lat="27.846032" lon="86.747981">
        <ele>3788.2</ele>
        <time>2022-10-29T02:27:58.000Z</time>
      </trkpt>
      <trkpt lat="27.846016" lon="86.747962">
        <ele>3788</ele>
        <time>2022-10-29T02:28:00.000Z</time>
      </trkpt>
      <trkpt lat="27.846" lon="86.747942">
        <ele>3787</ele>
        <time>2022-10-29T02:28:03.000Z</time>
      </trkpt>
      <trkpt lat="27.845984" lon="86.747923">
        <ele>3786.6</ele>
        <time>2022-10-29T02:28:05.000Z</time>
      </trkpt>
      <trkpt lat="27.845974" lon="86.747904">
        <ele>3786</ele>
        <time>2022-10-29T02:28:07.000Z</time>
      </trkpt>
      <trkpt lat="27.845965" lon="86.747878">
        <ele>3786</ele>
        <time>2022-10-29T02:28:09.000Z</time>
      </trkpt>
      <trkpt lat="27.845968" lon="86.747846">
        <ele>3785.8</ele>
        <time>2022-10-29T02:28:11.000Z</time>
      </trkpt>
      <trkpt lat="27.845974" lon="86.747827">
        <ele>3785.6</ele>
        <time>2022-10-29T02:28:13.000Z</time>
      </trkpt>
      <trkpt lat="27.845978" lon="86.747802">
        <ele>3785.4</ele>
        <time>2022-10-29T02:28:16.000Z</time>
      </trkpt>
      <trkpt lat="27.845984" lon="86.747782">
        <ele>3785.2</ele>
        <time>2022-10-29T02:28:20.000Z</time>
      </trkpt>
      <trkpt lat="27.84599" lon="86.747757">
        <ele>3785.4</ele>
        <time>2022-10-29T02:28:22.000Z</time>
      </trkpt>
      <trkpt lat="27.846006" lon="86.747725">
        <ele>3785.2</ele>
        <time>2022-10-29T02:28:48.000Z</time>
      </trkpt>
      <trkpt lat="27.846026" lon="86.747693">
        <ele>3785.2</ele>
        <time>2022-10-29T02:28:50.000Z</time>
      </trkpt>
      <trkpt lat="27.846042" lon="86.747667">
        <ele>3784.8</ele>
        <time>2022-10-29T02:28:52.000Z</time>
      </trkpt>
      <trkpt lat="27.846048" lon="86.747648">
        <ele>3784.8</ele>
        <time>2022-10-29T02:28:53.000Z</time>
      </trkpt>
      <trkpt lat="27.846058" lon="86.74761">
        <ele>3784.6</ele>
        <time>2022-10-29T02:28:55.000Z</time>
      </trkpt>
      <trkpt lat="27.846067" lon="86.74759">
        <ele>3784.6</ele>
        <time>2022-10-29T02:28:57.000Z</time>
      </trkpt>
      <trkpt lat="27.846064" lon="86.747565">
        <ele>3784.4</ele>
        <time>2022-10-29T02:28:59.000Z</time>
      </trkpt>
      <trkpt lat="27.846054" lon="86.747546">
        <ele>3784</ele>
        <time>2022-10-29T02:29:01.000Z</time>
      </trkpt>
      <trkpt lat="27.846048" lon="86.747526">
        <ele>3783.6</ele>
        <time>2022-10-29T02:29:02.000Z</time>
      </trkpt>
      <trkpt lat="27.846054" lon="86.747494">
        <ele>3783.6</ele>
        <time>2022-10-29T02:29:04.000Z</time>
      </trkpt>
      <trkpt lat="27.84607" lon="86.747475">
        <ele>3783.2</ele>
        <time>2022-10-29T02:29:06.000Z</time>
      </trkpt>
      <trkpt lat="27.84609" lon="86.747443">
        <ele>3783.2</ele>
        <time>2022-10-29T02:29:08.000Z</time>
      </trkpt>
      <trkpt lat="27.846112" lon="86.74743">
        <ele>3783</ele>
        <time>2022-10-29T02:29:10.000Z</time>
      </trkpt>
      <trkpt lat="27.846134" lon="86.747411">
        <ele>3783</ele>
        <time>2022-10-29T02:29:12.000Z</time>
      </trkpt>
      <trkpt lat="27.84615" lon="86.747392">
        <ele>3783.4</ele>
        <time>2022-10-29T02:29:14.000Z</time>
      </trkpt>
      <trkpt lat="27.846163" lon="86.747373">
        <ele>3783.4</ele>
        <time>2022-10-29T02:29:16.000Z</time>
      </trkpt>
      <trkpt lat="27.846179" lon="86.747354">
        <ele>3783.2</ele>
        <time>2022-10-29T02:29:18.000Z</time>
      </trkpt>
      <trkpt lat="27.846192" lon="86.747328">
        <ele>3783.2</ele>
        <time>2022-10-29T02:29:20.000Z</time>
      </trkpt>
      <trkpt lat="27.846208" lon="86.747309">
        <ele>3783</ele>
        <time>2022-10-29T02:29:22.000Z</time>
      </trkpt>
      <trkpt lat="27.846227" lon="86.747283">
        <ele>3783.2</ele>
        <time>2022-10-29T02:29:24.000Z</time>
      </trkpt>
      <trkpt lat="27.846243" lon="86.74727">
        <ele>3783.2</ele>
        <time>2022-10-29T02:29:26.000Z</time>
      </trkpt>
      <trkpt lat="27.846262" lon="86.747251">
        <ele>3783.2</ele>
        <time>2022-10-29T02:29:28.000Z</time>
      </trkpt>
      <trkpt lat="27.846278" lon="86.747232">
        <ele>3783.2</ele>
        <time>2022-10-29T02:29:30.000Z</time>
      </trkpt>
      <trkpt lat="27.846298" lon="86.747213">
        <ele>3783</ele>
        <time>2022-10-29T02:29:32.000Z</time>
      </trkpt>
      <trkpt lat="27.846314" lon="86.7472">
        <ele>3782.8</ele>
        <time>2022-10-29T02:29:34.000Z</time>
      </trkpt>
      <trkpt lat="27.846333" lon="86.747187">
        <ele>3782.8</ele>
        <time>2022-10-29T02:29:36.000Z</time>
      </trkpt>
      <trkpt lat="27.846342" lon="86.747162">
        <ele>3783</ele>
        <time>2022-10-29T02:29:38.000Z</time>
      </trkpt>
      <trkpt lat="27.846362" lon="86.747136">
        <ele>3783</ele>
        <time>2022-10-29T02:29:41.000Z</time>
      </trkpt>
      <trkpt lat="27.846378" lon="86.747117">
        <ele>3783</ele>
        <time>2022-10-29T02:29:43.000Z</time>
      </trkpt>
      <trkpt lat="27.846384" lon="86.747091">
        <ele>3783</ele>
        <time>2022-10-29T02:29:45.000Z</time>
      </trkpt>
      <trkpt lat="27.846397" lon="86.747072">
        <ele>3783.2</ele>
        <time>2022-10-29T02:29:47.000Z</time>
      </trkpt>
      <trkpt lat="27.846406" lon="86.747046">
        <ele>3783</ele>
        <time>2022-10-29T02:29:49.000Z</time>
      </trkpt>
      <trkpt lat="27.846419" lon="86.747014">
        <ele>3782.4</ele>
        <time>2022-10-29T02:29:51.000Z</time>
      </trkpt>
      <trkpt lat="27.846429" lon="86.746995">
        <ele>3782.2</ele>
        <time>2022-10-29T02:29:53.000Z</time>
      </trkpt>
      <trkpt lat="27.846435" lon="86.746976">
        <ele>3782.2</ele>
        <time>2022-10-29T02:29:54.000Z</time>
      </trkpt>
      <trkpt lat="27.846448" lon="86.74695">
        <ele>3782.2</ele>
        <time>2022-10-29T02:29:56.000Z</time>
      </trkpt>
      <trkpt lat="27.846454" lon="86.746931">
        <ele>3782.2</ele>
        <time>2022-10-29T02:29:57.000Z</time>
      </trkpt>
      <trkpt lat="27.84647" lon="86.746912">
        <ele>3782.2</ele>
        <time>2022-10-29T02:29:59.000Z</time>
      </trkpt>
      <trkpt lat="27.84648" lon="86.746893">
        <ele>3782.4</ele>
        <time>2022-10-29T02:30:00.000Z</time>
      </trkpt>
      <trkpt lat="27.846496" lon="86.746874">
        <ele>3782.4</ele>
        <time>2022-10-29T02:30:02.000Z</time>
      </trkpt>
      <trkpt lat="27.846515" lon="86.746848">
        <ele>3782.4</ele>
        <time>2022-10-29T02:30:04.000Z</time>
      </trkpt>
      <trkpt lat="27.846531" lon="86.746829">
        <ele>3782.4</ele>
        <time>2022-10-29T02:30:06.000Z</time>
      </trkpt>
      <trkpt lat="27.846544" lon="86.746803">
        <ele>3782.2</ele>
        <time>2022-10-29T02:30:08.000Z</time>
      </trkpt>
      <trkpt lat="27.84656" lon="86.746778">
        <ele>3782</ele>
        <time>2022-10-29T02:30:10.000Z</time>
      </trkpt>
      <trkpt lat="27.846579" lon="86.746758">
        <ele>3782</ele>
        <time>2022-10-29T02:30:12.000Z</time>
      </trkpt>
      <trkpt lat="27.846598" lon="86.746739">
        <ele>3782</ele>
        <time>2022-10-29T02:30:14.000Z</time>
      </trkpt>
      <trkpt lat="27.846614" lon="86.74672">
        <ele>3782</ele>
        <time>2022-10-29T02:30:16.000Z</time>
      </trkpt>
      <trkpt lat="27.846634" lon="86.746694">
        <ele>3781.8</ele>
        <time>2022-10-29T02:30:18.000Z</time>
      </trkpt>
      <trkpt lat="27.84665" lon="86.746682">
        <ele>3782</ele>
        <time>2022-10-29T02:30:20.000Z</time>
      </trkpt>
      <trkpt lat="27.846666" lon="86.746656">
        <ele>3782.2</ele>
        <time>2022-10-29T02:30:22.000Z</time>
      </trkpt>
      <trkpt lat="27.846685" lon="86.746643">
        <ele>3782</ele>
        <time>2022-10-29T02:30:24.000Z</time>
      </trkpt>
      <trkpt lat="27.846704" lon="86.74663">
        <ele>3781.6</ele>
        <time>2022-10-29T02:30:27.000Z</time>
      </trkpt>
      <trkpt lat="27.846726" lon="86.746618">
        <ele>3781.2</ele>
        <time>2022-10-29T02:30:31.000Z</time>
      </trkpt>
      <trkpt lat="27.846746" lon="86.746605">
        <ele>3781</ele>
        <time>2022-10-29T02:30:34.000Z</time>
      </trkpt>
      <trkpt lat="27.846768" lon="86.746592">
        <ele>3780.6</ele>
        <time>2022-10-29T02:30:37.000Z</time>
      </trkpt>
      <trkpt lat="27.846784" lon="86.746579">
        <ele>3780</ele>
        <time>2022-10-29T02:30:39.000Z</time>
      </trkpt>
      <trkpt lat="27.846794" lon="86.746554">
        <ele>3779.2</ele>
        <time>2022-10-29T02:30:44.000Z</time>
      </trkpt>
      <trkpt lat="27.846781" lon="86.746534">
        <ele>3778.4</ele>
        <time>2022-10-29T02:30:47.000Z</time>
      </trkpt>
      <trkpt lat="27.846765" lon="86.746522">
        <ele>3777.4</ele>
        <time>2022-10-29T02:30:51.000Z</time>
      </trkpt>
      <trkpt lat="27.846758" lon="86.74649">
        <ele>3776.6</ele>
        <time>2022-10-29T02:30:54.000Z</time>
      </trkpt>
      <trkpt lat="27.846752" lon="86.74647">
        <ele>3775.8</ele>
        <time>2022-10-29T02:30:57.000Z</time>
      </trkpt>
      <trkpt lat="27.846746" lon="86.746445">
        <ele>3775.6</ele>
        <time>2022-10-29T02:30:59.000Z</time>
      </trkpt>
      <trkpt lat="27.846739" lon="86.746419">
        <ele>3775.4</ele>
        <time>2022-10-29T02:31:03.000Z</time>
      </trkpt>
      <trkpt lat="27.846755" lon="86.746406">
        <ele>3774.6</ele>
        <time>2022-10-29T02:31:15.000Z</time>
      </trkpt>
      <trkpt lat="27.846774" lon="86.746451">
        <ele>3770.8</ele>
        <time>2022-10-29T02:32:29.000Z</time>
      </trkpt>
      <trkpt lat="27.846803" lon="86.746451">
        <ele>3770.6</ele>
        <time>2022-10-29T02:32:31.000Z</time>
      </trkpt>
      <trkpt lat="27.846829" lon="86.746451">
        <ele>3770.2</ele>
        <time>2022-10-29T02:32:33.000Z</time>
      </trkpt>
      <trkpt lat="27.846858" lon="86.746451">
        <ele>3770</ele>
        <time>2022-10-29T02:32:35.000Z</time>
      </trkpt>
      <trkpt lat="27.846886" lon="86.746451">
        <ele>3770</ele>
        <time>2022-10-29T02:32:38.000Z</time>
      </trkpt>
      <trkpt lat="27.846893" lon="86.74647">
        <ele>3769.6</ele>
        <time>2022-10-29T02:32:54.000Z</time>
      </trkpt>
      <trkpt lat="27.846922" lon="86.746496">
        <ele>3767</ele>
        <time>2022-10-29T02:33:26.000Z</time>
      </trkpt>
      <trkpt lat="27.846931" lon="86.746515">
        <ele>3766.8</ele>
        <time>2022-10-29T02:33:27.000Z</time>
      </trkpt>
      <trkpt lat="27.846947" lon="86.746528">
        <ele>3766.4</ele>
        <time>2022-10-29T02:33:29.000Z</time>
      </trkpt>
      <trkpt lat="27.846973" lon="86.746528">
        <ele>3766</ele>
        <time>2022-10-29T02:33:31.000Z</time>
      </trkpt>
      <trkpt lat="27.847002" lon="86.746534">
        <ele>3765.6</ele>
        <time>2022-10-29T02:33:33.000Z</time>
      </trkpt>
      <trkpt lat="27.847021" lon="86.746541">
        <ele>3765</ele>
        <time>2022-10-29T02:33:35.000Z</time>
      </trkpt>
      <trkpt lat="27.84704" lon="86.746554">
        <ele>3764.4</ele>
        <time>2022-10-29T02:33:41.000Z</time>
      </trkpt>
      <trkpt lat="27.847059" lon="86.746554">
        <ele>3763.8</ele>
        <time>2022-10-29T02:33:43.000Z</time>
      </trkpt>
      <trkpt lat="27.847078" lon="86.746541">
        <ele>3763.2</ele>
        <time>2022-10-29T02:33:45.000Z</time>
      </trkpt>
      <trkpt lat="27.847104" lon="86.746541">
        <ele>3762.2</ele>
        <time>2022-10-29T02:33:48.000Z</time>
      </trkpt>
      <trkpt lat="27.847123" lon="86.746541">
        <ele>3761.8</ele>
        <time>2022-10-29T02:33:50.000Z</time>
      </trkpt>
      <trkpt lat="27.847139" lon="86.746554">
        <ele>3761.2</ele>
        <time>2022-10-29T02:33:53.000Z</time>
      </trkpt>
      <trkpt lat="27.847149" lon="86.746573">
        <ele>3760.6</ele>
        <time>2022-10-29T02:33:57.000Z</time>
      </trkpt>
      <trkpt lat="27.847174" lon="86.746579">
        <ele>3758.8</ele>
        <time>2022-10-29T02:34:06.000Z</time>
      </trkpt>
      <trkpt lat="27.847187" lon="86.746598">
        <ele>3758.2</ele>
        <time>2022-10-29T02:34:08.000Z</time>
      </trkpt>
      <trkpt lat="27.847194" lon="86.746618">
        <ele>3757.6</ele>
        <time>2022-10-29T02:34:11.000Z</time>
      </trkpt>
      <trkpt lat="27.847203" lon="86.746637">
        <ele>3757.2</ele>
        <time>2022-10-29T02:34:13.000Z</time>
      </trkpt>
      <trkpt lat="27.84721" lon="86.746656">
        <ele>3756.4</ele>
        <time>2022-10-29T02:34:15.000Z</time>
      </trkpt>
      <trkpt lat="27.847216" lon="86.746675">
        <ele>3756.2</ele>
        <time>2022-10-29T02:34:22.000Z</time>
      </trkpt>
      <trkpt lat="27.847238" lon="86.746682">
        <ele>3755.8</ele>
        <time>2022-10-29T02:34:28.000Z</time>
      </trkpt>
      <trkpt lat="27.847258" lon="86.746707">
        <ele>3754.8</ele>
        <time>2022-10-29T02:34:32.000Z</time>
      </trkpt>
      <trkpt lat="27.847274" lon="86.74672">
        <ele>3754</ele>
        <time>2022-10-29T02:34:34.000Z</time>
      </trkpt>
      <trkpt lat="27.84729" lon="86.746733">
        <ele>3753.2</ele>
        <time>2022-10-29T02:34:37.000Z</time>
      </trkpt>
      <trkpt lat="27.847302" lon="86.746752">
        <ele>3752.2</ele>
        <time>2022-10-29T02:34:40.000Z</time>
      </trkpt>
      <trkpt lat="27.847322" lon="86.746765">
        <ele>3752</ele>
        <time>2022-10-29T02:34:42.000Z</time>
      </trkpt>
      <trkpt lat="27.847344" lon="86.746778">
        <ele>3751.4</ele>
        <time>2022-10-29T02:34:44.000Z</time>
      </trkpt>
      <trkpt lat="27.847341" lon="86.746803">
        <ele>3750.8</ele>
        <time>2022-10-29T02:34:48.000Z</time>
      </trkpt>
      <trkpt lat="27.847357" lon="86.746816">
        <ele>3749.6</ele>
        <time>2022-10-29T02:34:51.000Z</time>
      </trkpt>
      <trkpt lat="27.84737" lon="86.746835">
        <ele>3749</ele>
        <time>2022-10-29T02:34:54.000Z</time>
      </trkpt>
      <trkpt lat="27.847382" lon="86.746854">
        <ele>3748.2</ele>
        <time>2022-10-29T02:34:57.000Z</time>
      </trkpt>
      <trkpt lat="27.847402" lon="86.746874">
        <ele>3747.2</ele>
        <time>2022-10-29T02:35:00.000Z</time>
      </trkpt>
      <trkpt lat="27.847421" lon="86.746886">
        <ele>3746.2</ele>
        <time>2022-10-29T02:35:03.000Z</time>
      </trkpt>
      <trkpt lat="27.847427" lon="86.746906">
        <ele>3745.8</ele>
        <time>2022-10-29T02:35:06.000Z</time>
      </trkpt>
      <trkpt lat="27.847443" lon="86.746918">
        <ele>3745.4</ele>
        <time>2022-10-29T02:35:08.000Z</time>
      </trkpt>
      <trkpt lat="27.84745" lon="86.746938">
        <ele>3744</ele>
        <time>2022-10-29T02:35:15.000Z</time>
      </trkpt>
      <trkpt lat="27.847459" lon="86.746918">
        <ele>3743.4</ele>
        <time>2022-10-29T02:35:20.000Z</time>
      </trkpt>
      <trkpt lat="27.847482" lon="86.746925">
        <ele>3742.4</ele>
        <time>2022-10-29T02:35:23.000Z</time>
      </trkpt>
      <trkpt lat="27.847498" lon="86.74695">
        <ele>3742</ele>
        <time>2022-10-29T02:35:26.000Z</time>
      </trkpt>
      <trkpt lat="27.847514" lon="86.74697">
        <ele>3740.8</ele>
        <time>2022-10-29T02:35:30.000Z</time>
      </trkpt>
      <trkpt lat="27.84753" lon="86.746989">
        <ele>3740.2</ele>
        <time>2022-10-29T02:35:32.000Z</time>
      </trkpt>
      <trkpt lat="27.847549" lon="86.747002">
        <ele>3739.2</ele>
        <time>2022-10-29T02:35:36.000Z</time>
      </trkpt>
      <trkpt lat="27.847571" lon="86.747008">
        <ele>3738.6</ele>
        <time>2022-10-29T02:35:38.000Z</time>
      </trkpt>
      <trkpt lat="27.847597" lon="86.747014">
        <ele>3738.4</ele>
        <time>2022-10-29T02:35:40.000Z</time>
      </trkpt>
      <trkpt lat="27.847613" lon="86.747027">
        <ele>3737.6</ele>
        <time>2022-10-29T02:35:42.000Z</time>
      </trkpt>
      <trkpt lat="27.847638" lon="86.747027">
        <ele>3737</ele>
        <time>2022-10-29T02:35:45.000Z</time>
      </trkpt>
      <trkpt lat="27.847658" lon="86.747034">
        <ele>3736.4</ele>
        <time>2022-10-29T02:35:47.000Z</time>
      </trkpt>
      <trkpt lat="27.847677" lon="86.74704">
        <ele>3736</ele>
        <time>2022-10-29T02:35:49.000Z</time>
      </trkpt>
      <trkpt lat="27.847696" lon="86.747046">
        <ele>3735.2</ele>
        <time>2022-10-29T02:35:52.000Z</time>
      </trkpt>
      <trkpt lat="27.847718" lon="86.747053">
        <ele>3734.6</ele>
        <time>2022-10-29T02:35:55.000Z</time>
      </trkpt>
      <trkpt lat="27.847741" lon="86.747053">
        <ele>3734</ele>
        <time>2022-10-29T02:35:57.000Z</time>
      </trkpt>
      <trkpt lat="27.84776" lon="86.747046">
        <ele>3733.6</ele>
        <time>2022-10-29T02:36:00.000Z</time>
      </trkpt>
      <trkpt lat="27.847786" lon="86.747027">
        <ele>3732.6</ele>
        <time>2022-10-29T02:36:04.000Z</time>
      </trkpt>
      <trkpt lat="27.847808" lon="86.747027">
        <ele>3731.6</ele>
        <time>2022-10-29T02:36:07.000Z</time>
      </trkpt>
      <trkpt lat="27.847824" lon="86.747014">
        <ele>3731.2</ele>
        <time>2022-10-29T02:36:09.000Z</time>
      </trkpt>
      <trkpt lat="27.847846" lon="86.747014">
        <ele>3730.8</ele>
        <time>2022-10-29T02:36:13.000Z</time>
      </trkpt>
      <trkpt lat="27.847866" lon="86.747034">
        <ele>3730.2</ele>
        <time>2022-10-29T02:36:15.000Z</time>
      </trkpt>
      <trkpt lat="27.847888" lon="86.747046">
        <ele>3729.8</ele>
        <time>2022-10-29T02:36:18.000Z</time>
      </trkpt>
      <trkpt lat="27.847894" lon="86.747066">
        <ele>3729.2</ele>
        <time>2022-10-29T02:36:20.000Z</time>
      </trkpt>
      <trkpt lat="27.84791" lon="86.747085">
        <ele>3728.8</ele>
        <time>2022-10-29T02:36:22.000Z</time>
      </trkpt>
      <trkpt lat="27.84792" lon="86.747104">
        <ele>3728.6</ele>
        <time>2022-10-29T02:36:24.000Z</time>
      </trkpt>
      <trkpt lat="27.847936" lon="86.747117">
        <ele>3727.8</ele>
        <time>2022-10-29T02:36:27.000Z</time>
      </trkpt>
      <trkpt lat="27.847952" lon="86.74713">
        <ele>3727</ele>
        <time>2022-10-29T02:36:30.000Z</time>
      </trkpt>
      <trkpt lat="27.847958" lon="86.747149">
        <ele>3726.6</ele>
        <time>2022-10-29T02:36:31.000Z</time>
      </trkpt>
      <trkpt lat="27.847974" lon="86.747162">
        <ele>3726.4</ele>
        <time>2022-10-29T02:36:33.000Z</time>
      </trkpt>
      <trkpt lat="27.848" lon="86.747162">
        <ele>3725.2</ele>
        <time>2022-10-29T02:36:37.000Z</time>
      </trkpt>
      <trkpt lat="27.848019" lon="86.747168">
        <ele>3725</ele>
        <time>2022-10-29T02:36:40.000Z</time>
      </trkpt>
      <trkpt lat="27.848045" lon="86.747168">
        <ele>3724.6</ele>
        <time>2022-10-29T02:36:43.000Z</time>
      </trkpt>
      <trkpt lat="27.848067" lon="86.747168">
        <ele>3723.6</ele>
        <time>2022-10-29T02:36:46.000Z</time>
      </trkpt>
      <trkpt lat="27.84809" lon="86.747168">
        <ele>3723.4</ele>
        <time>2022-10-29T02:36:48.000Z</time>
      </trkpt>
      <trkpt lat="27.848109" lon="86.747168">
        <ele>3722.8</ele>
        <time>2022-10-29T02:36:51.000Z</time>
      </trkpt>
      <trkpt lat="27.848128" lon="86.747168">
        <ele>3722.6</ele>
        <time>2022-10-29T02:36:53.000Z</time>
      </trkpt>
      <trkpt lat="27.848144" lon="86.747187">
        <ele>3721.6</ele>
        <time>2022-10-29T02:36:57.000Z</time>
      </trkpt>
      <trkpt lat="27.848163" lon="86.747174">
        <ele>3721.4</ele>
        <time>2022-10-29T02:37:01.000Z</time>
      </trkpt>
      <trkpt lat="27.848179" lon="86.747162">
        <ele>3720.6</ele>
        <time>2022-10-29T02:37:05.000Z</time>
      </trkpt>
      <trkpt lat="27.848198" lon="86.747162">
        <ele>3719.6</ele>
        <time>2022-10-29T02:37:08.000Z</time>
      </trkpt>
      <trkpt lat="27.848221" lon="86.747162">
        <ele>3719</ele>
        <time>2022-10-29T02:37:11.000Z</time>
      </trkpt>
      <trkpt lat="27.848243" lon="86.747155">
        <ele>3718.8</ele>
        <time>2022-10-29T02:37:13.000Z</time>
      </trkpt>
      <trkpt lat="27.848262" lon="86.747149">
        <ele>3718.4</ele>
        <time>2022-10-29T02:37:15.000Z</time>
      </trkpt>
      <trkpt lat="27.848285" lon="86.747136">
        <ele>3717.4</ele>
        <time>2022-10-29T02:37:18.000Z</time>
      </trkpt>
      <trkpt lat="27.848314" lon="86.74713">
        <ele>3717.2</ele>
        <time>2022-10-29T02:37:21.000Z</time>
      </trkpt>
      <trkpt lat="27.848333" lon="86.747123">
        <ele>3717</ele>
        <time>2022-10-29T02:37:23.000Z</time>
      </trkpt>
      <trkpt lat="27.848352" lon="86.747123">
        <ele>3716.4</ele>
        <time>2022-10-29T02:37:25.000Z</time>
      </trkpt>
      <trkpt lat="27.848378" lon="86.74711">
        <ele>3715.8</ele>
        <time>2022-10-29T02:37:28.000Z</time>
      </trkpt>
      <trkpt lat="27.8484" lon="86.747104">
        <ele>3715.2</ele>
        <time>2022-10-29T02:37:30.000Z</time>
      </trkpt>
      <trkpt lat="27.848419" lon="86.747078">
        <ele>3714.8</ele>
        <time>2022-10-29T02:37:33.000Z</time>
      </trkpt>
      <trkpt lat="27.848435" lon="86.747066">
        <ele>3714.4</ele>
        <time>2022-10-29T02:37:35.000Z</time>
      </trkpt>
      <trkpt lat="27.848454" lon="86.747053">
        <ele>3714.4</ele>
        <time>2022-10-29T02:37:37.000Z</time>
      </trkpt>
      <trkpt lat="27.84847" lon="86.747034">
        <ele>3713.6</ele>
        <time>2022-10-29T02:37:39.000Z</time>
      </trkpt>
      <trkpt lat="27.848486" lon="86.747014">
        <ele>3713.6</ele>
        <time>2022-10-29T02:37:41.000Z</time>
      </trkpt>
      <trkpt lat="27.848506" lon="86.747008">
        <ele>3713.2</ele>
        <time>2022-10-29T02:37:43.000Z</time>
      </trkpt>
      <trkpt lat="27.848525" lon="86.746995">
        <ele>3712.4</ele>
        <time>2022-10-29T02:37:49.000Z</time>
      </trkpt>
      <trkpt lat="27.84855" lon="86.746989">
        <ele>3711.4</ele>
        <time>2022-10-29T02:38:07.000Z</time>
      </trkpt>
      <trkpt lat="27.848566" lon="86.746976">
        <ele>3710.6</ele>
        <time>2022-10-29T02:38:10.000Z</time>
      </trkpt>
      <trkpt lat="27.848586" lon="86.746963">
        <ele>3710.8</ele>
        <time>2022-10-29T02:38:18.000Z</time>
      </trkpt>
      <trkpt lat="27.848605" lon="86.74697">
        <ele>3709.4</ele>
        <time>2022-10-29T02:38:34.000Z</time>
      </trkpt>
      <trkpt lat="27.848634" lon="86.746989">
        <ele>3709.4</ele>
        <time>2022-10-29T02:38:36.000Z</time>
      </trkpt>
      <trkpt lat="27.84865" lon="86.747002">
        <ele>3709</ele>
        <time>2022-10-29T02:38:37.000Z</time>
      </trkpt>
      <trkpt lat="27.848678" lon="86.747014">
        <ele>3708.6</ele>
        <time>2022-10-29T02:38:39.000Z</time>
      </trkpt>
      <trkpt lat="27.848694" lon="86.747027">
        <ele>3708.4</ele>
        <time>2022-10-29T02:38:40.000Z</time>
      </trkpt>
      <trkpt lat="27.84872" lon="86.74704">
        <ele>3708.4</ele>
        <time>2022-10-29T02:38:42.000Z</time>
      </trkpt>
      <trkpt lat="27.848733" lon="86.747066">
        <ele>3707.8</ele>
        <time>2022-10-29T02:38:45.000Z</time>
      </trkpt>
      <trkpt lat="27.848755" lon="86.747072">
        <ele>3707.4</ele>
        <time>2022-10-29T02:38:49.000Z</time>
      </trkpt>
      <trkpt lat="27.848774" lon="86.747078">
        <ele>3706.6</ele>
        <time>2022-10-29T02:38:51.000Z</time>
      </trkpt>
      <trkpt lat="27.8488" lon="86.747078">
        <ele>3706.4</ele>
        <time>2022-10-29T02:38:53.000Z</time>
      </trkpt>
      <trkpt lat="27.848822" lon="86.747085">
        <ele>3706</ele>
        <time>2022-10-29T02:38:55.000Z</time>
      </trkpt>
      <trkpt lat="27.848842" lon="86.747085">
        <ele>3706</ele>
        <time>2022-10-29T02:38:57.000Z</time>
      </trkpt>
      <trkpt lat="27.848864" lon="86.747091">
        <ele>3705.6</ele>
        <time>2022-10-29T02:39:00.000Z</time>
      </trkpt>
      <trkpt lat="27.84889" lon="86.747091">
        <ele>3705.2</ele>
        <time>2022-10-29T02:39:03.000Z</time>
      </trkpt>
      <trkpt lat="27.848909" lon="86.747078">
        <ele>3704.8</ele>
        <time>2022-10-29T02:39:06.000Z</time>
      </trkpt>
      <trkpt lat="27.848931" lon="86.747091">
        <ele>3704</ele>
        <time>2022-10-29T02:39:09.000Z</time>
      </trkpt>
      <trkpt lat="27.848954" lon="86.747091">
        <ele>3703.2</ele>
        <time>2022-10-29T02:39:12.000Z</time>
      </trkpt>
      <trkpt lat="27.84897" lon="86.747072">
        <ele>3702.4</ele>
        <time>2022-10-29T02:39:15.000Z</time>
      </trkpt>
      <trkpt lat="27.848979" lon="86.747046">
        <ele>3701.8</ele>
        <time>2022-10-29T02:39:18.000Z</time>
      </trkpt>
      <trkpt lat="27.848998" lon="86.747027">
        <ele>3700.8</ele>
        <time>2022-10-29T02:39:21.000Z</time>
      </trkpt>
      <trkpt lat="27.849014" lon="86.747014">
        <ele>3700.4</ele>
        <time>2022-10-29T02:39:24.000Z</time>
      </trkpt>
      <trkpt lat="27.849024" lon="86.746995">
        <ele>3699</ele>
        <time>2022-10-29T02:39:29.000Z</time>
      </trkpt>
      <trkpt lat="27.84903" lon="86.746976">
        <ele>3698.4</ele>
        <time>2022-10-29T02:39:31.000Z</time>
      </trkpt>
      <trkpt lat="27.849053" lon="86.746963">
        <ele>3697.8</ele>
        <time>2022-10-29T02:39:34.000Z</time>
      </trkpt>
      <trkpt lat="27.849078" lon="86.746963">
        <ele>3697.4</ele>
        <time>2022-10-29T02:39:37.000Z</time>
      </trkpt>
      <trkpt lat="27.849101" lon="86.74697">
        <ele>3697</ele>
        <time>2022-10-29T02:39:39.000Z</time>
      </trkpt>
      <trkpt lat="27.84912" lon="86.74697">
        <ele>3696.2</ele>
        <time>2022-10-29T02:39:41.000Z</time>
      </trkpt>
      <trkpt lat="27.849149" lon="86.746963">
        <ele>3695.8</ele>
        <time>2022-10-29T02:39:44.000Z</time>
      </trkpt>
      <trkpt lat="27.849171" lon="86.746957">
        <ele>3695.8</ele>
        <time>2022-10-29T02:39:46.000Z</time>
      </trkpt>
      <trkpt lat="27.8492" lon="86.746963">
        <ele>3695</ele>
        <time>2022-10-29T02:39:49.000Z</time>
      </trkpt>
      <trkpt lat="27.849219" lon="86.746963">
        <ele>3694.8</ele>
        <time>2022-10-29T02:39:51.000Z</time>
      </trkpt>
      <trkpt lat="27.849242" lon="86.74697">
        <ele>3694.6</ele>
        <time>2022-10-29T02:39:53.000Z</time>
      </trkpt>
      <trkpt lat="27.849264" lon="86.746976">
        <ele>3694</ele>
        <time>2022-10-29T02:39:55.000Z</time>
      </trkpt>
      <trkpt lat="27.849286" lon="86.746989">
        <ele>3694</ele>
        <time>2022-10-29T02:39:57.000Z</time>
      </trkpt>
      <trkpt lat="27.849306" lon="86.746989">
        <ele>3694</ele>
        <time>2022-10-29T02:39:59.000Z</time>
      </trkpt>
      <trkpt lat="27.849325" lon="86.746995">
        <ele>3693.8</ele>
        <time>2022-10-29T02:40:01.000Z</time>
      </trkpt>
      <trkpt lat="27.84935" lon="86.747002">
        <ele>3693.2</ele>
        <time>2022-10-29T02:40:04.000Z</time>
      </trkpt>
      <trkpt lat="27.84937" lon="86.747002">
        <ele>3692.8</ele>
        <time>2022-10-29T02:40:06.000Z</time>
      </trkpt>
      <trkpt lat="27.849389" lon="86.746995">
        <ele>3692.2</ele>
        <time>2022-10-29T02:40:09.000Z</time>
      </trkpt>
      <trkpt lat="27.849408" lon="86.746976">
        <ele>3691.6</ele>
        <time>2022-10-29T02:40:12.000Z</time>
      </trkpt>
      <trkpt lat="27.849434" lon="86.74697">
        <ele>3690.8</ele>
        <time>2022-10-29T02:40:15.000Z</time>
      </trkpt>
      <trkpt lat="27.849453" lon="86.746963">
        <ele>3690.8</ele>
        <time>2022-10-29T02:40:17.000Z</time>
      </trkpt>
      <trkpt lat="27.849472" lon="86.746963">
        <ele>3690.2</ele>
        <time>2022-10-29T02:40:19.000Z</time>
      </trkpt>
      <trkpt lat="27.849498" lon="86.746957">
        <ele>3689.4</ele>
        <time>2022-10-29T02:40:22.000Z</time>
      </trkpt>
      <trkpt lat="27.849523" lon="86.74695">
        <ele>3689</ele>
        <time>2022-10-29T02:40:25.000Z</time>
      </trkpt>
      <trkpt lat="27.849542" lon="86.74695">
        <ele>3688</ele>
        <time>2022-10-29T02:40:27.000Z</time>
      </trkpt>
      <trkpt lat="27.849574" lon="86.74695">
        <ele>3687.8</ele>
        <time>2022-10-29T02:40:30.000Z</time>
      </trkpt>
      <trkpt lat="27.849594" lon="86.74695">
        <ele>3687.8</ele>
        <time>2022-10-29T02:40:32.000Z</time>
      </trkpt>
      <trkpt lat="27.849613" lon="86.74695">
        <ele>3687.4</ele>
        <time>2022-10-29T02:40:34.000Z</time>
      </trkpt>
      <trkpt lat="27.849632" lon="86.74695">
        <ele>3687</ele>
        <time>2022-10-29T02:40:36.000Z</time>
      </trkpt>
      <trkpt lat="27.849651" lon="86.746938">
        <ele>3686.6</ele>
        <time>2022-10-29T02:40:38.000Z</time>
      </trkpt>
      <trkpt lat="27.849677" lon="86.746931">
        <ele>3686.2</ele>
        <time>2022-10-29T02:40:41.000Z</time>
      </trkpt>
      <trkpt lat="27.849699" lon="86.746925">
        <ele>3685.4</ele>
        <time>2022-10-29T02:40:43.000Z</time>
      </trkpt>
      <trkpt lat="27.849718" lon="86.746918">
        <ele>3685.2</ele>
        <time>2022-10-29T02:40:45.000Z</time>
      </trkpt>
      <trkpt lat="27.849738" lon="86.746918">
        <ele>3684.6</ele>
        <time>2022-10-29T02:40:47.000Z</time>
      </trkpt>
      <trkpt lat="27.849757" lon="86.746912">
        <ele>3684.4</ele>
        <time>2022-10-29T02:40:49.000Z</time>
      </trkpt>
      <trkpt lat="27.849779" lon="86.746912">
        <ele>3684.2</ele>
        <time>2022-10-29T02:40:51.000Z</time>
      </trkpt>
      <trkpt lat="27.849802" lon="86.746912">
        <ele>3684.2</ele>
        <time>2022-10-29T02:40:53.000Z</time>
      </trkpt>
      <trkpt lat="27.849824" lon="86.746912">
        <ele>3684.2</ele>
        <time>2022-10-29T02:40:55.000Z</time>
      </trkpt>
      <trkpt lat="27.849843" lon="86.746918">
        <ele>3684.2</ele>
        <time>2022-10-29T02:40:57.000Z</time>
      </trkpt>
      <trkpt lat="27.849872" lon="86.746918">
        <ele>3684</ele>
        <time>2022-10-29T02:41:00.000Z</time>
      </trkpt>
      <trkpt lat="27.849891" lon="86.746912">
        <ele>3683.2</ele>
        <time>2022-10-29T02:41:03.000Z</time>
      </trkpt>
      <trkpt lat="27.84991" lon="86.746912">
        <ele>3683</ele>
        <time>2022-10-29T02:41:05.000Z</time>
      </trkpt>
      <trkpt lat="27.84993" lon="86.746906">
        <ele>3682.2</ele>
        <time>2022-10-29T02:41:08.000Z</time>
      </trkpt>
      <trkpt lat="27.849942" lon="86.746886">
        <ele>3682.2</ele>
        <time>2022-10-29T02:41:10.000Z</time>
      </trkpt>
      <trkpt lat="27.849958" lon="86.746874">
        <ele>3681.6</ele>
        <time>2022-10-29T02:41:14.000Z</time>
      </trkpt>
      <trkpt lat="27.849978" lon="86.746867">
        <ele>3681</ele>
        <time>2022-10-29T02:41:17.000Z</time>
      </trkpt>
      <trkpt lat="27.84999" lon="86.746848">
        <ele>3680.6</ele>
        <time>2022-10-29T02:41:20.000Z</time>
      </trkpt>
      <trkpt lat="27.850013" lon="86.746835">
        <ele>3679.8</ele>
        <time>2022-10-29T02:41:24.000Z</time>
      </trkpt>
      <trkpt lat="27.850022" lon="86.746816">
        <ele>3678.8</ele>
        <time>2022-10-29T02:41:27.000Z</time>
      </trkpt>
      <trkpt lat="27.850045" lon="86.746797">
        <ele>3678.8</ele>
        <time>2022-10-29T02:41:30.000Z</time>
      </trkpt>
      <trkpt lat="27.85007" lon="86.746797">
        <ele>3678.2</ele>
        <time>2022-10-29T02:41:33.000Z</time>
      </trkpt>
      <trkpt lat="27.850096" lon="86.746778">
        <ele>3678.2</ele>
        <time>2022-10-29T02:41:36.000Z</time>
      </trkpt>
      <trkpt lat="27.850118" lon="86.746778">
        <ele>3677.4</ele>
        <time>2022-10-29T02:41:39.000Z</time>
      </trkpt>
      <trkpt lat="27.850144" lon="86.746765">
        <ele>3677.4</ele>
        <time>2022-10-29T02:41:42.000Z</time>
      </trkpt>
      <trkpt lat="27.85016" lon="86.746752">
        <ele>3676.8</ele>
        <time>2022-10-29T02:41:45.000Z</time>
      </trkpt>
      <trkpt lat="27.85017" lon="86.746733">
        <ele>3676</ele>
        <time>2022-10-29T02:41:48.000Z</time>
      </trkpt>
      <trkpt lat="27.850186" lon="86.746714">
        <ele>3675.6</ele>
        <time>2022-10-29T02:41:51.000Z</time>
      </trkpt>
      <trkpt lat="27.850208" lon="86.746694">
        <ele>3674.8</ele>
        <time>2022-10-29T02:41:54.000Z</time>
      </trkpt>
      <trkpt lat="27.85023" lon="86.746694">
        <ele>3674.2</ele>
        <time>2022-10-29T02:41:57.000Z</time>
      </trkpt>
      <trkpt lat="27.85025" lon="86.746707">
        <ele>3673.8</ele>
        <time>2022-10-29T02:41:59.000Z</time>
      </trkpt>
      <trkpt lat="27.850269" lon="86.746714">
        <ele>3673</ele>
        <time>2022-10-29T02:42:02.000Z</time>
      </trkpt>
      <trkpt lat="27.850294" lon="86.746707">
        <ele>3672.6</ele>
        <time>2022-10-29T02:42:05.000Z</time>
      </trkpt>
      <trkpt lat="27.850317" lon="86.746694">
        <ele>3671.8</ele>
        <time>2022-10-29T02:42:08.000Z</time>
      </trkpt>
      <trkpt lat="27.850339" lon="86.746682">
        <ele>3671.2</ele>
        <time>2022-10-29T02:42:11.000Z</time>
      </trkpt>
      <trkpt lat="27.850365" lon="86.746669">
        <ele>3670.4</ele>
        <time>2022-10-29T02:42:14.000Z</time>
      </trkpt>
      <trkpt lat="27.850387" lon="86.746656">
        <ele>3669.8</ele>
        <time>2022-10-29T02:42:17.000Z</time>
      </trkpt>
      <trkpt lat="27.85041" lon="86.74665">
        <ele>3669.4</ele>
        <time>2022-10-29T02:42:20.000Z</time>
      </trkpt>
      <trkpt lat="27.850429" lon="86.74663">
        <ele>3668.8</ele>
        <time>2022-10-29T02:42:23.000Z</time>
      </trkpt>
      <trkpt lat="27.850451" lon="86.746611">
        <ele>3668.4</ele>
        <time>2022-10-29T02:42:26.000Z</time>
      </trkpt>
      <trkpt lat="27.85047" lon="86.746598">
        <ele>3668.2</ele>
        <time>2022-10-29T02:42:29.000Z</time>
      </trkpt>
      <trkpt lat="27.850477" lon="86.746579">
        <ele>3668</ele>
        <time>2022-10-29T02:42:30.000Z</time>
      </trkpt>
      <trkpt lat="27.850496" lon="86.746566">
        <ele>3667.6</ele>
        <time>2022-10-29T02:42:33.000Z</time>
      </trkpt>
      <trkpt lat="27.850522" lon="86.74656">
        <ele>3667.2</ele>
        <time>2022-10-29T02:42:36.000Z</time>
      </trkpt>
      <trkpt lat="27.850541" lon="86.746554">
        <ele>3666.8</ele>
        <time>2022-10-29T02:42:38.000Z</time>
      </trkpt>
      <trkpt lat="27.85056" lon="86.746541">
        <ele>3666.8</ele>
        <time>2022-10-29T02:42:40.000Z</time>
      </trkpt>
      <trkpt lat="27.850582" lon="86.746528">
        <ele>3665.8</ele>
        <time>2022-10-29T02:42:43.000Z</time>
      </trkpt>
      <trkpt lat="27.850602" lon="86.746522">
        <ele>3665.2</ele>
        <time>2022-10-29T02:42:46.000Z</time>
      </trkpt>
      <trkpt lat="27.850621" lon="86.746522">
        <ele>3664.6</ele>
        <time>2022-10-29T02:42:48.000Z</time>
      </trkpt>
      <trkpt lat="27.850646" lon="86.746509">
        <ele>3663.6</ele>
        <time>2022-10-29T02:42:51.000Z</time>
      </trkpt>
      <trkpt lat="27.850662" lon="86.746496">
        <ele>3663.2</ele>
        <time>2022-10-29T02:42:54.000Z</time>
      </trkpt>
      <trkpt lat="27.850688" lon="86.746483">
        <ele>3662.4</ele>
        <time>2022-10-29T02:42:57.000Z</time>
      </trkpt>
      <trkpt lat="27.850698" lon="86.746458">
        <ele>3661.4</ele>
        <time>2022-10-29T02:43:00.000Z</time>
      </trkpt>
      <trkpt lat="27.850701" lon="86.746432">
        <ele>3660.2</ele>
        <time>2022-10-29T02:43:04.000Z</time>
      </trkpt>
      <trkpt lat="27.85071" lon="86.746406">
        <ele>3659.6</ele>
        <time>2022-10-29T02:43:06.000Z</time>
      </trkpt>
      <trkpt lat="27.850736" lon="86.746394">
        <ele>3658.8</ele>
        <time>2022-10-29T02:43:09.000Z</time>
      </trkpt>
      <trkpt lat="27.850755" lon="86.746381">
        <ele>3658.4</ele>
        <time>2022-10-29T02:43:11.000Z</time>
      </trkpt>
      <trkpt lat="27.850765" lon="86.746362">
        <ele>3657.8</ele>
        <time>2022-10-29T02:43:17.000Z</time>
      </trkpt>
      <trkpt lat="27.850774" lon="86.746336">
        <ele>3656.6</ele>
        <time>2022-10-29T02:43:20.000Z</time>
      </trkpt>
      <trkpt lat="27.85079" lon="86.746317">
        <ele>3656</ele>
        <time>2022-10-29T02:43:24.000Z</time>
      </trkpt>
      <trkpt lat="27.8508" lon="86.746298">
        <ele>3655.2</ele>
        <time>2022-10-29T02:43:27.000Z</time>
      </trkpt>
      <trkpt lat="27.850806" lon="86.746278">
        <ele>3654.2</ele>
        <time>2022-10-29T02:43:30.000Z</time>
      </trkpt>
      <trkpt lat="27.850806" lon="86.746253">
        <ele>3653.6</ele>
        <time>2022-10-29T02:43:33.000Z</time>
      </trkpt>
      <trkpt lat="27.850813" lon="86.746234">
        <ele>3653</ele>
        <time>2022-10-29T02:43:37.000Z</time>
      </trkpt>
      <trkpt lat="27.850832" lon="86.746214">
        <ele>3652.6</ele>
        <time>2022-10-29T02:43:40.000Z</time>
      </trkpt>
      <trkpt lat="27.850848" lon="86.746202">
        <ele>3651.8</ele>
        <time>2022-10-29T02:43:44.000Z</time>
      </trkpt>
      <trkpt lat="27.850867" lon="86.746182">
        <ele>3651</ele>
        <time>2022-10-29T02:43:48.000Z</time>
      </trkpt>
      <trkpt lat="27.85088" lon="86.746163">
        <ele>3650.4</ele>
        <time>2022-10-29T02:43:52.000Z</time>
      </trkpt>
      <trkpt lat="27.85089" lon="86.746144">
        <ele>3649.2</ele>
        <time>2022-10-29T02:43:54.000Z</time>
      </trkpt>
      <trkpt lat="27.850902" lon="86.746118">
        <ele>3648.6</ele>
        <time>2022-10-29T02:43:57.000Z</time>
      </trkpt>
      <trkpt lat="27.850909" lon="86.746099">
        <ele>3648</ele>
        <time>2022-10-29T02:43:59.000Z</time>
      </trkpt>
      <trkpt lat="27.850928" lon="86.746086">
        <ele>3647.8</ele>
        <time>2022-10-29T02:44:02.000Z</time>
      </trkpt>
      <trkpt lat="27.850947" lon="86.74608">
        <ele>3647.4</ele>
        <time>2022-10-29T02:44:04.000Z</time>
      </trkpt>
      <trkpt lat="27.850954" lon="86.746061">
        <ele>3647</ele>
        <time>2022-10-29T02:44:06.000Z</time>
      </trkpt>
      <trkpt lat="27.850963" lon="86.746042">
        <ele>3646.2</ele>
        <time>2022-10-29T02:44:09.000Z</time>
      </trkpt>
      <trkpt lat="27.850979" lon="86.746022">
        <ele>3645</ele>
        <time>2022-10-29T02:44:12.000Z</time>
      </trkpt>
      <trkpt lat="27.850989" lon="86.746003">
        <ele>3644.4</ele>
        <time>2022-10-29T02:44:14.000Z</time>
      </trkpt>
      <trkpt lat="27.850998" lon="86.745984">
        <ele>3644.2</ele>
        <time>2022-10-29T02:44:16.000Z</time>
      </trkpt>
      <trkpt lat="27.851014" lon="86.745971">
        <ele>3643</ele>
        <time>2022-10-29T02:44:19.000Z</time>
      </trkpt>
      <trkpt lat="27.851018" lon="86.745939">
        <ele>3642.2</ele>
        <time>2022-10-29T02:44:23.000Z</time>
      </trkpt>
      <trkpt lat="27.851034" lon="86.74592">
        <ele>3641.4</ele>
        <time>2022-10-29T02:44:27.000Z</time>
      </trkpt>
      <trkpt lat="27.851043" lon="86.745901">
        <ele>3641</ele>
        <time>2022-10-29T02:44:29.000Z</time>
      </trkpt>
      <trkpt lat="27.851043" lon="86.745862">
        <ele>3640.2</ele>
        <time>2022-10-29T02:44:32.000Z</time>
      </trkpt>
      <trkpt lat="27.851053" lon="86.745843">
        <ele>3639.6</ele>
        <time>2022-10-29T02:44:35.000Z</time>
      </trkpt>
      <trkpt lat="27.851072" lon="86.745824">
        <ele>3639.2</ele>
        <time>2022-10-29T02:44:38.000Z</time>
      </trkpt>
      <trkpt lat="27.851088" lon="86.745811">
        <ele>3638</ele>
        <time>2022-10-29T02:44:43.000Z</time>
      </trkpt>
      <trkpt lat="27.851101" lon="86.745786">
        <ele>3637</ele>
        <time>2022-10-29T02:44:47.000Z</time>
      </trkpt>
      <trkpt lat="27.851107" lon="86.74576">
        <ele>3635.8</ele>
        <time>2022-10-29T02:44:52.000Z</time>
      </trkpt>
      <trkpt lat="27.851114" lon="86.745741">
        <ele>3635.4</ele>
        <time>2022-10-29T02:44:56.000Z</time>
      </trkpt>
      <trkpt lat="27.85112" lon="86.745696">
        <ele>3634.2</ele>
        <time>2022-10-29T02:45:02.000Z</time>
      </trkpt>
      <trkpt lat="27.851133" lon="86.745664">
        <ele>3633.2</ele>
        <time>2022-10-29T02:45:06.000Z</time>
      </trkpt>
      <trkpt lat="27.851152" lon="86.745651">
        <ele>3632.4</ele>
        <time>2022-10-29T02:45:09.000Z</time>
      </trkpt>
      <trkpt lat="27.851168" lon="86.745638">
        <ele>3632</ele>
        <time>2022-10-29T02:45:11.000Z</time>
      </trkpt>
      <trkpt lat="27.851187" lon="86.745626">
        <ele>3631.8</ele>
        <time>2022-10-29T02:45:13.000Z</time>
      </trkpt>
      <trkpt lat="27.851206" lon="86.745626">
        <ele>3631.2</ele>
        <time>2022-10-29T02:45:15.000Z</time>
      </trkpt>
      <trkpt lat="27.851232" lon="86.745638">
        <ele>3630.4</ele>
        <time>2022-10-29T02:45:20.000Z</time>
      </trkpt>
      <trkpt lat="27.851254" lon="86.745638">
        <ele>3629.8</ele>
        <time>2022-10-29T02:45:23.000Z</time>
      </trkpt>
      <trkpt lat="27.851274" lon="86.745645">
        <ele>3629.2</ele>
        <time>2022-10-29T02:45:25.000Z</time>
      </trkpt>
      <trkpt lat="27.851299" lon="86.745658">
        <ele>3628.4</ele>
        <time>2022-10-29T02:45:28.000Z</time>
      </trkpt>
      <trkpt lat="27.851325" lon="86.745658">
        <ele>3628.2</ele>
        <time>2022-10-29T02:45:32.000Z</time>
      </trkpt>
      <trkpt lat="27.851354" lon="86.745651">
        <ele>3627.8</ele>
        <time>2022-10-29T02:45:35.000Z</time>
      </trkpt>
      <trkpt lat="27.851392" lon="86.745619">
        <ele>3627</ele>
        <time>2022-10-29T02:45:40.000Z</time>
      </trkpt>
      <trkpt lat="27.851408" lon="86.745606">
        <ele>3626.8</ele>
        <time>2022-10-29T02:45:42.000Z</time>
      </trkpt>
      <trkpt lat="27.851424" lon="86.745587">
        <ele>3626.2</ele>
        <time>2022-10-29T02:45:45.000Z</time>
      </trkpt>
      <trkpt lat="27.851421" lon="86.745562">
        <ele>3625.8</ele>
        <time>2022-10-29T02:45:50.000Z</time>
      </trkpt>
      <trkpt lat="27.851405" lon="86.745542">
        <ele>3625.4</ele>
        <time>2022-10-29T02:45:54.000Z</time>
      </trkpt>
      <trkpt lat="27.851392" lon="86.745523">
        <ele>3624.6</ele>
        <time>2022-10-29T02:45:58.000Z</time>
      </trkpt>
      <trkpt lat="27.851382" lon="86.745504">
        <ele>3624</ele>
        <time>2022-10-29T02:46:01.000Z</time>
      </trkpt>
      <trkpt lat="27.851376" lon="86.745485">
        <ele>3623.2</ele>
        <time>2022-10-29T02:46:04.000Z</time>
      </trkpt>
      <trkpt lat="27.851376" lon="86.745453">
        <ele>3622.8</ele>
        <time>2022-10-29T02:46:07.000Z</time>
      </trkpt>
      <trkpt lat="27.851386" lon="86.745427">
        <ele>3622</ele>
        <time>2022-10-29T02:46:10.000Z</time>
      </trkpt>
      <trkpt lat="27.851386" lon="86.745402">
        <ele>3621.2</ele>
        <time>2022-10-29T02:46:14.000Z</time>
      </trkpt>
      <trkpt lat="27.851386" lon="86.745376">
        <ele>3620.8</ele>
        <time>2022-10-29T02:46:16.000Z</time>
      </trkpt>
      <trkpt lat="27.851392" lon="86.745357">
        <ele>3620.6</ele>
        <time>2022-10-29T02:46:18.000Z</time>
      </trkpt>
      <trkpt lat="27.851405" lon="86.745331">
        <ele>3620</ele>
        <time>2022-10-29T02:46:20.000Z</time>
      </trkpt>
      <trkpt lat="27.851421" lon="86.745318">
        <ele>3619.6</ele>
        <time>2022-10-29T02:46:22.000Z</time>
      </trkpt>
      <trkpt lat="27.85143" lon="86.745299">
        <ele>3619.2</ele>
        <time>2022-10-29T02:46:25.000Z</time>
      </trkpt>
      <trkpt lat="27.851456" lon="86.745293">
        <ele>3617.6</ele>
        <time>2022-10-29T02:46:30.000Z</time>
      </trkpt>
      <trkpt lat="27.851466" lon="86.745267">
        <ele>3617.2</ele>
        <time>2022-10-29T02:46:33.000Z</time>
      </trkpt>
      <trkpt lat="27.851466" lon="86.745242">
        <ele>3616.2</ele>
        <time>2022-10-29T02:46:37.000Z</time>
      </trkpt>
      <trkpt lat="27.851478" lon="86.745216">
        <ele>3616</ele>
        <time>2022-10-29T02:46:39.000Z</time>
      </trkpt>
      <trkpt lat="27.851501" lon="86.745184">
        <ele>3615.6</ele>
        <time>2022-10-29T02:46:42.000Z</time>
      </trkpt>
      <trkpt lat="27.851514" lon="86.745158">
        <ele>3614</ele>
        <time>2022-10-29T02:46:45.000Z</time>
      </trkpt>
      <trkpt lat="27.851514" lon="86.745133">
        <ele>3613.8</ele>
        <time>2022-10-29T02:46:47.000Z</time>
      </trkpt>
      <trkpt lat="27.851523" lon="86.745107">
        <ele>3612.8</ele>
        <time>2022-10-29T02:46:49.000Z</time>
      </trkpt>
      <trkpt lat="27.851536" lon="86.745088">
        <ele>3612.6</ele>
        <time>2022-10-29T02:46:51.000Z</time>
      </trkpt>
      <trkpt lat="27.851549" lon="86.745069">
        <ele>3612.2</ele>
        <time>2022-10-29T02:46:53.000Z</time>
      </trkpt>
      <trkpt lat="27.851562" lon="86.74505">
        <ele>3611.6</ele>
        <time>2022-10-29T02:46:55.000Z</time>
      </trkpt>
      <trkpt lat="27.851568" lon="86.74503">
        <ele>3611.2</ele>
        <time>2022-10-29T02:46:57.000Z</time>
      </trkpt>
      <trkpt lat="27.851574" lon="86.745005">
        <ele>3610.4</ele>
        <time>2022-10-29T02:47:00.000Z</time>
      </trkpt>
      <trkpt lat="27.851581" lon="86.744986">
        <ele>3610.2</ele>
        <time>2022-10-29T02:47:02.000Z</time>
      </trkpt>
      <trkpt lat="27.851594" lon="86.744966">
        <ele>3609.8</ele>
        <time>2022-10-29T02:47:04.000Z</time>
      </trkpt>
      <trkpt lat="27.851603" lon="86.744947">
        <ele>3609.6</ele>
        <time>2022-10-29T02:47:06.000Z</time>
      </trkpt>
      <trkpt lat="27.851619" lon="86.744928">
        <ele>3608.8</ele>
        <time>2022-10-29T02:47:09.000Z</time>
      </trkpt>
      <trkpt lat="27.851622" lon="86.744896">
        <ele>3607</ele>
        <time>2022-10-29T02:47:41.000Z</time>
      </trkpt>
      <trkpt lat="27.851616" lon="86.744864">
        <ele>3606.4</ele>
        <time>2022-10-29T02:47:43.000Z</time>
      </trkpt>
      <trkpt lat="27.851616" lon="86.744826">
        <ele>3606</ele>
        <time>2022-10-29T02:47:46.000Z</time>
      </trkpt>
      <trkpt lat="27.851616" lon="86.744794">
        <ele>3605.8</ele>
        <time>2022-10-29T02:47:48.000Z</time>
      </trkpt>
      <trkpt lat="27.851603" lon="86.744768">
        <ele>3605.2</ele>
        <time>2022-10-29T02:47:51.000Z</time>
      </trkpt>
      <trkpt lat="27.85159" lon="86.744749">
        <ele>3605.2</ele>
        <time>2022-10-29T02:47:53.000Z</time>
      </trkpt>
      <trkpt lat="27.851571" lon="86.74473">
        <ele>3604.6</ele>
        <time>2022-10-29T02:47:56.000Z</time>
      </trkpt>
      <trkpt lat="27.851565" lon="86.74471">
        <ele>3604.6</ele>
        <time>2022-10-29T02:47:57.000Z</time>
      </trkpt>
      <trkpt lat="27.851555" lon="86.744691">
        <ele>3603.8</ele>
        <time>2022-10-29T02:48:00.000Z</time>
      </trkpt>
      <trkpt lat="27.851549" lon="86.744672">
        <ele>3603.6</ele>
        <time>2022-10-29T02:48:02.000Z</time>
      </trkpt>
      <trkpt lat="27.851542" lon="86.744653">
        <ele>3603</ele>
        <time>2022-10-29T02:48:06.000Z</time>
      </trkpt>
      <trkpt lat="27.851523" lon="86.744634">
        <ele>3602.4</ele>
        <time>2022-10-29T02:48:10.000Z</time>
      </trkpt>
      <trkpt lat="27.85152" lon="86.744608">
        <ele>3601.8</ele>
        <time>2022-10-29T02:48:13.000Z</time>
      </trkpt>
      <trkpt lat="27.851526" lon="86.744589">
        <ele>3601.4</ele>
        <time>2022-10-29T02:48:15.000Z</time>
      </trkpt>
      <trkpt lat="27.85153" lon="86.744563">
        <ele>3601.2</ele>
        <time>2022-10-29T02:48:18.000Z</time>
      </trkpt>
      <trkpt lat="27.851536" lon="86.744531">
        <ele>3600.6</ele>
        <time>2022-10-29T02:48:20.000Z</time>
      </trkpt>
      <trkpt lat="27.851549" lon="86.744506">
        <ele>3600.2</ele>
        <time>2022-10-29T02:48:23.000Z</time>
      </trkpt>
      <trkpt lat="27.851565" lon="86.744493">
        <ele>3600</ele>
        <time>2022-10-29T02:48:25.000Z</time>
      </trkpt>
      <trkpt lat="27.851584" lon="86.744474">
        <ele>3599.8</ele>
        <time>2022-10-29T02:48:27.000Z</time>
      </trkpt>
      <trkpt lat="27.851603" lon="86.744461">
        <ele>3598.6</ele>
        <time>2022-10-29T02:48:29.000Z</time>
      </trkpt>
      <trkpt lat="27.851619" lon="86.744435">
        <ele>3598.8</ele>
        <time>2022-10-29T02:48:31.000Z</time>
      </trkpt>
      <trkpt lat="27.851632" lon="86.744416">
        <ele>3598.2</ele>
        <time>2022-10-29T02:48:33.000Z</time>
      </trkpt>
      <trkpt lat="27.851654" lon="86.744403">
        <ele>3598.6</ele>
        <time>2022-10-29T02:48:36.000Z</time>
      </trkpt>
      <trkpt lat="27.851674" lon="86.74439">
        <ele>3598.6</ele>
        <time>2022-10-29T02:48:38.000Z</time>
      </trkpt>
      <trkpt lat="27.851693" lon="86.744384">
        <ele>3598.8</ele>
        <time>2022-10-29T02:48:41.000Z</time>
      </trkpt>
      <trkpt lat="27.851709" lon="86.744371">
        <ele>3599</ele>
        <time>2022-10-29T02:48:44.000Z</time>
      </trkpt>
      <trkpt lat="27.851709" lon="86.744339">
        <ele>3599.4</ele>
        <time>2022-10-29T02:48:47.000Z</time>
      </trkpt>
      <trkpt lat="27.851722" lon="86.744314">
        <ele>3600</ele>
        <time>2022-10-29T02:48:50.000Z</time>
      </trkpt>
      <trkpt lat="27.851734" lon="86.744294">
        <ele>3600</ele>
        <time>2022-10-29T02:48:53.000Z</time>
      </trkpt>
      <trkpt lat="27.851747" lon="86.744275">
        <ele>3600.4</ele>
        <time>2022-10-29T02:48:55.000Z</time>
      </trkpt>
      <trkpt lat="27.851754" lon="86.744256">
        <ele>3600.2</ele>
        <time>2022-10-29T02:48:57.000Z</time>
      </trkpt>
      <trkpt lat="27.85176" lon="86.744224">
        <ele>3600.4</ele>
        <time>2022-10-29T02:49:00.000Z</time>
      </trkpt>
      <trkpt lat="27.85177" lon="86.744205">
        <ele>3600.6</ele>
        <time>2022-10-29T02:49:03.000Z</time>
      </trkpt>
      <trkpt lat="27.851773" lon="86.744179">
        <ele>3601.2</ele>
        <time>2022-10-29T02:49:07.000Z</time>
      </trkpt>
      <trkpt lat="27.851763" lon="86.744141">
        <ele>3602.6</ele>
        <time>2022-10-29T02:50:47.000Z</time>
      </trkpt>
      <trkpt lat="27.851747" lon="86.744115">
        <ele>3602.6</ele>
        <time>2022-10-29T02:50:49.000Z</time>
      </trkpt>
      <trkpt lat="27.851741" lon="86.74409">
        <ele>3602.4</ele>
        <time>2022-10-29T02:50:51.000Z</time>
      </trkpt>
      <trkpt lat="27.851731" lon="86.744058">
        <ele>3602.2</ele>
        <time>2022-10-29T02:50:54.000Z</time>
      </trkpt>
      <trkpt lat="27.851722" lon="86.744038">
        <ele>3602.4</ele>
        <time>2022-10-29T02:50:55.000Z</time>
      </trkpt>
      <trkpt lat="27.851712" lon="86.744019">
        <ele>3602.4</ele>
        <time>2022-10-29T02:50:57.000Z</time>
      </trkpt>
      <trkpt lat="27.851706" lon="86.743994">
        <ele>3602.4</ele>
        <time>2022-10-29T02:50:59.000Z</time>
      </trkpt>
      <trkpt lat="27.851693" lon="86.743968">
        <ele>3602.4</ele>
        <time>2022-10-29T02:51:02.000Z</time>
      </trkpt>
      <trkpt lat="27.851683" lon="86.743942">
        <ele>3602.2</ele>
        <time>2022-10-29T02:51:10.000Z</time>
      </trkpt>
      <trkpt lat="27.85168" lon="86.743917">
        <ele>3601.8</ele>
        <time>2022-10-29T02:51:12.000Z</time>
      </trkpt>
      <trkpt lat="27.851664" lon="86.743904">
        <ele>3601.4</ele>
        <time>2022-10-29T02:51:25.000Z</time>
      </trkpt>
      <trkpt lat="27.851718" lon="86.743904">
        <ele>3599.8</ele>
        <time>2022-10-29T02:58:16.000Z</time>
      </trkpt>
      <trkpt lat="27.851693" lon="86.74391">
        <ele>3599.8</ele>
        <time>2022-10-29T02:58:18.000Z</time>
      </trkpt>
      <trkpt lat="27.851677" lon="86.74393">
        <ele>3599.6</ele>
        <time>2022-10-29T02:58:20.000Z</time>
      </trkpt>
      <trkpt lat="27.851654" lon="86.743936">
        <ele>3599</ele>
        <time>2022-10-29T02:58:22.000Z</time>
      </trkpt>
      <trkpt lat="27.851629" lon="86.743968">
        <ele>3599</ele>
        <time>2022-10-29T02:58:24.000Z</time>
      </trkpt>
      <trkpt lat="27.851603" lon="86.743981">
        <ele>3598.8</ele>
        <time>2022-10-29T02:58:26.000Z</time>
      </trkpt>
      <trkpt lat="27.851584" lon="86.743994">
        <ele>3598.6</ele>
        <time>2022-10-29T02:58:28.000Z</time>
      </trkpt>
      <trkpt lat="27.851562" lon="86.744006">
        <ele>3598</ele>
        <time>2022-10-29T02:58:31.000Z</time>
      </trkpt>
      <trkpt lat="27.851536" lon="86.744026">
        <ele>3597.6</ele>
        <time>2022-10-29T02:58:34.000Z</time>
      </trkpt>
      <trkpt lat="27.851514" lon="86.744032">
        <ele>3597.4</ele>
        <time>2022-10-29T02:58:36.000Z</time>
      </trkpt>
      <trkpt lat="27.851491" lon="86.744051">
        <ele>3597</ele>
        <time>2022-10-29T02:58:38.000Z</time>
      </trkpt>
      <trkpt lat="27.851472" lon="86.744064">
        <ele>3596.6</ele>
        <time>2022-10-29T02:58:40.000Z</time>
      </trkpt>
      <trkpt lat="27.851456" lon="86.744096">
        <ele>3596.2</ele>
        <time>2022-10-29T02:58:43.000Z</time>
      </trkpt>
      <trkpt lat="27.851434" lon="86.744102">
        <ele>3595.4</ele>
        <time>2022-10-29T02:58:45.000Z</time>
      </trkpt>
      <trkpt lat="27.851411" lon="86.744115">
        <ele>3595.8</ele>
        <time>2022-10-29T02:58:47.000Z</time>
      </trkpt>
      <trkpt lat="27.851392" lon="86.744128">
        <ele>3595.8</ele>
        <time>2022-10-29T02:58:49.000Z</time>
      </trkpt>
      <trkpt lat="27.851376" lon="86.744115">
        <ele>3596.4</ele>
        <time>2022-10-29T02:58:52.000Z</time>
      </trkpt>
      <trkpt lat="27.85136" lon="86.744134">
        <ele>3596.6</ele>
        <time>2022-10-29T02:58:54.000Z</time>
      </trkpt>
      <trkpt lat="27.851341" lon="86.744134">
        <ele>3597</ele>
        <time>2022-10-29T02:58:57.000Z</time>
      </trkpt>
      <trkpt lat="27.851318" lon="86.744141">
        <ele>3597</ele>
        <time>2022-10-29T02:59:00.000Z</time>
      </trkpt>
      <trkpt lat="27.851299" lon="86.744141">
        <ele>3597</ele>
        <time>2022-10-29T02:59:02.000Z</time>
      </trkpt>
      <trkpt lat="27.851274" lon="86.744134">
        <ele>3597</ele>
        <time>2022-10-29T02:59:05.000Z</time>
      </trkpt>
      <trkpt lat="27.851245" lon="86.744134">
        <ele>3597.2</ele>
        <time>2022-10-29T02:59:08.000Z</time>
      </trkpt>
      <trkpt lat="27.851216" lon="86.744134">
        <ele>3596.6</ele>
        <time>2022-10-29T02:59:11.000Z</time>
      </trkpt>
      <trkpt lat="27.851194" lon="86.744141">
        <ele>3597</ele>
        <time>2022-10-29T02:59:13.000Z</time>
      </trkpt>
      <trkpt lat="27.851171" lon="86.744147">
        <ele>3596.2</ele>
        <time>2022-10-29T02:59:15.000Z</time>
      </trkpt>
      <trkpt lat="27.851152" lon="86.744154">
        <ele>3596.2</ele>
        <time>2022-10-29T02:59:17.000Z</time>
      </trkpt>
      <trkpt lat="27.851133" lon="86.744166">
        <ele>3596.2</ele>
        <time>2022-10-29T02:59:19.000Z</time>
      </trkpt>
      <trkpt lat="27.851107" lon="86.744173">
        <ele>3596.4</ele>
        <time>2022-10-29T02:59:22.000Z</time>
      </trkpt>
      <trkpt lat="27.851091" lon="86.744186">
        <ele>3596.2</ele>
        <time>2022-10-29T02:59:33.000Z</time>
      </trkpt>
      <trkpt lat="27.851072" lon="86.744179">
        <ele>3596.8</ele>
        <time>2022-10-29T02:59:51.000Z</time>
      </trkpt>
      <trkpt lat="27.851043" lon="86.744179">
        <ele>3596.8</ele>
        <time>2022-10-29T03:00:06.000Z</time>
      </trkpt>
      <trkpt lat="27.851018" lon="86.744192">
        <ele>3597.2</ele>
        <time>2022-10-29T03:00:08.000Z</time>
      </trkpt>
      <trkpt lat="27.850998" lon="86.744192">
        <ele>3597.2</ele>
        <time>2022-10-29T03:00:10.000Z</time>
      </trkpt>
      <trkpt lat="27.850976" lon="86.744192">
        <ele>3597.4</ele>
        <time>2022-10-29T03:00:13.000Z</time>
      </trkpt>
      <trkpt lat="27.850954" lon="86.744192">
        <ele>3597.6</ele>
        <time>2022-10-29T03:00:15.000Z</time>
      </trkpt>
      <trkpt lat="27.850938" lon="86.744205">
        <ele>3597.6</ele>
        <time>2022-10-29T03:00:17.000Z</time>
      </trkpt>
      <trkpt lat="27.850918" lon="86.744211">
        <ele>3597</ele>
        <time>2022-10-29T03:00:19.000Z</time>
      </trkpt>
      <trkpt lat="27.850893" lon="86.744218">
        <ele>3596.8</ele>
        <time>2022-10-29T03:00:26.000Z</time>
      </trkpt>
      <trkpt lat="27.850874" lon="86.744218">
        <ele>3596.8</ele>
        <time>2022-10-29T03:00:28.000Z</time>
      </trkpt>
      <trkpt lat="27.850854" lon="86.74423">
        <ele>3596.8</ele>
        <time>2022-10-29T03:00:30.000Z</time>
      </trkpt>
      <trkpt lat="27.850835" lon="86.744237">
        <ele>3596.8</ele>
        <time>2022-10-29T03:00:32.000Z</time>
      </trkpt>
      <trkpt lat="27.850819" lon="86.744256">
        <ele>3596.6</ele>
        <time>2022-10-29T03:00:34.000Z</time>
      </trkpt>
      <trkpt lat="27.8508" lon="86.744262">
        <ele>3596.2</ele>
        <time>2022-10-29T03:00:36.000Z</time>
      </trkpt>
      <trkpt lat="27.850781" lon="86.744269">
        <ele>3596</ele>
        <time>2022-10-29T03:00:38.000Z</time>
      </trkpt>
      <trkpt lat="27.850758" lon="86.744288">
        <ele>3595.4</ele>
        <time>2022-10-29T03:00:40.000Z</time>
      </trkpt>
      <trkpt lat="27.850739" lon="86.744307">
        <ele>3595.4</ele>
        <time>2022-10-29T03:00:43.000Z</time>
      </trkpt>
      <trkpt lat="27.850723" lon="86.744326">
        <ele>3595.6</ele>
        <time>2022-10-29T03:00:45.000Z</time>
      </trkpt>
      <trkpt lat="27.850704" lon="86.744333">
        <ele>3596</ele>
        <time>2022-10-29T03:00:48.000Z</time>
      </trkpt>
      <trkpt lat="27.850682" lon="86.744339">
        <ele>3596.4</ele>
        <time>2022-10-29T03:00:51.000Z</time>
      </trkpt>
      <trkpt lat="27.850669" lon="86.744365">
        <ele>3596.6</ele>
        <time>2022-10-29T03:00:55.000Z</time>
      </trkpt>
      <trkpt lat="27.850675" lon="86.744384">
        <ele>3597</ele>
        <time>2022-10-29T03:00:57.000Z</time>
      </trkpt>
      <trkpt lat="27.850666" lon="86.744403">
        <ele>3597.4</ele>
        <time>2022-10-29T03:01:00.000Z</time>
      </trkpt>
      <trkpt lat="27.85065" lon="86.744416">
        <ele>3597.8</ele>
        <time>2022-10-29T03:01:02.000Z</time>
      </trkpt>
      <trkpt lat="27.850627" lon="86.744435">
        <ele>3597.6</ele>
        <time>2022-10-29T03:01:05.000Z</time>
      </trkpt>
      <trkpt lat="27.850608" lon="86.744448">
        <ele>3597.8</ele>
        <time>2022-10-29T03:01:07.000Z</time>
      </trkpt>
      <trkpt lat="27.850589" lon="86.744448">
        <ele>3598.2</ele>
        <time>2022-10-29T03:01:09.000Z</time>
      </trkpt>
      <trkpt lat="27.850566" lon="86.744454">
        <ele>3598.4</ele>
        <time>2022-10-29T03:01:13.000Z</time>
      </trkpt>
      <trkpt lat="27.850547" lon="86.744435">
        <ele>3598.6</ele>
        <time>2022-10-29T03:01:15.000Z</time>
      </trkpt>
      <trkpt lat="27.850528" lon="86.744435">
        <ele>3598.6</ele>
        <time>2022-10-29T03:01:17.000Z</time>
      </trkpt>
      <trkpt lat="27.850509" lon="86.744435">
        <ele>3598.4</ele>
        <time>2022-10-29T03:01:19.000Z</time>
      </trkpt>
      <trkpt lat="27.85048" lon="86.744429">
        <ele>3598.2</ele>
        <time>2022-10-29T03:01:22.000Z</time>
      </trkpt>
      <trkpt lat="27.850461" lon="86.744429">
        <ele>3597.6</ele>
        <time>2022-10-29T03:01:25.000Z</time>
      </trkpt>
      <trkpt lat="27.850438" lon="86.744429">
        <ele>3597.4</ele>
        <time>2022-10-29T03:01:28.000Z</time>
      </trkpt>
      <trkpt lat="27.850419" lon="86.744429">
        <ele>3597.2</ele>
        <time>2022-10-29T03:01:30.000Z</time>
      </trkpt>
      <trkpt lat="27.850397" lon="86.744435">
        <ele>3597</ele>
        <time>2022-10-29T03:01:32.000Z</time>
      </trkpt>
      <trkpt lat="27.850374" lon="86.744435">
        <ele>3597</ele>
        <time>2022-10-29T03:01:34.000Z</time>
      </trkpt>
      <trkpt lat="27.850352" lon="86.744435">
        <ele>3597</ele>
        <time>2022-10-29T03:01:36.000Z</time>
      </trkpt>
      <trkpt lat="27.850333" lon="86.744435">
        <ele>3597</ele>
        <time>2022-10-29T03:01:38.000Z</time>
      </trkpt>
      <trkpt lat="27.850307" lon="86.744435">
        <ele>3597</ele>
        <time>2022-10-29T03:01:41.000Z</time>
      </trkpt>
      <trkpt lat="27.850282" lon="86.744435">
        <ele>3596.6</ele>
        <time>2022-10-29T03:01:44.000Z</time>
      </trkpt>
      <trkpt lat="27.850259" lon="86.744435">
        <ele>3596.4</ele>
        <time>2022-10-29T03:01:47.000Z</time>
      </trkpt>
      <trkpt lat="27.850243" lon="86.744448">
        <ele>3596.2</ele>
        <time>2022-10-29T03:01:49.000Z</time>
      </trkpt>
      <trkpt lat="27.850227" lon="86.744461">
        <ele>3595.8</ele>
        <time>2022-10-29T03:01:51.000Z</time>
      </trkpt>
      <trkpt lat="27.850202" lon="86.744461">
        <ele>3595.6</ele>
        <time>2022-10-29T03:01:53.000Z</time>
      </trkpt>
      <trkpt lat="27.850176" lon="86.744461">
        <ele>3595.2</ele>
        <time>2022-10-29T03:01:56.000Z</time>
      </trkpt>
      <trkpt lat="27.85015" lon="86.744467">
        <ele>3595</ele>
        <time>2022-10-29T03:01:59.000Z</time>
      </trkpt>
      <trkpt lat="27.850131" lon="86.744467">
        <ele>3594.8</ele>
        <time>2022-10-29T03:02:01.000Z</time>
      </trkpt>
      <trkpt lat="27.850112" lon="86.744461">
        <ele>3595.2</ele>
        <time>2022-10-29T03:02:03.000Z</time>
      </trkpt>
      <trkpt lat="27.85009" lon="86.744454">
        <ele>3594.8</ele>
        <time>2022-10-29T03:02:06.000Z</time>
      </trkpt>
      <trkpt lat="27.85007" lon="86.744448">
        <ele>3595</ele>
        <time>2022-10-29T03:02:08.000Z</time>
      </trkpt>
      <trkpt lat="27.850054" lon="86.744435">
        <ele>3595</ele>
        <time>2022-10-29T03:02:10.000Z</time>
      </trkpt>
      <trkpt lat="27.850029" lon="86.744429">
        <ele>3594.8</ele>
        <time>2022-10-29T03:02:13.000Z</time>
      </trkpt>
      <trkpt lat="27.85001" lon="86.744429">
        <ele>3595</ele>
        <time>2022-10-29T03:02:15.000Z</time>
      </trkpt>
      <trkpt lat="27.84999" lon="86.744422">
        <ele>3595.6</ele>
        <time>2022-10-29T03:02:17.000Z</time>
      </trkpt>
      <trkpt lat="27.849971" lon="86.744416">
        <ele>3595.6</ele>
        <time>2022-10-29T03:02:20.000Z</time>
      </trkpt>
      <trkpt lat="27.849955" lon="86.744403">
        <ele>3595.8</ele>
        <time>2022-10-29T03:02:23.000Z</time>
      </trkpt>
      <trkpt lat="27.849939" lon="86.74439">
        <ele>3596.2</ele>
        <time>2022-10-29T03:02:25.000Z</time>
      </trkpt>
      <trkpt lat="27.849914" lon="86.744384">
        <ele>3596.8</ele>
        <time>2022-10-29T03:02:28.000Z</time>
      </trkpt>
      <trkpt lat="27.849894" lon="86.744384">
        <ele>3597.2</ele>
        <time>2022-10-29T03:02:31.000Z</time>
      </trkpt>
      <trkpt lat="27.849875" lon="86.744384">
        <ele>3597.6</ele>
        <time>2022-10-29T03:02:34.000Z</time>
      </trkpt>
      <trkpt lat="27.849856" lon="86.744384">
        <ele>3598</ele>
        <time>2022-10-29T03:02:36.000Z</time>
      </trkpt>
      <trkpt lat="27.849837" lon="86.744371">
        <ele>3598.4</ele>
        <time>2022-10-29T03:02:40.000Z</time>
      </trkpt>
      <trkpt lat="27.849824" lon="86.744352">
        <ele>3599</ele>
        <time>2022-10-29T03:02:43.000Z</time>
      </trkpt>
      <trkpt lat="27.849808" lon="86.744333">
        <ele>3599.6</ele>
        <time>2022-10-29T03:02:47.000Z</time>
      </trkpt>
      <trkpt lat="27.849782" lon="86.744326">
        <ele>3599</ele>
        <time>2022-10-29T03:02:51.000Z</time>
      </trkpt>
      <trkpt lat="27.849763" lon="86.744314">
        <ele>3599</ele>
        <time>2022-10-29T03:02:55.000Z</time>
      </trkpt>
      <trkpt lat="27.849744" lon="86.744301">
        <ele>3598</ele>
        <time>2022-10-29T03:02:58.000Z</time>
      </trkpt>
      <trkpt lat="27.849738" lon="86.744269">
        <ele>3597.6</ele>
        <time>2022-10-29T03:03:01.000Z</time>
      </trkpt>
      <trkpt lat="27.849734" lon="86.744237">
        <ele>3597.8</ele>
        <time>2022-10-29T03:03:03.000Z</time>
      </trkpt>
      <trkpt lat="27.849722" lon="86.744218">
        <ele>3597.2</ele>
        <time>2022-10-29T03:03:06.000Z</time>
      </trkpt>
      <trkpt lat="27.849702" lon="86.744205">
        <ele>3597</ele>
        <time>2022-10-29T03:03:09.000Z</time>
      </trkpt>
      <trkpt lat="27.849677" lon="86.744186">
        <ele>3597</ele>
        <time>2022-10-29T03:03:11.000Z</time>
      </trkpt>
      <trkpt lat="27.849658" lon="86.744179">
        <ele>3597</ele>
        <time>2022-10-29T03:03:13.000Z</time>
      </trkpt>
      <trkpt lat="27.849638" lon="86.744166">
        <ele>3597.2</ele>
        <time>2022-10-29T03:03:15.000Z</time>
      </trkpt>
      <trkpt lat="27.849616" lon="86.744154">
        <ele>3597.6</ele>
        <time>2022-10-29T03:03:18.000Z</time>
      </trkpt>
      <trkpt lat="27.849594" lon="86.744147">
        <ele>3597.8</ele>
        <time>2022-10-29T03:03:21.000Z</time>
      </trkpt>
      <trkpt lat="27.849571" lon="86.744141">
        <ele>3598</ele>
        <time>2022-10-29T03:03:24.000Z</time>
      </trkpt>
      <trkpt lat="27.849539" lon="86.744128">
        <ele>3598.4</ele>
        <time>2022-10-29T03:03:27.000Z</time>
      </trkpt>
      <trkpt lat="27.849517" lon="86.744109">
        <ele>3598.2</ele>
        <time>2022-10-29T03:03:30.000Z</time>
      </trkpt>
      <trkpt lat="27.849488" lon="86.744102">
        <ele>3598.8</ele>
        <time>2022-10-29T03:03:33.000Z</time>
      </trkpt>
      <trkpt lat="27.849469" lon="86.744102">
        <ele>3598.4</ele>
        <time>2022-10-29T03:03:35.000Z</time>
      </trkpt>
      <trkpt lat="27.84945" lon="86.744096">
        <ele>3598.2</ele>
        <time>2022-10-29T03:03:37.000Z</time>
      </trkpt>
      <trkpt lat="27.849427" lon="86.74409">
        <ele>3598</ele>
        <time>2022-10-29T03:03:39.000Z</time>
      </trkpt>
      <trkpt lat="27.849408" lon="86.744077">
        <ele>3598</ele>
        <time>2022-10-29T03:03:41.000Z</time>
      </trkpt>
      <trkpt lat="27.849392" lon="86.744064">
        <ele>3598</ele>
        <time>2022-10-29T03:03:43.000Z</time>
      </trkpt>
      <trkpt lat="27.84937" lon="86.744058">
        <ele>3598.2</ele>
        <time>2022-10-29T03:03:46.000Z</time>
      </trkpt>
      <trkpt lat="27.849344" lon="86.744038">
        <ele>3598.2</ele>
        <time>2022-10-29T03:03:49.000Z</time>
      </trkpt>
      <trkpt lat="27.849325" lon="86.744032">
        <ele>3598.2</ele>
        <time>2022-10-29T03:03:51.000Z</time>
      </trkpt>
      <trkpt lat="27.849306" lon="86.744026">
        <ele>3598.2</ele>
        <time>2022-10-29T03:03:53.000Z</time>
      </trkpt>
      <trkpt lat="27.849286" lon="86.744019">
        <ele>3598</ele>
        <time>2022-10-29T03:03:55.000Z</time>
      </trkpt>
      <trkpt lat="27.849267" lon="86.744006">
        <ele>3597.8</ele>
        <time>2022-10-29T03:03:57.000Z</time>
      </trkpt>
      <trkpt lat="27.849248" lon="86.743994">
        <ele>3597.8</ele>
        <time>2022-10-29T03:03:59.000Z</time>
      </trkpt>
      <trkpt lat="27.849222" lon="86.743994">
        <ele>3597.6</ele>
        <time>2022-10-29T03:04:01.000Z</time>
      </trkpt>
      <trkpt lat="27.849197" lon="86.743994">
        <ele>3597.8</ele>
        <time>2022-10-29T03:04:04.000Z</time>
      </trkpt>
      <trkpt lat="27.849174" lon="86.743994">
        <ele>3597.6</ele>
        <time>2022-10-29T03:04:06.000Z</time>
      </trkpt>
      <trkpt lat="27.849155" lon="86.743987">
        <ele>3597.6</ele>
        <time>2022-10-29T03:04:08.000Z</time>
      </trkpt>
      <trkpt lat="27.84913" lon="86.743981">
        <ele>3597.2</ele>
        <time>2022-10-29T03:04:10.000Z</time>
      </trkpt>
      <trkpt lat="27.849107" lon="86.743981">
        <ele>3597</ele>
        <time>2022-10-29T03:04:12.000Z</time>
      </trkpt>
      <trkpt lat="27.849085" lon="86.743981">
        <ele>3597</ele>
        <time>2022-10-29T03:04:14.000Z</time>
      </trkpt>
      <trkpt lat="27.849062" lon="86.743981">
        <ele>3597</ele>
        <time>2022-10-29T03:04:16.000Z</time>
      </trkpt>
      <trkpt lat="27.84904" lon="86.743974">
        <ele>3597.2</ele>
        <time>2022-10-29T03:04:18.000Z</time>
      </trkpt>
      <trkpt lat="27.849021" lon="86.743968">
        <ele>3597.2</ele>
        <time>2022-10-29T03:04:20.000Z</time>
      </trkpt>
      <trkpt lat="27.848998" lon="86.743968">
        <ele>3597.6</ele>
        <time>2022-10-29T03:04:23.000Z</time>
      </trkpt>
      <trkpt lat="27.848976" lon="86.743968">
        <ele>3598</ele>
        <time>2022-10-29T03:04:27.000Z</time>
      </trkpt>
      <trkpt lat="27.84896" lon="86.743955">
        <ele>3598.4</ele>
        <time>2022-10-29T03:04:30.000Z</time>
      </trkpt>
      <trkpt lat="27.848944" lon="86.743942">
        <ele>3599</ele>
        <time>2022-10-29T03:04:34.000Z</time>
      </trkpt>
      <trkpt lat="27.848928" lon="86.743917">
        <ele>3599</ele>
        <time>2022-10-29T03:04:37.000Z</time>
      </trkpt>
      <trkpt lat="27.848906" lon="86.74391">
        <ele>3599.6</ele>
        <time>2022-10-29T03:04:41.000Z</time>
      </trkpt>
      <trkpt lat="27.848886" lon="86.743904">
        <ele>3601.4</ele>
        <time>2022-10-29T03:04:52.000Z</time>
      </trkpt>
      <trkpt lat="27.848867" lon="86.743898">
        <ele>3602.8</ele>
        <time>2022-10-29T03:04:59.000Z</time>
      </trkpt>
      <trkpt lat="27.848848" lon="86.743891">
        <ele>3603.2</ele>
        <time>2022-10-29T03:05:05.000Z</time>
      </trkpt>
      <trkpt lat="27.848835" lon="86.743872">
        <ele>3604</ele>
        <time>2022-10-29T03:05:11.000Z</time>
      </trkpt>
      <trkpt lat="27.848819" lon="86.743859">
        <ele>3604.4</ele>
        <time>2022-10-29T03:05:15.000Z</time>
      </trkpt>
      <trkpt lat="27.848806" lon="86.74384">
        <ele>3604.6</ele>
        <time>2022-10-29T03:05:17.000Z</time>
      </trkpt>
      <trkpt lat="27.848781" lon="86.743827">
        <ele>3605.6</ele>
        <time>2022-10-29T03:05:22.000Z</time>
      </trkpt>
      <trkpt lat="27.848765" lon="86.743808">
        <ele>3606</ele>
        <time>2022-10-29T03:05:26.000Z</time>
      </trkpt>
      <trkpt lat="27.848749" lon="86.743789">
        <ele>3606.6</ele>
        <time>2022-10-29T03:05:29.000Z</time>
      </trkpt>
      <trkpt lat="27.848733" lon="86.74377">
        <ele>3606.8</ele>
        <time>2022-10-29T03:05:32.000Z</time>
      </trkpt>
      <trkpt lat="27.84872" lon="86.74375">
        <ele>3606.6</ele>
        <time>2022-10-29T03:05:34.000Z</time>
      </trkpt>
      <trkpt lat="27.848701" lon="86.743731">
        <ele>3606.6</ele>
        <time>2022-10-29T03:05:37.000Z</time>
      </trkpt>
      <trkpt lat="27.848691" lon="86.743712">
        <ele>3606</ele>
        <time>2022-10-29T03:05:39.000Z</time>
      </trkpt>
      <trkpt lat="27.848672" lon="86.743699">
        <ele>3605.2</ele>
        <time>2022-10-29T03:05:42.000Z</time>
      </trkpt>
      <trkpt lat="27.848656" lon="86.74368">
        <ele>3605.2</ele>
        <time>2022-10-29T03:05:44.000Z</time>
      </trkpt>
      <trkpt lat="27.848634" lon="86.743667">
        <ele>3605.2</ele>
        <time>2022-10-29T03:05:47.000Z</time>
      </trkpt>
      <trkpt lat="27.848611" lon="86.743654">
        <ele>3605.2</ele>
        <time>2022-10-29T03:05:50.000Z</time>
      </trkpt>
      <trkpt lat="27.848592" lon="86.743642">
        <ele>3605.6</ele>
        <time>2022-10-29T03:05:52.000Z</time>
      </trkpt>
      <trkpt lat="27.848576" lon="86.743622">
        <ele>3605.2</ele>
        <time>2022-10-29T03:05:54.000Z</time>
      </trkpt>
      <trkpt lat="27.848554" lon="86.74361">
        <ele>3605</ele>
        <time>2022-10-29T03:05:57.000Z</time>
      </trkpt>
      <trkpt lat="27.848534" lon="86.743597">
        <ele>3605</ele>
        <time>2022-10-29T03:05:59.000Z</time>
      </trkpt>
      <trkpt lat="27.848515" lon="86.74359">
        <ele>3604.8</ele>
        <time>2022-10-29T03:06:01.000Z</time>
      </trkpt>
      <trkpt lat="27.848496" lon="86.743597">
        <ele>3604.8</ele>
        <time>2022-10-29T03:06:03.000Z</time>
      </trkpt>
      <trkpt lat="27.848477" lon="86.74359">
        <ele>3604.6</ele>
        <time>2022-10-29T03:06:05.000Z</time>
      </trkpt>
      <trkpt lat="27.848451" lon="86.743584">
        <ele>3604</ele>
        <time>2022-10-29T03:06:08.000Z</time>
      </trkpt>
      <trkpt lat="27.848426" lon="86.743571">
        <ele>3604</ele>
        <time>2022-10-29T03:06:11.000Z</time>
      </trkpt>
      <trkpt lat="27.84841" lon="86.743552">
        <ele>3603.8</ele>
        <time>2022-10-29T03:06:13.000Z</time>
      </trkpt>
      <trkpt lat="27.848394" lon="86.743539">
        <ele>3603.4</ele>
        <time>2022-10-29T03:06:15.000Z</time>
      </trkpt>
      <trkpt lat="27.848374" lon="86.743533">
        <ele>3603</ele>
        <time>2022-10-29T03:06:17.000Z</time>
      </trkpt>
      <trkpt lat="27.848355" lon="86.74352">
        <ele>3603</ele>
        <time>2022-10-29T03:06:19.000Z</time>
      </trkpt>
      <trkpt lat="27.848336" lon="86.743507">
        <ele>3603</ele>
        <time>2022-10-29T03:06:21.000Z</time>
      </trkpt>
      <trkpt lat="27.848314" lon="86.743501">
        <ele>3602.6</ele>
        <time>2022-10-29T03:06:23.000Z</time>
      </trkpt>
      <trkpt lat="27.848301" lon="86.743482">
        <ele>3602.6</ele>
        <time>2022-10-29T03:06:25.000Z</time>
      </trkpt>
      <trkpt lat="27.848278" lon="86.743482">
        <ele>3602.8</ele>
        <time>2022-10-29T03:06:27.000Z</time>
      </trkpt>
      <trkpt lat="27.848259" lon="86.743475">
        <ele>3602.4</ele>
        <time>2022-10-29T03:06:29.000Z</time>
      </trkpt>
      <trkpt lat="27.84823" lon="86.743462">
        <ele>3602.4</ele>
        <time>2022-10-29T03:06:32.000Z</time>
      </trkpt>
      <trkpt lat="27.848221" lon="86.743443">
        <ele>3602.4</ele>
        <time>2022-10-29T03:06:33.000Z</time>
      </trkpt>
      <trkpt lat="27.848208" lon="86.743424">
        <ele>3602.2</ele>
        <time>2022-10-29T03:06:36.000Z</time>
      </trkpt>
      <trkpt lat="27.848195" lon="86.743398">
        <ele>3602.2</ele>
        <time>2022-10-29T03:06:39.000Z</time>
      </trkpt>
      <trkpt lat="27.848176" lon="86.743379">
        <ele>3602.6</ele>
        <time>2022-10-29T03:06:42.000Z</time>
      </trkpt>
      <trkpt lat="27.848163" lon="86.74336">
        <ele>3602.8</ele>
        <time>2022-10-29T03:06:44.000Z</time>
      </trkpt>
      <trkpt lat="27.848144" lon="86.74336">
        <ele>3602.6</ele>
        <time>2022-10-29T03:06:46.000Z</time>
      </trkpt>
      <trkpt lat="27.848118" lon="86.743347">
        <ele>3602.4</ele>
        <time>2022-10-29T03:06:49.000Z</time>
      </trkpt>
      <trkpt lat="27.84809" lon="86.743341">
        <ele>3602.4</ele>
        <time>2022-10-29T03:06:51.000Z</time>
      </trkpt>
      <trkpt lat="27.84807" lon="86.743354">
        <ele>3602.6</ele>
        <time>2022-10-29T03:06:54.000Z</time>
      </trkpt>
      <trkpt lat="27.848051" lon="86.743347">
        <ele>3603</ele>
        <time>2022-10-29T03:06:56.000Z</time>
      </trkpt>
      <trkpt lat="27.848032" lon="86.743341">
        <ele>3603</ele>
        <time>2022-10-29T03:07:07.000Z</time>
      </trkpt>
      <trkpt lat="27.848022" lon="86.743322">
        <ele>3602.8</ele>
        <time>2022-10-29T03:07:10.000Z</time>
      </trkpt>
      <trkpt lat="27.848006" lon="86.743302">
        <ele>3602.8</ele>
        <time>2022-10-29T03:07:14.000Z</time>
      </trkpt>
      <trkpt lat="27.848003" lon="86.74327">
        <ele>3603.6</ele>
        <time>2022-10-29T03:07:17.000Z</time>
      </trkpt>
      <trkpt lat="27.847987" lon="86.743258">
        <ele>3604.8</ele>
        <time>2022-10-29T03:07:22.000Z</time>
      </trkpt>
      <trkpt lat="27.847974" lon="86.743238">
        <ele>3606.2</ele>
        <time>2022-10-29T03:07:30.000Z</time>
      </trkpt>
      <trkpt lat="27.847955" lon="86.743238">
        <ele>3608.8</ele>
        <time>2022-10-29T03:08:23.000Z</time>
      </trkpt>
      <trkpt lat="27.847923" lon="86.743219">
        <ele>3609.6</ele>
        <time>2022-10-29T03:08:25.000Z</time>
      </trkpt>
      <trkpt lat="27.84791" lon="86.7432">
        <ele>3609.6</ele>
        <time>2022-10-29T03:08:26.000Z</time>
      </trkpt>
      <trkpt lat="27.847891" lon="86.743194">
        <ele>3609.6</ele>
        <time>2022-10-29T03:08:27.000Z</time>
      </trkpt>
      <trkpt lat="27.847866" lon="86.743174">
        <ele>3609.6</ele>
        <time>2022-10-29T03:08:29.000Z</time>
      </trkpt>
      <trkpt lat="27.84785" lon="86.743162">
        <ele>3609.6</ele>
        <time>2022-10-29T03:08:30.000Z</time>
      </trkpt>
      <trkpt lat="27.84783" lon="86.743149">
        <ele>3609.6</ele>
        <time>2022-10-29T03:08:31.000Z</time>
      </trkpt>
      <trkpt lat="27.847808" lon="86.743136">
        <ele>3609.6</ele>
        <time>2022-10-29T03:08:33.000Z</time>
      </trkpt>
      <trkpt lat="27.847798" lon="86.743117">
        <ele>3610</ele>
        <time>2022-10-29T03:08:37.000Z</time>
      </trkpt>
      <trkpt lat="27.847776" lon="86.74311">
        <ele>3610</ele>
        <time>2022-10-29T03:08:40.000Z</time>
      </trkpt>
      <trkpt lat="27.847757" lon="86.743104">
        <ele>3610.2</ele>
        <time>2022-10-29T03:08:43.000Z</time>
      </trkpt>
      <trkpt lat="27.847738" lon="86.74311">
        <ele>3610.8</ele>
        <time>2022-10-29T03:08:47.000Z</time>
      </trkpt>
      <trkpt lat="27.847718" lon="86.74311">
        <ele>3611.2</ele>
        <time>2022-10-29T03:08:50.000Z</time>
      </trkpt>
      <trkpt lat="27.847699" lon="86.743117">
        <ele>3611.4</ele>
        <time>2022-10-29T03:08:53.000Z</time>
      </trkpt>
      <trkpt lat="27.84768" lon="86.743117">
        <ele>3611.8</ele>
        <time>2022-10-29T03:08:57.000Z</time>
      </trkpt>
      <trkpt lat="27.847661" lon="86.743117">
        <ele>3612.2</ele>
        <time>2022-10-29T03:09:00.000Z</time>
      </trkpt>
      <trkpt lat="27.847642" lon="86.74311">
        <ele>3613</ele>
        <time>2022-10-29T03:09:03.000Z</time>
      </trkpt>
      <trkpt lat="27.847619" lon="86.743117">
        <ele>3613.2</ele>
        <time>2022-10-29T03:09:07.000Z</time>
      </trkpt>
      <trkpt lat="27.8476" lon="86.74311">
        <ele>3613.4</ele>
        <time>2022-10-29T03:09:10.000Z</time>
      </trkpt>
      <trkpt lat="27.847581" lon="86.743098">
        <ele>3614</ele>
        <time>2022-10-29T03:09:13.000Z</time>
      </trkpt>
      <trkpt lat="27.847568" lon="86.743078">
        <ele>3614</ele>
        <time>2022-10-29T03:09:15.000Z</time>
      </trkpt>
      <trkpt lat="27.847558" lon="86.743059">
        <ele>3614.4</ele>
        <time>2022-10-29T03:09:18.000Z</time>
      </trkpt>
      <trkpt lat="27.847549" lon="86.74304">
        <ele>3614.6</ele>
        <time>2022-10-29T03:09:20.000Z</time>
      </trkpt>
      <trkpt lat="27.847533" lon="86.743027">
        <ele>3615.2</ele>
        <time>2022-10-29T03:09:23.000Z</time>
      </trkpt>
      <trkpt lat="27.847514" lon="86.743014">
        <ele>3615.6</ele>
        <time>2022-10-29T03:09:27.000Z</time>
      </trkpt>
      <trkpt lat="27.847498" lon="86.742995">
        <ele>3615.6</ele>
        <time>2022-10-29T03:09:31.000Z</time>
      </trkpt>
      <trkpt lat="27.847482" lon="86.742982">
        <ele>3616.2</ele>
        <time>2022-10-29T03:09:35.000Z</time>
      </trkpt>
      <trkpt lat="27.847459" lon="86.742963">
        <ele>3616.8</ele>
        <time>2022-10-29T03:09:39.000Z</time>
      </trkpt>
      <trkpt lat="27.84744" lon="86.742963">
        <ele>3617</ele>
        <time>2022-10-29T03:09:41.000Z</time>
      </trkpt>
      <trkpt lat="27.847424" lon="86.74295">
        <ele>3617.4</ele>
        <time>2022-10-29T03:09:44.000Z</time>
      </trkpt>
      <trkpt lat="27.847414" lon="86.742925">
        <ele>3617.6</ele>
        <time>2022-10-29T03:09:48.000Z</time>
      </trkpt>
      <trkpt lat="27.847402" lon="86.742906">
        <ele>3617.8</ele>
        <time>2022-10-29T03:09:51.000Z</time>
      </trkpt>
      <trkpt lat="27.847379" lon="86.742899">
        <ele>3618.2</ele>
        <time>2022-10-29T03:09:54.000Z</time>
      </trkpt>
      <trkpt lat="27.847363" lon="86.74288">
        <ele>3618.6</ele>
        <time>2022-10-29T03:09:56.000Z</time>
      </trkpt>
      <trkpt lat="27.847347" lon="86.742867">
        <ele>3618.6</ele>
        <time>2022-10-29T03:09:59.000Z</time>
      </trkpt>
      <trkpt lat="27.847331" lon="86.742854">
        <ele>3618.8</ele>
        <time>2022-10-29T03:10:02.000Z</time>
      </trkpt>
      <trkpt lat="27.847318" lon="86.742835">
        <ele>3619</ele>
        <time>2022-10-29T03:10:04.000Z</time>
      </trkpt>
      <trkpt lat="27.847302" lon="86.742816">
        <ele>3619.2</ele>
        <time>2022-10-29T03:10:08.000Z</time>
      </trkpt>
      <trkpt lat="27.847299" lon="86.74279">
        <ele>3619.4</ele>
        <time>2022-10-29T03:10:11.000Z</time>
      </trkpt>
      <trkpt lat="27.847293" lon="86.742765">
        <ele>3619.4</ele>
        <time>2022-10-29T03:10:14.000Z</time>
      </trkpt>
      <trkpt lat="27.847293" lon="86.742739">
        <ele>3620</ele>
        <time>2022-10-29T03:10:26.000Z</time>
      </trkpt>
      <trkpt lat="27.84729" lon="86.742714">
        <ele>3620</ele>
        <time>2022-10-29T03:10:29.000Z</time>
      </trkpt>
      <trkpt lat="27.847286" lon="86.742688">
        <ele>3621.2</ele>
        <time>2022-10-29T03:10:35.000Z</time>
      </trkpt>
      <trkpt lat="27.84728" lon="86.742669">
        <ele>3621.6</ele>
        <time>2022-10-29T03:11:27.000Z</time>
      </trkpt>
      <trkpt lat="27.847277" lon="86.742643">
        <ele>3620.6</ele>
        <time>2022-10-29T03:15:53.000Z</time>
      </trkpt>
      <trkpt lat="27.847277" lon="86.742618">
        <ele>3619.8</ele>
        <time>2022-10-29T03:15:55.000Z</time>
      </trkpt>
      <trkpt lat="27.84727" lon="86.742592">
        <ele>3619.6</ele>
        <time>2022-10-29T03:15:58.000Z</time>
      </trkpt>
      <trkpt lat="27.847254" lon="86.742579">
        <ele>3619.4</ele>
        <time>2022-10-29T03:16:01.000Z</time>
      </trkpt>
      <trkpt lat="27.847245" lon="86.74256">
        <ele>3619.4</ele>
        <time>2022-10-29T03:16:07.000Z</time>
      </trkpt>
      <trkpt lat="27.847226" lon="86.742547">
        <ele>3619.2</ele>
        <time>2022-10-29T03:16:16.000Z</time>
      </trkpt>
      <trkpt lat="27.847216" lon="86.742528">
        <ele>3619</ele>
        <time>2022-10-29T03:16:18.000Z</time>
      </trkpt>
      <trkpt lat="27.8472" lon="86.742509">
        <ele>3619.2</ele>
        <time>2022-10-29T03:16:22.000Z</time>
      </trkpt>
      <trkpt lat="27.847181" lon="86.742502">
        <ele>3619</ele>
        <time>2022-10-29T03:16:25.000Z</time>
      </trkpt>
      <trkpt lat="27.847168" lon="86.742483">
        <ele>3618.6</ele>
        <time>2022-10-29T03:16:26.000Z</time>
      </trkpt>
      <trkpt lat="27.847149" lon="86.742477">
        <ele>3619.6</ele>
        <time>2022-10-29T03:16:35.000Z</time>
      </trkpt>
      <trkpt lat="27.84713" lon="86.742483">
        <ele>3622.6</ele>
        <time>2022-10-29T03:16:57.000Z</time>
      </trkpt>
      <trkpt lat="27.84711" lon="86.742477">
        <ele>3624.6</ele>
        <time>2022-10-29T03:17:12.000Z</time>
      </trkpt>
      <trkpt lat="27.847091" lon="86.742483">
        <ele>3625.4</ele>
        <time>2022-10-29T03:17:19.000Z</time>
      </trkpt>
      <trkpt lat="27.847085" lon="86.742502">
        <ele>3625.8</ele>
        <time>2022-10-29T03:17:25.000Z</time>
      </trkpt>
      <trkpt lat="27.847078" lon="86.742522">
        <ele>3626.8</ele>
        <time>2022-10-29T03:17:30.000Z</time>
      </trkpt>
      <trkpt lat="27.847059" lon="86.742528">
        <ele>3626.8</ele>
        <time>2022-10-29T03:17:34.000Z</time>
      </trkpt>
      <trkpt lat="27.84705" lon="86.742509">
        <ele>3627.4</ele>
        <time>2022-10-29T03:17:37.000Z</time>
      </trkpt>
      <trkpt lat="27.847043" lon="86.742483">
        <ele>3627.8</ele>
        <time>2022-10-29T03:17:40.000Z</time>
      </trkpt>
      <trkpt lat="27.847027" lon="86.742464">
        <ele>3628</ele>
        <time>2022-10-29T03:17:43.000Z</time>
      </trkpt>
      <trkpt lat="27.847018" lon="86.742445">
        <ele>3628</ele>
        <time>2022-10-29T03:17:45.000Z</time>
      </trkpt>
      <trkpt lat="27.847011" lon="86.742426">
        <ele>3628.6</ele>
        <time>2022-10-29T03:17:47.000Z</time>
      </trkpt>
      <trkpt lat="27.847005" lon="86.742406">
        <ele>3628.6</ele>
        <time>2022-10-29T03:17:50.000Z</time>
      </trkpt>
      <trkpt lat="27.846986" lon="86.742394">
        <ele>3629.8</ele>
        <time>2022-10-29T03:17:54.000Z</time>
      </trkpt>
      <trkpt lat="27.846973" lon="86.742368">
        <ele>3629.2</ele>
        <time>2022-10-29T03:17:57.000Z</time>
      </trkpt>
      <trkpt lat="27.846966" lon="86.742349">
        <ele>3629.8</ele>
        <time>2022-10-29T03:18:00.000Z</time>
      </trkpt>
      <trkpt lat="27.846947" lon="86.74233">
        <ele>3630.4</ele>
        <time>2022-10-29T03:18:03.000Z</time>
      </trkpt>
      <trkpt lat="27.846928" lon="86.74233">
        <ele>3630.6</ele>
        <time>2022-10-29T03:18:06.000Z</time>
      </trkpt>
      <trkpt lat="27.846912" lon="86.742342">
        <ele>3631</ele>
        <time>2022-10-29T03:18:09.000Z</time>
      </trkpt>
      <trkpt lat="27.846893" lon="86.742342">
        <ele>3631</ele>
        <time>2022-10-29T03:18:11.000Z</time>
      </trkpt>
      <trkpt lat="27.846867" lon="86.742323">
        <ele>3631</ele>
        <time>2022-10-29T03:18:13.000Z</time>
      </trkpt>
      <trkpt lat="27.846858" lon="86.742304">
        <ele>3631.6</ele>
        <time>2022-10-29T03:18:17.000Z</time>
      </trkpt>
      <trkpt lat="27.846838" lon="86.742285">
        <ele>3632.6</ele>
        <time>2022-10-29T03:18:22.000Z</time>
      </trkpt>
      <trkpt lat="27.846816" lon="86.742278">
        <ele>3632.8</ele>
        <time>2022-10-29T03:18:26.000Z</time>
      </trkpt>
      <trkpt lat="27.846794" lon="86.742278">
        <ele>3633.4</ele>
        <time>2022-10-29T03:18:29.000Z</time>
      </trkpt>
      <trkpt lat="27.846778" lon="86.742266">
        <ele>3633.8</ele>
        <time>2022-10-29T03:18:34.000Z</time>
      </trkpt>
      <trkpt lat="27.846755" lon="86.742246">
        <ele>3634.8</ele>
        <time>2022-10-29T03:18:38.000Z</time>
      </trkpt>
      <trkpt lat="27.846736" lon="86.74224">
        <ele>3634.8</ele>
        <time>2022-10-29T03:18:42.000Z</time>
      </trkpt>
      <trkpt lat="27.84672" lon="86.742227">
        <ele>3635</ele>
        <time>2022-10-29T03:18:46.000Z</time>
      </trkpt>
      <trkpt lat="27.846704" lon="86.742208">
        <ele>3635.4</ele>
        <time>2022-10-29T03:18:50.000Z</time>
      </trkpt>
      <trkpt lat="27.846688" lon="86.742195">
        <ele>3635.8</ele>
        <time>2022-10-29T03:18:54.000Z</time>
      </trkpt>
      <trkpt lat="27.846669" lon="86.742189">
        <ele>3636</ele>
        <time>2022-10-29T03:19:00.000Z</time>
      </trkpt>
      <trkpt lat="27.846662" lon="86.74217">
        <ele>3636.6</ele>
        <time>2022-10-29T03:19:06.000Z</time>
      </trkpt>
      <trkpt lat="27.846653" lon="86.742125">
        <ele>3639.2</ele>
        <time>2022-10-29T03:20:49.000Z</time>
      </trkpt>
      <trkpt lat="27.846634" lon="86.742093">
        <ele>3640</ele>
        <time>2022-10-29T03:20:52.000Z</time>
      </trkpt>
      <trkpt lat="27.846618" lon="86.742074">
        <ele>3639.8</ele>
        <time>2022-10-29T03:20:54.000Z</time>
      </trkpt>
      <trkpt lat="27.846598" lon="86.742061">
        <ele>3639.8</ele>
        <time>2022-10-29T03:20:56.000Z</time>
      </trkpt>
      <trkpt lat="27.846592" lon="86.742042">
        <ele>3640.2</ele>
        <time>2022-10-29T03:20:57.000Z</time>
      </trkpt>
      <trkpt lat="27.846579" lon="86.742022">
        <ele>3640.4</ele>
        <time>2022-10-29T03:21:00.000Z</time>
      </trkpt>
      <trkpt lat="27.84656" lon="86.74201">
        <ele>3641.4</ele>
        <time>2022-10-29T03:21:04.000Z</time>
      </trkpt>
      <trkpt lat="27.846541" lon="86.74199">
        <ele>3641.8</ele>
        <time>2022-10-29T03:21:08.000Z</time>
      </trkpt>
      <trkpt lat="27.846531" lon="86.741971">
        <ele>3642</ele>
        <time>2022-10-29T03:21:11.000Z</time>
      </trkpt>
      <trkpt lat="27.846509" lon="86.741952">
        <ele>3643.6</ele>
        <time>2022-10-29T03:22:01.000Z</time>
      </trkpt>
      <trkpt lat="27.846496" lon="86.741926">
        <ele>3644</ele>
        <time>2022-10-29T03:22:03.000Z</time>
      </trkpt>
      <trkpt lat="27.846477" lon="86.741907">
        <ele>3644.8</ele>
        <time>2022-10-29T03:22:05.000Z</time>
      </trkpt>
      <trkpt lat="27.846458" lon="86.741888">
        <ele>3645</ele>
        <time>2022-10-29T03:22:07.000Z</time>
      </trkpt>
      <trkpt lat="27.846438" lon="86.741869">
        <ele>3645.8</ele>
        <time>2022-10-29T03:22:09.000Z</time>
      </trkpt>
      <trkpt lat="27.846419" lon="86.74185">
        <ele>3645.8</ele>
        <time>2022-10-29T03:22:11.000Z</time>
      </trkpt>
      <trkpt lat="27.846397" lon="86.741843">
        <ele>3645.2</ele>
        <time>2022-10-29T03:22:14.000Z</time>
      </trkpt>
      <trkpt lat="27.84639" lon="86.741824">
        <ele>3645.2</ele>
        <time>2022-10-29T03:22:16.000Z</time>
      </trkpt>
      <trkpt lat="27.846371" lon="86.741805">
        <ele>3645.8</ele>
        <time>2022-10-29T03:22:19.000Z</time>
      </trkpt>
      <trkpt lat="27.846355" lon="86.741792">
        <ele>3646</ele>
        <time>2022-10-29T03:22:22.000Z</time>
      </trkpt>
      <trkpt lat="27.846346" lon="86.741773">
        <ele>3647</ele>
        <time>2022-10-29T03:22:24.000Z</time>
      </trkpt>
      <trkpt lat="27.846326" lon="86.74176">
        <ele>3647</ele>
        <time>2022-10-29T03:22:27.000Z</time>
      </trkpt>
      <trkpt lat="27.84631" lon="86.741747">
        <ele>3646.6</ele>
        <time>2022-10-29T03:22:29.000Z</time>
      </trkpt>
      <trkpt lat="27.846291" lon="86.741728">
        <ele>3647</ele>
        <time>2022-10-29T03:22:32.000Z</time>
      </trkpt>
      <trkpt lat="27.846272" lon="86.741722">
        <ele>3647.2</ele>
        <time>2022-10-29T03:22:35.000Z</time>
      </trkpt>
      <trkpt lat="27.846256" lon="86.741709">
        <ele>3647.6</ele>
        <time>2022-10-29T03:22:38.000Z</time>
      </trkpt>
      <trkpt lat="27.846246" lon="86.74169">
        <ele>3648.2</ele>
        <time>2022-10-29T03:22:40.000Z</time>
      </trkpt>
      <trkpt lat="27.846227" lon="86.741683">
        <ele>3648.4</ele>
        <time>2022-10-29T03:22:43.000Z</time>
      </trkpt>
      <trkpt lat="27.846211" lon="86.741664">
        <ele>3649.2</ele>
        <time>2022-10-29T03:23:09.000Z</time>
      </trkpt>
      <trkpt lat="27.846189" lon="86.741638">
        <ele>3649.2</ele>
        <time>2022-10-29T03:23:11.000Z</time>
      </trkpt>
      <trkpt lat="27.846173" lon="86.741626">
        <ele>3649.2</ele>
        <time>2022-10-29T03:23:12.000Z</time>
      </trkpt>
      <trkpt lat="27.846147" lon="86.7416">
        <ele>3649.4</ele>
        <time>2022-10-29T03:23:14.000Z</time>
      </trkpt>
      <trkpt lat="27.846125" lon="86.741574">
        <ele>3649.8</ele>
        <time>2022-10-29T03:23:16.000Z</time>
      </trkpt>
      <trkpt lat="27.846109" lon="86.741562">
        <ele>3650.2</ele>
        <time>2022-10-29T03:23:18.000Z</time>
      </trkpt>
      <trkpt lat="27.846093" lon="86.741549">
        <ele>3650.8</ele>
        <time>2022-10-29T03:23:21.000Z</time>
      </trkpt>
      <trkpt lat="27.846074" lon="86.741536">
        <ele>3651</ele>
        <time>2022-10-29T03:23:24.000Z</time>
      </trkpt>
      <trkpt lat="27.846058" lon="86.741523">
        <ele>3651.6</ele>
        <time>2022-10-29T03:23:27.000Z</time>
      </trkpt>
      <trkpt lat="27.846035" lon="86.741517">
        <ele>3651.8</ele>
        <time>2022-10-29T03:23:30.000Z</time>
      </trkpt>
      <trkpt lat="27.846016" lon="86.741491">
        <ele>3652</ele>
        <time>2022-10-29T03:23:33.000Z</time>
      </trkpt>
      <trkpt lat="27.845994" lon="86.741478">
        <ele>3652.8</ele>
        <time>2022-10-29T03:23:36.000Z</time>
      </trkpt>
      <trkpt lat="27.845971" lon="86.741466">
        <ele>3652.2</ele>
        <time>2022-10-29T03:23:39.000Z</time>
      </trkpt>
      <trkpt lat="27.845958" lon="86.741446">
        <ele>3652.2</ele>
        <time>2022-10-29T03:23:41.000Z</time>
      </trkpt>
      <trkpt lat="27.845936" lon="86.741434">
        <ele>3652.8</ele>
        <time>2022-10-29T03:23:44.000Z</time>
      </trkpt>
      <trkpt lat="27.845914" lon="86.741427">
        <ele>3653</ele>
        <time>2022-10-29T03:23:47.000Z</time>
      </trkpt>
      <trkpt lat="27.845898" lon="86.741414">
        <ele>3653</ele>
        <time>2022-10-29T03:23:49.000Z</time>
      </trkpt>
      <trkpt lat="27.845882" lon="86.741395">
        <ele>3653.4</ele>
        <time>2022-10-29T03:23:52.000Z</time>
      </trkpt>
      <trkpt lat="27.845862" lon="86.741376">
        <ele>3654.2</ele>
        <time>2022-10-29T03:24:06.000Z</time>
      </trkpt>
      <trkpt lat="27.845846" lon="86.741357">
        <ele>3654.4</ele>
        <time>2022-10-29T03:24:10.000Z</time>
      </trkpt>
      <trkpt lat="27.84583" lon="86.741338">
        <ele>3655.4</ele>
        <time>2022-10-29T03:24:14.000Z</time>
      </trkpt>
      <trkpt lat="27.845814" lon="86.741325">
        <ele>3656</ele>
        <time>2022-10-29T03:24:21.000Z</time>
      </trkpt>
      <trkpt lat="27.845798" lon="86.741312">
        <ele>3657.4</ele>
        <time>2022-10-29T03:24:48.000Z</time>
      </trkpt>
      <trkpt lat="27.845792" lon="86.741293">
        <ele>3657.6</ele>
        <time>2022-10-29T03:24:49.000Z</time>
      </trkpt>
      <trkpt lat="27.845773" lon="86.74128">
        <ele>3657.8</ele>
        <time>2022-10-29T03:24:51.000Z</time>
      </trkpt>
      <trkpt lat="27.845754" lon="86.741254">
        <ele>3657.8</ele>
        <time>2022-10-29T03:24:53.000Z</time>
      </trkpt>
      <trkpt lat="27.845738" lon="86.741235">
        <ele>3658.4</ele>
        <time>2022-10-29T03:24:55.000Z</time>
      </trkpt>
      <trkpt lat="27.845725" lon="86.741216">
        <ele>3658.6</ele>
        <time>2022-10-29T03:24:57.000Z</time>
      </trkpt>
      <trkpt lat="27.845718" lon="86.741197">
        <ele>3659.6</ele>
        <time>2022-10-29T03:25:02.000Z</time>
      </trkpt>
      <trkpt lat="27.845712" lon="86.741178">
        <ele>3660</ele>
        <time>2022-10-29T03:25:04.000Z</time>
      </trkpt>
      <trkpt lat="27.845693" lon="86.741158">
        <ele>3660.6</ele>
        <time>2022-10-29T03:25:09.000Z</time>
      </trkpt>
      <trkpt lat="27.845683" lon="86.741139">
        <ele>3661.2</ele>
        <time>2022-10-29T03:25:12.000Z</time>
      </trkpt>
      <trkpt lat="27.845664" lon="86.741133">
        <ele>3661.8</ele>
        <time>2022-10-29T03:25:16.000Z</time>
      </trkpt>
      <trkpt lat="27.845645" lon="86.741126">
        <ele>3662.4</ele>
        <time>2022-10-29T03:25:20.000Z</time>
      </trkpt>
      <trkpt lat="27.845626" lon="86.741114">
        <ele>3663</ele>
        <time>2022-10-29T03:25:23.000Z</time>
      </trkpt>
      <trkpt lat="27.845606" lon="86.741107">
        <ele>3663.4</ele>
        <time>2022-10-29T03:25:26.000Z</time>
      </trkpt>
      <trkpt lat="27.845587" lon="86.741088">
        <ele>3663.8</ele>
        <time>2022-10-29T03:25:29.000Z</time>
      </trkpt>
      <trkpt lat="27.845565" lon="86.741075">
        <ele>3663.8</ele>
        <time>2022-10-29T03:25:32.000Z</time>
      </trkpt>
      <trkpt lat="27.845542" lon="86.741069">
        <ele>3664.4</ele>
        <time>2022-10-29T03:25:35.000Z</time>
      </trkpt>
      <trkpt lat="27.84552" lon="86.741069">
        <ele>3664.8</ele>
        <time>2022-10-29T03:25:38.000Z</time>
      </trkpt>
      <trkpt lat="27.845501" lon="86.741056">
        <ele>3665</ele>
        <time>2022-10-29T03:25:40.000Z</time>
      </trkpt>
      <trkpt lat="27.845478" lon="86.741056">
        <ele>3665</ele>
        <time>2022-10-29T03:25:43.000Z</time>
      </trkpt>
      <trkpt lat="27.845453" lon="86.74105">
        <ele>3664.8</ele>
        <time>2022-10-29T03:25:46.000Z</time>
      </trkpt>
      <trkpt lat="27.845434" lon="86.741043">
        <ele>3664.2</ele>
        <time>2022-10-29T03:25:48.000Z</time>
      </trkpt>
      <trkpt lat="27.845408" lon="86.741037">
        <ele>3663.8</ele>
        <time>2022-10-29T03:25:51.000Z</time>
      </trkpt>
      <trkpt lat="27.845389" lon="86.741037">
        <ele>3664.2</ele>
        <time>2022-10-29T03:25:53.000Z</time>
      </trkpt>
      <trkpt lat="27.84536" lon="86.741037">
        <ele>3664.6</ele>
        <time>2022-10-29T03:25:56.000Z</time>
      </trkpt>
      <trkpt lat="27.845341" lon="86.741037">
        <ele>3664.6</ele>
        <time>2022-10-29T03:25:58.000Z</time>
      </trkpt>
      <trkpt lat="27.845318" lon="86.74103">
        <ele>3664.8</ele>
        <time>2022-10-29T03:26:01.000Z</time>
      </trkpt>
      <trkpt lat="27.845296" lon="86.74103">
        <ele>3664.8</ele>
        <time>2022-10-29T03:26:05.000Z</time>
      </trkpt>
      <trkpt lat="27.845277" lon="86.741037">
        <ele>3665.8</ele>
        <time>2022-10-29T03:26:09.000Z</time>
      </trkpt>
      <trkpt lat="27.845254" lon="86.741037">
        <ele>3666</ele>
        <time>2022-10-29T03:26:12.000Z</time>
      </trkpt>
      <trkpt lat="27.845235" lon="86.74103">
        <ele>3667</ele>
        <time>2022-10-29T03:26:17.000Z</time>
      </trkpt>
      <trkpt lat="27.845229" lon="86.741011">
        <ele>3667.4</ele>
        <time>2022-10-29T03:26:20.000Z</time>
      </trkpt>
      <trkpt lat="27.84521" lon="86.741005">
        <ele>3668</ele>
        <time>2022-10-29T03:26:23.000Z</time>
      </trkpt>
      <trkpt lat="27.84519" lon="86.741005">
        <ele>3668.4</ele>
        <time>2022-10-29T03:26:31.000Z</time>
      </trkpt>
      <trkpt lat="27.84521" lon="86.741011">
        <ele>3668.4</ele>
        <time>2022-10-29T03:26:43.000Z</time>
      </trkpt>
      <trkpt lat="27.845181" lon="86.741011">
        <ele>3668.6</ele>
        <time>2022-10-29T03:27:21.000Z</time>
      </trkpt>
      <trkpt lat="27.845152" lon="86.741011">
        <ele>3669.8</ele>
        <time>2022-10-29T03:27:23.000Z</time>
      </trkpt>
      <trkpt lat="27.845126" lon="86.741005">
        <ele>3669.8</ele>
        <time>2022-10-29T03:27:25.000Z</time>
      </trkpt>
      <trkpt lat="27.845101" lon="86.740998">
        <ele>3670.2</ele>
        <time>2022-10-29T03:27:27.000Z</time>
      </trkpt>
      <trkpt lat="27.845072" lon="86.740992">
        <ele>3670.4</ele>
        <time>2022-10-29T03:27:29.000Z</time>
      </trkpt>
      <trkpt lat="27.845056" lon="86.740979">
        <ele>3670.4</ele>
        <time>2022-10-29T03:27:32.000Z</time>
      </trkpt>
      <trkpt lat="27.845043" lon="86.74096">
        <ele>3671</ele>
        <time>2022-10-29T03:27:36.000Z</time>
      </trkpt>
      <trkpt lat="27.84503" lon="86.740941">
        <ele>3671.6</ele>
        <time>2022-10-29T03:27:41.000Z</time>
      </trkpt>
      <trkpt lat="27.845011" lon="86.740928">
        <ele>3672.2</ele>
        <time>2022-10-29T03:27:44.000Z</time>
      </trkpt>
      <trkpt lat="27.844992" lon="86.740909">
        <ele>3672.6</ele>
        <time>2022-10-29T03:27:54.000Z</time>
      </trkpt>
      <trkpt lat="27.844966" lon="86.740915">
        <ele>3672.8</ele>
        <time>2022-10-29T03:27:56.000Z</time>
      </trkpt>
      <trkpt lat="27.844941" lon="86.740915">
        <ele>3673.4</ele>
        <time>2022-10-29T03:27:59.000Z</time>
      </trkpt>
      <trkpt lat="27.844922" lon="86.740915">
        <ele>3673.4</ele>
        <time>2022-10-29T03:28:02.000Z</time>
      </trkpt>
      <trkpt lat="27.844902" lon="86.740915">
        <ele>3674</ele>
        <time>2022-10-29T03:28:06.000Z</time>
      </trkpt>
      <trkpt lat="27.844893" lon="86.740896">
        <ele>3675</ele>
        <time>2022-10-29T03:28:09.000Z</time>
      </trkpt>
      <trkpt lat="27.84487" lon="86.74089">
        <ele>3675.8</ele>
        <time>2022-10-29T03:28:17.000Z</time>
      </trkpt>
      <trkpt lat="27.844861" lon="86.74087">
        <ele>3677</ele>
        <time>2022-10-29T03:28:23.000Z</time>
      </trkpt>
      <trkpt lat="27.844845" lon="86.740858">
        <ele>3677.8</ele>
        <time>2022-10-29T03:28:29.000Z</time>
      </trkpt>
      <trkpt lat="27.844826" lon="86.740845">
        <ele>3680.4</ele>
        <time>2022-10-29T03:28:47.000Z</time>
      </trkpt>
      <trkpt lat="27.844806" lon="86.740838">
        <ele>3680.6</ele>
        <time>2022-10-29T03:28:49.000Z</time>
      </trkpt>
      <trkpt lat="27.844797" lon="86.740819">
        <ele>3681.2</ele>
        <time>2022-10-29T03:28:51.000Z</time>
      </trkpt>
      <trkpt lat="27.844771" lon="86.740806">
        <ele>3681</ele>
        <time>2022-10-29T03:28:56.000Z</time>
      </trkpt>
      <trkpt lat="27.844634" lon="86.74073">
        <ele>3691.6</ele>
        <time>2022-10-29T03:30:11.000Z</time>
      </trkpt>
      <trkpt lat="27.844618" lon="86.740717">
        <ele>3691.8</ele>
        <time>2022-10-29T03:30:13.000Z</time>
      </trkpt>
      <trkpt lat="27.844602" lon="86.740698">
        <ele>3691.6</ele>
        <time>2022-10-29T03:30:15.000Z</time>
      </trkpt>
      <trkpt lat="27.844582" lon="86.740678">
        <ele>3692.2</ele>
        <time>2022-10-29T03:30:17.000Z</time>
      </trkpt>
      <trkpt lat="27.84457" lon="86.740659">
        <ele>3692.4</ele>
        <time>2022-10-29T03:30:19.000Z</time>
      </trkpt>
      <trkpt lat="27.844554" lon="86.740646">
        <ele>3692.6</ele>
        <time>2022-10-29T03:30:21.000Z</time>
      </trkpt>
      <trkpt lat="27.844534" lon="86.740621">
        <ele>3693.2</ele>
        <time>2022-10-29T03:30:26.000Z</time>
      </trkpt>
      <trkpt lat="27.844518" lon="86.740602">
        <ele>3693.4</ele>
        <time>2022-10-29T03:30:30.000Z</time>
      </trkpt>
      <trkpt lat="27.844499" lon="86.740595">
        <ele>3693.6</ele>
        <time>2022-10-29T03:30:33.000Z</time>
      </trkpt>
      <trkpt lat="27.844483" lon="86.740576">
        <ele>3692.8</ele>
        <time>2022-10-29T03:30:57.000Z</time>
      </trkpt>
      <trkpt lat="27.844454" lon="86.740557">
        <ele>3694.8</ele>
        <time>2022-10-29T03:31:18.000Z</time>
      </trkpt>
      <trkpt lat="27.844435" lon="86.740538">
        <ele>3695.8</ele>
        <time>2022-10-29T03:31:20.000Z</time>
      </trkpt>
      <trkpt lat="27.844422" lon="86.740518">
        <ele>3696</ele>
        <time>2022-10-29T03:31:22.000Z</time>
      </trkpt>
      <trkpt lat="27.84441" lon="86.740499">
        <ele>3696</ele>
        <time>2022-10-29T03:31:24.000Z</time>
      </trkpt>
      <trkpt lat="27.84439" lon="86.74048">
        <ele>3696.6</ele>
        <time>2022-10-29T03:31:27.000Z</time>
      </trkpt>
      <trkpt lat="27.844371" lon="86.74048">
        <ele>3697</ele>
        <time>2022-10-29T03:31:33.000Z</time>
      </trkpt>
      <trkpt lat="27.844365" lon="86.740461">
        <ele>3697.8</ele>
        <time>2022-10-29T03:31:36.000Z</time>
      </trkpt>
      <trkpt lat="27.844355" lon="86.740442">
        <ele>3698.6</ele>
        <time>2022-10-29T03:31:40.000Z</time>
      </trkpt>
      <trkpt lat="27.844346" lon="86.740422">
        <ele>3699</ele>
        <time>2022-10-29T03:31:45.000Z</time>
      </trkpt>
      <trkpt lat="27.844326" lon="86.740422">
        <ele>3699.6</ele>
        <time>2022-10-29T03:31:51.000Z</time>
      </trkpt>
      <trkpt lat="27.84431" lon="86.74041">
        <ele>3700.8</ele>
        <time>2022-10-29T03:31:58.000Z</time>
      </trkpt>
      <trkpt lat="27.844298" lon="86.740378">
        <ele>3705</ele>
        <time>2022-10-29T03:32:39.000Z</time>
      </trkpt>
      <trkpt lat="27.844282" lon="86.740365">
        <ele>3705</ele>
        <time>2022-10-29T03:32:41.000Z</time>
      </trkpt>
      <trkpt lat="27.844266" lon="86.740352">
        <ele>3705.2</ele>
        <time>2022-10-29T03:32:43.000Z</time>
      </trkpt>
      <trkpt lat="27.84425" lon="86.740339">
        <ele>3705.6</ele>
        <time>2022-10-29T03:32:45.000Z</time>
      </trkpt>
      <trkpt lat="27.84423" lon="86.740333">
        <ele>3705.6</ele>
        <time>2022-10-29T03:32:47.000Z</time>
      </trkpt>
      <trkpt lat="27.844214" lon="86.74032">
        <ele>3706</ele>
        <time>2022-10-29T03:32:51.000Z</time>
      </trkpt>
      <trkpt lat="27.844208" lon="86.740301">
        <ele>3706.2</ele>
        <time>2022-10-29T03:32:54.000Z</time>
      </trkpt>
      <trkpt lat="27.844202" lon="86.740282">
        <ele>3707.8</ele>
        <time>2022-10-29T03:32:59.000Z</time>
      </trkpt>
      <trkpt lat="27.844192" lon="86.740262">
        <ele>3708.4</ele>
        <time>2022-10-29T03:33:03.000Z</time>
      </trkpt>
      <trkpt lat="27.844173" lon="86.740256">
        <ele>3709.2</ele>
        <time>2022-10-29T03:33:08.000Z</time>
      </trkpt>
      <trkpt lat="27.844157" lon="86.740243">
        <ele>3709.8</ele>
        <time>2022-10-29T03:33:18.000Z</time>
      </trkpt>
      <trkpt lat="27.844144" lon="86.740224">
        <ele>3710.8</ele>
        <time>2022-10-29T03:33:24.000Z</time>
      </trkpt>
      <trkpt lat="27.844125" lon="86.740224">
        <ele>3712.2</ele>
        <time>2022-10-29T03:33:31.000Z</time>
      </trkpt>
      <trkpt lat="27.844109" lon="86.740211">
        <ele>3713</ele>
        <time>2022-10-29T03:33:35.000Z</time>
      </trkpt>
      <trkpt lat="27.844086" lon="86.740198">
        <ele>3712.8</ele>
        <time>2022-10-29T03:33:40.000Z</time>
      </trkpt>
      <trkpt lat="27.844074" lon="86.740179">
        <ele>3713.6</ele>
        <time>2022-10-29T03:33:45.000Z</time>
      </trkpt>
      <trkpt lat="27.844054" lon="86.740173">
        <ele>3714.6</ele>
        <time>2022-10-29T03:33:49.000Z</time>
      </trkpt>
      <trkpt lat="27.844038" lon="86.74016">
        <ele>3715.6</ele>
        <time>2022-10-29T03:33:55.000Z</time>
      </trkpt>
      <trkpt lat="27.844019" lon="86.740166">
        <ele>3716.2</ele>
        <time>2022-10-29T03:34:01.000Z</time>
      </trkpt>
      <trkpt lat="27.844003" lon="86.740154">
        <ele>3717</ele>
        <time>2022-10-29T03:34:04.000Z</time>
      </trkpt>
      <trkpt lat="27.843994" lon="86.740134">
        <ele>3717</ele>
        <time>2022-10-29T03:34:06.000Z</time>
      </trkpt>
      <trkpt lat="27.843978" lon="86.740122">
        <ele>3717.2</ele>
        <time>2022-10-29T03:34:10.000Z</time>
      </trkpt>
      <trkpt lat="27.843958" lon="86.740115">
        <ele>3717.4</ele>
        <time>2022-10-29T03:34:13.000Z</time>
      </trkpt>
      <trkpt lat="27.843946" lon="86.740096">
        <ele>3718</ele>
        <time>2022-10-29T03:34:17.000Z</time>
      </trkpt>
      <trkpt lat="27.843926" lon="86.74009">
        <ele>3718.4</ele>
        <time>2022-10-29T03:34:21.000Z</time>
      </trkpt>
      <trkpt lat="27.843914" lon="86.740064">
        <ele>3718.8</ele>
        <time>2022-10-29T03:34:26.000Z</time>
      </trkpt>
      <trkpt lat="27.843894" lon="86.740077">
        <ele>3719.6</ele>
        <time>2022-10-29T03:34:31.000Z</time>
      </trkpt>
      <trkpt lat="27.843869" lon="86.740077">
        <ele>3719.8</ele>
        <time>2022-10-29T03:34:35.000Z</time>
      </trkpt>
      <trkpt lat="27.843846" lon="86.740077">
        <ele>3719.8</ele>
        <time>2022-10-29T03:34:38.000Z</time>
      </trkpt>
      <trkpt lat="27.843827" lon="86.740064">
        <ele>3720</ele>
        <time>2022-10-29T03:34:40.000Z</time>
      </trkpt>
      <trkpt lat="27.843808" lon="86.740051">
        <ele>3720.2</ele>
        <time>2022-10-29T03:34:43.000Z</time>
      </trkpt>
      <trkpt lat="27.843786" lon="86.740051">
        <ele>3721</ele>
        <time>2022-10-29T03:34:48.000Z</time>
      </trkpt>
      <trkpt lat="27.84377" lon="86.740038">
        <ele>3721.2</ele>
        <time>2022-10-29T03:34:51.000Z</time>
      </trkpt>
      <trkpt lat="27.84376" lon="86.740013">
        <ele>3721.8</ele>
        <time>2022-10-29T03:34:54.000Z</time>
      </trkpt>
      <trkpt lat="27.843757" lon="86.739987">
        <ele>3722.6</ele>
        <time>2022-10-29T03:34:58.000Z</time>
      </trkpt>
      <trkpt lat="27.843734" lon="86.739981">
        <ele>3723.2</ele>
        <time>2022-10-29T03:35:02.000Z</time>
      </trkpt>
      <trkpt lat="27.843718" lon="86.739968">
        <ele>3724</ele>
        <time>2022-10-29T03:35:07.000Z</time>
      </trkpt>
      <trkpt lat="27.843702" lon="86.739955">
        <ele>3724.4</ele>
        <time>2022-10-29T03:35:11.000Z</time>
      </trkpt>
      <trkpt lat="27.843686" lon="86.739942">
        <ele>3724.6</ele>
        <time>2022-10-29T03:35:13.000Z</time>
      </trkpt>
      <trkpt lat="27.84367" lon="86.73993">
        <ele>3725.6</ele>
        <time>2022-10-29T03:35:20.000Z</time>
      </trkpt>
      <trkpt lat="27.843654" lon="86.739917">
        <ele>3726.8</ele>
        <time>2022-10-29T03:35:29.000Z</time>
      </trkpt>
      <trkpt lat="27.843638" lon="86.739904">
        <ele>3726.8</ele>
        <time>2022-10-29T03:35:33.000Z</time>
      </trkpt>
      <trkpt lat="27.843619" lon="86.739891">
        <ele>3727.4</ele>
        <time>2022-10-29T03:35:37.000Z</time>
      </trkpt>
      <trkpt lat="27.843597" lon="86.739885">
        <ele>3727.8</ele>
        <time>2022-10-29T03:35:41.000Z</time>
      </trkpt>
      <trkpt lat="27.843578" lon="86.739866">
        <ele>3728.6</ele>
        <time>2022-10-29T03:35:47.000Z</time>
      </trkpt>
      <trkpt lat="27.843558" lon="86.739866">
        <ele>3729.8</ele>
        <time>2022-10-29T03:35:52.000Z</time>
      </trkpt>
      <trkpt lat="27.843539" lon="86.739853">
        <ele>3730.2</ele>
        <time>2022-10-29T03:35:56.000Z</time>
      </trkpt>
      <trkpt lat="27.843526" lon="86.739827">
        <ele>3730.8</ele>
        <time>2022-10-29T03:36:00.000Z</time>
      </trkpt>
      <trkpt lat="27.84352" lon="86.739808">
        <ele>3732</ele>
        <time>2022-10-29T03:36:04.000Z</time>
      </trkpt>
      <trkpt lat="27.843501" lon="86.739802">
        <ele>3732</ele>
        <time>2022-10-29T03:36:10.000Z</time>
      </trkpt>
      <trkpt lat="27.843494" lon="86.739782">
        <ele>3732.8</ele>
        <time>2022-10-29T03:36:13.000Z</time>
      </trkpt>
      <trkpt lat="27.843478" lon="86.73977">
        <ele>3733.4</ele>
        <time>2022-10-29T03:36:20.000Z</time>
      </trkpt>
      <trkpt lat="27.843459" lon="86.739757">
        <ele>3734</ele>
        <time>2022-10-29T03:36:24.000Z</time>
      </trkpt>
      <trkpt lat="27.843453" lon="86.739738">
        <ele>3734</ele>
        <time>2022-10-29T03:36:26.000Z</time>
      </trkpt>
      <trkpt lat="27.843437" lon="86.739725">
        <ele>3734</ele>
        <time>2022-10-29T03:36:29.000Z</time>
      </trkpt>
      <trkpt lat="27.843414" lon="86.739718">
        <ele>3735</ele>
        <time>2022-10-29T03:36:33.000Z</time>
      </trkpt>
      <trkpt lat="27.843398" lon="86.739699">
        <ele>3735</ele>
        <time>2022-10-29T03:36:37.000Z</time>
      </trkpt>
      <trkpt lat="27.843382" lon="86.739686">
        <ele>3735.6</ele>
        <time>2022-10-29T03:36:41.000Z</time>
      </trkpt>
      <trkpt lat="27.843366" lon="86.739667">
        <ele>3736</ele>
        <time>2022-10-29T03:36:44.000Z</time>
      </trkpt>
      <trkpt lat="27.843354" lon="86.739648">
        <ele>3736.4</ele>
        <time>2022-10-29T03:36:48.000Z</time>
      </trkpt>
      <trkpt lat="27.843331" lon="86.739642">
        <ele>3737</ele>
        <time>2022-10-29T03:36:52.000Z</time>
      </trkpt>
      <trkpt lat="27.843322" lon="86.739622">
        <ele>3737.4</ele>
        <time>2022-10-29T03:36:54.000Z</time>
      </trkpt>
      <trkpt lat="27.843302" lon="86.739603">
        <ele>3737.6</ele>
        <time>2022-10-29T03:36:59.000Z</time>
      </trkpt>
      <trkpt lat="27.843325" lon="86.73961">
        <ele>3742.6</ele>
        <time>2022-10-29T03:43:18.000Z</time>
      </trkpt>
      <trkpt lat="27.843344" lon="86.739603">
        <ele>3742.2</ele>
        <time>2022-10-29T03:43:22.000Z</time>
      </trkpt>
      <trkpt lat="27.84336" lon="86.73959">
        <ele>3742.2</ele>
        <time>2022-10-29T03:43:26.000Z</time>
      </trkpt>
      <trkpt lat="27.843379" lon="86.739584">
        <ele>3743</ele>
        <time>2022-10-29T03:43:30.000Z</time>
      </trkpt>
      <trkpt lat="27.843398" lon="86.739578">
        <ele>3743.4</ele>
        <time>2022-10-29T03:43:33.000Z</time>
      </trkpt>
      <trkpt lat="27.843389" lon="86.739558">
        <ele>3744.4</ele>
        <time>2022-10-29T03:43:42.000Z</time>
      </trkpt>
      <trkpt lat="27.843373" lon="86.739546">
        <ele>3745.6</ele>
        <time>2022-10-29T03:43:49.000Z</time>
      </trkpt>
      <trkpt lat="27.84336" lon="86.739526">
        <ele>3746</ele>
        <time>2022-10-29T03:43:56.000Z</time>
      </trkpt>
      <trkpt lat="27.843354" lon="86.739507">
        <ele>3746.2</ele>
        <time>2022-10-29T03:44:09.000Z</time>
      </trkpt>
      <trkpt lat="27.843347" lon="86.739482">
        <ele>3749.6</ele>
        <time>2022-10-29T03:44:47.000Z</time>
      </trkpt>
      <trkpt lat="27.843328" lon="86.739462">
        <ele>3749.8</ele>
        <time>2022-10-29T03:44:49.000Z</time>
      </trkpt>
      <trkpt lat="27.843309" lon="86.73945">
        <ele>3750.2</ele>
        <time>2022-10-29T03:44:51.000Z</time>
      </trkpt>
      <trkpt lat="27.843293" lon="86.73943">
        <ele>3750.6</ele>
        <time>2022-10-29T03:44:53.000Z</time>
      </trkpt>
      <trkpt lat="27.843274" lon="86.739424">
        <ele>3750.8</ele>
        <time>2022-10-29T03:44:56.000Z</time>
      </trkpt>
      <trkpt lat="27.843232" lon="86.739424">
        <ele>3752.4</ele>
        <time>2022-10-29T03:45:03.000Z</time>
      </trkpt>
      <trkpt lat="27.843203" lon="86.739411">
        <ele>3752.4</ele>
        <time>2022-10-29T03:45:06.000Z</time>
      </trkpt>
      <trkpt lat="27.843181" lon="86.739418">
        <ele>3752.4</ele>
        <time>2022-10-29T03:45:08.000Z</time>
      </trkpt>
      <trkpt lat="27.843162" lon="86.739411">
        <ele>3752.6</ele>
        <time>2022-10-29T03:45:10.000Z</time>
      </trkpt>
      <trkpt lat="27.843114" lon="86.739405">
        <ele>3753.6</ele>
        <time>2022-10-29T03:45:17.000Z</time>
      </trkpt>
      <trkpt lat="27.843101" lon="86.739386">
        <ele>3753.8</ele>
        <time>2022-10-29T03:45:20.000Z</time>
      </trkpt>
      <trkpt lat="27.843072" lon="86.739373">
        <ele>3755.8</ele>
        <time>2022-10-29T03:45:49.000Z</time>
      </trkpt>
      <trkpt lat="27.843034" lon="86.739341">
        <ele>3756.4</ele>
        <time>2022-10-29T03:45:53.000Z</time>
      </trkpt>
      <trkpt lat="27.843011" lon="86.739334">
        <ele>3756.4</ele>
        <time>2022-10-29T03:45:55.000Z</time>
      </trkpt>
      <trkpt lat="27.842992" lon="86.739322">
        <ele>3757</ele>
        <time>2022-10-29T03:45:57.000Z</time>
      </trkpt>
      <trkpt lat="27.842986" lon="86.739302">
        <ele>3757.2</ele>
        <time>2022-10-29T03:46:01.000Z</time>
      </trkpt>
      <trkpt lat="27.84297" lon="86.73929">
        <ele>3758</ele>
        <time>2022-10-29T03:46:06.000Z</time>
      </trkpt>
      <trkpt lat="27.84295" lon="86.73929">
        <ele>3758.2</ele>
        <time>2022-10-29T03:46:17.000Z</time>
      </trkpt>
      <trkpt lat="27.842931" lon="86.73927">
        <ele>3759.2</ele>
        <time>2022-10-29T03:46:23.000Z</time>
      </trkpt>
      <trkpt lat="27.842912" lon="86.739264">
        <ele>3760.2</ele>
        <time>2022-10-29T03:46:28.000Z</time>
      </trkpt>
      <trkpt lat="27.842893" lon="86.739258">
        <ele>3761</ele>
        <time>2022-10-29T03:46:33.000Z</time>
      </trkpt>
      <trkpt lat="27.842883" lon="86.739232">
        <ele>3761.6</ele>
        <time>2022-10-29T03:46:38.000Z</time>
      </trkpt>
      <trkpt lat="27.842864" lon="86.739226">
        <ele>3762.2</ele>
        <time>2022-10-29T03:46:42.000Z</time>
      </trkpt>
      <trkpt lat="27.842851" lon="86.739206">
        <ele>3762.6</ele>
        <time>2022-10-29T03:46:46.000Z</time>
      </trkpt>
      <trkpt lat="27.842842" lon="86.739187">
        <ele>3763.4</ele>
        <time>2022-10-29T03:46:50.000Z</time>
      </trkpt>
      <trkpt lat="27.842826" lon="86.739168">
        <ele>3764.6</ele>
        <time>2022-10-29T03:46:57.000Z</time>
      </trkpt>
      <trkpt lat="27.842806" lon="86.739149">
        <ele>3765.4</ele>
        <time>2022-10-29T03:47:03.000Z</time>
      </trkpt>
      <trkpt lat="27.842822" lon="86.73913">
        <ele>3766.8</ele>
        <time>2022-10-29T03:47:17.000Z</time>
      </trkpt>
      <trkpt lat="27.842842" lon="86.73913">
        <ele>3768.2</ele>
        <time>2022-10-29T03:47:23.000Z</time>
      </trkpt>
      <trkpt lat="27.842864" lon="86.739123">
        <ele>3769</ele>
        <time>2022-10-29T03:47:28.000Z</time>
      </trkpt>
      <trkpt lat="27.842877" lon="86.739104">
        <ele>3770.2</ele>
        <time>2022-10-29T03:47:35.000Z</time>
      </trkpt>
      <trkpt lat="27.842893" lon="86.739123">
        <ele>3770.4</ele>
        <time>2022-10-29T03:47:39.000Z</time>
      </trkpt>
      <trkpt lat="27.842912" lon="86.739123">
        <ele>3771</ele>
        <time>2022-10-29T03:47:43.000Z</time>
      </trkpt>
      <trkpt lat="27.842931" lon="86.73911">
        <ele>3772.2</ele>
        <time>2022-10-29T03:47:48.000Z</time>
      </trkpt>
      <trkpt lat="27.842938" lon="86.739091">
        <ele>3772.2</ele>
        <time>2022-10-29T03:47:50.000Z</time>
      </trkpt>
      <trkpt lat="27.842922" lon="86.739072">
        <ele>3772.6</ele>
        <time>2022-10-29T03:47:55.000Z</time>
      </trkpt>
      <trkpt lat="27.842902" lon="86.739066">
        <ele>3773.8</ele>
        <time>2022-10-29T03:48:00.000Z</time>
      </trkpt>
      <trkpt lat="27.842883" lon="86.739072">
        <ele>3773.6</ele>
        <time>2022-10-29T03:48:04.000Z</time>
      </trkpt>
      <trkpt lat="27.842864" lon="86.739072">
        <ele>3775</ele>
        <time>2022-10-29T03:48:12.000Z</time>
      </trkpt>
      <trkpt lat="27.842845" lon="86.739066">
        <ele>3774.2</ele>
        <time>2022-10-29T03:48:15.000Z</time>
      </trkpt>
      <trkpt lat="27.842822" lon="86.739059">
        <ele>3775.4</ele>
        <time>2022-10-29T03:48:22.000Z</time>
      </trkpt>
      <trkpt lat="27.842806" lon="86.739046">
        <ele>3775.8</ele>
        <time>2022-10-29T03:48:26.000Z</time>
      </trkpt>
      <trkpt lat="27.84281" lon="86.739021">
        <ele>3776.6</ele>
        <time>2022-10-29T03:48:30.000Z</time>
      </trkpt>
      <trkpt lat="27.842832" lon="86.739014">
        <ele>3777</ele>
        <time>2022-10-29T03:48:34.000Z</time>
      </trkpt>
      <trkpt lat="27.842813" lon="86.739008">
        <ele>3778.2</ele>
        <time>2022-10-29T03:48:48.000Z</time>
      </trkpt>
      <trkpt lat="27.842806" lon="86.738989">
        <ele>3778.6</ele>
        <time>2022-10-29T03:48:51.000Z</time>
      </trkpt>
      <trkpt lat="27.842794" lon="86.73897">
        <ele>3779.6</ele>
        <time>2022-10-29T03:48:57.000Z</time>
      </trkpt>
      <trkpt lat="27.842784" lon="86.73895">
        <ele>3780.2</ele>
        <time>2022-10-29T03:49:01.000Z</time>
      </trkpt>
      <trkpt lat="27.842765" lon="86.738944">
        <ele>3780.4</ele>
        <time>2022-10-29T03:49:05.000Z</time>
      </trkpt>
      <trkpt lat="27.842746" lon="86.738931">
        <ele>3782.6</ele>
        <time>2022-10-29T03:49:15.000Z</time>
      </trkpt>
      <trkpt lat="27.842726" lon="86.738925">
        <ele>3782.8</ele>
        <time>2022-10-29T03:49:19.000Z</time>
      </trkpt>
      <trkpt lat="27.842717" lon="86.738906">
        <ele>3783</ele>
        <time>2022-10-29T03:49:21.000Z</time>
      </trkpt>
      <trkpt lat="27.842698" lon="86.738893">
        <ele>3783.4</ele>
        <time>2022-10-29T03:49:25.000Z</time>
      </trkpt>
      <trkpt lat="27.842678" lon="86.738886">
        <ele>3784</ele>
        <time>2022-10-29T03:49:29.000Z</time>
      </trkpt>
      <trkpt lat="27.842662" lon="86.738867">
        <ele>3784.8</ele>
        <time>2022-10-29T03:49:33.000Z</time>
      </trkpt>
      <trkpt lat="27.842637" lon="86.738854">
        <ele>3784.8</ele>
        <time>2022-10-29T03:49:41.000Z</time>
      </trkpt>
      <trkpt lat="27.842621" lon="86.738835">
        <ele>3784.8</ele>
        <time>2022-10-29T03:49:44.000Z</time>
      </trkpt>
      <trkpt lat="27.842598" lon="86.738822">
        <ele>3784.8</ele>
        <time>2022-10-29T03:49:50.000Z</time>
      </trkpt>
      <trkpt lat="27.842579" lon="86.738816">
        <ele>3784.8</ele>
        <time>2022-10-29T03:49:52.000Z</time>
      </trkpt>
      <trkpt lat="27.84256" lon="86.738803">
        <ele>3784.8</ele>
        <time>2022-10-29T03:49:55.000Z</time>
      </trkpt>
      <trkpt lat="27.842541" lon="86.73879">
        <ele>3785.4</ele>
        <time>2022-10-29T03:49:58.000Z</time>
      </trkpt>
      <trkpt lat="27.842518" lon="86.738784">
        <ele>3786.6</ele>
        <time>2022-10-29T03:50:05.000Z</time>
      </trkpt>
      <trkpt lat="27.842499" lon="86.738771">
        <ele>3787.2</ele>
        <time>2022-10-29T03:50:09.000Z</time>
      </trkpt>
      <trkpt lat="27.842477" lon="86.738752">
        <ele>3787.8</ele>
        <time>2022-10-29T03:50:12.000Z</time>
      </trkpt>
      <trkpt lat="27.842461" lon="86.738739">
        <ele>3787.8</ele>
        <time>2022-10-29T03:50:14.000Z</time>
      </trkpt>
      <trkpt lat="27.842438" lon="86.738726">
        <ele>3788</ele>
        <time>2022-10-29T03:50:17.000Z</time>
      </trkpt>
      <trkpt lat="27.842426" lon="86.738701">
        <ele>3788</ele>
        <time>2022-10-29T03:50:20.000Z</time>
      </trkpt>
      <trkpt lat="27.842416" lon="86.738675">
        <ele>3788</ele>
        <time>2022-10-29T03:50:22.000Z</time>
      </trkpt>
      <trkpt lat="27.842397" lon="86.738669">
        <ele>3788.4</ele>
        <time>2022-10-29T03:50:25.000Z</time>
      </trkpt>
      <trkpt lat="27.842374" lon="86.738669">
        <ele>3788.6</ele>
        <time>2022-10-29T03:50:29.000Z</time>
      </trkpt>
      <trkpt lat="27.842358" lon="86.738688">
        <ele>3789.2</ele>
        <time>2022-10-29T03:50:35.000Z</time>
      </trkpt>
      <trkpt lat="27.842339" lon="86.738694">
        <ele>3790.4</ele>
        <time>2022-10-29T03:50:40.000Z</time>
      </trkpt>
      <trkpt lat="27.842317" lon="86.738688">
        <ele>3791.8</ele>
        <time>2022-10-29T03:51:12.000Z</time>
      </trkpt>
      <trkpt lat="27.842291" lon="86.738662">
        <ele>3792.2</ele>
        <time>2022-10-29T03:51:16.000Z</time>
      </trkpt>
      <trkpt lat="27.842266" lon="86.73865">
        <ele>3792.2</ele>
        <time>2022-10-29T03:51:19.000Z</time>
      </trkpt>
      <trkpt lat="27.842211" lon="86.738618">
        <ele>3795</ele>
        <time>2022-10-29T03:52:21.000Z</time>
      </trkpt>
      <trkpt lat="27.84216" lon="86.738592">
        <ele>3796.6</ele>
        <time>2022-10-29T03:53:47.000Z</time>
      </trkpt>
      <trkpt lat="27.842144" lon="86.738579">
        <ele>3797.6</ele>
        <time>2022-10-29T03:53:49.000Z</time>
      </trkpt>
      <trkpt lat="27.842122" lon="86.738566">
        <ele>3797.6</ele>
        <time>2022-10-29T03:53:51.000Z</time>
      </trkpt>
      <trkpt lat="27.842109" lon="86.738547">
        <ele>3797.8</ele>
        <time>2022-10-29T03:53:53.000Z</time>
      </trkpt>
      <trkpt lat="27.842086" lon="86.738541">
        <ele>3797.8</ele>
        <time>2022-10-29T03:54:11.000Z</time>
      </trkpt>
      <trkpt lat="27.84207" lon="86.738528">
        <ele>3798.4</ele>
        <time>2022-10-29T03:54:12.000Z</time>
      </trkpt>
      <trkpt lat="27.842038" lon="86.738509">
        <ele>3798.6</ele>
        <time>2022-10-29T03:54:14.000Z</time>
      </trkpt>
      <trkpt lat="27.84201" lon="86.73849">
        <ele>3798.6</ele>
        <time>2022-10-29T03:54:16.000Z</time>
      </trkpt>
      <trkpt lat="27.841997" lon="86.73847">
        <ele>3798.4</ele>
        <time>2022-10-29T03:54:17.000Z</time>
      </trkpt>
      <trkpt lat="27.841968" lon="86.738458">
        <ele>3798.8</ele>
        <time>2022-10-29T03:54:19.000Z</time>
      </trkpt>
      <trkpt lat="27.841955" lon="86.738438">
        <ele>3799</ele>
        <time>2022-10-29T03:54:20.000Z</time>
      </trkpt>
      <trkpt lat="27.841933" lon="86.738419">
        <ele>3799.4</ele>
        <time>2022-10-29T03:55:10.000Z</time>
      </trkpt>
      <trkpt lat="27.84191" lon="86.738419">
        <ele>3799.4</ele>
        <time>2022-10-29T03:55:12.000Z</time>
      </trkpt>
      <trkpt lat="27.841888" lon="86.738419">
        <ele>3800.4</ele>
        <time>2022-10-29T03:55:14.000Z</time>
      </trkpt>
      <trkpt lat="27.841862" lon="86.738419">
        <ele>3800.4</ele>
        <time>2022-10-29T03:55:16.000Z</time>
      </trkpt>
      <trkpt lat="27.84184" lon="86.738413">
        <ele>3800.8</ele>
        <time>2022-10-29T03:55:18.000Z</time>
      </trkpt>
      <trkpt lat="27.841827" lon="86.738394">
        <ele>3800.8</ele>
        <time>2022-10-29T03:55:20.000Z</time>
      </trkpt>
      <trkpt lat="27.841805" lon="86.738387">
        <ele>3801.6</ele>
        <time>2022-10-29T03:55:23.000Z</time>
      </trkpt>
      <trkpt lat="27.841824" lon="86.738387">
        <ele>3801.4</ele>
        <time>2022-10-29T03:56:01.000Z</time>
      </trkpt>
      <trkpt lat="27.841853" lon="86.738387">
        <ele>3801.6</ele>
        <time>2022-10-29T03:56:03.000Z</time>
      </trkpt>
      <trkpt lat="27.841882" lon="86.738387">
        <ele>3800.8</ele>
        <time>2022-10-29T03:56:05.000Z</time>
      </trkpt>
      <trkpt lat="27.841907" lon="86.738394">
        <ele>3800.8</ele>
        <time>2022-10-29T03:56:07.000Z</time>
      </trkpt>
      <trkpt lat="27.841923" lon="86.738406">
        <ele>3800.6</ele>
        <time>2022-10-29T03:56:08.000Z</time>
      </trkpt>
      <trkpt lat="27.841942" lon="86.738419">
        <ele>3800.4</ele>
        <time>2022-10-29T03:56:13.000Z</time>
      </trkpt>
      <trkpt lat="27.841949" lon="86.738438">
        <ele>3799.4</ele>
        <time>2022-10-29T03:58:04.000Z</time>
      </trkpt>
      <trkpt lat="27.841968" lon="86.738464">
        <ele>3799.4</ele>
        <time>2022-10-29T03:58:06.000Z</time>
      </trkpt>
      <trkpt lat="27.841997" lon="86.738477">
        <ele>3799.2</ele>
        <time>2022-10-29T03:58:08.000Z</time>
      </trkpt>
      <trkpt lat="27.842022" lon="86.738496">
        <ele>3799.2</ele>
        <time>2022-10-29T03:58:10.000Z</time>
      </trkpt>
      <trkpt lat="27.842042" lon="86.738509">
        <ele>3798.8</ele>
        <time>2022-10-29T03:58:12.000Z</time>
      </trkpt>
      <trkpt lat="27.842032" lon="86.738528">
        <ele>3799.2</ele>
        <time>2022-10-29T03:59:24.000Z</time>
      </trkpt>
      <trkpt lat="27.842022" lon="86.738509">
        <ele>3799.2</ele>
        <time>2022-10-29T03:59:25.000Z</time>
      </trkpt>
      <trkpt lat="27.842003" lon="86.738477">
        <ele>3800.2</ele>
        <time>2022-10-29T03:59:36.000Z</time>
      </trkpt>
      <trkpt lat="27.841978" lon="86.738458">
        <ele>3799.6</ele>
        <time>2022-10-29T04:00:02.000Z</time>
      </trkpt>
      <trkpt lat="27.841942" lon="86.738413">
        <ele>3800.6</ele>
        <time>2022-10-29T04:01:10.000Z</time>
      </trkpt>
      <trkpt lat="27.841923" lon="86.738413">
        <ele>3800.6</ele>
        <time>2022-10-29T04:01:28.000Z</time>
      </trkpt>
      <trkpt lat="27.841904" lon="86.738419">
        <ele>3800.6</ele>
        <time>2022-10-29T04:01:30.000Z</time>
      </trkpt>
      <trkpt lat="27.841878" lon="86.738419">
        <ele>3800.6</ele>
        <time>2022-10-29T04:01:32.000Z</time>
      </trkpt>
      <trkpt lat="27.841853" lon="86.738413">
        <ele>3801</ele>
        <time>2022-10-29T04:01:34.000Z</time>
      </trkpt>
      <trkpt lat="27.84183" lon="86.738406">
        <ele>3801.2</ele>
        <time>2022-10-29T04:01:36.000Z</time>
      </trkpt>
      <trkpt lat="27.841814" lon="86.738387">
        <ele>3801.8</ele>
        <time>2022-10-29T04:01:39.000Z</time>
      </trkpt>
      <trkpt lat="27.841808" lon="86.738368">
        <ele>3802.4</ele>
        <time>2022-10-29T04:01:46.000Z</time>
      </trkpt>
      <trkpt lat="27.841792" lon="86.738349">
        <ele>3802</ele>
        <time>2022-10-29T04:04:34.000Z</time>
      </trkpt>
      <trkpt lat="27.841808" lon="86.738368">
        <ele>3802</ele>
        <time>2022-10-29T04:04:37.000Z</time>
      </trkpt>
      <trkpt lat="27.841786" lon="86.738374">
        <ele>3803.2</ele>
        <time>2022-10-29T04:05:22.000Z</time>
      </trkpt>
      <trkpt lat="27.841763" lon="86.738355">
        <ele>3803.4</ele>
        <time>2022-10-29T04:05:24.000Z</time>
      </trkpt>
      <trkpt lat="27.841738" lon="86.738349">
        <ele>3803.6</ele>
        <time>2022-10-29T04:05:26.000Z</time>
      </trkpt>
      <trkpt lat="27.841709" lon="86.738342">
        <ele>3804.4</ele>
        <time>2022-10-29T04:05:28.000Z</time>
      </trkpt>
      <trkpt lat="27.841693" lon="86.73833">
        <ele>3804</ele>
        <time>2022-10-29T04:05:30.000Z</time>
      </trkpt>
      <trkpt lat="27.84168" lon="86.73831">
        <ele>3804.4</ele>
        <time>2022-10-29T04:05:32.000Z</time>
      </trkpt>
      <trkpt lat="27.841664" lon="86.738298">
        <ele>3804.8</ele>
        <time>2022-10-29T04:05:35.000Z</time>
      </trkpt>
      <trkpt lat="27.841654" lon="86.738278">
        <ele>3805.4</ele>
        <time>2022-10-29T04:05:37.000Z</time>
      </trkpt>
      <trkpt lat="27.841642" lon="86.738259">
        <ele>3806</ele>
        <time>2022-10-29T04:05:41.000Z</time>
      </trkpt>
      <trkpt lat="27.841635" lon="86.73824">
        <ele>3806.6</ele>
        <time>2022-10-29T04:05:44.000Z</time>
      </trkpt>
      <trkpt lat="27.841619" lon="86.738227">
        <ele>3807</ele>
        <time>2022-10-29T04:05:48.000Z</time>
      </trkpt>
      <trkpt lat="27.841603" lon="86.738208">
        <ele>3807.6</ele>
        <time>2022-10-29T04:05:52.000Z</time>
      </trkpt>
      <trkpt lat="27.841581" lon="86.738208">
        <ele>3808.2</ele>
        <time>2022-10-29T04:05:57.000Z</time>
      </trkpt>
      <trkpt lat="27.841574" lon="86.738189">
        <ele>3808.6</ele>
        <time>2022-10-29T04:06:02.000Z</time>
      </trkpt>
      <trkpt lat="27.841555" lon="86.738182">
        <ele>3810</ele>
        <time>2022-10-29T04:06:09.000Z</time>
      </trkpt>
      <trkpt lat="27.841549" lon="86.738157">
        <ele>3810.2</ele>
        <time>2022-10-29T04:06:12.000Z</time>
      </trkpt>
      <trkpt lat="27.841526" lon="86.73815">
        <ele>3810.6</ele>
        <time>2022-10-29T04:06:17.000Z</time>
      </trkpt>
      <trkpt lat="27.841507" lon="86.738144">
        <ele>3811</ele>
        <time>2022-10-29T04:06:21.000Z</time>
      </trkpt>
      <trkpt lat="27.841498" lon="86.738118">
        <ele>3811.6</ele>
        <time>2022-10-29T04:06:25.000Z</time>
      </trkpt>
      <trkpt lat="27.841485" lon="86.738099">
        <ele>3812.4</ele>
        <time>2022-10-29T04:06:29.000Z</time>
      </trkpt>
      <trkpt lat="27.841482" lon="86.738074">
        <ele>3812.8</ele>
        <time>2022-10-29T04:06:32.000Z</time>
      </trkpt>
      <trkpt lat="27.841469" lon="86.738054">
        <ele>3813.6</ele>
        <time>2022-10-29T04:06:36.000Z</time>
      </trkpt>
      <trkpt lat="27.841462" lon="86.738029">
        <ele>3813.8</ele>
        <time>2022-10-29T04:06:41.000Z</time>
      </trkpt>
      <trkpt lat="27.841453" lon="86.73801">
        <ele>3815</ele>
        <time>2022-10-29T04:06:46.000Z</time>
      </trkpt>
      <trkpt lat="27.841446" lon="86.73799">
        <ele>3815.2</ele>
        <time>2022-10-29T04:06:49.000Z</time>
      </trkpt>
      <trkpt lat="27.84143" lon="86.737978">
        <ele>3816.4</ele>
        <time>2022-10-29T04:06:56.000Z</time>
      </trkpt>
      <trkpt lat="27.841434" lon="86.737952">
        <ele>3816.4</ele>
        <time>2022-10-29T04:06:59.000Z</time>
      </trkpt>
      <trkpt lat="27.841456" lon="86.737933">
        <ele>3816.6</ele>
        <time>2022-10-29T04:07:03.000Z</time>
      </trkpt>
      <trkpt lat="27.841475" lon="86.737933">
        <ele>3817</ele>
        <time>2022-10-29T04:07:06.000Z</time>
      </trkpt>
      <trkpt lat="27.841494" lon="86.737933">
        <ele>3817.4</ele>
        <time>2022-10-29T04:07:11.000Z</time>
      </trkpt>
      <trkpt lat="27.841485" lon="86.737907">
        <ele>3817.8</ele>
        <time>2022-10-29T04:07:15.000Z</time>
      </trkpt>
      <trkpt lat="27.841466" lon="86.737901">
        <ele>3818.2</ele>
        <time>2022-10-29T04:07:19.000Z</time>
      </trkpt>
      <trkpt lat="27.841446" lon="86.737901">
        <ele>3819</ele>
        <time>2022-10-29T04:07:23.000Z</time>
      </trkpt>
      <trkpt lat="27.841427" lon="86.737894">
        <ele>3819.4</ele>
        <time>2022-10-29T04:07:28.000Z</time>
      </trkpt>
      <trkpt lat="27.841405" lon="86.737894">
        <ele>3819.4</ele>
        <time>2022-10-29T04:07:31.000Z</time>
      </trkpt>
      <trkpt lat="27.841386" lon="86.737882">
        <ele>3820.2</ele>
        <time>2022-10-29T04:07:35.000Z</time>
      </trkpt>
      <trkpt lat="27.841373" lon="86.737862">
        <ele>3821.2</ele>
        <time>2022-10-29T04:07:40.000Z</time>
      </trkpt>
      <trkpt lat="27.841357" lon="86.737843">
        <ele>3821.4</ele>
        <time>2022-10-29T04:07:44.000Z</time>
      </trkpt>
      <trkpt lat="27.841341" lon="86.73783">
        <ele>3822.4</ele>
        <time>2022-10-29T04:07:50.000Z</time>
      </trkpt>
      <trkpt lat="27.841318" lon="86.737818">
        <ele>3823.2</ele>
        <time>2022-10-29T04:07:56.000Z</time>
      </trkpt>
      <trkpt lat="27.841309" lon="86.737798">
        <ele>3823.4</ele>
        <time>2022-10-29T04:07:59.000Z</time>
      </trkpt>
      <trkpt lat="27.841293" lon="86.737786">
        <ele>3825</ele>
        <time>2022-10-29T04:08:09.000Z</time>
      </trkpt>
      <trkpt lat="27.841277" lon="86.73776">
        <ele>3825.8</ele>
        <time>2022-10-29T04:08:30.000Z</time>
      </trkpt>
      <trkpt lat="27.841258" lon="86.737747">
        <ele>3826.8</ele>
        <time>2022-10-29T04:08:33.000Z</time>
      </trkpt>
      <trkpt lat="27.841238" lon="86.737734">
        <ele>3827</ele>
        <time>2022-10-29T04:08:36.000Z</time>
      </trkpt>
      <trkpt lat="27.841229" lon="86.737709">
        <ele>3827.2</ele>
        <time>2022-10-29T04:08:38.000Z</time>
      </trkpt>
      <trkpt lat="27.841226" lon="86.737683">
        <ele>3828.2</ele>
        <time>2022-10-29T04:08:44.000Z</time>
      </trkpt>
      <trkpt lat="27.841213" lon="86.737664">
        <ele>3829</ele>
        <time>2022-10-29T04:08:50.000Z</time>
      </trkpt>
      <trkpt lat="27.841203" lon="86.737638">
        <ele>3830</ele>
        <time>2022-10-29T04:08:55.000Z</time>
      </trkpt>
      <trkpt lat="27.841187" lon="86.737619">
        <ele>3830.2</ele>
        <time>2022-10-29T04:08:59.000Z</time>
      </trkpt>
      <trkpt lat="27.841168" lon="86.737613">
        <ele>3830.8</ele>
        <time>2022-10-29T04:09:03.000Z</time>
      </trkpt>
      <trkpt lat="27.841152" lon="86.7376">
        <ele>3831.2</ele>
        <time>2022-10-29T04:09:06.000Z</time>
      </trkpt>
      <trkpt lat="27.841136" lon="86.737587">
        <ele>3831.4</ele>
        <time>2022-10-29T04:09:10.000Z</time>
      </trkpt>
      <trkpt lat="27.841117" lon="86.737574">
        <ele>3832.4</ele>
        <time>2022-10-29T04:09:16.000Z</time>
      </trkpt>
      <trkpt lat="27.841098" lon="86.737555">
        <ele>3833.2</ele>
        <time>2022-10-29T04:09:21.000Z</time>
      </trkpt>
      <trkpt lat="27.841117" lon="86.737549">
        <ele>3834</ele>
        <time>2022-10-29T04:09:27.000Z</time>
      </trkpt>
      <trkpt lat="27.841136" lon="86.737549">
        <ele>3834.2</ele>
        <time>2022-10-29T04:09:30.000Z</time>
      </trkpt>
      <trkpt lat="27.841155" lon="86.737555">
        <ele>3834.6</ele>
        <time>2022-10-29T04:09:33.000Z</time>
      </trkpt>
      <trkpt lat="27.841174" lon="86.737555">
        <ele>3835.4</ele>
        <time>2022-10-29T04:09:38.000Z</time>
      </trkpt>
      <trkpt lat="27.841194" lon="86.737555">
        <ele>3836</ele>
        <time>2022-10-29T04:09:42.000Z</time>
      </trkpt>
      <trkpt lat="27.841216" lon="86.737555">
        <ele>3836.2</ele>
        <time>2022-10-29T04:09:45.000Z</time>
      </trkpt>
      <trkpt lat="27.841229" lon="86.737574">
        <ele>3838</ele>
        <time>2022-10-29T04:10:30.000Z</time>
      </trkpt>
      <trkpt lat="27.841248" lon="86.737581">
        <ele>3838.2</ele>
        <time>2022-10-29T04:10:32.000Z</time>
      </trkpt>
      <trkpt lat="27.841267" lon="86.737581">
        <ele>3838.4</ele>
        <time>2022-10-29T04:10:34.000Z</time>
      </trkpt>
      <trkpt lat="27.841286" lon="86.737587">
        <ele>3839</ele>
        <time>2022-10-29T04:10:36.000Z</time>
      </trkpt>
      <trkpt lat="27.841306" lon="86.737594">
        <ele>3839.4</ele>
        <time>2022-10-29T04:10:38.000Z</time>
      </trkpt>
      <trkpt lat="27.841325" lon="86.737594">
        <ele>3840</ele>
        <time>2022-10-29T04:10:41.000Z</time>
      </trkpt>
      <trkpt lat="27.841344" lon="86.7376">
        <ele>3840.8</ele>
        <time>2022-10-29T04:10:45.000Z</time>
      </trkpt>
      <trkpt lat="27.841366" lon="86.7376">
        <ele>3841.2</ele>
        <time>2022-10-29T04:10:49.000Z</time>
      </trkpt>
      <trkpt lat="27.841373" lon="86.737581">
        <ele>3842.6</ele>
        <time>2022-10-29T04:10:58.000Z</time>
      </trkpt>
      <trkpt lat="27.841354" lon="86.737574">
        <ele>3843.4</ele>
        <time>2022-10-29T04:11:04.000Z</time>
      </trkpt>
      <trkpt lat="27.841338" lon="86.737562">
        <ele>3843.6</ele>
        <time>2022-10-29T04:11:07.000Z</time>
      </trkpt>
      <trkpt lat="27.841331" lon="86.737542">
        <ele>3845</ele>
        <time>2022-10-29T04:11:16.000Z</time>
      </trkpt>
      <trkpt lat="27.841322" lon="86.737523">
        <ele>3845.6</ele>
        <time>2022-10-29T04:11:20.000Z</time>
      </trkpt>
      <trkpt lat="27.841306" lon="86.73751">
        <ele>3846.8</ele>
        <time>2022-10-29T04:11:26.000Z</time>
      </trkpt>
      <trkpt lat="27.84129" lon="86.737498">
        <ele>3847.4</ele>
        <time>2022-10-29T04:11:31.000Z</time>
      </trkpt>
      <trkpt lat="27.841274" lon="86.737478">
        <ele>3848.2</ele>
        <time>2022-10-29T04:11:36.000Z</time>
      </trkpt>
      <trkpt lat="27.841254" lon="86.737478">
        <ele>3848.8</ele>
        <time>2022-10-29T04:11:41.000Z</time>
      </trkpt>
      <trkpt lat="27.841235" lon="86.737466">
        <ele>3849</ele>
        <time>2022-10-29T04:11:46.000Z</time>
      </trkpt>
      <trkpt lat="27.841216" lon="86.737459">
        <ele>3850.2</ele>
        <time>2022-10-29T04:11:53.000Z</time>
      </trkpt>
      <trkpt lat="27.841197" lon="86.737453">
        <ele>3851</ele>
        <time>2022-10-29T04:11:57.000Z</time>
      </trkpt>
      <trkpt lat="27.841181" lon="86.73744">
        <ele>3851.4</ele>
        <time>2022-10-29T04:12:01.000Z</time>
      </trkpt>
      <trkpt lat="27.841178" lon="86.737414">
        <ele>3852</ele>
        <time>2022-10-29T04:12:06.000Z</time>
      </trkpt>
      <trkpt lat="27.841197" lon="86.737414">
        <ele>3852.4</ele>
        <time>2022-10-29T04:12:10.000Z</time>
      </trkpt>
      <trkpt lat="27.841216" lon="86.737402">
        <ele>3853.4</ele>
        <time>2022-10-29T04:12:13.000Z</time>
      </trkpt>
      <trkpt lat="27.841235" lon="86.737395">
        <ele>3853.8</ele>
        <time>2022-10-29T04:12:17.000Z</time>
      </trkpt>
      <trkpt lat="27.841251" lon="86.737382">
        <ele>3854.2</ele>
        <time>2022-10-29T04:12:22.000Z</time>
      </trkpt>
      <trkpt lat="27.84127" lon="86.737382">
        <ele>3855.6</ele>
        <time>2022-10-29T04:12:26.000Z</time>
      </trkpt>
      <trkpt lat="27.841245" lon="86.737376">
        <ele>3857.6</ele>
        <time>2022-10-29T04:13:04.000Z</time>
      </trkpt>
      <trkpt lat="27.841216" lon="86.737376">
        <ele>3857.8</ele>
        <time>2022-10-29T04:13:06.000Z</time>
      </trkpt>
      <trkpt lat="27.841178" lon="86.73735">
        <ele>3858.4</ele>
        <time>2022-10-29T04:13:12.000Z</time>
      </trkpt>
      <trkpt lat="27.841174" lon="86.737325">
        <ele>3858.6</ele>
        <time>2022-10-29T04:13:16.000Z</time>
      </trkpt>
      <trkpt lat="27.841187" lon="86.737306">
        <ele>3859.8</ele>
        <time>2022-10-29T04:13:21.000Z</time>
      </trkpt>
      <trkpt lat="27.841197" lon="86.73728">
        <ele>3861</ele>
        <time>2022-10-29T04:13:26.000Z</time>
      </trkpt>
      <trkpt lat="27.841213" lon="86.737261">
        <ele>3861.8</ele>
        <time>2022-10-29T04:13:32.000Z</time>
      </trkpt>
      <trkpt lat="27.841235" lon="86.737254">
        <ele>3862.2</ele>
        <time>2022-10-29T04:13:36.000Z</time>
      </trkpt>
      <trkpt lat="27.841251" lon="86.737242">
        <ele>3862.2</ele>
        <time>2022-10-29T04:13:38.000Z</time>
      </trkpt>
      <trkpt lat="27.84127" lon="86.737242">
        <ele>3862.8</ele>
        <time>2022-10-29T04:13:41.000Z</time>
      </trkpt>
      <trkpt lat="27.841293" lon="86.737235">
        <ele>3863.8</ele>
        <time>2022-10-29T04:13:48.000Z</time>
      </trkpt>
      <trkpt lat="27.841315" lon="86.737242">
        <ele>3864.8</ele>
        <time>2022-10-29T04:14:11.000Z</time>
      </trkpt>
      <trkpt lat="27.841334" lon="86.737261">
        <ele>3865.2</ele>
        <time>2022-10-29T04:14:15.000Z</time>
      </trkpt>
      <trkpt lat="27.841354" lon="86.737261">
        <ele>3865.2</ele>
        <time>2022-10-29T04:14:19.000Z</time>
      </trkpt>
      <trkpt lat="27.841373" lon="86.737261">
        <ele>3865.8</ele>
        <time>2022-10-29T04:14:22.000Z</time>
      </trkpt>
      <trkpt lat="27.841392" lon="86.737274">
        <ele>3866.4</ele>
        <time>2022-10-29T04:14:26.000Z</time>
      </trkpt>
      <trkpt lat="27.841414" lon="86.73728">
        <ele>3867.4</ele>
        <time>2022-10-29T04:14:30.000Z</time>
      </trkpt>
      <trkpt lat="27.841434" lon="86.737286">
        <ele>3868.4</ele>
        <time>2022-10-29T04:14:34.000Z</time>
      </trkpt>
      <trkpt lat="27.84145" lon="86.737299">
        <ele>3868.8</ele>
        <time>2022-10-29T04:14:37.000Z</time>
      </trkpt>
      <trkpt lat="27.841469" lon="86.737299">
        <ele>3869.2</ele>
        <time>2022-10-29T04:14:41.000Z</time>
      </trkpt>
      <trkpt lat="27.841488" lon="86.737299">
        <ele>3870.4</ele>
        <time>2022-10-29T04:14:48.000Z</time>
      </trkpt>
      <trkpt lat="27.841504" lon="86.73728">
        <ele>3871</ele>
        <time>2022-10-29T04:14:55.000Z</time>
      </trkpt>
      <trkpt lat="27.841523" lon="86.737274">
        <ele>3871.6</ele>
        <time>2022-10-29T04:14:59.000Z</time>
      </trkpt>
      <trkpt lat="27.841546" lon="86.737274">
        <ele>3872.8</ele>
        <time>2022-10-29T04:15:05.000Z</time>
      </trkpt>
      <trkpt lat="27.841526" lon="86.737261">
        <ele>3873.8</ele>
        <time>2022-10-29T04:15:13.000Z</time>
      </trkpt>
      <trkpt lat="27.84152" lon="86.737242">
        <ele>3874.4</ele>
        <time>2022-10-29T04:15:16.000Z</time>
      </trkpt>
      <trkpt lat="27.841501" lon="86.737229">
        <ele>3874.8</ele>
        <time>2022-10-29T04:15:22.000Z</time>
      </trkpt>
      <trkpt lat="27.841488" lon="86.737203">
        <ele>3875.8</ele>
        <time>2022-10-29T04:15:29.000Z</time>
      </trkpt>
      <trkpt lat="27.841472" lon="86.73719">
        <ele>3876.8</ele>
        <time>2022-10-29T04:15:34.000Z</time>
      </trkpt>
      <trkpt lat="27.841456" lon="86.737178">
        <ele>3877.4</ele>
        <time>2022-10-29T04:15:39.000Z</time>
      </trkpt>
      <trkpt lat="27.841446" lon="86.737158">
        <ele>3877.6</ele>
        <time>2022-10-29T04:15:42.000Z</time>
      </trkpt>
      <trkpt lat="27.841427" lon="86.737152">
        <ele>3878</ele>
        <time>2022-10-29T04:15:46.000Z</time>
      </trkpt>
      <trkpt lat="27.841408" lon="86.737139">
        <ele>3879</ele>
        <time>2022-10-29T04:15:51.000Z</time>
      </trkpt>
      <trkpt lat="27.841398" lon="86.73712">
        <ele>3879.2</ele>
        <time>2022-10-29T04:15:55.000Z</time>
      </trkpt>
      <trkpt lat="27.841382" lon="86.737107">
        <ele>3880.2</ele>
        <time>2022-10-29T04:16:00.000Z</time>
      </trkpt>
      <trkpt lat="27.841373" lon="86.737088">
        <ele>3880.6</ele>
        <time>2022-10-29T04:16:03.000Z</time>
      </trkpt>
      <trkpt lat="27.841357" lon="86.737075">
        <ele>3881.2</ele>
        <time>2022-10-29T04:16:07.000Z</time>
      </trkpt>
      <trkpt lat="27.84135" lon="86.737043">
        <ele>3881.8</ele>
        <time>2022-10-29T04:16:13.000Z</time>
      </trkpt>
      <trkpt lat="27.841344" lon="86.737024">
        <ele>3882.8</ele>
        <time>2022-10-29T04:16:19.000Z</time>
      </trkpt>
      <trkpt lat="27.841331" lon="86.737005">
        <ele>3883</ele>
        <time>2022-10-29T04:16:24.000Z</time>
      </trkpt>
      <trkpt lat="27.841315" lon="86.736992">
        <ele>3883.8</ele>
        <time>2022-10-29T04:16:29.000Z</time>
      </trkpt>
      <trkpt lat="27.841296" lon="86.736986">
        <ele>3885.4</ele>
        <time>2022-10-29T04:16:36.000Z</time>
      </trkpt>
      <trkpt lat="27.841274" lon="86.736966">
        <ele>3885.6</ele>
        <time>2022-10-29T04:16:41.000Z</time>
      </trkpt>
      <trkpt lat="27.841261" lon="86.736928">
        <ele>3889.4</ele>
        <time>2022-10-29T04:19:47.000Z</time>
      </trkpt>
      <trkpt lat="27.841245" lon="86.736909">
        <ele>3890</ele>
        <time>2022-10-29T04:19:49.000Z</time>
      </trkpt>
      <trkpt lat="27.841235" lon="86.73689">
        <ele>3890</ele>
        <time>2022-10-29T04:19:50.000Z</time>
      </trkpt>
      <trkpt lat="27.841216" lon="86.736864">
        <ele>3890.2</ele>
        <time>2022-10-29T04:19:52.000Z</time>
      </trkpt>
      <trkpt lat="27.841194" lon="86.736838">
        <ele>3890.6</ele>
        <time>2022-10-29T04:19:54.000Z</time>
      </trkpt>
      <trkpt lat="27.841187" lon="86.736819">
        <ele>3890.6</ele>
        <time>2022-10-29T04:19:57.000Z</time>
      </trkpt>
      <trkpt lat="27.841187" lon="86.736794">
        <ele>3891.2</ele>
        <time>2022-10-29T04:20:01.000Z</time>
      </trkpt>
      <trkpt lat="27.841174" lon="86.736768">
        <ele>3891.4</ele>
        <time>2022-10-29T04:20:05.000Z</time>
      </trkpt>
      <trkpt lat="27.841155" lon="86.736749">
        <ele>3891.2</ele>
        <time>2022-10-29T04:20:12.000Z</time>
      </trkpt>
      <trkpt lat="27.841139" lon="86.73673">
        <ele>3890.2</ele>
        <time>2022-10-29T04:20:15.000Z</time>
      </trkpt>
      <trkpt lat="27.841123" lon="86.73671">
        <ele>3890.2</ele>
        <time>2022-10-29T04:20:18.000Z</time>
      </trkpt>
      <trkpt lat="27.841107" lon="86.736691">
        <ele>3889.8</ele>
        <time>2022-10-29T04:20:20.000Z</time>
      </trkpt>
      <trkpt lat="27.841085" lon="86.736691">
        <ele>3889.4</ele>
        <time>2022-10-29T04:20:23.000Z</time>
      </trkpt>
      <trkpt lat="27.841062" lon="86.736691">
        <ele>3889.6</ele>
        <time>2022-10-29T04:20:26.000Z</time>
      </trkpt>
      <trkpt lat="27.841043" lon="86.736704">
        <ele>3890</ele>
        <time>2022-10-29T04:20:29.000Z</time>
      </trkpt>
      <trkpt lat="27.84103" lon="86.736685">
        <ele>3890.2</ele>
        <time>2022-10-29T04:20:31.000Z</time>
      </trkpt>
      <trkpt lat="27.841014" lon="86.736672">
        <ele>3890.8</ele>
        <time>2022-10-29T04:20:34.000Z</time>
      </trkpt>
      <trkpt lat="27.840995" lon="86.736666">
        <ele>3891</ele>
        <time>2022-10-29T04:20:37.000Z</time>
      </trkpt>
      <trkpt lat="27.840976" lon="86.736659">
        <ele>3891.8</ele>
        <time>2022-10-29T04:20:42.000Z</time>
      </trkpt>
      <trkpt lat="27.84096" lon="86.736646">
        <ele>3891.8</ele>
        <time>2022-10-29T04:20:44.000Z</time>
      </trkpt>
      <trkpt lat="27.840941" lon="86.736646">
        <ele>3892.4</ele>
        <time>2022-10-29T04:20:47.000Z</time>
      </trkpt>
      <trkpt lat="27.840925" lon="86.736634">
        <ele>3893.2</ele>
        <time>2022-10-29T04:20:52.000Z</time>
      </trkpt>
      <trkpt lat="27.840906" lon="86.736621">
        <ele>3893.8</ele>
        <time>2022-10-29T04:20:56.000Z</time>
      </trkpt>
      <trkpt lat="27.840886" lon="86.736608">
        <ele>3894</ele>
        <time>2022-10-29T04:20:59.000Z</time>
      </trkpt>
      <trkpt lat="27.840867" lon="86.736608">
        <ele>3894.4</ele>
        <time>2022-10-29T04:21:02.000Z</time>
      </trkpt>
      <trkpt lat="27.840845" lon="86.736595">
        <ele>3895</ele>
        <time>2022-10-29T04:21:06.000Z</time>
      </trkpt>
      <trkpt lat="27.840829" lon="86.73657">
        <ele>3895.4</ele>
        <time>2022-10-29T04:21:09.000Z</time>
      </trkpt>
      <trkpt lat="27.840822" lon="86.736544">
        <ele>3895.8</ele>
        <time>2022-10-29T04:21:12.000Z</time>
      </trkpt>
      <trkpt lat="27.840816" lon="86.736525">
        <ele>3896</ele>
        <time>2022-10-29T04:21:16.000Z</time>
      </trkpt>
      <trkpt lat="27.84081" lon="86.736506">
        <ele>3896.4</ele>
        <time>2022-10-29T04:21:18.000Z</time>
      </trkpt>
      <trkpt lat="27.840794" lon="86.736493">
        <ele>3897</ele>
        <time>2022-10-29T04:21:24.000Z</time>
      </trkpt>
      <trkpt lat="27.840774" lon="86.736486">
        <ele>3898</ele>
        <time>2022-10-29T04:21:30.000Z</time>
      </trkpt>
      <trkpt lat="27.840755" lon="86.736486">
        <ele>3898.6</ele>
        <time>2022-10-29T04:21:34.000Z</time>
      </trkpt>
      <trkpt lat="27.84073" lon="86.736493">
        <ele>3899.4</ele>
        <time>2022-10-29T04:21:39.000Z</time>
      </trkpt>
      <trkpt lat="27.84071" lon="86.736486">
        <ele>3900.4</ele>
        <time>2022-10-29T04:21:52.000Z</time>
      </trkpt>
      <trkpt lat="27.840714" lon="86.736461">
        <ele>3901.2</ele>
        <time>2022-10-29T04:21:58.000Z</time>
      </trkpt>
      <trkpt lat="27.84072" lon="86.736435">
        <ele>3902</ele>
        <time>2022-10-29T04:22:00.000Z</time>
      </trkpt>
      <trkpt lat="27.840736" lon="86.73641">
        <ele>3902.2</ele>
        <time>2022-10-29T04:22:04.000Z</time>
      </trkpt>
      <trkpt lat="27.840755" lon="86.736403">
        <ele>3902.8</ele>
        <time>2022-10-29T04:22:09.000Z</time>
      </trkpt>
      <trkpt lat="27.840771" lon="86.73639">
        <ele>3903.6</ele>
        <time>2022-10-29T04:22:15.000Z</time>
      </trkpt>
      <trkpt lat="27.840794" lon="86.73639">
        <ele>3904.6</ele>
        <time>2022-10-29T04:22:20.000Z</time>
      </trkpt>
      <trkpt lat="27.840774" lon="86.736384">
        <ele>3905.8</ele>
        <time>2022-10-29T04:22:33.000Z</time>
      </trkpt>
      <trkpt lat="27.840755" lon="86.73639">
        <ele>3906.6</ele>
        <time>2022-10-29T04:22:38.000Z</time>
      </trkpt>
      <trkpt lat="27.840733" lon="86.736384">
        <ele>3907.6</ele>
        <time>2022-10-29T04:22:43.000Z</time>
      </trkpt>
      <trkpt lat="27.840714" lon="86.736371">
        <ele>3908</ele>
        <time>2022-10-29T04:22:47.000Z</time>
      </trkpt>
      <trkpt lat="27.840701" lon="86.736352">
        <ele>3908.6</ele>
        <time>2022-10-29T04:22:51.000Z</time>
      </trkpt>
      <trkpt lat="27.840698" lon="86.736326">
        <ele>3908.8</ele>
        <time>2022-10-29T04:22:54.000Z</time>
      </trkpt>
      <trkpt lat="27.84071" lon="86.736307">
        <ele>3909.6</ele>
        <time>2022-10-29T04:23:00.000Z</time>
      </trkpt>
      <trkpt lat="27.84073" lon="86.736301">
        <ele>3910.4</ele>
        <time>2022-10-29T04:23:06.000Z</time>
      </trkpt>
      <trkpt lat="27.840746" lon="86.736288">
        <ele>3911</ele>
        <time>2022-10-29T04:23:10.000Z</time>
      </trkpt>
      <trkpt lat="27.840765" lon="86.736269">
        <ele>3911.6</ele>
        <time>2022-10-29T04:23:15.000Z</time>
      </trkpt>
      <trkpt lat="27.840787" lon="86.736262">
        <ele>3912.4</ele>
        <time>2022-10-29T04:23:20.000Z</time>
      </trkpt>
      <trkpt lat="27.840797" lon="86.736243">
        <ele>3913.2</ele>
        <time>2022-10-29T04:23:27.000Z</time>
      </trkpt>
      <trkpt lat="27.840797" lon="86.736211">
        <ele>3915.6</ele>
        <time>2022-10-29T04:23:44.000Z</time>
      </trkpt>
      <trkpt lat="27.840787" lon="86.736192">
        <ele>3916.2</ele>
        <time>2022-10-29T04:23:48.000Z</time>
      </trkpt>
      <trkpt lat="27.840778" lon="86.736173">
        <ele>3916.6</ele>
        <time>2022-10-29T04:23:51.000Z</time>
      </trkpt>
      <trkpt lat="27.840758" lon="86.736166">
        <ele>3917.6</ele>
        <time>2022-10-29T04:23:56.000Z</time>
      </trkpt>
      <trkpt lat="27.840739" lon="86.736166">
        <ele>3917.8</ele>
        <time>2022-10-29T04:24:03.000Z</time>
      </trkpt>
      <trkpt lat="27.84072" lon="86.736166">
        <ele>3918.6</ele>
        <time>2022-10-29T04:24:07.000Z</time>
      </trkpt>
      <trkpt lat="27.840701" lon="86.73616">
        <ele>3919</ele>
        <time>2022-10-29T04:24:12.000Z</time>
      </trkpt>
      <trkpt lat="27.840678" lon="86.736166">
        <ele>3919.6</ele>
        <time>2022-10-29T04:24:18.000Z</time>
      </trkpt>
      <trkpt lat="27.840659" lon="86.73616">
        <ele>3920.8</ele>
        <time>2022-10-29T04:24:24.000Z</time>
      </trkpt>
      <trkpt lat="27.840643" lon="86.736147">
        <ele>3921.8</ele>
        <time>2022-10-29T04:24:30.000Z</time>
      </trkpt>
      <trkpt lat="27.840627" lon="86.736134">
        <ele>3922</ele>
        <time>2022-10-29T04:24:33.000Z</time>
      </trkpt>
      <trkpt lat="27.840608" lon="86.736128">
        <ele>3922.8</ele>
        <time>2022-10-29T04:24:37.000Z</time>
      </trkpt>
      <trkpt lat="27.840589" lon="86.736115">
        <ele>3922.8</ele>
        <time>2022-10-29T04:24:40.000Z</time>
      </trkpt>
      <trkpt lat="27.84057" lon="86.736102">
        <ele>3923.8</ele>
        <time>2022-10-29T04:24:47.000Z</time>
      </trkpt>
      <trkpt lat="27.84055" lon="86.736102">
        <ele>3924</ele>
        <time>2022-10-29T04:24:51.000Z</time>
      </trkpt>
      <trkpt lat="27.840534" lon="86.73609">
        <ele>3924.4</ele>
        <time>2022-10-29T04:24:55.000Z</time>
      </trkpt>
      <trkpt lat="27.840512" lon="86.736077">
        <ele>3925</ele>
        <time>2022-10-29T04:24:59.000Z</time>
      </trkpt>
      <trkpt lat="27.840493" lon="86.736064">
        <ele>3925.6</ele>
        <time>2022-10-29T04:25:03.000Z</time>
      </trkpt>
      <trkpt lat="27.840474" lon="86.736064">
        <ele>3926</ele>
        <time>2022-10-29T04:25:06.000Z</time>
      </trkpt>
      <trkpt lat="27.840451" lon="86.736064">
        <ele>3926.2</ele>
        <time>2022-10-29T04:25:10.000Z</time>
      </trkpt>
      <trkpt lat="27.840432" lon="86.736051">
        <ele>3926.4</ele>
        <time>2022-10-29T04:25:14.000Z</time>
      </trkpt>
      <trkpt lat="27.840413" lon="86.736038">
        <ele>3926.8</ele>
        <time>2022-10-29T04:25:17.000Z</time>
      </trkpt>
      <trkpt lat="27.840394" lon="86.736032">
        <ele>3927.4</ele>
        <time>2022-10-29T04:25:21.000Z</time>
      </trkpt>
      <trkpt lat="27.840374" lon="86.736026">
        <ele>3928.2</ele>
        <time>2022-10-29T04:25:25.000Z</time>
      </trkpt>
      <trkpt lat="27.840349" lon="86.736032">
        <ele>3928.4</ele>
        <time>2022-10-29T04:25:29.000Z</time>
      </trkpt>
      <trkpt lat="27.84033" lon="86.736032">
        <ele>3928.8</ele>
        <time>2022-10-29T04:25:33.000Z</time>
      </trkpt>
      <trkpt lat="27.84031" lon="86.736026">
        <ele>3928.8</ele>
        <time>2022-10-29T04:25:36.000Z</time>
      </trkpt>
      <trkpt lat="27.840291" lon="86.736032">
        <ele>3930.6</ele>
        <time>2022-10-29T04:25:44.000Z</time>
      </trkpt>
      <trkpt lat="27.840275" lon="86.736013">
        <ele>3931.2</ele>
        <time>2022-10-29T04:25:47.000Z</time>
      </trkpt>
      <trkpt lat="27.840282" lon="86.735994">
        <ele>3931.4</ele>
        <time>2022-10-29T04:25:51.000Z</time>
      </trkpt>
      <trkpt lat="27.840301" lon="86.735987">
        <ele>3932.2</ele>
        <time>2022-10-29T04:25:55.000Z</time>
      </trkpt>
      <trkpt lat="27.84032" lon="86.735974">
        <ele>3932.2</ele>
        <time>2022-10-29T04:25:58.000Z</time>
      </trkpt>
      <trkpt lat="27.840339" lon="86.735962">
        <ele>3932.8</ele>
        <time>2022-10-29T04:26:01.000Z</time>
      </trkpt>
      <trkpt lat="27.840358" lon="86.735955">
        <ele>3933.4</ele>
        <time>2022-10-29T04:26:05.000Z</time>
      </trkpt>
      <trkpt lat="27.840378" lon="86.735949">
        <ele>3932.8</ele>
        <time>2022-10-29T04:26:09.000Z</time>
      </trkpt>
      <trkpt lat="27.8404" lon="86.735949">
        <ele>3933.2</ele>
        <time>2022-10-29T04:26:12.000Z</time>
      </trkpt>
      <trkpt lat="27.840419" lon="86.735936">
        <ele>3933.6</ele>
        <time>2022-10-29T04:26:16.000Z</time>
      </trkpt>
      <trkpt lat="27.840438" lon="86.735949">
        <ele>3934.8</ele>
        <time>2022-10-29T04:26:24.000Z</time>
      </trkpt>
      <trkpt lat="27.840458" lon="86.735949">
        <ele>3935.2</ele>
        <time>2022-10-29T04:26:28.000Z</time>
      </trkpt>
      <trkpt lat="27.84048" lon="86.735936">
        <ele>3935.8</ele>
        <time>2022-10-29T04:26:33.000Z</time>
      </trkpt>
      <trkpt lat="27.840499" lon="86.735949">
        <ele>3936.2</ele>
        <time>2022-10-29T04:26:37.000Z</time>
      </trkpt>
      <trkpt lat="27.840522" lon="86.735955">
        <ele>3936.8</ele>
        <time>2022-10-29T04:26:42.000Z</time>
      </trkpt>
      <trkpt lat="27.840541" lon="86.735936">
        <ele>3937.8</ele>
        <time>2022-10-29T04:26:48.000Z</time>
      </trkpt>
      <trkpt lat="27.84056" lon="86.73593">
        <ele>3939.2</ele>
        <time>2022-10-29T04:26:54.000Z</time>
      </trkpt>
      <trkpt lat="27.840541" lon="86.73593">
        <ele>3939.6</ele>
        <time>2022-10-29T04:27:10.000Z</time>
      </trkpt>
      <trkpt lat="27.840525" lon="86.735917">
        <ele>3939.8</ele>
        <time>2022-10-29T04:27:16.000Z</time>
      </trkpt>
      <trkpt lat="27.840518" lon="86.735891">
        <ele>3940.4</ele>
        <time>2022-10-29T04:27:20.000Z</time>
      </trkpt>
      <trkpt lat="27.840509" lon="86.735872">
        <ele>3941.8</ele>
        <time>2022-10-29T04:27:25.000Z</time>
      </trkpt>
      <trkpt lat="27.840493" lon="86.735853">
        <ele>3942.6</ele>
        <time>2022-10-29T04:27:30.000Z</time>
      </trkpt>
      <trkpt lat="27.84047" lon="86.735853">
        <ele>3943.4</ele>
        <time>2022-10-29T04:27:36.000Z</time>
      </trkpt>
      <trkpt lat="27.840451" lon="86.735853">
        <ele>3943.8</ele>
        <time>2022-10-29T04:27:40.000Z</time>
      </trkpt>
      <trkpt lat="27.840438" lon="86.735834">
        <ele>3945.2</ele>
        <time>2022-10-29T04:27:47.000Z</time>
      </trkpt>
      <trkpt lat="27.840419" lon="86.735827">
        <ele>3946</ele>
        <time>2022-10-29T04:27:54.000Z</time>
      </trkpt>
      <trkpt lat="27.840403" lon="86.735814">
        <ele>3946.6</ele>
        <time>2022-10-29T04:27:58.000Z</time>
      </trkpt>
      <trkpt lat="27.840397" lon="86.735795">
        <ele>3948</ele>
        <time>2022-10-29T04:28:05.000Z</time>
      </trkpt>
      <trkpt lat="27.840413" lon="86.735776">
        <ele>3949</ele>
        <time>2022-10-29T04:28:09.000Z</time>
      </trkpt>
      <trkpt lat="27.840432" lon="86.73577">
        <ele>3949.6</ele>
        <time>2022-10-29T04:28:17.000Z</time>
      </trkpt>
      <trkpt lat="27.840422" lon="86.73575">
        <ele>3950.4</ele>
        <time>2022-10-29T04:28:27.000Z</time>
      </trkpt>
      <trkpt lat="27.840403" lon="86.73575">
        <ele>3951.2</ele>
        <time>2022-10-29T04:28:34.000Z</time>
      </trkpt>
      <trkpt lat="27.840384" lon="86.735738">
        <ele>3951.6</ele>
        <time>2022-10-29T04:28:40.000Z</time>
      </trkpt>
      <trkpt lat="27.840352" lon="86.735731">
        <ele>3956.8</ele>
        <time>2022-10-29T04:31:21.000Z</time>
      </trkpt>
      <trkpt lat="27.840285" lon="86.735674">
        <ele>3960</ele>
        <time>2022-10-29T04:31:58.000Z</time>
      </trkpt>
      <trkpt lat="27.840259" lon="86.735667">
        <ele>3960.2</ele>
        <time>2022-10-29T04:32:00.000Z</time>
      </trkpt>
      <trkpt lat="27.84024" lon="86.735667">
        <ele>3960.4</ele>
        <time>2022-10-29T04:32:02.000Z</time>
      </trkpt>
      <trkpt lat="27.840218" lon="86.735667">
        <ele>3961</ele>
        <time>2022-10-29T04:32:04.000Z</time>
      </trkpt>
      <trkpt lat="27.840198" lon="86.735674">
        <ele>3961</ele>
        <time>2022-10-29T04:32:06.000Z</time>
      </trkpt>
      <trkpt lat="27.840179" lon="86.735674">
        <ele>3961.8</ele>
        <time>2022-10-29T04:32:09.000Z</time>
      </trkpt>
      <trkpt lat="27.84016" lon="86.73568">
        <ele>3962.2</ele>
        <time>2022-10-29T04:32:14.000Z</time>
      </trkpt>
      <trkpt lat="27.84015" lon="86.735706">
        <ele>3963</ele>
        <time>2022-10-29T04:32:22.000Z</time>
      </trkpt>
      <trkpt lat="27.840134" lon="86.735718">
        <ele>3963.6</ele>
        <time>2022-10-29T04:32:27.000Z</time>
      </trkpt>
      <trkpt lat="27.840115" lon="86.735738">
        <ele>3965.2</ele>
        <time>2022-10-29T04:32:35.000Z</time>
      </trkpt>
      <trkpt lat="27.840099" lon="86.73575">
        <ele>3965.6</ele>
        <time>2022-10-29T04:32:38.000Z</time>
      </trkpt>
      <trkpt lat="27.84008" lon="86.735757">
        <ele>3966</ele>
        <time>2022-10-29T04:32:43.000Z</time>
      </trkpt>
      <trkpt lat="27.840061" lon="86.735763">
        <ele>3967</ele>
        <time>2022-10-29T04:32:47.000Z</time>
      </trkpt>
      <trkpt lat="27.840051" lon="86.735789">
        <ele>3967.4</ele>
        <time>2022-10-29T04:32:52.000Z</time>
      </trkpt>
      <trkpt lat="27.840032" lon="86.735795">
        <ele>3967.8</ele>
        <time>2022-10-29T04:32:57.000Z</time>
      </trkpt>
      <trkpt lat="27.840016" lon="86.735808">
        <ele>3968.4</ele>
        <time>2022-10-29T04:33:02.000Z</time>
      </trkpt>
      <trkpt lat="27.840006" lon="86.735827">
        <ele>3968.4</ele>
        <time>2022-10-29T04:33:05.000Z</time>
      </trkpt>
      <trkpt lat="27.83999" lon="86.73584">
        <ele>3969.2</ele>
        <time>2022-10-29T04:33:12.000Z</time>
      </trkpt>
      <trkpt lat="27.839974" lon="86.735853">
        <ele>3970.8</ele>
        <time>2022-10-29T04:33:19.000Z</time>
      </trkpt>
      <trkpt lat="27.839958" lon="86.735872">
        <ele>3971</ele>
        <time>2022-10-29T04:33:24.000Z</time>
      </trkpt>
      <trkpt lat="27.839939" lon="86.735891">
        <ele>3972</ele>
        <time>2022-10-29T04:33:30.000Z</time>
      </trkpt>
      <trkpt lat="27.839933" lon="86.735917">
        <ele>3972.8</ele>
        <time>2022-10-29T04:33:33.000Z</time>
      </trkpt>
      <trkpt lat="27.839914" lon="86.735936">
        <ele>3973.4</ele>
        <time>2022-10-29T04:33:37.000Z</time>
      </trkpt>
      <trkpt lat="27.839898" lon="86.735949">
        <ele>3973.4</ele>
        <time>2022-10-29T04:33:39.000Z</time>
      </trkpt>
      <trkpt lat="27.839878" lon="86.735968">
        <ele>3973.4</ele>
        <time>2022-10-29T04:33:42.000Z</time>
      </trkpt>
      <trkpt lat="27.839859" lon="86.735974">
        <ele>3973.8</ele>
        <time>2022-10-29T04:33:45.000Z</time>
      </trkpt>
      <trkpt lat="27.83984" lon="86.735974">
        <ele>3974</ele>
        <time>2022-10-29T04:33:48.000Z</time>
      </trkpt>
      <trkpt lat="27.839818" lon="86.735974">
        <ele>3974</ele>
        <time>2022-10-29T04:33:52.000Z</time>
      </trkpt>
      <trkpt lat="27.839795" lon="86.735968">
        <ele>3974.4</ele>
        <time>2022-10-29T04:33:55.000Z</time>
      </trkpt>
      <trkpt lat="27.839776" lon="86.735968">
        <ele>3975.2</ele>
        <time>2022-10-29T04:33:57.000Z</time>
      </trkpt>
      <trkpt lat="27.839754" lon="86.735974">
        <ele>3975.4</ele>
        <time>2022-10-29T04:34:00.000Z</time>
      </trkpt>
      <trkpt lat="27.839734" lon="86.735968">
        <ele>3976.2</ele>
        <time>2022-10-29T04:34:04.000Z</time>
      </trkpt>
      <trkpt lat="27.839715" lon="86.735974">
        <ele>3976</ele>
        <time>2022-10-29T04:34:08.000Z</time>
      </trkpt>
      <trkpt lat="27.839699" lon="86.735987">
        <ele>3976.6</ele>
        <time>2022-10-29T04:34:11.000Z</time>
      </trkpt>
      <trkpt lat="27.83968" lon="86.736">
        <ele>3976.6</ele>
        <time>2022-10-29T04:34:15.000Z</time>
      </trkpt>
      <trkpt lat="27.839658" lon="86.736013">
        <ele>3977.4</ele>
        <time>2022-10-29T04:34:20.000Z</time>
      </trkpt>
      <trkpt lat="27.839638" lon="86.736013">
        <ele>3978</ele>
        <time>2022-10-29T04:34:56.000Z</time>
      </trkpt>
      <trkpt lat="27.83961" lon="86.736026">
        <ele>3978.2</ele>
        <time>2022-10-29T04:34:58.000Z</time>
      </trkpt>
      <trkpt lat="27.839587" lon="86.736038">
        <ele>3978.6</ele>
        <time>2022-10-29T04:35:00.000Z</time>
      </trkpt>
      <trkpt lat="27.839565" lon="86.736045">
        <ele>3979.2</ele>
        <time>2022-10-29T04:35:02.000Z</time>
      </trkpt>
      <trkpt lat="27.839539" lon="86.736064">
        <ele>3979.2</ele>
        <time>2022-10-29T04:35:04.000Z</time>
      </trkpt>
      <trkpt lat="27.839523" lon="86.736077">
        <ele>3980.2</ele>
        <time>2022-10-29T04:35:09.000Z</time>
      </trkpt>
      <trkpt lat="27.839507" lon="86.736051">
        <ele>3980.4</ele>
        <time>2022-10-29T04:35:17.000Z</time>
      </trkpt>
      <trkpt lat="27.839526" lon="86.736038">
        <ele>3980.2</ele>
        <time>2022-10-29T04:35:20.000Z</time>
      </trkpt>
      <trkpt lat="27.839546" lon="86.736026">
        <ele>3980</ele>
        <time>2022-10-29T04:35:23.000Z</time>
      </trkpt>
      <trkpt lat="27.839558" lon="86.736006">
        <ele>3979.4</ele>
        <time>2022-10-29T04:35:25.000Z</time>
      </trkpt>
      <trkpt lat="27.839578" lon="86.736">
        <ele>3979.4</ele>
        <time>2022-10-29T04:35:27.000Z</time>
      </trkpt>
      <trkpt lat="27.839574" lon="86.736026">
        <ele>3979.2</ele>
        <time>2022-10-29T04:35:39.000Z</time>
      </trkpt>
      <trkpt lat="27.839549" lon="86.736032">
        <ele>3979</ele>
        <time>2022-10-29T04:35:42.000Z</time>
      </trkpt>
      <trkpt lat="27.83953" lon="86.736038">
        <ele>3979.4</ele>
        <time>2022-10-29T04:35:45.000Z</time>
      </trkpt>
      <trkpt lat="27.83951" lon="86.736038">
        <ele>3980</ele>
        <time>2022-10-29T04:35:49.000Z</time>
      </trkpt>
      <trkpt lat="27.839491" lon="86.736038">
        <ele>3980.2</ele>
        <time>2022-10-29T04:35:51.000Z</time>
      </trkpt>
      <trkpt lat="27.839514" lon="86.736045">
        <ele>3980.2</ele>
        <time>2022-10-29T04:36:06.000Z</time>
      </trkpt>
      <trkpt lat="27.839517" lon="86.736077">
        <ele>3980.4</ele>
        <time>2022-10-29T04:36:09.000Z</time>
      </trkpt>
      <trkpt lat="27.83951" lon="86.736102">
        <ele>3980.6</ele>
        <time>2022-10-29T04:36:12.000Z</time>
      </trkpt>
      <trkpt lat="27.839507" lon="86.736128">
        <ele>3980.6</ele>
        <time>2022-10-29T04:36:15.000Z</time>
      </trkpt>
      <trkpt lat="27.83951" lon="86.73616">
        <ele>3981.2</ele>
        <time>2022-10-29T04:36:18.000Z</time>
      </trkpt>
      <trkpt lat="27.839507" lon="86.736186">
        <ele>3981.4</ele>
        <time>2022-10-29T04:36:20.000Z</time>
      </trkpt>
      <trkpt lat="27.839507" lon="86.736211">
        <ele>3981.6</ele>
        <time>2022-10-29T04:36:23.000Z</time>
      </trkpt>
      <trkpt lat="27.839507" lon="86.736243">
        <ele>3981.8</ele>
        <time>2022-10-29T04:36:25.000Z</time>
      </trkpt>
      <trkpt lat="27.839507" lon="86.736269">
        <ele>3981.6</ele>
        <time>2022-10-29T04:36:27.000Z</time>
      </trkpt>
      <trkpt lat="27.839504" lon="86.736307">
        <ele>3981.6</ele>
        <time>2022-10-29T04:36:30.000Z</time>
      </trkpt>
      <trkpt lat="27.839501" lon="86.736333">
        <ele>3981.8</ele>
        <time>2022-10-29T04:36:33.000Z</time>
      </trkpt>
      <trkpt lat="27.839491" lon="86.736358">
        <ele>3982</ele>
        <time>2022-10-29T04:36:35.000Z</time>
      </trkpt>
      <trkpt lat="27.839469" lon="86.736358">
        <ele>3982.4</ele>
        <time>2022-10-29T04:36:38.000Z</time>
      </trkpt>
      <trkpt lat="27.83945" lon="86.736365">
        <ele>3982.6</ele>
        <time>2022-10-29T04:36:42.000Z</time>
      </trkpt>
      <trkpt lat="27.839437" lon="86.736384">
        <ele>3983</ele>
        <time>2022-10-29T04:36:44.000Z</time>
      </trkpt>
      <trkpt lat="27.839421" lon="86.736397">
        <ele>3983.4</ele>
        <time>2022-10-29T04:36:50.000Z</time>
      </trkpt>
      <trkpt lat="27.839402" lon="86.736422">
        <ele>3983.6</ele>
        <time>2022-10-29T04:36:53.000Z</time>
      </trkpt>
      <trkpt lat="27.839395" lon="86.736442">
        <ele>3984</ele>
        <time>2022-10-29T04:36:55.000Z</time>
      </trkpt>
      <trkpt lat="27.839386" lon="86.736461">
        <ele>3983.8</ele>
        <time>2022-10-29T04:36:57.000Z</time>
      </trkpt>
      <trkpt lat="27.839373" lon="86.73648">
        <ele>3984.4</ele>
        <time>2022-10-29T04:37:00.000Z</time>
      </trkpt>
      <trkpt lat="27.83936" lon="86.736506">
        <ele>3984.8</ele>
        <time>2022-10-29T04:37:03.000Z</time>
      </trkpt>
      <trkpt lat="27.839347" lon="86.736525">
        <ele>3985.6</ele>
        <time>2022-10-29T04:37:07.000Z</time>
      </trkpt>
      <trkpt lat="27.839341" lon="86.736544">
        <ele>3986</ele>
        <time>2022-10-29T04:37:10.000Z</time>
      </trkpt>
      <trkpt lat="27.839334" lon="86.736563">
        <ele>3986.6</ele>
        <time>2022-10-29T04:37:13.000Z</time>
      </trkpt>
      <trkpt lat="27.839331" lon="86.736589">
        <ele>3987</ele>
        <time>2022-10-29T04:37:17.000Z</time>
      </trkpt>
      <trkpt lat="27.839322" lon="86.736621">
        <ele>3987</ele>
        <time>2022-10-29T04:37:21.000Z</time>
      </trkpt>
      <trkpt lat="27.839318" lon="86.736646">
        <ele>3987.4</ele>
        <time>2022-10-29T04:37:49.000Z</time>
      </trkpt>
      <trkpt lat="27.839312" lon="86.736666">
        <ele>3987.2</ele>
        <time>2022-10-29T04:37:50.000Z</time>
      </trkpt>
      <trkpt lat="27.839309" lon="86.736691">
        <ele>3987.4</ele>
        <time>2022-10-29T04:37:53.000Z</time>
      </trkpt>
      <trkpt lat="27.839318" lon="86.73671">
        <ele>3987.4</ele>
        <time>2022-10-29T04:37:55.000Z</time>
      </trkpt>
      <trkpt lat="27.839334" lon="86.736723">
        <ele>3988</ele>
        <time>2022-10-29T04:38:53.000Z</time>
      </trkpt>
      <trkpt lat="27.839344" lon="86.736742">
        <ele>3988.2</ele>
        <time>2022-10-29T04:38:55.000Z</time>
      </trkpt>
      <trkpt lat="27.839357" lon="86.736762">
        <ele>3988.6</ele>
        <time>2022-10-29T04:38:57.000Z</time>
      </trkpt>
      <trkpt lat="27.839366" lon="86.736781">
        <ele>3989</ele>
        <time>2022-10-29T04:38:59.000Z</time>
      </trkpt>
      <trkpt lat="27.83937" lon="86.736806">
        <ele>3989.2</ele>
        <time>2022-10-29T04:39:01.000Z</time>
      </trkpt>
      <trkpt lat="27.83937" lon="86.736832">
        <ele>3989.6</ele>
        <time>2022-10-29T04:39:08.000Z</time>
      </trkpt>
      <trkpt lat="27.839373" lon="86.736806">
        <ele>3989.6</ele>
        <time>2022-10-29T04:40:09.000Z</time>
      </trkpt>
      <trkpt lat="27.839366" lon="86.736768">
        <ele>3988.8</ele>
        <time>2022-10-29T04:40:11.000Z</time>
      </trkpt>
      <trkpt lat="27.839347" lon="86.736742">
        <ele>3988.6</ele>
        <time>2022-10-29T04:40:13.000Z</time>
      </trkpt>
      <trkpt lat="27.839338" lon="86.736723">
        <ele>3988.6</ele>
        <time>2022-10-29T04:40:14.000Z</time>
      </trkpt>
      <trkpt lat="27.839318" lon="86.736704">
        <ele>3988</ele>
        <time>2022-10-29T04:40:16.000Z</time>
      </trkpt>
      <trkpt lat="27.83935" lon="86.736781">
        <ele>3989.4</ele>
        <time>2022-10-29T04:42:35.000Z</time>
      </trkpt>
      <trkpt lat="27.839341" lon="86.736762">
        <ele>3988.8</ele>
        <time>2022-10-29T04:42:36.000Z</time>
      </trkpt>
      <trkpt lat="27.839328" lon="86.73673">
        <ele>3988.4</ele>
        <time>2022-10-29T04:42:39.000Z</time>
      </trkpt>
      <trkpt lat="27.839315" lon="86.73671">
        <ele>3987.6</ele>
        <time>2022-10-29T04:42:44.000Z</time>
      </trkpt>
      <trkpt lat="27.839363" lon="86.736672">
        <ele>3992.8</ele>
        <time>2022-10-29T04:53:20.000Z</time>
      </trkpt>
      <trkpt lat="27.839331" lon="86.736659">
        <ele>3992.8</ele>
        <time>2022-10-29T04:53:22.000Z</time>
      </trkpt>
      <trkpt lat="27.839309" lon="86.736672">
        <ele>3992.8</ele>
        <time>2022-10-29T04:53:24.000Z</time>
      </trkpt>
      <trkpt lat="27.839328" lon="86.736672">
        <ele>3993</ele>
        <time>2022-10-29T04:53:30.000Z</time>
      </trkpt>
      <trkpt lat="27.839325" lon="86.736704">
        <ele>3993</ele>
        <time>2022-10-29T04:53:33.000Z</time>
      </trkpt>
      <trkpt lat="27.839315" lon="86.736723">
        <ele>3993</ele>
        <time>2022-10-29T04:53:35.000Z</time>
      </trkpt>
      <trkpt lat="27.839328" lon="86.736704">
        <ele>3993</ele>
        <time>2022-10-29T04:53:40.000Z</time>
      </trkpt>
      <trkpt lat="27.839341" lon="86.736723">
        <ele>3993</ele>
        <time>2022-10-29T04:53:44.000Z</time>
      </trkpt>
      <trkpt lat="27.839357" lon="86.73671">
        <ele>3993.2</ele>
        <time>2022-10-29T04:53:55.000Z</time>
      </trkpt>
      <trkpt lat="27.839379" lon="86.736717">
        <ele>3993</ele>
        <time>2022-10-29T04:53:58.000Z</time>
      </trkpt>
      <trkpt lat="27.839357" lon="86.736717">
        <ele>3993.2</ele>
        <time>2022-10-29T04:54:11.000Z</time>
      </trkpt>
      <trkpt lat="27.839382" lon="86.736717">
        <ele>3992.8</ele>
        <time>2022-10-29T04:54:16.000Z</time>
      </trkpt>
      <trkpt lat="27.839408" lon="86.73671">
        <ele>3992.8</ele>
        <time>2022-10-29T04:54:20.000Z</time>
      </trkpt>
      <trkpt lat="27.839395" lon="86.73673">
        <ele>3993.2</ele>
        <time>2022-10-29T04:54:45.000Z</time>
      </trkpt>
      <trkpt lat="27.839389" lon="86.736749">
        <ele>3993</ele>
        <time>2022-10-29T04:54:48.000Z</time>
      </trkpt>
      <trkpt lat="27.839376" lon="86.73673">
        <ele>3993</ele>
        <time>2022-10-29T04:55:06.000Z</time>
      </trkpt>
      <trkpt lat="27.839357" lon="86.736717">
        <ele>3993</ele>
        <time>2022-10-29T04:55:10.000Z</time>
      </trkpt>
      <trkpt lat="27.839338" lon="86.73673">
        <ele>3991.8</ele>
        <time>2022-10-29T04:55:14.000Z</time>
      </trkpt>
      <trkpt lat="27.839325" lon="86.73671">
        <ele>3990.6</ele>
        <time>2022-10-29T04:55:20.000Z</time>
      </trkpt>
      <trkpt lat="27.839318" lon="86.73673">
        <ele>3989.8</ele>
        <time>2022-10-29T04:55:43.000Z</time>
      </trkpt>
      <trkpt lat="27.839325" lon="86.736704">
        <ele>3988.4</ele>
        <time>2022-10-29T05:04:15.000Z</time>
      </trkpt>
      <trkpt lat="27.839328" lon="86.736672">
        <ele>3988.4</ele>
        <time>2022-10-29T05:04:17.000Z</time>
      </trkpt>
      <trkpt lat="27.839322" lon="86.736646">
        <ele>3988.4</ele>
        <time>2022-10-29T05:04:19.000Z</time>
      </trkpt>
      <trkpt lat="27.839318" lon="86.736621">
        <ele>3988.4</ele>
        <time>2022-10-29T05:04:21.000Z</time>
      </trkpt>
      <trkpt lat="27.839318" lon="86.736589">
        <ele>3988.2</ele>
        <time>2022-10-29T05:04:24.000Z</time>
      </trkpt>
      <trkpt lat="27.839325" lon="86.736563">
        <ele>3988.2</ele>
        <time>2022-10-29T05:04:27.000Z</time>
      </trkpt>
      <trkpt lat="27.839331" lon="86.736544">
        <ele>3987.8</ele>
        <time>2022-10-29T05:04:29.000Z</time>
      </trkpt>
      <trkpt lat="27.839341" lon="86.736525">
        <ele>3987.8</ele>
        <time>2022-10-29T05:04:31.000Z</time>
      </trkpt>
      <trkpt lat="27.83936" lon="86.736506">
        <ele>3987.2</ele>
        <time>2022-10-29T05:04:34.000Z</time>
      </trkpt>
      <trkpt lat="27.83937" lon="86.736486">
        <ele>3986.4</ele>
        <time>2022-10-29T05:04:36.000Z</time>
      </trkpt>
      <trkpt lat="27.839376" lon="86.736467">
        <ele>3986.2</ele>
        <time>2022-10-29T05:04:38.000Z</time>
      </trkpt>
      <trkpt lat="27.839389" lon="86.736448">
        <ele>3985.6</ele>
        <time>2022-10-29T05:04:40.000Z</time>
      </trkpt>
      <trkpt lat="27.839398" lon="86.736429">
        <ele>3985.2</ele>
        <time>2022-10-29T05:04:43.000Z</time>
      </trkpt>
      <trkpt lat="27.839405" lon="86.736403">
        <ele>3985.2</ele>
        <time>2022-10-29T05:04:45.000Z</time>
      </trkpt>
      <trkpt lat="27.839414" lon="86.736384">
        <ele>3984.6</ele>
        <time>2022-10-29T05:04:48.000Z</time>
      </trkpt>
      <trkpt lat="27.839421" lon="86.736365">
        <ele>3984.4</ele>
        <time>2022-10-29T05:04:50.000Z</time>
      </trkpt>
      <trkpt lat="27.839437" lon="86.736346">
        <ele>3984.4</ele>
        <time>2022-10-29T05:04:54.000Z</time>
      </trkpt>
      <trkpt lat="27.839459" lon="86.736352">
        <ele>3984</ele>
        <time>2022-10-29T05:04:59.000Z</time>
      </trkpt>
      <trkpt lat="27.839478" lon="86.736333">
        <ele>3983.2</ele>
        <time>2022-10-29T05:05:05.000Z</time>
      </trkpt>
      <trkpt lat="27.839482" lon="86.736307">
        <ele>3983.4</ele>
        <time>2022-10-29T05:05:07.000Z</time>
      </trkpt>
      <trkpt lat="27.839485" lon="86.736275">
        <ele>3983.2</ele>
        <time>2022-10-29T05:05:09.000Z</time>
      </trkpt>
      <trkpt lat="27.839485" lon="86.736243">
        <ele>3983</ele>
        <time>2022-10-29T05:05:11.000Z</time>
      </trkpt>
      <trkpt lat="27.839478" lon="86.736211">
        <ele>3983.2</ele>
        <time>2022-10-29T05:05:14.000Z</time>
      </trkpt>
      <trkpt lat="27.839488" lon="86.736192">
        <ele>3983</ele>
        <time>2022-10-29T05:05:16.000Z</time>
      </trkpt>
      <trkpt lat="27.839494" lon="86.736173">
        <ele>3983</ele>
        <time>2022-10-29T05:05:23.000Z</time>
      </trkpt>
      <trkpt lat="27.839507" lon="86.736154">
        <ele>3982.2</ele>
        <time>2022-10-29T05:05:37.000Z</time>
      </trkpt>
      <trkpt lat="27.839507" lon="86.736128">
        <ele>3982.2</ele>
        <time>2022-10-29T05:05:38.000Z</time>
      </trkpt>
      <trkpt lat="27.839507" lon="86.736102">
        <ele>3982.2</ele>
        <time>2022-10-29T05:05:40.000Z</time>
      </trkpt>
      <trkpt lat="27.839501" lon="86.736083">
        <ele>3982.2</ele>
        <time>2022-10-29T05:05:41.000Z</time>
      </trkpt>
      <trkpt lat="27.839488" lon="86.736064">
        <ele>3981.8</ele>
        <time>2022-10-29T05:05:45.000Z</time>
      </trkpt>
      <trkpt lat="27.839469" lon="86.736051">
        <ele>3982.2</ele>
        <time>2022-10-29T05:05:53.000Z</time>
      </trkpt>
      <trkpt lat="27.83945" lon="86.736038">
        <ele>3982.4</ele>
        <time>2022-10-29T05:05:56.000Z</time>
      </trkpt>
      <trkpt lat="27.83945" lon="86.736013">
        <ele>3981.8</ele>
        <time>2022-10-29T05:05:59.000Z</time>
      </trkpt>
      <trkpt lat="27.839456" lon="86.735994">
        <ele>3981.4</ele>
        <time>2022-10-29T05:06:08.000Z</time>
      </trkpt>
      <trkpt lat="27.839459" lon="86.735968">
        <ele>3981.4</ele>
        <time>2022-10-29T05:06:13.000Z</time>
      </trkpt>
      <trkpt lat="27.839456" lon="86.735936">
        <ele>3981</ele>
        <time>2022-10-29T05:06:16.000Z</time>
      </trkpt>
      <trkpt lat="27.839446" lon="86.73591">
        <ele>3981.4</ele>
        <time>2022-10-29T05:06:19.000Z</time>
      </trkpt>
      <trkpt lat="27.839437" lon="86.735891">
        <ele>3981.4</ele>
        <time>2022-10-29T05:06:21.000Z</time>
      </trkpt>
      <trkpt lat="27.839427" lon="86.735872">
        <ele>3981</ele>
        <time>2022-10-29T05:06:23.000Z</time>
      </trkpt>
      <trkpt lat="27.839421" lon="86.735846">
        <ele>3980.4</ele>
        <time>2022-10-29T05:06:25.000Z</time>
      </trkpt>
      <trkpt lat="27.839411" lon="86.735827">
        <ele>3980.6</ele>
        <time>2022-10-29T05:06:28.000Z</time>
      </trkpt>
      <trkpt lat="27.839411" lon="86.735802">
        <ele>3980.6</ele>
        <time>2022-10-29T05:06:30.000Z</time>
      </trkpt>
      <trkpt lat="27.839386" lon="86.735789">
        <ele>3979.8</ele>
        <time>2022-10-29T05:06:34.000Z</time>
      </trkpt>
      <trkpt lat="27.839379" lon="86.73577">
        <ele>3979.4</ele>
        <time>2022-10-29T05:06:35.000Z</time>
      </trkpt>
      <trkpt lat="27.83936" lon="86.73575">
        <ele>3979</ele>
        <time>2022-10-29T05:06:37.000Z</time>
      </trkpt>
      <trkpt lat="27.839341" lon="86.735731">
        <ele>3978.8</ele>
        <time>2022-10-29T05:06:39.000Z</time>
      </trkpt>
      <trkpt lat="27.839325" lon="86.735712">
        <ele>3978.8</ele>
        <time>2022-10-29T05:06:41.000Z</time>
      </trkpt>
      <trkpt lat="27.839318" lon="86.73568">
        <ele>3978.6</ele>
        <time>2022-10-29T05:06:43.000Z</time>
      </trkpt>
      <trkpt lat="27.839312" lon="86.735654">
        <ele>3978.4</ele>
        <time>2022-10-29T05:06:45.000Z</time>
      </trkpt>
      <trkpt lat="27.839302" lon="86.735635">
        <ele>3978</ele>
        <time>2022-10-29T05:06:47.000Z</time>
      </trkpt>
      <trkpt lat="27.839296" lon="86.735603">
        <ele>3977.8</ele>
        <time>2022-10-29T05:06:49.000Z</time>
      </trkpt>
      <trkpt lat="27.83928" lon="86.735578">
        <ele>3977.8</ele>
        <time>2022-10-29T05:06:51.000Z</time>
      </trkpt>
      <trkpt lat="27.839264" lon="86.735558">
        <ele>3977.4</ele>
        <time>2022-10-29T05:06:54.000Z</time>
      </trkpt>
      <trkpt lat="27.839251" lon="86.735539">
        <ele>3976.6</ele>
        <time>2022-10-29T05:06:56.000Z</time>
      </trkpt>
      <trkpt lat="27.839229" lon="86.735526">
        <ele>3975.8</ele>
        <time>2022-10-29T05:06:59.000Z</time>
      </trkpt>
      <trkpt lat="27.839213" lon="86.735514">
        <ele>3975.4</ele>
        <time>2022-10-29T05:07:01.000Z</time>
      </trkpt>
      <trkpt lat="27.83919" lon="86.735507">
        <ele>3975.4</ele>
        <time>2022-10-29T05:07:03.000Z</time>
      </trkpt>
      <trkpt lat="27.839171" lon="86.735494">
        <ele>3974.6</ele>
        <time>2022-10-29T05:07:05.000Z</time>
      </trkpt>
      <trkpt lat="27.839158" lon="86.735475">
        <ele>3973.8</ele>
        <time>2022-10-29T05:07:07.000Z</time>
      </trkpt>
      <trkpt lat="27.839149" lon="86.735456">
        <ele>3973.2</ele>
        <time>2022-10-29T05:07:09.000Z</time>
      </trkpt>
      <trkpt lat="27.839136" lon="86.735437">
        <ele>3972.6</ele>
        <time>2022-10-29T05:07:12.000Z</time>
      </trkpt>
      <trkpt lat="27.839123" lon="86.735418">
        <ele>3972.4</ele>
        <time>2022-10-29T05:07:14.000Z</time>
      </trkpt>
      <trkpt lat="27.839107" lon="86.735405">
        <ele>3972.2</ele>
        <time>2022-10-29T05:07:16.000Z</time>
      </trkpt>
      <trkpt lat="27.839091" lon="86.735379">
        <ele>3971.6</ele>
        <time>2022-10-29T05:07:22.000Z</time>
      </trkpt>
      <trkpt lat="27.839082" lon="86.735354">
        <ele>3971.4</ele>
        <time>2022-10-29T05:07:25.000Z</time>
      </trkpt>
      <trkpt lat="27.839075" lon="86.735328">
        <ele>3971</ele>
        <time>2022-10-29T05:07:27.000Z</time>
      </trkpt>
      <trkpt lat="27.839062" lon="86.735309">
        <ele>3970</ele>
        <time>2022-10-29T05:07:34.000Z</time>
      </trkpt>
      <trkpt lat="27.839053" lon="86.735277">
        <ele>3969.4</ele>
        <time>2022-10-29T05:07:36.000Z</time>
      </trkpt>
      <trkpt lat="27.839053" lon="86.735245">
        <ele>3969.2</ele>
        <time>2022-10-29T05:07:38.000Z</time>
      </trkpt>
      <trkpt lat="27.839069" lon="86.735213">
        <ele>3969</ele>
        <time>2022-10-29T05:07:40.000Z</time>
      </trkpt>
      <trkpt lat="27.839088" lon="86.735194">
        <ele>3969</ele>
        <time>2022-10-29T05:07:43.000Z</time>
      </trkpt>
      <trkpt lat="27.839101" lon="86.735174">
        <ele>3968.6</ele>
        <time>2022-10-29T05:07:46.000Z</time>
      </trkpt>
      <trkpt lat="27.839107" lon="86.735155">
        <ele>3967.4</ele>
        <time>2022-10-29T05:07:53.000Z</time>
      </trkpt>
      <trkpt lat="27.839101" lon="86.735136">
        <ele>3963.8</ele>
        <time>2022-10-29T05:08:22.000Z</time>
      </trkpt>
      <trkpt lat="27.839094" lon="86.735098">
        <ele>3963.4</ele>
        <time>2022-10-29T05:08:24.000Z</time>
      </trkpt>
      <trkpt lat="27.839085" lon="86.735072">
        <ele>3963.2</ele>
        <time>2022-10-29T05:08:27.000Z</time>
      </trkpt>
      <trkpt lat="27.839078" lon="86.735046">
        <ele>3962.8</ele>
        <time>2022-10-29T05:08:30.000Z</time>
      </trkpt>
      <trkpt lat="27.839085" lon="86.735021">
        <ele>3962.6</ele>
        <time>2022-10-29T05:08:36.000Z</time>
      </trkpt>
      <trkpt lat="27.839082" lon="86.734995">
        <ele>3962.6</ele>
        <time>2022-10-29T05:08:42.000Z</time>
      </trkpt>
      <trkpt lat="27.839078" lon="86.73497">
        <ele>3962</ele>
        <time>2022-10-29T05:08:46.000Z</time>
      </trkpt>
      <trkpt lat="27.839072" lon="86.73495">
        <ele>3961.4</ele>
        <time>2022-10-29T05:08:49.000Z</time>
      </trkpt>
      <trkpt lat="27.839059" lon="86.734931">
        <ele>3961.4</ele>
        <time>2022-10-29T05:08:51.000Z</time>
      </trkpt>
      <trkpt lat="27.839053" lon="86.734912">
        <ele>3960.6</ele>
        <time>2022-10-29T05:08:53.000Z</time>
      </trkpt>
      <trkpt lat="27.83905" lon="86.734886">
        <ele>3960.2</ele>
        <time>2022-10-29T05:08:55.000Z</time>
      </trkpt>
      <trkpt lat="27.83905" lon="86.734861">
        <ele>3960</ele>
        <time>2022-10-29T05:08:57.000Z</time>
      </trkpt>
      <trkpt lat="27.839034" lon="86.734848">
        <ele>3959</ele>
        <time>2022-10-29T05:09:04.000Z</time>
      </trkpt>
      <trkpt lat="27.839014" lon="86.734842">
        <ele>3958.8</ele>
        <time>2022-10-29T05:09:06.000Z</time>
      </trkpt>
      <trkpt lat="27.838992" lon="86.734835">
        <ele>3958.4</ele>
        <time>2022-10-29T05:09:08.000Z</time>
      </trkpt>
      <trkpt lat="27.83897" lon="86.734835">
        <ele>3958.4</ele>
        <time>2022-10-29T05:09:10.000Z</time>
      </trkpt>
      <trkpt lat="27.83895" lon="86.734822">
        <ele>3959</ele>
        <time>2022-10-29T05:09:12.000Z</time>
      </trkpt>
      <trkpt lat="27.838928" lon="86.734816">
        <ele>3959</ele>
        <time>2022-10-29T05:09:14.000Z</time>
      </trkpt>
      <trkpt lat="27.838909" lon="86.73481">
        <ele>3959.2</ele>
        <time>2022-10-29T05:09:16.000Z</time>
      </trkpt>
      <trkpt lat="27.838893" lon="86.734797">
        <ele>3958.8</ele>
        <time>2022-10-29T05:09:19.000Z</time>
      </trkpt>
      <trkpt lat="27.838893" lon="86.734765">
        <ele>3959</ele>
        <time>2022-10-29T05:09:45.000Z</time>
      </trkpt>
      <trkpt lat="27.838893" lon="86.734739">
        <ele>3959</ele>
        <time>2022-10-29T05:09:46.000Z</time>
      </trkpt>
      <trkpt lat="27.838896" lon="86.734701">
        <ele>3958.8</ele>
        <time>2022-10-29T05:09:48.000Z</time>
      </trkpt>
      <trkpt lat="27.838893" lon="86.734662">
        <ele>3958.8</ele>
        <time>2022-10-29T05:09:50.000Z</time>
      </trkpt>
      <trkpt lat="27.83888" lon="86.734637">
        <ele>3958.6</ele>
        <time>2022-10-29T05:09:52.000Z</time>
      </trkpt>
      <trkpt lat="27.83887" lon="86.734618">
        <ele>3958.4</ele>
        <time>2022-10-29T05:09:53.000Z</time>
      </trkpt>
      <trkpt lat="27.838854" lon="86.734598">
        <ele>3958.4</ele>
        <time>2022-10-29T05:09:56.000Z</time>
      </trkpt>
      <trkpt lat="27.838838" lon="86.734579">
        <ele>3958.6</ele>
        <time>2022-10-29T05:10:00.000Z</time>
      </trkpt>
      <trkpt lat="27.838819" lon="86.734579">
        <ele>3958.6</ele>
        <time>2022-10-29T05:10:03.000Z</time>
      </trkpt>
      <trkpt lat="27.8388" lon="86.734579">
        <ele>3958.4</ele>
        <time>2022-10-29T05:10:06.000Z</time>
      </trkpt>
      <trkpt lat="27.838778" lon="86.734598">
        <ele>3957</ele>
        <time>2022-10-29T05:10:10.000Z</time>
      </trkpt>
      <trkpt lat="27.838752" lon="86.734611">
        <ele>3955.8</ele>
        <time>2022-10-29T05:10:14.000Z</time>
      </trkpt>
      <trkpt lat="27.838733" lon="86.734618">
        <ele>3954.8</ele>
        <time>2022-10-29T05:10:17.000Z</time>
      </trkpt>
      <trkpt lat="27.83871" lon="86.734624">
        <ele>3954.2</ele>
        <time>2022-10-29T05:10:24.000Z</time>
      </trkpt>
      <trkpt lat="27.838688" lon="86.734618">
        <ele>3954.2</ele>
        <time>2022-10-29T05:10:26.000Z</time>
      </trkpt>
      <trkpt lat="27.838662" lon="86.734605">
        <ele>3954.2</ele>
        <time>2022-10-29T05:10:28.000Z</time>
      </trkpt>
      <trkpt lat="27.838643" lon="86.734598">
        <ele>3954.4</ele>
        <time>2022-10-29T05:10:30.000Z</time>
      </trkpt>
      <trkpt lat="27.838624" lon="86.734586">
        <ele>3954.4</ele>
        <time>2022-10-29T05:10:32.000Z</time>
      </trkpt>
      <trkpt lat="27.838602" lon="86.734579">
        <ele>3954.6</ele>
        <time>2022-10-29T05:10:34.000Z</time>
      </trkpt>
      <trkpt lat="27.838579" lon="86.734573">
        <ele>3954.6</ele>
        <time>2022-10-29T05:10:36.000Z</time>
      </trkpt>
      <trkpt lat="27.838557" lon="86.734573">
        <ele>3954.4</ele>
        <time>2022-10-29T05:10:38.000Z</time>
      </trkpt>
      <trkpt lat="27.838534" lon="86.734573">
        <ele>3954.6</ele>
        <time>2022-10-29T05:10:40.000Z</time>
      </trkpt>
      <trkpt lat="27.838512" lon="86.734579">
        <ele>3955</ele>
        <time>2022-10-29T05:10:42.000Z</time>
      </trkpt>
      <trkpt lat="27.838486" lon="86.734573">
        <ele>3954.2</ele>
        <time>2022-10-29T05:10:44.000Z</time>
      </trkpt>
      <trkpt lat="27.838461" lon="86.734566">
        <ele>3953.6</ele>
        <time>2022-10-29T05:10:46.000Z</time>
      </trkpt>
      <trkpt lat="27.838438" lon="86.734541">
        <ele>3953.4</ele>
        <time>2022-10-29T05:10:48.000Z</time>
      </trkpt>
      <trkpt lat="27.838426" lon="86.734522">
        <ele>3953.6</ele>
        <time>2022-10-29T05:10:50.000Z</time>
      </trkpt>
      <trkpt lat="27.838406" lon="86.734496">
        <ele>3953.8</ele>
        <time>2022-10-29T05:10:52.000Z</time>
      </trkpt>
      <trkpt lat="27.838384" lon="86.73449">
        <ele>3953.2</ele>
        <time>2022-10-29T05:10:54.000Z</time>
      </trkpt>
      <trkpt lat="27.838355" lon="86.734496">
        <ele>3953</ele>
        <time>2022-10-29T05:10:56.000Z</time>
      </trkpt>
      <trkpt lat="27.838333" lon="86.734496">
        <ele>3953</ele>
        <time>2022-10-29T05:10:58.000Z</time>
      </trkpt>
      <trkpt lat="27.838314" lon="86.734502">
        <ele>3952.8</ele>
        <time>2022-10-29T05:11:00.000Z</time>
      </trkpt>
      <trkpt lat="27.838291" lon="86.734502">
        <ele>3953</ele>
        <time>2022-10-29T05:11:02.000Z</time>
      </trkpt>
      <trkpt lat="27.838269" lon="86.734502">
        <ele>3953.2</ele>
        <time>2022-10-29T05:11:04.000Z</time>
      </trkpt>
      <trkpt lat="27.83825" lon="86.734515">
        <ele>3952.6</ele>
        <time>2022-10-29T05:11:14.000Z</time>
      </trkpt>
      <trkpt lat="27.83824" lon="86.734534">
        <ele>3951.8</ele>
        <time>2022-10-29T05:11:19.000Z</time>
      </trkpt>
      <trkpt lat="27.838221" lon="86.734541">
        <ele>3950.4</ele>
        <time>2022-10-29T05:11:52.000Z</time>
      </trkpt>
      <trkpt lat="27.838189" lon="86.734554">
        <ele>3949.4</ele>
        <time>2022-10-29T05:12:23.000Z</time>
      </trkpt>
      <trkpt lat="27.838176" lon="86.734528">
        <ele>3948.8</ele>
        <time>2022-10-29T05:12:27.000Z</time>
      </trkpt>
      <trkpt lat="27.83816" lon="86.734515">
        <ele>3948.6</ele>
        <time>2022-10-29T05:12:31.000Z</time>
      </trkpt>
      <trkpt lat="27.83815" lon="86.73449">
        <ele>3948.2</ele>
        <time>2022-10-29T05:12:34.000Z</time>
      </trkpt>
      <trkpt lat="27.838147" lon="86.734464">
        <ele>3947.8</ele>
        <time>2022-10-29T05:12:36.000Z</time>
      </trkpt>
      <trkpt lat="27.838131" lon="86.734451">
        <ele>3947.2</ele>
        <time>2022-10-29T05:12:41.000Z</time>
      </trkpt>
      <trkpt lat="27.838102" lon="86.734426">
        <ele>3945.4</ele>
        <time>2022-10-29T05:13:14.000Z</time>
      </trkpt>
      <trkpt lat="27.838083" lon="86.734419">
        <ele>3945.4</ele>
        <time>2022-10-29T05:13:15.000Z</time>
      </trkpt>
      <trkpt lat="27.838064" lon="86.734413">
        <ele>3945.4</ele>
        <time>2022-10-29T05:13:16.000Z</time>
      </trkpt>
      <trkpt lat="27.838045" lon="86.7344">
        <ele>3944.8</ele>
        <time>2022-10-29T05:13:17.000Z</time>
      </trkpt>
      <trkpt lat="27.838026" lon="86.734387">
        <ele>3944.4</ele>
        <time>2022-10-29T05:13:18.000Z</time>
      </trkpt>
      <trkpt lat="27.83799" lon="86.734368">
        <ele>3944.4</ele>
        <time>2022-10-29T05:13:20.000Z</time>
      </trkpt>
      <trkpt lat="27.837971" lon="86.734362">
        <ele>3943.8</ele>
        <time>2022-10-29T05:13:21.000Z</time>
      </trkpt>
      <trkpt lat="27.837952" lon="86.734355">
        <ele>3943.8</ele>
        <time>2022-10-29T05:13:22.000Z</time>
      </trkpt>
      <trkpt lat="27.83793" lon="86.734336">
        <ele>3943.6</ele>
        <time>2022-10-29T05:13:24.000Z</time>
      </trkpt>
      <trkpt lat="27.837907" lon="86.734336">
        <ele>3943.2</ele>
        <time>2022-10-29T05:13:26.000Z</time>
      </trkpt>
      <trkpt lat="27.837882" lon="86.734342">
        <ele>3942.8</ele>
        <time>2022-10-29T05:13:28.000Z</time>
      </trkpt>
      <trkpt lat="27.837862" lon="86.734342">
        <ele>3942.2</ele>
        <time>2022-10-29T05:13:30.000Z</time>
      </trkpt>
      <trkpt lat="27.837837" lon="86.734355">
        <ele>3942.2</ele>
        <time>2022-10-29T05:13:32.000Z</time>
      </trkpt>
      <trkpt lat="27.837818" lon="86.734342">
        <ele>3941.8</ele>
        <time>2022-10-29T05:13:34.000Z</time>
      </trkpt>
      <trkpt lat="27.837795" lon="86.734342">
        <ele>3941.4</ele>
        <time>2022-10-29T05:13:37.000Z</time>
      </trkpt>
      <trkpt lat="27.837779" lon="86.734355">
        <ele>3940.4</ele>
        <time>2022-10-29T05:13:59.000Z</time>
      </trkpt>
      <trkpt lat="27.837747" lon="86.734362">
        <ele>3940</ele>
        <time>2022-10-29T05:14:01.000Z</time>
      </trkpt>
      <trkpt lat="27.837722" lon="86.734374">
        <ele>3940</ele>
        <time>2022-10-29T05:14:03.000Z</time>
      </trkpt>
      <trkpt lat="27.837693" lon="86.734374">
        <ele>3939.8</ele>
        <time>2022-10-29T05:14:05.000Z</time>
      </trkpt>
      <trkpt lat="27.837674" lon="86.734355">
        <ele>3939.6</ele>
        <time>2022-10-29T05:14:07.000Z</time>
      </trkpt>
      <trkpt lat="27.837654" lon="86.73433">
        <ele>3940</ele>
        <time>2022-10-29T05:14:09.000Z</time>
      </trkpt>
      <trkpt lat="27.837645" lon="86.734304">
        <ele>3939.6</ele>
        <time>2022-10-29T05:14:12.000Z</time>
      </trkpt>
      <trkpt lat="27.837654" lon="86.734323">
        <ele>3940</ele>
        <time>2022-10-29T05:14:16.000Z</time>
      </trkpt>
      <trkpt lat="27.837648" lon="86.734304">
        <ele>3939.8</ele>
        <time>2022-10-29T05:14:29.000Z</time>
      </trkpt>
      <trkpt lat="27.837629" lon="86.734285">
        <ele>3939.6</ele>
        <time>2022-10-29T05:14:31.000Z</time>
      </trkpt>
      <trkpt lat="27.837622" lon="86.734266">
        <ele>3939.2</ele>
        <time>2022-10-29T05:14:32.000Z</time>
      </trkpt>
      <trkpt lat="27.837603" lon="86.73424">
        <ele>3939</ele>
        <time>2022-10-29T05:14:34.000Z</time>
      </trkpt>
      <trkpt lat="27.837581" lon="86.734214">
        <ele>3938.8</ele>
        <time>2022-10-29T05:14:36.000Z</time>
      </trkpt>
      <trkpt lat="27.837555" lon="86.734202">
        <ele>3939.2</ele>
        <time>2022-10-29T05:14:38.000Z</time>
      </trkpt>
      <trkpt lat="27.837549" lon="86.734182">
        <ele>3939.2</ele>
        <time>2022-10-29T05:14:39.000Z</time>
      </trkpt>
      <trkpt lat="27.837533" lon="86.734163">
        <ele>3939.2</ele>
        <time>2022-10-29T05:14:41.000Z</time>
      </trkpt>
      <trkpt lat="27.837526" lon="86.734144">
        <ele>3939.2</ele>
        <time>2022-10-29T05:14:42.000Z</time>
      </trkpt>
      <trkpt lat="27.837514" lon="86.734125">
        <ele>3939.6</ele>
        <time>2022-10-29T05:14:44.000Z</time>
      </trkpt>
      <trkpt lat="27.837507" lon="86.734106">
        <ele>3939.6</ele>
        <time>2022-10-29T05:14:45.000Z</time>
      </trkpt>
      <trkpt lat="27.837491" lon="86.734086">
        <ele>3939</ele>
        <time>2022-10-29T05:14:47.000Z</time>
      </trkpt>
      <trkpt lat="27.837485" lon="86.734054">
        <ele>3938.6</ele>
        <time>2022-10-29T05:14:49.000Z</time>
      </trkpt>
      <trkpt lat="27.837475" lon="86.734022">
        <ele>3938.4</ele>
        <time>2022-10-29T05:14:51.000Z</time>
      </trkpt>
      <trkpt lat="27.837459" lon="86.73401">
        <ele>3938.4</ele>
        <time>2022-10-29T05:14:53.000Z</time>
      </trkpt>
      <trkpt lat="27.837443" lon="86.73399">
        <ele>3938.4</ele>
        <time>2022-10-29T05:14:55.000Z</time>
      </trkpt>
      <trkpt lat="27.837421" lon="86.73399">
        <ele>3937.8</ele>
        <time>2022-10-29T05:14:57.000Z</time>
      </trkpt>
      <trkpt lat="27.837392" lon="86.73399">
        <ele>3936.8</ele>
        <time>2022-10-29T05:14:59.000Z</time>
      </trkpt>
      <trkpt lat="27.83735" lon="86.73401">
        <ele>3936.8</ele>
        <time>2022-10-29T05:15:04.000Z</time>
      </trkpt>
      <trkpt lat="27.837331" lon="86.73401">
        <ele>3936.6</ele>
        <time>2022-10-29T05:15:06.000Z</time>
      </trkpt>
      <trkpt lat="27.837312" lon="86.734003">
        <ele>3936</ele>
        <time>2022-10-29T05:15:08.000Z</time>
      </trkpt>
      <trkpt lat="27.837293" lon="86.73399">
        <ele>3935</ele>
        <time>2022-10-29T05:15:10.000Z</time>
      </trkpt>
      <trkpt lat="27.837254" lon="86.733965">
        <ele>3934.6</ele>
        <time>2022-10-29T05:15:14.000Z</time>
      </trkpt>
      <trkpt lat="27.837248" lon="86.733946">
        <ele>3934.6</ele>
        <time>2022-10-29T05:15:15.000Z</time>
      </trkpt>
      <trkpt lat="27.837235" lon="86.733926">
        <ele>3933.8</ele>
        <time>2022-10-29T05:15:17.000Z</time>
      </trkpt>
      <trkpt lat="27.837229" lon="86.733907">
        <ele>3933.8</ele>
        <time>2022-10-29T05:15:18.000Z</time>
      </trkpt>
      <trkpt lat="27.837213" lon="86.733894">
        <ele>3933.4</ele>
        <time>2022-10-29T05:15:20.000Z</time>
      </trkpt>
      <trkpt lat="27.837194" lon="86.733869">
        <ele>3933</ele>
        <time>2022-10-29T05:15:23.000Z</time>
      </trkpt>
      <trkpt lat="27.837174" lon="86.733856">
        <ele>3933</ele>
        <time>2022-10-29T05:15:32.000Z</time>
      </trkpt>
      <trkpt lat="27.837149" lon="86.733843">
        <ele>3932.6</ele>
        <time>2022-10-29T05:15:35.000Z</time>
      </trkpt>
      <trkpt lat="27.83713" lon="86.73385">
        <ele>3932.6</ele>
        <time>2022-10-29T05:15:37.000Z</time>
      </trkpt>
      <trkpt lat="27.83711" lon="86.733843">
        <ele>3932.2</ele>
        <time>2022-10-29T05:15:39.000Z</time>
      </trkpt>
      <trkpt lat="27.837085" lon="86.73383">
        <ele>3932.6</ele>
        <time>2022-10-29T05:15:42.000Z</time>
      </trkpt>
      <trkpt lat="27.837062" lon="86.73383">
        <ele>3932</ele>
        <time>2022-10-29T05:15:45.000Z</time>
      </trkpt>
      <trkpt lat="27.837043" lon="86.73385">
        <ele>3931</ele>
        <time>2022-10-29T05:15:48.000Z</time>
      </trkpt>
      <trkpt lat="27.837021" lon="86.733862">
        <ele>3930.2</ele>
        <time>2022-10-29T05:15:51.000Z</time>
      </trkpt>
      <trkpt lat="27.836998" lon="86.733882">
        <ele>3929.4</ele>
        <time>2022-10-29T05:15:53.000Z</time>
      </trkpt>
      <trkpt lat="27.836976" lon="86.733888">
        <ele>3929.4</ele>
        <time>2022-10-29T05:15:55.000Z</time>
      </trkpt>
      <trkpt lat="27.836963" lon="86.733907">
        <ele>3929.2</ele>
        <time>2022-10-29T05:15:59.000Z</time>
      </trkpt>
      <trkpt lat="27.836966" lon="86.733939">
        <ele>3929.4</ele>
        <time>2022-10-29T05:16:02.000Z</time>
      </trkpt>
      <trkpt lat="27.836973" lon="86.733965">
        <ele>3929.6</ele>
        <time>2022-10-29T05:16:04.000Z</time>
      </trkpt>
      <trkpt lat="27.836976" lon="86.73399">
        <ele>3929.6</ele>
        <time>2022-10-29T05:16:07.000Z</time>
      </trkpt>
      <trkpt lat="27.83697" lon="86.73401">
        <ele>3929.6</ele>
        <time>2022-10-29T05:16:08.000Z</time>
      </trkpt>
      <trkpt lat="27.836941" lon="86.734022">
        <ele>3929.2</ele>
        <time>2022-10-29T05:16:11.000Z</time>
      </trkpt>
      <trkpt lat="27.836918" lon="86.734016">
        <ele>3928.8</ele>
        <time>2022-10-29T05:16:13.000Z</time>
      </trkpt>
      <trkpt lat="27.836896" lon="86.734016">
        <ele>3929.2</ele>
        <time>2022-10-29T05:16:15.000Z</time>
      </trkpt>
      <trkpt lat="27.836874" lon="86.734042">
        <ele>3929.6</ele>
        <time>2022-10-29T05:16:18.000Z</time>
      </trkpt>
      <trkpt lat="27.836861" lon="86.734061">
        <ele>3928.6</ele>
        <time>2022-10-29T05:16:20.000Z</time>
      </trkpt>
      <trkpt lat="27.836848" lon="86.73408">
        <ele>3927.8</ele>
        <time>2022-10-29T05:16:22.000Z</time>
      </trkpt>
      <trkpt lat="27.836832" lon="86.734093">
        <ele>3927.2</ele>
        <time>2022-10-29T05:16:24.000Z</time>
      </trkpt>
      <trkpt lat="27.836816" lon="86.734106">
        <ele>3926.8</ele>
        <time>2022-10-29T05:16:26.000Z</time>
      </trkpt>
      <trkpt lat="27.8368" lon="86.734125">
        <ele>3926.6</ele>
        <time>2022-10-29T05:16:28.000Z</time>
      </trkpt>
      <trkpt lat="27.836781" lon="86.734131">
        <ele>3926.4</ele>
        <time>2022-10-29T05:16:32.000Z</time>
      </trkpt>
      <trkpt lat="27.836755" lon="86.734138">
        <ele>3925.6</ele>
        <time>2022-10-29T05:17:00.000Z</time>
      </trkpt>
      <trkpt lat="27.83672" lon="86.734144">
        <ele>3925</ele>
        <time>2022-10-29T05:17:02.000Z</time>
      </trkpt>
      <trkpt lat="27.836704" lon="86.734157">
        <ele>3925</ele>
        <time>2022-10-29T05:17:03.000Z</time>
      </trkpt>
      <trkpt lat="27.836685" lon="86.734157">
        <ele>3925</ele>
        <time>2022-10-29T05:17:04.000Z</time>
      </trkpt>
      <trkpt lat="27.836666" lon="86.734157">
        <ele>3925</ele>
        <time>2022-10-29T05:17:05.000Z</time>
      </trkpt>
      <trkpt lat="27.836634" lon="86.734157">
        <ele>3924.6</ele>
        <time>2022-10-29T05:17:07.000Z</time>
      </trkpt>
      <trkpt lat="27.836608" lon="86.734163">
        <ele>3925.2</ele>
        <time>2022-10-29T05:17:09.000Z</time>
      </trkpt>
      <trkpt lat="27.836586" lon="86.734163">
        <ele>3925.2</ele>
        <time>2022-10-29T05:17:11.000Z</time>
      </trkpt>
      <trkpt lat="27.83656" lon="86.734163">
        <ele>3925.2</ele>
        <time>2022-10-29T05:17:13.000Z</time>
      </trkpt>
      <trkpt lat="27.836534" lon="86.73417">
        <ele>3925.6</ele>
        <time>2022-10-29T05:17:15.000Z</time>
      </trkpt>
      <trkpt lat="27.836515" lon="86.734163">
        <ele>3925.6</ele>
        <time>2022-10-29T05:17:17.000Z</time>
      </trkpt>
      <trkpt lat="27.836499" lon="86.734144">
        <ele>3925.6</ele>
        <time>2022-10-29T05:17:19.000Z</time>
      </trkpt>
      <trkpt lat="27.83648" lon="86.734125">
        <ele>3925.8</ele>
        <time>2022-10-29T05:17:22.000Z</time>
      </trkpt>
      <trkpt lat="27.836467" lon="86.734106">
        <ele>3925.4</ele>
        <time>2022-10-29T05:17:24.000Z</time>
      </trkpt>
      <trkpt lat="27.836442" lon="86.734099">
        <ele>3923.6</ele>
        <time>2022-10-29T05:17:32.000Z</time>
      </trkpt>
      <trkpt lat="27.836422" lon="86.734086">
        <ele>3924</ele>
        <time>2022-10-29T05:17:34.000Z</time>
      </trkpt>
      <trkpt lat="27.8364" lon="86.734067">
        <ele>3924</ele>
        <time>2022-10-29T05:17:36.000Z</time>
      </trkpt>
      <trkpt lat="27.836381" lon="86.734061">
        <ele>3924</ele>
        <time>2022-10-29T05:17:38.000Z</time>
      </trkpt>
      <trkpt lat="27.836358" lon="86.734061">
        <ele>3923.8</ele>
        <time>2022-10-29T05:17:40.000Z</time>
      </trkpt>
      <trkpt lat="27.836333" lon="86.734067">
        <ele>3923.4</ele>
        <time>2022-10-29T05:17:42.000Z</time>
      </trkpt>
      <trkpt lat="27.83631" lon="86.734067">
        <ele>3923</ele>
        <time>2022-10-29T05:17:44.000Z</time>
      </trkpt>
      <trkpt lat="27.836288" lon="86.734086">
        <ele>3922.4</ele>
        <time>2022-10-29T05:17:46.000Z</time>
      </trkpt>
      <trkpt lat="27.836262" lon="86.734086">
        <ele>3922</ele>
        <time>2022-10-29T05:17:48.000Z</time>
      </trkpt>
      <trkpt lat="27.836237" lon="86.734093">
        <ele>3921.6</ele>
        <time>2022-10-29T05:17:50.000Z</time>
      </trkpt>
      <trkpt lat="27.836211" lon="86.734093">
        <ele>3921.6</ele>
        <time>2022-10-29T05:17:52.000Z</time>
      </trkpt>
      <trkpt lat="27.836186" lon="86.734093">
        <ele>3921.4</ele>
        <time>2022-10-29T05:17:54.000Z</time>
      </trkpt>
      <trkpt lat="27.836163" lon="86.734086">
        <ele>3921.2</ele>
        <time>2022-10-29T05:17:56.000Z</time>
      </trkpt>
      <trkpt lat="27.836141" lon="86.734067">
        <ele>3920.6</ele>
        <time>2022-10-29T05:17:59.000Z</time>
      </trkpt>
      <trkpt lat="27.836122" lon="86.734067">
        <ele>3920.4</ele>
        <time>2022-10-29T05:18:01.000Z</time>
      </trkpt>
      <trkpt lat="27.836102" lon="86.734061">
        <ele>3919.4</ele>
        <time>2022-10-29T05:18:03.000Z</time>
      </trkpt>
      <trkpt lat="27.836077" lon="86.734054">
        <ele>3919</ele>
        <time>2022-10-29T05:18:06.000Z</time>
      </trkpt>
      <trkpt lat="27.836051" lon="86.734048">
        <ele>3918.6</ele>
        <time>2022-10-29T05:18:09.000Z</time>
      </trkpt>
      <trkpt lat="27.836029" lon="86.734029">
        <ele>3917.4</ele>
        <time>2022-10-29T05:18:12.000Z</time>
      </trkpt>
      <trkpt lat="27.836006" lon="86.734022">
        <ele>3916.6</ele>
        <time>2022-10-29T05:18:15.000Z</time>
      </trkpt>
      <trkpt lat="27.835981" lon="86.734016">
        <ele>3915.8</ele>
        <time>2022-10-29T05:18:18.000Z</time>
      </trkpt>
      <trkpt lat="27.835962" lon="86.73401">
        <ele>3915.2</ele>
        <time>2022-10-29T05:18:21.000Z</time>
      </trkpt>
      <trkpt lat="27.835946" lon="86.73399">
        <ele>3914</ele>
        <time>2022-10-29T05:18:23.000Z</time>
      </trkpt>
      <trkpt lat="27.835923" lon="86.733984">
        <ele>3913.2</ele>
        <time>2022-10-29T05:18:26.000Z</time>
      </trkpt>
      <trkpt lat="27.835901" lon="86.733965">
        <ele>3912.8</ele>
        <time>2022-10-29T05:18:29.000Z</time>
      </trkpt>
      <trkpt lat="27.835875" lon="86.733958">
        <ele>3912</ele>
        <time>2022-10-29T05:18:32.000Z</time>
      </trkpt>
      <trkpt lat="27.835856" lon="86.733939">
        <ele>3912</ele>
        <time>2022-10-29T05:18:35.000Z</time>
      </trkpt>
      <trkpt lat="27.835834" lon="86.733933">
        <ele>3911.4</ele>
        <time>2022-10-29T05:18:38.000Z</time>
      </trkpt>
      <trkpt lat="27.835811" lon="86.733926">
        <ele>3911.2</ele>
        <time>2022-10-29T05:18:41.000Z</time>
      </trkpt>
      <trkpt lat="27.835789" lon="86.73392">
        <ele>3909.8</ele>
        <time>2022-10-29T05:18:44.000Z</time>
      </trkpt>
      <trkpt lat="27.835776" lon="86.733901">
        <ele>3909.4</ele>
        <time>2022-10-29T05:18:46.000Z</time>
      </trkpt>
      <trkpt lat="27.835757" lon="86.733888">
        <ele>3909</ele>
        <time>2022-10-29T05:18:50.000Z</time>
      </trkpt>
      <trkpt lat="27.835738" lon="86.733888">
        <ele>3908.2</ele>
        <time>2022-10-29T05:18:54.000Z</time>
      </trkpt>
      <trkpt lat="27.835722" lon="86.733869">
        <ele>3906.8</ele>
        <time>2022-10-29T05:18:58.000Z</time>
      </trkpt>
      <trkpt lat="27.835702" lon="86.73385">
        <ele>3907.4</ele>
        <time>2022-10-29T05:19:05.000Z</time>
      </trkpt>
      <trkpt lat="27.83568" lon="86.733843">
        <ele>3906.2</ele>
        <time>2022-10-29T05:19:11.000Z</time>
      </trkpt>
      <trkpt lat="27.835664" lon="86.73383">
        <ele>3905.6</ele>
        <time>2022-10-29T05:19:14.000Z</time>
      </trkpt>
      <trkpt lat="27.835648" lon="86.733818">
        <ele>3902.6</ele>
        <time>2022-10-29T05:19:42.000Z</time>
      </trkpt>
      <trkpt lat="27.835622" lon="86.733805">
        <ele>3902</ele>
        <time>2022-10-29T05:19:44.000Z</time>
      </trkpt>
      <trkpt lat="27.83561" lon="86.733786">
        <ele>3902</ele>
        <time>2022-10-29T05:19:45.000Z</time>
      </trkpt>
      <trkpt lat="27.83559" lon="86.733773">
        <ele>3901.6</ele>
        <time>2022-10-29T05:19:48.000Z</time>
      </trkpt>
      <trkpt lat="27.835568" lon="86.733766">
        <ele>3900.8</ele>
        <time>2022-10-29T05:20:04.000Z</time>
      </trkpt>
      <trkpt lat="27.835549" lon="86.733747">
        <ele>3900.4</ele>
        <time>2022-10-29T05:20:06.000Z</time>
      </trkpt>
      <trkpt lat="27.835526" lon="86.733747">
        <ele>3899.8</ele>
        <time>2022-10-29T05:20:08.000Z</time>
      </trkpt>
      <trkpt lat="27.835504" lon="86.733741">
        <ele>3898.6</ele>
        <time>2022-10-29T05:20:10.000Z</time>
      </trkpt>
      <trkpt lat="27.835485" lon="86.733734">
        <ele>3897.8</ele>
        <time>2022-10-29T05:20:12.000Z</time>
      </trkpt>
      <trkpt lat="27.835466" lon="86.733722">
        <ele>3897.4</ele>
        <time>2022-10-29T05:20:14.000Z</time>
      </trkpt>
      <trkpt lat="27.83545" lon="86.733702">
        <ele>3896.4</ele>
        <time>2022-10-29T05:20:16.000Z</time>
      </trkpt>
      <trkpt lat="27.83543" lon="86.73369">
        <ele>3896.4</ele>
        <time>2022-10-29T05:20:19.000Z</time>
      </trkpt>
      <trkpt lat="27.835411" lon="86.733683">
        <ele>3896.2</ele>
        <time>2022-10-29T05:20:21.000Z</time>
      </trkpt>
      <trkpt lat="27.835395" lon="86.73367">
        <ele>3895.2</ele>
        <time>2022-10-29T05:20:23.000Z</time>
      </trkpt>
      <trkpt lat="27.83537" lon="86.73367">
        <ele>3893.6</ele>
        <time>2022-10-29T05:20:25.000Z</time>
      </trkpt>
      <trkpt lat="27.83535" lon="86.733658">
        <ele>3892.8</ele>
        <time>2022-10-29T05:20:27.000Z</time>
      </trkpt>
      <trkpt lat="27.835325" lon="86.733645">
        <ele>3892.8</ele>
        <time>2022-10-29T05:20:30.000Z</time>
      </trkpt>
      <trkpt lat="27.835306" lon="86.733645">
        <ele>3892.6</ele>
        <time>2022-10-29T05:20:32.000Z</time>
      </trkpt>
      <trkpt lat="27.835286" lon="86.733645">
        <ele>3892.8</ele>
        <time>2022-10-29T05:20:34.000Z</time>
      </trkpt>
      <trkpt lat="27.835267" lon="86.733632">
        <ele>3891.8</ele>
        <time>2022-10-29T05:20:36.000Z</time>
      </trkpt>
      <trkpt lat="27.835248" lon="86.733619">
        <ele>3891.2</ele>
        <time>2022-10-29T05:20:38.000Z</time>
      </trkpt>
      <trkpt lat="27.835229" lon="86.733613">
        <ele>3890.4</ele>
        <time>2022-10-29T05:20:40.000Z</time>
      </trkpt>
      <trkpt lat="27.83521" lon="86.733613">
        <ele>3890.4</ele>
        <time>2022-10-29T05:20:42.000Z</time>
      </trkpt>
      <trkpt lat="27.83519" lon="86.733613">
        <ele>3890.2</ele>
        <time>2022-10-29T05:20:44.000Z</time>
      </trkpt>
      <trkpt lat="27.835165" lon="86.733613">
        <ele>3889.6</ele>
        <time>2022-10-29T05:20:46.000Z</time>
      </trkpt>
      <trkpt lat="27.835146" lon="86.733613">
        <ele>3889</ele>
        <time>2022-10-29T05:20:48.000Z</time>
      </trkpt>
      <trkpt lat="27.835126" lon="86.7336">
        <ele>3888.4</ele>
        <time>2022-10-29T05:20:50.000Z</time>
      </trkpt>
      <trkpt lat="27.835104" lon="86.733587">
        <ele>3888.4</ele>
        <time>2022-10-29T05:20:52.000Z</time>
      </trkpt>
      <trkpt lat="27.835082" lon="86.733568">
        <ele>3888.4</ele>
        <time>2022-10-29T05:20:54.000Z</time>
      </trkpt>
      <trkpt lat="27.835062" lon="86.733562">
        <ele>3888.6</ele>
        <time>2022-10-29T05:20:56.000Z</time>
      </trkpt>
      <trkpt lat="27.835043" lon="86.733542">
        <ele>3888.4</ele>
        <time>2022-10-29T05:20:58.000Z</time>
      </trkpt>
      <trkpt lat="27.835014" lon="86.733536">
        <ele>3887.4</ele>
        <time>2022-10-29T05:21:01.000Z</time>
      </trkpt>
      <trkpt lat="27.834995" lon="86.733523">
        <ele>3887.4</ele>
        <time>2022-10-29T05:21:03.000Z</time>
      </trkpt>
      <trkpt lat="27.834979" lon="86.733504">
        <ele>3887.2</ele>
        <time>2022-10-29T05:21:05.000Z</time>
      </trkpt>
      <trkpt lat="27.83496" lon="86.733498">
        <ele>3886.6</ele>
        <time>2022-10-29T05:21:08.000Z</time>
      </trkpt>
      <trkpt lat="27.834941" lon="86.733472">
        <ele>3886.2</ele>
        <time>2022-10-29T05:21:11.000Z</time>
      </trkpt>
      <trkpt lat="27.834931" lon="86.733453">
        <ele>3885.6</ele>
        <time>2022-10-29T05:21:13.000Z</time>
      </trkpt>
      <trkpt lat="27.834922" lon="86.733434">
        <ele>3885.6</ele>
        <time>2022-10-29T05:21:15.000Z</time>
      </trkpt>
      <trkpt lat="27.834902" lon="86.733427">
        <ele>3885.4</ele>
        <time>2022-10-29T05:21:17.000Z</time>
      </trkpt>
      <trkpt lat="27.83488" lon="86.733427">
        <ele>3884.8</ele>
        <time>2022-10-29T05:21:19.000Z</time>
      </trkpt>
      <trkpt lat="27.834858" lon="86.733427">
        <ele>3884.8</ele>
        <time>2022-10-29T05:21:21.000Z</time>
      </trkpt>
      <trkpt lat="27.834835" lon="86.733427">
        <ele>3884.6</ele>
        <time>2022-10-29T05:21:24.000Z</time>
      </trkpt>
      <trkpt lat="27.834816" lon="86.733427">
        <ele>3886</ele>
        <time>2022-10-29T05:21:32.000Z</time>
      </trkpt>
      <trkpt lat="27.83481" lon="86.733446">
        <ele>3886</ele>
        <time>2022-10-29T05:21:34.000Z</time>
      </trkpt>
      <trkpt lat="27.83479" lon="86.733453">
        <ele>3884.8</ele>
        <time>2022-10-29T05:21:38.000Z</time>
      </trkpt>
      <trkpt lat="27.834771" lon="86.733459">
        <ele>3884.8</ele>
        <time>2022-10-29T05:21:40.000Z</time>
      </trkpt>
      <trkpt lat="27.834742" lon="86.733466">
        <ele>3883.8</ele>
        <time>2022-10-29T05:21:43.000Z</time>
      </trkpt>
      <trkpt lat="27.834723" lon="86.733466">
        <ele>3883.2</ele>
        <time>2022-10-29T05:21:45.000Z</time>
      </trkpt>
      <trkpt lat="27.834704" lon="86.733459">
        <ele>3882.4</ele>
        <time>2022-10-29T05:21:47.000Z</time>
      </trkpt>
      <trkpt lat="27.834685" lon="86.733466">
        <ele>3882</ele>
        <time>2022-10-29T05:21:49.000Z</time>
      </trkpt>
      <trkpt lat="27.834659" lon="86.733459">
        <ele>3881.4</ele>
        <time>2022-10-29T05:21:52.000Z</time>
      </trkpt>
      <trkpt lat="27.834637" lon="86.733459">
        <ele>3880.8</ele>
        <time>2022-10-29T05:21:54.000Z</time>
      </trkpt>
      <trkpt lat="27.834614" lon="86.733453">
        <ele>3880</ele>
        <time>2022-10-29T05:21:56.000Z</time>
      </trkpt>
      <trkpt lat="27.834592" lon="86.733446">
        <ele>3879.2</ele>
        <time>2022-10-29T05:21:58.000Z</time>
      </trkpt>
      <trkpt lat="27.83457" lon="86.733434">
        <ele>3879</ele>
        <time>2022-10-29T05:22:00.000Z</time>
      </trkpt>
      <trkpt lat="27.834547" lon="86.733434">
        <ele>3879</ele>
        <time>2022-10-29T05:22:02.000Z</time>
      </trkpt>
      <trkpt lat="27.834525" lon="86.733427">
        <ele>3878</ele>
        <time>2022-10-29T05:22:04.000Z</time>
      </trkpt>
      <trkpt lat="27.834506" lon="86.733421">
        <ele>3877.6</ele>
        <time>2022-10-29T05:22:06.000Z</time>
      </trkpt>
      <trkpt lat="27.834483" lon="86.733421">
        <ele>3877.4</ele>
        <time>2022-10-29T05:22:08.000Z</time>
      </trkpt>
      <trkpt lat="27.834464" lon="86.733414">
        <ele>3877</ele>
        <time>2022-10-29T05:22:10.000Z</time>
      </trkpt>
      <trkpt lat="27.834442" lon="86.733402">
        <ele>3876.4</ele>
        <time>2022-10-29T05:22:13.000Z</time>
      </trkpt>
      <trkpt lat="27.834422" lon="86.733389">
        <ele>3875.6</ele>
        <time>2022-10-29T05:22:15.000Z</time>
      </trkpt>
      <trkpt lat="27.834403" lon="86.733382">
        <ele>3874.8</ele>
        <time>2022-10-29T05:22:49.000Z</time>
      </trkpt>
      <trkpt lat="27.834378" lon="86.733382">
        <ele>3874.6</ele>
        <time>2022-10-29T05:22:51.000Z</time>
      </trkpt>
      <trkpt lat="27.834336" lon="86.733376">
        <ele>3874.4</ele>
        <time>2022-10-29T05:22:58.000Z</time>
      </trkpt>
      <trkpt lat="27.834317" lon="86.733376">
        <ele>3873.6</ele>
        <time>2022-10-29T05:23:10.000Z</time>
      </trkpt>
      <trkpt lat="27.834288" lon="86.733376">
        <ele>3872.6</ele>
        <time>2022-10-29T05:23:12.000Z</time>
      </trkpt>
      <trkpt lat="27.834259" lon="86.73337">
        <ele>3872.6</ele>
        <time>2022-10-29T05:23:14.000Z</time>
      </trkpt>
      <trkpt lat="27.834234" lon="86.733363">
        <ele>3872.4</ele>
        <time>2022-10-29T05:23:16.000Z</time>
      </trkpt>
      <trkpt lat="27.834202" lon="86.733363">
        <ele>3872.2</ele>
        <time>2022-10-29T05:23:18.000Z</time>
      </trkpt>
      <trkpt lat="27.834176" lon="86.73335">
        <ele>3870.8</ele>
        <time>2022-10-29T05:23:20.000Z</time>
      </trkpt>
      <trkpt lat="27.834154" lon="86.733344">
        <ele>3870.2</ele>
        <time>2022-10-29T05:23:22.000Z</time>
      </trkpt>
      <trkpt lat="27.834128" lon="86.733331">
        <ele>3870.4</ele>
        <time>2022-10-29T05:23:24.000Z</time>
      </trkpt>
      <trkpt lat="27.834102" lon="86.733312">
        <ele>3870.6</ele>
        <time>2022-10-29T05:23:26.000Z</time>
      </trkpt>
      <trkpt lat="27.834083" lon="86.733299">
        <ele>3869.4</ele>
        <time>2022-10-29T05:23:28.000Z</time>
      </trkpt>
      <trkpt lat="27.834058" lon="86.733286">
        <ele>3869.8</ele>
        <time>2022-10-29T05:23:30.000Z</time>
      </trkpt>
      <trkpt lat="27.834038" lon="86.733274">
        <ele>3869.4</ele>
        <time>2022-10-29T05:23:32.000Z</time>
      </trkpt>
      <trkpt lat="27.834016" lon="86.733267">
        <ele>3869.4</ele>
        <time>2022-10-29T05:23:34.000Z</time>
      </trkpt>
      <trkpt lat="27.834" lon="86.733254">
        <ele>3868.8</ele>
        <time>2022-10-29T05:23:36.000Z</time>
      </trkpt>
      <trkpt lat="27.833978" lon="86.733248">
        <ele>3868.4</ele>
        <time>2022-10-29T05:23:38.000Z</time>
      </trkpt>
      <trkpt lat="27.833958" lon="86.733235">
        <ele>3867.6</ele>
        <time>2022-10-29T05:23:40.000Z</time>
      </trkpt>
      <trkpt lat="27.833939" lon="86.733235">
        <ele>3867.2</ele>
        <time>2022-10-29T05:23:42.000Z</time>
      </trkpt>
      <trkpt lat="27.833914" lon="86.733229">
        <ele>3867</ele>
        <time>2022-10-29T05:23:44.000Z</time>
      </trkpt>
      <trkpt lat="27.833894" lon="86.733222">
        <ele>3866.2</ele>
        <time>2022-10-29T05:23:46.000Z</time>
      </trkpt>
      <trkpt lat="27.833875" lon="86.73321">
        <ele>3865.6</ele>
        <time>2022-10-29T05:23:48.000Z</time>
      </trkpt>
      <trkpt lat="27.833859" lon="86.73319">
        <ele>3865.4</ele>
        <time>2022-10-29T05:23:50.000Z</time>
      </trkpt>
      <trkpt lat="27.833837" lon="86.733171">
        <ele>3864</ele>
        <time>2022-10-29T05:23:53.000Z</time>
      </trkpt>
      <trkpt lat="27.833811" lon="86.733165">
        <ele>3863.8</ele>
        <time>2022-10-29T05:23:56.000Z</time>
      </trkpt>
      <trkpt lat="27.833792" lon="86.733171">
        <ele>3863.2</ele>
        <time>2022-10-29T05:23:58.000Z</time>
      </trkpt>
      <trkpt lat="27.833776" lon="86.733184">
        <ele>3863.2</ele>
        <time>2022-10-29T05:24:00.000Z</time>
      </trkpt>
      <trkpt lat="27.833747" lon="86.733203">
        <ele>3862.8</ele>
        <time>2022-10-29T05:24:03.000Z</time>
      </trkpt>
      <trkpt lat="27.833722" lon="86.733203">
        <ele>3862.6</ele>
        <time>2022-10-29T05:24:05.000Z</time>
      </trkpt>
      <trkpt lat="27.833699" lon="86.733203">
        <ele>3863.2</ele>
        <time>2022-10-29T05:24:08.000Z</time>
      </trkpt>
      <trkpt lat="27.83368" lon="86.73319">
        <ele>3862.6</ele>
        <time>2022-10-29T05:24:11.000Z</time>
      </trkpt>
      <trkpt lat="27.833654" lon="86.73319">
        <ele>3862</ele>
        <time>2022-10-29T05:24:14.000Z</time>
      </trkpt>
      <trkpt lat="27.833632" lon="86.733203">
        <ele>3861.2</ele>
        <time>2022-10-29T05:24:16.000Z</time>
      </trkpt>
      <trkpt lat="27.833613" lon="86.73321">
        <ele>3860.2</ele>
        <time>2022-10-29T05:24:18.000Z</time>
      </trkpt>
      <trkpt lat="27.83359" lon="86.73321">
        <ele>3860</ele>
        <time>2022-10-29T05:24:20.000Z</time>
      </trkpt>
      <trkpt lat="27.833568" lon="86.73321">
        <ele>3859.6</ele>
        <time>2022-10-29T05:24:22.000Z</time>
      </trkpt>
      <trkpt lat="27.833542" lon="86.733203">
        <ele>3859.6</ele>
        <time>2022-10-29T05:24:24.000Z</time>
      </trkpt>
      <trkpt lat="27.83352" lon="86.73321">
        <ele>3859.2</ele>
        <time>2022-10-29T05:24:26.000Z</time>
      </trkpt>
      <trkpt lat="27.833498" lon="86.733216">
        <ele>3858.8</ele>
        <time>2022-10-29T05:24:28.000Z</time>
      </trkpt>
      <trkpt lat="27.833478" lon="86.733229">
        <ele>3858</ele>
        <time>2022-10-29T05:24:30.000Z</time>
      </trkpt>
      <trkpt lat="27.833453" lon="86.733235">
        <ele>3858.2</ele>
        <time>2022-10-29T05:24:32.000Z</time>
      </trkpt>
      <trkpt lat="27.833437" lon="86.733248">
        <ele>3858</ele>
        <time>2022-10-29T05:24:34.000Z</time>
      </trkpt>
      <trkpt lat="27.833418" lon="86.733254">
        <ele>3857.6</ele>
        <time>2022-10-29T05:24:36.000Z</time>
      </trkpt>
      <trkpt lat="27.833392" lon="86.733254">
        <ele>3856</ele>
        <time>2022-10-29T05:24:39.000Z</time>
      </trkpt>
      <trkpt lat="27.83337" lon="86.733261">
        <ele>3856</ele>
        <time>2022-10-29T05:24:41.000Z</time>
      </trkpt>
      <trkpt lat="27.833347" lon="86.733267">
        <ele>3855.6</ele>
        <time>2022-10-29T05:24:43.000Z</time>
      </trkpt>
      <trkpt lat="27.833328" lon="86.733267">
        <ele>3854.8</ele>
        <time>2022-10-29T05:24:45.000Z</time>
      </trkpt>
      <trkpt lat="27.833306" lon="86.733267">
        <ele>3853.8</ele>
        <time>2022-10-29T05:24:48.000Z</time>
      </trkpt>
      <trkpt lat="27.833283" lon="86.733274">
        <ele>3854</ele>
        <time>2022-10-29T05:24:51.000Z</time>
      </trkpt>
      <trkpt lat="27.833274" lon="86.733293">
        <ele>3853.8</ele>
        <time>2022-10-29T05:24:54.000Z</time>
      </trkpt>
      <trkpt lat="27.833251" lon="86.733293">
        <ele>3852.4</ele>
        <time>2022-10-29T05:24:57.000Z</time>
      </trkpt>
      <trkpt lat="27.833232" lon="86.733293">
        <ele>3851.4</ele>
        <time>2022-10-29T05:24:59.000Z</time>
      </trkpt>
      <trkpt lat="27.833206" lon="86.733293">
        <ele>3850.4</ele>
        <time>2022-10-29T05:25:02.000Z</time>
      </trkpt>
      <trkpt lat="27.833187" lon="86.733299">
        <ele>3849.4</ele>
        <time>2022-10-29T05:25:04.000Z</time>
      </trkpt>
      <trkpt lat="27.833162" lon="86.733286">
        <ele>3848.4</ele>
        <time>2022-10-29T05:25:07.000Z</time>
      </trkpt>
      <trkpt lat="27.833142" lon="86.733267">
        <ele>3847.8</ele>
        <time>2022-10-29T05:25:09.000Z</time>
      </trkpt>
      <trkpt lat="27.833123" lon="86.733248">
        <ele>3847.6</ele>
        <time>2022-10-29T05:25:12.000Z</time>
      </trkpt>
      <trkpt lat="27.833107" lon="86.733229">
        <ele>3846.8</ele>
        <time>2022-10-29T05:25:14.000Z</time>
      </trkpt>
      <trkpt lat="27.833082" lon="86.733216">
        <ele>3845.6</ele>
        <time>2022-10-29T05:25:17.000Z</time>
      </trkpt>
      <trkpt lat="27.833056" lon="86.733222">
        <ele>3845.2</ele>
        <time>2022-10-29T05:25:19.000Z</time>
      </trkpt>
      <trkpt lat="27.833037" lon="86.733229">
        <ele>3844.6</ele>
        <time>2022-10-29T05:25:21.000Z</time>
      </trkpt>
      <trkpt lat="27.833011" lon="86.733248">
        <ele>3845.2</ele>
        <time>2022-10-29T05:25:24.000Z</time>
      </trkpt>
      <trkpt lat="27.832992" lon="86.733261">
        <ele>3845.4</ele>
        <time>2022-10-29T05:25:27.000Z</time>
      </trkpt>
      <trkpt lat="27.832986" lon="86.733286">
        <ele>3845.2</ele>
        <time>2022-10-29T05:25:29.000Z</time>
      </trkpt>
      <trkpt lat="27.832966" lon="86.733306">
        <ele>3844.4</ele>
        <time>2022-10-29T05:25:32.000Z</time>
      </trkpt>
      <trkpt lat="27.832944" lon="86.733312">
        <ele>3844.2</ele>
        <time>2022-10-29T05:25:34.000Z</time>
      </trkpt>
      <trkpt lat="27.832922" lon="86.733325">
        <ele>3844</ele>
        <time>2022-10-29T05:25:36.000Z</time>
      </trkpt>
      <trkpt lat="27.832896" lon="86.733325">
        <ele>3843.6</ele>
        <time>2022-10-29T05:25:38.000Z</time>
      </trkpt>
      <trkpt lat="27.832877" lon="86.733331">
        <ele>3843.6</ele>
        <time>2022-10-29T05:25:40.000Z</time>
      </trkpt>
      <trkpt lat="27.832851" lon="86.733338">
        <ele>3842.4</ele>
        <time>2022-10-29T05:25:43.000Z</time>
      </trkpt>
      <trkpt lat="27.832826" lon="86.733344">
        <ele>3842.2</ele>
        <time>2022-10-29T05:25:45.000Z</time>
      </trkpt>
      <trkpt lat="27.832803" lon="86.733344">
        <ele>3842</ele>
        <time>2022-10-29T05:25:47.000Z</time>
      </trkpt>
      <trkpt lat="27.832784" lon="86.733344">
        <ele>3841.8</ele>
        <time>2022-10-29T05:25:49.000Z</time>
      </trkpt>
      <trkpt lat="27.832755" lon="86.733363">
        <ele>3841.2</ele>
        <time>2022-10-29T05:25:52.000Z</time>
      </trkpt>
      <trkpt lat="27.832736" lon="86.733363">
        <ele>3841</ele>
        <time>2022-10-29T05:25:54.000Z</time>
      </trkpt>
      <trkpt lat="27.83271" lon="86.73337">
        <ele>3839.8</ele>
        <time>2022-10-29T05:25:57.000Z</time>
      </trkpt>
      <trkpt lat="27.832688" lon="86.73337">
        <ele>3838.6</ele>
        <time>2022-10-29T05:25:59.000Z</time>
      </trkpt>
      <trkpt lat="27.832669" lon="86.73337">
        <ele>3838.4</ele>
        <time>2022-10-29T05:26:04.000Z</time>
      </trkpt>
      <trkpt lat="27.83265" lon="86.733363">
        <ele>3837.6</ele>
        <time>2022-10-29T05:26:06.000Z</time>
      </trkpt>
      <trkpt lat="27.83263" lon="86.73335">
        <ele>3837.4</ele>
        <time>2022-10-29T05:26:08.000Z</time>
      </trkpt>
      <trkpt lat="27.832605" lon="86.733344">
        <ele>3836.8</ele>
        <time>2022-10-29T05:26:11.000Z</time>
      </trkpt>
      <trkpt lat="27.832586" lon="86.733331">
        <ele>3836.8</ele>
        <time>2022-10-29T05:26:13.000Z</time>
      </trkpt>
      <trkpt lat="27.832563" lon="86.733325">
        <ele>3836.2</ele>
        <time>2022-10-29T05:26:16.000Z</time>
      </trkpt>
      <trkpt lat="27.832541" lon="86.733325">
        <ele>3836.2</ele>
        <time>2022-10-29T05:26:27.000Z</time>
      </trkpt>
      <trkpt lat="27.832518" lon="86.733312">
        <ele>3836.2</ele>
        <time>2022-10-29T05:26:30.000Z</time>
      </trkpt>
      <trkpt lat="27.832502" lon="86.733325">
        <ele>3834.4</ele>
        <time>2022-10-29T05:26:32.000Z</time>
      </trkpt>
      <trkpt lat="27.832486" lon="86.733312">
        <ele>3834.2</ele>
        <time>2022-10-29T05:26:34.000Z</time>
      </trkpt>
      <trkpt lat="27.832467" lon="86.733306">
        <ele>3834</ele>
        <time>2022-10-29T05:26:36.000Z</time>
      </trkpt>
      <trkpt lat="27.832445" lon="86.733306">
        <ele>3833.8</ele>
        <time>2022-10-29T05:26:38.000Z</time>
      </trkpt>
      <trkpt lat="27.832426" lon="86.733312">
        <ele>3833.4</ele>
        <time>2022-10-29T05:26:40.000Z</time>
      </trkpt>
      <trkpt lat="27.832406" lon="86.733325">
        <ele>3833</ele>
        <time>2022-10-29T05:26:42.000Z</time>
      </trkpt>
      <trkpt lat="27.832384" lon="86.733338">
        <ele>3833</ele>
        <time>2022-10-29T05:26:45.000Z</time>
      </trkpt>
      <trkpt lat="27.832362" lon="86.733344">
        <ele>3832.2</ele>
        <time>2022-10-29T05:26:47.000Z</time>
      </trkpt>
      <trkpt lat="27.832342" lon="86.733344">
        <ele>3831.8</ele>
        <time>2022-10-29T05:26:49.000Z</time>
      </trkpt>
      <trkpt lat="27.832323" lon="86.73335">
        <ele>3831</ele>
        <time>2022-10-29T05:26:51.000Z</time>
      </trkpt>
      <trkpt lat="27.832304" lon="86.733363">
        <ele>3830.8</ele>
        <time>2022-10-29T05:26:53.000Z</time>
      </trkpt>
      <trkpt lat="27.832282" lon="86.733363">
        <ele>3829.8</ele>
        <time>2022-10-29T05:26:55.000Z</time>
      </trkpt>
      <trkpt lat="27.832259" lon="86.73335">
        <ele>3829.4</ele>
        <time>2022-10-29T05:26:57.000Z</time>
      </trkpt>
      <trkpt lat="27.83224" lon="86.73335">
        <ele>3828.8</ele>
        <time>2022-10-29T05:26:59.000Z</time>
      </trkpt>
      <trkpt lat="27.832221" lon="86.733344">
        <ele>3828.6</ele>
        <time>2022-10-29T05:27:01.000Z</time>
      </trkpt>
      <trkpt lat="27.832202" lon="86.733344">
        <ele>3828.6</ele>
        <time>2022-10-29T05:27:03.000Z</time>
      </trkpt>
      <trkpt lat="27.832179" lon="86.733338">
        <ele>3828.2</ele>
        <time>2022-10-29T05:27:05.000Z</time>
      </trkpt>
      <trkpt lat="27.83216" lon="86.733338">
        <ele>3827.6</ele>
        <time>2022-10-29T05:27:07.000Z</time>
      </trkpt>
      <trkpt lat="27.832141" lon="86.733338">
        <ele>3827.4</ele>
        <time>2022-10-29T05:27:09.000Z</time>
      </trkpt>
      <trkpt lat="27.832122" lon="86.733331">
        <ele>3827</ele>
        <time>2022-10-29T05:27:11.000Z</time>
      </trkpt>
      <trkpt lat="27.832099" lon="86.733325">
        <ele>3826</ele>
        <time>2022-10-29T05:27:13.000Z</time>
      </trkpt>
      <trkpt lat="27.83208" lon="86.733312">
        <ele>3825.6</ele>
        <time>2022-10-29T05:27:15.000Z</time>
      </trkpt>
      <trkpt lat="27.832051" lon="86.733312">
        <ele>3825</ele>
        <time>2022-10-29T05:27:18.000Z</time>
      </trkpt>
      <trkpt lat="27.832029" lon="86.733312">
        <ele>3825</ele>
        <time>2022-10-29T05:27:20.000Z</time>
      </trkpt>
      <trkpt lat="27.832003" lon="86.733306">
        <ele>3824.4</ele>
        <time>2022-10-29T05:27:23.000Z</time>
      </trkpt>
      <trkpt lat="27.831978" lon="86.733293">
        <ele>3822.8</ele>
        <time>2022-10-29T05:27:26.000Z</time>
      </trkpt>
      <trkpt lat="27.831958" lon="86.733286">
        <ele>3822.8</ele>
        <time>2022-10-29T05:27:28.000Z</time>
      </trkpt>
      <trkpt lat="27.831936" lon="86.733286">
        <ele>3823</ele>
        <time>2022-10-29T05:27:31.000Z</time>
      </trkpt>
      <trkpt lat="27.831914" lon="86.733267">
        <ele>3821.6</ele>
        <time>2022-10-29T05:27:34.000Z</time>
      </trkpt>
      <trkpt lat="27.831894" lon="86.733267">
        <ele>3821.2</ele>
        <time>2022-10-29T05:27:37.000Z</time>
      </trkpt>
      <trkpt lat="27.831875" lon="86.733261">
        <ele>3821</ele>
        <time>2022-10-29T05:27:39.000Z</time>
      </trkpt>
      <trkpt lat="27.83185" lon="86.733254">
        <ele>3820.6</ele>
        <time>2022-10-29T05:27:42.000Z</time>
      </trkpt>
      <trkpt lat="27.83183" lon="86.733254">
        <ele>3819.6</ele>
        <time>2022-10-29T05:27:44.000Z</time>
      </trkpt>
      <trkpt lat="27.831811" lon="86.733254">
        <ele>3819</ele>
        <time>2022-10-29T05:27:46.000Z</time>
      </trkpt>
      <trkpt lat="27.831792" lon="86.733254">
        <ele>3818.6</ele>
        <time>2022-10-29T05:27:49.000Z</time>
      </trkpt>
      <trkpt lat="27.831773" lon="86.733248">
        <ele>3818.4</ele>
        <time>2022-10-29T05:27:51.000Z</time>
      </trkpt>
      <trkpt lat="27.831757" lon="86.733235">
        <ele>3817.4</ele>
        <time>2022-10-29T05:27:53.000Z</time>
      </trkpt>
      <trkpt lat="27.831731" lon="86.733229">
        <ele>3816.6</ele>
        <time>2022-10-29T05:27:56.000Z</time>
      </trkpt>
      <trkpt lat="27.831712" lon="86.733222">
        <ele>3815.8</ele>
        <time>2022-10-29T05:27:59.000Z</time>
      </trkpt>
      <trkpt lat="27.831693" lon="86.733216">
        <ele>3815.4</ele>
        <time>2022-10-29T05:28:05.000Z</time>
      </trkpt>
      <trkpt lat="27.831667" lon="86.73321">
        <ele>3815.4</ele>
        <time>2022-10-29T05:28:11.000Z</time>
      </trkpt>
      <trkpt lat="27.831645" lon="86.73321">
        <ele>3813.4</ele>
        <time>2022-10-29T05:28:15.000Z</time>
      </trkpt>
      <trkpt lat="27.831626" lon="86.73319">
        <ele>3812.8</ele>
        <time>2022-10-29T05:28:33.000Z</time>
      </trkpt>
      <trkpt lat="27.831606" lon="86.733178">
        <ele>3812.2</ele>
        <time>2022-10-29T05:28:36.000Z</time>
      </trkpt>
      <trkpt lat="27.831584" lon="86.733171">
        <ele>3811.4</ele>
        <time>2022-10-29T05:28:40.000Z</time>
      </trkpt>
      <trkpt lat="27.831581" lon="86.733139">
        <ele>3811.2</ele>
        <time>2022-10-29T05:29:10.000Z</time>
      </trkpt>
      <trkpt lat="27.831581" lon="86.733114">
        <ele>3810.4</ele>
        <time>2022-10-29T05:29:12.000Z</time>
      </trkpt>
      <trkpt lat="27.831581" lon="86.733075">
        <ele>3809.4</ele>
        <time>2022-10-29T05:29:15.000Z</time>
      </trkpt>
      <trkpt lat="27.831584" lon="86.73305">
        <ele>3808.4</ele>
        <time>2022-10-29T05:29:18.000Z</time>
      </trkpt>
      <trkpt lat="27.831584" lon="86.733024">
        <ele>3807.6</ele>
        <time>2022-10-29T05:29:20.000Z</time>
      </trkpt>
      <trkpt lat="27.831578" lon="86.733005">
        <ele>3807.4</ele>
        <time>2022-10-29T05:29:22.000Z</time>
      </trkpt>
      <trkpt lat="27.831571" lon="86.732973">
        <ele>3807.2</ele>
        <time>2022-10-29T05:29:24.000Z</time>
      </trkpt>
      <trkpt lat="27.831565" lon="86.732941">
        <ele>3807.2</ele>
        <time>2022-10-29T05:29:26.000Z</time>
      </trkpt>
      <trkpt lat="27.831565" lon="86.732915">
        <ele>3806.4</ele>
        <time>2022-10-29T05:29:30.000Z</time>
      </trkpt>
      <trkpt lat="27.831539" lon="86.732915">
        <ele>3806.4</ele>
        <time>2022-10-29T05:30:02.000Z</time>
      </trkpt>
      <trkpt lat="27.831523" lon="86.732928">
        <ele>3806.4</ele>
        <time>2022-10-29T05:30:03.000Z</time>
      </trkpt>
      <trkpt lat="27.831494" lon="86.732928">
        <ele>3805.8</ele>
        <time>2022-10-29T05:30:05.000Z</time>
      </trkpt>
      <trkpt lat="27.831462" lon="86.732928">
        <ele>3805.6</ele>
        <time>2022-10-29T05:30:07.000Z</time>
      </trkpt>
      <trkpt lat="27.831434" lon="86.732928">
        <ele>3806.4</ele>
        <time>2022-10-29T05:30:09.000Z</time>
      </trkpt>
      <trkpt lat="27.831405" lon="86.732928">
        <ele>3806.8</ele>
        <time>2022-10-29T05:30:11.000Z</time>
      </trkpt>
      <trkpt lat="27.831382" lon="86.732928">
        <ele>3806.4</ele>
        <time>2022-10-29T05:30:13.000Z</time>
      </trkpt>
      <trkpt lat="27.831363" lon="86.732915">
        <ele>3806.2</ele>
        <time>2022-10-29T05:30:15.000Z</time>
      </trkpt>
      <trkpt lat="27.831341" lon="86.732909">
        <ele>3806.8</ele>
        <time>2022-10-29T05:30:17.000Z</time>
      </trkpt>
      <trkpt lat="27.831322" lon="86.73289">
        <ele>3806.2</ele>
        <time>2022-10-29T05:30:19.000Z</time>
      </trkpt>
      <trkpt lat="27.831302" lon="86.732877">
        <ele>3805.6</ele>
        <time>2022-10-29T05:30:21.000Z</time>
      </trkpt>
      <trkpt lat="27.831283" lon="86.732877">
        <ele>3805.2</ele>
        <time>2022-10-29T05:30:23.000Z</time>
      </trkpt>
      <trkpt lat="27.831267" lon="86.732896">
        <ele>3805.2</ele>
        <time>2022-10-29T05:30:27.000Z</time>
      </trkpt>
      <trkpt lat="27.831248" lon="86.732896">
        <ele>3805.8</ele>
        <time>2022-10-29T05:30:32.000Z</time>
      </trkpt>
      <trkpt lat="27.831226" lon="86.732896">
        <ele>3805.8</ele>
        <time>2022-10-29T05:30:35.000Z</time>
      </trkpt>
      <trkpt lat="27.8312" lon="86.732902">
        <ele>3805.8</ele>
        <time>2022-10-29T05:30:38.000Z</time>
      </trkpt>
      <trkpt lat="27.831171" lon="86.732902">
        <ele>3805.6</ele>
        <time>2022-10-29T05:30:41.000Z</time>
      </trkpt>
      <trkpt lat="27.831146" lon="86.732909">
        <ele>3805.2</ele>
        <time>2022-10-29T05:30:43.000Z</time>
      </trkpt>
      <trkpt lat="27.831126" lon="86.732902">
        <ele>3804</ele>
        <time>2022-10-29T05:30:45.000Z</time>
      </trkpt>
      <trkpt lat="27.831104" lon="86.732902">
        <ele>3803.4</ele>
        <time>2022-10-29T05:30:47.000Z</time>
      </trkpt>
      <trkpt lat="27.831088" lon="86.73289">
        <ele>3803.4</ele>
        <time>2022-10-29T05:30:49.000Z</time>
      </trkpt>
      <trkpt lat="27.831066" lon="86.732877">
        <ele>3802.6</ele>
        <time>2022-10-29T05:30:52.000Z</time>
      </trkpt>
      <trkpt lat="27.831046" lon="86.732877">
        <ele>3801.8</ele>
        <time>2022-10-29T05:30:54.000Z</time>
      </trkpt>
      <trkpt lat="27.831024" lon="86.732877">
        <ele>3801.4</ele>
        <time>2022-10-29T05:30:56.000Z</time>
      </trkpt>
      <trkpt lat="27.831005" lon="86.732877">
        <ele>3801.4</ele>
        <time>2022-10-29T05:30:58.000Z</time>
      </trkpt>
      <trkpt lat="27.830986" lon="86.73287">
        <ele>3801.4</ele>
        <time>2022-10-29T05:31:00.000Z</time>
      </trkpt>
      <trkpt lat="27.830963" lon="86.732864">
        <ele>3801.2</ele>
        <time>2022-10-29T05:31:02.000Z</time>
      </trkpt>
      <trkpt lat="27.830941" lon="86.732864">
        <ele>3800.2</ele>
        <time>2022-10-29T05:31:04.000Z</time>
      </trkpt>
      <trkpt lat="27.830918" lon="86.732858">
        <ele>3800.2</ele>
        <time>2022-10-29T05:31:06.000Z</time>
      </trkpt>
      <trkpt lat="27.830902" lon="86.73287">
        <ele>3800</ele>
        <time>2022-10-29T05:31:08.000Z</time>
      </trkpt>
      <trkpt lat="27.83088" lon="86.732877">
        <ele>3799</ele>
        <time>2022-10-29T05:31:10.000Z</time>
      </trkpt>
      <trkpt lat="27.830854" lon="86.73287">
        <ele>3798.2</ele>
        <time>2022-10-29T05:31:12.000Z</time>
      </trkpt>
      <trkpt lat="27.830835" lon="86.73287">
        <ele>3798</ele>
        <time>2022-10-29T05:31:14.000Z</time>
      </trkpt>
      <trkpt lat="27.830813" lon="86.732864">
        <ele>3797.8</ele>
        <time>2022-10-29T05:31:16.000Z</time>
      </trkpt>
      <trkpt lat="27.830797" lon="86.732851">
        <ele>3797.6</ele>
        <time>2022-10-29T05:31:18.000Z</time>
      </trkpt>
      <trkpt lat="27.830778" lon="86.732832">
        <ele>3797</ele>
        <time>2022-10-29T05:31:20.000Z</time>
      </trkpt>
      <trkpt lat="27.830762" lon="86.732819">
        <ele>3796.8</ele>
        <time>2022-10-29T05:31:22.000Z</time>
      </trkpt>
      <trkpt lat="27.830742" lon="86.732806">
        <ele>3795.8</ele>
        <time>2022-10-29T05:31:24.000Z</time>
      </trkpt>
      <trkpt lat="27.830723" lon="86.732794">
        <ele>3795.6</ele>
        <time>2022-10-29T05:31:26.000Z</time>
      </trkpt>
      <trkpt lat="27.830704" lon="86.732787">
        <ele>3794.8</ele>
        <time>2022-10-29T05:31:28.000Z</time>
      </trkpt>
      <trkpt lat="27.830682" lon="86.732781">
        <ele>3794.4</ele>
        <time>2022-10-29T05:31:30.000Z</time>
      </trkpt>
      <trkpt lat="27.830659" lon="86.732781">
        <ele>3793.8</ele>
        <time>2022-10-29T05:31:32.000Z</time>
      </trkpt>
      <trkpt lat="27.83064" lon="86.732774">
        <ele>3793.6</ele>
        <time>2022-10-29T05:31:34.000Z</time>
      </trkpt>
      <trkpt lat="27.830621" lon="86.732768">
        <ele>3792.8</ele>
        <time>2022-10-29T05:31:36.000Z</time>
      </trkpt>
      <trkpt lat="27.830595" lon="86.732768">
        <ele>3792.2</ele>
        <time>2022-10-29T05:31:38.000Z</time>
      </trkpt>
      <trkpt lat="27.830573" lon="86.732768">
        <ele>3791.8</ele>
        <time>2022-10-29T05:31:40.000Z</time>
      </trkpt>
      <trkpt lat="27.830544" lon="86.732774">
        <ele>3790.6</ele>
        <time>2022-10-29T05:31:43.000Z</time>
      </trkpt>
      <trkpt lat="27.830518" lon="86.732768">
        <ele>3790.6</ele>
        <time>2022-10-29T05:31:45.000Z</time>
      </trkpt>
      <trkpt lat="27.830502" lon="86.732749">
        <ele>3790.2</ele>
        <time>2022-10-29T05:31:47.000Z</time>
      </trkpt>
      <trkpt lat="27.830483" lon="86.732742">
        <ele>3789.6</ele>
        <time>2022-10-29T05:31:49.000Z</time>
      </trkpt>
      <trkpt lat="27.830461" lon="86.732736">
        <ele>3788.8</ele>
        <time>2022-10-29T05:31:51.000Z</time>
      </trkpt>
      <trkpt lat="27.830442" lon="86.732736">
        <ele>3788.4</ele>
        <time>2022-10-29T05:31:53.000Z</time>
      </trkpt>
      <trkpt lat="27.830419" lon="86.732742">
        <ele>3788.4</ele>
        <time>2022-10-29T05:31:55.000Z</time>
      </trkpt>
      <trkpt lat="27.830397" lon="86.732749">
        <ele>3788</ele>
        <time>2022-10-29T05:31:57.000Z</time>
      </trkpt>
      <trkpt lat="27.83039" lon="86.732768">
        <ele>3788</ele>
        <time>2022-10-29T05:32:10.000Z</time>
      </trkpt>
      <trkpt lat="27.830371" lon="86.732787">
        <ele>3787.6</ele>
        <time>2022-10-29T05:32:14.000Z</time>
      </trkpt>
      <trkpt lat="27.830346" lon="86.732806">
        <ele>3786.6</ele>
        <time>2022-10-29T05:32:17.000Z</time>
      </trkpt>
      <trkpt lat="27.830326" lon="86.732813">
        <ele>3786.4</ele>
        <time>2022-10-29T05:32:19.000Z</time>
      </trkpt>
      <trkpt lat="27.830304" lon="86.732813">
        <ele>3785</ele>
        <time>2022-10-29T05:32:44.000Z</time>
      </trkpt>
      <trkpt lat="27.830275" lon="86.732826">
        <ele>3785</ele>
        <time>2022-10-29T05:32:46.000Z</time>
      </trkpt>
      <trkpt lat="27.830246" lon="86.732838">
        <ele>3784</ele>
        <time>2022-10-29T05:32:48.000Z</time>
      </trkpt>
      <trkpt lat="27.830214" lon="86.732851">
        <ele>3783</ele>
        <time>2022-10-29T05:32:50.000Z</time>
      </trkpt>
      <trkpt lat="27.830195" lon="86.732858">
        <ele>3782.6</ele>
        <time>2022-10-29T05:32:51.000Z</time>
      </trkpt>
      <trkpt lat="27.830166" lon="86.732858">
        <ele>3782.4</ele>
        <time>2022-10-29T05:32:53.000Z</time>
      </trkpt>
      <trkpt lat="27.830147" lon="86.732858">
        <ele>3782</ele>
        <time>2022-10-29T05:32:55.000Z</time>
      </trkpt>
      <trkpt lat="27.830125" lon="86.732864">
        <ele>3781.8</ele>
        <time>2022-10-29T05:32:57.000Z</time>
      </trkpt>
      <trkpt lat="27.830102" lon="86.73287">
        <ele>3781.6</ele>
        <time>2022-10-29T05:32:59.000Z</time>
      </trkpt>
      <trkpt lat="27.830083" lon="86.73287">
        <ele>3780.6</ele>
        <time>2022-10-29T05:33:02.000Z</time>
      </trkpt>
      <trkpt lat="27.830064" lon="86.732877">
        <ele>3780.6</ele>
        <time>2022-10-29T05:33:06.000Z</time>
      </trkpt>
      <trkpt lat="27.830038" lon="86.732877">
        <ele>3780.2</ele>
        <time>2022-10-29T05:33:08.000Z</time>
      </trkpt>
      <trkpt lat="27.830016" lon="86.73289">
        <ele>3779.8</ele>
        <time>2022-10-29T05:33:10.000Z</time>
      </trkpt>
      <trkpt lat="27.829997" lon="86.73289">
        <ele>3779.6</ele>
        <time>2022-10-29T05:33:12.000Z</time>
      </trkpt>
      <trkpt lat="27.829968" lon="86.732877">
        <ele>3779.4</ele>
        <time>2022-10-29T05:33:15.000Z</time>
      </trkpt>
      <trkpt lat="27.829946" lon="86.732877">
        <ele>3778.8</ele>
        <time>2022-10-29T05:33:18.000Z</time>
      </trkpt>
      <trkpt lat="27.829926" lon="86.73287">
        <ele>3777.6</ele>
        <time>2022-10-29T05:33:21.000Z</time>
      </trkpt>
      <trkpt lat="27.829907" lon="86.73287">
        <ele>3777.6</ele>
        <time>2022-10-29T05:33:24.000Z</time>
      </trkpt>
      <trkpt lat="27.829888" lon="86.73287">
        <ele>3777.4</ele>
        <time>2022-10-29T05:33:26.000Z</time>
      </trkpt>
      <trkpt lat="27.829866" lon="86.732864">
        <ele>3776.8</ele>
        <time>2022-10-29T05:33:28.000Z</time>
      </trkpt>
      <trkpt lat="27.82985" lon="86.732851">
        <ele>3776.6</ele>
        <time>2022-10-29T05:33:30.000Z</time>
      </trkpt>
      <trkpt lat="27.829824" lon="86.732838">
        <ele>3776</ele>
        <time>2022-10-29T05:33:33.000Z</time>
      </trkpt>
      <trkpt lat="27.829795" lon="86.732832">
        <ele>3775</ele>
        <time>2022-10-29T05:33:36.000Z</time>
      </trkpt>
      <trkpt lat="27.82977" lon="86.732819">
        <ele>3774.6</ele>
        <time>2022-10-29T05:33:39.000Z</time>
      </trkpt>
      <trkpt lat="27.829747" lon="86.732819">
        <ele>3774.2</ele>
        <time>2022-10-29T05:33:41.000Z</time>
      </trkpt>
      <trkpt lat="27.829728" lon="86.732813">
        <ele>3773.4</ele>
        <time>2022-10-29T05:33:43.000Z</time>
      </trkpt>
      <trkpt lat="27.829706" lon="86.732819">
        <ele>3770.8</ele>
        <time>2022-10-29T05:35:19.000Z</time>
      </trkpt>
      <trkpt lat="27.829677" lon="86.732826">
        <ele>3770.4</ele>
        <time>2022-10-29T05:35:21.000Z</time>
      </trkpt>
      <trkpt lat="27.829645" lon="86.732832">
        <ele>3770</ele>
        <time>2022-10-29T05:35:23.000Z</time>
      </trkpt>
      <trkpt lat="27.829616" lon="86.732838">
        <ele>3769.8</ele>
        <time>2022-10-29T05:35:25.000Z</time>
      </trkpt>
      <trkpt lat="27.829597" lon="86.732851">
        <ele>3768.8</ele>
        <time>2022-10-29T05:35:28.000Z</time>
      </trkpt>
      <trkpt lat="27.829571" lon="86.732851">
        <ele>3769.2</ele>
        <time>2022-10-29T05:35:31.000Z</time>
      </trkpt>
      <trkpt lat="27.829549" lon="86.732851">
        <ele>3769</ele>
        <time>2022-10-29T05:35:33.000Z</time>
      </trkpt>
      <trkpt lat="27.82953" lon="86.732858">
        <ele>3768.8</ele>
        <time>2022-10-29T05:35:36.000Z</time>
      </trkpt>
      <trkpt lat="27.829507" lon="86.732858">
        <ele>3768.8</ele>
        <time>2022-10-29T05:35:38.000Z</time>
      </trkpt>
      <trkpt lat="27.829485" lon="86.732864">
        <ele>3768.4</ele>
        <time>2022-10-29T05:35:40.000Z</time>
      </trkpt>
      <trkpt lat="27.829459" lon="86.732877">
        <ele>3768.2</ele>
        <time>2022-10-29T05:35:42.000Z</time>
      </trkpt>
      <trkpt lat="27.82944" lon="86.732877">
        <ele>3767.8</ele>
        <time>2022-10-29T05:35:44.000Z</time>
      </trkpt>
      <trkpt lat="27.829427" lon="86.732896">
        <ele>3767.2</ele>
        <time>2022-10-29T05:35:46.000Z</time>
      </trkpt>
      <trkpt lat="27.829405" lon="86.732902">
        <ele>3766.8</ele>
        <time>2022-10-29T05:35:48.000Z</time>
      </trkpt>
      <trkpt lat="27.829386" lon="86.732915">
        <ele>3766.8</ele>
        <time>2022-10-29T05:35:50.000Z</time>
      </trkpt>
      <trkpt lat="27.82936" lon="86.732928">
        <ele>3766.8</ele>
        <time>2022-10-29T05:35:52.000Z</time>
      </trkpt>
      <trkpt lat="27.829322" lon="86.732966">
        <ele>3764.2</ele>
        <time>2022-10-29T05:35:57.000Z</time>
      </trkpt>
      <trkpt lat="27.829296" lon="86.732979">
        <ele>3764.2</ele>
        <time>2022-10-29T05:36:00.000Z</time>
      </trkpt>
      <trkpt lat="27.82927" lon="86.732986">
        <ele>3763.2</ele>
        <time>2022-10-29T05:36:03.000Z</time>
      </trkpt>
      <trkpt lat="27.829251" lon="86.732979">
        <ele>3762.8</ele>
        <time>2022-10-29T05:36:05.000Z</time>
      </trkpt>
      <trkpt lat="27.829229" lon="86.732973">
        <ele>3762.8</ele>
        <time>2022-10-29T05:36:07.000Z</time>
      </trkpt>
      <trkpt lat="27.82921" lon="86.732966">
        <ele>3762.2</ele>
        <time>2022-10-29T05:36:09.000Z</time>
      </trkpt>
      <trkpt lat="27.829184" lon="86.732954">
        <ele>3761.8</ele>
        <time>2022-10-29T05:36:11.000Z</time>
      </trkpt>
      <trkpt lat="27.829168" lon="86.732966">
        <ele>3760.8</ele>
        <time>2022-10-29T05:36:13.000Z</time>
      </trkpt>
      <trkpt lat="27.829149" lon="86.732966">
        <ele>3760.4</ele>
        <time>2022-10-29T05:36:15.000Z</time>
      </trkpt>
      <trkpt lat="27.82913" lon="86.732973">
        <ele>3759.8</ele>
        <time>2022-10-29T05:36:17.000Z</time>
      </trkpt>
      <trkpt lat="27.82911" lon="86.732986">
        <ele>3759.4</ele>
        <time>2022-10-29T05:36:19.000Z</time>
      </trkpt>
      <trkpt lat="27.829091" lon="86.733005">
        <ele>3758.6</ele>
        <time>2022-10-29T05:36:22.000Z</time>
      </trkpt>
      <trkpt lat="27.829072" lon="86.733024">
        <ele>3758.8</ele>
        <time>2022-10-29T05:36:25.000Z</time>
      </trkpt>
      <trkpt lat="27.829056" lon="86.73305">
        <ele>3757.4</ele>
        <time>2022-10-29T05:36:28.000Z</time>
      </trkpt>
      <trkpt lat="27.82904" lon="86.733062">
        <ele>3756.8</ele>
        <time>2022-10-29T05:36:30.000Z</time>
      </trkpt>
      <trkpt lat="27.829014" lon="86.733062">
        <ele>3756.2</ele>
        <time>2022-10-29T05:36:32.000Z</time>
      </trkpt>
      <trkpt lat="27.828992" lon="86.733062">
        <ele>3755.6</ele>
        <time>2022-10-29T05:36:34.000Z</time>
      </trkpt>
      <trkpt lat="27.828963" lon="86.733056">
        <ele>3755.2</ele>
        <time>2022-10-29T05:36:37.000Z</time>
      </trkpt>
      <trkpt lat="27.828938" lon="86.73305">
        <ele>3754.8</ele>
        <time>2022-10-29T05:36:39.000Z</time>
      </trkpt>
      <trkpt lat="27.828915" lon="86.73305">
        <ele>3754.2</ele>
        <time>2022-10-29T05:36:41.000Z</time>
      </trkpt>
      <trkpt lat="27.828896" lon="86.733037">
        <ele>3754</ele>
        <time>2022-10-29T05:36:43.000Z</time>
      </trkpt>
      <trkpt lat="27.82887" lon="86.733037">
        <ele>3753.2</ele>
        <time>2022-10-29T05:36:45.000Z</time>
      </trkpt>
      <trkpt lat="27.828848" lon="86.733037">
        <ele>3753</ele>
        <time>2022-10-29T05:36:47.000Z</time>
      </trkpt>
      <trkpt lat="27.828826" lon="86.733037">
        <ele>3752.2</ele>
        <time>2022-10-29T05:36:49.000Z</time>
      </trkpt>
      <trkpt lat="27.828803" lon="86.733056">
        <ele>3751.8</ele>
        <time>2022-10-29T05:36:51.000Z</time>
      </trkpt>
      <trkpt lat="27.828784" lon="86.733062">
        <ele>3751.2</ele>
        <time>2022-10-29T05:36:53.000Z</time>
      </trkpt>
      <trkpt lat="27.828765" lon="86.733088">
        <ele>3750.4</ele>
        <time>2022-10-29T05:36:56.000Z</time>
      </trkpt>
      <trkpt lat="27.828755" lon="86.733107">
        <ele>3750.4</ele>
        <time>2022-10-29T05:36:58.000Z</time>
      </trkpt>
      <trkpt lat="27.828739" lon="86.733126">
        <ele>3750.2</ele>
        <time>2022-10-29T05:37:00.000Z</time>
      </trkpt>
      <trkpt lat="27.828733" lon="86.733146">
        <ele>3749</ele>
        <time>2022-10-29T05:37:31.000Z</time>
      </trkpt>
      <trkpt lat="27.828714" lon="86.733171">
        <ele>3749</ele>
        <time>2022-10-29T05:37:33.000Z</time>
      </trkpt>
      <trkpt lat="27.828694" lon="86.733184">
        <ele>3748.6</ele>
        <time>2022-10-29T05:37:35.000Z</time>
      </trkpt>
      <trkpt lat="27.828669" lon="86.733203">
        <ele>3748.2</ele>
        <time>2022-10-29T05:37:37.000Z</time>
      </trkpt>
      <trkpt lat="27.828643" lon="86.733222">
        <ele>3748</ele>
        <time>2022-10-29T05:37:39.000Z</time>
      </trkpt>
      <trkpt lat="27.828621" lon="86.733248">
        <ele>3747.8</ele>
        <time>2022-10-29T05:37:41.000Z</time>
      </trkpt>
      <trkpt lat="27.828598" lon="86.733254">
        <ele>3747.6</ele>
        <time>2022-10-29T05:37:43.000Z</time>
      </trkpt>
      <trkpt lat="27.828576" lon="86.733261">
        <ele>3747.2</ele>
        <time>2022-10-29T05:37:45.000Z</time>
      </trkpt>
      <trkpt lat="27.828554" lon="86.733267">
        <ele>3746.8</ele>
        <time>2022-10-29T05:37:47.000Z</time>
      </trkpt>
      <trkpt lat="27.828541" lon="86.733286">
        <ele>3746.8</ele>
        <time>2022-10-29T05:37:48.000Z</time>
      </trkpt>
      <trkpt lat="27.828518" lon="86.733293">
        <ele>3746.4</ele>
        <time>2022-10-29T05:37:50.000Z</time>
      </trkpt>
      <trkpt lat="27.828496" lon="86.733306">
        <ele>3745.4</ele>
        <time>2022-10-29T05:37:53.000Z</time>
      </trkpt>
      <trkpt lat="27.828477" lon="86.733325">
        <ele>3745.4</ele>
        <time>2022-10-29T05:37:56.000Z</time>
      </trkpt>
      <trkpt lat="27.828458" lon="86.733325">
        <ele>3744.4</ele>
        <time>2022-10-29T05:37:58.000Z</time>
      </trkpt>
      <trkpt lat="27.828438" lon="86.733331">
        <ele>3744.2</ele>
        <time>2022-10-29T05:38:01.000Z</time>
      </trkpt>
      <trkpt lat="27.828422" lon="86.733344">
        <ele>3743.2</ele>
        <time>2022-10-29T05:38:04.000Z</time>
      </trkpt>
      <trkpt lat="27.828403" lon="86.733363">
        <ele>3743.2</ele>
        <time>2022-10-29T05:38:06.000Z</time>
      </trkpt>
      <trkpt lat="27.828384" lon="86.73337">
        <ele>3743</ele>
        <time>2022-10-29T05:38:08.000Z</time>
      </trkpt>
      <trkpt lat="27.828362" lon="86.733376">
        <ele>3742.2</ele>
        <time>2022-10-29T05:38:10.000Z</time>
      </trkpt>
      <trkpt lat="27.828339" lon="86.733382">
        <ele>3741.2</ele>
        <time>2022-10-29T05:38:12.000Z</time>
      </trkpt>
      <trkpt lat="27.82832" lon="86.733382">
        <ele>3740.4</ele>
        <time>2022-10-29T05:38:14.000Z</time>
      </trkpt>
      <trkpt lat="27.828301" lon="86.733389">
        <ele>3740.2</ele>
        <time>2022-10-29T05:38:16.000Z</time>
      </trkpt>
      <trkpt lat="27.828275" lon="86.733402">
        <ele>3739.8</ele>
        <time>2022-10-29T05:38:18.000Z</time>
      </trkpt>
      <trkpt lat="27.82825" lon="86.733402">
        <ele>3739.4</ele>
        <time>2022-10-29T05:38:20.000Z</time>
      </trkpt>
      <trkpt lat="27.828224" lon="86.733408">
        <ele>3739.2</ele>
        <time>2022-10-29T05:38:22.000Z</time>
      </trkpt>
      <trkpt lat="27.828198" lon="86.733408">
        <ele>3738.2</ele>
        <time>2022-10-29T05:38:24.000Z</time>
      </trkpt>
      <trkpt lat="27.828173" lon="86.733414">
        <ele>3737.8</ele>
        <time>2022-10-29T05:38:26.000Z</time>
      </trkpt>
      <trkpt lat="27.828144" lon="86.733414">
        <ele>3737.4</ele>
        <time>2022-10-29T05:38:28.000Z</time>
      </trkpt>
      <trkpt lat="27.828118" lon="86.733408">
        <ele>3737</ele>
        <time>2022-10-29T05:38:30.000Z</time>
      </trkpt>
      <trkpt lat="27.828093" lon="86.733408">
        <ele>3736.4</ele>
        <time>2022-10-29T05:38:32.000Z</time>
      </trkpt>
      <trkpt lat="27.828067" lon="86.733402">
        <ele>3736.4</ele>
        <time>2022-10-29T05:38:34.000Z</time>
      </trkpt>
      <trkpt lat="27.828045" lon="86.733402">
        <ele>3736.4</ele>
        <time>2022-10-29T05:38:36.000Z</time>
      </trkpt>
      <trkpt lat="27.828026" lon="86.733408">
        <ele>3736.2</ele>
        <time>2022-10-29T05:38:38.000Z</time>
      </trkpt>
      <trkpt lat="27.828003" lon="86.733414">
        <ele>3735.4</ele>
        <time>2022-10-29T05:38:49.000Z</time>
      </trkpt>
      <trkpt lat="27.827984" lon="86.733421">
        <ele>3735</ele>
        <time>2022-10-29T05:38:52.000Z</time>
      </trkpt>
      <trkpt lat="27.827958" lon="86.733427">
        <ele>3733.6</ele>
        <time>2022-10-29T05:38:55.000Z</time>
      </trkpt>
      <trkpt lat="27.827936" lon="86.733427">
        <ele>3733.6</ele>
        <time>2022-10-29T05:38:57.000Z</time>
      </trkpt>
      <trkpt lat="27.827917" lon="86.733434">
        <ele>3733</ele>
        <time>2022-10-29T05:38:59.000Z</time>
      </trkpt>
      <trkpt lat="27.827898" lon="86.733446">
        <ele>3732.8</ele>
        <time>2022-10-29T05:39:01.000Z</time>
      </trkpt>
      <trkpt lat="27.827872" lon="86.733453">
        <ele>3731.8</ele>
        <time>2022-10-29T05:39:04.000Z</time>
      </trkpt>
      <trkpt lat="27.827853" lon="86.733459">
        <ele>3730.8</ele>
        <time>2022-10-29T05:39:06.000Z</time>
      </trkpt>
      <trkpt lat="27.827834" lon="86.733466">
        <ele>3730.8</ele>
        <time>2022-10-29T05:39:08.000Z</time>
      </trkpt>
      <trkpt lat="27.827808" lon="86.733472">
        <ele>3730</ele>
        <time>2022-10-29T05:39:11.000Z</time>
      </trkpt>
      <trkpt lat="27.827789" lon="86.733485">
        <ele>3729</ele>
        <time>2022-10-29T05:39:13.000Z</time>
      </trkpt>
      <trkpt lat="27.827766" lon="86.733491">
        <ele>3728.8</ele>
        <time>2022-10-29T05:39:15.000Z</time>
      </trkpt>
      <trkpt lat="27.827747" lon="86.733498">
        <ele>3728.4</ele>
        <time>2022-10-29T05:39:17.000Z</time>
      </trkpt>
      <trkpt lat="27.827725" lon="86.733504">
        <ele>3727.8</ele>
        <time>2022-10-29T05:39:20.000Z</time>
      </trkpt>
      <trkpt lat="27.827699" lon="86.73351">
        <ele>3727.2</ele>
        <time>2022-10-29T05:39:23.000Z</time>
      </trkpt>
      <trkpt lat="27.82768" lon="86.733523">
        <ele>3726</ele>
        <time>2022-10-29T05:39:25.000Z</time>
      </trkpt>
      <trkpt lat="27.827654" lon="86.733523">
        <ele>3725.6</ele>
        <time>2022-10-29T05:39:27.000Z</time>
      </trkpt>
      <trkpt lat="27.827632" lon="86.733523">
        <ele>3725.4</ele>
        <time>2022-10-29T05:39:29.000Z</time>
      </trkpt>
      <trkpt lat="27.827613" lon="86.733523">
        <ele>3725.2</ele>
        <time>2022-10-29T05:39:31.000Z</time>
      </trkpt>
      <trkpt lat="27.827594" lon="86.733523">
        <ele>3724.4</ele>
        <time>2022-10-29T05:39:34.000Z</time>
      </trkpt>
      <trkpt lat="27.827574" lon="86.733523">
        <ele>3724.2</ele>
        <time>2022-10-29T05:39:36.000Z</time>
      </trkpt>
      <trkpt lat="27.827552" lon="86.73353">
        <ele>3723.8</ele>
        <time>2022-10-29T05:39:38.000Z</time>
      </trkpt>
      <trkpt lat="27.827526" lon="86.733536">
        <ele>3723.2</ele>
        <time>2022-10-29T05:39:41.000Z</time>
      </trkpt>
      <trkpt lat="27.827507" lon="86.733542">
        <ele>3722.6</ele>
        <time>2022-10-29T05:39:43.000Z</time>
      </trkpt>
      <trkpt lat="27.827488" lon="86.733549">
        <ele>3722</ele>
        <time>2022-10-29T05:39:45.000Z</time>
      </trkpt>
      <trkpt lat="27.827469" lon="86.733562">
        <ele>3721.6</ele>
        <time>2022-10-29T05:39:47.000Z</time>
      </trkpt>
      <trkpt lat="27.82745" lon="86.733568">
        <ele>3721</ele>
        <time>2022-10-29T05:39:49.000Z</time>
      </trkpt>
      <trkpt lat="27.82743" lon="86.733574">
        <ele>3720.6</ele>
        <time>2022-10-29T05:39:51.000Z</time>
      </trkpt>
      <trkpt lat="27.827411" lon="86.733574">
        <ele>3719.6</ele>
        <time>2022-10-29T05:39:53.000Z</time>
      </trkpt>
      <trkpt lat="27.827392" lon="86.733574">
        <ele>3719.2</ele>
        <time>2022-10-29T05:39:55.000Z</time>
      </trkpt>
      <trkpt lat="27.827366" lon="86.733574">
        <ele>3719</ele>
        <time>2022-10-29T05:39:57.000Z</time>
      </trkpt>
      <trkpt lat="27.827344" lon="86.733574">
        <ele>3718.8</ele>
        <time>2022-10-29T05:39:59.000Z</time>
      </trkpt>
      <trkpt lat="27.827315" lon="86.733568">
        <ele>3718.4</ele>
        <time>2022-10-29T05:40:01.000Z</time>
      </trkpt>
      <trkpt lat="27.827286" lon="86.733568">
        <ele>3717.6</ele>
        <time>2022-10-29T05:40:03.000Z</time>
      </trkpt>
      <trkpt lat="27.827261" lon="86.733568">
        <ele>3717.6</ele>
        <time>2022-10-29T05:40:05.000Z</time>
      </trkpt>
      <trkpt lat="27.827232" lon="86.733574">
        <ele>3717</ele>
        <time>2022-10-29T05:40:07.000Z</time>
      </trkpt>
      <trkpt lat="27.827206" lon="86.733574">
        <ele>3716.4</ele>
        <time>2022-10-29T05:40:09.000Z</time>
      </trkpt>
      <trkpt lat="27.827184" lon="86.733574">
        <ele>3715.8</ele>
        <time>2022-10-29T05:40:11.000Z</time>
      </trkpt>
      <trkpt lat="27.827162" lon="86.733574">
        <ele>3715.4</ele>
        <time>2022-10-29T05:40:13.000Z</time>
      </trkpt>
      <trkpt lat="27.827139" lon="86.733574">
        <ele>3715</ele>
        <time>2022-10-29T05:40:15.000Z</time>
      </trkpt>
      <trkpt lat="27.827114" lon="86.733574">
        <ele>3714</ele>
        <time>2022-10-29T05:40:17.000Z</time>
      </trkpt>
      <trkpt lat="27.827088" lon="86.733574">
        <ele>3713.8</ele>
        <time>2022-10-29T05:40:19.000Z</time>
      </trkpt>
      <trkpt lat="27.827066" lon="86.733574">
        <ele>3713.6</ele>
        <time>2022-10-29T05:40:21.000Z</time>
      </trkpt>
      <trkpt lat="27.827078" lon="86.733549">
        <ele>3713.4</ele>
        <time>2022-10-29T05:40:31.000Z</time>
      </trkpt>
      <trkpt lat="27.827043" lon="86.733549">
        <ele>3710.8</ele>
        <time>2022-10-29T05:41:57.000Z</time>
      </trkpt>
      <trkpt lat="27.827024" lon="86.73353">
        <ele>3710.6</ele>
        <time>2022-10-29T05:41:59.000Z</time>
      </trkpt>
      <trkpt lat="27.827014" lon="86.73351">
        <ele>3710.6</ele>
        <time>2022-10-29T05:42:00.000Z</time>
      </trkpt>
      <trkpt lat="27.826995" lon="86.733491">
        <ele>3710</ele>
        <time>2022-10-29T05:42:02.000Z</time>
      </trkpt>
      <trkpt lat="27.826986" lon="86.733472">
        <ele>3709.8</ele>
        <time>2022-10-29T05:42:03.000Z</time>
      </trkpt>
      <trkpt lat="27.826966" lon="86.733446">
        <ele>3709</ele>
        <time>2022-10-29T05:42:05.000Z</time>
      </trkpt>
      <trkpt lat="27.826947" lon="86.733421">
        <ele>3708.8</ele>
        <time>2022-10-29T05:42:07.000Z</time>
      </trkpt>
      <trkpt lat="27.826931" lon="86.733408">
        <ele>3708.8</ele>
        <time>2022-10-29T05:42:09.000Z</time>
      </trkpt>
      <trkpt lat="27.826915" lon="86.733382">
        <ele>3709.6</ele>
        <time>2022-10-29T05:42:11.000Z</time>
      </trkpt>
      <trkpt lat="27.826899" lon="86.73337">
        <ele>3710</ele>
        <time>2022-10-29T05:42:13.000Z</time>
      </trkpt>
      <trkpt lat="27.82688" lon="86.73335">
        <ele>3709.6</ele>
        <time>2022-10-29T05:42:15.000Z</time>
      </trkpt>
      <trkpt lat="27.826861" lon="86.733338">
        <ele>3709</ele>
        <time>2022-10-29T05:42:17.000Z</time>
      </trkpt>
      <trkpt lat="27.826842" lon="86.733306">
        <ele>3708.4</ele>
        <time>2022-10-29T05:42:20.000Z</time>
      </trkpt>
      <trkpt lat="27.826826" lon="86.733286">
        <ele>3707.2</ele>
        <time>2022-10-29T05:42:23.000Z</time>
      </trkpt>
      <trkpt lat="27.826806" lon="86.733274">
        <ele>3706.8</ele>
        <time>2022-10-29T05:42:25.000Z</time>
      </trkpt>
      <trkpt lat="27.826781" lon="86.733267">
        <ele>3705.8</ele>
        <time>2022-10-29T05:42:27.000Z</time>
      </trkpt>
      <trkpt lat="27.826755" lon="86.733254">
        <ele>3705.8</ele>
        <time>2022-10-29T05:42:29.000Z</time>
      </trkpt>
      <trkpt lat="27.826733" lon="86.733235">
        <ele>3705</ele>
        <time>2022-10-29T05:42:31.000Z</time>
      </trkpt>
      <trkpt lat="27.82671" lon="86.733229">
        <ele>3705.2</ele>
        <time>2022-10-29T05:42:33.000Z</time>
      </trkpt>
      <trkpt lat="27.826691" lon="86.733216">
        <ele>3705.2</ele>
        <time>2022-10-29T05:42:35.000Z</time>
      </trkpt>
      <trkpt lat="27.826672" lon="86.73321">
        <ele>3704</ele>
        <time>2022-10-29T05:42:37.000Z</time>
      </trkpt>
      <trkpt lat="27.82665" lon="86.73319">
        <ele>3703.8</ele>
        <time>2022-10-29T05:42:39.000Z</time>
      </trkpt>
      <trkpt lat="27.826627" lon="86.733184">
        <ele>3702.6</ele>
        <time>2022-10-29T05:42:41.000Z</time>
      </trkpt>
      <trkpt lat="27.826602" lon="86.733171">
        <ele>3702.6</ele>
        <time>2022-10-29T05:42:43.000Z</time>
      </trkpt>
      <trkpt lat="27.826579" lon="86.733165">
        <ele>3702.4</ele>
        <time>2022-10-29T05:42:45.000Z</time>
      </trkpt>
      <trkpt lat="27.82656" lon="86.733146">
        <ele>3702</ele>
        <time>2022-10-29T05:42:47.000Z</time>
      </trkpt>
      <trkpt lat="27.826544" lon="86.733133">
        <ele>3701.6</ele>
        <time>2022-10-29T05:42:49.000Z</time>
      </trkpt>
      <trkpt lat="27.826525" lon="86.733107">
        <ele>3701.6</ele>
        <time>2022-10-29T05:42:51.000Z</time>
      </trkpt>
      <trkpt lat="27.826506" lon="86.733094">
        <ele>3701.6</ele>
        <time>2022-10-29T05:42:53.000Z</time>
      </trkpt>
      <trkpt lat="27.826496" lon="86.733075">
        <ele>3701</ele>
        <time>2022-10-29T05:42:54.000Z</time>
      </trkpt>
      <trkpt lat="27.82648" lon="86.733062">
        <ele>3701.2</ele>
        <time>2022-10-29T05:42:56.000Z</time>
      </trkpt>
      <trkpt lat="27.826461" lon="86.733037">
        <ele>3701.2</ele>
        <time>2022-10-29T05:42:59.000Z</time>
      </trkpt>
      <trkpt lat="27.826445" lon="86.733024">
        <ele>3701.2</ele>
        <time>2022-10-29T05:43:02.000Z</time>
      </trkpt>
      <trkpt lat="27.826435" lon="86.733005">
        <ele>3701.4</ele>
        <time>2022-10-29T05:43:05.000Z</time>
      </trkpt>
      <trkpt lat="27.826429" lon="86.732986">
        <ele>3701.2</ele>
        <time>2022-10-29T05:43:07.000Z</time>
      </trkpt>
      <trkpt lat="27.826419" lon="86.732966">
        <ele>3700.8</ele>
        <time>2022-10-29T05:43:10.000Z</time>
      </trkpt>
      <trkpt lat="27.826413" lon="86.732947">
        <ele>3700.4</ele>
        <time>2022-10-29T05:43:14.000Z</time>
      </trkpt>
      <trkpt lat="27.82641" lon="86.732915">
        <ele>3699.6</ele>
        <time>2022-10-29T05:43:23.000Z</time>
      </trkpt>
      <trkpt lat="27.82641" lon="86.73287">
        <ele>3696.6</ele>
        <time>2022-10-29T05:44:44.000Z</time>
      </trkpt>
      <trkpt lat="27.8264" lon="86.732838">
        <ele>3696.4</ele>
        <time>2022-10-29T05:44:46.000Z</time>
      </trkpt>
      <trkpt lat="27.826384" lon="86.732813">
        <ele>3696.4</ele>
        <time>2022-10-29T05:44:48.000Z</time>
      </trkpt>
      <trkpt lat="27.826374" lon="86.732794">
        <ele>3697</ele>
        <time>2022-10-29T05:44:49.000Z</time>
      </trkpt>
      <trkpt lat="27.826368" lon="86.732755">
        <ele>3696.4</ele>
        <time>2022-10-29T05:44:51.000Z</time>
      </trkpt>
      <trkpt lat="27.826358" lon="86.73273">
        <ele>3696.6</ele>
        <time>2022-10-29T05:44:53.000Z</time>
      </trkpt>
      <trkpt lat="27.826358" lon="86.732704">
        <ele>3696.4</ele>
        <time>2022-10-29T05:44:55.000Z</time>
      </trkpt>
      <trkpt lat="27.826355" lon="86.732678">
        <ele>3692.6</ele>
        <time>2022-10-29T05:45:06.000Z</time>
      </trkpt>
      <trkpt lat="27.826362" lon="86.732659">
        <ele>3691.4</ele>
        <time>2022-10-29T05:45:13.000Z</time>
      </trkpt>
      <trkpt lat="27.826371" lon="86.73264">
        <ele>3691</ele>
        <time>2022-10-29T05:45:15.000Z</time>
      </trkpt>
      <trkpt lat="27.826378" lon="86.732614">
        <ele>3689.4</ele>
        <time>2022-10-29T05:45:26.000Z</time>
      </trkpt>
      <trkpt lat="27.826387" lon="86.732595">
        <ele>3688.6</ele>
        <time>2022-10-29T05:45:29.000Z</time>
      </trkpt>
      <trkpt lat="27.8264" lon="86.732576">
        <ele>3687</ele>
        <time>2022-10-29T05:45:33.000Z</time>
      </trkpt>
      <trkpt lat="27.82641" lon="86.732557">
        <ele>3686.8</ele>
        <time>2022-10-29T05:45:35.000Z</time>
      </trkpt>
      <trkpt lat="27.826416" lon="86.732538">
        <ele>3686</ele>
        <time>2022-10-29T05:45:38.000Z</time>
      </trkpt>
      <trkpt lat="27.826422" lon="86.732518">
        <ele>3685.2</ele>
        <time>2022-10-29T05:45:40.000Z</time>
      </trkpt>
      <trkpt lat="27.826429" lon="86.732499">
        <ele>3683.4</ele>
        <time>2022-10-29T05:45:48.000Z</time>
      </trkpt>
      <trkpt lat="27.826432" lon="86.732474">
        <ele>3681.2</ele>
        <time>2022-10-29T05:46:14.000Z</time>
      </trkpt>
      <trkpt lat="27.826429" lon="86.732442">
        <ele>3680.4</ele>
        <time>2022-10-29T05:46:16.000Z</time>
      </trkpt>
      <trkpt lat="27.826429" lon="86.73241">
        <ele>3679.2</ele>
        <time>2022-10-29T05:46:19.000Z</time>
      </trkpt>
      <trkpt lat="27.826426" lon="86.732384">
        <ele>3678.8</ele>
        <time>2022-10-29T05:46:21.000Z</time>
      </trkpt>
      <trkpt lat="27.826422" lon="86.732352">
        <ele>3678.4</ele>
        <time>2022-10-29T05:46:23.000Z</time>
      </trkpt>
      <trkpt lat="27.826422" lon="86.73232">
        <ele>3677.2</ele>
        <time>2022-10-29T05:46:28.000Z</time>
      </trkpt>
      <trkpt lat="27.826419" lon="86.732294">
        <ele>3676.2</ele>
        <time>2022-10-29T05:46:32.000Z</time>
      </trkpt>
      <trkpt lat="27.826422" lon="86.732262">
        <ele>3675.6</ele>
        <time>2022-10-29T05:46:35.000Z</time>
      </trkpt>
      <trkpt lat="27.826429" lon="86.732237">
        <ele>3675.4</ele>
        <time>2022-10-29T05:46:37.000Z</time>
      </trkpt>
      <trkpt lat="27.826438" lon="86.732218">
        <ele>3674.8</ele>
        <time>2022-10-29T05:46:39.000Z</time>
      </trkpt>
      <trkpt lat="27.826448" lon="86.732192">
        <ele>3674.2</ele>
        <time>2022-10-29T05:46:41.000Z</time>
      </trkpt>
      <trkpt lat="27.826458" lon="86.732173">
        <ele>3673.8</ele>
        <time>2022-10-29T05:46:43.000Z</time>
      </trkpt>
      <trkpt lat="27.826467" lon="86.732154">
        <ele>3673.8</ele>
        <time>2022-10-29T05:46:44.000Z</time>
      </trkpt>
      <trkpt lat="27.826483" lon="86.732141">
        <ele>3673.2</ele>
        <time>2022-10-29T05:46:46.000Z</time>
      </trkpt>
      <trkpt lat="27.826499" lon="86.732122">
        <ele>3673.2</ele>
        <time>2022-10-29T05:46:48.000Z</time>
      </trkpt>
      <trkpt lat="27.826515" lon="86.732109">
        <ele>3673.4</ele>
        <time>2022-10-29T05:46:50.000Z</time>
      </trkpt>
      <trkpt lat="27.826541" lon="86.732096">
        <ele>3673.6</ele>
        <time>2022-10-29T05:46:53.000Z</time>
      </trkpt>
      <trkpt lat="27.82656" lon="86.732077">
        <ele>3673.8</ele>
        <time>2022-10-29T05:46:55.000Z</time>
      </trkpt>
      <trkpt lat="27.826579" lon="86.732064">
        <ele>3673.6</ele>
        <time>2022-10-29T05:46:57.000Z</time>
      </trkpt>
      <trkpt lat="27.826598" lon="86.732051">
        <ele>3673.2</ele>
        <time>2022-10-29T05:47:00.000Z</time>
      </trkpt>
      <trkpt lat="27.826618" lon="86.732032">
        <ele>3674.2</ele>
        <time>2022-10-29T05:47:03.000Z</time>
      </trkpt>
      <trkpt lat="27.82663" lon="86.732013">
        <ele>3674.2</ele>
        <time>2022-10-29T05:47:06.000Z</time>
      </trkpt>
      <trkpt lat="27.826634" lon="86.731987">
        <ele>3674.4</ele>
        <time>2022-10-29T05:47:08.000Z</time>
      </trkpt>
      <trkpt lat="27.82663" lon="86.731962">
        <ele>3674.6</ele>
        <time>2022-10-29T05:47:11.000Z</time>
      </trkpt>
      <trkpt lat="27.826627" lon="86.731936">
        <ele>3675.2</ele>
        <time>2022-10-29T05:47:15.000Z</time>
      </trkpt>
      <trkpt lat="27.826627" lon="86.73191">
        <ele>3675.6</ele>
        <time>2022-10-29T05:47:17.000Z</time>
      </trkpt>
      <trkpt lat="27.826618" lon="86.731885">
        <ele>3676.2</ele>
        <time>2022-10-29T05:47:21.000Z</time>
      </trkpt>
      <trkpt lat="27.826608" lon="86.731866">
        <ele>3677</ele>
        <time>2022-10-29T05:47:25.000Z</time>
      </trkpt>
      <trkpt lat="27.826602" lon="86.73184">
        <ele>3677.4</ele>
        <time>2022-10-29T05:47:28.000Z</time>
      </trkpt>
      <trkpt lat="27.826602" lon="86.731814">
        <ele>3678</ele>
        <time>2022-10-29T05:47:34.000Z</time>
      </trkpt>
      <trkpt lat="27.826595" lon="86.731795">
        <ele>3678.8</ele>
        <time>2022-10-29T05:47:39.000Z</time>
      </trkpt>
      <trkpt lat="27.826582" lon="86.731776">
        <ele>3679.6</ele>
        <time>2022-10-29T05:47:43.000Z</time>
      </trkpt>
      <trkpt lat="27.826579" lon="86.73175">
        <ele>3680.2</ele>
        <time>2022-10-29T05:47:45.000Z</time>
      </trkpt>
      <trkpt lat="27.826582" lon="86.731718">
        <ele>3679</ele>
        <time>2022-10-29T05:47:48.000Z</time>
      </trkpt>
      <trkpt lat="27.826589" lon="86.73168">
        <ele>3678</ele>
        <time>2022-10-29T05:47:51.000Z</time>
      </trkpt>
      <trkpt lat="27.826595" lon="86.731654">
        <ele>3677.8</ele>
        <time>2022-10-29T05:47:54.000Z</time>
      </trkpt>
      <trkpt lat="27.826598" lon="86.731629">
        <ele>3677.4</ele>
        <time>2022-10-29T05:47:56.000Z</time>
      </trkpt>
      <trkpt lat="27.826608" lon="86.731603">
        <ele>3677</ele>
        <time>2022-10-29T05:47:59.000Z</time>
      </trkpt>
      <trkpt lat="27.826618" lon="86.731565">
        <ele>3676</ele>
        <time>2022-10-29T05:49:24.000Z</time>
      </trkpt>
      <trkpt lat="27.826624" lon="86.731546">
        <ele>3674.8</ele>
        <time>2022-10-29T05:49:26.000Z</time>
      </trkpt>
      <trkpt lat="27.82663" lon="86.73152">
        <ele>3673.2</ele>
        <time>2022-10-29T05:49:28.000Z</time>
      </trkpt>
      <trkpt lat="27.826643" lon="86.731501">
        <ele>3672.8</ele>
        <time>2022-10-29T05:49:30.000Z</time>
      </trkpt>
      <trkpt lat="27.82665" lon="86.731469">
        <ele>3671.6</ele>
        <time>2022-10-29T05:49:32.000Z</time>
      </trkpt>
      <trkpt lat="27.826659" lon="86.731443">
        <ele>3670</ele>
        <time>2022-10-29T05:49:35.000Z</time>
      </trkpt>
      <trkpt lat="27.826662" lon="86.731418">
        <ele>3668.6</ele>
        <time>2022-10-29T05:49:38.000Z</time>
      </trkpt>
      <trkpt lat="27.826672" lon="86.731398">
        <ele>3668</ele>
        <time>2022-10-29T05:49:40.000Z</time>
      </trkpt>
      <trkpt lat="27.826678" lon="86.731379">
        <ele>3667.4</ele>
        <time>2022-10-29T05:49:42.000Z</time>
      </trkpt>
      <trkpt lat="27.826691" lon="86.73136">
        <ele>3667.2</ele>
        <time>2022-10-29T05:49:44.000Z</time>
      </trkpt>
      <trkpt lat="27.826707" lon="86.731347">
        <ele>3665.6</ele>
        <time>2022-10-29T05:49:47.000Z</time>
      </trkpt>
      <trkpt lat="27.826714" lon="86.731328">
        <ele>3664.4</ele>
        <time>2022-10-29T05:49:51.000Z</time>
      </trkpt>
      <trkpt lat="27.826723" lon="86.731309">
        <ele>3663.4</ele>
        <time>2022-10-29T05:49:54.000Z</time>
      </trkpt>
      <trkpt lat="27.82673" lon="86.731283">
        <ele>3662.4</ele>
        <time>2022-10-29T05:49:56.000Z</time>
      </trkpt>
      <trkpt lat="27.826736" lon="86.731258">
        <ele>3662.2</ele>
        <time>2022-10-29T05:49:58.000Z</time>
      </trkpt>
      <trkpt lat="27.826742" lon="86.731226">
        <ele>3662.2</ele>
        <time>2022-10-29T05:50:00.000Z</time>
      </trkpt>
      <trkpt lat="27.826749" lon="86.7312">
        <ele>3662.2</ele>
        <time>2022-10-29T05:50:02.000Z</time>
      </trkpt>
      <trkpt lat="27.826755" lon="86.731181">
        <ele>3662.2</ele>
        <time>2022-10-29T05:50:04.000Z</time>
      </trkpt>
      <trkpt lat="27.826749" lon="86.731162">
        <ele>3662.2</ele>
        <time>2022-10-29T05:50:06.000Z</time>
      </trkpt>
      <trkpt lat="27.826726" lon="86.731149">
        <ele>3661.4</ele>
        <time>2022-10-29T05:50:09.000Z</time>
      </trkpt>
      <trkpt lat="27.82671" lon="86.73113">
        <ele>3661.2</ele>
        <time>2022-10-29T05:50:11.000Z</time>
      </trkpt>
      <trkpt lat="27.826691" lon="86.731117">
        <ele>3660.2</ele>
        <time>2022-10-29T05:50:14.000Z</time>
      </trkpt>
      <trkpt lat="27.826707" lon="86.73113">
        <ele>3659.8</ele>
        <time>2022-10-29T05:50:18.000Z</time>
      </trkpt>
      <trkpt lat="27.826714" lon="86.731162">
        <ele>3658.6</ele>
        <time>2022-10-29T05:50:21.000Z</time>
      </trkpt>
      <trkpt lat="27.826688" lon="86.731162">
        <ele>3657.6</ele>
        <time>2022-10-29T05:50:25.000Z</time>
      </trkpt>
      <trkpt lat="27.826669" lon="86.731155">
        <ele>3656.6</ele>
        <time>2022-10-29T05:50:27.000Z</time>
      </trkpt>
      <trkpt lat="27.826662" lon="86.73113">
        <ele>3655.8</ele>
        <time>2022-10-29T05:50:29.000Z</time>
      </trkpt>
      <trkpt lat="27.82664" lon="86.731117">
        <ele>3655.4</ele>
        <time>2022-10-29T05:50:32.000Z</time>
      </trkpt>
      <trkpt lat="27.826618" lon="86.73111">
        <ele>3655</ele>
        <time>2022-10-29T05:50:34.000Z</time>
      </trkpt>
      <trkpt lat="27.826598" lon="86.731104">
        <ele>3654</ele>
        <time>2022-10-29T05:50:37.000Z</time>
      </trkpt>
      <trkpt lat="27.826582" lon="86.731085">
        <ele>3653.2</ele>
        <time>2022-10-29T05:50:40.000Z</time>
      </trkpt>
      <trkpt lat="27.826563" lon="86.731085">
        <ele>3652.2</ele>
        <time>2022-10-29T05:50:42.000Z</time>
      </trkpt>
      <trkpt lat="27.826538" lon="86.731078">
        <ele>3651.4</ele>
        <time>2022-10-29T05:50:45.000Z</time>
      </trkpt>
      <trkpt lat="27.826522" lon="86.731066">
        <ele>3650.4</ele>
        <time>2022-10-29T05:50:48.000Z</time>
      </trkpt>
      <trkpt lat="27.826512" lon="86.731046">
        <ele>3649.6</ele>
        <time>2022-10-29T05:50:50.000Z</time>
      </trkpt>
      <trkpt lat="27.826506" lon="86.731027">
        <ele>3649</ele>
        <time>2022-10-29T05:50:53.000Z</time>
      </trkpt>
      <trkpt lat="27.826493" lon="86.731008">
        <ele>3648.6</ele>
        <time>2022-10-29T05:50:55.000Z</time>
      </trkpt>
      <trkpt lat="27.82648" lon="86.731027">
        <ele>3647.4</ele>
        <time>2022-10-29T05:50:59.000Z</time>
      </trkpt>
      <trkpt lat="27.826461" lon="86.731027">
        <ele>3647</ele>
        <time>2022-10-29T05:51:03.000Z</time>
      </trkpt>
      <trkpt lat="27.826451" lon="86.731008">
        <ele>3646</ele>
        <time>2022-10-29T05:51:06.000Z</time>
      </trkpt>
      <trkpt lat="27.826429" lon="86.731008">
        <ele>3644.8</ele>
        <time>2022-10-29T05:51:09.000Z</time>
      </trkpt>
      <trkpt lat="27.826413" lon="86.730995">
        <ele>3644.2</ele>
        <time>2022-10-29T05:51:11.000Z</time>
      </trkpt>
      <trkpt lat="27.82639" lon="86.730982">
        <ele>3643.8</ele>
        <time>2022-10-29T05:51:13.000Z</time>
      </trkpt>
      <trkpt lat="27.826381" lon="86.730963">
        <ele>3643.2</ele>
        <time>2022-10-29T05:51:15.000Z</time>
      </trkpt>
      <trkpt lat="27.826365" lon="86.730944">
        <ele>3642</ele>
        <time>2022-10-29T05:51:18.000Z</time>
      </trkpt>
      <trkpt lat="27.826352" lon="86.730925">
        <ele>3641.4</ele>
        <time>2022-10-29T05:51:20.000Z</time>
      </trkpt>
      <trkpt lat="27.826339" lon="86.730906">
        <ele>3640.8</ele>
        <time>2022-10-29T05:51:22.000Z</time>
      </trkpt>
      <trkpt lat="27.826336" lon="86.73088">
        <ele>3640.2</ele>
        <time>2022-10-29T05:51:24.000Z</time>
      </trkpt>
      <trkpt lat="27.826336" lon="86.730848">
        <ele>3638.8</ele>
        <time>2022-10-29T05:51:29.000Z</time>
      </trkpt>
      <trkpt lat="27.826314" lon="86.730848">
        <ele>3638</ele>
        <time>2022-10-29T05:51:31.000Z</time>
      </trkpt>
      <trkpt lat="27.826304" lon="86.730822">
        <ele>3636.8</ele>
        <time>2022-10-29T05:51:36.000Z</time>
      </trkpt>
      <trkpt lat="27.826294" lon="86.730797">
        <ele>3636.4</ele>
        <time>2022-10-29T05:51:38.000Z</time>
      </trkpt>
      <trkpt lat="27.826275" lon="86.730784">
        <ele>3636.2</ele>
        <time>2022-10-29T05:51:40.000Z</time>
      </trkpt>
      <trkpt lat="27.826269" lon="86.730765">
        <ele>3635.2</ele>
        <time>2022-10-29T05:51:42.000Z</time>
      </trkpt>
      <trkpt lat="27.826253" lon="86.730752">
        <ele>3635.4</ele>
        <time>2022-10-29T05:51:44.000Z</time>
      </trkpt>
      <trkpt lat="27.826243" lon="86.730733">
        <ele>3635.4</ele>
        <time>2022-10-29T05:51:45.000Z</time>
      </trkpt>
      <trkpt lat="27.826224" lon="86.730714">
        <ele>3634.6</ele>
        <time>2022-10-29T05:51:48.000Z</time>
      </trkpt>
      <trkpt lat="27.826205" lon="86.730688">
        <ele>3634</ele>
        <time>2022-10-29T05:51:51.000Z</time>
      </trkpt>
      <trkpt lat="27.826186" lon="86.730675">
        <ele>3633.8</ele>
        <time>2022-10-29T05:51:53.000Z</time>
      </trkpt>
      <trkpt lat="27.82617" lon="86.73065">
        <ele>3633.2</ele>
        <time>2022-10-29T05:51:55.000Z</time>
      </trkpt>
      <trkpt lat="27.826154" lon="86.73063">
        <ele>3633.2</ele>
        <time>2022-10-29T05:51:57.000Z</time>
      </trkpt>
      <trkpt lat="27.826138" lon="86.730611">
        <ele>3633</ele>
        <time>2022-10-29T05:51:59.000Z</time>
      </trkpt>
      <trkpt lat="27.826122" lon="86.730592">
        <ele>3633</ele>
        <time>2022-10-29T05:52:01.000Z</time>
      </trkpt>
      <trkpt lat="27.826102" lon="86.730573">
        <ele>3632.8</ele>
        <time>2022-10-29T05:52:03.000Z</time>
      </trkpt>
      <trkpt lat="27.826083" lon="86.730554">
        <ele>3632.4</ele>
        <time>2022-10-29T05:52:05.000Z</time>
      </trkpt>
      <trkpt lat="27.826067" lon="86.730534">
        <ele>3632.2</ele>
        <time>2022-10-29T05:52:07.000Z</time>
      </trkpt>
      <trkpt lat="27.826051" lon="86.730509">
        <ele>3631.6</ele>
        <time>2022-10-29T05:52:10.000Z</time>
      </trkpt>
      <trkpt lat="27.826038" lon="86.730483">
        <ele>3631.6</ele>
        <time>2022-10-29T05:52:12.000Z</time>
      </trkpt>
      <trkpt lat="27.826026" lon="86.730464">
        <ele>3631.6</ele>
        <time>2022-10-29T05:52:14.000Z</time>
      </trkpt>
      <trkpt lat="27.826003" lon="86.730451">
        <ele>3631.4</ele>
        <time>2022-10-29T05:52:16.000Z</time>
      </trkpt>
      <trkpt lat="27.825987" lon="86.730432">
        <ele>3631.2</ele>
        <time>2022-10-29T05:52:19.000Z</time>
      </trkpt>
      <trkpt lat="27.825978" lon="86.730413">
        <ele>3630.4</ele>
        <time>2022-10-29T05:52:21.000Z</time>
      </trkpt>
      <trkpt lat="27.825962" lon="86.730394">
        <ele>3630.2</ele>
        <time>2022-10-29T05:52:23.000Z</time>
      </trkpt>
      <trkpt lat="27.825936" lon="86.730368">
        <ele>3629.6</ele>
        <time>2022-10-29T05:52:26.000Z</time>
      </trkpt>
      <trkpt lat="27.82592" lon="86.730355">
        <ele>3629.2</ele>
        <time>2022-10-29T05:52:28.000Z</time>
      </trkpt>
      <trkpt lat="27.825914" lon="86.730336">
        <ele>3629</ele>
        <time>2022-10-29T05:52:29.000Z</time>
      </trkpt>
      <trkpt lat="27.825898" lon="86.730317">
        <ele>3628.6</ele>
        <time>2022-10-29T05:52:31.000Z</time>
      </trkpt>
      <trkpt lat="27.825875" lon="86.730285">
        <ele>3628.4</ele>
        <time>2022-10-29T05:52:34.000Z</time>
      </trkpt>
      <trkpt lat="27.825856" lon="86.730266">
        <ele>3628.4</ele>
        <time>2022-10-29T05:52:36.000Z</time>
      </trkpt>
      <trkpt lat="27.825837" lon="86.730246">
        <ele>3628.2</ele>
        <time>2022-10-29T05:52:38.000Z</time>
      </trkpt>
      <trkpt lat="27.825818" lon="86.730227">
        <ele>3627.6</ele>
        <time>2022-10-29T05:52:40.000Z</time>
      </trkpt>
      <trkpt lat="27.825808" lon="86.730202">
        <ele>3627.4</ele>
        <time>2022-10-29T05:52:42.000Z</time>
      </trkpt>
      <trkpt lat="27.825792" lon="86.730189">
        <ele>3626.6</ele>
        <time>2022-10-29T05:52:46.000Z</time>
      </trkpt>
      <trkpt lat="27.82577" lon="86.730176">
        <ele>3626.2</ele>
        <time>2022-10-29T05:52:51.000Z</time>
      </trkpt>
      <trkpt lat="27.825744" lon="86.73017">
        <ele>3625.8</ele>
        <time>2022-10-29T05:52:54.000Z</time>
      </trkpt>
      <trkpt lat="27.825725" lon="86.730163">
        <ele>3624.6</ele>
        <time>2022-10-29T05:52:59.000Z</time>
      </trkpt>
      <trkpt lat="27.825706" lon="86.730157">
        <ele>3624.4</ele>
        <time>2022-10-29T05:53:03.000Z</time>
      </trkpt>
      <trkpt lat="27.825686" lon="86.73015">
        <ele>3623.4</ele>
        <time>2022-10-29T05:53:06.000Z</time>
      </trkpt>
      <trkpt lat="27.825667" lon="86.73015">
        <ele>3623</ele>
        <time>2022-10-29T05:53:08.000Z</time>
      </trkpt>
      <trkpt lat="27.825648" lon="86.73015">
        <ele>3622.4</ele>
        <time>2022-10-29T05:53:10.000Z</time>
      </trkpt>
      <trkpt lat="27.825622" lon="86.730157">
        <ele>3622</ele>
        <time>2022-10-29T05:53:12.000Z</time>
      </trkpt>
      <trkpt lat="27.825603" lon="86.730157">
        <ele>3621.8</ele>
        <time>2022-10-29T05:53:14.000Z</time>
      </trkpt>
      <trkpt lat="27.825571" lon="86.73015">
        <ele>3621.2</ele>
        <time>2022-10-29T05:53:16.000Z</time>
      </trkpt>
      <trkpt lat="27.825552" lon="86.730138">
        <ele>3621</ele>
        <time>2022-10-29T05:53:18.000Z</time>
      </trkpt>
      <trkpt lat="27.82553" lon="86.730138">
        <ele>3621</ele>
        <time>2022-10-29T05:53:20.000Z</time>
      </trkpt>
      <trkpt lat="27.825507" lon="86.730131">
        <ele>3620.8</ele>
        <time>2022-10-29T05:53:22.000Z</time>
      </trkpt>
      <trkpt lat="27.825488" lon="86.730131">
        <ele>3620</ele>
        <time>2022-10-29T05:53:27.000Z</time>
      </trkpt>
      <trkpt lat="27.825459" lon="86.730131">
        <ele>3619.4</ele>
        <time>2022-10-29T05:53:30.000Z</time>
      </trkpt>
      <trkpt lat="27.825437" lon="86.730131">
        <ele>3619.4</ele>
        <time>2022-10-29T05:53:33.000Z</time>
      </trkpt>
      <trkpt lat="27.825421" lon="86.730118">
        <ele>3618.8</ele>
        <time>2022-10-29T05:53:40.000Z</time>
      </trkpt>
      <trkpt lat="27.825405" lon="86.730093">
        <ele>3618.4</ele>
        <time>2022-10-29T05:53:42.000Z</time>
      </trkpt>
      <trkpt lat="27.825389" lon="86.73008">
        <ele>3618.2</ele>
        <time>2022-10-29T05:53:44.000Z</time>
      </trkpt>
      <trkpt lat="27.825382" lon="86.730054">
        <ele>3617.8</ele>
        <time>2022-10-29T05:53:46.000Z</time>
      </trkpt>
      <trkpt lat="27.825373" lon="86.730035">
        <ele>3617</ele>
        <time>2022-10-29T05:53:48.000Z</time>
      </trkpt>
      <trkpt lat="27.82537" lon="86.73001">
        <ele>3616.4</ele>
        <time>2022-10-29T05:53:49.000Z</time>
      </trkpt>
      <trkpt lat="27.82537" lon="86.729978">
        <ele>3616</ele>
        <time>2022-10-29T05:53:51.000Z</time>
      </trkpt>
      <trkpt lat="27.82536" lon="86.729952">
        <ele>3615.8</ele>
        <time>2022-10-29T05:53:53.000Z</time>
      </trkpt>
      <trkpt lat="27.82535" lon="86.729933">
        <ele>3615.4</ele>
        <time>2022-10-29T05:53:54.000Z</time>
      </trkpt>
      <trkpt lat="27.825338" lon="86.729914">
        <ele>3615</ele>
        <time>2022-10-29T05:53:56.000Z</time>
      </trkpt>
      <trkpt lat="27.825328" lon="86.729888">
        <ele>3614.2</ele>
        <time>2022-10-29T05:53:58.000Z</time>
      </trkpt>
      <trkpt lat="27.825306" lon="86.729875">
        <ele>3613.8</ele>
        <time>2022-10-29T05:54:00.000Z</time>
      </trkpt>
      <trkpt lat="27.825296" lon="86.72985">
        <ele>3613.4</ele>
        <time>2022-10-29T05:54:02.000Z</time>
      </trkpt>
      <trkpt lat="27.82528" lon="86.72983">
        <ele>3612.8</ele>
        <time>2022-10-29T05:54:04.000Z</time>
      </trkpt>
      <trkpt lat="27.82527" lon="86.729805">
        <ele>3612.6</ele>
        <time>2022-10-29T05:54:06.000Z</time>
      </trkpt>
      <trkpt lat="27.825251" lon="86.729779">
        <ele>3612.4</ele>
        <time>2022-10-29T05:54:09.000Z</time>
      </trkpt>
      <trkpt lat="27.825229" lon="86.72976">
        <ele>3611.4</ele>
        <time>2022-10-29T05:54:12.000Z</time>
      </trkpt>
      <trkpt lat="27.825203" lon="86.72976">
        <ele>3611.2</ele>
        <time>2022-10-29T05:54:15.000Z</time>
      </trkpt>
      <trkpt lat="27.825171" lon="86.729741">
        <ele>3610</ele>
        <time>2022-10-29T05:54:19.000Z</time>
      </trkpt>
      <trkpt lat="27.825139" lon="86.729734">
        <ele>3609.2</ele>
        <time>2022-10-29T05:54:21.000Z</time>
      </trkpt>
      <trkpt lat="27.82512" lon="86.729728">
        <ele>3608.8</ele>
        <time>2022-10-29T05:54:23.000Z</time>
      </trkpt>
      <trkpt lat="27.825101" lon="86.729709">
        <ele>3608.2</ele>
        <time>2022-10-29T05:54:25.000Z</time>
      </trkpt>
      <trkpt lat="27.825098" lon="86.729683">
        <ele>3608</ele>
        <time>2022-10-29T05:54:27.000Z</time>
      </trkpt>
      <trkpt lat="27.825072" lon="86.72967">
        <ele>3607.6</ele>
        <time>2022-10-29T05:54:29.000Z</time>
      </trkpt>
      <trkpt lat="27.825062" lon="86.729645">
        <ele>3607.4</ele>
        <time>2022-10-29T05:54:31.000Z</time>
      </trkpt>
      <trkpt lat="27.825059" lon="86.729619">
        <ele>3607.2</ele>
        <time>2022-10-29T05:54:33.000Z</time>
      </trkpt>
      <trkpt lat="27.82504" lon="86.7296">
        <ele>3607.2</ele>
        <time>2022-10-29T05:54:35.000Z</time>
      </trkpt>
      <trkpt lat="27.82504" lon="86.729574">
        <ele>3606.8</ele>
        <time>2022-10-29T05:54:41.000Z</time>
      </trkpt>
      <trkpt lat="27.82503" lon="86.729555">
        <ele>3606.8</ele>
        <time>2022-10-29T05:54:45.000Z</time>
      </trkpt>
      <trkpt lat="27.825034" lon="86.729491">
        <ele>3606.8</ele>
        <time>2022-10-29T05:55:29.000Z</time>
      </trkpt>
      <trkpt lat="27.825024" lon="86.729459">
        <ele>3606.4</ele>
        <time>2022-10-29T05:55:31.000Z</time>
      </trkpt>
      <trkpt lat="27.825011" lon="86.72944">
        <ele>3606.4</ele>
        <time>2022-10-29T05:55:33.000Z</time>
      </trkpt>
      <trkpt lat="27.825008" lon="86.729408">
        <ele>3606.4</ele>
        <time>2022-10-29T05:55:35.000Z</time>
      </trkpt>
      <trkpt lat="27.824998" lon="86.729376">
        <ele>3606.6</ele>
        <time>2022-10-29T05:55:37.000Z</time>
      </trkpt>
      <trkpt lat="27.825002" lon="86.72935">
        <ele>3606.6</ele>
        <time>2022-10-29T05:55:39.000Z</time>
      </trkpt>
      <trkpt lat="27.825008" lon="86.729331">
        <ele>3607</ele>
        <time>2022-10-29T05:55:41.000Z</time>
      </trkpt>
      <trkpt lat="27.824998" lon="86.729299">
        <ele>3607</ele>
        <time>2022-10-29T05:55:44.000Z</time>
      </trkpt>
      <trkpt lat="27.824982" lon="86.72928">
        <ele>3606.8</ele>
        <time>2022-10-29T05:55:47.000Z</time>
      </trkpt>
      <trkpt lat="27.824973" lon="86.729254">
        <ele>3606.8</ele>
        <time>2022-10-29T05:55:49.000Z</time>
      </trkpt>
      <trkpt lat="27.82495" lon="86.729235">
        <ele>3606.8</ele>
        <time>2022-10-29T05:55:52.000Z</time>
      </trkpt>
      <trkpt lat="27.824944" lon="86.729216">
        <ele>3606.8</ele>
        <time>2022-10-29T05:55:53.000Z</time>
      </trkpt>
      <trkpt lat="27.824918" lon="86.729197">
        <ele>3607.2</ele>
        <time>2022-10-29T05:55:56.000Z</time>
      </trkpt>
      <trkpt lat="27.824899" lon="86.729184">
        <ele>3607</ele>
        <time>2022-10-29T05:55:58.000Z</time>
      </trkpt>
      <trkpt lat="27.824883" lon="86.729165">
        <ele>3607</ele>
        <time>2022-10-29T05:56:00.000Z</time>
      </trkpt>
      <trkpt lat="27.82487" lon="86.729139">
        <ele>3607.2</ele>
        <time>2022-10-29T05:56:02.000Z</time>
      </trkpt>
      <trkpt lat="27.824858" lon="86.72912">
        <ele>3607.6</ele>
        <time>2022-10-29T05:56:05.000Z</time>
      </trkpt>
      <trkpt lat="27.824842" lon="86.729101">
        <ele>3607.8</ele>
        <time>2022-10-29T05:56:07.000Z</time>
      </trkpt>
      <trkpt lat="27.824822" lon="86.729088">
        <ele>3607.6</ele>
        <time>2022-10-29T05:56:09.000Z</time>
      </trkpt>
      <trkpt lat="27.8248" lon="86.729082">
        <ele>3608</ele>
        <time>2022-10-29T05:56:12.000Z</time>
      </trkpt>
      <trkpt lat="27.824774" lon="86.729082">
        <ele>3607.8</ele>
        <time>2022-10-29T05:56:16.000Z</time>
      </trkpt>
      <trkpt lat="27.824758" lon="86.729062">
        <ele>3608.2</ele>
        <time>2022-10-29T05:56:20.000Z</time>
      </trkpt>
      <trkpt lat="27.824739" lon="86.729056">
        <ele>3608.6</ele>
        <time>2022-10-29T05:56:23.000Z</time>
      </trkpt>
      <trkpt lat="27.82472" lon="86.72905">
        <ele>3609</ele>
        <time>2022-10-29T05:56:26.000Z</time>
      </trkpt>
      <trkpt lat="27.824701" lon="86.729043">
        <ele>3609.6</ele>
        <time>2022-10-29T05:56:29.000Z</time>
      </trkpt>
      <trkpt lat="27.824682" lon="86.729043">
        <ele>3610.2</ele>
        <time>2022-10-29T05:56:32.000Z</time>
      </trkpt>
      <trkpt lat="27.824662" lon="86.729037">
        <ele>3610.6</ele>
        <time>2022-10-29T05:56:39.000Z</time>
      </trkpt>
      <trkpt lat="27.824646" lon="86.72905">
        <ele>3610.8</ele>
        <time>2022-10-29T05:56:43.000Z</time>
      </trkpt>
      <trkpt lat="27.824666" lon="86.729062">
        <ele>3610.8</ele>
        <time>2022-10-29T05:56:44.000Z</time>
      </trkpt>
      <trkpt lat="27.824656" lon="86.729088">
        <ele>3610.8</ele>
        <time>2022-10-29T05:56:48.000Z</time>
      </trkpt>
      <trkpt lat="27.824659" lon="86.729114">
        <ele>3610.6</ele>
        <time>2022-10-29T05:56:51.000Z</time>
      </trkpt>
      <trkpt lat="27.824653" lon="86.729133">
        <ele>3610.8</ele>
        <time>2022-10-29T05:56:54.000Z</time>
      </trkpt>
      <trkpt lat="27.824653" lon="86.729158">
        <ele>3610.6</ele>
        <time>2022-10-29T05:56:57.000Z</time>
      </trkpt>
      <trkpt lat="27.824643" lon="86.729184">
        <ele>3610.8</ele>
        <time>2022-10-29T05:57:00.000Z</time>
      </trkpt>
      <trkpt lat="27.824637" lon="86.729203">
        <ele>3610.8</ele>
        <time>2022-10-29T05:57:02.000Z</time>
      </trkpt>
      <trkpt lat="27.824624" lon="86.729222">
        <ele>3610.8</ele>
        <time>2022-10-29T05:57:06.000Z</time>
      </trkpt>
      <trkpt lat="27.824605" lon="86.729235">
        <ele>3610.8</ele>
        <time>2022-10-29T05:57:09.000Z</time>
      </trkpt>
      <trkpt lat="27.824586" lon="86.729248">
        <ele>3611.4</ele>
        <time>2022-10-29T05:57:13.000Z</time>
      </trkpt>
      <trkpt lat="27.824563" lon="86.729254">
        <ele>3612</ele>
        <time>2022-10-29T05:57:16.000Z</time>
      </trkpt>
      <trkpt lat="27.824557" lon="86.72928">
        <ele>3612</ele>
        <time>2022-10-29T05:57:19.000Z</time>
      </trkpt>
      <trkpt lat="27.824534" lon="86.729286">
        <ele>3612.2</ele>
        <time>2022-10-29T05:57:24.000Z</time>
      </trkpt>
      <trkpt lat="27.824515" lon="86.729299">
        <ele>3612.8</ele>
        <time>2022-10-29T05:57:27.000Z</time>
      </trkpt>
      <trkpt lat="27.824493" lon="86.729312">
        <ele>3613</ele>
        <time>2022-10-29T05:57:30.000Z</time>
      </trkpt>
      <trkpt lat="27.824474" lon="86.729318">
        <ele>3613</ele>
        <time>2022-10-29T05:57:32.000Z</time>
      </trkpt>
      <trkpt lat="27.824451" lon="86.729331">
        <ele>3613.6</ele>
        <time>2022-10-29T05:57:35.000Z</time>
      </trkpt>
      <trkpt lat="27.824432" lon="86.729338">
        <ele>3613.6</ele>
        <time>2022-10-29T05:57:37.000Z</time>
      </trkpt>
      <trkpt lat="27.824413" lon="86.729357">
        <ele>3613.4</ele>
        <time>2022-10-29T05:57:39.000Z</time>
      </trkpt>
      <trkpt lat="27.824394" lon="86.729363">
        <ele>3613.4</ele>
        <time>2022-10-29T05:57:41.000Z</time>
      </trkpt>
      <trkpt lat="27.824374" lon="86.72937">
        <ele>3613.6</ele>
        <time>2022-10-29T05:57:43.000Z</time>
      </trkpt>
      <trkpt lat="27.824355" lon="86.729376">
        <ele>3614</ele>
        <time>2022-10-29T05:57:45.000Z</time>
      </trkpt>
      <trkpt lat="27.824336" lon="86.729376">
        <ele>3614.2</ele>
        <time>2022-10-29T05:57:47.000Z</time>
      </trkpt>
      <trkpt lat="27.824314" lon="86.729382">
        <ele>3614.4</ele>
        <time>2022-10-29T05:57:50.000Z</time>
      </trkpt>
      <trkpt lat="27.824301" lon="86.729402">
        <ele>3615</ele>
        <time>2022-10-29T05:57:52.000Z</time>
      </trkpt>
      <trkpt lat="27.824278" lon="86.729421">
        <ele>3615.2</ele>
        <time>2022-10-29T05:57:55.000Z</time>
      </trkpt>
      <trkpt lat="27.824259" lon="86.729434">
        <ele>3615.4</ele>
        <time>2022-10-29T05:57:58.000Z</time>
      </trkpt>
      <trkpt lat="27.824243" lon="86.729446">
        <ele>3616</ele>
        <time>2022-10-29T05:58:03.000Z</time>
      </trkpt>
      <trkpt lat="27.824237" lon="86.729478">
        <ele>3615.6</ele>
        <time>2022-10-29T05:58:06.000Z</time>
      </trkpt>
      <trkpt lat="27.824227" lon="86.729498">
        <ele>3616</ele>
        <time>2022-10-29T05:58:09.000Z</time>
      </trkpt>
      <trkpt lat="27.824224" lon="86.729523">
        <ele>3616.4</ele>
        <time>2022-10-29T05:58:12.000Z</time>
      </trkpt>
      <trkpt lat="27.824208" lon="86.729542">
        <ele>3616.8</ele>
        <time>2022-10-29T05:58:16.000Z</time>
      </trkpt>
      <trkpt lat="27.824202" lon="86.729568">
        <ele>3617.2</ele>
        <time>2022-10-29T05:58:19.000Z</time>
      </trkpt>
      <trkpt lat="27.824182" lon="86.729594">
        <ele>3617.2</ele>
        <time>2022-10-29T05:58:22.000Z</time>
      </trkpt>
      <trkpt lat="27.824163" lon="86.729613">
        <ele>3617.4</ele>
        <time>2022-10-29T05:58:25.000Z</time>
      </trkpt>
      <trkpt lat="27.82416" lon="86.729638">
        <ele>3617.2</ele>
        <time>2022-10-29T05:58:27.000Z</time>
      </trkpt>
      <trkpt lat="27.824166" lon="86.729658">
        <ele>3616.8</ele>
        <time>2022-10-29T05:58:30.000Z</time>
      </trkpt>
      <trkpt lat="27.824163" lon="86.729683">
        <ele>3616.4</ele>
        <time>2022-10-29T05:58:32.000Z</time>
      </trkpt>
      <trkpt lat="27.824157" lon="86.729715">
        <ele>3616</ele>
        <time>2022-10-29T05:58:34.000Z</time>
      </trkpt>
      <trkpt lat="27.824147" lon="86.729734">
        <ele>3615.4</ele>
        <time>2022-10-29T05:58:37.000Z</time>
      </trkpt>
      <trkpt lat="27.824134" lon="86.729754">
        <ele>3615.4</ele>
        <time>2022-10-29T05:58:39.000Z</time>
      </trkpt>
      <trkpt lat="27.824118" lon="86.729773">
        <ele>3614.8</ele>
        <time>2022-10-29T05:58:41.000Z</time>
      </trkpt>
      <trkpt lat="27.824106" lon="86.729798">
        <ele>3614.6</ele>
        <time>2022-10-29T05:58:43.000Z</time>
      </trkpt>
      <trkpt lat="27.824096" lon="86.729818">
        <ele>3614.6</ele>
        <time>2022-10-29T05:58:45.000Z</time>
      </trkpt>
      <trkpt lat="27.82409" lon="86.729843">
        <ele>3614.6</ele>
        <time>2022-10-29T05:58:47.000Z</time>
      </trkpt>
      <trkpt lat="27.824077" lon="86.729869">
        <ele>3614.6</ele>
        <time>2022-10-29T05:58:49.000Z</time>
      </trkpt>
      <trkpt lat="27.824061" lon="86.729888">
        <ele>3614.4</ele>
        <time>2022-10-29T05:58:52.000Z</time>
      </trkpt>
      <trkpt lat="27.824045" lon="86.729914">
        <ele>3614.8</ele>
        <time>2022-10-29T05:58:55.000Z</time>
      </trkpt>
      <trkpt lat="27.824029" lon="86.729933">
        <ele>3615</ele>
        <time>2022-10-29T05:58:58.000Z</time>
      </trkpt>
      <trkpt lat="27.824016" lon="86.729952">
        <ele>3615</ele>
        <time>2022-10-29T05:59:00.000Z</time>
      </trkpt>
      <trkpt lat="27.82401" lon="86.729971">
        <ele>3615.2</ele>
        <time>2022-10-29T05:59:03.000Z</time>
      </trkpt>
      <trkpt lat="27.824" lon="86.729997">
        <ele>3615.8</ele>
        <time>2022-10-29T05:59:05.000Z</time>
      </trkpt>
      <trkpt lat="27.823978" lon="86.73001">
        <ele>3616</ele>
        <time>2022-10-29T05:59:08.000Z</time>
      </trkpt>
      <trkpt lat="27.823971" lon="86.730029">
        <ele>3616</ele>
        <time>2022-10-29T05:59:11.000Z</time>
      </trkpt>
      <trkpt lat="27.823955" lon="86.730042">
        <ele>3616.2</ele>
        <time>2022-10-29T05:59:15.000Z</time>
      </trkpt>
      <trkpt lat="27.823942" lon="86.730067">
        <ele>3616.6</ele>
        <time>2022-10-29T05:59:20.000Z</time>
      </trkpt>
      <trkpt lat="27.823926" lon="86.73008">
        <ele>3617</ele>
        <time>2022-10-29T05:59:26.000Z</time>
      </trkpt>
      <trkpt lat="27.82391" lon="86.730093">
        <ele>3617</ele>
        <time>2022-10-29T05:59:31.000Z</time>
      </trkpt>
      <trkpt lat="27.823894" lon="86.730112">
        <ele>3617.4</ele>
        <time>2022-10-29T05:59:33.000Z</time>
      </trkpt>
      <trkpt lat="27.823866" lon="86.730118">
        <ele>3617.8</ele>
        <time>2022-10-29T05:59:36.000Z</time>
      </trkpt>
      <trkpt lat="27.823846" lon="86.730131">
        <ele>3617.8</ele>
        <time>2022-10-29T06:00:00.000Z</time>
      </trkpt>
      <trkpt lat="27.823824" lon="86.730157">
        <ele>3617.6</ele>
        <time>2022-10-29T06:00:02.000Z</time>
      </trkpt>
      <trkpt lat="27.823802" lon="86.730189">
        <ele>3617.4</ele>
        <time>2022-10-29T06:00:04.000Z</time>
      </trkpt>
      <trkpt lat="27.823779" lon="86.730208">
        <ele>3617.4</ele>
        <time>2022-10-29T06:00:06.000Z</time>
      </trkpt>
      <trkpt lat="27.823757" lon="86.730234">
        <ele>3617.8</ele>
        <time>2022-10-29T06:00:08.000Z</time>
      </trkpt>
      <trkpt lat="27.823734" lon="86.730246">
        <ele>3617.6</ele>
        <time>2022-10-29T06:00:11.000Z</time>
      </trkpt>
      <trkpt lat="27.823722" lon="86.730266">
        <ele>3617.6</ele>
        <time>2022-10-29T06:00:13.000Z</time>
      </trkpt>
      <trkpt lat="27.823706" lon="86.730278">
        <ele>3618</ele>
        <time>2022-10-29T06:00:16.000Z</time>
      </trkpt>
      <trkpt lat="27.82369" lon="86.730291">
        <ele>3618.4</ele>
        <time>2022-10-29T06:00:20.000Z</time>
      </trkpt>
      <trkpt lat="27.82367" lon="86.73031">
        <ele>3618.6</ele>
        <time>2022-10-29T06:00:23.000Z</time>
      </trkpt>
      <trkpt lat="27.823645" lon="86.730323">
        <ele>3619</ele>
        <time>2022-10-29T06:00:26.000Z</time>
      </trkpt>
      <trkpt lat="27.823629" lon="86.730336">
        <ele>3619</ele>
        <time>2022-10-29T06:00:28.000Z</time>
      </trkpt>
      <trkpt lat="27.823619" lon="86.730355">
        <ele>3619</ele>
        <time>2022-10-29T06:00:30.000Z</time>
      </trkpt>
      <trkpt lat="27.823613" lon="86.730374">
        <ele>3619</ele>
        <time>2022-10-29T06:00:32.000Z</time>
      </trkpt>
      <trkpt lat="27.823613" lon="86.7304">
        <ele>3618.8</ele>
        <time>2022-10-29T06:00:34.000Z</time>
      </trkpt>
      <trkpt lat="27.82361" lon="86.730426">
        <ele>3619</ele>
        <time>2022-10-29T06:00:36.000Z</time>
      </trkpt>
      <trkpt lat="27.823603" lon="86.730451">
        <ele>3619.8</ele>
        <time>2022-10-29T06:00:39.000Z</time>
      </trkpt>
      <trkpt lat="27.8236" lon="86.730477">
        <ele>3620</ele>
        <time>2022-10-29T06:00:41.000Z</time>
      </trkpt>
      <trkpt lat="27.823603" lon="86.730509">
        <ele>3620</ele>
        <time>2022-10-29T06:00:43.000Z</time>
      </trkpt>
      <trkpt lat="27.8236" lon="86.730534">
        <ele>3620</ele>
        <time>2022-10-29T06:00:46.000Z</time>
      </trkpt>
      <trkpt lat="27.82359" lon="86.73056">
        <ele>3619.8</ele>
        <time>2022-10-29T06:00:48.000Z</time>
      </trkpt>
      <trkpt lat="27.823574" lon="86.730586">
        <ele>3620.6</ele>
        <time>2022-10-29T06:00:51.000Z</time>
      </trkpt>
      <trkpt lat="27.823568" lon="86.730611">
        <ele>3620.8</ele>
        <time>2022-10-29T06:00:53.000Z</time>
      </trkpt>
      <trkpt lat="27.823552" lon="86.730637">
        <ele>3620.6</ele>
        <time>2022-10-29T06:00:55.000Z</time>
      </trkpt>
      <trkpt lat="27.823552" lon="86.730669">
        <ele>3620</ele>
        <time>2022-10-29T06:00:57.000Z</time>
      </trkpt>
      <trkpt lat="27.823542" lon="86.730688">
        <ele>3619.8</ele>
        <time>2022-10-29T06:01:00.000Z</time>
      </trkpt>
      <trkpt lat="27.823536" lon="86.730707">
        <ele>3619.8</ele>
        <time>2022-10-29T06:01:01.000Z</time>
      </trkpt>
      <trkpt lat="27.82353" lon="86.730726">
        <ele>3619.4</ele>
        <time>2022-10-29T06:01:03.000Z</time>
      </trkpt>
      <trkpt lat="27.82352" lon="86.730746">
        <ele>3619.4</ele>
        <time>2022-10-29T06:01:05.000Z</time>
      </trkpt>
      <trkpt lat="27.823504" lon="86.730765">
        <ele>3619.4</ele>
        <time>2022-10-29T06:01:08.000Z</time>
      </trkpt>
      <trkpt lat="27.823494" lon="86.73079">
        <ele>3619.8</ele>
        <time>2022-10-29T06:01:11.000Z</time>
      </trkpt>
      <trkpt lat="27.823475" lon="86.730822">
        <ele>3619.6</ele>
        <time>2022-10-29T06:01:14.000Z</time>
      </trkpt>
      <trkpt lat="27.823469" lon="86.730842">
        <ele>3619.6</ele>
        <time>2022-10-29T06:01:16.000Z</time>
      </trkpt>
      <trkpt lat="27.823462" lon="86.730861">
        <ele>3619.2</ele>
        <time>2022-10-29T06:01:17.000Z</time>
      </trkpt>
      <trkpt lat="27.82345" lon="86.730886">
        <ele>3619.8</ele>
        <time>2022-10-29T06:01:20.000Z</time>
      </trkpt>
      <trkpt lat="27.82344" lon="86.730906">
        <ele>3620</ele>
        <time>2022-10-29T06:01:22.000Z</time>
      </trkpt>
      <trkpt lat="27.823424" lon="86.730925">
        <ele>3620.4</ele>
        <time>2022-10-29T06:01:25.000Z</time>
      </trkpt>
      <trkpt lat="27.823414" lon="86.73095">
        <ele>3620.6</ele>
        <time>2022-10-29T06:01:27.000Z</time>
      </trkpt>
      <trkpt lat="27.823408" lon="86.73097">
        <ele>3621</ele>
        <time>2022-10-29T06:01:29.000Z</time>
      </trkpt>
      <trkpt lat="27.823398" lon="86.730989">
        <ele>3621.2</ele>
        <time>2022-10-29T06:01:31.000Z</time>
      </trkpt>
      <trkpt lat="27.823382" lon="86.731002">
        <ele>3621.4</ele>
        <time>2022-10-29T06:01:33.000Z</time>
      </trkpt>
      <trkpt lat="27.823363" lon="86.731002">
        <ele>3622.2</ele>
        <time>2022-10-29T06:01:42.000Z</time>
      </trkpt>
      <trkpt lat="27.823338" lon="86.731008">
        <ele>3621.4</ele>
        <time>2022-10-29T06:02:07.000Z</time>
      </trkpt>
      <trkpt lat="27.823322" lon="86.731021">
        <ele>3621.2</ele>
        <time>2022-10-29T06:02:08.000Z</time>
      </trkpt>
      <trkpt lat="27.823296" lon="86.731021">
        <ele>3621.6</ele>
        <time>2022-10-29T06:02:10.000Z</time>
      </trkpt>
      <trkpt lat="27.82327" lon="86.731021">
        <ele>3621</ele>
        <time>2022-10-29T06:02:12.000Z</time>
      </trkpt>
      <trkpt lat="27.823238" lon="86.731027">
        <ele>3621.2</ele>
        <time>2022-10-29T06:02:14.000Z</time>
      </trkpt>
      <trkpt lat="27.823213" lon="86.731034">
        <ele>3621.4</ele>
        <time>2022-10-29T06:02:16.000Z</time>
      </trkpt>
      <trkpt lat="27.823194" lon="86.731034">
        <ele>3621.4</ele>
        <time>2022-10-29T06:02:18.000Z</time>
      </trkpt>
      <trkpt lat="27.823171" lon="86.731027">
        <ele>3621.8</ele>
        <time>2022-10-29T06:02:20.000Z</time>
      </trkpt>
      <trkpt lat="27.823152" lon="86.731027">
        <ele>3621.4</ele>
        <time>2022-10-29T06:02:23.000Z</time>
      </trkpt>
      <trkpt lat="27.823126" lon="86.731034">
        <ele>3621</ele>
        <time>2022-10-29T06:02:26.000Z</time>
      </trkpt>
      <trkpt lat="27.823101" lon="86.73104">
        <ele>3621.2</ele>
        <time>2022-10-29T06:02:31.000Z</time>
      </trkpt>
      <trkpt lat="27.823078" lon="86.73104">
        <ele>3621.2</ele>
        <time>2022-10-29T06:02:39.000Z</time>
      </trkpt>
      <trkpt lat="27.823059" lon="86.731034">
        <ele>3620</ele>
        <time>2022-10-29T06:03:20.000Z</time>
      </trkpt>
      <trkpt lat="27.823024" lon="86.731046">
        <ele>3620</ele>
        <time>2022-10-29T06:03:24.000Z</time>
      </trkpt>
      <trkpt lat="27.823005" lon="86.731046">
        <ele>3620.2</ele>
        <time>2022-10-29T06:03:29.000Z</time>
      </trkpt>
      <trkpt lat="27.823027" lon="86.731046">
        <ele>3620.4</ele>
        <time>2022-10-29T06:03:57.000Z</time>
      </trkpt>
      <trkpt lat="27.823056" lon="86.731059">
        <ele>3620.4</ele>
        <time>2022-10-29T06:03:59.000Z</time>
      </trkpt>
      <trkpt lat="27.823085" lon="86.731059">
        <ele>3620.4</ele>
        <time>2022-10-29T06:04:01.000Z</time>
      </trkpt>
      <trkpt lat="27.823107" lon="86.731059">
        <ele>3620.2</ele>
        <time>2022-10-29T06:04:03.000Z</time>
      </trkpt>
      <trkpt lat="27.823126" lon="86.731046">
        <ele>3620.4</ele>
        <time>2022-10-29T06:04:05.000Z</time>
      </trkpt>
      <trkpt lat="27.823146" lon="86.73104">
        <ele>3620.6</ele>
        <time>2022-10-29T06:04:07.000Z</time>
      </trkpt>
      <trkpt lat="27.823165" lon="86.731034">
        <ele>3620.6</ele>
        <time>2022-10-29T06:04:09.000Z</time>
      </trkpt>
      <trkpt lat="27.823187" lon="86.731027">
        <ele>3620.4</ele>
        <time>2022-10-29T06:04:12.000Z</time>
      </trkpt>
      <trkpt lat="27.823206" lon="86.731021">
        <ele>3620.6</ele>
        <time>2022-10-29T06:04:14.000Z</time>
      </trkpt>
      <trkpt lat="27.823232" lon="86.731021">
        <ele>3620.6</ele>
        <time>2022-10-29T06:04:16.000Z</time>
      </trkpt>
      <trkpt lat="27.823254" lon="86.731002">
        <ele>3620.6</ele>
        <time>2022-10-29T06:04:19.000Z</time>
      </trkpt>
      <trkpt lat="27.823197" lon="86.731034">
        <ele>3622.6</ele>
        <time>2022-10-29T06:07:22.000Z</time>
      </trkpt>
      <trkpt lat="27.823162" lon="86.731034">
        <ele>3622.2</ele>
        <time>2022-10-29T06:07:24.000Z</time>
      </trkpt>
      <trkpt lat="27.823142" lon="86.731034">
        <ele>3622.2</ele>
        <time>2022-10-29T06:07:25.000Z</time>
      </trkpt>
      <trkpt lat="27.823114" lon="86.73104">
        <ele>3621.4</ele>
        <time>2022-10-29T06:07:27.000Z</time>
      </trkpt>
      <trkpt lat="27.823094" lon="86.73104">
        <ele>3621.2</ele>
        <time>2022-10-29T06:07:28.000Z</time>
      </trkpt>
      <trkpt lat="27.823069" lon="86.731046">
        <ele>3621.2</ele>
        <time>2022-10-29T06:07:30.000Z</time>
      </trkpt>
      <trkpt lat="27.823046" lon="86.731059">
        <ele>3621.2</ele>
        <time>2022-10-29T06:07:32.000Z</time>
      </trkpt>
      <trkpt lat="27.823021" lon="86.731059">
        <ele>3621.2</ele>
        <time>2022-10-29T06:07:34.000Z</time>
      </trkpt>
      <trkpt lat="27.822998" lon="86.731046">
        <ele>3621.2</ele>
        <time>2022-10-29T06:07:36.000Z</time>
      </trkpt>
      <trkpt lat="27.822979" lon="86.731046">
        <ele>3621.2</ele>
        <time>2022-10-29T06:07:38.000Z</time>
      </trkpt>
      <trkpt lat="27.822957" lon="86.731046">
        <ele>3621.2</ele>
        <time>2022-10-29T06:07:42.000Z</time>
      </trkpt>
      <trkpt lat="27.822947" lon="86.731027">
        <ele>3621</ele>
        <time>2022-10-29T06:09:39.000Z</time>
      </trkpt>
      <trkpt lat="27.822928" lon="86.731034">
        <ele>3620</ele>
        <time>2022-10-29T06:09:41.000Z</time>
      </trkpt>
      <trkpt lat="27.822906" lon="86.73104">
        <ele>3620.2</ele>
        <time>2022-10-29T06:09:43.000Z</time>
      </trkpt>
      <trkpt lat="27.822883" lon="86.731046">
        <ele>3620</ele>
        <time>2022-10-29T06:09:45.000Z</time>
      </trkpt>
      <trkpt lat="27.822864" lon="86.731059">
        <ele>3620.2</ele>
        <time>2022-10-29T06:09:47.000Z</time>
      </trkpt>
      <trkpt lat="27.822842" lon="86.731066">
        <ele>3620</ele>
        <time>2022-10-29T06:09:50.000Z</time>
      </trkpt>
      <trkpt lat="27.822822" lon="86.731072">
        <ele>3620.2</ele>
        <time>2022-10-29T06:09:53.000Z</time>
      </trkpt>
      <trkpt lat="27.8228" lon="86.731078">
        <ele>3620.4</ele>
        <time>2022-10-29T06:09:57.000Z</time>
      </trkpt>
      <trkpt lat="27.822778" lon="86.731085">
        <ele>3620.6</ele>
        <time>2022-10-29T06:10:01.000Z</time>
      </trkpt>
      <trkpt lat="27.822758" lon="86.731104">
        <ele>3621</ele>
        <time>2022-10-29T06:10:03.000Z</time>
      </trkpt>
      <trkpt lat="27.822739" lon="86.73111">
        <ele>3621</ele>
        <time>2022-10-29T06:10:05.000Z</time>
      </trkpt>
      <trkpt lat="27.822717" lon="86.731117">
        <ele>3620.8</ele>
        <time>2022-10-29T06:10:08.000Z</time>
      </trkpt>
      <trkpt lat="27.822701" lon="86.73113">
        <ele>3620.6</ele>
        <time>2022-10-29T06:10:10.000Z</time>
      </trkpt>
      <trkpt lat="27.822685" lon="86.731149">
        <ele>3621</ele>
        <time>2022-10-29T06:10:12.000Z</time>
      </trkpt>
      <trkpt lat="27.822669" lon="86.731162">
        <ele>3620.6</ele>
        <time>2022-10-29T06:10:14.000Z</time>
      </trkpt>
      <trkpt lat="27.82265" lon="86.731168">
        <ele>3620.6</ele>
        <time>2022-10-29T06:10:16.000Z</time>
      </trkpt>
      <trkpt lat="27.82263" lon="86.731187">
        <ele>3620.6</ele>
        <time>2022-10-29T06:10:19.000Z</time>
      </trkpt>
      <trkpt lat="27.822611" lon="86.731206">
        <ele>3620.8</ele>
        <time>2022-10-29T06:10:22.000Z</time>
      </trkpt>
      <trkpt lat="27.822595" lon="86.731226">
        <ele>3621</ele>
        <time>2022-10-29T06:10:25.000Z</time>
      </trkpt>
      <trkpt lat="27.822573" lon="86.731226">
        <ele>3621.4</ele>
        <time>2022-10-29T06:10:27.000Z</time>
      </trkpt>
      <trkpt lat="27.82255" lon="86.731232">
        <ele>3621.4</ele>
        <time>2022-10-29T06:10:31.000Z</time>
      </trkpt>
      <trkpt lat="27.822531" lon="86.731238">
        <ele>3621.8</ele>
        <time>2022-10-29T06:10:34.000Z</time>
      </trkpt>
      <trkpt lat="27.822512" lon="86.731258">
        <ele>3622.4</ele>
        <time>2022-10-29T06:10:37.000Z</time>
      </trkpt>
      <trkpt lat="27.82249" lon="86.731264">
        <ele>3622.4</ele>
        <time>2022-10-29T06:10:40.000Z</time>
      </trkpt>
      <trkpt lat="27.82247" lon="86.731277">
        <ele>3623</ele>
        <time>2022-10-29T06:10:43.000Z</time>
      </trkpt>
      <trkpt lat="27.822448" lon="86.73129">
        <ele>3623.2</ele>
        <time>2022-10-29T06:10:46.000Z</time>
      </trkpt>
      <trkpt lat="27.822429" lon="86.731309">
        <ele>3623.4</ele>
        <time>2022-10-29T06:10:48.000Z</time>
      </trkpt>
      <trkpt lat="27.82241" lon="86.731315">
        <ele>3623.6</ele>
        <time>2022-10-29T06:10:50.000Z</time>
      </trkpt>
      <trkpt lat="27.82239" lon="86.731315">
        <ele>3623.4</ele>
        <time>2022-10-29T06:10:52.000Z</time>
      </trkpt>
      <trkpt lat="27.822371" lon="86.731322">
        <ele>3623.6</ele>
        <time>2022-10-29T06:10:54.000Z</time>
      </trkpt>
      <trkpt lat="27.822352" lon="86.731341">
        <ele>3623.6</ele>
        <time>2022-10-29T06:10:56.000Z</time>
      </trkpt>
      <trkpt lat="27.822333" lon="86.731347">
        <ele>3623.6</ele>
        <time>2022-10-29T06:10:58.000Z</time>
      </trkpt>
      <trkpt lat="27.822307" lon="86.731354">
        <ele>3623.4</ele>
        <time>2022-10-29T06:11:01.000Z</time>
      </trkpt>
      <trkpt lat="27.822285" lon="86.73136">
        <ele>3623.4</ele>
        <time>2022-10-29T06:11:03.000Z</time>
      </trkpt>
      <trkpt lat="27.822262" lon="86.731366">
        <ele>3624</ele>
        <time>2022-10-29T06:11:05.000Z</time>
      </trkpt>
      <trkpt lat="27.82224" lon="86.731366">
        <ele>3624</ele>
        <time>2022-10-29T06:11:07.000Z</time>
      </trkpt>
      <trkpt lat="27.822218" lon="86.731366">
        <ele>3624</ele>
        <time>2022-10-29T06:11:09.000Z</time>
      </trkpt>
      <trkpt lat="27.822198" lon="86.731379">
        <ele>3624.2</ele>
        <time>2022-10-29T06:11:11.000Z</time>
      </trkpt>
      <trkpt lat="27.822176" lon="86.731379">
        <ele>3624.2</ele>
        <time>2022-10-29T06:11:13.000Z</time>
      </trkpt>
      <trkpt lat="27.82216" lon="86.731392">
        <ele>3624.2</ele>
        <time>2022-10-29T06:11:15.000Z</time>
      </trkpt>
      <trkpt lat="27.822134" lon="86.731392">
        <ele>3624.2</ele>
        <time>2022-10-29T06:11:17.000Z</time>
      </trkpt>
      <trkpt lat="27.822112" lon="86.731392">
        <ele>3624.6</ele>
        <time>2022-10-29T06:11:19.000Z</time>
      </trkpt>
      <trkpt lat="27.82209" lon="86.731398">
        <ele>3624</ele>
        <time>2022-10-29T06:11:21.000Z</time>
      </trkpt>
      <trkpt lat="27.82207" lon="86.731405">
        <ele>3623.2</ele>
        <time>2022-10-29T06:11:23.000Z</time>
      </trkpt>
      <trkpt lat="27.822048" lon="86.731418">
        <ele>3623.2</ele>
        <time>2022-10-29T06:11:25.000Z</time>
      </trkpt>
      <trkpt lat="27.822029" lon="86.73143">
        <ele>3623.2</ele>
        <time>2022-10-29T06:11:27.000Z</time>
      </trkpt>
      <trkpt lat="27.82201" lon="86.731443">
        <ele>3623.2</ele>
        <time>2022-10-29T06:11:29.000Z</time>
      </trkpt>
      <trkpt lat="27.82199" lon="86.731462">
        <ele>3622.8</ele>
        <time>2022-10-29T06:11:31.000Z</time>
      </trkpt>
      <trkpt lat="27.821968" lon="86.731475">
        <ele>3622.4</ele>
        <time>2022-10-29T06:11:34.000Z</time>
      </trkpt>
      <trkpt lat="27.821952" lon="86.731488">
        <ele>3622.4</ele>
        <time>2022-10-29T06:11:36.000Z</time>
      </trkpt>
      <trkpt lat="27.821933" lon="86.731501">
        <ele>3622.8</ele>
        <time>2022-10-29T06:11:38.000Z</time>
      </trkpt>
      <trkpt lat="27.82191" lon="86.73152">
        <ele>3622.8</ele>
        <time>2022-10-29T06:11:41.000Z</time>
      </trkpt>
      <trkpt lat="27.821888" lon="86.731539">
        <ele>3623.2</ele>
        <time>2022-10-29T06:11:44.000Z</time>
      </trkpt>
      <trkpt lat="27.821872" lon="86.731558">
        <ele>3623</ele>
        <time>2022-10-29T06:11:46.000Z</time>
      </trkpt>
      <trkpt lat="27.821853" lon="86.731578">
        <ele>3622.8</ele>
        <time>2022-10-29T06:11:48.000Z</time>
      </trkpt>
      <trkpt lat="27.821834" lon="86.731597">
        <ele>3622.4</ele>
        <time>2022-10-29T06:11:50.000Z</time>
      </trkpt>
      <trkpt lat="27.821814" lon="86.731603">
        <ele>3622.2</ele>
        <time>2022-10-29T06:11:52.000Z</time>
      </trkpt>
      <trkpt lat="27.821795" lon="86.731629">
        <ele>3622.2</ele>
        <time>2022-10-29T06:11:54.000Z</time>
      </trkpt>
      <trkpt lat="27.821776" lon="86.731642">
        <ele>3622.2</ele>
        <time>2022-10-29T06:11:56.000Z</time>
      </trkpt>
      <trkpt lat="27.821754" lon="86.731654">
        <ele>3622.2</ele>
        <time>2022-10-29T06:11:58.000Z</time>
      </trkpt>
      <trkpt lat="27.821725" lon="86.731667">
        <ele>3622.2</ele>
        <time>2022-10-29T06:12:01.000Z</time>
      </trkpt>
      <trkpt lat="27.821706" lon="86.73168">
        <ele>3622</ele>
        <time>2022-10-29T06:12:03.000Z</time>
      </trkpt>
      <trkpt lat="27.82168" lon="86.731686">
        <ele>3622</ele>
        <time>2022-10-29T06:12:05.000Z</time>
      </trkpt>
      <trkpt lat="27.821658" lon="86.731686">
        <ele>3622</ele>
        <time>2022-10-29T06:12:07.000Z</time>
      </trkpt>
      <trkpt lat="27.821635" lon="86.731686">
        <ele>3622</ele>
        <time>2022-10-29T06:12:09.000Z</time>
      </trkpt>
      <trkpt lat="27.821619" lon="86.731699">
        <ele>3622</ele>
        <time>2022-10-29T06:12:11.000Z</time>
      </trkpt>
      <trkpt lat="27.8216" lon="86.731706">
        <ele>3622.2</ele>
        <time>2022-10-29T06:12:13.000Z</time>
      </trkpt>
      <trkpt lat="27.821581" lon="86.731712">
        <ele>3622.2</ele>
        <time>2022-10-29T06:12:15.000Z</time>
      </trkpt>
      <trkpt lat="27.821562" lon="86.731718">
        <ele>3622.2</ele>
        <time>2022-10-29T06:12:17.000Z</time>
      </trkpt>
      <trkpt lat="27.821542" lon="86.731738">
        <ele>3622.2</ele>
        <time>2022-10-29T06:12:19.000Z</time>
      </trkpt>
      <trkpt lat="27.821523" lon="86.73175">
        <ele>3622</ele>
        <time>2022-10-29T06:12:21.000Z</time>
      </trkpt>
      <trkpt lat="27.821504" lon="86.731763">
        <ele>3621.6</ele>
        <time>2022-10-29T06:12:23.000Z</time>
      </trkpt>
      <trkpt lat="27.821478" lon="86.731776">
        <ele>3621.4</ele>
        <time>2022-10-29T06:12:25.000Z</time>
      </trkpt>
      <trkpt lat="27.821459" lon="86.731782">
        <ele>3621.2</ele>
        <time>2022-10-29T06:12:27.000Z</time>
      </trkpt>
      <trkpt lat="27.82144" lon="86.731795">
        <ele>3621.2</ele>
        <time>2022-10-29T06:12:29.000Z</time>
      </trkpt>
      <trkpt lat="27.821411" lon="86.731814">
        <ele>3621.6</ele>
        <time>2022-10-29T06:12:32.000Z</time>
      </trkpt>
      <trkpt lat="27.821389" lon="86.731821">
        <ele>3621.2</ele>
        <time>2022-10-29T06:12:34.000Z</time>
      </trkpt>
      <trkpt lat="27.82137" lon="86.731821">
        <ele>3620.8</ele>
        <time>2022-10-29T06:12:36.000Z</time>
      </trkpt>
      <trkpt lat="27.821341" lon="86.731821">
        <ele>3621</ele>
        <time>2022-10-29T06:12:39.000Z</time>
      </trkpt>
      <trkpt lat="27.821318" lon="86.731821">
        <ele>3621</ele>
        <time>2022-10-29T06:12:42.000Z</time>
      </trkpt>
      <trkpt lat="27.821299" lon="86.731821">
        <ele>3621.2</ele>
        <time>2022-10-29T06:12:45.000Z</time>
      </trkpt>
      <trkpt lat="27.821274" lon="86.731814">
        <ele>3621.4</ele>
        <time>2022-10-29T06:12:48.000Z</time>
      </trkpt>
      <trkpt lat="27.821251" lon="86.731821">
        <ele>3622</ele>
        <time>2022-10-29T06:12:51.000Z</time>
      </trkpt>
      <trkpt lat="27.821232" lon="86.731821">
        <ele>3622.8</ele>
        <time>2022-10-29T06:12:56.000Z</time>
      </trkpt>
      <trkpt lat="27.821213" lon="86.731802">
        <ele>3623.8</ele>
        <time>2022-10-29T06:12:59.000Z</time>
      </trkpt>
      <trkpt lat="27.82119" lon="86.731814">
        <ele>3624.8</ele>
        <time>2022-10-29T06:13:13.000Z</time>
      </trkpt>
      <trkpt lat="27.821171" lon="86.731827">
        <ele>3625.6</ele>
        <time>2022-10-29T06:13:17.000Z</time>
      </trkpt>
      <trkpt lat="27.821149" lon="86.73184">
        <ele>3626.6</ele>
        <time>2022-10-29T06:13:21.000Z</time>
      </trkpt>
      <trkpt lat="27.82113" lon="86.73184">
        <ele>3626.8</ele>
        <time>2022-10-29T06:13:25.000Z</time>
      </trkpt>
      <trkpt lat="27.82111" lon="86.731853">
        <ele>3627.8</ele>
        <time>2022-10-29T06:13:29.000Z</time>
      </trkpt>
      <trkpt lat="27.821091" lon="86.731853">
        <ele>3628.2</ele>
        <time>2022-10-29T06:13:32.000Z</time>
      </trkpt>
      <trkpt lat="27.821075" lon="86.731866">
        <ele>3629</ele>
        <time>2022-10-29T06:13:37.000Z</time>
      </trkpt>
      <trkpt lat="27.821059" lon="86.731878">
        <ele>3629.2</ele>
        <time>2022-10-29T06:13:41.000Z</time>
      </trkpt>
      <trkpt lat="27.821037" lon="86.731878">
        <ele>3630</ele>
        <time>2022-10-29T06:13:45.000Z</time>
      </trkpt>
      <trkpt lat="27.821018" lon="86.731885">
        <ele>3630.6</ele>
        <time>2022-10-29T06:13:49.000Z</time>
      </trkpt>
      <trkpt lat="27.820998" lon="86.731872">
        <ele>3630.8</ele>
        <time>2022-10-29T06:13:57.000Z</time>
      </trkpt>
      <trkpt lat="27.820992" lon="86.731853">
        <ele>3631.6</ele>
        <time>2022-10-29T06:13:59.000Z</time>
      </trkpt>
      <trkpt lat="27.820986" lon="86.731834">
        <ele>3631.8</ele>
        <time>2022-10-29T06:14:02.000Z</time>
      </trkpt>
      <trkpt lat="27.820966" lon="86.731853">
        <ele>3631.8</ele>
        <time>2022-10-29T06:15:26.000Z</time>
      </trkpt>
      <trkpt lat="27.820947" lon="86.731827">
        <ele>3632.2</ele>
        <time>2022-10-29T06:15:28.000Z</time>
      </trkpt>
      <trkpt lat="27.820922" lon="86.731814">
        <ele>3632.4</ele>
        <time>2022-10-29T06:15:30.000Z</time>
      </trkpt>
      <trkpt lat="27.820899" lon="86.731802">
        <ele>3632.6</ele>
        <time>2022-10-29T06:15:32.000Z</time>
      </trkpt>
      <trkpt lat="27.820874" lon="86.731789">
        <ele>3633.6</ele>
        <time>2022-10-29T06:15:34.000Z</time>
      </trkpt>
      <trkpt lat="27.820858" lon="86.731776">
        <ele>3633.6</ele>
        <time>2022-10-29T06:15:35.000Z</time>
      </trkpt>
      <trkpt lat="27.820838" lon="86.731763">
        <ele>3634.2</ele>
        <time>2022-10-29T06:15:39.000Z</time>
      </trkpt>
      <trkpt lat="27.820822" lon="86.73175">
        <ele>3634.6</ele>
        <time>2022-10-29T06:15:43.000Z</time>
      </trkpt>
      <trkpt lat="27.820803" lon="86.731738">
        <ele>3634.8</ele>
        <time>2022-10-29T06:15:46.000Z</time>
      </trkpt>
      <trkpt lat="27.820787" lon="86.731725">
        <ele>3634.4</ele>
        <time>2022-10-29T06:15:48.000Z</time>
      </trkpt>
      <trkpt lat="27.820768" lon="86.731718">
        <ele>3633.8</ele>
        <time>2022-10-29T06:15:50.000Z</time>
      </trkpt>
      <trkpt lat="27.820749" lon="86.731712">
        <ele>3633.8</ele>
        <time>2022-10-29T06:15:52.000Z</time>
      </trkpt>
      <trkpt lat="27.82073" lon="86.731706">
        <ele>3633.6</ele>
        <time>2022-10-29T06:15:54.000Z</time>
      </trkpt>
      <trkpt lat="27.820704" lon="86.731686">
        <ele>3632.8</ele>
        <time>2022-10-29T06:15:56.000Z</time>
      </trkpt>
      <trkpt lat="27.820682" lon="86.731674">
        <ele>3632.8</ele>
        <time>2022-10-29T06:15:58.000Z</time>
      </trkpt>
      <trkpt lat="27.820656" lon="86.731661">
        <ele>3632.8</ele>
        <time>2022-10-29T06:16:00.000Z</time>
      </trkpt>
      <trkpt lat="27.82063" lon="86.731642">
        <ele>3632.2</ele>
        <time>2022-10-29T06:16:02.000Z</time>
      </trkpt>
      <trkpt lat="27.820608" lon="86.731635">
        <ele>3632.6</ele>
        <time>2022-10-29T06:16:04.000Z</time>
      </trkpt>
      <trkpt lat="27.820586" lon="86.731635">
        <ele>3632.2</ele>
        <time>2022-10-29T06:16:06.000Z</time>
      </trkpt>
      <trkpt lat="27.820563" lon="86.731629">
        <ele>3632.8</ele>
        <time>2022-10-29T06:16:08.000Z</time>
      </trkpt>
      <trkpt lat="27.820544" lon="86.731629">
        <ele>3632.2</ele>
        <time>2022-10-29T06:16:10.000Z</time>
      </trkpt>
      <trkpt lat="27.820525" lon="86.731622">
        <ele>3632.4</ele>
        <time>2022-10-29T06:16:12.000Z</time>
      </trkpt>
      <trkpt lat="27.820502" lon="86.731616">
        <ele>3633.4</ele>
        <time>2022-10-29T06:16:14.000Z</time>
      </trkpt>
      <trkpt lat="27.82048" lon="86.731616">
        <ele>3633</ele>
        <time>2022-10-29T06:16:16.000Z</time>
      </trkpt>
      <trkpt lat="27.820454" lon="86.731603">
        <ele>3632.4</ele>
        <time>2022-10-29T06:16:18.000Z</time>
      </trkpt>
      <trkpt lat="27.820432" lon="86.731597">
        <ele>3632.4</ele>
        <time>2022-10-29T06:16:20.000Z</time>
      </trkpt>
      <trkpt lat="27.820403" lon="86.73159">
        <ele>3632.4</ele>
        <time>2022-10-29T06:16:22.000Z</time>
      </trkpt>
      <trkpt lat="27.820384" lon="86.73159">
        <ele>3632.6</ele>
        <time>2022-10-29T06:16:24.000Z</time>
      </trkpt>
      <trkpt lat="27.820362" lon="86.731584">
        <ele>3632.6</ele>
        <time>2022-10-29T06:16:26.000Z</time>
      </trkpt>
      <trkpt lat="27.820342" lon="86.731584">
        <ele>3632.8</ele>
        <time>2022-10-29T06:16:28.000Z</time>
      </trkpt>
      <trkpt lat="27.820323" lon="86.731578">
        <ele>3632.8</ele>
        <time>2022-10-29T06:16:30.000Z</time>
      </trkpt>
      <trkpt lat="27.820304" lon="86.731578">
        <ele>3632.6</ele>
        <time>2022-10-29T06:16:32.000Z</time>
      </trkpt>
      <trkpt lat="27.820285" lon="86.731578">
        <ele>3632.8</ele>
        <time>2022-10-29T06:16:34.000Z</time>
      </trkpt>
      <trkpt lat="27.820262" lon="86.731565">
        <ele>3633</ele>
        <time>2022-10-29T06:16:45.000Z</time>
      </trkpt>
      <trkpt lat="27.820243" lon="86.731565">
        <ele>3633</ele>
        <time>2022-10-29T06:16:48.000Z</time>
      </trkpt>
      <trkpt lat="27.820214" lon="86.73152">
        <ele>3630.6</ele>
        <time>2022-10-29T06:17:29.000Z</time>
      </trkpt>
      <trkpt lat="27.820202" lon="86.731501">
        <ele>3630</ele>
        <time>2022-10-29T06:17:31.000Z</time>
      </trkpt>
      <trkpt lat="27.820182" lon="86.731482">
        <ele>3629.4</ele>
        <time>2022-10-29T06:17:33.000Z</time>
      </trkpt>
      <trkpt lat="27.820163" lon="86.731469">
        <ele>3629.4</ele>
        <time>2022-10-29T06:17:35.000Z</time>
      </trkpt>
      <trkpt lat="27.820141" lon="86.731443">
        <ele>3629</ele>
        <time>2022-10-29T06:17:37.000Z</time>
      </trkpt>
      <trkpt lat="27.820125" lon="86.731424">
        <ele>3629</ele>
        <time>2022-10-29T06:17:39.000Z</time>
      </trkpt>
      <trkpt lat="27.820109" lon="86.731405">
        <ele>3629</ele>
        <time>2022-10-29T06:17:41.000Z</time>
      </trkpt>
      <trkpt lat="27.820093" lon="86.731418">
        <ele>3626</ele>
        <time>2022-10-29T06:18:11.000Z</time>
      </trkpt>
      <trkpt lat="27.820067" lon="86.731424">
        <ele>3625.4</ele>
        <time>2022-10-29T06:18:13.000Z</time>
      </trkpt>
      <trkpt lat="27.820048" lon="86.73143">
        <ele>3625.2</ele>
        <time>2022-10-29T06:18:15.000Z</time>
      </trkpt>
      <trkpt lat="27.820026" lon="86.731437">
        <ele>3625</ele>
        <time>2022-10-29T06:18:17.000Z</time>
      </trkpt>
      <trkpt lat="27.820003" lon="86.731443">
        <ele>3624</ele>
        <time>2022-10-29T06:18:19.000Z</time>
      </trkpt>
      <trkpt lat="27.819984" lon="86.731456">
        <ele>3623.4</ele>
        <time>2022-10-29T06:18:21.000Z</time>
      </trkpt>
      <trkpt lat="27.819968" lon="86.731475">
        <ele>3622.8</ele>
        <time>2022-10-29T06:18:25.000Z</time>
      </trkpt>
      <trkpt lat="27.819949" lon="86.731488">
        <ele>3622.2</ele>
        <time>2022-10-29T06:18:28.000Z</time>
      </trkpt>
      <trkpt lat="27.819926" lon="86.731488">
        <ele>3621</ele>
        <time>2022-10-29T06:18:31.000Z</time>
      </trkpt>
      <trkpt lat="27.819904" lon="86.731488">
        <ele>3620</ele>
        <time>2022-10-29T06:18:34.000Z</time>
      </trkpt>
      <trkpt lat="27.819882" lon="86.731488">
        <ele>3619.4</ele>
        <time>2022-10-29T06:18:36.000Z</time>
      </trkpt>
      <trkpt lat="27.819859" lon="86.731507">
        <ele>3618.8</ele>
        <time>2022-10-29T06:18:38.000Z</time>
      </trkpt>
      <trkpt lat="27.819837" lon="86.73152">
        <ele>3618.8</ele>
        <time>2022-10-29T06:18:40.000Z</time>
      </trkpt>
      <trkpt lat="27.819821" lon="86.731539">
        <ele>3618.8</ele>
        <time>2022-10-29T06:18:42.000Z</time>
      </trkpt>
      <trkpt lat="27.819798" lon="86.731552">
        <ele>3618.2</ele>
        <time>2022-10-29T06:18:44.000Z</time>
      </trkpt>
      <trkpt lat="27.819776" lon="86.731552">
        <ele>3617.6</ele>
        <time>2022-10-29T06:18:46.000Z</time>
      </trkpt>
      <trkpt lat="27.819757" lon="86.731552">
        <ele>3617.6</ele>
        <time>2022-10-29T06:18:48.000Z</time>
      </trkpt>
      <trkpt lat="27.819738" lon="86.731552">
        <ele>3616.6</ele>
        <time>2022-10-29T06:18:51.000Z</time>
      </trkpt>
      <trkpt lat="27.819718" lon="86.731552">
        <ele>3616</ele>
        <time>2022-10-29T06:18:54.000Z</time>
      </trkpt>
      <trkpt lat="27.819696" lon="86.731546">
        <ele>3615.2</ele>
        <time>2022-10-29T06:18:56.000Z</time>
      </trkpt>
      <trkpt lat="27.819677" lon="86.731546">
        <ele>3614.8</ele>
        <time>2022-10-29T06:18:58.000Z</time>
      </trkpt>
      <trkpt lat="27.819651" lon="86.731539">
        <ele>3614.6</ele>
        <time>2022-10-29T06:19:00.000Z</time>
      </trkpt>
      <trkpt lat="27.819629" lon="86.731539">
        <ele>3613.6</ele>
        <time>2022-10-29T06:19:02.000Z</time>
      </trkpt>
      <trkpt lat="27.819606" lon="86.731546">
        <ele>3613.4</ele>
        <time>2022-10-29T06:19:04.000Z</time>
      </trkpt>
      <trkpt lat="27.819584" lon="86.731552">
        <ele>3612.6</ele>
        <time>2022-10-29T06:19:06.000Z</time>
      </trkpt>
      <trkpt lat="27.819558" lon="86.731558">
        <ele>3612.6</ele>
        <time>2022-10-29T06:19:08.000Z</time>
      </trkpt>
      <trkpt lat="27.819533" lon="86.731565">
        <ele>3612.8</ele>
        <time>2022-10-29T06:19:10.000Z</time>
      </trkpt>
      <trkpt lat="27.81951" lon="86.731584">
        <ele>3611.8</ele>
        <time>2022-10-29T06:19:12.000Z</time>
      </trkpt>
      <trkpt lat="27.819488" lon="86.73159">
        <ele>3611.4</ele>
        <time>2022-10-29T06:19:14.000Z</time>
      </trkpt>
      <trkpt lat="27.819466" lon="86.731603">
        <ele>3611.2</ele>
        <time>2022-10-29T06:19:16.000Z</time>
      </trkpt>
      <trkpt lat="27.81944" lon="86.731622">
        <ele>3610.6</ele>
        <time>2022-10-29T06:19:18.000Z</time>
      </trkpt>
      <trkpt lat="27.819418" lon="86.731635">
        <ele>3610.4</ele>
        <time>2022-10-29T06:19:20.000Z</time>
      </trkpt>
      <trkpt lat="27.819408" lon="86.731654">
        <ele>3610.4</ele>
        <time>2022-10-29T06:19:21.000Z</time>
      </trkpt>
      <trkpt lat="27.819389" lon="86.731674">
        <ele>3610.2</ele>
        <time>2022-10-29T06:19:23.000Z</time>
      </trkpt>
      <trkpt lat="27.819363" lon="86.731699">
        <ele>3609.6</ele>
        <time>2022-10-29T06:19:25.000Z</time>
      </trkpt>
      <trkpt lat="27.819341" lon="86.731712">
        <ele>3609</ele>
        <time>2022-10-29T06:19:27.000Z</time>
      </trkpt>
      <trkpt lat="27.819315" lon="86.731718">
        <ele>3608.4</ele>
        <time>2022-10-29T06:19:29.000Z</time>
      </trkpt>
      <trkpt lat="27.819286" lon="86.731718">
        <ele>3608</ele>
        <time>2022-10-29T06:19:31.000Z</time>
      </trkpt>
      <trkpt lat="27.819264" lon="86.731712">
        <ele>3607.8</ele>
        <time>2022-10-29T06:19:33.000Z</time>
      </trkpt>
      <trkpt lat="27.819242" lon="86.731712">
        <ele>3607.2</ele>
        <time>2022-10-29T06:19:35.000Z</time>
      </trkpt>
      <trkpt lat="27.819219" lon="86.731712">
        <ele>3607.2</ele>
        <time>2022-10-29T06:19:37.000Z</time>
      </trkpt>
      <trkpt lat="27.819194" lon="86.731712">
        <ele>3607</ele>
        <time>2022-10-29T06:19:39.000Z</time>
      </trkpt>
      <trkpt lat="27.819171" lon="86.731718">
        <ele>3606.2</ele>
        <time>2022-10-29T06:19:41.000Z</time>
      </trkpt>
      <trkpt lat="27.819146" lon="86.731725">
        <ele>3606.4</ele>
        <time>2022-10-29T06:19:43.000Z</time>
      </trkpt>
      <trkpt lat="27.81912" lon="86.731744">
        <ele>3606.2</ele>
        <time>2022-10-29T06:19:45.000Z</time>
      </trkpt>
      <trkpt lat="27.819094" lon="86.731744">
        <ele>3606.4</ele>
        <time>2022-10-29T06:19:47.000Z</time>
      </trkpt>
      <trkpt lat="27.819072" lon="86.731744">
        <ele>3606.2</ele>
        <time>2022-10-29T06:19:49.000Z</time>
      </trkpt>
      <trkpt lat="27.819046" lon="86.73175">
        <ele>3606</ele>
        <time>2022-10-29T06:19:51.000Z</time>
      </trkpt>
      <trkpt lat="27.819021" lon="86.731757">
        <ele>3605.8</ele>
        <time>2022-10-29T06:19:53.000Z</time>
      </trkpt>
      <trkpt lat="27.818998" lon="86.731763">
        <ele>3605.8</ele>
        <time>2022-10-29T06:19:55.000Z</time>
      </trkpt>
      <trkpt lat="27.818976" lon="86.731763">
        <ele>3605.8</ele>
        <time>2022-10-29T06:19:57.000Z</time>
      </trkpt>
      <trkpt lat="27.818954" lon="86.731763">
        <ele>3605</ele>
        <time>2022-10-29T06:19:59.000Z</time>
      </trkpt>
      <trkpt lat="27.818928" lon="86.731757">
        <ele>3604.2</ele>
        <time>2022-10-29T06:20:01.000Z</time>
      </trkpt>
      <trkpt lat="27.818906" lon="86.73175">
        <ele>3603.8</ele>
        <time>2022-10-29T06:20:03.000Z</time>
      </trkpt>
      <trkpt lat="27.818883" lon="86.731744">
        <ele>3603.4</ele>
        <time>2022-10-29T06:20:05.000Z</time>
      </trkpt>
      <trkpt lat="27.818854" lon="86.731738">
        <ele>3602.8</ele>
        <time>2022-10-29T06:20:07.000Z</time>
      </trkpt>
      <trkpt lat="27.818829" lon="86.731738">
        <ele>3602</ele>
        <time>2022-10-29T06:20:09.000Z</time>
      </trkpt>
      <trkpt lat="27.818803" lon="86.731738">
        <ele>3601.6</ele>
        <time>2022-10-29T06:20:11.000Z</time>
      </trkpt>
      <trkpt lat="27.818778" lon="86.731738">
        <ele>3601.4</ele>
        <time>2022-10-29T06:20:13.000Z</time>
      </trkpt>
      <trkpt lat="27.818752" lon="86.731738">
        <ele>3601.4</ele>
        <time>2022-10-29T06:20:15.000Z</time>
      </trkpt>
      <trkpt lat="27.818726" lon="86.731738">
        <ele>3600.6</ele>
        <time>2022-10-29T06:20:17.000Z</time>
      </trkpt>
      <trkpt lat="27.818704" lon="86.731744">
        <ele>3600.2</ele>
        <time>2022-10-29T06:20:19.000Z</time>
      </trkpt>
      <trkpt lat="27.818678" lon="86.731744">
        <ele>3599.6</ele>
        <time>2022-10-29T06:20:21.000Z</time>
      </trkpt>
      <trkpt lat="27.818653" lon="86.73175">
        <ele>3598.8</ele>
        <time>2022-10-29T06:20:23.000Z</time>
      </trkpt>
      <trkpt lat="27.818627" lon="86.73175">
        <ele>3598.6</ele>
        <time>2022-10-29T06:20:25.000Z</time>
      </trkpt>
      <trkpt lat="27.818598" lon="86.731757">
        <ele>3598.4</ele>
        <time>2022-10-29T06:20:27.000Z</time>
      </trkpt>
      <trkpt lat="27.818573" lon="86.731757">
        <ele>3598</ele>
        <time>2022-10-29T06:20:29.000Z</time>
      </trkpt>
      <trkpt lat="27.818547" lon="86.731757">
        <ele>3597.6</ele>
        <time>2022-10-29T06:20:31.000Z</time>
      </trkpt>
      <trkpt lat="27.818525" lon="86.731757">
        <ele>3596.8</ele>
        <time>2022-10-29T06:20:33.000Z</time>
      </trkpt>
      <trkpt lat="27.818499" lon="86.731757">
        <ele>3596.8</ele>
        <time>2022-10-29T06:20:35.000Z</time>
      </trkpt>
      <trkpt lat="27.818467" lon="86.731757">
        <ele>3596.4</ele>
        <time>2022-10-29T06:21:07.000Z</time>
      </trkpt>
      <trkpt lat="27.818435" lon="86.73175">
        <ele>3596.4</ele>
        <time>2022-10-29T06:21:09.000Z</time>
      </trkpt>
      <trkpt lat="27.818416" lon="86.73175">
        <ele>3596.4</ele>
        <time>2022-10-29T06:21:10.000Z</time>
      </trkpt>
      <trkpt lat="27.818381" lon="86.731744">
        <ele>3596.2</ele>
        <time>2022-10-29T06:21:12.000Z</time>
      </trkpt>
      <trkpt lat="27.818362" lon="86.731744">
        <ele>3596.2</ele>
        <time>2022-10-29T06:21:13.000Z</time>
      </trkpt>
      <trkpt lat="27.818326" lon="86.731725">
        <ele>3595.6</ele>
        <time>2022-10-29T06:21:15.000Z</time>
      </trkpt>
      <trkpt lat="27.818304" lon="86.731718">
        <ele>3595.4</ele>
        <time>2022-10-29T06:21:17.000Z</time>
      </trkpt>
      <trkpt lat="27.818278" lon="86.731712">
        <ele>3595.4</ele>
        <time>2022-10-29T06:21:19.000Z</time>
      </trkpt>
      <trkpt lat="27.818253" lon="86.731712">
        <ele>3595.2</ele>
        <time>2022-10-29T06:21:21.000Z</time>
      </trkpt>
      <trkpt lat="27.818227" lon="86.731712">
        <ele>3594.8</ele>
        <time>2022-10-29T06:21:23.000Z</time>
      </trkpt>
      <trkpt lat="27.818198" lon="86.731712">
        <ele>3594.4</ele>
        <time>2022-10-29T06:21:25.000Z</time>
      </trkpt>
      <trkpt lat="27.818173" lon="86.731712">
        <ele>3594.2</ele>
        <time>2022-10-29T06:21:27.000Z</time>
      </trkpt>
      <trkpt lat="27.818144" lon="86.731712">
        <ele>3594</ele>
        <time>2022-10-29T06:21:29.000Z</time>
      </trkpt>
      <trkpt lat="27.818118" lon="86.731706">
        <ele>3593.4</ele>
        <time>2022-10-29T06:21:31.000Z</time>
      </trkpt>
      <trkpt lat="27.81809" lon="86.731706">
        <ele>3593.4</ele>
        <time>2022-10-29T06:21:33.000Z</time>
      </trkpt>
      <trkpt lat="27.818061" lon="86.731706">
        <ele>3593.6</ele>
        <time>2022-10-29T06:21:35.000Z</time>
      </trkpt>
      <trkpt lat="27.818032" lon="86.731706">
        <ele>3593.2</ele>
        <time>2022-10-29T06:21:37.000Z</time>
      </trkpt>
      <trkpt lat="27.81801" lon="86.731706">
        <ele>3592.8</ele>
        <time>2022-10-29T06:21:39.000Z</time>
      </trkpt>
      <trkpt lat="27.817987" lon="86.731699">
        <ele>3593.4</ele>
        <time>2022-10-29T06:21:41.000Z</time>
      </trkpt>
      <trkpt lat="27.817974" lon="86.73168">
        <ele>3592.8</ele>
        <time>2022-10-29T06:21:49.000Z</time>
      </trkpt>
      <trkpt lat="27.817952" lon="86.731674">
        <ele>3592.4</ele>
        <time>2022-10-29T06:22:28.000Z</time>
      </trkpt>
      <trkpt lat="27.817933" lon="86.731661">
        <ele>3592.6</ele>
        <time>2022-10-29T06:22:31.000Z</time>
      </trkpt>
      <trkpt lat="27.81791" lon="86.731635">
        <ele>3592.6</ele>
        <time>2022-10-29T06:22:33.000Z</time>
      </trkpt>
      <trkpt lat="27.817891" lon="86.731622">
        <ele>3592.6</ele>
        <time>2022-10-29T06:22:36.000Z</time>
      </trkpt>
      <trkpt lat="27.817869" lon="86.731603">
        <ele>3592.2</ele>
        <time>2022-10-29T06:23:08.000Z</time>
      </trkpt>
      <trkpt lat="27.81785" lon="86.731584">
        <ele>3592.4</ele>
        <time>2022-10-29T06:23:10.000Z</time>
      </trkpt>
      <trkpt lat="27.81784" lon="86.731565">
        <ele>3592.4</ele>
        <time>2022-10-29T06:23:11.000Z</time>
      </trkpt>
      <trkpt lat="27.817818" lon="86.731552">
        <ele>3592.2</ele>
        <time>2022-10-29T06:23:13.000Z</time>
      </trkpt>
      <trkpt lat="27.817792" lon="86.731539">
        <ele>3592.6</ele>
        <time>2022-10-29T06:23:15.000Z</time>
      </trkpt>
      <trkpt lat="27.817779" lon="86.73152">
        <ele>3592.8</ele>
        <time>2022-10-29T06:23:16.000Z</time>
      </trkpt>
      <trkpt lat="27.81776" lon="86.731507">
        <ele>3592.8</ele>
        <time>2022-10-29T06:23:18.000Z</time>
      </trkpt>
      <trkpt lat="27.817744" lon="86.731488">
        <ele>3592.8</ele>
        <time>2022-10-29T06:23:20.000Z</time>
      </trkpt>
      <trkpt lat="27.817731" lon="86.731469">
        <ele>3592.8</ele>
        <time>2022-10-29T06:23:22.000Z</time>
      </trkpt>
      <trkpt lat="27.817702" lon="86.731462">
        <ele>3593</ele>
        <time>2022-10-29T06:23:24.000Z</time>
      </trkpt>
      <trkpt lat="27.81768" lon="86.731456">
        <ele>3593.4</ele>
        <time>2022-10-29T06:23:26.000Z</time>
      </trkpt>
      <trkpt lat="27.817658" lon="86.731456">
        <ele>3593.4</ele>
        <time>2022-10-29T06:23:28.000Z</time>
      </trkpt>
      <trkpt lat="27.817635" lon="86.731443">
        <ele>3593.2</ele>
        <time>2022-10-29T06:23:30.000Z</time>
      </trkpt>
      <trkpt lat="27.817613" lon="86.731443">
        <ele>3593.6</ele>
        <time>2022-10-29T06:23:33.000Z</time>
      </trkpt>
      <trkpt lat="27.817594" lon="86.731443">
        <ele>3593.8</ele>
        <time>2022-10-29T06:23:35.000Z</time>
      </trkpt>
      <trkpt lat="27.817574" lon="86.731443">
        <ele>3593.6</ele>
        <time>2022-10-29T06:23:37.000Z</time>
      </trkpt>
      <trkpt lat="27.817552" lon="86.731437">
        <ele>3593.8</ele>
        <time>2022-10-29T06:23:39.000Z</time>
      </trkpt>
      <trkpt lat="27.817533" lon="86.73143">
        <ele>3593.8</ele>
        <time>2022-10-29T06:23:41.000Z</time>
      </trkpt>
      <trkpt lat="27.817514" lon="86.731424">
        <ele>3594.2</ele>
        <time>2022-10-29T06:23:43.000Z</time>
      </trkpt>
      <trkpt lat="27.817491" lon="86.731418">
        <ele>3594.6</ele>
        <time>2022-10-29T06:23:46.000Z</time>
      </trkpt>
      <trkpt lat="27.817472" lon="86.731405">
        <ele>3595</ele>
        <time>2022-10-29T06:23:48.000Z</time>
      </trkpt>
      <trkpt lat="27.81745" lon="86.731398">
        <ele>3594.8</ele>
        <time>2022-10-29T06:23:50.000Z</time>
      </trkpt>
      <trkpt lat="27.81743" lon="86.731392">
        <ele>3595.4</ele>
        <time>2022-10-29T06:23:52.000Z</time>
      </trkpt>
      <trkpt lat="27.817405" lon="86.731379">
        <ele>3595.8</ele>
        <time>2022-10-29T06:23:55.000Z</time>
      </trkpt>
      <trkpt lat="27.817389" lon="86.73136">
        <ele>3595.8</ele>
        <time>2022-10-29T06:23:57.000Z</time>
      </trkpt>
      <trkpt lat="27.817373" lon="86.731341">
        <ele>3596.2</ele>
        <time>2022-10-29T06:24:00.000Z</time>
      </trkpt>
      <trkpt lat="27.817363" lon="86.731322">
        <ele>3596.6</ele>
        <time>2022-10-29T06:24:01.000Z</time>
      </trkpt>
      <trkpt lat="27.817354" lon="86.731302">
        <ele>3597.2</ele>
        <time>2022-10-29T06:24:05.000Z</time>
      </trkpt>
      <trkpt lat="27.817344" lon="86.731277">
        <ele>3597.6</ele>
        <time>2022-10-29T06:24:07.000Z</time>
      </trkpt>
      <trkpt lat="27.817334" lon="86.731258">
        <ele>3598.2</ele>
        <time>2022-10-29T06:24:10.000Z</time>
      </trkpt>
      <trkpt lat="27.817325" lon="86.731238">
        <ele>3598.6</ele>
        <time>2022-10-29T06:24:12.000Z</time>
      </trkpt>
      <trkpt lat="27.817312" lon="86.731219">
        <ele>3599</ele>
        <time>2022-10-29T06:24:15.000Z</time>
      </trkpt>
      <trkpt lat="27.817296" lon="86.7312">
        <ele>3599</ele>
        <time>2022-10-29T06:24:17.000Z</time>
      </trkpt>
      <trkpt lat="27.817274" lon="86.731181">
        <ele>3599.4</ele>
        <time>2022-10-29T06:24:20.000Z</time>
      </trkpt>
      <trkpt lat="27.817264" lon="86.731155">
        <ele>3599.4</ele>
        <time>2022-10-29T06:24:22.000Z</time>
      </trkpt>
      <trkpt lat="27.817248" lon="86.731142">
        <ele>3599.6</ele>
        <time>2022-10-29T06:24:24.000Z</time>
      </trkpt>
      <trkpt lat="27.817238" lon="86.731123">
        <ele>3599.6</ele>
        <time>2022-10-29T06:24:25.000Z</time>
      </trkpt>
      <trkpt lat="27.817222" lon="86.73111">
        <ele>3600.2</ele>
        <time>2022-10-29T06:24:27.000Z</time>
      </trkpt>
      <trkpt lat="27.81721" lon="86.731091">
        <ele>3600</ele>
        <time>2022-10-29T06:24:29.000Z</time>
      </trkpt>
      <trkpt lat="27.817197" lon="86.731072">
        <ele>3599.8</ele>
        <time>2022-10-29T06:24:31.000Z</time>
      </trkpt>
      <trkpt lat="27.817181" lon="86.731046">
        <ele>3600</ele>
        <time>2022-10-29T06:24:33.000Z</time>
      </trkpt>
      <trkpt lat="27.817162" lon="86.731021">
        <ele>3600.2</ele>
        <time>2022-10-29T06:24:36.000Z</time>
      </trkpt>
      <trkpt lat="27.817149" lon="86.731002">
        <ele>3600.2</ele>
        <time>2022-10-29T06:24:38.000Z</time>
      </trkpt>
      <trkpt lat="27.817133" lon="86.730989">
        <ele>3600</ele>
        <time>2022-10-29T06:24:40.000Z</time>
      </trkpt>
      <trkpt lat="27.817117" lon="86.730963">
        <ele>3600</ele>
        <time>2022-10-29T06:24:42.000Z</time>
      </trkpt>
      <trkpt lat="27.817104" lon="86.730944">
        <ele>3600</ele>
        <time>2022-10-29T06:24:44.000Z</time>
      </trkpt>
      <trkpt lat="27.817088" lon="86.730925">
        <ele>3600.4</ele>
        <time>2022-10-29T06:24:46.000Z</time>
      </trkpt>
      <trkpt lat="27.817069" lon="86.730912">
        <ele>3600.4</ele>
        <time>2022-10-29T06:24:48.000Z</time>
      </trkpt>
      <trkpt lat="27.817053" lon="86.730893">
        <ele>3600.4</ele>
        <time>2022-10-29T06:24:50.000Z</time>
      </trkpt>
      <trkpt lat="27.817037" lon="86.73088">
        <ele>3600.4</ele>
        <time>2022-10-29T06:24:52.000Z</time>
      </trkpt>
      <trkpt lat="27.817018" lon="86.730867">
        <ele>3600.4</ele>
        <time>2022-10-29T06:24:54.000Z</time>
      </trkpt>
      <trkpt lat="27.817011" lon="86.730848">
        <ele>3600.4</ele>
        <time>2022-10-29T06:24:55.000Z</time>
      </trkpt>
      <trkpt lat="27.816998" lon="86.730829">
        <ele>3600.8</ele>
        <time>2022-10-29T06:24:57.000Z</time>
      </trkpt>
      <trkpt lat="27.816989" lon="86.73081">
        <ele>3600.8</ele>
        <time>2022-10-29T06:24:59.000Z</time>
      </trkpt>
      <trkpt lat="27.816976" lon="86.73079">
        <ele>3600.8</ele>
        <time>2022-10-29T06:25:01.000Z</time>
      </trkpt>
      <trkpt lat="27.816957" lon="86.730771">
        <ele>3600.8</ele>
        <time>2022-10-29T06:25:04.000Z</time>
      </trkpt>
      <trkpt lat="27.816941" lon="86.730758">
        <ele>3601.2</ele>
        <time>2022-10-29T06:25:06.000Z</time>
      </trkpt>
      <trkpt lat="27.816922" lon="86.730752">
        <ele>3601.2</ele>
        <time>2022-10-29T06:25:08.000Z</time>
      </trkpt>
      <trkpt lat="27.816906" lon="86.730733">
        <ele>3601.6</ele>
        <time>2022-10-29T06:25:10.000Z</time>
      </trkpt>
      <trkpt lat="27.81688" lon="86.730726">
        <ele>3601.8</ele>
        <time>2022-10-29T06:25:13.000Z</time>
      </trkpt>
      <trkpt lat="27.816858" lon="86.730707">
        <ele>3602</ele>
        <time>2022-10-29T06:25:16.000Z</time>
      </trkpt>
      <trkpt lat="27.816838" lon="86.730688">
        <ele>3602.4</ele>
        <time>2022-10-29T06:25:19.000Z</time>
      </trkpt>
      <trkpt lat="27.816816" lon="86.730682">
        <ele>3602.6</ele>
        <time>2022-10-29T06:25:22.000Z</time>
      </trkpt>
      <trkpt lat="27.816794" lon="86.730669">
        <ele>3602.8</ele>
        <time>2022-10-29T06:25:25.000Z</time>
      </trkpt>
      <trkpt lat="27.816768" lon="86.73065">
        <ele>3603.2</ele>
        <time>2022-10-29T06:25:28.000Z</time>
      </trkpt>
      <trkpt lat="27.816746" lon="86.730643">
        <ele>3603.2</ele>
        <time>2022-10-29T06:25:30.000Z</time>
      </trkpt>
      <trkpt lat="27.81672" lon="86.730637">
        <ele>3603.8</ele>
        <time>2022-10-29T06:25:34.000Z</time>
      </trkpt>
      <trkpt lat="27.816701" lon="86.73063">
        <ele>3604.6</ele>
        <time>2022-10-29T06:25:37.000Z</time>
      </trkpt>
      <trkpt lat="27.816678" lon="86.73063">
        <ele>3605</ele>
        <time>2022-10-29T06:25:40.000Z</time>
      </trkpt>
      <trkpt lat="27.816656" lon="86.730637">
        <ele>3605.4</ele>
        <time>2022-10-29T06:25:43.000Z</time>
      </trkpt>
      <trkpt lat="27.816637" lon="86.730643">
        <ele>3606.2</ele>
        <time>2022-10-29T06:25:46.000Z</time>
      </trkpt>
      <trkpt lat="27.816614" lon="86.730662">
        <ele>3606.2</ele>
        <time>2022-10-29T06:25:49.000Z</time>
      </trkpt>
      <trkpt lat="27.816595" lon="86.730669">
        <ele>3606.6</ele>
        <time>2022-10-29T06:25:52.000Z</time>
      </trkpt>
      <trkpt lat="27.816576" lon="86.730675">
        <ele>3606.6</ele>
        <time>2022-10-29T06:25:54.000Z</time>
      </trkpt>
      <trkpt lat="27.816554" lon="86.730688">
        <ele>3606.8</ele>
        <time>2022-10-29T06:25:57.000Z</time>
      </trkpt>
      <trkpt lat="27.816534" lon="86.730688">
        <ele>3606.8</ele>
        <time>2022-10-29T06:25:59.000Z</time>
      </trkpt>
      <trkpt lat="27.816522" lon="86.730707">
        <ele>3607.4</ele>
        <time>2022-10-29T06:26:01.000Z</time>
      </trkpt>
      <trkpt lat="27.816493" lon="86.730701">
        <ele>3607.8</ele>
        <time>2022-10-29T06:26:04.000Z</time>
      </trkpt>
      <trkpt lat="27.81647" lon="86.730701">
        <ele>3607.8</ele>
        <time>2022-10-29T06:26:06.000Z</time>
      </trkpt>
      <trkpt lat="27.816442" lon="86.730701">
        <ele>3608</ele>
        <time>2022-10-29T06:26:09.000Z</time>
      </trkpt>
      <trkpt lat="27.816426" lon="86.730688">
        <ele>3608.2</ele>
        <time>2022-10-29T06:26:11.000Z</time>
      </trkpt>
      <trkpt lat="27.8164" lon="86.730682">
        <ele>3608.4</ele>
        <time>2022-10-29T06:26:14.000Z</time>
      </trkpt>
      <trkpt lat="27.816381" lon="86.730682">
        <ele>3608.4</ele>
        <time>2022-10-29T06:26:16.000Z</time>
      </trkpt>
      <trkpt lat="27.816358" lon="86.730701">
        <ele>3608.8</ele>
        <time>2022-10-29T06:26:19.000Z</time>
      </trkpt>
      <trkpt lat="27.816336" lon="86.730714">
        <ele>3609.2</ele>
        <time>2022-10-29T06:26:22.000Z</time>
      </trkpt>
      <trkpt lat="27.816314" lon="86.730733">
        <ele>3609.4</ele>
        <time>2022-10-29T06:26:25.000Z</time>
      </trkpt>
      <trkpt lat="27.816298" lon="86.730752">
        <ele>3609.6</ele>
        <time>2022-10-29T06:26:27.000Z</time>
      </trkpt>
      <trkpt lat="27.816275" lon="86.730765">
        <ele>3610</ele>
        <time>2022-10-29T06:26:30.000Z</time>
      </trkpt>
      <trkpt lat="27.816266" lon="86.730784">
        <ele>3610.4</ele>
        <time>2022-10-29T06:26:32.000Z</time>
      </trkpt>
      <trkpt lat="27.81625" lon="86.730803">
        <ele>3610.8</ele>
        <time>2022-10-29T06:26:35.000Z</time>
      </trkpt>
      <trkpt lat="27.816237" lon="86.730829">
        <ele>3611</ele>
        <time>2022-10-29T06:26:38.000Z</time>
      </trkpt>
      <trkpt lat="27.816227" lon="86.730848">
        <ele>3611.2</ele>
        <time>2022-10-29T06:26:41.000Z</time>
      </trkpt>
      <trkpt lat="27.816214" lon="86.730867">
        <ele>3611.8</ele>
        <time>2022-10-29T06:26:43.000Z</time>
      </trkpt>
      <trkpt lat="27.816192" lon="86.73088">
        <ele>3612</ele>
        <time>2022-10-29T06:26:46.000Z</time>
      </trkpt>
      <trkpt lat="27.816166" lon="86.730886">
        <ele>3612.4</ele>
        <time>2022-10-29T06:26:49.000Z</time>
      </trkpt>
      <trkpt lat="27.816141" lon="86.730906">
        <ele>3613.2</ele>
        <time>2022-10-29T06:26:52.000Z</time>
      </trkpt>
      <trkpt lat="27.816112" lon="86.730906">
        <ele>3613.4</ele>
        <time>2022-10-29T06:26:54.000Z</time>
      </trkpt>
      <trkpt lat="27.816086" lon="86.730886">
        <ele>3613.6</ele>
        <time>2022-10-29T06:26:56.000Z</time>
      </trkpt>
      <trkpt lat="27.816067" lon="86.730874">
        <ele>3613.8</ele>
        <time>2022-10-29T06:26:58.000Z</time>
      </trkpt>
      <trkpt lat="27.816048" lon="86.730861">
        <ele>3613.4</ele>
        <time>2022-10-29T06:27:00.000Z</time>
      </trkpt>
      <trkpt lat="27.816038" lon="86.730835">
        <ele>3612.6</ele>
        <time>2022-10-29T06:27:02.000Z</time>
      </trkpt>
      <trkpt lat="27.816022" lon="86.730822">
        <ele>3613.6</ele>
        <time>2022-10-29T06:27:14.000Z</time>
      </trkpt>
      <trkpt lat="27.816016" lon="86.730803">
        <ele>3612.6</ele>
        <time>2022-10-29T06:27:21.000Z</time>
      </trkpt>
      <trkpt lat="27.81601" lon="86.730784">
        <ele>3612.6</ele>
        <time>2022-10-29T06:27:22.000Z</time>
      </trkpt>
      <trkpt lat="27.816006" lon="86.730758">
        <ele>3612.6</ele>
        <time>2022-10-29T06:27:23.000Z</time>
      </trkpt>
      <trkpt lat="27.815994" lon="86.73072">
        <ele>3611.8</ele>
        <time>2022-10-29T06:27:25.000Z</time>
      </trkpt>
      <trkpt lat="27.815987" lon="86.730688">
        <ele>3611.6</ele>
        <time>2022-10-29T06:27:27.000Z</time>
      </trkpt>
      <trkpt lat="27.815981" lon="86.73065">
        <ele>3611.8</ele>
        <time>2022-10-29T06:27:29.000Z</time>
      </trkpt>
      <trkpt lat="27.815974" lon="86.730611">
        <ele>3611.6</ele>
        <time>2022-10-29T06:27:32.000Z</time>
      </trkpt>
      <trkpt lat="27.815968" lon="86.730592">
        <ele>3611.2</ele>
        <time>2022-10-29T06:27:34.000Z</time>
      </trkpt>
      <trkpt lat="27.815965" lon="86.730566">
        <ele>3610.6</ele>
        <time>2022-10-29T06:27:36.000Z</time>
      </trkpt>
      <trkpt lat="27.815955" lon="86.730534">
        <ele>3611</ele>
        <time>2022-10-29T06:27:38.000Z</time>
      </trkpt>
      <trkpt lat="27.815936" lon="86.730515">
        <ele>3611.2</ele>
        <time>2022-10-29T06:27:40.000Z</time>
      </trkpt>
      <trkpt lat="27.815917" lon="86.730509">
        <ele>3610.8</ele>
        <time>2022-10-29T06:27:42.000Z</time>
      </trkpt>
      <trkpt lat="27.815904" lon="86.73049">
        <ele>3610.6</ele>
        <time>2022-10-29T06:27:43.000Z</time>
      </trkpt>
      <trkpt lat="27.815885" lon="86.730477">
        <ele>3610.2</ele>
        <time>2022-10-29T06:27:45.000Z</time>
      </trkpt>
      <trkpt lat="27.815866" lon="86.730464">
        <ele>3610.2</ele>
        <time>2022-10-29T06:27:47.000Z</time>
      </trkpt>
      <trkpt lat="27.81585" lon="86.730445">
        <ele>3610.2</ele>
        <time>2022-10-29T06:27:49.000Z</time>
      </trkpt>
      <trkpt lat="27.815827" lon="86.730432">
        <ele>3610.2</ele>
        <time>2022-10-29T06:27:51.000Z</time>
      </trkpt>
      <trkpt lat="27.815808" lon="86.730413">
        <ele>3610.6</ele>
        <time>2022-10-29T06:27:53.000Z</time>
      </trkpt>
      <trkpt lat="27.815782" lon="86.730394">
        <ele>3611.2</ele>
        <time>2022-10-29T06:27:56.000Z</time>
      </trkpt>
      <trkpt lat="27.815766" lon="86.730368">
        <ele>3611.6</ele>
        <time>2022-10-29T06:27:58.000Z</time>
      </trkpt>
      <trkpt lat="27.81576" lon="86.730336">
        <ele>3612.2</ele>
        <time>2022-10-29T06:28:01.000Z</time>
      </trkpt>
      <trkpt lat="27.81577" lon="86.73031">
        <ele>3611.8</ele>
        <time>2022-10-29T06:28:03.000Z</time>
      </trkpt>
      <trkpt lat="27.815776" lon="86.730291">
        <ele>3611.4</ele>
        <time>2022-10-29T06:28:04.000Z</time>
      </trkpt>
      <trkpt lat="27.815786" lon="86.730272">
        <ele>3610.8</ele>
        <time>2022-10-29T06:28:06.000Z</time>
      </trkpt>
      <trkpt lat="27.815795" lon="86.730246">
        <ele>3610.6</ele>
        <time>2022-10-29T06:28:08.000Z</time>
      </trkpt>
      <trkpt lat="27.815795" lon="86.730214">
        <ele>3611.2</ele>
        <time>2022-10-29T06:28:10.000Z</time>
      </trkpt>
      <trkpt lat="27.815798" lon="86.730189">
        <ele>3610.8</ele>
        <time>2022-10-29T06:28:12.000Z</time>
      </trkpt>
      <trkpt lat="27.815802" lon="86.730163">
        <ele>3610.8</ele>
        <time>2022-10-29T06:28:14.000Z</time>
      </trkpt>
      <trkpt lat="27.815802" lon="86.730131">
        <ele>3610.6</ele>
        <time>2022-10-29T06:28:16.000Z</time>
      </trkpt>
      <trkpt lat="27.815795" lon="86.730106">
        <ele>3610.8</ele>
        <time>2022-10-29T06:28:18.000Z</time>
      </trkpt>
      <trkpt lat="27.815789" lon="86.73008">
        <ele>3610.8</ele>
        <time>2022-10-29T06:28:20.000Z</time>
      </trkpt>
      <trkpt lat="27.815779" lon="86.730054">
        <ele>3610.8</ele>
        <time>2022-10-29T06:28:22.000Z</time>
      </trkpt>
      <trkpt lat="27.81577" lon="86.730035">
        <ele>3610.6</ele>
        <time>2022-10-29T06:28:24.000Z</time>
      </trkpt>
      <trkpt lat="27.815763" lon="86.730003">
        <ele>3610.2</ele>
        <time>2022-10-29T06:28:26.000Z</time>
      </trkpt>
      <trkpt lat="27.81576" lon="86.729978">
        <ele>3610.2</ele>
        <time>2022-10-29T06:28:28.000Z</time>
      </trkpt>
      <trkpt lat="27.815766" lon="86.729958">
        <ele>3610</ele>
        <time>2022-10-29T06:28:30.000Z</time>
      </trkpt>
      <trkpt lat="27.81577" lon="86.729933">
        <ele>3610</ele>
        <time>2022-10-29T06:28:32.000Z</time>
      </trkpt>
      <trkpt lat="27.815776" lon="86.729907">
        <ele>3609.4</ele>
        <time>2022-10-29T06:28:34.000Z</time>
      </trkpt>
      <trkpt lat="27.815779" lon="86.729875">
        <ele>3608.8</ele>
        <time>2022-10-29T06:28:36.000Z</time>
      </trkpt>
      <trkpt lat="27.815776" lon="86.72985">
        <ele>3608.8</ele>
        <time>2022-10-29T06:28:38.000Z</time>
      </trkpt>
      <trkpt lat="27.815766" lon="86.729818">
        <ele>3608.2</ele>
        <time>2022-10-29T06:28:40.000Z</time>
      </trkpt>
      <trkpt lat="27.815757" lon="86.729798">
        <ele>3607.6</ele>
        <time>2022-10-29T06:28:42.000Z</time>
      </trkpt>
      <trkpt lat="27.815747" lon="86.729773">
        <ele>3606.6</ele>
        <time>2022-10-29T06:28:44.000Z</time>
      </trkpt>
      <trkpt lat="27.815738" lon="86.729741">
        <ele>3606.6</ele>
        <time>2022-10-29T06:28:46.000Z</time>
      </trkpt>
      <trkpt lat="27.815722" lon="86.729715">
        <ele>3606.8</ele>
        <time>2022-10-29T06:28:49.000Z</time>
      </trkpt>
      <trkpt lat="27.815715" lon="86.729696">
        <ele>3606.6</ele>
        <time>2022-10-29T06:28:50.000Z</time>
      </trkpt>
      <trkpt lat="27.815702" lon="86.729677">
        <ele>3606.4</ele>
        <time>2022-10-29T06:28:52.000Z</time>
      </trkpt>
      <trkpt lat="27.815686" lon="86.729658">
        <ele>3605.6</ele>
        <time>2022-10-29T06:28:54.000Z</time>
      </trkpt>
      <trkpt lat="27.815667" lon="86.729645">
        <ele>3605.4</ele>
        <time>2022-10-29T06:28:56.000Z</time>
      </trkpt>
      <trkpt lat="27.815645" lon="86.729638">
        <ele>3604.6</ele>
        <time>2022-10-29T06:28:58.000Z</time>
      </trkpt>
      <trkpt lat="27.815619" lon="86.729619">
        <ele>3604.2</ele>
        <time>2022-10-29T06:29:00.000Z</time>
      </trkpt>
      <trkpt lat="27.8156" lon="86.729606">
        <ele>3604.4</ele>
        <time>2022-10-29T06:29:02.000Z</time>
      </trkpt>
      <trkpt lat="27.815578" lon="86.7296">
        <ele>3604.2</ele>
        <time>2022-10-29T06:29:04.000Z</time>
      </trkpt>
      <trkpt lat="27.815558" lon="86.729574">
        <ele>3604.2</ele>
        <time>2022-10-29T06:29:06.000Z</time>
      </trkpt>
      <trkpt lat="27.815536" lon="86.729562">
        <ele>3603.8</ele>
        <time>2022-10-29T06:29:09.000Z</time>
      </trkpt>
      <trkpt lat="27.815514" lon="86.729555">
        <ele>3603.8</ele>
        <time>2022-10-29T06:29:11.000Z</time>
      </trkpt>
      <trkpt lat="27.815491" lon="86.729542">
        <ele>3603.8</ele>
        <time>2022-10-29T06:29:13.000Z</time>
      </trkpt>
      <trkpt lat="27.815469" lon="86.729536">
        <ele>3604</ele>
        <time>2022-10-29T06:29:15.000Z</time>
      </trkpt>
      <trkpt lat="27.81545" lon="86.729523">
        <ele>3604.4</ele>
        <time>2022-10-29T06:29:17.000Z</time>
      </trkpt>
      <trkpt lat="27.81543" lon="86.729498">
        <ele>3603.8</ele>
        <time>2022-10-29T06:29:20.000Z</time>
      </trkpt>
      <trkpt lat="27.815418" lon="86.729478">
        <ele>3605</ele>
        <time>2022-10-29T06:29:24.000Z</time>
      </trkpt>
      <trkpt lat="27.815411" lon="86.729453">
        <ele>3606</ele>
        <time>2022-10-29T06:29:26.000Z</time>
      </trkpt>
      <trkpt lat="27.815421" lon="86.729421">
        <ele>3605.2</ele>
        <time>2022-10-29T06:29:30.000Z</time>
      </trkpt>
      <trkpt lat="27.815443" lon="86.729408">
        <ele>3604.4</ele>
        <time>2022-10-29T06:29:33.000Z</time>
      </trkpt>
      <trkpt lat="27.815466" lon="86.729402">
        <ele>3603.8</ele>
        <time>2022-10-29T06:29:36.000Z</time>
      </trkpt>
      <trkpt lat="27.815482" lon="86.729382">
        <ele>3603</ele>
        <time>2022-10-29T06:29:39.000Z</time>
      </trkpt>
      <trkpt lat="27.815491" lon="86.729363">
        <ele>3602.4</ele>
        <time>2022-10-29T06:29:42.000Z</time>
      </trkpt>
      <trkpt lat="27.81551" lon="86.729338">
        <ele>3601.4</ele>
        <time>2022-10-29T06:29:45.000Z</time>
      </trkpt>
      <trkpt lat="27.815507" lon="86.729299">
        <ele>3600.6</ele>
        <time>2022-10-29T06:29:48.000Z</time>
      </trkpt>
      <trkpt lat="27.815494" lon="86.729274">
        <ele>3600.2</ele>
        <time>2022-10-29T06:29:51.000Z</time>
      </trkpt>
      <trkpt lat="27.815498" lon="86.729248">
        <ele>3600</ele>
        <time>2022-10-29T06:29:53.000Z</time>
      </trkpt>
      <trkpt lat="27.815501" lon="86.729216">
        <ele>3600.2</ele>
        <time>2022-10-29T06:29:55.000Z</time>
      </trkpt>
      <trkpt lat="27.815491" lon="86.729184">
        <ele>3599</ele>
        <time>2022-10-29T06:29:58.000Z</time>
      </trkpt>
      <trkpt lat="27.815469" lon="86.729165">
        <ele>3598.8</ele>
        <time>2022-10-29T06:30:00.000Z</time>
      </trkpt>
      <trkpt lat="27.815446" lon="86.729152">
        <ele>3598.2</ele>
        <time>2022-10-29T06:30:02.000Z</time>
      </trkpt>
      <trkpt lat="27.815434" lon="86.729133">
        <ele>3598.2</ele>
        <time>2022-10-29T06:30:03.000Z</time>
      </trkpt>
      <trkpt lat="27.815418" lon="86.729114">
        <ele>3598</ele>
        <time>2022-10-29T06:30:06.000Z</time>
      </trkpt>
      <trkpt lat="27.815402" lon="86.729094">
        <ele>3598</ele>
        <time>2022-10-29T06:30:08.000Z</time>
      </trkpt>
      <trkpt lat="27.815392" lon="86.729075">
        <ele>3598.2</ele>
        <time>2022-10-29T06:30:10.000Z</time>
      </trkpt>
      <trkpt lat="27.815389" lon="86.729043">
        <ele>3597.8</ele>
        <time>2022-10-29T06:30:12.000Z</time>
      </trkpt>
      <trkpt lat="27.815382" lon="86.729018">
        <ele>3597.8</ele>
        <time>2022-10-29T06:30:14.000Z</time>
      </trkpt>
      <trkpt lat="27.81536" lon="86.728986">
        <ele>3597.4</ele>
        <time>2022-10-29T06:30:17.000Z</time>
      </trkpt>
      <trkpt lat="27.815347" lon="86.728966">
        <ele>3596.4</ele>
        <time>2022-10-29T06:30:19.000Z</time>
      </trkpt>
      <trkpt lat="27.81536" lon="86.728928">
        <ele>3596.2</ele>
        <time>2022-10-29T06:30:21.000Z</time>
      </trkpt>
      <trkpt lat="27.815366" lon="86.728896">
        <ele>3596</ele>
        <time>2022-10-29T06:30:23.000Z</time>
      </trkpt>
      <trkpt lat="27.815363" lon="86.728864">
        <ele>3595.4</ele>
        <time>2022-10-29T06:30:25.000Z</time>
      </trkpt>
      <trkpt lat="27.815357" lon="86.728826">
        <ele>3595.8</ele>
        <time>2022-10-29T06:30:28.000Z</time>
      </trkpt>
      <trkpt lat="27.815347" lon="86.7288">
        <ele>3595.8</ele>
        <time>2022-10-29T06:30:30.000Z</time>
      </trkpt>
      <trkpt lat="27.815341" lon="86.728774">
        <ele>3595.8</ele>
        <time>2022-10-29T06:30:32.000Z</time>
      </trkpt>
      <trkpt lat="27.815331" lon="86.728755">
        <ele>3596</ele>
        <time>2022-10-29T06:30:34.000Z</time>
      </trkpt>
      <trkpt lat="27.815325" lon="86.72873">
        <ele>3596</ele>
        <time>2022-10-29T06:30:36.000Z</time>
      </trkpt>
      <trkpt lat="27.815318" lon="86.728704">
        <ele>3595.8</ele>
        <time>2022-10-29T06:30:38.000Z</time>
      </trkpt>
      <trkpt lat="27.815306" lon="86.728685">
        <ele>3595.4</ele>
        <time>2022-10-29T06:30:40.000Z</time>
      </trkpt>
      <trkpt lat="27.815286" lon="86.728666">
        <ele>3595</ele>
        <time>2022-10-29T06:30:42.000Z</time>
      </trkpt>
      <trkpt lat="27.815267" lon="86.728646">
        <ele>3595</ele>
        <time>2022-10-29T06:30:44.000Z</time>
      </trkpt>
      <trkpt lat="27.815254" lon="86.728621">
        <ele>3594</ele>
        <time>2022-10-29T06:30:46.000Z</time>
      </trkpt>
      <trkpt lat="27.815248" lon="86.728602">
        <ele>3593.6</ele>
        <time>2022-10-29T06:30:48.000Z</time>
      </trkpt>
      <trkpt lat="27.815232" lon="86.728582">
        <ele>3593.4</ele>
        <time>2022-10-29T06:30:50.000Z</time>
      </trkpt>
      <trkpt lat="27.815229" lon="86.728557">
        <ele>3593.2</ele>
        <time>2022-10-29T06:30:53.000Z</time>
      </trkpt>
      <trkpt lat="27.815235" lon="86.728531">
        <ele>3592.6</ele>
        <time>2022-10-29T06:30:55.000Z</time>
      </trkpt>
      <trkpt lat="27.815238" lon="86.728506">
        <ele>3592.2</ele>
        <time>2022-10-29T06:30:57.000Z</time>
      </trkpt>
      <trkpt lat="27.815232" lon="86.728486">
        <ele>3592</ele>
        <time>2022-10-29T06:30:59.000Z</time>
      </trkpt>
      <trkpt lat="27.815229" lon="86.728461">
        <ele>3591.4</ele>
        <time>2022-10-29T06:31:01.000Z</time>
      </trkpt>
      <trkpt lat="27.815226" lon="86.728429">
        <ele>3590.6</ele>
        <time>2022-10-29T06:31:05.000Z</time>
      </trkpt>
      <trkpt lat="27.815219" lon="86.72841">
        <ele>3590.4</ele>
        <time>2022-10-29T06:31:07.000Z</time>
      </trkpt>
      <trkpt lat="27.815219" lon="86.728384">
        <ele>3590.4</ele>
        <time>2022-10-29T06:31:09.000Z</time>
      </trkpt>
      <trkpt lat="27.815213" lon="86.728365">
        <ele>3589.6</ele>
        <time>2022-10-29T06:31:11.000Z</time>
      </trkpt>
      <trkpt lat="27.81521" lon="86.728333">
        <ele>3589.2</ele>
        <time>2022-10-29T06:31:13.000Z</time>
      </trkpt>
      <trkpt lat="27.8152" lon="86.728307">
        <ele>3589.2</ele>
        <time>2022-10-29T06:31:15.000Z</time>
      </trkpt>
      <trkpt lat="27.815194" lon="86.728282">
        <ele>3588.6</ele>
        <time>2022-10-29T06:31:17.000Z</time>
      </trkpt>
      <trkpt lat="27.815187" lon="86.728262">
        <ele>3588.4</ele>
        <time>2022-10-29T06:31:19.000Z</time>
      </trkpt>
      <trkpt lat="27.815168" lon="86.72823">
        <ele>3587.8</ele>
        <time>2022-10-29T06:31:22.000Z</time>
      </trkpt>
      <trkpt lat="27.815158" lon="86.728211">
        <ele>3587.4</ele>
        <time>2022-10-29T06:31:24.000Z</time>
      </trkpt>
      <trkpt lat="27.815149" lon="86.728192">
        <ele>3587.2</ele>
        <time>2022-10-29T06:31:26.000Z</time>
      </trkpt>
      <trkpt lat="27.81513" lon="86.728186">
        <ele>3586</ele>
        <time>2022-10-29T06:31:30.000Z</time>
      </trkpt>
      <trkpt lat="27.81511" lon="86.728173">
        <ele>3586</ele>
        <time>2022-10-29T06:31:33.000Z</time>
      </trkpt>
      <trkpt lat="27.815088" lon="86.728173">
        <ele>3585.6</ele>
        <time>2022-10-29T06:31:36.000Z</time>
      </trkpt>
      <trkpt lat="27.815069" lon="86.728166">
        <ele>3584.8</ele>
        <time>2022-10-29T06:31:38.000Z</time>
      </trkpt>
      <trkpt lat="27.815046" lon="86.72816">
        <ele>3584.4</ele>
        <time>2022-10-29T06:31:40.000Z</time>
      </trkpt>
      <trkpt lat="27.815024" lon="86.728141">
        <ele>3584.4</ele>
        <time>2022-10-29T06:31:42.000Z</time>
      </trkpt>
      <trkpt lat="27.815005" lon="86.728128">
        <ele>3584.2</ele>
        <time>2022-10-29T06:31:44.000Z</time>
      </trkpt>
      <trkpt lat="27.814995" lon="86.728109">
        <ele>3583.6</ele>
        <time>2022-10-29T06:31:46.000Z</time>
      </trkpt>
      <trkpt lat="27.814989" lon="86.72807">
        <ele>3583</ele>
        <time>2022-10-29T06:31:49.000Z</time>
      </trkpt>
      <trkpt lat="27.814979" lon="86.728051">
        <ele>3582.4</ele>
        <time>2022-10-29T06:31:51.000Z</time>
      </trkpt>
      <trkpt lat="27.814973" lon="86.728026">
        <ele>3582.6</ele>
        <time>2022-10-29T06:31:53.000Z</time>
      </trkpt>
      <trkpt lat="27.814966" lon="86.728006">
        <ele>3582.2</ele>
        <time>2022-10-29T06:31:55.000Z</time>
      </trkpt>
      <trkpt lat="27.814954" lon="86.727987">
        <ele>3582.2</ele>
        <time>2022-10-29T06:31:56.000Z</time>
      </trkpt>
      <trkpt lat="27.814941" lon="86.727968">
        <ele>3582.2</ele>
        <time>2022-10-29T06:31:59.000Z</time>
      </trkpt>
      <trkpt lat="27.814931" lon="86.727942">
        <ele>3582.6</ele>
        <time>2022-10-29T06:32:02.000Z</time>
      </trkpt>
      <trkpt lat="27.814915" lon="86.72793">
        <ele>3582.8</ele>
        <time>2022-10-29T06:32:04.000Z</time>
      </trkpt>
      <trkpt lat="27.814896" lon="86.72793">
        <ele>3583</ele>
        <time>2022-10-29T06:32:06.000Z</time>
      </trkpt>
      <trkpt lat="27.814883" lon="86.72791">
        <ele>3583</ele>
        <time>2022-10-29T06:32:08.000Z</time>
      </trkpt>
      <trkpt lat="27.81487" lon="86.727891">
        <ele>3583.2</ele>
        <time>2022-10-29T06:32:12.000Z</time>
      </trkpt>
      <trkpt lat="27.814858" lon="86.727872">
        <ele>3583.4</ele>
        <time>2022-10-29T06:32:14.000Z</time>
      </trkpt>
      <trkpt lat="27.814832" lon="86.727859">
        <ele>3583.6</ele>
        <time>2022-10-29T06:32:17.000Z</time>
      </trkpt>
      <trkpt lat="27.814813" lon="86.727846">
        <ele>3584</ele>
        <time>2022-10-29T06:32:20.000Z</time>
      </trkpt>
      <trkpt lat="27.814797" lon="86.727834">
        <ele>3584.4</ele>
        <time>2022-10-29T06:32:22.000Z</time>
      </trkpt>
      <trkpt lat="27.814784" lon="86.727814">
        <ele>3584.2</ele>
        <time>2022-10-29T06:32:27.000Z</time>
      </trkpt>
      <trkpt lat="27.814765" lon="86.727802">
        <ele>3584.6</ele>
        <time>2022-10-29T06:32:31.000Z</time>
      </trkpt>
      <trkpt lat="27.814746" lon="86.727782">
        <ele>3584.8</ele>
        <time>2022-10-29T06:32:34.000Z</time>
      </trkpt>
      <trkpt lat="27.814726" lon="86.727782">
        <ele>3584.8</ele>
        <time>2022-10-29T06:32:37.000Z</time>
      </trkpt>
      <trkpt lat="27.814704" lon="86.727789">
        <ele>3585.6</ele>
        <time>2022-10-29T06:32:41.000Z</time>
      </trkpt>
      <trkpt lat="27.814685" lon="86.727789">
        <ele>3586.4</ele>
        <time>2022-10-29T06:32:44.000Z</time>
      </trkpt>
      <trkpt lat="27.814662" lon="86.727789">
        <ele>3586.4</ele>
        <time>2022-10-29T06:32:47.000Z</time>
      </trkpt>
      <trkpt lat="27.81464" lon="86.727782">
        <ele>3587.6</ele>
        <time>2022-10-29T06:32:51.000Z</time>
      </trkpt>
      <trkpt lat="27.814624" lon="86.72777">
        <ele>3587.8</ele>
        <time>2022-10-29T06:32:53.000Z</time>
      </trkpt>
      <trkpt lat="27.814605" lon="86.72777">
        <ele>3587.8</ele>
        <time>2022-10-29T06:32:56.000Z</time>
      </trkpt>
      <trkpt lat="27.814586" lon="86.72777">
        <ele>3588.2</ele>
        <time>2022-10-29T06:33:00.000Z</time>
      </trkpt>
      <trkpt lat="27.814566" lon="86.72777">
        <ele>3588.6</ele>
        <time>2022-10-29T06:33:03.000Z</time>
      </trkpt>
      <trkpt lat="27.814544" lon="86.72777">
        <ele>3589.2</ele>
        <time>2022-10-29T06:33:07.000Z</time>
      </trkpt>
      <trkpt lat="27.814518" lon="86.72777">
        <ele>3589.8</ele>
        <time>2022-10-29T06:33:10.000Z</time>
      </trkpt>
      <trkpt lat="27.814496" lon="86.72777">
        <ele>3590.2</ele>
        <time>2022-10-29T06:33:12.000Z</time>
      </trkpt>
      <trkpt lat="27.814474" lon="86.727802">
        <ele>3590.6</ele>
        <time>2022-10-29T06:33:15.000Z</time>
      </trkpt>
      <trkpt lat="27.814448" lon="86.727814">
        <ele>3590.6</ele>
        <time>2022-10-29T06:33:17.000Z</time>
      </trkpt>
      <trkpt lat="27.814419" lon="86.727802">
        <ele>3590.8</ele>
        <time>2022-10-29T06:33:20.000Z</time>
      </trkpt>
      <trkpt lat="27.814397" lon="86.727802">
        <ele>3591</ele>
        <time>2022-10-29T06:33:22.000Z</time>
      </trkpt>
      <trkpt lat="27.814374" lon="86.727808">
        <ele>3590.8</ele>
        <time>2022-10-29T06:33:24.000Z</time>
      </trkpt>
      <trkpt lat="27.814355" lon="86.727814">
        <ele>3591</ele>
        <time>2022-10-29T06:33:26.000Z</time>
      </trkpt>
      <trkpt lat="27.81433" lon="86.727827">
        <ele>3591</ele>
        <time>2022-10-29T06:33:29.000Z</time>
      </trkpt>
      <trkpt lat="27.814317" lon="86.727846">
        <ele>3590.6</ele>
        <time>2022-10-29T06:33:31.000Z</time>
      </trkpt>
      <trkpt lat="27.814294" lon="86.727853">
        <ele>3590.6</ele>
        <time>2022-10-29T06:33:33.000Z</time>
      </trkpt>
      <trkpt lat="27.814266" lon="86.727853">
        <ele>3590.4</ele>
        <time>2022-10-29T06:33:35.000Z</time>
      </trkpt>
      <trkpt lat="27.81424" lon="86.727853">
        <ele>3590</ele>
        <time>2022-10-29T06:33:37.000Z</time>
      </trkpt>
      <trkpt lat="27.814218" lon="86.727853">
        <ele>3590</ele>
        <time>2022-10-29T06:33:39.000Z</time>
      </trkpt>
      <trkpt lat="27.814195" lon="86.727846">
        <ele>3589.6</ele>
        <time>2022-10-29T06:33:41.000Z</time>
      </trkpt>
      <trkpt lat="27.81417" lon="86.727846">
        <ele>3589.6</ele>
        <time>2022-10-29T06:33:43.000Z</time>
      </trkpt>
      <trkpt lat="27.814144" lon="86.727846">
        <ele>3589.6</ele>
        <time>2022-10-29T06:33:45.000Z</time>
      </trkpt>
      <trkpt lat="27.814122" lon="86.727853">
        <ele>3589.4</ele>
        <time>2022-10-29T06:33:47.000Z</time>
      </trkpt>
      <trkpt lat="27.814093" lon="86.727846">
        <ele>3589.4</ele>
        <time>2022-10-29T06:33:49.000Z</time>
      </trkpt>
      <trkpt lat="27.81407" lon="86.727846">
        <ele>3589.4</ele>
        <time>2022-10-29T06:33:51.000Z</time>
      </trkpt>
      <trkpt lat="27.814042" lon="86.727846">
        <ele>3589.6</ele>
        <time>2022-10-29T06:33:53.000Z</time>
      </trkpt>
      <trkpt lat="27.814016" lon="86.727834">
        <ele>3589.8</ele>
        <time>2022-10-29T06:33:55.000Z</time>
      </trkpt>
      <trkpt lat="27.81399" lon="86.727827">
        <ele>3589.6</ele>
        <time>2022-10-29T06:33:57.000Z</time>
      </trkpt>
      <trkpt lat="27.813965" lon="86.727821">
        <ele>3589.4</ele>
        <time>2022-10-29T06:33:59.000Z</time>
      </trkpt>
      <trkpt lat="27.813942" lon="86.727808">
        <ele>3589.4</ele>
        <time>2022-10-29T06:34:01.000Z</time>
      </trkpt>
      <trkpt lat="27.81392" lon="86.727802">
        <ele>3589.4</ele>
        <time>2022-10-29T06:34:03.000Z</time>
      </trkpt>
      <trkpt lat="27.813898" lon="86.727789">
        <ele>3589.2</ele>
        <time>2022-10-29T06:34:05.000Z</time>
      </trkpt>
      <trkpt lat="27.813872" lon="86.727782">
        <ele>3588.6</ele>
        <time>2022-10-29T06:34:07.000Z</time>
      </trkpt>
      <trkpt lat="27.81385" lon="86.727776">
        <ele>3588.2</ele>
        <time>2022-10-29T06:34:09.000Z</time>
      </trkpt>
      <trkpt lat="27.81383" lon="86.72777">
        <ele>3588.4</ele>
        <time>2022-10-29T06:34:16.000Z</time>
      </trkpt>
      <trkpt lat="27.813811" lon="86.727763">
        <ele>3588.6</ele>
        <time>2022-10-29T06:34:18.000Z</time>
      </trkpt>
      <trkpt lat="27.813792" lon="86.72775">
        <ele>3589.2</ele>
        <time>2022-10-29T06:34:20.000Z</time>
      </trkpt>
      <trkpt lat="27.81377" lon="86.727744">
        <ele>3588.8</ele>
        <time>2022-10-29T06:34:22.000Z</time>
      </trkpt>
      <trkpt lat="27.813744" lon="86.727738">
        <ele>3588.8</ele>
        <time>2022-10-29T06:34:24.000Z</time>
      </trkpt>
      <trkpt lat="27.813722" lon="86.727731">
        <ele>3588.8</ele>
        <time>2022-10-29T06:34:26.000Z</time>
      </trkpt>
      <trkpt lat="27.813702" lon="86.727712">
        <ele>3588.8</ele>
        <time>2022-10-29T06:34:28.000Z</time>
      </trkpt>
      <trkpt lat="27.813677" lon="86.727699">
        <ele>3589</ele>
        <time>2022-10-29T06:34:30.000Z</time>
      </trkpt>
      <trkpt lat="27.813651" lon="86.727686">
        <ele>3589</ele>
        <time>2022-10-29T06:34:32.000Z</time>
      </trkpt>
      <trkpt lat="27.813632" lon="86.727674">
        <ele>3589</ele>
        <time>2022-10-29T06:34:34.000Z</time>
      </trkpt>
      <trkpt lat="27.813613" lon="86.727674">
        <ele>3589.4</ele>
        <time>2022-10-29T06:34:36.000Z</time>
      </trkpt>
      <trkpt lat="27.813597" lon="86.727686">
        <ele>3589.8</ele>
        <time>2022-10-29T06:34:38.000Z</time>
      </trkpt>
      <trkpt lat="27.813578" lon="86.727693">
        <ele>3589.8</ele>
        <time>2022-10-29T06:34:40.000Z</time>
      </trkpt>
      <trkpt lat="27.813555" lon="86.727699">
        <ele>3590</ele>
        <time>2022-10-29T06:34:42.000Z</time>
      </trkpt>
      <trkpt lat="27.813536" lon="86.727706">
        <ele>3590.2</ele>
        <time>2022-10-29T06:34:44.000Z</time>
      </trkpt>
      <trkpt lat="27.813514" lon="86.727725">
        <ele>3590.4</ele>
        <time>2022-10-29T06:34:46.000Z</time>
      </trkpt>
      <trkpt lat="27.813491" lon="86.727731">
        <ele>3590.8</ele>
        <time>2022-10-29T06:34:49.000Z</time>
      </trkpt>
      <trkpt lat="27.813472" lon="86.727738">
        <ele>3591</ele>
        <time>2022-10-29T06:34:52.000Z</time>
      </trkpt>
      <trkpt lat="27.81345" lon="86.72775">
        <ele>3592.2</ele>
        <time>2022-10-29T06:34:56.000Z</time>
      </trkpt>
      <trkpt lat="27.81343" lon="86.727763">
        <ele>3592.4</ele>
        <time>2022-10-29T06:34:59.000Z</time>
      </trkpt>
      <trkpt lat="27.813411" lon="86.727763">
        <ele>3593.6</ele>
        <time>2022-10-29T06:35:01.000Z</time>
      </trkpt>
      <trkpt lat="27.813392" lon="86.727763">
        <ele>3593.6</ele>
        <time>2022-10-29T06:35:03.000Z</time>
      </trkpt>
      <trkpt lat="27.813373" lon="86.72775">
        <ele>3593.8</ele>
        <time>2022-10-29T06:35:05.000Z</time>
      </trkpt>
      <trkpt lat="27.81335" lon="86.727738">
        <ele>3593.8</ele>
        <time>2022-10-29T06:35:07.000Z</time>
      </trkpt>
      <trkpt lat="27.813334" lon="86.727725">
        <ele>3593.8</ele>
        <time>2022-10-29T06:35:09.000Z</time>
      </trkpt>
      <trkpt lat="27.813328" lon="86.727706">
        <ele>3593.6</ele>
        <time>2022-10-29T06:35:10.000Z</time>
      </trkpt>
      <trkpt lat="27.813318" lon="86.727686">
        <ele>3593</ele>
        <time>2022-10-29T06:35:18.000Z</time>
      </trkpt>
      <trkpt lat="27.813312" lon="86.727667">
        <ele>3593.4</ele>
        <time>2022-10-29T06:35:20.000Z</time>
      </trkpt>
      <trkpt lat="27.813318" lon="86.727648">
        <ele>3591</ele>
        <time>2022-10-29T06:35:44.000Z</time>
      </trkpt>
      <trkpt lat="27.813325" lon="86.727622">
        <ele>3591</ele>
        <time>2022-10-29T06:35:53.000Z</time>
      </trkpt>
      <trkpt lat="27.813328" lon="86.727584">
        <ele>3590.4</ele>
        <time>2022-10-29T06:35:55.000Z</time>
      </trkpt>
      <trkpt lat="27.813331" lon="86.727539">
        <ele>3589.8</ele>
        <time>2022-10-29T06:35:57.000Z</time>
      </trkpt>
      <trkpt lat="27.813334" lon="86.727514">
        <ele>3590.6</ele>
        <time>2022-10-29T06:35:58.000Z</time>
      </trkpt>
      <trkpt lat="27.813334" lon="86.727469">
        <ele>3590.6</ele>
        <time>2022-10-29T06:36:00.000Z</time>
      </trkpt>
      <trkpt lat="27.813344" lon="86.72743">
        <ele>3590.4</ele>
        <time>2022-10-29T06:36:02.000Z</time>
      </trkpt>
      <trkpt lat="27.813344" lon="86.727392">
        <ele>3590.6</ele>
        <time>2022-10-29T06:36:05.000Z</time>
      </trkpt>
      <trkpt lat="27.81335" lon="86.727366">
        <ele>3590.2</ele>
        <time>2022-10-29T06:36:07.000Z</time>
      </trkpt>
      <trkpt lat="27.813354" lon="86.727334">
        <ele>3589</ele>
        <time>2022-10-29T06:36:09.000Z</time>
      </trkpt>
      <trkpt lat="27.813354" lon="86.727309">
        <ele>3589</ele>
        <time>2022-10-29T06:36:10.000Z</time>
      </trkpt>
      <trkpt lat="27.813354" lon="86.727277">
        <ele>3589.4</ele>
        <time>2022-10-29T06:36:12.000Z</time>
      </trkpt>
      <trkpt lat="27.81335" lon="86.727251">
        <ele>3589.4</ele>
        <time>2022-10-29T06:36:14.000Z</time>
      </trkpt>
      <trkpt lat="27.813354" lon="86.727219">
        <ele>3589</ele>
        <time>2022-10-29T06:36:16.000Z</time>
      </trkpt>
      <trkpt lat="27.813354" lon="86.727194">
        <ele>3589</ele>
        <time>2022-10-29T06:36:18.000Z</time>
      </trkpt>
      <trkpt lat="27.813357" lon="86.727168">
        <ele>3589.6</ele>
        <time>2022-10-29T06:36:20.000Z</time>
      </trkpt>
      <trkpt lat="27.813357" lon="86.727136">
        <ele>3590.2</ele>
        <time>2022-10-29T06:36:22.000Z</time>
      </trkpt>
      <trkpt lat="27.813354" lon="86.72711">
        <ele>3589.4</ele>
        <time>2022-10-29T06:36:24.000Z</time>
      </trkpt>
      <trkpt lat="27.813347" lon="86.727091">
        <ele>3588.4</ele>
        <time>2022-10-29T06:36:26.000Z</time>
      </trkpt>
      <trkpt lat="27.813341" lon="86.727059">
        <ele>3588.4</ele>
        <time>2022-10-29T06:36:28.000Z</time>
      </trkpt>
      <trkpt lat="27.813334" lon="86.72704">
        <ele>3588.6</ele>
        <time>2022-10-29T06:36:29.000Z</time>
      </trkpt>
      <trkpt lat="27.813325" lon="86.727021">
        <ele>3588.6</ele>
        <time>2022-10-29T06:36:31.000Z</time>
      </trkpt>
      <trkpt lat="27.813315" lon="86.726989">
        <ele>3589.2</ele>
        <time>2022-10-29T06:36:33.000Z</time>
      </trkpt>
      <trkpt lat="27.813312" lon="86.72695">
        <ele>3589.6</ele>
        <time>2022-10-29T06:36:36.000Z</time>
      </trkpt>
      <trkpt lat="27.813296" lon="86.726938">
        <ele>3589.6</ele>
        <time>2022-10-29T06:36:38.000Z</time>
      </trkpt>
      <trkpt lat="27.813283" lon="86.726918">
        <ele>3589</ele>
        <time>2022-10-29T06:36:40.000Z</time>
      </trkpt>
      <trkpt lat="27.81327" lon="86.726899">
        <ele>3589</ele>
        <time>2022-10-29T06:36:42.000Z</time>
      </trkpt>
      <trkpt lat="27.813258" lon="86.726874">
        <ele>3588.6</ele>
        <time>2022-10-29T06:36:44.000Z</time>
      </trkpt>
      <trkpt lat="27.813245" lon="86.726854">
        <ele>3588.4</ele>
        <time>2022-10-29T06:36:46.000Z</time>
      </trkpt>
      <trkpt lat="27.813235" lon="86.726829">
        <ele>3588.6</ele>
        <time>2022-10-29T06:36:48.000Z</time>
      </trkpt>
      <trkpt lat="27.813222" lon="86.72681">
        <ele>3588.6</ele>
        <time>2022-10-29T06:36:50.000Z</time>
      </trkpt>
      <trkpt lat="27.813216" lon="86.72679">
        <ele>3588.6</ele>
        <time>2022-10-29T06:36:51.000Z</time>
      </trkpt>
      <trkpt lat="27.813206" lon="86.726771">
        <ele>3588.8</ele>
        <time>2022-10-29T06:36:53.000Z</time>
      </trkpt>
      <trkpt lat="27.8132" lon="86.726752">
        <ele>3589</ele>
        <time>2022-10-29T06:36:54.000Z</time>
      </trkpt>
      <trkpt lat="27.813194" lon="86.726733">
        <ele>3588.2</ele>
        <time>2022-10-29T06:36:56.000Z</time>
      </trkpt>
      <trkpt lat="27.813187" lon="86.726714">
        <ele>3588</ele>
        <time>2022-10-29T06:36:57.000Z</time>
      </trkpt>
      <trkpt lat="27.813174" lon="86.726694">
        <ele>3588</ele>
        <time>2022-10-29T06:36:59.000Z</time>
      </trkpt>
      <trkpt lat="27.813165" lon="86.726675">
        <ele>3588.2</ele>
        <time>2022-10-29T06:37:01.000Z</time>
      </trkpt>
      <trkpt lat="27.813152" lon="86.72665">
        <ele>3588.2</ele>
        <time>2022-10-29T06:37:03.000Z</time>
      </trkpt>
      <trkpt lat="27.813142" lon="86.726624">
        <ele>3588.2</ele>
        <time>2022-10-29T06:37:05.000Z</time>
      </trkpt>
      <trkpt lat="27.813123" lon="86.726611">
        <ele>3588</ele>
        <time>2022-10-29T06:37:07.000Z</time>
      </trkpt>
      <trkpt lat="27.813104" lon="86.726592">
        <ele>3587.6</ele>
        <time>2022-10-29T06:37:09.000Z</time>
      </trkpt>
      <trkpt lat="27.813088" lon="86.726573">
        <ele>3587.6</ele>
        <time>2022-10-29T06:37:11.000Z</time>
      </trkpt>
      <trkpt lat="27.813066" lon="86.726554">
        <ele>3587.6</ele>
        <time>2022-10-29T06:37:13.000Z</time>
      </trkpt>
      <trkpt lat="27.813046" lon="86.726541">
        <ele>3587.6</ele>
        <time>2022-10-29T06:37:15.000Z</time>
      </trkpt>
      <trkpt lat="27.813034" lon="86.726515">
        <ele>3587.6</ele>
        <time>2022-10-29T06:37:17.000Z</time>
      </trkpt>
      <trkpt lat="27.813024" lon="86.726496">
        <ele>3588</ele>
        <time>2022-10-29T06:37:19.000Z</time>
      </trkpt>
      <trkpt lat="27.813018" lon="86.726464">
        <ele>3588.2</ele>
        <time>2022-10-29T06:37:21.000Z</time>
      </trkpt>
      <trkpt lat="27.813011" lon="86.726432">
        <ele>3587.4</ele>
        <time>2022-10-29T06:37:23.000Z</time>
      </trkpt>
      <trkpt lat="27.813008" lon="86.726394">
        <ele>3587.2</ele>
        <time>2022-10-29T06:37:26.000Z</time>
      </trkpt>
      <trkpt lat="27.813002" lon="86.726355">
        <ele>3587</ele>
        <time>2022-10-29T06:37:29.000Z</time>
      </trkpt>
      <trkpt lat="27.812989" lon="86.726336">
        <ele>3586.6</ele>
        <time>2022-10-29T06:37:31.000Z</time>
      </trkpt>
      <trkpt lat="27.812979" lon="86.72631">
        <ele>3587</ele>
        <time>2022-10-29T06:37:33.000Z</time>
      </trkpt>
      <trkpt lat="27.812966" lon="86.726285">
        <ele>3586.6</ele>
        <time>2022-10-29T06:37:35.000Z</time>
      </trkpt>
      <trkpt lat="27.812947" lon="86.726266">
        <ele>3587</ele>
        <time>2022-10-29T06:37:38.000Z</time>
      </trkpt>
      <trkpt lat="27.812931" lon="86.726253">
        <ele>3587.2</ele>
        <time>2022-10-29T06:37:41.000Z</time>
      </trkpt>
      <trkpt lat="27.812918" lon="86.726234">
        <ele>3587.6</ele>
        <time>2022-10-29T06:37:43.000Z</time>
      </trkpt>
      <trkpt lat="27.812899" lon="86.726221">
        <ele>3588.2</ele>
        <time>2022-10-29T06:37:46.000Z</time>
      </trkpt>
      <trkpt lat="27.81289" lon="86.726202">
        <ele>3588.4</ele>
        <time>2022-10-29T06:37:48.000Z</time>
      </trkpt>
      <trkpt lat="27.812877" lon="86.726176">
        <ele>3588.8</ele>
        <time>2022-10-29T06:37:51.000Z</time>
      </trkpt>
      <trkpt lat="27.812867" lon="86.72615">
        <ele>3588.8</ele>
        <time>2022-10-29T06:37:53.000Z</time>
      </trkpt>
      <trkpt lat="27.812861" lon="86.726125">
        <ele>3589</ele>
        <time>2022-10-29T06:37:55.000Z</time>
      </trkpt>
      <trkpt lat="27.812845" lon="86.726106">
        <ele>3588.8</ele>
        <time>2022-10-29T06:37:57.000Z</time>
      </trkpt>
      <trkpt lat="27.812826" lon="86.726099">
        <ele>3588.8</ele>
        <time>2022-10-29T06:37:59.000Z</time>
      </trkpt>
      <trkpt lat="27.812806" lon="86.726086">
        <ele>3588.8</ele>
        <time>2022-10-29T06:38:01.000Z</time>
      </trkpt>
      <trkpt lat="27.812787" lon="86.72608">
        <ele>3589</ele>
        <time>2022-10-29T06:38:03.000Z</time>
      </trkpt>
      <trkpt lat="27.812765" lon="86.726074">
        <ele>3589.6</ele>
        <time>2022-10-29T06:38:06.000Z</time>
      </trkpt>
      <trkpt lat="27.812739" lon="86.726067">
        <ele>3590.2</ele>
        <time>2022-10-29T06:38:09.000Z</time>
      </trkpt>
      <trkpt lat="27.81272" lon="86.726042">
        <ele>3590.6</ele>
        <time>2022-10-29T06:38:12.000Z</time>
      </trkpt>
      <trkpt lat="27.812701" lon="86.726029">
        <ele>3590.8</ele>
        <time>2022-10-29T06:38:15.000Z</time>
      </trkpt>
      <trkpt lat="27.812682" lon="86.726003">
        <ele>3590.8</ele>
        <time>2022-10-29T06:38:17.000Z</time>
      </trkpt>
      <trkpt lat="27.812659" lon="86.72599">
        <ele>3590</ele>
        <time>2022-10-29T06:38:20.000Z</time>
      </trkpt>
      <trkpt lat="27.81264" lon="86.725965">
        <ele>3589.6</ele>
        <time>2022-10-29T06:38:22.000Z</time>
      </trkpt>
      <trkpt lat="27.812621" lon="86.725952">
        <ele>3589.4</ele>
        <time>2022-10-29T06:38:24.000Z</time>
      </trkpt>
      <trkpt lat="27.812598" lon="86.725939">
        <ele>3589.2</ele>
        <time>2022-10-29T06:38:26.000Z</time>
      </trkpt>
      <trkpt lat="27.812573" lon="86.72592">
        <ele>3589.2</ele>
        <time>2022-10-29T06:38:28.000Z</time>
      </trkpt>
      <trkpt lat="27.81255" lon="86.72592">
        <ele>3588.6</ele>
        <time>2022-10-29T06:38:30.000Z</time>
      </trkpt>
      <trkpt lat="27.812531" lon="86.72592">
        <ele>3588.6</ele>
        <time>2022-10-29T06:38:32.000Z</time>
      </trkpt>
      <trkpt lat="27.812502" lon="86.725926">
        <ele>3588.6</ele>
        <time>2022-10-29T06:38:34.000Z</time>
      </trkpt>
      <trkpt lat="27.81248" lon="86.725946">
        <ele>3588.4</ele>
        <time>2022-10-29T06:38:36.000Z</time>
      </trkpt>
      <trkpt lat="27.812461" lon="86.725958">
        <ele>3588.2</ele>
        <time>2022-10-29T06:38:38.000Z</time>
      </trkpt>
      <trkpt lat="27.812442" lon="86.725965">
        <ele>3588.2</ele>
        <time>2022-10-29T06:38:40.000Z</time>
      </trkpt>
      <trkpt lat="27.812416" lon="86.725958">
        <ele>3588.4</ele>
        <time>2022-10-29T06:38:42.000Z</time>
      </trkpt>
      <trkpt lat="27.812394" lon="86.725952">
        <ele>3589.4</ele>
        <time>2022-10-29T06:38:45.000Z</time>
      </trkpt>
      <trkpt lat="27.812374" lon="86.725946">
        <ele>3589.4</ele>
        <time>2022-10-29T06:38:47.000Z</time>
      </trkpt>
      <trkpt lat="27.812358" lon="86.725926">
        <ele>3590.2</ele>
        <time>2022-10-29T06:38:49.000Z</time>
      </trkpt>
      <trkpt lat="27.812336" lon="86.72592">
        <ele>3590.4</ele>
        <time>2022-10-29T06:38:51.000Z</time>
      </trkpt>
      <trkpt lat="27.812317" lon="86.725914">
        <ele>3590.6</ele>
        <time>2022-10-29T06:38:53.000Z</time>
      </trkpt>
      <trkpt lat="27.812294" lon="86.725907">
        <ele>3590</ele>
        <time>2022-10-29T06:38:55.000Z</time>
      </trkpt>
      <trkpt lat="27.812282" lon="86.725888">
        <ele>3589.2</ele>
        <time>2022-10-29T06:38:58.000Z</time>
      </trkpt>
      <trkpt lat="27.812282" lon="86.725862">
        <ele>3589</ele>
        <time>2022-10-29T06:39:02.000Z</time>
      </trkpt>
      <trkpt lat="27.812291" lon="86.725843">
        <ele>3588.4</ele>
        <time>2022-10-29T06:39:04.000Z</time>
      </trkpt>
      <trkpt lat="27.812307" lon="86.72583">
        <ele>3587.8</ele>
        <time>2022-10-29T06:39:07.000Z</time>
      </trkpt>
      <trkpt lat="27.81233" lon="86.725837">
        <ele>3586.8</ele>
        <time>2022-10-29T06:39:11.000Z</time>
      </trkpt>
      <trkpt lat="27.812349" lon="86.725837">
        <ele>3586</ele>
        <time>2022-10-29T06:39:15.000Z</time>
      </trkpt>
      <trkpt lat="27.812371" lon="86.72583">
        <ele>3585</ele>
        <time>2022-10-29T06:39:18.000Z</time>
      </trkpt>
      <trkpt lat="27.812387" lon="86.725818">
        <ele>3583.8</ele>
        <time>2022-10-29T06:39:23.000Z</time>
      </trkpt>
      <trkpt lat="27.812403" lon="86.725798">
        <ele>3583.2</ele>
        <time>2022-10-29T06:39:26.000Z</time>
      </trkpt>
      <trkpt lat="27.812413" lon="86.725779">
        <ele>3582.4</ele>
        <time>2022-10-29T06:39:28.000Z</time>
      </trkpt>
      <trkpt lat="27.812422" lon="86.725754">
        <ele>3582</ele>
        <time>2022-10-29T06:39:30.000Z</time>
      </trkpt>
      <trkpt lat="27.812435" lon="86.725728">
        <ele>3581.8</ele>
        <time>2022-10-29T06:39:32.000Z</time>
      </trkpt>
      <trkpt lat="27.812461" lon="86.725702">
        <ele>3581.2</ele>
        <time>2022-10-29T06:39:34.000Z</time>
      </trkpt>
      <trkpt lat="27.81247" lon="86.725683">
        <ele>3581.2</ele>
        <time>2022-10-29T06:39:35.000Z</time>
      </trkpt>
      <trkpt lat="27.812486" lon="86.725664">
        <ele>3580.6</ele>
        <time>2022-10-29T06:39:37.000Z</time>
      </trkpt>
      <trkpt lat="27.812496" lon="86.725632">
        <ele>3580</ele>
        <time>2022-10-29T06:39:39.000Z</time>
      </trkpt>
      <trkpt lat="27.812502" lon="86.725606">
        <ele>3579.4</ele>
        <time>2022-10-29T06:39:41.000Z</time>
      </trkpt>
      <trkpt lat="27.812509" lon="86.725587">
        <ele>3579.4</ele>
        <time>2022-10-29T06:39:43.000Z</time>
      </trkpt>
      <trkpt lat="27.812512" lon="86.725562">
        <ele>3579.2</ele>
        <time>2022-10-29T06:39:45.000Z</time>
      </trkpt>
      <trkpt lat="27.812525" lon="86.725542">
        <ele>3578.4</ele>
        <time>2022-10-29T06:39:47.000Z</time>
      </trkpt>
      <trkpt lat="27.812531" lon="86.725523">
        <ele>3578.2</ele>
        <time>2022-10-29T06:39:48.000Z</time>
      </trkpt>
      <trkpt lat="27.812547" lon="86.725504">
        <ele>3578.2</ele>
        <time>2022-10-29T06:39:50.000Z</time>
      </trkpt>
      <trkpt lat="27.812557" lon="86.725478">
        <ele>3577.4</ele>
        <time>2022-10-29T06:39:52.000Z</time>
      </trkpt>
      <trkpt lat="27.812566" lon="86.725459">
        <ele>3577.2</ele>
        <time>2022-10-29T06:39:54.000Z</time>
      </trkpt>
      <trkpt lat="27.812573" lon="86.72544">
        <ele>3577</ele>
        <time>2022-10-29T06:39:55.000Z</time>
      </trkpt>
      <trkpt lat="27.812586" lon="86.725421">
        <ele>3576.8</ele>
        <time>2022-10-29T06:39:57.000Z</time>
      </trkpt>
      <trkpt lat="27.812589" lon="86.725395">
        <ele>3576.4</ele>
        <time>2022-10-29T06:39:59.000Z</time>
      </trkpt>
      <trkpt lat="27.812589" lon="86.725363">
        <ele>3576</ele>
        <time>2022-10-29T06:40:01.000Z</time>
      </trkpt>
      <trkpt lat="27.812595" lon="86.725344">
        <ele>3575.4</ele>
        <time>2022-10-29T06:40:03.000Z</time>
      </trkpt>
      <trkpt lat="27.812598" lon="86.725312">
        <ele>3575.6</ele>
        <time>2022-10-29T06:40:06.000Z</time>
      </trkpt>
      <trkpt lat="27.812598" lon="86.725286">
        <ele>3575.2</ele>
        <time>2022-10-29T06:40:10.000Z</time>
      </trkpt>
      <trkpt lat="27.812586" lon="86.725261">
        <ele>3574.6</ele>
        <time>2022-10-29T06:40:19.000Z</time>
      </trkpt>
      <trkpt lat="27.812579" lon="86.725242">
        <ele>3574.6</ele>
        <time>2022-10-29T06:40:20.000Z</time>
      </trkpt>
      <trkpt lat="27.812579" lon="86.725203">
        <ele>3574</ele>
        <time>2022-10-29T06:40:23.000Z</time>
      </trkpt>
      <trkpt lat="27.812582" lon="86.725171">
        <ele>3573.4</ele>
        <time>2022-10-29T06:40:25.000Z</time>
      </trkpt>
      <trkpt lat="27.812573" lon="86.725152">
        <ele>3573</ele>
        <time>2022-10-29T06:40:27.000Z</time>
      </trkpt>
      <trkpt lat="27.812573" lon="86.725126">
        <ele>3572.4</ele>
        <time>2022-10-29T06:40:31.000Z</time>
      </trkpt>
      <trkpt lat="27.812582" lon="86.725107">
        <ele>3571.4</ele>
        <time>2022-10-29T06:40:34.000Z</time>
      </trkpt>
      <trkpt lat="27.812576" lon="86.725088">
        <ele>3570.4</ele>
        <time>2022-10-29T06:40:37.000Z</time>
      </trkpt>
      <trkpt lat="27.812557" lon="86.725075">
        <ele>3569.4</ele>
        <time>2022-10-29T06:40:40.000Z</time>
      </trkpt>
      <trkpt lat="27.81255" lon="86.72505">
        <ele>3569.4</ele>
        <time>2022-10-29T06:40:42.000Z</time>
      </trkpt>
      <trkpt lat="27.812554" lon="86.725024">
        <ele>3569.4</ele>
        <time>2022-10-29T06:40:44.000Z</time>
      </trkpt>
      <trkpt lat="27.81255" lon="86.724992">
        <ele>3569.4</ele>
        <time>2022-10-29T06:40:46.000Z</time>
      </trkpt>
      <trkpt lat="27.812538" lon="86.724966">
        <ele>3568.6</ele>
        <time>2022-10-29T06:40:48.000Z</time>
      </trkpt>
      <trkpt lat="27.812531" lon="86.724947">
        <ele>3567.6</ele>
        <time>2022-10-29T06:40:51.000Z</time>
      </trkpt>
      <trkpt lat="27.812528" lon="86.724922">
        <ele>3567.4</ele>
        <time>2022-10-29T06:40:53.000Z</time>
      </trkpt>
      <trkpt lat="27.812518" lon="86.72489">
        <ele>3566.8</ele>
        <time>2022-10-29T06:40:56.000Z</time>
      </trkpt>
      <trkpt lat="27.812509" lon="86.724864">
        <ele>3566.6</ele>
        <time>2022-10-29T06:40:59.000Z</time>
      </trkpt>
      <trkpt lat="27.812493" lon="86.724845">
        <ele>3566.4</ele>
        <time>2022-10-29T06:41:01.000Z</time>
      </trkpt>
      <trkpt lat="27.81249" lon="86.724813">
        <ele>3565.8</ele>
        <time>2022-10-29T06:41:03.000Z</time>
      </trkpt>
      <trkpt lat="27.812483" lon="86.724794">
        <ele>3565.2</ele>
        <time>2022-10-29T06:41:05.000Z</time>
      </trkpt>
      <trkpt lat="27.81247" lon="86.724774">
        <ele>3565.2</ele>
        <time>2022-10-29T06:41:07.000Z</time>
      </trkpt>
      <trkpt lat="27.812464" lon="86.724749">
        <ele>3564.6</ele>
        <time>2022-10-29T06:41:09.000Z</time>
      </trkpt>
      <trkpt lat="27.812458" lon="86.724723">
        <ele>3564.2</ele>
        <time>2022-10-29T06:41:11.000Z</time>
      </trkpt>
      <trkpt lat="27.812454" lon="86.724691">
        <ele>3564</ele>
        <time>2022-10-29T06:41:13.000Z</time>
      </trkpt>
      <trkpt lat="27.812451" lon="86.724666">
        <ele>3563.8</ele>
        <time>2022-10-29T06:41:16.000Z</time>
      </trkpt>
      <trkpt lat="27.812448" lon="86.724634">
        <ele>3563.6</ele>
        <time>2022-10-29T06:41:18.000Z</time>
      </trkpt>
      <trkpt lat="27.812448" lon="86.724602">
        <ele>3563.4</ele>
        <time>2022-10-29T06:41:20.000Z</time>
      </trkpt>
      <trkpt lat="27.812448" lon="86.72457">
        <ele>3563.2</ele>
        <time>2022-10-29T06:41:22.000Z</time>
      </trkpt>
      <trkpt lat="27.812448" lon="86.724531">
        <ele>3563.8</ele>
        <time>2022-10-29T06:41:25.000Z</time>
      </trkpt>
      <trkpt lat="27.812442" lon="86.724512">
        <ele>3563.8</ele>
        <time>2022-10-29T06:41:27.000Z</time>
      </trkpt>
      <trkpt lat="27.812435" lon="86.72448">
        <ele>3563.8</ele>
        <time>2022-10-29T06:41:29.000Z</time>
      </trkpt>
      <trkpt lat="27.812429" lon="86.724454">
        <ele>3563.8</ele>
        <time>2022-10-29T06:41:31.000Z</time>
      </trkpt>
      <trkpt lat="27.812422" lon="86.724429">
        <ele>3563.6</ele>
        <time>2022-10-29T06:41:34.000Z</time>
      </trkpt>
      <trkpt lat="27.812419" lon="86.724397">
        <ele>3563.8</ele>
        <time>2022-10-29T06:41:36.000Z</time>
      </trkpt>
      <trkpt lat="27.812416" lon="86.724371">
        <ele>3563.2</ele>
        <time>2022-10-29T06:41:38.000Z</time>
      </trkpt>
      <trkpt lat="27.812413" lon="86.724339">
        <ele>3562.6</ele>
        <time>2022-10-29T06:41:40.000Z</time>
      </trkpt>
      <trkpt lat="27.812413" lon="86.724314">
        <ele>3563</ele>
        <time>2022-10-29T06:41:43.000Z</time>
      </trkpt>
      <trkpt lat="27.81241" lon="86.724282">
        <ele>3562.8</ele>
        <time>2022-10-29T06:41:46.000Z</time>
      </trkpt>
      <trkpt lat="27.812413" lon="86.72425">
        <ele>3562.6</ele>
        <time>2022-10-29T06:41:48.000Z</time>
      </trkpt>
      <trkpt lat="27.812413" lon="86.724218">
        <ele>3562.6</ele>
        <time>2022-10-29T06:41:50.000Z</time>
      </trkpt>
      <trkpt lat="27.812419" lon="86.724192">
        <ele>3562.6</ele>
        <time>2022-10-29T06:41:53.000Z</time>
      </trkpt>
      <trkpt lat="27.812422" lon="86.72416">
        <ele>3562.8</ele>
        <time>2022-10-29T06:41:55.000Z</time>
      </trkpt>
      <trkpt lat="27.812426" lon="86.724134">
        <ele>3563.2</ele>
        <time>2022-10-29T06:41:57.000Z</time>
      </trkpt>
      <trkpt lat="27.812426" lon="86.724109">
        <ele>3563.4</ele>
        <time>2022-10-29T06:41:59.000Z</time>
      </trkpt>
      <trkpt lat="27.812426" lon="86.724083">
        <ele>3563.4</ele>
        <time>2022-10-29T06:42:01.000Z</time>
      </trkpt>
      <trkpt lat="27.812426" lon="86.724058">
        <ele>3563.4</ele>
        <time>2022-10-29T06:42:03.000Z</time>
      </trkpt>
      <trkpt lat="27.812419" lon="86.724038">
        <ele>3563.6</ele>
        <time>2022-10-29T06:42:05.000Z</time>
      </trkpt>
      <trkpt lat="27.812413" lon="86.724019">
        <ele>3563.6</ele>
        <time>2022-10-29T06:42:06.000Z</time>
      </trkpt>
      <trkpt lat="27.812403" lon="86.724">
        <ele>3563.4</ele>
        <time>2022-10-29T06:42:08.000Z</time>
      </trkpt>
      <trkpt lat="27.812394" lon="86.723981">
        <ele>3563.6</ele>
        <time>2022-10-29T06:42:10.000Z</time>
      </trkpt>
      <trkpt lat="27.812381" lon="86.723962">
        <ele>3563.8</ele>
        <time>2022-10-29T06:42:12.000Z</time>
      </trkpt>
      <trkpt lat="27.812371" lon="86.723936">
        <ele>3563.6</ele>
        <time>2022-10-29T06:42:14.000Z</time>
      </trkpt>
      <trkpt lat="27.812365" lon="86.723917">
        <ele>3563.6</ele>
        <time>2022-10-29T06:42:16.000Z</time>
      </trkpt>
      <trkpt lat="27.812358" lon="86.723891">
        <ele>3563.8</ele>
        <time>2022-10-29T06:42:18.000Z</time>
      </trkpt>
      <trkpt lat="27.81233" lon="86.723821">
        <ele>3565</ele>
        <time>2022-10-29T06:45:30.000Z</time>
      </trkpt>
      <trkpt lat="27.81231" lon="86.723808">
        <ele>3565</ele>
        <time>2022-10-29T06:45:32.000Z</time>
      </trkpt>
      <trkpt lat="27.812282" lon="86.723795">
        <ele>3565</ele>
        <time>2022-10-29T06:45:35.000Z</time>
      </trkpt>
      <trkpt lat="27.812262" lon="86.723782">
        <ele>3564.8</ele>
        <time>2022-10-29T06:45:37.000Z</time>
      </trkpt>
      <trkpt lat="27.81224" lon="86.723763">
        <ele>3564.6</ele>
        <time>2022-10-29T06:45:39.000Z</time>
      </trkpt>
      <trkpt lat="27.812224" lon="86.723738">
        <ele>3564.6</ele>
        <time>2022-10-29T06:45:41.000Z</time>
      </trkpt>
      <trkpt lat="27.812202" lon="86.723725">
        <ele>3564.4</ele>
        <time>2022-10-29T06:45:44.000Z</time>
      </trkpt>
      <trkpt lat="27.812182" lon="86.723712">
        <ele>3564.8</ele>
        <time>2022-10-29T06:45:46.000Z</time>
      </trkpt>
      <trkpt lat="27.812163" lon="86.723693">
        <ele>3564.6</ele>
        <time>2022-10-29T06:45:48.000Z</time>
      </trkpt>
      <trkpt lat="27.812144" lon="86.72368">
        <ele>3564.4</ele>
        <time>2022-10-29T06:45:50.000Z</time>
      </trkpt>
      <trkpt lat="27.812134" lon="86.723661">
        <ele>3564.4</ele>
        <time>2022-10-29T06:45:51.000Z</time>
      </trkpt>
      <trkpt lat="27.812112" lon="86.723654">
        <ele>3564.6</ele>
        <time>2022-10-29T06:45:53.000Z</time>
      </trkpt>
      <trkpt lat="27.81209" lon="86.723642">
        <ele>3564</ele>
        <time>2022-10-29T06:45:55.000Z</time>
      </trkpt>
      <trkpt lat="27.812067" lon="86.723635">
        <ele>3563.8</ele>
        <time>2022-10-29T06:45:57.000Z</time>
      </trkpt>
      <trkpt lat="27.812045" lon="86.723616">
        <ele>3563.4</ele>
        <time>2022-10-29T06:45:59.000Z</time>
      </trkpt>
      <trkpt lat="27.812022" lon="86.723603">
        <ele>3563.4</ele>
        <time>2022-10-29T06:46:01.000Z</time>
      </trkpt>
      <trkpt lat="27.812" lon="86.723584">
        <ele>3563.8</ele>
        <time>2022-10-29T06:46:03.000Z</time>
      </trkpt>
      <trkpt lat="27.811981" lon="86.723578">
        <ele>3563.8</ele>
        <time>2022-10-29T06:46:05.000Z</time>
      </trkpt>
      <trkpt lat="27.811958" lon="86.723571">
        <ele>3563.8</ele>
        <time>2022-10-29T06:46:07.000Z</time>
      </trkpt>
      <trkpt lat="27.811939" lon="86.723578">
        <ele>3564.2</ele>
        <time>2022-10-29T06:46:09.000Z</time>
      </trkpt>
      <trkpt lat="27.811917" lon="86.723584">
        <ele>3564.6</ele>
        <time>2022-10-29T06:46:11.000Z</time>
      </trkpt>
      <trkpt lat="27.811898" lon="86.723597">
        <ele>3565</ele>
        <time>2022-10-29T06:46:13.000Z</time>
      </trkpt>
      <trkpt lat="27.811875" lon="86.723597">
        <ele>3565.2</ele>
        <time>2022-10-29T06:46:15.000Z</time>
      </trkpt>
      <trkpt lat="27.81185" lon="86.723603">
        <ele>3565.4</ele>
        <time>2022-10-29T06:46:17.000Z</time>
      </trkpt>
      <trkpt lat="27.811827" lon="86.723597">
        <ele>3565.4</ele>
        <time>2022-10-29T06:46:19.000Z</time>
      </trkpt>
      <trkpt lat="27.811805" lon="86.723584">
        <ele>3565.4</ele>
        <time>2022-10-29T06:46:21.000Z</time>
      </trkpt>
      <trkpt lat="27.811786" lon="86.723571">
        <ele>3565.4</ele>
        <time>2022-10-29T06:46:24.000Z</time>
      </trkpt>
      <trkpt lat="27.811766" lon="86.723552">
        <ele>3564.4</ele>
        <time>2022-10-29T06:46:27.000Z</time>
      </trkpt>
      <trkpt lat="27.811757" lon="86.723533">
        <ele>3563.8</ele>
        <time>2022-10-29T06:46:31.000Z</time>
      </trkpt>
      <trkpt lat="27.811744" lon="86.723514">
        <ele>3563.4</ele>
        <time>2022-10-29T06:46:34.000Z</time>
      </trkpt>
      <trkpt lat="27.811738" lon="86.723488">
        <ele>3563</ele>
        <time>2022-10-29T06:46:36.000Z</time>
      </trkpt>
      <trkpt lat="27.811728" lon="86.723462">
        <ele>3562.6</ele>
        <time>2022-10-29T06:46:39.000Z</time>
      </trkpt>
      <trkpt lat="27.811715" lon="86.723443">
        <ele>3561.6</ele>
        <time>2022-10-29T06:46:41.000Z</time>
      </trkpt>
      <trkpt lat="27.811706" lon="86.723411">
        <ele>3561.4</ele>
        <time>2022-10-29T06:46:43.000Z</time>
      </trkpt>
      <trkpt lat="27.811702" lon="86.723386">
        <ele>3561</ele>
        <time>2022-10-29T06:46:45.000Z</time>
      </trkpt>
      <trkpt lat="27.811686" lon="86.72336">
        <ele>3560.8</ele>
        <time>2022-10-29T06:46:47.000Z</time>
      </trkpt>
      <trkpt lat="27.811674" lon="86.723341">
        <ele>3561</ele>
        <time>2022-10-29T06:46:49.000Z</time>
      </trkpt>
      <trkpt lat="27.811658" lon="86.723328">
        <ele>3561</ele>
        <time>2022-10-29T06:46:51.000Z</time>
      </trkpt>
      <trkpt lat="27.811638" lon="86.723302">
        <ele>3560.6</ele>
        <time>2022-10-29T06:46:53.000Z</time>
      </trkpt>
      <trkpt lat="27.811626" lon="86.723283">
        <ele>3560.8</ele>
        <time>2022-10-29T06:46:55.000Z</time>
      </trkpt>
      <trkpt lat="27.811606" lon="86.723277">
        <ele>3561.4</ele>
        <time>2022-10-29T06:46:57.000Z</time>
      </trkpt>
      <trkpt lat="27.811594" lon="86.723258">
        <ele>3561.6</ele>
        <time>2022-10-29T06:46:59.000Z</time>
      </trkpt>
      <trkpt lat="27.811574" lon="86.723245">
        <ele>3561.8</ele>
        <time>2022-10-29T06:47:01.000Z</time>
      </trkpt>
      <trkpt lat="27.811568" lon="86.723226">
        <ele>3561.8</ele>
        <time>2022-10-29T06:47:02.000Z</time>
      </trkpt>
      <trkpt lat="27.811549" lon="86.7232">
        <ele>3562</ele>
        <time>2022-10-29T06:47:05.000Z</time>
      </trkpt>
      <trkpt lat="27.811542" lon="86.723168">
        <ele>3562</ele>
        <time>2022-10-29T06:47:07.000Z</time>
      </trkpt>
      <trkpt lat="27.811526" lon="86.723142">
        <ele>3562</ele>
        <time>2022-10-29T06:47:10.000Z</time>
      </trkpt>
      <trkpt lat="27.811514" lon="86.723117">
        <ele>3561.8</ele>
        <time>2022-10-29T06:47:12.000Z</time>
      </trkpt>
      <trkpt lat="27.811504" lon="86.723098">
        <ele>3561.8</ele>
        <time>2022-10-29T06:47:13.000Z</time>
      </trkpt>
      <trkpt lat="27.811491" lon="86.723078">
        <ele>3561.2</ele>
        <time>2022-10-29T06:47:15.000Z</time>
      </trkpt>
      <trkpt lat="27.811478" lon="86.723053">
        <ele>3560.6</ele>
        <time>2022-10-29T06:47:17.000Z</time>
      </trkpt>
      <trkpt lat="27.811459" lon="86.723027">
        <ele>3561.4</ele>
        <time>2022-10-29T06:47:20.000Z</time>
      </trkpt>
      <trkpt lat="27.81144" lon="86.723014">
        <ele>3561.4</ele>
        <time>2022-10-29T06:47:22.000Z</time>
      </trkpt>
      <trkpt lat="27.811421" lon="86.722989">
        <ele>3562.4</ele>
        <time>2022-10-29T06:47:25.000Z</time>
      </trkpt>
      <trkpt lat="27.811402" lon="86.722976">
        <ele>3562.4</ele>
        <time>2022-10-29T06:47:27.000Z</time>
      </trkpt>
      <trkpt lat="27.811386" lon="86.722957">
        <ele>3562.4</ele>
        <time>2022-10-29T06:47:29.000Z</time>
      </trkpt>
      <trkpt lat="27.811366" lon="86.722938">
        <ele>3563.6</ele>
        <time>2022-10-29T06:47:31.000Z</time>
      </trkpt>
      <trkpt lat="27.811347" lon="86.722918">
        <ele>3562.8</ele>
        <time>2022-10-29T06:47:33.000Z</time>
      </trkpt>
      <trkpt lat="27.811328" lon="86.722899">
        <ele>3562.4</ele>
        <time>2022-10-29T06:47:35.000Z</time>
      </trkpt>
      <trkpt lat="27.811309" lon="86.72288">
        <ele>3562.4</ele>
        <time>2022-10-29T06:47:37.000Z</time>
      </trkpt>
      <trkpt lat="27.811296" lon="86.722861">
        <ele>3562.2</ele>
        <time>2022-10-29T06:47:39.000Z</time>
      </trkpt>
      <trkpt lat="27.81128" lon="86.722848">
        <ele>3562.4</ele>
        <time>2022-10-29T06:47:41.000Z</time>
      </trkpt>
      <trkpt lat="27.811274" lon="86.722829">
        <ele>3562.4</ele>
        <time>2022-10-29T06:47:42.000Z</time>
      </trkpt>
      <trkpt lat="27.811258" lon="86.72281">
        <ele>3562.4</ele>
        <time>2022-10-29T06:47:44.000Z</time>
      </trkpt>
      <trkpt lat="27.811245" lon="86.72279">
        <ele>3562.4</ele>
        <time>2022-10-29T06:47:46.000Z</time>
      </trkpt>
      <trkpt lat="27.811232" lon="86.722765">
        <ele>3562.6</ele>
        <time>2022-10-29T06:47:48.000Z</time>
      </trkpt>
      <trkpt lat="27.811219" lon="86.722746">
        <ele>3562.6</ele>
        <time>2022-10-29T06:47:50.000Z</time>
      </trkpt>
      <trkpt lat="27.81121" lon="86.722726">
        <ele>3563.2</ele>
        <time>2022-10-29T06:47:52.000Z</time>
      </trkpt>
      <trkpt lat="27.8112" lon="86.722701">
        <ele>3563.2</ele>
        <time>2022-10-29T06:47:54.000Z</time>
      </trkpt>
      <trkpt lat="27.811184" lon="86.722669">
        <ele>3563</ele>
        <time>2022-10-29T06:47:57.000Z</time>
      </trkpt>
      <trkpt lat="27.811168" lon="86.72265">
        <ele>3563</ele>
        <time>2022-10-29T06:48:00.000Z</time>
      </trkpt>
      <trkpt lat="27.811155" lon="86.722624">
        <ele>3563.4</ele>
        <time>2022-10-29T06:48:02.000Z</time>
      </trkpt>
      <trkpt lat="27.811139" lon="86.722605">
        <ele>3564</ele>
        <time>2022-10-29T06:48:05.000Z</time>
      </trkpt>
      <trkpt lat="27.811126" lon="86.722579">
        <ele>3564</ele>
        <time>2022-10-29T06:48:07.000Z</time>
      </trkpt>
      <trkpt lat="27.81111" lon="86.722566">
        <ele>3564.2</ele>
        <time>2022-10-29T06:48:09.000Z</time>
      </trkpt>
      <trkpt lat="27.811088" lon="86.72256">
        <ele>3564.4</ele>
        <time>2022-10-29T06:48:12.000Z</time>
      </trkpt>
      <trkpt lat="27.811072" lon="86.722541">
        <ele>3564.4</ele>
        <time>2022-10-29T06:48:14.000Z</time>
      </trkpt>
      <trkpt lat="27.81105" lon="86.722522">
        <ele>3565.4</ele>
        <time>2022-10-29T06:48:17.000Z</time>
      </trkpt>
      <trkpt lat="27.81103" lon="86.722509">
        <ele>3565.6</ele>
        <time>2022-10-29T06:48:19.000Z</time>
      </trkpt>
      <trkpt lat="27.811014" lon="86.722496">
        <ele>3565.6</ele>
        <time>2022-10-29T06:48:21.000Z</time>
      </trkpt>
      <trkpt lat="27.810995" lon="86.722483">
        <ele>3565.8</ele>
        <time>2022-10-29T06:48:23.000Z</time>
      </trkpt>
      <trkpt lat="27.810979" lon="86.722464">
        <ele>3566.4</ele>
        <time>2022-10-29T06:48:26.000Z</time>
      </trkpt>
      <trkpt lat="27.81096" lon="86.722445">
        <ele>3566.6</ele>
        <time>2022-10-29T06:48:29.000Z</time>
      </trkpt>
      <trkpt lat="27.810941" lon="86.722432">
        <ele>3566.8</ele>
        <time>2022-10-29T06:48:32.000Z</time>
      </trkpt>
      <trkpt lat="27.810922" lon="86.722426">
        <ele>3567.4</ele>
        <time>2022-10-29T06:48:35.000Z</time>
      </trkpt>
      <trkpt lat="27.810906" lon="86.722406">
        <ele>3567.6</ele>
        <time>2022-10-29T06:48:39.000Z</time>
      </trkpt>
      <trkpt lat="27.810886" lon="86.7224">
        <ele>3567.6</ele>
        <time>2022-10-29T06:48:42.000Z</time>
      </trkpt>
      <trkpt lat="27.810864" lon="86.7224">
        <ele>3568.2</ele>
        <time>2022-10-29T06:48:45.000Z</time>
      </trkpt>
      <trkpt lat="27.810842" lon="86.7224">
        <ele>3568.8</ele>
        <time>2022-10-29T06:48:49.000Z</time>
      </trkpt>
      <trkpt lat="27.810826" lon="86.722387">
        <ele>3569.2</ele>
        <time>2022-10-29T06:48:52.000Z</time>
      </trkpt>
      <trkpt lat="27.810803" lon="86.722387">
        <ele>3569.6</ele>
        <time>2022-10-29T06:48:55.000Z</time>
      </trkpt>
      <trkpt lat="27.810778" lon="86.722381">
        <ele>3570.6</ele>
        <time>2022-10-29T06:48:59.000Z</time>
      </trkpt>
      <trkpt lat="27.810758" lon="86.722374">
        <ele>3570.6</ele>
        <time>2022-10-29T06:49:02.000Z</time>
      </trkpt>
      <trkpt lat="27.810739" lon="86.722362">
        <ele>3570.6</ele>
        <time>2022-10-29T06:49:06.000Z</time>
      </trkpt>
      <trkpt lat="27.810723" lon="86.722349">
        <ele>3571</ele>
        <time>2022-10-29T06:49:08.000Z</time>
      </trkpt>
      <trkpt lat="27.810704" lon="86.722342">
        <ele>3571.6</ele>
        <time>2022-10-29T06:49:11.000Z</time>
      </trkpt>
      <trkpt lat="27.810682" lon="86.722336">
        <ele>3572</ele>
        <time>2022-10-29T06:49:14.000Z</time>
      </trkpt>
      <trkpt lat="27.810662" lon="86.72233">
        <ele>3572.4</ele>
        <time>2022-10-29T06:49:17.000Z</time>
      </trkpt>
      <trkpt lat="27.810643" lon="86.72233">
        <ele>3572.6</ele>
        <time>2022-10-29T06:49:20.000Z</time>
      </trkpt>
      <trkpt lat="27.810618" lon="86.72233">
        <ele>3573.4</ele>
        <time>2022-10-29T06:49:23.000Z</time>
      </trkpt>
      <trkpt lat="27.810592" lon="86.72233">
        <ele>3574</ele>
        <time>2022-10-29T06:49:26.000Z</time>
      </trkpt>
      <trkpt lat="27.810573" lon="86.72233">
        <ele>3574.4</ele>
        <time>2022-10-29T06:49:29.000Z</time>
      </trkpt>
      <trkpt lat="27.810554" lon="86.72233">
        <ele>3574.6</ele>
        <time>2022-10-29T06:49:32.000Z</time>
      </trkpt>
      <trkpt lat="27.810531" lon="86.72233">
        <ele>3575</ele>
        <time>2022-10-29T06:49:35.000Z</time>
      </trkpt>
      <trkpt lat="27.810512" lon="86.722323">
        <ele>3575</ele>
        <time>2022-10-29T06:49:37.000Z</time>
      </trkpt>
      <trkpt lat="27.810493" lon="86.722323">
        <ele>3575.2</ele>
        <time>2022-10-29T06:49:39.000Z</time>
      </trkpt>
      <trkpt lat="27.810474" lon="86.722323">
        <ele>3575.6</ele>
        <time>2022-10-29T06:49:42.000Z</time>
      </trkpt>
      <trkpt lat="27.810454" lon="86.722323">
        <ele>3575.8</ele>
        <time>2022-10-29T06:49:44.000Z</time>
      </trkpt>
      <trkpt lat="27.810432" lon="86.72231">
        <ele>3576</ele>
        <time>2022-10-29T06:49:47.000Z</time>
      </trkpt>
      <trkpt lat="27.810413" lon="86.722323">
        <ele>3576</ele>
        <time>2022-10-29T06:49:49.000Z</time>
      </trkpt>
      <trkpt lat="27.810394" lon="86.722323">
        <ele>3576</ele>
        <time>2022-10-29T06:49:51.000Z</time>
      </trkpt>
      <trkpt lat="27.810365" lon="86.722323">
        <ele>3576.4</ele>
        <time>2022-10-29T06:49:54.000Z</time>
      </trkpt>
      <trkpt lat="27.810346" lon="86.722323">
        <ele>3577</ele>
        <time>2022-10-29T06:49:56.000Z</time>
      </trkpt>
      <trkpt lat="27.810326" lon="86.72231">
        <ele>3577.2</ele>
        <time>2022-10-29T06:49:58.000Z</time>
      </trkpt>
      <trkpt lat="27.810304" lon="86.72231">
        <ele>3577.4</ele>
        <time>2022-10-29T06:50:01.000Z</time>
      </trkpt>
      <trkpt lat="27.810275" lon="86.72231">
        <ele>3577.4</ele>
        <time>2022-10-29T06:50:04.000Z</time>
      </trkpt>
      <trkpt lat="27.810246" lon="86.722304">
        <ele>3577.4</ele>
        <time>2022-10-29T06:50:07.000Z</time>
      </trkpt>
      <trkpt lat="27.810227" lon="86.722304">
        <ele>3577.8</ele>
        <time>2022-10-29T06:50:09.000Z</time>
      </trkpt>
      <trkpt lat="27.810208" lon="86.722304">
        <ele>3577.8</ele>
        <time>2022-10-29T06:50:11.000Z</time>
      </trkpt>
      <trkpt lat="27.810189" lon="86.722291">
        <ele>3578.2</ele>
        <time>2022-10-29T06:50:13.000Z</time>
      </trkpt>
      <trkpt lat="27.810166" lon="86.722285">
        <ele>3578.2</ele>
        <time>2022-10-29T06:50:15.000Z</time>
      </trkpt>
      <trkpt lat="27.810144" lon="86.722272">
        <ele>3578.4</ele>
        <time>2022-10-29T06:50:17.000Z</time>
      </trkpt>
      <trkpt lat="27.810125" lon="86.722266">
        <ele>3578.6</ele>
        <time>2022-10-29T06:50:19.000Z</time>
      </trkpt>
      <trkpt lat="27.810099" lon="86.722266">
        <ele>3578.8</ele>
        <time>2022-10-29T06:50:21.000Z</time>
      </trkpt>
      <trkpt lat="27.810077" lon="86.722266">
        <ele>3579</ele>
        <time>2022-10-29T06:50:23.000Z</time>
      </trkpt>
      <trkpt lat="27.810054" lon="86.722253">
        <ele>3579</ele>
        <time>2022-10-29T06:50:25.000Z</time>
      </trkpt>
      <trkpt lat="27.810035" lon="86.722253">
        <ele>3579</ele>
        <time>2022-10-29T06:50:27.000Z</time>
      </trkpt>
      <trkpt lat="27.810013" lon="86.722234">
        <ele>3579</ele>
        <time>2022-10-29T06:50:29.000Z</time>
      </trkpt>
      <trkpt lat="27.809987" lon="86.722234">
        <ele>3579.4</ele>
        <time>2022-10-29T06:50:31.000Z</time>
      </trkpt>
      <trkpt lat="27.809968" lon="86.722246">
        <ele>3579.4</ele>
        <time>2022-10-29T06:50:33.000Z</time>
      </trkpt>
      <trkpt lat="27.809946" lon="86.722253">
        <ele>3579.4</ele>
        <time>2022-10-29T06:50:36.000Z</time>
      </trkpt>
      <trkpt lat="27.80993" lon="86.722266">
        <ele>3579.6</ele>
        <time>2022-10-29T06:50:38.000Z</time>
      </trkpt>
      <trkpt lat="27.809917" lon="86.722285">
        <ele>3579.8</ele>
        <time>2022-10-29T06:50:40.000Z</time>
      </trkpt>
      <trkpt lat="27.809898" lon="86.722304">
        <ele>3580.2</ele>
        <time>2022-10-29T06:50:43.000Z</time>
      </trkpt>
      <trkpt lat="27.809888" lon="86.72233">
        <ele>3580.6</ele>
        <time>2022-10-29T06:50:45.000Z</time>
      </trkpt>
      <trkpt lat="27.809872" lon="86.722342">
        <ele>3580.6</ele>
        <time>2022-10-29T06:50:47.000Z</time>
      </trkpt>
      <trkpt lat="27.80985" lon="86.722336">
        <ele>3581</ele>
        <time>2022-10-29T06:50:50.000Z</time>
      </trkpt>
      <trkpt lat="27.809827" lon="86.722342">
        <ele>3581.2</ele>
        <time>2022-10-29T06:50:53.000Z</time>
      </trkpt>
      <trkpt lat="27.809811" lon="86.722362">
        <ele>3582</ele>
        <time>2022-10-29T06:50:56.000Z</time>
      </trkpt>
      <trkpt lat="27.809792" lon="86.722374">
        <ele>3582.4</ele>
        <time>2022-10-29T06:50:59.000Z</time>
      </trkpt>
      <trkpt lat="27.809773" lon="86.722387">
        <ele>3583.2</ele>
        <time>2022-10-29T06:51:02.000Z</time>
      </trkpt>
      <trkpt lat="27.80975" lon="86.7224">
        <ele>3584.4</ele>
        <time>2022-10-29T06:51:05.000Z</time>
      </trkpt>
      <trkpt lat="27.809731" lon="86.722406">
        <ele>3584.6</ele>
        <time>2022-10-29T06:51:07.000Z</time>
      </trkpt>
      <trkpt lat="27.809709" lon="86.722419">
        <ele>3584.8</ele>
        <time>2022-10-29T06:51:10.000Z</time>
      </trkpt>
      <trkpt lat="27.80969" lon="86.722432">
        <ele>3584.8</ele>
        <time>2022-10-29T06:51:13.000Z</time>
      </trkpt>
      <trkpt lat="27.80967" lon="86.722432">
        <ele>3585</ele>
        <time>2022-10-29T06:51:15.000Z</time>
      </trkpt>
      <trkpt lat="27.809642" lon="86.722432">
        <ele>3585.2</ele>
        <time>2022-10-29T06:51:18.000Z</time>
      </trkpt>
      <trkpt lat="27.809619" lon="86.722445">
        <ele>3585.8</ele>
        <time>2022-10-29T06:51:21.000Z</time>
      </trkpt>
      <trkpt lat="27.8096" lon="86.722451">
        <ele>3586.2</ele>
        <time>2022-10-29T06:51:24.000Z</time>
      </trkpt>
      <trkpt lat="27.809581" lon="86.722464">
        <ele>3586.4</ele>
        <time>2022-10-29T06:51:27.000Z</time>
      </trkpt>
      <trkpt lat="27.809562" lon="86.72247">
        <ele>3588</ele>
        <time>2022-10-29T06:51:30.000Z</time>
      </trkpt>
      <trkpt lat="27.809546" lon="86.72249">
        <ele>3588.6</ele>
        <time>2022-10-29T06:51:33.000Z</time>
      </trkpt>
      <trkpt lat="27.809523" lon="86.722502">
        <ele>3589.4</ele>
        <time>2022-10-29T06:51:36.000Z</time>
      </trkpt>
      <trkpt lat="27.809504" lon="86.722522">
        <ele>3589.6</ele>
        <time>2022-10-29T06:51:40.000Z</time>
      </trkpt>
      <trkpt lat="27.809485" lon="86.722528">
        <ele>3590</ele>
        <time>2022-10-29T06:51:43.000Z</time>
      </trkpt>
      <trkpt lat="27.809462" lon="86.722541">
        <ele>3590</ele>
        <time>2022-10-29T06:51:46.000Z</time>
      </trkpt>
      <trkpt lat="27.80945" lon="86.72256">
        <ele>3590.2</ele>
        <time>2022-10-29T06:51:48.000Z</time>
      </trkpt>
      <trkpt lat="27.80943" lon="86.722573">
        <ele>3590.8</ele>
        <time>2022-10-29T06:51:51.000Z</time>
      </trkpt>
      <trkpt lat="27.809414" lon="86.722586">
        <ele>3591.2</ele>
        <time>2022-10-29T06:51:54.000Z</time>
      </trkpt>
      <trkpt lat="27.809402" lon="86.722605">
        <ele>3591.2</ele>
        <time>2022-10-29T06:51:57.000Z</time>
      </trkpt>
      <trkpt lat="27.809386" lon="86.722618">
        <ele>3591.6</ele>
        <time>2022-10-29T06:52:00.000Z</time>
      </trkpt>
      <trkpt lat="27.809373" lon="86.722598">
        <ele>3591.6</ele>
        <time>2022-10-29T06:52:05.000Z</time>
      </trkpt>
      <trkpt lat="27.809363" lon="86.722579">
        <ele>3591.6</ele>
        <time>2022-10-29T06:52:11.000Z</time>
      </trkpt>
      <trkpt lat="27.809344" lon="86.722566">
        <ele>3591.6</ele>
        <time>2022-10-29T06:52:14.000Z</time>
      </trkpt>
      <trkpt lat="27.809331" lon="86.722547">
        <ele>3591.8</ele>
        <time>2022-10-29T06:52:16.000Z</time>
      </trkpt>
      <trkpt lat="27.809322" lon="86.722528">
        <ele>3591.6</ele>
        <time>2022-10-29T06:52:18.000Z</time>
      </trkpt>
      <trkpt lat="27.809315" lon="86.722509">
        <ele>3591.6</ele>
        <time>2022-10-29T06:52:20.000Z</time>
      </trkpt>
      <trkpt lat="27.809309" lon="86.72247">
        <ele>3591.2</ele>
        <time>2022-10-29T06:52:23.000Z</time>
      </trkpt>
      <trkpt lat="27.809318" lon="86.722432">
        <ele>3590.6</ele>
        <time>2022-10-29T06:52:26.000Z</time>
      </trkpt>
      <trkpt lat="27.809331" lon="86.722413">
        <ele>3590.6</ele>
        <time>2022-10-29T06:52:28.000Z</time>
      </trkpt>
      <trkpt lat="27.809344" lon="86.722387">
        <ele>3590</ele>
        <time>2022-10-29T06:52:30.000Z</time>
      </trkpt>
      <trkpt lat="27.809354" lon="86.722368">
        <ele>3589.8</ele>
        <time>2022-10-29T06:52:32.000Z</time>
      </trkpt>
      <trkpt lat="27.80936" lon="86.722349">
        <ele>3589.4</ele>
        <time>2022-10-29T06:52:33.000Z</time>
      </trkpt>
      <trkpt lat="27.809366" lon="86.722323">
        <ele>3589.4</ele>
        <time>2022-10-29T06:52:35.000Z</time>
      </trkpt>
      <trkpt lat="27.809366" lon="86.722285">
        <ele>3589.8</ele>
        <time>2022-10-29T06:52:37.000Z</time>
      </trkpt>
      <trkpt lat="27.809363" lon="86.722253">
        <ele>3589.2</ele>
        <time>2022-10-29T06:52:39.000Z</time>
      </trkpt>
      <trkpt lat="27.809363" lon="86.722227">
        <ele>3589</ele>
        <time>2022-10-29T06:52:41.000Z</time>
      </trkpt>
      <trkpt lat="27.809363" lon="86.722189">
        <ele>3588.2</ele>
        <time>2022-10-29T06:52:44.000Z</time>
      </trkpt>
      <trkpt lat="27.809354" lon="86.72217">
        <ele>3588</ele>
        <time>2022-10-29T06:52:46.000Z</time>
      </trkpt>
      <trkpt lat="27.809347" lon="86.722138">
        <ele>3587.8</ele>
        <time>2022-10-29T06:52:48.000Z</time>
      </trkpt>
      <trkpt lat="27.809344" lon="86.722112">
        <ele>3587.4</ele>
        <time>2022-10-29T06:52:50.000Z</time>
      </trkpt>
      <trkpt lat="27.809338" lon="86.722074">
        <ele>3587.4</ele>
        <time>2022-10-29T06:52:53.000Z</time>
      </trkpt>
      <trkpt lat="27.809341" lon="86.722048">
        <ele>3587.2</ele>
        <time>2022-10-29T06:53:20.000Z</time>
      </trkpt>
      <trkpt lat="27.80935" lon="86.722029">
        <ele>3587</ele>
        <time>2022-10-29T06:53:21.000Z</time>
      </trkpt>
      <trkpt lat="27.80935" lon="86.72199">
        <ele>3587</ele>
        <time>2022-10-29T06:53:23.000Z</time>
      </trkpt>
      <trkpt lat="27.80935" lon="86.721965">
        <ele>3586</ele>
        <time>2022-10-29T06:53:25.000Z</time>
      </trkpt>
      <trkpt lat="27.80935" lon="86.721939">
        <ele>3585.8</ele>
        <time>2022-10-29T06:53:26.000Z</time>
      </trkpt>
      <trkpt lat="27.80936" lon="86.721907">
        <ele>3585</ele>
        <time>2022-10-29T06:53:28.000Z</time>
      </trkpt>
      <trkpt lat="27.809357" lon="86.721869">
        <ele>3585</ele>
        <time>2022-10-29T06:53:30.000Z</time>
      </trkpt>
      <trkpt lat="27.80936" lon="86.721837">
        <ele>3584.8</ele>
        <time>2022-10-29T06:53:32.000Z</time>
      </trkpt>
      <trkpt lat="27.809366" lon="86.721805">
        <ele>3584.6</ele>
        <time>2022-10-29T06:53:35.000Z</time>
      </trkpt>
      <trkpt lat="27.80937" lon="86.721779">
        <ele>3584.6</ele>
        <time>2022-10-29T06:53:37.000Z</time>
      </trkpt>
      <trkpt lat="27.809363" lon="86.721747">
        <ele>3584</ele>
        <time>2022-10-29T06:53:39.000Z</time>
      </trkpt>
      <trkpt lat="27.809363" lon="86.721715">
        <ele>3583.4</ele>
        <time>2022-10-29T06:53:41.000Z</time>
      </trkpt>
      <trkpt lat="27.80936" lon="86.72169">
        <ele>3583.4</ele>
        <time>2022-10-29T06:53:43.000Z</time>
      </trkpt>
      <trkpt lat="27.809363" lon="86.721664">
        <ele>3583.4</ele>
        <time>2022-10-29T06:53:45.000Z</time>
      </trkpt>
      <trkpt lat="27.80936" lon="86.721632">
        <ele>3583.2</ele>
        <time>2022-10-29T06:53:47.000Z</time>
      </trkpt>
      <trkpt lat="27.809354" lon="86.721613">
        <ele>3582.8</ele>
        <time>2022-10-29T06:53:49.000Z</time>
      </trkpt>
      <trkpt lat="27.80935" lon="86.721581">
        <ele>3582.2</ele>
        <time>2022-10-29T06:53:51.000Z</time>
      </trkpt>
      <trkpt lat="27.809338" lon="86.721549">
        <ele>3582</ele>
        <time>2022-10-29T06:53:54.000Z</time>
      </trkpt>
      <trkpt lat="27.809328" lon="86.72153">
        <ele>3582</ele>
        <time>2022-10-29T06:53:56.000Z</time>
      </trkpt>
      <trkpt lat="27.809312" lon="86.721504">
        <ele>3581.8</ele>
        <time>2022-10-29T06:53:58.000Z</time>
      </trkpt>
      <trkpt lat="27.809296" lon="86.721491">
        <ele>3581.2</ele>
        <time>2022-10-29T06:54:00.000Z</time>
      </trkpt>
      <trkpt lat="27.809283" lon="86.721466">
        <ele>3581.2</ele>
        <time>2022-10-29T06:54:02.000Z</time>
      </trkpt>
      <trkpt lat="27.809258" lon="86.72144">
        <ele>3580.6</ele>
        <time>2022-10-29T06:54:05.000Z</time>
      </trkpt>
      <trkpt lat="27.809245" lon="86.721421">
        <ele>3580.6</ele>
        <time>2022-10-29T06:54:07.000Z</time>
      </trkpt>
      <trkpt lat="27.809229" lon="86.721395">
        <ele>3580.6</ele>
        <time>2022-10-29T06:54:09.000Z</time>
      </trkpt>
      <trkpt lat="27.809213" lon="86.721376">
        <ele>3580.8</ele>
        <time>2022-10-29T06:54:11.000Z</time>
      </trkpt>
      <trkpt lat="27.809194" lon="86.721357">
        <ele>3580.6</ele>
        <time>2022-10-29T06:54:13.000Z</time>
      </trkpt>
      <trkpt lat="27.809178" lon="86.721344">
        <ele>3580.2</ele>
        <time>2022-10-29T06:54:15.000Z</time>
      </trkpt>
      <trkpt lat="27.809162" lon="86.721331">
        <ele>3580</ele>
        <time>2022-10-29T06:54:17.000Z</time>
      </trkpt>
      <trkpt lat="27.809139" lon="86.721312">
        <ele>3580</ele>
        <time>2022-10-29T06:54:19.000Z</time>
      </trkpt>
      <trkpt lat="27.809126" lon="86.721293">
        <ele>3579.6</ele>
        <time>2022-10-29T06:54:21.000Z</time>
      </trkpt>
      <trkpt lat="27.809104" lon="86.721274">
        <ele>3579.6</ele>
        <time>2022-10-29T06:54:23.000Z</time>
      </trkpt>
      <trkpt lat="27.809085" lon="86.721261">
        <ele>3579.6</ele>
        <time>2022-10-29T06:54:25.000Z</time>
      </trkpt>
      <trkpt lat="27.809059" lon="86.721254">
        <ele>3579.6</ele>
        <time>2022-10-29T06:54:27.000Z</time>
      </trkpt>
      <trkpt lat="27.809034" lon="86.721235">
        <ele>3578.6</ele>
        <time>2022-10-29T06:54:29.000Z</time>
      </trkpt>
      <trkpt lat="27.809008" lon="86.721229">
        <ele>3578.6</ele>
        <time>2022-10-29T06:54:31.000Z</time>
      </trkpt>
      <trkpt lat="27.808979" lon="86.721222">
        <ele>3578.2</ele>
        <time>2022-10-29T06:54:33.000Z</time>
      </trkpt>
      <trkpt lat="27.808954" lon="86.721222">
        <ele>3578.2</ele>
        <time>2022-10-29T06:54:35.000Z</time>
      </trkpt>
      <trkpt lat="27.808928" lon="86.721216">
        <ele>3577.6</ele>
        <time>2022-10-29T06:54:37.000Z</time>
      </trkpt>
      <trkpt lat="27.808906" lon="86.72121">
        <ele>3577.6</ele>
        <time>2022-10-29T06:54:39.000Z</time>
      </trkpt>
      <trkpt lat="27.808883" lon="86.72119">
        <ele>3578</ele>
        <time>2022-10-29T06:54:41.000Z</time>
      </trkpt>
      <trkpt lat="27.808864" lon="86.721178">
        <ele>3578.2</ele>
        <time>2022-10-29T06:54:43.000Z</time>
      </trkpt>
      <trkpt lat="27.808842" lon="86.721171">
        <ele>3577.6</ele>
        <time>2022-10-29T06:54:45.000Z</time>
      </trkpt>
      <trkpt lat="27.808819" lon="86.721152">
        <ele>3577.4</ele>
        <time>2022-10-29T06:54:47.000Z</time>
      </trkpt>
      <trkpt lat="27.808797" lon="86.721146">
        <ele>3577.6</ele>
        <time>2022-10-29T06:54:49.000Z</time>
      </trkpt>
      <trkpt lat="27.808768" lon="86.721146">
        <ele>3577.2</ele>
        <time>2022-10-29T06:54:51.000Z</time>
      </trkpt>
      <trkpt lat="27.808746" lon="86.721139">
        <ele>3577</ele>
        <time>2022-10-29T06:54:53.000Z</time>
      </trkpt>
      <trkpt lat="27.80872" lon="86.721133">
        <ele>3576.8</ele>
        <time>2022-10-29T06:54:55.000Z</time>
      </trkpt>
      <trkpt lat="27.808698" lon="86.721133">
        <ele>3576.8</ele>
        <time>2022-10-29T06:54:57.000Z</time>
      </trkpt>
      <trkpt lat="27.808669" lon="86.72112">
        <ele>3577</ele>
        <time>2022-10-29T06:54:59.000Z</time>
      </trkpt>
      <trkpt lat="27.808646" lon="86.72112">
        <ele>3576.8</ele>
        <time>2022-10-29T06:55:01.000Z</time>
      </trkpt>
      <trkpt lat="27.808627" lon="86.721114">
        <ele>3576.8</ele>
        <time>2022-10-29T06:55:03.000Z</time>
      </trkpt>
      <trkpt lat="27.808605" lon="86.721114">
        <ele>3576.4</ele>
        <time>2022-10-29T06:55:05.000Z</time>
      </trkpt>
      <trkpt lat="27.808579" lon="86.721114">
        <ele>3577</ele>
        <time>2022-10-29T06:55:07.000Z</time>
      </trkpt>
      <trkpt lat="27.808557" lon="86.72112">
        <ele>3576.6</ele>
        <time>2022-10-29T06:55:09.000Z</time>
      </trkpt>
      <trkpt lat="27.808531" lon="86.721133">
        <ele>3576.2</ele>
        <time>2022-10-29T06:55:11.000Z</time>
      </trkpt>
      <trkpt lat="27.808506" lon="86.721139">
        <ele>3576.2</ele>
        <time>2022-10-29T06:55:13.000Z</time>
      </trkpt>
      <trkpt lat="27.80848" lon="86.721139">
        <ele>3576.4</ele>
        <time>2022-10-29T06:55:15.000Z</time>
      </trkpt>
      <trkpt lat="27.808454" lon="86.721146">
        <ele>3576.4</ele>
        <time>2022-10-29T06:55:17.000Z</time>
      </trkpt>
      <trkpt lat="27.808432" lon="86.721146">
        <ele>3576.8</ele>
        <time>2022-10-29T06:55:19.000Z</time>
      </trkpt>
      <trkpt lat="27.808406" lon="86.721146">
        <ele>3577.4</ele>
        <time>2022-10-29T06:55:21.000Z</time>
      </trkpt>
      <trkpt lat="27.808381" lon="86.721139">
        <ele>3577.2</ele>
        <time>2022-10-29T06:55:23.000Z</time>
      </trkpt>
      <trkpt lat="27.808358" lon="86.72112">
        <ele>3576.8</ele>
        <time>2022-10-29T06:55:25.000Z</time>
      </trkpt>
      <trkpt lat="27.808333" lon="86.721107">
        <ele>3576.8</ele>
        <time>2022-10-29T06:55:27.000Z</time>
      </trkpt>
      <trkpt lat="27.808307" lon="86.721094">
        <ele>3576.4</ele>
        <time>2022-10-29T06:55:29.000Z</time>
      </trkpt>
      <trkpt lat="27.808288" lon="86.721075">
        <ele>3576.2</ele>
        <time>2022-10-29T06:55:31.000Z</time>
      </trkpt>
      <trkpt lat="27.808266" lon="86.721075">
        <ele>3576</ele>
        <time>2022-10-29T06:55:33.000Z</time>
      </trkpt>
      <trkpt lat="27.80824" lon="86.721075">
        <ele>3576.8</ele>
        <time>2022-10-29T06:55:35.000Z</time>
      </trkpt>
      <trkpt lat="27.808218" lon="86.721075">
        <ele>3576.6</ele>
        <time>2022-10-29T06:55:37.000Z</time>
      </trkpt>
      <trkpt lat="27.808192" lon="86.721082">
        <ele>3576.6</ele>
        <time>2022-10-29T06:55:39.000Z</time>
      </trkpt>
      <trkpt lat="27.80817" lon="86.721082">
        <ele>3576.6</ele>
        <time>2022-10-29T06:55:41.000Z</time>
      </trkpt>
      <trkpt lat="27.808147" lon="86.721082">
        <ele>3576.6</ele>
        <time>2022-10-29T06:55:43.000Z</time>
      </trkpt>
      <trkpt lat="27.808122" lon="86.721094">
        <ele>3577</ele>
        <time>2022-10-29T06:55:45.000Z</time>
      </trkpt>
      <trkpt lat="27.808099" lon="86.721094">
        <ele>3577.4</ele>
        <time>2022-10-29T06:55:47.000Z</time>
      </trkpt>
      <trkpt lat="27.808074" lon="86.721101">
        <ele>3578</ele>
        <time>2022-10-29T06:55:49.000Z</time>
      </trkpt>
      <trkpt lat="27.808048" lon="86.721101">
        <ele>3578</ele>
        <time>2022-10-29T06:55:51.000Z</time>
      </trkpt>
      <trkpt lat="27.808022" lon="86.721094">
        <ele>3577.8</ele>
        <time>2022-10-29T06:55:53.000Z</time>
      </trkpt>
      <trkpt lat="27.808" lon="86.721082">
        <ele>3578</ele>
        <time>2022-10-29T06:55:55.000Z</time>
      </trkpt>
      <trkpt lat="27.807974" lon="86.721075">
        <ele>3578</ele>
        <time>2022-10-29T06:55:57.000Z</time>
      </trkpt>
      <trkpt lat="27.807949" lon="86.721062">
        <ele>3577.6</ele>
        <time>2022-10-29T06:55:59.000Z</time>
      </trkpt>
      <trkpt lat="27.80793" lon="86.721037">
        <ele>3578</ele>
        <time>2022-10-29T06:56:01.000Z</time>
      </trkpt>
      <trkpt lat="27.80791" lon="86.721024">
        <ele>3578.2</ele>
        <time>2022-10-29T06:56:03.000Z</time>
      </trkpt>
      <trkpt lat="27.807891" lon="86.720998">
        <ele>3577.8</ele>
        <time>2022-10-29T06:56:05.000Z</time>
      </trkpt>
      <trkpt lat="27.807885" lon="86.720973">
        <ele>3577.2</ele>
        <time>2022-10-29T06:56:07.000Z</time>
      </trkpt>
      <trkpt lat="27.807878" lon="86.720941">
        <ele>3577.2</ele>
        <time>2022-10-29T06:56:09.000Z</time>
      </trkpt>
      <trkpt lat="27.807875" lon="86.720909">
        <ele>3577.4</ele>
        <time>2022-10-29T06:56:11.000Z</time>
      </trkpt>
      <trkpt lat="27.807878" lon="86.720877">
        <ele>3577.4</ele>
        <time>2022-10-29T06:56:13.000Z</time>
      </trkpt>
      <trkpt lat="27.807882" lon="86.720838">
        <ele>3577.2</ele>
        <time>2022-10-29T06:56:16.000Z</time>
      </trkpt>
      <trkpt lat="27.807875" lon="86.720813">
        <ele>3576.8</ele>
        <time>2022-10-29T06:56:18.000Z</time>
      </trkpt>
      <trkpt lat="27.807872" lon="86.720781">
        <ele>3576</ele>
        <time>2022-10-29T06:56:20.000Z</time>
      </trkpt>
      <trkpt lat="27.807866" lon="86.720762">
        <ele>3575.6</ele>
        <time>2022-10-29T06:56:21.000Z</time>
      </trkpt>
      <trkpt lat="27.807859" lon="86.720742">
        <ele>3575.8</ele>
        <time>2022-10-29T06:56:23.000Z</time>
      </trkpt>
      <trkpt lat="27.807853" lon="86.72071">
        <ele>3576</ele>
        <time>2022-10-29T06:56:25.000Z</time>
      </trkpt>
      <trkpt lat="27.807843" lon="86.720678">
        <ele>3576.8</ele>
        <time>2022-10-29T06:56:27.000Z</time>
      </trkpt>
      <trkpt lat="27.807837" lon="86.720653">
        <ele>3576.6</ele>
        <time>2022-10-29T06:56:29.000Z</time>
      </trkpt>
      <trkpt lat="27.807834" lon="86.720621">
        <ele>3576.6</ele>
        <time>2022-10-29T06:56:31.000Z</time>
      </trkpt>
      <trkpt lat="27.807834" lon="86.720589">
        <ele>3577.2</ele>
        <time>2022-10-29T06:56:33.000Z</time>
      </trkpt>
      <trkpt lat="27.807834" lon="86.720557">
        <ele>3577.2</ele>
        <time>2022-10-29T06:56:35.000Z</time>
      </trkpt>
      <trkpt lat="27.807834" lon="86.720518">
        <ele>3578</ele>
        <time>2022-10-29T06:56:38.000Z</time>
      </trkpt>
      <trkpt lat="27.807837" lon="86.720486">
        <ele>3577.4</ele>
        <time>2022-10-29T06:56:40.000Z</time>
      </trkpt>
      <trkpt lat="27.80783" lon="86.720461">
        <ele>3577</ele>
        <time>2022-10-29T06:56:43.000Z</time>
      </trkpt>
      <trkpt lat="27.807821" lon="86.720435">
        <ele>3576.8</ele>
        <time>2022-10-29T06:56:45.000Z</time>
      </trkpt>
      <trkpt lat="27.807805" lon="86.720416">
        <ele>3576.2</ele>
        <time>2022-10-29T06:56:47.000Z</time>
      </trkpt>
      <trkpt lat="27.807786" lon="86.720397">
        <ele>3575.2</ele>
        <time>2022-10-29T06:56:49.000Z</time>
      </trkpt>
      <trkpt lat="27.807766" lon="86.720384">
        <ele>3575.2</ele>
        <time>2022-10-29T06:56:51.000Z</time>
      </trkpt>
      <trkpt lat="27.807754" lon="86.720358">
        <ele>3575.2</ele>
        <time>2022-10-29T06:56:53.000Z</time>
      </trkpt>
      <trkpt lat="27.80775" lon="86.72032">
        <ele>3574.8</ele>
        <time>2022-10-29T06:56:56.000Z</time>
      </trkpt>
      <trkpt lat="27.807757" lon="86.720301">
        <ele>3574.4</ele>
        <time>2022-10-29T06:56:58.000Z</time>
      </trkpt>
      <trkpt lat="27.80777" lon="86.720282">
        <ele>3574.4</ele>
        <time>2022-10-29T06:57:00.000Z</time>
      </trkpt>
      <trkpt lat="27.807792" lon="86.720262">
        <ele>3573.6</ele>
        <time>2022-10-29T06:57:03.000Z</time>
      </trkpt>
      <trkpt lat="27.807795" lon="86.720237">
        <ele>3572.6</ele>
        <time>2022-10-29T06:57:05.000Z</time>
      </trkpt>
      <trkpt lat="27.807814" lon="86.720218">
        <ele>3572</ele>
        <time>2022-10-29T06:57:08.000Z</time>
      </trkpt>
      <trkpt lat="27.80783" lon="86.720205">
        <ele>3571.4</ele>
        <time>2022-10-29T06:57:10.000Z</time>
      </trkpt>
      <trkpt lat="27.807843" lon="86.720186">
        <ele>3570.8</ele>
        <time>2022-10-29T06:57:15.000Z</time>
      </trkpt>
      <trkpt lat="27.807837" lon="86.72016">
        <ele>3569.4</ele>
        <time>2022-10-29T06:57:20.000Z</time>
      </trkpt>
      <trkpt lat="27.807837" lon="86.720128">
        <ele>3568</ele>
        <time>2022-10-29T06:57:26.000Z</time>
      </trkpt>
      <trkpt lat="27.807846" lon="86.720109">
        <ele>3567.4</ele>
        <time>2022-10-29T06:57:29.000Z</time>
      </trkpt>
      <trkpt lat="27.807856" lon="86.72009">
        <ele>3566.4</ele>
        <time>2022-10-29T06:57:32.000Z</time>
      </trkpt>
      <trkpt lat="27.80785" lon="86.72007">
        <ele>3565.4</ele>
        <time>2022-10-29T06:57:35.000Z</time>
      </trkpt>
      <trkpt lat="27.807843" lon="86.720045">
        <ele>3565</ele>
        <time>2022-10-29T06:57:37.000Z</time>
      </trkpt>
      <trkpt lat="27.80783" lon="86.720026">
        <ele>3564</ele>
        <time>2022-10-29T06:57:40.000Z</time>
      </trkpt>
      <trkpt lat="27.807821" lon="86.72">
        <ele>3563.4</ele>
        <time>2022-10-29T06:57:42.000Z</time>
      </trkpt>
      <trkpt lat="27.807805" lon="86.719968">
        <ele>3562.8</ele>
        <time>2022-10-29T06:57:45.000Z</time>
      </trkpt>
      <trkpt lat="27.807802" lon="86.719942">
        <ele>3562.2</ele>
        <time>2022-10-29T06:57:47.000Z</time>
      </trkpt>
      <trkpt lat="27.807789" lon="86.719917">
        <ele>3561.6</ele>
        <time>2022-10-29T06:57:49.000Z</time>
      </trkpt>
      <trkpt lat="27.80777" lon="86.719885">
        <ele>3561</ele>
        <time>2022-10-29T06:57:52.000Z</time>
      </trkpt>
      <trkpt lat="27.807757" lon="86.719859">
        <ele>3560.2</ele>
        <time>2022-10-29T06:57:54.000Z</time>
      </trkpt>
      <trkpt lat="27.807744" lon="86.71984">
        <ele>3559.8</ele>
        <time>2022-10-29T06:57:56.000Z</time>
      </trkpt>
      <trkpt lat="27.807734" lon="86.719808">
        <ele>3559.8</ele>
        <time>2022-10-29T06:57:58.000Z</time>
      </trkpt>
      <trkpt lat="27.807712" lon="86.719789">
        <ele>3559.6</ele>
        <time>2022-10-29T06:58:01.000Z</time>
      </trkpt>
      <trkpt lat="27.807693" lon="86.71977">
        <ele>3559.4</ele>
        <time>2022-10-29T06:58:03.000Z</time>
      </trkpt>
      <trkpt lat="27.807674" lon="86.719757">
        <ele>3559.2</ele>
        <time>2022-10-29T06:58:05.000Z</time>
      </trkpt>
      <trkpt lat="27.807654" lon="86.719744">
        <ele>3558.8</ele>
        <time>2022-10-29T06:58:07.000Z</time>
      </trkpt>
      <trkpt lat="27.807635" lon="86.719725">
        <ele>3558.6</ele>
        <time>2022-10-29T06:58:09.000Z</time>
      </trkpt>
      <trkpt lat="27.807616" lon="86.719712">
        <ele>3558</ele>
        <time>2022-10-29T06:58:11.000Z</time>
      </trkpt>
      <trkpt lat="27.807594" lon="86.719706">
        <ele>3558.6</ele>
        <time>2022-10-29T06:58:13.000Z</time>
      </trkpt>
      <trkpt lat="27.807571" lon="86.719706">
        <ele>3559</ele>
        <time>2022-10-29T06:58:15.000Z</time>
      </trkpt>
      <trkpt lat="27.807546" lon="86.719686">
        <ele>3558.2</ele>
        <time>2022-10-29T06:58:17.000Z</time>
      </trkpt>
      <trkpt lat="27.807523" lon="86.719686">
        <ele>3557.2</ele>
        <time>2022-10-29T06:58:19.000Z</time>
      </trkpt>
      <trkpt lat="27.807494" lon="86.719674">
        <ele>3557.2</ele>
        <time>2022-10-29T06:58:21.000Z</time>
      </trkpt>
      <trkpt lat="27.807469" lon="86.719674">
        <ele>3557.2</ele>
        <time>2022-10-29T06:58:23.000Z</time>
      </trkpt>
      <trkpt lat="27.807446" lon="86.719667">
        <ele>3556.8</ele>
        <time>2022-10-29T06:58:25.000Z</time>
      </trkpt>
      <trkpt lat="27.807427" lon="86.719661">
        <ele>3556.6</ele>
        <time>2022-10-29T06:58:27.000Z</time>
      </trkpt>
      <trkpt lat="27.807405" lon="86.719648">
        <ele>3556.8</ele>
        <time>2022-10-29T06:58:29.000Z</time>
      </trkpt>
      <trkpt lat="27.807382" lon="86.719635">
        <ele>3557</ele>
        <time>2022-10-29T06:58:31.000Z</time>
      </trkpt>
      <trkpt lat="27.807363" lon="86.719629">
        <ele>3557.4</ele>
        <time>2022-10-29T06:58:33.000Z</time>
      </trkpt>
      <trkpt lat="27.807341" lon="86.719622">
        <ele>3557.4</ele>
        <time>2022-10-29T06:58:35.000Z</time>
      </trkpt>
      <trkpt lat="27.807318" lon="86.71961">
        <ele>3558</ele>
        <time>2022-10-29T06:58:37.000Z</time>
      </trkpt>
      <trkpt lat="27.807299" lon="86.719603">
        <ele>3558</ele>
        <time>2022-10-29T06:58:39.000Z</time>
      </trkpt>
      <trkpt lat="27.80728" lon="86.719597">
        <ele>3558.4</ele>
        <time>2022-10-29T06:58:41.000Z</time>
      </trkpt>
      <trkpt lat="27.807261" lon="86.719597">
        <ele>3558.8</ele>
        <time>2022-10-29T06:58:43.000Z</time>
      </trkpt>
      <trkpt lat="27.807242" lon="86.71959">
        <ele>3559</ele>
        <time>2022-10-29T06:58:45.000Z</time>
      </trkpt>
      <trkpt lat="27.807219" lon="86.719584">
        <ele>3559.4</ele>
        <time>2022-10-29T06:58:47.000Z</time>
      </trkpt>
      <trkpt lat="27.807197" lon="86.719584">
        <ele>3559.4</ele>
        <time>2022-10-29T06:58:49.000Z</time>
      </trkpt>
      <trkpt lat="27.807168" lon="86.719571">
        <ele>3559.6</ele>
        <time>2022-10-29T06:58:52.000Z</time>
      </trkpt>
      <trkpt lat="27.807146" lon="86.719571">
        <ele>3559.6</ele>
        <time>2022-10-29T06:58:54.000Z</time>
      </trkpt>
      <trkpt lat="27.807123" lon="86.719565">
        <ele>3559.8</ele>
        <time>2022-10-29T06:58:56.000Z</time>
      </trkpt>
      <trkpt lat="27.807098" lon="86.719565">
        <ele>3559.8</ele>
        <time>2022-10-29T06:58:58.000Z</time>
      </trkpt>
      <trkpt lat="27.807075" lon="86.719558">
        <ele>3560</ele>
        <time>2022-10-29T06:59:00.000Z</time>
      </trkpt>
      <trkpt lat="27.807053" lon="86.719552">
        <ele>3560.4</ele>
        <time>2022-10-29T06:59:02.000Z</time>
      </trkpt>
      <trkpt lat="27.807034" lon="86.719552">
        <ele>3560.6</ele>
        <time>2022-10-29T06:59:04.000Z</time>
      </trkpt>
      <trkpt lat="27.807011" lon="86.719552">
        <ele>3560.8</ele>
        <time>2022-10-29T06:59:06.000Z</time>
      </trkpt>
      <trkpt lat="27.806989" lon="86.719558">
        <ele>3560.8</ele>
        <time>2022-10-29T06:59:08.000Z</time>
      </trkpt>
      <trkpt lat="27.80696" lon="86.719571">
        <ele>3561</ele>
        <time>2022-10-29T06:59:11.000Z</time>
      </trkpt>
      <trkpt lat="27.806941" lon="86.719584">
        <ele>3561.2</ele>
        <time>2022-10-29T06:59:13.000Z</time>
      </trkpt>
      <trkpt lat="27.806922" lon="86.719597">
        <ele>3561.4</ele>
        <time>2022-10-29T06:59:15.000Z</time>
      </trkpt>
      <trkpt lat="27.806902" lon="86.719603">
        <ele>3562</ele>
        <time>2022-10-29T06:59:17.000Z</time>
      </trkpt>
      <trkpt lat="27.806883" lon="86.71961">
        <ele>3562</ele>
        <time>2022-10-29T06:59:19.000Z</time>
      </trkpt>
      <trkpt lat="27.806861" lon="86.719622">
        <ele>3562.8</ele>
        <time>2022-10-29T06:59:21.000Z</time>
      </trkpt>
      <trkpt lat="27.806842" lon="86.719622">
        <ele>3562.8</ele>
        <time>2022-10-29T06:59:23.000Z</time>
      </trkpt>
      <trkpt lat="27.806816" lon="86.719622">
        <ele>3562.8</ele>
        <time>2022-10-29T06:59:25.000Z</time>
      </trkpt>
      <trkpt lat="27.806794" lon="86.71961">
        <ele>3563.2</ele>
        <time>2022-10-29T06:59:27.000Z</time>
      </trkpt>
      <trkpt lat="27.806771" lon="86.719603">
        <ele>3562.8</ele>
        <time>2022-10-29T06:59:29.000Z</time>
      </trkpt>
      <trkpt lat="27.806746" lon="86.719597">
        <ele>3562.6</ele>
        <time>2022-10-29T06:59:31.000Z</time>
      </trkpt>
      <trkpt lat="27.80672" lon="86.719597">
        <ele>3562.4</ele>
        <time>2022-10-29T06:59:33.000Z</time>
      </trkpt>
      <trkpt lat="27.806701" lon="86.71959">
        <ele>3562.8</ele>
        <time>2022-10-29T06:59:35.000Z</time>
      </trkpt>
      <trkpt lat="27.806682" lon="86.719584">
        <ele>3562.8</ele>
        <time>2022-10-29T06:59:37.000Z</time>
      </trkpt>
      <trkpt lat="27.806662" lon="86.719584">
        <ele>3562.6</ele>
        <time>2022-10-29T06:59:39.000Z</time>
      </trkpt>
      <trkpt lat="27.806643" lon="86.719584">
        <ele>3562.8</ele>
        <time>2022-10-29T06:59:41.000Z</time>
      </trkpt>
      <trkpt lat="27.806618" lon="86.719584">
        <ele>3562.8</ele>
        <time>2022-10-29T06:59:43.000Z</time>
      </trkpt>
      <trkpt lat="27.806595" lon="86.71959">
        <ele>3563.2</ele>
        <time>2022-10-29T06:59:45.000Z</time>
      </trkpt>
      <trkpt lat="27.80657" lon="86.719597">
        <ele>3563.2</ele>
        <time>2022-10-29T06:59:47.000Z</time>
      </trkpt>
      <trkpt lat="27.80655" lon="86.719603">
        <ele>3563.6</ele>
        <time>2022-10-29T06:59:49.000Z</time>
      </trkpt>
      <trkpt lat="27.806525" lon="86.71961">
        <ele>3563.4</ele>
        <time>2022-10-29T06:59:51.000Z</time>
      </trkpt>
      <trkpt lat="27.806502" lon="86.71961">
        <ele>3563.6</ele>
        <time>2022-10-29T06:59:53.000Z</time>
      </trkpt>
      <trkpt lat="27.806483" lon="86.719622">
        <ele>3564.2</ele>
        <time>2022-10-29T06:59:55.000Z</time>
      </trkpt>
      <trkpt lat="27.806464" lon="86.719635">
        <ele>3564.2</ele>
        <time>2022-10-29T06:59:57.000Z</time>
      </trkpt>
      <trkpt lat="27.806445" lon="86.719648">
        <ele>3564.2</ele>
        <time>2022-10-29T06:59:59.000Z</time>
      </trkpt>
      <trkpt lat="27.806422" lon="86.719661">
        <ele>3564.6</ele>
        <time>2022-10-29T07:00:01.000Z</time>
      </trkpt>
      <trkpt lat="27.806406" lon="86.719674">
        <ele>3564.8</ele>
        <time>2022-10-29T07:00:03.000Z</time>
      </trkpt>
      <trkpt lat="27.80639" lon="86.719686">
        <ele>3565.2</ele>
        <time>2022-10-29T07:00:05.000Z</time>
      </trkpt>
      <trkpt lat="27.806365" lon="86.719686">
        <ele>3565.6</ele>
        <time>2022-10-29T07:00:08.000Z</time>
      </trkpt>
      <trkpt lat="27.806336" lon="86.719686">
        <ele>3566.4</ele>
        <time>2022-10-29T07:00:10.000Z</time>
      </trkpt>
      <trkpt lat="27.806314" lon="86.71968">
        <ele>3566.4</ele>
        <time>2022-10-29T07:00:12.000Z</time>
      </trkpt>
      <trkpt lat="27.806291" lon="86.71968">
        <ele>3566.4</ele>
        <time>2022-10-29T07:00:14.000Z</time>
      </trkpt>
      <trkpt lat="27.806269" lon="86.719686">
        <ele>3566.2</ele>
        <time>2022-10-29T07:00:16.000Z</time>
      </trkpt>
      <trkpt lat="27.806243" lon="86.719686">
        <ele>3566.4</ele>
        <time>2022-10-29T07:00:18.000Z</time>
      </trkpt>
      <trkpt lat="27.806218" lon="86.719686">
        <ele>3566.4</ele>
        <time>2022-10-29T07:00:20.000Z</time>
      </trkpt>
      <trkpt lat="27.806195" lon="86.71968">
        <ele>3566</ele>
        <time>2022-10-29T07:00:22.000Z</time>
      </trkpt>
      <trkpt lat="27.806166" lon="86.719667">
        <ele>3566</ele>
        <time>2022-10-29T07:00:24.000Z</time>
      </trkpt>
      <trkpt lat="27.806147" lon="86.719648">
        <ele>3566</ele>
        <time>2022-10-29T07:00:26.000Z</time>
      </trkpt>
      <trkpt lat="27.806131" lon="86.719629">
        <ele>3566</ele>
        <time>2022-10-29T07:00:28.000Z</time>
      </trkpt>
      <trkpt lat="27.806115" lon="86.719603">
        <ele>3566.2</ele>
        <time>2022-10-29T07:00:30.000Z</time>
      </trkpt>
      <trkpt lat="27.806106" lon="86.719571">
        <ele>3567.2</ele>
        <time>2022-10-29T07:00:32.000Z</time>
      </trkpt>
      <trkpt lat="27.806096" lon="86.719552">
        <ele>3567</ele>
        <time>2022-10-29T07:00:34.000Z</time>
      </trkpt>
      <trkpt lat="27.806086" lon="86.719533">
        <ele>3566.8</ele>
        <time>2022-10-29T07:00:35.000Z</time>
      </trkpt>
      <trkpt lat="27.806077" lon="86.719514">
        <ele>3566.2</ele>
        <time>2022-10-29T07:00:37.000Z</time>
      </trkpt>
      <trkpt lat="27.806064" lon="86.719488">
        <ele>3566</ele>
        <time>2022-10-29T07:00:39.000Z</time>
      </trkpt>
      <trkpt lat="27.806051" lon="86.719469">
        <ele>3565.8</ele>
        <time>2022-10-29T07:00:41.000Z</time>
      </trkpt>
      <trkpt lat="27.806045" lon="86.71945">
        <ele>3566</ele>
        <time>2022-10-29T07:00:42.000Z</time>
      </trkpt>
      <trkpt lat="27.806026" lon="86.719437">
        <ele>3566.2</ele>
        <time>2022-10-29T07:00:44.000Z</time>
      </trkpt>
      <trkpt lat="27.806006" lon="86.71943">
        <ele>3566</ele>
        <time>2022-10-29T07:00:46.000Z</time>
      </trkpt>
      <trkpt lat="27.805984" lon="86.719411">
        <ele>3566.2</ele>
        <time>2022-10-29T07:00:48.000Z</time>
      </trkpt>
      <trkpt lat="27.805962" lon="86.719405">
        <ele>3566.6</ele>
        <time>2022-10-29T07:00:50.000Z</time>
      </trkpt>
      <trkpt lat="27.805939" lon="86.719405">
        <ele>3566.6</ele>
        <time>2022-10-29T07:00:52.000Z</time>
      </trkpt>
      <trkpt lat="27.805917" lon="86.719398">
        <ele>3566.6</ele>
        <time>2022-10-29T07:00:54.000Z</time>
      </trkpt>
      <trkpt lat="27.805894" lon="86.719398">
        <ele>3566.6</ele>
        <time>2022-10-29T07:00:56.000Z</time>
      </trkpt>
      <trkpt lat="27.805869" lon="86.719398">
        <ele>3566.6</ele>
        <time>2022-10-29T07:00:58.000Z</time>
      </trkpt>
      <trkpt lat="27.80585" lon="86.719398">
        <ele>3566.8</ele>
        <time>2022-10-29T07:01:00.000Z</time>
      </trkpt>
      <trkpt lat="27.80583" lon="86.719398">
        <ele>3566.8</ele>
        <time>2022-10-29T07:01:02.000Z</time>
      </trkpt>
      <trkpt lat="27.805808" lon="86.719392">
        <ele>3566.6</ele>
        <time>2022-10-29T07:01:04.000Z</time>
      </trkpt>
      <trkpt lat="27.805786" lon="86.719398">
        <ele>3566.6</ele>
        <time>2022-10-29T07:01:06.000Z</time>
      </trkpt>
      <trkpt lat="27.80576" lon="86.719405">
        <ele>3567.2</ele>
        <time>2022-10-29T07:01:08.000Z</time>
      </trkpt>
      <trkpt lat="27.805734" lon="86.719405">
        <ele>3567.4</ele>
        <time>2022-10-29T07:01:10.000Z</time>
      </trkpt>
      <trkpt lat="27.805712" lon="86.719411">
        <ele>3567.2</ele>
        <time>2022-10-29T07:01:12.000Z</time>
      </trkpt>
      <trkpt lat="27.80569" lon="86.719424">
        <ele>3567</ele>
        <time>2022-10-29T07:01:14.000Z</time>
      </trkpt>
      <trkpt lat="27.805667" lon="86.71943">
        <ele>3567</ele>
        <time>2022-10-29T07:01:16.000Z</time>
      </trkpt>
      <trkpt lat="27.805638" lon="86.719437">
        <ele>3567</ele>
        <time>2022-10-29T07:01:19.000Z</time>
      </trkpt>
      <trkpt lat="27.80561" lon="86.719437">
        <ele>3567</ele>
        <time>2022-10-29T07:01:22.000Z</time>
      </trkpt>
      <trkpt lat="27.805587" lon="86.719437">
        <ele>3568</ele>
        <time>2022-10-29T07:01:24.000Z</time>
      </trkpt>
      <trkpt lat="27.805568" lon="86.719437">
        <ele>3568.8</ele>
        <time>2022-10-29T07:01:26.000Z</time>
      </trkpt>
      <trkpt lat="27.805546" lon="86.719437">
        <ele>3569</ele>
        <time>2022-10-29T07:01:28.000Z</time>
      </trkpt>
      <trkpt lat="27.805526" lon="86.719437">
        <ele>3569</ele>
        <time>2022-10-29T07:01:30.000Z</time>
      </trkpt>
      <trkpt lat="27.805504" lon="86.719437">
        <ele>3569.2</ele>
        <time>2022-10-29T07:01:32.000Z</time>
      </trkpt>
      <trkpt lat="27.805488" lon="86.719424">
        <ele>3570</ele>
        <time>2022-10-29T07:01:34.000Z</time>
      </trkpt>
      <trkpt lat="27.805472" lon="86.719405">
        <ele>3570</ele>
        <time>2022-10-29T07:01:36.000Z</time>
      </trkpt>
      <trkpt lat="27.805466" lon="86.719386">
        <ele>3569.4</ele>
        <time>2022-10-29T07:01:38.000Z</time>
      </trkpt>
      <trkpt lat="27.805456" lon="86.71936">
        <ele>3569.2</ele>
        <time>2022-10-29T07:01:40.000Z</time>
      </trkpt>
      <trkpt lat="27.805453" lon="86.719334">
        <ele>3569</ele>
        <time>2022-10-29T07:01:42.000Z</time>
      </trkpt>
      <trkpt lat="27.805453" lon="86.719309">
        <ele>3569</ele>
        <time>2022-10-29T07:01:45.000Z</time>
      </trkpt>
      <trkpt lat="27.805453" lon="86.719283">
        <ele>3569</ele>
        <time>2022-10-29T07:01:47.000Z</time>
      </trkpt>
      <trkpt lat="27.805453" lon="86.719251">
        <ele>3569</ele>
        <time>2022-10-29T07:01:58.000Z</time>
      </trkpt>
      <trkpt lat="27.805475" lon="86.719238">
        <ele>3569</ele>
        <time>2022-10-29T07:02:00.000Z</time>
      </trkpt>
      <trkpt lat="27.805491" lon="86.719213">
        <ele>3568.4</ele>
        <time>2022-10-29T07:02:02.000Z</time>
      </trkpt>
      <trkpt lat="27.805504" lon="86.719187">
        <ele>3567.8</ele>
        <time>2022-10-29T07:02:04.000Z</time>
      </trkpt>
      <trkpt lat="27.805507" lon="86.719155">
        <ele>3567.2</ele>
        <time>2022-10-29T07:02:06.000Z</time>
      </trkpt>
      <trkpt lat="27.805507" lon="86.719123">
        <ele>3567</ele>
        <time>2022-10-29T07:02:08.000Z</time>
      </trkpt>
      <trkpt lat="27.805507" lon="86.719091">
        <ele>3567.6</ele>
        <time>2022-10-29T07:02:10.000Z</time>
      </trkpt>
      <trkpt lat="27.805504" lon="86.719066">
        <ele>3567.6</ele>
        <time>2022-10-29T07:02:12.000Z</time>
      </trkpt>
      <trkpt lat="27.805498" lon="86.71904">
        <ele>3567.6</ele>
        <time>2022-10-29T07:02:14.000Z</time>
      </trkpt>
      <trkpt lat="27.805494" lon="86.719014">
        <ele>3567.6</ele>
        <time>2022-10-29T07:02:15.000Z</time>
      </trkpt>
      <trkpt lat="27.805501" lon="86.718989">
        <ele>3567.8</ele>
        <time>2022-10-29T07:02:17.000Z</time>
      </trkpt>
      <trkpt lat="27.805507" lon="86.718957">
        <ele>3567.6</ele>
        <time>2022-10-29T07:02:19.000Z</time>
      </trkpt>
      <trkpt lat="27.805514" lon="86.718931">
        <ele>3567</ele>
        <time>2022-10-29T07:02:20.000Z</time>
      </trkpt>
      <trkpt lat="27.80552" lon="86.718906">
        <ele>3566.6</ele>
        <time>2022-10-29T07:02:22.000Z</time>
      </trkpt>
      <trkpt lat="27.805526" lon="86.718886">
        <ele>3566.6</ele>
        <time>2022-10-29T07:02:23.000Z</time>
      </trkpt>
      <trkpt lat="27.805536" lon="86.718854">
        <ele>3566.8</ele>
        <time>2022-10-29T07:02:25.000Z</time>
      </trkpt>
      <trkpt lat="27.805542" lon="86.718835">
        <ele>3566</ele>
        <time>2022-10-29T07:02:26.000Z</time>
      </trkpt>
      <trkpt lat="27.805549" lon="86.718816">
        <ele>3566</ele>
        <time>2022-10-29T07:02:27.000Z</time>
      </trkpt>
      <trkpt lat="27.805552" lon="86.71879">
        <ele>3566.4</ele>
        <time>2022-10-29T07:02:29.000Z</time>
      </trkpt>
      <trkpt lat="27.805558" lon="86.718758">
        <ele>3566.6</ele>
        <time>2022-10-29T07:02:31.000Z</time>
      </trkpt>
      <trkpt lat="27.805568" lon="86.718726">
        <ele>3566.6</ele>
        <time>2022-10-29T07:02:33.000Z</time>
      </trkpt>
      <trkpt lat="27.805574" lon="86.718694">
        <ele>3566.4</ele>
        <time>2022-10-29T07:02:35.000Z</time>
      </trkpt>
      <trkpt lat="27.805587" lon="86.718669">
        <ele>3566.6</ele>
        <time>2022-10-29T07:02:37.000Z</time>
      </trkpt>
      <trkpt lat="27.805597" lon="86.718637">
        <ele>3566.4</ele>
        <time>2022-10-29T07:02:39.000Z</time>
      </trkpt>
      <trkpt lat="27.80561" lon="86.718605">
        <ele>3566.6</ele>
        <time>2022-10-29T07:02:41.000Z</time>
      </trkpt>
      <trkpt lat="27.805622" lon="86.718573">
        <ele>3566.4</ele>
        <time>2022-10-29T07:02:43.000Z</time>
      </trkpt>
      <trkpt lat="27.805632" lon="86.718554">
        <ele>3565.8</ele>
        <time>2022-10-29T07:02:45.000Z</time>
      </trkpt>
      <trkpt lat="27.805638" lon="86.718534">
        <ele>3565.6</ele>
        <time>2022-10-29T07:02:46.000Z</time>
      </trkpt>
      <trkpt lat="27.805642" lon="86.718509">
        <ele>3565.4</ele>
        <time>2022-10-29T07:02:48.000Z</time>
      </trkpt>
      <trkpt lat="27.805642" lon="86.718477">
        <ele>3565.2</ele>
        <time>2022-10-29T07:02:50.000Z</time>
      </trkpt>
      <trkpt lat="27.805638" lon="86.718445">
        <ele>3565.4</ele>
        <time>2022-10-29T07:02:52.000Z</time>
      </trkpt>
      <trkpt lat="27.805638" lon="86.718413">
        <ele>3565.4</ele>
        <time>2022-10-29T07:02:54.000Z</time>
      </trkpt>
      <trkpt lat="27.805638" lon="86.718381">
        <ele>3565.6</ele>
        <time>2022-10-29T07:02:56.000Z</time>
      </trkpt>
      <trkpt lat="27.805638" lon="86.718355">
        <ele>3566</ele>
        <time>2022-10-29T07:02:58.000Z</time>
      </trkpt>
      <trkpt lat="27.805632" lon="86.718323">
        <ele>3566.2</ele>
        <time>2022-10-29T07:03:00.000Z</time>
      </trkpt>
      <trkpt lat="27.805635" lon="86.718298">
        <ele>3566.4</ele>
        <time>2022-10-29T07:03:02.000Z</time>
      </trkpt>
      <trkpt lat="27.805635" lon="86.718272">
        <ele>3566.6</ele>
        <time>2022-10-29T07:03:04.000Z</time>
      </trkpt>
      <trkpt lat="27.805629" lon="86.71824">
        <ele>3566.2</ele>
        <time>2022-10-29T07:03:06.000Z</time>
      </trkpt>
      <trkpt lat="27.805616" lon="86.718208">
        <ele>3566.2</ele>
        <time>2022-10-29T07:03:08.000Z</time>
      </trkpt>
      <trkpt lat="27.805603" lon="86.718182">
        <ele>3566</ele>
        <time>2022-10-29T07:03:10.000Z</time>
      </trkpt>
      <trkpt lat="27.805594" lon="86.718163">
        <ele>3566</ele>
        <time>2022-10-29T07:03:12.000Z</time>
      </trkpt>
      <trkpt lat="27.805587" lon="86.718138">
        <ele>3566.2</ele>
        <time>2022-10-29T07:03:13.000Z</time>
      </trkpt>
      <trkpt lat="27.805574" lon="86.718118">
        <ele>3566.2</ele>
        <time>2022-10-29T07:03:15.000Z</time>
      </trkpt>
      <trkpt lat="27.805571" lon="86.718086">
        <ele>3566.4</ele>
        <time>2022-10-29T07:03:17.000Z</time>
      </trkpt>
      <trkpt lat="27.805568" lon="86.718054">
        <ele>3566.2</ele>
        <time>2022-10-29T07:03:19.000Z</time>
      </trkpt>
      <trkpt lat="27.805571" lon="86.718022">
        <ele>3566</ele>
        <time>2022-10-29T07:03:21.000Z</time>
      </trkpt>
      <trkpt lat="27.805571" lon="86.717997">
        <ele>3566.2</ele>
        <time>2022-10-29T07:03:23.000Z</time>
      </trkpt>
      <trkpt lat="27.805574" lon="86.717965">
        <ele>3566.4</ele>
        <time>2022-10-29T07:03:25.000Z</time>
      </trkpt>
      <trkpt lat="27.805571" lon="86.717933">
        <ele>3566.4</ele>
        <time>2022-10-29T07:03:27.000Z</time>
      </trkpt>
      <trkpt lat="27.805558" lon="86.717901">
        <ele>3566.2</ele>
        <time>2022-10-29T07:03:30.000Z</time>
      </trkpt>
      <trkpt lat="27.805549" lon="86.717882">
        <ele>3566</ele>
        <time>2022-10-29T07:03:32.000Z</time>
      </trkpt>
      <trkpt lat="27.805539" lon="86.717862">
        <ele>3566</ele>
        <time>2022-10-29T07:03:34.000Z</time>
      </trkpt>
      <trkpt lat="27.80553" lon="86.717843">
        <ele>3566.2</ele>
        <time>2022-10-29T07:03:36.000Z</time>
      </trkpt>
      <trkpt lat="27.805517" lon="86.717824">
        <ele>3567.4</ele>
        <time>2022-10-29T07:03:38.000Z</time>
      </trkpt>
      <trkpt lat="27.805501" lon="86.717811">
        <ele>3567.4</ele>
        <time>2022-10-29T07:03:40.000Z</time>
      </trkpt>
      <trkpt lat="27.805482" lon="86.717798">
        <ele>3567.8</ele>
        <time>2022-10-29T07:03:42.000Z</time>
      </trkpt>
      <trkpt lat="27.805466" lon="86.717779">
        <ele>3568.2</ele>
        <time>2022-10-29T07:03:44.000Z</time>
      </trkpt>
      <trkpt lat="27.80544" lon="86.717766">
        <ele>3568.8</ele>
        <time>2022-10-29T07:03:47.000Z</time>
      </trkpt>
      <trkpt lat="27.805418" lon="86.71776">
        <ele>3569.4</ele>
        <time>2022-10-29T07:03:49.000Z</time>
      </trkpt>
      <trkpt lat="27.805402" lon="86.717734">
        <ele>3569.4</ele>
        <time>2022-10-29T07:03:51.000Z</time>
      </trkpt>
      <trkpt lat="27.805389" lon="86.717715">
        <ele>3569.6</ele>
        <time>2022-10-29T07:03:53.000Z</time>
      </trkpt>
      <trkpt lat="27.805379" lon="86.717696">
        <ele>3569.6</ele>
        <time>2022-10-29T07:03:54.000Z</time>
      </trkpt>
      <trkpt lat="27.805373" lon="86.717664">
        <ele>3569.8</ele>
        <time>2022-10-29T07:03:56.000Z</time>
      </trkpt>
      <trkpt lat="27.805376" lon="86.717626">
        <ele>3570.2</ele>
        <time>2022-10-29T07:03:58.000Z</time>
      </trkpt>
      <trkpt lat="27.805379" lon="86.7176">
        <ele>3570.6</ele>
        <time>2022-10-29T07:04:00.000Z</time>
      </trkpt>
      <trkpt lat="27.805382" lon="86.717574">
        <ele>3570.2</ele>
        <time>2022-10-29T07:04:01.000Z</time>
      </trkpt>
      <trkpt lat="27.805392" lon="86.717542">
        <ele>3570.2</ele>
        <time>2022-10-29T07:04:03.000Z</time>
      </trkpt>
      <trkpt lat="27.805402" lon="86.717517">
        <ele>3569.8</ele>
        <time>2022-10-29T07:04:05.000Z</time>
      </trkpt>
      <trkpt lat="27.805414" lon="86.717491">
        <ele>3569.8</ele>
        <time>2022-10-29T07:04:07.000Z</time>
      </trkpt>
      <trkpt lat="27.805434" lon="86.717466">
        <ele>3570.2</ele>
        <time>2022-10-29T07:04:09.000Z</time>
      </trkpt>
      <trkpt lat="27.805453" lon="86.717446">
        <ele>3569.6</ele>
        <time>2022-10-29T07:04:11.000Z</time>
      </trkpt>
      <trkpt lat="27.805462" lon="86.717427">
        <ele>3569.2</ele>
        <time>2022-10-29T07:04:13.000Z</time>
      </trkpt>
      <trkpt lat="27.805475" lon="86.717408">
        <ele>3569.4</ele>
        <time>2022-10-29T07:04:15.000Z</time>
      </trkpt>
      <trkpt lat="27.805498" lon="86.717389">
        <ele>3569</ele>
        <time>2022-10-29T07:04:17.000Z</time>
      </trkpt>
      <trkpt lat="27.80552" lon="86.71737">
        <ele>3568.4</ele>
        <time>2022-10-29T07:04:19.000Z</time>
      </trkpt>
      <trkpt lat="27.805533" lon="86.717344">
        <ele>3568.2</ele>
        <time>2022-10-29T07:04:21.000Z</time>
      </trkpt>
      <trkpt lat="27.805546" lon="86.717325">
        <ele>3567.8</ele>
        <time>2022-10-29T07:04:24.000Z</time>
      </trkpt>
      <trkpt lat="27.805552" lon="86.717306">
        <ele>3567</ele>
        <time>2022-10-29T07:04:25.000Z</time>
      </trkpt>
      <trkpt lat="27.805565" lon="86.71728">
        <ele>3566.8</ele>
        <time>2022-10-29T07:04:27.000Z</time>
      </trkpt>
      <trkpt lat="27.805574" lon="86.717248">
        <ele>3566.8</ele>
        <time>2022-10-29T07:04:29.000Z</time>
      </trkpt>
      <trkpt lat="27.805584" lon="86.717229">
        <ele>3566.8</ele>
        <time>2022-10-29T07:04:30.000Z</time>
      </trkpt>
      <trkpt lat="27.805597" lon="86.71721">
        <ele>3566.8</ele>
        <time>2022-10-29T07:04:32.000Z</time>
      </trkpt>
      <trkpt lat="27.805613" lon="86.717184">
        <ele>3567</ele>
        <time>2022-10-29T07:04:34.000Z</time>
      </trkpt>
      <trkpt lat="27.805626" lon="86.717165">
        <ele>3566.8</ele>
        <time>2022-10-29T07:04:36.000Z</time>
      </trkpt>
      <trkpt lat="27.805632" lon="86.717146">
        <ele>3566.6</ele>
        <time>2022-10-29T07:04:37.000Z</time>
      </trkpt>
      <trkpt lat="27.805642" lon="86.71712">
        <ele>3566.4</ele>
        <time>2022-10-29T07:04:39.000Z</time>
      </trkpt>
      <trkpt lat="27.805654" lon="86.717094">
        <ele>3565.8</ele>
        <time>2022-10-29T07:04:41.000Z</time>
      </trkpt>
      <trkpt lat="27.80567" lon="86.717069">
        <ele>3565.6</ele>
        <time>2022-10-29T07:04:43.000Z</time>
      </trkpt>
      <trkpt lat="27.805683" lon="86.71705">
        <ele>3565.4</ele>
        <time>2022-10-29T07:04:45.000Z</time>
      </trkpt>
      <trkpt lat="27.80569" lon="86.71703">
        <ele>3565.4</ele>
        <time>2022-10-29T07:04:46.000Z</time>
      </trkpt>
      <trkpt lat="27.805706" lon="86.717005">
        <ele>3565.2</ele>
        <time>2022-10-29T07:04:48.000Z</time>
      </trkpt>
      <trkpt lat="27.805718" lon="86.716973">
        <ele>3565.2</ele>
        <time>2022-10-29T07:04:50.000Z</time>
      </trkpt>
      <trkpt lat="27.805747" lon="86.716928">
        <ele>3564.6</ele>
        <time>2022-10-29T07:04:54.000Z</time>
      </trkpt>
      <trkpt lat="27.805757" lon="86.716909">
        <ele>3564.6</ele>
        <time>2022-10-29T07:04:55.000Z</time>
      </trkpt>
      <trkpt lat="27.805776" lon="86.716896">
        <ele>3564.4</ele>
        <time>2022-10-29T07:04:57.000Z</time>
      </trkpt>
      <trkpt lat="27.805789" lon="86.716864">
        <ele>3564.2</ele>
        <time>2022-10-29T07:04:59.000Z</time>
      </trkpt>
      <trkpt lat="27.805798" lon="86.716845">
        <ele>3564</ele>
        <time>2022-10-29T07:05:01.000Z</time>
      </trkpt>
      <trkpt lat="27.805805" lon="86.716826">
        <ele>3563.6</ele>
        <time>2022-10-29T07:05:02.000Z</time>
      </trkpt>
      <trkpt lat="27.805818" lon="86.7168">
        <ele>3563.4</ele>
        <time>2022-10-29T07:05:04.000Z</time>
      </trkpt>
      <trkpt lat="27.80583" lon="86.716781">
        <ele>3564.2</ele>
        <time>2022-10-29T07:05:06.000Z</time>
      </trkpt>
      <trkpt lat="27.805846" lon="86.716749">
        <ele>3563</ele>
        <time>2022-10-29T07:05:08.000Z</time>
      </trkpt>
      <trkpt lat="27.805866" lon="86.716736">
        <ele>3562.8</ele>
        <time>2022-10-29T07:05:10.000Z</time>
      </trkpt>
      <trkpt lat="27.805882" lon="86.716704">
        <ele>3562.4</ele>
        <time>2022-10-29T07:05:12.000Z</time>
      </trkpt>
      <trkpt lat="27.805898" lon="86.716685">
        <ele>3562.8</ele>
        <time>2022-10-29T07:05:14.000Z</time>
      </trkpt>
      <trkpt lat="27.805907" lon="86.716666">
        <ele>3562.8</ele>
        <time>2022-10-29T07:05:15.000Z</time>
      </trkpt>
      <trkpt lat="27.805923" lon="86.716634">
        <ele>3561.8</ele>
        <time>2022-10-29T07:05:17.000Z</time>
      </trkpt>
      <trkpt lat="27.805936" lon="86.716608">
        <ele>3561.8</ele>
        <time>2022-10-29T07:05:19.000Z</time>
      </trkpt>
      <trkpt lat="27.805949" lon="86.716582">
        <ele>3561.4</ele>
        <time>2022-10-29T07:05:21.000Z</time>
      </trkpt>
      <trkpt lat="27.805965" lon="86.716563">
        <ele>3561.4</ele>
        <time>2022-10-29T07:05:23.000Z</time>
      </trkpt>
      <trkpt lat="27.805978" lon="86.716531">
        <ele>3561.4</ele>
        <time>2022-10-29T07:05:25.000Z</time>
      </trkpt>
      <trkpt lat="27.805984" lon="86.716512">
        <ele>3561.4</ele>
        <time>2022-10-29T07:05:26.000Z</time>
      </trkpt>
      <trkpt lat="27.805997" lon="86.716493">
        <ele>3561.2</ele>
        <time>2022-10-29T07:05:28.000Z</time>
      </trkpt>
      <trkpt lat="27.806006" lon="86.716474">
        <ele>3561</ele>
        <time>2022-10-29T07:05:29.000Z</time>
      </trkpt>
      <trkpt lat="27.806019" lon="86.716448">
        <ele>3561</ele>
        <time>2022-10-29T07:05:31.000Z</time>
      </trkpt>
      <trkpt lat="27.806038" lon="86.716422">
        <ele>3561</ele>
        <time>2022-10-29T07:05:33.000Z</time>
      </trkpt>
      <trkpt lat="27.806054" lon="86.716403">
        <ele>3561.2</ele>
        <time>2022-10-29T07:05:35.000Z</time>
      </trkpt>
      <trkpt lat="27.80607" lon="86.716378">
        <ele>3561</ele>
        <time>2022-10-29T07:05:37.000Z</time>
      </trkpt>
      <trkpt lat="27.806086" lon="86.716352">
        <ele>3560.6</ele>
        <time>2022-10-29T07:05:39.000Z</time>
      </trkpt>
      <trkpt lat="27.806106" lon="86.716333">
        <ele>3560.2</ele>
        <time>2022-10-29T07:05:41.000Z</time>
      </trkpt>
      <trkpt lat="27.806096" lon="86.716314">
        <ele>3560.2</ele>
        <time>2022-10-29T07:06:00.000Z</time>
      </trkpt>
      <trkpt lat="27.806115" lon="86.716294">
        <ele>3560.4</ele>
        <time>2022-10-29T07:06:02.000Z</time>
      </trkpt>
      <trkpt lat="27.806128" lon="86.716275">
        <ele>3560.4</ele>
        <time>2022-10-29T07:06:03.000Z</time>
      </trkpt>
      <trkpt lat="27.806147" lon="86.716256">
        <ele>3560.4</ele>
        <time>2022-10-29T07:06:05.000Z</time>
      </trkpt>
      <trkpt lat="27.80616" lon="86.716237">
        <ele>3560</ele>
        <time>2022-10-29T07:06:06.000Z</time>
      </trkpt>
      <trkpt lat="27.806176" lon="86.716211">
        <ele>3560</ele>
        <time>2022-10-29T07:06:08.000Z</time>
      </trkpt>
      <trkpt lat="27.806182" lon="86.716192">
        <ele>3560</ele>
        <time>2022-10-29T07:06:09.000Z</time>
      </trkpt>
      <trkpt lat="27.806192" lon="86.716173">
        <ele>3559.2</ele>
        <time>2022-10-29T07:06:11.000Z</time>
      </trkpt>
      <trkpt lat="27.806202" lon="86.716147">
        <ele>3559.4</ele>
        <time>2022-10-29T07:06:13.000Z</time>
      </trkpt>
      <trkpt lat="27.806208" lon="86.716115">
        <ele>3559.4</ele>
        <time>2022-10-29T07:06:15.000Z</time>
      </trkpt>
      <trkpt lat="27.806214" lon="86.71609">
        <ele>3559.4</ele>
        <time>2022-10-29T07:06:17.000Z</time>
      </trkpt>
      <trkpt lat="27.806218" lon="86.716064">
        <ele>3559.2</ele>
        <time>2022-10-29T07:06:19.000Z</time>
      </trkpt>
      <trkpt lat="27.806218" lon="86.716032">
        <ele>3559.4</ele>
        <time>2022-10-29T07:06:21.000Z</time>
      </trkpt>
      <trkpt lat="27.806224" lon="86.716006">
        <ele>3559.2</ele>
        <time>2022-10-29T07:06:23.000Z</time>
      </trkpt>
      <trkpt lat="27.806227" lon="86.715981">
        <ele>3559</ele>
        <time>2022-10-29T07:06:25.000Z</time>
      </trkpt>
      <trkpt lat="27.806224" lon="86.715949">
        <ele>3558.4</ele>
        <time>2022-10-29T07:06:27.000Z</time>
      </trkpt>
      <trkpt lat="27.806218" lon="86.71593">
        <ele>3558.4</ele>
        <time>2022-10-29T07:06:29.000Z</time>
      </trkpt>
      <trkpt lat="27.806214" lon="86.715898">
        <ele>3558</ele>
        <time>2022-10-29T07:06:31.000Z</time>
      </trkpt>
      <trkpt lat="27.806208" lon="86.715872">
        <ele>3557.8</ele>
        <time>2022-10-29T07:06:33.000Z</time>
      </trkpt>
      <trkpt lat="27.806208" lon="86.715846">
        <ele>3557.8</ele>
        <time>2022-10-29T07:06:35.000Z</time>
      </trkpt>
      <trkpt lat="27.806208" lon="86.715814">
        <ele>3557.8</ele>
        <time>2022-10-29T07:06:37.000Z</time>
      </trkpt>
      <trkpt lat="27.806208" lon="86.715782">
        <ele>3557.4</ele>
        <time>2022-10-29T07:06:39.000Z</time>
      </trkpt>
      <trkpt lat="27.806214" lon="86.71575">
        <ele>3557.2</ele>
        <time>2022-10-29T07:06:41.000Z</time>
      </trkpt>
      <trkpt lat="27.806218" lon="86.715718">
        <ele>3557.2</ele>
        <time>2022-10-29T07:06:43.000Z</time>
      </trkpt>
      <trkpt lat="27.806227" lon="86.715693">
        <ele>3557.2</ele>
        <time>2022-10-29T07:06:45.000Z</time>
      </trkpt>
      <trkpt lat="27.806234" lon="86.715667">
        <ele>3557</ele>
        <time>2022-10-29T07:06:47.000Z</time>
      </trkpt>
      <trkpt lat="27.80624" lon="86.715648">
        <ele>3557</ele>
        <time>2022-10-29T07:06:49.000Z</time>
      </trkpt>
      <trkpt lat="27.806243" lon="86.715616">
        <ele>3557.2</ele>
        <time>2022-10-29T07:06:51.000Z</time>
      </trkpt>
      <trkpt lat="27.80625" lon="86.71559">
        <ele>3557.2</ele>
        <time>2022-10-29T07:06:53.000Z</time>
      </trkpt>
      <trkpt lat="27.806256" lon="86.715571">
        <ele>3556.8</ele>
        <time>2022-10-29T07:06:55.000Z</time>
      </trkpt>
      <trkpt lat="27.806262" lon="86.715546">
        <ele>3556.6</ele>
        <time>2022-10-29T07:06:57.000Z</time>
      </trkpt>
      <trkpt lat="27.806269" lon="86.71552">
        <ele>3556.6</ele>
        <time>2022-10-29T07:06:59.000Z</time>
      </trkpt>
      <trkpt lat="27.806272" lon="86.715494">
        <ele>3556.8</ele>
        <time>2022-10-29T07:07:01.000Z</time>
      </trkpt>
      <trkpt lat="27.806272" lon="86.715462">
        <ele>3556.8</ele>
        <time>2022-10-29T07:07:03.000Z</time>
      </trkpt>
      <trkpt lat="27.806275" lon="86.715437">
        <ele>3557.2</ele>
        <time>2022-10-29T07:07:05.000Z</time>
      </trkpt>
      <trkpt lat="27.806278" lon="86.715398">
        <ele>3556.8</ele>
        <time>2022-10-29T07:07:08.000Z</time>
      </trkpt>
      <trkpt lat="27.806272" lon="86.715373">
        <ele>3557</ele>
        <time>2022-10-29T07:07:10.000Z</time>
      </trkpt>
      <trkpt lat="27.806262" lon="86.715347">
        <ele>3556.4</ele>
        <time>2022-10-29T07:07:12.000Z</time>
      </trkpt>
      <trkpt lat="27.806256" lon="86.715322">
        <ele>3555.8</ele>
        <time>2022-10-29T07:07:14.000Z</time>
      </trkpt>
      <trkpt lat="27.806243" lon="86.715302">
        <ele>3555.8</ele>
        <time>2022-10-29T07:07:16.000Z</time>
      </trkpt>
      <trkpt lat="27.806234" lon="86.715283">
        <ele>3555.6</ele>
        <time>2022-10-29T07:07:17.000Z</time>
      </trkpt>
      <trkpt lat="27.806221" lon="86.715264">
        <ele>3555.2</ele>
        <time>2022-10-29T07:07:19.000Z</time>
      </trkpt>
      <trkpt lat="27.806208" lon="86.715238">
        <ele>3554.8</ele>
        <time>2022-10-29T07:07:21.000Z</time>
      </trkpt>
      <trkpt lat="27.806198" lon="86.715213">
        <ele>3554.8</ele>
        <time>2022-10-29T07:07:23.000Z</time>
      </trkpt>
      <trkpt lat="27.806189" lon="86.715181">
        <ele>3554.6</ele>
        <time>2022-10-29T07:07:25.000Z</time>
      </trkpt>
      <trkpt lat="27.806179" lon="86.715149">
        <ele>3554.6</ele>
        <time>2022-10-29T07:07:27.000Z</time>
      </trkpt>
      <trkpt lat="27.80617" lon="86.715117">
        <ele>3554.4</ele>
        <time>2022-10-29T07:07:29.000Z</time>
      </trkpt>
      <trkpt lat="27.806163" lon="86.715085">
        <ele>3554.8</ele>
        <time>2022-10-29T07:07:31.000Z</time>
      </trkpt>
      <trkpt lat="27.80615" lon="86.715066">
        <ele>3554.8</ele>
        <time>2022-10-29T07:07:33.000Z</time>
      </trkpt>
      <trkpt lat="27.806138" lon="86.71504">
        <ele>3554.4</ele>
        <time>2022-10-29T07:07:35.000Z</time>
      </trkpt>
      <trkpt lat="27.806125" lon="86.715014">
        <ele>3554</ele>
        <time>2022-10-29T07:07:37.000Z</time>
      </trkpt>
      <trkpt lat="27.806118" lon="86.714995">
        <ele>3554</ele>
        <time>2022-10-29T07:07:38.000Z</time>
      </trkpt>
      <trkpt lat="27.806102" lon="86.714976">
        <ele>3554.2</ele>
        <time>2022-10-29T07:07:41.000Z</time>
      </trkpt>
      <trkpt lat="27.80609" lon="86.714957">
        <ele>3554.6</ele>
        <time>2022-10-29T07:07:42.000Z</time>
      </trkpt>
      <trkpt lat="27.80607" lon="86.714938">
        <ele>3554</ele>
        <time>2022-10-29T07:07:44.000Z</time>
      </trkpt>
      <trkpt lat="27.806051" lon="86.714918">
        <ele>3553.8</ele>
        <time>2022-10-29T07:07:46.000Z</time>
      </trkpt>
      <trkpt lat="27.806035" lon="86.714899">
        <ele>3553.6</ele>
        <time>2022-10-29T07:07:48.000Z</time>
      </trkpt>
      <trkpt lat="27.806016" lon="86.714874">
        <ele>3553.6</ele>
        <time>2022-10-29T07:07:50.000Z</time>
      </trkpt>
      <trkpt lat="27.806003" lon="86.714854">
        <ele>3553.4</ele>
        <time>2022-10-29T07:07:52.000Z</time>
      </trkpt>
      <trkpt lat="27.805984" lon="86.714829">
        <ele>3553</ele>
        <time>2022-10-29T07:07:54.000Z</time>
      </trkpt>
      <trkpt lat="27.805968" lon="86.714803">
        <ele>3552.8</ele>
        <time>2022-10-29T07:07:56.000Z</time>
      </trkpt>
      <trkpt lat="27.805955" lon="86.714784">
        <ele>3553</ele>
        <time>2022-10-29T07:07:58.000Z</time>
      </trkpt>
      <trkpt lat="27.805939" lon="86.714758">
        <ele>3552.6</ele>
        <time>2022-10-29T07:08:00.000Z</time>
      </trkpt>
      <trkpt lat="27.805926" lon="86.714739">
        <ele>3552.6</ele>
        <time>2022-10-29T07:08:02.000Z</time>
      </trkpt>
      <trkpt lat="27.80592" lon="86.71472">
        <ele>3552.4</ele>
        <time>2022-10-29T07:08:03.000Z</time>
      </trkpt>
      <trkpt lat="27.805898" lon="86.714688">
        <ele>3552.8</ele>
        <time>2022-10-29T07:08:06.000Z</time>
      </trkpt>
      <trkpt lat="27.805882" lon="86.714662">
        <ele>3552.8</ele>
        <time>2022-10-29T07:08:08.000Z</time>
      </trkpt>
      <trkpt lat="27.805866" lon="86.714643">
        <ele>3552.8</ele>
        <time>2022-10-29T07:08:10.000Z</time>
      </trkpt>
      <trkpt lat="27.80585" lon="86.714624">
        <ele>3553</ele>
        <time>2022-10-29T07:08:12.000Z</time>
      </trkpt>
      <trkpt lat="27.805837" lon="86.714598">
        <ele>3552.8</ele>
        <time>2022-10-29T07:08:14.000Z</time>
      </trkpt>
      <trkpt lat="27.805824" lon="86.714579">
        <ele>3552.6</ele>
        <time>2022-10-29T07:08:16.000Z</time>
      </trkpt>
      <trkpt lat="27.805814" lon="86.714554">
        <ele>3552.6</ele>
        <time>2022-10-29T07:08:18.000Z</time>
      </trkpt>
      <trkpt lat="27.805798" lon="86.714528">
        <ele>3552.8</ele>
        <time>2022-10-29T07:08:20.000Z</time>
      </trkpt>
      <trkpt lat="27.805779" lon="86.714502">
        <ele>3553.2</ele>
        <time>2022-10-29T07:08:22.000Z</time>
      </trkpt>
      <trkpt lat="27.80577" lon="86.714483">
        <ele>3553</ele>
        <time>2022-10-29T07:08:23.000Z</time>
      </trkpt>
      <trkpt lat="27.805757" lon="86.714458">
        <ele>3552.4</ele>
        <time>2022-10-29T07:08:25.000Z</time>
      </trkpt>
      <trkpt lat="27.805747" lon="86.714432">
        <ele>3552.2</ele>
        <time>2022-10-29T07:08:27.000Z</time>
      </trkpt>
      <trkpt lat="27.805741" lon="86.7144">
        <ele>3552.6</ele>
        <time>2022-10-29T07:08:29.000Z</time>
      </trkpt>
      <trkpt lat="27.805722" lon="86.714368">
        <ele>3552.8</ele>
        <time>2022-10-29T07:08:32.000Z</time>
      </trkpt>
      <trkpt lat="27.805706" lon="86.714342">
        <ele>3551.8</ele>
        <time>2022-10-29T07:08:35.000Z</time>
      </trkpt>
      <trkpt lat="27.80569" lon="86.714317">
        <ele>3551.4</ele>
        <time>2022-10-29T07:08:37.000Z</time>
      </trkpt>
      <trkpt lat="27.80568" lon="86.714298">
        <ele>3551.2</ele>
        <time>2022-10-29T07:08:39.000Z</time>
      </trkpt>
      <trkpt lat="27.805667" lon="86.714272">
        <ele>3551.4</ele>
        <time>2022-10-29T07:08:42.000Z</time>
      </trkpt>
      <trkpt lat="27.805651" lon="86.714259">
        <ele>3551.2</ele>
        <time>2022-10-29T07:08:44.000Z</time>
      </trkpt>
      <trkpt lat="27.805642" lon="86.714234">
        <ele>3550.8</ele>
        <time>2022-10-29T07:08:46.000Z</time>
      </trkpt>
      <trkpt lat="27.805622" lon="86.714202">
        <ele>3550.8</ele>
        <time>2022-10-29T07:08:48.000Z</time>
      </trkpt>
      <trkpt lat="27.8056" lon="86.714182">
        <ele>3550.8</ele>
        <time>2022-10-29T07:08:50.000Z</time>
      </trkpt>
      <trkpt lat="27.805584" lon="86.714163">
        <ele>3550.6</ele>
        <time>2022-10-29T07:08:52.000Z</time>
      </trkpt>
      <trkpt lat="27.805574" lon="86.714144">
        <ele>3550.8</ele>
        <time>2022-10-29T07:08:53.000Z</time>
      </trkpt>
      <trkpt lat="27.805558" lon="86.714118">
        <ele>3550.8</ele>
        <time>2022-10-29T07:08:55.000Z</time>
      </trkpt>
      <trkpt lat="27.805542" lon="86.714086">
        <ele>3551</ele>
        <time>2022-10-29T07:08:57.000Z</time>
      </trkpt>
      <trkpt lat="27.805533" lon="86.714061">
        <ele>3550.2</ele>
        <time>2022-10-29T07:08:59.000Z</time>
      </trkpt>
      <trkpt lat="27.805523" lon="86.714035">
        <ele>3550.2</ele>
        <time>2022-10-29T07:09:01.000Z</time>
      </trkpt>
      <trkpt lat="27.805517" lon="86.71401">
        <ele>3550.8</ele>
        <time>2022-10-29T07:09:03.000Z</time>
      </trkpt>
      <trkpt lat="27.805507" lon="86.713984">
        <ele>3550.2</ele>
        <time>2022-10-29T07:09:05.000Z</time>
      </trkpt>
      <trkpt lat="27.805498" lon="86.713958">
        <ele>3550.2</ele>
        <time>2022-10-29T07:09:07.000Z</time>
      </trkpt>
      <trkpt lat="27.805488" lon="86.713933">
        <ele>3550.6</ele>
        <time>2022-10-29T07:09:09.000Z</time>
      </trkpt>
      <trkpt lat="27.805482" lon="86.713901">
        <ele>3550.6</ele>
        <time>2022-10-29T07:09:12.000Z</time>
      </trkpt>
      <trkpt lat="27.805472" lon="86.713875">
        <ele>3551.4</ele>
        <time>2022-10-29T07:09:14.000Z</time>
      </trkpt>
      <trkpt lat="27.805456" lon="86.71385">
        <ele>3551.4</ele>
        <time>2022-10-29T07:09:16.000Z</time>
      </trkpt>
      <trkpt lat="27.805446" lon="86.713824">
        <ele>3552</ele>
        <time>2022-10-29T07:09:18.000Z</time>
      </trkpt>
      <trkpt lat="27.80544" lon="86.713798">
        <ele>3551.8</ele>
        <time>2022-10-29T07:09:20.000Z</time>
      </trkpt>
      <trkpt lat="27.805434" lon="86.713773">
        <ele>3551.8</ele>
        <time>2022-10-29T07:09:22.000Z</time>
      </trkpt>
      <trkpt lat="27.805427" lon="86.713747">
        <ele>3551.8</ele>
        <time>2022-10-29T07:09:24.000Z</time>
      </trkpt>
      <trkpt lat="27.805421" lon="86.713722">
        <ele>3551.8</ele>
        <time>2022-10-29T07:09:26.000Z</time>
      </trkpt>
      <trkpt lat="27.805414" lon="86.71369">
        <ele>3551.6</ele>
        <time>2022-10-29T07:09:28.000Z</time>
      </trkpt>
      <trkpt lat="27.805408" lon="86.713664">
        <ele>3551.6</ele>
        <time>2022-10-29T07:09:31.000Z</time>
      </trkpt>
      <trkpt lat="27.805402" lon="86.713645">
        <ele>3551.6</ele>
        <time>2022-10-29T07:09:32.000Z</time>
      </trkpt>
      <trkpt lat="27.805408" lon="86.713613">
        <ele>3551.6</ele>
        <time>2022-10-29T07:09:34.000Z</time>
      </trkpt>
      <trkpt lat="27.805402" lon="86.713574">
        <ele>3551.2</ele>
        <time>2022-10-29T07:09:37.000Z</time>
      </trkpt>
      <trkpt lat="27.805395" lon="86.713536">
        <ele>3551.6</ele>
        <time>2022-10-29T07:09:40.000Z</time>
      </trkpt>
      <trkpt lat="27.805392" lon="86.713504">
        <ele>3551.8</ele>
        <time>2022-10-29T07:09:43.000Z</time>
      </trkpt>
      <trkpt lat="27.805382" lon="86.713478">
        <ele>3551.6</ele>
        <time>2022-10-29T07:09:45.000Z</time>
      </trkpt>
      <trkpt lat="27.805379" lon="86.713453">
        <ele>3551.2</ele>
        <time>2022-10-29T07:09:47.000Z</time>
      </trkpt>
      <trkpt lat="27.805373" lon="86.713434">
        <ele>3551.2</ele>
        <time>2022-10-29T07:10:00.000Z</time>
      </trkpt>
      <trkpt lat="27.805376" lon="86.713408">
        <ele>3551</ele>
        <time>2022-10-29T07:10:02.000Z</time>
      </trkpt>
      <trkpt lat="27.805379" lon="86.713376">
        <ele>3550.6</ele>
        <time>2022-10-29T07:10:05.000Z</time>
      </trkpt>
      <trkpt lat="27.805373" lon="86.71335">
        <ele>3550.2</ele>
        <time>2022-10-29T07:10:08.000Z</time>
      </trkpt>
      <trkpt lat="27.805376" lon="86.713325">
        <ele>3549.8</ele>
        <time>2022-10-29T07:10:11.000Z</time>
      </trkpt>
      <trkpt lat="27.805373" lon="86.713286">
        <ele>3549.4</ele>
        <time>2022-10-29T07:10:15.000Z</time>
      </trkpt>
      <trkpt lat="27.805363" lon="86.713267">
        <ele>3548.6</ele>
        <time>2022-10-29T07:10:17.000Z</time>
      </trkpt>
      <trkpt lat="27.805363" lon="86.713242">
        <ele>3548.2</ele>
        <time>2022-10-29T07:10:19.000Z</time>
      </trkpt>
      <trkpt lat="27.805357" lon="86.713216">
        <ele>3547.8</ele>
        <time>2022-10-29T07:10:22.000Z</time>
      </trkpt>
      <trkpt lat="27.805354" lon="86.71319">
        <ele>3547.4</ele>
        <time>2022-10-29T07:10:24.000Z</time>
      </trkpt>
      <trkpt lat="27.80535" lon="86.713158">
        <ele>3546.8</ele>
        <time>2022-10-29T07:10:27.000Z</time>
      </trkpt>
      <trkpt lat="27.805354" lon="86.713133">
        <ele>3547</ele>
        <time>2022-10-29T07:10:29.000Z</time>
      </trkpt>
      <trkpt lat="27.805363" lon="86.713114">
        <ele>3546.6</ele>
        <time>2022-10-29T07:10:32.000Z</time>
      </trkpt>
      <trkpt lat="27.80537" lon="86.713094">
        <ele>3546</ele>
        <time>2022-10-29T07:10:34.000Z</time>
      </trkpt>
      <trkpt lat="27.80537" lon="86.713069">
        <ele>3545.8</ele>
        <time>2022-10-29T07:10:38.000Z</time>
      </trkpt>
      <trkpt lat="27.805373" lon="86.713043">
        <ele>3544.4</ele>
        <time>2022-10-29T07:10:48.000Z</time>
      </trkpt>
      <trkpt lat="27.805379" lon="86.713018">
        <ele>3544.4</ele>
        <time>2022-10-29T07:10:51.000Z</time>
      </trkpt>
      <trkpt lat="27.805392" lon="86.712998">
        <ele>3542.6</ele>
        <time>2022-10-29T07:12:11.000Z</time>
      </trkpt>
      <trkpt lat="27.805418" lon="86.712979">
        <ele>3542.4</ele>
        <time>2022-10-29T07:12:13.000Z</time>
      </trkpt>
      <trkpt lat="27.805443" lon="86.712973">
        <ele>3542</ele>
        <time>2022-10-29T07:12:15.000Z</time>
      </trkpt>
      <trkpt lat="27.805472" lon="86.71296">
        <ele>3541.4</ele>
        <time>2022-10-29T07:12:17.000Z</time>
      </trkpt>
      <trkpt lat="27.805488" lon="86.712947">
        <ele>3541</ele>
        <time>2022-10-29T07:12:19.000Z</time>
      </trkpt>
      <trkpt lat="27.805501" lon="86.712928">
        <ele>3541.2</ele>
        <time>2022-10-29T07:13:30.000Z</time>
      </trkpt>
      <trkpt lat="27.805526" lon="86.712909">
        <ele>3541</ele>
        <time>2022-10-29T07:13:32.000Z</time>
      </trkpt>
      <trkpt lat="27.805539" lon="86.71289">
        <ele>3540.6</ele>
        <time>2022-10-29T07:13:33.000Z</time>
      </trkpt>
      <trkpt lat="27.805568" lon="86.712877">
        <ele>3540</ele>
        <time>2022-10-29T07:13:35.000Z</time>
      </trkpt>
      <trkpt lat="27.805581" lon="86.712858">
        <ele>3539.8</ele>
        <time>2022-10-29T07:13:36.000Z</time>
      </trkpt>
      <trkpt lat="27.80561" lon="86.712838">
        <ele>3539.2</ele>
        <time>2022-10-29T07:13:38.000Z</time>
      </trkpt>
      <trkpt lat="27.805632" lon="86.712813">
        <ele>3538.8</ele>
        <time>2022-10-29T07:13:40.000Z</time>
      </trkpt>
      <trkpt lat="27.805651" lon="86.7128">
        <ele>3538.4</ele>
        <time>2022-10-29T07:13:42.000Z</time>
      </trkpt>
      <trkpt lat="27.80567" lon="86.712781">
        <ele>3538.2</ele>
        <time>2022-10-29T07:13:44.000Z</time>
      </trkpt>
      <trkpt lat="27.805693" lon="86.712768">
        <ele>3537.6</ele>
        <time>2022-10-29T07:13:46.000Z</time>
      </trkpt>
      <trkpt lat="27.805715" lon="86.712755">
        <ele>3537.4</ele>
        <time>2022-10-29T07:13:48.000Z</time>
      </trkpt>
      <trkpt lat="27.805738" lon="86.712736">
        <ele>3537.2</ele>
        <time>2022-10-29T07:13:50.000Z</time>
      </trkpt>
      <trkpt lat="27.80576" lon="86.71273">
        <ele>3536.8</ele>
        <time>2022-10-29T07:13:52.000Z</time>
      </trkpt>
      <trkpt lat="27.805779" lon="86.71271">
        <ele>3536.4</ele>
        <time>2022-10-29T07:13:54.000Z</time>
      </trkpt>
      <trkpt lat="27.805795" lon="86.712685">
        <ele>3536</ele>
        <time>2022-10-29T07:13:56.000Z</time>
      </trkpt>
      <trkpt lat="27.805821" lon="86.712659">
        <ele>3535.6</ele>
        <time>2022-10-29T07:13:59.000Z</time>
      </trkpt>
      <trkpt lat="27.80584" lon="86.712653">
        <ele>3535.6</ele>
        <time>2022-10-29T07:14:01.000Z</time>
      </trkpt>
      <trkpt lat="27.805859" lon="86.71264">
        <ele>3535.6</ele>
        <time>2022-10-29T07:14:03.000Z</time>
      </trkpt>
      <trkpt lat="27.805869" lon="86.712621">
        <ele>3536</ele>
        <time>2022-10-29T07:14:04.000Z</time>
      </trkpt>
      <trkpt lat="27.805888" lon="86.712602">
        <ele>3535</ele>
        <time>2022-10-29T07:14:07.000Z</time>
      </trkpt>
      <trkpt lat="27.805907" lon="86.712595">
        <ele>3535.8</ele>
        <time>2022-10-29T07:14:09.000Z</time>
      </trkpt>
      <trkpt lat="27.805914" lon="86.712576">
        <ele>3535.8</ele>
        <time>2022-10-29T07:14:10.000Z</time>
      </trkpt>
      <trkpt lat="27.805936" lon="86.712557">
        <ele>3535.6</ele>
        <time>2022-10-29T07:14:12.000Z</time>
      </trkpt>
      <trkpt lat="27.805955" lon="86.712538">
        <ele>3535.2</ele>
        <time>2022-10-29T07:14:14.000Z</time>
      </trkpt>
      <trkpt lat="27.805974" lon="86.712518">
        <ele>3534.8</ele>
        <time>2022-10-29T07:14:16.000Z</time>
      </trkpt>
      <trkpt lat="27.805997" lon="86.712499">
        <ele>3534.8</ele>
        <time>2022-10-29T07:14:18.000Z</time>
      </trkpt>
      <trkpt lat="27.806016" lon="86.71248">
        <ele>3534.6</ele>
        <time>2022-10-29T07:14:21.000Z</time>
      </trkpt>
      <trkpt lat="27.806026" lon="86.712461">
        <ele>3534.4</ele>
        <time>2022-10-29T07:14:23.000Z</time>
      </trkpt>
      <trkpt lat="27.806048" lon="86.712448">
        <ele>3534.6</ele>
        <time>2022-10-29T07:14:25.000Z</time>
      </trkpt>
      <trkpt lat="27.806064" lon="86.712416">
        <ele>3534.2</ele>
        <time>2022-10-29T07:14:27.000Z</time>
      </trkpt>
      <trkpt lat="27.806077" lon="86.712397">
        <ele>3534.2</ele>
        <time>2022-10-29T07:14:29.000Z</time>
      </trkpt>
      <trkpt lat="27.806083" lon="86.712378">
        <ele>3534.2</ele>
        <time>2022-10-29T07:14:30.000Z</time>
      </trkpt>
      <trkpt lat="27.806106" lon="86.712365">
        <ele>3534.6</ele>
        <time>2022-10-29T07:14:32.000Z</time>
      </trkpt>
      <trkpt lat="27.806125" lon="86.712352">
        <ele>3534.6</ele>
        <time>2022-10-29T07:14:34.000Z</time>
      </trkpt>
      <trkpt lat="27.806134" lon="86.712333">
        <ele>3534.2</ele>
        <time>2022-10-29T07:14:35.000Z</time>
      </trkpt>
      <trkpt lat="27.806154" lon="86.71232">
        <ele>3534</ele>
        <time>2022-10-29T07:14:37.000Z</time>
      </trkpt>
      <trkpt lat="27.806163" lon="86.712301">
        <ele>3534.2</ele>
        <time>2022-10-29T07:14:38.000Z</time>
      </trkpt>
      <trkpt lat="27.806179" lon="86.712282">
        <ele>3534.6</ele>
        <time>2022-10-29T07:14:41.000Z</time>
      </trkpt>
      <trkpt lat="27.806192" lon="86.712262">
        <ele>3533.6</ele>
        <time>2022-10-29T07:14:55.000Z</time>
      </trkpt>
      <trkpt lat="27.806218" lon="86.71225">
        <ele>3533.6</ele>
        <time>2022-10-29T07:14:58.000Z</time>
      </trkpt>
      <trkpt lat="27.806259" lon="86.712211">
        <ele>3533.8</ele>
        <time>2022-10-29T07:15:02.000Z</time>
      </trkpt>
      <trkpt lat="27.806282" lon="86.712198">
        <ele>3534</ele>
        <time>2022-10-29T07:15:04.000Z</time>
      </trkpt>
      <trkpt lat="27.806301" lon="86.712179">
        <ele>3534</ele>
        <time>2022-10-29T07:15:06.000Z</time>
      </trkpt>
      <trkpt lat="27.806326" lon="86.712166">
        <ele>3534.2</ele>
        <time>2022-10-29T07:15:08.000Z</time>
      </trkpt>
      <trkpt lat="27.806352" lon="86.712154">
        <ele>3534</ele>
        <time>2022-10-29T07:15:10.000Z</time>
      </trkpt>
      <trkpt lat="27.806378" lon="86.712134">
        <ele>3534</ele>
        <time>2022-10-29T07:15:12.000Z</time>
      </trkpt>
      <trkpt lat="27.806397" lon="86.712115">
        <ele>3533.8</ele>
        <time>2022-10-29T07:15:14.000Z</time>
      </trkpt>
      <trkpt lat="27.806413" lon="86.71209">
        <ele>3534</ele>
        <time>2022-10-29T07:15:16.000Z</time>
      </trkpt>
      <trkpt lat="27.806416" lon="86.712064">
        <ele>3533.6</ele>
        <time>2022-10-29T07:15:18.000Z</time>
      </trkpt>
      <trkpt lat="27.806413" lon="86.712026">
        <ele>3533.8</ele>
        <time>2022-10-29T07:15:21.000Z</time>
      </trkpt>
      <trkpt lat="27.806422" lon="86.712">
        <ele>3533.8</ele>
        <time>2022-10-29T07:15:23.000Z</time>
      </trkpt>
      <trkpt lat="27.806435" lon="86.711974">
        <ele>3533.2</ele>
        <time>2022-10-29T07:15:25.000Z</time>
      </trkpt>
      <trkpt lat="27.806454" lon="86.711955">
        <ele>3533.2</ele>
        <time>2022-10-29T07:15:27.000Z</time>
      </trkpt>
      <trkpt lat="27.806467" lon="86.71193">
        <ele>3533.2</ele>
        <time>2022-10-29T07:15:29.000Z</time>
      </trkpt>
      <trkpt lat="27.806474" lon="86.711898">
        <ele>3533.2</ele>
        <time>2022-10-29T07:15:31.000Z</time>
      </trkpt>
      <trkpt lat="27.806483" lon="86.711866">
        <ele>3533.2</ele>
        <time>2022-10-29T07:15:33.000Z</time>
      </trkpt>
      <trkpt lat="27.80649" lon="86.711846">
        <ele>3533.2</ele>
        <time>2022-10-29T07:15:35.000Z</time>
      </trkpt>
      <trkpt lat="27.806496" lon="86.711814">
        <ele>3532.8</ele>
        <time>2022-10-29T07:15:37.000Z</time>
      </trkpt>
      <trkpt lat="27.806506" lon="86.711789">
        <ele>3532.6</ele>
        <time>2022-10-29T07:15:39.000Z</time>
      </trkpt>
      <trkpt lat="27.806515" lon="86.711763">
        <ele>3532.8</ele>
        <time>2022-10-29T07:15:41.000Z</time>
      </trkpt>
      <trkpt lat="27.806522" lon="86.711744">
        <ele>3532.8</ele>
        <time>2022-10-29T07:15:42.000Z</time>
      </trkpt>
      <trkpt lat="27.806538" lon="86.711725">
        <ele>3532.8</ele>
        <time>2022-10-29T07:15:44.000Z</time>
      </trkpt>
      <trkpt lat="27.80655" lon="86.711699">
        <ele>3532.8</ele>
        <time>2022-10-29T07:15:46.000Z</time>
      </trkpt>
      <trkpt lat="27.80656" lon="86.71168">
        <ele>3533</ele>
        <time>2022-10-29T07:15:48.000Z</time>
      </trkpt>
      <trkpt lat="27.806566" lon="86.711661">
        <ele>3533</ele>
        <time>2022-10-29T07:15:49.000Z</time>
      </trkpt>
      <trkpt lat="27.806579" lon="86.711642">
        <ele>3532.4</ele>
        <time>2022-10-29T07:15:51.000Z</time>
      </trkpt>
      <trkpt lat="27.806589" lon="86.71161">
        <ele>3532</ele>
        <time>2022-10-29T07:15:53.000Z</time>
      </trkpt>
      <trkpt lat="27.806602" lon="86.711584">
        <ele>3531.8</ele>
        <time>2022-10-29T07:15:55.000Z</time>
      </trkpt>
      <trkpt lat="27.806614" lon="86.711565">
        <ele>3531.6</ele>
        <time>2022-10-29T07:15:57.000Z</time>
      </trkpt>
      <trkpt lat="27.806621" lon="86.711546">
        <ele>3531.6</ele>
        <time>2022-10-29T07:15:58.000Z</time>
      </trkpt>
      <trkpt lat="27.806637" lon="86.711526">
        <ele>3531.8</ele>
        <time>2022-10-29T07:16:00.000Z</time>
      </trkpt>
      <trkpt lat="27.806656" lon="86.711507">
        <ele>3531.6</ele>
        <time>2022-10-29T07:16:02.000Z</time>
      </trkpt>
      <trkpt lat="27.806669" lon="86.711488">
        <ele>3531.6</ele>
        <time>2022-10-29T07:16:04.000Z</time>
      </trkpt>
      <trkpt lat="27.806672" lon="86.711462">
        <ele>3531.4</ele>
        <time>2022-10-29T07:16:06.000Z</time>
      </trkpt>
      <trkpt lat="27.806685" lon="86.71143">
        <ele>3531.6</ele>
        <time>2022-10-29T07:16:09.000Z</time>
      </trkpt>
      <trkpt lat="27.806694" lon="86.711405">
        <ele>3531.8</ele>
        <time>2022-10-29T07:16:11.000Z</time>
      </trkpt>
      <trkpt lat="27.806701" lon="86.711386">
        <ele>3531.8</ele>
        <time>2022-10-29T07:16:12.000Z</time>
      </trkpt>
      <trkpt lat="27.80671" lon="86.711366">
        <ele>3532</ele>
        <time>2022-10-29T07:16:14.000Z</time>
      </trkpt>
      <trkpt lat="27.80673" lon="86.711347">
        <ele>3531.8</ele>
        <time>2022-10-29T07:16:16.000Z</time>
      </trkpt>
      <trkpt lat="27.806742" lon="86.711328">
        <ele>3532.2</ele>
        <time>2022-10-29T07:16:18.000Z</time>
      </trkpt>
      <trkpt lat="27.806762" lon="86.711309">
        <ele>3533.4</ele>
        <time>2022-10-29T07:16:20.000Z</time>
      </trkpt>
      <trkpt lat="27.806774" lon="86.71129">
        <ele>3533.4</ele>
        <time>2022-10-29T07:16:22.000Z</time>
      </trkpt>
      <trkpt lat="27.806781" lon="86.711264">
        <ele>3533</ele>
        <time>2022-10-29T07:16:24.000Z</time>
      </trkpt>
      <trkpt lat="27.806787" lon="86.711245">
        <ele>3532</ele>
        <time>2022-10-29T07:16:26.000Z</time>
      </trkpt>
      <trkpt lat="27.806787" lon="86.711213">
        <ele>3532</ele>
        <time>2022-10-29T07:16:28.000Z</time>
      </trkpt>
      <trkpt lat="27.806787" lon="86.711181">
        <ele>3532</ele>
        <time>2022-10-29T07:16:30.000Z</time>
      </trkpt>
      <trkpt lat="27.806794" lon="86.711162">
        <ele>3532</ele>
        <time>2022-10-29T07:16:32.000Z</time>
      </trkpt>
      <trkpt lat="27.8068" lon="86.71113">
        <ele>3532.2</ele>
        <time>2022-10-29T07:16:34.000Z</time>
      </trkpt>
      <trkpt lat="27.806806" lon="86.711104">
        <ele>3532</ele>
        <time>2022-10-29T07:16:37.000Z</time>
      </trkpt>
      <trkpt lat="27.806813" lon="86.711085">
        <ele>3532.6</ele>
        <time>2022-10-29T07:16:41.000Z</time>
      </trkpt>
      <trkpt lat="27.80681" lon="86.711059">
        <ele>3533.2</ele>
        <time>2022-10-29T07:16:47.000Z</time>
      </trkpt>
      <trkpt lat="27.806816" lon="86.711034">
        <ele>3532.2</ele>
        <time>2022-10-29T07:16:50.000Z</time>
      </trkpt>
      <trkpt lat="27.806829" lon="86.711014">
        <ele>3532.8</ele>
        <time>2022-10-29T07:16:54.000Z</time>
      </trkpt>
      <trkpt lat="27.806842" lon="86.710989">
        <ele>3533</ele>
        <time>2022-10-29T07:16:57.000Z</time>
      </trkpt>
      <trkpt lat="27.806854" lon="86.710963">
        <ele>3533.4</ele>
        <time>2022-10-29T07:17:00.000Z</time>
      </trkpt>
      <trkpt lat="27.806867" lon="86.710938">
        <ele>3533.4</ele>
        <time>2022-10-29T07:17:02.000Z</time>
      </trkpt>
      <trkpt lat="27.80687" lon="86.710912">
        <ele>3533</ele>
        <time>2022-10-29T07:17:04.000Z</time>
      </trkpt>
      <trkpt lat="27.80688" lon="86.710893">
        <ele>3533.2</ele>
        <time>2022-10-29T07:17:06.000Z</time>
      </trkpt>
      <trkpt lat="27.806886" lon="86.710861">
        <ele>3533.2</ele>
        <time>2022-10-29T07:17:08.000Z</time>
      </trkpt>
      <trkpt lat="27.80689" lon="86.710835">
        <ele>3533.4</ele>
        <time>2022-10-29T07:17:10.000Z</time>
      </trkpt>
      <trkpt lat="27.806899" lon="86.710816">
        <ele>3533.4</ele>
        <time>2022-10-29T07:17:12.000Z</time>
      </trkpt>
      <trkpt lat="27.806909" lon="86.71079">
        <ele>3533.8</ele>
        <time>2022-10-29T07:17:14.000Z</time>
      </trkpt>
      <trkpt lat="27.806918" lon="86.710771">
        <ele>3533.8</ele>
        <time>2022-10-29T07:17:16.000Z</time>
      </trkpt>
      <trkpt lat="27.806922" lon="86.710739">
        <ele>3534.2</ele>
        <time>2022-10-29T07:17:18.000Z</time>
      </trkpt>
      <trkpt lat="27.806931" lon="86.710714">
        <ele>3534.4</ele>
        <time>2022-10-29T07:17:20.000Z</time>
      </trkpt>
      <trkpt lat="27.806944" lon="86.710688">
        <ele>3534.2</ele>
        <time>2022-10-29T07:17:22.000Z</time>
      </trkpt>
      <trkpt lat="27.806954" lon="86.710656">
        <ele>3534.2</ele>
        <time>2022-10-29T07:17:24.000Z</time>
      </trkpt>
      <trkpt lat="27.80696" lon="86.71063">
        <ele>3534</ele>
        <time>2022-10-29T07:17:26.000Z</time>
      </trkpt>
      <trkpt lat="27.80697" lon="86.710611">
        <ele>3534</ele>
        <time>2022-10-29T07:17:28.000Z</time>
      </trkpt>
      <trkpt lat="27.806976" lon="86.710579">
        <ele>3534</ele>
        <time>2022-10-29T07:17:30.000Z</time>
      </trkpt>
      <trkpt lat="27.806976" lon="86.710554">
        <ele>3534</ele>
        <time>2022-10-29T07:17:32.000Z</time>
      </trkpt>
      <trkpt lat="27.806966" lon="86.710515">
        <ele>3533.4</ele>
        <time>2022-10-29T07:17:35.000Z</time>
      </trkpt>
      <trkpt lat="27.80695" lon="86.710496">
        <ele>3533.4</ele>
        <time>2022-10-29T07:17:37.000Z</time>
      </trkpt>
      <trkpt lat="27.806938" lon="86.710477">
        <ele>3533.4</ele>
        <time>2022-10-29T07:17:39.000Z</time>
      </trkpt>
      <trkpt lat="27.806928" lon="86.710458">
        <ele>3533.4</ele>
        <time>2022-10-29T07:17:42.000Z</time>
      </trkpt>
      <trkpt lat="27.806918" lon="86.710432">
        <ele>3533.4</ele>
        <time>2022-10-29T07:17:44.000Z</time>
      </trkpt>
      <trkpt lat="27.806912" lon="86.710406">
        <ele>3533.4</ele>
        <time>2022-10-29T07:17:46.000Z</time>
      </trkpt>
      <trkpt lat="27.806906" lon="86.710374">
        <ele>3532.2</ele>
        <time>2022-10-29T07:17:48.000Z</time>
      </trkpt>
      <trkpt lat="27.806899" lon="86.710349">
        <ele>3532.2</ele>
        <time>2022-10-29T07:17:50.000Z</time>
      </trkpt>
      <trkpt lat="27.806893" lon="86.71033">
        <ele>3532.2</ele>
        <time>2022-10-29T07:17:52.000Z</time>
      </trkpt>
      <trkpt lat="27.80689" lon="86.710298">
        <ele>3533</ele>
        <time>2022-10-29T07:18:11.000Z</time>
      </trkpt>
      <trkpt lat="27.806883" lon="86.710278">
        <ele>3533</ele>
        <time>2022-10-29T07:18:12.000Z</time>
      </trkpt>
      <trkpt lat="27.80688" lon="86.710246">
        <ele>3532.2</ele>
        <time>2022-10-29T07:18:15.000Z</time>
      </trkpt>
      <trkpt lat="27.80688" lon="86.710221">
        <ele>3532.2</ele>
        <time>2022-10-29T07:18:17.000Z</time>
      </trkpt>
      <trkpt lat="27.806877" lon="86.710189">
        <ele>3531.8</ele>
        <time>2022-10-29T07:18:19.000Z</time>
      </trkpt>
      <trkpt lat="27.806864" lon="86.710157">
        <ele>3532</ele>
        <time>2022-10-29T07:18:21.000Z</time>
      </trkpt>
      <trkpt lat="27.806854" lon="86.710131">
        <ele>3532.2</ele>
        <time>2022-10-29T07:18:23.000Z</time>
      </trkpt>
      <trkpt lat="27.806848" lon="86.710106">
        <ele>3532</ele>
        <time>2022-10-29T07:18:25.000Z</time>
      </trkpt>
      <trkpt lat="27.806832" lon="86.710074">
        <ele>3531.4</ele>
        <time>2022-10-29T07:18:27.000Z</time>
      </trkpt>
      <trkpt lat="27.806813" lon="86.710048">
        <ele>3531.4</ele>
        <time>2022-10-29T07:18:29.000Z</time>
      </trkpt>
      <trkpt lat="27.8068" lon="86.710022">
        <ele>3532</ele>
        <time>2022-10-29T07:18:31.000Z</time>
      </trkpt>
      <trkpt lat="27.806778" lon="86.70999">
        <ele>3532.4</ele>
        <time>2022-10-29T07:18:33.000Z</time>
      </trkpt>
      <trkpt lat="27.806768" lon="86.709971">
        <ele>3532.4</ele>
        <time>2022-10-29T07:18:35.000Z</time>
      </trkpt>
      <trkpt lat="27.806758" lon="86.709946">
        <ele>3532</ele>
        <time>2022-10-29T07:18:37.000Z</time>
      </trkpt>
      <trkpt lat="27.806758" lon="86.70992">
        <ele>3532.2</ele>
        <time>2022-10-29T07:18:40.000Z</time>
      </trkpt>
      <trkpt lat="27.806758" lon="86.709894">
        <ele>3532.6</ele>
        <time>2022-10-29T07:18:42.000Z</time>
      </trkpt>
      <trkpt lat="27.806742" lon="86.709869">
        <ele>3531.4</ele>
        <time>2022-10-29T07:18:46.000Z</time>
      </trkpt>
      <trkpt lat="27.80673" lon="86.70985">
        <ele>3529.8</ele>
        <time>2022-10-29T07:18:49.000Z</time>
      </trkpt>
      <trkpt lat="27.806717" lon="86.709824">
        <ele>3530</ele>
        <time>2022-10-29T07:18:51.000Z</time>
      </trkpt>
      <trkpt lat="27.806701" lon="86.709798">
        <ele>3529.8</ele>
        <time>2022-10-29T07:18:54.000Z</time>
      </trkpt>
      <trkpt lat="27.806682" lon="86.709779">
        <ele>3529.8</ele>
        <time>2022-10-29T07:18:57.000Z</time>
      </trkpt>
      <trkpt lat="27.806669" lon="86.70976">
        <ele>3528.2</ele>
        <time>2022-10-29T07:18:59.000Z</time>
      </trkpt>
      <trkpt lat="27.806653" lon="86.709741">
        <ele>3527.6</ele>
        <time>2022-10-29T07:19:01.000Z</time>
      </trkpt>
      <trkpt lat="27.806637" lon="86.709722">
        <ele>3527.4</ele>
        <time>2022-10-29T07:19:03.000Z</time>
      </trkpt>
      <trkpt lat="27.806618" lon="86.709709">
        <ele>3526.4</ele>
        <time>2022-10-29T07:19:06.000Z</time>
      </trkpt>
      <trkpt lat="27.806595" lon="86.709696">
        <ele>3526.2</ele>
        <time>2022-10-29T07:19:09.000Z</time>
      </trkpt>
      <trkpt lat="27.806579" lon="86.709677">
        <ele>3525.2</ele>
        <time>2022-10-29T07:19:12.000Z</time>
      </trkpt>
      <trkpt lat="27.80656" lon="86.709664">
        <ele>3525.2</ele>
        <time>2022-10-29T07:19:16.000Z</time>
      </trkpt>
      <trkpt lat="27.806534" lon="86.709651">
        <ele>3524.2</ele>
        <time>2022-10-29T07:19:19.000Z</time>
      </trkpt>
      <trkpt lat="27.806522" lon="86.709626">
        <ele>3523.8</ele>
        <time>2022-10-29T07:19:21.000Z</time>
      </trkpt>
      <trkpt lat="27.806499" lon="86.709619">
        <ele>3522.6</ele>
        <time>2022-10-29T07:19:24.000Z</time>
      </trkpt>
      <trkpt lat="27.80648" lon="86.7096">
        <ele>3522.4</ele>
        <time>2022-10-29T07:19:26.000Z</time>
      </trkpt>
      <trkpt lat="27.806458" lon="86.709594">
        <ele>3522</ele>
        <time>2022-10-29T07:19:28.000Z</time>
      </trkpt>
      <trkpt lat="27.806435" lon="86.709587">
        <ele>3521.4</ele>
        <time>2022-10-29T07:19:30.000Z</time>
      </trkpt>
      <trkpt lat="27.806416" lon="86.709574">
        <ele>3521.2</ele>
        <time>2022-10-29T07:19:32.000Z</time>
      </trkpt>
      <trkpt lat="27.806394" lon="86.709555">
        <ele>3521.2</ele>
        <time>2022-10-29T07:19:34.000Z</time>
      </trkpt>
      <trkpt lat="27.806374" lon="86.709542">
        <ele>3520.2</ele>
        <time>2022-10-29T07:19:36.000Z</time>
      </trkpt>
      <trkpt lat="27.806355" lon="86.709517">
        <ele>3520</ele>
        <time>2022-10-29T07:19:38.000Z</time>
      </trkpt>
      <trkpt lat="27.806336" lon="86.709504">
        <ele>3519.6</ele>
        <time>2022-10-29T07:19:40.000Z</time>
      </trkpt>
      <trkpt lat="27.806317" lon="86.709485">
        <ele>3519</ele>
        <time>2022-10-29T07:19:42.000Z</time>
      </trkpt>
      <trkpt lat="27.806285" lon="86.709478">
        <ele>3519</ele>
        <time>2022-10-29T07:19:45.000Z</time>
      </trkpt>
      <trkpt lat="27.806262" lon="86.709472">
        <ele>3518.6</ele>
        <time>2022-10-29T07:19:47.000Z</time>
      </trkpt>
      <trkpt lat="27.806243" lon="86.709466">
        <ele>3518.6</ele>
        <time>2022-10-29T07:19:49.000Z</time>
      </trkpt>
      <trkpt lat="27.806224" lon="86.709453">
        <ele>3518.4</ele>
        <time>2022-10-29T07:19:51.000Z</time>
      </trkpt>
      <trkpt lat="27.806208" lon="86.70944">
        <ele>3517.6</ele>
        <time>2022-10-29T07:19:53.000Z</time>
      </trkpt>
      <trkpt lat="27.806192" lon="86.709427">
        <ele>3517.4</ele>
        <time>2022-10-29T07:19:55.000Z</time>
      </trkpt>
      <trkpt lat="27.80617" lon="86.709427">
        <ele>3517.4</ele>
        <time>2022-10-29T07:19:57.000Z</time>
      </trkpt>
      <trkpt lat="27.806154" lon="86.709414">
        <ele>3516.2</ele>
        <time>2022-10-29T07:19:59.000Z</time>
      </trkpt>
      <trkpt lat="27.806134" lon="86.709402">
        <ele>3515.6</ele>
        <time>2022-10-29T07:20:01.000Z</time>
      </trkpt>
      <trkpt lat="27.806112" lon="86.709389">
        <ele>3515</ele>
        <time>2022-10-29T07:20:04.000Z</time>
      </trkpt>
      <trkpt lat="27.806096" lon="86.709376">
        <ele>3514.8</ele>
        <time>2022-10-29T07:20:06.000Z</time>
      </trkpt>
      <trkpt lat="27.806077" lon="86.709363">
        <ele>3514.6</ele>
        <time>2022-10-29T07:20:08.000Z</time>
      </trkpt>
      <trkpt lat="27.806051" lon="86.709357">
        <ele>3513.6</ele>
        <time>2022-10-29T07:20:11.000Z</time>
      </trkpt>
      <trkpt lat="27.806026" lon="86.709344">
        <ele>3513.4</ele>
        <time>2022-10-29T07:20:14.000Z</time>
      </trkpt>
      <trkpt lat="27.806006" lon="86.709344">
        <ele>3513</ele>
        <time>2022-10-29T07:20:16.000Z</time>
      </trkpt>
      <trkpt lat="27.805987" lon="86.709325">
        <ele>3512.8</ele>
        <time>2022-10-29T07:20:18.000Z</time>
      </trkpt>
      <trkpt lat="27.805968" lon="86.709318">
        <ele>3512.4</ele>
        <time>2022-10-29T07:20:20.000Z</time>
      </trkpt>
      <trkpt lat="27.805949" lon="86.709312">
        <ele>3512</ele>
        <time>2022-10-29T07:20:22.000Z</time>
      </trkpt>
      <trkpt lat="27.80593" lon="86.709312">
        <ele>3511.8</ele>
        <time>2022-10-29T07:20:24.000Z</time>
      </trkpt>
      <trkpt lat="27.805904" lon="86.709299">
        <ele>3511.2</ele>
        <time>2022-10-29T07:20:27.000Z</time>
      </trkpt>
      <trkpt lat="27.805882" lon="86.709306">
        <ele>3510.8</ele>
        <time>2022-10-29T07:20:29.000Z</time>
      </trkpt>
      <trkpt lat="27.805862" lon="86.709299">
        <ele>3510.2</ele>
        <time>2022-10-29T07:20:31.000Z</time>
      </trkpt>
      <trkpt lat="27.805846" lon="86.709286">
        <ele>3509.6</ele>
        <time>2022-10-29T07:20:33.000Z</time>
      </trkpt>
      <trkpt lat="27.805824" lon="86.709286">
        <ele>3509</ele>
        <time>2022-10-29T07:20:35.000Z</time>
      </trkpt>
      <trkpt lat="27.805805" lon="86.709286">
        <ele>3508.8</ele>
        <time>2022-10-29T07:20:39.000Z</time>
      </trkpt>
      <trkpt lat="27.805805" lon="86.709312">
        <ele>3508</ele>
        <time>2022-10-29T07:20:45.000Z</time>
      </trkpt>
      <trkpt lat="27.805798" lon="86.709338">
        <ele>3506</ele>
        <time>2022-10-29T07:20:51.000Z</time>
      </trkpt>
      <trkpt lat="27.805802" lon="86.709363">
        <ele>3504.4</ele>
        <time>2022-10-29T07:20:55.000Z</time>
      </trkpt>
      <trkpt lat="27.805798" lon="86.709389">
        <ele>3503.8</ele>
        <time>2022-10-29T07:20:58.000Z</time>
      </trkpt>
      <trkpt lat="27.805789" lon="86.709414">
        <ele>3503</ele>
        <time>2022-10-29T07:21:01.000Z</time>
      </trkpt>
      <trkpt lat="27.805795" lon="86.709434">
        <ele>3501.8</ele>
        <time>2022-10-29T07:21:04.000Z</time>
      </trkpt>
      <trkpt lat="27.805814" lon="86.70944">
        <ele>3501.2</ele>
        <time>2022-10-29T07:21:08.000Z</time>
      </trkpt>
      <trkpt lat="27.805827" lon="86.709459">
        <ele>3500.4</ele>
        <time>2022-10-29T07:21:10.000Z</time>
      </trkpt>
      <trkpt lat="27.805811" lon="86.709478">
        <ele>3498.8</ele>
        <time>2022-10-29T07:21:15.000Z</time>
      </trkpt>
      <trkpt lat="27.805805" lon="86.709498">
        <ele>3497.6</ele>
        <time>2022-10-29T07:21:18.000Z</time>
      </trkpt>
      <trkpt lat="27.805818" lon="86.709523">
        <ele>3497.4</ele>
        <time>2022-10-29T07:21:22.000Z</time>
      </trkpt>
      <trkpt lat="27.80583" lon="86.709542">
        <ele>3495.8</ele>
        <time>2022-10-29T07:21:25.000Z</time>
      </trkpt>
      <trkpt lat="27.805824" lon="86.709562">
        <ele>3495</ele>
        <time>2022-10-29T07:21:28.000Z</time>
      </trkpt>
      <trkpt lat="27.805805" lon="86.709574">
        <ele>3494.2</ele>
        <time>2022-10-29T07:21:31.000Z</time>
      </trkpt>
      <trkpt lat="27.805789" lon="86.709555">
        <ele>3493.6</ele>
        <time>2022-10-29T07:21:34.000Z</time>
      </trkpt>
      <trkpt lat="27.80577" lon="86.709549">
        <ele>3492.4</ele>
        <time>2022-10-29T07:21:37.000Z</time>
      </trkpt>
      <trkpt lat="27.80575" lon="86.709542">
        <ele>3491.8</ele>
        <time>2022-10-29T07:21:40.000Z</time>
      </trkpt>
      <trkpt lat="27.805731" lon="86.709536">
        <ele>3490.8</ele>
        <time>2022-10-29T07:21:43.000Z</time>
      </trkpt>
      <trkpt lat="27.805718" lon="86.709517">
        <ele>3490.4</ele>
        <time>2022-10-29T07:21:45.000Z</time>
      </trkpt>
      <trkpt lat="27.805699" lon="86.709498">
        <ele>3488.6</ele>
        <time>2022-10-29T07:21:50.000Z</time>
      </trkpt>
      <trkpt lat="27.805683" lon="86.70951">
        <ele>3487.4</ele>
        <time>2022-10-29T07:21:54.000Z</time>
      </trkpt>
      <trkpt lat="27.805664" lon="86.709504">
        <ele>3486.6</ele>
        <time>2022-10-29T07:21:57.000Z</time>
      </trkpt>
      <trkpt lat="27.805638" lon="86.70951">
        <ele>3485.8</ele>
        <time>2022-10-29T07:22:00.000Z</time>
      </trkpt>
      <trkpt lat="27.805619" lon="86.709517">
        <ele>3484.8</ele>
        <time>2022-10-29T07:22:03.000Z</time>
      </trkpt>
      <trkpt lat="27.8056" lon="86.709504">
        <ele>3484.4</ele>
        <time>2022-10-29T07:22:06.000Z</time>
      </trkpt>
      <trkpt lat="27.805581" lon="86.709498">
        <ele>3484.4</ele>
        <time>2022-10-29T07:22:09.000Z</time>
      </trkpt>
      <trkpt lat="27.805562" lon="86.709485">
        <ele>3484.4</ele>
        <time>2022-10-29T07:22:11.000Z</time>
      </trkpt>
      <trkpt lat="27.805539" lon="86.709478">
        <ele>3484.2</ele>
        <time>2022-10-29T07:22:13.000Z</time>
      </trkpt>
      <trkpt lat="27.805517" lon="86.709472">
        <ele>3484.2</ele>
        <time>2022-10-29T07:22:15.000Z</time>
      </trkpt>
      <trkpt lat="27.805498" lon="86.709453">
        <ele>3483.8</ele>
        <time>2022-10-29T07:22:17.000Z</time>
      </trkpt>
      <trkpt lat="27.805478" lon="86.709427">
        <ele>3483</ele>
        <time>2022-10-29T07:22:19.000Z</time>
      </trkpt>
      <trkpt lat="27.805453" lon="86.709414">
        <ele>3482.4</ele>
        <time>2022-10-29T07:22:21.000Z</time>
      </trkpt>
      <trkpt lat="27.80544" lon="86.709395">
        <ele>3482</ele>
        <time>2022-10-29T07:22:23.000Z</time>
      </trkpt>
      <trkpt lat="27.805421" lon="86.709376">
        <ele>3481.8</ele>
        <time>2022-10-29T07:22:26.000Z</time>
      </trkpt>
      <trkpt lat="27.805408" lon="86.709357">
        <ele>3481.6</ele>
        <time>2022-10-29T07:22:28.000Z</time>
      </trkpt>
      <trkpt lat="27.805389" lon="86.709338">
        <ele>3481.4</ele>
        <time>2022-10-29T07:22:30.000Z</time>
      </trkpt>
      <trkpt lat="27.805366" lon="86.709318">
        <ele>3481.2</ele>
        <time>2022-10-29T07:22:32.000Z</time>
      </trkpt>
      <trkpt lat="27.805344" lon="86.709312">
        <ele>3480.4</ele>
        <time>2022-10-29T07:22:34.000Z</time>
      </trkpt>
      <trkpt lat="27.805322" lon="86.709306">
        <ele>3480.2</ele>
        <time>2022-10-29T07:22:36.000Z</time>
      </trkpt>
      <trkpt lat="27.805302" lon="86.709306">
        <ele>3479.4</ele>
        <time>2022-10-29T07:22:38.000Z</time>
      </trkpt>
      <trkpt lat="27.80529" lon="86.709286">
        <ele>3479.4</ele>
        <time>2022-10-29T07:22:40.000Z</time>
      </trkpt>
      <trkpt lat="27.80527" lon="86.709274">
        <ele>3479</ele>
        <time>2022-10-29T07:22:42.000Z</time>
      </trkpt>
      <trkpt lat="27.80528" lon="86.709299">
        <ele>3478.8</ele>
        <time>2022-10-29T07:22:48.000Z</time>
      </trkpt>
      <trkpt lat="27.805296" lon="86.709318">
        <ele>3478.6</ele>
        <time>2022-10-29T07:22:51.000Z</time>
      </trkpt>
      <trkpt lat="27.805302" lon="86.709338">
        <ele>3478</ele>
        <time>2022-10-29T07:22:52.000Z</time>
      </trkpt>
      <trkpt lat="27.805312" lon="86.709357">
        <ele>3477.4</ele>
        <time>2022-10-29T07:22:55.000Z</time>
      </trkpt>
      <trkpt lat="27.805322" lon="86.709376">
        <ele>3477.2</ele>
        <time>2022-10-29T07:22:56.000Z</time>
      </trkpt>
      <trkpt lat="27.805334" lon="86.709395">
        <ele>3476</ele>
        <time>2022-10-29T07:22:59.000Z</time>
      </trkpt>
      <trkpt lat="27.805341" lon="86.709421">
        <ele>3475.2</ele>
        <time>2022-10-29T07:23:01.000Z</time>
      </trkpt>
      <trkpt lat="27.805347" lon="86.70944">
        <ele>3475</ele>
        <time>2022-10-29T07:23:03.000Z</time>
      </trkpt>
      <trkpt lat="27.80535" lon="86.709466">
        <ele>3474.6</ele>
        <time>2022-10-29T07:23:06.000Z</time>
      </trkpt>
      <trkpt lat="27.805363" lon="86.709485">
        <ele>3473.6</ele>
        <time>2022-10-29T07:23:11.000Z</time>
      </trkpt>
      <trkpt lat="27.80537" lon="86.70951">
        <ele>3472.8</ele>
        <time>2022-10-29T07:23:14.000Z</time>
      </trkpt>
      <trkpt lat="27.805373" lon="86.709536">
        <ele>3472.4</ele>
        <time>2022-10-29T07:23:17.000Z</time>
      </trkpt>
      <trkpt lat="27.805389" lon="86.709549">
        <ele>3471.8</ele>
        <time>2022-10-29T07:23:21.000Z</time>
      </trkpt>
      <trkpt lat="27.805402" lon="86.709574">
        <ele>3470.8</ele>
        <time>2022-10-29T07:23:25.000Z</time>
      </trkpt>
      <trkpt lat="27.805402" lon="86.7096">
        <ele>3469.6</ele>
        <time>2022-10-29T07:23:29.000Z</time>
      </trkpt>
      <trkpt lat="27.805402" lon="86.709626">
        <ele>3468.4</ele>
        <time>2022-10-29T07:23:32.000Z</time>
      </trkpt>
      <trkpt lat="27.805402" lon="86.709651">
        <ele>3468</ele>
        <time>2022-10-29T07:23:35.000Z</time>
      </trkpt>
      <trkpt lat="27.805408" lon="86.70967">
        <ele>3466.8</ele>
        <time>2022-10-29T07:23:38.000Z</time>
      </trkpt>
      <trkpt lat="27.805421" lon="86.709696">
        <ele>3466.2</ele>
        <time>2022-10-29T07:23:43.000Z</time>
      </trkpt>
      <trkpt lat="27.805421" lon="86.709722">
        <ele>3465.4</ele>
        <time>2022-10-29T07:23:51.000Z</time>
      </trkpt>
      <trkpt lat="27.805421" lon="86.709747">
        <ele>3464.6</ele>
        <time>2022-10-29T07:23:53.000Z</time>
      </trkpt>
      <trkpt lat="27.805421" lon="86.709773">
        <ele>3464</ele>
        <time>2022-10-29T07:23:55.000Z</time>
      </trkpt>
      <trkpt lat="27.805434" lon="86.709792">
        <ele>3463.4</ele>
        <time>2022-10-29T07:23:58.000Z</time>
      </trkpt>
      <trkpt lat="27.80544" lon="86.709811">
        <ele>3462.8</ele>
        <time>2022-10-29T07:24:00.000Z</time>
      </trkpt>
      <trkpt lat="27.805434" lon="86.70983">
        <ele>3462.4</ele>
        <time>2022-10-29T07:24:03.000Z</time>
      </trkpt>
      <trkpt lat="27.80544" lon="86.70985">
        <ele>3461.2</ele>
        <time>2022-10-29T07:24:06.000Z</time>
      </trkpt>
      <trkpt lat="27.805427" lon="86.709869">
        <ele>3460.6</ele>
        <time>2022-10-29T07:24:09.000Z</time>
      </trkpt>
      <trkpt lat="27.805411" lon="86.709856">
        <ele>3460</ele>
        <time>2022-10-29T07:24:12.000Z</time>
      </trkpt>
      <trkpt lat="27.805389" lon="86.709837">
        <ele>3459.4</ele>
        <time>2022-10-29T07:24:15.000Z</time>
      </trkpt>
      <trkpt lat="27.805376" lon="86.709856">
        <ele>3458.8</ele>
        <time>2022-10-29T07:24:18.000Z</time>
      </trkpt>
      <trkpt lat="27.805379" lon="86.709882">
        <ele>3457.4</ele>
        <time>2022-10-29T07:24:22.000Z</time>
      </trkpt>
      <trkpt lat="27.805382" lon="86.709907">
        <ele>3457</ele>
        <time>2022-10-29T07:24:24.000Z</time>
      </trkpt>
      <trkpt lat="27.805382" lon="86.709933">
        <ele>3456.2</ele>
        <time>2022-10-29T07:24:27.000Z</time>
      </trkpt>
      <trkpt lat="27.805389" lon="86.709952">
        <ele>3455.4</ele>
        <time>2022-10-29T07:24:29.000Z</time>
      </trkpt>
      <trkpt lat="27.805389" lon="86.709978">
        <ele>3455.2</ele>
        <time>2022-10-29T07:24:32.000Z</time>
      </trkpt>
      <trkpt lat="27.805373" lon="86.70999">
        <ele>3454</ele>
        <time>2022-10-29T07:24:36.000Z</time>
      </trkpt>
      <trkpt lat="27.805354" lon="86.709984">
        <ele>3453.4</ele>
        <time>2022-10-29T07:24:40.000Z</time>
      </trkpt>
      <trkpt lat="27.805334" lon="86.709971">
        <ele>3452.6</ele>
        <time>2022-10-29T07:24:45.000Z</time>
      </trkpt>
      <trkpt lat="27.805318" lon="86.709958">
        <ele>3451.8</ele>
        <time>2022-10-29T07:24:48.000Z</time>
      </trkpt>
      <trkpt lat="27.805299" lon="86.709952">
        <ele>3451</ele>
        <time>2022-10-29T07:24:50.000Z</time>
      </trkpt>
      <trkpt lat="27.80529" lon="86.70992">
        <ele>3450.8</ele>
        <time>2022-10-29T07:24:52.000Z</time>
      </trkpt>
      <trkpt lat="27.805283" lon="86.709901">
        <ele>3450.6</ele>
        <time>2022-10-29T07:24:55.000Z</time>
      </trkpt>
      <trkpt lat="27.805274" lon="86.709882">
        <ele>3450</ele>
        <time>2022-10-29T07:25:02.000Z</time>
      </trkpt>
      <trkpt lat="27.805254" lon="86.709875">
        <ele>3449.6</ele>
        <time>2022-10-29T07:25:08.000Z</time>
      </trkpt>
      <trkpt lat="27.805232" lon="86.709882">
        <ele>3449.2</ele>
        <time>2022-10-29T07:25:14.000Z</time>
      </trkpt>
      <trkpt lat="27.805216" lon="86.709901">
        <ele>3449.2</ele>
        <time>2022-10-29T07:25:16.000Z</time>
      </trkpt>
      <trkpt lat="27.8052" lon="86.709914">
        <ele>3448.8</ele>
        <time>2022-10-29T07:25:18.000Z</time>
      </trkpt>
      <trkpt lat="27.80519" lon="86.709933">
        <ele>3448.4</ele>
        <time>2022-10-29T07:25:20.000Z</time>
      </trkpt>
      <trkpt lat="27.805174" lon="86.709946">
        <ele>3447.8</ele>
        <time>2022-10-29T07:26:08.000Z</time>
      </trkpt>
      <trkpt lat="27.805158" lon="86.709958">
        <ele>3447.6</ele>
        <time>2022-10-29T07:26:11.000Z</time>
      </trkpt>
      <trkpt lat="27.805139" lon="86.709971">
        <ele>3447.6</ele>
        <time>2022-10-29T07:26:15.000Z</time>
      </trkpt>
      <trkpt lat="27.805123" lon="86.709984">
        <ele>3447.4</ele>
        <time>2022-10-29T07:26:17.000Z</time>
      </trkpt>
      <trkpt lat="27.805104" lon="86.71001">
        <ele>3447.6</ele>
        <time>2022-10-29T07:26:20.000Z</time>
      </trkpt>
      <trkpt lat="27.805091" lon="86.710029">
        <ele>3447.6</ele>
        <time>2022-10-29T07:26:22.000Z</time>
      </trkpt>
      <trkpt lat="27.805085" lon="86.710054">
        <ele>3447.4</ele>
        <time>2022-10-29T07:26:24.000Z</time>
      </trkpt>
      <trkpt lat="27.805059" lon="86.710067">
        <ele>3446.8</ele>
        <time>2022-10-29T07:26:26.000Z</time>
      </trkpt>
      <trkpt lat="27.805075" lon="86.71008">
        <ele>3446.6</ele>
        <time>2022-10-29T07:26:27.000Z</time>
      </trkpt>
      <trkpt lat="27.805094" lon="86.710099">
        <ele>3446.4</ele>
        <time>2022-10-29T07:26:28.000Z</time>
      </trkpt>
      <trkpt lat="27.805072" lon="86.710106">
        <ele>3446</ele>
        <time>2022-10-29T07:26:30.000Z</time>
      </trkpt>
      <trkpt lat="27.805053" lon="86.710112">
        <ele>3446.2</ele>
        <time>2022-10-29T07:26:43.000Z</time>
      </trkpt>
      <trkpt lat="27.805046" lon="86.710131">
        <ele>3446</ele>
        <time>2022-10-29T07:26:44.000Z</time>
      </trkpt>
      <trkpt lat="27.80504" lon="86.710157">
        <ele>3446.2</ele>
        <time>2022-10-29T07:26:47.000Z</time>
      </trkpt>
      <trkpt lat="27.80504" lon="86.710182">
        <ele>3446.2</ele>
        <time>2022-10-29T07:26:49.000Z</time>
      </trkpt>
      <trkpt lat="27.805018" lon="86.710195">
        <ele>3446</ele>
        <time>2022-10-29T07:26:51.000Z</time>
      </trkpt>
      <trkpt lat="27.805008" lon="86.710214">
        <ele>3445.6</ele>
        <time>2022-10-29T07:26:54.000Z</time>
      </trkpt>
      <trkpt lat="27.805014" lon="86.710234">
        <ele>3446</ele>
        <time>2022-10-29T07:26:56.000Z</time>
      </trkpt>
      <trkpt lat="27.805021" lon="86.710253">
        <ele>3446</ele>
        <time>2022-10-29T07:26:57.000Z</time>
      </trkpt>
      <trkpt lat="27.805027" lon="86.710272">
        <ele>3445.6</ele>
        <time>2022-10-29T07:26:58.000Z</time>
      </trkpt>
      <trkpt lat="27.805014" lon="86.710291">
        <ele>3445.2</ele>
        <time>2022-10-29T07:27:01.000Z</time>
      </trkpt>
      <trkpt lat="27.804995" lon="86.710304">
        <ele>3445.6</ele>
        <time>2022-10-29T07:27:10.000Z</time>
      </trkpt>
      <trkpt lat="27.804973" lon="86.71033">
        <ele>3445.6</ele>
        <time>2022-10-29T07:27:12.000Z</time>
      </trkpt>
      <trkpt lat="27.804957" lon="86.710349">
        <ele>3445.6</ele>
        <time>2022-10-29T07:27:14.000Z</time>
      </trkpt>
      <trkpt lat="27.804938" lon="86.710374">
        <ele>3445.6</ele>
        <time>2022-10-29T07:27:16.000Z</time>
      </trkpt>
      <trkpt lat="27.804931" lon="86.710406">
        <ele>3445.4</ele>
        <time>2022-10-29T07:27:18.000Z</time>
      </trkpt>
      <trkpt lat="27.804912" lon="86.710426">
        <ele>3445.6</ele>
        <time>2022-10-29T07:27:21.000Z</time>
      </trkpt>
      <trkpt lat="27.804906" lon="86.710451">
        <ele>3445.4</ele>
        <time>2022-10-29T07:27:23.000Z</time>
      </trkpt>
      <trkpt lat="27.80489" lon="86.710464">
        <ele>3445.4</ele>
        <time>2022-10-29T07:27:25.000Z</time>
      </trkpt>
      <trkpt lat="27.804874" lon="86.71049">
        <ele>3445.2</ele>
        <time>2022-10-29T07:27:27.000Z</time>
      </trkpt>
      <trkpt lat="27.804867" lon="86.710515">
        <ele>3445.2</ele>
        <time>2022-10-29T07:27:30.000Z</time>
      </trkpt>
      <trkpt lat="27.804864" lon="86.710541">
        <ele>3445.2</ele>
        <time>2022-10-29T07:27:33.000Z</time>
      </trkpt>
      <trkpt lat="27.804858" lon="86.710566">
        <ele>3445.2</ele>
        <time>2022-10-29T07:27:35.000Z</time>
      </trkpt>
      <trkpt lat="27.804835" lon="86.710579">
        <ele>3444.8</ele>
        <time>2022-10-29T07:27:37.000Z</time>
      </trkpt>
      <trkpt lat="27.804816" lon="86.710586">
        <ele>3444</ele>
        <time>2022-10-29T07:27:40.000Z</time>
      </trkpt>
      <trkpt lat="27.804816" lon="86.710554">
        <ele>3442.6</ele>
        <time>2022-10-29T07:27:45.000Z</time>
      </trkpt>
      <trkpt lat="27.804826" lon="86.710534">
        <ele>3442.6</ele>
        <time>2022-10-29T07:27:53.000Z</time>
      </trkpt>
      <trkpt lat="27.804819" lon="86.710515">
        <ele>3442.8</ele>
        <time>2022-10-29T07:27:55.000Z</time>
      </trkpt>
      <trkpt lat="27.804806" lon="86.710496">
        <ele>3442.2</ele>
        <time>2022-10-29T07:28:01.000Z</time>
      </trkpt>
      <trkpt lat="27.804787" lon="86.710502">
        <ele>3441.8</ele>
        <time>2022-10-29T07:28:13.000Z</time>
      </trkpt>
      <trkpt lat="27.804806" lon="86.710509">
        <ele>3442.4</ele>
        <time>2022-10-29T07:28:19.000Z</time>
      </trkpt>
      <trkpt lat="27.804826" lon="86.710496">
        <ele>3443</ele>
        <time>2022-10-29T07:28:24.000Z</time>
      </trkpt>
      <trkpt lat="27.804832" lon="86.710477">
        <ele>3443.2</ele>
        <time>2022-10-29T07:28:25.000Z</time>
      </trkpt>
      <trkpt lat="27.804838" lon="86.710458">
        <ele>3443.2</ele>
        <time>2022-10-29T07:28:27.000Z</time>
      </trkpt>
      <trkpt lat="27.804854" lon="86.71047">
        <ele>3443</ele>
        <time>2022-10-29T07:28:39.000Z</time>
      </trkpt>
      <trkpt lat="27.804842" lon="86.710496">
        <ele>3442.6</ele>
        <time>2022-10-29T07:29:20.000Z</time>
      </trkpt>
      <trkpt lat="27.804886" lon="86.710611">
        <ele>3443.4</ele>
        <time>2022-10-29T07:29:45.000Z</time>
      </trkpt>
      <trkpt lat="27.804886" lon="86.710566">
        <ele>3443.4</ele>
        <time>2022-10-29T07:29:46.000Z</time>
      </trkpt>
      <trkpt lat="27.80487" lon="86.710554">
        <ele>3443.4</ele>
        <time>2022-10-29T07:29:47.000Z</time>
      </trkpt>
      <trkpt lat="27.804877" lon="86.710534">
        <ele>3443.2</ele>
        <time>2022-10-29T07:29:49.000Z</time>
      </trkpt>
      <trkpt lat="27.804883" lon="86.710502">
        <ele>3442.8</ele>
        <time>2022-10-29T07:29:50.000Z</time>
      </trkpt>
      <trkpt lat="27.804854" lon="86.710477">
        <ele>3442.6</ele>
        <time>2022-10-29T07:29:53.000Z</time>
      </trkpt>
      <trkpt lat="27.804835" lon="86.710464">
        <ele>3442.4</ele>
        <time>2022-10-29T07:29:56.000Z</time>
      </trkpt>
      <trkpt lat="27.804816" lon="86.710458">
        <ele>3442.4</ele>
        <time>2022-10-29T07:30:00.000Z</time>
      </trkpt>
      <trkpt lat="27.804794" lon="86.710458">
        <ele>3442.2</ele>
        <time>2022-10-29T07:30:03.000Z</time>
      </trkpt>
      <trkpt lat="27.804768" lon="86.710451">
        <ele>3441.6</ele>
        <time>2022-10-29T07:30:06.000Z</time>
      </trkpt>
      <trkpt lat="27.804736" lon="86.710451">
        <ele>3441</ele>
        <time>2022-10-29T07:30:09.000Z</time>
      </trkpt>
      <trkpt lat="27.804714" lon="86.710458">
        <ele>3441</ele>
        <time>2022-10-29T07:30:12.000Z</time>
      </trkpt>
      <trkpt lat="27.804691" lon="86.710451">
        <ele>3440.8</ele>
        <time>2022-10-29T07:30:14.000Z</time>
      </trkpt>
      <trkpt lat="27.804675" lon="86.710438">
        <ele>3440.6</ele>
        <time>2022-10-29T07:30:16.000Z</time>
      </trkpt>
      <trkpt lat="27.804662" lon="86.710419">
        <ele>3440.6</ele>
        <time>2022-10-29T07:30:18.000Z</time>
      </trkpt>
      <trkpt lat="27.804688" lon="86.710419">
        <ele>3440</ele>
        <time>2022-10-29T07:31:02.000Z</time>
      </trkpt>
      <trkpt lat="27.804707" lon="86.710451">
        <ele>3440.4</ele>
        <time>2022-10-29T07:31:04.000Z</time>
      </trkpt>
      <trkpt lat="27.804723" lon="86.710464">
        <ele>3440.8</ele>
        <time>2022-10-29T07:31:06.000Z</time>
      </trkpt>
      <trkpt lat="27.804733" lon="86.71049">
        <ele>3441.4</ele>
        <time>2022-10-29T07:31:09.000Z</time>
      </trkpt>
      <trkpt lat="27.804714" lon="86.71049">
        <ele>3441.4</ele>
        <time>2022-10-29T07:31:11.000Z</time>
      </trkpt>
      <trkpt lat="27.804698" lon="86.71047">
        <ele>3442.8</ele>
        <time>2022-10-29T07:31:15.000Z</time>
      </trkpt>
      <trkpt lat="27.804675" lon="86.71047">
        <ele>3443.6</ele>
        <time>2022-10-29T07:31:19.000Z</time>
      </trkpt>
      <trkpt lat="27.804685" lon="86.710394">
        <ele>3442</ele>
        <time>2022-10-29T07:35:49.000Z</time>
      </trkpt>
      <trkpt lat="27.80521" lon="86.710746">
        <ele>3442.6</ele>
        <time>2022-10-29T07:36:25.000Z</time>
      </trkpt>
      <trkpt lat="27.804906" lon="86.710573">
        <ele>3442.6</ele>
        <time>2022-10-29T07:36:26.000Z</time>
      </trkpt>
      <trkpt lat="27.804883" lon="86.710541">
        <ele>3442.6</ele>
        <time>2022-10-29T07:36:35.000Z</time>
      </trkpt>
      <trkpt lat="27.804854" lon="86.710515">
        <ele>3443.4</ele>
        <time>2022-10-29T07:36:42.000Z</time>
      </trkpt>
      <trkpt lat="27.804822" lon="86.710496">
        <ele>3443</ele>
        <time>2022-10-29T07:36:54.000Z</time>
      </trkpt>
      <trkpt lat="27.804698" lon="86.710381">
        <ele>3432.8</ele>
        <time>2022-10-29T07:53:16.000Z</time>
      </trkpt>
      <trkpt lat="27.804717" lon="86.710394">
        <ele>3432.8</ele>
        <time>2022-10-29T07:53:19.000Z</time>
      </trkpt>
      <trkpt lat="27.804733" lon="86.710406">
        <ele>3433</ele>
        <time>2022-10-29T07:53:22.000Z</time>
      </trkpt>
      <trkpt lat="27.804723" lon="86.710381">
        <ele>3433.4</ele>
        <time>2022-10-29T07:54:52.000Z</time>
      </trkpt>
      <trkpt lat="27.804707" lon="86.710368">
        <ele>3433.4</ele>
        <time>2022-10-29T08:06:59.000Z</time>
      </trkpt>
      <trkpt lat="27.804646" lon="86.710451">
        <ele>3440</ele>
        <time>2022-10-29T08:13:17.000Z</time>
      </trkpt>
      <trkpt lat="27.804637" lon="86.71047">
        <ele>3439.8</ele>
        <time>2022-10-29T08:13:21.000Z</time>
      </trkpt>
      <trkpt lat="27.804627" lon="86.710496">
        <ele>3439.8</ele>
        <time>2022-10-29T08:13:29.000Z</time>
      </trkpt>
      <trkpt lat="27.804646" lon="86.71047">
        <ele>3440.6</ele>
        <time>2022-10-29T08:14:05.000Z</time>
      </trkpt>
      <trkpt lat="27.805021" lon="86.710534">
        <ele>3441.2</ele>
        <time>2022-10-29T08:15:46.000Z</time>
      </trkpt>
      <trkpt lat="27.804982" lon="86.710515">
        <ele>3441.2</ele>
        <time>2022-10-29T08:15:48.000Z</time>
      </trkpt>
      <trkpt lat="27.804944" lon="86.710509">
        <ele>3441.2</ele>
        <time>2022-10-29T08:15:50.000Z</time>
      </trkpt>
      <trkpt lat="27.804922" lon="86.710509">
        <ele>3441.2</ele>
        <time>2022-10-29T08:15:51.000Z</time>
      </trkpt>
      <trkpt lat="27.804938" lon="86.710496">
        <ele>3441.2</ele>
        <time>2022-10-29T08:15:52.000Z</time>
      </trkpt>
      <trkpt lat="27.80495" lon="86.710515">
        <ele>3441.2</ele>
        <time>2022-10-29T08:15:53.000Z</time>
      </trkpt>
      <trkpt lat="27.804934" lon="86.710496">
        <ele>3441.6</ele>
        <time>2022-10-29T08:15:56.000Z</time>
      </trkpt>
      <trkpt lat="27.804918" lon="86.710464">
        <ele>3441.2</ele>
        <time>2022-10-29T08:15:58.000Z</time>
      </trkpt>
      <trkpt lat="27.80489" lon="86.710458">
        <ele>3441.2</ele>
        <time>2022-10-29T08:16:00.000Z</time>
      </trkpt>
      <trkpt lat="27.804826" lon="86.71047">
        <ele>3441</ele>
        <time>2022-10-29T08:16:14.000Z</time>
      </trkpt>
      <trkpt lat="27.80479" lon="86.71047">
        <ele>3441</ele>
        <time>2022-10-29T08:16:15.000Z</time>
      </trkpt>
      <trkpt lat="27.804768" lon="86.710477">
        <ele>3441</ele>
        <time>2022-10-29T08:16:16.000Z</time>
      </trkpt>
      <trkpt lat="27.804752" lon="86.71049">
        <ele>3441</ele>
        <time>2022-10-29T08:16:18.000Z</time>
      </trkpt>
      <trkpt lat="27.804733" lon="86.71049">
        <ele>3441</ele>
        <time>2022-10-29T08:16:20.000Z</time>
      </trkpt>
      <trkpt lat="27.804726" lon="86.71047">
        <ele>3441</ele>
        <time>2022-10-29T08:16:23.000Z</time>
      </trkpt>
      <trkpt lat="27.804733" lon="86.71049">
        <ele>3441</ele>
        <time>2022-10-29T08:16:44.000Z</time>
      </trkpt>
      <trkpt lat="27.80471" lon="86.71049">
        <ele>3441</ele>
        <time>2022-10-29T08:16:52.000Z</time>
      </trkpt>
      <trkpt lat="27.804694" lon="86.710477">
        <ele>3441</ele>
        <time>2022-10-29T08:16:59.000Z</time>
      </trkpt>
      <trkpt lat="27.804678" lon="86.71049">
        <ele>3441.4</ele>
        <time>2022-10-29T08:17:01.000Z</time>
      </trkpt>
      <trkpt lat="27.804653" lon="86.710528">
        <ele>3441.6</ele>
        <time>2022-10-29T08:17:03.000Z</time>
      </trkpt>
      <trkpt lat="27.804675" lon="86.710515">
        <ele>3441</ele>
        <time>2022-10-29T08:17:04.000Z</time>
      </trkpt>
      <trkpt lat="27.804685" lon="86.710534">
        <ele>3441.4</ele>
        <time>2022-10-29T08:17:06.000Z</time>
      </trkpt>
      <trkpt lat="27.804714" lon="86.710547">
        <ele>3441</ele>
        <time>2022-10-29T08:17:08.000Z</time>
      </trkpt>
      <trkpt lat="27.804733" lon="86.710547">
        <ele>3441.4</ele>
        <time>2022-10-29T08:17:12.000Z</time>
      </trkpt>
      <trkpt lat="27.804726" lon="86.710586">
        <ele>3441.4</ele>
        <time>2022-10-29T08:17:14.000Z</time>
      </trkpt>
      <trkpt lat="27.804717" lon="86.710554">
        <ele>3441.8</ele>
        <time>2022-10-29T08:17:21.000Z</time>
      </trkpt>
      <trkpt lat="27.804714" lon="86.710579">
        <ele>3441.8</ele>
        <time>2022-10-29T08:17:22.000Z</time>
      </trkpt>
      <trkpt lat="27.804698" lon="86.710592">
        <ele>3441.8</ele>
        <time>2022-10-29T08:17:24.000Z</time>
      </trkpt>
      <trkpt lat="27.804675" lon="86.710605">
        <ele>3441.8</ele>
        <time>2022-10-29T08:17:25.000Z</time>
      </trkpt>
      <trkpt lat="27.804656" lon="86.710592">
        <ele>3441.8</ele>
        <time>2022-10-29T08:17:27.000Z</time>
      </trkpt>
      <trkpt lat="27.804675" lon="86.710586">
        <ele>3441.8</ele>
        <time>2022-10-29T08:17:30.000Z</time>
      </trkpt>
      <trkpt lat="27.804685" lon="86.710566">
        <ele>3441.4</ele>
        <time>2022-10-29T08:17:33.000Z</time>
      </trkpt>
      <trkpt lat="27.804685" lon="86.710541">
        <ele>3441.2</ele>
        <time>2022-10-29T08:17:37.000Z</time>
      </trkpt>
      <trkpt lat="27.804675" lon="86.710515">
        <ele>3441</ele>
        <time>2022-10-29T08:17:42.000Z</time>
      </trkpt>
      <trkpt lat="27.804698" lon="86.710464">
        <ele>3441.4</ele>
        <time>2022-10-29T08:18:35.000Z</time>
      </trkpt>
      <trkpt lat="27.804688" lon="86.710438">
        <ele>3441.4</ele>
        <time>2022-10-29T08:18:40.000Z</time>
      </trkpt>
      <trkpt lat="27.80471" lon="86.710426">
        <ele>3441.4</ele>
        <time>2022-10-29T08:18:42.000Z</time>
      </trkpt>
      <trkpt lat="27.804733" lon="86.710419">
        <ele>3441.2</ele>
        <time>2022-10-29T08:18:47.000Z</time>
      </trkpt>
      <trkpt lat="27.804723" lon="86.710438">
        <ele>3441.4</ele>
        <time>2022-10-29T08:18:49.000Z</time>
      </trkpt>
      <trkpt lat="27.804717" lon="86.710458">
        <ele>3441.4</ele>
        <time>2022-10-29T08:18:50.000Z</time>
      </trkpt>
      <trkpt lat="27.804707" lon="86.710477">
        <ele>3441.2</ele>
        <time>2022-10-29T08:18:51.000Z</time>
      </trkpt>
      <trkpt lat="27.804694" lon="86.710496">
        <ele>3441.4</ele>
        <time>2022-10-29T08:18:53.000Z</time>
      </trkpt>
      <trkpt lat="27.804675" lon="86.710509">
        <ele>3441.2</ele>
        <time>2022-10-29T08:18:58.000Z</time>
      </trkpt>
      <trkpt lat="27.804659" lon="86.71049">
        <ele>3441.2</ele>
        <time>2022-10-29T08:19:02.000Z</time>
      </trkpt>
      <trkpt lat="27.804662" lon="86.710464">
        <ele>3441.2</ele>
        <time>2022-10-29T08:19:03.000Z</time>
      </trkpt>
      <trkpt lat="27.804672" lon="86.710438">
        <ele>3441</ele>
        <time>2022-10-29T08:19:05.000Z</time>
      </trkpt>
      <trkpt lat="27.804701" lon="86.710406">
        <ele>3439.8</ele>
        <time>2022-10-29T08:21:47.000Z</time>
      </trkpt>
      <trkpt lat="27.804678" lon="86.710387">
        <ele>3439.8</ele>
        <time>2022-10-29T08:21:49.000Z</time>
      </trkpt>
      <trkpt lat="27.804659" lon="86.710387">
        <ele>3439.8</ele>
        <time>2022-10-29T08:21:51.000Z</time>
      </trkpt>
      <trkpt lat="27.80464" lon="86.710394">
        <ele>3439.8</ele>
        <time>2022-10-29T08:21:53.000Z</time>
      </trkpt>
      <trkpt lat="27.804621" lon="86.710413">
        <ele>3439.2</ele>
        <time>2022-10-29T08:21:55.000Z</time>
      </trkpt>
      <trkpt lat="27.804614" lon="86.710432">
        <ele>3438.8</ele>
        <time>2022-10-29T08:21:57.000Z</time>
      </trkpt>
      <trkpt lat="27.804608" lon="86.710451">
        <ele>3439</ele>
        <time>2022-10-29T08:22:00.000Z</time>
      </trkpt>
      <trkpt lat="27.804589" lon="86.710438">
        <ele>3438.8</ele>
        <time>2022-10-29T08:22:02.000Z</time>
      </trkpt>
      <trkpt lat="27.804563" lon="86.710438">
        <ele>3438.4</ele>
        <time>2022-10-29T08:22:04.000Z</time>
      </trkpt>
      <trkpt lat="27.804531" lon="86.710451">
        <ele>3438.4</ele>
        <time>2022-10-29T08:22:06.000Z</time>
      </trkpt>
      <trkpt lat="27.804515" lon="86.710426">
        <ele>3438.2</ele>
        <time>2022-10-29T08:22:08.000Z</time>
      </trkpt>
      <trkpt lat="27.804499" lon="86.710413">
        <ele>3437.8</ele>
        <time>2022-10-29T08:22:10.000Z</time>
      </trkpt>
      <trkpt lat="27.804477" lon="86.710413">
        <ele>3437.8</ele>
        <time>2022-10-29T08:22:12.000Z</time>
      </trkpt>
      <trkpt lat="27.804458" lon="86.710419">
        <ele>3437.4</ele>
        <time>2022-10-29T08:22:14.000Z</time>
      </trkpt>
      <trkpt lat="27.804435" lon="86.710426">
        <ele>3436.8</ele>
        <time>2022-10-29T08:22:16.000Z</time>
      </trkpt>
      <trkpt lat="27.804416" lon="86.710419">
        <ele>3436.2</ele>
        <time>2022-10-29T08:22:19.000Z</time>
      </trkpt>
      <trkpt lat="27.80439" lon="86.710426">
        <ele>3436.2</ele>
        <time>2022-10-29T08:22:21.000Z</time>
      </trkpt>
      <trkpt lat="27.804368" lon="86.710426">
        <ele>3436</ele>
        <time>2022-10-29T08:22:23.000Z</time>
      </trkpt>
      <trkpt lat="27.804346" lon="86.710413">
        <ele>3435.2</ele>
        <time>2022-10-29T08:22:26.000Z</time>
      </trkpt>
      <trkpt lat="27.804336" lon="86.710394">
        <ele>3435</ele>
        <time>2022-10-29T08:22:28.000Z</time>
      </trkpt>
      <trkpt lat="27.804317" lon="86.710394">
        <ele>3434.8</ele>
        <time>2022-10-29T08:22:31.000Z</time>
      </trkpt>
      <trkpt lat="27.804298" lon="86.710387">
        <ele>3434.8</ele>
        <time>2022-10-29T08:22:33.000Z</time>
      </trkpt>
      <trkpt lat="27.804275" lon="86.710374">
        <ele>3434.6</ele>
        <time>2022-10-29T08:22:35.000Z</time>
      </trkpt>
      <trkpt lat="27.804259" lon="86.710349">
        <ele>3434</ele>
        <time>2022-10-29T08:22:37.000Z</time>
      </trkpt>
      <trkpt lat="27.804246" lon="86.71033">
        <ele>3434.4</ele>
        <time>2022-10-29T08:22:39.000Z</time>
      </trkpt>
      <trkpt lat="27.80423" lon="86.710317">
        <ele>3434.4</ele>
        <time>2022-10-29T08:22:41.000Z</time>
      </trkpt>
      <trkpt lat="27.804211" lon="86.710304">
        <ele>3433.8</ele>
        <time>2022-10-29T08:22:43.000Z</time>
      </trkpt>
      <trkpt lat="27.804198" lon="86.710278">
        <ele>3433.6</ele>
        <time>2022-10-29T08:22:45.000Z</time>
      </trkpt>
      <trkpt lat="27.804176" lon="86.710266">
        <ele>3433.6</ele>
        <time>2022-10-29T08:22:48.000Z</time>
      </trkpt>
      <trkpt lat="27.804157" lon="86.710272">
        <ele>3433.2</ele>
        <time>2022-10-29T08:22:50.000Z</time>
      </trkpt>
      <trkpt lat="27.804138" lon="86.710278">
        <ele>3433</ele>
        <time>2022-10-29T08:22:52.000Z</time>
      </trkpt>
      <trkpt lat="27.804118" lon="86.710278">
        <ele>3432.6</ele>
        <time>2022-10-29T08:22:54.000Z</time>
      </trkpt>
      <trkpt lat="27.804099" lon="86.710272">
        <ele>3432.4</ele>
        <time>2022-10-29T08:22:56.000Z</time>
      </trkpt>
      <trkpt lat="27.80408" lon="86.710259">
        <ele>3431.2</ele>
        <time>2022-10-29T08:22:59.000Z</time>
      </trkpt>
      <trkpt lat="27.804061" lon="86.710234">
        <ele>3431</ele>
        <time>2022-10-29T08:23:02.000Z</time>
      </trkpt>
      <trkpt lat="27.804051" lon="86.710214">
        <ele>3430.4</ele>
        <time>2022-10-29T08:23:04.000Z</time>
      </trkpt>
      <trkpt lat="27.804042" lon="86.710195">
        <ele>3429.4</ele>
        <time>2022-10-29T08:23:06.000Z</time>
      </trkpt>
      <trkpt lat="27.804022" lon="86.710195">
        <ele>3429.2</ele>
        <time>2022-10-29T08:23:08.000Z</time>
      </trkpt>
      <trkpt lat="27.804" lon="86.710189">
        <ele>3428.2</ele>
        <time>2022-10-29T08:23:11.000Z</time>
      </trkpt>
      <trkpt lat="27.803981" lon="86.710182">
        <ele>3427.8</ele>
        <time>2022-10-29T08:23:14.000Z</time>
      </trkpt>
      <trkpt lat="27.803962" lon="86.71017">
        <ele>3426.2</ele>
        <time>2022-10-29T08:23:33.000Z</time>
      </trkpt>
      <trkpt lat="27.803936" lon="86.71015">
        <ele>3426</ele>
        <time>2022-10-29T08:23:35.000Z</time>
      </trkpt>
      <trkpt lat="27.80391" lon="86.710138">
        <ele>3425.6</ele>
        <time>2022-10-29T08:23:37.000Z</time>
      </trkpt>
      <trkpt lat="27.803885" lon="86.710112">
        <ele>3425.2</ele>
        <time>2022-10-29T08:23:39.000Z</time>
      </trkpt>
      <trkpt lat="27.803866" lon="86.71008">
        <ele>3424.8</ele>
        <time>2022-10-29T08:23:41.000Z</time>
      </trkpt>
      <trkpt lat="27.803846" lon="86.710061">
        <ele>3424.2</ele>
        <time>2022-10-29T08:23:43.000Z</time>
      </trkpt>
      <trkpt lat="27.80383" lon="86.710035">
        <ele>3424.2</ele>
        <time>2022-10-29T08:23:45.000Z</time>
      </trkpt>
      <trkpt lat="27.803802" lon="86.710035">
        <ele>3423.8</ele>
        <time>2022-10-29T08:23:47.000Z</time>
      </trkpt>
      <trkpt lat="27.803776" lon="86.710022">
        <ele>3424</ele>
        <time>2022-10-29T08:23:50.000Z</time>
      </trkpt>
      <trkpt lat="27.80375" lon="86.71001">
        <ele>3422.8</ele>
        <time>2022-10-29T08:23:53.000Z</time>
      </trkpt>
      <trkpt lat="27.803728" lon="86.709997">
        <ele>3422.6</ele>
        <time>2022-10-29T08:23:55.000Z</time>
      </trkpt>
      <trkpt lat="27.803706" lon="86.709984">
        <ele>3422.6</ele>
        <time>2022-10-29T08:23:57.000Z</time>
      </trkpt>
      <trkpt lat="27.80369" lon="86.709971">
        <ele>3422.4</ele>
        <time>2022-10-29T08:23:59.000Z</time>
      </trkpt>
      <trkpt lat="27.80367" lon="86.709958">
        <ele>3422.2</ele>
        <time>2022-10-29T08:24:01.000Z</time>
      </trkpt>
      <trkpt lat="27.803654" lon="86.709933">
        <ele>3422.2</ele>
        <time>2022-10-29T08:24:03.000Z</time>
      </trkpt>
      <trkpt lat="27.803642" lon="86.709914">
        <ele>3421.6</ele>
        <time>2022-10-29T08:24:05.000Z</time>
      </trkpt>
      <trkpt lat="27.803629" lon="86.709894">
        <ele>3421</ele>
        <time>2022-10-29T08:24:07.000Z</time>
      </trkpt>
      <trkpt lat="27.803613" lon="86.709875">
        <ele>3420.8</ele>
        <time>2022-10-29T08:24:09.000Z</time>
      </trkpt>
      <trkpt lat="27.803594" lon="86.709862">
        <ele>3420.4</ele>
        <time>2022-10-29T08:24:11.000Z</time>
      </trkpt>
      <trkpt lat="27.803571" lon="86.70985">
        <ele>3419.8</ele>
        <time>2022-10-29T08:24:13.000Z</time>
      </trkpt>
      <trkpt lat="27.803555" lon="86.709837">
        <ele>3419.6</ele>
        <time>2022-10-29T08:24:15.000Z</time>
      </trkpt>
      <trkpt lat="27.803536" lon="86.70983">
        <ele>3419.2</ele>
        <time>2022-10-29T08:24:17.000Z</time>
      </trkpt>
      <trkpt lat="27.803514" lon="86.709824">
        <ele>3418.4</ele>
        <time>2022-10-29T08:24:19.000Z</time>
      </trkpt>
      <trkpt lat="27.803494" lon="86.709811">
        <ele>3418.4</ele>
        <time>2022-10-29T08:24:22.000Z</time>
      </trkpt>
      <trkpt lat="27.803472" lon="86.709811">
        <ele>3418.8</ele>
        <time>2022-10-29T08:24:26.000Z</time>
      </trkpt>
      <trkpt lat="27.803453" lon="86.70983">
        <ele>3418.4</ele>
        <time>2022-10-29T08:24:28.000Z</time>
      </trkpt>
      <trkpt lat="27.803437" lon="86.70985">
        <ele>3418.2</ele>
        <time>2022-10-29T08:24:30.000Z</time>
      </trkpt>
      <trkpt lat="27.803418" lon="86.709856">
        <ele>3418.2</ele>
        <time>2022-10-29T08:24:32.000Z</time>
      </trkpt>
      <trkpt lat="27.803395" lon="86.709875">
        <ele>3418.8</ele>
        <time>2022-10-29T08:24:35.000Z</time>
      </trkpt>
      <trkpt lat="27.803379" lon="86.709894">
        <ele>3418.8</ele>
        <time>2022-10-29T08:24:37.000Z</time>
      </trkpt>
      <trkpt lat="27.803357" lon="86.709894">
        <ele>3418</ele>
        <time>2022-10-29T08:24:39.000Z</time>
      </trkpt>
      <trkpt lat="27.803328" lon="86.709894">
        <ele>3417.6</ele>
        <time>2022-10-29T08:24:41.000Z</time>
      </trkpt>
      <trkpt lat="27.803302" lon="86.709894">
        <ele>3417.4</ele>
        <time>2022-10-29T08:24:43.000Z</time>
      </trkpt>
      <trkpt lat="27.803283" lon="86.709882">
        <ele>3416.6</ele>
        <time>2022-10-29T08:24:45.000Z</time>
      </trkpt>
      <trkpt lat="27.803264" lon="86.709875">
        <ele>3416.6</ele>
        <time>2022-10-29T08:24:47.000Z</time>
      </trkpt>
      <trkpt lat="27.803245" lon="86.709862">
        <ele>3416.2</ele>
        <time>2022-10-29T08:24:49.000Z</time>
      </trkpt>
      <trkpt lat="27.803222" lon="86.70985">
        <ele>3416.4</ele>
        <time>2022-10-29T08:24:51.000Z</time>
      </trkpt>
      <trkpt lat="27.803216" lon="86.70983">
        <ele>3416.4</ele>
        <time>2022-10-29T08:24:52.000Z</time>
      </trkpt>
      <trkpt lat="27.803203" lon="86.709811">
        <ele>3416.6</ele>
        <time>2022-10-29T08:24:55.000Z</time>
      </trkpt>
      <trkpt lat="27.803181" lon="86.709811">
        <ele>3416.6</ele>
        <time>2022-10-29T08:25:02.000Z</time>
      </trkpt>
      <trkpt lat="27.803158" lon="86.709792">
        <ele>3417.4</ele>
        <time>2022-10-29T08:25:04.000Z</time>
      </trkpt>
      <trkpt lat="27.803139" lon="86.709786">
        <ele>3417.4</ele>
        <time>2022-10-29T08:25:06.000Z</time>
      </trkpt>
      <trkpt lat="27.80313" lon="86.70976">
        <ele>3417.6</ele>
        <time>2022-10-29T08:25:08.000Z</time>
      </trkpt>
      <trkpt lat="27.803117" lon="86.709741">
        <ele>3417.4</ele>
        <time>2022-10-29T08:25:25.000Z</time>
      </trkpt>
      <trkpt lat="27.803088" lon="86.709741">
        <ele>3417.6</ele>
        <time>2022-10-29T08:25:28.000Z</time>
      </trkpt>
      <trkpt lat="27.803062" lon="86.709722">
        <ele>3417.4</ele>
        <time>2022-10-29T08:25:31.000Z</time>
      </trkpt>
      <trkpt lat="27.80304" lon="86.709709">
        <ele>3416.4</ele>
        <time>2022-10-29T08:26:02.000Z</time>
      </trkpt>
      <trkpt lat="27.803018" lon="86.709709">
        <ele>3416.6</ele>
        <time>2022-10-29T08:26:05.000Z</time>
      </trkpt>
      <trkpt lat="27.802992" lon="86.709709">
        <ele>3416.8</ele>
        <time>2022-10-29T08:26:08.000Z</time>
      </trkpt>
      <trkpt lat="27.802957" lon="86.709709">
        <ele>3416.6</ele>
        <time>2022-10-29T08:26:10.000Z</time>
      </trkpt>
      <trkpt lat="27.802934" lon="86.709722">
        <ele>3416.4</ele>
        <time>2022-10-29T08:26:12.000Z</time>
      </trkpt>
      <trkpt lat="27.802918" lon="86.709734">
        <ele>3416.6</ele>
        <time>2022-10-29T08:26:25.000Z</time>
      </trkpt>
      <trkpt lat="27.802896" lon="86.709741">
        <ele>3416.8</ele>
        <time>2022-10-29T08:26:32.000Z</time>
      </trkpt>
      <trkpt lat="27.802877" lon="86.70976">
        <ele>3416.8</ele>
        <time>2022-10-29T08:26:34.000Z</time>
      </trkpt>
      <trkpt lat="27.802864" lon="86.709786">
        <ele>3415.8</ele>
        <time>2022-10-29T08:26:36.000Z</time>
      </trkpt>
      <trkpt lat="27.802842" lon="86.709811">
        <ele>3415.6</ele>
        <time>2022-10-29T08:26:38.000Z</time>
      </trkpt>
      <trkpt lat="27.802826" lon="86.70983">
        <ele>3415</ele>
        <time>2022-10-29T08:26:40.000Z</time>
      </trkpt>
      <trkpt lat="27.802816" lon="86.70985">
        <ele>3415</ele>
        <time>2022-10-29T08:26:41.000Z</time>
      </trkpt>
      <trkpt lat="27.802797" lon="86.709875">
        <ele>3415.2</ele>
        <time>2022-10-29T08:26:43.000Z</time>
      </trkpt>
      <trkpt lat="27.802768" lon="86.709894">
        <ele>3414.8</ele>
        <time>2022-10-29T08:26:45.000Z</time>
      </trkpt>
      <trkpt lat="27.802742" lon="86.709894">
        <ele>3414.8</ele>
        <time>2022-10-29T08:26:47.000Z</time>
      </trkpt>
      <trkpt lat="27.80272" lon="86.709882">
        <ele>3415.2</ele>
        <time>2022-10-29T08:26:49.000Z</time>
      </trkpt>
      <trkpt lat="27.802694" lon="86.709875">
        <ele>3414.2</ele>
        <time>2022-10-29T08:26:51.000Z</time>
      </trkpt>
      <trkpt lat="27.802662" lon="86.709882">
        <ele>3414</ele>
        <time>2022-10-29T08:26:53.000Z</time>
      </trkpt>
      <trkpt lat="27.802646" lon="86.709901">
        <ele>3414</ele>
        <time>2022-10-29T08:26:54.000Z</time>
      </trkpt>
      <trkpt lat="27.802621" lon="86.709907">
        <ele>3413.4</ele>
        <time>2022-10-29T08:26:56.000Z</time>
      </trkpt>
      <trkpt lat="27.802605" lon="86.70992">
        <ele>3412.6</ele>
        <time>2022-10-29T08:26:58.000Z</time>
      </trkpt>
      <trkpt lat="27.802592" lon="86.709952">
        <ele>3412.6</ele>
        <time>2022-10-29T08:27:00.000Z</time>
      </trkpt>
      <trkpt lat="27.802582" lon="86.709971">
        <ele>3412.6</ele>
        <time>2022-10-29T08:27:01.000Z</time>
      </trkpt>
      <trkpt lat="27.802563" lon="86.70999">
        <ele>3412.6</ele>
        <time>2022-10-29T08:27:03.000Z</time>
      </trkpt>
      <trkpt lat="27.802554" lon="86.71001">
        <ele>3412.6</ele>
        <time>2022-10-29T08:27:04.000Z</time>
      </trkpt>
      <trkpt lat="27.802534" lon="86.710016">
        <ele>3411.4</ele>
        <time>2022-10-29T08:27:07.000Z</time>
      </trkpt>
      <trkpt lat="27.802518" lon="86.710029">
        <ele>3411.4</ele>
        <time>2022-10-29T08:27:11.000Z</time>
      </trkpt>
      <trkpt lat="27.802493" lon="86.710035">
        <ele>3412</ele>
        <time>2022-10-29T08:27:13.000Z</time>
      </trkpt>
      <trkpt lat="27.802474" lon="86.710054">
        <ele>3412.2</ele>
        <time>2022-10-29T08:27:15.000Z</time>
      </trkpt>
      <trkpt lat="27.802451" lon="86.710054">
        <ele>3412.4</ele>
        <time>2022-10-29T08:27:17.000Z</time>
      </trkpt>
      <trkpt lat="27.802429" lon="86.710048">
        <ele>3412.4</ele>
        <time>2022-10-29T08:27:19.000Z</time>
      </trkpt>
      <trkpt lat="27.802403" lon="86.710054">
        <ele>3412.6</ele>
        <time>2022-10-29T08:27:21.000Z</time>
      </trkpt>
      <trkpt lat="27.802394" lon="86.71008">
        <ele>3412.8</ele>
        <time>2022-10-29T08:27:24.000Z</time>
      </trkpt>
      <trkpt lat="27.8024" lon="86.710099">
        <ele>3412.6</ele>
        <time>2022-10-29T08:27:26.000Z</time>
      </trkpt>
      <trkpt lat="27.802413" lon="86.710118">
        <ele>3413.4</ele>
        <time>2022-10-29T08:27:29.000Z</time>
      </trkpt>
      <trkpt lat="27.80241" lon="86.710144">
        <ele>3412.8</ele>
        <time>2022-10-29T08:27:32.000Z</time>
      </trkpt>
      <trkpt lat="27.802419" lon="86.71017">
        <ele>3413</ele>
        <time>2022-10-29T08:27:35.000Z</time>
      </trkpt>
      <trkpt lat="27.802429" lon="86.710195">
        <ele>3412.8</ele>
        <time>2022-10-29T08:27:37.000Z</time>
      </trkpt>
      <trkpt lat="27.802435" lon="86.710227">
        <ele>3412.4</ele>
        <time>2022-10-29T08:27:39.000Z</time>
      </trkpt>
      <trkpt lat="27.802442" lon="86.710253">
        <ele>3412</ele>
        <time>2022-10-29T08:27:41.000Z</time>
      </trkpt>
      <trkpt lat="27.802454" lon="86.710278">
        <ele>3412.4</ele>
        <time>2022-10-29T08:27:43.000Z</time>
      </trkpt>
      <trkpt lat="27.802454" lon="86.710304">
        <ele>3413</ele>
        <time>2022-10-29T08:27:46.000Z</time>
      </trkpt>
      <trkpt lat="27.80247" lon="86.71033">
        <ele>3413.6</ele>
        <time>2022-10-29T08:27:49.000Z</time>
      </trkpt>
      <trkpt lat="27.802493" lon="86.710349">
        <ele>3413.4</ele>
        <time>2022-10-29T08:27:52.000Z</time>
      </trkpt>
      <trkpt lat="27.802515" lon="86.710374">
        <ele>3413.6</ele>
        <time>2022-10-29T08:27:54.000Z</time>
      </trkpt>
      <trkpt lat="27.802522" lon="86.710394">
        <ele>3413.4</ele>
        <time>2022-10-29T08:27:56.000Z</time>
      </trkpt>
      <trkpt lat="27.802528" lon="86.710413">
        <ele>3413.6</ele>
        <time>2022-10-29T08:27:57.000Z</time>
      </trkpt>
      <trkpt lat="27.802534" lon="86.710451">
        <ele>3413</ele>
        <time>2022-10-29T08:27:59.000Z</time>
      </trkpt>
      <trkpt lat="27.802534" lon="86.71049">
        <ele>3413</ele>
        <time>2022-10-29T08:28:01.000Z</time>
      </trkpt>
      <trkpt lat="27.802522" lon="86.710528">
        <ele>3413.4</ele>
        <time>2022-10-29T08:28:03.000Z</time>
      </trkpt>
      <trkpt lat="27.802506" lon="86.710547">
        <ele>3413</ele>
        <time>2022-10-29T08:28:05.000Z</time>
      </trkpt>
      <trkpt lat="27.80249" lon="86.710566">
        <ele>3412.4</ele>
        <time>2022-10-29T08:28:07.000Z</time>
      </trkpt>
      <trkpt lat="27.802483" lon="86.710605">
        <ele>3411.8</ele>
        <time>2022-10-29T08:28:09.000Z</time>
      </trkpt>
      <trkpt lat="27.802474" lon="86.710624">
        <ele>3411.4</ele>
        <time>2022-10-29T08:28:11.000Z</time>
      </trkpt>
      <trkpt lat="27.80247" lon="86.71065">
        <ele>3411.2</ele>
        <time>2022-10-29T08:28:12.000Z</time>
      </trkpt>
      <trkpt lat="27.802458" lon="86.710669">
        <ele>3410.4</ele>
        <time>2022-10-29T08:28:14.000Z</time>
      </trkpt>
      <trkpt lat="27.802454" lon="86.710694">
        <ele>3410</ele>
        <time>2022-10-29T08:28:16.000Z</time>
      </trkpt>
      <trkpt lat="27.80247" lon="86.710714">
        <ele>3409.6</ele>
        <time>2022-10-29T08:28:18.000Z</time>
      </trkpt>
      <trkpt lat="27.802477" lon="86.710733">
        <ele>3409.4</ele>
        <time>2022-10-29T08:28:19.000Z</time>
      </trkpt>
      <trkpt lat="27.802486" lon="86.710765">
        <ele>3408.8</ele>
        <time>2022-10-29T08:28:21.000Z</time>
      </trkpt>
      <trkpt lat="27.802493" lon="86.710784">
        <ele>3408.8</ele>
        <time>2022-10-29T08:28:22.000Z</time>
      </trkpt>
      <trkpt lat="27.802499" lon="86.710803">
        <ele>3408.8</ele>
        <time>2022-10-29T08:28:23.000Z</time>
      </trkpt>
      <trkpt lat="27.802518" lon="86.710829">
        <ele>3408.2</ele>
        <time>2022-10-29T08:28:25.000Z</time>
      </trkpt>
      <trkpt lat="27.802522" lon="86.710854">
        <ele>3407.8</ele>
        <time>2022-10-29T08:28:26.000Z</time>
      </trkpt>
      <trkpt lat="27.802528" lon="86.710874">
        <ele>3407.8</ele>
        <time>2022-10-29T08:28:27.000Z</time>
      </trkpt>
      <trkpt lat="27.802534" lon="86.710893">
        <ele>3407.8</ele>
        <time>2022-10-29T08:28:28.000Z</time>
      </trkpt>
      <trkpt lat="27.802534" lon="86.710925">
        <ele>3407.8</ele>
        <time>2022-10-29T08:28:30.000Z</time>
      </trkpt>
      <trkpt lat="27.802531" lon="86.71095">
        <ele>3407.2</ele>
        <time>2022-10-29T08:28:33.000Z</time>
      </trkpt>
      <trkpt lat="27.802522" lon="86.710976">
        <ele>3406.6</ele>
        <time>2022-10-29T08:28:35.000Z</time>
      </trkpt>
      <trkpt lat="27.802518" lon="86.711002">
        <ele>3406.4</ele>
        <time>2022-10-29T08:28:37.000Z</time>
      </trkpt>
      <trkpt lat="27.802512" lon="86.711021">
        <ele>3406.4</ele>
        <time>2022-10-29T08:28:39.000Z</time>
      </trkpt>
      <trkpt lat="27.802496" lon="86.711046">
        <ele>3406.2</ele>
        <time>2022-10-29T08:28:42.000Z</time>
      </trkpt>
      <trkpt lat="27.802483" lon="86.711066">
        <ele>3406.2</ele>
        <time>2022-10-29T08:28:45.000Z</time>
      </trkpt>
      <trkpt lat="27.80247" lon="86.711085">
        <ele>3405.4</ele>
        <time>2022-10-29T08:28:48.000Z</time>
      </trkpt>
      <trkpt lat="27.802454" lon="86.711098">
        <ele>3404.4</ele>
        <time>2022-10-29T08:28:50.000Z</time>
      </trkpt>
      <trkpt lat="27.802429" lon="86.71111">
        <ele>3404</ele>
        <time>2022-10-29T08:28:54.000Z</time>
      </trkpt>
      <trkpt lat="27.802413" lon="86.711136">
        <ele>3404</ele>
        <time>2022-10-29T08:28:56.000Z</time>
      </trkpt>
      <trkpt lat="27.80239" lon="86.711162">
        <ele>3403</ele>
        <time>2022-10-29T08:28:58.000Z</time>
      </trkpt>
      <trkpt lat="27.802371" lon="86.711174">
        <ele>3403.2</ele>
        <time>2022-10-29T08:29:00.000Z</time>
      </trkpt>
      <trkpt lat="27.802352" lon="86.7112">
        <ele>3403.2</ele>
        <time>2022-10-29T08:29:02.000Z</time>
      </trkpt>
      <trkpt lat="27.802339" lon="86.711219">
        <ele>3403.8</ele>
        <time>2022-10-29T08:29:04.000Z</time>
      </trkpt>
      <trkpt lat="27.802317" lon="86.711245">
        <ele>3404</ele>
        <time>2022-10-29T08:29:06.000Z</time>
      </trkpt>
      <trkpt lat="27.802294" lon="86.711258">
        <ele>3403.2</ele>
        <time>2022-10-29T08:29:08.000Z</time>
      </trkpt>
      <trkpt lat="27.802272" lon="86.71127">
        <ele>3402.8</ele>
        <time>2022-10-29T08:29:10.000Z</time>
      </trkpt>
      <trkpt lat="27.80225" lon="86.71129">
        <ele>3401.8</ele>
        <time>2022-10-29T08:29:12.000Z</time>
      </trkpt>
      <trkpt lat="27.80223" lon="86.711302">
        <ele>3401.6</ele>
        <time>2022-10-29T08:29:14.000Z</time>
      </trkpt>
      <trkpt lat="27.802211" lon="86.711322">
        <ele>3401.6</ele>
        <time>2022-10-29T08:29:16.000Z</time>
      </trkpt>
      <trkpt lat="27.802192" lon="86.711334">
        <ele>3401.2</ele>
        <time>2022-10-29T08:29:18.000Z</time>
      </trkpt>
      <trkpt lat="27.802166" lon="86.711341">
        <ele>3401</ele>
        <time>2022-10-29T08:29:20.000Z</time>
      </trkpt>
      <trkpt lat="27.802144" lon="86.711334">
        <ele>3400.8</ele>
        <time>2022-10-29T08:29:22.000Z</time>
      </trkpt>
      <trkpt lat="27.802118" lon="86.711328">
        <ele>3400.2</ele>
        <time>2022-10-29T08:29:24.000Z</time>
      </trkpt>
      <trkpt lat="27.802086" lon="86.711328">
        <ele>3399.4</ele>
        <time>2022-10-29T08:29:26.000Z</time>
      </trkpt>
      <trkpt lat="27.802064" lon="86.711328">
        <ele>3399</ele>
        <time>2022-10-29T08:29:28.000Z</time>
      </trkpt>
      <trkpt lat="27.802045" lon="86.711328">
        <ele>3398.8</ele>
        <time>2022-10-29T08:29:30.000Z</time>
      </trkpt>
      <trkpt lat="27.802026" lon="86.711328">
        <ele>3398.2</ele>
        <time>2022-10-29T08:29:32.000Z</time>
      </trkpt>
      <trkpt lat="27.802003" lon="86.711341">
        <ele>3398.2</ele>
        <time>2022-10-29T08:29:34.000Z</time>
      </trkpt>
      <trkpt lat="27.801978" lon="86.711347">
        <ele>3397.6</ele>
        <time>2022-10-29T08:29:36.000Z</time>
      </trkpt>
      <trkpt lat="27.801958" lon="86.71136">
        <ele>3397</ele>
        <time>2022-10-29T08:29:38.000Z</time>
      </trkpt>
      <trkpt lat="27.801933" lon="86.711366">
        <ele>3396.8</ele>
        <time>2022-10-29T08:29:41.000Z</time>
      </trkpt>
      <trkpt lat="27.801914" lon="86.711373">
        <ele>3396</ele>
        <time>2022-10-29T08:29:43.000Z</time>
      </trkpt>
      <trkpt lat="27.801894" lon="86.711379">
        <ele>3395.6</ele>
        <time>2022-10-29T08:29:46.000Z</time>
      </trkpt>
      <trkpt lat="27.801875" lon="86.711379">
        <ele>3394.6</ele>
        <time>2022-10-29T08:29:49.000Z</time>
      </trkpt>
      <trkpt lat="27.801853" lon="86.711386">
        <ele>3394.2</ele>
        <time>2022-10-29T08:29:52.000Z</time>
      </trkpt>
      <trkpt lat="27.801834" lon="86.711398">
        <ele>3393.6</ele>
        <time>2022-10-29T08:29:54.000Z</time>
      </trkpt>
      <trkpt lat="27.801814" lon="86.711405">
        <ele>3393.2</ele>
        <time>2022-10-29T08:29:56.000Z</time>
      </trkpt>
      <trkpt lat="27.801795" lon="86.711418">
        <ele>3393</ele>
        <time>2022-10-29T08:29:58.000Z</time>
      </trkpt>
      <trkpt lat="27.801776" lon="86.711424">
        <ele>3393.2</ele>
        <time>2022-10-29T08:30:00.000Z</time>
      </trkpt>
      <trkpt lat="27.801766" lon="86.711443">
        <ele>3393.2</ele>
        <time>2022-10-29T08:30:01.000Z</time>
      </trkpt>
      <trkpt lat="27.801747" lon="86.711456">
        <ele>3392.8</ele>
        <time>2022-10-29T08:30:04.000Z</time>
      </trkpt>
      <trkpt lat="27.801728" lon="86.711456">
        <ele>3392.6</ele>
        <time>2022-10-29T08:30:08.000Z</time>
      </trkpt>
      <trkpt lat="27.801718" lon="86.711482">
        <ele>3392.8</ele>
        <time>2022-10-29T08:30:10.000Z</time>
      </trkpt>
      <trkpt lat="27.801699" lon="86.711507">
        <ele>3392.4</ele>
        <time>2022-10-29T08:30:12.000Z</time>
      </trkpt>
      <trkpt lat="27.80168" lon="86.711501">
        <ele>3391.8</ele>
        <time>2022-10-29T08:30:16.000Z</time>
      </trkpt>
      <trkpt lat="27.80167" lon="86.71152">
        <ele>3391.8</ele>
        <time>2022-10-29T08:30:17.000Z</time>
      </trkpt>
      <trkpt lat="27.801648" lon="86.711533">
        <ele>3391.6</ele>
        <time>2022-10-29T08:30:20.000Z</time>
      </trkpt>
      <trkpt lat="27.801632" lon="86.711546">
        <ele>3391.6</ele>
        <time>2022-10-29T08:30:23.000Z</time>
      </trkpt>
      <trkpt lat="27.80161" lon="86.711539">
        <ele>3391.6</ele>
        <time>2022-10-29T08:30:25.000Z</time>
      </trkpt>
      <trkpt lat="27.80159" lon="86.711539">
        <ele>3391.2</ele>
        <time>2022-10-29T08:30:28.000Z</time>
      </trkpt>
      <trkpt lat="27.801568" lon="86.711539">
        <ele>3391</ele>
        <time>2022-10-29T08:30:30.000Z</time>
      </trkpt>
      <trkpt lat="27.801552" lon="86.71152">
        <ele>3390.4</ele>
        <time>2022-10-29T08:30:32.000Z</time>
      </trkpt>
      <trkpt lat="27.801546" lon="86.711501">
        <ele>3390.4</ele>
        <time>2022-10-29T08:30:33.000Z</time>
      </trkpt>
      <trkpt lat="27.801517" lon="86.711501">
        <ele>3390</ele>
        <time>2022-10-29T08:30:36.000Z</time>
      </trkpt>
      <trkpt lat="27.801498" lon="86.711488">
        <ele>3389.8</ele>
        <time>2022-10-29T08:30:38.000Z</time>
      </trkpt>
      <trkpt lat="27.801475" lon="86.711482">
        <ele>3389.8</ele>
        <time>2022-10-29T08:30:40.000Z</time>
      </trkpt>
      <trkpt lat="27.80145" lon="86.711482">
        <ele>3389.8</ele>
        <time>2022-10-29T08:30:42.000Z</time>
      </trkpt>
      <trkpt lat="27.801427" lon="86.711462">
        <ele>3388.4</ele>
        <time>2022-10-29T08:30:44.000Z</time>
      </trkpt>
      <trkpt lat="27.801405" lon="86.711456">
        <ele>3387.4</ele>
        <time>2022-10-29T08:30:46.000Z</time>
      </trkpt>
      <trkpt lat="27.801379" lon="86.71145">
        <ele>3387.2</ele>
        <time>2022-10-29T08:30:48.000Z</time>
      </trkpt>
      <trkpt lat="27.801357" lon="86.71145">
        <ele>3386.6</ele>
        <time>2022-10-29T08:30:50.000Z</time>
      </trkpt>
      <trkpt lat="27.801331" lon="86.71145">
        <ele>3386.4</ele>
        <time>2022-10-29T08:30:52.000Z</time>
      </trkpt>
      <trkpt lat="27.801309" lon="86.71145">
        <ele>3386</ele>
        <time>2022-10-29T08:30:54.000Z</time>
      </trkpt>
      <trkpt lat="27.801283" lon="86.71145">
        <ele>3385.4</ele>
        <time>2022-10-29T08:30:57.000Z</time>
      </trkpt>
      <trkpt lat="27.801264" lon="86.71143">
        <ele>3384.8</ele>
        <time>2022-10-29T08:30:59.000Z</time>
      </trkpt>
      <trkpt lat="27.801242" lon="86.711424">
        <ele>3384.2</ele>
        <time>2022-10-29T08:31:01.000Z</time>
      </trkpt>
      <trkpt lat="27.801222" lon="86.711418">
        <ele>3384</ele>
        <time>2022-10-29T08:31:03.000Z</time>
      </trkpt>
      <trkpt lat="27.801203" lon="86.711411">
        <ele>3383.8</ele>
        <time>2022-10-29T08:31:05.000Z</time>
      </trkpt>
      <trkpt lat="27.801181" lon="86.711418">
        <ele>3383.6</ele>
        <time>2022-10-29T08:31:07.000Z</time>
      </trkpt>
      <trkpt lat="27.801158" lon="86.711411">
        <ele>3383.4</ele>
        <time>2022-10-29T08:31:09.000Z</time>
      </trkpt>
      <trkpt lat="27.801133" lon="86.711411">
        <ele>3383.2</ele>
        <time>2022-10-29T08:31:11.000Z</time>
      </trkpt>
      <trkpt lat="27.80111" lon="86.711398">
        <ele>3382.2</ele>
        <time>2022-10-29T08:31:14.000Z</time>
      </trkpt>
      <trkpt lat="27.801091" lon="86.711379">
        <ele>3381.2</ele>
        <time>2022-10-29T08:31:16.000Z</time>
      </trkpt>
      <trkpt lat="27.801062" lon="86.711379">
        <ele>3380.8</ele>
        <time>2022-10-29T08:31:19.000Z</time>
      </trkpt>
      <trkpt lat="27.801046" lon="86.711366">
        <ele>3379.8</ele>
        <time>2022-10-29T08:31:21.000Z</time>
      </trkpt>
      <trkpt lat="27.801027" lon="86.711366">
        <ele>3378.8</ele>
        <time>2022-10-29T08:31:23.000Z</time>
      </trkpt>
      <trkpt lat="27.801002" lon="86.711366">
        <ele>3378.4</ele>
        <time>2022-10-29T08:31:25.000Z</time>
      </trkpt>
      <trkpt lat="27.800979" lon="86.711366">
        <ele>3378</ele>
        <time>2022-10-29T08:31:27.000Z</time>
      </trkpt>
      <trkpt lat="27.800954" lon="86.71136">
        <ele>3377.4</ele>
        <time>2022-10-29T08:31:30.000Z</time>
      </trkpt>
      <trkpt lat="27.800938" lon="86.711347">
        <ele>3377</ele>
        <time>2022-10-29T08:31:32.000Z</time>
      </trkpt>
      <trkpt lat="27.800915" lon="86.711341">
        <ele>3376.4</ele>
        <time>2022-10-29T08:31:34.000Z</time>
      </trkpt>
      <trkpt lat="27.800899" lon="86.711328">
        <ele>3376</ele>
        <time>2022-10-29T08:31:36.000Z</time>
      </trkpt>
      <trkpt lat="27.800883" lon="86.711309">
        <ele>3375.2</ele>
        <time>2022-10-29T08:31:38.000Z</time>
      </trkpt>
      <trkpt lat="27.800864" lon="86.711302">
        <ele>3374.8</ele>
        <time>2022-10-29T08:31:40.000Z</time>
      </trkpt>
      <trkpt lat="27.800842" lon="86.71129">
        <ele>3373.8</ele>
        <time>2022-10-29T08:31:43.000Z</time>
      </trkpt>
      <trkpt lat="27.800816" lon="86.71129">
        <ele>3373.4</ele>
        <time>2022-10-29T08:31:45.000Z</time>
      </trkpt>
      <trkpt lat="27.80079" lon="86.71129">
        <ele>3372.6</ele>
        <time>2022-10-29T08:31:47.000Z</time>
      </trkpt>
      <trkpt lat="27.800765" lon="86.71129">
        <ele>3372.4</ele>
        <time>2022-10-29T08:31:49.000Z</time>
      </trkpt>
      <trkpt lat="27.800742" lon="86.71129">
        <ele>3372</ele>
        <time>2022-10-29T08:31:52.000Z</time>
      </trkpt>
      <trkpt lat="27.800723" lon="86.711283">
        <ele>3371.8</ele>
        <time>2022-10-29T08:31:54.000Z</time>
      </trkpt>
      <trkpt lat="27.800707" lon="86.71127">
        <ele>3370.8</ele>
        <time>2022-10-29T08:31:56.000Z</time>
      </trkpt>
      <trkpt lat="27.800694" lon="86.711251">
        <ele>3370.6</ele>
        <time>2022-10-29T08:31:58.000Z</time>
      </trkpt>
      <trkpt lat="27.800672" lon="86.711245">
        <ele>3369.8</ele>
        <time>2022-10-29T08:32:00.000Z</time>
      </trkpt>
      <trkpt lat="27.800656" lon="86.711232">
        <ele>3369.6</ele>
        <time>2022-10-29T08:32:02.000Z</time>
      </trkpt>
      <trkpt lat="27.800634" lon="86.711219">
        <ele>3369.4</ele>
        <time>2022-10-29T08:32:04.000Z</time>
      </trkpt>
      <trkpt lat="27.800608" lon="86.711213">
        <ele>3368.8</ele>
        <time>2022-10-29T08:32:07.000Z</time>
      </trkpt>
      <trkpt lat="27.800586" lon="86.7112">
        <ele>3368.4</ele>
        <time>2022-10-29T08:32:09.000Z</time>
      </trkpt>
      <trkpt lat="27.800576" lon="86.711181">
        <ele>3368.4</ele>
        <time>2022-10-29T08:32:10.000Z</time>
      </trkpt>
      <trkpt lat="27.80056" lon="86.711162">
        <ele>3368.2</ele>
        <time>2022-10-29T08:32:12.000Z</time>
      </trkpt>
      <trkpt lat="27.800544" lon="86.711142">
        <ele>3367.4</ele>
        <time>2022-10-29T08:32:14.000Z</time>
      </trkpt>
      <trkpt lat="27.800525" lon="86.711162">
        <ele>3367.4</ele>
        <time>2022-10-29T08:32:16.000Z</time>
      </trkpt>
      <trkpt lat="27.800502" lon="86.711149">
        <ele>3367</ele>
        <time>2022-10-29T08:32:18.000Z</time>
      </trkpt>
      <trkpt lat="27.800486" lon="86.711123">
        <ele>3366.8</ele>
        <time>2022-10-29T08:32:20.000Z</time>
      </trkpt>
      <trkpt lat="27.80047" lon="86.71111">
        <ele>3366.8</ele>
        <time>2022-10-29T08:32:23.000Z</time>
      </trkpt>
      <trkpt lat="27.800458" lon="86.711072">
        <ele>3366.6</ele>
        <time>2022-10-29T08:32:25.000Z</time>
      </trkpt>
      <trkpt lat="27.800435" lon="86.711053">
        <ele>3365.8</ele>
        <time>2022-10-29T08:32:27.000Z</time>
      </trkpt>
      <trkpt lat="27.800406" lon="86.711053">
        <ele>3365.6</ele>
        <time>2022-10-29T08:32:29.000Z</time>
      </trkpt>
      <trkpt lat="27.800387" lon="86.711059">
        <ele>3365</ele>
        <time>2022-10-29T08:32:31.000Z</time>
      </trkpt>
      <trkpt lat="27.800368" lon="86.711046">
        <ele>3364.6</ele>
        <time>2022-10-29T08:32:34.000Z</time>
      </trkpt>
      <trkpt lat="27.800349" lon="86.711034">
        <ele>3364.2</ele>
        <time>2022-10-29T08:32:36.000Z</time>
      </trkpt>
      <trkpt lat="27.800326" lon="86.711021">
        <ele>3363.6</ele>
        <time>2022-10-29T08:32:38.000Z</time>
      </trkpt>
      <trkpt lat="27.800298" lon="86.711014">
        <ele>3363.4</ele>
        <time>2022-10-29T08:32:41.000Z</time>
      </trkpt>
      <trkpt lat="27.800272" lon="86.710982">
        <ele>3362.6</ele>
        <time>2022-10-29T08:32:44.000Z</time>
      </trkpt>
      <trkpt lat="27.800253" lon="86.710944">
        <ele>3362.4</ele>
        <time>2022-10-29T08:32:46.000Z</time>
      </trkpt>
      <trkpt lat="27.800246" lon="86.710925">
        <ele>3362.2</ele>
        <time>2022-10-29T08:32:47.000Z</time>
      </trkpt>
      <trkpt lat="27.800237" lon="86.710906">
        <ele>3362</ele>
        <time>2022-10-29T08:32:48.000Z</time>
      </trkpt>
      <trkpt lat="27.800224" lon="86.710861">
        <ele>3361</ele>
        <time>2022-10-29T08:32:50.000Z</time>
      </trkpt>
      <trkpt lat="27.800205" lon="86.710829">
        <ele>3361</ele>
        <time>2022-10-29T08:32:52.000Z</time>
      </trkpt>
      <trkpt lat="27.800186" lon="86.710822">
        <ele>3360.8</ele>
        <time>2022-10-29T08:32:54.000Z</time>
      </trkpt>
      <trkpt lat="27.800166" lon="86.710816">
        <ele>3360.8</ele>
        <time>2022-10-29T08:32:58.000Z</time>
      </trkpt>
      <trkpt lat="27.80015" lon="86.71079">
        <ele>3360.8</ele>
        <time>2022-10-29T08:33:03.000Z</time>
      </trkpt>
      <trkpt lat="27.800122" lon="86.71079">
        <ele>3360.6</ele>
        <time>2022-10-29T08:33:05.000Z</time>
      </trkpt>
      <trkpt lat="27.800102" lon="86.710784">
        <ele>3360.4</ele>
        <time>2022-10-29T08:33:07.000Z</time>
      </trkpt>
      <trkpt lat="27.80009" lon="86.710803">
        <ele>3360.4</ele>
        <time>2022-10-29T08:33:08.000Z</time>
      </trkpt>
      <trkpt lat="27.800067" lon="86.710822">
        <ele>3360.2</ele>
        <time>2022-10-29T08:33:10.000Z</time>
      </trkpt>
      <trkpt lat="27.800042" lon="86.710829">
        <ele>3360</ele>
        <time>2022-10-29T08:33:12.000Z</time>
      </trkpt>
      <trkpt lat="27.800026" lon="86.710848">
        <ele>3360</ele>
        <time>2022-10-29T08:33:13.000Z</time>
      </trkpt>
      <trkpt lat="27.800003" lon="86.710861">
        <ele>3359.4</ele>
        <time>2022-10-29T08:33:15.000Z</time>
      </trkpt>
      <trkpt lat="27.799978" lon="86.710886">
        <ele>3359.2</ele>
        <time>2022-10-29T08:33:17.000Z</time>
      </trkpt>
      <trkpt lat="27.799952" lon="86.710893">
        <ele>3359</ele>
        <time>2022-10-29T08:33:18.000Z</time>
      </trkpt>
      <trkpt lat="27.79992" lon="86.710906">
        <ele>3358.8</ele>
        <time>2022-10-29T08:33:19.000Z</time>
      </trkpt>
      <trkpt lat="27.799898" lon="86.710899">
        <ele>3358.6</ele>
        <time>2022-10-29T08:33:21.000Z</time>
      </trkpt>
      <trkpt lat="27.799872" lon="86.710886">
        <ele>3358.8</ele>
        <time>2022-10-29T08:33:23.000Z</time>
      </trkpt>
      <trkpt lat="27.799872" lon="86.710848">
        <ele>3358.6</ele>
        <time>2022-10-29T08:33:25.000Z</time>
      </trkpt>
      <trkpt lat="27.79985" lon="86.710861">
        <ele>3358.2</ele>
        <time>2022-10-29T08:33:27.000Z</time>
      </trkpt>
      <trkpt lat="27.79983" lon="86.710835">
        <ele>3358.2</ele>
        <time>2022-10-29T08:33:30.000Z</time>
      </trkpt>
      <trkpt lat="27.799811" lon="86.710829">
        <ele>3357.2</ele>
        <time>2022-10-29T08:33:32.000Z</time>
      </trkpt>
      <trkpt lat="27.799789" lon="86.710816">
        <ele>3356.4</ele>
        <time>2022-10-29T08:33:34.000Z</time>
      </trkpt>
      <trkpt lat="27.79977" lon="86.710784">
        <ele>3356.2</ele>
        <time>2022-10-29T08:33:37.000Z</time>
      </trkpt>
      <trkpt lat="27.79975" lon="86.71079">
        <ele>3357</ele>
        <time>2022-10-29T08:33:45.000Z</time>
      </trkpt>
      <trkpt lat="27.799734" lon="86.710803">
        <ele>3357.2</ele>
        <time>2022-10-29T08:33:49.000Z</time>
      </trkpt>
      <trkpt lat="27.799728" lon="86.710784">
        <ele>3356.6</ele>
        <time>2022-10-29T08:34:17.000Z</time>
      </trkpt>
      <trkpt lat="27.799728" lon="86.710739">
        <ele>3356.4</ele>
        <time>2022-10-29T08:34:26.000Z</time>
      </trkpt>
      <trkpt lat="27.799734" lon="86.710714">
        <ele>3357</ele>
        <time>2022-10-29T08:34:31.000Z</time>
      </trkpt>
      <trkpt lat="27.799782" lon="86.710694">
        <ele>3357.2</ele>
        <time>2022-10-29T08:34:35.000Z</time>
      </trkpt>
      <trkpt lat="27.79975" lon="86.710714">
        <ele>3356.8</ele>
        <time>2022-10-29T08:34:36.000Z</time>
      </trkpt>
      <trkpt lat="27.799741" lon="86.710733">
        <ele>3356.6</ele>
        <time>2022-10-29T08:34:37.000Z</time>
      </trkpt>
      <trkpt lat="27.799734" lon="86.710765">
        <ele>3356.2</ele>
        <time>2022-10-29T08:34:39.000Z</time>
      </trkpt>
      <trkpt lat="27.799718" lon="86.710784">
        <ele>3356.2</ele>
        <time>2022-10-29T08:34:40.000Z</time>
      </trkpt>
      <trkpt lat="27.799709" lon="86.710816">
        <ele>3356.2</ele>
        <time>2022-10-29T08:34:41.000Z</time>
      </trkpt>
      <trkpt lat="27.799731" lon="86.710816">
        <ele>3356</ele>
        <time>2022-10-29T08:34:45.000Z</time>
      </trkpt>
      <trkpt lat="27.799738" lon="86.710835">
        <ele>3356.2</ele>
        <time>2022-10-29T08:34:50.000Z</time>
      </trkpt>
      <trkpt lat="27.799728" lon="86.710854">
        <ele>3356.2</ele>
        <time>2022-10-29T08:34:52.000Z</time>
      </trkpt>
      <trkpt lat="27.799712" lon="86.710835">
        <ele>3356.4</ele>
        <time>2022-10-29T08:34:55.000Z</time>
      </trkpt>
      <trkpt lat="27.799709" lon="86.71079">
        <ele>3356.4</ele>
        <time>2022-10-29T08:34:57.000Z</time>
      </trkpt>
      <trkpt lat="27.799725" lon="86.710707">
        <ele>3356.2</ele>
        <time>2022-10-29T08:34:58.000Z</time>
      </trkpt>
      <trkpt lat="27.799754" lon="86.710637">
        <ele>3356.2</ele>
        <time>2022-10-29T08:34:59.000Z</time>
      </trkpt>
      <trkpt lat="27.799773" lon="86.710579">
        <ele>3356.4</ele>
        <time>2022-10-29T08:35:01.000Z</time>
      </trkpt>
      <trkpt lat="27.799782" lon="86.710541">
        <ele>3356.4</ele>
        <time>2022-10-29T08:35:02.000Z</time>
      </trkpt>
      <trkpt lat="27.799766" lon="86.710573">
        <ele>3356.4</ele>
        <time>2022-10-29T08:35:03.000Z</time>
      </trkpt>
      <trkpt lat="27.799773" lon="86.710611">
        <ele>3356.4</ele>
        <time>2022-10-29T08:35:04.000Z</time>
      </trkpt>
      <trkpt lat="27.799779" lon="86.710662">
        <ele>3356.4</ele>
        <time>2022-10-29T08:35:05.000Z</time>
      </trkpt>
      <trkpt lat="27.799795" lon="86.71063">
        <ele>3356.4</ele>
        <time>2022-10-29T08:35:06.000Z</time>
      </trkpt>
      <trkpt lat="27.799802" lon="86.710611">
        <ele>3356.2</ele>
        <time>2022-10-29T08:35:07.000Z</time>
      </trkpt>
      <trkpt lat="27.799779" lon="86.710611">
        <ele>3356.2</ele>
        <time>2022-10-29T08:35:10.000Z</time>
      </trkpt>
      <trkpt lat="27.79975" lon="86.710611">
        <ele>3356</ele>
        <time>2022-10-29T08:35:13.000Z</time>
      </trkpt>
      <trkpt lat="27.799734" lon="86.710579">
        <ele>3356.2</ele>
        <time>2022-10-29T08:35:16.000Z</time>
      </trkpt>
      <trkpt lat="27.799741" lon="86.710554">
        <ele>3356.2</ele>
        <time>2022-10-29T08:35:17.000Z</time>
      </trkpt>
      <trkpt lat="27.799741" lon="86.710592">
        <ele>3356.2</ele>
        <time>2022-10-29T08:35:20.000Z</time>
      </trkpt>
      <trkpt lat="27.799738" lon="86.710618">
        <ele>3356.4</ele>
        <time>2022-10-29T08:35:21.000Z</time>
      </trkpt>
      <trkpt lat="27.799741" lon="86.71065">
        <ele>3356.8</ele>
        <time>2022-10-29T08:35:24.000Z</time>
      </trkpt>
      <trkpt lat="27.799763" lon="86.710662">
        <ele>3356.8</ele>
        <time>2022-10-29T08:35:25.000Z</time>
      </trkpt>
      <trkpt lat="27.79976" lon="86.710637">
        <ele>3356.8</ele>
        <time>2022-10-29T08:35:29.000Z</time>
      </trkpt>
      <trkpt lat="27.799744" lon="86.71065">
        <ele>3356.8</ele>
        <time>2022-10-29T08:35:30.000Z</time>
      </trkpt>
      <trkpt lat="27.799744" lon="86.710624">
        <ele>3356.6</ele>
        <time>2022-10-29T08:35:31.000Z</time>
      </trkpt>
      <trkpt lat="27.79976" lon="86.710611">
        <ele>3356.6</ele>
        <time>2022-10-29T08:35:32.000Z</time>
      </trkpt>
      <trkpt lat="27.799782" lon="86.710605">
        <ele>3356.2</ele>
        <time>2022-10-29T08:35:34.000Z</time>
      </trkpt>
      <trkpt lat="27.799808" lon="86.710618">
        <ele>3356.2</ele>
        <time>2022-10-29T08:35:38.000Z</time>
      </trkpt>
      <trkpt lat="27.799827" lon="86.710611">
        <ele>3356.6</ele>
        <time>2022-10-29T08:35:41.000Z</time>
      </trkpt>
      <trkpt lat="27.79983" lon="86.710586">
        <ele>3356.8</ele>
        <time>2022-10-29T08:35:44.000Z</time>
      </trkpt>
      <trkpt lat="27.799827" lon="86.710618">
        <ele>3356.6</ele>
        <time>2022-10-29T08:35:49.000Z</time>
      </trkpt>
      <trkpt lat="27.799814" lon="86.710637">
        <ele>3356</ele>
        <time>2022-10-29T08:35:53.000Z</time>
      </trkpt>
      <trkpt lat="27.799763" lon="86.710771">
        <ele>3356.2</ele>
        <time>2022-10-29T08:35:56.000Z</time>
      </trkpt>
      <trkpt lat="27.799744" lon="86.710765">
        <ele>3356.2</ele>
        <time>2022-10-29T08:35:57.000Z</time>
      </trkpt>
      <trkpt lat="27.799741" lon="86.710714">
        <ele>3356.2</ele>
        <time>2022-10-29T08:36:03.000Z</time>
      </trkpt>
      <trkpt lat="27.799702" lon="86.710752">
        <ele>3356.4</ele>
        <time>2022-10-29T08:36:07.000Z</time>
      </trkpt>
      <trkpt lat="27.799709" lon="86.71081">
        <ele>3356.4</ele>
        <time>2022-10-29T08:36:08.000Z</time>
      </trkpt>
      <trkpt lat="27.799683" lon="86.710874">
        <ele>3356.4</ele>
        <time>2022-10-29T08:36:09.000Z</time>
      </trkpt>
      <trkpt lat="27.799677" lon="86.710925">
        <ele>3356.4</ele>
        <time>2022-10-29T08:36:10.000Z</time>
      </trkpt>
      <trkpt lat="27.799693" lon="86.710938">
        <ele>3356.6</ele>
        <time>2022-10-29T08:36:11.000Z</time>
      </trkpt>
      <trkpt lat="27.799683" lon="86.71097">
        <ele>3356.4</ele>
        <time>2022-10-29T08:36:16.000Z</time>
      </trkpt>
      <trkpt lat="27.799661" lon="86.710944">
        <ele>3356.2</ele>
        <time>2022-10-29T08:36:18.000Z</time>
      </trkpt>
      <trkpt lat="27.799629" lon="86.710963">
        <ele>3356.2</ele>
        <time>2022-10-29T08:36:20.000Z</time>
      </trkpt>
      <trkpt lat="27.799712" lon="86.710829">
        <ele>3356</ele>
        <time>2022-10-29T08:39:46.000Z</time>
      </trkpt>
      <trkpt lat="27.799718" lon="86.710854">
        <ele>3356</ele>
        <time>2022-10-29T08:39:47.000Z</time>
      </trkpt>
      <trkpt lat="27.799728" lon="86.710829">
        <ele>3355.2</ele>
        <time>2022-10-29T08:40:41.000Z</time>
      </trkpt>
      <trkpt lat="27.799722" lon="86.710848">
        <ele>3355.2</ele>
        <time>2022-10-29T08:40:45.000Z</time>
      </trkpt>
      <trkpt lat="27.799728" lon="86.710829">
        <ele>3356.2</ele>
        <time>2022-10-29T08:40:50.000Z</time>
      </trkpt>
      <trkpt lat="27.799738" lon="86.71081">
        <ele>3355.2</ele>
        <time>2022-10-29T08:41:11.000Z</time>
      </trkpt>
      <trkpt lat="27.799741" lon="86.710726">
        <ele>3355.2</ele>
        <time>2022-10-29T08:42:44.000Z</time>
      </trkpt>
      <trkpt lat="27.799734" lon="86.710778">
        <ele>3354.4</ele>
        <time>2022-10-29T08:42:53.000Z</time>
      </trkpt>
      <trkpt lat="27.799734" lon="86.710803">
        <ele>3354.4</ele>
        <time>2022-10-29T08:42:54.000Z</time>
      </trkpt>
      <trkpt lat="27.799734" lon="86.710771">
        <ele>3354.8</ele>
        <time>2022-10-29T08:43:37.000Z</time>
      </trkpt>
      <trkpt lat="27.799728" lon="86.71079">
        <ele>3355.4</ele>
        <time>2022-10-29T08:43:41.000Z</time>
      </trkpt>
      <trkpt lat="27.799712" lon="86.710771">
        <ele>3354.4</ele>
        <time>2022-10-29T08:43:50.000Z</time>
      </trkpt>
      <trkpt lat="27.799696" lon="86.710784">
        <ele>3354.8</ele>
        <time>2022-10-29T08:43:52.000Z</time>
      </trkpt>
      <trkpt lat="27.799674" lon="86.710765">
        <ele>3354.8</ele>
        <time>2022-10-29T08:43:55.000Z</time>
      </trkpt>
      <trkpt lat="27.799645" lon="86.710752">
        <ele>3354.4</ele>
        <time>2022-10-29T08:43:57.000Z</time>
      </trkpt>
      <trkpt lat="27.799619" lon="86.710765">
        <ele>3353.4</ele>
        <time>2022-10-29T08:43:59.000Z</time>
      </trkpt>
      <trkpt lat="27.799603" lon="86.710778">
        <ele>3353.4</ele>
        <time>2022-10-29T08:44:00.000Z</time>
      </trkpt>
      <trkpt lat="27.799584" lon="86.710778">
        <ele>3353.8</ele>
        <time>2022-10-29T08:44:02.000Z</time>
      </trkpt>
      <trkpt lat="27.799562" lon="86.710765">
        <ele>3354</ele>
        <time>2022-10-29T08:44:04.000Z</time>
      </trkpt>
      <trkpt lat="27.799536" lon="86.710771">
        <ele>3354.2</ele>
        <time>2022-10-29T08:44:06.000Z</time>
      </trkpt>
      <trkpt lat="27.799507" lon="86.710803">
        <ele>3354.2</ele>
        <time>2022-10-29T08:44:08.000Z</time>
      </trkpt>
      <trkpt lat="27.799485" lon="86.71081">
        <ele>3354.4</ele>
        <time>2022-10-29T08:44:10.000Z</time>
      </trkpt>
      <trkpt lat="27.799478" lon="86.710829">
        <ele>3353.2</ele>
        <time>2022-10-29T08:44:13.000Z</time>
      </trkpt>
      <trkpt lat="27.799472" lon="86.710848">
        <ele>3352.8</ele>
        <time>2022-10-29T08:44:15.000Z</time>
      </trkpt>
      <trkpt lat="27.799456" lon="86.710867">
        <ele>3352.6</ele>
        <time>2022-10-29T08:44:18.000Z</time>
      </trkpt>
      <trkpt lat="27.79945" lon="86.710899">
        <ele>3352.4</ele>
        <time>2022-10-29T08:44:20.000Z</time>
      </trkpt>
      <trkpt lat="27.799434" lon="86.710938">
        <ele>3351.4</ele>
        <time>2022-10-29T08:44:22.000Z</time>
      </trkpt>
      <trkpt lat="27.799418" lon="86.71095">
        <ele>3350.2</ele>
        <time>2022-10-29T08:44:24.000Z</time>
      </trkpt>
      <trkpt lat="27.799402" lon="86.71097">
        <ele>3350.6</ele>
        <time>2022-10-29T08:44:26.000Z</time>
      </trkpt>
      <trkpt lat="27.799379" lon="86.711002">
        <ele>3350.6</ele>
        <time>2022-10-29T08:44:28.000Z</time>
      </trkpt>
      <trkpt lat="27.79937" lon="86.711021">
        <ele>3350.6</ele>
        <time>2022-10-29T08:44:30.000Z</time>
      </trkpt>
      <trkpt lat="27.799357" lon="86.711059">
        <ele>3349.6</ele>
        <time>2022-10-29T08:44:32.000Z</time>
      </trkpt>
      <trkpt lat="27.79935" lon="86.711085">
        <ele>3349.6</ele>
        <time>2022-10-29T08:44:33.000Z</time>
      </trkpt>
      <trkpt lat="27.799344" lon="86.71111">
        <ele>3349.6</ele>
        <time>2022-10-29T08:44:35.000Z</time>
      </trkpt>
      <trkpt lat="27.79935" lon="86.711136">
        <ele>3349.6</ele>
        <time>2022-10-29T08:44:37.000Z</time>
      </trkpt>
      <trkpt lat="27.79935" lon="86.711162">
        <ele>3349.8</ele>
        <time>2022-10-29T08:44:41.000Z</time>
      </trkpt>
      <trkpt lat="27.799338" lon="86.711181">
        <ele>3348.4</ele>
        <time>2022-10-29T08:44:45.000Z</time>
      </trkpt>
      <trkpt lat="27.79935" lon="86.711206">
        <ele>3347</ele>
        <time>2022-10-29T08:44:50.000Z</time>
      </trkpt>
      <trkpt lat="27.79935" lon="86.711245">
        <ele>3346.8</ele>
        <time>2022-10-29T08:44:52.000Z</time>
      </trkpt>
      <trkpt lat="27.799344" lon="86.711283">
        <ele>3346.6</ele>
        <time>2022-10-29T08:44:53.000Z</time>
      </trkpt>
      <trkpt lat="27.799331" lon="86.711309">
        <ele>3345.6</ele>
        <time>2022-10-29T08:44:55.000Z</time>
      </trkpt>
      <trkpt lat="27.799309" lon="86.711302">
        <ele>3345.2</ele>
        <time>2022-10-29T08:44:58.000Z</time>
      </trkpt>
      <trkpt lat="27.79929" lon="86.71129">
        <ele>3344.4</ele>
        <time>2022-10-29T08:45:02.000Z</time>
      </trkpt>
      <trkpt lat="27.79929" lon="86.711264">
        <ele>3344</ele>
        <time>2022-10-29T08:45:04.000Z</time>
      </trkpt>
      <trkpt lat="27.799261" lon="86.711264">
        <ele>3342.4</ele>
        <time>2022-10-29T08:45:10.000Z</time>
      </trkpt>
      <trkpt lat="27.799238" lon="86.711283">
        <ele>3341.8</ele>
        <time>2022-10-29T08:45:14.000Z</time>
      </trkpt>
      <trkpt lat="27.799226" lon="86.711309">
        <ele>3341.4</ele>
        <time>2022-10-29T08:45:15.000Z</time>
      </trkpt>
      <trkpt lat="27.799213" lon="86.711328">
        <ele>3341</ele>
        <time>2022-10-29T08:45:16.000Z</time>
      </trkpt>
      <trkpt lat="27.799194" lon="86.711334">
        <ele>3340.6</ele>
        <time>2022-10-29T08:45:18.000Z</time>
      </trkpt>
      <trkpt lat="27.799174" lon="86.711347">
        <ele>3340</ele>
        <time>2022-10-29T08:45:20.000Z</time>
      </trkpt>
      <trkpt lat="27.799146" lon="86.71136">
        <ele>3339.4</ele>
        <time>2022-10-29T08:45:22.000Z</time>
      </trkpt>
      <trkpt lat="27.799126" lon="86.711373">
        <ele>3339.4</ele>
        <time>2022-10-29T08:45:23.000Z</time>
      </trkpt>
      <trkpt lat="27.799114" lon="86.711341">
        <ele>3338.8</ele>
        <time>2022-10-29T08:45:25.000Z</time>
      </trkpt>
      <trkpt lat="27.799101" lon="86.71136">
        <ele>3337.8</ele>
        <time>2022-10-29T08:45:29.000Z</time>
      </trkpt>
      <trkpt lat="27.799075" lon="86.711347">
        <ele>3337</ele>
        <time>2022-10-29T08:45:32.000Z</time>
      </trkpt>
      <trkpt lat="27.799056" lon="86.71136">
        <ele>3336.8</ele>
        <time>2022-10-29T08:45:34.000Z</time>
      </trkpt>
      <trkpt lat="27.799027" lon="86.711373">
        <ele>3336.8</ele>
        <time>2022-10-29T08:45:36.000Z</time>
      </trkpt>
      <trkpt lat="27.798998" lon="86.711398">
        <ele>3336.4</ele>
        <time>2022-10-29T08:45:38.000Z</time>
      </trkpt>
      <trkpt lat="27.798954" lon="86.711379">
        <ele>3336.2</ele>
        <time>2022-10-29T08:45:43.000Z</time>
      </trkpt>
      <trkpt lat="27.798938" lon="86.711366">
        <ele>3336</ele>
        <time>2022-10-29T08:45:45.000Z</time>
      </trkpt>
      <trkpt lat="27.798912" lon="86.711373">
        <ele>3335.2</ele>
        <time>2022-10-29T08:45:47.000Z</time>
      </trkpt>
      <trkpt lat="27.79889" lon="86.711386">
        <ele>3334.6</ele>
        <time>2022-10-29T08:45:49.000Z</time>
      </trkpt>
      <trkpt lat="27.79887" lon="86.711398">
        <ele>3334.4</ele>
        <time>2022-10-29T08:45:50.000Z</time>
      </trkpt>
      <trkpt lat="27.798851" lon="86.711386">
        <ele>3334</ele>
        <time>2022-10-29T08:45:52.000Z</time>
      </trkpt>
      <trkpt lat="27.798826" lon="86.71136">
        <ele>3333.4</ele>
        <time>2022-10-29T08:45:54.000Z</time>
      </trkpt>
      <trkpt lat="27.798806" lon="86.711341">
        <ele>3333.4</ele>
        <time>2022-10-29T08:45:56.000Z</time>
      </trkpt>
      <trkpt lat="27.798794" lon="86.711322">
        <ele>3333.2</ele>
        <time>2022-10-29T08:45:58.000Z</time>
      </trkpt>
      <trkpt lat="27.798774" lon="86.711328">
        <ele>3333.2</ele>
        <time>2022-10-29T08:46:00.000Z</time>
      </trkpt>
      <trkpt lat="27.798749" lon="86.711334">
        <ele>3332.6</ele>
        <time>2022-10-29T08:46:03.000Z</time>
      </trkpt>
      <trkpt lat="27.79873" lon="86.71136">
        <ele>3332.4</ele>
        <time>2022-10-29T08:46:05.000Z</time>
      </trkpt>
      <trkpt lat="27.79872" lon="86.711379">
        <ele>3332.2</ele>
        <time>2022-10-29T08:46:06.000Z</time>
      </trkpt>
      <trkpt lat="27.798717" lon="86.711411">
        <ele>3331.8</ele>
        <time>2022-10-29T08:46:07.000Z</time>
      </trkpt>
      <trkpt lat="27.798707" lon="86.71143">
        <ele>3331.6</ele>
        <time>2022-10-29T08:46:08.000Z</time>
      </trkpt>
      <trkpt lat="27.798694" lon="86.711456">
        <ele>3331.4</ele>
        <time>2022-10-29T08:46:09.000Z</time>
      </trkpt>
      <trkpt lat="27.798678" lon="86.711482">
        <ele>3331.4</ele>
        <time>2022-10-29T08:46:11.000Z</time>
      </trkpt>
      <trkpt lat="27.798662" lon="86.711507">
        <ele>3331.6</ele>
        <time>2022-10-29T08:46:14.000Z</time>
      </trkpt>
      <trkpt lat="27.798659" lon="86.711539">
        <ele>3331.2</ele>
        <time>2022-10-29T08:46:16.000Z</time>
      </trkpt>
      <trkpt lat="27.798653" lon="86.711565">
        <ele>3330.6</ele>
        <time>2022-10-29T08:46:19.000Z</time>
      </trkpt>
      <trkpt lat="27.79864" lon="86.711597">
        <ele>3330</ele>
        <time>2022-10-29T08:46:21.000Z</time>
      </trkpt>
      <trkpt lat="27.798634" lon="86.711616">
        <ele>3329.8</ele>
        <time>2022-10-29T08:46:22.000Z</time>
      </trkpt>
      <trkpt lat="27.798627" lon="86.711648">
        <ele>3329.4</ele>
        <time>2022-10-29T08:46:24.000Z</time>
      </trkpt>
      <trkpt lat="27.798624" lon="86.711686">
        <ele>3329.4</ele>
        <time>2022-10-29T08:46:26.000Z</time>
      </trkpt>
      <trkpt lat="27.798614" lon="86.711718">
        <ele>3328.8</ele>
        <time>2022-10-29T08:46:28.000Z</time>
      </trkpt>
      <trkpt lat="27.798611" lon="86.711744">
        <ele>3328.6</ele>
        <time>2022-10-29T08:46:31.000Z</time>
      </trkpt>
      <trkpt lat="27.798611" lon="86.711776">
        <ele>3328.6</ele>
        <time>2022-10-29T08:46:35.000Z</time>
      </trkpt>
      <trkpt lat="27.798586" lon="86.711789">
        <ele>3328.2</ele>
        <time>2022-10-29T08:46:38.000Z</time>
      </trkpt>
      <trkpt lat="27.798579" lon="86.711808">
        <ele>3327.8</ele>
        <time>2022-10-29T08:46:39.000Z</time>
      </trkpt>
      <trkpt lat="27.79856" lon="86.711821">
        <ele>3327.2</ele>
        <time>2022-10-29T08:46:41.000Z</time>
      </trkpt>
      <trkpt lat="27.798541" lon="86.71184">
        <ele>3327</ele>
        <time>2022-10-29T08:46:44.000Z</time>
      </trkpt>
      <trkpt lat="27.798518" lon="86.711846">
        <ele>3327</ele>
        <time>2022-10-29T08:46:46.000Z</time>
      </trkpt>
      <trkpt lat="27.798493" lon="86.71184">
        <ele>3326.6</ele>
        <time>2022-10-29T08:46:48.000Z</time>
      </trkpt>
      <trkpt lat="27.798477" lon="86.711853">
        <ele>3326.4</ele>
        <time>2022-10-29T08:46:50.000Z</time>
      </trkpt>
      <trkpt lat="27.798451" lon="86.711846">
        <ele>3326.2</ele>
        <time>2022-10-29T08:46:52.000Z</time>
      </trkpt>
      <trkpt lat="27.798429" lon="86.711827">
        <ele>3326.2</ele>
        <time>2022-10-29T08:46:54.000Z</time>
      </trkpt>
      <trkpt lat="27.798413" lon="86.711814">
        <ele>3325.4</ele>
        <time>2022-10-29T08:46:56.000Z</time>
      </trkpt>
      <trkpt lat="27.798381" lon="86.711814">
        <ele>3325</ele>
        <time>2022-10-29T08:46:58.000Z</time>
      </trkpt>
      <trkpt lat="27.798358" lon="86.711789">
        <ele>3324.8</ele>
        <time>2022-10-29T08:47:00.000Z</time>
      </trkpt>
      <trkpt lat="27.798342" lon="86.711763">
        <ele>3324.6</ele>
        <time>2022-10-29T08:47:02.000Z</time>
      </trkpt>
      <trkpt lat="27.798333" lon="86.711744">
        <ele>3324.4</ele>
        <time>2022-10-29T08:47:03.000Z</time>
      </trkpt>
      <trkpt lat="27.79831" lon="86.711731">
        <ele>3324.4</ele>
        <time>2022-10-29T08:47:06.000Z</time>
      </trkpt>
      <trkpt lat="27.798291" lon="86.711738">
        <ele>3324.4</ele>
        <time>2022-10-29T08:47:07.000Z</time>
      </trkpt>
      <trkpt lat="27.798272" lon="86.711738">
        <ele>3323.8</ele>
        <time>2022-10-29T08:47:08.000Z</time>
      </trkpt>
      <trkpt lat="27.798256" lon="86.711757">
        <ele>3323.6</ele>
        <time>2022-10-29T08:47:09.000Z</time>
      </trkpt>
      <trkpt lat="27.798234" lon="86.711757">
        <ele>3323.2</ele>
        <time>2022-10-29T08:47:11.000Z</time>
      </trkpt>
      <trkpt lat="27.798211" lon="86.711757">
        <ele>3322.8</ele>
        <time>2022-10-29T08:47:13.000Z</time>
      </trkpt>
      <trkpt lat="27.798195" lon="86.711738">
        <ele>3322</ele>
        <time>2022-10-29T08:47:15.000Z</time>
      </trkpt>
      <trkpt lat="27.798173" lon="86.711744">
        <ele>3321.4</ele>
        <time>2022-10-29T08:47:17.000Z</time>
      </trkpt>
      <trkpt lat="27.798157" lon="86.711757">
        <ele>3320.8</ele>
        <time>2022-10-29T08:47:18.000Z</time>
      </trkpt>
      <trkpt lat="27.798128" lon="86.711782">
        <ele>3320.6</ele>
        <time>2022-10-29T08:47:19.000Z</time>
      </trkpt>
      <trkpt lat="27.798106" lon="86.711789">
        <ele>3320.4</ele>
        <time>2022-10-29T08:47:20.000Z</time>
      </trkpt>
      <trkpt lat="27.798086" lon="86.711789">
        <ele>3320.2</ele>
        <time>2022-10-29T08:47:21.000Z</time>
      </trkpt>
      <trkpt lat="27.798058" lon="86.711802">
        <ele>3320</ele>
        <time>2022-10-29T08:47:23.000Z</time>
      </trkpt>
      <trkpt lat="27.798038" lon="86.711808">
        <ele>3320</ele>
        <time>2022-10-29T08:47:25.000Z</time>
      </trkpt>
      <trkpt lat="27.798016" lon="86.711814">
        <ele>3320</ele>
        <time>2022-10-29T08:47:27.000Z</time>
      </trkpt>
      <trkpt lat="27.79799" lon="86.711814">
        <ele>3319.6</ele>
        <time>2022-10-29T08:47:30.000Z</time>
      </trkpt>
      <trkpt lat="27.797965" lon="86.711814">
        <ele>3318.8</ele>
        <time>2022-10-29T08:47:33.000Z</time>
      </trkpt>
      <trkpt lat="27.797946" lon="86.711808">
        <ele>3318.4</ele>
        <time>2022-10-29T08:47:35.000Z</time>
      </trkpt>
      <trkpt lat="27.797926" lon="86.711782">
        <ele>3318.4</ele>
        <time>2022-10-29T08:47:37.000Z</time>
      </trkpt>
      <trkpt lat="27.797907" lon="86.711763">
        <ele>3317.6</ele>
        <time>2022-10-29T08:47:39.000Z</time>
      </trkpt>
      <trkpt lat="27.797901" lon="86.711744">
        <ele>3317.6</ele>
        <time>2022-10-29T08:47:40.000Z</time>
      </trkpt>
      <trkpt lat="27.797894" lon="86.711725">
        <ele>3317.6</ele>
        <time>2022-10-29T08:47:41.000Z</time>
      </trkpt>
      <trkpt lat="27.797872" lon="86.711706">
        <ele>3317.6</ele>
        <time>2022-10-29T08:47:43.000Z</time>
      </trkpt>
      <trkpt lat="27.797846" lon="86.711699">
        <ele>3317.6</ele>
        <time>2022-10-29T08:47:45.000Z</time>
      </trkpt>
      <trkpt lat="27.797818" lon="86.711686">
        <ele>3317.6</ele>
        <time>2022-10-29T08:47:47.000Z</time>
      </trkpt>
      <trkpt lat="27.797792" lon="86.711686">
        <ele>3317.2</ele>
        <time>2022-10-29T08:47:49.000Z</time>
      </trkpt>
      <trkpt lat="27.797773" lon="86.711667">
        <ele>3317</ele>
        <time>2022-10-29T08:47:51.000Z</time>
      </trkpt>
      <trkpt lat="27.797754" lon="86.711642">
        <ele>3316.6</ele>
        <time>2022-10-29T08:47:53.000Z</time>
      </trkpt>
      <trkpt lat="27.797741" lon="86.711616">
        <ele>3316.6</ele>
        <time>2022-10-29T08:47:54.000Z</time>
      </trkpt>
      <trkpt lat="27.797722" lon="86.711603">
        <ele>3316.2</ele>
        <time>2022-10-29T08:47:56.000Z</time>
      </trkpt>
      <trkpt lat="27.797699" lon="86.71161">
        <ele>3316</ele>
        <time>2022-10-29T08:47:59.000Z</time>
      </trkpt>
      <trkpt lat="27.79767" lon="86.711616">
        <ele>3315.4</ele>
        <time>2022-10-29T08:48:01.000Z</time>
      </trkpt>
      <trkpt lat="27.797651" lon="86.711629">
        <ele>3314.6</ele>
        <time>2022-10-29T08:48:03.000Z</time>
      </trkpt>
      <trkpt lat="27.797626" lon="86.711642">
        <ele>3314</ele>
        <time>2022-10-29T08:48:05.000Z</time>
      </trkpt>
      <trkpt lat="27.797606" lon="86.711648">
        <ele>3314</ele>
        <time>2022-10-29T08:48:07.000Z</time>
      </trkpt>
      <trkpt lat="27.797597" lon="86.711629">
        <ele>3314</ele>
        <time>2022-10-29T08:48:08.000Z</time>
      </trkpt>
      <trkpt lat="27.797568" lon="86.711629">
        <ele>3313.6</ele>
        <time>2022-10-29T08:48:10.000Z</time>
      </trkpt>
      <trkpt lat="27.797549" lon="86.711629">
        <ele>3312.8</ele>
        <time>2022-10-29T08:48:12.000Z</time>
      </trkpt>
      <trkpt lat="27.79753" lon="86.711648">
        <ele>3312.2</ele>
        <time>2022-10-29T08:48:14.000Z</time>
      </trkpt>
      <trkpt lat="27.797517" lon="86.71168">
        <ele>3312.2</ele>
        <time>2022-10-29T08:48:16.000Z</time>
      </trkpt>
      <trkpt lat="27.797504" lon="86.711699">
        <ele>3311.8</ele>
        <time>2022-10-29T08:48:18.000Z</time>
      </trkpt>
      <trkpt lat="27.797485" lon="86.711725">
        <ele>3311.2</ele>
        <time>2022-10-29T08:48:24.000Z</time>
      </trkpt>
      <trkpt lat="27.797475" lon="86.711744">
        <ele>3311</ele>
        <time>2022-10-29T08:48:25.000Z</time>
      </trkpt>
      <trkpt lat="27.797472" lon="86.71177">
        <ele>3310.2</ele>
        <time>2022-10-29T08:48:27.000Z</time>
      </trkpt>
      <trkpt lat="27.797469" lon="86.711808">
        <ele>3309.4</ele>
        <time>2022-10-29T08:48:30.000Z</time>
      </trkpt>
      <trkpt lat="27.797453" lon="86.711827">
        <ele>3309</ele>
        <time>2022-10-29T08:48:32.000Z</time>
      </trkpt>
      <trkpt lat="27.79744" lon="86.711846">
        <ele>3308.4</ele>
        <time>2022-10-29T08:48:34.000Z</time>
      </trkpt>
      <trkpt lat="27.79744" lon="86.711885">
        <ele>3307.4</ele>
        <time>2022-10-29T08:48:37.000Z</time>
      </trkpt>
      <trkpt lat="27.797437" lon="86.711917">
        <ele>3305.8</ele>
        <time>2022-10-29T08:48:43.000Z</time>
      </trkpt>
      <trkpt lat="27.797434" lon="86.711942">
        <ele>3305.6</ele>
        <time>2022-10-29T08:48:45.000Z</time>
      </trkpt>
      <trkpt lat="27.797424" lon="86.711962">
        <ele>3305.4</ele>
        <time>2022-10-29T08:48:47.000Z</time>
      </trkpt>
      <trkpt lat="27.797398" lon="86.711962">
        <ele>3304.8</ele>
        <time>2022-10-29T08:48:50.000Z</time>
      </trkpt>
      <trkpt lat="27.797376" lon="86.711974">
        <ele>3303.8</ele>
        <time>2022-10-29T08:48:53.000Z</time>
      </trkpt>
      <trkpt lat="27.79736" lon="86.712006">
        <ele>3303.2</ele>
        <time>2022-10-29T08:48:55.000Z</time>
      </trkpt>
      <trkpt lat="27.797344" lon="86.712019">
        <ele>3302.4</ele>
        <time>2022-10-29T08:48:57.000Z</time>
      </trkpt>
      <trkpt lat="27.797328" lon="86.712038">
        <ele>3302.4</ele>
        <time>2022-10-29T08:48:59.000Z</time>
      </trkpt>
      <trkpt lat="27.797331" lon="86.712077">
        <ele>3301.8</ele>
        <time>2022-10-29T08:49:02.000Z</time>
      </trkpt>
      <trkpt lat="27.797306" lon="86.712102">
        <ele>3301.6</ele>
        <time>2022-10-29T08:49:04.000Z</time>
      </trkpt>
      <trkpt lat="27.79728" lon="86.712102">
        <ele>3300.6</ele>
        <time>2022-10-29T08:49:10.000Z</time>
      </trkpt>
      <trkpt lat="27.797258" lon="86.712102">
        <ele>3299.8</ele>
        <time>2022-10-29T08:49:12.000Z</time>
      </trkpt>
      <trkpt lat="27.797242" lon="86.712115">
        <ele>3299.4</ele>
        <time>2022-10-29T08:49:13.000Z</time>
      </trkpt>
      <trkpt lat="27.797216" lon="86.712134">
        <ele>3299</ele>
        <time>2022-10-29T08:49:15.000Z</time>
      </trkpt>
      <trkpt lat="27.7972" lon="86.71216">
        <ele>3298.6</ele>
        <time>2022-10-29T08:49:17.000Z</time>
      </trkpt>
      <trkpt lat="27.797194" lon="86.712186">
        <ele>3298</ele>
        <time>2022-10-29T08:49:19.000Z</time>
      </trkpt>
      <trkpt lat="27.797178" lon="86.712211">
        <ele>3297.8</ele>
        <time>2022-10-29T08:49:21.000Z</time>
      </trkpt>
      <trkpt lat="27.797162" lon="86.712237">
        <ele>3297.6</ele>
        <time>2022-10-29T08:49:23.000Z</time>
      </trkpt>
      <trkpt lat="27.797155" lon="86.712262">
        <ele>3297.2</ele>
        <time>2022-10-29T08:49:25.000Z</time>
      </trkpt>
      <trkpt lat="27.797146" lon="86.712282">
        <ele>3297</ele>
        <time>2022-10-29T08:49:26.000Z</time>
      </trkpt>
      <trkpt lat="27.797136" lon="86.712301">
        <ele>3296</ele>
        <time>2022-10-29T08:49:29.000Z</time>
      </trkpt>
      <trkpt lat="27.797114" lon="86.71232">
        <ele>3295.6</ele>
        <time>2022-10-29T08:49:31.000Z</time>
      </trkpt>
      <trkpt lat="27.797088" lon="86.712339">
        <ele>3294.8</ele>
        <time>2022-10-29T08:49:33.000Z</time>
      </trkpt>
      <trkpt lat="27.797059" lon="86.712358">
        <ele>3294.6</ele>
        <time>2022-10-29T08:49:35.000Z</time>
      </trkpt>
      <trkpt lat="27.79704" lon="86.712378">
        <ele>3294</ele>
        <time>2022-10-29T08:49:37.000Z</time>
      </trkpt>
      <trkpt lat="27.797018" lon="86.712384">
        <ele>3293.4</ele>
        <time>2022-10-29T08:49:39.000Z</time>
      </trkpt>
      <trkpt lat="27.797002" lon="86.712371">
        <ele>3293.2</ele>
        <time>2022-10-29T08:49:43.000Z</time>
      </trkpt>
      <trkpt lat="27.796979" lon="86.712378">
        <ele>3291.6</ele>
        <time>2022-10-29T08:49:47.000Z</time>
      </trkpt>
      <trkpt lat="27.79697" lon="86.712397">
        <ele>3291.4</ele>
        <time>2022-10-29T08:49:50.000Z</time>
      </trkpt>
      <trkpt lat="27.796947" lon="86.712403">
        <ele>3290.4</ele>
        <time>2022-10-29T08:49:52.000Z</time>
      </trkpt>
      <trkpt lat="27.796938" lon="86.712384">
        <ele>3290</ele>
        <time>2022-10-29T08:49:54.000Z</time>
      </trkpt>
      <trkpt lat="27.796915" lon="86.712384">
        <ele>3289.8</ele>
        <time>2022-10-29T08:49:56.000Z</time>
      </trkpt>
      <trkpt lat="27.796899" lon="86.712397">
        <ele>3289.6</ele>
        <time>2022-10-29T08:49:57.000Z</time>
      </trkpt>
      <trkpt lat="27.79688" lon="86.712397">
        <ele>3289.4</ele>
        <time>2022-10-29T08:49:58.000Z</time>
      </trkpt>
      <trkpt lat="27.796861" lon="86.712403">
        <ele>3288.2</ele>
        <time>2022-10-29T08:50:01.000Z</time>
      </trkpt>
      <trkpt lat="27.796838" lon="86.712422">
        <ele>3287.6</ele>
        <time>2022-10-29T08:50:04.000Z</time>
      </trkpt>
      <trkpt lat="27.796819" lon="86.712442">
        <ele>3286.4</ele>
        <time>2022-10-29T08:50:08.000Z</time>
      </trkpt>
      <trkpt lat="27.796819" lon="86.71248">
        <ele>3286</ele>
        <time>2022-10-29T08:50:10.000Z</time>
      </trkpt>
      <trkpt lat="27.796813" lon="86.712499">
        <ele>3285.6</ele>
        <time>2022-10-29T08:50:11.000Z</time>
      </trkpt>
      <trkpt lat="27.796803" lon="86.712518">
        <ele>3285.2</ele>
        <time>2022-10-29T08:50:12.000Z</time>
      </trkpt>
      <trkpt lat="27.796794" lon="86.71255">
        <ele>3284.4</ele>
        <time>2022-10-29T08:50:14.000Z</time>
      </trkpt>
      <trkpt lat="27.796781" lon="86.712582">
        <ele>3284.2</ele>
        <time>2022-10-29T08:50:16.000Z</time>
      </trkpt>
      <trkpt lat="27.796774" lon="86.712602">
        <ele>3283.8</ele>
        <time>2022-10-29T08:50:17.000Z</time>
      </trkpt>
      <trkpt lat="27.796765" lon="86.71264">
        <ele>3283.6</ele>
        <time>2022-10-29T08:50:19.000Z</time>
      </trkpt>
      <trkpt lat="27.796742" lon="86.712659">
        <ele>3282.6</ele>
        <time>2022-10-29T08:50:22.000Z</time>
      </trkpt>
      <trkpt lat="27.79673" lon="86.712685">
        <ele>3282.4</ele>
        <time>2022-10-29T08:50:23.000Z</time>
      </trkpt>
      <trkpt lat="27.796714" lon="86.712698">
        <ele>3282.2</ele>
        <time>2022-10-29T08:50:24.000Z</time>
      </trkpt>
      <trkpt lat="27.796701" lon="86.712717">
        <ele>3282.2</ele>
        <time>2022-10-29T08:50:25.000Z</time>
      </trkpt>
      <trkpt lat="27.796682" lon="86.712723">
        <ele>3281.2</ele>
        <time>2022-10-29T08:50:27.000Z</time>
      </trkpt>
      <trkpt lat="27.796662" lon="86.712736">
        <ele>3280.4</ele>
        <time>2022-10-29T08:50:30.000Z</time>
      </trkpt>
      <trkpt lat="27.796662" lon="86.712762">
        <ele>3279.6</ele>
        <time>2022-10-29T08:50:32.000Z</time>
      </trkpt>
      <trkpt lat="27.79665" lon="86.712781">
        <ele>3278.4</ele>
        <time>2022-10-29T08:50:36.000Z</time>
      </trkpt>
      <trkpt lat="27.796634" lon="86.7128">
        <ele>3278.2</ele>
        <time>2022-10-29T08:50:37.000Z</time>
      </trkpt>
      <trkpt lat="27.796621" lon="86.712819">
        <ele>3278</ele>
        <time>2022-10-29T08:50:38.000Z</time>
      </trkpt>
      <trkpt lat="27.796608" lon="86.712838">
        <ele>3277.8</ele>
        <time>2022-10-29T08:50:39.000Z</time>
      </trkpt>
      <trkpt lat="27.796589" lon="86.712858">
        <ele>3277.4</ele>
        <time>2022-10-29T08:50:41.000Z</time>
      </trkpt>
      <trkpt lat="27.796573" lon="86.712883">
        <ele>3276.4</ele>
        <time>2022-10-29T08:50:43.000Z</time>
      </trkpt>
      <trkpt lat="27.796554" lon="86.712896">
        <ele>3275.8</ele>
        <time>2022-10-29T08:50:45.000Z</time>
      </trkpt>
      <trkpt lat="27.796541" lon="86.712922">
        <ele>3275.2</ele>
        <time>2022-10-29T08:50:47.000Z</time>
      </trkpt>
      <trkpt lat="27.796525" lon="86.712947">
        <ele>3274.6</ele>
        <time>2022-10-29T08:50:49.000Z</time>
      </trkpt>
      <trkpt lat="27.796512" lon="86.712966">
        <ele>3274</ele>
        <time>2022-10-29T08:50:52.000Z</time>
      </trkpt>
      <trkpt lat="27.796486" lon="86.712973">
        <ele>3273.4</ele>
        <time>2022-10-29T08:50:54.000Z</time>
      </trkpt>
      <trkpt lat="27.796461" lon="86.712992">
        <ele>3272.6</ele>
        <time>2022-10-29T08:50:57.000Z</time>
      </trkpt>
      <trkpt lat="27.796442" lon="86.713005">
        <ele>3272</ele>
        <time>2022-10-29T08:50:59.000Z</time>
      </trkpt>
      <trkpt lat="27.796419" lon="86.71303">
        <ele>3271.2</ele>
        <time>2022-10-29T08:51:02.000Z</time>
      </trkpt>
      <trkpt lat="27.796403" lon="86.713043">
        <ele>3270.4</ele>
        <time>2022-10-29T08:51:04.000Z</time>
      </trkpt>
      <trkpt lat="27.796387" lon="86.713056">
        <ele>3269.8</ele>
        <time>2022-10-29T08:51:08.000Z</time>
      </trkpt>
      <trkpt lat="27.796368" lon="86.713056">
        <ele>3269.6</ele>
        <time>2022-10-29T08:51:13.000Z</time>
      </trkpt>
      <trkpt lat="27.796355" lon="86.713075">
        <ele>3269.8</ele>
        <time>2022-10-29T08:51:15.000Z</time>
      </trkpt>
      <trkpt lat="27.796362" lon="86.713056">
        <ele>3269.2</ele>
        <time>2022-10-29T08:51:27.000Z</time>
      </trkpt>
      <trkpt lat="27.796355" lon="86.713075">
        <ele>3269.2</ele>
        <time>2022-10-29T08:51:30.000Z</time>
      </trkpt>
      <trkpt lat="27.796365" lon="86.713094">
        <ele>3268.4</ele>
        <time>2022-10-29T08:51:36.000Z</time>
      </trkpt>
      <trkpt lat="27.796349" lon="86.713114">
        <ele>3268.2</ele>
        <time>2022-10-29T08:51:39.000Z</time>
      </trkpt>
      <trkpt lat="27.796333" lon="86.713133">
        <ele>3267</ele>
        <time>2022-10-29T08:51:44.000Z</time>
      </trkpt>
      <trkpt lat="27.796323" lon="86.713152">
        <ele>3267</ele>
        <time>2022-10-29T08:51:45.000Z</time>
      </trkpt>
      <trkpt lat="27.796307" lon="86.71319">
        <ele>3266.2</ele>
        <time>2022-10-29T08:51:47.000Z</time>
      </trkpt>
      <trkpt lat="27.796288" lon="86.713216">
        <ele>3265.8</ele>
        <time>2022-10-29T08:51:49.000Z</time>
      </trkpt>
      <trkpt lat="27.796272" lon="86.713242">
        <ele>3265.2</ele>
        <time>2022-10-29T08:51:51.000Z</time>
      </trkpt>
      <trkpt lat="27.796256" lon="86.713267">
        <ele>3265</ele>
        <time>2022-10-29T08:51:53.000Z</time>
      </trkpt>
      <trkpt lat="27.796246" lon="86.713286">
        <ele>3264.4</ele>
        <time>2022-10-29T08:51:54.000Z</time>
      </trkpt>
      <trkpt lat="27.79623" lon="86.713306">
        <ele>3264.2</ele>
        <time>2022-10-29T08:51:56.000Z</time>
      </trkpt>
      <trkpt lat="27.796218" lon="86.713325">
        <ele>3262.8</ele>
        <time>2022-10-29T08:52:00.000Z</time>
      </trkpt>
      <trkpt lat="27.796202" lon="86.71335">
        <ele>3261.8</ele>
        <time>2022-10-29T08:52:03.000Z</time>
      </trkpt>
      <trkpt lat="27.796186" lon="86.71337">
        <ele>3261.4</ele>
        <time>2022-10-29T08:52:05.000Z</time>
      </trkpt>
      <trkpt lat="27.79616" lon="86.713376">
        <ele>3261</ele>
        <time>2022-10-29T08:52:08.000Z</time>
      </trkpt>
      <trkpt lat="27.796134" lon="86.713389">
        <ele>3260.2</ele>
        <time>2022-10-29T08:52:10.000Z</time>
      </trkpt>
      <trkpt lat="27.796118" lon="86.713402">
        <ele>3259.8</ele>
        <time>2022-10-29T08:52:12.000Z</time>
      </trkpt>
      <trkpt lat="27.796102" lon="86.713414">
        <ele>3259.6</ele>
        <time>2022-10-29T08:52:14.000Z</time>
      </trkpt>
      <trkpt lat="27.79609" lon="86.71344">
        <ele>3259.2</ele>
        <time>2022-10-29T08:52:16.000Z</time>
      </trkpt>
      <trkpt lat="27.79609" lon="86.713478">
        <ele>3258</ele>
        <time>2022-10-29T08:52:19.000Z</time>
      </trkpt>
      <trkpt lat="27.796074" lon="86.713491">
        <ele>3257</ele>
        <time>2022-10-29T08:52:22.000Z</time>
      </trkpt>
      <trkpt lat="27.796064" lon="86.71351">
        <ele>3256.2</ele>
        <time>2022-10-29T08:52:24.000Z</time>
      </trkpt>
      <trkpt lat="27.796045" lon="86.713517">
        <ele>3255.4</ele>
        <time>2022-10-29T08:52:27.000Z</time>
      </trkpt>
      <trkpt lat="27.79601" lon="86.71351">
        <ele>3255.2</ele>
        <time>2022-10-29T08:52:30.000Z</time>
      </trkpt>
      <trkpt lat="27.795987" lon="86.713517">
        <ele>3254.6</ele>
        <time>2022-10-29T08:52:32.000Z</time>
      </trkpt>
      <trkpt lat="27.795974" lon="86.713536">
        <ele>3254</ele>
        <time>2022-10-29T08:52:34.000Z</time>
      </trkpt>
      <trkpt lat="27.795958" lon="86.713562">
        <ele>3253.4</ele>
        <time>2022-10-29T08:52:36.000Z</time>
      </trkpt>
      <trkpt lat="27.795939" lon="86.713568">
        <ele>3252.4</ele>
        <time>2022-10-29T08:52:38.000Z</time>
      </trkpt>
      <trkpt lat="27.79593" lon="86.713587">
        <ele>3251.8</ele>
        <time>2022-10-29T08:52:40.000Z</time>
      </trkpt>
      <trkpt lat="27.79591" lon="86.713606">
        <ele>3250.8</ele>
        <time>2022-10-29T08:52:43.000Z</time>
      </trkpt>
      <trkpt lat="27.795888" lon="86.713613">
        <ele>3250.4</ele>
        <time>2022-10-29T08:52:45.000Z</time>
      </trkpt>
      <trkpt lat="27.795878" lon="86.713632">
        <ele>3250.2</ele>
        <time>2022-10-29T08:52:46.000Z</time>
      </trkpt>
      <trkpt lat="27.795856" lon="86.713651">
        <ele>3249</ele>
        <time>2022-10-29T08:52:49.000Z</time>
      </trkpt>
      <trkpt lat="27.795827" lon="86.713664">
        <ele>3248.6</ele>
        <time>2022-10-29T08:52:51.000Z</time>
      </trkpt>
      <trkpt lat="27.795802" lon="86.713683">
        <ele>3247.6</ele>
        <time>2022-10-29T08:52:53.000Z</time>
      </trkpt>
      <trkpt lat="27.795789" lon="86.713702">
        <ele>3247.2</ele>
        <time>2022-10-29T08:52:54.000Z</time>
      </trkpt>
      <trkpt lat="27.79577" lon="86.713702">
        <ele>3247</ele>
        <time>2022-10-29T08:52:56.000Z</time>
      </trkpt>
      <trkpt lat="27.795747" lon="86.713709">
        <ele>3246.2</ele>
        <time>2022-10-29T08:52:59.000Z</time>
      </trkpt>
      <trkpt lat="27.795731" lon="86.713728">
        <ele>3245.2</ele>
        <time>2022-10-29T08:53:02.000Z</time>
      </trkpt>
      <trkpt lat="27.795722" lon="86.71376">
        <ele>3244.8</ele>
        <time>2022-10-29T08:53:04.000Z</time>
      </trkpt>
      <trkpt lat="27.795709" lon="86.713786">
        <ele>3244.4</ele>
        <time>2022-10-29T08:53:06.000Z</time>
      </trkpt>
      <trkpt lat="27.795702" lon="86.713805">
        <ele>3243.6</ele>
        <time>2022-10-29T08:53:08.000Z</time>
      </trkpt>
      <trkpt lat="27.795699" lon="86.71383">
        <ele>3243</ele>
        <time>2022-10-29T08:53:11.000Z</time>
      </trkpt>
      <trkpt lat="27.79569" lon="86.71385">
        <ele>3242.4</ele>
        <time>2022-10-29T08:53:13.000Z</time>
      </trkpt>
      <trkpt lat="27.795702" lon="86.713875">
        <ele>3241</ele>
        <time>2022-10-29T08:53:17.000Z</time>
      </trkpt>
      <trkpt lat="27.795693" lon="86.713907">
        <ele>3240</ele>
        <time>2022-10-29T08:53:20.000Z</time>
      </trkpt>
      <trkpt lat="27.795718" lon="86.71392">
        <ele>3239.6</ele>
        <time>2022-10-29T08:53:23.000Z</time>
      </trkpt>
      <trkpt lat="27.795731" lon="86.713952">
        <ele>3238.8</ele>
        <time>2022-10-29T08:53:26.000Z</time>
      </trkpt>
      <trkpt lat="27.795741" lon="86.713984">
        <ele>3238.4</ele>
        <time>2022-10-29T08:53:28.000Z</time>
      </trkpt>
      <trkpt lat="27.795747" lon="86.714003">
        <ele>3237.8</ele>
        <time>2022-10-29T08:53:30.000Z</time>
      </trkpt>
      <trkpt lat="27.795741" lon="86.714022">
        <ele>3237.2</ele>
        <time>2022-10-29T08:53:31.000Z</time>
      </trkpt>
      <trkpt lat="27.795734" lon="86.714061">
        <ele>3236.8</ele>
        <time>2022-10-29T08:53:33.000Z</time>
      </trkpt>
      <trkpt lat="27.795747" lon="86.71408">
        <ele>3236</ele>
        <time>2022-10-29T08:53:35.000Z</time>
      </trkpt>
      <trkpt lat="27.795744" lon="86.714106">
        <ele>3235</ele>
        <time>2022-10-29T08:53:38.000Z</time>
      </trkpt>
      <trkpt lat="27.795754" lon="86.714125">
        <ele>3234.2</ele>
        <time>2022-10-29T08:53:40.000Z</time>
      </trkpt>
      <trkpt lat="27.79576" lon="86.71415">
        <ele>3234</ele>
        <time>2022-10-29T08:53:42.000Z</time>
      </trkpt>
      <trkpt lat="27.795747" lon="86.714195">
        <ele>3233.2</ele>
        <time>2022-10-29T08:53:44.000Z</time>
      </trkpt>
      <trkpt lat="27.79576" lon="86.714221">
        <ele>3232.8</ele>
        <time>2022-10-29T08:53:46.000Z</time>
      </trkpt>
      <trkpt lat="27.79576" lon="86.714246">
        <ele>3232.2</ele>
        <time>2022-10-29T08:53:48.000Z</time>
      </trkpt>
      <trkpt lat="27.795754" lon="86.714272">
        <ele>3231.6</ele>
        <time>2022-10-29T08:53:50.000Z</time>
      </trkpt>
      <trkpt lat="27.795747" lon="86.714304">
        <ele>3231</ele>
        <time>2022-10-29T08:53:52.000Z</time>
      </trkpt>
      <trkpt lat="27.795734" lon="86.714323">
        <ele>3230</ele>
        <time>2022-10-29T08:53:54.000Z</time>
      </trkpt>
      <trkpt lat="27.795722" lon="86.714349">
        <ele>3229.2</ele>
        <time>2022-10-29T08:53:56.000Z</time>
      </trkpt>
      <trkpt lat="27.795715" lon="86.714381">
        <ele>3228</ele>
        <time>2022-10-29T08:53:59.000Z</time>
      </trkpt>
      <trkpt lat="27.795722" lon="86.7144">
        <ele>3227.4</ele>
        <time>2022-10-29T08:54:01.000Z</time>
      </trkpt>
      <trkpt lat="27.795709" lon="86.714426">
        <ele>3226</ele>
        <time>2022-10-29T08:54:05.000Z</time>
      </trkpt>
      <trkpt lat="27.795699" lon="86.714445">
        <ele>3225.4</ele>
        <time>2022-10-29T08:54:07.000Z</time>
      </trkpt>
      <trkpt lat="27.795699" lon="86.714477">
        <ele>3225</ele>
        <time>2022-10-29T08:54:09.000Z</time>
      </trkpt>
      <trkpt lat="27.79568" lon="86.71449">
        <ele>3224.2</ele>
        <time>2022-10-29T08:54:11.000Z</time>
      </trkpt>
      <trkpt lat="27.795677" lon="86.714515">
        <ele>3223.2</ele>
        <time>2022-10-29T08:54:14.000Z</time>
      </trkpt>
      <trkpt lat="27.795658" lon="86.714541">
        <ele>3222.6</ele>
        <time>2022-10-29T08:54:18.000Z</time>
      </trkpt>
      <trkpt lat="27.795638" lon="86.714554">
        <ele>3222</ele>
        <time>2022-10-29T08:54:20.000Z</time>
      </trkpt>
      <trkpt lat="27.795638" lon="86.714579">
        <ele>3220.8</ele>
        <time>2022-10-29T08:54:23.000Z</time>
      </trkpt>
      <trkpt lat="27.795622" lon="86.714598">
        <ele>3219.4</ele>
        <time>2022-10-29T08:54:28.000Z</time>
      </trkpt>
      <trkpt lat="27.795613" lon="86.714618">
        <ele>3219.4</ele>
        <time>2022-10-29T08:54:30.000Z</time>
      </trkpt>
      <trkpt lat="27.7956" lon="86.714637">
        <ele>3218.4</ele>
        <time>2022-10-29T08:54:33.000Z</time>
      </trkpt>
      <trkpt lat="27.795597" lon="86.714662">
        <ele>3218</ele>
        <time>2022-10-29T08:54:35.000Z</time>
      </trkpt>
      <trkpt lat="27.795578" lon="86.714669">
        <ele>3217.2</ele>
        <time>2022-10-29T08:54:37.000Z</time>
      </trkpt>
      <trkpt lat="27.795558" lon="86.714682">
        <ele>3216.6</ele>
        <time>2022-10-29T08:54:40.000Z</time>
      </trkpt>
      <trkpt lat="27.795546" lon="86.714701">
        <ele>3216</ele>
        <time>2022-10-29T08:54:42.000Z</time>
      </trkpt>
      <trkpt lat="27.795526" lon="86.714726">
        <ele>3215.2</ele>
        <time>2022-10-29T08:54:45.000Z</time>
      </trkpt>
      <trkpt lat="27.79553" lon="86.714752">
        <ele>3214.4</ele>
        <time>2022-10-29T08:54:49.000Z</time>
      </trkpt>
      <trkpt lat="27.795507" lon="86.714765">
        <ele>3214.2</ele>
        <time>2022-10-29T08:54:52.000Z</time>
      </trkpt>
      <trkpt lat="27.795491" lon="86.714778">
        <ele>3213.8</ele>
        <time>2022-10-29T08:54:53.000Z</time>
      </trkpt>
      <trkpt lat="27.795469" lon="86.714784">
        <ele>3213.4</ele>
        <time>2022-10-29T08:54:55.000Z</time>
      </trkpt>
      <trkpt lat="27.795456" lon="86.714803">
        <ele>3213.2</ele>
        <time>2022-10-29T08:54:57.000Z</time>
      </trkpt>
      <trkpt lat="27.795421" lon="86.714829">
        <ele>3211.4</ele>
        <time>2022-10-29T08:55:07.000Z</time>
      </trkpt>
      <trkpt lat="27.795414" lon="86.714854">
        <ele>3210.8</ele>
        <time>2022-10-29T08:55:10.000Z</time>
      </trkpt>
      <trkpt lat="27.795382" lon="86.714886">
        <ele>3210</ele>
        <time>2022-10-29T08:55:15.000Z</time>
      </trkpt>
      <trkpt lat="27.795363" lon="86.714906">
        <ele>3209.2</ele>
        <time>2022-10-29T08:55:17.000Z</time>
      </trkpt>
      <trkpt lat="27.795341" lon="86.714918">
        <ele>3208.6</ele>
        <time>2022-10-29T08:55:20.000Z</time>
      </trkpt>
      <trkpt lat="27.795322" lon="86.714938">
        <ele>3207.8</ele>
        <time>2022-10-29T08:55:24.000Z</time>
      </trkpt>
      <trkpt lat="27.795306" lon="86.714957">
        <ele>3207.2</ele>
        <time>2022-10-29T08:55:27.000Z</time>
      </trkpt>
      <trkpt lat="27.795299" lon="86.714982">
        <ele>3207</ele>
        <time>2022-10-29T08:55:30.000Z</time>
      </trkpt>
      <trkpt lat="27.795296" lon="86.715014">
        <ele>3206</ele>
        <time>2022-10-29T08:55:33.000Z</time>
      </trkpt>
      <trkpt lat="27.79529" lon="86.715034">
        <ele>3205.4</ele>
        <time>2022-10-29T08:55:36.000Z</time>
      </trkpt>
      <trkpt lat="27.795299" lon="86.715059">
        <ele>3204.8</ele>
        <time>2022-10-29T08:55:38.000Z</time>
      </trkpt>
      <trkpt lat="27.795296" lon="86.715098">
        <ele>3204.2</ele>
        <time>2022-10-29T08:55:42.000Z</time>
      </trkpt>
      <trkpt lat="27.795293" lon="86.715123">
        <ele>3203.6</ele>
        <time>2022-10-29T08:55:45.000Z</time>
      </trkpt>
      <trkpt lat="27.795299" lon="86.715142">
        <ele>3203.2</ele>
        <time>2022-10-29T08:55:47.000Z</time>
      </trkpt>
      <trkpt lat="27.795309" lon="86.715174">
        <ele>3202.4</ele>
        <time>2022-10-29T08:55:52.000Z</time>
      </trkpt>
      <trkpt lat="27.79529" lon="86.715187">
        <ele>3202</ele>
        <time>2022-10-29T08:55:56.000Z</time>
      </trkpt>
      <trkpt lat="27.795264" lon="86.7152">
        <ele>3201.8</ele>
        <time>2022-10-29T08:55:58.000Z</time>
      </trkpt>
      <trkpt lat="27.795258" lon="86.715226">
        <ele>3201.4</ele>
        <time>2022-10-29T08:55:59.000Z</time>
      </trkpt>
      <trkpt lat="27.795242" lon="86.71527">
        <ele>3201</ele>
        <time>2022-10-29T08:56:01.000Z</time>
      </trkpt>
      <trkpt lat="27.795229" lon="86.715302">
        <ele>3200.8</ele>
        <time>2022-10-29T08:56:02.000Z</time>
      </trkpt>
      <trkpt lat="27.795222" lon="86.715334">
        <ele>3200.4</ele>
        <time>2022-10-29T08:56:04.000Z</time>
      </trkpt>
      <trkpt lat="27.795216" lon="86.715354">
        <ele>3200</ele>
        <time>2022-10-29T08:56:06.000Z</time>
      </trkpt>
      <trkpt lat="27.795206" lon="86.715373">
        <ele>3199.8</ele>
        <time>2022-10-29T08:56:08.000Z</time>
      </trkpt>
      <trkpt lat="27.79519" lon="86.715386">
        <ele>3199.8</ele>
        <time>2022-10-29T08:56:10.000Z</time>
      </trkpt>
      <trkpt lat="27.795171" lon="86.715392">
        <ele>3199.8</ele>
        <time>2022-10-29T08:56:12.000Z</time>
      </trkpt>
      <trkpt lat="27.795152" lon="86.715398">
        <ele>3199.4</ele>
        <time>2022-10-29T08:56:14.000Z</time>
      </trkpt>
      <trkpt lat="27.795133" lon="86.715398">
        <ele>3198.8</ele>
        <time>2022-10-29T08:56:16.000Z</time>
      </trkpt>
      <trkpt lat="27.795107" lon="86.715392">
        <ele>3198.6</ele>
        <time>2022-10-29T08:56:18.000Z</time>
      </trkpt>
      <trkpt lat="27.795085" lon="86.715379">
        <ele>3198.6</ele>
        <time>2022-10-29T08:56:19.000Z</time>
      </trkpt>
      <trkpt lat="27.795066" lon="86.715379">
        <ele>3198.8</ele>
        <time>2022-10-29T08:56:21.000Z</time>
      </trkpt>
      <trkpt lat="27.795037" lon="86.71536">
        <ele>3198.6</ele>
        <time>2022-10-29T08:56:23.000Z</time>
      </trkpt>
      <trkpt lat="27.795018" lon="86.715354">
        <ele>3198.4</ele>
        <time>2022-10-29T08:56:24.000Z</time>
      </trkpt>
      <trkpt lat="27.794995" lon="86.715347">
        <ele>3198.4</ele>
        <time>2022-10-29T08:56:26.000Z</time>
      </trkpt>
      <trkpt lat="27.794973" lon="86.71536">
        <ele>3198.2</ele>
        <time>2022-10-29T08:56:28.000Z</time>
      </trkpt>
      <trkpt lat="27.794957" lon="86.715373">
        <ele>3198</ele>
        <time>2022-10-29T08:56:29.000Z</time>
      </trkpt>
      <trkpt lat="27.794941" lon="86.715386">
        <ele>3197.4</ele>
        <time>2022-10-29T08:56:32.000Z</time>
      </trkpt>
      <trkpt lat="27.794925" lon="86.715418">
        <ele>3196</ele>
        <time>2022-10-29T08:56:39.000Z</time>
      </trkpt>
      <trkpt lat="27.794893" lon="86.715411">
        <ele>3195</ele>
        <time>2022-10-29T08:57:35.000Z</time>
      </trkpt>
      <trkpt lat="27.794874" lon="86.715411">
        <ele>3194.8</ele>
        <time>2022-10-29T08:57:37.000Z</time>
      </trkpt>
      <trkpt lat="27.794848" lon="86.715411">
        <ele>3193.8</ele>
        <time>2022-10-29T08:57:39.000Z</time>
      </trkpt>
      <trkpt lat="27.794819" lon="86.715411">
        <ele>3193.4</ele>
        <time>2022-10-29T08:57:41.000Z</time>
      </trkpt>
      <trkpt lat="27.794797" lon="86.715398">
        <ele>3192.8</ele>
        <time>2022-10-29T08:57:43.000Z</time>
      </trkpt>
      <trkpt lat="27.794768" lon="86.715392">
        <ele>3192</ele>
        <time>2022-10-29T08:57:46.000Z</time>
      </trkpt>
      <trkpt lat="27.794746" lon="86.715379">
        <ele>3191.4</ele>
        <time>2022-10-29T08:57:49.000Z</time>
      </trkpt>
      <trkpt lat="27.794726" lon="86.71536">
        <ele>3191</ele>
        <time>2022-10-29T08:57:51.000Z</time>
      </trkpt>
      <trkpt lat="27.794704" lon="86.71536">
        <ele>3190.6</ele>
        <time>2022-10-29T08:57:53.000Z</time>
      </trkpt>
      <trkpt lat="27.794685" lon="86.715373">
        <ele>3189.8</ele>
        <time>2022-10-29T08:57:56.000Z</time>
      </trkpt>
      <trkpt lat="27.794662" lon="86.715373">
        <ele>3189.2</ele>
        <time>2022-10-29T08:58:00.000Z</time>
      </trkpt>
      <trkpt lat="27.794646" lon="86.715386">
        <ele>3188.8</ele>
        <time>2022-10-29T08:58:02.000Z</time>
      </trkpt>
      <trkpt lat="27.79463" lon="86.715398">
        <ele>3188.2</ele>
        <time>2022-10-29T08:58:04.000Z</time>
      </trkpt>
      <trkpt lat="27.794614" lon="86.715411">
        <ele>3188</ele>
        <time>2022-10-29T08:58:06.000Z</time>
      </trkpt>
      <trkpt lat="27.794598" lon="86.71543">
        <ele>3187.4</ele>
        <time>2022-10-29T08:58:08.000Z</time>
      </trkpt>
      <trkpt lat="27.794576" lon="86.715456">
        <ele>3186.2</ele>
        <time>2022-10-29T08:58:11.000Z</time>
      </trkpt>
      <trkpt lat="27.79457" lon="86.715475">
        <ele>3185.8</ele>
        <time>2022-10-29T08:58:13.000Z</time>
      </trkpt>
      <trkpt lat="27.794566" lon="86.715501">
        <ele>3185.2</ele>
        <time>2022-10-29T08:58:15.000Z</time>
      </trkpt>
      <trkpt lat="27.794557" lon="86.715533">
        <ele>3184.6</ele>
        <time>2022-10-29T08:58:17.000Z</time>
      </trkpt>
      <trkpt lat="27.794538" lon="86.715539">
        <ele>3184</ele>
        <time>2022-10-29T08:58:20.000Z</time>
      </trkpt>
      <trkpt lat="27.794531" lon="86.715571">
        <ele>3183.2</ele>
        <time>2022-10-29T08:58:24.000Z</time>
      </trkpt>
      <trkpt lat="27.794512" lon="86.71559">
        <ele>3182.8</ele>
        <time>2022-10-29T08:58:26.000Z</time>
      </trkpt>
      <trkpt lat="27.794493" lon="86.715597">
        <ele>3182.6</ele>
        <time>2022-10-29T08:58:28.000Z</time>
      </trkpt>
      <trkpt lat="27.79449" lon="86.715622">
        <ele>3181.8</ele>
        <time>2022-10-29T08:58:30.000Z</time>
      </trkpt>
      <trkpt lat="27.794474" lon="86.715635">
        <ele>3181</ele>
        <time>2022-10-29T08:58:32.000Z</time>
      </trkpt>
      <trkpt lat="27.794464" lon="86.715654">
        <ele>3180.8</ele>
        <time>2022-10-29T08:58:33.000Z</time>
      </trkpt>
      <trkpt lat="27.794442" lon="86.715674">
        <ele>3179.4</ele>
        <time>2022-10-29T08:58:36.000Z</time>
      </trkpt>
      <trkpt lat="27.794422" lon="86.71568">
        <ele>3179</ele>
        <time>2022-10-29T08:58:38.000Z</time>
      </trkpt>
      <trkpt lat="27.794403" lon="86.715699">
        <ele>3178.4</ele>
        <time>2022-10-29T08:58:40.000Z</time>
      </trkpt>
      <trkpt lat="27.794378" lon="86.715712">
        <ele>3177.6</ele>
        <time>2022-10-29T08:58:42.000Z</time>
      </trkpt>
      <trkpt lat="27.794355" lon="86.715731">
        <ele>3176.6</ele>
        <time>2022-10-29T08:58:45.000Z</time>
      </trkpt>
      <trkpt lat="27.794336" lon="86.71575">
        <ele>3176.6</ele>
        <time>2022-10-29T08:58:48.000Z</time>
      </trkpt>
      <trkpt lat="27.794317" lon="86.71577">
        <ele>3176.8</ele>
        <time>2022-10-29T08:58:51.000Z</time>
      </trkpt>
      <trkpt lat="27.794291" lon="86.715776">
        <ele>3176</ele>
        <time>2022-10-29T08:58:54.000Z</time>
      </trkpt>
      <trkpt lat="27.794272" lon="86.715782">
        <ele>3175.8</ele>
        <time>2022-10-29T08:58:56.000Z</time>
      </trkpt>
      <trkpt lat="27.794246" lon="86.715776">
        <ele>3175.4</ele>
        <time>2022-10-29T08:58:59.000Z</time>
      </trkpt>
      <trkpt lat="27.794224" lon="86.715776">
        <ele>3174.6</ele>
        <time>2022-10-29T08:59:02.000Z</time>
      </trkpt>
      <trkpt lat="27.794202" lon="86.715776">
        <ele>3174.2</ele>
        <time>2022-10-29T08:59:04.000Z</time>
      </trkpt>
      <trkpt lat="27.794179" lon="86.715789">
        <ele>3173.2</ele>
        <time>2022-10-29T08:59:07.000Z</time>
      </trkpt>
      <trkpt lat="27.79416" lon="86.715795">
        <ele>3172.8</ele>
        <time>2022-10-29T08:59:10.000Z</time>
      </trkpt>
      <trkpt lat="27.794144" lon="86.715808">
        <ele>3172.6</ele>
        <time>2022-10-29T08:59:12.000Z</time>
      </trkpt>
      <trkpt lat="27.794122" lon="86.715827">
        <ele>3171.8</ele>
        <time>2022-10-29T08:59:14.000Z</time>
      </trkpt>
      <trkpt lat="27.794096" lon="86.715827">
        <ele>3170.6</ele>
        <time>2022-10-29T08:59:17.000Z</time>
      </trkpt>
      <trkpt lat="27.79407" lon="86.715834">
        <ele>3170</ele>
        <time>2022-10-29T08:59:19.000Z</time>
      </trkpt>
      <trkpt lat="27.794045" lon="86.715846">
        <ele>3169</ele>
        <time>2022-10-29T08:59:21.000Z</time>
      </trkpt>
      <trkpt lat="27.794022" lon="86.715853">
        <ele>3168.6</ele>
        <time>2022-10-29T08:59:23.000Z</time>
      </trkpt>
      <trkpt lat="27.793997" lon="86.715853">
        <ele>3168</ele>
        <time>2022-10-29T08:59:25.000Z</time>
      </trkpt>
      <trkpt lat="27.793974" lon="86.715846">
        <ele>3167.6</ele>
        <time>2022-10-29T08:59:27.000Z</time>
      </trkpt>
      <trkpt lat="27.793949" lon="86.715846">
        <ele>3167.2</ele>
        <time>2022-10-29T08:59:29.000Z</time>
      </trkpt>
      <trkpt lat="27.793923" lon="86.715846">
        <ele>3166.6</ele>
        <time>2022-10-29T08:59:31.000Z</time>
      </trkpt>
      <trkpt lat="27.793894" lon="86.715846">
        <ele>3166.4</ele>
        <time>2022-10-29T08:59:33.000Z</time>
      </trkpt>
      <trkpt lat="27.793866" lon="86.715834">
        <ele>3166</ele>
        <time>2022-10-29T08:59:35.000Z</time>
      </trkpt>
      <trkpt lat="27.79385" lon="86.715846">
        <ele>3165.4</ele>
        <time>2022-10-29T08:59:37.000Z</time>
      </trkpt>
      <trkpt lat="27.79383" lon="86.715846">
        <ele>3165</ele>
        <time>2022-10-29T08:59:40.000Z</time>
      </trkpt>
      <trkpt lat="27.793805" lon="86.715846">
        <ele>3164.4</ele>
        <time>2022-10-29T08:59:43.000Z</time>
      </trkpt>
      <trkpt lat="27.793798" lon="86.715872">
        <ele>3164.8</ele>
        <time>2022-10-29T08:59:54.000Z</time>
      </trkpt>
      <trkpt lat="27.793776" lon="86.715859">
        <ele>3164.2</ele>
        <time>2022-10-29T08:59:58.000Z</time>
      </trkpt>
      <trkpt lat="27.793747" lon="86.715872">
        <ele>3164</ele>
        <time>2022-10-29T09:00:01.000Z</time>
      </trkpt>
      <trkpt lat="27.793728" lon="86.715866">
        <ele>3164</ele>
        <time>2022-10-29T09:00:04.000Z</time>
      </trkpt>
      <trkpt lat="27.793706" lon="86.715866">
        <ele>3164</ele>
        <time>2022-10-29T09:00:06.000Z</time>
      </trkpt>
      <trkpt lat="27.79368" lon="86.715872">
        <ele>3163.8</ele>
        <time>2022-10-29T09:00:08.000Z</time>
      </trkpt>
      <trkpt lat="27.793658" lon="86.715872">
        <ele>3163.8</ele>
        <time>2022-10-29T09:00:11.000Z</time>
      </trkpt>
      <trkpt lat="27.793632" lon="86.715866">
        <ele>3163.8</ele>
        <time>2022-10-29T09:00:15.000Z</time>
      </trkpt>
      <trkpt lat="27.79361" lon="86.715878">
        <ele>3163.4</ele>
        <time>2022-10-29T09:00:23.000Z</time>
      </trkpt>
      <trkpt lat="27.79359" lon="86.715878">
        <ele>3163.2</ele>
        <time>2022-10-29T09:00:28.000Z</time>
      </trkpt>
      <trkpt lat="27.793568" lon="86.715891">
        <ele>3162.8</ele>
        <time>2022-10-29T09:00:31.000Z</time>
      </trkpt>
      <trkpt lat="27.793546" lon="86.715898">
        <ele>3162.4</ele>
        <time>2022-10-29T09:00:34.000Z</time>
      </trkpt>
      <trkpt lat="27.793526" lon="86.715891">
        <ele>3162.2</ele>
        <time>2022-10-29T09:00:42.000Z</time>
      </trkpt>
      <trkpt lat="27.793517" lon="86.715872">
        <ele>3156.2</ele>
        <time>2022-10-29T09:03:01.000Z</time>
      </trkpt>
      <trkpt lat="27.793501" lon="86.715859">
        <ele>3155.6</ele>
        <time>2022-10-29T09:03:05.000Z</time>
      </trkpt>
      <trkpt lat="27.793478" lon="86.715872">
        <ele>3154.6</ele>
        <time>2022-10-29T09:03:09.000Z</time>
      </trkpt>
      <trkpt lat="27.793462" lon="86.715891">
        <ele>3153.6</ele>
        <time>2022-10-29T09:03:12.000Z</time>
      </trkpt>
      <trkpt lat="27.793446" lon="86.71591">
        <ele>3152.8</ele>
        <time>2022-10-29T09:03:15.000Z</time>
      </trkpt>
      <trkpt lat="27.793424" lon="86.71591">
        <ele>3152.6</ele>
        <time>2022-10-29T09:03:17.000Z</time>
      </trkpt>
      <trkpt lat="27.793395" lon="86.71591">
        <ele>3152</ele>
        <time>2022-10-29T09:03:20.000Z</time>
      </trkpt>
      <trkpt lat="27.793376" lon="86.715904">
        <ele>3151.6</ele>
        <time>2022-10-29T09:03:23.000Z</time>
      </trkpt>
      <trkpt lat="27.793357" lon="86.71593">
        <ele>3151.4</ele>
        <time>2022-10-29T09:03:25.000Z</time>
      </trkpt>
      <trkpt lat="27.793341" lon="86.715949">
        <ele>3151.2</ele>
        <time>2022-10-29T09:03:29.000Z</time>
      </trkpt>
      <trkpt lat="27.793318" lon="86.715942">
        <ele>3150</ele>
        <time>2022-10-29T09:03:33.000Z</time>
      </trkpt>
      <trkpt lat="27.793306" lon="86.715917">
        <ele>3148.6</ele>
        <time>2022-10-29T09:03:36.000Z</time>
      </trkpt>
      <trkpt lat="27.793299" lon="86.715936">
        <ele>3148</ele>
        <time>2022-10-29T09:03:38.000Z</time>
      </trkpt>
      <trkpt lat="27.793283" lon="86.715955">
        <ele>3147.6</ele>
        <time>2022-10-29T09:03:41.000Z</time>
      </trkpt>
      <trkpt lat="27.793267" lon="86.715974">
        <ele>3147.2</ele>
        <time>2022-10-29T09:03:44.000Z</time>
      </trkpt>
      <trkpt lat="27.793248" lon="86.715974">
        <ele>3146.8</ele>
        <time>2022-10-29T09:03:46.000Z</time>
      </trkpt>
      <trkpt lat="27.793226" lon="86.715981">
        <ele>3145.6</ele>
        <time>2022-10-29T09:03:50.000Z</time>
      </trkpt>
      <trkpt lat="27.793222" lon="86.716006">
        <ele>3144.8</ele>
        <time>2022-10-29T09:03:53.000Z</time>
      </trkpt>
      <trkpt lat="27.7932" lon="86.716006">
        <ele>3144.4</ele>
        <time>2022-10-29T09:03:57.000Z</time>
      </trkpt>
      <trkpt lat="27.793187" lon="86.715987">
        <ele>3143.6</ele>
        <time>2022-10-29T09:04:03.000Z</time>
      </trkpt>
      <trkpt lat="27.793181" lon="86.715968">
        <ele>3143</ele>
        <time>2022-10-29T09:04:05.000Z</time>
      </trkpt>
      <trkpt lat="27.793187" lon="86.715936">
        <ele>3142.2</ele>
        <time>2022-10-29T09:04:07.000Z</time>
      </trkpt>
      <trkpt lat="27.79319" lon="86.71591">
        <ele>3141.4</ele>
        <time>2022-10-29T09:04:10.000Z</time>
      </trkpt>
      <trkpt lat="27.793206" lon="86.71593">
        <ele>3140.8</ele>
        <time>2022-10-29T09:04:21.000Z</time>
      </trkpt>
      <trkpt lat="27.79319" lon="86.715917">
        <ele>3137.2</ele>
        <time>2022-10-29T09:04:56.000Z</time>
      </trkpt>
      <trkpt lat="27.793168" lon="86.71591">
        <ele>3136.4</ele>
        <time>2022-10-29T09:04:59.000Z</time>
      </trkpt>
      <trkpt lat="27.793149" lon="86.715917">
        <ele>3135.8</ele>
        <time>2022-10-29T09:05:02.000Z</time>
      </trkpt>
      <trkpt lat="27.793136" lon="86.715936">
        <ele>3135.2</ele>
        <time>2022-10-29T09:05:04.000Z</time>
      </trkpt>
      <trkpt lat="27.79312" lon="86.715949">
        <ele>3135</ele>
        <time>2022-10-29T09:05:06.000Z</time>
      </trkpt>
      <trkpt lat="27.793104" lon="86.715936">
        <ele>3134</ele>
        <time>2022-10-29T09:05:10.000Z</time>
      </trkpt>
      <trkpt lat="27.793091" lon="86.715904">
        <ele>3133.4</ele>
        <time>2022-10-29T09:05:13.000Z</time>
      </trkpt>
      <trkpt lat="27.793078" lon="86.715878">
        <ele>3132.6</ele>
        <time>2022-10-29T09:05:15.000Z</time>
      </trkpt>
      <trkpt lat="27.793069" lon="86.715859">
        <ele>3131.4</ele>
        <time>2022-10-29T09:05:20.000Z</time>
      </trkpt>
      <trkpt lat="27.793078" lon="86.715827">
        <ele>3130.6</ele>
        <time>2022-10-29T09:05:23.000Z</time>
      </trkpt>
      <trkpt lat="27.793098" lon="86.715821">
        <ele>3130.6</ele>
        <time>2022-10-29T09:05:26.000Z</time>
      </trkpt>
      <trkpt lat="27.79311" lon="86.715795">
        <ele>3130.6</ele>
        <time>2022-10-29T09:05:29.000Z</time>
      </trkpt>
      <trkpt lat="27.793123" lon="86.715776">
        <ele>3129</ele>
        <time>2022-10-29T09:05:31.000Z</time>
      </trkpt>
      <trkpt lat="27.79313" lon="86.71575">
        <ele>3128.4</ele>
        <time>2022-10-29T09:05:33.000Z</time>
      </trkpt>
      <trkpt lat="27.793139" lon="86.715731">
        <ele>3128</ele>
        <time>2022-10-29T09:05:35.000Z</time>
      </trkpt>
      <trkpt lat="27.793146" lon="86.715712">
        <ele>3127.8</ele>
        <time>2022-10-29T09:05:36.000Z</time>
      </trkpt>
      <trkpt lat="27.793139" lon="86.715693">
        <ele>3126.2</ele>
        <time>2022-10-29T09:05:42.000Z</time>
      </trkpt>
      <trkpt lat="27.793158" lon="86.715706">
        <ele>3126</ele>
        <time>2022-10-29T09:05:45.000Z</time>
      </trkpt>
      <trkpt lat="27.793139" lon="86.715706">
        <ele>3125.2</ele>
        <time>2022-10-29T09:05:50.000Z</time>
      </trkpt>
      <trkpt lat="27.793117" lon="86.715718">
        <ele>3124.8</ele>
        <time>2022-10-29T09:05:54.000Z</time>
      </trkpt>
      <trkpt lat="27.79311" lon="86.715738">
        <ele>3124.6</ele>
        <time>2022-10-29T09:05:56.000Z</time>
      </trkpt>
      <trkpt lat="27.793088" lon="86.715738">
        <ele>3123.4</ele>
        <time>2022-10-29T09:06:01.000Z</time>
      </trkpt>
      <trkpt lat="27.793066" lon="86.715731">
        <ele>3123.2</ele>
        <time>2022-10-29T09:06:11.000Z</time>
      </trkpt>
      <trkpt lat="27.793059" lon="86.715712">
        <ele>3123</ele>
        <time>2022-10-29T09:06:15.000Z</time>
      </trkpt>
      <trkpt lat="27.793037" lon="86.715718">
        <ele>3119.6</ele>
        <time>2022-10-29T09:06:45.000Z</time>
      </trkpt>
      <trkpt lat="27.793021" lon="86.715731">
        <ele>3119.2</ele>
        <time>2022-10-29T09:06:46.000Z</time>
      </trkpt>
      <trkpt lat="27.792992" lon="86.715738">
        <ele>3119.2</ele>
        <time>2022-10-29T09:06:48.000Z</time>
      </trkpt>
      <trkpt lat="27.792973" lon="86.715738">
        <ele>3119.2</ele>
        <time>2022-10-29T09:06:49.000Z</time>
      </trkpt>
      <trkpt lat="27.792941" lon="86.715744">
        <ele>3118.6</ele>
        <time>2022-10-29T09:06:51.000Z</time>
      </trkpt>
      <trkpt lat="27.792912" lon="86.715757">
        <ele>3117.8</ele>
        <time>2022-10-29T09:06:53.000Z</time>
      </trkpt>
      <trkpt lat="27.792896" lon="86.715776">
        <ele>3117.4</ele>
        <time>2022-10-29T09:06:55.000Z</time>
      </trkpt>
      <trkpt lat="27.792886" lon="86.71575">
        <ele>3113.4</ele>
        <time>2022-10-29T09:07:30.000Z</time>
      </trkpt>
      <trkpt lat="27.792883" lon="86.715718">
        <ele>3113.2</ele>
        <time>2022-10-29T09:07:33.000Z</time>
      </trkpt>
      <trkpt lat="27.79289" lon="86.715699">
        <ele>3113</ele>
        <time>2022-10-29T09:07:36.000Z</time>
      </trkpt>
      <trkpt lat="27.79287" lon="86.715693">
        <ele>3112.6</ele>
        <time>2022-10-29T09:07:40.000Z</time>
      </trkpt>
      <trkpt lat="27.792848" lon="86.715693">
        <ele>3111.8</ele>
        <time>2022-10-29T09:07:44.000Z</time>
      </trkpt>
      <trkpt lat="27.792829" lon="86.715706">
        <ele>3111.4</ele>
        <time>2022-10-29T09:07:46.000Z</time>
      </trkpt>
      <trkpt lat="27.792816" lon="86.715731">
        <ele>3111.2</ele>
        <time>2022-10-29T09:07:48.000Z</time>
      </trkpt>
      <trkpt lat="27.792797" lon="86.71575">
        <ele>3110.2</ele>
        <time>2022-10-29T09:07:52.000Z</time>
      </trkpt>
      <trkpt lat="27.792787" lon="86.71577">
        <ele>3109.6</ele>
        <time>2022-10-29T09:07:55.000Z</time>
      </trkpt>
      <trkpt lat="27.792768" lon="86.715757">
        <ele>3109.4</ele>
        <time>2022-10-29T09:07:56.000Z</time>
      </trkpt>
      <trkpt lat="27.792749" lon="86.715757">
        <ele>3109.4</ele>
        <time>2022-10-29T09:07:59.000Z</time>
      </trkpt>
      <trkpt lat="27.792733" lon="86.715776">
        <ele>3108.8</ele>
        <time>2022-10-29T09:08:01.000Z</time>
      </trkpt>
      <trkpt lat="27.792707" lon="86.715782">
        <ele>3108.6</ele>
        <time>2022-10-29T09:08:04.000Z</time>
      </trkpt>
      <trkpt lat="27.792707" lon="86.71575">
        <ele>3108.4</ele>
        <time>2022-10-29T09:08:07.000Z</time>
      </trkpt>
      <trkpt lat="27.792723" lon="86.715731">
        <ele>3107.6</ele>
        <time>2022-10-29T09:08:11.000Z</time>
      </trkpt>
      <trkpt lat="27.79273" lon="86.715712">
        <ele>3107.6</ele>
        <time>2022-10-29T09:08:12.000Z</time>
      </trkpt>
      <trkpt lat="27.79273" lon="86.71568">
        <ele>3106.2</ele>
        <time>2022-10-29T09:08:16.000Z</time>
      </trkpt>
      <trkpt lat="27.792714" lon="86.715693">
        <ele>3105.6</ele>
        <time>2022-10-29T09:08:23.000Z</time>
      </trkpt>
      <trkpt lat="27.79272" lon="86.715712">
        <ele>3105.2</ele>
        <time>2022-10-29T09:08:27.000Z</time>
      </trkpt>
      <trkpt lat="27.792701" lon="86.715712">
        <ele>3105.2</ele>
        <time>2022-10-29T09:08:30.000Z</time>
      </trkpt>
      <trkpt lat="27.792691" lon="86.715731">
        <ele>3104.4</ele>
        <time>2022-10-29T09:08:33.000Z</time>
      </trkpt>
      <trkpt lat="27.792672" lon="86.715738">
        <ele>3102.4</ele>
        <time>2022-10-29T09:08:41.000Z</time>
      </trkpt>
      <trkpt lat="27.792653" lon="86.715738">
        <ele>3101.8</ele>
        <time>2022-10-29T09:08:45.000Z</time>
      </trkpt>
      <trkpt lat="27.792637" lon="86.715757">
        <ele>3101</ele>
        <time>2022-10-29T09:08:50.000Z</time>
      </trkpt>
      <trkpt lat="27.792614" lon="86.715776">
        <ele>3100.6</ele>
        <time>2022-10-29T09:08:53.000Z</time>
      </trkpt>
      <trkpt lat="27.792589" lon="86.715782">
        <ele>3099.8</ele>
        <time>2022-10-29T09:08:56.000Z</time>
      </trkpt>
      <trkpt lat="27.792566" lon="86.715795">
        <ele>3099.2</ele>
        <time>2022-10-29T09:08:59.000Z</time>
      </trkpt>
      <trkpt lat="27.79255" lon="86.715808">
        <ele>3098.8</ele>
        <time>2022-10-29T09:09:01.000Z</time>
      </trkpt>
      <trkpt lat="27.792531" lon="86.715808">
        <ele>3098</ele>
        <time>2022-10-29T09:09:03.000Z</time>
      </trkpt>
      <trkpt lat="27.792512" lon="86.715808">
        <ele>3097.8</ele>
        <time>2022-10-29T09:09:04.000Z</time>
      </trkpt>
      <trkpt lat="27.792493" lon="86.715821">
        <ele>3096.6</ele>
        <time>2022-10-29T09:09:08.000Z</time>
      </trkpt>
      <trkpt lat="27.79247" lon="86.715821">
        <ele>3096.2</ele>
        <time>2022-10-29T09:09:11.000Z</time>
      </trkpt>
      <trkpt lat="27.792445" lon="86.715827">
        <ele>3095.2</ele>
        <time>2022-10-29T09:09:14.000Z</time>
      </trkpt>
      <trkpt lat="27.792426" lon="86.715827">
        <ele>3095</ele>
        <time>2022-10-29T09:09:16.000Z</time>
      </trkpt>
      <trkpt lat="27.792413" lon="86.715853">
        <ele>3093.8</ele>
        <time>2022-10-29T09:09:20.000Z</time>
      </trkpt>
      <trkpt lat="27.79239" lon="86.715859">
        <ele>3093.2</ele>
        <time>2022-10-29T09:09:22.000Z</time>
      </trkpt>
      <trkpt lat="27.792378" lon="86.715878">
        <ele>3093</ele>
        <time>2022-10-29T09:09:24.000Z</time>
      </trkpt>
      <trkpt lat="27.792355" lon="86.715878">
        <ele>3092.2</ele>
        <time>2022-10-29T09:09:28.000Z</time>
      </trkpt>
      <trkpt lat="27.792333" lon="86.715878">
        <ele>3091.8</ele>
        <time>2022-10-29T09:09:30.000Z</time>
      </trkpt>
      <trkpt lat="27.792314" lon="86.715891">
        <ele>3091.4</ele>
        <time>2022-10-29T09:09:33.000Z</time>
      </trkpt>
      <trkpt lat="27.792291" lon="86.715891">
        <ele>3090.6</ele>
        <time>2022-10-29T09:09:37.000Z</time>
      </trkpt>
      <trkpt lat="27.792275" lon="86.715872">
        <ele>3089</ele>
        <time>2022-10-29T09:09:42.000Z</time>
      </trkpt>
      <trkpt lat="27.792282" lon="86.715853">
        <ele>3088.6</ele>
        <time>2022-10-29T09:09:44.000Z</time>
      </trkpt>
      <trkpt lat="27.792298" lon="86.715834">
        <ele>3088.4</ele>
        <time>2022-10-29T09:09:47.000Z</time>
      </trkpt>
      <trkpt lat="27.792304" lon="86.715808">
        <ele>3087.6</ele>
        <time>2022-10-29T09:09:50.000Z</time>
      </trkpt>
      <trkpt lat="27.792314" lon="86.71577">
        <ele>3086</ele>
        <time>2022-10-29T09:09:55.000Z</time>
      </trkpt>
      <trkpt lat="27.79231" lon="86.715744">
        <ele>3085.6</ele>
        <time>2022-10-29T09:09:57.000Z</time>
      </trkpt>
      <trkpt lat="27.792301" lon="86.715712">
        <ele>3085</ele>
        <time>2022-10-29T09:09:59.000Z</time>
      </trkpt>
      <trkpt lat="27.792307" lon="86.715731">
        <ele>3084</ele>
        <time>2022-10-29T09:10:06.000Z</time>
      </trkpt>
      <trkpt lat="27.792304" lon="86.715757">
        <ele>3083.2</ele>
        <time>2022-10-29T09:10:10.000Z</time>
      </trkpt>
      <trkpt lat="27.792294" lon="86.715776">
        <ele>3082.6</ele>
        <time>2022-10-29T09:10:12.000Z</time>
      </trkpt>
      <trkpt lat="27.792275" lon="86.715782">
        <ele>3081.8</ele>
        <time>2022-10-29T09:10:16.000Z</time>
      </trkpt>
      <trkpt lat="27.792259" lon="86.715808">
        <ele>3080.8</ele>
        <time>2022-10-29T09:10:21.000Z</time>
      </trkpt>
      <trkpt lat="27.792227" lon="86.715814">
        <ele>3080.4</ele>
        <time>2022-10-29T09:10:24.000Z</time>
      </trkpt>
      <trkpt lat="27.792205" lon="86.715827">
        <ele>3079</ele>
        <time>2022-10-29T09:10:29.000Z</time>
      </trkpt>
      <trkpt lat="27.792182" lon="86.715827">
        <ele>3078</ele>
        <time>2022-10-29T09:10:32.000Z</time>
      </trkpt>
      <trkpt lat="27.792154" lon="86.715814">
        <ele>3077.2</ele>
        <time>2022-10-29T09:10:34.000Z</time>
      </trkpt>
      <trkpt lat="27.792134" lon="86.715808">
        <ele>3076.8</ele>
        <time>2022-10-29T09:10:36.000Z</time>
      </trkpt>
      <trkpt lat="27.792144" lon="86.715827">
        <ele>3076.2</ele>
        <time>2022-10-29T09:10:43.000Z</time>
      </trkpt>
      <trkpt lat="27.792138" lon="86.715853">
        <ele>3075.8</ele>
        <time>2022-10-29T09:10:45.000Z</time>
      </trkpt>
      <trkpt lat="27.792134" lon="86.715878">
        <ele>3075.2</ele>
        <time>2022-10-29T09:10:48.000Z</time>
      </trkpt>
      <trkpt lat="27.792128" lon="86.715898">
        <ele>3075</ele>
        <time>2022-10-29T09:10:49.000Z</time>
      </trkpt>
      <trkpt lat="27.792112" lon="86.715917">
        <ele>3074.6</ele>
        <time>2022-10-29T09:10:52.000Z</time>
      </trkpt>
      <trkpt lat="27.792106" lon="86.715936">
        <ele>3074</ele>
        <time>2022-10-29T09:10:54.000Z</time>
      </trkpt>
      <trkpt lat="27.792096" lon="86.715955">
        <ele>3073.6</ele>
        <time>2022-10-29T09:10:56.000Z</time>
      </trkpt>
      <trkpt lat="27.792086" lon="86.715981">
        <ele>3073.2</ele>
        <time>2022-10-29T09:10:58.000Z</time>
      </trkpt>
      <trkpt lat="27.792074" lon="86.716006">
        <ele>3073</ele>
        <time>2022-10-29T09:11:00.000Z</time>
      </trkpt>
      <trkpt lat="27.792067" lon="86.716032">
        <ele>3072</ele>
        <time>2022-10-29T09:11:04.000Z</time>
      </trkpt>
      <trkpt lat="27.792061" lon="86.716051">
        <ele>3071.6</ele>
        <time>2022-10-29T09:11:06.000Z</time>
      </trkpt>
      <trkpt lat="27.792054" lon="86.71607">
        <ele>3071.4</ele>
        <time>2022-10-29T09:11:08.000Z</time>
      </trkpt>
      <trkpt lat="27.792048" lon="86.71609">
        <ele>3071.4</ele>
        <time>2022-10-29T09:11:10.000Z</time>
      </trkpt>
      <trkpt lat="27.792067" lon="86.716102">
        <ele>3070.8</ele>
        <time>2022-10-29T09:11:23.000Z</time>
      </trkpt>
      <trkpt lat="27.792048" lon="86.716115">
        <ele>3070.4</ele>
        <time>2022-10-29T09:11:44.000Z</time>
      </trkpt>
      <trkpt lat="27.792035" lon="86.716134">
        <ele>3069.8</ele>
        <time>2022-10-29T09:11:46.000Z</time>
      </trkpt>
      <trkpt lat="27.792026" lon="86.716166">
        <ele>3069.2</ele>
        <time>2022-10-29T09:11:48.000Z</time>
      </trkpt>
      <trkpt lat="27.792006" lon="86.716186">
        <ele>3068.2</ele>
        <time>2022-10-29T09:11:50.000Z</time>
      </trkpt>
      <trkpt lat="27.791978" lon="86.716211">
        <ele>3068</ele>
        <time>2022-10-29T09:11:52.000Z</time>
      </trkpt>
      <trkpt lat="27.791958" lon="86.71623">
        <ele>3067.2</ele>
        <time>2022-10-29T09:11:54.000Z</time>
      </trkpt>
      <trkpt lat="27.791949" lon="86.71625">
        <ele>3066.8</ele>
        <time>2022-10-29T09:11:55.000Z</time>
      </trkpt>
      <trkpt lat="27.791926" lon="86.716269">
        <ele>3066</ele>
        <time>2022-10-29T09:11:57.000Z</time>
      </trkpt>
      <trkpt lat="27.791917" lon="86.716294">
        <ele>3065.6</ele>
        <time>2022-10-29T09:11:59.000Z</time>
      </trkpt>
      <trkpt lat="27.791904" lon="86.716326">
        <ele>3065.4</ele>
        <time>2022-10-29T09:12:01.000Z</time>
      </trkpt>
      <trkpt lat="27.791885" lon="86.716346">
        <ele>3065</ele>
        <time>2022-10-29T09:12:03.000Z</time>
      </trkpt>
      <trkpt lat="27.791875" lon="86.716365">
        <ele>3064.8</ele>
        <time>2022-10-29T09:12:04.000Z</time>
      </trkpt>
      <trkpt lat="27.791853" lon="86.716371">
        <ele>3064</ele>
        <time>2022-10-29T09:12:06.000Z</time>
      </trkpt>
      <trkpt lat="27.791834" lon="86.716384">
        <ele>3063.8</ele>
        <time>2022-10-29T09:12:08.000Z</time>
      </trkpt>
      <trkpt lat="27.791818" lon="86.716403">
        <ele>3063.6</ele>
        <time>2022-10-29T09:12:10.000Z</time>
      </trkpt>
      <trkpt lat="27.791808" lon="86.716429">
        <ele>3062.8</ele>
        <time>2022-10-29T09:12:12.000Z</time>
      </trkpt>
      <trkpt lat="27.791795" lon="86.716448">
        <ele>3062.2</ele>
        <time>2022-10-29T09:12:14.000Z</time>
      </trkpt>
      <trkpt lat="27.791779" lon="86.716467">
        <ele>3061.6</ele>
        <time>2022-10-29T09:12:17.000Z</time>
      </trkpt>
      <trkpt lat="27.791782" lon="86.716493">
        <ele>3061.4</ele>
        <time>2022-10-29T09:12:19.000Z</time>
      </trkpt>
      <trkpt lat="27.791782" lon="86.716525">
        <ele>3061.4</ele>
        <time>2022-10-29T09:12:21.000Z</time>
      </trkpt>
      <trkpt lat="27.791766" lon="86.716544">
        <ele>3061.4</ele>
        <time>2022-10-29T09:12:23.000Z</time>
      </trkpt>
      <trkpt lat="27.79176" lon="86.716563">
        <ele>3061.4</ele>
        <time>2022-10-29T09:12:24.000Z</time>
      </trkpt>
      <trkpt lat="27.791741" lon="86.716582">
        <ele>3060.6</ele>
        <time>2022-10-29T09:12:26.000Z</time>
      </trkpt>
      <trkpt lat="27.791731" lon="86.716602">
        <ele>3060.4</ele>
        <time>2022-10-29T09:12:28.000Z</time>
      </trkpt>
      <trkpt lat="27.791712" lon="86.716614">
        <ele>3060.2</ele>
        <time>2022-10-29T09:12:30.000Z</time>
      </trkpt>
      <trkpt lat="27.79169" lon="86.716627">
        <ele>3059.4</ele>
        <time>2022-10-29T09:12:33.000Z</time>
      </trkpt>
      <trkpt lat="27.791677" lon="86.716653">
        <ele>3058.8</ele>
        <time>2022-10-29T09:12:35.000Z</time>
      </trkpt>
      <trkpt lat="27.791654" lon="86.716672">
        <ele>3058.4</ele>
        <time>2022-10-29T09:12:38.000Z</time>
      </trkpt>
      <trkpt lat="27.791635" lon="86.716691">
        <ele>3057.6</ele>
        <time>2022-10-29T09:12:40.000Z</time>
      </trkpt>
      <trkpt lat="27.791622" lon="86.71671">
        <ele>3057.4</ele>
        <time>2022-10-29T09:12:42.000Z</time>
      </trkpt>
      <trkpt lat="27.791613" lon="86.716736">
        <ele>3057.2</ele>
        <time>2022-10-29T09:12:44.000Z</time>
      </trkpt>
      <trkpt lat="27.79161" lon="86.716762">
        <ele>3056.8</ele>
        <time>2022-10-29T09:12:47.000Z</time>
      </trkpt>
      <trkpt lat="27.791616" lon="86.7168">
        <ele>3057.8</ele>
        <time>2022-10-29T09:12:53.000Z</time>
      </trkpt>
      <trkpt lat="27.791626" lon="86.716819">
        <ele>3057</ele>
        <time>2022-10-29T09:12:57.000Z</time>
      </trkpt>
      <trkpt lat="27.791635" lon="86.716845">
        <ele>3055.8</ele>
        <time>2022-10-29T09:13:00.000Z</time>
      </trkpt>
      <trkpt lat="27.791648" lon="86.716864">
        <ele>3054.6</ele>
        <time>2022-10-29T09:13:02.000Z</time>
      </trkpt>
      <trkpt lat="27.791658" lon="86.716883">
        <ele>3054</ele>
        <time>2022-10-29T09:13:03.000Z</time>
      </trkpt>
      <trkpt lat="27.791664" lon="86.716909">
        <ele>3053.2</ele>
        <time>2022-10-29T09:13:06.000Z</time>
      </trkpt>
      <trkpt lat="27.791677" lon="86.716934">
        <ele>3052.4</ele>
        <time>2022-10-29T09:13:08.000Z</time>
      </trkpt>
      <trkpt lat="27.791674" lon="86.71696">
        <ele>3052.2</ele>
        <time>2022-10-29T09:13:10.000Z</time>
      </trkpt>
      <trkpt lat="27.791667" lon="86.716979">
        <ele>3051.8</ele>
        <time>2022-10-29T09:13:13.000Z</time>
      </trkpt>
      <trkpt lat="27.79167" lon="86.717005">
        <ele>3051</ele>
        <time>2022-10-29T09:13:17.000Z</time>
      </trkpt>
      <trkpt lat="27.791651" lon="86.71703">
        <ele>3050.8</ele>
        <time>2022-10-29T09:13:22.000Z</time>
      </trkpt>
      <trkpt lat="27.791658" lon="86.71705">
        <ele>3050.6</ele>
        <time>2022-10-29T09:13:24.000Z</time>
      </trkpt>
      <trkpt lat="27.791664" lon="86.717069">
        <ele>3050</ele>
        <time>2022-10-29T09:13:27.000Z</time>
      </trkpt>
      <trkpt lat="27.791658" lon="86.717094">
        <ele>3049.6</ele>
        <time>2022-10-29T09:13:30.000Z</time>
      </trkpt>
      <trkpt lat="27.791654" lon="86.71712">
        <ele>3048.6</ele>
        <time>2022-10-29T09:13:33.000Z</time>
      </trkpt>
      <trkpt lat="27.791664" lon="86.717139">
        <ele>3048.2</ele>
        <time>2022-10-29T09:13:36.000Z</time>
      </trkpt>
      <trkpt lat="27.791661" lon="86.717165">
        <ele>3047.8</ele>
        <time>2022-10-29T09:13:39.000Z</time>
      </trkpt>
      <trkpt lat="27.791661" lon="86.717197">
        <ele>3046.2</ele>
        <time>2022-10-29T09:13:46.000Z</time>
      </trkpt>
      <trkpt lat="27.79167" lon="86.717222">
        <ele>3045.4</ele>
        <time>2022-10-29T09:13:50.000Z</time>
      </trkpt>
      <trkpt lat="27.791677" lon="86.717248">
        <ele>3044.8</ele>
        <time>2022-10-29T09:13:52.000Z</time>
      </trkpt>
      <trkpt lat="27.79168" lon="86.717286">
        <ele>3043.8</ele>
        <time>2022-10-29T09:13:57.000Z</time>
      </trkpt>
      <trkpt lat="27.79169" lon="86.717306">
        <ele>3043.2</ele>
        <time>2022-10-29T09:14:00.000Z</time>
      </trkpt>
      <trkpt lat="27.79169" lon="86.717331">
        <ele>3042.8</ele>
        <time>2022-10-29T09:14:02.000Z</time>
      </trkpt>
      <trkpt lat="27.791686" lon="86.717357">
        <ele>3042.4</ele>
        <time>2022-10-29T09:14:04.000Z</time>
      </trkpt>
      <trkpt lat="27.79168" lon="86.717376">
        <ele>3042.2</ele>
        <time>2022-10-29T09:14:06.000Z</time>
      </trkpt>
      <trkpt lat="27.791677" lon="86.717402">
        <ele>3041.4</ele>
        <time>2022-10-29T09:14:08.000Z</time>
      </trkpt>
      <trkpt lat="27.791661" lon="86.717427">
        <ele>3041</ele>
        <time>2022-10-29T09:14:11.000Z</time>
      </trkpt>
      <trkpt lat="27.791651" lon="86.717453">
        <ele>3040.4</ele>
        <time>2022-10-29T09:14:15.000Z</time>
      </trkpt>
      <trkpt lat="27.791635" lon="86.717478">
        <ele>3040</ele>
        <time>2022-10-29T09:14:18.000Z</time>
      </trkpt>
      <trkpt lat="27.791622" lon="86.717498">
        <ele>3039.4</ele>
        <time>2022-10-29T09:14:20.000Z</time>
      </trkpt>
      <trkpt lat="27.791616" lon="86.717517">
        <ele>3038.8</ele>
        <time>2022-10-29T09:14:21.000Z</time>
      </trkpt>
      <trkpt lat="27.7916" lon="86.717536">
        <ele>3038.8</ele>
        <time>2022-10-29T09:14:23.000Z</time>
      </trkpt>
      <trkpt lat="27.791574" lon="86.717542">
        <ele>3038.8</ele>
        <time>2022-10-29T09:14:40.000Z</time>
      </trkpt>
      <trkpt lat="27.791587" lon="86.717562">
        <ele>3038.8</ele>
        <time>2022-10-29T09:14:51.000Z</time>
      </trkpt>
      <trkpt lat="27.791581" lon="86.717581">
        <ele>3038.4</ele>
        <time>2022-10-29T09:14:55.000Z</time>
      </trkpt>
      <trkpt lat="27.791587" lon="86.717606">
        <ele>3037.6</ele>
        <time>2022-10-29T09:14:59.000Z</time>
      </trkpt>
      <trkpt lat="27.791587" lon="86.717638">
        <ele>3037.2</ele>
        <time>2022-10-29T09:15:02.000Z</time>
      </trkpt>
      <trkpt lat="27.791578" lon="86.717677">
        <ele>3037</ele>
        <time>2022-10-29T09:15:05.000Z</time>
      </trkpt>
      <trkpt lat="27.791552" lon="86.717664">
        <ele>3036.2</ele>
        <time>2022-10-29T09:15:12.000Z</time>
      </trkpt>
      <trkpt lat="27.791536" lon="86.717645">
        <ele>3034.8</ele>
        <time>2022-10-29T09:15:15.000Z</time>
      </trkpt>
      <trkpt lat="27.79153" lon="86.717626">
        <ele>3034.8</ele>
        <time>2022-10-29T09:15:17.000Z</time>
      </trkpt>
      <trkpt lat="27.79152" lon="86.717606">
        <ele>3034</ele>
        <time>2022-10-29T09:15:19.000Z</time>
      </trkpt>
      <trkpt lat="27.791514" lon="86.717581">
        <ele>3033.6</ele>
        <time>2022-10-29T09:15:21.000Z</time>
      </trkpt>
      <trkpt lat="27.79152" lon="86.717555">
        <ele>3032.4</ele>
        <time>2022-10-29T09:15:26.000Z</time>
      </trkpt>
      <trkpt lat="27.79152" lon="86.71753">
        <ele>3032</ele>
        <time>2022-10-29T09:15:29.000Z</time>
      </trkpt>
      <trkpt lat="27.79152" lon="86.717504">
        <ele>3031.2</ele>
        <time>2022-10-29T09:15:32.000Z</time>
      </trkpt>
      <trkpt lat="27.791517" lon="86.717478">
        <ele>3031</ele>
        <time>2022-10-29T09:15:33.000Z</time>
      </trkpt>
      <trkpt lat="27.79152" lon="86.717453">
        <ele>3030.4</ele>
        <time>2022-10-29T09:15:42.000Z</time>
      </trkpt>
      <trkpt lat="27.79152" lon="86.717427">
        <ele>3029.8</ele>
        <time>2022-10-29T09:15:47.000Z</time>
      </trkpt>
      <trkpt lat="27.791504" lon="86.717446">
        <ele>3029.8</ele>
        <time>2022-10-29T09:15:51.000Z</time>
      </trkpt>
      <trkpt lat="27.791491" lon="86.717466">
        <ele>3029.2</ele>
        <time>2022-10-29T09:15:54.000Z</time>
      </trkpt>
      <trkpt lat="27.791482" lon="86.717491">
        <ele>3028.8</ele>
        <time>2022-10-29T09:15:56.000Z</time>
      </trkpt>
      <trkpt lat="27.791475" lon="86.717517">
        <ele>3028</ele>
        <time>2022-10-29T09:15:59.000Z</time>
      </trkpt>
      <trkpt lat="27.791466" lon="86.717536">
        <ele>3027</ele>
        <time>2022-10-29T09:16:02.000Z</time>
      </trkpt>
      <trkpt lat="27.791443" lon="86.717555">
        <ele>3026.2</ele>
        <time>2022-10-29T09:16:06.000Z</time>
      </trkpt>
      <trkpt lat="27.791437" lon="86.717574">
        <ele>3026</ele>
        <time>2022-10-29T09:16:08.000Z</time>
      </trkpt>
      <trkpt lat="27.791424" lon="86.7176">
        <ele>3025.4</ele>
        <time>2022-10-29T09:16:11.000Z</time>
      </trkpt>
      <trkpt lat="27.791408" lon="86.717619">
        <ele>3024.6</ele>
        <time>2022-10-29T09:16:13.000Z</time>
      </trkpt>
      <trkpt lat="27.791398" lon="86.717638">
        <ele>3023.6</ele>
        <time>2022-10-29T09:16:16.000Z</time>
      </trkpt>
      <trkpt lat="27.791382" lon="86.717651">
        <ele>3022.8</ele>
        <time>2022-10-29T09:16:21.000Z</time>
      </trkpt>
      <trkpt lat="27.791373" lon="86.717677">
        <ele>3022</ele>
        <time>2022-10-29T09:16:25.000Z</time>
      </trkpt>
      <trkpt lat="27.79137" lon="86.717702">
        <ele>3021.4</ele>
        <time>2022-10-29T09:16:30.000Z</time>
      </trkpt>
      <trkpt lat="27.791363" lon="86.717722">
        <ele>3020.4</ele>
        <time>2022-10-29T09:16:33.000Z</time>
      </trkpt>
      <trkpt lat="27.79136" lon="86.717754">
        <ele>3019.6</ele>
        <time>2022-10-29T09:16:38.000Z</time>
      </trkpt>
      <trkpt lat="27.791341" lon="86.717773">
        <ele>3018.6</ele>
        <time>2022-10-29T09:16:42.000Z</time>
      </trkpt>
      <trkpt lat="27.791318" lon="86.717779">
        <ele>3017.4</ele>
        <time>2022-10-29T09:16:45.000Z</time>
      </trkpt>
      <trkpt lat="27.791296" lon="86.717773">
        <ele>3017</ele>
        <time>2022-10-29T09:16:48.000Z</time>
      </trkpt>
      <trkpt lat="27.79127" lon="86.717773">
        <ele>3016.2</ele>
        <time>2022-10-29T09:16:51.000Z</time>
      </trkpt>
      <trkpt lat="27.791254" lon="86.71776">
        <ele>3015.8</ele>
        <time>2022-10-29T09:16:54.000Z</time>
      </trkpt>
      <trkpt lat="27.791242" lon="86.717728">
        <ele>3015.6</ele>
        <time>2022-10-29T09:16:56.000Z</time>
      </trkpt>
      <trkpt lat="27.791238" lon="86.717702">
        <ele>3015.4</ele>
        <time>2022-10-29T09:16:57.000Z</time>
      </trkpt>
      <trkpt lat="27.791229" lon="86.717683">
        <ele>3014.8</ele>
        <time>2022-10-29T09:17:00.000Z</time>
      </trkpt>
      <trkpt lat="27.791219" lon="86.717658">
        <ele>3014</ele>
        <time>2022-10-29T09:17:03.000Z</time>
      </trkpt>
      <trkpt lat="27.79121" lon="86.717638">
        <ele>3012.4</ele>
        <time>2022-10-29T09:17:08.000Z</time>
      </trkpt>
      <trkpt lat="27.791219" lon="86.717619">
        <ele>3012.2</ele>
        <time>2022-10-29T09:17:10.000Z</time>
      </trkpt>
      <trkpt lat="27.791229" lon="86.7176">
        <ele>3011.4</ele>
        <time>2022-10-29T09:17:13.000Z</time>
      </trkpt>
      <trkpt lat="27.791229" lon="86.717574">
        <ele>3010.8</ele>
        <time>2022-10-29T09:17:15.000Z</time>
      </trkpt>
      <trkpt lat="27.791229" lon="86.717542">
        <ele>3009.4</ele>
        <time>2022-10-29T09:17:18.000Z</time>
      </trkpt>
      <trkpt lat="27.791235" lon="86.717523">
        <ele>3009</ele>
        <time>2022-10-29T09:17:20.000Z</time>
      </trkpt>
      <trkpt lat="27.791242" lon="86.717504">
        <ele>3008.4</ele>
        <time>2022-10-29T09:17:23.000Z</time>
      </trkpt>
      <trkpt lat="27.791254" lon="86.717485">
        <ele>3007.8</ele>
        <time>2022-10-29T09:17:26.000Z</time>
      </trkpt>
      <trkpt lat="27.791264" lon="86.717466">
        <ele>3007.2</ele>
        <time>2022-10-29T09:17:28.000Z</time>
      </trkpt>
      <trkpt lat="27.791267" lon="86.717427">
        <ele>3006.6</ele>
        <time>2022-10-29T09:17:32.000Z</time>
      </trkpt>
      <trkpt lat="27.791274" lon="86.717408">
        <ele>3006</ele>
        <time>2022-10-29T09:17:35.000Z</time>
      </trkpt>
      <trkpt lat="27.791254" lon="86.717408">
        <ele>3005.4</ele>
        <time>2022-10-29T09:17:41.000Z</time>
      </trkpt>
      <trkpt lat="27.791242" lon="86.717427">
        <ele>3004.2</ele>
        <time>2022-10-29T09:17:45.000Z</time>
      </trkpt>
      <trkpt lat="27.791238" lon="86.717453">
        <ele>3003.6</ele>
        <time>2022-10-29T09:17:48.000Z</time>
      </trkpt>
      <trkpt lat="27.791219" lon="86.717453">
        <ele>3003.2</ele>
        <time>2022-10-29T09:17:52.000Z</time>
      </trkpt>
      <trkpt lat="27.7912" lon="86.717459">
        <ele>3002</ele>
        <time>2022-10-29T09:17:56.000Z</time>
      </trkpt>
      <trkpt lat="27.791181" lon="86.717459">
        <ele>3001.2</ele>
        <time>2022-10-29T09:18:00.000Z</time>
      </trkpt>
      <trkpt lat="27.791162" lon="86.717459">
        <ele>3000.2</ele>
        <time>2022-10-29T09:18:03.000Z</time>
      </trkpt>
      <trkpt lat="27.791142" lon="86.717466">
        <ele>3000</ele>
        <time>2022-10-29T09:18:05.000Z</time>
      </trkpt>
      <trkpt lat="27.791136" lon="86.717485">
        <ele>2999.2</ele>
        <time>2022-10-29T09:18:07.000Z</time>
      </trkpt>
      <trkpt lat="27.791114" lon="86.717485">
        <ele>2999</ele>
        <time>2022-10-29T09:18:08.000Z</time>
      </trkpt>
      <trkpt lat="27.791094" lon="86.717504">
        <ele>2997</ele>
        <time>2022-10-29T09:18:14.000Z</time>
      </trkpt>
      <trkpt lat="27.791075" lon="86.717517">
        <ele>2996.4</ele>
        <time>2022-10-29T09:18:17.000Z</time>
      </trkpt>
      <trkpt lat="27.791059" lon="86.717542">
        <ele>2995.6</ele>
        <time>2022-10-29T09:18:20.000Z</time>
      </trkpt>
      <trkpt lat="27.79104" lon="86.717562">
        <ele>2995.2</ele>
        <time>2022-10-29T09:18:22.000Z</time>
      </trkpt>
      <trkpt lat="27.791034" lon="86.717581">
        <ele>2994.8</ele>
        <time>2022-10-29T09:18:25.000Z</time>
      </trkpt>
      <trkpt lat="27.79104" lon="86.7176">
        <ele>2994.8</ele>
        <time>2022-10-29T09:18:26.000Z</time>
      </trkpt>
      <trkpt lat="27.79104" lon="86.717638">
        <ele>2994</ele>
        <time>2022-10-29T09:18:29.000Z</time>
      </trkpt>
      <trkpt lat="27.791034" lon="86.717658">
        <ele>2992.8</ele>
        <time>2022-10-29T09:18:33.000Z</time>
      </trkpt>
      <trkpt lat="27.79104" lon="86.717677">
        <ele>2992.6</ele>
        <time>2022-10-29T09:18:35.000Z</time>
      </trkpt>
      <trkpt lat="27.79104" lon="86.717702">
        <ele>2992.2</ele>
        <time>2022-10-29T09:18:38.000Z</time>
      </trkpt>
      <trkpt lat="27.791021" lon="86.717696">
        <ele>2990.8</ele>
        <time>2022-10-29T09:18:42.000Z</time>
      </trkpt>
      <trkpt lat="27.791027" lon="86.717677">
        <ele>2991</ele>
        <time>2022-10-29T09:18:45.000Z</time>
      </trkpt>
      <trkpt lat="27.791034" lon="86.717658">
        <ele>2990.8</ele>
        <time>2022-10-29T09:18:47.000Z</time>
      </trkpt>
      <trkpt lat="27.791037" lon="86.717619">
        <ele>2989.8</ele>
        <time>2022-10-29T09:18:50.000Z</time>
      </trkpt>
      <trkpt lat="27.791043" lon="86.7176">
        <ele>2988.6</ele>
        <time>2022-10-29T09:18:54.000Z</time>
      </trkpt>
      <trkpt lat="27.791027" lon="86.717587">
        <ele>2988.6</ele>
        <time>2022-10-29T09:18:55.000Z</time>
      </trkpt>
      <trkpt lat="27.791037" lon="86.717568">
        <ele>2988.2</ele>
        <time>2022-10-29T09:18:58.000Z</time>
      </trkpt>
      <trkpt lat="27.791027" lon="86.717542">
        <ele>2987</ele>
        <time>2022-10-29T09:19:05.000Z</time>
      </trkpt>
      <trkpt lat="27.79103" lon="86.717517">
        <ele>2986.2</ele>
        <time>2022-10-29T09:19:09.000Z</time>
      </trkpt>
      <trkpt lat="27.791037" lon="86.717491">
        <ele>2985.2</ele>
        <time>2022-10-29T09:19:12.000Z</time>
      </trkpt>
      <trkpt lat="27.791021" lon="86.717466">
        <ele>2984.6</ele>
        <time>2022-10-29T09:19:14.000Z</time>
      </trkpt>
      <trkpt lat="27.791002" lon="86.717459">
        <ele>2983.4</ele>
        <time>2022-10-29T09:19:17.000Z</time>
      </trkpt>
      <trkpt lat="27.790986" lon="86.717478">
        <ele>2983.6</ele>
        <time>2022-10-29T09:19:19.000Z</time>
      </trkpt>
      <trkpt lat="27.790976" lon="86.717498">
        <ele>2983.2</ele>
        <time>2022-10-29T09:19:22.000Z</time>
      </trkpt>
      <trkpt lat="27.790963" lon="86.717517">
        <ele>2981.8</ele>
        <time>2022-10-29T09:19:26.000Z</time>
      </trkpt>
      <trkpt lat="27.790938" lon="86.71753">
        <ele>2981.6</ele>
        <time>2022-10-29T09:19:30.000Z</time>
      </trkpt>
      <trkpt lat="27.790918" lon="86.717555">
        <ele>2980.6</ele>
        <time>2022-10-29T09:19:34.000Z</time>
      </trkpt>
      <trkpt lat="27.790899" lon="86.717568">
        <ele>2978.8</ele>
        <time>2022-10-29T09:19:39.000Z</time>
      </trkpt>
      <trkpt lat="27.790896" lon="86.7176">
        <ele>2978.4</ele>
        <time>2022-10-29T09:19:43.000Z</time>
      </trkpt>
      <trkpt lat="27.790886" lon="86.717626">
        <ele>2977.2</ele>
        <time>2022-10-29T09:19:46.000Z</time>
      </trkpt>
      <trkpt lat="27.790877" lon="86.717645">
        <ele>2976.4</ele>
        <time>2022-10-29T09:19:49.000Z</time>
      </trkpt>
      <trkpt lat="27.79087" lon="86.717664">
        <ele>2976.4</ele>
        <time>2022-10-29T09:19:51.000Z</time>
      </trkpt>
      <trkpt lat="27.790864" lon="86.717683">
        <ele>2975.6</ele>
        <time>2022-10-29T09:19:54.000Z</time>
      </trkpt>
      <trkpt lat="27.790845" lon="86.717696">
        <ele>2975</ele>
        <time>2022-10-29T09:19:56.000Z</time>
      </trkpt>
      <trkpt lat="27.790835" lon="86.717715">
        <ele>2974.6</ele>
        <time>2022-10-29T09:19:58.000Z</time>
      </trkpt>
      <trkpt lat="27.790842" lon="86.717741">
        <ele>2974.4</ele>
        <time>2022-10-29T09:20:01.000Z</time>
      </trkpt>
      <trkpt lat="27.790835" lon="86.71776">
        <ele>2973.4</ele>
        <time>2022-10-29T09:20:03.000Z</time>
      </trkpt>
      <trkpt lat="27.790822" lon="86.717779">
        <ele>2972.6</ele>
        <time>2022-10-29T09:20:06.000Z</time>
      </trkpt>
      <trkpt lat="27.790813" lon="86.717798">
        <ele>2972</ele>
        <time>2022-10-29T09:20:09.000Z</time>
      </trkpt>
      <trkpt lat="27.790806" lon="86.717818">
        <ele>2971.2</ele>
        <time>2022-10-29T09:20:13.000Z</time>
      </trkpt>
      <trkpt lat="27.790781" lon="86.717843">
        <ele>2970.4</ele>
        <time>2022-10-29T09:20:16.000Z</time>
      </trkpt>
      <trkpt lat="27.790765" lon="86.717856">
        <ele>2969.6</ele>
        <time>2022-10-29T09:20:19.000Z</time>
      </trkpt>
      <trkpt lat="27.790758" lon="86.717882">
        <ele>2969.4</ele>
        <time>2022-10-29T09:20:22.000Z</time>
      </trkpt>
      <trkpt lat="27.790752" lon="86.717901">
        <ele>2968.2</ele>
        <time>2022-10-29T09:20:25.000Z</time>
      </trkpt>
      <trkpt lat="27.790746" lon="86.71792">
        <ele>2967.6</ele>
        <time>2022-10-29T09:20:27.000Z</time>
      </trkpt>
      <trkpt lat="27.790736" lon="86.717939">
        <ele>2967</ele>
        <time>2022-10-29T09:20:32.000Z</time>
      </trkpt>
      <trkpt lat="27.79073" lon="86.717958">
        <ele>2966.8</ele>
        <time>2022-10-29T09:20:36.000Z</time>
      </trkpt>
      <trkpt lat="27.790717" lon="86.717978">
        <ele>2966.4</ele>
        <time>2022-10-29T09:20:41.000Z</time>
      </trkpt>
      <trkpt lat="27.790698" lon="86.717997">
        <ele>2965</ele>
        <time>2022-10-29T09:20:45.000Z</time>
      </trkpt>
      <trkpt lat="27.790682" lon="86.71801">
        <ele>2964.2</ele>
        <time>2022-10-29T09:20:49.000Z</time>
      </trkpt>
      <trkpt lat="27.790666" lon="86.718022">
        <ele>2963.4</ele>
        <time>2022-10-29T09:20:52.000Z</time>
      </trkpt>
      <trkpt lat="27.790669" lon="86.718048">
        <ele>2962.6</ele>
        <time>2022-10-29T09:20:56.000Z</time>
      </trkpt>
      <trkpt lat="27.790666" lon="86.718074">
        <ele>2962.8</ele>
        <time>2022-10-29T09:20:59.000Z</time>
      </trkpt>
      <trkpt lat="27.790669" lon="86.718099">
        <ele>2962.6</ele>
        <time>2022-10-29T09:21:08.000Z</time>
      </trkpt>
      <trkpt lat="27.790662" lon="86.718118">
        <ele>2961.4</ele>
        <time>2022-10-29T09:21:53.000Z</time>
      </trkpt>
      <trkpt lat="27.790634" lon="86.718131">
        <ele>2962.2</ele>
        <time>2022-10-29T09:22:21.000Z</time>
      </trkpt>
      <trkpt lat="27.790608" lon="86.718125">
        <ele>2961</ele>
        <time>2022-10-29T09:22:24.000Z</time>
      </trkpt>
      <trkpt lat="27.790589" lon="86.718099">
        <ele>2960.4</ele>
        <time>2022-10-29T09:22:27.000Z</time>
      </trkpt>
      <trkpt lat="27.790582" lon="86.71808">
        <ele>2960.4</ele>
        <time>2022-10-29T09:22:29.000Z</time>
      </trkpt>
      <trkpt lat="27.790589" lon="86.718061">
        <ele>2960.4</ele>
        <time>2022-10-29T09:22:31.000Z</time>
      </trkpt>
      <trkpt lat="27.790595" lon="86.718042">
        <ele>2959.8</ele>
        <time>2022-10-29T09:22:33.000Z</time>
      </trkpt>
      <trkpt lat="27.790605" lon="86.718022">
        <ele>2959.6</ele>
        <time>2022-10-29T09:22:35.000Z</time>
      </trkpt>
      <trkpt lat="27.790608" lon="86.717984">
        <ele>2958.8</ele>
        <time>2022-10-29T09:22:40.000Z</time>
      </trkpt>
      <trkpt lat="27.790618" lon="86.717965">
        <ele>2958</ele>
        <time>2022-10-29T09:22:44.000Z</time>
      </trkpt>
      <trkpt lat="27.790627" lon="86.717933">
        <ele>2957.8</ele>
        <time>2022-10-29T09:22:46.000Z</time>
      </trkpt>
      <trkpt lat="27.790627" lon="86.717901">
        <ele>2957</ele>
        <time>2022-10-29T09:22:49.000Z</time>
      </trkpt>
      <trkpt lat="27.790624" lon="86.717926">
        <ele>2954.8</ele>
        <time>2022-10-29T09:23:05.000Z</time>
      </trkpt>
      <trkpt lat="27.790614" lon="86.717952">
        <ele>2953.8</ele>
        <time>2022-10-29T09:23:08.000Z</time>
      </trkpt>
      <trkpt lat="27.790602" lon="86.717971">
        <ele>2952.4</ele>
        <time>2022-10-29T09:23:12.000Z</time>
      </trkpt>
      <trkpt lat="27.790579" lon="86.717997">
        <ele>2951.6</ele>
        <time>2022-10-29T09:23:15.000Z</time>
      </trkpt>
      <trkpt lat="27.790566" lon="86.718016">
        <ele>2950.8</ele>
        <time>2022-10-29T09:23:18.000Z</time>
      </trkpt>
      <trkpt lat="27.790544" lon="86.718035">
        <ele>2950.6</ele>
        <time>2022-10-29T09:23:20.000Z</time>
      </trkpt>
      <trkpt lat="27.790515" lon="86.718048">
        <ele>2950.2</ele>
        <time>2022-10-29T09:23:22.000Z</time>
      </trkpt>
      <trkpt lat="27.790499" lon="86.718061">
        <ele>2949.8</ele>
        <time>2022-10-29T09:23:25.000Z</time>
      </trkpt>
      <trkpt lat="27.790477" lon="86.71808">
        <ele>2948.8</ele>
        <time>2022-10-29T09:23:28.000Z</time>
      </trkpt>
      <trkpt lat="27.790454" lon="86.718099">
        <ele>2948.2</ele>
        <time>2022-10-29T09:23:31.000Z</time>
      </trkpt>
      <trkpt lat="27.790448" lon="86.718118">
        <ele>2947.8</ele>
        <time>2022-10-29T09:23:32.000Z</time>
      </trkpt>
      <trkpt lat="27.790429" lon="86.718131">
        <ele>2946.6</ele>
        <time>2022-10-29T09:23:36.000Z</time>
      </trkpt>
      <trkpt lat="27.79041" lon="86.71815">
        <ele>2946</ele>
        <time>2022-10-29T09:23:39.000Z</time>
      </trkpt>
      <trkpt lat="27.790394" lon="86.71817">
        <ele>2945.4</ele>
        <time>2022-10-29T09:23:42.000Z</time>
      </trkpt>
      <trkpt lat="27.790381" lon="86.718195">
        <ele>2944.8</ele>
        <time>2022-10-29T09:23:45.000Z</time>
      </trkpt>
      <trkpt lat="27.790368" lon="86.718214">
        <ele>2944</ele>
        <time>2022-10-29T09:23:51.000Z</time>
      </trkpt>
      <trkpt lat="27.790358" lon="86.718234">
        <ele>2943</ele>
        <time>2022-10-29T09:23:53.000Z</time>
      </trkpt>
      <trkpt lat="27.790349" lon="86.718253">
        <ele>2942.8</ele>
        <time>2022-10-29T09:23:57.000Z</time>
      </trkpt>
      <trkpt lat="27.790358" lon="86.718278">
        <ele>2941.2</ele>
        <time>2022-10-29T09:26:14.000Z</time>
      </trkpt>
      <trkpt lat="27.790355" lon="86.71831">
        <ele>2940.4</ele>
        <time>2022-10-29T09:26:16.000Z</time>
      </trkpt>
      <trkpt lat="27.790358" lon="86.718355">
        <ele>2940</ele>
        <time>2022-10-29T09:26:19.000Z</time>
      </trkpt>
      <trkpt lat="27.790358" lon="86.718394">
        <ele>2939.6</ele>
        <time>2022-10-29T09:26:21.000Z</time>
      </trkpt>
      <trkpt lat="27.790355" lon="86.718419">
        <ele>2939.4</ele>
        <time>2022-10-29T09:26:23.000Z</time>
      </trkpt>
      <trkpt lat="27.790358" lon="86.718445">
        <ele>2939.4</ele>
        <time>2022-10-29T09:26:26.000Z</time>
      </trkpt>
      <trkpt lat="27.790358" lon="86.71847">
        <ele>2939</ele>
        <time>2022-10-29T09:26:28.000Z</time>
      </trkpt>
      <trkpt lat="27.790358" lon="86.718496">
        <ele>2938.8</ele>
        <time>2022-10-29T09:26:31.000Z</time>
      </trkpt>
      <trkpt lat="27.790355" lon="86.718522">
        <ele>2938.6</ele>
        <time>2022-10-29T09:26:33.000Z</time>
      </trkpt>
      <trkpt lat="27.790355" lon="86.718554">
        <ele>2938.2</ele>
        <time>2022-10-29T09:26:36.000Z</time>
      </trkpt>
      <trkpt lat="27.790355" lon="86.718579">
        <ele>2938.2</ele>
        <time>2022-10-29T09:26:39.000Z</time>
      </trkpt>
      <trkpt lat="27.790349" lon="86.718605">
        <ele>2937.6</ele>
        <time>2022-10-29T09:26:41.000Z</time>
      </trkpt>
      <trkpt lat="27.790349" lon="86.718637">
        <ele>2937.4</ele>
        <time>2022-10-29T09:26:44.000Z</time>
      </trkpt>
      <trkpt lat="27.790349" lon="86.718675">
        <ele>2937</ele>
        <time>2022-10-29T09:26:47.000Z</time>
      </trkpt>
      <trkpt lat="27.790349" lon="86.718707">
        <ele>2936.8</ele>
        <time>2022-10-29T09:26:50.000Z</time>
      </trkpt>
      <trkpt lat="27.790346" lon="86.718733">
        <ele>2936.6</ele>
        <time>2022-10-29T09:26:53.000Z</time>
      </trkpt>
      <trkpt lat="27.790346" lon="86.718758">
        <ele>2936.8</ele>
        <time>2022-10-29T09:26:59.000Z</time>
      </trkpt>
      <trkpt lat="27.790342" lon="86.71879">
        <ele>2937</ele>
        <time>2022-10-29T09:27:02.000Z</time>
      </trkpt>
      <trkpt lat="27.790342" lon="86.718816">
        <ele>2937</ele>
        <time>2022-10-29T09:27:04.000Z</time>
      </trkpt>
      <trkpt lat="27.790339" lon="86.718848">
        <ele>2936.6</ele>
        <time>2022-10-29T09:27:07.000Z</time>
      </trkpt>
      <trkpt lat="27.790336" lon="86.718874">
        <ele>2936</ele>
        <time>2022-10-29T09:27:09.000Z</time>
      </trkpt>
      <trkpt lat="27.790333" lon="86.718906">
        <ele>2935.8</ele>
        <time>2022-10-29T09:27:12.000Z</time>
      </trkpt>
      <trkpt lat="27.79033" lon="86.718931">
        <ele>2936</ele>
        <time>2022-10-29T09:27:15.000Z</time>
      </trkpt>
      <trkpt lat="27.79033" lon="86.718963">
        <ele>2936</ele>
        <time>2022-10-29T09:27:17.000Z</time>
      </trkpt>
      <trkpt lat="27.79033" lon="86.718989">
        <ele>2936.2</ele>
        <time>2022-10-29T09:27:19.000Z</time>
      </trkpt>
      <trkpt lat="27.79033" lon="86.719027">
        <ele>2936.2</ele>
        <time>2022-10-29T09:27:22.000Z</time>
      </trkpt>
      <trkpt lat="27.79033" lon="86.719066">
        <ele>2936.6</ele>
        <time>2022-10-29T09:27:25.000Z</time>
      </trkpt>
      <trkpt lat="27.790326" lon="86.719104">
        <ele>2935.8</ele>
        <time>2022-10-29T09:27:28.000Z</time>
      </trkpt>
      <trkpt lat="27.79032" lon="86.71913">
        <ele>2935.6</ele>
        <time>2022-10-29T09:27:31.000Z</time>
      </trkpt>
      <trkpt lat="27.790317" lon="86.719155">
        <ele>2935.8</ele>
        <time>2022-10-29T09:27:34.000Z</time>
      </trkpt>
      <trkpt lat="27.79032" lon="86.719194">
        <ele>2936</ele>
        <time>2022-10-29T09:27:38.000Z</time>
      </trkpt>
      <trkpt lat="27.790323" lon="86.719226">
        <ele>2936.8</ele>
        <time>2022-10-29T09:27:42.000Z</time>
      </trkpt>
      <trkpt lat="27.790326" lon="86.719251">
        <ele>2936.8</ele>
        <time>2022-10-29T09:27:45.000Z</time>
      </trkpt>
      <trkpt lat="27.790317" lon="86.71927">
        <ele>2937.2</ele>
        <time>2022-10-29T09:27:47.000Z</time>
      </trkpt>
      <trkpt lat="27.790307" lon="86.71929">
        <ele>2937.4</ele>
        <time>2022-10-29T09:27:50.000Z</time>
      </trkpt>
      <trkpt lat="27.790301" lon="86.719322">
        <ele>2937.8</ele>
        <time>2022-10-29T09:27:52.000Z</time>
      </trkpt>
      <trkpt lat="27.790307" lon="86.719347">
        <ele>2937.8</ele>
        <time>2022-10-29T09:27:54.000Z</time>
      </trkpt>
      <trkpt lat="27.790294" lon="86.719373">
        <ele>2938</ele>
        <time>2022-10-29T09:27:57.000Z</time>
      </trkpt>
      <trkpt lat="27.790307" lon="86.719398">
        <ele>2938.2</ele>
        <time>2022-10-29T09:28:00.000Z</time>
      </trkpt>
      <trkpt lat="27.790317" lon="86.71943">
        <ele>2938.6</ele>
        <time>2022-10-29T09:28:02.000Z</time>
      </trkpt>
      <trkpt lat="27.790304" lon="86.719411">
        <ele>2938.8</ele>
        <time>2022-10-29T09:28:10.000Z</time>
      </trkpt>
      <trkpt lat="27.790288" lon="86.719392">
        <ele>2938.6</ele>
        <time>2022-10-29T09:28:21.000Z</time>
      </trkpt>
      <trkpt lat="27.790291" lon="86.719366">
        <ele>2939</ele>
        <time>2022-10-29T09:28:31.000Z</time>
      </trkpt>
      <trkpt lat="27.790272" lon="86.719347">
        <ele>2938.4</ele>
        <time>2022-10-29T09:29:00.000Z</time>
      </trkpt>
      <trkpt lat="27.790266" lon="86.719328">
        <ele>2938.2</ele>
        <time>2022-10-29T09:29:03.000Z</time>
      </trkpt>
      <trkpt lat="27.79025" lon="86.719347">
        <ele>2938</ele>
        <time>2022-10-29T09:29:06.000Z</time>
      </trkpt>
      <trkpt lat="27.79023" lon="86.719347">
        <ele>2938.6</ele>
        <time>2022-10-29T09:29:15.000Z</time>
      </trkpt>
      <trkpt lat="27.790214" lon="86.719328">
        <ele>2938.4</ele>
        <time>2022-10-29T09:29:17.000Z</time>
      </trkpt>
      <trkpt lat="27.790195" lon="86.719328">
        <ele>2938.4</ele>
        <time>2022-10-29T09:29:21.000Z</time>
      </trkpt>
      <trkpt lat="27.790189" lon="86.71936">
        <ele>2938.4</ele>
        <time>2022-10-29T09:29:26.000Z</time>
      </trkpt>
      <trkpt lat="27.790192" lon="86.719386">
        <ele>2938.4</ele>
        <time>2022-10-29T09:29:32.000Z</time>
      </trkpt>
      <trkpt lat="27.790205" lon="86.719366">
        <ele>2937.4</ele>
        <time>2022-10-29T09:30:14.000Z</time>
      </trkpt>
      <trkpt lat="27.790211" lon="86.719347">
        <ele>2937.2</ele>
        <time>2022-10-29T09:30:15.000Z</time>
      </trkpt>
      <trkpt lat="27.790224" lon="86.719328">
        <ele>2937.2</ele>
        <time>2022-10-29T09:30:16.000Z</time>
      </trkpt>
      <trkpt lat="27.790234" lon="86.719309">
        <ele>2937.2</ele>
        <time>2022-10-29T09:30:17.000Z</time>
      </trkpt>
      <trkpt lat="27.790237" lon="86.719283">
        <ele>2937.2</ele>
        <time>2022-10-29T09:30:18.000Z</time>
      </trkpt>
      <trkpt lat="27.790256" lon="86.719264">
        <ele>2937</ele>
        <time>2022-10-29T09:30:21.000Z</time>
      </trkpt>
      <trkpt lat="27.790262" lon="86.719245">
        <ele>2936.8</ele>
        <time>2022-10-29T09:30:24.000Z</time>
      </trkpt>
      <trkpt lat="27.790266" lon="86.719277">
        <ele>2937.6</ele>
        <time>2022-10-29T09:31:11.000Z</time>
      </trkpt>
      <trkpt lat="27.790259" lon="86.719309">
        <ele>2937.6</ele>
        <time>2022-10-29T09:31:13.000Z</time>
      </trkpt>
      <trkpt lat="27.790253" lon="86.719328">
        <ele>2937.4</ele>
        <time>2022-10-29T09:31:14.000Z</time>
      </trkpt>
      <trkpt lat="27.790246" lon="86.719366">
        <ele>2937.4</ele>
        <time>2022-10-29T09:31:16.000Z</time>
      </trkpt>
      <trkpt lat="27.790253" lon="86.719398">
        <ele>2937.6</ele>
        <time>2022-10-29T09:31:18.000Z</time>
      </trkpt>
      <trkpt lat="27.790266" lon="86.719424">
        <ele>2938.2</ele>
        <time>2022-10-29T09:31:20.000Z</time>
      </trkpt>
      <trkpt lat="27.79024" lon="86.719411">
        <ele>2938.4</ele>
        <time>2022-10-29T09:31:24.000Z</time>
      </trkpt>
      <trkpt lat="27.790224" lon="86.719398">
        <ele>2938.6</ele>
        <time>2022-10-29T09:31:27.000Z</time>
      </trkpt>
      <trkpt lat="27.790221" lon="86.719373">
        <ele>2938.2</ele>
        <time>2022-10-29T09:31:34.000Z</time>
      </trkpt>
      <trkpt lat="27.790186" lon="86.719398">
        <ele>2938</ele>
        <time>2022-10-29T09:32:06.000Z</time>
      </trkpt>
      <trkpt lat="27.790182" lon="86.719424">
        <ele>2938</ele>
        <time>2022-10-29T09:32:08.000Z</time>
      </trkpt>
      <trkpt lat="27.790189" lon="86.719443">
        <ele>2938</ele>
        <time>2022-10-29T09:32:10.000Z</time>
      </trkpt>
      <trkpt lat="27.790195" lon="86.719475">
        <ele>2938.4</ele>
        <time>2022-10-29T09:32:12.000Z</time>
      </trkpt>
      <trkpt lat="27.790186" lon="86.719507">
        <ele>2938.6</ele>
        <time>2022-10-29T09:32:15.000Z</time>
      </trkpt>
      <trkpt lat="27.790186" lon="86.719546">
        <ele>2938</ele>
        <time>2022-10-29T09:32:18.000Z</time>
      </trkpt>
      <trkpt lat="27.79016" lon="86.719558">
        <ele>2938</ele>
        <time>2022-10-29T09:32:20.000Z</time>
      </trkpt>
      <trkpt lat="27.790138" lon="86.719565">
        <ele>2937.6</ele>
        <time>2022-10-29T09:32:22.000Z</time>
      </trkpt>
      <trkpt lat="27.790128" lon="86.719584">
        <ele>2937.6</ele>
        <time>2022-10-29T09:32:23.000Z</time>
      </trkpt>
      <trkpt lat="27.790112" lon="86.719603">
        <ele>2937.6</ele>
        <time>2022-10-29T09:32:25.000Z</time>
      </trkpt>
      <trkpt lat="27.790106" lon="86.719622">
        <ele>2937.6</ele>
        <time>2022-10-29T09:32:28.000Z</time>
      </trkpt>
      <trkpt lat="27.79008" lon="86.719629">
        <ele>2938.2</ele>
        <time>2022-10-29T09:32:30.000Z</time>
      </trkpt>
      <trkpt lat="27.790061" lon="86.719629">
        <ele>2938.6</ele>
        <time>2022-10-29T09:32:32.000Z</time>
      </trkpt>
      <trkpt lat="27.790042" lon="86.719635">
        <ele>2939</ele>
        <time>2022-10-29T09:32:34.000Z</time>
      </trkpt>
      <trkpt lat="27.790022" lon="86.719622">
        <ele>2939.2</ele>
        <time>2022-10-29T09:32:39.000Z</time>
      </trkpt>
      <trkpt lat="27.79001" lon="86.719603">
        <ele>2939.2</ele>
        <time>2022-10-29T09:32:41.000Z</time>
      </trkpt>
      <trkpt lat="27.789978" lon="86.71959">
        <ele>2937.8</ele>
        <time>2022-10-29T09:32:46.000Z</time>
      </trkpt>
      <trkpt lat="27.789952" lon="86.719571">
        <ele>2937.6</ele>
        <time>2022-10-29T09:32:48.000Z</time>
      </trkpt>
      <trkpt lat="27.789926" lon="86.719558">
        <ele>2936.8</ele>
        <time>2022-10-29T09:32:51.000Z</time>
      </trkpt>
      <trkpt lat="27.789907" lon="86.719552">
        <ele>2936.4</ele>
        <time>2022-10-29T09:32:55.000Z</time>
      </trkpt>
      <trkpt lat="27.789882" lon="86.719552">
        <ele>2935.2</ele>
        <time>2022-10-29T09:33:01.000Z</time>
      </trkpt>
      <trkpt lat="27.789862" lon="86.719533">
        <ele>2933.6</ele>
        <time>2022-10-29T09:33:06.000Z</time>
      </trkpt>
      <trkpt lat="27.789853" lon="86.719514">
        <ele>2933.2</ele>
        <time>2022-10-29T09:33:09.000Z</time>
      </trkpt>
      <trkpt lat="27.78984" lon="86.719488">
        <ele>2932.4</ele>
        <time>2022-10-29T09:33:17.000Z</time>
      </trkpt>
      <trkpt lat="27.78985" lon="86.719462">
        <ele>2930.2</ele>
        <time>2022-10-29T09:33:22.000Z</time>
      </trkpt>
      <trkpt lat="27.789859" lon="86.719443">
        <ele>2929</ele>
        <time>2022-10-29T09:33:24.000Z</time>
      </trkpt>
      <trkpt lat="27.789878" lon="86.719424">
        <ele>2928</ele>
        <time>2022-10-29T09:33:28.000Z</time>
      </trkpt>
      <trkpt lat="27.789888" lon="86.719405">
        <ele>2927.6</ele>
        <time>2022-10-29T09:33:30.000Z</time>
      </trkpt>
      <trkpt lat="27.789901" lon="86.719373">
        <ele>2927.4</ele>
        <time>2022-10-29T09:33:33.000Z</time>
      </trkpt>
      <trkpt lat="27.789878" lon="86.71936">
        <ele>2924.6</ele>
        <time>2022-10-29T09:33:43.000Z</time>
      </trkpt>
      <trkpt lat="27.789853" lon="86.71936">
        <ele>2923.2</ele>
        <time>2022-10-29T09:33:52.000Z</time>
      </trkpt>
      <trkpt lat="27.789834" lon="86.719354">
        <ele>2923</ele>
        <time>2022-10-29T09:33:54.000Z</time>
      </trkpt>
      <trkpt lat="27.789814" lon="86.719347">
        <ele>2922.8</ele>
        <time>2022-10-29T09:33:57.000Z</time>
      </trkpt>
      <trkpt lat="27.789792" lon="86.719334">
        <ele>2922.2</ele>
        <time>2022-10-29T09:33:59.000Z</time>
      </trkpt>
      <trkpt lat="27.789776" lon="86.719354">
        <ele>2921.4</ele>
        <time>2022-10-29T09:34:03.000Z</time>
      </trkpt>
      <trkpt lat="27.789744" lon="86.719354">
        <ele>2920.6</ele>
        <time>2022-10-29T09:34:05.000Z</time>
      </trkpt>
      <trkpt lat="27.789725" lon="86.719347">
        <ele>2919.6</ele>
        <time>2022-10-29T09:34:07.000Z</time>
      </trkpt>
      <trkpt lat="27.789702" lon="86.719334">
        <ele>2918.8</ele>
        <time>2022-10-29T09:34:09.000Z</time>
      </trkpt>
      <trkpt lat="27.789693" lon="86.719354">
        <ele>2918.6</ele>
        <time>2022-10-29T09:34:11.000Z</time>
      </trkpt>
      <trkpt lat="27.789674" lon="86.719354">
        <ele>2918</ele>
        <time>2022-10-29T09:34:13.000Z</time>
      </trkpt>
      <trkpt lat="27.789664" lon="86.719373">
        <ele>2917.4</ele>
        <time>2022-10-29T09:34:15.000Z</time>
      </trkpt>
      <trkpt lat="27.789654" lon="86.719398">
        <ele>2916.8</ele>
        <time>2022-10-29T09:34:18.000Z</time>
      </trkpt>
      <trkpt lat="27.789645" lon="86.719424">
        <ele>2916.2</ele>
        <time>2022-10-29T09:34:20.000Z</time>
      </trkpt>
      <trkpt lat="27.789626" lon="86.719424">
        <ele>2914.4</ele>
        <time>2022-10-29T09:34:24.000Z</time>
      </trkpt>
      <trkpt lat="27.789597" lon="86.719424">
        <ele>2913.4</ele>
        <time>2022-10-29T09:34:27.000Z</time>
      </trkpt>
      <trkpt lat="27.789578" lon="86.71943">
        <ele>2912.8</ele>
        <time>2022-10-29T09:34:29.000Z</time>
      </trkpt>
      <trkpt lat="27.789555" lon="86.719424">
        <ele>2912.2</ele>
        <time>2022-10-29T09:34:31.000Z</time>
      </trkpt>
      <trkpt lat="27.789526" lon="86.71943">
        <ele>2910.8</ele>
        <time>2022-10-29T09:34:35.000Z</time>
      </trkpt>
      <trkpt lat="27.789501" lon="86.719437">
        <ele>2909.8</ele>
        <time>2022-10-29T09:34:38.000Z</time>
      </trkpt>
      <trkpt lat="27.789475" lon="86.71945">
        <ele>2909.4</ele>
        <time>2022-10-29T09:34:40.000Z</time>
      </trkpt>
      <trkpt lat="27.789462" lon="86.719469">
        <ele>2908.8</ele>
        <time>2022-10-29T09:34:42.000Z</time>
      </trkpt>
      <trkpt lat="27.789446" lon="86.719482">
        <ele>2907.8</ele>
        <time>2022-10-29T09:34:44.000Z</time>
      </trkpt>
      <trkpt lat="27.789424" lon="86.719501">
        <ele>2907.2</ele>
        <time>2022-10-29T09:34:46.000Z</time>
      </trkpt>
      <trkpt lat="27.789402" lon="86.719507">
        <ele>2906.6</ele>
        <time>2022-10-29T09:34:48.000Z</time>
      </trkpt>
      <trkpt lat="27.789382" lon="86.719501">
        <ele>2906.2</ele>
        <time>2022-10-29T09:34:50.000Z</time>
      </trkpt>
      <trkpt lat="27.789366" lon="86.719488">
        <ele>2905.6</ele>
        <time>2022-10-29T09:34:52.000Z</time>
      </trkpt>
      <trkpt lat="27.789344" lon="86.719482">
        <ele>2905.6</ele>
        <time>2022-10-29T09:34:54.000Z</time>
      </trkpt>
      <trkpt lat="27.789325" lon="86.719501">
        <ele>2904.4</ele>
        <time>2022-10-29T09:34:56.000Z</time>
      </trkpt>
      <trkpt lat="27.789296" lon="86.719507">
        <ele>2904</ele>
        <time>2022-10-29T09:34:58.000Z</time>
      </trkpt>
      <trkpt lat="27.789267" lon="86.719514">
        <ele>2902.8</ele>
        <time>2022-10-29T09:35:00.000Z</time>
      </trkpt>
      <trkpt lat="27.789248" lon="86.719501">
        <ele>2902.4</ele>
        <time>2022-10-29T09:35:01.000Z</time>
      </trkpt>
      <trkpt lat="27.789226" lon="86.719475">
        <ele>2902.2</ele>
        <time>2022-10-29T09:35:02.000Z</time>
      </trkpt>
      <trkpt lat="27.789197" lon="86.71945">
        <ele>2901.8</ele>
        <time>2022-10-29T09:35:03.000Z</time>
      </trkpt>
      <trkpt lat="27.789181" lon="86.719437">
        <ele>2901.2</ele>
        <time>2022-10-29T09:35:04.000Z</time>
      </trkpt>
      <trkpt lat="27.789162" lon="86.71943">
        <ele>2900.8</ele>
        <time>2022-10-29T09:35:05.000Z</time>
      </trkpt>
      <trkpt lat="27.789155" lon="86.719411">
        <ele>2900.6</ele>
        <time>2022-10-29T09:35:06.000Z</time>
      </trkpt>
      <trkpt lat="27.789133" lon="86.719405">
        <ele>2899.8</ele>
        <time>2022-10-29T09:35:08.000Z</time>
      </trkpt>
      <trkpt lat="27.789126" lon="86.719386">
        <ele>2899.6</ele>
        <time>2022-10-29T09:35:09.000Z</time>
      </trkpt>
      <trkpt lat="27.789123" lon="86.719354">
        <ele>2899</ele>
        <time>2022-10-29T09:35:10.000Z</time>
      </trkpt>
      <trkpt lat="27.789104" lon="86.719334">
        <ele>2898</ele>
        <time>2022-10-29T09:35:13.000Z</time>
      </trkpt>
      <trkpt lat="27.789088" lon="86.719315">
        <ele>2896.8</ele>
        <time>2022-10-29T09:35:15.000Z</time>
      </trkpt>
      <trkpt lat="27.789075" lon="86.71929">
        <ele>2896</ele>
        <time>2022-10-29T09:35:17.000Z</time>
      </trkpt>
      <trkpt lat="27.789056" lon="86.719277">
        <ele>2895.4</ele>
        <time>2022-10-29T09:35:20.000Z</time>
      </trkpt>
      <trkpt lat="27.789037" lon="86.71927">
        <ele>2895.2</ele>
        <time>2022-10-29T09:35:21.000Z</time>
      </trkpt>
      <trkpt lat="27.789011" lon="86.719277">
        <ele>2894.4</ele>
        <time>2022-10-29T09:35:23.000Z</time>
      </trkpt>
      <trkpt lat="27.788982" lon="86.719277">
        <ele>2894.2</ele>
        <time>2022-10-29T09:35:25.000Z</time>
      </trkpt>
      <trkpt lat="27.78897" lon="86.719302">
        <ele>2894.2</ele>
        <time>2022-10-29T09:35:27.000Z</time>
      </trkpt>
      <trkpt lat="27.788944" lon="86.719309">
        <ele>2893.8</ele>
        <time>2022-10-29T09:35:29.000Z</time>
      </trkpt>
      <trkpt lat="27.788925" lon="86.719309">
        <ele>2893.2</ele>
        <time>2022-10-29T09:35:31.000Z</time>
      </trkpt>
      <trkpt lat="27.788909" lon="86.719328">
        <ele>2892.4</ele>
        <time>2022-10-29T09:35:33.000Z</time>
      </trkpt>
      <trkpt lat="27.788883" lon="86.719328">
        <ele>2891.8</ele>
        <time>2022-10-29T09:35:35.000Z</time>
      </trkpt>
      <trkpt lat="27.788851" lon="86.719347">
        <ele>2891.4</ele>
        <time>2022-10-29T09:35:37.000Z</time>
      </trkpt>
      <trkpt lat="27.788832" lon="86.719347">
        <ele>2891.2</ele>
        <time>2022-10-29T09:35:38.000Z</time>
      </trkpt>
      <trkpt lat="27.788822" lon="86.719373">
        <ele>2891.2</ele>
        <time>2022-10-29T09:35:40.000Z</time>
      </trkpt>
      <trkpt lat="27.788806" lon="86.719392">
        <ele>2890.8</ele>
        <time>2022-10-29T09:35:41.000Z</time>
      </trkpt>
      <trkpt lat="27.788806" lon="86.719424">
        <ele>2890.2</ele>
        <time>2022-10-29T09:35:42.000Z</time>
      </trkpt>
      <trkpt lat="27.788784" lon="86.71943">
        <ele>2889.8</ele>
        <time>2022-10-29T09:35:44.000Z</time>
      </trkpt>
      <trkpt lat="27.788752" lon="86.71943">
        <ele>2889.4</ele>
        <time>2022-10-29T09:35:46.000Z</time>
      </trkpt>
      <trkpt lat="27.788733" lon="86.71945">
        <ele>2888.4</ele>
        <time>2022-10-29T09:35:48.000Z</time>
      </trkpt>
      <trkpt lat="27.78872" lon="86.719469">
        <ele>2888</ele>
        <time>2022-10-29T09:35:50.000Z</time>
      </trkpt>
      <trkpt lat="27.788714" lon="86.719501">
        <ele>2887.4</ele>
        <time>2022-10-29T09:35:52.000Z</time>
      </trkpt>
      <trkpt lat="27.788691" lon="86.719501">
        <ele>2886.8</ele>
        <time>2022-10-29T09:35:54.000Z</time>
      </trkpt>
      <trkpt lat="27.788672" lon="86.719488">
        <ele>2886.2</ele>
        <time>2022-10-29T09:35:57.000Z</time>
      </trkpt>
      <trkpt lat="27.788659" lon="86.719469">
        <ele>2886</ele>
        <time>2022-10-29T09:35:59.000Z</time>
      </trkpt>
      <trkpt lat="27.788643" lon="86.719482">
        <ele>2883.2</ele>
        <time>2022-10-29T09:36:09.000Z</time>
      </trkpt>
      <trkpt lat="27.788637" lon="86.719501">
        <ele>2882.8</ele>
        <time>2022-10-29T09:36:11.000Z</time>
      </trkpt>
      <trkpt lat="27.78864" lon="86.719526">
        <ele>2881.6</ele>
        <time>2022-10-29T09:36:14.000Z</time>
      </trkpt>
      <trkpt lat="27.78863" lon="86.719546">
        <ele>2881.2</ele>
        <time>2022-10-29T09:36:15.000Z</time>
      </trkpt>
      <trkpt lat="27.788605" lon="86.719546">
        <ele>2880</ele>
        <time>2022-10-29T09:36:18.000Z</time>
      </trkpt>
      <trkpt lat="27.788582" lon="86.719552">
        <ele>2879.4</ele>
        <time>2022-10-29T09:36:21.000Z</time>
      </trkpt>
      <trkpt lat="27.78856" lon="86.719552">
        <ele>2876.6</ele>
        <time>2022-10-29T09:36:29.000Z</time>
      </trkpt>
      <trkpt lat="27.788541" lon="86.719546">
        <ele>2876.6</ele>
        <time>2022-10-29T09:36:31.000Z</time>
      </trkpt>
      <trkpt lat="27.788522" lon="86.719546">
        <ele>2875.6</ele>
        <time>2022-10-29T09:36:34.000Z</time>
      </trkpt>
      <trkpt lat="27.788499" lon="86.719546">
        <ele>2875</ele>
        <time>2022-10-29T09:36:36.000Z</time>
      </trkpt>
      <trkpt lat="27.788474" lon="86.719533">
        <ele>2874.2</ele>
        <time>2022-10-29T09:36:38.000Z</time>
      </trkpt>
      <trkpt lat="27.788448" lon="86.719526">
        <ele>2873.6</ele>
        <time>2022-10-29T09:36:40.000Z</time>
      </trkpt>
      <trkpt lat="27.788419" lon="86.719526">
        <ele>2872.6</ele>
        <time>2022-10-29T09:36:43.000Z</time>
      </trkpt>
      <trkpt lat="27.788397" lon="86.71952">
        <ele>2872.2</ele>
        <time>2022-10-29T09:36:45.000Z</time>
      </trkpt>
      <trkpt lat="27.788378" lon="86.71952">
        <ele>2871.6</ele>
        <time>2022-10-29T09:36:47.000Z</time>
      </trkpt>
      <trkpt lat="27.788355" lon="86.719533">
        <ele>2871.2</ele>
        <time>2022-10-29T09:36:50.000Z</time>
      </trkpt>
      <trkpt lat="27.788336" lon="86.719526">
        <ele>2870.2</ele>
        <time>2022-10-29T09:36:53.000Z</time>
      </trkpt>
      <trkpt lat="27.78831" lon="86.71952">
        <ele>2869.4</ele>
        <time>2022-10-29T09:36:56.000Z</time>
      </trkpt>
      <trkpt lat="27.788291" lon="86.719526">
        <ele>2868.8</ele>
        <time>2022-10-29T09:36:58.000Z</time>
      </trkpt>
      <trkpt lat="27.788272" lon="86.719526">
        <ele>2868.2</ele>
        <time>2022-10-29T09:37:00.000Z</time>
      </trkpt>
      <trkpt lat="27.788243" lon="86.719526">
        <ele>2867.2</ele>
        <time>2022-10-29T09:37:03.000Z</time>
      </trkpt>
      <trkpt lat="27.788224" lon="86.719526">
        <ele>2866.8</ele>
        <time>2022-10-29T09:37:05.000Z</time>
      </trkpt>
      <trkpt lat="27.788205" lon="86.719526">
        <ele>2866</ele>
        <time>2022-10-29T09:37:07.000Z</time>
      </trkpt>
      <trkpt lat="27.788176" lon="86.719526">
        <ele>2864.4</ele>
        <time>2022-10-29T09:37:09.000Z</time>
      </trkpt>
      <trkpt lat="27.78815" lon="86.719533">
        <ele>2864.2</ele>
        <time>2022-10-29T09:37:12.000Z</time>
      </trkpt>
      <trkpt lat="27.788122" lon="86.719546">
        <ele>2863.8</ele>
        <time>2022-10-29T09:37:15.000Z</time>
      </trkpt>
      <trkpt lat="27.78809" lon="86.719546">
        <ele>2863.4</ele>
        <time>2022-10-29T09:37:17.000Z</time>
      </trkpt>
      <trkpt lat="27.788067" lon="86.719552">
        <ele>2863.2</ele>
        <time>2022-10-29T09:37:19.000Z</time>
      </trkpt>
      <trkpt lat="27.788038" lon="86.719558">
        <ele>2863.4</ele>
        <time>2022-10-29T09:37:28.000Z</time>
      </trkpt>
      <trkpt lat="27.788003" lon="86.719571">
        <ele>2863.2</ele>
        <time>2022-10-29T09:37:30.000Z</time>
      </trkpt>
      <trkpt lat="27.787978" lon="86.71959">
        <ele>2862.4</ele>
        <time>2022-10-29T09:37:32.000Z</time>
      </trkpt>
      <trkpt lat="27.787952" lon="86.719603">
        <ele>2862.2</ele>
        <time>2022-10-29T09:37:35.000Z</time>
      </trkpt>
      <trkpt lat="27.787926" lon="86.719622">
        <ele>2861.6</ele>
        <time>2022-10-29T09:37:37.000Z</time>
      </trkpt>
      <trkpt lat="27.787898" lon="86.719635">
        <ele>2861.4</ele>
        <time>2022-10-29T09:37:39.000Z</time>
      </trkpt>
      <trkpt lat="27.787856" lon="86.719629">
        <ele>2861.6</ele>
        <time>2022-10-29T09:37:41.000Z</time>
      </trkpt>
      <trkpt lat="27.787827" lon="86.719635">
        <ele>2861.6</ele>
        <time>2022-10-29T09:37:43.000Z</time>
      </trkpt>
      <trkpt lat="27.787808" lon="86.719648">
        <ele>2861.4</ele>
        <time>2022-10-29T09:37:45.000Z</time>
      </trkpt>
      <trkpt lat="27.787795" lon="86.719667">
        <ele>2861.2</ele>
        <time>2022-10-29T09:37:47.000Z</time>
      </trkpt>
      <trkpt lat="27.787776" lon="86.719674">
        <ele>2861</ele>
        <time>2022-10-29T09:37:48.000Z</time>
      </trkpt>
      <trkpt lat="27.787754" lon="86.719686">
        <ele>2861</ele>
        <time>2022-10-29T09:37:50.000Z</time>
      </trkpt>
      <trkpt lat="27.787728" lon="86.719699">
        <ele>2861.2</ele>
        <time>2022-10-29T09:37:52.000Z</time>
      </trkpt>
      <trkpt lat="27.787702" lon="86.719706">
        <ele>2861</ele>
        <time>2022-10-29T09:37:54.000Z</time>
      </trkpt>
      <trkpt lat="27.787677" lon="86.719712">
        <ele>2861</ele>
        <time>2022-10-29T09:37:56.000Z</time>
      </trkpt>
      <trkpt lat="27.787661" lon="86.719744">
        <ele>2860.8</ele>
        <time>2022-10-29T09:37:58.000Z</time>
      </trkpt>
      <trkpt lat="27.787645" lon="86.719757">
        <ele>2860.8</ele>
        <time>2022-10-29T09:38:00.000Z</time>
      </trkpt>
      <trkpt lat="27.787626" lon="86.719782">
        <ele>2861</ele>
        <time>2022-10-29T09:38:02.000Z</time>
      </trkpt>
      <trkpt lat="27.787606" lon="86.719795">
        <ele>2861.2</ele>
        <time>2022-10-29T09:38:04.000Z</time>
      </trkpt>
      <trkpt lat="27.787574" lon="86.719795">
        <ele>2860.8</ele>
        <time>2022-10-29T09:38:06.000Z</time>
      </trkpt>
      <trkpt lat="27.787549" lon="86.719802">
        <ele>2860.6</ele>
        <time>2022-10-29T09:38:08.000Z</time>
      </trkpt>
      <trkpt lat="27.78753" lon="86.719808">
        <ele>2860.4</ele>
        <time>2022-10-29T09:38:10.000Z</time>
      </trkpt>
      <trkpt lat="27.787507" lon="86.719834">
        <ele>2859.6</ele>
        <time>2022-10-29T09:38:12.000Z</time>
      </trkpt>
      <trkpt lat="27.787482" lon="86.719834">
        <ele>2859</ele>
        <time>2022-10-29T09:38:14.000Z</time>
      </trkpt>
      <trkpt lat="27.787453" lon="86.719846">
        <ele>2859</ele>
        <time>2022-10-29T09:38:17.000Z</time>
      </trkpt>
      <trkpt lat="27.787437" lon="86.719872">
        <ele>2858.2</ele>
        <time>2022-10-29T09:38:20.000Z</time>
      </trkpt>
      <trkpt lat="27.787411" lon="86.719898">
        <ele>2857.8</ele>
        <time>2022-10-29T09:38:23.000Z</time>
      </trkpt>
      <trkpt lat="27.787389" lon="86.719904">
        <ele>2857.4</ele>
        <time>2022-10-29T09:38:25.000Z</time>
      </trkpt>
      <trkpt lat="27.787366" lon="86.719917">
        <ele>2857.2</ele>
        <time>2022-10-29T09:38:27.000Z</time>
      </trkpt>
      <trkpt lat="27.787347" lon="86.719923">
        <ele>2857</ele>
        <time>2022-10-29T09:38:29.000Z</time>
      </trkpt>
      <trkpt lat="27.787325" lon="86.71993">
        <ele>2857</ele>
        <time>2022-10-29T09:38:31.000Z</time>
      </trkpt>
      <trkpt lat="27.787306" lon="86.719942">
        <ele>2857</ele>
        <time>2022-10-29T09:38:33.000Z</time>
      </trkpt>
      <trkpt lat="27.78728" lon="86.719955">
        <ele>2857</ele>
        <time>2022-10-29T09:38:35.000Z</time>
      </trkpt>
      <trkpt lat="27.787261" lon="86.719981">
        <ele>2857.2</ele>
        <time>2022-10-29T09:38:37.000Z</time>
      </trkpt>
      <trkpt lat="27.787248" lon="86.720006">
        <ele>2857</ele>
        <time>2022-10-29T09:38:39.000Z</time>
      </trkpt>
      <trkpt lat="27.787238" lon="86.720032">
        <ele>2857.2</ele>
        <time>2022-10-29T09:38:41.000Z</time>
      </trkpt>
      <trkpt lat="27.787229" lon="86.720064">
        <ele>2857</ele>
        <time>2022-10-29T09:38:43.000Z</time>
      </trkpt>
      <trkpt lat="27.78721" lon="86.720077">
        <ele>2857</ele>
        <time>2022-10-29T09:38:45.000Z</time>
      </trkpt>
      <trkpt lat="27.78719" lon="86.72009">
        <ele>2856.8</ele>
        <time>2022-10-29T09:38:47.000Z</time>
      </trkpt>
      <trkpt lat="27.787171" lon="86.720115">
        <ele>2856.2</ele>
        <time>2022-10-29T09:38:49.000Z</time>
      </trkpt>
      <trkpt lat="27.787149" lon="86.720141">
        <ele>2856</ele>
        <time>2022-10-29T09:38:51.000Z</time>
      </trkpt>
      <trkpt lat="27.78712" lon="86.720154">
        <ele>2855.8</ele>
        <time>2022-10-29T09:38:53.000Z</time>
      </trkpt>
      <trkpt lat="27.787098" lon="86.720166">
        <ele>2855.8</ele>
        <time>2022-10-29T09:38:55.000Z</time>
      </trkpt>
      <trkpt lat="27.787082" lon="86.720179">
        <ele>2855.6</ele>
        <time>2022-10-29T09:38:56.000Z</time>
      </trkpt>
      <trkpt lat="27.787053" lon="86.720179">
        <ele>2855.2</ele>
        <time>2022-10-29T09:38:58.000Z</time>
      </trkpt>
      <trkpt lat="27.78703" lon="86.720179">
        <ele>2855.4</ele>
        <time>2022-10-29T09:39:00.000Z</time>
      </trkpt>
      <trkpt lat="27.787002" lon="86.720186">
        <ele>2855.2</ele>
        <time>2022-10-29T09:39:02.000Z</time>
      </trkpt>
      <trkpt lat="27.786979" lon="86.720192">
        <ele>2854.6</ele>
        <time>2022-10-29T09:39:04.000Z</time>
      </trkpt>
      <trkpt lat="27.786944" lon="86.720198">
        <ele>2854.6</ele>
        <time>2022-10-29T09:39:06.000Z</time>
      </trkpt>
      <trkpt lat="27.786915" lon="86.720205">
        <ele>2854.2</ele>
        <time>2022-10-29T09:39:08.000Z</time>
      </trkpt>
      <trkpt lat="27.786896" lon="86.720218">
        <ele>2854.2</ele>
        <time>2022-10-29T09:39:10.000Z</time>
      </trkpt>
      <trkpt lat="27.78688" lon="86.720237">
        <ele>2853.8</ele>
        <time>2022-10-29T09:39:12.000Z</time>
      </trkpt>
      <trkpt lat="27.786864" lon="86.720256">
        <ele>2853.6</ele>
        <time>2022-10-29T09:39:14.000Z</time>
      </trkpt>
      <trkpt lat="27.786848" lon="86.720282">
        <ele>2853.2</ele>
        <time>2022-10-29T09:39:16.000Z</time>
      </trkpt>
      <trkpt lat="27.786829" lon="86.720301">
        <ele>2853</ele>
        <time>2022-10-29T09:39:18.000Z</time>
      </trkpt>
      <trkpt lat="27.78681" lon="86.720314">
        <ele>2852.8</ele>
        <time>2022-10-29T09:39:20.000Z</time>
      </trkpt>
      <trkpt lat="27.786794" lon="86.720326">
        <ele>2852.8</ele>
        <time>2022-10-29T09:39:22.000Z</time>
      </trkpt>
      <trkpt lat="27.786778" lon="86.720352">
        <ele>2852.8</ele>
        <time>2022-10-29T09:39:24.000Z</time>
      </trkpt>
      <trkpt lat="27.786762" lon="86.720378">
        <ele>2851.8</ele>
        <time>2022-10-29T09:39:27.000Z</time>
      </trkpt>
      <trkpt lat="27.786742" lon="86.720397">
        <ele>2851.6</ele>
        <time>2022-10-29T09:39:29.000Z</time>
      </trkpt>
      <trkpt lat="27.786736" lon="86.720416">
        <ele>2851.4</ele>
        <time>2022-10-29T09:39:30.000Z</time>
      </trkpt>
      <trkpt lat="27.786723" lon="86.720435">
        <ele>2851.2</ele>
        <time>2022-10-29T09:39:32.000Z</time>
      </trkpt>
      <trkpt lat="27.786701" lon="86.720454">
        <ele>2850.8</ele>
        <time>2022-10-29T09:39:34.000Z</time>
      </trkpt>
      <trkpt lat="27.786685" lon="86.720474">
        <ele>2850.2</ele>
        <time>2022-10-29T09:39:37.000Z</time>
      </trkpt>
      <trkpt lat="27.786662" lon="86.720499">
        <ele>2849.8</ele>
        <time>2022-10-29T09:39:40.000Z</time>
      </trkpt>
      <trkpt lat="27.78665" lon="86.720518">
        <ele>2849</ele>
        <time>2022-10-29T09:39:42.000Z</time>
      </trkpt>
      <trkpt lat="27.786643" lon="86.720538">
        <ele>2848.8</ele>
        <time>2022-10-29T09:39:43.000Z</time>
      </trkpt>
      <trkpt lat="27.786624" lon="86.720557">
        <ele>2848</ele>
        <time>2022-10-29T09:39:46.000Z</time>
      </trkpt>
      <trkpt lat="27.786618" lon="86.720582">
        <ele>2847.8</ele>
        <time>2022-10-29T09:39:48.000Z</time>
      </trkpt>
      <trkpt lat="27.786595" lon="86.720589">
        <ele>2847.2</ele>
        <time>2022-10-29T09:39:50.000Z</time>
      </trkpt>
      <trkpt lat="27.786576" lon="86.720602">
        <ele>2847</ele>
        <time>2022-10-29T09:39:53.000Z</time>
      </trkpt>
      <trkpt lat="27.786563" lon="86.720621">
        <ele>2846.8</ele>
        <time>2022-10-29T09:40:01.000Z</time>
      </trkpt>
      <trkpt lat="27.78655" lon="86.72064">
        <ele>2846.8</ele>
        <time>2022-10-29T09:40:06.000Z</time>
      </trkpt>
      <trkpt lat="27.786534" lon="86.720653">
        <ele>2846.6</ele>
        <time>2022-10-29T09:40:08.000Z</time>
      </trkpt>
      <trkpt lat="27.786525" lon="86.720672">
        <ele>2846.4</ele>
        <time>2022-10-29T09:40:10.000Z</time>
      </trkpt>
      <trkpt lat="27.786512" lon="86.720698">
        <ele>2846</ele>
        <time>2022-10-29T09:40:12.000Z</time>
      </trkpt>
      <trkpt lat="27.786502" lon="86.720717">
        <ele>2846.2</ele>
        <time>2022-10-29T09:40:14.000Z</time>
      </trkpt>
      <trkpt lat="27.786499" lon="86.720742">
        <ele>2846.4</ele>
        <time>2022-10-29T09:40:16.000Z</time>
      </trkpt>
      <trkpt lat="27.786477" lon="86.720762">
        <ele>2846.6</ele>
        <time>2022-10-29T09:40:19.000Z</time>
      </trkpt>
      <trkpt lat="27.786461" lon="86.720787">
        <ele>2847</ele>
        <time>2022-10-29T09:40:21.000Z</time>
      </trkpt>
      <trkpt lat="27.786458" lon="86.720813">
        <ele>2847.4</ele>
        <time>2022-10-29T09:40:23.000Z</time>
      </trkpt>
      <trkpt lat="27.786445" lon="86.720838">
        <ele>2847.2</ele>
        <time>2022-10-29T09:40:25.000Z</time>
      </trkpt>
      <trkpt lat="27.786432" lon="86.720864">
        <ele>2847.2</ele>
        <time>2022-10-29T09:40:27.000Z</time>
      </trkpt>
      <trkpt lat="27.786422" lon="86.720883">
        <ele>2847</ele>
        <time>2022-10-29T09:40:28.000Z</time>
      </trkpt>
      <trkpt lat="27.786413" lon="86.720915">
        <ele>2847</ele>
        <time>2022-10-29T09:40:30.000Z</time>
      </trkpt>
      <trkpt lat="27.786406" lon="86.720934">
        <ele>2847.6</ele>
        <time>2022-10-29T09:40:32.000Z</time>
      </trkpt>
      <trkpt lat="27.7864" lon="86.720954">
        <ele>2847.6</ele>
        <time>2022-10-29T09:40:33.000Z</time>
      </trkpt>
      <trkpt lat="27.786387" lon="86.720973">
        <ele>2848</ele>
        <time>2022-10-29T09:40:34.000Z</time>
      </trkpt>
      <trkpt lat="27.786381" lon="86.720992">
        <ele>2848.6</ele>
        <time>2022-10-29T09:40:36.000Z</time>
      </trkpt>
      <trkpt lat="27.786374" lon="86.721011">
        <ele>2848.6</ele>
        <time>2022-10-29T09:40:37.000Z</time>
      </trkpt>
      <trkpt lat="27.786358" lon="86.721024">
        <ele>2849.6</ele>
        <time>2022-10-29T09:40:41.000Z</time>
      </trkpt>
      <trkpt lat="27.786346" lon="86.721056">
        <ele>2849.8</ele>
        <time>2022-10-29T09:40:44.000Z</time>
      </trkpt>
      <trkpt lat="27.786339" lon="86.721082">
        <ele>2850.8</ele>
        <time>2022-10-29T09:40:47.000Z</time>
      </trkpt>
      <trkpt lat="27.786339" lon="86.721107">
        <ele>2851.2</ele>
        <time>2022-10-29T09:40:49.000Z</time>
      </trkpt>
      <trkpt lat="27.786342" lon="86.721133">
        <ele>2851.4</ele>
        <time>2022-10-29T09:40:51.000Z</time>
      </trkpt>
      <trkpt lat="27.786342" lon="86.721158">
        <ele>2851.6</ele>
        <time>2022-10-29T09:40:54.000Z</time>
      </trkpt>
      <trkpt lat="27.786339" lon="86.721184">
        <ele>2852.2</ele>
        <time>2022-10-29T09:40:57.000Z</time>
      </trkpt>
      <trkpt lat="27.786323" lon="86.721197">
        <ele>2853</ele>
        <time>2022-10-29T09:41:02.000Z</time>
      </trkpt>
      <trkpt lat="27.786304" lon="86.721216">
        <ele>2853.8</ele>
        <time>2022-10-29T09:41:04.000Z</time>
      </trkpt>
      <trkpt lat="27.786285" lon="86.721222">
        <ele>2853.8</ele>
        <time>2022-10-29T09:41:07.000Z</time>
      </trkpt>
      <trkpt lat="27.786266" lon="86.721229">
        <ele>2854.2</ele>
        <time>2022-10-29T09:41:09.000Z</time>
      </trkpt>
      <trkpt lat="27.786246" lon="86.721229">
        <ele>2854.6</ele>
        <time>2022-10-29T09:41:12.000Z</time>
      </trkpt>
      <trkpt lat="27.786218" lon="86.721229">
        <ele>2855</ele>
        <time>2022-10-29T09:41:15.000Z</time>
      </trkpt>
      <trkpt lat="27.786208" lon="86.721248">
        <ele>2855.2</ele>
        <time>2022-10-29T09:41:17.000Z</time>
      </trkpt>
      <trkpt lat="27.786192" lon="86.721261">
        <ele>2855.4</ele>
        <time>2022-10-29T09:41:19.000Z</time>
      </trkpt>
      <trkpt lat="27.786163" lon="86.721274">
        <ele>2855.8</ele>
        <time>2022-10-29T09:41:22.000Z</time>
      </trkpt>
      <trkpt lat="27.786144" lon="86.72128">
        <ele>2856.4</ele>
        <time>2022-10-29T09:41:25.000Z</time>
      </trkpt>
      <trkpt lat="27.786131" lon="86.721299">
        <ele>2857</ele>
        <time>2022-10-29T09:41:29.000Z</time>
      </trkpt>
      <trkpt lat="27.786109" lon="86.721306">
        <ele>2857.8</ele>
        <time>2022-10-29T09:41:33.000Z</time>
      </trkpt>
      <trkpt lat="27.78609" lon="86.721299">
        <ele>2858</ele>
        <time>2022-10-29T09:41:34.000Z</time>
      </trkpt>
      <trkpt lat="27.78607" lon="86.721293">
        <ele>2858.2</ele>
        <time>2022-10-29T09:41:35.000Z</time>
      </trkpt>
      <trkpt lat="27.786061" lon="86.721312">
        <ele>2859</ele>
        <time>2022-10-29T09:41:38.000Z</time>
      </trkpt>
      <trkpt lat="27.786048" lon="86.721331">
        <ele>2859</ele>
        <time>2022-10-29T09:41:40.000Z</time>
      </trkpt>
      <trkpt lat="27.786038" lon="86.72135">
        <ele>2859</ele>
        <time>2022-10-29T09:41:42.000Z</time>
      </trkpt>
      <trkpt lat="27.786029" lon="86.721376">
        <ele>2859.2</ele>
        <time>2022-10-29T09:41:44.000Z</time>
      </trkpt>
      <trkpt lat="27.786006" lon="86.721395">
        <ele>2859.2</ele>
        <time>2022-10-29T09:41:46.000Z</time>
      </trkpt>
      <trkpt lat="27.785978" lon="86.721408">
        <ele>2859.2</ele>
        <time>2022-10-29T09:41:48.000Z</time>
      </trkpt>
      <trkpt lat="27.785962" lon="86.721421">
        <ele>2858.8</ele>
        <time>2022-10-29T09:41:50.000Z</time>
      </trkpt>
      <trkpt lat="27.785952" lon="86.72144">
        <ele>2859</ele>
        <time>2022-10-29T09:41:53.000Z</time>
      </trkpt>
      <trkpt lat="27.785939" lon="86.721459">
        <ele>2858</ele>
        <time>2022-10-29T09:41:56.000Z</time>
      </trkpt>
      <trkpt lat="27.785933" lon="86.72144">
        <ele>2858</ele>
        <time>2022-10-29T09:41:57.000Z</time>
      </trkpt>
      <trkpt lat="27.78591" lon="86.721453">
        <ele>2857.8</ele>
        <time>2022-10-29T09:42:01.000Z</time>
      </trkpt>
      <trkpt lat="27.785891" lon="86.721466">
        <ele>2856.4</ele>
        <time>2022-10-29T09:42:04.000Z</time>
      </trkpt>
      <trkpt lat="27.785866" lon="86.721478">
        <ele>2855.2</ele>
        <time>2022-10-29T09:42:07.000Z</time>
      </trkpt>
      <trkpt lat="27.785859" lon="86.721504">
        <ele>2854.6</ele>
        <time>2022-10-29T09:42:10.000Z</time>
      </trkpt>
      <trkpt lat="27.785837" lon="86.72151">
        <ele>2854.2</ele>
        <time>2022-10-29T09:42:12.000Z</time>
      </trkpt>
      <trkpt lat="27.785818" lon="86.721517">
        <ele>2852.6</ele>
        <time>2022-10-29T09:42:15.000Z</time>
      </trkpt>
      <trkpt lat="27.785802" lon="86.72153">
        <ele>2852.2</ele>
        <time>2022-10-29T09:42:18.000Z</time>
      </trkpt>
      <trkpt lat="27.785779" lon="86.72151">
        <ele>2852</ele>
        <time>2022-10-29T09:42:20.000Z</time>
      </trkpt>
      <trkpt lat="27.78576" lon="86.721504">
        <ele>2851.6</ele>
        <time>2022-10-29T09:42:22.000Z</time>
      </trkpt>
      <trkpt lat="27.78576" lon="86.72153">
        <ele>2851.6</ele>
        <time>2022-10-29T09:42:31.000Z</time>
      </trkpt>
      <trkpt lat="27.785747" lon="86.721549">
        <ele>2850.4</ele>
        <time>2022-10-29T09:42:39.000Z</time>
      </trkpt>
      <trkpt lat="27.785722" lon="86.721555">
        <ele>2850</ele>
        <time>2022-10-29T09:42:41.000Z</time>
      </trkpt>
      <trkpt lat="27.785715" lon="86.721574">
        <ele>2849.4</ele>
        <time>2022-10-29T09:42:42.000Z</time>
      </trkpt>
      <trkpt lat="27.785696" lon="86.721581">
        <ele>2847.6</ele>
        <time>2022-10-29T09:42:47.000Z</time>
      </trkpt>
      <trkpt lat="27.785674" lon="86.721574">
        <ele>2846</ele>
        <time>2022-10-29T09:42:51.000Z</time>
      </trkpt>
      <trkpt lat="27.785654" lon="86.721568">
        <ele>2845.4</ele>
        <time>2022-10-29T09:42:53.000Z</time>
      </trkpt>
      <trkpt lat="27.785638" lon="86.721587">
        <ele>2844.8</ele>
        <time>2022-10-29T09:42:56.000Z</time>
      </trkpt>
      <trkpt lat="27.785629" lon="86.721606">
        <ele>2844.6</ele>
        <time>2022-10-29T09:42:57.000Z</time>
      </trkpt>
      <trkpt lat="27.785613" lon="86.721619">
        <ele>2844.2</ele>
        <time>2022-10-29T09:42:59.000Z</time>
      </trkpt>
      <trkpt lat="27.785594" lon="86.721651">
        <ele>2844</ele>
        <time>2022-10-29T09:43:01.000Z</time>
      </trkpt>
      <trkpt lat="27.785574" lon="86.721664">
        <ele>2844.2</ele>
        <time>2022-10-29T09:43:03.000Z</time>
      </trkpt>
      <trkpt lat="27.785549" lon="86.721677">
        <ele>2844.2</ele>
        <time>2022-10-29T09:43:05.000Z</time>
      </trkpt>
      <trkpt lat="27.78553" lon="86.721696">
        <ele>2844</ele>
        <time>2022-10-29T09:43:07.000Z</time>
      </trkpt>
      <trkpt lat="27.785504" lon="86.721709">
        <ele>2843</ele>
        <time>2022-10-29T09:43:09.000Z</time>
      </trkpt>
      <trkpt lat="27.785482" lon="86.721728">
        <ele>2843</ele>
        <time>2022-10-29T09:43:11.000Z</time>
      </trkpt>
      <trkpt lat="27.785453" lon="86.721734">
        <ele>2843.2</ele>
        <time>2022-10-29T09:43:13.000Z</time>
      </trkpt>
      <trkpt lat="27.785424" lon="86.721747">
        <ele>2842.8</ele>
        <time>2022-10-29T09:43:15.000Z</time>
      </trkpt>
      <trkpt lat="27.785402" lon="86.721754">
        <ele>2842.6</ele>
        <time>2022-10-29T09:43:17.000Z</time>
      </trkpt>
      <trkpt lat="27.785386" lon="86.721766">
        <ele>2842.6</ele>
        <time>2022-10-29T09:43:18.000Z</time>
      </trkpt>
      <trkpt lat="27.78536" lon="86.721766">
        <ele>2842</ele>
        <time>2022-10-29T09:43:20.000Z</time>
      </trkpt>
      <trkpt lat="27.785338" lon="86.721766">
        <ele>2842</ele>
        <time>2022-10-29T09:43:22.000Z</time>
      </trkpt>
      <trkpt lat="27.785315" lon="86.721779">
        <ele>2841.6</ele>
        <time>2022-10-29T09:43:24.000Z</time>
      </trkpt>
      <trkpt lat="27.785296" lon="86.721786">
        <ele>2841.6</ele>
        <time>2022-10-29T09:43:26.000Z</time>
      </trkpt>
      <trkpt lat="27.785286" lon="86.721805">
        <ele>2841.4</ele>
        <time>2022-10-29T09:43:27.000Z</time>
      </trkpt>
      <trkpt lat="27.785267" lon="86.721824">
        <ele>2841</ele>
        <time>2022-10-29T09:43:29.000Z</time>
      </trkpt>
      <trkpt lat="27.785245" lon="86.721856">
        <ele>2841</ele>
        <time>2022-10-29T09:43:31.000Z</time>
      </trkpt>
      <trkpt lat="27.785229" lon="86.721875">
        <ele>2840.8</ele>
        <time>2022-10-29T09:43:33.000Z</time>
      </trkpt>
      <trkpt lat="27.785222" lon="86.721894">
        <ele>2840.6</ele>
        <time>2022-10-29T09:43:34.000Z</time>
      </trkpt>
      <trkpt lat="27.785203" lon="86.721914">
        <ele>2840.6</ele>
        <time>2022-10-29T09:43:36.000Z</time>
      </trkpt>
      <trkpt lat="27.78519" lon="86.721933">
        <ele>2840.4</ele>
        <time>2022-10-29T09:43:37.000Z</time>
      </trkpt>
      <trkpt lat="27.785165" lon="86.721946">
        <ele>2840.4</ele>
        <time>2022-10-29T09:43:39.000Z</time>
      </trkpt>
      <trkpt lat="27.785152" lon="86.721965">
        <ele>2840.2</ele>
        <time>2022-10-29T09:43:40.000Z</time>
      </trkpt>
      <trkpt lat="27.785126" lon="86.721984">
        <ele>2840.4</ele>
        <time>2022-10-29T09:43:42.000Z</time>
      </trkpt>
      <trkpt lat="27.785107" lon="86.722003">
        <ele>2840.4</ele>
        <time>2022-10-29T09:43:44.000Z</time>
      </trkpt>
      <trkpt lat="27.785075" lon="86.72201">
        <ele>2840.2</ele>
        <time>2022-10-29T09:43:46.000Z</time>
      </trkpt>
      <trkpt lat="27.785046" lon="86.72201">
        <ele>2840.2</ele>
        <time>2022-10-29T09:43:48.000Z</time>
      </trkpt>
      <trkpt lat="27.785014" lon="86.722022">
        <ele>2840.2</ele>
        <time>2022-10-29T09:43:50.000Z</time>
      </trkpt>
      <trkpt lat="27.784989" lon="86.722048">
        <ele>2840</ele>
        <time>2022-10-29T09:43:52.000Z</time>
      </trkpt>
      <trkpt lat="27.784976" lon="86.722074">
        <ele>2840</ele>
        <time>2022-10-29T09:43:54.000Z</time>
      </trkpt>
      <trkpt lat="27.784957" lon="86.722093">
        <ele>2839.8</ele>
        <time>2022-10-29T09:43:56.000Z</time>
      </trkpt>
      <trkpt lat="27.784934" lon="86.722099">
        <ele>2839.8</ele>
        <time>2022-10-29T09:43:58.000Z</time>
      </trkpt>
      <trkpt lat="27.784915" lon="86.722112">
        <ele>2839.8</ele>
        <time>2022-10-29T09:43:59.000Z</time>
      </trkpt>
      <trkpt lat="27.784896" lon="86.722131">
        <ele>2840</ele>
        <time>2022-10-29T09:44:01.000Z</time>
      </trkpt>
      <trkpt lat="27.78487" lon="86.722138">
        <ele>2840</ele>
        <time>2022-10-29T09:44:03.000Z</time>
      </trkpt>
      <trkpt lat="27.784842" lon="86.722138">
        <ele>2840</ele>
        <time>2022-10-29T09:44:05.000Z</time>
      </trkpt>
      <trkpt lat="27.784819" lon="86.72215">
        <ele>2839.8</ele>
        <time>2022-10-29T09:44:07.000Z</time>
      </trkpt>
      <trkpt lat="27.7848" lon="86.722163">
        <ele>2839.4</ele>
        <time>2022-10-29T09:44:09.000Z</time>
      </trkpt>
      <trkpt lat="27.784784" lon="86.722176">
        <ele>2839.4</ele>
        <time>2022-10-29T09:44:11.000Z</time>
      </trkpt>
      <trkpt lat="27.784758" lon="86.722202">
        <ele>2839.2</ele>
        <time>2022-10-29T09:44:13.000Z</time>
      </trkpt>
      <trkpt lat="27.784736" lon="86.722214">
        <ele>2839</ele>
        <time>2022-10-29T09:44:15.000Z</time>
      </trkpt>
      <trkpt lat="27.78471" lon="86.722221">
        <ele>2838.4</ele>
        <time>2022-10-29T09:44:17.000Z</time>
      </trkpt>
      <trkpt lat="27.784691" lon="86.722221">
        <ele>2838.2</ele>
        <time>2022-10-29T09:44:18.000Z</time>
      </trkpt>
      <trkpt lat="27.784669" lon="86.722221">
        <ele>2838.2</ele>
        <time>2022-10-29T09:44:20.000Z</time>
      </trkpt>
      <trkpt lat="27.78464" lon="86.722221">
        <ele>2837.6</ele>
        <time>2022-10-29T09:44:22.000Z</time>
      </trkpt>
      <trkpt lat="27.784614" lon="86.722208">
        <ele>2837.4</ele>
        <time>2022-10-29T09:44:24.000Z</time>
      </trkpt>
      <trkpt lat="27.784595" lon="86.722208">
        <ele>2837.4</ele>
        <time>2022-10-29T09:44:25.000Z</time>
      </trkpt>
      <trkpt lat="27.784573" lon="86.722214">
        <ele>2836.8</ele>
        <time>2022-10-29T09:44:27.000Z</time>
      </trkpt>
      <trkpt lat="27.784541" lon="86.722221">
        <ele>2836.8</ele>
        <time>2022-10-29T09:44:29.000Z</time>
      </trkpt>
      <trkpt lat="27.784522" lon="86.722227">
        <ele>2836.8</ele>
        <time>2022-10-29T09:44:30.000Z</time>
      </trkpt>
      <trkpt lat="27.784502" lon="86.722221">
        <ele>2836.8</ele>
        <time>2022-10-29T09:44:31.000Z</time>
      </trkpt>
      <trkpt lat="27.784477" lon="86.722234">
        <ele>2836.8</ele>
        <time>2022-10-29T09:44:33.000Z</time>
      </trkpt>
      <trkpt lat="27.784448" lon="86.722253">
        <ele>2836.6</ele>
        <time>2022-10-29T09:44:35.000Z</time>
      </trkpt>
      <trkpt lat="27.784422" lon="86.722259">
        <ele>2836</ele>
        <time>2022-10-29T09:44:37.000Z</time>
      </trkpt>
      <trkpt lat="27.784394" lon="86.722266">
        <ele>2835.8</ele>
        <time>2022-10-29T09:44:39.000Z</time>
      </trkpt>
      <trkpt lat="27.784371" lon="86.722266">
        <ele>2835.6</ele>
        <time>2022-10-29T09:44:41.000Z</time>
      </trkpt>
      <trkpt lat="27.784346" lon="86.722266">
        <ele>2835.4</ele>
        <time>2022-10-29T09:44:43.000Z</time>
      </trkpt>
      <trkpt lat="27.784339" lon="86.722285">
        <ele>2834.8</ele>
        <time>2022-10-29T09:44:45.000Z</time>
      </trkpt>
      <trkpt lat="27.784307" lon="86.722291">
        <ele>2834.4</ele>
        <time>2022-10-29T09:44:47.000Z</time>
      </trkpt>
      <trkpt lat="27.784278" lon="86.722298">
        <ele>2834.4</ele>
        <time>2022-10-29T09:44:49.000Z</time>
      </trkpt>
      <trkpt lat="27.784256" lon="86.722298">
        <ele>2834.6</ele>
        <time>2022-10-29T09:44:51.000Z</time>
      </trkpt>
      <trkpt lat="27.784237" lon="86.722304">
        <ele>2834.4</ele>
        <time>2022-10-29T09:44:53.000Z</time>
      </trkpt>
      <trkpt lat="27.784221" lon="86.722323">
        <ele>2834.6</ele>
        <time>2022-10-29T09:44:55.000Z</time>
      </trkpt>
      <trkpt lat="27.784198" lon="86.72233">
        <ele>2834.2</ele>
        <time>2022-10-29T09:44:57.000Z</time>
      </trkpt>
      <trkpt lat="27.784176" lon="86.722342">
        <ele>2834</ele>
        <time>2022-10-29T09:44:59.000Z</time>
      </trkpt>
      <trkpt lat="27.784154" lon="86.722349">
        <ele>2834</ele>
        <time>2022-10-29T09:45:01.000Z</time>
      </trkpt>
      <trkpt lat="27.784134" lon="86.722342">
        <ele>2834</ele>
        <time>2022-10-29T09:45:02.000Z</time>
      </trkpt>
      <trkpt lat="27.784128" lon="86.722362">
        <ele>2833.8</ele>
        <time>2022-10-29T09:45:03.000Z</time>
      </trkpt>
      <trkpt lat="27.784102" lon="86.722374">
        <ele>2833.6</ele>
        <time>2022-10-29T09:45:06.000Z</time>
      </trkpt>
      <trkpt lat="27.784077" lon="86.722381">
        <ele>2833.6</ele>
        <time>2022-10-29T09:45:08.000Z</time>
      </trkpt>
      <trkpt lat="27.784048" lon="86.722381">
        <ele>2833.6</ele>
        <time>2022-10-29T09:45:10.000Z</time>
      </trkpt>
      <trkpt lat="27.784016" lon="86.7224">
        <ele>2833.4</ele>
        <time>2022-10-29T09:45:12.000Z</time>
      </trkpt>
      <trkpt lat="27.783984" lon="86.722413">
        <ele>2833.6</ele>
        <time>2022-10-29T09:45:14.000Z</time>
      </trkpt>
      <trkpt lat="27.783965" lon="86.722419">
        <ele>2833.6</ele>
        <time>2022-10-29T09:45:15.000Z</time>
      </trkpt>
      <trkpt lat="27.783923" lon="86.722419">
        <ele>2832.6</ele>
        <time>2022-10-29T09:45:17.000Z</time>
      </trkpt>
      <trkpt lat="27.783894" lon="86.722419">
        <ele>2832.8</ele>
        <time>2022-10-29T09:45:19.000Z</time>
      </trkpt>
      <trkpt lat="27.783878" lon="86.722432">
        <ele>2832.6</ele>
        <time>2022-10-29T09:45:21.000Z</time>
      </trkpt>
      <trkpt lat="27.783856" lon="86.722451">
        <ele>2832.6</ele>
        <time>2022-10-29T09:45:23.000Z</time>
      </trkpt>
      <trkpt lat="27.783834" lon="86.722458">
        <ele>2832.2</ele>
        <time>2022-10-29T09:45:25.000Z</time>
      </trkpt>
      <trkpt lat="27.783811" lon="86.72247">
        <ele>2831.6</ele>
        <time>2022-10-29T09:45:27.000Z</time>
      </trkpt>
      <trkpt lat="27.783792" lon="86.722464">
        <ele>2831.4</ele>
        <time>2022-10-29T09:45:29.000Z</time>
      </trkpt>
      <trkpt lat="27.783763" lon="86.722458">
        <ele>2831.2</ele>
        <time>2022-10-29T09:45:31.000Z</time>
      </trkpt>
      <trkpt lat="27.783734" lon="86.722458">
        <ele>2831</ele>
        <time>2022-10-29T09:45:33.000Z</time>
      </trkpt>
      <trkpt lat="27.783715" lon="86.722432">
        <ele>2831</ele>
        <time>2022-10-29T09:45:35.000Z</time>
      </trkpt>
      <trkpt lat="27.78369" lon="86.722445">
        <ele>2831.2</ele>
        <time>2022-10-29T09:45:38.000Z</time>
      </trkpt>
      <trkpt lat="27.78367" lon="86.722432">
        <ele>2832</ele>
        <time>2022-10-29T09:45:41.000Z</time>
      </trkpt>
      <trkpt lat="27.783629" lon="86.722419">
        <ele>2832.2</ele>
        <time>2022-10-29T09:45:45.000Z</time>
      </trkpt>
      <trkpt lat="27.78361" lon="86.722419">
        <ele>2832.4</ele>
        <time>2022-10-29T09:45:47.000Z</time>
      </trkpt>
      <trkpt lat="27.783587" lon="86.722413">
        <ele>2833.2</ele>
        <time>2022-10-29T09:45:49.000Z</time>
      </trkpt>
      <trkpt lat="27.783571" lon="86.7224">
        <ele>2832.8</ele>
        <time>2022-10-29T09:45:51.000Z</time>
      </trkpt>
      <trkpt lat="27.783546" lon="86.722387">
        <ele>2832.8</ele>
        <time>2022-10-29T09:45:53.000Z</time>
      </trkpt>
      <trkpt lat="27.78353" lon="86.722374">
        <ele>2832.8</ele>
        <time>2022-10-29T09:45:54.000Z</time>
      </trkpt>
      <trkpt lat="27.78351" lon="86.722381">
        <ele>2832.8</ele>
        <time>2022-10-29T09:45:56.000Z</time>
      </trkpt>
      <trkpt lat="27.783478" lon="86.722381">
        <ele>2832.4</ele>
        <time>2022-10-29T09:45:58.000Z</time>
      </trkpt>
      <trkpt lat="27.783459" lon="86.722387">
        <ele>2832</ele>
        <time>2022-10-29T09:46:01.000Z</time>
      </trkpt>
      <trkpt lat="27.783437" lon="86.722381">
        <ele>2831.4</ele>
        <time>2022-10-29T09:46:03.000Z</time>
      </trkpt>
      <trkpt lat="27.783414" lon="86.722374">
        <ele>2831</ele>
        <time>2022-10-29T09:46:05.000Z</time>
      </trkpt>
      <trkpt lat="27.783395" lon="86.722374">
        <ele>2830.8</ele>
        <time>2022-10-29T09:46:07.000Z</time>
      </trkpt>
      <trkpt lat="27.78337" lon="86.722381">
        <ele>2830</ele>
        <time>2022-10-29T09:46:11.000Z</time>
      </trkpt>
      <trkpt lat="27.783341" lon="86.722387">
        <ele>2829.6</ele>
        <time>2022-10-29T09:46:13.000Z</time>
      </trkpt>
      <trkpt lat="27.783318" lon="86.722387">
        <ele>2829.2</ele>
        <time>2022-10-29T09:46:15.000Z</time>
      </trkpt>
      <trkpt lat="27.783296" lon="86.722387">
        <ele>2829.2</ele>
        <time>2022-10-29T09:46:16.000Z</time>
      </trkpt>
      <trkpt lat="27.78327" lon="86.7224">
        <ele>2829.2</ele>
        <time>2022-10-29T09:46:18.000Z</time>
      </trkpt>
      <trkpt lat="27.783251" lon="86.7224">
        <ele>2828.8</ele>
        <time>2022-10-29T09:46:21.000Z</time>
      </trkpt>
      <trkpt lat="27.783219" lon="86.722406">
        <ele>2828.4</ele>
        <time>2022-10-29T09:46:23.000Z</time>
      </trkpt>
      <trkpt lat="27.7832" lon="86.722413">
        <ele>2828.2</ele>
        <time>2022-10-29T09:46:25.000Z</time>
      </trkpt>
      <trkpt lat="27.783178" lon="86.722426">
        <ele>2828.2</ele>
        <time>2022-10-29T09:46:27.000Z</time>
      </trkpt>
      <trkpt lat="27.783158" lon="86.722426">
        <ele>2827.8</ele>
        <time>2022-10-29T09:46:29.000Z</time>
      </trkpt>
      <trkpt lat="27.783136" lon="86.722419">
        <ele>2828</ele>
        <time>2022-10-29T09:46:31.000Z</time>
      </trkpt>
      <trkpt lat="27.783117" lon="86.722419">
        <ele>2827</ele>
        <time>2022-10-29T09:46:33.000Z</time>
      </trkpt>
      <trkpt lat="27.783098" lon="86.722419">
        <ele>2826.8</ele>
        <time>2022-10-29T09:46:35.000Z</time>
      </trkpt>
      <trkpt lat="27.783072" lon="86.722426">
        <ele>2826.6</ele>
        <time>2022-10-29T09:46:37.000Z</time>
      </trkpt>
      <trkpt lat="27.783046" lon="86.722426">
        <ele>2826.4</ele>
        <time>2022-10-29T09:46:39.000Z</time>
      </trkpt>
      <trkpt lat="27.783021" lon="86.722432">
        <ele>2826.4</ele>
        <time>2022-10-29T09:46:41.000Z</time>
      </trkpt>
      <trkpt lat="27.782995" lon="86.722432">
        <ele>2826.2</ele>
        <time>2022-10-29T09:46:43.000Z</time>
      </trkpt>
      <trkpt lat="27.78297" lon="86.722432">
        <ele>2826</ele>
        <time>2022-10-29T09:46:45.000Z</time>
      </trkpt>
      <trkpt lat="27.782938" lon="86.722445">
        <ele>2826</ele>
        <time>2022-10-29T09:46:47.000Z</time>
      </trkpt>
      <trkpt lat="27.782912" lon="86.722445">
        <ele>2825.6</ele>
        <time>2022-10-29T09:46:49.000Z</time>
      </trkpt>
      <trkpt lat="27.78289" lon="86.722426">
        <ele>2825</ele>
        <time>2022-10-29T09:46:51.000Z</time>
      </trkpt>
      <trkpt lat="27.78287" lon="86.722426">
        <ele>2824.6</ele>
        <time>2022-10-29T09:46:53.000Z</time>
      </trkpt>
      <trkpt lat="27.782845" lon="86.722426">
        <ele>2823.6</ele>
        <time>2022-10-29T09:46:55.000Z</time>
      </trkpt>
      <trkpt lat="27.782816" lon="86.722426">
        <ele>2823.2</ele>
        <time>2022-10-29T09:46:58.000Z</time>
      </trkpt>
      <trkpt lat="27.7828" lon="86.722445">
        <ele>2823</ele>
        <time>2022-10-29T09:46:59.000Z</time>
      </trkpt>
      <trkpt lat="27.782784" lon="86.722458">
        <ele>2822.4</ele>
        <time>2022-10-29T09:47:01.000Z</time>
      </trkpt>
      <trkpt lat="27.782762" lon="86.722451">
        <ele>2822.4</ele>
        <time>2022-10-29T09:47:02.000Z</time>
      </trkpt>
      <trkpt lat="27.782733" lon="86.722451">
        <ele>2821.8</ele>
        <time>2022-10-29T09:47:04.000Z</time>
      </trkpt>
      <trkpt lat="27.782714" lon="86.722458">
        <ele>2821.6</ele>
        <time>2022-10-29T09:47:06.000Z</time>
      </trkpt>
      <trkpt lat="27.782682" lon="86.722458">
        <ele>2821.6</ele>
        <time>2022-10-29T09:47:08.000Z</time>
      </trkpt>
      <trkpt lat="27.782666" lon="86.72247">
        <ele>2821.6</ele>
        <time>2022-10-29T09:47:10.000Z</time>
      </trkpt>
      <trkpt lat="27.782637" lon="86.72247">
        <ele>2821.4</ele>
        <time>2022-10-29T09:47:12.000Z</time>
      </trkpt>
      <trkpt lat="27.782611" lon="86.72247">
        <ele>2821.4</ele>
        <time>2022-10-29T09:47:15.000Z</time>
      </trkpt>
      <trkpt lat="27.782586" lon="86.72247">
        <ele>2821.6</ele>
        <time>2022-10-29T09:47:17.000Z</time>
      </trkpt>
      <trkpt lat="27.782563" lon="86.72249">
        <ele>2821.4</ele>
        <time>2022-10-29T09:47:19.000Z</time>
      </trkpt>
      <trkpt lat="27.782534" lon="86.722496">
        <ele>2821.6</ele>
        <time>2022-10-29T09:47:21.000Z</time>
      </trkpt>
      <trkpt lat="27.782509" lon="86.722509">
        <ele>2821.8</ele>
        <time>2022-10-29T09:47:24.000Z</time>
      </trkpt>
      <trkpt lat="27.782483" lon="86.722509">
        <ele>2822</ele>
        <time>2022-10-29T09:47:26.000Z</time>
      </trkpt>
      <trkpt lat="27.782461" lon="86.722522">
        <ele>2822</ele>
        <time>2022-10-29T09:47:28.000Z</time>
      </trkpt>
      <trkpt lat="27.782445" lon="86.722534">
        <ele>2822.2</ele>
        <time>2022-10-29T09:47:30.000Z</time>
      </trkpt>
      <trkpt lat="27.782422" lon="86.722541">
        <ele>2822</ele>
        <time>2022-10-29T09:47:32.000Z</time>
      </trkpt>
      <trkpt lat="27.7824" lon="86.722541">
        <ele>2821.6</ele>
        <time>2022-10-29T09:47:34.000Z</time>
      </trkpt>
      <trkpt lat="27.782378" lon="86.722547">
        <ele>2821.8</ele>
        <time>2022-10-29T09:47:36.000Z</time>
      </trkpt>
      <trkpt lat="27.782362" lon="86.72256">
        <ele>2821.6</ele>
        <time>2022-10-29T09:47:37.000Z</time>
      </trkpt>
      <trkpt lat="27.782339" lon="86.722566">
        <ele>2821.6</ele>
        <time>2022-10-29T09:47:39.000Z</time>
      </trkpt>
      <trkpt lat="27.782314" lon="86.722566">
        <ele>2821.8</ele>
        <time>2022-10-29T09:47:42.000Z</time>
      </trkpt>
      <trkpt lat="27.782294" lon="86.722579">
        <ele>2822.2</ele>
        <time>2022-10-29T09:47:45.000Z</time>
      </trkpt>
      <trkpt lat="27.782278" lon="86.722598">
        <ele>2822.4</ele>
        <time>2022-10-29T09:47:47.000Z</time>
      </trkpt>
      <trkpt lat="27.782262" lon="86.722611">
        <ele>2822.2</ele>
        <time>2022-10-29T09:47:49.000Z</time>
      </trkpt>
      <trkpt lat="27.782243" lon="86.722624">
        <ele>2822.6</ele>
        <time>2022-10-29T09:47:51.000Z</time>
      </trkpt>
      <trkpt lat="27.782214" lon="86.72263">
        <ele>2822.4</ele>
        <time>2022-10-29T09:47:53.000Z</time>
      </trkpt>
      <trkpt lat="27.782189" lon="86.72263">
        <ele>2822.2</ele>
        <time>2022-10-29T09:47:55.000Z</time>
      </trkpt>
      <trkpt lat="27.782163" lon="86.722643">
        <ele>2822</ele>
        <time>2022-10-29T09:47:57.000Z</time>
      </trkpt>
      <trkpt lat="27.782144" lon="86.72265">
        <ele>2822</ele>
        <time>2022-10-29T09:47:58.000Z</time>
      </trkpt>
      <trkpt lat="27.782128" lon="86.722662">
        <ele>2821.8</ele>
        <time>2022-10-29T09:48:00.000Z</time>
      </trkpt>
      <trkpt lat="27.782102" lon="86.722682">
        <ele>2821.8</ele>
        <time>2022-10-29T09:48:02.000Z</time>
      </trkpt>
      <trkpt lat="27.782086" lon="86.722694">
        <ele>2821.6</ele>
        <time>2022-10-29T09:48:04.000Z</time>
      </trkpt>
      <trkpt lat="27.782064" lon="86.722707">
        <ele>2821.6</ele>
        <time>2022-10-29T09:48:06.000Z</time>
      </trkpt>
      <trkpt lat="27.782048" lon="86.72272">
        <ele>2821.6</ele>
        <time>2022-10-29T09:48:07.000Z</time>
      </trkpt>
      <trkpt lat="27.782029" lon="86.722726">
        <ele>2821.6</ele>
        <time>2022-10-29T09:48:09.000Z</time>
      </trkpt>
      <trkpt lat="27.78201" lon="86.722726">
        <ele>2821.4</ele>
        <time>2022-10-29T09:48:10.000Z</time>
      </trkpt>
      <trkpt lat="27.781987" lon="86.722733">
        <ele>2821.4</ele>
        <time>2022-10-29T09:48:12.000Z</time>
      </trkpt>
      <trkpt lat="27.781965" lon="86.722726">
        <ele>2821.6</ele>
        <time>2022-10-29T09:48:14.000Z</time>
      </trkpt>
      <trkpt lat="27.781939" lon="86.72272">
        <ele>2821.6</ele>
        <time>2022-10-29T09:48:16.000Z</time>
      </trkpt>
      <trkpt lat="27.78192" lon="86.722707">
        <ele>2821.2</ele>
        <time>2022-10-29T09:48:18.000Z</time>
      </trkpt>
      <trkpt lat="27.781901" lon="86.722701">
        <ele>2820.8</ele>
        <time>2022-10-29T09:48:20.000Z</time>
      </trkpt>
      <trkpt lat="27.781878" lon="86.722694">
        <ele>2820.8</ele>
        <time>2022-10-29T09:48:22.000Z</time>
      </trkpt>
      <trkpt lat="27.78185" lon="86.722694">
        <ele>2820.4</ele>
        <time>2022-10-29T09:48:24.000Z</time>
      </trkpt>
      <trkpt lat="27.781818" lon="86.722688">
        <ele>2820.4</ele>
        <time>2022-10-29T09:48:26.000Z</time>
      </trkpt>
      <trkpt lat="27.781792" lon="86.722682">
        <ele>2819.8</ele>
        <time>2022-10-29T09:48:28.000Z</time>
      </trkpt>
      <trkpt lat="27.781766" lon="86.722682">
        <ele>2819.6</ele>
        <time>2022-10-29T09:48:30.000Z</time>
      </trkpt>
      <trkpt lat="27.781741" lon="86.722669">
        <ele>2819.6</ele>
        <time>2022-10-29T09:48:32.000Z</time>
      </trkpt>
      <trkpt lat="27.781706" lon="86.722669">
        <ele>2819.6</ele>
        <time>2022-10-29T09:48:34.000Z</time>
      </trkpt>
      <trkpt lat="27.781683" lon="86.722682">
        <ele>2819.6</ele>
        <time>2022-10-29T09:48:36.000Z</time>
      </trkpt>
      <trkpt lat="27.781661" lon="86.722688">
        <ele>2819.4</ele>
        <time>2022-10-29T09:48:38.000Z</time>
      </trkpt>
      <trkpt lat="27.781632" lon="86.722688">
        <ele>2819.4</ele>
        <time>2022-10-29T09:48:40.000Z</time>
      </trkpt>
      <trkpt lat="27.781613" lon="86.722694">
        <ele>2819</ele>
        <time>2022-10-29T09:48:42.000Z</time>
      </trkpt>
      <trkpt lat="27.78159" lon="86.722694">
        <ele>2818.8</ele>
        <time>2022-10-29T09:48:44.000Z</time>
      </trkpt>
      <trkpt lat="27.781565" lon="86.722701">
        <ele>2818.4</ele>
        <time>2022-10-29T09:48:46.000Z</time>
      </trkpt>
      <trkpt lat="27.781546" lon="86.722707">
        <ele>2818.4</ele>
        <time>2022-10-29T09:48:48.000Z</time>
      </trkpt>
      <trkpt lat="27.78153" lon="86.722726">
        <ele>2818.2</ele>
        <time>2022-10-29T09:48:51.000Z</time>
      </trkpt>
      <trkpt lat="27.781501" lon="86.722733">
        <ele>2818</ele>
        <time>2022-10-29T09:48:53.000Z</time>
      </trkpt>
      <trkpt lat="27.781472" lon="86.722746">
        <ele>2817.8</ele>
        <time>2022-10-29T09:48:55.000Z</time>
      </trkpt>
      <trkpt lat="27.78145" lon="86.722758">
        <ele>2817.6</ele>
        <time>2022-10-29T09:48:56.000Z</time>
      </trkpt>
      <trkpt lat="27.78144" lon="86.722778">
        <ele>2817.2</ele>
        <time>2022-10-29T09:48:59.000Z</time>
      </trkpt>
      <trkpt lat="27.781421" lon="86.72279">
        <ele>2817</ele>
        <time>2022-10-29T09:49:03.000Z</time>
      </trkpt>
      <trkpt lat="27.781402" lon="86.72279">
        <ele>2817.4</ele>
        <time>2022-10-29T09:49:15.000Z</time>
      </trkpt>
      <trkpt lat="27.781402" lon="86.722758">
        <ele>2816.8</ele>
        <time>2022-10-29T09:49:18.000Z</time>
      </trkpt>
      <trkpt lat="27.781411" lon="86.722739">
        <ele>2816.6</ele>
        <time>2022-10-29T09:49:20.000Z</time>
      </trkpt>
      <trkpt lat="27.781392" lon="86.722739">
        <ele>2816.8</ele>
        <time>2022-10-29T09:49:38.000Z</time>
      </trkpt>
      <trkpt lat="27.781373" lon="86.722726">
        <ele>2817.2</ele>
        <time>2022-10-29T09:49:44.000Z</time>
      </trkpt>
      <trkpt lat="27.781328" lon="86.722739">
        <ele>2816.2</ele>
        <time>2022-10-29T09:50:56.000Z</time>
      </trkpt>
      <trkpt lat="27.78135" lon="86.722758">
        <ele>2815.8</ele>
        <time>2022-10-29T09:51:50.000Z</time>
      </trkpt>
      <trkpt lat="27.781376" lon="86.722778">
        <ele>2815.8</ele>
        <time>2022-10-29T09:51:52.000Z</time>
      </trkpt>
      <trkpt lat="27.781392" lon="86.72279">
        <ele>2816</ele>
        <time>2022-10-29T09:51:54.000Z</time>
      </trkpt>
      <trkpt lat="27.781408" lon="86.72281">
        <ele>2816</ele>
        <time>2022-10-29T09:51:55.000Z</time>
      </trkpt>
      <trkpt lat="27.781427" lon="86.722822">
        <ele>2816</ele>
        <time>2022-10-29T09:51:57.000Z</time>
      </trkpt>
      <trkpt lat="27.781418" lon="86.722842">
        <ele>2815.8</ele>
        <time>2022-10-29T09:52:00.000Z</time>
      </trkpt>
      <trkpt lat="27.781395" lon="86.722848">
        <ele>2815.8</ele>
        <time>2022-10-29T09:52:02.000Z</time>
      </trkpt>
      <trkpt lat="27.781376" lon="86.722867">
        <ele>2816.6</ele>
        <time>2022-10-29T09:52:05.000Z</time>
      </trkpt>
      <trkpt lat="27.781354" lon="86.722848">
        <ele>2816.8</ele>
        <time>2022-10-29T09:52:07.000Z</time>
      </trkpt>
      <trkpt lat="27.781334" lon="86.722848">
        <ele>2817</ele>
        <time>2022-10-29T09:52:09.000Z</time>
      </trkpt>
      <trkpt lat="27.781315" lon="86.722848">
        <ele>2817</ele>
        <time>2022-10-29T09:52:10.000Z</time>
      </trkpt>
      <trkpt lat="27.781286" lon="86.722848">
        <ele>2817</ele>
        <time>2022-10-29T09:52:12.000Z</time>
      </trkpt>
      <trkpt lat="27.781274" lon="86.722867">
        <ele>2817.4</ele>
        <time>2022-10-29T09:52:15.000Z</time>
      </trkpt>
      <trkpt lat="27.781258" lon="86.722899">
        <ele>2817.6</ele>
        <time>2022-10-29T09:52:17.000Z</time>
      </trkpt>
      <trkpt lat="27.781235" lon="86.722918">
        <ele>2817.2</ele>
        <time>2022-10-29T09:52:20.000Z</time>
      </trkpt>
      <trkpt lat="27.78121" lon="86.722938">
        <ele>2817.4</ele>
        <time>2022-10-29T09:52:22.000Z</time>
      </trkpt>
      <trkpt lat="27.781184" lon="86.722938">
        <ele>2817.2</ele>
        <time>2022-10-29T09:52:24.000Z</time>
      </trkpt>
      <trkpt lat="27.781165" lon="86.722938">
        <ele>2817.8</ele>
        <time>2022-10-29T09:52:27.000Z</time>
      </trkpt>
      <trkpt lat="27.781149" lon="86.722957">
        <ele>2818</ele>
        <time>2022-10-29T09:52:29.000Z</time>
      </trkpt>
      <trkpt lat="27.78112" lon="86.722963">
        <ele>2818.6</ele>
        <time>2022-10-29T09:52:31.000Z</time>
      </trkpt>
      <trkpt lat="27.781104" lon="86.722976">
        <ele>2819.2</ele>
        <time>2022-10-29T09:52:33.000Z</time>
      </trkpt>
      <trkpt lat="27.781085" lon="86.722989">
        <ele>2819.4</ele>
        <time>2022-10-29T09:52:37.000Z</time>
      </trkpt>
      <trkpt lat="27.781059" lon="86.723002">
        <ele>2820.2</ele>
        <time>2022-10-29T09:52:40.000Z</time>
      </trkpt>
      <trkpt lat="27.781037" lon="86.723008">
        <ele>2820.8</ele>
        <time>2022-10-29T09:52:44.000Z</time>
      </trkpt>
      <trkpt lat="27.781021" lon="86.723021">
        <ele>2821.6</ele>
        <time>2022-10-29T09:52:47.000Z</time>
      </trkpt>
      <trkpt lat="27.781002" lon="86.723027">
        <ele>2821.8</ele>
        <time>2022-10-29T09:52:49.000Z</time>
      </trkpt>
      <trkpt lat="27.780986" lon="86.723046">
        <ele>2821.8</ele>
        <time>2022-10-29T09:52:51.000Z</time>
      </trkpt>
      <trkpt lat="27.780966" lon="86.723053">
        <ele>2822</ele>
        <time>2022-10-29T09:52:54.000Z</time>
      </trkpt>
      <trkpt lat="27.780947" lon="86.723059">
        <ele>2821.8</ele>
        <time>2022-10-29T09:52:56.000Z</time>
      </trkpt>
      <trkpt lat="27.780925" lon="86.723078">
        <ele>2821.8</ele>
        <time>2022-10-29T09:52:59.000Z</time>
      </trkpt>
      <trkpt lat="27.780896" lon="86.723085">
        <ele>2821.8</ele>
        <time>2022-10-29T09:53:01.000Z</time>
      </trkpt>
      <trkpt lat="27.780896" lon="86.723117">
        <ele>2821.6</ele>
        <time>2022-10-29T09:53:03.000Z</time>
      </trkpt>
      <trkpt lat="27.78087" lon="86.723142">
        <ele>2821.6</ele>
        <time>2022-10-29T09:53:11.000Z</time>
      </trkpt>
      <trkpt lat="27.780858" lon="86.723162">
        <ele>2821.6</ele>
        <time>2022-10-29T09:53:12.000Z</time>
      </trkpt>
      <trkpt lat="27.780829" lon="86.723181">
        <ele>2821.6</ele>
        <time>2022-10-29T09:53:14.000Z</time>
      </trkpt>
      <trkpt lat="27.780803" lon="86.723187">
        <ele>2821.6</ele>
        <time>2022-10-29T09:53:16.000Z</time>
      </trkpt>
      <trkpt lat="27.780781" lon="86.723187">
        <ele>2822</ele>
        <time>2022-10-29T09:53:18.000Z</time>
      </trkpt>
      <trkpt lat="27.780765" lon="86.7232">
        <ele>2822.2</ele>
        <time>2022-10-29T09:53:20.000Z</time>
      </trkpt>
      <trkpt lat="27.780749" lon="86.723187">
        <ele>2823.2</ele>
        <time>2022-10-29T09:53:24.000Z</time>
      </trkpt>
      <trkpt lat="27.780758" lon="86.723168">
        <ele>2823.6</ele>
        <time>2022-10-29T09:53:26.000Z</time>
      </trkpt>
      <trkpt lat="27.780765" lon="86.7232">
        <ele>2824</ele>
        <time>2022-10-29T09:53:32.000Z</time>
      </trkpt>
      <trkpt lat="27.780755" lon="86.723219">
        <ele>2825</ele>
        <time>2022-10-29T09:53:35.000Z</time>
      </trkpt>
      <trkpt lat="27.780726" lon="86.723226">
        <ele>2825.6</ele>
        <time>2022-10-29T09:53:39.000Z</time>
      </trkpt>
      <trkpt lat="27.780714" lon="86.723206">
        <ele>2825.6</ele>
        <time>2022-10-29T09:53:46.000Z</time>
      </trkpt>
      <trkpt lat="27.780701" lon="86.723181">
        <ele>2825</ele>
        <time>2022-10-29T09:53:49.000Z</time>
      </trkpt>
      <trkpt lat="27.780691" lon="86.723162">
        <ele>2824.6</ele>
        <time>2022-10-29T09:53:51.000Z</time>
      </trkpt>
      <trkpt lat="27.780672" lon="86.723142">
        <ele>2823.8</ele>
        <time>2022-10-29T09:53:54.000Z</time>
      </trkpt>
      <trkpt lat="27.780656" lon="86.723123">
        <ele>2823.6</ele>
        <time>2022-10-29T09:53:56.000Z</time>
      </trkpt>
      <trkpt lat="27.78065" lon="86.723104">
        <ele>2823.2</ele>
        <time>2022-10-29T09:53:58.000Z</time>
      </trkpt>
      <trkpt lat="27.78064" lon="86.723085">
        <ele>2823</ele>
        <time>2022-10-29T09:53:59.000Z</time>
      </trkpt>
      <trkpt lat="27.780627" lon="86.723059">
        <ele>2822.6</ele>
        <time>2022-10-29T09:54:01.000Z</time>
      </trkpt>
      <trkpt lat="27.780624" lon="86.723027">
        <ele>2822.2</ele>
        <time>2022-10-29T09:54:03.000Z</time>
      </trkpt>
      <trkpt lat="27.780611" lon="86.723002">
        <ele>2822</ele>
        <time>2022-10-29T09:54:05.000Z</time>
      </trkpt>
      <trkpt lat="27.780605" lon="86.72297">
        <ele>2821.8</ele>
        <time>2022-10-29T09:54:07.000Z</time>
      </trkpt>
      <trkpt lat="27.780589" lon="86.722957">
        <ele>2821.6</ele>
        <time>2022-10-29T09:54:08.000Z</time>
      </trkpt>
      <trkpt lat="27.780586" lon="86.722931">
        <ele>2821</ele>
        <time>2022-10-29T09:54:10.000Z</time>
      </trkpt>
      <trkpt lat="27.780576" lon="86.722906">
        <ele>2820.6</ele>
        <time>2022-10-29T09:54:12.000Z</time>
      </trkpt>
      <trkpt lat="27.780573" lon="86.72288">
        <ele>2820.6</ele>
        <time>2022-10-29T09:54:15.000Z</time>
      </trkpt>
      <trkpt lat="27.78057" lon="86.722848">
        <ele>2820.2</ele>
        <time>2022-10-29T09:54:17.000Z</time>
      </trkpt>
      <trkpt lat="27.78056" lon="86.722829">
        <ele>2820.2</ele>
        <time>2022-10-29T09:54:18.000Z</time>
      </trkpt>
      <trkpt lat="27.780554" lon="86.72279">
        <ele>2820</ele>
        <time>2022-10-29T09:54:21.000Z</time>
      </trkpt>
      <trkpt lat="27.780547" lon="86.722771">
        <ele>2819.8</ele>
        <time>2022-10-29T09:54:23.000Z</time>
      </trkpt>
      <trkpt lat="27.780544" lon="86.722746">
        <ele>2819.6</ele>
        <time>2022-10-29T09:54:26.000Z</time>
      </trkpt>
      <trkpt lat="27.780541" lon="86.722707">
        <ele>2819.4</ele>
        <time>2022-10-29T09:54:29.000Z</time>
      </trkpt>
      <trkpt lat="27.780528" lon="86.722688">
        <ele>2819</ele>
        <time>2022-10-29T09:54:32.000Z</time>
      </trkpt>
      <trkpt lat="27.780522" lon="86.722669">
        <ele>2819.2</ele>
        <time>2022-10-29T09:54:33.000Z</time>
      </trkpt>
      <trkpt lat="27.780512" lon="86.722643">
        <ele>2819.2</ele>
        <time>2022-10-29T09:54:36.000Z</time>
      </trkpt>
      <trkpt lat="27.780509" lon="86.722618">
        <ele>2819.6</ele>
        <time>2022-10-29T09:54:38.000Z</time>
      </trkpt>
      <trkpt lat="27.780499" lon="86.722598">
        <ele>2819.6</ele>
        <time>2022-10-29T09:54:40.000Z</time>
      </trkpt>
      <trkpt lat="27.780502" lon="86.722566">
        <ele>2819.6</ele>
        <time>2022-10-29T09:54:42.000Z</time>
      </trkpt>
      <trkpt lat="27.780496" lon="86.722541">
        <ele>2821</ele>
        <time>2022-10-29T09:54:44.000Z</time>
      </trkpt>
      <trkpt lat="27.78049" lon="86.722509">
        <ele>2821</ele>
        <time>2022-10-29T09:54:46.000Z</time>
      </trkpt>
      <trkpt lat="27.780483" lon="86.722483">
        <ele>2821</ele>
        <time>2022-10-29T09:54:49.000Z</time>
      </trkpt>
      <trkpt lat="27.780477" lon="86.722464">
        <ele>2821</ele>
        <time>2022-10-29T09:54:50.000Z</time>
      </trkpt>
      <trkpt lat="27.780467" lon="86.722445">
        <ele>2820.6</ele>
        <time>2022-10-29T09:54:52.000Z</time>
      </trkpt>
      <trkpt lat="27.780458" lon="86.722426">
        <ele>2820.8</ele>
        <time>2022-10-29T09:54:54.000Z</time>
      </trkpt>
      <trkpt lat="27.780448" lon="86.7224">
        <ele>2821.2</ele>
        <time>2022-10-29T09:54:57.000Z</time>
      </trkpt>
      <trkpt lat="27.780438" lon="86.722368">
        <ele>2821.6</ele>
        <time>2022-10-29T09:54:59.000Z</time>
      </trkpt>
      <trkpt lat="27.780419" lon="86.722362">
        <ele>2822</ele>
        <time>2022-10-29T09:55:02.000Z</time>
      </trkpt>
      <trkpt lat="27.7804" lon="86.722362">
        <ele>2822.4</ele>
        <time>2022-10-29T09:55:05.000Z</time>
      </trkpt>
      <trkpt lat="27.780387" lon="86.722342">
        <ele>2822.8</ele>
        <time>2022-10-29T09:55:08.000Z</time>
      </trkpt>
      <trkpt lat="27.780384" lon="86.72231">
        <ele>2823</ele>
        <time>2022-10-29T09:55:10.000Z</time>
      </trkpt>
      <trkpt lat="27.780362" lon="86.722291">
        <ele>2823.4</ele>
        <time>2022-10-29T09:55:13.000Z</time>
      </trkpt>
      <trkpt lat="27.780352" lon="86.722272">
        <ele>2824</ele>
        <time>2022-10-29T09:55:17.000Z</time>
      </trkpt>
      <trkpt lat="27.780333" lon="86.722272">
        <ele>2824</ele>
        <time>2022-10-29T09:55:18.000Z</time>
      </trkpt>
      <trkpt lat="27.780314" lon="86.722272">
        <ele>2824.2</ele>
        <time>2022-10-29T09:55:20.000Z</time>
      </trkpt>
      <trkpt lat="27.780304" lon="86.722304">
        <ele>2824.6</ele>
        <time>2022-10-29T09:55:22.000Z</time>
      </trkpt>
      <trkpt lat="27.780288" lon="86.72233">
        <ele>2824.6</ele>
        <time>2022-10-29T09:55:23.000Z</time>
      </trkpt>
      <trkpt lat="27.780269" lon="86.722362">
        <ele>2824.8</ele>
        <time>2022-10-29T09:55:25.000Z</time>
      </trkpt>
      <trkpt lat="27.780259" lon="86.722387">
        <ele>2824.6</ele>
        <time>2022-10-29T09:55:28.000Z</time>
      </trkpt>
      <trkpt lat="27.78024" lon="86.7224">
        <ele>2824.4</ele>
        <time>2022-10-29T09:55:30.000Z</time>
      </trkpt>
      <trkpt lat="27.780246" lon="86.722419">
        <ele>2824.4</ele>
        <time>2022-10-29T09:55:32.000Z</time>
      </trkpt>
      <trkpt lat="27.780266" lon="86.722432">
        <ele>2824.4</ele>
        <time>2022-10-29T09:55:34.000Z</time>
      </trkpt>
      <trkpt lat="27.780291" lon="86.722451">
        <ele>2824.2</ele>
        <time>2022-10-29T09:55:36.000Z</time>
      </trkpt>
      <trkpt lat="27.780275" lon="86.722464">
        <ele>2824.2</ele>
        <time>2022-10-29T09:55:43.000Z</time>
      </trkpt>
      <trkpt lat="27.780253" lon="86.72249">
        <ele>2824</ele>
        <time>2022-10-29T09:55:47.000Z</time>
      </trkpt>
      <trkpt lat="27.780234" lon="86.722502">
        <ele>2824</ele>
        <time>2022-10-29T09:55:48.000Z</time>
      </trkpt>
      <trkpt lat="27.780218" lon="86.722522">
        <ele>2823.6</ele>
        <time>2022-10-29T09:55:51.000Z</time>
      </trkpt>
      <trkpt lat="27.780195" lon="86.722528">
        <ele>2823.2</ele>
        <time>2022-10-29T09:55:54.000Z</time>
      </trkpt>
      <trkpt lat="27.780173" lon="86.722534">
        <ele>2822.4</ele>
        <time>2022-10-29T09:55:57.000Z</time>
      </trkpt>
      <trkpt lat="27.780154" lon="86.722547">
        <ele>2822.2</ele>
        <time>2022-10-29T09:56:00.000Z</time>
      </trkpt>
      <trkpt lat="27.780138" lon="86.72256">
        <ele>2821.2</ele>
        <time>2022-10-29T09:56:04.000Z</time>
      </trkpt>
      <trkpt lat="27.780128" lon="86.722541">
        <ele>2820.8</ele>
        <time>2022-10-29T09:56:06.000Z</time>
      </trkpt>
      <trkpt lat="27.780106" lon="86.722534">
        <ele>2820</ele>
        <time>2022-10-29T09:56:08.000Z</time>
      </trkpt>
      <trkpt lat="27.780083" lon="86.722534">
        <ele>2819.6</ele>
        <time>2022-10-29T09:56:12.000Z</time>
      </trkpt>
      <trkpt lat="27.780054" lon="86.722547">
        <ele>2818.4</ele>
        <time>2022-10-29T09:56:19.000Z</time>
      </trkpt>
      <trkpt lat="27.780035" lon="86.722573">
        <ele>2817.4</ele>
        <time>2022-10-29T09:56:22.000Z</time>
      </trkpt>
      <trkpt lat="27.780026" lon="86.722605">
        <ele>2816.8</ele>
        <time>2022-10-29T09:56:24.000Z</time>
      </trkpt>
      <trkpt lat="27.780003" lon="86.722618">
        <ele>2815.8</ele>
        <time>2022-10-29T09:56:26.000Z</time>
      </trkpt>
      <trkpt lat="27.779981" lon="86.722618">
        <ele>2815.4</ele>
        <time>2022-10-29T09:56:28.000Z</time>
      </trkpt>
      <trkpt lat="27.779962" lon="86.722598">
        <ele>2815.2</ele>
        <time>2022-10-29T09:56:30.000Z</time>
      </trkpt>
      <trkpt lat="27.779939" lon="86.722598">
        <ele>2815</ele>
        <time>2022-10-29T09:56:33.000Z</time>
      </trkpt>
      <trkpt lat="27.779923" lon="86.722611">
        <ele>2815</ele>
        <time>2022-10-29T09:56:34.000Z</time>
      </trkpt>
      <trkpt lat="27.779904" lon="86.722618">
        <ele>2815</ele>
        <time>2022-10-29T09:56:36.000Z</time>
      </trkpt>
      <trkpt lat="27.779885" lon="86.722624">
        <ele>2814.8</ele>
        <time>2022-10-29T09:56:38.000Z</time>
      </trkpt>
      <trkpt lat="27.779866" lon="86.72263">
        <ele>2814.8</ele>
        <time>2022-10-29T09:56:39.000Z</time>
      </trkpt>
      <trkpt lat="27.779843" lon="86.72263">
        <ele>2815</ele>
        <time>2022-10-29T09:56:41.000Z</time>
      </trkpt>
      <trkpt lat="27.779821" lon="86.722643">
        <ele>2815</ele>
        <time>2022-10-29T09:56:43.000Z</time>
      </trkpt>
      <trkpt lat="27.779795" lon="86.722656">
        <ele>2815</ele>
        <time>2022-10-29T09:56:46.000Z</time>
      </trkpt>
      <trkpt lat="27.77977" lon="86.722662">
        <ele>2815.4</ele>
        <time>2022-10-29T09:56:48.000Z</time>
      </trkpt>
      <trkpt lat="27.779741" lon="86.722669">
        <ele>2815.8</ele>
        <time>2022-10-29T09:56:50.000Z</time>
      </trkpt>
      <trkpt lat="27.779725" lon="86.722656">
        <ele>2816</ele>
        <time>2022-10-29T09:56:52.000Z</time>
      </trkpt>
      <trkpt lat="27.779718" lon="86.72263">
        <ele>2816.2</ele>
        <time>2022-10-29T09:56:54.000Z</time>
      </trkpt>
      <trkpt lat="27.779699" lon="86.72263">
        <ele>2816.6</ele>
        <time>2022-10-29T09:56:57.000Z</time>
      </trkpt>
      <trkpt lat="27.779683" lon="86.722643">
        <ele>2817</ele>
        <time>2022-10-29T09:56:59.000Z</time>
      </trkpt>
      <trkpt lat="27.779664" lon="86.722656">
        <ele>2817.2</ele>
        <time>2022-10-29T09:57:01.000Z</time>
      </trkpt>
      <trkpt lat="27.779648" lon="86.722669">
        <ele>2817.2</ele>
        <time>2022-10-29T09:57:03.000Z</time>
      </trkpt>
      <trkpt lat="27.779622" lon="86.722669">
        <ele>2817.4</ele>
        <time>2022-10-29T09:57:06.000Z</time>
      </trkpt>
      <trkpt lat="27.779603" lon="86.722669">
        <ele>2818.2</ele>
        <time>2022-10-29T09:57:10.000Z</time>
      </trkpt>
      <trkpt lat="27.779584" lon="86.722682">
        <ele>2818.2</ele>
        <time>2022-10-29T09:57:11.000Z</time>
      </trkpt>
      <trkpt lat="27.779562" lon="86.722694">
        <ele>2818.4</ele>
        <time>2022-10-29T09:57:12.000Z</time>
      </trkpt>
      <trkpt lat="27.779546" lon="86.722707">
        <ele>2818.4</ele>
        <time>2022-10-29T09:57:13.000Z</time>
      </trkpt>
      <trkpt lat="27.77953" lon="86.72272">
        <ele>2819</ele>
        <time>2022-10-29T09:57:16.000Z</time>
      </trkpt>
      <trkpt lat="27.779507" lon="86.72272">
        <ele>2819.4</ele>
        <time>2022-10-29T09:57:18.000Z</time>
      </trkpt>
      <trkpt lat="27.779491" lon="86.722707">
        <ele>2820.2</ele>
        <time>2022-10-29T09:57:20.000Z</time>
      </trkpt>
      <trkpt lat="27.779478" lon="86.722688">
        <ele>2820.2</ele>
        <time>2022-10-29T09:57:23.000Z</time>
      </trkpt>
      <trkpt lat="27.779466" lon="86.722669">
        <ele>2820.2</ele>
        <time>2022-10-29T09:57:24.000Z</time>
      </trkpt>
      <trkpt lat="27.779446" lon="86.72265">
        <ele>2820.6</ele>
        <time>2022-10-29T09:57:26.000Z</time>
      </trkpt>
      <trkpt lat="27.779443" lon="86.722624">
        <ele>2820.6</ele>
        <time>2022-10-29T09:57:27.000Z</time>
      </trkpt>
      <trkpt lat="27.779443" lon="86.722586">
        <ele>2820.6</ele>
        <time>2022-10-29T09:57:29.000Z</time>
      </trkpt>
      <trkpt lat="27.779434" lon="86.722566">
        <ele>2820.8</ele>
        <time>2022-10-29T09:57:31.000Z</time>
      </trkpt>
      <trkpt lat="27.779408" lon="86.722547">
        <ele>2821</ele>
        <time>2022-10-29T09:57:34.000Z</time>
      </trkpt>
      <trkpt lat="27.779376" lon="86.72256">
        <ele>2821.4</ele>
        <time>2022-10-29T09:57:36.000Z</time>
      </trkpt>
      <trkpt lat="27.77936" lon="86.722547">
        <ele>2820.6</ele>
        <time>2022-10-29T09:57:40.000Z</time>
      </trkpt>
      <trkpt lat="27.779347" lon="86.722528">
        <ele>2821</ele>
        <time>2022-10-29T09:57:44.000Z</time>
      </trkpt>
      <trkpt lat="27.779325" lon="86.722534">
        <ele>2820.8</ele>
        <time>2022-10-29T09:57:48.000Z</time>
      </trkpt>
      <trkpt lat="27.779299" lon="86.722541">
        <ele>2821</ele>
        <time>2022-10-29T09:57:50.000Z</time>
      </trkpt>
      <trkpt lat="27.77928" lon="86.722541">
        <ele>2821.2</ele>
        <time>2022-10-29T09:57:52.000Z</time>
      </trkpt>
      <trkpt lat="27.779261" lon="86.722534">
        <ele>2821.6</ele>
        <time>2022-10-29T09:57:54.000Z</time>
      </trkpt>
      <trkpt lat="27.779232" lon="86.722541">
        <ele>2821.4</ele>
        <time>2022-10-29T09:57:57.000Z</time>
      </trkpt>
      <trkpt lat="27.779206" lon="86.722541">
        <ele>2821.2</ele>
        <time>2022-10-29T09:57:59.000Z</time>
      </trkpt>
      <trkpt lat="27.779197" lon="86.722522">
        <ele>2821</ele>
        <time>2022-10-29T09:58:37.000Z</time>
      </trkpt>
      <trkpt lat="27.779174" lon="86.722528">
        <ele>2821.2</ele>
        <time>2022-10-29T09:58:39.000Z</time>
      </trkpt>
      <trkpt lat="27.779155" lon="86.722509">
        <ele>2821.2</ele>
        <time>2022-10-29T09:58:41.000Z</time>
      </trkpt>
      <trkpt lat="27.77913" lon="86.72249">
        <ele>2820.8</ele>
        <time>2022-10-29T09:58:43.000Z</time>
      </trkpt>
      <trkpt lat="27.779107" lon="86.722464">
        <ele>2820.6</ele>
        <time>2022-10-29T09:58:45.000Z</time>
      </trkpt>
      <trkpt lat="27.779082" lon="86.722451">
        <ele>2820.6</ele>
        <time>2022-10-29T09:58:47.000Z</time>
      </trkpt>
      <trkpt lat="27.779059" lon="86.722445">
        <ele>2820.2</ele>
        <time>2022-10-29T09:58:49.000Z</time>
      </trkpt>
      <trkpt lat="27.779037" lon="86.722432">
        <ele>2820</ele>
        <time>2022-10-29T09:58:51.000Z</time>
      </trkpt>
      <trkpt lat="27.779008" lon="86.722419">
        <ele>2820</ele>
        <time>2022-10-29T09:58:54.000Z</time>
      </trkpt>
      <trkpt lat="27.778989" lon="86.722406">
        <ele>2819.8</ele>
        <time>2022-10-29T09:58:56.000Z</time>
      </trkpt>
      <trkpt lat="27.77897" lon="86.722387">
        <ele>2819.8</ele>
        <time>2022-10-29T09:58:58.000Z</time>
      </trkpt>
      <trkpt lat="27.77895" lon="86.722381">
        <ele>2819.8</ele>
        <time>2022-10-29T09:58:59.000Z</time>
      </trkpt>
      <trkpt lat="27.778928" lon="86.722381">
        <ele>2819.4</ele>
        <time>2022-10-29T09:59:01.000Z</time>
      </trkpt>
      <trkpt lat="27.778896" lon="86.722387">
        <ele>2819</ele>
        <time>2022-10-29T09:59:04.000Z</time>
      </trkpt>
      <trkpt lat="27.77888" lon="86.722406">
        <ele>2818.8</ele>
        <time>2022-10-29T09:59:05.000Z</time>
      </trkpt>
      <trkpt lat="27.778858" lon="86.7224">
        <ele>2818.8</ele>
        <time>2022-10-29T09:59:07.000Z</time>
      </trkpt>
      <trkpt lat="27.778848" lon="86.722374">
        <ele>2818.2</ele>
        <time>2022-10-29T09:59:09.000Z</time>
      </trkpt>
      <trkpt lat="27.778832" lon="86.722342">
        <ele>2817.6</ele>
        <time>2022-10-29T09:59:11.000Z</time>
      </trkpt>
      <trkpt lat="27.778806" lon="86.722342">
        <ele>2817.2</ele>
        <time>2022-10-29T09:59:16.000Z</time>
      </trkpt>
      <trkpt lat="27.778781" lon="86.722362">
        <ele>2816.6</ele>
        <time>2022-10-29T09:59:18.000Z</time>
      </trkpt>
      <trkpt lat="27.778746" lon="86.722349">
        <ele>2816.6</ele>
        <time>2022-10-29T09:59:20.000Z</time>
      </trkpt>
      <trkpt lat="27.778723" lon="86.722362">
        <ele>2816.6</ele>
        <time>2022-10-29T09:59:21.000Z</time>
      </trkpt>
      <trkpt lat="27.778691" lon="86.722362">
        <ele>2816.6</ele>
        <time>2022-10-29T09:59:23.000Z</time>
      </trkpt>
      <trkpt lat="27.778669" lon="86.722374">
        <ele>2816.4</ele>
        <time>2022-10-29T09:59:25.000Z</time>
      </trkpt>
      <trkpt lat="27.778637" lon="86.722368">
        <ele>2816.4</ele>
        <time>2022-10-29T09:59:27.000Z</time>
      </trkpt>
      <trkpt lat="27.778611" lon="86.722381">
        <ele>2816.4</ele>
        <time>2022-10-29T09:59:29.000Z</time>
      </trkpt>
      <trkpt lat="27.778592" lon="86.722374">
        <ele>2816.2</ele>
        <time>2022-10-29T09:59:31.000Z</time>
      </trkpt>
      <trkpt lat="27.778589" lon="86.722349">
        <ele>2816.2</ele>
        <time>2022-10-29T09:59:32.000Z</time>
      </trkpt>
      <trkpt lat="27.778592" lon="86.72231">
        <ele>2816</ele>
        <time>2022-10-29T09:59:34.000Z</time>
      </trkpt>
      <trkpt lat="27.778576" lon="86.722298">
        <ele>2815.8</ele>
        <time>2022-10-29T09:59:36.000Z</time>
      </trkpt>
      <trkpt lat="27.77856" lon="86.722272">
        <ele>2816</ele>
        <time>2022-10-29T09:59:39.000Z</time>
      </trkpt>
      <trkpt lat="27.778541" lon="86.722259">
        <ele>2816</ele>
        <time>2022-10-29T09:59:47.000Z</time>
      </trkpt>
      <trkpt lat="27.778522" lon="86.722253">
        <ele>2815.6</ele>
        <time>2022-10-29T09:59:49.000Z</time>
      </trkpt>
      <trkpt lat="27.778502" lon="86.722246">
        <ele>2815.2</ele>
        <time>2022-10-29T09:59:51.000Z</time>
      </trkpt>
      <trkpt lat="27.778486" lon="86.722227">
        <ele>2815.2</ele>
        <time>2022-10-29T09:59:53.000Z</time>
      </trkpt>
      <trkpt lat="27.778467" lon="86.722208">
        <ele>2815</ele>
        <time>2022-10-29T09:59:56.000Z</time>
      </trkpt>
      <trkpt lat="27.778461" lon="86.722182">
        <ele>2814.8</ele>
        <time>2022-10-29T09:59:58.000Z</time>
      </trkpt>
      <trkpt lat="27.778454" lon="86.722163">
        <ele>2814.8</ele>
        <time>2022-10-29T09:59:59.000Z</time>
      </trkpt>
      <trkpt lat="27.778429" lon="86.72215">
        <ele>2814.6</ele>
        <time>2022-10-29T10:00:02.000Z</time>
      </trkpt>
      <trkpt lat="27.778403" lon="86.722144">
        <ele>2814</ele>
        <time>2022-10-29T10:00:04.000Z</time>
      </trkpt>
      <trkpt lat="27.778371" lon="86.722138">
        <ele>2814</ele>
        <time>2022-10-29T10:00:06.000Z</time>
      </trkpt>
      <trkpt lat="27.778352" lon="86.722131">
        <ele>2814</ele>
        <time>2022-10-29T10:00:07.000Z</time>
      </trkpt>
      <trkpt lat="27.778323" lon="86.722106">
        <ele>2813.6</ele>
        <time>2022-10-29T10:00:09.000Z</time>
      </trkpt>
      <trkpt lat="27.778301" lon="86.722093">
        <ele>2813.8</ele>
        <time>2022-10-29T10:00:11.000Z</time>
      </trkpt>
      <trkpt lat="27.778282" lon="86.722074">
        <ele>2813.8</ele>
        <time>2022-10-29T10:00:13.000Z</time>
      </trkpt>
      <trkpt lat="27.778262" lon="86.722093">
        <ele>2813.4</ele>
        <time>2022-10-29T10:00:15.000Z</time>
      </trkpt>
      <trkpt lat="27.77824" lon="86.722106">
        <ele>2813.4</ele>
        <time>2022-10-29T10:00:17.000Z</time>
      </trkpt>
      <trkpt lat="27.778211" lon="86.722106">
        <ele>2813</ele>
        <time>2022-10-29T10:00:20.000Z</time>
      </trkpt>
      <trkpt lat="27.778192" lon="86.722086">
        <ele>2812.8</ele>
        <time>2022-10-29T10:00:22.000Z</time>
      </trkpt>
      <trkpt lat="27.778186" lon="86.722067">
        <ele>2812.4</ele>
        <time>2022-10-29T10:00:24.000Z</time>
      </trkpt>
      <trkpt lat="27.778163" lon="86.722067">
        <ele>2812.2</ele>
        <time>2022-10-29T10:00:26.000Z</time>
      </trkpt>
      <trkpt lat="27.778138" lon="86.722035">
        <ele>2812.2</ele>
        <time>2022-10-29T10:00:28.000Z</time>
      </trkpt>
      <trkpt lat="27.778118" lon="86.722022">
        <ele>2812</ele>
        <time>2022-10-29T10:00:31.000Z</time>
      </trkpt>
      <trkpt lat="27.778099" lon="86.722016">
        <ele>2811.8</ele>
        <time>2022-10-29T10:00:33.000Z</time>
      </trkpt>
      <trkpt lat="27.778074" lon="86.72201">
        <ele>2811.6</ele>
        <time>2022-10-29T10:00:35.000Z</time>
      </trkpt>
      <trkpt lat="27.778054" lon="86.722003">
        <ele>2811.4</ele>
        <time>2022-10-29T10:00:37.000Z</time>
      </trkpt>
      <trkpt lat="27.778032" lon="86.721984">
        <ele>2811.4</ele>
        <time>2022-10-29T10:00:39.000Z</time>
      </trkpt>
      <trkpt lat="27.778022" lon="86.721952">
        <ele>2811.2</ele>
        <time>2022-10-29T10:00:41.000Z</time>
      </trkpt>
      <trkpt lat="27.778003" lon="86.721946">
        <ele>2811</ele>
        <time>2022-10-29T10:00:43.000Z</time>
      </trkpt>
      <trkpt lat="27.777984" lon="86.721939">
        <ele>2811.4</ele>
        <time>2022-10-29T10:00:45.000Z</time>
      </trkpt>
      <trkpt lat="27.777962" lon="86.721914">
        <ele>2811</ele>
        <time>2022-10-29T10:00:48.000Z</time>
      </trkpt>
      <trkpt lat="27.777933" lon="86.721907">
        <ele>2810.6</ele>
        <time>2022-10-29T10:00:50.000Z</time>
      </trkpt>
      <trkpt lat="27.777901" lon="86.721901">
        <ele>2810.6</ele>
        <time>2022-10-29T10:00:52.000Z</time>
      </trkpt>
      <trkpt lat="27.777875" lon="86.721901">
        <ele>2810.4</ele>
        <time>2022-10-29T10:00:54.000Z</time>
      </trkpt>
      <trkpt lat="27.77785" lon="86.721894">
        <ele>2810</ele>
        <time>2022-10-29T10:00:56.000Z</time>
      </trkpt>
      <trkpt lat="27.77784" lon="86.721875">
        <ele>2809.8</ele>
        <time>2022-10-29T10:00:57.000Z</time>
      </trkpt>
      <trkpt lat="27.777818" lon="86.721862">
        <ele>2809.6</ele>
        <time>2022-10-29T10:01:00.000Z</time>
      </trkpt>
      <trkpt lat="27.777786" lon="86.72185">
        <ele>2809.8</ele>
        <time>2022-10-29T10:01:02.000Z</time>
      </trkpt>
      <trkpt lat="27.777766" lon="86.721837">
        <ele>2809.6</ele>
        <time>2022-10-29T10:01:04.000Z</time>
      </trkpt>
      <trkpt lat="27.77775" lon="86.721818">
        <ele>2808.2</ele>
        <time>2022-10-29T10:01:07.000Z</time>
      </trkpt>
      <trkpt lat="27.777725" lon="86.721805">
        <ele>2807.6</ele>
        <time>2022-10-29T10:01:10.000Z</time>
      </trkpt>
      <trkpt lat="27.777696" lon="86.721805">
        <ele>2806.8</ele>
        <time>2022-10-29T10:01:12.000Z</time>
      </trkpt>
      <trkpt lat="27.777677" lon="86.721792">
        <ele>2806.8</ele>
        <time>2022-10-29T10:01:14.000Z</time>
      </trkpt>
      <trkpt lat="27.777654" lon="86.721786">
        <ele>2806.4</ele>
        <time>2022-10-29T10:01:16.000Z</time>
      </trkpt>
      <trkpt lat="27.777638" lon="86.721773">
        <ele>2806</ele>
        <time>2022-10-29T10:01:18.000Z</time>
      </trkpt>
      <trkpt lat="27.777606" lon="86.721766">
        <ele>2806</ele>
        <time>2022-10-29T10:01:20.000Z</time>
      </trkpt>
      <trkpt lat="27.777622" lon="86.721728">
        <ele>2806</ele>
        <time>2022-10-29T10:01:22.000Z</time>
      </trkpt>
      <trkpt lat="27.77761" lon="86.721702">
        <ele>2806</ele>
        <time>2022-10-29T10:01:23.000Z</time>
      </trkpt>
      <trkpt lat="27.777594" lon="86.721677">
        <ele>2806</ele>
        <time>2022-10-29T10:01:26.000Z</time>
      </trkpt>
      <trkpt lat="27.777578" lon="86.721658">
        <ele>2806</ele>
        <time>2022-10-29T10:01:28.000Z</time>
      </trkpt>
      <trkpt lat="27.777558" lon="86.721696">
        <ele>2806</ele>
        <time>2022-10-29T10:01:37.000Z</time>
      </trkpt>
      <trkpt lat="27.777536" lon="86.721709">
        <ele>2806</ele>
        <time>2022-10-29T10:01:38.000Z</time>
      </trkpt>
      <trkpt lat="27.77753" lon="86.721728">
        <ele>2806.2</ele>
        <time>2022-10-29T10:01:40.000Z</time>
      </trkpt>
      <trkpt lat="27.777536" lon="86.721709">
        <ele>2806.2</ele>
        <time>2022-10-29T10:01:41.000Z</time>
      </trkpt>
      <trkpt lat="27.777552" lon="86.721728">
        <ele>2806.6</ele>
        <time>2022-10-29T10:01:50.000Z</time>
      </trkpt>
      <trkpt lat="27.777558" lon="86.721696">
        <ele>2806.6</ele>
        <time>2022-10-29T10:01:53.000Z</time>
      </trkpt>
      <trkpt lat="27.777578" lon="86.721696">
        <ele>2806.4</ele>
        <time>2022-10-29T10:01:56.000Z</time>
      </trkpt>
      <trkpt lat="27.777584" lon="86.721677">
        <ele>2805.6</ele>
        <time>2022-10-29T10:02:01.000Z</time>
      </trkpt>
      <trkpt lat="27.777606" lon="86.721664">
        <ele>2806.6</ele>
        <time>2022-10-29T10:02:12.000Z</time>
      </trkpt>
      <trkpt lat="27.777629" lon="86.721651">
        <ele>2806</ele>
        <time>2022-10-29T10:02:19.000Z</time>
      </trkpt>
      <trkpt lat="27.777642" lon="86.721632">
        <ele>2806</ele>
        <time>2022-10-29T10:02:21.000Z</time>
      </trkpt>
      <trkpt lat="27.777661" lon="86.721632">
        <ele>2806</ele>
        <time>2022-10-29T10:02:26.000Z</time>
      </trkpt>
      <trkpt lat="27.777677" lon="86.721658">
        <ele>2806</ele>
        <time>2022-10-29T10:02:27.000Z</time>
      </trkpt>
      <trkpt lat="27.777696" lon="86.721651">
        <ele>2806.2</ele>
        <time>2022-10-29T10:02:29.000Z</time>
      </trkpt>
      <trkpt lat="27.777702" lon="86.721632">
        <ele>2806.2</ele>
        <time>2022-10-29T10:02:32.000Z</time>
      </trkpt>
      <trkpt lat="27.777693" lon="86.721606">
        <ele>2805.8</ele>
        <time>2022-10-29T10:02:40.000Z</time>
      </trkpt>
      <trkpt lat="27.777677" lon="86.721594">
        <ele>2805.6</ele>
        <time>2022-10-29T10:02:47.000Z</time>
      </trkpt>
      <trkpt lat="27.777661" lon="86.721606">
        <ele>2805.2</ele>
        <time>2022-10-29T10:02:55.000Z</time>
      </trkpt>
      <trkpt lat="27.777658" lon="86.721581">
        <ele>2805</ele>
        <time>2022-10-29T10:03:03.000Z</time>
      </trkpt>
      <trkpt lat="27.777658" lon="86.721555">
        <ele>2805.8</ele>
        <time>2022-10-29T10:03:11.000Z</time>
      </trkpt>
      <trkpt lat="27.777677" lon="86.721542">
        <ele>2805.6</ele>
        <time>2022-10-29T10:03:16.000Z</time>
      </trkpt>
      <trkpt lat="27.777677" lon="86.721568">
        <ele>2805.8</ele>
        <time>2022-10-29T10:03:24.000Z</time>
      </trkpt>
      <trkpt lat="27.777664" lon="86.721587">
        <ele>2805.4</ele>
        <time>2022-10-29T10:03:30.000Z</time>
      </trkpt>
      <trkpt lat="27.777613" lon="86.721574">
        <ele>2805.8</ele>
        <time>2022-10-29T10:04:16.000Z</time>
      </trkpt>
      <trkpt lat="27.777619" lon="86.721555">
        <ele>2805.6</ele>
        <time>2022-10-29T10:04:46.000Z</time>
      </trkpt>
      <trkpt lat="27.777597" lon="86.721549">
        <ele>2805.8</ele>
        <time>2022-10-29T10:05:04.000Z</time>
      </trkpt>
      <trkpt lat="27.777584" lon="86.721568">
        <ele>2806</ele>
        <time>2022-10-29T10:05:08.000Z</time>
      </trkpt>
      <trkpt lat="27.777562" lon="86.721568">
        <ele>2805.8</ele>
        <time>2022-10-29T10:05:11.000Z</time>
      </trkpt>
      <trkpt lat="27.777542" lon="86.721568">
        <ele>2805.8</ele>
        <time>2022-10-29T10:05:21.000Z</time>
      </trkpt>
      <trkpt lat="27.777562" lon="86.721574">
        <ele>2805.8</ele>
        <time>2022-10-29T10:05:48.000Z</time>
      </trkpt>
      <trkpt lat="27.777584" lon="86.721581">
        <ele>2806.6</ele>
        <time>2022-10-29T10:05:57.000Z</time>
      </trkpt>
      <trkpt lat="27.77761" lon="86.721574">
        <ele>2805.8</ele>
        <time>2022-10-29T10:06:13.000Z</time>
      </trkpt>
      <trkpt lat="27.77761" lon="86.721549">
        <ele>2806.2</ele>
        <time>2022-10-29T10:06:17.000Z</time>
      </trkpt>
      <trkpt lat="27.777629" lon="86.721549">
        <ele>2805.6</ele>
        <time>2022-10-29T10:06:27.000Z</time>
      </trkpt>
      <trkpt lat="27.777606" lon="86.721549">
        <ele>2806</ele>
        <time>2022-10-29T10:06:42.000Z</time>
      </trkpt>
      <trkpt lat="27.777587" lon="86.721568">
        <ele>2805.6</ele>
        <time>2022-10-29T10:06:45.000Z</time>
      </trkpt>
      <trkpt lat="27.777606" lon="86.721574">
        <ele>2806.2</ele>
        <time>2022-10-29T10:07:00.000Z</time>
      </trkpt>
      <trkpt lat="27.7776" lon="86.721594">
        <ele>2806</ele>
        <time>2022-10-29T10:07:23.000Z</time>
      </trkpt>
      <trkpt lat="27.777584" lon="86.721606">
        <ele>2806</ele>
        <time>2022-10-29T10:07:52.000Z</time>
      </trkpt>
      <trkpt lat="27.77761" lon="86.721594">
        <ele>2806</ele>
        <time>2022-10-29T10:08:04.000Z</time>
      </trkpt>
      <trkpt lat="27.777626" lon="86.721581">
        <ele>2806.2</ele>
        <time>2022-10-29T10:08:08.000Z</time>
      </trkpt>
      <trkpt lat="27.777642" lon="86.721568">
        <ele>2806.2</ele>
        <time>2022-10-29T10:08:15.000Z</time>
      </trkpt>
      <trkpt lat="27.777648" lon="86.721549">
        <ele>2806</ele>
        <time>2022-10-29T10:08:16.000Z</time>
      </trkpt>
      <trkpt lat="27.777626" lon="86.721549">
        <ele>2806</ele>
        <time>2022-10-29T10:08:20.000Z</time>
      </trkpt>
      <trkpt lat="27.777613" lon="86.72153">
        <ele>2806.4</ele>
        <time>2022-10-29T10:08:22.000Z</time>
      </trkpt>
      <trkpt lat="27.777597" lon="86.72151">
        <ele>2806.2</ele>
        <time>2022-10-29T10:08:26.000Z</time>
      </trkpt>
      <trkpt lat="27.777571" lon="86.721517">
        <ele>2806.2</ele>
        <time>2022-10-29T10:08:28.000Z</time>
      </trkpt>
      <trkpt lat="27.777546" lon="86.721517">
        <ele>2806.2</ele>
        <time>2022-10-29T10:08:30.000Z</time>
      </trkpt>
      <trkpt lat="27.77753" lon="86.72153">
        <ele>2806.4</ele>
        <time>2022-10-29T10:08:32.000Z</time>
      </trkpt>
      <trkpt lat="27.77751" lon="86.721536">
        <ele>2807.4</ele>
        <time>2022-10-29T10:08:36.000Z</time>
      </trkpt>
      <trkpt lat="27.777504" lon="86.721517">
        <ele>2808</ele>
        <time>2022-10-29T10:08:41.000Z</time>
      </trkpt>
      <trkpt lat="27.777478" lon="86.72153">
        <ele>2809.2</ele>
        <time>2022-10-29T10:08:47.000Z</time>
      </trkpt>
      <trkpt lat="27.777456" lon="86.721536">
        <ele>2810.4</ele>
        <time>2022-10-29T10:08:52.000Z</time>
      </trkpt>
      <trkpt lat="27.77745" lon="86.721555">
        <ele>2810.8</ele>
        <time>2022-10-29T10:08:54.000Z</time>
      </trkpt>
      <trkpt lat="27.77743" lon="86.721536">
        <ele>2811.8</ele>
        <time>2022-10-29T10:08:59.000Z</time>
      </trkpt>
      <trkpt lat="27.777414" lon="86.721517">
        <ele>2812.4</ele>
        <time>2022-10-29T10:09:02.000Z</time>
      </trkpt>
      <trkpt lat="27.777405" lon="86.721498">
        <ele>2813</ele>
        <time>2022-10-29T10:09:05.000Z</time>
      </trkpt>
      <trkpt lat="27.777398" lon="86.721472">
        <ele>2813.8</ele>
        <time>2022-10-29T10:09:07.000Z</time>
      </trkpt>
      <trkpt lat="27.777379" lon="86.72144">
        <ele>2814.6</ele>
        <time>2022-10-29T10:09:10.000Z</time>
      </trkpt>
      <trkpt lat="27.777373" lon="86.721421">
        <ele>2814.6</ele>
        <time>2022-10-29T10:09:11.000Z</time>
      </trkpt>
      <trkpt lat="27.777347" lon="86.721395">
        <ele>2815</ele>
        <time>2022-10-29T10:09:14.000Z</time>
      </trkpt>
      <trkpt lat="27.777334" lon="86.721376">
        <ele>2815.2</ele>
        <time>2022-10-29T10:09:15.000Z</time>
      </trkpt>
      <trkpt lat="27.777357" lon="86.72135">
        <ele>2816.2</ele>
        <time>2022-10-29T10:09:19.000Z</time>
      </trkpt>
      <trkpt lat="27.777344" lon="86.721331">
        <ele>2816.2</ele>
        <time>2022-10-29T10:09:22.000Z</time>
      </trkpt>
      <trkpt lat="27.777322" lon="86.721312">
        <ele>2816.2</ele>
        <time>2022-10-29T10:09:25.000Z</time>
      </trkpt>
      <trkpt lat="27.777306" lon="86.721331">
        <ele>2816.4</ele>
        <time>2022-10-29T10:09:27.000Z</time>
      </trkpt>
      <trkpt lat="27.777299" lon="86.721357">
        <ele>2816.6</ele>
        <time>2022-10-29T10:09:29.000Z</time>
      </trkpt>
      <trkpt lat="27.777299" lon="86.721395">
        <ele>2816.8</ele>
        <time>2022-10-29T10:09:31.000Z</time>
      </trkpt>
      <trkpt lat="27.777293" lon="86.721414">
        <ele>2816.8</ele>
        <time>2022-10-29T10:09:32.000Z</time>
      </trkpt>
      <trkpt lat="27.777277" lon="86.721427">
        <ele>2816.8</ele>
        <time>2022-10-29T10:09:34.000Z</time>
      </trkpt>
      <trkpt lat="27.77727" lon="86.721453">
        <ele>2817.6</ele>
        <time>2022-10-29T10:09:37.000Z</time>
      </trkpt>
      <trkpt lat="27.777264" lon="86.721478">
        <ele>2817</ele>
        <time>2022-10-29T10:09:41.000Z</time>
      </trkpt>
      <trkpt lat="27.777235" lon="86.721498">
        <ele>2817</ele>
        <time>2022-10-29T10:09:43.000Z</time>
      </trkpt>
      <trkpt lat="27.777235" lon="86.721472">
        <ele>2817.6</ele>
        <time>2022-10-29T10:09:50.000Z</time>
      </trkpt>
      <trkpt lat="27.777229" lon="86.721453">
        <ele>2817.4</ele>
        <time>2022-10-29T10:09:54.000Z</time>
      </trkpt>
      <trkpt lat="27.777213" lon="86.721434">
        <ele>2817.2</ele>
        <time>2022-10-29T10:10:03.000Z</time>
      </trkpt>
      <trkpt lat="27.777194" lon="86.721421">
        <ele>2817.6</ele>
        <time>2022-10-29T10:10:07.000Z</time>
      </trkpt>
      <trkpt lat="27.777171" lon="86.721414">
        <ele>2817.8</ele>
        <time>2022-10-29T10:10:09.000Z</time>
      </trkpt>
      <trkpt lat="27.777152" lon="86.721408">
        <ele>2818.4</ele>
        <time>2022-10-29T10:10:11.000Z</time>
      </trkpt>
      <trkpt lat="27.777126" lon="86.721389">
        <ele>2818.4</ele>
        <time>2022-10-29T10:10:13.000Z</time>
      </trkpt>
      <trkpt lat="27.777123" lon="86.72135">
        <ele>2818.8</ele>
        <time>2022-10-29T10:10:16.000Z</time>
      </trkpt>
      <trkpt lat="27.777101" lon="86.721344">
        <ele>2818.8</ele>
        <time>2022-10-29T10:10:19.000Z</time>
      </trkpt>
      <trkpt lat="27.777075" lon="86.72135">
        <ele>2819.2</ele>
        <time>2022-10-29T10:10:22.000Z</time>
      </trkpt>
      <trkpt lat="27.777066" lon="86.721312">
        <ele>2819.8</ele>
        <time>2022-10-29T10:10:24.000Z</time>
      </trkpt>
      <trkpt lat="27.777046" lon="86.721299">
        <ele>2820.4</ele>
        <time>2022-10-29T10:10:29.000Z</time>
      </trkpt>
      <trkpt lat="27.777027" lon="86.721293">
        <ele>2820.6</ele>
        <time>2022-10-29T10:10:31.000Z</time>
      </trkpt>
      <trkpt lat="27.777021" lon="86.721274">
        <ele>2820.8</ele>
        <time>2022-10-29T10:10:32.000Z</time>
      </trkpt>
      <trkpt lat="27.777011" lon="86.721254">
        <ele>2821.6</ele>
        <time>2022-10-29T10:10:35.000Z</time>
      </trkpt>
      <trkpt lat="27.777002" lon="86.721229">
        <ele>2822</ele>
        <time>2022-10-29T10:10:37.000Z</time>
      </trkpt>
      <trkpt lat="27.776982" lon="86.721222">
        <ele>2822.2</ele>
        <time>2022-10-29T10:10:40.000Z</time>
      </trkpt>
      <trkpt lat="27.776963" lon="86.721248">
        <ele>2822.4</ele>
        <time>2022-10-29T10:10:44.000Z</time>
      </trkpt>
      <trkpt lat="27.776944" lon="86.721261">
        <ele>2821.4</ele>
        <time>2022-10-29T10:10:49.000Z</time>
      </trkpt>
      <trkpt lat="27.776925" lon="86.72128">
        <ele>2820.6</ele>
        <time>2022-10-29T10:10:53.000Z</time>
      </trkpt>
      <trkpt lat="27.776918" lon="86.721306">
        <ele>2820.4</ele>
        <time>2022-10-29T10:10:56.000Z</time>
      </trkpt>
      <trkpt lat="27.776912" lon="86.721338">
        <ele>2819.6</ele>
        <time>2022-10-29T10:10:58.000Z</time>
      </trkpt>
      <trkpt lat="27.776886" lon="86.72137">
        <ele>2819.6</ele>
        <time>2022-10-29T10:11:00.000Z</time>
      </trkpt>
      <trkpt lat="27.776906" lon="86.72135">
        <ele>2819.4</ele>
        <time>2022-10-29T10:11:02.000Z</time>
      </trkpt>
      <trkpt lat="27.776902" lon="86.721376">
        <ele>2819.4</ele>
        <time>2022-10-29T10:11:12.000Z</time>
      </trkpt>
      <trkpt lat="27.776883" lon="86.721382">
        <ele>2819.2</ele>
        <time>2022-10-29T10:11:16.000Z</time>
      </trkpt>
      <trkpt lat="27.776864" lon="86.721408">
        <ele>2818.6</ele>
        <time>2022-10-29T10:11:25.000Z</time>
      </trkpt>
      <trkpt lat="27.776845" lon="86.721421">
        <ele>2818.4</ele>
        <time>2022-10-29T10:11:34.000Z</time>
      </trkpt>
      <trkpt lat="27.776838" lon="86.72144">
        <ele>2818.4</ele>
        <time>2022-10-29T10:11:36.000Z</time>
      </trkpt>
      <trkpt lat="27.776832" lon="86.721459">
        <ele>2818.2</ele>
        <time>2022-10-29T10:11:44.000Z</time>
      </trkpt>
      <trkpt lat="27.776819" lon="86.721478">
        <ele>2817</ele>
        <time>2022-10-29T10:12:09.000Z</time>
      </trkpt>
      <trkpt lat="27.77681" lon="86.721504">
        <ele>2816.4</ele>
        <time>2022-10-29T10:12:14.000Z</time>
      </trkpt>
      <trkpt lat="27.776797" lon="86.721536">
        <ele>2816.4</ele>
        <time>2022-10-29T10:12:27.000Z</time>
      </trkpt>
      <trkpt lat="27.776778" lon="86.721568">
        <ele>2816</ele>
        <time>2022-10-29T10:12:29.000Z</time>
      </trkpt>
      <trkpt lat="27.776758" lon="86.721587">
        <ele>2815.8</ele>
        <time>2022-10-29T10:12:31.000Z</time>
      </trkpt>
      <trkpt lat="27.776749" lon="86.721619">
        <ele>2815.8</ele>
        <time>2022-10-29T10:12:33.000Z</time>
      </trkpt>
      <trkpt lat="27.776726" lon="86.721638">
        <ele>2815.8</ele>
        <time>2022-10-29T10:12:35.000Z</time>
      </trkpt>
      <trkpt lat="27.776717" lon="86.72167">
        <ele>2815.8</ele>
        <time>2022-10-29T10:12:37.000Z</time>
      </trkpt>
      <trkpt lat="27.776704" lon="86.721696">
        <ele>2815.8</ele>
        <time>2022-10-29T10:12:39.000Z</time>
      </trkpt>
      <trkpt lat="27.776688" lon="86.721728">
        <ele>2815.6</ele>
        <time>2022-10-29T10:12:42.000Z</time>
      </trkpt>
      <trkpt lat="27.776678" lon="86.721747">
        <ele>2815.8</ele>
        <time>2022-10-29T10:12:44.000Z</time>
      </trkpt>
      <trkpt lat="27.776672" lon="86.721766">
        <ele>2815.8</ele>
        <time>2022-10-29T10:12:46.000Z</time>
      </trkpt>
      <trkpt lat="27.776662" lon="86.721786">
        <ele>2815.4</ele>
        <time>2022-10-29T10:12:48.000Z</time>
      </trkpt>
      <trkpt lat="27.776653" lon="86.721805">
        <ele>2815.4</ele>
        <time>2022-10-29T10:12:50.000Z</time>
      </trkpt>
      <trkpt lat="27.776634" lon="86.721824">
        <ele>2815.6</ele>
        <time>2022-10-29T10:12:52.000Z</time>
      </trkpt>
      <trkpt lat="27.776618" lon="86.721837">
        <ele>2815.8</ele>
        <time>2022-10-29T10:12:54.000Z</time>
      </trkpt>
      <trkpt lat="27.776608" lon="86.721862">
        <ele>2815.6</ele>
        <time>2022-10-29T10:12:56.000Z</time>
      </trkpt>
      <trkpt lat="27.776618" lon="86.721894">
        <ele>2816.4</ele>
        <time>2022-10-29T10:13:06.000Z</time>
      </trkpt>
      <trkpt lat="27.776598" lon="86.721914">
        <ele>2816</ele>
        <time>2022-10-29T10:13:09.000Z</time>
      </trkpt>
      <trkpt lat="27.776589" lon="86.721933">
        <ele>2816</ele>
        <time>2022-10-29T10:13:11.000Z</time>
      </trkpt>
      <trkpt lat="27.776576" lon="86.721965">
        <ele>2816.4</ele>
        <time>2022-10-29T10:13:14.000Z</time>
      </trkpt>
      <trkpt lat="27.776566" lon="86.721984">
        <ele>2817</ele>
        <time>2022-10-29T10:13:17.000Z</time>
      </trkpt>
      <trkpt lat="27.77656" lon="86.722003">
        <ele>2817.4</ele>
        <time>2022-10-29T10:13:19.000Z</time>
      </trkpt>
      <trkpt lat="27.776554" lon="86.722022">
        <ele>2817.6</ele>
        <time>2022-10-29T10:13:21.000Z</time>
      </trkpt>
      <trkpt lat="27.776541" lon="86.722048">
        <ele>2817.8</ele>
        <time>2022-10-29T10:13:24.000Z</time>
      </trkpt>
      <trkpt lat="27.776528" lon="86.722067">
        <ele>2818.2</ele>
        <time>2022-10-29T10:13:26.000Z</time>
      </trkpt>
      <trkpt lat="27.776515" lon="86.722093">
        <ele>2818.4</ele>
        <time>2022-10-29T10:13:28.000Z</time>
      </trkpt>
      <trkpt lat="27.776506" lon="86.722112">
        <ele>2818.4</ele>
        <time>2022-10-29T10:13:30.000Z</time>
      </trkpt>
      <trkpt lat="27.776496" lon="86.722131">
        <ele>2818.8</ele>
        <time>2022-10-29T10:13:33.000Z</time>
      </trkpt>
      <trkpt lat="27.776474" lon="86.722144">
        <ele>2819.2</ele>
        <time>2022-10-29T10:13:35.000Z</time>
      </trkpt>
      <trkpt lat="27.776464" lon="86.722163">
        <ele>2819.4</ele>
        <time>2022-10-29T10:13:36.000Z</time>
      </trkpt>
      <trkpt lat="27.776454" lon="86.722182">
        <ele>2820.2</ele>
        <time>2022-10-29T10:13:41.000Z</time>
      </trkpt>
      <trkpt lat="27.776435" lon="86.722189">
        <ele>2820.6</ele>
        <time>2022-10-29T10:13:44.000Z</time>
      </trkpt>
      <trkpt lat="27.776416" lon="86.722202">
        <ele>2821.2</ele>
        <time>2022-10-29T10:13:46.000Z</time>
      </trkpt>
      <trkpt lat="27.776397" lon="86.722202">
        <ele>2821.2</ele>
        <time>2022-10-29T10:13:49.000Z</time>
      </trkpt>
      <trkpt lat="27.776374" lon="86.722202">
        <ele>2821</ele>
        <time>2022-10-29T10:13:56.000Z</time>
      </trkpt>
      <trkpt lat="27.776358" lon="86.722182">
        <ele>2819.4</ele>
        <time>2022-10-29T10:14:05.000Z</time>
      </trkpt>
      <trkpt lat="27.776333" lon="86.72217">
        <ele>2818.2</ele>
        <time>2022-10-29T10:14:09.000Z</time>
      </trkpt>
      <trkpt lat="27.77631" lon="86.72217">
        <ele>2817.6</ele>
        <time>2022-10-29T10:14:12.000Z</time>
      </trkpt>
      <trkpt lat="27.776304" lon="86.72215">
        <ele>2817.2</ele>
        <time>2022-10-29T10:14:16.000Z</time>
      </trkpt>
      <trkpt lat="27.776298" lon="86.722131">
        <ele>2816.4</ele>
        <time>2022-10-29T10:14:25.000Z</time>
      </trkpt>
      <trkpt lat="27.776278" lon="86.722144">
        <ele>2816.8</ele>
        <time>2022-10-29T10:14:27.000Z</time>
      </trkpt>
      <trkpt lat="27.776272" lon="86.722125">
        <ele>2816.4</ele>
        <time>2022-10-29T10:14:36.000Z</time>
      </trkpt>
      <trkpt lat="27.776278" lon="86.722099">
        <ele>2815.6</ele>
        <time>2022-10-29T10:14:39.000Z</time>
      </trkpt>
      <trkpt lat="27.776285" lon="86.722074">
        <ele>2815.2</ele>
        <time>2022-10-29T10:14:41.000Z</time>
      </trkpt>
      <trkpt lat="27.776269" lon="86.722061">
        <ele>2814.2</ele>
        <time>2022-10-29T10:14:45.000Z</time>
      </trkpt>
      <trkpt lat="27.77625" lon="86.722054">
        <ele>2814</ele>
        <time>2022-10-29T10:14:48.000Z</time>
      </trkpt>
      <trkpt lat="27.776224" lon="86.722074">
        <ele>2814.2</ele>
        <time>2022-10-29T10:14:50.000Z</time>
      </trkpt>
      <trkpt lat="27.776198" lon="86.722074">
        <ele>2814.4</ele>
        <time>2022-10-29T10:14:53.000Z</time>
      </trkpt>
      <trkpt lat="27.776173" lon="86.722074">
        <ele>2815.4</ele>
        <time>2022-10-29T10:14:56.000Z</time>
      </trkpt>
      <trkpt lat="27.776147" lon="86.722067">
        <ele>2815.4</ele>
        <time>2022-10-29T10:14:58.000Z</time>
      </trkpt>
      <trkpt lat="27.776118" lon="86.722061">
        <ele>2815.6</ele>
        <time>2022-10-29T10:15:00.000Z</time>
      </trkpt>
      <trkpt lat="27.776093" lon="86.722054">
        <ele>2815.8</ele>
        <time>2022-10-29T10:15:03.000Z</time>
      </trkpt>
      <trkpt lat="27.776067" lon="86.722048">
        <ele>2816.2</ele>
        <time>2022-10-29T10:15:05.000Z</time>
      </trkpt>
      <trkpt lat="27.776029" lon="86.722029">
        <ele>2816.8</ele>
        <time>2022-10-29T10:15:10.000Z</time>
      </trkpt>
      <trkpt lat="27.776013" lon="86.72201">
        <ele>2816.8</ele>
        <time>2022-10-29T10:15:12.000Z</time>
      </trkpt>
      <trkpt lat="27.77599" lon="86.722003">
        <ele>2817.2</ele>
        <time>2022-10-29T10:15:15.000Z</time>
      </trkpt>
      <trkpt lat="27.775958" lon="86.72201">
        <ele>2817.2</ele>
        <time>2022-10-29T10:15:17.000Z</time>
      </trkpt>
      <trkpt lat="27.775933" lon="86.72201">
        <ele>2817.2</ele>
        <time>2022-10-29T10:15:20.000Z</time>
      </trkpt>
      <trkpt lat="27.77591" lon="86.722016">
        <ele>2817.4</ele>
        <time>2022-10-29T10:15:22.000Z</time>
      </trkpt>
      <trkpt lat="27.775882" lon="86.722022">
        <ele>2818</ele>
        <time>2022-10-29T10:15:25.000Z</time>
      </trkpt>
      <trkpt lat="27.775862" lon="86.722003">
        <ele>2818</ele>
        <time>2022-10-29T10:15:29.000Z</time>
      </trkpt>
      <trkpt lat="27.775843" lon="86.722003">
        <ele>2817.8</ele>
        <time>2022-10-29T10:15:33.000Z</time>
      </trkpt>
      <trkpt lat="27.775834" lon="86.721984">
        <ele>2818.2</ele>
        <time>2022-10-29T10:15:35.000Z</time>
      </trkpt>
      <trkpt lat="27.775814" lon="86.721984">
        <ele>2818.2</ele>
        <time>2022-10-29T10:15:37.000Z</time>
      </trkpt>
      <trkpt lat="27.775782" lon="86.721978">
        <ele>2818.4</ele>
        <time>2022-10-29T10:15:40.000Z</time>
      </trkpt>
      <trkpt lat="27.775757" lon="86.721971">
        <ele>2818.2</ele>
        <time>2022-10-29T10:15:42.000Z</time>
      </trkpt>
      <trkpt lat="27.775728" lon="86.721971">
        <ele>2818.6</ele>
        <time>2022-10-29T10:15:45.000Z</time>
      </trkpt>
      <trkpt lat="27.775696" lon="86.721971">
        <ele>2819.2</ele>
        <time>2022-10-29T10:15:47.000Z</time>
      </trkpt>
      <trkpt lat="27.77567" lon="86.721965">
        <ele>2819</ele>
        <time>2022-10-29T10:15:49.000Z</time>
      </trkpt>
      <trkpt lat="27.775651" lon="86.721978">
        <ele>2819</ele>
        <time>2022-10-29T10:15:52.000Z</time>
      </trkpt>
      <trkpt lat="27.775632" lon="86.721978">
        <ele>2819.2</ele>
        <time>2022-10-29T10:15:54.000Z</time>
      </trkpt>
      <trkpt lat="27.775606" lon="86.721971">
        <ele>2819.6</ele>
        <time>2022-10-29T10:15:58.000Z</time>
      </trkpt>
      <trkpt lat="27.775584" lon="86.721978">
        <ele>2820.2</ele>
        <time>2022-10-29T10:16:03.000Z</time>
      </trkpt>
      <trkpt lat="27.775558" lon="86.721984">
        <ele>2820.6</ele>
        <time>2022-10-29T10:16:07.000Z</time>
      </trkpt>
      <trkpt lat="27.775539" lon="86.72199">
        <ele>2820.6</ele>
        <time>2022-10-29T10:16:10.000Z</time>
      </trkpt>
      <trkpt lat="27.775514" lon="86.72199">
        <ele>2821</ele>
        <time>2022-10-29T10:16:13.000Z</time>
      </trkpt>
      <trkpt lat="27.775501" lon="86.72201">
        <ele>2821</ele>
        <time>2022-10-29T10:16:15.000Z</time>
      </trkpt>
      <trkpt lat="27.775482" lon="86.72201">
        <ele>2821.4</ele>
        <time>2022-10-29T10:16:18.000Z</time>
      </trkpt>
      <trkpt lat="27.775459" lon="86.72201">
        <ele>2821.4</ele>
        <time>2022-10-29T10:16:20.000Z</time>
      </trkpt>
      <trkpt lat="27.77543" lon="86.722016">
        <ele>2821.4</ele>
        <time>2022-10-29T10:16:23.000Z</time>
      </trkpt>
      <trkpt lat="27.775405" lon="86.72201">
        <ele>2821.8</ele>
        <time>2022-10-29T10:16:26.000Z</time>
      </trkpt>
      <trkpt lat="27.775382" lon="86.722016">
        <ele>2822</ele>
        <time>2022-10-29T10:16:29.000Z</time>
      </trkpt>
      <trkpt lat="27.775357" lon="86.722016">
        <ele>2822.4</ele>
        <time>2022-10-29T10:16:33.000Z</time>
      </trkpt>
      <trkpt lat="27.775338" lon="86.722016">
        <ele>2822.6</ele>
        <time>2022-10-29T10:16:35.000Z</time>
      </trkpt>
      <trkpt lat="27.775318" lon="86.722003">
        <ele>2823</ele>
        <time>2022-10-29T10:16:39.000Z</time>
      </trkpt>
      <trkpt lat="27.775302" lon="86.72199">
        <ele>2823.8</ele>
        <time>2022-10-29T10:16:41.000Z</time>
      </trkpt>
      <trkpt lat="27.775283" lon="86.722003">
        <ele>2824</ele>
        <time>2022-10-29T10:16:43.000Z</time>
      </trkpt>
      <trkpt lat="27.775274" lon="86.722022">
        <ele>2824.2</ele>
        <time>2022-10-29T10:16:46.000Z</time>
      </trkpt>
      <trkpt lat="27.775254" lon="86.722022">
        <ele>2824.4</ele>
        <time>2022-10-29T10:16:48.000Z</time>
      </trkpt>
      <trkpt lat="27.775235" lon="86.722016">
        <ele>2824.8</ele>
        <time>2022-10-29T10:16:51.000Z</time>
      </trkpt>
      <trkpt lat="27.775216" lon="86.722029">
        <ele>2825.8</ele>
        <time>2022-10-29T10:16:57.000Z</time>
      </trkpt>
      <trkpt lat="27.775206" lon="86.722048">
        <ele>2826.2</ele>
        <time>2022-10-29T10:17:00.000Z</time>
      </trkpt>
      <trkpt lat="27.775187" lon="86.722048">
        <ele>2826.6</ele>
        <time>2022-10-29T10:17:03.000Z</time>
      </trkpt>
      <trkpt lat="27.775171" lon="86.722035">
        <ele>2827</ele>
        <time>2022-10-29T10:17:06.000Z</time>
      </trkpt>
      <trkpt lat="27.775152" lon="86.722048">
        <ele>2827.2</ele>
        <time>2022-10-29T10:17:09.000Z</time>
      </trkpt>
      <trkpt lat="27.775133" lon="86.722035">
        <ele>2827.4</ele>
        <time>2022-10-29T10:17:11.000Z</time>
      </trkpt>
      <trkpt lat="27.77511" lon="86.722035">
        <ele>2827.8</ele>
        <time>2022-10-29T10:17:13.000Z</time>
      </trkpt>
      <trkpt lat="27.775088" lon="86.722035">
        <ele>2828.2</ele>
        <time>2022-10-29T10:17:17.000Z</time>
      </trkpt>
      <trkpt lat="27.775059" lon="86.722022">
        <ele>2828.2</ele>
        <time>2022-10-29T10:17:20.000Z</time>
      </trkpt>
      <trkpt lat="27.77504" lon="86.722016">
        <ele>2828.4</ele>
        <time>2022-10-29T10:17:22.000Z</time>
      </trkpt>
      <trkpt lat="27.775011" lon="86.72201">
        <ele>2828.6</ele>
        <time>2022-10-29T10:17:24.000Z</time>
      </trkpt>
      <trkpt lat="27.774992" lon="86.722016">
        <ele>2829</ele>
        <time>2022-10-29T10:17:26.000Z</time>
      </trkpt>
      <trkpt lat="27.774973" lon="86.722016">
        <ele>2829.2</ele>
        <time>2022-10-29T10:17:27.000Z</time>
      </trkpt>
      <trkpt lat="27.774947" lon="86.722016">
        <ele>2829.6</ele>
        <time>2022-10-29T10:17:29.000Z</time>
      </trkpt>
      <trkpt lat="27.774918" lon="86.72201">
        <ele>2829.6</ele>
        <time>2022-10-29T10:17:31.000Z</time>
      </trkpt>
      <trkpt lat="27.774896" lon="86.722016">
        <ele>2829.8</ele>
        <time>2022-10-29T10:17:33.000Z</time>
      </trkpt>
      <trkpt lat="27.774877" lon="86.722022">
        <ele>2830</ele>
        <time>2022-10-29T10:17:35.000Z</time>
      </trkpt>
      <trkpt lat="27.774851" lon="86.722016">
        <ele>2830.4</ele>
        <time>2022-10-29T10:17:38.000Z</time>
      </trkpt>
      <trkpt lat="27.774829" lon="86.722003">
        <ele>2830.8</ele>
        <time>2022-10-29T10:17:41.000Z</time>
      </trkpt>
      <trkpt lat="27.77481" lon="86.722003">
        <ele>2831</ele>
        <time>2022-10-29T10:17:44.000Z</time>
      </trkpt>
      <trkpt lat="27.774787" lon="86.722003">
        <ele>2831.2</ele>
        <time>2022-10-29T10:17:47.000Z</time>
      </trkpt>
      <trkpt lat="27.774762" lon="86.722003">
        <ele>2831.8</ele>
        <time>2022-10-29T10:17:51.000Z</time>
      </trkpt>
      <trkpt lat="27.774752" lon="86.721984">
        <ele>2832.2</ele>
        <time>2022-10-29T10:17:53.000Z</time>
      </trkpt>
      <trkpt lat="27.774733" lon="86.721984">
        <ele>2832.4</ele>
        <time>2022-10-29T10:17:55.000Z</time>
      </trkpt>
      <trkpt lat="27.77471" lon="86.72199">
        <ele>2832.6</ele>
        <time>2022-10-29T10:17:57.000Z</time>
      </trkpt>
      <trkpt lat="27.774694" lon="86.72201">
        <ele>2832.6</ele>
        <time>2022-10-29T10:17:58.000Z</time>
      </trkpt>
      <trkpt lat="27.774688" lon="86.721984">
        <ele>2833.2</ele>
        <time>2022-10-29T10:18:01.000Z</time>
      </trkpt>
      <trkpt lat="27.774669" lon="86.721978">
        <ele>2834.2</ele>
        <time>2022-10-29T10:18:05.000Z</time>
      </trkpt>
      <trkpt lat="27.774646" lon="86.721978">
        <ele>2834.8</ele>
        <time>2022-10-29T10:18:11.000Z</time>
      </trkpt>
      <trkpt lat="27.774627" lon="86.721984">
        <ele>2835</ele>
        <time>2022-10-29T10:18:14.000Z</time>
      </trkpt>
      <trkpt lat="27.774605" lon="86.721971">
        <ele>2835.4</ele>
        <time>2022-10-29T10:18:17.000Z</time>
      </trkpt>
      <trkpt lat="27.774586" lon="86.721984">
        <ele>2835.6</ele>
        <time>2022-10-29T10:18:19.000Z</time>
      </trkpt>
      <trkpt lat="27.774579" lon="86.722003">
        <ele>2835.8</ele>
        <time>2022-10-29T10:18:21.000Z</time>
      </trkpt>
      <trkpt lat="27.774573" lon="86.722022">
        <ele>2836</ele>
        <time>2022-10-29T10:18:23.000Z</time>
      </trkpt>
      <trkpt lat="27.77455" lon="86.722022">
        <ele>2836.4</ele>
        <time>2022-10-29T10:18:26.000Z</time>
      </trkpt>
      <trkpt lat="27.774534" lon="86.72201">
        <ele>2836.6</ele>
        <time>2022-10-29T10:18:28.000Z</time>
      </trkpt>
      <trkpt lat="27.774518" lon="86.722022">
        <ele>2837.6</ele>
        <time>2022-10-29T10:18:36.000Z</time>
      </trkpt>
      <trkpt lat="27.774525" lon="86.722003">
        <ele>2837.8</ele>
        <time>2022-10-29T10:18:39.000Z</time>
      </trkpt>
      <trkpt lat="27.774509" lon="86.72199">
        <ele>2839.6</ele>
        <time>2022-10-29T10:18:50.000Z</time>
      </trkpt>
      <trkpt lat="27.77449" lon="86.721978">
        <ele>2840.6</ele>
        <time>2022-10-29T10:18:58.000Z</time>
      </trkpt>
      <trkpt lat="27.774467" lon="86.721971">
        <ele>2842.2</ele>
        <time>2022-10-29T10:19:07.000Z</time>
      </trkpt>
      <trkpt lat="27.774445" lon="86.721971">
        <ele>2843</ele>
        <time>2022-10-29T10:19:10.000Z</time>
      </trkpt>
      <trkpt lat="27.774438" lon="86.721952">
        <ele>2843.8</ele>
        <time>2022-10-29T10:19:15.000Z</time>
      </trkpt>
      <trkpt lat="27.774419" lon="86.721946">
        <ele>2844.2</ele>
        <time>2022-10-29T10:19:20.000Z</time>
      </trkpt>
      <trkpt lat="27.774429" lon="86.721965">
        <ele>2845.2</ele>
        <time>2022-10-29T10:19:27.000Z</time>
      </trkpt>
      <trkpt lat="27.774451" lon="86.721984">
        <ele>2846.6</ele>
        <time>2022-10-29T10:19:32.000Z</time>
      </trkpt>
      <trkpt lat="27.774458" lon="86.722003">
        <ele>2847</ele>
        <time>2022-10-29T10:19:35.000Z</time>
      </trkpt>
      <trkpt lat="27.774474" lon="86.722022">
        <ele>2847.2</ele>
        <time>2022-10-29T10:19:39.000Z</time>
      </trkpt>
      <trkpt lat="27.774493" lon="86.722029">
        <ele>2847.4</ele>
        <time>2022-10-29T10:19:41.000Z</time>
      </trkpt>
      <trkpt lat="27.774512" lon="86.722035">
        <ele>2848.2</ele>
        <time>2022-10-29T10:19:45.000Z</time>
      </trkpt>
      <trkpt lat="27.774512" lon="86.72201">
        <ele>2848.6</ele>
        <time>2022-10-29T10:19:49.000Z</time>
      </trkpt>
      <trkpt lat="27.774531" lon="86.722003">
        <ele>2849</ele>
        <time>2022-10-29T10:19:56.000Z</time>
      </trkpt>
      <trkpt lat="27.774547" lon="86.722022">
        <ele>2848.8</ele>
        <time>2022-10-29T10:20:00.000Z</time>
      </trkpt>
      <trkpt lat="27.774522" lon="86.722029">
        <ele>2849</ele>
        <time>2022-10-29T10:20:03.000Z</time>
      </trkpt>
      <trkpt lat="27.774518" lon="86.722054">
        <ele>2850</ele>
        <time>2022-10-29T10:20:06.000Z</time>
      </trkpt>
      <trkpt lat="27.774502" lon="86.722067">
        <ele>2850.2</ele>
        <time>2022-10-29T10:20:15.000Z</time>
      </trkpt>
      <trkpt lat="27.774483" lon="86.722067">
        <ele>2851.2</ele>
        <time>2022-10-29T10:20:20.000Z</time>
      </trkpt>
      <trkpt lat="27.774461" lon="86.722067">
        <ele>2851.6</ele>
        <time>2022-10-29T10:20:23.000Z</time>
      </trkpt>
      <trkpt lat="27.774442" lon="86.722074">
        <ele>2852.4</ele>
        <time>2022-10-29T10:20:26.000Z</time>
      </trkpt>
      <trkpt lat="27.774422" lon="86.722061">
        <ele>2853</ele>
        <time>2022-10-29T10:20:31.000Z</time>
      </trkpt>
      <trkpt lat="27.774403" lon="86.722054">
        <ele>2853.4</ele>
        <time>2022-10-29T10:20:35.000Z</time>
      </trkpt>
      <trkpt lat="27.774384" lon="86.722061">
        <ele>2853.6</ele>
        <time>2022-10-29T10:20:39.000Z</time>
      </trkpt>
      <trkpt lat="27.774365" lon="86.722074">
        <ele>2854.4</ele>
        <time>2022-10-29T10:20:43.000Z</time>
      </trkpt>
      <trkpt lat="27.774349" lon="86.722086">
        <ele>2855.4</ele>
        <time>2022-10-29T10:20:48.000Z</time>
      </trkpt>
      <trkpt lat="27.77433" lon="86.722093">
        <ele>2856</ele>
        <time>2022-10-29T10:20:52.000Z</time>
      </trkpt>
      <trkpt lat="27.77431" lon="86.722093">
        <ele>2856.6</ele>
        <time>2022-10-29T10:20:55.000Z</time>
      </trkpt>
      <trkpt lat="27.774294" lon="86.722106">
        <ele>2857.4</ele>
        <time>2022-10-29T10:20:59.000Z</time>
      </trkpt>
      <trkpt lat="27.774275" lon="86.722112">
        <ele>2858.4</ele>
        <time>2022-10-29T10:21:06.000Z</time>
      </trkpt>
      <trkpt lat="27.774266" lon="86.722131">
        <ele>2859.2</ele>
        <time>2022-10-29T10:21:11.000Z</time>
      </trkpt>
      <trkpt lat="27.77425" lon="86.722144">
        <ele>2860</ele>
        <time>2022-10-29T10:21:17.000Z</time>
      </trkpt>
      <trkpt lat="27.77424" lon="86.722163">
        <ele>2861</ele>
        <time>2022-10-29T10:21:22.000Z</time>
      </trkpt>
      <trkpt lat="27.774221" lon="86.722176">
        <ele>2861.8</ele>
        <time>2022-10-29T10:21:28.000Z</time>
      </trkpt>
      <trkpt lat="27.774214" lon="86.722202">
        <ele>2863</ele>
        <time>2022-10-29T10:21:37.000Z</time>
      </trkpt>
      <trkpt lat="27.774205" lon="86.722221">
        <ele>2866.6</ele>
        <time>2022-10-29T10:22:00.000Z</time>
      </trkpt>
      <trkpt lat="27.774179" lon="86.722253">
        <ele>2867</ele>
        <time>2022-10-29T10:22:03.000Z</time>
      </trkpt>
      <trkpt lat="27.774163" lon="86.722266">
        <ele>2867.4</ele>
        <time>2022-10-29T10:22:05.000Z</time>
      </trkpt>
      <trkpt lat="27.774134" lon="86.722266">
        <ele>2867.8</ele>
        <time>2022-10-29T10:22:07.000Z</time>
      </trkpt>
      <trkpt lat="27.774112" lon="86.722272">
        <ele>2868.6</ele>
        <time>2022-10-29T10:22:09.000Z</time>
      </trkpt>
      <trkpt lat="27.774093" lon="86.722272">
        <ele>2868.8</ele>
        <time>2022-10-29T10:22:11.000Z</time>
      </trkpt>
      <trkpt lat="27.77407" lon="86.722259">
        <ele>2869</ele>
        <time>2022-10-29T10:22:14.000Z</time>
      </trkpt>
      <trkpt lat="27.774051" lon="86.722259">
        <ele>2870.4</ele>
        <time>2022-10-29T10:22:19.000Z</time>
      </trkpt>
      <trkpt lat="27.774045" lon="86.722285">
        <ele>2871.2</ele>
        <time>2022-10-29T10:22:23.000Z</time>
      </trkpt>
      <trkpt lat="27.774026" lon="86.722285">
        <ele>2871.6</ele>
        <time>2022-10-29T10:22:26.000Z</time>
      </trkpt>
      <trkpt lat="27.774003" lon="86.722259">
        <ele>2872</ele>
        <time>2022-10-29T10:22:28.000Z</time>
      </trkpt>
      <trkpt lat="27.773984" lon="86.722246">
        <ele>2872.2</ele>
        <time>2022-10-29T10:22:30.000Z</time>
      </trkpt>
      <trkpt lat="27.773965" lon="86.722234">
        <ele>2872</ele>
        <time>2022-10-29T10:22:33.000Z</time>
      </trkpt>
      <trkpt lat="27.773946" lon="86.722259">
        <ele>2872.4</ele>
        <time>2022-10-29T10:22:39.000Z</time>
      </trkpt>
      <trkpt lat="27.773926" lon="86.722285">
        <ele>2872.6</ele>
        <time>2022-10-29T10:22:43.000Z</time>
      </trkpt>
      <trkpt lat="27.773914" lon="86.722304">
        <ele>2872.6</ele>
        <time>2022-10-29T10:22:46.000Z</time>
      </trkpt>
      <trkpt lat="27.773894" lon="86.722323">
        <ele>2872.4</ele>
        <time>2022-10-29T10:22:49.000Z</time>
      </trkpt>
      <trkpt lat="27.773878" lon="86.722336">
        <ele>2872.2</ele>
        <time>2022-10-29T10:22:51.000Z</time>
      </trkpt>
      <trkpt lat="27.773866" lon="86.722362">
        <ele>2872.2</ele>
        <time>2022-10-29T10:22:53.000Z</time>
      </trkpt>
      <trkpt lat="27.773843" lon="86.722374">
        <ele>2872.4</ele>
        <time>2022-10-29T10:22:55.000Z</time>
      </trkpt>
      <trkpt lat="27.773824" lon="86.722362">
        <ele>2872.2</ele>
        <time>2022-10-29T10:23:03.000Z</time>
      </trkpt>
      <trkpt lat="27.773818" lon="86.722342">
        <ele>2872.8</ele>
        <time>2022-10-29T10:23:36.000Z</time>
      </trkpt>
      <trkpt lat="27.773795" lon="86.722342">
        <ele>2872.8</ele>
        <time>2022-10-29T10:23:44.000Z</time>
      </trkpt>
      <trkpt lat="27.773789" lon="86.722362">
        <ele>2872.8</ele>
        <time>2022-10-29T10:23:46.000Z</time>
      </trkpt>
      <trkpt lat="27.773814" lon="86.722362">
        <ele>2873</ele>
        <time>2022-10-29T10:23:52.000Z</time>
      </trkpt>
      <trkpt lat="27.773798" lon="86.722336">
        <ele>2872.8</ele>
        <time>2022-10-29T10:24:09.000Z</time>
      </trkpt>
      <trkpt lat="27.773798" lon="86.72231">
        <ele>2872.8</ele>
        <time>2022-10-29T10:24:11.000Z</time>
      </trkpt>
      <trkpt lat="27.773795" lon="86.722285">
        <ele>2873</ele>
        <time>2022-10-29T10:24:14.000Z</time>
      </trkpt>
      <trkpt lat="27.773818" lon="86.722304">
        <ele>2873.2</ele>
        <time>2022-10-29T10:24:17.000Z</time>
      </trkpt>
      <trkpt lat="27.773827" lon="86.722285">
        <ele>2873.2</ele>
        <time>2022-10-29T10:24:20.000Z</time>
      </trkpt>
      <trkpt lat="27.773843" lon="86.722298">
        <ele>2873.2</ele>
        <time>2022-10-29T10:24:23.000Z</time>
      </trkpt>
      <trkpt lat="27.77383" lon="86.722259">
        <ele>2873.2</ele>
        <time>2022-10-29T10:24:26.000Z</time>
      </trkpt>
      <trkpt lat="27.773818" lon="86.722234">
        <ele>2873.6</ele>
        <time>2022-10-29T10:24:27.000Z</time>
      </trkpt>
      <trkpt lat="27.773798" lon="86.722214">
        <ele>2873.2</ele>
        <time>2022-10-29T10:24:29.000Z</time>
      </trkpt>
      <trkpt lat="27.773805" lon="86.722234">
        <ele>2873.4</ele>
        <time>2022-10-29T10:24:34.000Z</time>
      </trkpt>
      <trkpt lat="27.773814" lon="86.722266">
        <ele>2873.4</ele>
        <time>2022-10-29T10:24:38.000Z</time>
      </trkpt>
      <trkpt lat="27.773798" lon="86.722253">
        <ele>2873.2</ele>
        <time>2022-10-29T10:24:51.000Z</time>
      </trkpt>
      <trkpt lat="27.773821" lon="86.722285">
        <ele>2873.2</ele>
        <time>2022-10-29T10:24:56.000Z</time>
      </trkpt>
      <trkpt lat="27.773862" lon="86.722323">
        <ele>2873.4</ele>
        <time>2022-10-29T10:25:02.000Z</time>
      </trkpt>
      <trkpt lat="27.773882" lon="86.722342">
        <ele>2873.4</ele>
        <time>2022-10-29T10:25:07.000Z</time>
      </trkpt>
      <trkpt lat="27.77391" lon="86.722349">
        <ele>2873.6</ele>
        <time>2022-10-29T10:25:17.000Z</time>
      </trkpt>
      <trkpt lat="27.773894" lon="86.722336">
        <ele>2873.4</ele>
        <time>2022-10-29T10:25:21.000Z</time>
      </trkpt>
      <trkpt lat="27.773869" lon="86.722362">
        <ele>2873.2</ele>
        <time>2022-10-29T10:25:23.000Z</time>
      </trkpt>
      <trkpt lat="27.77384" lon="86.722349">
        <ele>2873</ele>
        <time>2022-10-29T10:25:25.000Z</time>
      </trkpt>
      <trkpt lat="27.773789" lon="86.722285">
        <ele>2874.2</ele>
        <time>2022-10-29T10:27:04.000Z</time>
      </trkpt>
      <trkpt lat="27.773757" lon="86.722285">
        <ele>2874.6</ele>
        <time>2022-10-29T10:27:34.000Z</time>
      </trkpt>
      <trkpt lat="27.773734" lon="86.722291">
        <ele>2875.2</ele>
        <time>2022-10-29T10:27:36.000Z</time>
      </trkpt>
      <trkpt lat="27.773715" lon="86.722304">
        <ele>2874.6</ele>
        <time>2022-10-29T10:27:38.000Z</time>
      </trkpt>
      <trkpt lat="27.773696" lon="86.722304">
        <ele>2874.8</ele>
        <time>2022-10-29T10:27:40.000Z</time>
      </trkpt>
      <trkpt lat="27.773686" lon="86.72233">
        <ele>2874.8</ele>
        <time>2022-10-29T10:27:42.000Z</time>
      </trkpt>
      <trkpt lat="27.773674" lon="86.722349">
        <ele>2875.6</ele>
        <time>2022-10-29T10:27:49.000Z</time>
      </trkpt>
      <trkpt lat="27.773677" lon="86.722374">
        <ele>2875.6</ele>
        <time>2022-10-29T10:27:51.000Z</time>
      </trkpt>
      <trkpt lat="27.773677" lon="86.7224">
        <ele>2875.8</ele>
        <time>2022-10-29T10:27:52.000Z</time>
      </trkpt>
      <trkpt lat="27.773661" lon="86.722413">
        <ele>2875.8</ele>
        <time>2022-10-29T10:27:56.000Z</time>
      </trkpt>
      <trkpt lat="27.773648" lon="86.722432">
        <ele>2875.8</ele>
        <time>2022-10-29T10:28:00.000Z</time>
      </trkpt>
      <trkpt lat="27.773622" lon="86.722451">
        <ele>2876.2</ele>
        <time>2022-10-29T10:28:04.000Z</time>
      </trkpt>
      <trkpt lat="27.773619" lon="86.722483">
        <ele>2876.6</ele>
        <time>2022-10-29T10:28:07.000Z</time>
      </trkpt>
      <trkpt lat="27.773622" lon="86.722509">
        <ele>2876.8</ele>
        <time>2022-10-29T10:28:09.000Z</time>
      </trkpt>
      <trkpt lat="27.773616" lon="86.722528">
        <ele>2877.4</ele>
        <time>2022-10-29T10:28:11.000Z</time>
      </trkpt>
      <trkpt lat="27.773606" lon="86.722502">
        <ele>2877.6</ele>
        <time>2022-10-29T10:28:13.000Z</time>
      </trkpt>
      <trkpt lat="27.773587" lon="86.722509">
        <ele>2878.4</ele>
        <time>2022-10-29T10:28:18.000Z</time>
      </trkpt>
      <trkpt lat="27.773565" lon="86.722509">
        <ele>2879.8</ele>
        <time>2022-10-29T10:28:24.000Z</time>
      </trkpt>
      <trkpt lat="27.773555" lon="86.722528">
        <ele>2880</ele>
        <time>2022-10-29T10:28:26.000Z</time>
      </trkpt>
      <trkpt lat="27.773549" lon="86.722547">
        <ele>2880.2</ele>
        <time>2022-10-29T10:28:28.000Z</time>
      </trkpt>
      <trkpt lat="27.77353" lon="86.72256">
        <ele>2880.2</ele>
        <time>2022-10-29T10:28:30.000Z</time>
      </trkpt>
      <trkpt lat="27.77351" lon="86.722566">
        <ele>2880.6</ele>
        <time>2022-10-29T10:28:32.000Z</time>
      </trkpt>
      <trkpt lat="27.773491" lon="86.722573">
        <ele>2881</ele>
        <time>2022-10-29T10:28:35.000Z</time>
      </trkpt>
      <trkpt lat="27.77344" lon="86.722579">
        <ele>2880.6</ele>
        <time>2022-10-29T10:28:37.000Z</time>
      </trkpt>
      <trkpt lat="27.773408" lon="86.722573">
        <ele>2880.6</ele>
        <time>2022-10-29T10:28:38.000Z</time>
      </trkpt>
      <trkpt lat="27.773382" lon="86.722573">
        <ele>2880.8</ele>
        <time>2022-10-29T10:28:39.000Z</time>
      </trkpt>
      <trkpt lat="27.77335" lon="86.722579">
        <ele>2881.2</ele>
        <time>2022-10-29T10:28:40.000Z</time>
      </trkpt>
      <trkpt lat="27.773322" lon="86.722579">
        <ele>2881.2</ele>
        <time>2022-10-29T10:28:41.000Z</time>
      </trkpt>
      <trkpt lat="27.773302" lon="86.722598">
        <ele>2881.2</ele>
        <time>2022-10-29T10:28:42.000Z</time>
      </trkpt>
      <trkpt lat="27.773293" lon="86.722618">
        <ele>2881</ele>
        <time>2022-10-29T10:28:47.000Z</time>
      </trkpt>
      <trkpt lat="27.773277" lon="86.72263">
        <ele>2879.2</ele>
        <time>2022-10-29T10:29:00.000Z</time>
      </trkpt>
      <trkpt lat="27.773261" lon="86.722643">
        <ele>2879.2</ele>
        <time>2022-10-29T10:29:05.000Z</time>
      </trkpt>
      <trkpt lat="27.773242" lon="86.722662">
        <ele>2879</ele>
        <time>2022-10-29T10:29:16.000Z</time>
      </trkpt>
      <trkpt lat="27.773219" lon="86.722682">
        <ele>2879</ele>
        <time>2022-10-29T10:29:18.000Z</time>
      </trkpt>
      <trkpt lat="27.77321" lon="86.722701">
        <ele>2879</ele>
        <time>2022-10-29T10:29:20.000Z</time>
      </trkpt>
      <trkpt lat="27.773197" lon="86.72272">
        <ele>2879</ele>
        <time>2022-10-29T10:29:22.000Z</time>
      </trkpt>
      <trkpt lat="27.773178" lon="86.722726">
        <ele>2878.6</ele>
        <time>2022-10-29T10:29:24.000Z</time>
      </trkpt>
      <trkpt lat="27.773149" lon="86.722733">
        <ele>2878.4</ele>
        <time>2022-10-29T10:29:27.000Z</time>
      </trkpt>
      <trkpt lat="27.77313" lon="86.722733">
        <ele>2878.8</ele>
        <time>2022-10-29T10:29:34.000Z</time>
      </trkpt>
      <trkpt lat="27.77311" lon="86.722726">
        <ele>2879</ele>
        <time>2022-10-29T10:29:37.000Z</time>
      </trkpt>
      <trkpt lat="27.773085" lon="86.722739">
        <ele>2878.8</ele>
        <time>2022-10-29T10:29:40.000Z</time>
      </trkpt>
      <trkpt lat="27.773069" lon="86.722758">
        <ele>2878.8</ele>
        <time>2022-10-29T10:29:42.000Z</time>
      </trkpt>
      <trkpt lat="27.773053" lon="86.722771">
        <ele>2878.6</ele>
        <time>2022-10-29T10:29:44.000Z</time>
      </trkpt>
      <trkpt lat="27.77304" lon="86.72279">
        <ele>2878.6</ele>
        <time>2022-10-29T10:29:48.000Z</time>
      </trkpt>
      <trkpt lat="27.773021" lon="86.72281">
        <ele>2878.8</ele>
        <time>2022-10-29T10:29:50.000Z</time>
      </trkpt>
      <trkpt lat="27.773002" lon="86.722816">
        <ele>2878.4</ele>
        <time>2022-10-29T10:29:52.000Z</time>
      </trkpt>
      <trkpt lat="27.772982" lon="86.722816">
        <ele>2878.4</ele>
        <time>2022-10-29T10:29:54.000Z</time>
      </trkpt>
      <trkpt lat="27.772957" lon="86.722822">
        <ele>2878</ele>
        <time>2022-10-29T10:29:56.000Z</time>
      </trkpt>
      <trkpt lat="27.772934" lon="86.722816">
        <ele>2877.4</ele>
        <time>2022-10-29T10:29:58.000Z</time>
      </trkpt>
      <trkpt lat="27.772915" lon="86.722829">
        <ele>2876.8</ele>
        <time>2022-10-29T10:30:01.000Z</time>
      </trkpt>
      <trkpt lat="27.772909" lon="86.722848">
        <ele>2877</ele>
        <time>2022-10-29T10:30:02.000Z</time>
      </trkpt>
      <trkpt lat="27.772886" lon="86.722848">
        <ele>2876</ele>
        <time>2022-10-29T10:30:05.000Z</time>
      </trkpt>
      <trkpt lat="27.772861" lon="86.722848">
        <ele>2875.6</ele>
        <time>2022-10-29T10:30:07.000Z</time>
      </trkpt>
      <trkpt lat="27.772842" lon="86.722867">
        <ele>2875.2</ele>
        <time>2022-10-29T10:30:11.000Z</time>
      </trkpt>
      <trkpt lat="27.772826" lon="86.72288">
        <ele>2875</ele>
        <time>2022-10-29T10:30:12.000Z</time>
      </trkpt>
      <trkpt lat="27.772806" lon="86.722893">
        <ele>2874.4</ele>
        <time>2022-10-29T10:30:14.000Z</time>
      </trkpt>
      <trkpt lat="27.772781" lon="86.722918">
        <ele>2874.2</ele>
        <time>2022-10-29T10:30:17.000Z</time>
      </trkpt>
      <trkpt lat="27.772762" lon="86.722918">
        <ele>2873.6</ele>
        <time>2022-10-29T10:30:20.000Z</time>
      </trkpt>
      <trkpt lat="27.772739" lon="86.722899">
        <ele>2873.6</ele>
        <time>2022-10-29T10:30:22.000Z</time>
      </trkpt>
      <trkpt lat="27.77271" lon="86.722906">
        <ele>2873.2</ele>
        <time>2022-10-29T10:30:25.000Z</time>
      </trkpt>
      <trkpt lat="27.772694" lon="86.722931">
        <ele>2873.2</ele>
        <time>2022-10-29T10:30:27.000Z</time>
      </trkpt>
      <trkpt lat="27.772669" lon="86.722944">
        <ele>2873</ele>
        <time>2022-10-29T10:30:29.000Z</time>
      </trkpt>
      <trkpt lat="27.772643" lon="86.722963">
        <ele>2873</ele>
        <time>2022-10-29T10:30:31.000Z</time>
      </trkpt>
      <trkpt lat="27.772621" lon="86.72297">
        <ele>2873</ele>
        <time>2022-10-29T10:30:33.000Z</time>
      </trkpt>
      <trkpt lat="27.772598" lon="86.722976">
        <ele>2873.2</ele>
        <time>2022-10-29T10:30:36.000Z</time>
      </trkpt>
      <trkpt lat="27.772576" lon="86.722982">
        <ele>2873.2</ele>
        <time>2022-10-29T10:30:38.000Z</time>
      </trkpt>
      <trkpt lat="27.772554" lon="86.722989">
        <ele>2873.2</ele>
        <time>2022-10-29T10:30:40.000Z</time>
      </trkpt>
      <trkpt lat="27.772534" lon="86.722989">
        <ele>2873.2</ele>
        <time>2022-10-29T10:30:42.000Z</time>
      </trkpt>
      <trkpt lat="27.772512" lon="86.722989">
        <ele>2873.2</ele>
        <time>2022-10-29T10:30:44.000Z</time>
      </trkpt>
      <trkpt lat="27.772486" lon="86.722989">
        <ele>2873.4</ele>
        <time>2022-10-29T10:30:46.000Z</time>
      </trkpt>
      <trkpt lat="27.772467" lon="86.722982">
        <ele>2873.4</ele>
        <time>2022-10-29T10:30:48.000Z</time>
      </trkpt>
      <trkpt lat="27.772438" lon="86.722976">
        <ele>2873.4</ele>
        <time>2022-10-29T10:30:50.000Z</time>
      </trkpt>
      <trkpt lat="27.772416" lon="86.722976">
        <ele>2873.6</ele>
        <time>2022-10-29T10:30:52.000Z</time>
      </trkpt>
      <trkpt lat="27.772394" lon="86.72297">
        <ele>2873.6</ele>
        <time>2022-10-29T10:30:54.000Z</time>
      </trkpt>
      <trkpt lat="27.772368" lon="86.722963">
        <ele>2873.8</ele>
        <time>2022-10-29T10:30:56.000Z</time>
      </trkpt>
      <trkpt lat="27.772349" lon="86.722963">
        <ele>2873.8</ele>
        <time>2022-10-29T10:31:01.000Z</time>
      </trkpt>
      <trkpt lat="27.772339" lon="86.722944">
        <ele>2874.2</ele>
        <time>2022-10-29T10:31:16.000Z</time>
      </trkpt>
      <trkpt lat="27.772317" lon="86.722938">
        <ele>2874</ele>
        <time>2022-10-29T10:31:19.000Z</time>
      </trkpt>
      <trkpt lat="27.772294" lon="86.722931">
        <ele>2874</ele>
        <time>2022-10-29T10:31:21.000Z</time>
      </trkpt>
      <trkpt lat="27.772272" lon="86.722918">
        <ele>2873.8</ele>
        <time>2022-10-29T10:31:23.000Z</time>
      </trkpt>
      <trkpt lat="27.772253" lon="86.722906">
        <ele>2873.8</ele>
        <time>2022-10-29T10:31:25.000Z</time>
      </trkpt>
      <trkpt lat="27.772234" lon="86.722893">
        <ele>2873.8</ele>
        <time>2022-10-29T10:31:28.000Z</time>
      </trkpt>
      <trkpt lat="27.772211" lon="86.72288">
        <ele>2873.2</ele>
        <time>2022-10-29T10:31:30.000Z</time>
      </trkpt>
      <trkpt lat="27.772192" lon="86.722861">
        <ele>2873.2</ele>
        <time>2022-10-29T10:31:32.000Z</time>
      </trkpt>
      <trkpt lat="27.77217" lon="86.722861">
        <ele>2873</ele>
        <time>2022-10-29T10:31:34.000Z</time>
      </trkpt>
      <trkpt lat="27.772147" lon="86.722854">
        <ele>2872.6</ele>
        <time>2022-10-29T10:31:36.000Z</time>
      </trkpt>
      <trkpt lat="27.772122" lon="86.722848">
        <ele>2872.4</ele>
        <time>2022-10-29T10:31:39.000Z</time>
      </trkpt>
      <trkpt lat="27.772109" lon="86.722829">
        <ele>2872.2</ele>
        <time>2022-10-29T10:31:41.000Z</time>
      </trkpt>
      <trkpt lat="27.77209" lon="86.722816">
        <ele>2871.6</ele>
        <time>2022-10-29T10:31:44.000Z</time>
      </trkpt>
      <trkpt lat="27.772067" lon="86.722822">
        <ele>2870.8</ele>
        <time>2022-10-29T10:31:47.000Z</time>
      </trkpt>
      <trkpt lat="27.772048" lon="86.722822">
        <ele>2870.2</ele>
        <time>2022-10-29T10:31:51.000Z</time>
      </trkpt>
      <trkpt lat="27.772026" lon="86.72281">
        <ele>2869.2</ele>
        <time>2022-10-29T10:31:54.000Z</time>
      </trkpt>
      <trkpt lat="27.771997" lon="86.72281">
        <ele>2868.8</ele>
        <time>2022-10-29T10:31:56.000Z</time>
      </trkpt>
      <trkpt lat="27.771978" lon="86.72281">
        <ele>2868.8</ele>
        <time>2022-10-29T10:31:58.000Z</time>
      </trkpt>
      <trkpt lat="27.771952" lon="86.722803">
        <ele>2868.4</ele>
        <time>2022-10-29T10:32:00.000Z</time>
      </trkpt>
      <trkpt lat="27.77193" lon="86.72281">
        <ele>2868.2</ele>
        <time>2022-10-29T10:32:02.000Z</time>
      </trkpt>
      <trkpt lat="27.77191" lon="86.72281">
        <ele>2868</ele>
        <time>2022-10-29T10:32:04.000Z</time>
      </trkpt>
      <trkpt lat="27.771891" lon="86.72281">
        <ele>2868</ele>
        <time>2022-10-29T10:32:06.000Z</time>
      </trkpt>
      <trkpt lat="27.771872" lon="86.72281">
        <ele>2867.2</ele>
        <time>2022-10-29T10:32:09.000Z</time>
      </trkpt>
      <trkpt lat="27.771853" lon="86.72281">
        <ele>2866.8</ele>
        <time>2022-10-29T10:32:12.000Z</time>
      </trkpt>
      <trkpt lat="27.771827" lon="86.722816">
        <ele>2865.8</ele>
        <time>2022-10-29T10:32:16.000Z</time>
      </trkpt>
      <trkpt lat="27.771798" lon="86.722822">
        <ele>2865.6</ele>
        <time>2022-10-29T10:32:18.000Z</time>
      </trkpt>
      <trkpt lat="27.771789" lon="86.722848">
        <ele>2864.8</ele>
        <time>2022-10-29T10:32:23.000Z</time>
      </trkpt>
      <trkpt lat="27.77177" lon="86.722854">
        <ele>2863.8</ele>
        <time>2022-10-29T10:32:28.000Z</time>
      </trkpt>
      <trkpt lat="27.77175" lon="86.722867">
        <ele>2863.6</ele>
        <time>2022-10-29T10:32:30.000Z</time>
      </trkpt>
      <trkpt lat="27.771728" lon="86.72288">
        <ele>2862.6</ele>
        <time>2022-10-29T10:32:33.000Z</time>
      </trkpt>
      <trkpt lat="27.771709" lon="86.722899">
        <ele>2862</ele>
        <time>2022-10-29T10:32:35.000Z</time>
      </trkpt>
      <trkpt lat="27.771683" lon="86.722918">
        <ele>2861.4</ele>
        <time>2022-10-29T10:32:38.000Z</time>
      </trkpt>
      <trkpt lat="27.77167" lon="86.722938">
        <ele>2861.4</ele>
        <time>2022-10-29T10:32:40.000Z</time>
      </trkpt>
      <trkpt lat="27.771651" lon="86.722944">
        <ele>2861.4</ele>
        <time>2022-10-29T10:32:42.000Z</time>
      </trkpt>
      <trkpt lat="27.771632" lon="86.722944">
        <ele>2861.4</ele>
        <time>2022-10-29T10:32:44.000Z</time>
      </trkpt>
      <trkpt lat="27.771616" lon="86.722963">
        <ele>2861.4</ele>
        <time>2022-10-29T10:32:46.000Z</time>
      </trkpt>
      <trkpt lat="27.7716" lon="86.722976">
        <ele>2861</ele>
        <time>2022-10-29T10:32:50.000Z</time>
      </trkpt>
      <trkpt lat="27.771584" lon="86.722989">
        <ele>2860.2</ele>
        <time>2022-10-29T10:32:54.000Z</time>
      </trkpt>
      <trkpt lat="27.771562" lon="86.723014">
        <ele>2859</ele>
        <time>2022-10-29T10:32:57.000Z</time>
      </trkpt>
      <trkpt lat="27.771542" lon="86.723027">
        <ele>2858.8</ele>
        <time>2022-10-29T10:32:59.000Z</time>
      </trkpt>
      <trkpt lat="27.771533" lon="86.723053">
        <ele>2858.6</ele>
        <time>2022-10-29T10:33:01.000Z</time>
      </trkpt>
      <trkpt lat="27.771523" lon="86.723078">
        <ele>2858</ele>
        <time>2022-10-29T10:33:06.000Z</time>
      </trkpt>
      <trkpt lat="27.77151" lon="86.723098">
        <ele>2856.2</ele>
        <time>2022-10-29T10:33:13.000Z</time>
      </trkpt>
      <trkpt lat="27.771504" lon="86.723117">
        <ele>2855</ele>
        <time>2022-10-29T10:33:18.000Z</time>
      </trkpt>
      <trkpt lat="27.771485" lon="86.72313">
        <ele>2854.4</ele>
        <time>2022-10-29T10:33:22.000Z</time>
      </trkpt>
      <trkpt lat="27.771459" lon="86.723155">
        <ele>2853.4</ele>
        <time>2022-10-29T10:33:26.000Z</time>
      </trkpt>
      <trkpt lat="27.77144" lon="86.723162">
        <ele>2852.6</ele>
        <time>2022-10-29T10:33:28.000Z</time>
      </trkpt>
      <trkpt lat="27.771421" lon="86.723181">
        <ele>2852.4</ele>
        <time>2022-10-29T10:33:30.000Z</time>
      </trkpt>
      <trkpt lat="27.771405" lon="86.7232">
        <ele>2852.4</ele>
        <time>2022-10-29T10:33:32.000Z</time>
      </trkpt>
      <trkpt lat="27.771379" lon="86.723206">
        <ele>2852.2</ele>
        <time>2022-10-29T10:33:34.000Z</time>
      </trkpt>
      <trkpt lat="27.771354" lon="86.723213">
        <ele>2852.2</ele>
        <time>2022-10-29T10:33:37.000Z</time>
      </trkpt>
      <trkpt lat="27.771331" lon="86.723226">
        <ele>2852</ele>
        <time>2022-10-29T10:33:41.000Z</time>
      </trkpt>
      <trkpt lat="27.771315" lon="86.723238">
        <ele>2851.6</ele>
        <time>2022-10-29T10:33:44.000Z</time>
      </trkpt>
      <trkpt lat="27.771325" lon="86.723258">
        <ele>2851.4</ele>
        <time>2022-10-29T10:33:47.000Z</time>
      </trkpt>
      <trkpt lat="27.771322" lon="86.723283">
        <ele>2851.8</ele>
        <time>2022-10-29T10:33:51.000Z</time>
      </trkpt>
      <trkpt lat="27.771302" lon="86.723302">
        <ele>2851.2</ele>
        <time>2022-10-29T10:34:01.000Z</time>
      </trkpt>
      <trkpt lat="27.771325" lon="86.723315">
        <ele>2851</ele>
        <time>2022-10-29T10:34:13.000Z</time>
      </trkpt>
      <trkpt lat="27.771315" lon="86.72329">
        <ele>2851.6</ele>
        <time>2022-10-29T10:34:21.000Z</time>
      </trkpt>
      <trkpt lat="27.771312" lon="86.723264">
        <ele>2851</ele>
        <time>2022-10-29T10:34:29.000Z</time>
      </trkpt>
      <trkpt lat="27.771299" lon="86.72329">
        <ele>2851</ele>
        <time>2022-10-29T10:34:31.000Z</time>
      </trkpt>
      <trkpt lat="27.771315" lon="86.723258">
        <ele>2851</ele>
        <time>2022-10-29T10:34:35.000Z</time>
      </trkpt>
      <trkpt lat="27.771338" lon="86.723238">
        <ele>2851.2</ele>
        <time>2022-10-29T10:34:38.000Z</time>
      </trkpt>
      <trkpt lat="27.77136" lon="86.723219">
        <ele>2851.8</ele>
        <time>2022-10-29T10:34:43.000Z</time>
      </trkpt>
      <trkpt lat="27.771357" lon="86.723245">
        <ele>2852.8</ele>
        <time>2022-10-29T10:34:59.000Z</time>
      </trkpt>
      <trkpt lat="27.771338" lon="86.723238">
        <ele>2853.2</ele>
        <time>2022-10-29T10:35:02.000Z</time>
      </trkpt>
      <trkpt lat="27.771309" lon="86.723238">
        <ele>2851.4</ele>
        <time>2022-10-29T10:35:18.000Z</time>
      </trkpt>
      <trkpt lat="27.771293" lon="86.723226">
        <ele>2851.6</ele>
        <time>2022-10-29T10:35:19.000Z</time>
      </trkpt>
      <trkpt lat="27.771274" lon="86.723226">
        <ele>2851.6</ele>
        <time>2022-10-29T10:35:21.000Z</time>
      </trkpt>
      <trkpt lat="27.771254" lon="86.723219">
        <ele>2851.6</ele>
        <time>2022-10-29T10:35:23.000Z</time>
      </trkpt>
      <trkpt lat="27.771229" lon="86.723226">
        <ele>2851.4</ele>
        <time>2022-10-29T10:35:25.000Z</time>
      </trkpt>
      <trkpt lat="27.771203" lon="86.723245">
        <ele>2850.8</ele>
        <time>2022-10-29T10:35:27.000Z</time>
      </trkpt>
      <trkpt lat="27.771178" lon="86.723258">
        <ele>2850.8</ele>
        <time>2022-10-29T10:35:29.000Z</time>
      </trkpt>
      <trkpt lat="27.771152" lon="86.723264">
        <ele>2850.2</ele>
        <time>2022-10-29T10:35:33.000Z</time>
      </trkpt>
      <trkpt lat="27.771133" lon="86.723277">
        <ele>2850</ele>
        <time>2022-10-29T10:35:35.000Z</time>
      </trkpt>
      <trkpt lat="27.771117" lon="86.72329">
        <ele>2849.6</ele>
        <time>2022-10-29T10:35:37.000Z</time>
      </trkpt>
      <trkpt lat="27.771098" lon="86.723302">
        <ele>2848.4</ele>
        <time>2022-10-29T10:35:40.000Z</time>
      </trkpt>
      <trkpt lat="27.771085" lon="86.723322">
        <ele>2847.6</ele>
        <time>2022-10-29T10:35:42.000Z</time>
      </trkpt>
      <trkpt lat="27.771069" lon="86.723334">
        <ele>2846</ele>
        <time>2022-10-29T10:35:46.000Z</time>
      </trkpt>
      <trkpt lat="27.771056" lon="86.723354">
        <ele>2845.6</ele>
        <time>2022-10-29T10:35:49.000Z</time>
      </trkpt>
      <trkpt lat="27.771037" lon="86.723373">
        <ele>2845</ele>
        <time>2022-10-29T10:35:51.000Z</time>
      </trkpt>
      <trkpt lat="27.771021" lon="86.723386">
        <ele>2844.8</ele>
        <time>2022-10-29T10:35:53.000Z</time>
      </trkpt>
      <trkpt lat="27.770998" lon="86.723411">
        <ele>2845</ele>
        <time>2022-10-29T10:35:56.000Z</time>
      </trkpt>
      <trkpt lat="27.770995" lon="86.723437">
        <ele>2844.8</ele>
        <time>2022-10-29T10:35:58.000Z</time>
      </trkpt>
      <trkpt lat="27.771005" lon="86.723462">
        <ele>2844.2</ele>
        <time>2022-10-29T10:36:00.000Z</time>
      </trkpt>
      <trkpt lat="27.770979" lon="86.723462">
        <ele>2843.4</ele>
        <time>2022-10-29T10:36:03.000Z</time>
      </trkpt>
      <trkpt lat="27.770966" lon="86.723482">
        <ele>2843.2</ele>
        <time>2022-10-29T10:36:04.000Z</time>
      </trkpt>
      <trkpt lat="27.770947" lon="86.723494">
        <ele>2843</ele>
        <time>2022-10-29T10:36:06.000Z</time>
      </trkpt>
      <trkpt lat="27.770928" lon="86.723501">
        <ele>2843.4</ele>
        <time>2022-10-29T10:36:07.000Z</time>
      </trkpt>
      <trkpt lat="27.770899" lon="86.723501">
        <ele>2843.2</ele>
        <time>2022-10-29T10:36:09.000Z</time>
      </trkpt>
      <trkpt lat="27.770877" lon="86.723494">
        <ele>2843</ele>
        <time>2022-10-29T10:36:11.000Z</time>
      </trkpt>
      <trkpt lat="27.770858" lon="86.723494">
        <ele>2843</ele>
        <time>2022-10-29T10:36:14.000Z</time>
      </trkpt>
      <trkpt lat="27.770835" lon="86.723494">
        <ele>2842.8</ele>
        <time>2022-10-29T10:36:17.000Z</time>
      </trkpt>
      <trkpt lat="27.770666" lon="86.723565">
        <ele>2828.4</ele>
        <time>2022-10-30T02:39:55.000Z</time>
      </trkpt>
      <trkpt lat="27.77063" lon="86.723578">
        <ele>2828.4</ele>
        <time>2022-10-30T02:39:57.000Z</time>
      </trkpt>
      <trkpt lat="27.770602" lon="86.723584">
        <ele>2828.2</ele>
        <time>2022-10-30T02:39:59.000Z</time>
      </trkpt>
      <trkpt lat="27.770586" lon="86.723603">
        <ele>2828.2</ele>
        <time>2022-10-30T02:40:00.000Z</time>
      </trkpt>
      <trkpt lat="27.770563" lon="86.72361">
        <ele>2828.2</ele>
        <time>2022-10-30T02:40:01.000Z</time>
      </trkpt>
      <trkpt lat="27.770531" lon="86.72361">
        <ele>2828</ele>
        <time>2022-10-30T02:40:03.000Z</time>
      </trkpt>
      <trkpt lat="27.770509" lon="86.723616">
        <ele>2828</ele>
        <time>2022-10-30T02:40:05.000Z</time>
      </trkpt>
      <trkpt lat="27.77049" lon="86.723622">
        <ele>2828.2</ele>
        <time>2022-10-30T02:40:07.000Z</time>
      </trkpt>
      <trkpt lat="27.770467" lon="86.723622">
        <ele>2828</ele>
        <time>2022-10-30T02:40:09.000Z</time>
      </trkpt>
      <trkpt lat="27.770442" lon="86.723635">
        <ele>2828</ele>
        <time>2022-10-30T02:40:11.000Z</time>
      </trkpt>
      <trkpt lat="27.770422" lon="86.723642">
        <ele>2827.8</ele>
        <time>2022-10-30T02:40:13.000Z</time>
      </trkpt>
      <trkpt lat="27.770397" lon="86.723648">
        <ele>2827.8</ele>
        <time>2022-10-30T02:40:15.000Z</time>
      </trkpt>
      <trkpt lat="27.770374" lon="86.723661">
        <ele>2828</ele>
        <time>2022-10-30T02:40:17.000Z</time>
      </trkpt>
      <trkpt lat="27.770352" lon="86.723661">
        <ele>2828</ele>
        <time>2022-10-30T02:40:19.000Z</time>
      </trkpt>
      <trkpt lat="27.770333" lon="86.723661">
        <ele>2828.2</ele>
        <time>2022-10-30T02:40:21.000Z</time>
      </trkpt>
      <trkpt lat="27.770314" lon="86.723661">
        <ele>2828.4</ele>
        <time>2022-10-30T02:40:23.000Z</time>
      </trkpt>
      <trkpt lat="27.770288" lon="86.723674">
        <ele>2828.6</ele>
        <time>2022-10-30T02:40:26.000Z</time>
      </trkpt>
      <trkpt lat="27.770269" lon="86.723674">
        <ele>2828.6</ele>
        <time>2022-10-30T02:40:28.000Z</time>
      </trkpt>
      <trkpt lat="27.770246" lon="86.72368">
        <ele>2829</ele>
        <time>2022-10-30T02:40:30.000Z</time>
      </trkpt>
      <trkpt lat="27.770227" lon="86.72368">
        <ele>2829.4</ele>
        <time>2022-10-30T02:40:32.000Z</time>
      </trkpt>
      <trkpt lat="27.770208" lon="86.72368">
        <ele>2829.4</ele>
        <time>2022-10-30T02:40:34.000Z</time>
      </trkpt>
      <trkpt lat="27.770189" lon="86.723686">
        <ele>2829.6</ele>
        <time>2022-10-30T02:40:36.000Z</time>
      </trkpt>
      <trkpt lat="27.77017" lon="86.723686">
        <ele>2829.6</ele>
        <time>2022-10-30T02:40:38.000Z</time>
      </trkpt>
      <trkpt lat="27.77015" lon="86.723693">
        <ele>2829.8</ele>
        <time>2022-10-30T02:40:40.000Z</time>
      </trkpt>
      <trkpt lat="27.770131" lon="86.723718">
        <ele>2830.2</ele>
        <time>2022-10-30T02:40:43.000Z</time>
      </trkpt>
      <trkpt lat="27.770125" lon="86.723738">
        <ele>2830.4</ele>
        <time>2022-10-30T02:40:48.000Z</time>
      </trkpt>
      <trkpt lat="27.770122" lon="86.723763">
        <ele>2830.6</ele>
        <time>2022-10-30T02:40:51.000Z</time>
      </trkpt>
      <trkpt lat="27.770122" lon="86.723795">
        <ele>2830.2</ele>
        <time>2022-10-30T02:40:54.000Z</time>
      </trkpt>
      <trkpt lat="27.770125" lon="86.723821">
        <ele>2829</ele>
        <time>2022-10-30T02:40:58.000Z</time>
      </trkpt>
      <trkpt lat="27.770131" lon="86.72384">
        <ele>2828.6</ele>
        <time>2022-10-30T02:41:00.000Z</time>
      </trkpt>
      <trkpt lat="27.770141" lon="86.723872">
        <ele>2827.8</ele>
        <time>2022-10-30T02:41:04.000Z</time>
      </trkpt>
      <trkpt lat="27.770134" lon="86.723891">
        <ele>2827.4</ele>
        <time>2022-10-30T02:41:07.000Z</time>
      </trkpt>
      <trkpt lat="27.770134" lon="86.723917">
        <ele>2826.8</ele>
        <time>2022-10-30T02:41:10.000Z</time>
      </trkpt>
      <trkpt lat="27.770128" lon="86.723949">
        <ele>2826.2</ele>
        <time>2022-10-30T02:41:15.000Z</time>
      </trkpt>
      <trkpt lat="27.770109" lon="86.723962">
        <ele>2825.4</ele>
        <time>2022-10-30T02:41:19.000Z</time>
      </trkpt>
      <trkpt lat="27.770102" lon="86.723994">
        <ele>2824.8</ele>
        <time>2022-10-30T02:41:23.000Z</time>
      </trkpt>
      <trkpt lat="27.770109" lon="86.724013">
        <ele>2824</ele>
        <time>2022-10-30T02:41:27.000Z</time>
      </trkpt>
      <trkpt lat="27.770106" lon="86.724038">
        <ele>2823.4</ele>
        <time>2022-10-30T02:41:33.000Z</time>
      </trkpt>
      <trkpt lat="27.770083" lon="86.724058">
        <ele>2821.8</ele>
        <time>2022-10-30T02:41:40.000Z</time>
      </trkpt>
      <trkpt lat="27.770099" lon="86.72407">
        <ele>2821.2</ele>
        <time>2022-10-30T02:41:43.000Z</time>
      </trkpt>
      <trkpt lat="27.770096" lon="86.724096">
        <ele>2820.2</ele>
        <time>2022-10-30T02:41:48.000Z</time>
      </trkpt>
      <trkpt lat="27.770086" lon="86.724115">
        <ele>2820</ele>
        <time>2022-10-30T02:41:50.000Z</time>
      </trkpt>
      <trkpt lat="27.77008" lon="86.724134">
        <ele>2819.4</ele>
        <time>2022-10-30T02:41:52.000Z</time>
      </trkpt>
      <trkpt lat="27.77008" lon="86.72416">
        <ele>2818.8</ele>
        <time>2022-10-30T02:41:55.000Z</time>
      </trkpt>
      <trkpt lat="27.77008" lon="86.724192">
        <ele>2817.6</ele>
        <time>2022-10-30T02:42:00.000Z</time>
      </trkpt>
      <trkpt lat="27.770074" lon="86.724211">
        <ele>2817.2</ele>
        <time>2022-10-30T02:42:02.000Z</time>
      </trkpt>
      <trkpt lat="27.770083" lon="86.72423">
        <ele>2817</ele>
        <time>2022-10-30T02:42:04.000Z</time>
      </trkpt>
      <trkpt lat="27.77009" lon="86.724256">
        <ele>2816.6</ele>
        <time>2022-10-30T02:42:07.000Z</time>
      </trkpt>
      <trkpt lat="27.770093" lon="86.724282">
        <ele>2816</ele>
        <time>2022-10-30T02:42:10.000Z</time>
      </trkpt>
      <trkpt lat="27.770093" lon="86.724307">
        <ele>2815.4</ele>
        <time>2022-10-30T02:42:13.000Z</time>
      </trkpt>
      <trkpt lat="27.770109" lon="86.724326">
        <ele>2815.2</ele>
        <time>2022-10-30T02:42:17.000Z</time>
      </trkpt>
      <trkpt lat="27.770109" lon="86.724352">
        <ele>2814.6</ele>
        <time>2022-10-30T02:42:20.000Z</time>
      </trkpt>
      <trkpt lat="27.770099" lon="86.724371">
        <ele>2813.8</ele>
        <time>2022-10-30T02:42:23.000Z</time>
      </trkpt>
      <trkpt lat="27.770083" lon="86.72439">
        <ele>2813.4</ele>
        <time>2022-10-30T02:42:26.000Z</time>
      </trkpt>
      <trkpt lat="27.770074" lon="86.724371">
        <ele>2813</ele>
        <time>2022-10-30T02:42:28.000Z</time>
      </trkpt>
      <trkpt lat="27.770054" lon="86.724339">
        <ele>2812.6</ele>
        <time>2022-10-30T02:42:31.000Z</time>
      </trkpt>
      <trkpt lat="27.770045" lon="86.72432">
        <ele>2812.4</ele>
        <time>2022-10-30T02:42:33.000Z</time>
      </trkpt>
      <trkpt lat="27.770026" lon="86.724307">
        <ele>2811.4</ele>
        <time>2022-10-30T02:42:35.000Z</time>
      </trkpt>
      <trkpt lat="27.770006" lon="86.724288">
        <ele>2810.8</ele>
        <time>2022-10-30T02:42:37.000Z</time>
      </trkpt>
      <trkpt lat="27.769978" lon="86.724275">
        <ele>2810.4</ele>
        <time>2022-10-30T02:42:42.000Z</time>
      </trkpt>
      <trkpt lat="27.769981" lon="86.72425">
        <ele>2809.6</ele>
        <time>2022-10-30T02:42:47.000Z</time>
      </trkpt>
      <trkpt lat="27.769962" lon="86.72423">
        <ele>2809.2</ele>
        <time>2022-10-30T02:42:57.000Z</time>
      </trkpt>
      <trkpt lat="27.769946" lon="86.724218">
        <ele>2807.6</ele>
        <time>2022-10-30T02:43:01.000Z</time>
      </trkpt>
      <trkpt lat="27.769952" lon="86.724198">
        <ele>2807.2</ele>
        <time>2022-10-30T02:43:20.000Z</time>
      </trkpt>
      <trkpt lat="27.769946" lon="86.724173">
        <ele>2806.2</ele>
        <time>2022-10-30T02:43:26.000Z</time>
      </trkpt>
      <trkpt lat="27.769926" lon="86.72416">
        <ele>2805.4</ele>
        <time>2022-10-30T02:43:30.000Z</time>
      </trkpt>
      <trkpt lat="27.769904" lon="86.724154">
        <ele>2804.6</ele>
        <time>2022-10-30T02:43:34.000Z</time>
      </trkpt>
      <trkpt lat="27.769894" lon="86.724134">
        <ele>2804</ele>
        <time>2022-10-30T02:43:37.000Z</time>
      </trkpt>
      <trkpt lat="27.769891" lon="86.724109">
        <ele>2802</ele>
        <time>2022-10-30T02:43:44.000Z</time>
      </trkpt>
      <trkpt lat="27.769888" lon="86.724083">
        <ele>2800.6</ele>
        <time>2022-10-30T02:43:50.000Z</time>
      </trkpt>
      <trkpt lat="27.769875" lon="86.724058">
        <ele>2799.2</ele>
        <time>2022-10-30T02:43:56.000Z</time>
      </trkpt>
      <trkpt lat="27.769862" lon="86.724038">
        <ele>2798.2</ele>
        <time>2022-10-30T02:44:00.000Z</time>
      </trkpt>
      <trkpt lat="27.769856" lon="86.724019">
        <ele>2797.4</ele>
        <time>2022-10-30T02:44:04.000Z</time>
      </trkpt>
      <trkpt lat="27.769862" lon="86.723994">
        <ele>2796.4</ele>
        <time>2022-10-30T02:44:08.000Z</time>
      </trkpt>
      <trkpt lat="27.769856" lon="86.723974">
        <ele>2795.6</ele>
        <time>2022-10-30T02:44:11.000Z</time>
      </trkpt>
      <trkpt lat="27.76984" lon="86.723962">
        <ele>2795.4</ele>
        <time>2022-10-30T02:44:13.000Z</time>
      </trkpt>
      <trkpt lat="27.769821" lon="86.723949">
        <ele>2794.8</ele>
        <time>2022-10-30T02:44:15.000Z</time>
      </trkpt>
      <trkpt lat="27.769802" lon="86.72393">
        <ele>2794</ele>
        <time>2022-10-30T02:44:17.000Z</time>
      </trkpt>
      <trkpt lat="27.769782" lon="86.72391">
        <ele>2794</ele>
        <time>2022-10-30T02:44:19.000Z</time>
      </trkpt>
      <trkpt lat="27.769789" lon="86.723891">
        <ele>2793.2</ele>
        <time>2022-10-30T02:44:22.000Z</time>
      </trkpt>
      <trkpt lat="27.769798" lon="86.723917">
        <ele>2792.6</ele>
        <time>2022-10-30T02:44:26.000Z</time>
      </trkpt>
      <trkpt lat="27.769802" lon="86.723949">
        <ele>2791.2</ele>
        <time>2022-10-30T02:44:32.000Z</time>
      </trkpt>
      <trkpt lat="27.769795" lon="86.723968">
        <ele>2790.4</ele>
        <time>2022-10-30T02:44:37.000Z</time>
      </trkpt>
      <trkpt lat="27.769779" lon="86.723981">
        <ele>2788.6</ele>
        <time>2022-10-30T02:45:10.000Z</time>
      </trkpt>
      <trkpt lat="27.769766" lon="86.724006">
        <ele>2788.2</ele>
        <time>2022-10-30T02:45:12.000Z</time>
      </trkpt>
      <trkpt lat="27.769747" lon="86.724032">
        <ele>2787.8</ele>
        <time>2022-10-30T02:45:14.000Z</time>
      </trkpt>
      <trkpt lat="27.769728" lon="86.724032">
        <ele>2787.6</ele>
        <time>2022-10-30T02:45:17.000Z</time>
      </trkpt>
      <trkpt lat="27.769709" lon="86.724019">
        <ele>2787.6</ele>
        <time>2022-10-30T02:45:19.000Z</time>
      </trkpt>
      <trkpt lat="27.769686" lon="86.724">
        <ele>2787</ele>
        <time>2022-10-30T02:45:21.000Z</time>
      </trkpt>
      <trkpt lat="27.769683" lon="86.723968">
        <ele>2786</ele>
        <time>2022-10-30T02:45:25.000Z</time>
      </trkpt>
      <trkpt lat="27.769674" lon="86.723949">
        <ele>2785.4</ele>
        <time>2022-10-30T02:45:28.000Z</time>
      </trkpt>
      <trkpt lat="27.769654" lon="86.72393">
        <ele>2784.8</ele>
        <time>2022-10-30T02:45:42.000Z</time>
      </trkpt>
      <trkpt lat="27.769635" lon="86.723917">
        <ele>2785.2</ele>
        <time>2022-10-30T02:45:45.000Z</time>
      </trkpt>
      <trkpt lat="27.769632" lon="86.723891">
        <ele>2784.8</ele>
        <time>2022-10-30T02:45:48.000Z</time>
      </trkpt>
      <trkpt lat="27.769626" lon="86.723872">
        <ele>2784.8</ele>
        <time>2022-10-30T02:45:51.000Z</time>
      </trkpt>
      <trkpt lat="27.769613" lon="86.723853">
        <ele>2785.4</ele>
        <time>2022-10-30T02:45:58.000Z</time>
      </trkpt>
      <trkpt lat="27.769606" lon="86.723834">
        <ele>2786.4</ele>
        <time>2022-10-30T02:46:14.000Z</time>
      </trkpt>
      <trkpt lat="27.769606" lon="86.723808">
        <ele>2788.6</ele>
        <time>2022-10-30T02:46:28.000Z</time>
      </trkpt>
      <trkpt lat="27.769626" lon="86.723821">
        <ele>2790</ele>
        <time>2022-10-30T02:46:36.000Z</time>
      </trkpt>
      <trkpt lat="27.769651" lon="86.723834">
        <ele>2790</ele>
        <time>2022-10-30T02:46:38.000Z</time>
      </trkpt>
      <trkpt lat="27.769677" lon="86.72384">
        <ele>2790.6</ele>
        <time>2022-10-30T02:46:42.000Z</time>
      </trkpt>
      <trkpt lat="27.769686" lon="86.723859">
        <ele>2792.2</ele>
        <time>2022-10-30T02:46:52.000Z</time>
      </trkpt>
      <trkpt lat="27.769706" lon="86.723853">
        <ele>2793.2</ele>
        <time>2022-10-30T02:46:58.000Z</time>
      </trkpt>
      <trkpt lat="27.769693" lon="86.723834">
        <ele>2794</ele>
        <time>2022-10-30T02:47:04.000Z</time>
      </trkpt>
      <trkpt lat="27.76968" lon="86.723814">
        <ele>2794.4</ele>
        <time>2022-10-30T02:47:07.000Z</time>
      </trkpt>
      <trkpt lat="27.769686" lon="86.723795">
        <ele>2795.2</ele>
        <time>2022-10-30T02:47:12.000Z</time>
      </trkpt>
      <trkpt lat="27.769664" lon="86.723795">
        <ele>2795.4</ele>
        <time>2022-10-30T02:47:14.000Z</time>
      </trkpt>
      <trkpt lat="27.769645" lon="86.723795">
        <ele>2795.8</ele>
        <time>2022-10-30T02:47:15.000Z</time>
      </trkpt>
      <trkpt lat="27.769622" lon="86.723795">
        <ele>2796</ele>
        <time>2022-10-30T02:47:17.000Z</time>
      </trkpt>
      <trkpt lat="27.769603" lon="86.72377">
        <ele>2796.6</ele>
        <time>2022-10-30T02:47:20.000Z</time>
      </trkpt>
      <trkpt lat="27.769584" lon="86.72377">
        <ele>2798</ele>
        <time>2022-10-30T02:47:27.000Z</time>
      </trkpt>
      <trkpt lat="27.769565" lon="86.723757">
        <ele>2798.6</ele>
        <time>2022-10-30T02:47:29.000Z</time>
      </trkpt>
      <trkpt lat="27.769549" lon="86.723738">
        <ele>2798.6</ele>
        <time>2022-10-30T02:47:32.000Z</time>
      </trkpt>
      <trkpt lat="27.769533" lon="86.723718">
        <ele>2800</ele>
        <time>2022-10-30T02:47:38.000Z</time>
      </trkpt>
      <trkpt lat="27.769504" lon="86.723712">
        <ele>2800.4</ele>
        <time>2022-10-30T02:47:40.000Z</time>
      </trkpt>
      <trkpt lat="27.769482" lon="86.723693">
        <ele>2800.8</ele>
        <time>2022-10-30T02:47:42.000Z</time>
      </trkpt>
      <trkpt lat="27.769459" lon="86.723686">
        <ele>2800.8</ele>
        <time>2022-10-30T02:47:44.000Z</time>
      </trkpt>
      <trkpt lat="27.769443" lon="86.723674">
        <ele>2801</ele>
        <time>2022-10-30T02:47:46.000Z</time>
      </trkpt>
      <trkpt lat="27.769424" lon="86.723654">
        <ele>2801.6</ele>
        <time>2022-10-30T02:47:48.000Z</time>
      </trkpt>
      <trkpt lat="27.769395" lon="86.723642">
        <ele>2802</ele>
        <time>2022-10-30T02:47:50.000Z</time>
      </trkpt>
      <trkpt lat="27.76937" lon="86.723635">
        <ele>2802</ele>
        <time>2022-10-30T02:47:52.000Z</time>
      </trkpt>
      <trkpt lat="27.769344" lon="86.72361">
        <ele>2802.2</ele>
        <time>2022-10-30T02:47:54.000Z</time>
      </trkpt>
      <trkpt lat="27.769318" lon="86.723597">
        <ele>2802.2</ele>
        <time>2022-10-30T02:47:57.000Z</time>
      </trkpt>
      <trkpt lat="27.769302" lon="86.723578">
        <ele>2802.6</ele>
        <time>2022-10-30T02:47:59.000Z</time>
      </trkpt>
      <trkpt lat="27.769286" lon="86.723565">
        <ele>2802.6</ele>
        <time>2022-10-30T02:48:01.000Z</time>
      </trkpt>
      <trkpt lat="27.769267" lon="86.723539">
        <ele>2802.6</ele>
        <time>2022-10-30T02:48:03.000Z</time>
      </trkpt>
      <trkpt lat="27.769251" lon="86.723526">
        <ele>2802.6</ele>
        <time>2022-10-30T02:48:05.000Z</time>
      </trkpt>
      <trkpt lat="27.769235" lon="86.723501">
        <ele>2802.2</ele>
        <time>2022-10-30T02:48:07.000Z</time>
      </trkpt>
      <trkpt lat="27.76921" lon="86.723488">
        <ele>2802</ele>
        <time>2022-10-30T02:48:10.000Z</time>
      </trkpt>
      <trkpt lat="27.76919" lon="86.723475">
        <ele>2802</ele>
        <time>2022-10-30T02:48:12.000Z</time>
      </trkpt>
      <trkpt lat="27.769171" lon="86.723456">
        <ele>2802</ele>
        <time>2022-10-30T02:48:14.000Z</time>
      </trkpt>
      <trkpt lat="27.769152" lon="86.723443">
        <ele>2801.8</ele>
        <time>2022-10-30T02:48:17.000Z</time>
      </trkpt>
      <trkpt lat="27.769133" lon="86.723424">
        <ele>2801.8</ele>
        <time>2022-10-30T02:48:20.000Z</time>
      </trkpt>
      <trkpt lat="27.769117" lon="86.723411">
        <ele>2801</ele>
        <time>2022-10-30T02:48:22.000Z</time>
      </trkpt>
      <trkpt lat="27.769101" lon="86.723398">
        <ele>2801</ele>
        <time>2022-10-30T02:48:24.000Z</time>
      </trkpt>
      <trkpt lat="27.769088" lon="86.723379">
        <ele>2800.8</ele>
        <time>2022-10-30T02:48:26.000Z</time>
      </trkpt>
      <trkpt lat="27.769072" lon="86.723366">
        <ele>2800.6</ele>
        <time>2022-10-30T02:48:28.000Z</time>
      </trkpt>
      <trkpt lat="27.769053" lon="86.72336">
        <ele>2800.2</ele>
        <time>2022-10-30T02:48:31.000Z</time>
      </trkpt>
      <trkpt lat="27.76903" lon="86.723341">
        <ele>2799.2</ele>
        <time>2022-10-30T02:48:34.000Z</time>
      </trkpt>
      <trkpt lat="27.769018" lon="86.723322">
        <ele>2798.6</ele>
        <time>2022-10-30T02:48:37.000Z</time>
      </trkpt>
      <trkpt lat="27.769002" lon="86.723302">
        <ele>2798.4</ele>
        <time>2022-10-30T02:48:39.000Z</time>
      </trkpt>
      <trkpt lat="27.768982" lon="86.72329">
        <ele>2798.2</ele>
        <time>2022-10-30T02:48:42.000Z</time>
      </trkpt>
      <trkpt lat="27.76896" lon="86.723264">
        <ele>2797.8</ele>
        <time>2022-10-30T02:48:45.000Z</time>
      </trkpt>
      <trkpt lat="27.768947" lon="86.723245">
        <ele>2797.8</ele>
        <time>2022-10-30T02:48:47.000Z</time>
      </trkpt>
      <trkpt lat="27.768931" lon="86.723226">
        <ele>2797.8</ele>
        <time>2022-10-30T02:48:49.000Z</time>
      </trkpt>
      <trkpt lat="27.768918" lon="86.723206">
        <ele>2797.6</ele>
        <time>2022-10-30T02:48:51.000Z</time>
      </trkpt>
      <trkpt lat="27.768909" lon="86.723187">
        <ele>2797.6</ele>
        <time>2022-10-30T02:48:53.000Z</time>
      </trkpt>
      <trkpt lat="27.768896" lon="86.723168">
        <ele>2797.8</ele>
        <time>2022-10-30T02:48:55.000Z</time>
      </trkpt>
      <trkpt lat="27.768883" lon="86.723142">
        <ele>2797.6</ele>
        <time>2022-10-30T02:48:57.000Z</time>
      </trkpt>
      <trkpt lat="27.768864" lon="86.72313">
        <ele>2797.2</ele>
        <time>2022-10-30T02:49:00.000Z</time>
      </trkpt>
      <trkpt lat="27.768845" lon="86.723123">
        <ele>2796.6</ele>
        <time>2022-10-30T02:49:03.000Z</time>
      </trkpt>
      <trkpt lat="27.768838" lon="86.723104">
        <ele>2795.6</ele>
        <time>2022-10-30T02:49:05.000Z</time>
      </trkpt>
      <trkpt lat="27.768816" lon="86.723098">
        <ele>2795.4</ele>
        <time>2022-10-30T02:49:07.000Z</time>
      </trkpt>
      <trkpt lat="27.76879" lon="86.723091">
        <ele>2795</ele>
        <time>2022-10-30T02:49:09.000Z</time>
      </trkpt>
      <trkpt lat="27.768765" lon="86.723085">
        <ele>2795</ele>
        <time>2022-10-30T02:49:11.000Z</time>
      </trkpt>
      <trkpt lat="27.768742" lon="86.723078">
        <ele>2794.8</ele>
        <time>2022-10-30T02:49:13.000Z</time>
      </trkpt>
      <trkpt lat="27.76872" lon="86.723066">
        <ele>2794.2</ele>
        <time>2022-10-30T02:49:15.000Z</time>
      </trkpt>
      <trkpt lat="27.768694" lon="86.723066">
        <ele>2794.2</ele>
        <time>2022-10-30T02:49:17.000Z</time>
      </trkpt>
      <trkpt lat="27.768675" lon="86.723066">
        <ele>2794</ele>
        <time>2022-10-30T02:49:19.000Z</time>
      </trkpt>
      <trkpt lat="27.768656" lon="86.723078">
        <ele>2793.8</ele>
        <time>2022-10-30T02:49:21.000Z</time>
      </trkpt>
      <trkpt lat="27.768634" lon="86.723078">
        <ele>2793.8</ele>
        <time>2022-10-30T02:49:23.000Z</time>
      </trkpt>
      <trkpt lat="27.768614" lon="86.723085">
        <ele>2793.6</ele>
        <time>2022-10-30T02:49:26.000Z</time>
      </trkpt>
      <trkpt lat="27.768595" lon="86.723085">
        <ele>2792.8</ele>
        <time>2022-10-30T02:49:29.000Z</time>
      </trkpt>
      <trkpt lat="27.768576" lon="86.723085">
        <ele>2792</ele>
        <time>2022-10-30T02:49:32.000Z</time>
      </trkpt>
      <trkpt lat="27.768554" lon="86.723091">
        <ele>2791.2</ele>
        <time>2022-10-30T02:49:34.000Z</time>
      </trkpt>
      <trkpt lat="27.768528" lon="86.723098">
        <ele>2791</ele>
        <time>2022-10-30T02:49:36.000Z</time>
      </trkpt>
      <trkpt lat="27.768506" lon="86.723098">
        <ele>2791</ele>
        <time>2022-10-30T02:49:38.000Z</time>
      </trkpt>
      <trkpt lat="27.768486" lon="86.723104">
        <ele>2790.6</ele>
        <time>2022-10-30T02:49:41.000Z</time>
      </trkpt>
      <trkpt lat="27.768461" lon="86.723098">
        <ele>2790.4</ele>
        <time>2022-10-30T02:49:44.000Z</time>
      </trkpt>
      <trkpt lat="27.768438" lon="86.723098">
        <ele>2789.8</ele>
        <time>2022-10-30T02:49:46.000Z</time>
      </trkpt>
      <trkpt lat="27.768419" lon="86.723098">
        <ele>2789.8</ele>
        <time>2022-10-30T02:49:48.000Z</time>
      </trkpt>
      <trkpt lat="27.768394" lon="86.723091">
        <ele>2789</ele>
        <time>2022-10-30T02:49:51.000Z</time>
      </trkpt>
      <trkpt lat="27.768371" lon="86.723091">
        <ele>2788.6</ele>
        <time>2022-10-30T02:49:53.000Z</time>
      </trkpt>
      <trkpt lat="27.768352" lon="86.723091">
        <ele>2788.4</ele>
        <time>2022-10-30T02:49:55.000Z</time>
      </trkpt>
      <trkpt lat="27.768326" lon="86.723078">
        <ele>2787.6</ele>
        <time>2022-10-30T02:49:58.000Z</time>
      </trkpt>
      <trkpt lat="27.768304" lon="86.723078">
        <ele>2787.4</ele>
        <time>2022-10-30T02:50:00.000Z</time>
      </trkpt>
      <trkpt lat="27.768285" lon="86.723066">
        <ele>2787.4</ele>
        <time>2022-10-30T02:50:02.000Z</time>
      </trkpt>
      <trkpt lat="27.768262" lon="86.723053">
        <ele>2787.4</ele>
        <time>2022-10-30T02:50:04.000Z</time>
      </trkpt>
      <trkpt lat="27.76824" lon="86.723053">
        <ele>2787.4</ele>
        <time>2022-10-30T02:50:06.000Z</time>
      </trkpt>
      <trkpt lat="27.768218" lon="86.723046">
        <ele>2787.2</ele>
        <time>2022-10-30T02:50:09.000Z</time>
      </trkpt>
      <trkpt lat="27.768198" lon="86.72304">
        <ele>2787</ele>
        <time>2022-10-30T02:50:11.000Z</time>
      </trkpt>
      <trkpt lat="27.768179" lon="86.723046">
        <ele>2786.4</ele>
        <time>2022-10-30T02:50:15.000Z</time>
      </trkpt>
      <trkpt lat="27.768163" lon="86.723066">
        <ele>2786.2</ele>
        <time>2022-10-30T02:50:17.000Z</time>
      </trkpt>
      <trkpt lat="27.768144" lon="86.723091">
        <ele>2786</ele>
        <time>2022-10-30T02:50:19.000Z</time>
      </trkpt>
      <trkpt lat="27.768122" lon="86.723117">
        <ele>2785.6</ele>
        <time>2022-10-30T02:50:21.000Z</time>
      </trkpt>
      <trkpt lat="27.768115" lon="86.723136">
        <ele>2785.2</ele>
        <time>2022-10-30T02:50:23.000Z</time>
      </trkpt>
      <trkpt lat="27.768096" lon="86.723155">
        <ele>2785</ele>
        <time>2022-10-30T02:50:25.000Z</time>
      </trkpt>
      <trkpt lat="27.768077" lon="86.723162">
        <ele>2784.6</ele>
        <time>2022-10-30T02:50:27.000Z</time>
      </trkpt>
      <trkpt lat="27.768058" lon="86.723174">
        <ele>2784.6</ele>
        <time>2022-10-30T02:50:29.000Z</time>
      </trkpt>
      <trkpt lat="27.768038" lon="86.723174">
        <ele>2784.4</ele>
        <time>2022-10-30T02:50:31.000Z</time>
      </trkpt>
      <trkpt lat="27.768019" lon="86.723168">
        <ele>2784</ele>
        <time>2022-10-30T02:50:33.000Z</time>
      </trkpt>
      <trkpt lat="27.767997" lon="86.723168">
        <ele>2784</ele>
        <time>2022-10-30T02:50:35.000Z</time>
      </trkpt>
      <trkpt lat="27.767974" lon="86.723168">
        <ele>2783.8</ele>
        <time>2022-10-30T02:50:37.000Z</time>
      </trkpt>
      <trkpt lat="27.767955" lon="86.723174">
        <ele>2783.4</ele>
        <time>2022-10-30T02:50:39.000Z</time>
      </trkpt>
      <trkpt lat="27.767936" lon="86.723181">
        <ele>2783.4</ele>
        <time>2022-10-30T02:50:41.000Z</time>
      </trkpt>
      <trkpt lat="27.767914" lon="86.723187">
        <ele>2782.8</ele>
        <time>2022-10-30T02:50:43.000Z</time>
      </trkpt>
      <trkpt lat="27.767888" lon="86.723187">
        <ele>2782.8</ele>
        <time>2022-10-30T02:50:45.000Z</time>
      </trkpt>
      <trkpt lat="27.767866" lon="86.723181">
        <ele>2782.2</ele>
        <time>2022-10-30T02:50:48.000Z</time>
      </trkpt>
      <trkpt lat="27.76784" lon="86.723174">
        <ele>2782.2</ele>
        <time>2022-10-30T02:50:50.000Z</time>
      </trkpt>
      <trkpt lat="27.767821" lon="86.723168">
        <ele>2782</ele>
        <time>2022-10-30T02:50:52.000Z</time>
      </trkpt>
      <trkpt lat="27.767798" lon="86.723174">
        <ele>2781.8</ele>
        <time>2022-10-30T02:50:56.000Z</time>
      </trkpt>
      <trkpt lat="27.767779" lon="86.723174">
        <ele>2781.2</ele>
        <time>2022-10-30T02:50:58.000Z</time>
      </trkpt>
      <trkpt lat="27.76775" lon="86.723174">
        <ele>2780.8</ele>
        <time>2022-10-30T02:51:01.000Z</time>
      </trkpt>
      <trkpt lat="27.767731" lon="86.723181">
        <ele>2780.6</ele>
        <time>2022-10-30T02:51:03.000Z</time>
      </trkpt>
      <trkpt lat="27.767712" lon="86.723187">
        <ele>2780</ele>
        <time>2022-10-30T02:51:06.000Z</time>
      </trkpt>
      <trkpt lat="27.767686" lon="86.723187">
        <ele>2779.6</ele>
        <time>2022-10-30T02:51:09.000Z</time>
      </trkpt>
      <trkpt lat="27.767664" lon="86.723187">
        <ele>2779.2</ele>
        <time>2022-10-30T02:51:12.000Z</time>
      </trkpt>
      <trkpt lat="27.767642" lon="86.7232">
        <ele>2778.4</ele>
        <time>2022-10-30T02:51:15.000Z</time>
      </trkpt>
      <trkpt lat="27.767622" lon="86.723187">
        <ele>2778.2</ele>
        <time>2022-10-30T02:51:17.000Z</time>
      </trkpt>
      <trkpt lat="27.767597" lon="86.7232">
        <ele>2778</ele>
        <time>2022-10-30T02:51:19.000Z</time>
      </trkpt>
      <trkpt lat="27.767578" lon="86.723187">
        <ele>2777.8</ele>
        <time>2022-10-30T02:51:21.000Z</time>
      </trkpt>
      <trkpt lat="27.767555" lon="86.723181">
        <ele>2777.6</ele>
        <time>2022-10-30T02:51:24.000Z</time>
      </trkpt>
      <trkpt lat="27.767536" lon="86.723174">
        <ele>2777</ele>
        <time>2022-10-30T02:51:27.000Z</time>
      </trkpt>
      <trkpt lat="27.767514" lon="86.723174">
        <ele>2776.2</ele>
        <time>2022-10-30T02:51:30.000Z</time>
      </trkpt>
      <trkpt lat="27.767494" lon="86.723174">
        <ele>2776</ele>
        <time>2022-10-30T02:51:32.000Z</time>
      </trkpt>
      <trkpt lat="27.767472" lon="86.723162">
        <ele>2775.8</ele>
        <time>2022-10-30T02:51:35.000Z</time>
      </trkpt>
      <trkpt lat="27.767453" lon="86.723162">
        <ele>2775.4</ele>
        <time>2022-10-30T02:51:37.000Z</time>
      </trkpt>
      <trkpt lat="27.767424" lon="86.723174">
        <ele>2775.2</ele>
        <time>2022-10-30T02:51:39.000Z</time>
      </trkpt>
      <trkpt lat="27.767398" lon="86.723181">
        <ele>2775</ele>
        <time>2022-10-30T02:51:41.000Z</time>
      </trkpt>
      <trkpt lat="27.767373" lon="86.723187">
        <ele>2775</ele>
        <time>2022-10-30T02:51:43.000Z</time>
      </trkpt>
      <trkpt lat="27.76735" lon="86.7232">
        <ele>2774.4</ele>
        <time>2022-10-30T02:51:46.000Z</time>
      </trkpt>
      <trkpt lat="27.767331" lon="86.723206">
        <ele>2774.4</ele>
        <time>2022-10-30T02:51:48.000Z</time>
      </trkpt>
      <trkpt lat="27.767302" lon="86.723219">
        <ele>2774.2</ele>
        <time>2022-10-30T02:51:50.000Z</time>
      </trkpt>
      <trkpt lat="27.767283" lon="86.723238">
        <ele>2773.8</ele>
        <time>2022-10-30T02:51:52.000Z</time>
      </trkpt>
      <trkpt lat="27.767258" lon="86.723245">
        <ele>2773.6</ele>
        <time>2022-10-30T02:51:55.000Z</time>
      </trkpt>
      <trkpt lat="27.767232" lon="86.723245">
        <ele>2773.6</ele>
        <time>2022-10-30T02:51:58.000Z</time>
      </trkpt>
      <trkpt lat="27.767194" lon="86.723245">
        <ele>2773.4</ele>
        <time>2022-10-30T02:52:00.000Z</time>
      </trkpt>
      <trkpt lat="27.767162" lon="86.723226">
        <ele>2773.2</ele>
        <time>2022-10-30T02:52:02.000Z</time>
      </trkpt>
      <trkpt lat="27.767133" lon="86.723226">
        <ele>2773.2</ele>
        <time>2022-10-30T02:52:04.000Z</time>
      </trkpt>
      <trkpt lat="27.767114" lon="86.723206">
        <ele>2773</ele>
        <time>2022-10-30T02:52:07.000Z</time>
      </trkpt>
      <trkpt lat="27.767094" lon="86.723187">
        <ele>2772.8</ele>
        <time>2022-10-30T02:52:09.000Z</time>
      </trkpt>
      <trkpt lat="27.767072" lon="86.7232">
        <ele>2772.8</ele>
        <time>2022-10-30T02:52:12.000Z</time>
      </trkpt>
      <trkpt lat="27.767056" lon="86.723226">
        <ele>2772.8</ele>
        <time>2022-10-30T02:52:13.000Z</time>
      </trkpt>
      <trkpt lat="27.767037" lon="86.723245">
        <ele>2772.8</ele>
        <time>2022-10-30T02:52:14.000Z</time>
      </trkpt>
      <trkpt lat="27.767018" lon="86.723251">
        <ele>2772.8</ele>
        <time>2022-10-30T02:52:16.000Z</time>
      </trkpt>
      <trkpt lat="27.766992" lon="86.723264">
        <ele>2772.6</ele>
        <time>2022-10-30T02:52:19.000Z</time>
      </trkpt>
      <trkpt lat="27.766966" lon="86.723277">
        <ele>2772.6</ele>
        <time>2022-10-30T02:52:21.000Z</time>
      </trkpt>
      <trkpt lat="27.766947" lon="86.723277">
        <ele>2772.2</ele>
        <time>2022-10-30T02:52:23.000Z</time>
      </trkpt>
      <trkpt lat="27.766925" lon="86.723277">
        <ele>2772.6</ele>
        <time>2022-10-30T02:52:25.000Z</time>
      </trkpt>
      <trkpt lat="27.766896" lon="86.723277">
        <ele>2772.8</ele>
        <time>2022-10-30T02:52:27.000Z</time>
      </trkpt>
      <trkpt lat="27.76687" lon="86.723277">
        <ele>2772.8</ele>
        <time>2022-10-30T02:52:29.000Z</time>
      </trkpt>
      <trkpt lat="27.766851" lon="86.723283">
        <ele>2773.2</ele>
        <time>2022-10-30T02:52:31.000Z</time>
      </trkpt>
      <trkpt lat="27.766826" lon="86.72329">
        <ele>2773.4</ele>
        <time>2022-10-30T02:52:35.000Z</time>
      </trkpt>
      <trkpt lat="27.766806" lon="86.723296">
        <ele>2773.4</ele>
        <time>2022-10-30T02:52:37.000Z</time>
      </trkpt>
      <trkpt lat="27.766784" lon="86.723302">
        <ele>2773.6</ele>
        <time>2022-10-30T02:52:40.000Z</time>
      </trkpt>
      <trkpt lat="27.766768" lon="86.723315">
        <ele>2773.4</ele>
        <time>2022-10-30T02:52:42.000Z</time>
      </trkpt>
      <trkpt lat="27.766749" lon="86.723315">
        <ele>2773.6</ele>
        <time>2022-10-30T02:52:44.000Z</time>
      </trkpt>
      <trkpt lat="27.766723" lon="86.723315">
        <ele>2773.8</ele>
        <time>2022-10-30T02:52:47.000Z</time>
      </trkpt>
      <trkpt lat="27.766704" lon="86.723315">
        <ele>2773.6</ele>
        <time>2022-10-30T02:52:49.000Z</time>
      </trkpt>
      <trkpt lat="27.766685" lon="86.723302">
        <ele>2773.8</ele>
        <time>2022-10-30T02:52:51.000Z</time>
      </trkpt>
      <trkpt lat="27.766662" lon="86.723302">
        <ele>2774</ele>
        <time>2022-10-30T02:52:53.000Z</time>
      </trkpt>
      <trkpt lat="27.766643" lon="86.723315">
        <ele>2774.2</ele>
        <time>2022-10-30T02:52:55.000Z</time>
      </trkpt>
      <trkpt lat="27.766618" lon="86.723322">
        <ele>2774.8</ele>
        <time>2022-10-30T02:52:58.000Z</time>
      </trkpt>
      <trkpt lat="27.766592" lon="86.723334">
        <ele>2775.4</ele>
        <time>2022-10-30T02:53:01.000Z</time>
      </trkpt>
      <trkpt lat="27.76657" lon="86.723341">
        <ele>2775.2</ele>
        <time>2022-10-30T02:53:04.000Z</time>
      </trkpt>
      <trkpt lat="27.76655" lon="86.723354">
        <ele>2775.2</ele>
        <time>2022-10-30T02:53:06.000Z</time>
      </trkpt>
      <trkpt lat="27.766534" lon="86.723366">
        <ele>2775.6</ele>
        <time>2022-10-30T02:53:08.000Z</time>
      </trkpt>
      <trkpt lat="27.766506" lon="86.723373">
        <ele>2775.6</ele>
        <time>2022-10-30T02:53:12.000Z</time>
      </trkpt>
      <trkpt lat="27.766477" lon="86.723366">
        <ele>2775.6</ele>
        <time>2022-10-30T02:53:15.000Z</time>
      </trkpt>
      <trkpt lat="27.766448" lon="86.723366">
        <ele>2775.6</ele>
        <time>2022-10-30T02:53:17.000Z</time>
      </trkpt>
      <trkpt lat="27.766426" lon="86.723373">
        <ele>2775.6</ele>
        <time>2022-10-30T02:53:19.000Z</time>
      </trkpt>
      <trkpt lat="27.766397" lon="86.723373">
        <ele>2775.8</ele>
        <time>2022-10-30T02:53:22.000Z</time>
      </trkpt>
      <trkpt lat="27.766378" lon="86.723366">
        <ele>2775.8</ele>
        <time>2022-10-30T02:53:24.000Z</time>
      </trkpt>
      <trkpt lat="27.766358" lon="86.723366">
        <ele>2775.8</ele>
        <time>2022-10-30T02:53:27.000Z</time>
      </trkpt>
      <trkpt lat="27.766336" lon="86.723373">
        <ele>2775.2</ele>
        <time>2022-10-30T02:53:30.000Z</time>
      </trkpt>
      <trkpt lat="27.766317" lon="86.723366">
        <ele>2774.4</ele>
        <time>2022-10-30T02:53:33.000Z</time>
      </trkpt>
      <trkpt lat="27.766291" lon="86.723366">
        <ele>2773.4</ele>
        <time>2022-10-30T02:53:36.000Z</time>
      </trkpt>
      <trkpt lat="27.766272" lon="86.72336">
        <ele>2772</ele>
        <time>2022-10-30T02:53:44.000Z</time>
      </trkpt>
      <trkpt lat="27.766253" lon="86.72336">
        <ele>2771.2</ele>
        <time>2022-10-30T02:53:48.000Z</time>
      </trkpt>
      <trkpt lat="27.76624" lon="86.723379">
        <ele>2770.4</ele>
        <time>2022-10-30T02:53:52.000Z</time>
      </trkpt>
      <trkpt lat="27.76623" lon="86.723398">
        <ele>2770.2</ele>
        <time>2022-10-30T02:53:54.000Z</time>
      </trkpt>
      <trkpt lat="27.766221" lon="86.723418">
        <ele>2769.8</ele>
        <time>2022-10-30T02:53:56.000Z</time>
      </trkpt>
      <trkpt lat="27.766218" lon="86.723443">
        <ele>2769</ele>
        <time>2022-10-30T02:53:58.000Z</time>
      </trkpt>
      <trkpt lat="27.766208" lon="86.723462">
        <ele>2768.6</ele>
        <time>2022-10-30T02:54:00.000Z</time>
      </trkpt>
      <trkpt lat="27.766198" lon="86.723482">
        <ele>2768.4</ele>
        <time>2022-10-30T02:54:02.000Z</time>
      </trkpt>
      <trkpt lat="27.766186" lon="86.723501">
        <ele>2768.2</ele>
        <time>2022-10-30T02:54:04.000Z</time>
      </trkpt>
      <trkpt lat="27.766166" lon="86.723501">
        <ele>2767.6</ele>
        <time>2022-10-30T02:54:07.000Z</time>
      </trkpt>
      <trkpt lat="27.766147" lon="86.723501">
        <ele>2767.6</ele>
        <time>2022-10-30T02:54:10.000Z</time>
      </trkpt>
      <trkpt lat="27.766128" lon="86.723488">
        <ele>2767</ele>
        <time>2022-10-30T02:54:13.000Z</time>
      </trkpt>
      <trkpt lat="27.766115" lon="86.723462">
        <ele>2766.4</ele>
        <time>2022-10-30T02:54:16.000Z</time>
      </trkpt>
      <trkpt lat="27.766099" lon="86.723443">
        <ele>2766.2</ele>
        <time>2022-10-30T02:54:19.000Z</time>
      </trkpt>
      <trkpt lat="27.766083" lon="86.723424">
        <ele>2765.6</ele>
        <time>2022-10-30T02:54:21.000Z</time>
      </trkpt>
      <trkpt lat="27.766064" lon="86.723411">
        <ele>2766</ele>
        <time>2022-10-30T02:54:24.000Z</time>
      </trkpt>
      <trkpt lat="27.766051" lon="86.723386">
        <ele>2766.2</ele>
        <time>2022-10-30T02:54:26.000Z</time>
      </trkpt>
      <trkpt lat="27.766032" lon="86.723366">
        <ele>2765</ele>
        <time>2022-10-30T02:54:29.000Z</time>
      </trkpt>
      <trkpt lat="27.766016" lon="86.723354">
        <ele>2764.8</ele>
        <time>2022-10-30T02:54:31.000Z</time>
      </trkpt>
      <trkpt lat="27.766003" lon="86.723334">
        <ele>2764.4</ele>
        <time>2022-10-30T02:54:33.000Z</time>
      </trkpt>
      <trkpt lat="27.765994" lon="86.723315">
        <ele>2764</ele>
        <time>2022-10-30T02:54:36.000Z</time>
      </trkpt>
      <trkpt lat="27.765981" lon="86.723296">
        <ele>2763.4</ele>
        <time>2022-10-30T02:54:40.000Z</time>
      </trkpt>
      <trkpt lat="27.765962" lon="86.723283">
        <ele>2762.4</ele>
        <time>2022-10-30T02:54:44.000Z</time>
      </trkpt>
      <trkpt lat="27.765958" lon="86.723258">
        <ele>2761.8</ele>
        <time>2022-10-30T02:54:57.000Z</time>
      </trkpt>
      <trkpt lat="27.765933" lon="86.723206">
        <ele>2760.6</ele>
        <time>2022-10-30T02:55:02.000Z</time>
      </trkpt>
      <trkpt lat="27.765923" lon="86.723181">
        <ele>2760.6</ele>
        <time>2022-10-30T02:55:04.000Z</time>
      </trkpt>
      <trkpt lat="27.765914" lon="86.723162">
        <ele>2760.6</ele>
        <time>2022-10-30T02:55:06.000Z</time>
      </trkpt>
      <trkpt lat="27.765901" lon="86.723142">
        <ele>2760.4</ele>
        <time>2022-10-30T02:55:08.000Z</time>
      </trkpt>
      <trkpt lat="27.765882" lon="86.723123">
        <ele>2760.4</ele>
        <time>2022-10-30T02:55:11.000Z</time>
      </trkpt>
      <trkpt lat="27.765869" lon="86.723104">
        <ele>2760.4</ele>
        <time>2022-10-30T02:55:13.000Z</time>
      </trkpt>
      <trkpt lat="27.76585" lon="86.723098">
        <ele>2760.6</ele>
        <time>2022-10-30T02:55:16.000Z</time>
      </trkpt>
      <trkpt lat="27.76583" lon="86.723098">
        <ele>2760.6</ele>
        <time>2022-10-30T02:55:18.000Z</time>
      </trkpt>
      <trkpt lat="27.765808" lon="86.723091">
        <ele>2760.8</ele>
        <time>2022-10-30T02:55:20.000Z</time>
      </trkpt>
      <trkpt lat="27.765789" lon="86.723104">
        <ele>2760.8</ele>
        <time>2022-10-30T02:55:22.000Z</time>
      </trkpt>
      <trkpt lat="27.765763" lon="86.723098">
        <ele>2761.2</ele>
        <time>2022-10-30T02:55:24.000Z</time>
      </trkpt>
      <trkpt lat="27.76575" lon="86.723078">
        <ele>2761.2</ele>
        <time>2022-10-30T02:55:26.000Z</time>
      </trkpt>
      <trkpt lat="27.765734" lon="86.723053">
        <ele>2761.2</ele>
        <time>2022-10-30T02:55:28.000Z</time>
      </trkpt>
      <trkpt lat="27.765712" lon="86.723053">
        <ele>2761.2</ele>
        <time>2022-10-30T02:55:29.000Z</time>
      </trkpt>
      <trkpt lat="27.765693" lon="86.723046">
        <ele>2761.6</ele>
        <time>2022-10-30T02:55:30.000Z</time>
      </trkpt>
      <trkpt lat="27.765674" lon="86.72304">
        <ele>2761.4</ele>
        <time>2022-10-30T02:55:32.000Z</time>
      </trkpt>
      <trkpt lat="27.765661" lon="86.723021">
        <ele>2761.4</ele>
        <time>2022-10-30T02:55:33.000Z</time>
      </trkpt>
      <trkpt lat="27.765632" lon="86.723008">
        <ele>2761.4</ele>
        <time>2022-10-30T02:55:36.000Z</time>
      </trkpt>
      <trkpt lat="27.765603" lon="86.723008">
        <ele>2761.4</ele>
        <time>2022-10-30T02:55:38.000Z</time>
      </trkpt>
      <trkpt lat="27.765581" lon="86.723008">
        <ele>2761.4</ele>
        <time>2022-10-30T02:55:40.000Z</time>
      </trkpt>
      <trkpt lat="27.765555" lon="86.723008">
        <ele>2761.4</ele>
        <time>2022-10-30T02:55:43.000Z</time>
      </trkpt>
      <trkpt lat="27.765533" lon="86.723014">
        <ele>2761.8</ele>
        <time>2022-10-30T02:55:46.000Z</time>
      </trkpt>
      <trkpt lat="27.765507" lon="86.723021">
        <ele>2761.8</ele>
        <time>2022-10-30T02:55:49.000Z</time>
      </trkpt>
      <trkpt lat="27.765498" lon="86.72304">
        <ele>2761.8</ele>
        <time>2022-10-30T02:55:51.000Z</time>
      </trkpt>
      <trkpt lat="27.765472" lon="86.723046">
        <ele>2762.4</ele>
        <time>2022-10-30T02:55:57.000Z</time>
      </trkpt>
      <trkpt lat="27.76545" lon="86.72304">
        <ele>2762.8</ele>
        <time>2022-10-30T02:56:00.000Z</time>
      </trkpt>
      <trkpt lat="27.765434" lon="86.723021">
        <ele>2763.2</ele>
        <time>2022-10-30T02:56:02.000Z</time>
      </trkpt>
      <trkpt lat="27.765411" lon="86.723002">
        <ele>2763.2</ele>
        <time>2022-10-30T02:56:05.000Z</time>
      </trkpt>
      <trkpt lat="27.765405" lon="86.722976">
        <ele>2763.2</ele>
        <time>2022-10-30T02:56:08.000Z</time>
      </trkpt>
      <trkpt lat="27.765398" lon="86.722957">
        <ele>2763.4</ele>
        <time>2022-10-30T02:56:10.000Z</time>
      </trkpt>
      <trkpt lat="27.765398" lon="86.722931">
        <ele>2763.8</ele>
        <time>2022-10-30T02:56:12.000Z</time>
      </trkpt>
      <trkpt lat="27.765405" lon="86.722906">
        <ele>2764.6</ele>
        <time>2022-10-30T02:56:15.000Z</time>
      </trkpt>
      <trkpt lat="27.765398" lon="86.722886">
        <ele>2764.8</ele>
        <time>2022-10-30T02:56:18.000Z</time>
      </trkpt>
      <trkpt lat="27.765395" lon="86.722854">
        <ele>2765.2</ele>
        <time>2022-10-30T02:56:20.000Z</time>
      </trkpt>
      <trkpt lat="27.765395" lon="86.722829">
        <ele>2765.4</ele>
        <time>2022-10-30T02:56:22.000Z</time>
      </trkpt>
      <trkpt lat="27.765376" lon="86.72281">
        <ele>2764.8</ele>
        <time>2022-10-30T02:56:25.000Z</time>
      </trkpt>
      <trkpt lat="27.765357" lon="86.722803">
        <ele>2764.4</ele>
        <time>2022-10-30T02:56:27.000Z</time>
      </trkpt>
      <trkpt lat="27.765338" lon="86.72279">
        <ele>2764.2</ele>
        <time>2022-10-30T02:56:30.000Z</time>
      </trkpt>
      <trkpt lat="27.765318" lon="86.722784">
        <ele>2764</ele>
        <time>2022-10-30T02:56:32.000Z</time>
      </trkpt>
      <trkpt lat="27.765296" lon="86.722771">
        <ele>2763.6</ele>
        <time>2022-10-30T02:56:35.000Z</time>
      </trkpt>
      <trkpt lat="27.765274" lon="86.722765">
        <ele>2763</ele>
        <time>2022-10-30T02:56:37.000Z</time>
      </trkpt>
      <trkpt lat="27.765254" lon="86.722765">
        <ele>2762.8</ele>
        <time>2022-10-30T02:56:39.000Z</time>
      </trkpt>
      <trkpt lat="27.765226" lon="86.722746">
        <ele>2762.2</ele>
        <time>2022-10-30T02:56:42.000Z</time>
      </trkpt>
      <trkpt lat="27.765206" lon="86.722739">
        <ele>2762.2</ele>
        <time>2022-10-30T02:56:44.000Z</time>
      </trkpt>
      <trkpt lat="27.765184" lon="86.722739">
        <ele>2761.4</ele>
        <time>2022-10-30T02:56:47.000Z</time>
      </trkpt>
      <trkpt lat="27.765158" lon="86.722726">
        <ele>2761.6</ele>
        <time>2022-10-30T02:56:50.000Z</time>
      </trkpt>
      <trkpt lat="27.765139" lon="86.722707">
        <ele>2761</ele>
        <time>2022-10-30T02:56:53.000Z</time>
      </trkpt>
      <trkpt lat="27.765123" lon="86.722694">
        <ele>2760</ele>
        <time>2022-10-30T02:57:00.000Z</time>
      </trkpt>
      <trkpt lat="27.765104" lon="86.722688">
        <ele>2760</ele>
        <time>2022-10-30T02:57:08.000Z</time>
      </trkpt>
      <trkpt lat="27.765085" lon="86.722669">
        <ele>2760</ele>
        <time>2022-10-30T02:57:12.000Z</time>
      </trkpt>
      <trkpt lat="27.765066" lon="86.722662">
        <ele>2759</ele>
        <time>2022-10-30T02:57:15.000Z</time>
      </trkpt>
      <trkpt lat="27.76504" lon="86.722656">
        <ele>2758.4</ele>
        <time>2022-10-30T02:57:18.000Z</time>
      </trkpt>
      <trkpt lat="27.76503" lon="86.72263">
        <ele>2757.8</ele>
        <time>2022-10-30T02:57:21.000Z</time>
      </trkpt>
      <trkpt lat="27.765011" lon="86.722618">
        <ele>2757.2</ele>
        <time>2022-10-30T02:57:25.000Z</time>
      </trkpt>
      <trkpt lat="27.764995" lon="86.722605">
        <ele>2756.8</ele>
        <time>2022-10-30T02:57:28.000Z</time>
      </trkpt>
      <trkpt lat="27.764979" lon="86.722586">
        <ele>2756.4</ele>
        <time>2022-10-30T02:57:30.000Z</time>
      </trkpt>
      <trkpt lat="27.764957" lon="86.722579">
        <ele>2755.8</ele>
        <time>2022-10-30T02:57:33.000Z</time>
      </trkpt>
      <trkpt lat="27.764938" lon="86.722566">
        <ele>2755.2</ele>
        <time>2022-10-30T02:57:36.000Z</time>
      </trkpt>
      <trkpt lat="27.764918" lon="86.722547">
        <ele>2754.2</ele>
        <time>2022-10-30T02:57:41.000Z</time>
      </trkpt>
      <trkpt lat="27.764899" lon="86.722541">
        <ele>2754</ele>
        <time>2022-10-30T02:57:45.000Z</time>
      </trkpt>
      <trkpt lat="27.764883" lon="86.722528">
        <ele>2753.8</ele>
        <time>2022-10-30T02:57:48.000Z</time>
      </trkpt>
      <trkpt lat="27.764867" lon="86.722509">
        <ele>2753.6</ele>
        <time>2022-10-30T02:57:50.000Z</time>
      </trkpt>
      <trkpt lat="27.764842" lon="86.722496">
        <ele>2753.4</ele>
        <time>2022-10-30T02:57:52.000Z</time>
      </trkpt>
      <trkpt lat="27.764813" lon="86.72249">
        <ele>2753.4</ele>
        <time>2022-10-30T02:57:55.000Z</time>
      </trkpt>
      <trkpt lat="27.764787" lon="86.722483">
        <ele>2753.4</ele>
        <time>2022-10-30T02:57:58.000Z</time>
      </trkpt>
      <trkpt lat="27.764762" lon="86.72247">
        <ele>2753</ele>
        <time>2022-10-30T02:58:00.000Z</time>
      </trkpt>
      <trkpt lat="27.764739" lon="86.722458">
        <ele>2753</ele>
        <time>2022-10-30T02:58:02.000Z</time>
      </trkpt>
      <trkpt lat="27.76472" lon="86.722451">
        <ele>2753</ele>
        <time>2022-10-30T02:58:04.000Z</time>
      </trkpt>
      <trkpt lat="27.764707" lon="86.722432">
        <ele>2753</ele>
        <time>2022-10-30T02:58:06.000Z</time>
      </trkpt>
      <trkpt lat="27.764688" lon="86.722426">
        <ele>2753.2</ele>
        <time>2022-10-30T02:58:08.000Z</time>
      </trkpt>
      <trkpt lat="27.764666" lon="86.722419">
        <ele>2753.2</ele>
        <time>2022-10-30T02:58:10.000Z</time>
      </trkpt>
      <trkpt lat="27.764643" lon="86.722406">
        <ele>2752.8</ele>
        <time>2022-10-30T02:58:13.000Z</time>
      </trkpt>
      <trkpt lat="27.764621" lon="86.722387">
        <ele>2752.2</ele>
        <time>2022-10-30T02:58:16.000Z</time>
      </trkpt>
      <trkpt lat="27.764602" lon="86.722374">
        <ele>2752</ele>
        <time>2022-10-30T02:58:18.000Z</time>
      </trkpt>
      <trkpt lat="27.764586" lon="86.722349">
        <ele>2751.8</ele>
        <time>2022-10-30T02:58:21.000Z</time>
      </trkpt>
      <trkpt lat="27.764576" lon="86.72233">
        <ele>2751.6</ele>
        <time>2022-10-30T02:58:23.000Z</time>
      </trkpt>
      <trkpt lat="27.76456" lon="86.72231">
        <ele>2751</ele>
        <time>2022-10-30T02:58:25.000Z</time>
      </trkpt>
      <trkpt lat="27.764538" lon="86.722304">
        <ele>2750.8</ele>
        <time>2022-10-30T02:58:27.000Z</time>
      </trkpt>
      <trkpt lat="27.764528" lon="86.722285">
        <ele>2750.8</ele>
        <time>2022-10-30T02:58:30.000Z</time>
      </trkpt>
      <trkpt lat="27.764515" lon="86.722259">
        <ele>2750.8</ele>
        <time>2022-10-30T02:58:32.000Z</time>
      </trkpt>
      <trkpt lat="27.764493" lon="86.722246">
        <ele>2750.2</ele>
        <time>2022-10-30T02:58:35.000Z</time>
      </trkpt>
      <trkpt lat="27.764483" lon="86.722221">
        <ele>2750</ele>
        <time>2022-10-30T02:58:37.000Z</time>
      </trkpt>
      <trkpt lat="27.764464" lon="86.722208">
        <ele>2749.4</ele>
        <time>2022-10-30T02:58:41.000Z</time>
      </trkpt>
      <trkpt lat="27.764445" lon="86.722202">
        <ele>2749.4</ele>
        <time>2022-10-30T02:58:43.000Z</time>
      </trkpt>
      <trkpt lat="27.764426" lon="86.722189">
        <ele>2748.6</ele>
        <time>2022-10-30T02:58:45.000Z</time>
      </trkpt>
      <trkpt lat="27.76441" lon="86.72217">
        <ele>2747.6</ele>
        <time>2022-10-30T02:58:49.000Z</time>
      </trkpt>
      <trkpt lat="27.764403" lon="86.72215">
        <ele>2747.4</ele>
        <time>2022-10-30T02:58:51.000Z</time>
      </trkpt>
      <trkpt lat="27.764394" lon="86.722131">
        <ele>2747</ele>
        <time>2022-10-30T02:58:53.000Z</time>
      </trkpt>
      <trkpt lat="27.764384" lon="86.722106">
        <ele>2746</ele>
        <time>2022-10-30T02:58:56.000Z</time>
      </trkpt>
      <trkpt lat="27.764368" lon="86.722093">
        <ele>2745.4</ele>
        <time>2022-10-30T02:59:00.000Z</time>
      </trkpt>
      <trkpt lat="27.764355" lon="86.722074">
        <ele>2745</ele>
        <time>2022-10-30T02:59:02.000Z</time>
      </trkpt>
      <trkpt lat="27.764339" lon="86.722061">
        <ele>2744.8</ele>
        <time>2022-10-30T02:59:04.000Z</time>
      </trkpt>
      <trkpt lat="27.76432" lon="86.722054">
        <ele>2744.8</ele>
        <time>2022-10-30T02:59:06.000Z</time>
      </trkpt>
      <trkpt lat="27.764298" lon="86.722035">
        <ele>2744.8</ele>
        <time>2022-10-30T02:59:09.000Z</time>
      </trkpt>
      <trkpt lat="27.764282" lon="86.722022">
        <ele>2745</ele>
        <time>2022-10-30T02:59:11.000Z</time>
      </trkpt>
      <trkpt lat="27.764253" lon="86.722003">
        <ele>2744.6</ele>
        <time>2022-10-30T02:59:14.000Z</time>
      </trkpt>
      <trkpt lat="27.764227" lon="86.722003">
        <ele>2744.4</ele>
        <time>2022-10-30T02:59:16.000Z</time>
      </trkpt>
      <trkpt lat="27.764208" lon="86.722003">
        <ele>2744.4</ele>
        <time>2022-10-30T02:59:17.000Z</time>
      </trkpt>
      <trkpt lat="27.764189" lon="86.721984">
        <ele>2744.4</ele>
        <time>2022-10-30T02:59:20.000Z</time>
      </trkpt>
      <trkpt lat="27.76417" lon="86.721971">
        <ele>2744.6</ele>
        <time>2022-10-30T02:59:23.000Z</time>
      </trkpt>
      <trkpt lat="27.764144" lon="86.721965">
        <ele>2744.2</ele>
        <time>2022-10-30T02:59:25.000Z</time>
      </trkpt>
      <trkpt lat="27.764131" lon="86.721946">
        <ele>2744.6</ele>
        <time>2022-10-30T02:59:27.000Z</time>
      </trkpt>
      <trkpt lat="27.764115" lon="86.721933">
        <ele>2744.2</ele>
        <time>2022-10-30T02:59:29.000Z</time>
      </trkpt>
      <trkpt lat="27.764096" lon="86.721926">
        <ele>2744.2</ele>
        <time>2022-10-30T02:59:31.000Z</time>
      </trkpt>
      <trkpt lat="27.764074" lon="86.721907">
        <ele>2743.8</ele>
        <time>2022-10-30T02:59:33.000Z</time>
      </trkpt>
      <trkpt lat="27.764058" lon="86.721894">
        <ele>2743.8</ele>
        <time>2022-10-30T02:59:35.000Z</time>
      </trkpt>
      <trkpt lat="27.764058" lon="86.721862">
        <ele>2743.4</ele>
        <time>2022-10-30T02:59:39.000Z</time>
      </trkpt>
      <trkpt lat="27.764048" lon="86.721837">
        <ele>2743</ele>
        <time>2022-10-30T02:59:41.000Z</time>
      </trkpt>
      <trkpt lat="27.764045" lon="86.721811">
        <ele>2741.6</ele>
        <time>2022-10-30T02:59:48.000Z</time>
      </trkpt>
      <trkpt lat="27.764054" lon="86.721792">
        <ele>2740.6</ele>
        <time>2022-10-30T02:59:51.000Z</time>
      </trkpt>
      <trkpt lat="27.764038" lon="86.721766">
        <ele>2740</ele>
        <time>2022-10-30T02:59:54.000Z</time>
      </trkpt>
      <trkpt lat="27.764026" lon="86.721734">
        <ele>2739.2</ele>
        <time>2022-10-30T02:59:56.000Z</time>
      </trkpt>
      <trkpt lat="27.764016" lon="86.721709">
        <ele>2739</ele>
        <time>2022-10-30T02:59:58.000Z</time>
      </trkpt>
      <trkpt lat="27.764013" lon="86.72167">
        <ele>2738.6</ele>
        <time>2022-10-30T03:00:01.000Z</time>
      </trkpt>
      <trkpt lat="27.763987" lon="86.721658">
        <ele>2738.2</ele>
        <time>2022-10-30T03:00:04.000Z</time>
      </trkpt>
      <trkpt lat="27.763974" lon="86.721638">
        <ele>2737.8</ele>
        <time>2022-10-30T03:00:06.000Z</time>
      </trkpt>
      <trkpt lat="27.763965" lon="86.721619">
        <ele>2737.2</ele>
        <time>2022-10-30T03:00:09.000Z</time>
      </trkpt>
      <trkpt lat="27.763955" lon="86.721587">
        <ele>2736.6</ele>
        <time>2022-10-30T03:00:12.000Z</time>
      </trkpt>
      <trkpt lat="27.763946" lon="86.721568">
        <ele>2736</ele>
        <time>2022-10-30T03:00:14.000Z</time>
      </trkpt>
      <trkpt lat="27.763952" lon="86.721549">
        <ele>2735</ele>
        <time>2022-10-30T03:00:18.000Z</time>
      </trkpt>
      <trkpt lat="27.763968" lon="86.721536">
        <ele>2735</ele>
        <time>2022-10-30T03:00:20.000Z</time>
      </trkpt>
      <trkpt lat="27.763974" lon="86.721517">
        <ele>2735.6</ele>
        <time>2022-10-30T03:00:33.000Z</time>
      </trkpt>
      <trkpt lat="27.763987" lon="86.721498">
        <ele>2735.4</ele>
        <time>2022-10-30T03:00:40.000Z</time>
      </trkpt>
      <trkpt lat="27.763994" lon="86.721478">
        <ele>2735.4</ele>
        <time>2022-10-30T03:00:41.000Z</time>
      </trkpt>
      <trkpt lat="27.763984" lon="86.72144">
        <ele>2735</ele>
        <time>2022-10-30T03:00:46.000Z</time>
      </trkpt>
      <trkpt lat="27.763978" lon="86.721414">
        <ele>2734.8</ele>
        <time>2022-10-30T03:00:48.000Z</time>
      </trkpt>
      <trkpt lat="27.763965" lon="86.721395">
        <ele>2734</ele>
        <time>2022-10-30T03:00:51.000Z</time>
      </trkpt>
      <trkpt lat="27.763949" lon="86.721376">
        <ele>2733.8</ele>
        <time>2022-10-30T03:00:54.000Z</time>
      </trkpt>
      <trkpt lat="27.763955" lon="86.72135">
        <ele>2733.2</ele>
        <time>2022-10-30T03:00:59.000Z</time>
      </trkpt>
      <trkpt lat="27.763958" lon="86.721312">
        <ele>2732.6</ele>
        <time>2022-10-30T03:01:02.000Z</time>
      </trkpt>
      <trkpt lat="27.763965" lon="86.72128">
        <ele>2732.4</ele>
        <time>2022-10-30T03:01:04.000Z</time>
      </trkpt>
      <trkpt lat="27.763974" lon="86.721261">
        <ele>2731.8</ele>
        <time>2022-10-30T03:01:08.000Z</time>
      </trkpt>
      <trkpt lat="27.763978" lon="86.721235">
        <ele>2731.8</ele>
        <time>2022-10-30T03:01:10.000Z</time>
      </trkpt>
      <trkpt lat="27.763978" lon="86.72121">
        <ele>2731.8</ele>
        <time>2022-10-30T03:01:12.000Z</time>
      </trkpt>
      <trkpt lat="27.763978" lon="86.721178">
        <ele>2731.4</ele>
        <time>2022-10-30T03:01:14.000Z</time>
      </trkpt>
      <trkpt lat="27.763984" lon="86.721146">
        <ele>2731.4</ele>
        <time>2022-10-30T03:01:16.000Z</time>
      </trkpt>
      <trkpt lat="27.763987" lon="86.72112">
        <ele>2731.2</ele>
        <time>2022-10-30T03:01:18.000Z</time>
      </trkpt>
      <trkpt lat="27.763987" lon="86.721082">
        <ele>2731</ele>
        <time>2022-10-30T03:01:21.000Z</time>
      </trkpt>
      <trkpt lat="27.763994" lon="86.721056">
        <ele>2730.8</ele>
        <time>2022-10-30T03:01:23.000Z</time>
      </trkpt>
      <trkpt lat="27.763997" lon="86.72103">
        <ele>2730.2</ele>
        <time>2022-10-30T03:01:25.000Z</time>
      </trkpt>
      <trkpt lat="27.764003" lon="86.720998">
        <ele>2730</ele>
        <time>2022-10-30T03:01:28.000Z</time>
      </trkpt>
      <trkpt lat="27.764006" lon="86.720973">
        <ele>2730</ele>
        <time>2022-10-30T03:01:30.000Z</time>
      </trkpt>
      <trkpt lat="27.764013" lon="86.720941">
        <ele>2729.8</ele>
        <time>2022-10-30T03:01:32.000Z</time>
      </trkpt>
      <trkpt lat="27.764016" lon="86.720915">
        <ele>2729.8</ele>
        <time>2022-10-30T03:01:34.000Z</time>
      </trkpt>
      <trkpt lat="27.764022" lon="86.720883">
        <ele>2729.6</ele>
        <time>2022-10-30T03:01:36.000Z</time>
      </trkpt>
      <trkpt lat="27.764026" lon="86.720858">
        <ele>2729.8</ele>
        <time>2022-10-30T03:01:39.000Z</time>
      </trkpt>
      <trkpt lat="27.764032" lon="86.720832">
        <ele>2730</ele>
        <time>2022-10-30T03:01:41.000Z</time>
      </trkpt>
      <trkpt lat="27.764035" lon="86.7208">
        <ele>2729.8</ele>
        <time>2022-10-30T03:01:43.000Z</time>
      </trkpt>
      <trkpt lat="27.764045" lon="86.720781">
        <ele>2729.8</ele>
        <time>2022-10-30T03:01:45.000Z</time>
      </trkpt>
      <trkpt lat="27.764048" lon="86.720755">
        <ele>2730</ele>
        <time>2022-10-30T03:01:47.000Z</time>
      </trkpt>
      <trkpt lat="27.764054" lon="86.720723">
        <ele>2730.8</ele>
        <time>2022-10-30T03:01:52.000Z</time>
      </trkpt>
      <trkpt lat="27.764064" lon="86.720704">
        <ele>2730.6</ele>
        <time>2022-10-30T03:01:54.000Z</time>
      </trkpt>
      <trkpt lat="27.764064" lon="86.720678">
        <ele>2730.6</ele>
        <time>2022-10-30T03:01:56.000Z</time>
      </trkpt>
      <trkpt lat="27.764067" lon="86.720653">
        <ele>2730.2</ele>
        <time>2022-10-30T03:01:59.000Z</time>
      </trkpt>
      <trkpt lat="27.764074" lon="86.720627">
        <ele>2730.8</ele>
        <time>2022-10-30T03:02:01.000Z</time>
      </trkpt>
      <trkpt lat="27.76408" lon="86.720595">
        <ele>2731</ele>
        <time>2022-10-30T03:02:03.000Z</time>
      </trkpt>
      <trkpt lat="27.76408" lon="86.720563">
        <ele>2731.2</ele>
        <time>2022-10-30T03:02:06.000Z</time>
      </trkpt>
      <trkpt lat="27.764083" lon="86.720525">
        <ele>2731.4</ele>
        <time>2022-10-30T03:02:09.000Z</time>
      </trkpt>
      <trkpt lat="27.764086" lon="86.720499">
        <ele>2731.4</ele>
        <time>2022-10-30T03:02:12.000Z</time>
      </trkpt>
      <trkpt lat="27.764096" lon="86.720474">
        <ele>2731.8</ele>
        <time>2022-10-30T03:02:15.000Z</time>
      </trkpt>
      <trkpt lat="27.764106" lon="86.720454">
        <ele>2731.8</ele>
        <time>2022-10-30T03:02:17.000Z</time>
      </trkpt>
      <trkpt lat="27.764112" lon="86.720429">
        <ele>2732.2</ele>
        <time>2022-10-30T03:02:19.000Z</time>
      </trkpt>
      <trkpt lat="27.764118" lon="86.720397">
        <ele>2732.4</ele>
        <time>2022-10-30T03:02:22.000Z</time>
      </trkpt>
      <trkpt lat="27.764122" lon="86.720365">
        <ele>2733.6</ele>
        <time>2022-10-30T03:02:27.000Z</time>
      </trkpt>
      <trkpt lat="27.764131" lon="86.720339">
        <ele>2733.8</ele>
        <time>2022-10-30T03:02:31.000Z</time>
      </trkpt>
      <trkpt lat="27.764134" lon="86.720314">
        <ele>2733.8</ele>
        <time>2022-10-30T03:02:33.000Z</time>
      </trkpt>
      <trkpt lat="27.764138" lon="86.720288">
        <ele>2734.6</ele>
        <time>2022-10-30T03:02:37.000Z</time>
      </trkpt>
      <trkpt lat="27.764144" lon="86.720269">
        <ele>2735</ele>
        <time>2022-10-30T03:02:41.000Z</time>
      </trkpt>
      <trkpt lat="27.764154" lon="86.720243">
        <ele>2735</ele>
        <time>2022-10-30T03:02:45.000Z</time>
      </trkpt>
      <trkpt lat="27.764154" lon="86.720218">
        <ele>2735</ele>
        <time>2022-10-30T03:02:47.000Z</time>
      </trkpt>
      <trkpt lat="27.764154" lon="86.720186">
        <ele>2735.4</ele>
        <time>2022-10-30T03:02:50.000Z</time>
      </trkpt>
      <trkpt lat="27.764154" lon="86.72016">
        <ele>2735.8</ele>
        <time>2022-10-30T03:02:52.000Z</time>
      </trkpt>
      <trkpt lat="27.764157" lon="86.720128">
        <ele>2736.6</ele>
        <time>2022-10-30T03:02:56.000Z</time>
      </trkpt>
      <trkpt lat="27.764163" lon="86.720109">
        <ele>2737.2</ele>
        <time>2022-10-30T03:02:59.000Z</time>
      </trkpt>
      <trkpt lat="27.764176" lon="86.720083">
        <ele>2737.6</ele>
        <time>2022-10-30T03:03:02.000Z</time>
      </trkpt>
      <trkpt lat="27.764179" lon="86.720058">
        <ele>2738</ele>
        <time>2022-10-30T03:03:05.000Z</time>
      </trkpt>
      <trkpt lat="27.764176" lon="86.720032">
        <ele>2737.8</ele>
        <time>2022-10-30T03:03:07.000Z</time>
      </trkpt>
      <trkpt lat="27.764157" lon="86.720026">
        <ele>2737.8</ele>
        <time>2022-10-30T03:03:11.000Z</time>
      </trkpt>
      <trkpt lat="27.764138" lon="86.720038">
        <ele>2736.4</ele>
        <time>2022-10-30T03:03:15.000Z</time>
      </trkpt>
      <trkpt lat="27.764118" lon="86.720038">
        <ele>2735.4</ele>
        <time>2022-10-30T03:03:20.000Z</time>
      </trkpt>
      <trkpt lat="27.764102" lon="86.720019">
        <ele>2734.8</ele>
        <time>2022-10-30T03:03:23.000Z</time>
      </trkpt>
      <trkpt lat="27.764086" lon="86.720006">
        <ele>2734.4</ele>
        <time>2022-10-30T03:03:25.000Z</time>
      </trkpt>
      <trkpt lat="27.76407" lon="86.720019">
        <ele>2734.4</ele>
        <time>2022-10-30T03:03:27.000Z</time>
      </trkpt>
      <trkpt lat="27.764048" lon="86.720019">
        <ele>2734.4</ele>
        <time>2022-10-30T03:03:29.000Z</time>
      </trkpt>
      <trkpt lat="27.764026" lon="86.720026">
        <ele>2734</ele>
        <time>2022-10-30T03:03:31.000Z</time>
      </trkpt>
      <trkpt lat="27.764003" lon="86.720032">
        <ele>2733.8</ele>
        <time>2022-10-30T03:03:33.000Z</time>
      </trkpt>
      <trkpt lat="27.763981" lon="86.720032">
        <ele>2733.8</ele>
        <time>2022-10-30T03:03:35.000Z</time>
      </trkpt>
      <trkpt lat="27.763955" lon="86.720026">
        <ele>2733.6</ele>
        <time>2022-10-30T03:03:38.000Z</time>
      </trkpt>
      <trkpt lat="27.763933" lon="86.720026">
        <ele>2733.6</ele>
        <time>2022-10-30T03:03:40.000Z</time>
      </trkpt>
      <trkpt lat="27.763914" lon="86.720026">
        <ele>2733.6</ele>
        <time>2022-10-30T03:03:42.000Z</time>
      </trkpt>
      <trkpt lat="27.763894" lon="86.720026">
        <ele>2733.4</ele>
        <time>2022-10-30T03:03:44.000Z</time>
      </trkpt>
      <trkpt lat="27.763875" lon="86.720019">
        <ele>2733.4</ele>
        <time>2022-10-30T03:03:46.000Z</time>
      </trkpt>
      <trkpt lat="27.763856" lon="86.72">
        <ele>2733</ele>
        <time>2022-10-30T03:03:48.000Z</time>
      </trkpt>
      <trkpt lat="27.763837" lon="86.719987">
        <ele>2732.8</ele>
        <time>2022-10-30T03:03:50.000Z</time>
      </trkpt>
      <trkpt lat="27.763827" lon="86.719962">
        <ele>2732.6</ele>
        <time>2022-10-30T03:03:52.000Z</time>
      </trkpt>
      <trkpt lat="27.763811" lon="86.719942">
        <ele>2732.6</ele>
        <time>2022-10-30T03:03:54.000Z</time>
      </trkpt>
      <trkpt lat="27.763798" lon="86.719917">
        <ele>2732.4</ele>
        <time>2022-10-30T03:03:56.000Z</time>
      </trkpt>
      <trkpt lat="27.763773" lon="86.719898">
        <ele>2732.2</ele>
        <time>2022-10-30T03:03:59.000Z</time>
      </trkpt>
      <trkpt lat="27.763747" lon="86.719878">
        <ele>2732.6</ele>
        <time>2022-10-30T03:04:01.000Z</time>
      </trkpt>
      <trkpt lat="27.763734" lon="86.719846">
        <ele>2732.4</ele>
        <time>2022-10-30T03:04:04.000Z</time>
      </trkpt>
      <trkpt lat="27.763702" lon="86.719834">
        <ele>2731.8</ele>
        <time>2022-10-30T03:04:08.000Z</time>
      </trkpt>
      <trkpt lat="27.763683" lon="86.719827">
        <ele>2731.8</ele>
        <time>2022-10-30T03:04:10.000Z</time>
      </trkpt>
      <trkpt lat="27.763677" lon="86.719808">
        <ele>2731.6</ele>
        <time>2022-10-30T03:04:12.000Z</time>
      </trkpt>
      <trkpt lat="27.76367" lon="86.71977">
        <ele>2730.8</ele>
        <time>2022-10-30T03:04:18.000Z</time>
      </trkpt>
      <trkpt lat="27.763654" lon="86.719757">
        <ele>2730.8</ele>
        <time>2022-10-30T03:04:20.000Z</time>
      </trkpt>
      <trkpt lat="27.763638" lon="86.719744">
        <ele>2730.8</ele>
        <time>2022-10-30T03:04:22.000Z</time>
      </trkpt>
      <trkpt lat="27.763626" lon="86.719725">
        <ele>2730.8</ele>
        <time>2022-10-30T03:04:25.000Z</time>
      </trkpt>
      <trkpt lat="27.76361" lon="86.719706">
        <ele>2730.6</ele>
        <time>2022-10-30T03:04:27.000Z</time>
      </trkpt>
      <trkpt lat="27.7636" lon="86.71968">
        <ele>2730.6</ele>
        <time>2022-10-30T03:04:29.000Z</time>
      </trkpt>
      <trkpt lat="27.763594" lon="86.719648">
        <ele>2730.8</ele>
        <time>2022-10-30T03:04:31.000Z</time>
      </trkpt>
      <trkpt lat="27.763581" lon="86.719629">
        <ele>2730.4</ele>
        <time>2022-10-30T03:04:33.000Z</time>
      </trkpt>
      <trkpt lat="27.763574" lon="86.719603">
        <ele>2730.2</ele>
        <time>2022-10-30T03:04:35.000Z</time>
      </trkpt>
      <trkpt lat="27.763562" lon="86.719565">
        <ele>2730.4</ele>
        <time>2022-10-30T03:04:40.000Z</time>
      </trkpt>
      <trkpt lat="27.763552" lon="86.719533">
        <ele>2730.2</ele>
        <time>2022-10-30T03:04:42.000Z</time>
      </trkpt>
      <trkpt lat="27.763546" lon="86.719507">
        <ele>2730.2</ele>
        <time>2022-10-30T03:04:44.000Z</time>
      </trkpt>
      <trkpt lat="27.76352" lon="86.719482">
        <ele>2730.2</ele>
        <time>2022-10-30T03:04:47.000Z</time>
      </trkpt>
      <trkpt lat="27.763494" lon="86.719469">
        <ele>2729.6</ele>
        <time>2022-10-30T03:04:49.000Z</time>
      </trkpt>
      <trkpt lat="27.763472" lon="86.71945">
        <ele>2729.4</ele>
        <time>2022-10-30T03:04:51.000Z</time>
      </trkpt>
      <trkpt lat="27.763456" lon="86.719437">
        <ele>2729</ele>
        <time>2022-10-30T03:04:53.000Z</time>
      </trkpt>
      <trkpt lat="27.763453" lon="86.719411">
        <ele>2728.6</ele>
        <time>2022-10-30T03:04:55.000Z</time>
      </trkpt>
      <trkpt lat="27.76345" lon="86.719386">
        <ele>2728.6</ele>
        <time>2022-10-30T03:04:58.000Z</time>
      </trkpt>
      <trkpt lat="27.76344" lon="86.719366">
        <ele>2728.8</ele>
        <time>2022-10-30T03:05:00.000Z</time>
      </trkpt>
      <trkpt lat="27.763418" lon="86.71936">
        <ele>2729.2</ele>
        <time>2022-10-30T03:05:02.000Z</time>
      </trkpt>
      <trkpt lat="27.763398" lon="86.719354">
        <ele>2728.6</ele>
        <time>2022-10-30T03:05:04.000Z</time>
      </trkpt>
      <trkpt lat="27.763379" lon="86.719347">
        <ele>2728</ele>
        <time>2022-10-30T03:05:06.000Z</time>
      </trkpt>
      <trkpt lat="27.763354" lon="86.719328">
        <ele>2728.2</ele>
        <time>2022-10-30T03:05:08.000Z</time>
      </trkpt>
      <trkpt lat="27.763331" lon="86.719315">
        <ele>2728.4</ele>
        <time>2022-10-30T03:05:10.000Z</time>
      </trkpt>
      <trkpt lat="27.763309" lon="86.71929">
        <ele>2728.2</ele>
        <time>2022-10-30T03:05:13.000Z</time>
      </trkpt>
      <trkpt lat="27.763293" lon="86.71927">
        <ele>2728.2</ele>
        <time>2022-10-30T03:05:15.000Z</time>
      </trkpt>
      <trkpt lat="27.763293" lon="86.719245">
        <ele>2728.4</ele>
        <time>2022-10-30T03:05:17.000Z</time>
      </trkpt>
      <trkpt lat="27.763293" lon="86.719213">
        <ele>2728.6</ele>
        <time>2022-10-30T03:05:19.000Z</time>
      </trkpt>
      <trkpt lat="27.763293" lon="86.719187">
        <ele>2728.6</ele>
        <time>2022-10-30T03:05:21.000Z</time>
      </trkpt>
      <trkpt lat="27.763299" lon="86.719162">
        <ele>2728.6</ele>
        <time>2022-10-30T03:05:22.000Z</time>
      </trkpt>
      <trkpt lat="27.763306" lon="86.71913">
        <ele>2728.4</ele>
        <time>2022-10-30T03:05:24.000Z</time>
      </trkpt>
      <trkpt lat="27.763315" lon="86.719091">
        <ele>2728.8</ele>
        <time>2022-10-30T03:05:27.000Z</time>
      </trkpt>
      <trkpt lat="27.763322" lon="86.719053">
        <ele>2728.4</ele>
        <time>2022-10-30T03:05:30.000Z</time>
      </trkpt>
      <trkpt lat="27.763318" lon="86.719014">
        <ele>2727.8</ele>
        <time>2022-10-30T03:05:33.000Z</time>
      </trkpt>
      <trkpt lat="27.763312" lon="86.718989">
        <ele>2728</ele>
        <time>2022-10-30T03:05:36.000Z</time>
      </trkpt>
      <trkpt lat="27.763306" lon="86.718963">
        <ele>2727.8</ele>
        <time>2022-10-30T03:05:40.000Z</time>
      </trkpt>
      <trkpt lat="27.763299" lon="86.718938">
        <ele>2727.8</ele>
        <time>2022-10-30T03:05:42.000Z</time>
      </trkpt>
      <trkpt lat="27.76329" lon="86.718918">
        <ele>2727.6</ele>
        <time>2022-10-30T03:05:44.000Z</time>
      </trkpt>
      <trkpt lat="27.763274" lon="86.718893">
        <ele>2727.4</ele>
        <time>2022-10-30T03:05:46.000Z</time>
      </trkpt>
      <trkpt lat="27.763258" lon="86.718874">
        <ele>2727.2</ele>
        <time>2022-10-30T03:05:49.000Z</time>
      </trkpt>
      <trkpt lat="27.763248" lon="86.718854">
        <ele>2727.2</ele>
        <time>2022-10-30T03:05:51.000Z</time>
      </trkpt>
      <trkpt lat="27.763242" lon="86.718835">
        <ele>2727.2</ele>
        <time>2022-10-30T03:05:54.000Z</time>
      </trkpt>
      <trkpt lat="27.763232" lon="86.71881">
        <ele>2726.8</ele>
        <time>2022-10-30T03:05:56.000Z</time>
      </trkpt>
      <trkpt lat="27.763219" lon="86.71879">
        <ele>2726.8</ele>
        <time>2022-10-30T03:05:59.000Z</time>
      </trkpt>
      <trkpt lat="27.763213" lon="86.718771">
        <ele>2726.8</ele>
        <time>2022-10-30T03:06:00.000Z</time>
      </trkpt>
      <trkpt lat="27.763213" lon="86.718739">
        <ele>2727</ele>
        <time>2022-10-30T03:06:03.000Z</time>
      </trkpt>
      <trkpt lat="27.763206" lon="86.71872">
        <ele>2726.6</ele>
        <time>2022-10-30T03:06:05.000Z</time>
      </trkpt>
      <trkpt lat="27.7632" lon="86.718694">
        <ele>2726.4</ele>
        <time>2022-10-30T03:06:07.000Z</time>
      </trkpt>
      <trkpt lat="27.763187" lon="86.718675">
        <ele>2726.4</ele>
        <time>2022-10-30T03:06:09.000Z</time>
      </trkpt>
      <trkpt lat="27.763184" lon="86.71865">
        <ele>2726.2</ele>
        <time>2022-10-30T03:06:11.000Z</time>
      </trkpt>
      <trkpt lat="27.763174" lon="86.71863">
        <ele>2726.2</ele>
        <time>2022-10-30T03:06:13.000Z</time>
      </trkpt>
      <trkpt lat="27.763162" lon="86.718605">
        <ele>2726.2</ele>
        <time>2022-10-30T03:06:15.000Z</time>
      </trkpt>
      <trkpt lat="27.763155" lon="86.718579">
        <ele>2726</ele>
        <time>2022-10-30T03:06:17.000Z</time>
      </trkpt>
      <trkpt lat="27.763152" lon="86.718554">
        <ele>2725.8</ele>
        <time>2022-10-30T03:06:19.000Z</time>
      </trkpt>
      <trkpt lat="27.763149" lon="86.718528">
        <ele>2725.8</ele>
        <time>2022-10-30T03:06:21.000Z</time>
      </trkpt>
      <trkpt lat="27.763142" lon="86.71849">
        <ele>2725.4</ele>
        <time>2022-10-30T03:06:24.000Z</time>
      </trkpt>
      <trkpt lat="27.763139" lon="86.718451">
        <ele>2725</ele>
        <time>2022-10-30T03:06:27.000Z</time>
      </trkpt>
      <trkpt lat="27.763133" lon="86.718432">
        <ele>2725</ele>
        <time>2022-10-30T03:06:29.000Z</time>
      </trkpt>
      <trkpt lat="27.763123" lon="86.718406">
        <ele>2724.8</ele>
        <time>2022-10-30T03:06:31.000Z</time>
      </trkpt>
      <trkpt lat="27.763104" lon="86.718381">
        <ele>2724.6</ele>
        <time>2022-10-30T03:06:34.000Z</time>
      </trkpt>
      <trkpt lat="27.763094" lon="86.718362">
        <ele>2724.6</ele>
        <time>2022-10-30T03:06:36.000Z</time>
      </trkpt>
      <trkpt lat="27.763088" lon="86.718336">
        <ele>2724.6</ele>
        <time>2022-10-30T03:06:38.000Z</time>
      </trkpt>
      <trkpt lat="27.763082" lon="86.718317">
        <ele>2724.6</ele>
        <time>2022-10-30T03:06:40.000Z</time>
      </trkpt>
      <trkpt lat="27.763072" lon="86.718291">
        <ele>2724.8</ele>
        <time>2022-10-30T03:06:42.000Z</time>
      </trkpt>
      <trkpt lat="27.763059" lon="86.718272">
        <ele>2724.6</ele>
        <time>2022-10-30T03:06:45.000Z</time>
      </trkpt>
      <trkpt lat="27.763053" lon="86.718246">
        <ele>2724.6</ele>
        <time>2022-10-30T03:06:47.000Z</time>
      </trkpt>
      <trkpt lat="27.763043" lon="86.718221">
        <ele>2725.4</ele>
        <time>2022-10-30T03:06:51.000Z</time>
      </trkpt>
      <trkpt lat="27.76303" lon="86.718202">
        <ele>2725.6</ele>
        <time>2022-10-30T03:06:54.000Z</time>
      </trkpt>
      <trkpt lat="27.763021" lon="86.718182">
        <ele>2725.4</ele>
        <time>2022-10-30T03:06:56.000Z</time>
      </trkpt>
      <trkpt lat="27.763005" lon="86.718163">
        <ele>2725.6</ele>
        <time>2022-10-30T03:06:59.000Z</time>
      </trkpt>
      <trkpt lat="27.762992" lon="86.718138">
        <ele>2725.6</ele>
        <time>2022-10-30T03:07:02.000Z</time>
      </trkpt>
      <trkpt lat="27.762973" lon="86.718125">
        <ele>2726</ele>
        <time>2022-10-30T03:07:06.000Z</time>
      </trkpt>
      <trkpt lat="27.762954" lon="86.718099">
        <ele>2727</ele>
        <time>2022-10-30T03:07:10.000Z</time>
      </trkpt>
      <trkpt lat="27.762934" lon="86.71808">
        <ele>2726.8</ele>
        <time>2022-10-30T03:07:13.000Z</time>
      </trkpt>
      <trkpt lat="27.762925" lon="86.718061">
        <ele>2727</ele>
        <time>2022-10-30T03:07:15.000Z</time>
      </trkpt>
      <trkpt lat="27.762906" lon="86.718042">
        <ele>2727</ele>
        <time>2022-10-30T03:07:18.000Z</time>
      </trkpt>
      <trkpt lat="27.76289" lon="86.718022">
        <ele>2726.8</ele>
        <time>2022-10-30T03:07:20.000Z</time>
      </trkpt>
      <trkpt lat="27.76287" lon="86.718016">
        <ele>2726.8</ele>
        <time>2022-10-30T03:07:22.000Z</time>
      </trkpt>
      <trkpt lat="27.762848" lon="86.717997">
        <ele>2726.4</ele>
        <time>2022-10-30T03:07:25.000Z</time>
      </trkpt>
      <trkpt lat="27.762835" lon="86.717978">
        <ele>2726.4</ele>
        <time>2022-10-30T03:07:27.000Z</time>
      </trkpt>
      <trkpt lat="27.762826" lon="86.717958">
        <ele>2726</ele>
        <time>2022-10-30T03:07:29.000Z</time>
      </trkpt>
      <trkpt lat="27.762803" lon="86.717933">
        <ele>2726.2</ele>
        <time>2022-10-30T03:07:32.000Z</time>
      </trkpt>
      <trkpt lat="27.762787" lon="86.71792">
        <ele>2726</ele>
        <time>2022-10-30T03:07:34.000Z</time>
      </trkpt>
      <trkpt lat="27.762781" lon="86.717894">
        <ele>2725.6</ele>
        <time>2022-10-30T03:07:36.000Z</time>
      </trkpt>
      <trkpt lat="27.762765" lon="86.717875">
        <ele>2725.6</ele>
        <time>2022-10-30T03:07:39.000Z</time>
      </trkpt>
      <trkpt lat="27.762765" lon="86.71785">
        <ele>2725.2</ele>
        <time>2022-10-30T03:07:44.000Z</time>
      </trkpt>
      <trkpt lat="27.762752" lon="86.717824">
        <ele>2725.2</ele>
        <time>2022-10-30T03:07:47.000Z</time>
      </trkpt>
      <trkpt lat="27.762746" lon="86.717805">
        <ele>2725.2</ele>
        <time>2022-10-30T03:07:49.000Z</time>
      </trkpt>
      <trkpt lat="27.762739" lon="86.717779">
        <ele>2725.2</ele>
        <time>2022-10-30T03:07:51.000Z</time>
      </trkpt>
      <trkpt lat="27.762726" lon="86.717754">
        <ele>2725.2</ele>
        <time>2022-10-30T03:07:54.000Z</time>
      </trkpt>
      <trkpt lat="27.762717" lon="86.717734">
        <ele>2725.4</ele>
        <time>2022-10-30T03:07:56.000Z</time>
      </trkpt>
      <trkpt lat="27.762701" lon="86.717715">
        <ele>2725.2</ele>
        <time>2022-10-30T03:07:59.000Z</time>
      </trkpt>
      <trkpt lat="27.762688" lon="86.71769">
        <ele>2725.4</ele>
        <time>2022-10-30T03:08:01.000Z</time>
      </trkpt>
      <trkpt lat="27.762672" lon="86.717664">
        <ele>2725.6</ele>
        <time>2022-10-30T03:08:04.000Z</time>
      </trkpt>
      <trkpt lat="27.762646" lon="86.717651">
        <ele>2725.4</ele>
        <time>2022-10-30T03:08:06.000Z</time>
      </trkpt>
      <trkpt lat="27.762624" lon="86.717638">
        <ele>2725.8</ele>
        <time>2022-10-30T03:08:09.000Z</time>
      </trkpt>
      <trkpt lat="27.762608" lon="86.717619">
        <ele>2726.2</ele>
        <time>2022-10-30T03:08:12.000Z</time>
      </trkpt>
      <trkpt lat="27.762595" lon="86.7176">
        <ele>2726.4</ele>
        <time>2022-10-30T03:08:15.000Z</time>
      </trkpt>
      <trkpt lat="27.762576" lon="86.717581">
        <ele>2726.2</ele>
        <time>2022-10-30T03:08:18.000Z</time>
      </trkpt>
      <trkpt lat="27.762557" lon="86.717574">
        <ele>2726.2</ele>
        <time>2022-10-30T03:08:21.000Z</time>
      </trkpt>
      <trkpt lat="27.762534" lon="86.717568">
        <ele>2725.4</ele>
        <time>2022-10-30T03:08:24.000Z</time>
      </trkpt>
      <trkpt lat="27.762515" lon="86.717562">
        <ele>2725.2</ele>
        <time>2022-10-30T03:08:26.000Z</time>
      </trkpt>
      <trkpt lat="27.762493" lon="86.717555">
        <ele>2724.4</ele>
        <time>2022-10-30T03:08:29.000Z</time>
      </trkpt>
      <trkpt lat="27.762467" lon="86.717542">
        <ele>2724.2</ele>
        <time>2022-10-30T03:08:32.000Z</time>
      </trkpt>
      <trkpt lat="27.762448" lon="86.71753">
        <ele>2723.8</ele>
        <time>2022-10-30T03:08:34.000Z</time>
      </trkpt>
      <trkpt lat="27.762432" lon="86.717517">
        <ele>2723.2</ele>
        <time>2022-10-30T03:08:37.000Z</time>
      </trkpt>
      <trkpt lat="27.76241" lon="86.717523">
        <ele>2721.4</ele>
        <time>2022-10-30T03:14:52.000Z</time>
      </trkpt>
      <trkpt lat="27.762387" lon="86.717523">
        <ele>2720.8</ele>
        <time>2022-10-30T03:14:54.000Z</time>
      </trkpt>
      <trkpt lat="27.762368" lon="86.717504">
        <ele>2720.6</ele>
        <time>2022-10-30T03:14:56.000Z</time>
      </trkpt>
      <trkpt lat="27.762342" lon="86.717498">
        <ele>2721</ele>
        <time>2022-10-30T03:14:58.000Z</time>
      </trkpt>
      <trkpt lat="27.762314" lon="86.717491">
        <ele>2720.6</ele>
        <time>2022-10-30T03:15:00.000Z</time>
      </trkpt>
      <trkpt lat="27.762294" lon="86.717485">
        <ele>2720.6</ele>
        <time>2022-10-30T03:15:02.000Z</time>
      </trkpt>
      <trkpt lat="27.762269" lon="86.717478">
        <ele>2720.2</ele>
        <time>2022-10-30T03:15:04.000Z</time>
      </trkpt>
      <trkpt lat="27.76225" lon="86.717466">
        <ele>2720.2</ele>
        <time>2022-10-30T03:15:05.000Z</time>
      </trkpt>
      <trkpt lat="27.76223" lon="86.717466">
        <ele>2720.2</ele>
        <time>2022-10-30T03:15:07.000Z</time>
      </trkpt>
      <trkpt lat="27.76225" lon="86.717459">
        <ele>2720.4</ele>
        <time>2022-10-30T03:15:18.000Z</time>
      </trkpt>
      <trkpt lat="27.762269" lon="86.717478">
        <ele>2720.4</ele>
        <time>2022-10-30T03:15:21.000Z</time>
      </trkpt>
      <trkpt lat="27.762246" lon="86.717466">
        <ele>2720</ele>
        <time>2022-10-30T03:15:53.000Z</time>
      </trkpt>
      <trkpt lat="27.762224" lon="86.717446">
        <ele>2720.2</ele>
        <time>2022-10-30T03:15:55.000Z</time>
      </trkpt>
      <trkpt lat="27.762205" lon="86.717427">
        <ele>2720.2</ele>
        <time>2022-10-30T03:15:58.000Z</time>
      </trkpt>
      <trkpt lat="27.762221" lon="86.71744">
        <ele>2720.2</ele>
        <time>2022-10-30T03:16:01.000Z</time>
      </trkpt>
      <trkpt lat="27.762192" lon="86.717389">
        <ele>2720</ele>
        <time>2022-10-30T03:17:23.000Z</time>
      </trkpt>
      <trkpt lat="27.76216" lon="86.717382">
        <ele>2719.6</ele>
        <time>2022-10-30T03:17:25.000Z</time>
      </trkpt>
      <trkpt lat="27.762125" lon="86.717376">
        <ele>2719.4</ele>
        <time>2022-10-30T03:17:27.000Z</time>
      </trkpt>
      <trkpt lat="27.762099" lon="86.717363">
        <ele>2719.2</ele>
        <time>2022-10-30T03:17:29.000Z</time>
      </trkpt>
      <trkpt lat="27.762086" lon="86.717344">
        <ele>2719.2</ele>
        <time>2022-10-30T03:17:30.000Z</time>
      </trkpt>
      <trkpt lat="27.762054" lon="86.717338">
        <ele>2718.8</ele>
        <time>2022-10-30T03:17:32.000Z</time>
      </trkpt>
      <trkpt lat="27.762035" lon="86.717325">
        <ele>2718.4</ele>
        <time>2022-10-30T03:17:34.000Z</time>
      </trkpt>
      <trkpt lat="27.762013" lon="86.717306">
        <ele>2718.8</ele>
        <time>2022-10-30T03:17:37.000Z</time>
      </trkpt>
      <trkpt lat="27.762006" lon="86.717286">
        <ele>2718.8</ele>
        <time>2022-10-30T03:17:40.000Z</time>
      </trkpt>
      <trkpt lat="27.762006" lon="86.717261">
        <ele>2718.6</ele>
        <time>2022-10-30T03:17:58.000Z</time>
      </trkpt>
      <trkpt lat="27.761987" lon="86.717248">
        <ele>2718</ele>
        <time>2022-10-30T03:18:01.000Z</time>
      </trkpt>
      <trkpt lat="27.761965" lon="86.717242">
        <ele>2718</ele>
        <time>2022-10-30T03:18:03.000Z</time>
      </trkpt>
      <trkpt lat="27.761933" lon="86.717229">
        <ele>2719</ele>
        <time>2022-10-30T03:18:05.000Z</time>
      </trkpt>
      <trkpt lat="27.761917" lon="86.71721">
        <ele>2718.6</ele>
        <time>2022-10-30T03:18:07.000Z</time>
      </trkpt>
      <trkpt lat="27.761907" lon="86.717178">
        <ele>2718.6</ele>
        <time>2022-10-30T03:18:09.000Z</time>
      </trkpt>
      <trkpt lat="27.761888" lon="86.717158">
        <ele>2718.6</ele>
        <time>2022-10-30T03:18:11.000Z</time>
      </trkpt>
      <trkpt lat="27.761869" lon="86.717133">
        <ele>2718.4</ele>
        <time>2022-10-30T03:18:13.000Z</time>
      </trkpt>
      <trkpt lat="27.761846" lon="86.717101">
        <ele>2717.8</ele>
        <time>2022-10-30T03:18:16.000Z</time>
      </trkpt>
      <trkpt lat="27.761827" lon="86.717069">
        <ele>2717.8</ele>
        <time>2022-10-30T03:18:19.000Z</time>
      </trkpt>
      <trkpt lat="27.761808" lon="86.71705">
        <ele>2717.6</ele>
        <time>2022-10-30T03:18:22.000Z</time>
      </trkpt>
      <trkpt lat="27.761802" lon="86.71703">
        <ele>2717.6</ele>
        <time>2022-10-30T03:18:23.000Z</time>
      </trkpt>
      <trkpt lat="27.761779" lon="86.717011">
        <ele>2717.2</ele>
        <time>2022-10-30T03:18:26.000Z</time>
      </trkpt>
      <trkpt lat="27.761766" lon="86.716979">
        <ele>2717</ele>
        <time>2022-10-30T03:18:28.000Z</time>
      </trkpt>
      <trkpt lat="27.76176" lon="86.71696">
        <ele>2716.6</ele>
        <time>2022-10-30T03:18:30.000Z</time>
      </trkpt>
      <trkpt lat="27.761754" lon="86.716934">
        <ele>2716.8</ele>
        <time>2022-10-30T03:18:32.000Z</time>
      </trkpt>
      <trkpt lat="27.76175" lon="86.716909">
        <ele>2716.8</ele>
        <time>2022-10-30T03:18:34.000Z</time>
      </trkpt>
      <trkpt lat="27.76175" lon="86.716883">
        <ele>2716.8</ele>
        <time>2022-10-30T03:18:37.000Z</time>
      </trkpt>
      <trkpt lat="27.761744" lon="86.716864">
        <ele>2716.8</ele>
        <time>2022-10-30T03:18:39.000Z</time>
      </trkpt>
      <trkpt lat="27.761722" lon="86.716864">
        <ele>2717.2</ele>
        <time>2022-10-30T03:18:42.000Z</time>
      </trkpt>
      <trkpt lat="27.761709" lon="86.716832">
        <ele>2717.4</ele>
        <time>2022-10-30T03:18:46.000Z</time>
      </trkpt>
      <trkpt lat="27.761699" lon="86.716813">
        <ele>2718</ele>
        <time>2022-10-30T03:18:49.000Z</time>
      </trkpt>
      <trkpt lat="27.76168" lon="86.7168">
        <ele>2717.8</ele>
        <time>2022-10-30T03:18:51.000Z</time>
      </trkpt>
      <trkpt lat="27.761667" lon="86.716781">
        <ele>2718</ele>
        <time>2022-10-30T03:18:53.000Z</time>
      </trkpt>
      <trkpt lat="27.761642" lon="86.716762">
        <ele>2718</ele>
        <time>2022-10-30T03:18:56.000Z</time>
      </trkpt>
      <trkpt lat="27.761642" lon="86.716736">
        <ele>2717.8</ele>
        <time>2022-10-30T03:18:58.000Z</time>
      </trkpt>
      <trkpt lat="27.761645" lon="86.71671">
        <ele>2717.6</ele>
        <time>2022-10-30T03:19:00.000Z</time>
      </trkpt>
      <trkpt lat="27.761651" lon="86.716691">
        <ele>2717.8</ele>
        <time>2022-10-30T03:19:02.000Z</time>
      </trkpt>
      <trkpt lat="27.761661" lon="86.716666">
        <ele>2717.8</ele>
        <time>2022-10-30T03:19:04.000Z</time>
      </trkpt>
      <trkpt lat="27.76167" lon="86.716627">
        <ele>2717.6</ele>
        <time>2022-10-30T03:19:07.000Z</time>
      </trkpt>
      <trkpt lat="27.761667" lon="86.716602">
        <ele>2717.2</ele>
        <time>2022-10-30T03:19:10.000Z</time>
      </trkpt>
      <trkpt lat="27.76167" lon="86.71657">
        <ele>2717.2</ele>
        <time>2022-10-30T03:19:12.000Z</time>
      </trkpt>
      <trkpt lat="27.761664" lon="86.71655">
        <ele>2717</ele>
        <time>2022-10-30T03:19:18.000Z</time>
      </trkpt>
      <trkpt lat="27.761648" lon="86.716531">
        <ele>2716.8</ele>
        <time>2022-10-30T03:19:22.000Z</time>
      </trkpt>
      <trkpt lat="27.761642" lon="86.716512">
        <ele>2716.8</ele>
        <time>2022-10-30T03:19:27.000Z</time>
      </trkpt>
      <trkpt lat="27.761622" lon="86.716499">
        <ele>2716.8</ele>
        <time>2022-10-30T03:19:29.000Z</time>
      </trkpt>
      <trkpt lat="27.761606" lon="86.716474">
        <ele>2716.4</ele>
        <time>2022-10-30T03:19:32.000Z</time>
      </trkpt>
      <trkpt lat="27.76159" lon="86.716461">
        <ele>2716.6</ele>
        <time>2022-10-30T03:19:35.000Z</time>
      </trkpt>
      <trkpt lat="27.761571" lon="86.716454">
        <ele>2716.4</ele>
        <time>2022-10-30T03:19:37.000Z</time>
      </trkpt>
      <trkpt lat="27.761555" lon="86.716435">
        <ele>2716.4</ele>
        <time>2022-10-30T03:19:39.000Z</time>
      </trkpt>
      <trkpt lat="27.761536" lon="86.716416">
        <ele>2716.8</ele>
        <time>2022-10-30T03:19:42.000Z</time>
      </trkpt>
      <trkpt lat="27.76152" lon="86.71639">
        <ele>2715.8</ele>
        <time>2022-10-30T03:19:45.000Z</time>
      </trkpt>
      <trkpt lat="27.761504" lon="86.716371">
        <ele>2715.4</ele>
        <time>2022-10-30T03:19:48.000Z</time>
      </trkpt>
      <trkpt lat="27.761482" lon="86.716371">
        <ele>2715.2</ele>
        <time>2022-10-30T03:19:51.000Z</time>
      </trkpt>
      <trkpt lat="27.761462" lon="86.716352">
        <ele>2714.8</ele>
        <time>2022-10-30T03:19:54.000Z</time>
      </trkpt>
      <trkpt lat="27.76144" lon="86.716339">
        <ele>2714.2</ele>
        <time>2022-10-30T03:19:56.000Z</time>
      </trkpt>
      <trkpt lat="27.761421" lon="86.716333">
        <ele>2714.2</ele>
        <time>2022-10-30T03:19:58.000Z</time>
      </trkpt>
      <trkpt lat="27.761408" lon="86.716307">
        <ele>2714.2</ele>
        <time>2022-10-30T03:20:00.000Z</time>
      </trkpt>
      <trkpt lat="27.761392" lon="86.716275">
        <ele>2714.2</ele>
        <time>2022-10-30T03:20:03.000Z</time>
      </trkpt>
      <trkpt lat="27.761376" lon="86.716256">
        <ele>2714.2</ele>
        <time>2022-10-30T03:20:05.000Z</time>
      </trkpt>
      <trkpt lat="27.76136" lon="86.716237">
        <ele>2714.4</ele>
        <time>2022-10-30T03:20:07.000Z</time>
      </trkpt>
      <trkpt lat="27.761338" lon="86.716218">
        <ele>2714.4</ele>
        <time>2022-10-30T03:20:10.000Z</time>
      </trkpt>
      <trkpt lat="27.761312" lon="86.716186">
        <ele>2714.4</ele>
        <time>2022-10-30T03:20:13.000Z</time>
      </trkpt>
      <trkpt lat="27.761299" lon="86.716166">
        <ele>2713.8</ele>
        <time>2022-10-30T03:20:16.000Z</time>
      </trkpt>
      <trkpt lat="27.761293" lon="86.716147">
        <ele>2713.8</ele>
        <time>2022-10-30T03:20:17.000Z</time>
      </trkpt>
      <trkpt lat="27.761277" lon="86.716115">
        <ele>2714</ele>
        <time>2022-10-30T03:20:20.000Z</time>
      </trkpt>
      <trkpt lat="27.761267" lon="86.71609">
        <ele>2713.8</ele>
        <time>2022-10-30T03:20:23.000Z</time>
      </trkpt>
      <trkpt lat="27.761264" lon="86.716058">
        <ele>2713.6</ele>
        <time>2022-10-30T03:20:26.000Z</time>
      </trkpt>
      <trkpt lat="27.761254" lon="86.716038">
        <ele>2713.6</ele>
        <time>2022-10-30T03:20:28.000Z</time>
      </trkpt>
      <trkpt lat="27.761238" lon="86.716019">
        <ele>2713</ele>
        <time>2022-10-30T03:20:32.000Z</time>
      </trkpt>
      <trkpt lat="27.761219" lon="86.715987">
        <ele>2713</ele>
        <time>2022-10-30T03:20:35.000Z</time>
      </trkpt>
      <trkpt lat="27.761219" lon="86.715955">
        <ele>2712.8</ele>
        <time>2022-10-30T03:20:38.000Z</time>
      </trkpt>
      <trkpt lat="27.761232" lon="86.715936">
        <ele>2712.8</ele>
        <time>2022-10-30T03:20:40.000Z</time>
      </trkpt>
      <trkpt lat="27.761242" lon="86.71591">
        <ele>2713</ele>
        <time>2022-10-30T03:20:42.000Z</time>
      </trkpt>
      <trkpt lat="27.761242" lon="86.715878">
        <ele>2713.6</ele>
        <time>2022-10-30T03:20:46.000Z</time>
      </trkpt>
      <trkpt lat="27.761235" lon="86.715853">
        <ele>2714</ele>
        <time>2022-10-30T03:20:50.000Z</time>
      </trkpt>
      <trkpt lat="27.761242" lon="86.715834">
        <ele>2714.6</ele>
        <time>2022-10-30T03:20:53.000Z</time>
      </trkpt>
      <trkpt lat="27.761248" lon="86.715814">
        <ele>2714.4</ele>
        <time>2022-10-30T03:20:55.000Z</time>
      </trkpt>
      <trkpt lat="27.761248" lon="86.715789">
        <ele>2714.4</ele>
        <time>2022-10-30T03:20:57.000Z</time>
      </trkpt>
      <trkpt lat="27.761258" lon="86.71577">
        <ele>2714.2</ele>
        <time>2022-10-30T03:21:00.000Z</time>
      </trkpt>
      <trkpt lat="27.761264" lon="86.71575">
        <ele>2714.4</ele>
        <time>2022-10-30T03:21:02.000Z</time>
      </trkpt>
      <trkpt lat="27.761283" lon="86.715738">
        <ele>2714.6</ele>
        <time>2022-10-30T03:21:04.000Z</time>
      </trkpt>
      <trkpt lat="27.761296" lon="86.715718">
        <ele>2714.6</ele>
        <time>2022-10-30T03:21:06.000Z</time>
      </trkpt>
      <trkpt lat="27.761302" lon="86.715699">
        <ele>2714.8</ele>
        <time>2022-10-30T03:21:08.000Z</time>
      </trkpt>
      <trkpt lat="27.761312" lon="86.715674">
        <ele>2715</ele>
        <time>2022-10-30T03:21:10.000Z</time>
      </trkpt>
      <trkpt lat="27.761312" lon="86.715648">
        <ele>2715</ele>
        <time>2022-10-30T03:21:14.000Z</time>
      </trkpt>
      <trkpt lat="27.761312" lon="86.715622">
        <ele>2715</ele>
        <time>2022-10-30T03:21:17.000Z</time>
      </trkpt>
      <trkpt lat="27.761306" lon="86.715597">
        <ele>2715</ele>
        <time>2022-10-30T03:21:19.000Z</time>
      </trkpt>
      <trkpt lat="27.761306" lon="86.715571">
        <ele>2715.2</ele>
        <time>2022-10-30T03:21:22.000Z</time>
      </trkpt>
      <trkpt lat="27.761312" lon="86.715552">
        <ele>2715.2</ele>
        <time>2022-10-30T03:21:23.000Z</time>
      </trkpt>
      <trkpt lat="27.761331" lon="86.715533">
        <ele>2715.2</ele>
        <time>2022-10-30T03:21:25.000Z</time>
      </trkpt>
      <trkpt lat="27.761344" lon="86.715514">
        <ele>2715</ele>
        <time>2022-10-30T03:21:29.000Z</time>
      </trkpt>
      <trkpt lat="27.761363" lon="86.715501">
        <ele>2715.4</ele>
        <time>2022-10-30T03:21:32.000Z</time>
      </trkpt>
      <trkpt lat="27.761392" lon="86.715507">
        <ele>2716</ele>
        <time>2022-10-30T03:21:34.000Z</time>
      </trkpt>
      <trkpt lat="27.761411" lon="86.715514">
        <ele>2716</ele>
        <time>2022-10-30T03:21:35.000Z</time>
      </trkpt>
      <trkpt lat="27.76143" lon="86.715514">
        <ele>2716.2</ele>
        <time>2022-10-30T03:21:36.000Z</time>
      </trkpt>
      <trkpt lat="27.761453" lon="86.715507">
        <ele>2716.2</ele>
        <time>2022-10-30T03:21:38.000Z</time>
      </trkpt>
      <trkpt lat="27.761472" lon="86.715501">
        <ele>2716.4</ele>
        <time>2022-10-30T03:21:40.000Z</time>
      </trkpt>
      <trkpt lat="27.761485" lon="86.715482">
        <ele>2716.4</ele>
        <time>2022-10-30T03:21:42.000Z</time>
      </trkpt>
      <trkpt lat="27.761501" lon="86.715469">
        <ele>2716.8</ele>
        <time>2022-10-30T03:21:44.000Z</time>
      </trkpt>
      <trkpt lat="27.76152" lon="86.71545">
        <ele>2716.6</ele>
        <time>2022-10-30T03:21:47.000Z</time>
      </trkpt>
      <trkpt lat="27.761523" lon="86.715424">
        <ele>2716.8</ele>
        <time>2022-10-30T03:21:49.000Z</time>
      </trkpt>
      <trkpt lat="27.76152" lon="86.715398">
        <ele>2716.6</ele>
        <time>2022-10-30T03:21:51.000Z</time>
      </trkpt>
      <trkpt lat="27.76151" lon="86.715373">
        <ele>2716.8</ele>
        <time>2022-10-30T03:21:54.000Z</time>
      </trkpt>
      <trkpt lat="27.761501" lon="86.715354">
        <ele>2716.8</ele>
        <time>2022-10-30T03:21:55.000Z</time>
      </trkpt>
      <trkpt lat="27.761494" lon="86.715315">
        <ele>2716.8</ele>
        <time>2022-10-30T03:21:58.000Z</time>
      </trkpt>
      <trkpt lat="27.761494" lon="86.715283">
        <ele>2716.8</ele>
        <time>2022-10-30T03:22:01.000Z</time>
      </trkpt>
      <trkpt lat="27.761485" lon="86.715264">
        <ele>2717.2</ele>
        <time>2022-10-30T03:22:04.000Z</time>
      </trkpt>
      <trkpt lat="27.761472" lon="86.715238">
        <ele>2717.4</ele>
        <time>2022-10-30T03:22:07.000Z</time>
      </trkpt>
      <trkpt lat="27.761456" lon="86.715219">
        <ele>2717.4</ele>
        <time>2022-10-30T03:22:10.000Z</time>
      </trkpt>
      <trkpt lat="27.76145" lon="86.7152">
        <ele>2717.6</ele>
        <time>2022-10-30T03:22:12.000Z</time>
      </trkpt>
      <trkpt lat="27.76144" lon="86.715174">
        <ele>2718</ele>
        <time>2022-10-30T03:22:15.000Z</time>
      </trkpt>
      <trkpt lat="27.761446" lon="86.715155">
        <ele>2718</ele>
        <time>2022-10-30T03:22:17.000Z</time>
      </trkpt>
      <trkpt lat="27.761462" lon="86.715142">
        <ele>2718.6</ele>
        <time>2022-10-30T03:22:20.000Z</time>
      </trkpt>
      <trkpt lat="27.761482" lon="86.715136">
        <ele>2718.8</ele>
        <time>2022-10-30T03:22:24.000Z</time>
      </trkpt>
      <trkpt lat="27.761494" lon="86.71511">
        <ele>2721.4</ele>
        <time>2022-10-30T03:23:07.000Z</time>
      </trkpt>
      <trkpt lat="27.761504" lon="86.715085">
        <ele>2721.2</ele>
        <time>2022-10-30T03:23:09.000Z</time>
      </trkpt>
      <trkpt lat="27.76152" lon="86.715072">
        <ele>2721.2</ele>
        <time>2022-10-30T03:23:12.000Z</time>
      </trkpt>
      <trkpt lat="27.761536" lon="86.715053">
        <ele>2721.2</ele>
        <time>2022-10-30T03:23:17.000Z</time>
      </trkpt>
      <trkpt lat="27.76153" lon="86.715027">
        <ele>2722</ele>
        <time>2022-10-30T03:23:46.000Z</time>
      </trkpt>
      <trkpt lat="27.761523" lon="86.714995">
        <ele>2722.2</ele>
        <time>2022-10-30T03:23:48.000Z</time>
      </trkpt>
      <trkpt lat="27.761526" lon="86.714963">
        <ele>2722.2</ele>
        <time>2022-10-30T03:23:50.000Z</time>
      </trkpt>
      <trkpt lat="27.761536" lon="86.714938">
        <ele>2722.2</ele>
        <time>2022-10-30T03:23:52.000Z</time>
      </trkpt>
      <trkpt lat="27.761542" lon="86.714899">
        <ele>2722.4</ele>
        <time>2022-10-30T03:23:54.000Z</time>
      </trkpt>
      <trkpt lat="27.761546" lon="86.714874">
        <ele>2723.2</ele>
        <time>2022-10-30T03:23:57.000Z</time>
      </trkpt>
      <trkpt lat="27.761565" lon="86.714854">
        <ele>2723</ele>
        <time>2022-10-30T03:24:00.000Z</time>
      </trkpt>
      <trkpt lat="27.761581" lon="86.714842">
        <ele>2723.2</ele>
        <time>2022-10-30T03:24:02.000Z</time>
      </trkpt>
      <trkpt lat="27.761603" lon="86.714842">
        <ele>2723.2</ele>
        <time>2022-10-30T03:24:09.000Z</time>
      </trkpt>
      <trkpt lat="27.761629" lon="86.714835">
        <ele>2723.8</ele>
        <time>2022-10-30T03:24:12.000Z</time>
      </trkpt>
      <trkpt lat="27.761651" lon="86.714835">
        <ele>2724</ele>
        <time>2022-10-30T03:24:15.000Z</time>
      </trkpt>
      <trkpt lat="27.761677" lon="86.714829">
        <ele>2724.6</ele>
        <time>2022-10-30T03:24:18.000Z</time>
      </trkpt>
      <trkpt lat="27.761696" lon="86.714835">
        <ele>2724.8</ele>
        <time>2022-10-30T03:24:21.000Z</time>
      </trkpt>
      <trkpt lat="27.761709" lon="86.714854">
        <ele>2725.2</ele>
        <time>2022-10-30T03:24:26.000Z</time>
      </trkpt>
      <trkpt lat="27.761731" lon="86.714861">
        <ele>2725.8</ele>
        <time>2022-10-30T03:24:31.000Z</time>
      </trkpt>
      <trkpt lat="27.76175" lon="86.714874">
        <ele>2726.4</ele>
        <time>2022-10-30T03:24:36.000Z</time>
      </trkpt>
      <trkpt lat="27.76177" lon="86.714867">
        <ele>2727.2</ele>
        <time>2022-10-30T03:24:42.000Z</time>
      </trkpt>
      <trkpt lat="27.761766" lon="86.714842">
        <ele>2728</ele>
        <time>2022-10-30T03:24:48.000Z</time>
      </trkpt>
      <trkpt lat="27.761773" lon="86.714822">
        <ele>2729</ele>
        <time>2022-10-30T03:24:55.000Z</time>
      </trkpt>
      <trkpt lat="27.761782" lon="86.714803">
        <ele>2729.6</ele>
        <time>2022-10-30T03:24:59.000Z</time>
      </trkpt>
      <trkpt lat="27.761834" lon="86.714739">
        <ele>2735.4</ele>
        <time>2022-10-30T03:25:53.000Z</time>
      </trkpt>
      <trkpt lat="27.761869" lon="86.714707">
        <ele>2736.2</ele>
        <time>2022-10-30T03:25:57.000Z</time>
      </trkpt>
      <trkpt lat="27.761882" lon="86.714688">
        <ele>2736.2</ele>
        <time>2022-10-30T03:25:59.000Z</time>
      </trkpt>
      <trkpt lat="27.761898" lon="86.714675">
        <ele>2735.8</ele>
        <time>2022-10-30T03:26:02.000Z</time>
      </trkpt>
      <trkpt lat="27.76191" lon="86.714656">
        <ele>2735</ele>
        <time>2022-10-30T03:26:06.000Z</time>
      </trkpt>
      <trkpt lat="27.76193" lon="86.714643">
        <ele>2734</ele>
        <time>2022-10-30T03:26:11.000Z</time>
      </trkpt>
      <trkpt lat="27.761949" lon="86.714643">
        <ele>2732.8</ele>
        <time>2022-10-30T03:26:14.000Z</time>
      </trkpt>
      <trkpt lat="27.761936" lon="86.714624">
        <ele>2730.8</ele>
        <time>2022-10-30T03:26:23.000Z</time>
      </trkpt>
      <trkpt lat="27.761917" lon="86.714618">
        <ele>2730.4</ele>
        <time>2022-10-30T03:26:26.000Z</time>
      </trkpt>
      <trkpt lat="27.76191" lon="86.714598">
        <ele>2729.8</ele>
        <time>2022-10-30T03:26:29.000Z</time>
      </trkpt>
      <trkpt lat="27.761901" lon="86.714566">
        <ele>2729.2</ele>
        <time>2022-10-30T03:26:34.000Z</time>
      </trkpt>
      <trkpt lat="27.761882" lon="86.714554">
        <ele>2728.2</ele>
        <time>2022-10-30T03:26:39.000Z</time>
      </trkpt>
      <trkpt lat="27.761859" lon="86.714547">
        <ele>2727.8</ele>
        <time>2022-10-30T03:26:42.000Z</time>
      </trkpt>
      <trkpt lat="27.76184" lon="86.714541">
        <ele>2727.4</ele>
        <time>2022-10-30T03:26:44.000Z</time>
      </trkpt>
      <trkpt lat="27.761821" lon="86.714522">
        <ele>2726.8</ele>
        <time>2022-10-30T03:26:47.000Z</time>
      </trkpt>
      <trkpt lat="27.761818" lon="86.71449">
        <ele>2726.4</ele>
        <time>2022-10-30T03:26:52.000Z</time>
      </trkpt>
      <trkpt lat="27.761834" lon="86.714477">
        <ele>2726.6</ele>
        <time>2022-10-30T03:26:59.000Z</time>
      </trkpt>
      <trkpt lat="27.76184" lon="86.714458">
        <ele>2726.4</ele>
        <time>2022-10-30T03:27:17.000Z</time>
      </trkpt>
      <trkpt lat="27.761834" lon="86.714438">
        <ele>2726.4</ele>
        <time>2022-10-30T03:27:18.000Z</time>
      </trkpt>
      <trkpt lat="27.761821" lon="86.714419">
        <ele>2726.6</ele>
        <time>2022-10-30T03:27:21.000Z</time>
      </trkpt>
      <trkpt lat="27.76183" lon="86.7144">
        <ele>2726.6</ele>
        <time>2022-10-30T03:27:23.000Z</time>
      </trkpt>
      <trkpt lat="27.76185" lon="86.714387">
        <ele>2726.4</ele>
        <time>2022-10-30T03:27:26.000Z</time>
      </trkpt>
      <trkpt lat="27.761856" lon="86.714368">
        <ele>2726</ele>
        <time>2022-10-30T03:27:28.000Z</time>
      </trkpt>
      <trkpt lat="27.761853" lon="86.714342">
        <ele>2725.8</ele>
        <time>2022-10-30T03:27:31.000Z</time>
      </trkpt>
      <trkpt lat="27.761872" lon="86.714317">
        <ele>2726</ele>
        <time>2022-10-30T03:27:33.000Z</time>
      </trkpt>
      <trkpt lat="27.761869" lon="86.714285">
        <ele>2727</ele>
        <time>2022-10-30T03:27:42.000Z</time>
      </trkpt>
      <trkpt lat="27.761853" lon="86.714272">
        <ele>2727.6</ele>
        <time>2022-10-30T03:27:46.000Z</time>
      </trkpt>
      <trkpt lat="27.76184" lon="86.714246">
        <ele>2728.2</ele>
        <time>2022-10-30T03:27:52.000Z</time>
      </trkpt>
      <trkpt lat="27.761834" lon="86.714221">
        <ele>2729.6</ele>
        <time>2022-10-30T03:28:00.000Z</time>
      </trkpt>
      <trkpt lat="27.761827" lon="86.714202">
        <ele>2730.8</ele>
        <time>2022-10-30T03:28:05.000Z</time>
      </trkpt>
      <trkpt lat="27.761808" lon="86.714195">
        <ele>2731.6</ele>
        <time>2022-10-30T03:28:13.000Z</time>
      </trkpt>
      <trkpt lat="27.761789" lon="86.714182">
        <ele>2733.2</ele>
        <time>2022-10-30T03:28:20.000Z</time>
      </trkpt>
      <trkpt lat="27.76177" lon="86.714163">
        <ele>2733.4</ele>
        <time>2022-10-30T03:28:23.000Z</time>
      </trkpt>
      <trkpt lat="27.761763" lon="86.714144">
        <ele>2733.4</ele>
        <time>2022-10-30T03:28:25.000Z</time>
      </trkpt>
      <trkpt lat="27.761754" lon="86.714125">
        <ele>2733.4</ele>
        <time>2022-10-30T03:28:27.000Z</time>
      </trkpt>
      <trkpt lat="27.761754" lon="86.714099">
        <ele>2733.8</ele>
        <time>2022-10-30T03:28:30.000Z</time>
      </trkpt>
      <trkpt lat="27.76175" lon="86.714074">
        <ele>2734.2</ele>
        <time>2022-10-30T03:28:33.000Z</time>
      </trkpt>
      <trkpt lat="27.761741" lon="86.714048">
        <ele>2734.4</ele>
        <time>2022-10-30T03:28:36.000Z</time>
      </trkpt>
      <trkpt lat="27.761725" lon="86.714029">
        <ele>2735.6</ele>
        <time>2022-10-30T03:28:44.000Z</time>
      </trkpt>
      <trkpt lat="27.761722" lon="86.714003">
        <ele>2736.8</ele>
        <time>2022-10-30T03:28:50.000Z</time>
      </trkpt>
      <trkpt lat="27.761718" lon="86.713965">
        <ele>2737.6</ele>
        <time>2022-10-30T03:28:55.000Z</time>
      </trkpt>
      <trkpt lat="27.761709" lon="86.713946">
        <ele>2738.8</ele>
        <time>2022-10-30T03:29:00.000Z</time>
      </trkpt>
      <trkpt lat="27.76169" lon="86.713926">
        <ele>2739</ele>
        <time>2022-10-30T03:29:03.000Z</time>
      </trkpt>
      <trkpt lat="27.76167" lon="86.713914">
        <ele>2739</ele>
        <time>2022-10-30T03:29:06.000Z</time>
      </trkpt>
      <trkpt lat="27.761661" lon="86.713888">
        <ele>2739</ele>
        <time>2022-10-30T03:29:08.000Z</time>
      </trkpt>
      <trkpt lat="27.761654" lon="86.713869">
        <ele>2739.2</ele>
        <time>2022-10-30T03:29:10.000Z</time>
      </trkpt>
      <trkpt lat="27.761638" lon="86.71385">
        <ele>2739.2</ele>
        <time>2022-10-30T03:29:12.000Z</time>
      </trkpt>
      <trkpt lat="27.761632" lon="86.71383">
        <ele>2739.2</ele>
        <time>2022-10-30T03:29:14.000Z</time>
      </trkpt>
      <trkpt lat="27.761619" lon="86.713811">
        <ele>2739</ele>
        <time>2022-10-30T03:29:16.000Z</time>
      </trkpt>
      <trkpt lat="27.7616" lon="86.713798">
        <ele>2739.2</ele>
        <time>2022-10-30T03:29:18.000Z</time>
      </trkpt>
      <trkpt lat="27.761578" lon="86.713786">
        <ele>2739.4</ele>
        <time>2022-10-30T03:29:21.000Z</time>
      </trkpt>
      <trkpt lat="27.761555" lon="86.713773">
        <ele>2739.8</ele>
        <time>2022-10-30T03:29:24.000Z</time>
      </trkpt>
      <trkpt lat="27.761536" lon="86.713766">
        <ele>2739.8</ele>
        <time>2022-10-30T03:29:26.000Z</time>
      </trkpt>
      <trkpt lat="27.76151" lon="86.71376">
        <ele>2739.8</ele>
        <time>2022-10-30T03:29:29.000Z</time>
      </trkpt>
      <trkpt lat="27.761482" lon="86.713747">
        <ele>2740</ele>
        <time>2022-10-30T03:29:32.000Z</time>
      </trkpt>
      <trkpt lat="27.761456" lon="86.713734">
        <ele>2740.2</ele>
        <time>2022-10-30T03:29:34.000Z</time>
      </trkpt>
      <trkpt lat="27.761434" lon="86.713728">
        <ele>2740.2</ele>
        <time>2022-10-30T03:29:36.000Z</time>
      </trkpt>
      <trkpt lat="27.761418" lon="86.713715">
        <ele>2740.2</ele>
        <time>2022-10-30T03:29:38.000Z</time>
      </trkpt>
      <trkpt lat="27.761405" lon="86.71369">
        <ele>2740</ele>
        <time>2022-10-30T03:29:40.000Z</time>
      </trkpt>
      <trkpt lat="27.761395" lon="86.713664">
        <ele>2740</ele>
        <time>2022-10-30T03:29:42.000Z</time>
      </trkpt>
      <trkpt lat="27.761382" lon="86.713638">
        <ele>2739.8</ele>
        <time>2022-10-30T03:29:44.000Z</time>
      </trkpt>
      <trkpt lat="27.76137" lon="86.713613">
        <ele>2739.6</ele>
        <time>2022-10-30T03:29:47.000Z</time>
      </trkpt>
      <trkpt lat="27.76137" lon="86.713587">
        <ele>2739.6</ele>
        <time>2022-10-30T03:29:50.000Z</time>
      </trkpt>
      <trkpt lat="27.761366" lon="86.713562">
        <ele>2739.6</ele>
        <time>2022-10-30T03:29:52.000Z</time>
      </trkpt>
      <trkpt lat="27.761363" lon="86.713536">
        <ele>2739.4</ele>
        <time>2022-10-30T03:29:54.000Z</time>
      </trkpt>
      <trkpt lat="27.761363" lon="86.71351">
        <ele>2739.2</ele>
        <time>2022-10-30T03:29:57.000Z</time>
      </trkpt>
      <trkpt lat="27.761366" lon="86.713485">
        <ele>2739.2</ele>
        <time>2022-10-30T03:29:59.000Z</time>
      </trkpt>
      <trkpt lat="27.761366" lon="86.713453">
        <ele>2739</ele>
        <time>2022-10-30T03:30:02.000Z</time>
      </trkpt>
      <trkpt lat="27.761363" lon="86.713414">
        <ele>2738.4</ele>
        <time>2022-10-30T03:30:05.000Z</time>
      </trkpt>
      <trkpt lat="27.761373" lon="86.713376">
        <ele>2738.4</ele>
        <time>2022-10-30T03:30:07.000Z</time>
      </trkpt>
      <trkpt lat="27.761379" lon="86.71335">
        <ele>2738.4</ele>
        <time>2022-10-30T03:30:09.000Z</time>
      </trkpt>
      <trkpt lat="27.761386" lon="86.713331">
        <ele>2738.2</ele>
        <time>2022-10-30T03:30:11.000Z</time>
      </trkpt>
      <trkpt lat="27.761363" lon="86.713325">
        <ele>2738.4</ele>
        <time>2022-10-30T03:30:13.000Z</time>
      </trkpt>
      <trkpt lat="27.761357" lon="86.713306">
        <ele>2738.4</ele>
        <time>2022-10-30T03:30:20.000Z</time>
      </trkpt>
      <trkpt lat="27.761366" lon="86.71328">
        <ele>2738.4</ele>
        <time>2022-10-30T03:30:22.000Z</time>
      </trkpt>
      <trkpt lat="27.76137" lon="86.713254">
        <ele>2738.4</ele>
        <time>2022-10-30T03:30:24.000Z</time>
      </trkpt>
      <trkpt lat="27.76136" lon="86.713216">
        <ele>2738.4</ele>
        <time>2022-10-30T03:30:27.000Z</time>
      </trkpt>
      <trkpt lat="27.761354" lon="86.71319">
        <ele>2738.6</ele>
        <time>2022-10-30T03:30:30.000Z</time>
      </trkpt>
      <trkpt lat="27.761347" lon="86.713171">
        <ele>2739</ele>
        <time>2022-10-30T03:30:32.000Z</time>
      </trkpt>
      <trkpt lat="27.761354" lon="86.713152">
        <ele>2739.2</ele>
        <time>2022-10-30T03:30:34.000Z</time>
      </trkpt>
      <trkpt lat="27.761357" lon="86.713126">
        <ele>2739.6</ele>
        <time>2022-10-30T03:30:37.000Z</time>
      </trkpt>
      <trkpt lat="27.761366" lon="86.713094">
        <ele>2739.8</ele>
        <time>2022-10-30T03:30:40.000Z</time>
      </trkpt>
      <trkpt lat="27.761392" lon="86.713069">
        <ele>2739.6</ele>
        <time>2022-10-30T03:30:42.000Z</time>
      </trkpt>
      <trkpt lat="27.761405" lon="86.71305">
        <ele>2739.6</ele>
        <time>2022-10-30T03:30:43.000Z</time>
      </trkpt>
      <trkpt lat="27.761434" lon="86.713037">
        <ele>2739.6</ele>
        <time>2022-10-30T03:30:45.000Z</time>
      </trkpt>
      <trkpt lat="27.761462" lon="86.713018">
        <ele>2739.2</ele>
        <time>2022-10-30T03:30:47.000Z</time>
      </trkpt>
      <trkpt lat="27.761491" lon="86.713018">
        <ele>2739.4</ele>
        <time>2022-10-30T03:30:49.000Z</time>
      </trkpt>
      <trkpt lat="27.761523" lon="86.713005">
        <ele>2739.4</ele>
        <time>2022-10-30T03:30:51.000Z</time>
      </trkpt>
      <trkpt lat="27.761542" lon="86.712992">
        <ele>2739.4</ele>
        <time>2022-10-30T03:30:52.000Z</time>
      </trkpt>
      <trkpt lat="27.761558" lon="86.712979">
        <ele>2739.4</ele>
        <time>2022-10-30T03:30:53.000Z</time>
      </trkpt>
      <trkpt lat="27.761584" lon="86.712947">
        <ele>2739</ele>
        <time>2022-10-30T03:30:55.000Z</time>
      </trkpt>
      <trkpt lat="27.76159" lon="86.712928">
        <ele>2739</ele>
        <time>2022-10-30T03:30:56.000Z</time>
      </trkpt>
      <trkpt lat="27.761613" lon="86.712909">
        <ele>2738.4</ele>
        <time>2022-10-30T03:30:59.000Z</time>
      </trkpt>
      <trkpt lat="27.761626" lon="86.71289">
        <ele>2738.4</ele>
        <time>2022-10-30T03:31:01.000Z</time>
      </trkpt>
      <trkpt lat="27.761635" lon="86.71287">
        <ele>2738.2</ele>
        <time>2022-10-30T03:31:05.000Z</time>
      </trkpt>
      <trkpt lat="27.761632" lon="86.712845">
        <ele>2738.2</ele>
        <time>2022-10-30T03:31:08.000Z</time>
      </trkpt>
      <trkpt lat="27.761606" lon="86.712851">
        <ele>2740.2</ele>
        <time>2022-10-30T03:31:17.000Z</time>
      </trkpt>
      <trkpt lat="27.761581" lon="86.712845">
        <ele>2742.4</ele>
        <time>2022-10-30T03:31:26.000Z</time>
      </trkpt>
      <trkpt lat="27.761565" lon="86.712832">
        <ele>2742.6</ele>
        <time>2022-10-30T03:31:31.000Z</time>
      </trkpt>
      <trkpt lat="27.761546" lon="86.712819">
        <ele>2742.6</ele>
        <time>2022-10-30T03:31:33.000Z</time>
      </trkpt>
      <trkpt lat="27.761542" lon="86.712794">
        <ele>2742.6</ele>
        <time>2022-10-30T03:31:36.000Z</time>
      </trkpt>
      <trkpt lat="27.761536" lon="86.712762">
        <ele>2742.6</ele>
        <time>2022-10-30T03:31:39.000Z</time>
      </trkpt>
      <trkpt lat="27.76152" lon="86.712749">
        <ele>2742.4</ele>
        <time>2022-10-30T03:31:41.000Z</time>
      </trkpt>
      <trkpt lat="27.76151" lon="86.71273">
        <ele>2742.4</ele>
        <time>2022-10-30T03:31:43.000Z</time>
      </trkpt>
      <trkpt lat="27.761491" lon="86.71271">
        <ele>2742</ele>
        <time>2022-10-30T03:31:46.000Z</time>
      </trkpt>
      <trkpt lat="27.761478" lon="86.712691">
        <ele>2741.6</ele>
        <time>2022-10-30T03:31:48.000Z</time>
      </trkpt>
      <trkpt lat="27.761466" lon="86.712672">
        <ele>2740.8</ele>
        <time>2022-10-30T03:31:50.000Z</time>
      </trkpt>
      <trkpt lat="27.761466" lon="86.712646">
        <ele>2740.2</ele>
        <time>2022-10-30T03:31:53.000Z</time>
      </trkpt>
      <trkpt lat="27.761456" lon="86.712621">
        <ele>2740.2</ele>
        <time>2022-10-30T03:31:56.000Z</time>
      </trkpt>
      <trkpt lat="27.76144" lon="86.712602">
        <ele>2739.8</ele>
        <time>2022-10-30T03:31:59.000Z</time>
      </trkpt>
      <trkpt lat="27.761424" lon="86.712582">
        <ele>2739.4</ele>
        <time>2022-10-30T03:32:01.000Z</time>
      </trkpt>
      <trkpt lat="27.761411" lon="86.712563">
        <ele>2739</ele>
        <time>2022-10-30T03:32:03.000Z</time>
      </trkpt>
      <trkpt lat="27.761386" lon="86.712557">
        <ele>2738.8</ele>
        <time>2022-10-30T03:32:06.000Z</time>
      </trkpt>
      <trkpt lat="27.761373" lon="86.712538">
        <ele>2738.6</ele>
        <time>2022-10-30T03:32:08.000Z</time>
      </trkpt>
      <trkpt lat="27.761354" lon="86.712518">
        <ele>2738.4</ele>
        <time>2022-10-30T03:32:11.000Z</time>
      </trkpt>
      <trkpt lat="27.761344" lon="86.712499">
        <ele>2738.4</ele>
        <time>2022-10-30T03:32:16.000Z</time>
      </trkpt>
      <trkpt lat="27.761338" lon="86.71248">
        <ele>2738</ele>
        <time>2022-10-30T03:32:19.000Z</time>
      </trkpt>
      <trkpt lat="27.761325" lon="86.712461">
        <ele>2738.6</ele>
        <time>2022-10-30T03:32:22.000Z</time>
      </trkpt>
      <trkpt lat="27.761312" lon="86.712442">
        <ele>2737.4</ele>
        <time>2022-10-30T03:32:27.000Z</time>
      </trkpt>
      <trkpt lat="27.761312" lon="86.712416">
        <ele>2737.2</ele>
        <time>2022-10-30T03:32:31.000Z</time>
      </trkpt>
      <trkpt lat="27.76129" lon="86.712397">
        <ele>2736</ele>
        <time>2022-10-30T03:33:44.000Z</time>
      </trkpt>
      <trkpt lat="27.761274" lon="86.712384">
        <ele>2735.4</ele>
        <time>2022-10-30T03:33:48.000Z</time>
      </trkpt>
      <trkpt lat="27.761254" lon="86.712371">
        <ele>2734.8</ele>
        <time>2022-10-30T03:33:51.000Z</time>
      </trkpt>
      <trkpt lat="27.761242" lon="86.712352">
        <ele>2733.6</ele>
        <time>2022-10-30T03:33:58.000Z</time>
      </trkpt>
      <trkpt lat="27.761235" lon="86.712333">
        <ele>2733.6</ele>
        <time>2022-10-30T03:34:02.000Z</time>
      </trkpt>
      <trkpt lat="27.761254" lon="86.712314">
        <ele>2732.8</ele>
        <time>2022-10-30T03:34:11.000Z</time>
      </trkpt>
      <trkpt lat="27.761248" lon="86.712294">
        <ele>2732.8</ele>
        <time>2022-10-30T03:34:13.000Z</time>
      </trkpt>
      <trkpt lat="27.761235" lon="86.712275">
        <ele>2731.6</ele>
        <time>2022-10-30T03:34:18.000Z</time>
      </trkpt>
      <trkpt lat="27.761229" lon="86.712256">
        <ele>2731.2</ele>
        <time>2022-10-30T03:34:21.000Z</time>
      </trkpt>
      <trkpt lat="27.761222" lon="86.712224">
        <ele>2729.8</ele>
        <time>2022-10-30T03:34:26.000Z</time>
      </trkpt>
      <trkpt lat="27.761216" lon="86.712205">
        <ele>2729.4</ele>
        <time>2022-10-30T03:34:29.000Z</time>
      </trkpt>
      <trkpt lat="27.761213" lon="86.712179">
        <ele>2729.2</ele>
        <time>2022-10-30T03:34:31.000Z</time>
      </trkpt>
      <trkpt lat="27.761226" lon="86.71216">
        <ele>2728.6</ele>
        <time>2022-10-30T03:34:34.000Z</time>
      </trkpt>
      <trkpt lat="27.761232" lon="86.712141">
        <ele>2728.6</ele>
        <time>2022-10-30T03:34:35.000Z</time>
      </trkpt>
      <trkpt lat="27.761232" lon="86.712115">
        <ele>2727.6</ele>
        <time>2022-10-30T03:34:39.000Z</time>
      </trkpt>
      <trkpt lat="27.761242" lon="86.712096">
        <ele>2727.6</ele>
        <time>2022-10-30T03:34:40.000Z</time>
      </trkpt>
      <trkpt lat="27.761229" lon="86.712077">
        <ele>2726.6</ele>
        <time>2022-10-30T03:34:44.000Z</time>
      </trkpt>
      <trkpt lat="27.76121" lon="86.712064">
        <ele>2725.8</ele>
        <time>2022-10-30T03:34:47.000Z</time>
      </trkpt>
      <trkpt lat="27.761184" lon="86.712058">
        <ele>2725.8</ele>
        <time>2022-10-30T03:34:49.000Z</time>
      </trkpt>
      <trkpt lat="27.761165" lon="86.712058">
        <ele>2725.4</ele>
        <time>2022-10-30T03:34:51.000Z</time>
      </trkpt>
      <trkpt lat="27.761149" lon="86.712045">
        <ele>2725.2</ele>
        <time>2022-10-30T03:34:54.000Z</time>
      </trkpt>
      <trkpt lat="27.761155" lon="86.712019">
        <ele>2725.2</ele>
        <time>2022-10-30T03:34:57.000Z</time>
      </trkpt>
      <trkpt lat="27.761168" lon="86.712">
        <ele>2725.8</ele>
        <time>2022-10-30T03:38:43.000Z</time>
      </trkpt>
      <trkpt lat="27.761155" lon="86.712038">
        <ele>2725.6</ele>
        <time>2022-10-30T03:39:11.000Z</time>
      </trkpt>
      <trkpt lat="27.761168" lon="86.712019">
        <ele>2725.4</ele>
        <time>2022-10-30T03:39:14.000Z</time>
      </trkpt>
      <trkpt lat="27.761187" lon="86.712006">
        <ele>2726.4</ele>
        <time>2022-10-30T03:39:18.000Z</time>
      </trkpt>
      <trkpt lat="27.761184" lon="86.712038">
        <ele>2726.6</ele>
        <time>2022-10-30T03:39:51.000Z</time>
      </trkpt>
      <trkpt lat="27.761168" lon="86.712064">
        <ele>2726.4</ele>
        <time>2022-10-30T03:40:06.000Z</time>
      </trkpt>
      <trkpt lat="27.761146" lon="86.712064">
        <ele>2726</ele>
        <time>2022-10-30T03:40:10.000Z</time>
      </trkpt>
      <trkpt lat="27.761136" lon="86.71209">
        <ele>2725.6</ele>
        <time>2022-10-30T03:40:27.000Z</time>
      </trkpt>
      <trkpt lat="27.761114" lon="86.712077">
        <ele>2725.6</ele>
        <time>2022-10-30T03:40:35.000Z</time>
      </trkpt>
      <trkpt lat="27.761098" lon="86.712096">
        <ele>2725.4</ele>
        <time>2022-10-30T03:40:41.000Z</time>
      </trkpt>
      <trkpt lat="27.761088" lon="86.712115">
        <ele>2725.2</ele>
        <time>2022-10-30T03:40:43.000Z</time>
      </trkpt>
      <trkpt lat="27.761088" lon="86.712141">
        <ele>2726.6</ele>
        <time>2022-10-30T03:40:47.000Z</time>
      </trkpt>
      <trkpt lat="27.761088" lon="86.712166">
        <ele>2725.4</ele>
        <time>2022-10-30T03:40:51.000Z</time>
      </trkpt>
      <trkpt lat="27.761114" lon="86.712141">
        <ele>2725.2</ele>
        <time>2022-10-30T03:40:59.000Z</time>
      </trkpt>
      <trkpt lat="27.761123" lon="86.712122">
        <ele>2725.2</ele>
        <time>2022-10-30T03:41:04.000Z</time>
      </trkpt>
      <trkpt lat="27.761104" lon="86.71216">
        <ele>2726.4</ele>
        <time>2022-10-30T03:42:14.000Z</time>
      </trkpt>
      <trkpt lat="27.761088" lon="86.712141">
        <ele>2726.6</ele>
        <time>2022-10-30T03:42:15.000Z</time>
      </trkpt>
      <trkpt lat="27.761062" lon="86.712102">
        <ele>2726.6</ele>
        <time>2022-10-30T03:42:17.000Z</time>
      </trkpt>
      <trkpt lat="27.761043" lon="86.712077">
        <ele>2726.8</ele>
        <time>2022-10-30T03:42:19.000Z</time>
      </trkpt>
      <trkpt lat="27.761027" lon="86.712051">
        <ele>2727.2</ele>
        <time>2022-10-30T03:42:21.000Z</time>
      </trkpt>
      <trkpt lat="27.760989" lon="86.712026">
        <ele>2728</ele>
        <time>2022-10-30T03:42:23.000Z</time>
      </trkpt>
      <trkpt lat="27.76096" lon="86.712013">
        <ele>2727.8</ele>
        <time>2022-10-30T03:42:25.000Z</time>
      </trkpt>
      <trkpt lat="27.760934" lon="86.712006">
        <ele>2727.4</ele>
        <time>2022-10-30T03:42:28.000Z</time>
      </trkpt>
      <trkpt lat="27.760915" lon="86.711987">
        <ele>2728.4</ele>
        <time>2022-10-30T03:42:34.000Z</time>
      </trkpt>
      <trkpt lat="27.760918" lon="86.711962">
        <ele>2728.4</ele>
        <time>2022-10-30T03:42:36.000Z</time>
      </trkpt>
      <trkpt lat="27.760909" lon="86.711936">
        <ele>2729</ele>
        <time>2022-10-30T03:42:38.000Z</time>
      </trkpt>
      <trkpt lat="27.760909" lon="86.711904">
        <ele>2729</ele>
        <time>2022-10-30T03:42:41.000Z</time>
      </trkpt>
      <trkpt lat="27.760918" lon="86.711885">
        <ele>2729.4</ele>
        <time>2022-10-30T03:42:44.000Z</time>
      </trkpt>
      <trkpt lat="27.760909" lon="86.711866">
        <ele>2729.6</ele>
        <time>2022-10-30T03:42:48.000Z</time>
      </trkpt>
      <trkpt lat="27.76089" lon="86.711846">
        <ele>2730.2</ele>
        <time>2022-10-30T03:42:51.000Z</time>
      </trkpt>
      <trkpt lat="27.760867" lon="86.711846">
        <ele>2730.2</ele>
        <time>2022-10-30T03:42:53.000Z</time>
      </trkpt>
      <trkpt lat="27.760854" lon="86.711827">
        <ele>2730.6</ele>
        <time>2022-10-30T03:42:55.000Z</time>
      </trkpt>
      <trkpt lat="27.760838" lon="86.711814">
        <ele>2730.6</ele>
        <time>2022-10-30T03:42:56.000Z</time>
      </trkpt>
      <trkpt lat="27.760826" lon="86.711789">
        <ele>2730.8</ele>
        <time>2022-10-30T03:42:58.000Z</time>
      </trkpt>
      <trkpt lat="27.76081" lon="86.71177">
        <ele>2731.2</ele>
        <time>2022-10-30T03:42:59.000Z</time>
      </trkpt>
      <trkpt lat="27.760794" lon="86.711744">
        <ele>2731</ele>
        <time>2022-10-30T03:43:04.000Z</time>
      </trkpt>
      <trkpt lat="27.760778" lon="86.711725">
        <ele>2731.4</ele>
        <time>2022-10-30T03:43:07.000Z</time>
      </trkpt>
      <trkpt lat="27.760771" lon="86.711706">
        <ele>2731.6</ele>
        <time>2022-10-30T03:43:09.000Z</time>
      </trkpt>
      <trkpt lat="27.760758" lon="86.711686">
        <ele>2731.2</ele>
        <time>2022-10-30T03:43:12.000Z</time>
      </trkpt>
      <trkpt lat="27.760736" lon="86.71168">
        <ele>2731.2</ele>
        <time>2022-10-30T03:43:15.000Z</time>
      </trkpt>
      <trkpt lat="27.760707" lon="86.71168">
        <ele>2730.8</ele>
        <time>2022-10-30T03:43:18.000Z</time>
      </trkpt>
      <trkpt lat="27.760691" lon="86.711661">
        <ele>2730.6</ele>
        <time>2022-10-30T03:43:20.000Z</time>
      </trkpt>
      <trkpt lat="27.760682" lon="86.711642">
        <ele>2730</ele>
        <time>2022-10-30T03:43:23.000Z</time>
      </trkpt>
      <trkpt lat="27.760669" lon="86.711622">
        <ele>2729.4</ele>
        <time>2022-10-30T03:43:25.000Z</time>
      </trkpt>
      <trkpt lat="27.760646" lon="86.71161">
        <ele>2728.6</ele>
        <time>2022-10-30T03:43:28.000Z</time>
      </trkpt>
      <trkpt lat="27.76063" lon="86.711597">
        <ele>2728.2</ele>
        <time>2022-10-30T03:43:31.000Z</time>
      </trkpt>
      <trkpt lat="27.760614" lon="86.711578">
        <ele>2727.8</ele>
        <time>2022-10-30T03:43:35.000Z</time>
      </trkpt>
      <trkpt lat="27.760589" lon="86.711571">
        <ele>2726.8</ele>
        <time>2022-10-30T03:43:38.000Z</time>
      </trkpt>
      <trkpt lat="27.760573" lon="86.711546">
        <ele>2726.2</ele>
        <time>2022-10-30T03:43:40.000Z</time>
      </trkpt>
      <trkpt lat="27.760547" lon="86.711533">
        <ele>2726</ele>
        <time>2022-10-30T03:43:43.000Z</time>
      </trkpt>
      <trkpt lat="27.760534" lon="86.711507">
        <ele>2725.6</ele>
        <time>2022-10-30T03:43:45.000Z</time>
      </trkpt>
      <trkpt lat="27.760509" lon="86.711501">
        <ele>2725.6</ele>
        <time>2022-10-30T03:43:48.000Z</time>
      </trkpt>
      <trkpt lat="27.760496" lon="86.711482">
        <ele>2725.6</ele>
        <time>2022-10-30T03:43:50.000Z</time>
      </trkpt>
      <trkpt lat="27.76048" lon="86.711462">
        <ele>2725.6</ele>
        <time>2022-10-30T03:43:52.000Z</time>
      </trkpt>
      <trkpt lat="27.760454" lon="86.71145">
        <ele>2725.8</ele>
        <time>2022-10-30T03:43:56.000Z</time>
      </trkpt>
      <trkpt lat="27.760432" lon="86.71143">
        <ele>2727</ele>
        <time>2022-10-30T03:44:00.000Z</time>
      </trkpt>
      <trkpt lat="27.760419" lon="86.71145">
        <ele>2727.6</ele>
        <time>2022-10-30T03:44:15.000Z</time>
      </trkpt>
      <trkpt lat="27.7604" lon="86.71143">
        <ele>2729.6</ele>
        <time>2022-10-30T03:44:42.000Z</time>
      </trkpt>
      <trkpt lat="27.760381" lon="86.711411">
        <ele>2729.8</ele>
        <time>2022-10-30T03:44:44.000Z</time>
      </trkpt>
      <trkpt lat="27.760358" lon="86.711398">
        <ele>2730.2</ele>
        <time>2022-10-30T03:44:47.000Z</time>
      </trkpt>
      <trkpt lat="27.760339" lon="86.711398">
        <ele>2730</ele>
        <time>2022-10-30T03:44:49.000Z</time>
      </trkpt>
      <trkpt lat="27.760323" lon="86.711386">
        <ele>2729.8</ele>
        <time>2022-10-30T03:44:51.000Z</time>
      </trkpt>
      <trkpt lat="27.760304" lon="86.71136">
        <ele>2730.2</ele>
        <time>2022-10-30T03:45:09.000Z</time>
      </trkpt>
      <trkpt lat="27.760298" lon="86.711341">
        <ele>2730</ele>
        <time>2022-10-30T03:45:10.000Z</time>
      </trkpt>
      <trkpt lat="27.760288" lon="86.711322">
        <ele>2729.8</ele>
        <time>2022-10-30T03:45:11.000Z</time>
      </trkpt>
      <trkpt lat="27.760282" lon="86.711302">
        <ele>2729.6</ele>
        <time>2022-10-30T03:45:12.000Z</time>
      </trkpt>
      <trkpt lat="27.760256" lon="86.71129">
        <ele>2729.6</ele>
        <time>2022-10-30T03:45:14.000Z</time>
      </trkpt>
      <trkpt lat="27.76023" lon="86.71129">
        <ele>2729.4</ele>
        <time>2022-10-30T03:45:17.000Z</time>
      </trkpt>
      <trkpt lat="27.760202" lon="86.711296">
        <ele>2729.6</ele>
        <time>2022-10-30T03:45:19.000Z</time>
      </trkpt>
      <trkpt lat="27.760179" lon="86.71129">
        <ele>2729.8</ele>
        <time>2022-10-30T03:45:21.000Z</time>
      </trkpt>
      <trkpt lat="27.760163" lon="86.711258">
        <ele>2730</ele>
        <time>2022-10-30T03:45:23.000Z</time>
      </trkpt>
      <trkpt lat="27.76015" lon="86.711226">
        <ele>2730.2</ele>
        <time>2022-10-30T03:45:25.000Z</time>
      </trkpt>
      <trkpt lat="27.760141" lon="86.711206">
        <ele>2729.8</ele>
        <time>2022-10-30T03:45:28.000Z</time>
      </trkpt>
      <trkpt lat="27.760125" lon="86.711187">
        <ele>2729.8</ele>
        <time>2022-10-30T03:45:30.000Z</time>
      </trkpt>
      <trkpt lat="27.760093" lon="86.711149">
        <ele>2729.2</ele>
        <time>2022-10-30T03:45:38.000Z</time>
      </trkpt>
      <trkpt lat="27.760074" lon="86.711136">
        <ele>2729.2</ele>
        <time>2022-10-30T03:45:40.000Z</time>
      </trkpt>
      <trkpt lat="27.760064" lon="86.71111">
        <ele>2728.6</ele>
        <time>2022-10-30T03:45:42.000Z</time>
      </trkpt>
      <trkpt lat="27.760042" lon="86.711104">
        <ele>2728.2</ele>
        <time>2022-10-30T03:45:44.000Z</time>
      </trkpt>
      <trkpt lat="27.760032" lon="86.711072">
        <ele>2728.4</ele>
        <time>2022-10-30T03:45:46.000Z</time>
      </trkpt>
      <trkpt lat="27.760016" lon="86.711053">
        <ele>2728.6</ele>
        <time>2022-10-30T03:45:48.000Z</time>
      </trkpt>
      <trkpt lat="27.76001" lon="86.711034">
        <ele>2728.8</ele>
        <time>2022-10-30T03:45:49.000Z</time>
      </trkpt>
      <trkpt lat="27.759994" lon="86.711014">
        <ele>2728.8</ele>
        <time>2022-10-30T03:45:52.000Z</time>
      </trkpt>
      <trkpt lat="27.759974" lon="86.711002">
        <ele>2729</ele>
        <time>2022-10-30T03:45:54.000Z</time>
      </trkpt>
      <trkpt lat="27.759968" lon="86.710982">
        <ele>2729</ele>
        <time>2022-10-30T03:45:56.000Z</time>
      </trkpt>
      <trkpt lat="27.759965" lon="86.710944">
        <ele>2729.2</ele>
        <time>2022-10-30T03:45:59.000Z</time>
      </trkpt>
      <trkpt lat="27.759936" lon="86.710938">
        <ele>2729.6</ele>
        <time>2022-10-30T03:46:02.000Z</time>
      </trkpt>
      <trkpt lat="27.759917" lon="86.71095">
        <ele>2729.6</ele>
        <time>2022-10-30T03:46:04.000Z</time>
      </trkpt>
      <trkpt lat="27.759898" lon="86.710963">
        <ele>2729.8</ele>
        <time>2022-10-30T03:46:06.000Z</time>
      </trkpt>
      <trkpt lat="27.759882" lon="86.71095">
        <ele>2730.2</ele>
        <time>2022-10-30T03:46:08.000Z</time>
      </trkpt>
      <trkpt lat="27.759862" lon="86.710944">
        <ele>2730.8</ele>
        <time>2022-10-30T03:46:12.000Z</time>
      </trkpt>
      <trkpt lat="27.759846" lon="86.710931">
        <ele>2730.8</ele>
        <time>2022-10-30T03:46:16.000Z</time>
      </trkpt>
      <trkpt lat="27.759834" lon="86.710912">
        <ele>2731.6</ele>
        <time>2022-10-30T03:46:18.000Z</time>
      </trkpt>
      <trkpt lat="27.759814" lon="86.710899">
        <ele>2731.4</ele>
        <time>2022-10-30T03:46:20.000Z</time>
      </trkpt>
      <trkpt lat="27.759792" lon="86.710893">
        <ele>2731.4</ele>
        <time>2022-10-30T03:46:22.000Z</time>
      </trkpt>
      <trkpt lat="27.759776" lon="86.710861">
        <ele>2731.6</ele>
        <time>2022-10-30T03:46:24.000Z</time>
      </trkpt>
      <trkpt lat="27.759757" lon="86.710854">
        <ele>2731.8</ele>
        <time>2022-10-30T03:46:26.000Z</time>
      </trkpt>
      <trkpt lat="27.759738" lon="86.710854">
        <ele>2731.6</ele>
        <time>2022-10-30T03:46:28.000Z</time>
      </trkpt>
      <trkpt lat="27.759718" lon="86.710835">
        <ele>2731.8</ele>
        <time>2022-10-30T03:46:31.000Z</time>
      </trkpt>
      <trkpt lat="27.759706" lon="86.710816">
        <ele>2732.4</ele>
        <time>2022-10-30T03:46:35.000Z</time>
      </trkpt>
      <trkpt lat="27.759686" lon="86.710803">
        <ele>2732.8</ele>
        <time>2022-10-30T03:46:39.000Z</time>
      </trkpt>
      <trkpt lat="27.759677" lon="86.710784">
        <ele>2732.8</ele>
        <time>2022-10-30T03:46:41.000Z</time>
      </trkpt>
      <trkpt lat="27.759661" lon="86.710771">
        <ele>2733.6</ele>
        <time>2022-10-30T03:46:46.000Z</time>
      </trkpt>
      <trkpt lat="27.759648" lon="86.710752">
        <ele>2734.2</ele>
        <time>2022-10-30T03:46:49.000Z</time>
      </trkpt>
      <trkpt lat="27.759629" lon="86.710733">
        <ele>2734.8</ele>
        <time>2022-10-30T03:46:53.000Z</time>
      </trkpt>
      <trkpt lat="27.759619" lon="86.710714">
        <ele>2734.8</ele>
        <time>2022-10-30T03:46:54.000Z</time>
      </trkpt>
      <trkpt lat="27.759622" lon="86.710675">
        <ele>2735</ele>
        <time>2022-10-30T03:46:56.000Z</time>
      </trkpt>
      <trkpt lat="27.759597" lon="86.710675">
        <ele>2735.2</ele>
        <time>2022-10-30T03:46:59.000Z</time>
      </trkpt>
      <trkpt lat="27.759578" lon="86.710669">
        <ele>2735.4</ele>
        <time>2022-10-30T03:47:01.000Z</time>
      </trkpt>
      <trkpt lat="27.759555" lon="86.710656">
        <ele>2735.2</ele>
        <time>2022-10-30T03:47:04.000Z</time>
      </trkpt>
      <trkpt lat="27.759536" lon="86.710637">
        <ele>2735</ele>
        <time>2022-10-30T03:47:06.000Z</time>
      </trkpt>
      <trkpt lat="27.759517" lon="86.710624">
        <ele>2734.8</ele>
        <time>2022-10-30T03:47:09.000Z</time>
      </trkpt>
      <trkpt lat="27.759517" lon="86.710592">
        <ele>2735.6</ele>
        <time>2022-10-30T03:47:14.000Z</time>
      </trkpt>
      <trkpt lat="27.759501" lon="86.710579">
        <ele>2737</ele>
        <time>2022-10-30T03:47:19.000Z</time>
      </trkpt>
      <trkpt lat="27.759485" lon="86.710566">
        <ele>2737.6</ele>
        <time>2022-10-30T03:47:27.000Z</time>
      </trkpt>
      <trkpt lat="27.759466" lon="86.710579">
        <ele>2738.4</ele>
        <time>2022-10-30T03:47:32.000Z</time>
      </trkpt>
      <trkpt lat="27.759446" lon="86.710573">
        <ele>2738.2</ele>
        <time>2022-10-30T03:47:34.000Z</time>
      </trkpt>
      <trkpt lat="27.759446" lon="86.710541">
        <ele>2738.2</ele>
        <time>2022-10-30T03:47:35.000Z</time>
      </trkpt>
      <trkpt lat="27.759446" lon="86.710515">
        <ele>2738.6</ele>
        <time>2022-10-30T03:47:36.000Z</time>
      </trkpt>
      <trkpt lat="27.75944" lon="86.710496">
        <ele>2738.6</ele>
        <time>2022-10-30T03:47:39.000Z</time>
      </trkpt>
      <trkpt lat="27.759434" lon="86.710477">
        <ele>2739.4</ele>
        <time>2022-10-30T03:47:43.000Z</time>
      </trkpt>
      <trkpt lat="27.75944" lon="86.710502">
        <ele>2739.6</ele>
        <time>2022-10-30T03:47:58.000Z</time>
      </trkpt>
      <trkpt lat="27.75943" lon="86.710528">
        <ele>2739.6</ele>
        <time>2022-10-30T03:48:02.000Z</time>
      </trkpt>
      <trkpt lat="27.759421" lon="86.710547">
        <ele>2739.6</ele>
        <time>2022-10-30T03:48:05.000Z</time>
      </trkpt>
      <trkpt lat="27.759437" lon="86.710528">
        <ele>2739.4</ele>
        <time>2022-10-30T03:48:11.000Z</time>
      </trkpt>
      <trkpt lat="27.759446" lon="86.710509">
        <ele>2739.4</ele>
        <time>2022-10-30T03:48:12.000Z</time>
      </trkpt>
      <trkpt lat="27.75944" lon="86.71049">
        <ele>2739.4</ele>
        <time>2022-10-30T03:48:17.000Z</time>
      </trkpt>
      <trkpt lat="27.759421" lon="86.710496">
        <ele>2739.6</ele>
        <time>2022-10-30T03:48:20.000Z</time>
      </trkpt>
      <trkpt lat="27.759437" lon="86.710477">
        <ele>2739.8</ele>
        <time>2022-10-30T03:48:29.000Z</time>
      </trkpt>
      <trkpt lat="27.759456" lon="86.710477">
        <ele>2739.8</ele>
        <time>2022-10-30T03:48:30.000Z</time>
      </trkpt>
      <trkpt lat="27.759478" lon="86.710477">
        <ele>2739.8</ele>
        <time>2022-10-30T03:48:32.000Z</time>
      </trkpt>
      <trkpt lat="27.759498" lon="86.71047">
        <ele>2739.8</ele>
        <time>2022-10-30T03:48:35.000Z</time>
      </trkpt>
      <trkpt lat="27.759488" lon="86.710496">
        <ele>2739.8</ele>
        <time>2022-10-30T03:48:36.000Z</time>
      </trkpt>
      <trkpt lat="27.759475" lon="86.710515">
        <ele>2739.8</ele>
        <time>2022-10-30T03:48:37.000Z</time>
      </trkpt>
      <trkpt lat="27.759466" lon="86.710534">
        <ele>2739.8</ele>
        <time>2022-10-30T03:48:38.000Z</time>
      </trkpt>
      <trkpt lat="27.759456" lon="86.710554">
        <ele>2739.8</ele>
        <time>2022-10-30T03:48:39.000Z</time>
      </trkpt>
      <trkpt lat="27.75945" lon="86.710573">
        <ele>2739.8</ele>
        <time>2022-10-30T03:48:40.000Z</time>
      </trkpt>
      <trkpt lat="27.759437" lon="86.710605">
        <ele>2739.8</ele>
        <time>2022-10-30T03:48:42.000Z</time>
      </trkpt>
      <trkpt lat="27.75943" lon="86.710579">
        <ele>2739.8</ele>
        <time>2022-10-30T03:48:49.000Z</time>
      </trkpt>
      <trkpt lat="27.759411" lon="86.710566">
        <ele>2739.6</ele>
        <time>2022-10-30T03:48:51.000Z</time>
      </trkpt>
      <trkpt lat="27.759405" lon="86.710534">
        <ele>2740</ele>
        <time>2022-10-30T03:48:53.000Z</time>
      </trkpt>
      <trkpt lat="27.759395" lon="86.710509">
        <ele>2740.2</ele>
        <time>2022-10-30T03:48:54.000Z</time>
      </trkpt>
      <trkpt lat="27.759357" lon="86.710496">
        <ele>2740.6</ele>
        <time>2022-10-30T03:48:57.000Z</time>
      </trkpt>
      <trkpt lat="27.759325" lon="86.71049">
        <ele>2740</ele>
        <time>2022-10-30T03:48:59.000Z</time>
      </trkpt>
      <trkpt lat="27.759306" lon="86.710477">
        <ele>2740</ele>
        <time>2022-10-30T03:49:00.000Z</time>
      </trkpt>
      <trkpt lat="27.759286" lon="86.71047">
        <ele>2740</ele>
        <time>2022-10-30T03:49:01.000Z</time>
      </trkpt>
      <trkpt lat="27.759267" lon="86.710458">
        <ele>2739.6</ele>
        <time>2022-10-30T03:49:03.000Z</time>
      </trkpt>
      <trkpt lat="27.759248" lon="86.710451">
        <ele>2739</ele>
        <time>2022-10-30T03:49:05.000Z</time>
      </trkpt>
      <trkpt lat="27.759216" lon="86.710451">
        <ele>2738.6</ele>
        <time>2022-10-30T03:49:08.000Z</time>
      </trkpt>
      <trkpt lat="27.759197" lon="86.710464">
        <ele>2738.6</ele>
        <time>2022-10-30T03:49:10.000Z</time>
      </trkpt>
      <trkpt lat="27.759178" lon="86.710458">
        <ele>2738.8</ele>
        <time>2022-10-30T03:49:12.000Z</time>
      </trkpt>
      <trkpt lat="27.759165" lon="86.710432">
        <ele>2738.8</ele>
        <time>2022-10-30T03:49:15.000Z</time>
      </trkpt>
      <trkpt lat="27.759158" lon="86.710406">
        <ele>2739</ele>
        <time>2022-10-30T03:49:22.000Z</time>
      </trkpt>
      <trkpt lat="27.759142" lon="86.710387">
        <ele>2740.2</ele>
        <time>2022-10-30T03:49:27.000Z</time>
      </trkpt>
      <trkpt lat="27.759133" lon="86.710368">
        <ele>2740.8</ele>
        <time>2022-10-30T03:49:31.000Z</time>
      </trkpt>
      <trkpt lat="27.759117" lon="86.710355">
        <ele>2743</ele>
        <time>2022-10-30T03:49:43.000Z</time>
      </trkpt>
      <trkpt lat="27.759098" lon="86.710349">
        <ele>2744.2</ele>
        <time>2022-10-30T03:49:49.000Z</time>
      </trkpt>
      <trkpt lat="27.759078" lon="86.710336">
        <ele>2744.2</ele>
        <time>2022-10-30T03:49:51.000Z</time>
      </trkpt>
      <trkpt lat="27.759053" lon="86.71033">
        <ele>2744.2</ele>
        <time>2022-10-30T03:49:53.000Z</time>
      </trkpt>
      <trkpt lat="27.759034" lon="86.71033">
        <ele>2744.2</ele>
        <time>2022-10-30T03:49:55.000Z</time>
      </trkpt>
      <trkpt lat="27.759002" lon="86.710336">
        <ele>2744.4</ele>
        <time>2022-10-30T03:49:57.000Z</time>
      </trkpt>
      <trkpt lat="27.758979" lon="86.71033">
        <ele>2744.4</ele>
        <time>2022-10-30T03:49:59.000Z</time>
      </trkpt>
      <trkpt lat="27.758966" lon="86.71031">
        <ele>2744.4</ele>
        <time>2022-10-30T03:50:01.000Z</time>
      </trkpt>
      <trkpt lat="27.758941" lon="86.71031">
        <ele>2744.8</ele>
        <time>2022-10-30T03:50:15.000Z</time>
      </trkpt>
      <trkpt lat="27.758922" lon="86.71031">
        <ele>2744.6</ele>
        <time>2022-10-30T03:50:18.000Z</time>
      </trkpt>
      <trkpt lat="27.758902" lon="86.71033">
        <ele>2744.6</ele>
        <time>2022-10-30T03:50:20.000Z</time>
      </trkpt>
      <trkpt lat="27.75888" lon="86.710336">
        <ele>2744.4</ele>
        <time>2022-10-30T03:50:23.000Z</time>
      </trkpt>
      <trkpt lat="27.758854" lon="86.710349">
        <ele>2744</ele>
        <time>2022-10-30T03:50:26.000Z</time>
      </trkpt>
      <trkpt lat="27.758832" lon="86.710349">
        <ele>2743.4</ele>
        <time>2022-10-30T03:50:30.000Z</time>
      </trkpt>
      <trkpt lat="27.758819" lon="86.71033">
        <ele>2741.8</ele>
        <time>2022-10-30T03:50:34.000Z</time>
      </trkpt>
      <trkpt lat="27.758806" lon="86.71031">
        <ele>2741.2</ele>
        <time>2022-10-30T03:50:38.000Z</time>
      </trkpt>
      <trkpt lat="27.758784" lon="86.710317">
        <ele>2739.8</ele>
        <time>2022-10-30T03:50:42.000Z</time>
      </trkpt>
      <trkpt lat="27.758765" lon="86.710317">
        <ele>2738.2</ele>
        <time>2022-10-30T03:50:48.000Z</time>
      </trkpt>
      <trkpt lat="27.758746" lon="86.710304">
        <ele>2736.6</ele>
        <time>2022-10-30T03:50:53.000Z</time>
      </trkpt>
      <trkpt lat="27.75873" lon="86.710291">
        <ele>2735.6</ele>
        <time>2022-10-30T03:50:56.000Z</time>
      </trkpt>
      <trkpt lat="27.758714" lon="86.710272">
        <ele>2734.6</ele>
        <time>2022-10-30T03:51:00.000Z</time>
      </trkpt>
      <trkpt lat="27.758694" lon="86.710291">
        <ele>2734</ele>
        <time>2022-10-30T03:51:03.000Z</time>
      </trkpt>
      <trkpt lat="27.758675" lon="86.710291">
        <ele>2733.6</ele>
        <time>2022-10-30T03:51:05.000Z</time>
      </trkpt>
      <trkpt lat="27.758656" lon="86.710291">
        <ele>2732.8</ele>
        <time>2022-10-30T03:51:10.000Z</time>
      </trkpt>
      <trkpt lat="27.758637" lon="86.710298">
        <ele>2732.4</ele>
        <time>2022-10-30T03:51:13.000Z</time>
      </trkpt>
      <trkpt lat="27.758618" lon="86.71031">
        <ele>2731.2</ele>
        <time>2022-10-30T03:51:19.000Z</time>
      </trkpt>
      <trkpt lat="27.758595" lon="86.71031">
        <ele>2729.8</ele>
        <time>2022-10-30T03:51:25.000Z</time>
      </trkpt>
      <trkpt lat="27.758576" lon="86.71031">
        <ele>2729.2</ele>
        <time>2022-10-30T03:51:28.000Z</time>
      </trkpt>
      <trkpt lat="27.758544" lon="86.710304">
        <ele>2728.6</ele>
        <time>2022-10-30T03:51:30.000Z</time>
      </trkpt>
      <trkpt lat="27.758538" lon="86.710272">
        <ele>2728.4</ele>
        <time>2022-10-30T03:51:32.000Z</time>
      </trkpt>
      <trkpt lat="27.758522" lon="86.710253">
        <ele>2728</ele>
        <time>2022-10-30T03:51:35.000Z</time>
      </trkpt>
      <trkpt lat="27.758515" lon="86.710234">
        <ele>2728</ele>
        <time>2022-10-30T03:51:36.000Z</time>
      </trkpt>
      <trkpt lat="27.758496" lon="86.710214">
        <ele>2727.8</ele>
        <time>2022-10-30T03:51:38.000Z</time>
      </trkpt>
      <trkpt lat="27.758483" lon="86.710195">
        <ele>2727.2</ele>
        <time>2022-10-30T03:51:40.000Z</time>
      </trkpt>
      <trkpt lat="27.758458" lon="86.710189">
        <ele>2726.6</ele>
        <time>2022-10-30T03:51:44.000Z</time>
      </trkpt>
      <trkpt lat="27.758435" lon="86.710195">
        <ele>2726.6</ele>
        <time>2022-10-30T03:51:46.000Z</time>
      </trkpt>
      <trkpt lat="27.758416" lon="86.710208">
        <ele>2726.4</ele>
        <time>2022-10-30T03:51:47.000Z</time>
      </trkpt>
      <trkpt lat="27.758397" lon="86.710214">
        <ele>2725.8</ele>
        <time>2022-10-30T03:51:48.000Z</time>
      </trkpt>
      <trkpt lat="27.758368" lon="86.710214">
        <ele>2725.6</ele>
        <time>2022-10-30T03:51:50.000Z</time>
      </trkpt>
      <trkpt lat="27.758349" lon="86.710214">
        <ele>2725.4</ele>
        <time>2022-10-30T03:51:52.000Z</time>
      </trkpt>
      <trkpt lat="27.758333" lon="86.710195">
        <ele>2725.4</ele>
        <time>2022-10-30T03:51:54.000Z</time>
      </trkpt>
      <trkpt lat="27.75831" lon="86.710182">
        <ele>2725.2</ele>
        <time>2022-10-30T03:51:58.000Z</time>
      </trkpt>
      <trkpt lat="27.758291" lon="86.710176">
        <ele>2725.2</ele>
        <time>2022-10-30T03:52:00.000Z</time>
      </trkpt>
      <trkpt lat="27.758266" lon="86.710176">
        <ele>2724</ele>
        <time>2022-10-30T03:52:03.000Z</time>
      </trkpt>
      <trkpt lat="27.758243" lon="86.71017">
        <ele>2723.6</ele>
        <time>2022-10-30T03:52:05.000Z</time>
      </trkpt>
      <trkpt lat="27.758224" lon="86.710157">
        <ele>2723.4</ele>
        <time>2022-10-30T03:52:06.000Z</time>
      </trkpt>
      <trkpt lat="27.758202" lon="86.710131">
        <ele>2722.8</ele>
        <time>2022-10-30T03:52:08.000Z</time>
      </trkpt>
      <trkpt lat="27.758182" lon="86.710112">
        <ele>2722.8</ele>
        <time>2022-10-30T03:52:10.000Z</time>
      </trkpt>
      <trkpt lat="27.758157" lon="86.710099">
        <ele>2722.8</ele>
        <time>2022-10-30T03:52:13.000Z</time>
      </trkpt>
      <trkpt lat="27.758138" lon="86.710093">
        <ele>2723</ele>
        <time>2022-10-30T03:52:15.000Z</time>
      </trkpt>
      <trkpt lat="27.758115" lon="86.71008">
        <ele>2723</ele>
        <time>2022-10-30T03:52:17.000Z</time>
      </trkpt>
      <trkpt lat="27.758096" lon="86.71008">
        <ele>2722.6</ele>
        <time>2022-10-30T03:52:20.000Z</time>
      </trkpt>
      <trkpt lat="27.758077" lon="86.71008">
        <ele>2722.2</ele>
        <time>2022-10-30T03:52:22.000Z</time>
      </trkpt>
      <trkpt lat="27.758058" lon="86.710093">
        <ele>2721.8</ele>
        <time>2022-10-30T03:52:25.000Z</time>
      </trkpt>
      <trkpt lat="27.758035" lon="86.710099">
        <ele>2721.2</ele>
        <time>2022-10-30T03:52:28.000Z</time>
      </trkpt>
      <trkpt lat="27.758016" lon="86.710112">
        <ele>2720.4</ele>
        <time>2022-10-30T03:52:31.000Z</time>
      </trkpt>
      <trkpt lat="27.75799" lon="86.710112">
        <ele>2720</ele>
        <time>2022-10-30T03:52:34.000Z</time>
      </trkpt>
      <trkpt lat="27.757971" lon="86.710112">
        <ele>2719.6</ele>
        <time>2022-10-30T03:52:36.000Z</time>
      </trkpt>
      <trkpt lat="27.757946" lon="86.710106">
        <ele>2719.2</ele>
        <time>2022-10-30T03:52:39.000Z</time>
      </trkpt>
      <trkpt lat="27.75792" lon="86.710112">
        <ele>2718.8</ele>
        <time>2022-10-30T03:52:42.000Z</time>
      </trkpt>
      <trkpt lat="27.757891" lon="86.710112">
        <ele>2718.4</ele>
        <time>2022-10-30T03:52:45.000Z</time>
      </trkpt>
      <trkpt lat="27.757872" lon="86.710106">
        <ele>2717.6</ele>
        <time>2022-10-30T03:52:47.000Z</time>
      </trkpt>
      <trkpt lat="27.757846" lon="86.710106">
        <ele>2717.6</ele>
        <time>2022-10-30T03:52:50.000Z</time>
      </trkpt>
      <trkpt lat="27.757827" lon="86.710093">
        <ele>2717.2</ele>
        <time>2022-10-30T03:52:52.000Z</time>
      </trkpt>
      <trkpt lat="27.757811" lon="86.71008">
        <ele>2717</ele>
        <time>2022-10-30T03:52:54.000Z</time>
      </trkpt>
      <trkpt lat="27.757789" lon="86.710074">
        <ele>2716.8</ele>
        <time>2022-10-30T03:52:56.000Z</time>
      </trkpt>
      <trkpt lat="27.757766" lon="86.710074">
        <ele>2715.2</ele>
        <time>2022-10-30T03:53:02.000Z</time>
      </trkpt>
      <trkpt lat="27.757747" lon="86.71008">
        <ele>2714.4</ele>
        <time>2022-10-30T03:53:05.000Z</time>
      </trkpt>
      <trkpt lat="27.757728" lon="86.710074">
        <ele>2713.4</ele>
        <time>2022-10-30T03:53:09.000Z</time>
      </trkpt>
      <trkpt lat="27.757712" lon="86.710061">
        <ele>2712.4</ele>
        <time>2022-10-30T03:53:12.000Z</time>
      </trkpt>
      <trkpt lat="27.757696" lon="86.710074">
        <ele>2711.6</ele>
        <time>2022-10-30T03:53:16.000Z</time>
      </trkpt>
      <trkpt lat="27.757686" lon="86.710093">
        <ele>2711</ele>
        <time>2022-10-30T03:53:18.000Z</time>
      </trkpt>
      <trkpt lat="27.757667" lon="86.710112">
        <ele>2710.4</ele>
        <time>2022-10-30T03:53:21.000Z</time>
      </trkpt>
      <trkpt lat="27.757642" lon="86.710112">
        <ele>2709.6</ele>
        <time>2022-10-30T03:53:23.000Z</time>
      </trkpt>
      <trkpt lat="27.757622" lon="86.710106">
        <ele>2709.8</ele>
        <time>2022-10-30T03:53:26.000Z</time>
      </trkpt>
      <trkpt lat="27.757603" lon="86.710106">
        <ele>2709.8</ele>
        <time>2022-10-30T03:53:28.000Z</time>
      </trkpt>
      <trkpt lat="27.757578" lon="86.710112">
        <ele>2710</ele>
        <time>2022-10-30T03:53:31.000Z</time>
      </trkpt>
      <trkpt lat="27.757552" lon="86.710112">
        <ele>2710.4</ele>
        <time>2022-10-30T03:53:34.000Z</time>
      </trkpt>
      <trkpt lat="27.757533" lon="86.710118">
        <ele>2710.8</ele>
        <time>2022-10-30T03:53:38.000Z</time>
      </trkpt>
      <trkpt lat="27.757517" lon="86.710138">
        <ele>2711.6</ele>
        <time>2022-10-30T03:53:41.000Z</time>
      </trkpt>
      <trkpt lat="27.75751" lon="86.710118">
        <ele>2712.6</ele>
        <time>2022-10-30T03:54:28.000Z</time>
      </trkpt>
      <trkpt lat="27.757482" lon="86.710112">
        <ele>2711.8</ele>
        <time>2022-10-30T03:54:30.000Z</time>
      </trkpt>
      <trkpt lat="27.757456" lon="86.710106">
        <ele>2711.6</ele>
        <time>2022-10-30T03:54:32.000Z</time>
      </trkpt>
      <trkpt lat="27.757424" lon="86.710099">
        <ele>2711</ele>
        <time>2022-10-30T03:54:34.000Z</time>
      </trkpt>
      <trkpt lat="27.757395" lon="86.710099">
        <ele>2710.6</ele>
        <time>2022-10-30T03:54:36.000Z</time>
      </trkpt>
      <trkpt lat="27.757373" lon="86.710106">
        <ele>2710</ele>
        <time>2022-10-30T03:54:38.000Z</time>
      </trkpt>
      <trkpt lat="27.757334" lon="86.710112">
        <ele>2708.4</ele>
        <time>2022-10-30T03:54:43.000Z</time>
      </trkpt>
      <trkpt lat="27.757328" lon="86.710131">
        <ele>2707.8</ele>
        <time>2022-10-30T03:54:45.000Z</time>
      </trkpt>
      <trkpt lat="27.757338" lon="86.710112">
        <ele>2706.8</ele>
        <time>2022-10-30T03:54:47.000Z</time>
      </trkpt>
      <trkpt lat="27.75736" lon="86.710118">
        <ele>2705.8</ele>
        <time>2022-10-30T03:54:52.000Z</time>
      </trkpt>
      <trkpt lat="27.75736" lon="86.710144">
        <ele>2705.4</ele>
        <time>2022-10-30T03:54:55.000Z</time>
      </trkpt>
      <trkpt lat="27.757338" lon="86.710157">
        <ele>2704.8</ele>
        <time>2022-10-30T03:54:59.000Z</time>
      </trkpt>
      <trkpt lat="27.757318" lon="86.710176">
        <ele>2703.8</ele>
        <time>2022-10-30T03:55:02.000Z</time>
      </trkpt>
      <trkpt lat="27.757296" lon="86.710189">
        <ele>2703</ele>
        <time>2022-10-30T03:55:05.000Z</time>
      </trkpt>
      <trkpt lat="27.757283" lon="86.710208">
        <ele>2702.6</ele>
        <time>2022-10-30T03:55:07.000Z</time>
      </trkpt>
      <trkpt lat="27.757264" lon="86.710208">
        <ele>2701.8</ele>
        <time>2022-10-30T03:55:10.000Z</time>
      </trkpt>
      <trkpt lat="27.757235" lon="86.710208">
        <ele>2701.4</ele>
        <time>2022-10-30T03:55:12.000Z</time>
      </trkpt>
      <trkpt lat="27.757213" lon="86.710227">
        <ele>2700.8</ele>
        <time>2022-10-30T03:55:14.000Z</time>
      </trkpt>
      <trkpt lat="27.757184" lon="86.710227">
        <ele>2700.4</ele>
        <time>2022-10-30T03:55:16.000Z</time>
      </trkpt>
      <trkpt lat="27.757174" lon="86.710208">
        <ele>2700.4</ele>
        <time>2022-10-30T03:55:18.000Z</time>
      </trkpt>
      <trkpt lat="27.757152" lon="86.710208">
        <ele>2700</ele>
        <time>2022-10-30T03:55:21.000Z</time>
      </trkpt>
      <trkpt lat="27.757133" lon="86.710195">
        <ele>2699.4</ele>
        <time>2022-10-30T03:55:23.000Z</time>
      </trkpt>
      <trkpt lat="27.757114" lon="86.710182">
        <ele>2698.4</ele>
        <time>2022-10-30T03:55:25.000Z</time>
      </trkpt>
      <trkpt lat="27.757085" lon="86.710176">
        <ele>2698.2</ele>
        <time>2022-10-30T03:55:27.000Z</time>
      </trkpt>
      <trkpt lat="27.757066" lon="86.71017">
        <ele>2698.2</ele>
        <time>2022-10-30T03:55:29.000Z</time>
      </trkpt>
      <trkpt lat="27.757043" lon="86.71015">
        <ele>2698</ele>
        <time>2022-10-30T03:55:31.000Z</time>
      </trkpt>
      <trkpt lat="27.757014" lon="86.710144">
        <ele>2698</ele>
        <time>2022-10-30T03:55:33.000Z</time>
      </trkpt>
      <trkpt lat="27.756995" lon="86.710138">
        <ele>2698.2</ele>
        <time>2022-10-30T03:55:35.000Z</time>
      </trkpt>
      <trkpt lat="27.756976" lon="86.710131">
        <ele>2698.2</ele>
        <time>2022-10-30T03:55:37.000Z</time>
      </trkpt>
      <trkpt lat="27.756957" lon="86.710118">
        <ele>2698.2</ele>
        <time>2022-10-30T03:55:39.000Z</time>
      </trkpt>
      <trkpt lat="27.756938" lon="86.710131">
        <ele>2698.2</ele>
        <time>2022-10-30T03:55:41.000Z</time>
      </trkpt>
      <trkpt lat="27.756915" lon="86.710138">
        <ele>2698.2</ele>
        <time>2022-10-30T03:55:43.000Z</time>
      </trkpt>
      <trkpt lat="27.75689" lon="86.71015">
        <ele>2698</ele>
        <time>2022-10-30T03:55:46.000Z</time>
      </trkpt>
      <trkpt lat="27.756867" lon="86.71015">
        <ele>2698.2</ele>
        <time>2022-10-30T03:55:48.000Z</time>
      </trkpt>
      <trkpt lat="27.756848" lon="86.71015">
        <ele>2698.2</ele>
        <time>2022-10-30T03:55:50.000Z</time>
      </trkpt>
      <trkpt lat="27.756829" lon="86.710157">
        <ele>2698.4</ele>
        <time>2022-10-30T03:55:52.000Z</time>
      </trkpt>
      <trkpt lat="27.75681" lon="86.710176">
        <ele>2698.4</ele>
        <time>2022-10-30T03:55:54.000Z</time>
      </trkpt>
      <trkpt lat="27.756787" lon="86.710176">
        <ele>2698.6</ele>
        <time>2022-10-30T03:55:56.000Z</time>
      </trkpt>
      <trkpt lat="27.756768" lon="86.710176">
        <ele>2698.6</ele>
        <time>2022-10-30T03:55:58.000Z</time>
      </trkpt>
      <trkpt lat="27.756746" lon="86.710176">
        <ele>2698.8</ele>
        <time>2022-10-30T03:56:00.000Z</time>
      </trkpt>
      <trkpt lat="27.756723" lon="86.710176">
        <ele>2698.8</ele>
        <time>2022-10-30T03:56:02.000Z</time>
      </trkpt>
      <trkpt lat="27.756698" lon="86.710176">
        <ele>2698.8</ele>
        <time>2022-10-30T03:56:04.000Z</time>
      </trkpt>
      <trkpt lat="27.756678" lon="86.71017">
        <ele>2699.2</ele>
        <time>2022-10-30T03:56:06.000Z</time>
      </trkpt>
      <trkpt lat="27.756659" lon="86.71017">
        <ele>2699.4</ele>
        <time>2022-10-30T03:56:08.000Z</time>
      </trkpt>
      <trkpt lat="27.756634" lon="86.71017">
        <ele>2699.4</ele>
        <time>2022-10-30T03:56:11.000Z</time>
      </trkpt>
      <trkpt lat="27.756611" lon="86.71017">
        <ele>2699.6</ele>
        <time>2022-10-30T03:56:13.000Z</time>
      </trkpt>
      <trkpt lat="27.756586" lon="86.71017">
        <ele>2699.8</ele>
        <time>2022-10-30T03:56:16.000Z</time>
      </trkpt>
      <trkpt lat="27.756566" lon="86.710157">
        <ele>2699.8</ele>
        <time>2022-10-30T03:56:18.000Z</time>
      </trkpt>
      <trkpt lat="27.756541" lon="86.71015">
        <ele>2699.8</ele>
        <time>2022-10-30T03:56:20.000Z</time>
      </trkpt>
      <trkpt lat="27.756518" lon="86.71015">
        <ele>2699.8</ele>
        <time>2022-10-30T03:56:22.000Z</time>
      </trkpt>
      <trkpt lat="27.756493" lon="86.710144">
        <ele>2699.8</ele>
        <time>2022-10-30T03:56:24.000Z</time>
      </trkpt>
      <trkpt lat="27.75647" lon="86.710138">
        <ele>2699.8</ele>
        <time>2022-10-30T03:56:26.000Z</time>
      </trkpt>
      <trkpt lat="27.756451" lon="86.710131">
        <ele>2699.8</ele>
        <time>2022-10-30T03:56:28.000Z</time>
      </trkpt>
      <trkpt lat="27.756426" lon="86.710112">
        <ele>2699.8</ele>
        <time>2022-10-30T03:56:30.000Z</time>
      </trkpt>
      <trkpt lat="27.756406" lon="86.710112">
        <ele>2699.8</ele>
        <time>2022-10-30T03:56:32.000Z</time>
      </trkpt>
      <trkpt lat="27.756384" lon="86.710112">
        <ele>2699.8</ele>
        <time>2022-10-30T03:56:34.000Z</time>
      </trkpt>
      <trkpt lat="27.756362" lon="86.710106">
        <ele>2699.6</ele>
        <time>2022-10-30T03:56:36.000Z</time>
      </trkpt>
      <trkpt lat="27.756336" lon="86.710099">
        <ele>2699.4</ele>
        <time>2022-10-30T03:56:39.000Z</time>
      </trkpt>
      <trkpt lat="27.756317" lon="86.710099">
        <ele>2699.2</ele>
        <time>2022-10-30T03:56:43.000Z</time>
      </trkpt>
      <trkpt lat="27.756294" lon="86.710099">
        <ele>2699.4</ele>
        <time>2022-10-30T03:56:48.000Z</time>
      </trkpt>
      <trkpt lat="27.756266" lon="86.710106">
        <ele>2699.6</ele>
        <time>2022-10-30T03:56:51.000Z</time>
      </trkpt>
      <trkpt lat="27.756243" lon="86.710099">
        <ele>2699.2</ele>
        <time>2022-10-30T03:56:53.000Z</time>
      </trkpt>
      <trkpt lat="27.756221" lon="86.710099">
        <ele>2699</ele>
        <time>2022-10-30T03:56:56.000Z</time>
      </trkpt>
      <trkpt lat="27.756198" lon="86.710099">
        <ele>2699.2</ele>
        <time>2022-10-30T03:56:58.000Z</time>
      </trkpt>
      <trkpt lat="27.756173" lon="86.710099">
        <ele>2699.4</ele>
        <time>2022-10-30T03:57:00.000Z</time>
      </trkpt>
      <trkpt lat="27.75615" lon="86.710099">
        <ele>2699.4</ele>
        <time>2022-10-30T03:57:02.000Z</time>
      </trkpt>
      <trkpt lat="27.756128" lon="86.710093">
        <ele>2699.4</ele>
        <time>2022-10-30T03:57:04.000Z</time>
      </trkpt>
      <trkpt lat="27.756109" lon="86.710099">
        <ele>2699.2</ele>
        <time>2022-10-30T03:57:06.000Z</time>
      </trkpt>
      <trkpt lat="27.756083" lon="86.710099">
        <ele>2699.4</ele>
        <time>2022-10-30T03:57:09.000Z</time>
      </trkpt>
      <trkpt lat="27.756064" lon="86.710106">
        <ele>2699.4</ele>
        <time>2022-10-30T03:57:11.000Z</time>
      </trkpt>
      <trkpt lat="27.756045" lon="86.710106">
        <ele>2699.4</ele>
        <time>2022-10-30T03:57:13.000Z</time>
      </trkpt>
      <trkpt lat="27.756022" lon="86.710112">
        <ele>2699.8</ele>
        <time>2022-10-30T03:57:15.000Z</time>
      </trkpt>
      <trkpt lat="27.756003" lon="86.710112">
        <ele>2699.8</ele>
        <time>2022-10-30T03:57:17.000Z</time>
      </trkpt>
      <trkpt lat="27.755981" lon="86.710131">
        <ele>2699.8</ele>
        <time>2022-10-30T03:57:19.000Z</time>
      </trkpt>
      <trkpt lat="27.755962" lon="86.710144">
        <ele>2699.8</ele>
        <time>2022-10-30T03:57:21.000Z</time>
      </trkpt>
      <trkpt lat="27.755936" lon="86.710157">
        <ele>2699.8</ele>
        <time>2022-10-30T03:57:24.000Z</time>
      </trkpt>
      <trkpt lat="27.755917" lon="86.71017">
        <ele>2699.6</ele>
        <time>2022-10-30T03:57:26.000Z</time>
      </trkpt>
      <trkpt lat="27.755898" lon="86.710176">
        <ele>2699.2</ele>
        <time>2022-10-30T03:57:28.000Z</time>
      </trkpt>
      <trkpt lat="27.755872" lon="86.710189">
        <ele>2699.4</ele>
        <time>2022-10-30T03:57:31.000Z</time>
      </trkpt>
      <trkpt lat="27.755853" lon="86.710195">
        <ele>2699</ele>
        <time>2022-10-30T03:57:33.000Z</time>
      </trkpt>
      <trkpt lat="27.755837" lon="86.710208">
        <ele>2699</ele>
        <time>2022-10-30T03:57:35.000Z</time>
      </trkpt>
      <trkpt lat="27.755821" lon="86.710221">
        <ele>2698</ele>
        <time>2022-10-30T03:57:37.000Z</time>
      </trkpt>
      <trkpt lat="27.755802" lon="86.710227">
        <ele>2697.8</ele>
        <time>2022-10-30T03:57:39.000Z</time>
      </trkpt>
      <trkpt lat="27.755776" lon="86.710234">
        <ele>2697.6</ele>
        <time>2022-10-30T03:57:41.000Z</time>
      </trkpt>
      <trkpt lat="27.755757" lon="86.710246">
        <ele>2697.4</ele>
        <time>2022-10-30T03:57:43.000Z</time>
      </trkpt>
      <trkpt lat="27.755738" lon="86.710259">
        <ele>2697</ele>
        <time>2022-10-30T03:57:45.000Z</time>
      </trkpt>
      <trkpt lat="27.755722" lon="86.710272">
        <ele>2696.6</ele>
        <time>2022-10-30T03:57:47.000Z</time>
      </trkpt>
      <trkpt lat="27.755699" lon="86.710278">
        <ele>2696.8</ele>
        <time>2022-10-30T03:57:49.000Z</time>
      </trkpt>
      <trkpt lat="27.755677" lon="86.710298">
        <ele>2696.6</ele>
        <time>2022-10-30T03:57:51.000Z</time>
      </trkpt>
      <trkpt lat="27.755654" lon="86.710304">
        <ele>2695.8</ele>
        <time>2022-10-30T03:57:53.000Z</time>
      </trkpt>
      <trkpt lat="27.755635" lon="86.710304">
        <ele>2695.6</ele>
        <time>2022-10-30T03:57:55.000Z</time>
      </trkpt>
      <trkpt lat="27.755616" lon="86.710317">
        <ele>2695.2</ele>
        <time>2022-10-30T03:57:57.000Z</time>
      </trkpt>
      <trkpt lat="27.755594" lon="86.710317">
        <ele>2695.2</ele>
        <time>2022-10-30T03:57:59.000Z</time>
      </trkpt>
      <trkpt lat="27.755581" lon="86.710336">
        <ele>2695.2</ele>
        <time>2022-10-30T03:58:01.000Z</time>
      </trkpt>
      <trkpt lat="27.755555" lon="86.710342">
        <ele>2694.8</ele>
        <time>2022-10-30T03:58:04.000Z</time>
      </trkpt>
      <trkpt lat="27.75553" lon="86.710342">
        <ele>2694.6</ele>
        <time>2022-10-30T03:58:06.000Z</time>
      </trkpt>
      <trkpt lat="27.755507" lon="86.710355">
        <ele>2694.6</ele>
        <time>2022-10-30T03:58:08.000Z</time>
      </trkpt>
      <trkpt lat="27.755485" lon="86.710368">
        <ele>2694</ele>
        <time>2022-10-30T03:58:10.000Z</time>
      </trkpt>
      <trkpt lat="27.755466" lon="86.710374">
        <ele>2693.6</ele>
        <time>2022-10-30T03:58:12.000Z</time>
      </trkpt>
      <trkpt lat="27.755443" lon="86.710387">
        <ele>2694</ele>
        <time>2022-10-30T03:58:15.000Z</time>
      </trkpt>
      <trkpt lat="27.755418" lon="86.710381">
        <ele>2693.8</ele>
        <time>2022-10-30T03:58:17.000Z</time>
      </trkpt>
      <trkpt lat="27.755395" lon="86.710381">
        <ele>2694</ele>
        <time>2022-10-30T03:58:19.000Z</time>
      </trkpt>
      <trkpt lat="27.755376" lon="86.710387">
        <ele>2694</ele>
        <time>2022-10-30T03:58:20.000Z</time>
      </trkpt>
      <trkpt lat="27.755357" lon="86.710394">
        <ele>2694</ele>
        <time>2022-10-30T03:58:22.000Z</time>
      </trkpt>
      <trkpt lat="27.755338" lon="86.710394">
        <ele>2695</ele>
        <time>2022-10-30T03:58:26.000Z</time>
      </trkpt>
      <trkpt lat="27.755315" lon="86.710387">
        <ele>2695.8</ele>
        <time>2022-10-30T03:58:32.000Z</time>
      </trkpt>
      <trkpt lat="27.755296" lon="86.710394">
        <ele>2696</ele>
        <time>2022-10-30T03:58:34.000Z</time>
      </trkpt>
      <trkpt lat="27.755277" lon="86.710406">
        <ele>2696.6</ele>
        <time>2022-10-30T03:58:38.000Z</time>
      </trkpt>
      <trkpt lat="27.755258" lon="86.710426">
        <ele>2697.6</ele>
        <time>2022-10-30T03:58:41.000Z</time>
      </trkpt>
      <trkpt lat="27.755248" lon="86.710464">
        <ele>2697.6</ele>
        <time>2022-10-30T03:58:43.000Z</time>
      </trkpt>
      <trkpt lat="27.755229" lon="86.710451">
        <ele>2697.6</ele>
        <time>2022-10-30T03:58:45.000Z</time>
      </trkpt>
      <trkpt lat="27.755216" lon="86.710432">
        <ele>2698.2</ele>
        <time>2022-10-30T03:58:47.000Z</time>
      </trkpt>
      <trkpt lat="27.755197" lon="86.710451">
        <ele>2698.2</ele>
        <time>2022-10-30T03:58:51.000Z</time>
      </trkpt>
      <trkpt lat="27.755171" lon="86.710464">
        <ele>2698.2</ele>
        <time>2022-10-30T03:58:55.000Z</time>
      </trkpt>
      <trkpt lat="27.755158" lon="86.710496">
        <ele>2698.2</ele>
        <time>2022-10-30T03:58:58.000Z</time>
      </trkpt>
      <trkpt lat="27.755149" lon="86.710515">
        <ele>2698.6</ele>
        <time>2022-10-30T03:59:00.000Z</time>
      </trkpt>
      <trkpt lat="27.755136" lon="86.710534">
        <ele>2699</ele>
        <time>2022-10-30T03:59:03.000Z</time>
      </trkpt>
      <trkpt lat="27.755117" lon="86.710528">
        <ele>2699.4</ele>
        <time>2022-10-30T03:59:06.000Z</time>
      </trkpt>
      <trkpt lat="27.755098" lon="86.710534">
        <ele>2699.6</ele>
        <time>2022-10-30T03:59:08.000Z</time>
      </trkpt>
      <trkpt lat="27.755082" lon="86.710547">
        <ele>2699.8</ele>
        <time>2022-10-30T03:59:11.000Z</time>
      </trkpt>
      <trkpt lat="27.755056" lon="86.710547">
        <ele>2701.2</ele>
        <time>2022-10-30T03:59:17.000Z</time>
      </trkpt>
      <trkpt lat="27.755037" lon="86.710554">
        <ele>2701.6</ele>
        <time>2022-10-30T03:59:20.000Z</time>
      </trkpt>
      <trkpt lat="27.75503" lon="86.710534">
        <ele>2702</ele>
        <time>2022-10-30T03:59:21.000Z</time>
      </trkpt>
      <trkpt lat="27.755008" lon="86.710534">
        <ele>2702.4</ele>
        <time>2022-10-30T03:59:24.000Z</time>
      </trkpt>
      <trkpt lat="27.754989" lon="86.710554">
        <ele>2702.4</ele>
        <time>2022-10-30T03:59:26.000Z</time>
      </trkpt>
      <trkpt lat="27.75496" lon="86.710566">
        <ele>2702.8</ele>
        <time>2022-10-30T03:59:28.000Z</time>
      </trkpt>
      <trkpt lat="27.754938" lon="86.710573">
        <ele>2702.6</ele>
        <time>2022-10-30T03:59:30.000Z</time>
      </trkpt>
      <trkpt lat="27.754918" lon="86.710573">
        <ele>2702.6</ele>
        <time>2022-10-30T03:59:33.000Z</time>
      </trkpt>
      <trkpt lat="27.75489" lon="86.710573">
        <ele>2702.6</ele>
        <time>2022-10-30T03:59:35.000Z</time>
      </trkpt>
      <trkpt lat="27.754867" lon="86.710586">
        <ele>2702.8</ele>
        <time>2022-10-30T03:59:37.000Z</time>
      </trkpt>
      <trkpt lat="27.754842" lon="86.710592">
        <ele>2702.8</ele>
        <time>2022-10-30T03:59:39.000Z</time>
      </trkpt>
      <trkpt lat="27.754816" lon="86.710586">
        <ele>2702.6</ele>
        <time>2022-10-30T03:59:42.000Z</time>
      </trkpt>
      <trkpt lat="27.75479" lon="86.710579">
        <ele>2703</ele>
        <time>2022-10-30T03:59:45.000Z</time>
      </trkpt>
      <trkpt lat="27.754765" lon="86.710573">
        <ele>2703</ele>
        <time>2022-10-30T03:59:48.000Z</time>
      </trkpt>
      <trkpt lat="27.754752" lon="86.710554">
        <ele>2702.6</ele>
        <time>2022-10-30T03:59:50.000Z</time>
      </trkpt>
      <trkpt lat="27.754739" lon="86.710515">
        <ele>2702.4</ele>
        <time>2022-10-30T03:59:53.000Z</time>
      </trkpt>
      <trkpt lat="27.754736" lon="86.710477">
        <ele>2702.4</ele>
        <time>2022-10-30T03:59:54.000Z</time>
      </trkpt>
      <trkpt lat="27.754723" lon="86.710438">
        <ele>2702.4</ele>
        <time>2022-10-30T03:59:56.000Z</time>
      </trkpt>
      <trkpt lat="27.754701" lon="86.710419">
        <ele>2702</ele>
        <time>2022-10-30T03:59:59.000Z</time>
      </trkpt>
      <trkpt lat="27.754685" lon="86.710406">
        <ele>2702.4</ele>
        <time>2022-10-30T04:00:02.000Z</time>
      </trkpt>
      <trkpt lat="27.754669" lon="86.710387">
        <ele>2702.6</ele>
        <time>2022-10-30T04:00:05.000Z</time>
      </trkpt>
      <trkpt lat="27.75465" lon="86.710387">
        <ele>2703.2</ele>
        <time>2022-10-30T04:00:09.000Z</time>
      </trkpt>
      <trkpt lat="27.754624" lon="86.710394">
        <ele>2703.4</ele>
        <time>2022-10-30T04:00:12.000Z</time>
      </trkpt>
      <trkpt lat="27.754602" lon="86.710406">
        <ele>2703.6</ele>
        <time>2022-10-30T04:00:15.000Z</time>
      </trkpt>
      <trkpt lat="27.754579" lon="86.710419">
        <ele>2703.6</ele>
        <time>2022-10-30T04:00:18.000Z</time>
      </trkpt>
      <trkpt lat="27.754563" lon="86.710432">
        <ele>2703.8</ele>
        <time>2022-10-30T04:00:20.000Z</time>
      </trkpt>
      <trkpt lat="27.754544" lon="86.710438">
        <ele>2704.4</ele>
        <time>2022-10-30T04:00:24.000Z</time>
      </trkpt>
      <trkpt lat="27.754525" lon="86.710458">
        <ele>2704.6</ele>
        <time>2022-10-30T04:00:28.000Z</time>
      </trkpt>
      <trkpt lat="27.754512" lon="86.710477">
        <ele>2705.2</ele>
        <time>2022-10-30T04:00:31.000Z</time>
      </trkpt>
      <trkpt lat="27.754499" lon="86.710496">
        <ele>2705.6</ele>
        <time>2022-10-30T04:00:33.000Z</time>
      </trkpt>
      <trkpt lat="27.75448" lon="86.710502">
        <ele>2705.8</ele>
        <time>2022-10-30T04:00:35.000Z</time>
      </trkpt>
      <trkpt lat="27.754454" lon="86.710515">
        <ele>2705.8</ele>
        <time>2022-10-30T04:00:38.000Z</time>
      </trkpt>
      <trkpt lat="27.754435" lon="86.710515">
        <ele>2706</ele>
        <time>2022-10-30T04:00:40.000Z</time>
      </trkpt>
      <trkpt lat="27.754413" lon="86.710515">
        <ele>2706</ele>
        <time>2022-10-30T04:00:42.000Z</time>
      </trkpt>
      <trkpt lat="27.75439" lon="86.710515">
        <ele>2706</ele>
        <time>2022-10-30T04:00:44.000Z</time>
      </trkpt>
      <trkpt lat="27.754365" lon="86.710515">
        <ele>2706.2</ele>
        <time>2022-10-30T04:00:46.000Z</time>
      </trkpt>
      <trkpt lat="27.754339" lon="86.710515">
        <ele>2706.4</ele>
        <time>2022-10-30T04:00:48.000Z</time>
      </trkpt>
      <trkpt lat="27.754317" lon="86.710515">
        <ele>2706.6</ele>
        <time>2022-10-30T04:00:50.000Z</time>
      </trkpt>
      <trkpt lat="27.754298" lon="86.710515">
        <ele>2706.6</ele>
        <time>2022-10-30T04:00:52.000Z</time>
      </trkpt>
      <trkpt lat="27.754278" lon="86.710515">
        <ele>2706.8</ele>
        <time>2022-10-30T04:00:54.000Z</time>
      </trkpt>
      <trkpt lat="27.754259" lon="86.710528">
        <ele>2707</ele>
        <time>2022-10-30T04:00:56.000Z</time>
      </trkpt>
      <trkpt lat="27.754237" lon="86.710528">
        <ele>2707.2</ele>
        <time>2022-10-30T04:01:01.000Z</time>
      </trkpt>
      <trkpt lat="27.754218" lon="86.710534">
        <ele>2707.4</ele>
        <time>2022-10-30T04:01:11.000Z</time>
      </trkpt>
      <trkpt lat="27.754195" lon="86.710541">
        <ele>2707</ele>
        <time>2022-10-30T04:01:13.000Z</time>
      </trkpt>
      <trkpt lat="27.754176" lon="86.710541">
        <ele>2707.2</ele>
        <time>2022-10-30T04:01:15.000Z</time>
      </trkpt>
      <trkpt lat="27.754154" lon="86.710547">
        <ele>2707.4</ele>
        <time>2022-10-30T04:01:17.000Z</time>
      </trkpt>
      <trkpt lat="27.754134" lon="86.710547">
        <ele>2707.6</ele>
        <time>2022-10-30T04:01:19.000Z</time>
      </trkpt>
      <trkpt lat="27.754115" lon="86.710554">
        <ele>2707.2</ele>
        <time>2022-10-30T04:01:21.000Z</time>
      </trkpt>
      <trkpt lat="27.754096" lon="86.710566">
        <ele>2707.2</ele>
        <time>2022-10-30T04:01:23.000Z</time>
      </trkpt>
      <trkpt lat="27.754074" lon="86.710566">
        <ele>2707.4</ele>
        <time>2022-10-30T04:01:25.000Z</time>
      </trkpt>
      <trkpt lat="27.754051" lon="86.710566">
        <ele>2707.4</ele>
        <time>2022-10-30T04:01:27.000Z</time>
      </trkpt>
      <trkpt lat="27.754022" lon="86.710573">
        <ele>2707.4</ele>
        <time>2022-10-30T04:01:30.000Z</time>
      </trkpt>
      <trkpt lat="27.753994" lon="86.710573">
        <ele>2707.4</ele>
        <time>2022-10-30T04:01:33.000Z</time>
      </trkpt>
      <trkpt lat="27.753974" lon="86.710579">
        <ele>2707.4</ele>
        <time>2022-10-30T04:01:35.000Z</time>
      </trkpt>
      <trkpt lat="27.753955" lon="86.710579">
        <ele>2707.8</ele>
        <time>2022-10-30T04:01:37.000Z</time>
      </trkpt>
      <trkpt lat="27.753936" lon="86.710579">
        <ele>2707.6</ele>
        <time>2022-10-30T04:01:39.000Z</time>
      </trkpt>
      <trkpt lat="27.753917" lon="86.710579">
        <ele>2707.8</ele>
        <time>2022-10-30T04:01:41.000Z</time>
      </trkpt>
      <trkpt lat="27.753898" lon="86.710579">
        <ele>2707.6</ele>
        <time>2022-10-30T04:01:43.000Z</time>
      </trkpt>
      <trkpt lat="27.753882" lon="86.710566">
        <ele>2707.8</ele>
        <time>2022-10-30T04:01:45.000Z</time>
      </trkpt>
      <trkpt lat="27.753866" lon="86.710554">
        <ele>2708</ele>
        <time>2022-10-30T04:01:47.000Z</time>
      </trkpt>
      <trkpt lat="27.75384" lon="86.710547">
        <ele>2708.2</ele>
        <time>2022-10-30T04:01:50.000Z</time>
      </trkpt>
      <trkpt lat="27.753818" lon="86.710547">
        <ele>2708.4</ele>
        <time>2022-10-30T04:01:53.000Z</time>
      </trkpt>
      <trkpt lat="27.753798" lon="86.710547">
        <ele>2708.8</ele>
        <time>2022-10-30T04:01:55.000Z</time>
      </trkpt>
      <trkpt lat="27.753773" lon="86.710534">
        <ele>2708.8</ele>
        <time>2022-10-30T04:01:58.000Z</time>
      </trkpt>
      <trkpt lat="27.753754" lon="86.710541">
        <ele>2709.2</ele>
        <time>2022-10-30T04:02:01.000Z</time>
      </trkpt>
      <trkpt lat="27.753722" lon="86.710547">
        <ele>2709.8</ele>
        <time>2022-10-30T04:02:04.000Z</time>
      </trkpt>
      <trkpt lat="27.753699" lon="86.710554">
        <ele>2710.4</ele>
        <time>2022-10-30T04:02:07.000Z</time>
      </trkpt>
      <trkpt lat="27.75368" lon="86.710547">
        <ele>2710.4</ele>
        <time>2022-10-30T04:02:09.000Z</time>
      </trkpt>
      <trkpt lat="27.753654" lon="86.710534">
        <ele>2710.4</ele>
        <time>2022-10-30T04:02:12.000Z</time>
      </trkpt>
      <trkpt lat="27.753645" lon="86.710515">
        <ele>2710.4</ele>
        <time>2022-10-30T04:02:13.000Z</time>
      </trkpt>
      <trkpt lat="27.753626" lon="86.710509">
        <ele>2710.6</ele>
        <time>2022-10-30T04:02:15.000Z</time>
      </trkpt>
      <trkpt lat="27.753606" lon="86.710509">
        <ele>2710.8</ele>
        <time>2022-10-30T04:02:18.000Z</time>
      </trkpt>
      <trkpt lat="27.753587" lon="86.710496">
        <ele>2711.2</ele>
        <time>2022-10-30T04:02:21.000Z</time>
      </trkpt>
      <trkpt lat="27.753568" lon="86.710496">
        <ele>2711.6</ele>
        <time>2022-10-30T04:02:25.000Z</time>
      </trkpt>
      <trkpt lat="27.753549" lon="86.71049">
        <ele>2712.6</ele>
        <time>2022-10-30T04:02:28.000Z</time>
      </trkpt>
      <trkpt lat="27.75353" lon="86.710496">
        <ele>2712.8</ele>
        <time>2022-10-30T04:02:31.000Z</time>
      </trkpt>
      <trkpt lat="27.75351" lon="86.710496">
        <ele>2713.4</ele>
        <time>2022-10-30T04:02:34.000Z</time>
      </trkpt>
      <trkpt lat="27.753488" lon="86.71049">
        <ele>2713.8</ele>
        <time>2022-10-30T04:02:37.000Z</time>
      </trkpt>
      <trkpt lat="27.753466" lon="86.71049">
        <ele>2714</ele>
        <time>2022-10-30T04:02:40.000Z</time>
      </trkpt>
      <trkpt lat="27.753443" lon="86.710496">
        <ele>2714.2</ele>
        <time>2022-10-30T04:02:44.000Z</time>
      </trkpt>
      <trkpt lat="27.753427" lon="86.710509">
        <ele>2714.6</ele>
        <time>2022-10-30T04:02:46.000Z</time>
      </trkpt>
      <trkpt lat="27.753402" lon="86.710509">
        <ele>2714.6</ele>
        <time>2022-10-30T04:02:49.000Z</time>
      </trkpt>
      <trkpt lat="27.753376" lon="86.710515">
        <ele>2714.8</ele>
        <time>2022-10-30T04:02:52.000Z</time>
      </trkpt>
      <trkpt lat="27.753357" lon="86.710528">
        <ele>2714.8</ele>
        <time>2022-10-30T04:02:54.000Z</time>
      </trkpt>
      <trkpt lat="27.753338" lon="86.710534">
        <ele>2715</ele>
        <time>2022-10-30T04:02:56.000Z</time>
      </trkpt>
      <trkpt lat="27.753315" lon="86.710534">
        <ele>2715</ele>
        <time>2022-10-30T04:02:58.000Z</time>
      </trkpt>
      <trkpt lat="27.753293" lon="86.710541">
        <ele>2714.6</ele>
        <time>2022-10-30T04:03:00.000Z</time>
      </trkpt>
      <trkpt lat="27.75327" lon="86.710541">
        <ele>2714.6</ele>
        <time>2022-10-30T04:03:02.000Z</time>
      </trkpt>
      <trkpt lat="27.753251" lon="86.710541">
        <ele>2714.8</ele>
        <time>2022-10-30T04:03:04.000Z</time>
      </trkpt>
      <trkpt lat="27.753229" lon="86.710534">
        <ele>2714.8</ele>
        <time>2022-10-30T04:03:06.000Z</time>
      </trkpt>
      <trkpt lat="27.75321" lon="86.710534">
        <ele>2714.8</ele>
        <time>2022-10-30T04:03:08.000Z</time>
      </trkpt>
      <trkpt lat="27.75319" lon="86.710534">
        <ele>2714.6</ele>
        <time>2022-10-30T04:03:10.000Z</time>
      </trkpt>
      <trkpt lat="27.753171" lon="86.710528">
        <ele>2714.6</ele>
        <time>2022-10-30T04:03:12.000Z</time>
      </trkpt>
      <trkpt lat="27.753146" lon="86.710528">
        <ele>2714.8</ele>
        <time>2022-10-30T04:03:15.000Z</time>
      </trkpt>
      <trkpt lat="27.75312" lon="86.710528">
        <ele>2715</ele>
        <time>2022-10-30T04:03:18.000Z</time>
      </trkpt>
      <trkpt lat="27.753094" lon="86.710528">
        <ele>2715.2</ele>
        <time>2022-10-30T04:03:21.000Z</time>
      </trkpt>
      <trkpt lat="27.753075" lon="86.710509">
        <ele>2715.6</ele>
        <time>2022-10-30T04:03:24.000Z</time>
      </trkpt>
      <trkpt lat="27.753056" lon="86.710502">
        <ele>2715.8</ele>
        <time>2022-10-30T04:03:27.000Z</time>
      </trkpt>
      <trkpt lat="27.75303" lon="86.710496">
        <ele>2716</ele>
        <time>2022-10-30T04:03:30.000Z</time>
      </trkpt>
      <trkpt lat="27.753011" lon="86.71049">
        <ele>2716.2</ele>
        <time>2022-10-30T04:03:33.000Z</time>
      </trkpt>
      <trkpt lat="27.752992" lon="86.710496">
        <ele>2716.4</ele>
        <time>2022-10-30T04:03:35.000Z</time>
      </trkpt>
      <trkpt lat="27.752976" lon="86.710477">
        <ele>2716.6</ele>
        <time>2022-10-30T04:03:37.000Z</time>
      </trkpt>
      <trkpt lat="27.752957" lon="86.710477">
        <ele>2716.8</ele>
        <time>2022-10-30T04:03:39.000Z</time>
      </trkpt>
      <trkpt lat="27.752934" lon="86.710477">
        <ele>2716.8</ele>
        <time>2022-10-30T04:03:41.000Z</time>
      </trkpt>
      <trkpt lat="27.752912" lon="86.710477">
        <ele>2716.8</ele>
        <time>2022-10-30T04:03:43.000Z</time>
      </trkpt>
      <trkpt lat="27.75289" lon="86.710477">
        <ele>2716.8</ele>
        <time>2022-10-30T04:03:45.000Z</time>
      </trkpt>
      <trkpt lat="27.752874" lon="86.71049">
        <ele>2716.8</ele>
        <time>2022-10-30T04:03:47.000Z</time>
      </trkpt>
      <trkpt lat="27.752848" lon="86.710477">
        <ele>2716.8</ele>
        <time>2022-10-30T04:03:49.000Z</time>
      </trkpt>
      <trkpt lat="27.752829" lon="86.71049">
        <ele>2717.2</ele>
        <time>2022-10-30T04:03:51.000Z</time>
      </trkpt>
      <trkpt lat="27.752806" lon="86.71049">
        <ele>2717.2</ele>
        <time>2022-10-30T04:03:53.000Z</time>
      </trkpt>
      <trkpt lat="27.752784" lon="86.71049">
        <ele>2717</ele>
        <time>2022-10-30T04:03:57.000Z</time>
      </trkpt>
      <trkpt lat="27.752765" lon="86.710502">
        <ele>2717.2</ele>
        <time>2022-10-30T04:04:00.000Z</time>
      </trkpt>
      <trkpt lat="27.752746" lon="86.710502">
        <ele>2717.4</ele>
        <time>2022-10-30T04:04:03.000Z</time>
      </trkpt>
      <trkpt lat="27.752723" lon="86.710509">
        <ele>2717.6</ele>
        <time>2022-10-30T04:04:05.000Z</time>
      </trkpt>
      <trkpt lat="27.752698" lon="86.710515">
        <ele>2717.8</ele>
        <time>2022-10-30T04:04:08.000Z</time>
      </trkpt>
      <trkpt lat="27.752675" lon="86.710515">
        <ele>2717.8</ele>
        <time>2022-10-30T04:04:10.000Z</time>
      </trkpt>
      <trkpt lat="27.752659" lon="86.710528">
        <ele>2717.8</ele>
        <time>2022-10-30T04:04:12.000Z</time>
      </trkpt>
      <trkpt lat="27.752643" lon="86.710541">
        <ele>2717.8</ele>
        <time>2022-10-30T04:04:15.000Z</time>
      </trkpt>
      <trkpt lat="27.752624" lon="86.710554">
        <ele>2717.8</ele>
        <time>2022-10-30T04:04:17.000Z</time>
      </trkpt>
      <trkpt lat="27.752605" lon="86.710566">
        <ele>2718</ele>
        <time>2022-10-30T04:04:20.000Z</time>
      </trkpt>
      <trkpt lat="27.752586" lon="86.710573">
        <ele>2718</ele>
        <time>2022-10-30T04:04:22.000Z</time>
      </trkpt>
      <trkpt lat="27.752563" lon="86.710579">
        <ele>2718.2</ele>
        <time>2022-10-30T04:04:24.000Z</time>
      </trkpt>
      <trkpt lat="27.752544" lon="86.710579">
        <ele>2718.2</ele>
        <time>2022-10-30T04:04:26.000Z</time>
      </trkpt>
      <trkpt lat="27.752515" lon="86.710586">
        <ele>2718.2</ele>
        <time>2022-10-30T04:04:29.000Z</time>
      </trkpt>
      <trkpt lat="27.752493" lon="86.710586">
        <ele>2718.4</ele>
        <time>2022-10-30T04:04:31.000Z</time>
      </trkpt>
      <trkpt lat="27.752474" lon="86.710586">
        <ele>2718.4</ele>
        <time>2022-10-30T04:04:33.000Z</time>
      </trkpt>
      <trkpt lat="27.752448" lon="86.710592">
        <ele>2718.6</ele>
        <time>2022-10-30T04:04:35.000Z</time>
      </trkpt>
      <trkpt lat="27.752426" lon="86.710605">
        <ele>2718.4</ele>
        <time>2022-10-30T04:04:37.000Z</time>
      </trkpt>
      <trkpt lat="27.75241" lon="86.710592">
        <ele>2719.2</ele>
        <time>2022-10-30T04:04:39.000Z</time>
      </trkpt>
      <trkpt lat="27.75239" lon="86.710579">
        <ele>2719</ele>
        <time>2022-10-30T04:04:42.000Z</time>
      </trkpt>
      <trkpt lat="27.752384" lon="86.710547">
        <ele>2719.2</ele>
        <time>2022-10-30T04:04:45.000Z</time>
      </trkpt>
      <trkpt lat="27.752374" lon="86.710515">
        <ele>2718.6</ele>
        <time>2022-10-30T04:04:47.000Z</time>
      </trkpt>
      <trkpt lat="27.752374" lon="86.71049">
        <ele>2718.6</ele>
        <time>2022-10-30T04:04:50.000Z</time>
      </trkpt>
      <trkpt lat="27.752365" lon="86.71047">
        <ele>2718.6</ele>
        <time>2022-10-30T04:04:52.000Z</time>
      </trkpt>
      <trkpt lat="27.752355" lon="86.710451">
        <ele>2718.8</ele>
        <time>2022-10-30T04:04:55.000Z</time>
      </trkpt>
      <trkpt lat="27.752349" lon="86.710432">
        <ele>2718.4</ele>
        <time>2022-10-30T04:04:57.000Z</time>
      </trkpt>
      <trkpt lat="27.752333" lon="86.710413">
        <ele>2717.8</ele>
        <time>2022-10-30T04:05:02.000Z</time>
      </trkpt>
      <trkpt lat="27.752326" lon="86.710394">
        <ele>2717.8</ele>
        <time>2022-10-30T04:05:04.000Z</time>
      </trkpt>
      <trkpt lat="27.75232" lon="86.710374">
        <ele>2717.4</ele>
        <time>2022-10-30T04:05:08.000Z</time>
      </trkpt>
      <trkpt lat="27.752317" lon="86.710349">
        <ele>2717.2</ele>
        <time>2022-10-30T04:05:10.000Z</time>
      </trkpt>
      <trkpt lat="27.752307" lon="86.71033">
        <ele>2717</ele>
        <time>2022-10-30T04:05:16.000Z</time>
      </trkpt>
      <trkpt lat="27.752301" lon="86.71031">
        <ele>2716</ele>
        <time>2022-10-30T04:05:18.000Z</time>
      </trkpt>
      <trkpt lat="27.752288" lon="86.710291">
        <ele>2715.4</ele>
        <time>2022-10-30T04:05:20.000Z</time>
      </trkpt>
      <trkpt lat="27.752278" lon="86.710266">
        <ele>2715.2</ele>
        <time>2022-10-30T04:05:22.000Z</time>
      </trkpt>
      <trkpt lat="27.752282" lon="86.710227">
        <ele>2714.6</ele>
        <time>2022-10-30T04:05:25.000Z</time>
      </trkpt>
      <trkpt lat="27.752278" lon="86.710195">
        <ele>2714.6</ele>
        <time>2022-10-30T04:05:28.000Z</time>
      </trkpt>
      <trkpt lat="27.752272" lon="86.71017">
        <ele>2714.6</ele>
        <time>2022-10-30T04:05:30.000Z</time>
      </trkpt>
      <trkpt lat="27.752269" lon="86.710144">
        <ele>2714.4</ele>
        <time>2022-10-30T04:05:32.000Z</time>
      </trkpt>
      <trkpt lat="27.752269" lon="86.710118">
        <ele>2714.4</ele>
        <time>2022-10-30T04:05:34.000Z</time>
      </trkpt>
      <trkpt lat="27.752272" lon="86.710093">
        <ele>2714</ele>
        <time>2022-10-30T04:05:38.000Z</time>
      </trkpt>
      <trkpt lat="27.752269" lon="86.710061">
        <ele>2713.6</ele>
        <time>2022-10-30T04:05:57.000Z</time>
      </trkpt>
      <trkpt lat="27.752278" lon="86.710035">
        <ele>2713.4</ele>
        <time>2022-10-30T04:06:00.000Z</time>
      </trkpt>
      <trkpt lat="27.752272" lon="86.71001">
        <ele>2714</ele>
        <time>2022-10-30T04:06:04.000Z</time>
      </trkpt>
      <trkpt lat="27.752291" lon="86.709997">
        <ele>2713.2</ele>
        <time>2022-10-30T04:07:05.000Z</time>
      </trkpt>
      <trkpt lat="27.752288" lon="86.709971">
        <ele>2713.2</ele>
        <time>2022-10-30T04:07:07.000Z</time>
      </trkpt>
      <trkpt lat="27.752282" lon="86.709952">
        <ele>2713.4</ele>
        <time>2022-10-30T04:07:09.000Z</time>
      </trkpt>
      <trkpt lat="27.752266" lon="86.709971">
        <ele>2712</ele>
        <time>2022-10-30T04:07:18.000Z</time>
      </trkpt>
      <trkpt lat="27.752246" lon="86.709958">
        <ele>2711.4</ele>
        <time>2022-10-30T04:07:20.000Z</time>
      </trkpt>
      <trkpt lat="27.752227" lon="86.709952">
        <ele>2711.2</ele>
        <time>2022-10-30T04:07:22.000Z</time>
      </trkpt>
      <trkpt lat="27.752211" lon="86.709939">
        <ele>2711.2</ele>
        <time>2022-10-30T04:07:24.000Z</time>
      </trkpt>
      <trkpt lat="27.752182" lon="86.709933">
        <ele>2711.2</ele>
        <time>2022-10-30T04:07:27.000Z</time>
      </trkpt>
      <trkpt lat="27.75217" lon="86.709914">
        <ele>2710.6</ele>
        <time>2022-10-30T04:07:31.000Z</time>
      </trkpt>
      <trkpt lat="27.752147" lon="86.709907">
        <ele>2709.2</ele>
        <time>2022-10-30T04:07:38.000Z</time>
      </trkpt>
      <trkpt lat="27.752141" lon="86.709882">
        <ele>2708.8</ele>
        <time>2022-10-30T04:07:41.000Z</time>
      </trkpt>
      <trkpt lat="27.752131" lon="86.709862">
        <ele>2707.4</ele>
        <time>2022-10-30T04:07:45.000Z</time>
      </trkpt>
      <trkpt lat="27.752128" lon="86.709837">
        <ele>2706.4</ele>
        <time>2022-10-30T04:07:49.000Z</time>
      </trkpt>
      <trkpt lat="27.752112" lon="86.70985">
        <ele>2705.4</ele>
        <time>2022-10-30T04:07:53.000Z</time>
      </trkpt>
      <trkpt lat="27.752106" lon="86.709869">
        <ele>2705.4</ele>
        <time>2022-10-30T04:07:56.000Z</time>
      </trkpt>
      <trkpt lat="27.752099" lon="86.709894">
        <ele>2704.2</ele>
        <time>2022-10-30T04:08:00.000Z</time>
      </trkpt>
      <trkpt lat="27.752099" lon="86.70992">
        <ele>2703.4</ele>
        <time>2022-10-30T04:08:04.000Z</time>
      </trkpt>
      <trkpt lat="27.752102" lon="86.709946">
        <ele>2703.2</ele>
        <time>2022-10-30T04:08:06.000Z</time>
      </trkpt>
      <trkpt lat="27.752093" lon="86.709971">
        <ele>2702.6</ele>
        <time>2022-10-30T04:08:33.000Z</time>
      </trkpt>
      <trkpt lat="27.75209" lon="86.709997">
        <ele>2702.2</ele>
        <time>2022-10-30T04:08:36.000Z</time>
      </trkpt>
      <trkpt lat="27.75208" lon="86.710016">
        <ele>2702.4</ele>
        <time>2022-10-30T04:08:38.000Z</time>
      </trkpt>
      <trkpt lat="27.752061" lon="86.710048">
        <ele>2702</ele>
        <time>2022-10-30T04:08:41.000Z</time>
      </trkpt>
      <trkpt lat="27.752054" lon="86.710067">
        <ele>2701.8</ele>
        <time>2022-10-30T04:08:43.000Z</time>
      </trkpt>
      <trkpt lat="27.752058" lon="86.710099">
        <ele>2701.8</ele>
        <time>2022-10-30T04:08:45.000Z</time>
      </trkpt>
      <trkpt lat="27.752067" lon="86.710131">
        <ele>2701.2</ele>
        <time>2022-10-30T04:08:48.000Z</time>
      </trkpt>
      <trkpt lat="27.752061" lon="86.71015">
        <ele>2701</ele>
        <time>2022-10-30T04:08:50.000Z</time>
      </trkpt>
      <trkpt lat="27.752058" lon="86.710176">
        <ele>2700.6</ele>
        <time>2022-10-30T04:08:52.000Z</time>
      </trkpt>
      <trkpt lat="27.752048" lon="86.710208">
        <ele>2700.4</ele>
        <time>2022-10-30T04:08:55.000Z</time>
      </trkpt>
      <trkpt lat="27.752042" lon="86.710227">
        <ele>2700</ele>
        <time>2022-10-30T04:08:57.000Z</time>
      </trkpt>
      <trkpt lat="27.752038" lon="86.710253">
        <ele>2700</ele>
        <time>2022-10-30T04:08:59.000Z</time>
      </trkpt>
      <trkpt lat="27.752029" lon="86.710272">
        <ele>2699.8</ele>
        <time>2022-10-30T04:09:01.000Z</time>
      </trkpt>
      <trkpt lat="27.752022" lon="86.710298">
        <ele>2699.2</ele>
        <time>2022-10-30T04:09:03.000Z</time>
      </trkpt>
      <trkpt lat="27.752003" lon="86.710317">
        <ele>2699</ele>
        <time>2022-10-30T04:09:05.000Z</time>
      </trkpt>
      <trkpt lat="27.751984" lon="86.710336">
        <ele>2698.4</ele>
        <time>2022-10-30T04:09:07.000Z</time>
      </trkpt>
      <trkpt lat="27.751962" lon="86.710342">
        <ele>2698.2</ele>
        <time>2022-10-30T04:09:11.000Z</time>
      </trkpt>
      <trkpt lat="27.751942" lon="86.710355">
        <ele>2696.4</ele>
        <time>2022-10-30T04:09:16.000Z</time>
      </trkpt>
      <trkpt lat="27.751946" lon="86.710381">
        <ele>2695.8</ele>
        <time>2022-10-30T04:09:19.000Z</time>
      </trkpt>
      <trkpt lat="27.751942" lon="86.710406">
        <ele>2695.2</ele>
        <time>2022-10-30T04:09:22.000Z</time>
      </trkpt>
      <trkpt lat="27.751933" lon="86.710426">
        <ele>2692.8</ele>
        <time>2022-10-30T04:09:28.000Z</time>
      </trkpt>
      <trkpt lat="27.75192" lon="86.710458">
        <ele>2692.2</ele>
        <time>2022-10-30T04:09:31.000Z</time>
      </trkpt>
      <trkpt lat="27.751914" lon="86.71049">
        <ele>2691.2</ele>
        <time>2022-10-30T04:09:34.000Z</time>
      </trkpt>
      <trkpt lat="27.751894" lon="86.710509">
        <ele>2690.4</ele>
        <time>2022-10-30T04:09:37.000Z</time>
      </trkpt>
      <trkpt lat="27.751869" lon="86.710496">
        <ele>2689.8</ele>
        <time>2022-10-30T04:09:41.000Z</time>
      </trkpt>
      <trkpt lat="27.75185" lon="86.71049">
        <ele>2689.4</ele>
        <time>2022-10-30T04:09:44.000Z</time>
      </trkpt>
      <trkpt lat="27.751834" lon="86.710477">
        <ele>2688.6</ele>
        <time>2022-10-30T04:09:47.000Z</time>
      </trkpt>
      <trkpt lat="27.751814" lon="86.710464">
        <ele>2688.2</ele>
        <time>2022-10-30T04:09:50.000Z</time>
      </trkpt>
      <trkpt lat="27.751795" lon="86.710458">
        <ele>2687</ele>
        <time>2022-10-30T04:09:54.000Z</time>
      </trkpt>
      <trkpt lat="27.751779" lon="86.710477">
        <ele>2686.4</ele>
        <time>2022-10-30T04:09:58.000Z</time>
      </trkpt>
      <trkpt lat="27.75177" lon="86.710496">
        <ele>2685.8</ele>
        <time>2022-10-30T04:09:59.000Z</time>
      </trkpt>
      <trkpt lat="27.75175" lon="86.710509">
        <ele>2685.6</ele>
        <time>2022-10-30T04:10:01.000Z</time>
      </trkpt>
      <trkpt lat="27.751725" lon="86.710528">
        <ele>2685.6</ele>
        <time>2022-10-30T04:10:04.000Z</time>
      </trkpt>
      <trkpt lat="27.751706" lon="86.710541">
        <ele>2685.4</ele>
        <time>2022-10-30T04:10:07.000Z</time>
      </trkpt>
      <trkpt lat="27.75169" lon="86.710554">
        <ele>2686.6</ele>
        <time>2022-10-30T04:10:11.000Z</time>
      </trkpt>
      <trkpt lat="27.751664" lon="86.710541">
        <ele>2687</ele>
        <time>2022-10-30T04:10:17.000Z</time>
      </trkpt>
      <trkpt lat="27.751642" lon="86.710534">
        <ele>2687</ele>
        <time>2022-10-30T04:10:21.000Z</time>
      </trkpt>
      <trkpt lat="27.751619" lon="86.710534">
        <ele>2687</ele>
        <time>2022-10-30T04:10:25.000Z</time>
      </trkpt>
      <trkpt lat="27.751597" lon="86.710528">
        <ele>2687</ele>
        <time>2022-10-30T04:10:36.000Z</time>
      </trkpt>
      <trkpt lat="27.751574" lon="86.710528">
        <ele>2687.2</ele>
        <time>2022-10-30T04:10:39.000Z</time>
      </trkpt>
      <trkpt lat="27.751555" lon="86.710515">
        <ele>2686.8</ele>
        <time>2022-10-30T04:10:42.000Z</time>
      </trkpt>
      <trkpt lat="27.751526" lon="86.710509">
        <ele>2686</ele>
        <time>2022-10-30T04:11:31.000Z</time>
      </trkpt>
      <trkpt lat="27.751498" lon="86.710515">
        <ele>2686.2</ele>
        <time>2022-10-30T04:11:33.000Z</time>
      </trkpt>
      <trkpt lat="27.751482" lon="86.710528">
        <ele>2686.2</ele>
        <time>2022-10-30T04:11:35.000Z</time>
      </trkpt>
      <trkpt lat="27.751462" lon="86.710534">
        <ele>2686.4</ele>
        <time>2022-10-30T04:11:37.000Z</time>
      </trkpt>
      <trkpt lat="27.751437" lon="86.710547">
        <ele>2686.8</ele>
        <time>2022-10-30T04:11:39.000Z</time>
      </trkpt>
      <trkpt lat="27.751421" lon="86.710566">
        <ele>2686.8</ele>
        <time>2022-10-30T04:11:41.000Z</time>
      </trkpt>
      <trkpt lat="27.751411" lon="86.710586">
        <ele>2686.8</ele>
        <time>2022-10-30T04:11:44.000Z</time>
      </trkpt>
      <trkpt lat="27.751405" lon="86.710605">
        <ele>2687.2</ele>
        <time>2022-10-30T04:11:46.000Z</time>
      </trkpt>
      <trkpt lat="27.751386" lon="86.710611">
        <ele>2687.4</ele>
        <time>2022-10-30T04:11:50.000Z</time>
      </trkpt>
      <trkpt lat="27.751376" lon="86.71063">
        <ele>2687.8</ele>
        <time>2022-10-30T04:11:54.000Z</time>
      </trkpt>
      <trkpt lat="27.751366" lon="86.71065">
        <ele>2688.4</ele>
        <time>2022-10-30T04:11:57.000Z</time>
      </trkpt>
      <trkpt lat="27.751347" lon="86.710669">
        <ele>2688.8</ele>
        <time>2022-10-30T04:12:01.000Z</time>
      </trkpt>
      <trkpt lat="27.751334" lon="86.710688">
        <ele>2688.8</ele>
        <time>2022-10-30T04:12:03.000Z</time>
      </trkpt>
      <trkpt lat="27.751312" lon="86.710694">
        <ele>2689.4</ele>
        <time>2022-10-30T04:12:06.000Z</time>
      </trkpt>
      <trkpt lat="27.751296" lon="86.710707">
        <ele>2689.8</ele>
        <time>2022-10-30T04:12:09.000Z</time>
      </trkpt>
      <trkpt lat="27.751283" lon="86.710726">
        <ele>2689.8</ele>
        <time>2022-10-30T04:12:11.000Z</time>
      </trkpt>
      <trkpt lat="27.751267" lon="86.710739">
        <ele>2690.2</ele>
        <time>2022-10-30T04:12:14.000Z</time>
      </trkpt>
      <trkpt lat="27.751248" lon="86.710746">
        <ele>2690.4</ele>
        <time>2022-10-30T04:12:17.000Z</time>
      </trkpt>
      <trkpt lat="27.751229" lon="86.710771">
        <ele>2690.6</ele>
        <time>2022-10-30T04:12:20.000Z</time>
      </trkpt>
      <trkpt lat="27.75121" lon="86.710778">
        <ele>2690.8</ele>
        <time>2022-10-30T04:12:23.000Z</time>
      </trkpt>
      <trkpt lat="27.751194" lon="86.71079">
        <ele>2691.4</ele>
        <time>2022-10-30T04:12:26.000Z</time>
      </trkpt>
      <trkpt lat="27.751184" lon="86.71081">
        <ele>2691.4</ele>
        <time>2022-10-30T04:12:28.000Z</time>
      </trkpt>
      <trkpt lat="27.751171" lon="86.710835">
        <ele>2691.8</ele>
        <time>2022-10-30T04:12:32.000Z</time>
      </trkpt>
      <trkpt lat="27.751158" lon="86.710854">
        <ele>2692</ele>
        <time>2022-10-30T04:12:36.000Z</time>
      </trkpt>
      <trkpt lat="27.751139" lon="86.710874">
        <ele>2692.4</ele>
        <time>2022-10-30T04:12:40.000Z</time>
      </trkpt>
      <trkpt lat="27.75113" lon="86.710893">
        <ele>2692.8</ele>
        <time>2022-10-30T04:12:43.000Z</time>
      </trkpt>
      <trkpt lat="27.751117" lon="86.710912">
        <ele>2693</ele>
        <time>2022-10-30T04:12:47.000Z</time>
      </trkpt>
      <trkpt lat="27.751098" lon="86.710931">
        <ele>2693.4</ele>
        <time>2022-10-30T04:12:50.000Z</time>
      </trkpt>
      <trkpt lat="27.751085" lon="86.71095">
        <ele>2693.8</ele>
        <time>2022-10-30T04:12:55.000Z</time>
      </trkpt>
      <trkpt lat="27.751069" lon="86.710963">
        <ele>2694.2</ele>
        <time>2022-10-30T04:12:57.000Z</time>
      </trkpt>
      <trkpt lat="27.75105" lon="86.71097">
        <ele>2695.2</ele>
        <time>2022-10-30T04:13:01.000Z</time>
      </trkpt>
      <trkpt lat="27.751037" lon="86.710989">
        <ele>2695.2</ele>
        <time>2022-10-30T04:13:06.000Z</time>
      </trkpt>
      <trkpt lat="27.75103" lon="86.711008">
        <ele>2695.2</ele>
        <time>2022-10-30T04:13:08.000Z</time>
      </trkpt>
      <trkpt lat="27.751024" lon="86.711027">
        <ele>2696.2</ele>
        <time>2022-10-30T04:13:12.000Z</time>
      </trkpt>
      <trkpt lat="27.751011" lon="86.711046">
        <ele>2697</ele>
        <time>2022-10-30T04:13:16.000Z</time>
      </trkpt>
      <trkpt lat="27.750995" lon="86.711059">
        <ele>2697</ele>
        <time>2022-10-30T04:13:20.000Z</time>
      </trkpt>
      <trkpt lat="27.750986" lon="86.711085">
        <ele>2697.6</ele>
        <time>2022-10-30T04:13:23.000Z</time>
      </trkpt>
      <trkpt lat="27.750992" lon="86.711104">
        <ele>2697.6</ele>
        <time>2022-10-30T04:13:29.000Z</time>
      </trkpt>
      <trkpt lat="27.750986" lon="86.71113">
        <ele>2698.4</ele>
        <time>2022-10-30T04:13:34.000Z</time>
      </trkpt>
      <trkpt lat="27.750979" lon="86.711162">
        <ele>2699.2</ele>
        <time>2022-10-30T04:13:37.000Z</time>
      </trkpt>
      <trkpt lat="27.75097" lon="86.711181">
        <ele>2699.6</ele>
        <time>2022-10-30T04:13:40.000Z</time>
      </trkpt>
      <trkpt lat="27.75096" lon="86.7112">
        <ele>2699.8</ele>
        <time>2022-10-30T04:13:42.000Z</time>
      </trkpt>
      <trkpt lat="27.750941" lon="86.711219">
        <ele>2700</ele>
        <time>2022-10-30T04:13:45.000Z</time>
      </trkpt>
      <trkpt lat="27.750918" lon="86.711232">
        <ele>2700.4</ele>
        <time>2022-10-30T04:13:47.000Z</time>
      </trkpt>
      <trkpt lat="27.750896" lon="86.711245">
        <ele>2700.4</ele>
        <time>2022-10-30T04:13:49.000Z</time>
      </trkpt>
      <trkpt lat="27.750877" lon="86.711258">
        <ele>2700</ele>
        <time>2022-10-30T04:13:51.000Z</time>
      </trkpt>
      <trkpt lat="27.750851" lon="86.711258">
        <ele>2700.6</ele>
        <time>2022-10-30T04:13:53.000Z</time>
      </trkpt>
      <trkpt lat="27.750832" lon="86.71127">
        <ele>2700.6</ele>
        <time>2022-10-30T04:13:59.000Z</time>
      </trkpt>
      <trkpt lat="27.750816" lon="86.711283">
        <ele>2699.6</ele>
        <time>2022-10-30T04:14:02.000Z</time>
      </trkpt>
      <trkpt lat="27.7508" lon="86.71127">
        <ele>2699.2</ele>
        <time>2022-10-30T04:14:05.000Z</time>
      </trkpt>
      <trkpt lat="27.750784" lon="86.711283">
        <ele>2699</ele>
        <time>2022-10-30T04:14:11.000Z</time>
      </trkpt>
      <trkpt lat="27.750765" lon="86.71129">
        <ele>2699</ele>
        <time>2022-10-30T04:14:16.000Z</time>
      </trkpt>
      <trkpt lat="27.750746" lon="86.71129">
        <ele>2699</ele>
        <time>2022-10-30T04:14:38.000Z</time>
      </trkpt>
      <trkpt lat="27.75072" lon="86.71129">
        <ele>2699</ele>
        <time>2022-10-30T04:14:40.000Z</time>
      </trkpt>
      <trkpt lat="27.750701" lon="86.71129">
        <ele>2698.8</ele>
        <time>2022-10-30T04:14:42.000Z</time>
      </trkpt>
      <trkpt lat="27.750678" lon="86.711296">
        <ele>2698.6</ele>
        <time>2022-10-30T04:14:44.000Z</time>
      </trkpt>
      <trkpt lat="27.750653" lon="86.711296">
        <ele>2698.4</ele>
        <time>2022-10-30T04:14:46.000Z</time>
      </trkpt>
      <trkpt lat="27.750634" lon="86.71129">
        <ele>2698.4</ele>
        <time>2022-10-30T04:14:48.000Z</time>
      </trkpt>
      <trkpt lat="27.750611" lon="86.711302">
        <ele>2698.6</ele>
        <time>2022-10-30T04:14:51.000Z</time>
      </trkpt>
      <trkpt lat="27.750602" lon="86.711322">
        <ele>2698.2</ele>
        <time>2022-10-30T04:14:53.000Z</time>
      </trkpt>
      <trkpt lat="27.750579" lon="86.711322">
        <ele>2698.4</ele>
        <time>2022-10-30T04:15:05.000Z</time>
      </trkpt>
      <trkpt lat="27.75056" lon="86.711334">
        <ele>2698.2</ele>
        <time>2022-10-30T04:15:08.000Z</time>
      </trkpt>
      <trkpt lat="27.750538" lon="86.711347">
        <ele>2698.4</ele>
        <time>2022-10-30T04:15:10.000Z</time>
      </trkpt>
      <trkpt lat="27.750518" lon="86.711373">
        <ele>2698.4</ele>
        <time>2022-10-30T04:15:12.000Z</time>
      </trkpt>
      <trkpt lat="27.750499" lon="86.711379">
        <ele>2698.4</ele>
        <time>2022-10-30T04:15:14.000Z</time>
      </trkpt>
      <trkpt lat="27.75047" lon="86.711379">
        <ele>2698.4</ele>
        <time>2022-10-30T04:15:17.000Z</time>
      </trkpt>
      <trkpt lat="27.750451" lon="86.711386">
        <ele>2698.2</ele>
        <time>2022-10-30T04:15:19.000Z</time>
      </trkpt>
      <trkpt lat="27.750432" lon="86.711398">
        <ele>2698.2</ele>
        <time>2022-10-30T04:15:21.000Z</time>
      </trkpt>
      <trkpt lat="27.75041" lon="86.711411">
        <ele>2697.8</ele>
        <time>2022-10-30T04:15:24.000Z</time>
      </trkpt>
      <trkpt lat="27.750365" lon="86.711424">
        <ele>2697.2</ele>
        <time>2022-10-30T04:15:29.000Z</time>
      </trkpt>
      <trkpt lat="27.750346" lon="86.71145">
        <ele>2697.2</ele>
        <time>2022-10-30T04:15:31.000Z</time>
      </trkpt>
      <trkpt lat="27.750323" lon="86.711456">
        <ele>2696.6</ele>
        <time>2022-10-30T04:15:34.000Z</time>
      </trkpt>
      <trkpt lat="27.750307" lon="86.711469">
        <ele>2696.2</ele>
        <time>2022-10-30T04:15:36.000Z</time>
      </trkpt>
      <trkpt lat="27.750294" lon="86.711494">
        <ele>2695.8</ele>
        <time>2022-10-30T04:15:40.000Z</time>
      </trkpt>
      <trkpt lat="27.750278" lon="86.711507">
        <ele>2695.8</ele>
        <time>2022-10-30T04:15:42.000Z</time>
      </trkpt>
      <trkpt lat="27.750256" lon="86.71152">
        <ele>2695.4</ele>
        <time>2022-10-30T04:15:44.000Z</time>
      </trkpt>
      <trkpt lat="27.75023" lon="86.71152">
        <ele>2695.2</ele>
        <time>2022-10-30T04:15:47.000Z</time>
      </trkpt>
      <trkpt lat="27.750205" lon="86.711533">
        <ele>2695</ele>
        <time>2022-10-30T04:15:50.000Z</time>
      </trkpt>
      <trkpt lat="27.750182" lon="86.711558">
        <ele>2694.8</ele>
        <time>2022-10-30T04:15:53.000Z</time>
      </trkpt>
      <trkpt lat="27.750163" lon="86.711571">
        <ele>2694.4</ele>
        <time>2022-10-30T04:15:55.000Z</time>
      </trkpt>
      <trkpt lat="27.750144" lon="86.711584">
        <ele>2694.4</ele>
        <time>2022-10-30T04:15:57.000Z</time>
      </trkpt>
      <trkpt lat="27.750134" lon="86.71161">
        <ele>2694</ele>
        <time>2022-10-30T04:16:00.000Z</time>
      </trkpt>
      <trkpt lat="27.750115" lon="86.711629">
        <ele>2694</ele>
        <time>2022-10-30T04:16:03.000Z</time>
      </trkpt>
      <trkpt lat="27.750099" lon="86.711648">
        <ele>2694.2</ele>
        <time>2022-10-30T04:16:05.000Z</time>
      </trkpt>
      <trkpt lat="27.75008" lon="86.711654">
        <ele>2693.6</ele>
        <time>2022-10-30T04:16:07.000Z</time>
      </trkpt>
      <trkpt lat="27.750058" lon="86.711667">
        <ele>2693.4</ele>
        <time>2022-10-30T04:16:09.000Z</time>
      </trkpt>
      <trkpt lat="27.750038" lon="86.711686">
        <ele>2693</ele>
        <time>2022-10-30T04:16:11.000Z</time>
      </trkpt>
      <trkpt lat="27.750016" lon="86.711693">
        <ele>2692.8</ele>
        <time>2022-10-30T04:16:14.000Z</time>
      </trkpt>
      <trkpt lat="27.749997" lon="86.711706">
        <ele>2692.4</ele>
        <time>2022-10-30T04:16:17.000Z</time>
      </trkpt>
      <trkpt lat="27.749974" lon="86.711718">
        <ele>2692</ele>
        <time>2022-10-30T04:16:21.000Z</time>
      </trkpt>
      <trkpt lat="27.749955" lon="86.711738">
        <ele>2691.6</ele>
        <time>2022-10-30T04:16:24.000Z</time>
      </trkpt>
      <trkpt lat="27.749942" lon="86.711763">
        <ele>2691.6</ele>
        <time>2022-10-30T04:16:26.000Z</time>
      </trkpt>
      <trkpt lat="27.749926" lon="86.711789">
        <ele>2691.6</ele>
        <time>2022-10-30T04:16:29.000Z</time>
      </trkpt>
      <trkpt lat="27.749914" lon="86.711814">
        <ele>2691.2</ele>
        <time>2022-10-30T04:16:32.000Z</time>
      </trkpt>
      <trkpt lat="27.749888" lon="86.71184">
        <ele>2690.8</ele>
        <time>2022-10-30T04:16:35.000Z</time>
      </trkpt>
      <trkpt lat="27.749869" lon="86.711846">
        <ele>2690.4</ele>
        <time>2022-10-30T04:16:37.000Z</time>
      </trkpt>
      <trkpt lat="27.749837" lon="86.711859">
        <ele>2690.2</ele>
        <time>2022-10-30T04:16:39.000Z</time>
      </trkpt>
      <trkpt lat="27.749814" lon="86.711878">
        <ele>2690</ele>
        <time>2022-10-30T04:16:42.000Z</time>
      </trkpt>
      <trkpt lat="27.749789" lon="86.711885">
        <ele>2689.8</ele>
        <time>2022-10-30T04:16:44.000Z</time>
      </trkpt>
      <trkpt lat="27.74977" lon="86.711904">
        <ele>2689.4</ele>
        <time>2022-10-30T04:16:47.000Z</time>
      </trkpt>
      <trkpt lat="27.749754" lon="86.711917">
        <ele>2689</ele>
        <time>2022-10-30T04:16:49.000Z</time>
      </trkpt>
      <trkpt lat="27.749738" lon="86.71193">
        <ele>2688.6</ele>
        <time>2022-10-30T04:16:51.000Z</time>
      </trkpt>
      <trkpt lat="27.749722" lon="86.711942">
        <ele>2688</ele>
        <time>2022-10-30T04:16:53.000Z</time>
      </trkpt>
      <trkpt lat="27.749709" lon="86.711968">
        <ele>2688.4</ele>
        <time>2022-10-30T04:16:55.000Z</time>
      </trkpt>
      <trkpt lat="27.749693" lon="86.711987">
        <ele>2688</ele>
        <time>2022-10-30T04:16:57.000Z</time>
      </trkpt>
      <trkpt lat="27.74967" lon="86.712">
        <ele>2687.8</ele>
        <time>2022-10-30T04:16:59.000Z</time>
      </trkpt>
      <trkpt lat="27.749651" lon="86.712019">
        <ele>2687.6</ele>
        <time>2022-10-30T04:17:01.000Z</time>
      </trkpt>
      <trkpt lat="27.749635" lon="86.712038">
        <ele>2687.6</ele>
        <time>2022-10-30T04:17:03.000Z</time>
      </trkpt>
      <trkpt lat="27.749613" lon="86.712051">
        <ele>2687.2</ele>
        <time>2022-10-30T04:17:05.000Z</time>
      </trkpt>
      <trkpt lat="27.749594" lon="86.712064">
        <ele>2686.8</ele>
        <time>2022-10-30T04:17:07.000Z</time>
      </trkpt>
      <trkpt lat="27.749578" lon="86.712083">
        <ele>2686.4</ele>
        <time>2022-10-30T04:17:09.000Z</time>
      </trkpt>
      <trkpt lat="27.749558" lon="86.712096">
        <ele>2686.4</ele>
        <time>2022-10-30T04:17:11.000Z</time>
      </trkpt>
      <trkpt lat="27.749549" lon="86.712115">
        <ele>2686.4</ele>
        <time>2022-10-30T04:17:13.000Z</time>
      </trkpt>
      <trkpt lat="27.74953" lon="86.712122">
        <ele>2686.2</ele>
        <time>2022-10-30T04:17:15.000Z</time>
      </trkpt>
      <trkpt lat="27.749507" lon="86.712122">
        <ele>2686</ele>
        <time>2022-10-30T04:17:17.000Z</time>
      </trkpt>
      <trkpt lat="27.749482" lon="86.712128">
        <ele>2686</ele>
        <time>2022-10-30T04:17:19.000Z</time>
      </trkpt>
      <trkpt lat="27.749456" lon="86.712134">
        <ele>2685.8</ele>
        <time>2022-10-30T04:17:21.000Z</time>
      </trkpt>
      <trkpt lat="27.749421" lon="86.712134">
        <ele>2685.6</ele>
        <time>2022-10-30T04:17:23.000Z</time>
      </trkpt>
      <trkpt lat="27.749402" lon="86.712128">
        <ele>2685</ele>
        <time>2022-10-30T04:17:24.000Z</time>
      </trkpt>
      <trkpt lat="27.749373" lon="86.712128">
        <ele>2684.4</ele>
        <time>2022-10-30T04:17:27.000Z</time>
      </trkpt>
      <trkpt lat="27.749344" lon="86.712141">
        <ele>2684</ele>
        <time>2022-10-30T04:17:29.000Z</time>
      </trkpt>
      <trkpt lat="27.749318" lon="86.712154">
        <ele>2683.8</ele>
        <time>2022-10-30T04:17:31.000Z</time>
      </trkpt>
      <trkpt lat="27.749296" lon="86.71216">
        <ele>2683.6</ele>
        <time>2022-10-30T04:17:33.000Z</time>
      </trkpt>
      <trkpt lat="27.74927" lon="86.712166">
        <ele>2683.6</ele>
        <time>2022-10-30T04:17:36.000Z</time>
      </trkpt>
      <trkpt lat="27.749254" lon="86.712186">
        <ele>2683.8</ele>
        <time>2022-10-30T04:17:38.000Z</time>
      </trkpt>
      <trkpt lat="27.749238" lon="86.712198">
        <ele>2683.6</ele>
        <time>2022-10-30T04:17:40.000Z</time>
      </trkpt>
      <trkpt lat="27.749213" lon="86.712211">
        <ele>2683</ele>
        <time>2022-10-30T04:17:43.000Z</time>
      </trkpt>
      <trkpt lat="27.749194" lon="86.712211">
        <ele>2682.2</ele>
        <time>2022-10-30T04:17:45.000Z</time>
      </trkpt>
      <trkpt lat="27.749171" lon="86.712224">
        <ele>2682</ele>
        <time>2022-10-30T04:17:47.000Z</time>
      </trkpt>
      <trkpt lat="27.749152" lon="86.712237">
        <ele>2681.6</ele>
        <time>2022-10-30T04:17:49.000Z</time>
      </trkpt>
      <trkpt lat="27.749133" lon="86.712243">
        <ele>2681.4</ele>
        <time>2022-10-30T04:17:51.000Z</time>
      </trkpt>
      <trkpt lat="27.749114" lon="86.71225">
        <ele>2680.8</ele>
        <time>2022-10-30T04:17:53.000Z</time>
      </trkpt>
      <trkpt lat="27.749091" lon="86.712256">
        <ele>2680.6</ele>
        <time>2022-10-30T04:17:55.000Z</time>
      </trkpt>
      <trkpt lat="27.749069" lon="86.712262">
        <ele>2680.6</ele>
        <time>2022-10-30T04:17:58.000Z</time>
      </trkpt>
      <trkpt lat="27.749046" lon="86.712275">
        <ele>2680.6</ele>
        <time>2022-10-30T04:18:00.000Z</time>
      </trkpt>
      <trkpt lat="27.749034" lon="86.712294">
        <ele>2680.4</ele>
        <time>2022-10-30T04:18:02.000Z</time>
      </trkpt>
      <trkpt lat="27.749018" lon="86.712314">
        <ele>2680.2</ele>
        <time>2022-10-30T04:18:04.000Z</time>
      </trkpt>
      <trkpt lat="27.749005" lon="86.712333">
        <ele>2680.2</ele>
        <time>2022-10-30T04:18:06.000Z</time>
      </trkpt>
      <trkpt lat="27.748992" lon="86.712358">
        <ele>2679.8</ele>
        <time>2022-10-30T04:18:08.000Z</time>
      </trkpt>
      <trkpt lat="27.748973" lon="86.712371">
        <ele>2679.8</ele>
        <time>2022-10-30T04:18:10.000Z</time>
      </trkpt>
      <trkpt lat="27.748954" lon="86.712397">
        <ele>2679.8</ele>
        <time>2022-10-30T04:18:12.000Z</time>
      </trkpt>
      <trkpt lat="27.748934" lon="86.712403">
        <ele>2679.8</ele>
        <time>2022-10-30T04:18:14.000Z</time>
      </trkpt>
      <trkpt lat="27.748918" lon="86.712416">
        <ele>2680.2</ele>
        <time>2022-10-30T04:18:16.000Z</time>
      </trkpt>
      <trkpt lat="27.748896" lon="86.712422">
        <ele>2680.2</ele>
        <time>2022-10-30T04:18:18.000Z</time>
      </trkpt>
      <trkpt lat="27.748883" lon="86.712442">
        <ele>2680.2</ele>
        <time>2022-10-30T04:18:20.000Z</time>
      </trkpt>
      <trkpt lat="27.748864" lon="86.712448">
        <ele>2680</ele>
        <time>2022-10-30T04:18:22.000Z</time>
      </trkpt>
      <trkpt lat="27.748845" lon="86.712461">
        <ele>2679.6</ele>
        <time>2022-10-30T04:18:24.000Z</time>
      </trkpt>
      <trkpt lat="27.748826" lon="86.71248">
        <ele>2679.6</ele>
        <time>2022-10-30T04:18:26.000Z</time>
      </trkpt>
      <trkpt lat="27.748803" lon="86.712486">
        <ele>2679.8</ele>
        <time>2022-10-30T04:18:28.000Z</time>
      </trkpt>
      <trkpt lat="27.748784" lon="86.712499">
        <ele>2679.6</ele>
        <time>2022-10-30T04:18:30.000Z</time>
      </trkpt>
      <trkpt lat="27.748762" lon="86.712499">
        <ele>2679.6</ele>
        <time>2022-10-30T04:18:32.000Z</time>
      </trkpt>
      <trkpt lat="27.748742" lon="86.712518">
        <ele>2679.4</ele>
        <time>2022-10-30T04:18:34.000Z</time>
      </trkpt>
      <trkpt lat="27.748723" lon="86.712531">
        <ele>2679</ele>
        <time>2022-10-30T04:18:36.000Z</time>
      </trkpt>
      <trkpt lat="27.748698" lon="86.712531">
        <ele>2679</ele>
        <time>2022-10-30T04:18:38.000Z</time>
      </trkpt>
      <trkpt lat="27.748675" lon="86.71255">
        <ele>2679.2</ele>
        <time>2022-10-30T04:18:40.000Z</time>
      </trkpt>
      <trkpt lat="27.748646" lon="86.712557">
        <ele>2679.2</ele>
        <time>2022-10-30T04:18:43.000Z</time>
      </trkpt>
      <trkpt lat="27.748618" lon="86.712557">
        <ele>2679.2</ele>
        <time>2022-10-30T04:18:46.000Z</time>
      </trkpt>
      <trkpt lat="27.748592" lon="86.71257">
        <ele>2679.2</ele>
        <time>2022-10-30T04:18:49.000Z</time>
      </trkpt>
      <trkpt lat="27.748566" lon="86.71257">
        <ele>2679.2</ele>
        <time>2022-10-30T04:18:51.000Z</time>
      </trkpt>
      <trkpt lat="27.748547" lon="86.712563">
        <ele>2679.2</ele>
        <time>2022-10-30T04:18:53.000Z</time>
      </trkpt>
      <trkpt lat="27.748525" lon="86.71257">
        <ele>2679.2</ele>
        <time>2022-10-30T04:18:55.000Z</time>
      </trkpt>
      <trkpt lat="27.748502" lon="86.712563">
        <ele>2679</ele>
        <time>2022-10-30T04:18:57.000Z</time>
      </trkpt>
      <trkpt lat="27.748477" lon="86.71257">
        <ele>2679</ele>
        <time>2022-10-30T04:18:59.000Z</time>
      </trkpt>
      <trkpt lat="27.748458" lon="86.71257">
        <ele>2678.8</ele>
        <time>2022-10-30T04:19:02.000Z</time>
      </trkpt>
      <trkpt lat="27.748438" lon="86.712582">
        <ele>2678.8</ele>
        <time>2022-10-30T04:19:04.000Z</time>
      </trkpt>
      <trkpt lat="27.748419" lon="86.712595">
        <ele>2679</ele>
        <time>2022-10-30T04:19:07.000Z</time>
      </trkpt>
      <trkpt lat="27.748403" lon="86.712614">
        <ele>2679</ele>
        <time>2022-10-30T04:19:11.000Z</time>
      </trkpt>
      <trkpt lat="27.748384" lon="86.712621">
        <ele>2678.4</ele>
        <time>2022-10-30T04:19:14.000Z</time>
      </trkpt>
      <trkpt lat="27.748365" lon="86.712621">
        <ele>2678.2</ele>
        <time>2022-10-30T04:19:16.000Z</time>
      </trkpt>
      <trkpt lat="27.748342" lon="86.712621">
        <ele>2677.8</ele>
        <time>2022-10-30T04:19:19.000Z</time>
      </trkpt>
      <trkpt lat="27.74832" lon="86.712621">
        <ele>2677.6</ele>
        <time>2022-10-30T04:19:21.000Z</time>
      </trkpt>
      <trkpt lat="27.748298" lon="86.712621">
        <ele>2677.4</ele>
        <time>2022-10-30T04:19:23.000Z</time>
      </trkpt>
      <trkpt lat="27.748275" lon="86.712634">
        <ele>2677.2</ele>
        <time>2022-10-30T04:19:25.000Z</time>
      </trkpt>
      <trkpt lat="27.748253" lon="86.712634">
        <ele>2677</ele>
        <time>2022-10-30T04:19:27.000Z</time>
      </trkpt>
      <trkpt lat="27.748234" lon="86.71264">
        <ele>2676.4</ele>
        <time>2022-10-30T04:19:29.000Z</time>
      </trkpt>
      <trkpt lat="27.748214" lon="86.71264">
        <ele>2676.2</ele>
        <time>2022-10-30T04:19:31.000Z</time>
      </trkpt>
      <trkpt lat="27.748189" lon="86.712646">
        <ele>2675.8</ele>
        <time>2022-10-30T04:19:34.000Z</time>
      </trkpt>
      <trkpt lat="27.74817" lon="86.712659">
        <ele>2675.4</ele>
        <time>2022-10-30T04:19:37.000Z</time>
      </trkpt>
      <trkpt lat="27.74815" lon="86.712659">
        <ele>2675.2</ele>
        <time>2022-10-30T04:19:39.000Z</time>
      </trkpt>
      <trkpt lat="27.748131" lon="86.712646">
        <ele>2675</ele>
        <time>2022-10-30T04:19:50.000Z</time>
      </trkpt>
      <trkpt lat="27.748109" lon="86.712646">
        <ele>2674.4</ele>
        <time>2022-10-30T04:20:14.000Z</time>
      </trkpt>
      <trkpt lat="27.748083" lon="86.712646">
        <ele>2674.2</ele>
        <time>2022-10-30T04:20:16.000Z</time>
      </trkpt>
      <trkpt lat="27.748054" lon="86.712646">
        <ele>2673.2</ele>
        <time>2022-10-30T04:20:18.000Z</time>
      </trkpt>
      <trkpt lat="27.748032" lon="86.712634">
        <ele>2672.8</ele>
        <time>2022-10-30T04:20:20.000Z</time>
      </trkpt>
      <trkpt lat="27.748013" lon="86.712614">
        <ele>2672.4</ele>
        <time>2022-10-30T04:20:22.000Z</time>
      </trkpt>
      <trkpt lat="27.747987" lon="86.712608">
        <ele>2671.8</ele>
        <time>2022-10-30T04:20:25.000Z</time>
      </trkpt>
      <trkpt lat="27.747962" lon="86.712608">
        <ele>2671.2</ele>
        <time>2022-10-30T04:20:28.000Z</time>
      </trkpt>
      <trkpt lat="27.747936" lon="86.712608">
        <ele>2670.8</ele>
        <time>2022-10-30T04:20:30.000Z</time>
      </trkpt>
      <trkpt lat="27.747917" lon="86.712602">
        <ele>2670.6</ele>
        <time>2022-10-30T04:20:32.000Z</time>
      </trkpt>
      <trkpt lat="27.747898" lon="86.712595">
        <ele>2670.2</ele>
        <time>2022-10-30T04:20:34.000Z</time>
      </trkpt>
      <trkpt lat="27.747875" lon="86.712582">
        <ele>2670</ele>
        <time>2022-10-30T04:20:36.000Z</time>
      </trkpt>
      <trkpt lat="27.747859" lon="86.712563">
        <ele>2670.2</ele>
        <time>2022-10-30T04:20:38.000Z</time>
      </trkpt>
      <trkpt lat="27.74784" lon="86.712531">
        <ele>2669.8</ele>
        <time>2022-10-30T04:20:40.000Z</time>
      </trkpt>
      <trkpt lat="27.747821" lon="86.712518">
        <ele>2669.6</ele>
        <time>2022-10-30T04:20:42.000Z</time>
      </trkpt>
      <trkpt lat="27.747802" lon="86.712499">
        <ele>2669.4</ele>
        <time>2022-10-30T04:20:44.000Z</time>
      </trkpt>
      <trkpt lat="27.747779" lon="86.712493">
        <ele>2669.2</ele>
        <time>2022-10-30T04:20:46.000Z</time>
      </trkpt>
      <trkpt lat="27.747754" lon="86.71248">
        <ele>2669</ele>
        <time>2022-10-30T04:20:48.000Z</time>
      </trkpt>
      <trkpt lat="27.747731" lon="86.71248">
        <ele>2668.8</ele>
        <time>2022-10-30T04:20:50.000Z</time>
      </trkpt>
      <trkpt lat="27.747709" lon="86.712474">
        <ele>2668.4</ele>
        <time>2022-10-30T04:20:52.000Z</time>
      </trkpt>
      <trkpt lat="27.747686" lon="86.712474">
        <ele>2668.4</ele>
        <time>2022-10-30T04:20:54.000Z</time>
      </trkpt>
      <trkpt lat="27.747667" lon="86.712474">
        <ele>2668.4</ele>
        <time>2022-10-30T04:20:56.000Z</time>
      </trkpt>
      <trkpt lat="27.747645" lon="86.712461">
        <ele>2668.4</ele>
        <time>2022-10-30T04:20:58.000Z</time>
      </trkpt>
      <trkpt lat="27.747629" lon="86.712448">
        <ele>2668.2</ele>
        <time>2022-10-30T04:21:00.000Z</time>
      </trkpt>
      <trkpt lat="27.747606" lon="86.712448">
        <ele>2668.4</ele>
        <time>2022-10-30T04:21:02.000Z</time>
      </trkpt>
      <trkpt lat="27.74759" lon="86.712435">
        <ele>2668.4</ele>
        <time>2022-10-30T04:21:04.000Z</time>
      </trkpt>
      <trkpt lat="27.747571" lon="86.712422">
        <ele>2668.4</ele>
        <time>2022-10-30T04:21:06.000Z</time>
      </trkpt>
      <trkpt lat="27.747552" lon="86.712416">
        <ele>2668.2</ele>
        <time>2022-10-30T04:21:08.000Z</time>
      </trkpt>
      <trkpt lat="27.74753" lon="86.712416">
        <ele>2668.2</ele>
        <time>2022-10-30T04:21:10.000Z</time>
      </trkpt>
      <trkpt lat="27.747507" lon="86.71241">
        <ele>2668.2</ele>
        <time>2022-10-30T04:21:12.000Z</time>
      </trkpt>
      <trkpt lat="27.747482" lon="86.712403">
        <ele>2668.2</ele>
        <time>2022-10-30T04:21:14.000Z</time>
      </trkpt>
      <trkpt lat="27.74745" lon="86.71241">
        <ele>2668.2</ele>
        <time>2022-10-30T04:21:16.000Z</time>
      </trkpt>
      <trkpt lat="27.747424" lon="86.71241">
        <ele>2668.6</ele>
        <time>2022-10-30T04:21:18.000Z</time>
      </trkpt>
      <trkpt lat="27.747402" lon="86.712397">
        <ele>2668.4</ele>
        <time>2022-10-30T04:21:20.000Z</time>
      </trkpt>
      <trkpt lat="27.74737" lon="86.712403">
        <ele>2668.4</ele>
        <time>2022-10-30T04:21:22.000Z</time>
      </trkpt>
      <trkpt lat="27.747347" lon="86.71241">
        <ele>2668.2</ele>
        <time>2022-10-30T04:21:25.000Z</time>
      </trkpt>
      <trkpt lat="27.747328" lon="86.71241">
        <ele>2668</ele>
        <time>2022-10-30T04:21:27.000Z</time>
      </trkpt>
      <trkpt lat="27.747299" lon="86.712403">
        <ele>2668</ele>
        <time>2022-10-30T04:21:30.000Z</time>
      </trkpt>
      <trkpt lat="27.747274" lon="86.712397">
        <ele>2668</ele>
        <time>2022-10-30T04:21:32.000Z</time>
      </trkpt>
      <trkpt lat="27.747254" lon="86.712397">
        <ele>2667.8</ele>
        <time>2022-10-30T04:21:33.000Z</time>
      </trkpt>
      <trkpt lat="27.747226" lon="86.712397">
        <ele>2667.8</ele>
        <time>2022-10-30T04:21:35.000Z</time>
      </trkpt>
      <trkpt lat="27.747203" lon="86.712397">
        <ele>2668</ele>
        <time>2022-10-30T04:21:37.000Z</time>
      </trkpt>
      <trkpt lat="27.747194" lon="86.712378">
        <ele>2668</ele>
        <time>2022-10-30T04:21:38.000Z</time>
      </trkpt>
      <trkpt lat="27.747174" lon="86.712358">
        <ele>2668.2</ele>
        <time>2022-10-30T04:21:41.000Z</time>
      </trkpt>
      <trkpt lat="27.747149" lon="86.712339">
        <ele>2668.2</ele>
        <time>2022-10-30T04:21:44.000Z</time>
      </trkpt>
      <trkpt lat="27.74713" lon="86.712326">
        <ele>2668.2</ele>
        <time>2022-10-30T04:21:46.000Z</time>
      </trkpt>
      <trkpt lat="27.74711" lon="86.71232">
        <ele>2668.4</ele>
        <time>2022-10-30T04:21:48.000Z</time>
      </trkpt>
      <trkpt lat="27.747094" lon="86.712301">
        <ele>2668.6</ele>
        <time>2022-10-30T04:21:50.000Z</time>
      </trkpt>
      <trkpt lat="27.747072" lon="86.712294">
        <ele>2668.6</ele>
        <time>2022-10-30T04:21:52.000Z</time>
      </trkpt>
      <trkpt lat="27.747043" lon="86.712294">
        <ele>2668.8</ele>
        <time>2022-10-30T04:21:54.000Z</time>
      </trkpt>
      <trkpt lat="27.747021" lon="86.712288">
        <ele>2668.6</ele>
        <time>2022-10-30T04:21:56.000Z</time>
      </trkpt>
      <trkpt lat="27.746995" lon="86.712282">
        <ele>2668.8</ele>
        <time>2022-10-30T04:21:58.000Z</time>
      </trkpt>
      <trkpt lat="27.746973" lon="86.712282">
        <ele>2668.6</ele>
        <time>2022-10-30T04:22:00.000Z</time>
      </trkpt>
      <trkpt lat="27.746947" lon="86.712275">
        <ele>2668.2</ele>
        <time>2022-10-30T04:22:02.000Z</time>
      </trkpt>
      <trkpt lat="27.746918" lon="86.712275">
        <ele>2668</ele>
        <time>2022-10-30T04:22:04.000Z</time>
      </trkpt>
      <trkpt lat="27.746893" lon="86.712282">
        <ele>2668.4</ele>
        <time>2022-10-30T04:22:06.000Z</time>
      </trkpt>
      <trkpt lat="27.74687" lon="86.712288">
        <ele>2668.4</ele>
        <time>2022-10-30T04:22:08.000Z</time>
      </trkpt>
      <trkpt lat="27.746842" lon="86.712282">
        <ele>2667.8</ele>
        <time>2022-10-30T04:22:10.000Z</time>
      </trkpt>
      <trkpt lat="27.746819" lon="86.712275">
        <ele>2668</ele>
        <time>2022-10-30T04:22:12.000Z</time>
      </trkpt>
      <trkpt lat="27.7468" lon="86.712275">
        <ele>2668</ele>
        <time>2022-10-30T04:22:14.000Z</time>
      </trkpt>
      <trkpt lat="27.746778" lon="86.712262">
        <ele>2667.8</ele>
        <time>2022-10-30T04:22:16.000Z</time>
      </trkpt>
      <trkpt lat="27.746752" lon="86.712262">
        <ele>2667.6</ele>
        <time>2022-10-30T04:22:18.000Z</time>
      </trkpt>
      <trkpt lat="27.74673" lon="86.712262">
        <ele>2667.2</ele>
        <time>2022-10-30T04:22:20.000Z</time>
      </trkpt>
      <trkpt lat="27.74671" lon="86.712256">
        <ele>2667</ele>
        <time>2022-10-30T04:22:22.000Z</time>
      </trkpt>
      <trkpt lat="27.746691" lon="86.712262">
        <ele>2666.6</ele>
        <time>2022-10-30T04:22:24.000Z</time>
      </trkpt>
      <trkpt lat="27.746666" lon="86.712256">
        <ele>2666.6</ele>
        <time>2022-10-30T04:22:26.000Z</time>
      </trkpt>
      <trkpt lat="27.74664" lon="86.71225">
        <ele>2666.4</ele>
        <time>2022-10-30T04:22:28.000Z</time>
      </trkpt>
      <trkpt lat="27.746611" lon="86.712243">
        <ele>2666.4</ele>
        <time>2022-10-30T04:22:33.000Z</time>
      </trkpt>
      <trkpt lat="27.746582" lon="86.712224">
        <ele>2666.6</ele>
        <time>2022-10-30T04:22:36.000Z</time>
      </trkpt>
      <trkpt lat="27.746566" lon="86.712211">
        <ele>2666.6</ele>
        <time>2022-10-30T04:22:38.000Z</time>
      </trkpt>
      <trkpt lat="27.746547" lon="86.712198">
        <ele>2667.2</ele>
        <time>2022-10-30T04:22:41.000Z</time>
      </trkpt>
      <trkpt lat="27.746518" lon="86.712198">
        <ele>2667.4</ele>
        <time>2022-10-30T04:22:45.000Z</time>
      </trkpt>
      <trkpt lat="27.746499" lon="86.712198">
        <ele>2667.4</ele>
        <time>2022-10-30T04:22:46.000Z</time>
      </trkpt>
      <trkpt lat="27.746483" lon="86.712186">
        <ele>2667.4</ele>
        <time>2022-10-30T04:22:47.000Z</time>
      </trkpt>
      <trkpt lat="27.746454" lon="86.712186">
        <ele>2667.2</ele>
        <time>2022-10-30T04:22:49.000Z</time>
      </trkpt>
      <trkpt lat="27.746432" lon="86.712179">
        <ele>2667.2</ele>
        <time>2022-10-30T04:22:51.000Z</time>
      </trkpt>
      <trkpt lat="27.74641" lon="86.712179">
        <ele>2667.6</ele>
        <time>2022-10-30T04:22:53.000Z</time>
      </trkpt>
      <trkpt lat="27.746384" lon="86.712179">
        <ele>2667.6</ele>
        <time>2022-10-30T04:22:55.000Z</time>
      </trkpt>
      <trkpt lat="27.746362" lon="86.712166">
        <ele>2667.6</ele>
        <time>2022-10-30T04:22:57.000Z</time>
      </trkpt>
      <trkpt lat="27.746333" lon="86.71216">
        <ele>2667.6</ele>
        <time>2022-10-30T04:22:59.000Z</time>
      </trkpt>
      <trkpt lat="27.74631" lon="86.71216">
        <ele>2667</ele>
        <time>2022-10-30T04:23:01.000Z</time>
      </trkpt>
      <trkpt lat="27.746288" lon="86.71216">
        <ele>2666.6</ele>
        <time>2022-10-30T04:23:03.000Z</time>
      </trkpt>
      <trkpt lat="27.746262" lon="86.712154">
        <ele>2666.6</ele>
        <time>2022-10-30T04:23:05.000Z</time>
      </trkpt>
      <trkpt lat="27.746234" lon="86.712154">
        <ele>2666.6</ele>
        <time>2022-10-30T04:23:07.000Z</time>
      </trkpt>
      <trkpt lat="27.746214" lon="86.712141">
        <ele>2666.2</ele>
        <time>2022-10-30T04:23:09.000Z</time>
      </trkpt>
      <trkpt lat="27.746192" lon="86.712141">
        <ele>2666.2</ele>
        <time>2022-10-30T04:23:11.000Z</time>
      </trkpt>
      <trkpt lat="27.74617" lon="86.712154">
        <ele>2666.2</ele>
        <time>2022-10-30T04:23:13.000Z</time>
      </trkpt>
      <trkpt lat="27.74615" lon="86.712154">
        <ele>2666</ele>
        <time>2022-10-30T04:23:15.000Z</time>
      </trkpt>
      <trkpt lat="27.746125" lon="86.71216">
        <ele>2666</ele>
        <time>2022-10-30T04:23:17.000Z</time>
      </trkpt>
      <trkpt lat="27.746106" lon="86.712166">
        <ele>2665.2</ele>
        <time>2022-10-30T04:23:19.000Z</time>
      </trkpt>
      <trkpt lat="27.746083" lon="86.712173">
        <ele>2665.2</ele>
        <time>2022-10-30T04:23:21.000Z</time>
      </trkpt>
      <trkpt lat="27.746061" lon="86.712186">
        <ele>2665.2</ele>
        <time>2022-10-30T04:23:23.000Z</time>
      </trkpt>
      <trkpt lat="27.746038" lon="86.712198">
        <ele>2664.2</ele>
        <time>2022-10-30T04:23:25.000Z</time>
      </trkpt>
      <trkpt lat="27.746016" lon="86.712205">
        <ele>2664.2</ele>
        <time>2022-10-30T04:23:27.000Z</time>
      </trkpt>
      <trkpt lat="27.745997" lon="86.712211">
        <ele>2664.2</ele>
        <time>2022-10-30T04:23:29.000Z</time>
      </trkpt>
      <trkpt lat="27.745974" lon="86.712211">
        <ele>2664</ele>
        <time>2022-10-30T04:23:31.000Z</time>
      </trkpt>
      <trkpt lat="27.745955" lon="86.712218">
        <ele>2663.8</ele>
        <time>2022-10-30T04:23:33.000Z</time>
      </trkpt>
      <trkpt lat="27.745933" lon="86.712243">
        <ele>2663.8</ele>
        <time>2022-10-30T04:23:36.000Z</time>
      </trkpt>
      <trkpt lat="27.745917" lon="86.712256">
        <ele>2663.4</ele>
        <time>2022-10-30T04:23:38.000Z</time>
      </trkpt>
      <trkpt lat="27.745904" lon="86.712275">
        <ele>2662.4</ele>
        <time>2022-10-30T04:23:40.000Z</time>
      </trkpt>
      <trkpt lat="27.745885" lon="86.712288">
        <ele>2661.8</ele>
        <time>2022-10-30T04:23:43.000Z</time>
      </trkpt>
      <trkpt lat="27.745862" lon="86.712314">
        <ele>2661.6</ele>
        <time>2022-10-30T04:23:46.000Z</time>
      </trkpt>
      <trkpt lat="27.745843" lon="86.712333">
        <ele>2660.2</ele>
        <time>2022-10-30T04:23:50.000Z</time>
      </trkpt>
      <trkpt lat="27.74583" lon="86.712352">
        <ele>2659.2</ele>
        <time>2022-10-30T04:23:52.000Z</time>
      </trkpt>
      <trkpt lat="27.745814" lon="86.712365">
        <ele>2659</ele>
        <time>2022-10-30T04:23:54.000Z</time>
      </trkpt>
      <trkpt lat="27.745795" lon="86.712378">
        <ele>2658.6</ele>
        <time>2022-10-30T04:23:56.000Z</time>
      </trkpt>
      <trkpt lat="27.745776" lon="86.712397">
        <ele>2657.8</ele>
        <time>2022-10-30T04:23:58.000Z</time>
      </trkpt>
      <trkpt lat="27.745757" lon="86.71241">
        <ele>2657.8</ele>
        <time>2022-10-30T04:24:00.000Z</time>
      </trkpt>
      <trkpt lat="27.745738" lon="86.712422">
        <ele>2657.4</ele>
        <time>2022-10-30T04:24:02.000Z</time>
      </trkpt>
      <trkpt lat="27.745715" lon="86.712442">
        <ele>2657</ele>
        <time>2022-10-30T04:24:04.000Z</time>
      </trkpt>
      <trkpt lat="27.745699" lon="86.712454">
        <ele>2657</ele>
        <time>2022-10-30T04:24:06.000Z</time>
      </trkpt>
      <trkpt lat="27.745683" lon="86.712474">
        <ele>2657</ele>
        <time>2022-10-30T04:24:08.000Z</time>
      </trkpt>
      <trkpt lat="27.745664" lon="86.712486">
        <ele>2657</ele>
        <time>2022-10-30T04:24:10.000Z</time>
      </trkpt>
      <trkpt lat="27.745645" lon="86.712499">
        <ele>2657</ele>
        <time>2022-10-30T04:24:12.000Z</time>
      </trkpt>
      <trkpt lat="27.745629" lon="86.712525">
        <ele>2657</ele>
        <time>2022-10-30T04:24:14.000Z</time>
      </trkpt>
      <trkpt lat="27.745616" lon="86.71255">
        <ele>2657</ele>
        <time>2022-10-30T04:24:16.000Z</time>
      </trkpt>
      <trkpt lat="27.745597" lon="86.71257">
        <ele>2656.8</ele>
        <time>2022-10-30T04:24:18.000Z</time>
      </trkpt>
      <trkpt lat="27.745574" lon="86.712576">
        <ele>2656.4</ele>
        <time>2022-10-30T04:24:20.000Z</time>
      </trkpt>
      <trkpt lat="27.745555" lon="86.712595">
        <ele>2656.4</ele>
        <time>2022-10-30T04:24:22.000Z</time>
      </trkpt>
      <trkpt lat="27.745533" lon="86.712602">
        <ele>2656</ele>
        <time>2022-10-30T04:24:24.000Z</time>
      </trkpt>
      <trkpt lat="27.74551" lon="86.712608">
        <ele>2655.6</ele>
        <time>2022-10-30T04:24:26.000Z</time>
      </trkpt>
      <trkpt lat="27.745485" lon="86.712614">
        <ele>2655.2</ele>
        <time>2022-10-30T04:24:28.000Z</time>
      </trkpt>
      <trkpt lat="27.745466" lon="86.712614">
        <ele>2655</ele>
        <time>2022-10-30T04:24:30.000Z</time>
      </trkpt>
      <trkpt lat="27.745437" lon="86.712621">
        <ele>2655</ele>
        <time>2022-10-30T04:24:33.000Z</time>
      </trkpt>
      <trkpt lat="27.745418" lon="86.712621">
        <ele>2654.4</ele>
        <time>2022-10-30T04:24:35.000Z</time>
      </trkpt>
      <trkpt lat="27.745392" lon="86.712634">
        <ele>2653.8</ele>
        <time>2022-10-30T04:24:38.000Z</time>
      </trkpt>
      <trkpt lat="27.74537" lon="86.71264">
        <ele>2653.6</ele>
        <time>2022-10-30T04:24:40.000Z</time>
      </trkpt>
      <trkpt lat="27.74535" lon="86.712646">
        <ele>2653.6</ele>
        <time>2022-10-30T04:24:42.000Z</time>
      </trkpt>
      <trkpt lat="27.745331" lon="86.71264">
        <ele>2653.4</ele>
        <time>2022-10-30T04:24:45.000Z</time>
      </trkpt>
      <trkpt lat="27.745306" lon="86.712634">
        <ele>2653.4</ele>
        <time>2022-10-30T04:24:48.000Z</time>
      </trkpt>
      <trkpt lat="27.745283" lon="86.712634">
        <ele>2653.2</ele>
        <time>2022-10-30T04:24:50.000Z</time>
      </trkpt>
      <trkpt lat="27.745264" lon="86.712634">
        <ele>2653.2</ele>
        <time>2022-10-30T04:24:52.000Z</time>
      </trkpt>
      <trkpt lat="27.745242" lon="86.712634">
        <ele>2653</ele>
        <time>2022-10-30T04:24:54.000Z</time>
      </trkpt>
      <trkpt lat="27.745219" lon="86.712621">
        <ele>2652.8</ele>
        <time>2022-10-30T04:24:56.000Z</time>
      </trkpt>
      <trkpt lat="27.7452" lon="86.712621">
        <ele>2653</ele>
        <time>2022-10-30T04:24:58.000Z</time>
      </trkpt>
      <trkpt lat="27.745149" lon="86.712602">
        <ele>2652.2</ele>
        <time>2022-10-30T04:25:04.000Z</time>
      </trkpt>
      <trkpt lat="27.74513" lon="86.712602">
        <ele>2652.2</ele>
        <time>2022-10-30T04:25:06.000Z</time>
      </trkpt>
      <trkpt lat="27.74511" lon="86.712602">
        <ele>2652</ele>
        <time>2022-10-30T04:25:08.000Z</time>
      </trkpt>
      <trkpt lat="27.745085" lon="86.712595">
        <ele>2652</ele>
        <time>2022-10-30T04:25:11.000Z</time>
      </trkpt>
      <trkpt lat="27.745069" lon="86.712582">
        <ele>2651.4</ele>
        <time>2022-10-30T04:25:13.000Z</time>
      </trkpt>
      <trkpt lat="27.745046" lon="86.712576">
        <ele>2651.2</ele>
        <time>2022-10-30T04:25:16.000Z</time>
      </trkpt>
      <trkpt lat="27.745027" lon="86.71255">
        <ele>2650.4</ele>
        <time>2022-10-30T04:25:19.000Z</time>
      </trkpt>
      <trkpt lat="27.745002" lon="86.71255">
        <ele>2646.4</ele>
        <time>2022-10-30T04:32:36.000Z</time>
      </trkpt>
      <trkpt lat="27.744982" lon="86.71255">
        <ele>2646.4</ele>
        <time>2022-10-30T04:32:37.000Z</time>
      </trkpt>
      <trkpt lat="27.74496" lon="86.71255">
        <ele>2646.2</ele>
        <time>2022-10-30T04:32:38.000Z</time>
      </trkpt>
      <trkpt lat="27.744944" lon="86.712538">
        <ele>2646</ele>
        <time>2022-10-30T04:32:39.000Z</time>
      </trkpt>
      <trkpt lat="27.744918" lon="86.712538">
        <ele>2644.6</ele>
        <time>2022-10-30T04:32:41.000Z</time>
      </trkpt>
      <trkpt lat="27.74489" lon="86.712531">
        <ele>2644.4</ele>
        <time>2022-10-30T04:32:43.000Z</time>
      </trkpt>
      <trkpt lat="27.744864" lon="86.712531">
        <ele>2644.2</ele>
        <time>2022-10-30T04:32:45.000Z</time>
      </trkpt>
      <trkpt lat="27.744845" lon="86.712525">
        <ele>2644</ele>
        <time>2022-10-30T04:32:47.000Z</time>
      </trkpt>
      <trkpt lat="27.744826" lon="86.712525">
        <ele>2643.6</ele>
        <time>2022-10-30T04:32:50.000Z</time>
      </trkpt>
      <trkpt lat="27.744803" lon="86.712538">
        <ele>2643.8</ele>
        <time>2022-10-30T04:32:53.000Z</time>
      </trkpt>
      <trkpt lat="27.744781" lon="86.71255">
        <ele>2643.8</ele>
        <time>2022-10-30T04:32:56.000Z</time>
      </trkpt>
      <trkpt lat="27.744765" lon="86.712538">
        <ele>2644</ele>
        <time>2022-10-30T04:32:58.000Z</time>
      </trkpt>
      <trkpt lat="27.744742" lon="86.712557">
        <ele>2644.2</ele>
        <time>2022-10-30T04:33:08.000Z</time>
      </trkpt>
      <trkpt lat="27.74472" lon="86.71257">
        <ele>2643.8</ele>
        <time>2022-10-30T04:33:11.000Z</time>
      </trkpt>
      <trkpt lat="27.744701" lon="86.712576">
        <ele>2643.8</ele>
        <time>2022-10-30T04:33:13.000Z</time>
      </trkpt>
      <trkpt lat="27.744675" lon="86.712576">
        <ele>2643.6</ele>
        <time>2022-10-30T04:33:15.000Z</time>
      </trkpt>
      <trkpt lat="27.744656" lon="86.712582">
        <ele>2643.4</ele>
        <time>2022-10-30T04:33:17.000Z</time>
      </trkpt>
      <trkpt lat="27.744634" lon="86.712582">
        <ele>2643.4</ele>
        <time>2022-10-30T04:33:19.000Z</time>
      </trkpt>
      <trkpt lat="27.744614" lon="86.712595">
        <ele>2643.4</ele>
        <time>2022-10-30T04:33:21.000Z</time>
      </trkpt>
      <trkpt lat="27.744595" lon="86.712595">
        <ele>2643</ele>
        <time>2022-10-30T04:33:23.000Z</time>
      </trkpt>
      <trkpt lat="27.744573" lon="86.712595">
        <ele>2643</ele>
        <time>2022-10-30T04:33:25.000Z</time>
      </trkpt>
      <trkpt lat="27.744554" lon="86.712602">
        <ele>2643</ele>
        <time>2022-10-30T04:33:28.000Z</time>
      </trkpt>
      <trkpt lat="27.744531" lon="86.712608">
        <ele>2643</ele>
        <time>2022-10-30T04:33:30.000Z</time>
      </trkpt>
      <trkpt lat="27.744509" lon="86.712634">
        <ele>2643</ele>
        <time>2022-10-30T04:33:33.000Z</time>
      </trkpt>
      <trkpt lat="27.74449" lon="86.712634">
        <ele>2643</ele>
        <time>2022-10-30T04:33:35.000Z</time>
      </trkpt>
      <trkpt lat="27.744483" lon="86.712614">
        <ele>2642.8</ele>
        <time>2022-10-30T04:33:36.000Z</time>
      </trkpt>
      <trkpt lat="27.744464" lon="86.712608">
        <ele>2642.6</ele>
        <time>2022-10-30T04:33:38.000Z</time>
      </trkpt>
      <trkpt lat="27.744445" lon="86.712614">
        <ele>2642</ele>
        <time>2022-10-30T04:33:41.000Z</time>
      </trkpt>
      <trkpt lat="27.744426" lon="86.712608">
        <ele>2642.2</ele>
        <time>2022-10-30T04:33:44.000Z</time>
      </trkpt>
      <trkpt lat="27.744406" lon="86.712602">
        <ele>2642.2</ele>
        <time>2022-10-30T04:33:47.000Z</time>
      </trkpt>
      <trkpt lat="27.744381" lon="86.712595">
        <ele>2641.6</ele>
        <time>2022-10-30T04:33:51.000Z</time>
      </trkpt>
      <trkpt lat="27.744365" lon="86.712582">
        <ele>2641.6</ele>
        <time>2022-10-30T04:33:53.000Z</time>
      </trkpt>
      <trkpt lat="27.744342" lon="86.712582">
        <ele>2641.2</ele>
        <time>2022-10-30T04:33:56.000Z</time>
      </trkpt>
      <trkpt lat="27.744317" lon="86.712576">
        <ele>2640.6</ele>
        <time>2022-10-30T04:33:58.000Z</time>
      </trkpt>
      <trkpt lat="27.744288" lon="86.71257">
        <ele>2640.4</ele>
        <time>2022-10-30T04:34:01.000Z</time>
      </trkpt>
      <trkpt lat="27.744269" lon="86.712563">
        <ele>2640.4</ele>
        <time>2022-10-30T04:34:02.000Z</time>
      </trkpt>
      <trkpt lat="27.744243" lon="86.712557">
        <ele>2640</ele>
        <time>2022-10-30T04:34:04.000Z</time>
      </trkpt>
      <trkpt lat="27.744224" lon="86.71255">
        <ele>2640</ele>
        <time>2022-10-30T04:34:06.000Z</time>
      </trkpt>
      <trkpt lat="27.744205" lon="86.712538">
        <ele>2639.8</ele>
        <time>2022-10-30T04:34:08.000Z</time>
      </trkpt>
      <trkpt lat="27.744182" lon="86.712538">
        <ele>2639.8</ele>
        <time>2022-10-30T04:34:10.000Z</time>
      </trkpt>
      <trkpt lat="27.744163" lon="86.712531">
        <ele>2639.2</ele>
        <time>2022-10-30T04:34:12.000Z</time>
      </trkpt>
      <trkpt lat="27.744144" lon="86.712531">
        <ele>2638.6</ele>
        <time>2022-10-30T04:34:14.000Z</time>
      </trkpt>
      <trkpt lat="27.744118" lon="86.712531">
        <ele>2638.4</ele>
        <time>2022-10-30T04:34:17.000Z</time>
      </trkpt>
      <trkpt lat="27.744102" lon="86.712518">
        <ele>2638.4</ele>
        <time>2022-10-30T04:34:19.000Z</time>
      </trkpt>
      <trkpt lat="27.744083" lon="86.712512">
        <ele>2637.8</ele>
        <time>2022-10-30T04:34:23.000Z</time>
      </trkpt>
      <trkpt lat="27.744064" lon="86.712512">
        <ele>2637.2</ele>
        <time>2022-10-30T04:34:26.000Z</time>
      </trkpt>
      <trkpt lat="27.744048" lon="86.712499">
        <ele>2637</ele>
        <time>2022-10-30T04:34:28.000Z</time>
      </trkpt>
      <trkpt lat="27.744029" lon="86.712493">
        <ele>2636</ele>
        <time>2022-10-30T04:34:32.000Z</time>
      </trkpt>
      <trkpt lat="27.744006" lon="86.71248">
        <ele>2635.2</ele>
        <time>2022-10-30T04:34:35.000Z</time>
      </trkpt>
      <trkpt lat="27.743987" lon="86.712474">
        <ele>2635</ele>
        <time>2022-10-30T04:34:37.000Z</time>
      </trkpt>
      <trkpt lat="27.743968" lon="86.712461">
        <ele>2634.8</ele>
        <time>2022-10-30T04:34:40.000Z</time>
      </trkpt>
      <trkpt lat="27.743949" lon="86.712448">
        <ele>2634.6</ele>
        <time>2022-10-30T04:34:42.000Z</time>
      </trkpt>
      <trkpt lat="27.74393" lon="86.712442">
        <ele>2634</ele>
        <time>2022-10-30T04:34:44.000Z</time>
      </trkpt>
      <trkpt lat="27.74391" lon="86.712435">
        <ele>2633.2</ele>
        <time>2022-10-30T04:34:46.000Z</time>
      </trkpt>
      <trkpt lat="27.743888" lon="86.712422">
        <ele>2633</ele>
        <time>2022-10-30T04:34:48.000Z</time>
      </trkpt>
      <trkpt lat="27.743866" lon="86.71241">
        <ele>2632.8</ele>
        <time>2022-10-30T04:34:50.000Z</time>
      </trkpt>
      <trkpt lat="27.743843" lon="86.712403">
        <ele>2632.8</ele>
        <time>2022-10-30T04:34:52.000Z</time>
      </trkpt>
      <trkpt lat="27.743821" lon="86.712384">
        <ele>2632.8</ele>
        <time>2022-10-30T04:34:55.000Z</time>
      </trkpt>
      <trkpt lat="27.743802" lon="86.712378">
        <ele>2632.2</ele>
        <time>2022-10-30T04:34:58.000Z</time>
      </trkpt>
      <trkpt lat="27.743766" lon="86.71241">
        <ele>2631.2</ele>
        <time>2022-10-30T04:35:03.000Z</time>
      </trkpt>
      <trkpt lat="27.743747" lon="86.712422">
        <ele>2630.8</ele>
        <time>2022-10-30T04:35:06.000Z</time>
      </trkpt>
      <trkpt lat="27.743738" lon="86.712448">
        <ele>2630.8</ele>
        <time>2022-10-30T04:35:08.000Z</time>
      </trkpt>
      <trkpt lat="27.743725" lon="86.712474">
        <ele>2631</ele>
        <time>2022-10-30T04:35:21.000Z</time>
      </trkpt>
      <trkpt lat="27.743712" lon="86.712493">
        <ele>2630.8</ele>
        <time>2022-10-30T04:35:23.000Z</time>
      </trkpt>
      <trkpt lat="27.743706" lon="86.712512">
        <ele>2630.6</ele>
        <time>2022-10-30T04:35:24.000Z</time>
      </trkpt>
      <trkpt lat="27.743693" lon="86.712531">
        <ele>2630.6</ele>
        <time>2022-10-30T04:35:27.000Z</time>
      </trkpt>
      <trkpt lat="27.743683" lon="86.712557">
        <ele>2630.4</ele>
        <time>2022-10-30T04:35:29.000Z</time>
      </trkpt>
      <trkpt lat="27.74367" lon="86.712576">
        <ele>2630.2</ele>
        <time>2022-10-30T04:35:32.000Z</time>
      </trkpt>
      <trkpt lat="27.743658" lon="86.712595">
        <ele>2630.4</ele>
        <time>2022-10-30T04:35:34.000Z</time>
      </trkpt>
      <trkpt lat="27.743651" lon="86.712614">
        <ele>2630.4</ele>
        <time>2022-10-30T04:35:36.000Z</time>
      </trkpt>
      <trkpt lat="27.743635" lon="86.712634">
        <ele>2630.2</ele>
        <time>2022-10-30T04:35:38.000Z</time>
      </trkpt>
      <trkpt lat="27.743626" lon="86.712653">
        <ele>2630.2</ele>
        <time>2022-10-30T04:35:40.000Z</time>
      </trkpt>
      <trkpt lat="27.743613" lon="86.712678">
        <ele>2630</ele>
        <time>2022-10-30T04:35:42.000Z</time>
      </trkpt>
      <trkpt lat="27.7436" lon="86.712698">
        <ele>2630</ele>
        <time>2022-10-30T04:35:44.000Z</time>
      </trkpt>
      <trkpt lat="27.74359" lon="86.712717">
        <ele>2630</ele>
        <time>2022-10-30T04:35:46.000Z</time>
      </trkpt>
      <trkpt lat="27.743597" lon="86.712736">
        <ele>2630.4</ele>
        <time>2022-10-30T04:35:49.000Z</time>
      </trkpt>
      <trkpt lat="27.74361" lon="86.712755">
        <ele>2630.4</ele>
        <time>2022-10-30T04:35:51.000Z</time>
      </trkpt>
      <trkpt lat="27.743629" lon="86.712768">
        <ele>2630.2</ele>
        <time>2022-10-30T04:35:54.000Z</time>
      </trkpt>
      <trkpt lat="27.743651" lon="86.712781">
        <ele>2630.4</ele>
        <time>2022-10-30T04:35:57.000Z</time>
      </trkpt>
      <trkpt lat="27.743667" lon="86.712794">
        <ele>2630.4</ele>
        <time>2022-10-30T04:35:59.000Z</time>
      </trkpt>
      <trkpt lat="27.74369" lon="86.712806">
        <ele>2630</ele>
        <time>2022-10-30T04:36:02.000Z</time>
      </trkpt>
      <trkpt lat="27.743702" lon="86.712832">
        <ele>2630.2</ele>
        <time>2022-10-30T04:36:05.000Z</time>
      </trkpt>
      <trkpt lat="27.743702" lon="86.712858">
        <ele>2630.4</ele>
        <time>2022-10-30T04:36:12.000Z</time>
      </trkpt>
      <trkpt lat="27.743702" lon="86.712883">
        <ele>2630.4</ele>
        <time>2022-10-30T04:36:15.000Z</time>
      </trkpt>
      <trkpt lat="27.743699" lon="86.712909">
        <ele>2629.8</ele>
        <time>2022-10-30T04:36:19.000Z</time>
      </trkpt>
      <trkpt lat="27.743693" lon="86.712928">
        <ele>2629.8</ele>
        <time>2022-10-30T04:36:22.000Z</time>
      </trkpt>
      <trkpt lat="27.743683" lon="86.712954">
        <ele>2629.4</ele>
        <time>2022-10-30T04:36:25.000Z</time>
      </trkpt>
      <trkpt lat="27.743677" lon="86.712979">
        <ele>2628.8</ele>
        <time>2022-10-30T04:36:29.000Z</time>
      </trkpt>
      <trkpt lat="27.74367" lon="86.712998">
        <ele>2628.8</ele>
        <time>2022-10-30T04:36:31.000Z</time>
      </trkpt>
      <trkpt lat="27.743661" lon="86.713018">
        <ele>2628.6</ele>
        <time>2022-10-30T04:36:35.000Z</time>
      </trkpt>
      <trkpt lat="27.743651" lon="86.713037">
        <ele>2628.4</ele>
        <time>2022-10-30T04:36:37.000Z</time>
      </trkpt>
      <trkpt lat="27.743638" lon="86.713056">
        <ele>2627.8</ele>
        <time>2022-10-30T04:36:44.000Z</time>
      </trkpt>
      <trkpt lat="27.743629" lon="86.713075">
        <ele>2628.2</ele>
        <time>2022-10-30T04:37:17.000Z</time>
      </trkpt>
      <trkpt lat="27.743619" lon="86.713107">
        <ele>2628</ele>
        <time>2022-10-30T04:37:20.000Z</time>
      </trkpt>
      <trkpt lat="27.743613" lon="86.713126">
        <ele>2627.8</ele>
        <time>2022-10-30T04:37:22.000Z</time>
      </trkpt>
      <trkpt lat="27.743613" lon="86.713152">
        <ele>2627.8</ele>
        <time>2022-10-30T04:37:27.000Z</time>
      </trkpt>
      <trkpt lat="27.743606" lon="86.713171">
        <ele>2627.4</ele>
        <time>2022-10-30T04:37:31.000Z</time>
      </trkpt>
      <trkpt lat="27.7436" lon="86.71319">
        <ele>2627.6</ele>
        <time>2022-10-30T04:37:39.000Z</time>
      </trkpt>
      <trkpt lat="27.743597" lon="86.713216">
        <ele>2627.6</ele>
        <time>2022-10-30T04:37:43.000Z</time>
      </trkpt>
      <trkpt lat="27.74359" lon="86.713235">
        <ele>2627.6</ele>
        <time>2022-10-30T04:37:45.000Z</time>
      </trkpt>
      <trkpt lat="27.74359" lon="86.713267">
        <ele>2628</ele>
        <time>2022-10-30T04:37:49.000Z</time>
      </trkpt>
      <trkpt lat="27.743584" lon="86.713293">
        <ele>2627.6</ele>
        <time>2022-10-30T04:37:52.000Z</time>
      </trkpt>
      <trkpt lat="27.743578" lon="86.713318">
        <ele>2627.6</ele>
        <time>2022-10-30T04:37:55.000Z</time>
      </trkpt>
      <trkpt lat="27.743574" lon="86.71335">
        <ele>2627.4</ele>
        <time>2022-10-30T04:37:58.000Z</time>
      </trkpt>
      <trkpt lat="27.743562" lon="86.713376">
        <ele>2627.8</ele>
        <time>2022-10-30T04:38:01.000Z</time>
      </trkpt>
      <trkpt lat="27.743555" lon="86.713395">
        <ele>2627.4</ele>
        <time>2022-10-30T04:38:03.000Z</time>
      </trkpt>
      <trkpt lat="27.743549" lon="86.713414">
        <ele>2627.6</ele>
        <time>2022-10-30T04:38:05.000Z</time>
      </trkpt>
      <trkpt lat="27.743542" lon="86.713434">
        <ele>2628</ele>
        <time>2022-10-30T04:38:10.000Z</time>
      </trkpt>
      <trkpt lat="27.743533" lon="86.713453">
        <ele>2628.2</ele>
        <time>2022-10-30T04:38:15.000Z</time>
      </trkpt>
      <trkpt lat="27.74353" lon="86.713478">
        <ele>2628.2</ele>
        <time>2022-10-30T04:38:17.000Z</time>
      </trkpt>
      <trkpt lat="27.74352" lon="86.713504">
        <ele>2628.2</ele>
        <time>2022-10-30T04:38:23.000Z</time>
      </trkpt>
      <trkpt lat="27.743507" lon="86.71353">
        <ele>2627.8</ele>
        <time>2022-10-30T04:38:27.000Z</time>
      </trkpt>
      <trkpt lat="27.743504" lon="86.713562">
        <ele>2628</ele>
        <time>2022-10-30T04:38:31.000Z</time>
      </trkpt>
      <trkpt lat="27.743498" lon="86.713587">
        <ele>2628.4</ele>
        <time>2022-10-30T04:38:34.000Z</time>
      </trkpt>
      <trkpt lat="27.743491" lon="86.713613">
        <ele>2628.8</ele>
        <time>2022-10-30T04:38:40.000Z</time>
      </trkpt>
      <trkpt lat="27.743488" lon="86.713638">
        <ele>2628.8</ele>
        <time>2022-10-30T04:38:42.000Z</time>
      </trkpt>
      <trkpt lat="27.743478" lon="86.71367">
        <ele>2629.2</ele>
        <time>2022-10-30T04:38:44.000Z</time>
      </trkpt>
      <trkpt lat="27.743466" lon="86.713702">
        <ele>2629.6</ele>
        <time>2022-10-30T04:38:47.000Z</time>
      </trkpt>
      <trkpt lat="27.743459" lon="86.713728">
        <ele>2630</ele>
        <time>2022-10-30T04:38:50.000Z</time>
      </trkpt>
      <trkpt lat="27.743453" lon="86.713754">
        <ele>2630</ele>
        <time>2022-10-30T04:38:54.000Z</time>
      </trkpt>
      <trkpt lat="27.743443" lon="86.713786">
        <ele>2630.6</ele>
        <time>2022-10-30T04:38:57.000Z</time>
      </trkpt>
      <trkpt lat="27.74343" lon="86.713805">
        <ele>2631.4</ele>
        <time>2022-10-30T04:39:00.000Z</time>
      </trkpt>
      <trkpt lat="27.743421" lon="86.713824">
        <ele>2631.6</ele>
        <time>2022-10-30T04:39:02.000Z</time>
      </trkpt>
      <trkpt lat="27.743402" lon="86.71383">
        <ele>2631.8</ele>
        <time>2022-10-30T04:39:06.000Z</time>
      </trkpt>
      <trkpt lat="27.743389" lon="86.713811">
        <ele>2631.6</ele>
        <time>2022-10-30T04:39:36.000Z</time>
      </trkpt>
      <trkpt lat="27.743392" lon="86.713786">
        <ele>2631.6</ele>
        <time>2022-10-30T04:41:11.000Z</time>
      </trkpt>
      <trkpt lat="27.743366" lon="86.713786">
        <ele>2631.4</ele>
        <time>2022-10-30T04:41:13.000Z</time>
      </trkpt>
      <trkpt lat="27.743344" lon="86.713786">
        <ele>2631.4</ele>
        <time>2022-10-30T04:41:15.000Z</time>
      </trkpt>
      <trkpt lat="27.743315" lon="86.713786">
        <ele>2631.2</ele>
        <time>2022-10-30T04:41:17.000Z</time>
      </trkpt>
      <trkpt lat="27.74329" lon="86.713773">
        <ele>2631</ele>
        <time>2022-10-30T04:41:19.000Z</time>
      </trkpt>
      <trkpt lat="27.74327" lon="86.713766">
        <ele>2630.8</ele>
        <time>2022-10-30T04:41:21.000Z</time>
      </trkpt>
      <trkpt lat="27.743245" lon="86.71376">
        <ele>2630.6</ele>
        <time>2022-10-30T04:41:23.000Z</time>
      </trkpt>
      <trkpt lat="27.743226" lon="86.71376">
        <ele>2630.4</ele>
        <time>2022-10-30T04:41:25.000Z</time>
      </trkpt>
      <trkpt lat="27.743203" lon="86.71376">
        <ele>2630.6</ele>
        <time>2022-10-30T04:41:27.000Z</time>
      </trkpt>
      <trkpt lat="27.743184" lon="86.713766">
        <ele>2630.8</ele>
        <time>2022-10-30T04:41:29.000Z</time>
      </trkpt>
      <trkpt lat="27.743165" lon="86.713773">
        <ele>2631</ele>
        <time>2022-10-30T04:41:31.000Z</time>
      </trkpt>
      <trkpt lat="27.743149" lon="86.713786">
        <ele>2630.8</ele>
        <time>2022-10-30T04:41:33.000Z</time>
      </trkpt>
      <trkpt lat="27.74313" lon="86.713811">
        <ele>2630.8</ele>
        <time>2022-10-30T04:41:35.000Z</time>
      </trkpt>
      <trkpt lat="27.74311" lon="86.713805">
        <ele>2631.4</ele>
        <time>2022-10-30T04:41:38.000Z</time>
      </trkpt>
      <trkpt lat="27.743091" lon="86.713805">
        <ele>2632</ele>
        <time>2022-10-30T04:41:41.000Z</time>
      </trkpt>
      <trkpt lat="27.743066" lon="86.713805">
        <ele>2632.8</ele>
        <time>2022-10-30T04:41:46.000Z</time>
      </trkpt>
      <trkpt lat="27.743043" lon="86.713798">
        <ele>2633.2</ele>
        <time>2022-10-30T04:41:49.000Z</time>
      </trkpt>
      <trkpt lat="27.743014" lon="86.713798">
        <ele>2632.6</ele>
        <time>2022-10-30T04:41:52.000Z</time>
      </trkpt>
      <trkpt lat="27.742992" lon="86.713792">
        <ele>2632.8</ele>
        <time>2022-10-30T04:41:54.000Z</time>
      </trkpt>
      <trkpt lat="27.742966" lon="86.713792">
        <ele>2632.6</ele>
        <time>2022-10-30T04:41:56.000Z</time>
      </trkpt>
      <trkpt lat="27.742944" lon="86.713792">
        <ele>2632.6</ele>
        <time>2022-10-30T04:41:58.000Z</time>
      </trkpt>
      <trkpt lat="27.742918" lon="86.713786">
        <ele>2632.8</ele>
        <time>2022-10-30T04:42:00.000Z</time>
      </trkpt>
      <trkpt lat="27.742893" lon="86.713786">
        <ele>2632.8</ele>
        <time>2022-10-30T04:42:02.000Z</time>
      </trkpt>
      <trkpt lat="27.742867" lon="86.713786">
        <ele>2633</ele>
        <time>2022-10-30T04:42:04.000Z</time>
      </trkpt>
      <trkpt lat="27.742845" lon="86.713786">
        <ele>2633</ele>
        <time>2022-10-30T04:42:07.000Z</time>
      </trkpt>
      <trkpt lat="27.742826" lon="86.713786">
        <ele>2632.8</ele>
        <time>2022-10-30T04:42:09.000Z</time>
      </trkpt>
      <trkpt lat="27.74281" lon="86.713773">
        <ele>2633</ele>
        <time>2022-10-30T04:42:11.000Z</time>
      </trkpt>
      <trkpt lat="27.742787" lon="86.713773">
        <ele>2633</ele>
        <time>2022-10-30T04:42:15.000Z</time>
      </trkpt>
      <trkpt lat="27.742768" lon="86.713766">
        <ele>2633.4</ele>
        <time>2022-10-30T04:42:17.000Z</time>
      </trkpt>
      <trkpt lat="27.742739" lon="86.713754">
        <ele>2633.6</ele>
        <time>2022-10-30T04:42:20.000Z</time>
      </trkpt>
      <trkpt lat="27.74272" lon="86.713734">
        <ele>2634.2</ele>
        <time>2022-10-30T04:42:22.000Z</time>
      </trkpt>
      <trkpt lat="27.742694" lon="86.713728">
        <ele>2634.4</ele>
        <time>2022-10-30T04:42:25.000Z</time>
      </trkpt>
      <trkpt lat="27.742675" lon="86.713709">
        <ele>2635</ele>
        <time>2022-10-30T04:42:29.000Z</time>
      </trkpt>
      <trkpt lat="27.742666" lon="86.71369">
        <ele>2635.4</ele>
        <time>2022-10-30T04:42:31.000Z</time>
      </trkpt>
      <trkpt lat="27.742643" lon="86.71369">
        <ele>2636.2</ele>
        <time>2022-10-30T04:42:34.000Z</time>
      </trkpt>
      <trkpt lat="27.742621" lon="86.713677">
        <ele>2636.4</ele>
        <time>2022-10-30T04:42:38.000Z</time>
      </trkpt>
      <trkpt lat="27.742605" lon="86.713664">
        <ele>2636.8</ele>
        <time>2022-10-30T04:42:41.000Z</time>
      </trkpt>
      <trkpt lat="27.742595" lon="86.713645">
        <ele>2637</ele>
        <time>2022-10-30T04:42:43.000Z</time>
      </trkpt>
      <trkpt lat="27.74257" lon="86.713645">
        <ele>2637</ele>
        <time>2022-10-30T04:42:45.000Z</time>
      </trkpt>
      <trkpt lat="27.742576" lon="86.713613">
        <ele>2637</ele>
        <time>2022-10-30T04:42:48.000Z</time>
      </trkpt>
      <trkpt lat="27.742592" lon="86.713562">
        <ele>2637</ele>
        <time>2022-10-30T04:42:51.000Z</time>
      </trkpt>
      <trkpt lat="27.74256" lon="86.713562">
        <ele>2636.8</ele>
        <time>2022-10-30T04:42:54.000Z</time>
      </trkpt>
      <trkpt lat="27.742538" lon="86.713555">
        <ele>2636.8</ele>
        <time>2022-10-30T04:42:56.000Z</time>
      </trkpt>
      <trkpt lat="27.742518" lon="86.713562">
        <ele>2636.8</ele>
        <time>2022-10-30T04:42:57.000Z</time>
      </trkpt>
      <trkpt lat="27.742486" lon="86.713568">
        <ele>2636.6</ele>
        <time>2022-10-30T04:42:58.000Z</time>
      </trkpt>
      <trkpt lat="27.742461" lon="86.713587">
        <ele>2636.4</ele>
        <time>2022-10-30T04:42:59.000Z</time>
      </trkpt>
      <trkpt lat="27.742435" lon="86.713574">
        <ele>2636.4</ele>
        <time>2022-10-30T04:43:01.000Z</time>
      </trkpt>
      <trkpt lat="27.742419" lon="86.713587">
        <ele>2636.4</ele>
        <time>2022-10-30T04:43:02.000Z</time>
      </trkpt>
      <trkpt lat="27.742426" lon="86.713568">
        <ele>2636.6</ele>
        <time>2022-10-30T04:43:03.000Z</time>
      </trkpt>
      <trkpt lat="27.742432" lon="86.713549">
        <ele>2637.2</ele>
        <time>2022-10-30T04:43:08.000Z</time>
      </trkpt>
      <trkpt lat="27.742442" lon="86.71353">
        <ele>2637.2</ele>
        <time>2022-10-30T04:43:09.000Z</time>
      </trkpt>
      <trkpt lat="27.742419" lon="86.713523">
        <ele>2636.8</ele>
        <time>2022-10-30T04:43:13.000Z</time>
      </trkpt>
      <trkpt lat="27.7424" lon="86.713517">
        <ele>2637</ele>
        <time>2022-10-30T04:43:15.000Z</time>
      </trkpt>
      <trkpt lat="27.742381" lon="86.71351">
        <ele>2637.4</ele>
        <time>2022-10-30T04:43:17.000Z</time>
      </trkpt>
      <trkpt lat="27.742358" lon="86.713517">
        <ele>2637.4</ele>
        <time>2022-10-30T04:43:18.000Z</time>
      </trkpt>
      <trkpt lat="27.742339" lon="86.713517">
        <ele>2637.6</ele>
        <time>2022-10-30T04:43:19.000Z</time>
      </trkpt>
      <trkpt lat="27.74232" lon="86.71351">
        <ele>2637.6</ele>
        <time>2022-10-30T04:43:21.000Z</time>
      </trkpt>
      <trkpt lat="27.742304" lon="86.713491">
        <ele>2638</ele>
        <time>2022-10-30T04:43:23.000Z</time>
      </trkpt>
      <trkpt lat="27.742278" lon="86.713504">
        <ele>2638.4</ele>
        <time>2022-10-30T04:43:25.000Z</time>
      </trkpt>
      <trkpt lat="27.742243" lon="86.713517">
        <ele>2638.8</ele>
        <time>2022-10-30T04:43:27.000Z</time>
      </trkpt>
      <trkpt lat="27.742227" lon="86.713504">
        <ele>2639.2</ele>
        <time>2022-10-30T04:43:31.000Z</time>
      </trkpt>
      <trkpt lat="27.742208" lon="86.713517">
        <ele>2639.6</ele>
        <time>2022-10-30T04:43:32.000Z</time>
      </trkpt>
      <trkpt lat="27.742189" lon="86.713523">
        <ele>2639.8</ele>
        <time>2022-10-30T04:43:34.000Z</time>
      </trkpt>
      <trkpt lat="27.742202" lon="86.713491">
        <ele>2640</ele>
        <time>2022-10-30T04:43:36.000Z</time>
      </trkpt>
      <trkpt lat="27.742208" lon="86.713472">
        <ele>2640</ele>
        <time>2022-10-30T04:43:37.000Z</time>
      </trkpt>
      <trkpt lat="27.742214" lon="86.713446">
        <ele>2640</ele>
        <time>2022-10-30T04:43:38.000Z</time>
      </trkpt>
      <trkpt lat="27.742192" lon="86.713453">
        <ele>2640.4</ele>
        <time>2022-10-30T04:43:41.000Z</time>
      </trkpt>
      <trkpt lat="27.742176" lon="86.71344">
        <ele>2641.6</ele>
        <time>2022-10-30T04:43:46.000Z</time>
      </trkpt>
      <trkpt lat="27.742189" lon="86.713408">
        <ele>2642.4</ele>
        <time>2022-10-30T04:43:48.000Z</time>
      </trkpt>
      <trkpt lat="27.742192" lon="86.713376">
        <ele>2642.4</ele>
        <time>2022-10-30T04:43:50.000Z</time>
      </trkpt>
      <trkpt lat="27.74216" lon="86.71337">
        <ele>2643.4</ele>
        <time>2022-10-30T04:43:55.000Z</time>
      </trkpt>
      <trkpt lat="27.742138" lon="86.71337">
        <ele>2644.2</ele>
        <time>2022-10-30T04:43:58.000Z</time>
      </trkpt>
      <trkpt lat="27.742112" lon="86.713389">
        <ele>2644.2</ele>
        <time>2022-10-30T04:43:59.000Z</time>
      </trkpt>
      <trkpt lat="27.742096" lon="86.71337">
        <ele>2644.2</ele>
        <time>2022-10-30T04:44:01.000Z</time>
      </trkpt>
      <trkpt lat="27.742099" lon="86.713338">
        <ele>2644.2</ele>
        <time>2022-10-30T04:44:03.000Z</time>
      </trkpt>
      <trkpt lat="27.74208" lon="86.713325">
        <ele>2644.2</ele>
        <time>2022-10-30T04:44:06.000Z</time>
      </trkpt>
      <trkpt lat="27.74208" lon="86.713286">
        <ele>2644.2</ele>
        <time>2022-10-30T04:44:09.000Z</time>
      </trkpt>
      <trkpt lat="27.74207" lon="86.713267">
        <ele>2644.2</ele>
        <time>2022-10-30T04:44:11.000Z</time>
      </trkpt>
      <trkpt lat="27.742058" lon="86.713248">
        <ele>2644.2</ele>
        <time>2022-10-30T04:44:13.000Z</time>
      </trkpt>
      <trkpt lat="27.742038" lon="86.713235">
        <ele>2644.2</ele>
        <time>2022-10-30T04:44:15.000Z</time>
      </trkpt>
      <trkpt lat="27.742019" lon="86.713216">
        <ele>2644.6</ele>
        <time>2022-10-30T04:44:17.000Z</time>
      </trkpt>
      <trkpt lat="27.742006" lon="86.71319">
        <ele>2645</ele>
        <time>2022-10-30T04:44:20.000Z</time>
      </trkpt>
      <trkpt lat="27.741981" lon="86.71319">
        <ele>2645.2</ele>
        <time>2022-10-30T04:44:22.000Z</time>
      </trkpt>
      <trkpt lat="27.741958" lon="86.713203">
        <ele>2645.2</ele>
        <time>2022-10-30T04:44:23.000Z</time>
      </trkpt>
      <trkpt lat="27.741933" lon="86.713203">
        <ele>2645.4</ele>
        <time>2022-10-30T04:44:25.000Z</time>
      </trkpt>
      <trkpt lat="27.741933" lon="86.713165">
        <ele>2646.2</ele>
        <time>2022-10-30T04:44:28.000Z</time>
      </trkpt>
      <trkpt lat="27.74193" lon="86.713139">
        <ele>2646.4</ele>
        <time>2022-10-30T04:44:32.000Z</time>
      </trkpt>
      <trkpt lat="27.741923" lon="86.713114">
        <ele>2646.8</ele>
        <time>2022-10-30T04:44:34.000Z</time>
      </trkpt>
      <trkpt lat="27.741923" lon="86.713088">
        <ele>2646.8</ele>
        <time>2022-10-30T04:44:35.000Z</time>
      </trkpt>
      <trkpt lat="27.741904" lon="86.713082">
        <ele>2647.6</ele>
        <time>2022-10-30T04:44:38.000Z</time>
      </trkpt>
      <trkpt lat="27.741898" lon="86.713056">
        <ele>2647.8</ele>
        <time>2022-10-30T04:44:40.000Z</time>
      </trkpt>
      <trkpt lat="27.741891" lon="86.71303">
        <ele>2648</ele>
        <time>2022-10-30T04:44:43.000Z</time>
      </trkpt>
      <trkpt lat="27.741885" lon="86.713011">
        <ele>2648</ele>
        <time>2022-10-30T04:44:44.000Z</time>
      </trkpt>
      <trkpt lat="27.741856" lon="86.713018">
        <ele>2648.2</ele>
        <time>2022-10-30T04:44:47.000Z</time>
      </trkpt>
      <trkpt lat="27.741837" lon="86.71303">
        <ele>2647.8</ele>
        <time>2022-10-30T04:44:50.000Z</time>
      </trkpt>
      <trkpt lat="27.741818" lon="86.71303">
        <ele>2647.4</ele>
        <time>2022-10-30T04:44:52.000Z</time>
      </trkpt>
      <trkpt lat="27.741795" lon="86.71303">
        <ele>2647</ele>
        <time>2022-10-30T04:44:55.000Z</time>
      </trkpt>
      <trkpt lat="27.741773" lon="86.713037">
        <ele>2646.8</ele>
        <time>2022-10-30T04:45:07.000Z</time>
      </trkpt>
      <trkpt lat="27.741744" lon="86.713037">
        <ele>2645.8</ele>
        <time>2022-10-30T04:45:15.000Z</time>
      </trkpt>
      <trkpt lat="27.741722" lon="86.713043">
        <ele>2645.4</ele>
        <time>2022-10-30T04:45:17.000Z</time>
      </trkpt>
      <trkpt lat="27.741696" lon="86.713043">
        <ele>2644.8</ele>
        <time>2022-10-30T04:45:19.000Z</time>
      </trkpt>
      <trkpt lat="27.741677" lon="86.713043">
        <ele>2644.8</ele>
        <time>2022-10-30T04:45:21.000Z</time>
      </trkpt>
      <trkpt lat="27.741658" lon="86.713037">
        <ele>2643.8</ele>
        <time>2022-10-30T04:45:37.000Z</time>
      </trkpt>
      <trkpt lat="27.741638" lon="86.713037">
        <ele>2643.6</ele>
        <time>2022-10-30T04:45:39.000Z</time>
      </trkpt>
      <trkpt lat="27.741587" lon="86.713037">
        <ele>2642.8</ele>
        <time>2022-10-30T04:45:43.000Z</time>
      </trkpt>
      <trkpt lat="27.741562" lon="86.713018">
        <ele>2642.8</ele>
        <time>2022-10-30T04:45:45.000Z</time>
      </trkpt>
      <trkpt lat="27.741542" lon="86.713018">
        <ele>2642.6</ele>
        <time>2022-10-30T04:45:48.000Z</time>
      </trkpt>
      <trkpt lat="27.741517" lon="86.713011">
        <ele>2642.8</ele>
        <time>2022-10-30T04:45:51.000Z</time>
      </trkpt>
      <trkpt lat="27.741498" lon="86.713018">
        <ele>2643.6</ele>
        <time>2022-10-30T04:45:53.000Z</time>
      </trkpt>
      <trkpt lat="27.741478" lon="86.71303">
        <ele>2642.6</ele>
        <time>2022-10-30T04:45:57.000Z</time>
      </trkpt>
      <trkpt lat="27.741462" lon="86.713018">
        <ele>2642</ele>
        <time>2022-10-30T04:45:59.000Z</time>
      </trkpt>
      <trkpt lat="27.741437" lon="86.713018">
        <ele>2642</ele>
        <time>2022-10-30T04:46:01.000Z</time>
      </trkpt>
      <trkpt lat="27.741408" lon="86.713018">
        <ele>2642</ele>
        <time>2022-10-30T04:46:03.000Z</time>
      </trkpt>
      <trkpt lat="27.741395" lon="86.712998">
        <ele>2641.8</ele>
        <time>2022-10-30T04:46:05.000Z</time>
      </trkpt>
      <trkpt lat="27.741386" lon="86.712979">
        <ele>2642</ele>
        <time>2022-10-30T04:46:07.000Z</time>
      </trkpt>
      <trkpt lat="27.741363" lon="86.712966">
        <ele>2642</ele>
        <time>2022-10-30T04:46:09.000Z</time>
      </trkpt>
      <trkpt lat="27.741344" lon="86.712954">
        <ele>2642.4</ele>
        <time>2022-10-30T04:46:12.000Z</time>
      </trkpt>
      <trkpt lat="27.741315" lon="86.712947">
        <ele>2642.4</ele>
        <time>2022-10-30T04:46:15.000Z</time>
      </trkpt>
      <trkpt lat="27.741299" lon="86.712934">
        <ele>2642.6</ele>
        <time>2022-10-30T04:46:16.000Z</time>
      </trkpt>
      <trkpt lat="27.74127" lon="86.712928">
        <ele>2642.8</ele>
        <time>2022-10-30T04:46:18.000Z</time>
      </trkpt>
      <trkpt lat="27.741238" lon="86.712928">
        <ele>2642.8</ele>
        <time>2022-10-30T04:46:21.000Z</time>
      </trkpt>
      <trkpt lat="27.74121" lon="86.712928">
        <ele>2643</ele>
        <time>2022-10-30T04:46:23.000Z</time>
      </trkpt>
      <trkpt lat="27.74119" lon="86.712922">
        <ele>2643.2</ele>
        <time>2022-10-30T04:46:25.000Z</time>
      </trkpt>
      <trkpt lat="27.741171" lon="86.712922">
        <ele>2643</ele>
        <time>2022-10-30T04:46:27.000Z</time>
      </trkpt>
      <trkpt lat="27.741152" lon="86.712896">
        <ele>2642.8</ele>
        <time>2022-10-30T04:46:31.000Z</time>
      </trkpt>
      <trkpt lat="27.741133" lon="86.71289">
        <ele>2643.2</ele>
        <time>2022-10-30T04:46:33.000Z</time>
      </trkpt>
      <trkpt lat="27.741107" lon="86.712896">
        <ele>2643</ele>
        <time>2022-10-30T04:46:36.000Z</time>
      </trkpt>
      <trkpt lat="27.741072" lon="86.712915">
        <ele>2643.2</ele>
        <time>2022-10-30T04:46:38.000Z</time>
      </trkpt>
      <trkpt lat="27.741056" lon="86.712928">
        <ele>2643.2</ele>
        <time>2022-10-30T04:46:39.000Z</time>
      </trkpt>
      <trkpt lat="27.741037" lon="86.712934">
        <ele>2643.2</ele>
        <time>2022-10-30T04:46:41.000Z</time>
      </trkpt>
      <trkpt lat="27.741021" lon="86.712947">
        <ele>2643.4</ele>
        <time>2022-10-30T04:46:43.000Z</time>
      </trkpt>
      <trkpt lat="27.741002" lon="86.712947">
        <ele>2644.2</ele>
        <time>2022-10-30T04:46:44.000Z</time>
      </trkpt>
      <trkpt lat="27.740986" lon="86.712934">
        <ele>2643.8</ele>
        <time>2022-10-30T04:46:48.000Z</time>
      </trkpt>
      <trkpt lat="27.741008" lon="86.71289">
        <ele>2644.4</ele>
        <time>2022-10-30T04:46:52.000Z</time>
      </trkpt>
      <trkpt lat="27.741018" lon="86.71287">
        <ele>2644.6</ele>
        <time>2022-10-30T04:46:53.000Z</time>
      </trkpt>
      <trkpt lat="27.741002" lon="86.712845">
        <ele>2644.6</ele>
        <time>2022-10-30T04:46:55.000Z</time>
      </trkpt>
      <trkpt lat="27.740979" lon="86.712845">
        <ele>2644.6</ele>
        <time>2022-10-30T04:46:57.000Z</time>
      </trkpt>
      <trkpt lat="27.74096" lon="86.712845">
        <ele>2644.6</ele>
        <time>2022-10-30T04:46:59.000Z</time>
      </trkpt>
      <trkpt lat="27.740938" lon="86.712845">
        <ele>2644.8</ele>
        <time>2022-10-30T04:47:00.000Z</time>
      </trkpt>
      <trkpt lat="27.740912" lon="86.712845">
        <ele>2644.8</ele>
        <time>2022-10-30T04:47:02.000Z</time>
      </trkpt>
      <trkpt lat="27.74089" lon="86.712838">
        <ele>2645.4</ele>
        <time>2022-10-30T04:47:04.000Z</time>
      </trkpt>
      <trkpt lat="27.74087" lon="86.712838">
        <ele>2645.4</ele>
        <time>2022-10-30T04:47:06.000Z</time>
      </trkpt>
      <trkpt lat="27.740848" lon="86.712838">
        <ele>2645.6</ele>
        <time>2022-10-30T04:47:09.000Z</time>
      </trkpt>
      <trkpt lat="27.740829" lon="86.712838">
        <ele>2646</ele>
        <time>2022-10-30T04:47:11.000Z</time>
      </trkpt>
      <trkpt lat="27.740813" lon="86.712819">
        <ele>2645.8</ele>
        <time>2022-10-30T04:47:13.000Z</time>
      </trkpt>
      <trkpt lat="27.7408" lon="86.7128">
        <ele>2645.8</ele>
        <time>2022-10-30T04:47:15.000Z</time>
      </trkpt>
      <trkpt lat="27.740771" lon="86.712794">
        <ele>2646</ele>
        <time>2022-10-30T04:47:17.000Z</time>
      </trkpt>
      <trkpt lat="27.740752" lon="86.712781">
        <ele>2646</ele>
        <time>2022-10-30T04:47:18.000Z</time>
      </trkpt>
      <trkpt lat="27.740733" lon="86.712774">
        <ele>2645.8</ele>
        <time>2022-10-30T04:47:19.000Z</time>
      </trkpt>
      <trkpt lat="27.740717" lon="86.712762">
        <ele>2645.8</ele>
        <time>2022-10-30T04:47:21.000Z</time>
      </trkpt>
      <trkpt lat="27.740694" lon="86.712755">
        <ele>2646</ele>
        <time>2022-10-30T04:47:24.000Z</time>
      </trkpt>
      <trkpt lat="27.740662" lon="86.712749">
        <ele>2646.2</ele>
        <time>2022-10-30T04:47:26.000Z</time>
      </trkpt>
      <trkpt lat="27.740653" lon="86.71273">
        <ele>2646.2</ele>
        <time>2022-10-30T04:47:27.000Z</time>
      </trkpt>
      <trkpt lat="27.740634" lon="86.712723">
        <ele>2646.2</ele>
        <time>2022-10-30T04:47:29.000Z</time>
      </trkpt>
      <trkpt lat="27.740618" lon="86.71271">
        <ele>2646.6</ele>
        <time>2022-10-30T04:47:33.000Z</time>
      </trkpt>
      <trkpt lat="27.740611" lon="86.712691">
        <ele>2646.6</ele>
        <time>2022-10-30T04:47:36.000Z</time>
      </trkpt>
      <trkpt lat="27.740576" lon="86.712685">
        <ele>2647</ele>
        <time>2022-10-30T04:47:39.000Z</time>
      </trkpt>
      <trkpt lat="27.74055" lon="86.712678">
        <ele>2647.2</ele>
        <time>2022-10-30T04:47:42.000Z</time>
      </trkpt>
      <trkpt lat="27.740531" lon="86.712659">
        <ele>2647.8</ele>
        <time>2022-10-30T04:47:44.000Z</time>
      </trkpt>
      <trkpt lat="27.740512" lon="86.712646">
        <ele>2647.6</ele>
        <time>2022-10-30T04:47:46.000Z</time>
      </trkpt>
      <trkpt lat="27.74049" lon="86.712634">
        <ele>2647.6</ele>
        <time>2022-10-30T04:47:49.000Z</time>
      </trkpt>
      <trkpt lat="27.74047" lon="86.712621">
        <ele>2647.8</ele>
        <time>2022-10-30T04:47:51.000Z</time>
      </trkpt>
      <trkpt lat="27.740445" lon="86.712614">
        <ele>2647.6</ele>
        <time>2022-10-30T04:47:54.000Z</time>
      </trkpt>
      <trkpt lat="27.740426" lon="86.712608">
        <ele>2647.6</ele>
        <time>2022-10-30T04:47:56.000Z</time>
      </trkpt>
      <trkpt lat="27.740403" lon="86.712602">
        <ele>2647.6</ele>
        <time>2022-10-30T04:47:58.000Z</time>
      </trkpt>
      <trkpt lat="27.740381" lon="86.712582">
        <ele>2647.6</ele>
        <time>2022-10-30T04:48:00.000Z</time>
      </trkpt>
      <trkpt lat="27.740362" lon="86.712582">
        <ele>2647.8</ele>
        <time>2022-10-30T04:48:02.000Z</time>
      </trkpt>
      <trkpt lat="27.740342" lon="86.712595">
        <ele>2647.6</ele>
        <time>2022-10-30T04:48:04.000Z</time>
      </trkpt>
      <trkpt lat="27.74032" lon="86.712608">
        <ele>2647.6</ele>
        <time>2022-10-30T04:48:06.000Z</time>
      </trkpt>
      <trkpt lat="27.740298" lon="86.712621">
        <ele>2647</ele>
        <time>2022-10-30T04:48:09.000Z</time>
      </trkpt>
      <trkpt lat="27.740275" lon="86.712621">
        <ele>2647</ele>
        <time>2022-10-30T04:48:12.000Z</time>
      </trkpt>
      <trkpt lat="27.740269" lon="86.71264">
        <ele>2646.8</ele>
        <time>2022-10-30T04:48:14.000Z</time>
      </trkpt>
      <trkpt lat="27.740253" lon="86.712659">
        <ele>2646.4</ele>
        <time>2022-10-30T04:48:17.000Z</time>
      </trkpt>
      <trkpt lat="27.740246" lon="86.712678">
        <ele>2646</ele>
        <time>2022-10-30T04:48:19.000Z</time>
      </trkpt>
      <trkpt lat="27.740234" lon="86.712698">
        <ele>2645.6</ele>
        <time>2022-10-30T04:48:22.000Z</time>
      </trkpt>
      <trkpt lat="27.740218" lon="86.712717">
        <ele>2644.8</ele>
        <time>2022-10-30T04:48:24.000Z</time>
      </trkpt>
      <trkpt lat="27.740192" lon="86.712736">
        <ele>2644.6</ele>
        <time>2022-10-30T04:48:27.000Z</time>
      </trkpt>
      <trkpt lat="27.740173" lon="86.712755">
        <ele>2644.2</ele>
        <time>2022-10-30T04:48:29.000Z</time>
      </trkpt>
      <trkpt lat="27.740154" lon="86.712768">
        <ele>2644</ele>
        <time>2022-10-30T04:48:31.000Z</time>
      </trkpt>
      <trkpt lat="27.740138" lon="86.712781">
        <ele>2643.6</ele>
        <time>2022-10-30T04:48:34.000Z</time>
      </trkpt>
      <trkpt lat="27.740118" lon="86.712794">
        <ele>2643.6</ele>
        <time>2022-10-30T04:48:38.000Z</time>
      </trkpt>
      <trkpt lat="27.740096" lon="86.712794">
        <ele>2643.8</ele>
        <time>2022-10-30T04:48:41.000Z</time>
      </trkpt>
      <trkpt lat="27.740077" lon="86.712794">
        <ele>2643.2</ele>
        <time>2022-10-30T04:48:43.000Z</time>
      </trkpt>
      <trkpt lat="27.740058" lon="86.712794">
        <ele>2642.6</ele>
        <time>2022-10-30T04:48:45.000Z</time>
      </trkpt>
      <trkpt lat="27.740038" lon="86.712774">
        <ele>2642.2</ele>
        <time>2022-10-30T04:48:47.000Z</time>
      </trkpt>
      <trkpt lat="27.740019" lon="86.712755">
        <ele>2642</ele>
        <time>2022-10-30T04:48:49.000Z</time>
      </trkpt>
      <trkpt lat="27.740006" lon="86.712736">
        <ele>2642.4</ele>
        <time>2022-10-30T04:48:51.000Z</time>
      </trkpt>
      <trkpt lat="27.73999" lon="86.712717">
        <ele>2641.4</ele>
        <time>2022-10-30T04:48:58.000Z</time>
      </trkpt>
      <trkpt lat="27.739971" lon="86.712698">
        <ele>2641.6</ele>
        <time>2022-10-30T04:49:01.000Z</time>
      </trkpt>
      <trkpt lat="27.739955" lon="86.712678">
        <ele>2641.6</ele>
        <time>2022-10-30T04:49:04.000Z</time>
      </trkpt>
      <trkpt lat="27.739936" lon="86.712659">
        <ele>2641.4</ele>
        <time>2022-10-30T04:49:06.000Z</time>
      </trkpt>
      <trkpt lat="27.739914" lon="86.712646">
        <ele>2641.4</ele>
        <time>2022-10-30T04:49:09.000Z</time>
      </trkpt>
      <trkpt lat="27.739891" lon="86.712634">
        <ele>2641</ele>
        <time>2022-10-30T04:49:13.000Z</time>
      </trkpt>
      <trkpt lat="27.739878" lon="86.712614">
        <ele>2641</ele>
        <time>2022-10-30T04:49:15.000Z</time>
      </trkpt>
      <trkpt lat="27.739856" lon="86.712595">
        <ele>2640.8</ele>
        <time>2022-10-30T04:49:18.000Z</time>
      </trkpt>
      <trkpt lat="27.739837" lon="86.712576">
        <ele>2640.4</ele>
        <time>2022-10-30T04:49:20.000Z</time>
      </trkpt>
      <trkpt lat="27.739821" lon="86.712563">
        <ele>2640.4</ele>
        <time>2022-10-30T04:49:21.000Z</time>
      </trkpt>
      <trkpt lat="27.739811" lon="86.712538">
        <ele>2640.4</ele>
        <time>2022-10-30T04:49:22.000Z</time>
      </trkpt>
      <trkpt lat="27.739814" lon="86.712499">
        <ele>2640.6</ele>
        <time>2022-10-30T04:49:25.000Z</time>
      </trkpt>
      <trkpt lat="27.739789" lon="86.712493">
        <ele>2641</ele>
        <time>2022-10-30T04:49:27.000Z</time>
      </trkpt>
      <trkpt lat="27.739766" lon="86.712486">
        <ele>2641.6</ele>
        <time>2022-10-30T04:49:34.000Z</time>
      </trkpt>
      <trkpt lat="27.739757" lon="86.712461">
        <ele>2641.8</ele>
        <time>2022-10-30T04:49:36.000Z</time>
      </trkpt>
      <trkpt lat="27.739734" lon="86.712454">
        <ele>2641.8</ele>
        <time>2022-10-30T04:49:38.000Z</time>
      </trkpt>
      <trkpt lat="27.739715" lon="86.712448">
        <ele>2641.8</ele>
        <time>2022-10-30T04:49:40.000Z</time>
      </trkpt>
      <trkpt lat="27.739693" lon="86.712435">
        <ele>2642.2</ele>
        <time>2022-10-30T04:49:42.000Z</time>
      </trkpt>
      <trkpt lat="27.739667" lon="86.712422">
        <ele>2642.4</ele>
        <time>2022-10-30T04:49:45.000Z</time>
      </trkpt>
      <trkpt lat="27.739648" lon="86.71241">
        <ele>2642.4</ele>
        <time>2022-10-30T04:49:47.000Z</time>
      </trkpt>
      <trkpt lat="27.739626" lon="86.71241">
        <ele>2641.8</ele>
        <time>2022-10-30T04:49:49.000Z</time>
      </trkpt>
      <trkpt lat="27.739603" lon="86.71241">
        <ele>2641.4</ele>
        <time>2022-10-30T04:49:51.000Z</time>
      </trkpt>
      <trkpt lat="27.739581" lon="86.712403">
        <ele>2641.2</ele>
        <time>2022-10-30T04:49:53.000Z</time>
      </trkpt>
      <trkpt lat="27.739558" lon="86.71241">
        <ele>2641.2</ele>
        <time>2022-10-30T04:49:55.000Z</time>
      </trkpt>
      <trkpt lat="27.739539" lon="86.712403">
        <ele>2641.2</ele>
        <time>2022-10-30T04:49:58.000Z</time>
      </trkpt>
      <trkpt lat="27.73952" lon="86.712397">
        <ele>2641</ele>
        <time>2022-10-30T04:50:00.000Z</time>
      </trkpt>
      <trkpt lat="27.739501" lon="86.712371">
        <ele>2640.6</ele>
        <time>2022-10-30T04:50:02.000Z</time>
      </trkpt>
      <trkpt lat="27.739491" lon="86.712339">
        <ele>2639.6</ele>
        <time>2022-10-30T04:50:06.000Z</time>
      </trkpt>
      <trkpt lat="27.739472" lon="86.712352">
        <ele>2639.4</ele>
        <time>2022-10-30T04:50:10.000Z</time>
      </trkpt>
      <trkpt lat="27.739462" lon="86.712333">
        <ele>2639</ele>
        <time>2022-10-30T04:50:12.000Z</time>
      </trkpt>
      <trkpt lat="27.73944" lon="86.712333">
        <ele>2638.8</ele>
        <time>2022-10-30T04:50:14.000Z</time>
      </trkpt>
      <trkpt lat="27.739421" lon="86.712339">
        <ele>2638.4</ele>
        <time>2022-10-30T04:50:16.000Z</time>
      </trkpt>
      <trkpt lat="27.739398" lon="86.712339">
        <ele>2638</ele>
        <time>2022-10-30T04:50:18.000Z</time>
      </trkpt>
      <trkpt lat="27.739376" lon="86.712339">
        <ele>2637.6</ele>
        <time>2022-10-30T04:50:21.000Z</time>
      </trkpt>
      <trkpt lat="27.73935" lon="86.712339">
        <ele>2637.4</ele>
        <time>2022-10-30T04:50:30.000Z</time>
      </trkpt>
      <trkpt lat="27.739331" lon="86.712333">
        <ele>2637.4</ele>
        <time>2022-10-30T04:50:33.000Z</time>
      </trkpt>
      <trkpt lat="27.739309" lon="86.712326">
        <ele>2636.8</ele>
        <time>2022-10-30T04:50:36.000Z</time>
      </trkpt>
      <trkpt lat="27.73929" lon="86.712333">
        <ele>2635.6</ele>
        <time>2022-10-30T04:50:40.000Z</time>
      </trkpt>
      <trkpt lat="27.73927" lon="86.712326">
        <ele>2635.2</ele>
        <time>2022-10-30T04:50:42.000Z</time>
      </trkpt>
      <trkpt lat="27.739251" lon="86.712314">
        <ele>2634.4</ele>
        <time>2022-10-30T04:50:44.000Z</time>
      </trkpt>
      <trkpt lat="27.739232" lon="86.712314">
        <ele>2634.4</ele>
        <time>2022-10-30T04:50:45.000Z</time>
      </trkpt>
      <trkpt lat="27.73921" lon="86.71232">
        <ele>2634.6</ele>
        <time>2022-10-30T04:50:47.000Z</time>
      </trkpt>
      <trkpt lat="27.739181" lon="86.712314">
        <ele>2634.4</ele>
        <time>2022-10-30T04:50:49.000Z</time>
      </trkpt>
      <trkpt lat="27.739155" lon="86.712301">
        <ele>2634.2</ele>
        <time>2022-10-30T04:50:52.000Z</time>
      </trkpt>
      <trkpt lat="27.739123" lon="86.712294">
        <ele>2633.8</ele>
        <time>2022-10-30T04:50:54.000Z</time>
      </trkpt>
      <trkpt lat="27.739101" lon="86.712282">
        <ele>2633.6</ele>
        <time>2022-10-30T04:50:56.000Z</time>
      </trkpt>
      <trkpt lat="27.739072" lon="86.712275">
        <ele>2633.4</ele>
        <time>2022-10-30T04:50:59.000Z</time>
      </trkpt>
      <trkpt lat="27.739043" lon="86.712256">
        <ele>2633</ele>
        <time>2022-10-30T04:51:01.000Z</time>
      </trkpt>
      <trkpt lat="27.739024" lon="86.71225">
        <ele>2633</ele>
        <time>2022-10-30T04:51:03.000Z</time>
      </trkpt>
      <trkpt lat="27.739005" lon="86.712243">
        <ele>2633.4</ele>
        <time>2022-10-30T04:51:06.000Z</time>
      </trkpt>
      <trkpt lat="27.738982" lon="86.71225">
        <ele>2632.6</ele>
        <time>2022-10-30T04:51:10.000Z</time>
      </trkpt>
      <trkpt lat="27.73896" lon="86.712237">
        <ele>2632</ele>
        <time>2022-10-30T04:51:14.000Z</time>
      </trkpt>
      <trkpt lat="27.73895" lon="86.712218">
        <ele>2631</ele>
        <time>2022-10-30T04:51:17.000Z</time>
      </trkpt>
      <trkpt lat="27.738928" lon="86.712198">
        <ele>2630.8</ele>
        <time>2022-10-30T04:51:21.000Z</time>
      </trkpt>
      <trkpt lat="27.738909" lon="86.712186">
        <ele>2630</ele>
        <time>2022-10-30T04:51:24.000Z</time>
      </trkpt>
      <trkpt lat="27.738886" lon="86.712173">
        <ele>2629.6</ele>
        <time>2022-10-30T04:51:27.000Z</time>
      </trkpt>
      <trkpt lat="27.738867" lon="86.71216">
        <ele>2629.2</ele>
        <time>2022-10-30T04:51:29.000Z</time>
      </trkpt>
      <trkpt lat="27.738858" lon="86.712141">
        <ele>2629</ele>
        <time>2022-10-30T04:51:31.000Z</time>
      </trkpt>
      <trkpt lat="27.738832" lon="86.712134">
        <ele>2628.2</ele>
        <time>2022-10-30T04:51:34.000Z</time>
      </trkpt>
      <trkpt lat="27.738822" lon="86.712102">
        <ele>2628</ele>
        <time>2022-10-30T04:51:36.000Z</time>
      </trkpt>
      <trkpt lat="27.738813" lon="86.712077">
        <ele>2627</ele>
        <time>2022-10-30T04:51:39.000Z</time>
      </trkpt>
      <trkpt lat="27.738794" lon="86.712058">
        <ele>2626.4</ele>
        <time>2022-10-30T04:51:41.000Z</time>
      </trkpt>
      <trkpt lat="27.738774" lon="86.712026">
        <ele>2626</ele>
        <time>2022-10-30T04:51:44.000Z</time>
      </trkpt>
      <trkpt lat="27.738755" lon="86.712013">
        <ele>2625.6</ele>
        <time>2022-10-30T04:51:46.000Z</time>
      </trkpt>
      <trkpt lat="27.73873" lon="86.712006">
        <ele>2625.2</ele>
        <time>2022-10-30T04:51:49.000Z</time>
      </trkpt>
      <trkpt lat="27.738707" lon="86.711987">
        <ele>2625.2</ele>
        <time>2022-10-30T04:51:51.000Z</time>
      </trkpt>
      <trkpt lat="27.738685" lon="86.711974">
        <ele>2624.8</ele>
        <time>2022-10-30T04:51:53.000Z</time>
      </trkpt>
      <trkpt lat="27.738666" lon="86.711962">
        <ele>2624</ele>
        <time>2022-10-30T04:51:55.000Z</time>
      </trkpt>
      <trkpt lat="27.738653" lon="86.711942">
        <ele>2624</ele>
        <time>2022-10-30T04:51:57.000Z</time>
      </trkpt>
      <trkpt lat="27.738627" lon="86.71193">
        <ele>2623.8</ele>
        <time>2022-10-30T04:52:00.000Z</time>
      </trkpt>
      <trkpt lat="27.738598" lon="86.711923">
        <ele>2623.6</ele>
        <time>2022-10-30T04:52:03.000Z</time>
      </trkpt>
      <trkpt lat="27.738586" lon="86.711904">
        <ele>2623</ele>
        <time>2022-10-30T04:52:05.000Z</time>
      </trkpt>
      <trkpt lat="27.738566" lon="86.711898">
        <ele>2622</ele>
        <time>2022-10-30T04:52:08.000Z</time>
      </trkpt>
      <trkpt lat="27.738544" lon="86.711898">
        <ele>2621.4</ele>
        <time>2022-10-30T04:52:11.000Z</time>
      </trkpt>
      <trkpt lat="27.738525" lon="86.711891">
        <ele>2620.6</ele>
        <time>2022-10-30T04:52:13.000Z</time>
      </trkpt>
      <trkpt lat="27.738502" lon="86.711891">
        <ele>2620.4</ele>
        <time>2022-10-30T04:52:16.000Z</time>
      </trkpt>
      <trkpt lat="27.738477" lon="86.711878">
        <ele>2620</ele>
        <time>2022-10-30T04:52:19.000Z</time>
      </trkpt>
      <trkpt lat="27.738454" lon="86.711878">
        <ele>2619.4</ele>
        <time>2022-10-30T04:52:21.000Z</time>
      </trkpt>
      <trkpt lat="27.738426" lon="86.711866">
        <ele>2619</ele>
        <time>2022-10-30T04:52:23.000Z</time>
      </trkpt>
      <trkpt lat="27.73841" lon="86.711878">
        <ele>2618.8</ele>
        <time>2022-10-30T04:52:25.000Z</time>
      </trkpt>
      <trkpt lat="27.738381" lon="86.711885">
        <ele>2618.4</ele>
        <time>2022-10-30T04:52:28.000Z</time>
      </trkpt>
      <trkpt lat="27.738358" lon="86.711885">
        <ele>2618</ele>
        <time>2022-10-30T04:52:30.000Z</time>
      </trkpt>
      <trkpt lat="27.738339" lon="86.711885">
        <ele>2618</ele>
        <time>2022-10-30T04:52:32.000Z</time>
      </trkpt>
      <trkpt lat="27.738317" lon="86.711891">
        <ele>2618.2</ele>
        <time>2022-10-30T04:52:34.000Z</time>
      </trkpt>
      <trkpt lat="27.738301" lon="86.711904">
        <ele>2618</ele>
        <time>2022-10-30T04:52:36.000Z</time>
      </trkpt>
      <trkpt lat="27.738282" lon="86.711923">
        <ele>2617.6</ele>
        <time>2022-10-30T04:52:38.000Z</time>
      </trkpt>
      <trkpt lat="27.738266" lon="86.711936">
        <ele>2617.6</ele>
        <time>2022-10-30T04:52:40.000Z</time>
      </trkpt>
      <trkpt lat="27.73824" lon="86.711942">
        <ele>2617.6</ele>
        <time>2022-10-30T04:52:42.000Z</time>
      </trkpt>
      <trkpt lat="27.738214" lon="86.711936">
        <ele>2617.4</ele>
        <time>2022-10-30T04:52:44.000Z</time>
      </trkpt>
      <trkpt lat="27.738192" lon="86.711936">
        <ele>2616.8</ele>
        <time>2022-10-30T04:52:46.000Z</time>
      </trkpt>
      <trkpt lat="27.73817" lon="86.711942">
        <ele>2617</ele>
        <time>2022-10-30T04:52:48.000Z</time>
      </trkpt>
      <trkpt lat="27.738141" lon="86.711955">
        <ele>2616.4</ele>
        <time>2022-10-30T04:52:50.000Z</time>
      </trkpt>
      <trkpt lat="27.738115" lon="86.711962">
        <ele>2616.4</ele>
        <time>2022-10-30T04:52:52.000Z</time>
      </trkpt>
      <trkpt lat="27.738096" lon="86.711974">
        <ele>2616</ele>
        <time>2022-10-30T04:52:54.000Z</time>
      </trkpt>
      <trkpt lat="27.738074" lon="86.711981">
        <ele>2615.8</ele>
        <time>2022-10-30T04:52:56.000Z</time>
      </trkpt>
      <trkpt lat="27.738051" lon="86.711987">
        <ele>2616</ele>
        <time>2022-10-30T04:52:59.000Z</time>
      </trkpt>
      <trkpt lat="27.738038" lon="86.712006">
        <ele>2616</ele>
        <time>2022-10-30T04:53:01.000Z</time>
      </trkpt>
      <trkpt lat="27.738016" lon="86.712013">
        <ele>2615.8</ele>
        <time>2022-10-30T04:53:03.000Z</time>
      </trkpt>
      <trkpt lat="27.737997" lon="86.712026">
        <ele>2615.8</ele>
        <time>2022-10-30T04:53:05.000Z</time>
      </trkpt>
      <trkpt lat="27.737978" lon="86.712045">
        <ele>2615.6</ele>
        <time>2022-10-30T04:53:07.000Z</time>
      </trkpt>
      <trkpt lat="27.737955" lon="86.712058">
        <ele>2615.4</ele>
        <time>2022-10-30T04:53:09.000Z</time>
      </trkpt>
      <trkpt lat="27.737926" lon="86.712058">
        <ele>2615.2</ele>
        <time>2022-10-30T04:53:11.000Z</time>
      </trkpt>
      <trkpt lat="27.737888" lon="86.712077">
        <ele>2615.4</ele>
        <time>2022-10-30T04:53:13.000Z</time>
      </trkpt>
      <trkpt lat="27.737869" lon="86.71209">
        <ele>2615</ele>
        <time>2022-10-30T04:53:15.000Z</time>
      </trkpt>
      <trkpt lat="27.737853" lon="86.712102">
        <ele>2615</ele>
        <time>2022-10-30T04:53:17.000Z</time>
      </trkpt>
      <trkpt lat="27.73783" lon="86.712115">
        <ele>2615</ele>
        <time>2022-10-30T04:53:19.000Z</time>
      </trkpt>
      <trkpt lat="27.737805" lon="86.712128">
        <ele>2615</ele>
        <time>2022-10-30T04:53:21.000Z</time>
      </trkpt>
      <trkpt lat="27.737782" lon="86.712134">
        <ele>2615</ele>
        <time>2022-10-30T04:53:24.000Z</time>
      </trkpt>
      <trkpt lat="27.737763" lon="86.712134">
        <ele>2615</ele>
        <time>2022-10-30T04:53:26.000Z</time>
      </trkpt>
      <trkpt lat="27.737741" lon="86.712141">
        <ele>2615.2</ele>
        <time>2022-10-30T04:53:28.000Z</time>
      </trkpt>
      <trkpt lat="27.737725" lon="86.71216">
        <ele>2615.2</ele>
        <time>2022-10-30T04:53:30.000Z</time>
      </trkpt>
      <trkpt lat="27.737706" lon="86.712179">
        <ele>2615.2</ele>
        <time>2022-10-30T04:53:33.000Z</time>
      </trkpt>
      <trkpt lat="27.737693" lon="86.712198">
        <ele>2614.8</ele>
        <time>2022-10-30T04:53:35.000Z</time>
      </trkpt>
      <trkpt lat="27.737677" lon="86.712211">
        <ele>2614.6</ele>
        <time>2022-10-30T04:53:38.000Z</time>
      </trkpt>
      <trkpt lat="27.737667" lon="86.712237">
        <ele>2614.6</ele>
        <time>2022-10-30T04:53:40.000Z</time>
      </trkpt>
      <trkpt lat="27.737645" lon="86.712224">
        <ele>2614.4</ele>
        <time>2022-10-30T04:53:42.000Z</time>
      </trkpt>
      <trkpt lat="27.737619" lon="86.712224">
        <ele>2614.4</ele>
        <time>2022-10-30T04:53:45.000Z</time>
      </trkpt>
      <trkpt lat="27.737603" lon="86.712237">
        <ele>2614</ele>
        <time>2022-10-30T04:53:47.000Z</time>
      </trkpt>
      <trkpt lat="27.737584" lon="86.712224">
        <ele>2614.4</ele>
        <time>2022-10-30T04:53:50.000Z</time>
      </trkpt>
      <trkpt lat="27.737565" lon="86.712224">
        <ele>2614.8</ele>
        <time>2022-10-30T04:53:54.000Z</time>
      </trkpt>
      <trkpt lat="27.737542" lon="86.712237">
        <ele>2614.8</ele>
        <time>2022-10-30T04:53:56.000Z</time>
      </trkpt>
      <trkpt lat="27.73752" lon="86.712243">
        <ele>2614.8</ele>
        <time>2022-10-30T04:53:57.000Z</time>
      </trkpt>
      <trkpt lat="27.737485" lon="86.712262">
        <ele>2615</ele>
        <time>2022-10-30T04:53:58.000Z</time>
      </trkpt>
      <trkpt lat="27.737475" lon="86.712243">
        <ele>2615.6</ele>
        <time>2022-10-30T04:54:02.000Z</time>
      </trkpt>
      <trkpt lat="27.737446" lon="86.712243">
        <ele>2616.4</ele>
        <time>2022-10-30T04:54:05.000Z</time>
      </trkpt>
      <trkpt lat="27.737414" lon="86.712237">
        <ele>2616.6</ele>
        <time>2022-10-30T04:54:08.000Z</time>
      </trkpt>
      <trkpt lat="27.737395" lon="86.712224">
        <ele>2616.4</ele>
        <time>2022-10-30T04:54:10.000Z</time>
      </trkpt>
      <trkpt lat="27.737376" lon="86.712218">
        <ele>2616.4</ele>
        <time>2022-10-30T04:54:13.000Z</time>
      </trkpt>
      <trkpt lat="27.737366" lon="86.712186">
        <ele>2616.4</ele>
        <time>2022-10-30T04:54:15.000Z</time>
      </trkpt>
      <trkpt lat="27.737328" lon="86.712186">
        <ele>2616.4</ele>
        <time>2022-10-30T04:54:17.000Z</time>
      </trkpt>
      <trkpt lat="27.737318" lon="86.712154">
        <ele>2616.4</ele>
        <time>2022-10-30T04:54:20.000Z</time>
      </trkpt>
      <trkpt lat="27.737309" lon="86.712134">
        <ele>2616.4</ele>
        <time>2022-10-30T04:54:23.000Z</time>
      </trkpt>
      <trkpt lat="27.737286" lon="86.712122">
        <ele>2616.6</ele>
        <time>2022-10-30T04:54:25.000Z</time>
      </trkpt>
      <trkpt lat="27.737264" lon="86.712122">
        <ele>2617</ele>
        <time>2022-10-30T04:54:27.000Z</time>
      </trkpt>
      <trkpt lat="27.737254" lon="86.712102">
        <ele>2617</ele>
        <time>2022-10-30T04:54:29.000Z</time>
      </trkpt>
      <trkpt lat="27.737226" lon="86.712115">
        <ele>2617.2</ele>
        <time>2022-10-30T04:54:31.000Z</time>
      </trkpt>
      <trkpt lat="27.737206" lon="86.712115">
        <ele>2617.2</ele>
        <time>2022-10-30T04:54:33.000Z</time>
      </trkpt>
      <trkpt lat="27.737187" lon="86.712115">
        <ele>2617.4</ele>
        <time>2022-10-30T04:54:35.000Z</time>
      </trkpt>
      <trkpt lat="27.737171" lon="86.712102">
        <ele>2617.4</ele>
        <time>2022-10-30T04:54:36.000Z</time>
      </trkpt>
      <trkpt lat="27.737155" lon="86.712122">
        <ele>2617.4</ele>
        <time>2022-10-30T04:54:37.000Z</time>
      </trkpt>
      <trkpt lat="27.737136" lon="86.712128">
        <ele>2617.2</ele>
        <time>2022-10-30T04:54:38.000Z</time>
      </trkpt>
      <trkpt lat="27.737114" lon="86.712134">
        <ele>2617</ele>
        <time>2022-10-30T04:54:40.000Z</time>
      </trkpt>
      <trkpt lat="27.737088" lon="86.712128">
        <ele>2616.8</ele>
        <time>2022-10-30T04:54:42.000Z</time>
      </trkpt>
      <trkpt lat="27.737062" lon="86.712115">
        <ele>2615.6</ele>
        <time>2022-10-30T04:54:46.000Z</time>
      </trkpt>
      <trkpt lat="27.737043" lon="86.712096">
        <ele>2615.4</ele>
        <time>2022-10-30T04:54:48.000Z</time>
      </trkpt>
      <trkpt lat="27.737021" lon="86.712083">
        <ele>2615.4</ele>
        <time>2022-10-30T04:54:50.000Z</time>
      </trkpt>
      <trkpt lat="27.736989" lon="86.712077">
        <ele>2615.2</ele>
        <time>2022-10-30T04:54:52.000Z</time>
      </trkpt>
      <trkpt lat="27.73697" lon="86.712077">
        <ele>2615.2</ele>
        <time>2022-10-30T04:54:54.000Z</time>
      </trkpt>
      <trkpt lat="27.736957" lon="86.712058">
        <ele>2615.4</ele>
        <time>2022-10-30T04:54:56.000Z</time>
      </trkpt>
      <trkpt lat="27.736938" lon="86.712045">
        <ele>2615.6</ele>
        <time>2022-10-30T04:54:59.000Z</time>
      </trkpt>
      <trkpt lat="27.736925" lon="86.712">
        <ele>2615.2</ele>
        <time>2022-10-30T04:55:03.000Z</time>
      </trkpt>
      <trkpt lat="27.736906" lon="86.712">
        <ele>2614.8</ele>
        <time>2022-10-30T04:55:05.000Z</time>
      </trkpt>
      <trkpt lat="27.736886" lon="86.711981">
        <ele>2614.6</ele>
        <time>2022-10-30T04:55:07.000Z</time>
      </trkpt>
      <trkpt lat="27.736864" lon="86.711981">
        <ele>2614</ele>
        <time>2022-10-30T04:55:10.000Z</time>
      </trkpt>
      <trkpt lat="27.736842" lon="86.712">
        <ele>2613.8</ele>
        <time>2022-10-30T04:55:14.000Z</time>
      </trkpt>
      <trkpt lat="27.736819" lon="86.712013">
        <ele>2613.4</ele>
        <time>2022-10-30T04:55:16.000Z</time>
      </trkpt>
      <trkpt lat="27.7368" lon="86.712045">
        <ele>2613.4</ele>
        <time>2022-10-30T04:55:18.000Z</time>
      </trkpt>
      <trkpt lat="27.736781" lon="86.712051">
        <ele>2613.4</ele>
        <time>2022-10-30T04:55:20.000Z</time>
      </trkpt>
      <trkpt lat="27.736755" lon="86.712045">
        <ele>2612.4</ele>
        <time>2022-10-30T04:55:23.000Z</time>
      </trkpt>
      <trkpt lat="27.736736" lon="86.712038">
        <ele>2612.2</ele>
        <time>2022-10-30T04:55:25.000Z</time>
      </trkpt>
      <trkpt lat="27.736717" lon="86.712026">
        <ele>2611.8</ele>
        <time>2022-10-30T04:55:27.000Z</time>
      </trkpt>
      <trkpt lat="27.736691" lon="86.712013">
        <ele>2611.8</ele>
        <time>2022-10-30T04:55:29.000Z</time>
      </trkpt>
      <trkpt lat="27.736669" lon="86.712006">
        <ele>2611.6</ele>
        <time>2022-10-30T04:55:31.000Z</time>
      </trkpt>
      <trkpt lat="27.736643" lon="86.711987">
        <ele>2611.4</ele>
        <time>2022-10-30T04:55:33.000Z</time>
      </trkpt>
      <trkpt lat="27.736627" lon="86.712">
        <ele>2611.4</ele>
        <time>2022-10-30T04:55:35.000Z</time>
      </trkpt>
      <trkpt lat="27.736602" lon="86.711987">
        <ele>2610.8</ele>
        <time>2022-10-30T04:55:37.000Z</time>
      </trkpt>
      <trkpt lat="27.736573" lon="86.711981">
        <ele>2610.8</ele>
        <time>2022-10-30T04:55:39.000Z</time>
      </trkpt>
      <trkpt lat="27.736547" lon="86.711981">
        <ele>2611.2</ele>
        <time>2022-10-30T04:55:42.000Z</time>
      </trkpt>
      <trkpt lat="27.736502" lon="86.711974">
        <ele>2610.6</ele>
        <time>2022-10-30T04:55:48.000Z</time>
      </trkpt>
      <trkpt lat="27.73648" lon="86.711968">
        <ele>2610.4</ele>
        <time>2022-10-30T04:55:51.000Z</time>
      </trkpt>
      <trkpt lat="27.736445" lon="86.711962">
        <ele>2609.8</ele>
        <time>2022-10-30T04:55:54.000Z</time>
      </trkpt>
      <trkpt lat="27.736422" lon="86.711942">
        <ele>2609.8</ele>
        <time>2022-10-30T04:55:56.000Z</time>
      </trkpt>
      <trkpt lat="27.736406" lon="86.711923">
        <ele>2609</ele>
        <time>2022-10-30T04:55:58.000Z</time>
      </trkpt>
      <trkpt lat="27.736403" lon="86.711891">
        <ele>2609.2</ele>
        <time>2022-10-30T04:56:00.000Z</time>
      </trkpt>
      <trkpt lat="27.736381" lon="86.711866">
        <ele>2609</ele>
        <time>2022-10-30T04:56:03.000Z</time>
      </trkpt>
      <trkpt lat="27.736358" lon="86.711859">
        <ele>2610</ele>
        <time>2022-10-30T04:56:06.000Z</time>
      </trkpt>
      <trkpt lat="27.736333" lon="86.711846">
        <ele>2610</ele>
        <time>2022-10-30T04:56:09.000Z</time>
      </trkpt>
      <trkpt lat="27.73631" lon="86.711859">
        <ele>2610.8</ele>
        <time>2022-10-30T04:56:12.000Z</time>
      </trkpt>
      <trkpt lat="27.736285" lon="86.711853">
        <ele>2611</ele>
        <time>2022-10-30T04:56:14.000Z</time>
      </trkpt>
      <trkpt lat="27.736262" lon="86.711853">
        <ele>2610.8</ele>
        <time>2022-10-30T04:56:16.000Z</time>
      </trkpt>
      <trkpt lat="27.73624" lon="86.711853">
        <ele>2611</ele>
        <time>2022-10-30T04:56:18.000Z</time>
      </trkpt>
      <trkpt lat="27.736221" lon="86.711853">
        <ele>2611</ele>
        <time>2022-10-30T04:56:20.000Z</time>
      </trkpt>
      <trkpt lat="27.736202" lon="86.711859">
        <ele>2610.8</ele>
        <time>2022-10-30T04:56:22.000Z</time>
      </trkpt>
      <trkpt lat="27.736182" lon="86.711866">
        <ele>2611</ele>
        <time>2022-10-30T04:56:24.000Z</time>
      </trkpt>
      <trkpt lat="27.736157" lon="86.711878">
        <ele>2610.6</ele>
        <time>2022-10-30T04:56:26.000Z</time>
      </trkpt>
      <trkpt lat="27.736134" lon="86.711885">
        <ele>2610.4</ele>
        <time>2022-10-30T04:56:29.000Z</time>
      </trkpt>
      <trkpt lat="27.736112" lon="86.711891">
        <ele>2610</ele>
        <time>2022-10-30T04:56:32.000Z</time>
      </trkpt>
      <trkpt lat="27.73609" lon="86.711891">
        <ele>2608.8</ele>
        <time>2022-10-30T04:56:35.000Z</time>
      </trkpt>
      <trkpt lat="27.736074" lon="86.711878">
        <ele>2608.6</ele>
        <time>2022-10-30T04:56:39.000Z</time>
      </trkpt>
      <trkpt lat="27.736051" lon="86.711878">
        <ele>2607.6</ele>
        <time>2022-10-30T04:56:45.000Z</time>
      </trkpt>
      <trkpt lat="27.736032" lon="86.711878">
        <ele>2607.4</ele>
        <time>2022-10-30T04:56:47.000Z</time>
      </trkpt>
      <trkpt lat="27.736013" lon="86.711891">
        <ele>2606.2</ele>
        <time>2022-10-30T04:56:50.000Z</time>
      </trkpt>
      <trkpt lat="27.735994" lon="86.711891">
        <ele>2606</ele>
        <time>2022-10-30T04:56:54.000Z</time>
      </trkpt>
      <trkpt lat="27.735978" lon="86.711878">
        <ele>2606.8</ele>
        <time>2022-10-30T04:56:57.000Z</time>
      </trkpt>
      <trkpt lat="27.735968" lon="86.711853">
        <ele>2606.4</ele>
        <time>2022-10-30T04:57:00.000Z</time>
      </trkpt>
      <trkpt lat="27.735965" lon="86.711827">
        <ele>2604.6</ele>
        <time>2022-10-30T04:57:03.000Z</time>
      </trkpt>
      <trkpt lat="27.735942" lon="86.711821">
        <ele>2603.8</ele>
        <time>2022-10-30T04:57:06.000Z</time>
      </trkpt>
      <trkpt lat="27.735923" lon="86.711814">
        <ele>2602.8</ele>
        <time>2022-10-30T04:57:09.000Z</time>
      </trkpt>
      <trkpt lat="27.735904" lon="86.711821">
        <ele>2602</ele>
        <time>2022-10-30T04:57:13.000Z</time>
      </trkpt>
      <trkpt lat="27.735885" lon="86.711814">
        <ele>2601.4</ele>
        <time>2022-10-30T04:57:16.000Z</time>
      </trkpt>
      <trkpt lat="27.735862" lon="86.711814">
        <ele>2599.8</ele>
        <time>2022-10-30T04:57:19.000Z</time>
      </trkpt>
      <trkpt lat="27.735837" lon="86.711808">
        <ele>2599.4</ele>
        <time>2022-10-30T04:57:22.000Z</time>
      </trkpt>
      <trkpt lat="27.735814" lon="86.711808">
        <ele>2598.6</ele>
        <time>2022-10-30T04:57:25.000Z</time>
      </trkpt>
      <trkpt lat="27.735795" lon="86.711808">
        <ele>2598.2</ele>
        <time>2022-10-30T04:57:27.000Z</time>
      </trkpt>
      <trkpt lat="27.735773" lon="86.711808">
        <ele>2597.6</ele>
        <time>2022-10-30T04:57:29.000Z</time>
      </trkpt>
      <trkpt lat="27.735754" lon="86.711814">
        <ele>2597.2</ele>
        <time>2022-10-30T04:57:31.000Z</time>
      </trkpt>
      <trkpt lat="27.735728" lon="86.711827">
        <ele>2597</ele>
        <time>2022-10-30T04:57:33.000Z</time>
      </trkpt>
      <trkpt lat="27.735706" lon="86.71184">
        <ele>2596.6</ele>
        <time>2022-10-30T04:57:35.000Z</time>
      </trkpt>
      <trkpt lat="27.73568" lon="86.71184">
        <ele>2596.6</ele>
        <time>2022-10-30T04:57:37.000Z</time>
      </trkpt>
      <trkpt lat="27.735658" lon="86.711846">
        <ele>2596.6</ele>
        <time>2022-10-30T04:57:39.000Z</time>
      </trkpt>
      <trkpt lat="27.735635" lon="86.711853">
        <ele>2596.4</ele>
        <time>2022-10-30T04:57:41.000Z</time>
      </trkpt>
      <trkpt lat="27.735616" lon="86.711859">
        <ele>2596.2</ele>
        <time>2022-10-30T04:57:43.000Z</time>
      </trkpt>
      <trkpt lat="27.735594" lon="86.711878">
        <ele>2596.2</ele>
        <time>2022-10-30T04:57:45.000Z</time>
      </trkpt>
      <trkpt lat="27.735578" lon="86.711891">
        <ele>2596.4</ele>
        <time>2022-10-30T04:57:47.000Z</time>
      </trkpt>
      <trkpt lat="27.735552" lon="86.711891">
        <ele>2596.2</ele>
        <time>2022-10-30T04:57:50.000Z</time>
      </trkpt>
      <trkpt lat="27.735526" lon="86.711904">
        <ele>2596.2</ele>
        <time>2022-10-30T04:57:52.000Z</time>
      </trkpt>
      <trkpt lat="27.735501" lon="86.711904">
        <ele>2596.2</ele>
        <time>2022-10-30T04:57:54.000Z</time>
      </trkpt>
      <trkpt lat="27.735478" lon="86.711917">
        <ele>2596</ele>
        <time>2022-10-30T04:57:56.000Z</time>
      </trkpt>
      <trkpt lat="27.73545" lon="86.711917">
        <ele>2596.2</ele>
        <time>2022-10-30T04:57:58.000Z</time>
      </trkpt>
      <trkpt lat="27.735424" lon="86.711917">
        <ele>2596.4</ele>
        <time>2022-10-30T04:58:00.000Z</time>
      </trkpt>
      <trkpt lat="27.735402" lon="86.71193">
        <ele>2595.8</ele>
        <time>2022-10-30T04:58:03.000Z</time>
      </trkpt>
      <trkpt lat="27.735382" lon="86.711936">
        <ele>2596</ele>
        <time>2022-10-30T04:58:05.000Z</time>
      </trkpt>
      <trkpt lat="27.735366" lon="86.711955">
        <ele>2596.2</ele>
        <time>2022-10-30T04:58:07.000Z</time>
      </trkpt>
      <trkpt lat="27.735347" lon="86.711955">
        <ele>2596.2</ele>
        <time>2022-10-30T04:58:09.000Z</time>
      </trkpt>
      <trkpt lat="27.735328" lon="86.711942">
        <ele>2596.2</ele>
        <time>2022-10-30T04:58:11.000Z</time>
      </trkpt>
      <trkpt lat="27.735306" lon="86.711955">
        <ele>2595.6</ele>
        <time>2022-10-30T04:58:13.000Z</time>
      </trkpt>
      <trkpt lat="27.735283" lon="86.711968">
        <ele>2595.6</ele>
        <time>2022-10-30T04:58:15.000Z</time>
      </trkpt>
      <trkpt lat="27.735267" lon="86.711981">
        <ele>2595.4</ele>
        <time>2022-10-30T04:58:17.000Z</time>
      </trkpt>
      <trkpt lat="27.735238" lon="86.711987">
        <ele>2595</ele>
        <time>2022-10-30T04:58:19.000Z</time>
      </trkpt>
      <trkpt lat="27.735213" lon="86.711981">
        <ele>2595</ele>
        <time>2022-10-30T04:58:21.000Z</time>
      </trkpt>
      <trkpt lat="27.73519" lon="86.711974">
        <ele>2595.2</ele>
        <time>2022-10-30T04:58:24.000Z</time>
      </trkpt>
      <trkpt lat="27.735171" lon="86.711987">
        <ele>2595.2</ele>
        <time>2022-10-30T04:58:27.000Z</time>
      </trkpt>
      <trkpt lat="27.735155" lon="86.712">
        <ele>2595.6</ele>
        <time>2022-10-30T04:58:29.000Z</time>
      </trkpt>
      <trkpt lat="27.73513" lon="86.711987">
        <ele>2595.6</ele>
        <time>2022-10-30T04:58:31.000Z</time>
      </trkpt>
      <trkpt lat="27.73511" lon="86.712">
        <ele>2595.4</ele>
        <time>2022-10-30T04:58:34.000Z</time>
      </trkpt>
      <trkpt lat="27.735094" lon="86.712019">
        <ele>2595.4</ele>
        <time>2022-10-30T04:58:36.000Z</time>
      </trkpt>
      <trkpt lat="27.735082" lon="86.712051">
        <ele>2595.8</ele>
        <time>2022-10-30T04:58:38.000Z</time>
      </trkpt>
      <trkpt lat="27.735062" lon="86.712064">
        <ele>2596</ele>
        <time>2022-10-30T04:58:41.000Z</time>
      </trkpt>
      <trkpt lat="27.735043" lon="86.712051">
        <ele>2596.6</ele>
        <time>2022-10-30T04:58:44.000Z</time>
      </trkpt>
      <trkpt lat="27.735024" lon="86.712045">
        <ele>2597</ele>
        <time>2022-10-30T04:58:47.000Z</time>
      </trkpt>
      <trkpt lat="27.735005" lon="86.712051">
        <ele>2597.6</ele>
        <time>2022-10-30T04:58:50.000Z</time>
      </trkpt>
      <trkpt lat="27.734992" lon="86.712026">
        <ele>2599</ele>
        <time>2022-10-30T04:58:56.000Z</time>
      </trkpt>
      <trkpt lat="27.734973" lon="86.712013">
        <ele>2599.4</ele>
        <time>2022-10-30T04:58:59.000Z</time>
      </trkpt>
      <trkpt lat="27.73495" lon="86.712006">
        <ele>2599.6</ele>
        <time>2022-10-30T04:59:02.000Z</time>
      </trkpt>
      <trkpt lat="27.734928" lon="86.712">
        <ele>2599.2</ele>
        <time>2022-10-30T04:59:05.000Z</time>
      </trkpt>
      <trkpt lat="27.734912" lon="86.711987">
        <ele>2599.6</ele>
        <time>2022-10-30T04:59:07.000Z</time>
      </trkpt>
      <trkpt lat="27.734893" lon="86.711987">
        <ele>2600</ele>
        <time>2022-10-30T04:59:10.000Z</time>
      </trkpt>
      <trkpt lat="27.734883" lon="86.712006">
        <ele>2600.4</ele>
        <time>2022-10-30T04:59:13.000Z</time>
      </trkpt>
      <trkpt lat="27.734864" lon="86.712013">
        <ele>2601.4</ele>
        <time>2022-10-30T04:59:18.000Z</time>
      </trkpt>
      <trkpt lat="27.734845" lon="86.712019">
        <ele>2601.8</ele>
        <time>2022-10-30T04:59:21.000Z</time>
      </trkpt>
      <trkpt lat="27.734832" lon="86.712038">
        <ele>2602</ele>
        <time>2022-10-30T04:59:25.000Z</time>
      </trkpt>
      <trkpt lat="27.734816" lon="86.712051">
        <ele>2602.6</ele>
        <time>2022-10-30T04:59:28.000Z</time>
      </trkpt>
      <trkpt lat="27.734803" lon="86.712077">
        <ele>2603</ele>
        <time>2022-10-30T04:59:33.000Z</time>
      </trkpt>
      <trkpt lat="27.734784" lon="86.712096">
        <ele>2604</ele>
        <time>2022-10-30T04:59:39.000Z</time>
      </trkpt>
      <trkpt lat="27.734765" lon="86.712102">
        <ele>2604.2</ele>
        <time>2022-10-30T04:59:42.000Z</time>
      </trkpt>
      <trkpt lat="27.734746" lon="86.712122">
        <ele>2604.4</ele>
        <time>2022-10-30T04:59:45.000Z</time>
      </trkpt>
      <trkpt lat="27.734726" lon="86.712122">
        <ele>2604.6</ele>
        <time>2022-10-30T04:59:48.000Z</time>
      </trkpt>
      <trkpt lat="27.73471" lon="86.712134">
        <ele>2604.8</ele>
        <time>2022-10-30T04:59:51.000Z</time>
      </trkpt>
      <trkpt lat="27.734698" lon="86.712154">
        <ele>2606</ele>
        <time>2022-10-30T04:59:56.000Z</time>
      </trkpt>
      <trkpt lat="27.734682" lon="86.712166">
        <ele>2606.8</ele>
        <time>2022-10-30T05:00:01.000Z</time>
      </trkpt>
      <trkpt lat="27.734669" lon="86.712186">
        <ele>2607.2</ele>
        <time>2022-10-30T05:00:05.000Z</time>
      </trkpt>
      <trkpt lat="27.734659" lon="86.712205">
        <ele>2607.2</ele>
        <time>2022-10-30T05:00:08.000Z</time>
      </trkpt>
      <trkpt lat="27.734634" lon="86.712211">
        <ele>2607.4</ele>
        <time>2022-10-30T05:00:13.000Z</time>
      </trkpt>
      <trkpt lat="27.734618" lon="86.712224">
        <ele>2607.8</ele>
        <time>2022-10-30T05:00:17.000Z</time>
      </trkpt>
      <trkpt lat="27.734611" lon="86.71225">
        <ele>2608.4</ele>
        <time>2022-10-30T05:00:21.000Z</time>
      </trkpt>
      <trkpt lat="27.734605" lon="86.712275">
        <ele>2609</ele>
        <time>2022-10-30T05:00:26.000Z</time>
      </trkpt>
      <trkpt lat="27.734586" lon="86.712282">
        <ele>2610.2</ele>
        <time>2022-10-30T05:01:01.000Z</time>
      </trkpt>
      <trkpt lat="27.73456" lon="86.712294">
        <ele>2610.2</ele>
        <time>2022-10-30T05:01:03.000Z</time>
      </trkpt>
      <trkpt lat="27.734547" lon="86.712314">
        <ele>2610.4</ele>
        <time>2022-10-30T05:01:04.000Z</time>
      </trkpt>
      <trkpt lat="27.734518" lon="86.712326">
        <ele>2610.8</ele>
        <time>2022-10-30T05:01:06.000Z</time>
      </trkpt>
      <trkpt lat="27.73449" lon="86.712339">
        <ele>2610.8</ele>
        <time>2022-10-30T05:01:08.000Z</time>
      </trkpt>
      <trkpt lat="27.734474" lon="86.712358">
        <ele>2610.8</ele>
        <time>2022-10-30T05:01:09.000Z</time>
      </trkpt>
      <trkpt lat="27.734448" lon="86.712365">
        <ele>2611.4</ele>
        <time>2022-10-30T05:01:11.000Z</time>
      </trkpt>
      <trkpt lat="27.734429" lon="86.712378">
        <ele>2611.4</ele>
        <time>2022-10-30T05:01:13.000Z</time>
      </trkpt>
      <trkpt lat="27.734406" lon="86.712384">
        <ele>2611.4</ele>
        <time>2022-10-30T05:01:16.000Z</time>
      </trkpt>
      <trkpt lat="27.7344" lon="86.712403">
        <ele>2611.8</ele>
        <time>2022-10-30T05:01:22.000Z</time>
      </trkpt>
      <trkpt lat="27.734374" lon="86.71241">
        <ele>2612.6</ele>
        <time>2022-10-30T05:01:25.000Z</time>
      </trkpt>
      <trkpt lat="27.734342" lon="86.712416">
        <ele>2612.4</ele>
        <time>2022-10-30T05:01:27.000Z</time>
      </trkpt>
      <trkpt lat="27.734317" lon="86.712416">
        <ele>2612.2</ele>
        <time>2022-10-30T05:01:29.000Z</time>
      </trkpt>
      <trkpt lat="27.734298" lon="86.712422">
        <ele>2612.2</ele>
        <time>2022-10-30T05:01:31.000Z</time>
      </trkpt>
      <trkpt lat="27.734278" lon="86.712435">
        <ele>2612.2</ele>
        <time>2022-10-30T05:01:34.000Z</time>
      </trkpt>
      <trkpt lat="27.734259" lon="86.712442">
        <ele>2612.4</ele>
        <time>2022-10-30T05:01:36.000Z</time>
      </trkpt>
      <trkpt lat="27.734237" lon="86.712454">
        <ele>2612.4</ele>
        <time>2022-10-30T05:01:38.000Z</time>
      </trkpt>
      <trkpt lat="27.734211" lon="86.712448">
        <ele>2613</ele>
        <time>2022-10-30T05:01:40.000Z</time>
      </trkpt>
      <trkpt lat="27.734189" lon="86.712461">
        <ele>2613.2</ele>
        <time>2022-10-30T05:01:42.000Z</time>
      </trkpt>
      <trkpt lat="27.734179" lon="86.712486">
        <ele>2613.2</ele>
        <time>2022-10-30T05:01:43.000Z</time>
      </trkpt>
      <trkpt lat="27.73416" lon="86.712518">
        <ele>2613.4</ele>
        <time>2022-10-30T05:01:45.000Z</time>
      </trkpt>
      <trkpt lat="27.734138" lon="86.712518">
        <ele>2613.6</ele>
        <time>2022-10-30T05:01:48.000Z</time>
      </trkpt>
      <trkpt lat="27.734118" lon="86.712538">
        <ele>2613.8</ele>
        <time>2022-10-30T05:01:52.000Z</time>
      </trkpt>
      <trkpt lat="27.734099" lon="86.71255">
        <ele>2614.2</ele>
        <time>2022-10-30T05:01:54.000Z</time>
      </trkpt>
      <trkpt lat="27.734077" lon="86.71255">
        <ele>2614.8</ele>
        <time>2022-10-30T05:01:57.000Z</time>
      </trkpt>
      <trkpt lat="27.734058" lon="86.71255">
        <ele>2614.8</ele>
        <time>2022-10-30T05:01:59.000Z</time>
      </trkpt>
      <trkpt lat="27.734035" lon="86.71255">
        <ele>2615</ele>
        <time>2022-10-30T05:02:01.000Z</time>
      </trkpt>
      <trkpt lat="27.734016" lon="86.712557">
        <ele>2615.4</ele>
        <time>2022-10-30T05:02:03.000Z</time>
      </trkpt>
      <trkpt lat="27.733987" lon="86.712557">
        <ele>2615.8</ele>
        <time>2022-10-30T05:02:06.000Z</time>
      </trkpt>
      <trkpt lat="27.733962" lon="86.712563">
        <ele>2615.8</ele>
        <time>2022-10-30T05:02:09.000Z</time>
      </trkpt>
      <trkpt lat="27.733942" lon="86.712576">
        <ele>2615.8</ele>
        <time>2022-10-30T05:02:12.000Z</time>
      </trkpt>
      <trkpt lat="27.733917" lon="86.71257">
        <ele>2615.6</ele>
        <time>2022-10-30T05:02:15.000Z</time>
      </trkpt>
      <trkpt lat="27.733894" lon="86.71257">
        <ele>2616.4</ele>
        <time>2022-10-30T05:02:18.000Z</time>
      </trkpt>
      <trkpt lat="27.733888" lon="86.71255">
        <ele>2616.8</ele>
        <time>2022-10-30T05:02:20.000Z</time>
      </trkpt>
      <trkpt lat="27.733869" lon="86.712538">
        <ele>2617.2</ele>
        <time>2022-10-30T05:02:23.000Z</time>
      </trkpt>
      <trkpt lat="27.73385" lon="86.712538">
        <ele>2617</ele>
        <time>2022-10-30T05:02:25.000Z</time>
      </trkpt>
      <trkpt lat="27.733827" lon="86.71255">
        <ele>2617.2</ele>
        <time>2022-10-30T05:02:28.000Z</time>
      </trkpt>
      <trkpt lat="27.733802" lon="86.71255">
        <ele>2617.6</ele>
        <time>2022-10-30T05:02:30.000Z</time>
      </trkpt>
      <trkpt lat="27.733782" lon="86.71255">
        <ele>2617.8</ele>
        <time>2022-10-30T05:02:32.000Z</time>
      </trkpt>
      <trkpt lat="27.73376" lon="86.712563">
        <ele>2617.8</ele>
        <time>2022-10-30T05:02:34.000Z</time>
      </trkpt>
      <trkpt lat="27.733738" lon="86.71257">
        <ele>2617.8</ele>
        <time>2022-10-30T05:02:36.000Z</time>
      </trkpt>
      <trkpt lat="27.733712" lon="86.71257">
        <ele>2617.8</ele>
        <time>2022-10-30T05:02:38.000Z</time>
      </trkpt>
      <trkpt lat="27.73369" lon="86.712582">
        <ele>2618</ele>
        <time>2022-10-30T05:02:40.000Z</time>
      </trkpt>
      <trkpt lat="27.733674" lon="86.712595">
        <ele>2618.4</ele>
        <time>2022-10-30T05:02:42.000Z</time>
      </trkpt>
      <trkpt lat="27.733648" lon="86.712602">
        <ele>2618</ele>
        <time>2022-10-30T05:02:44.000Z</time>
      </trkpt>
      <trkpt lat="27.733629" lon="86.712614">
        <ele>2618</ele>
        <time>2022-10-30T05:02:46.000Z</time>
      </trkpt>
      <trkpt lat="27.733603" lon="86.712634">
        <ele>2617.6</ele>
        <time>2022-10-30T05:02:48.000Z</time>
      </trkpt>
      <trkpt lat="27.73359" lon="86.712653">
        <ele>2617.4</ele>
        <time>2022-10-30T05:02:50.000Z</time>
      </trkpt>
      <trkpt lat="27.733568" lon="86.712672">
        <ele>2617</ele>
        <time>2022-10-30T05:02:52.000Z</time>
      </trkpt>
      <trkpt lat="27.733546" lon="86.712685">
        <ele>2616.6</ele>
        <time>2022-10-30T05:02:55.000Z</time>
      </trkpt>
      <trkpt lat="27.73352" lon="86.712698">
        <ele>2615.6</ele>
        <time>2022-10-30T05:02:58.000Z</time>
      </trkpt>
      <trkpt lat="27.733501" lon="86.712691">
        <ele>2615.6</ele>
        <time>2022-10-30T05:03:01.000Z</time>
      </trkpt>
      <trkpt lat="27.733478" lon="86.712685">
        <ele>2616.2</ele>
        <time>2022-10-30T05:03:07.000Z</time>
      </trkpt>
      <trkpt lat="27.733462" lon="86.71271">
        <ele>2615.8</ele>
        <time>2022-10-30T05:03:10.000Z</time>
      </trkpt>
      <trkpt lat="27.733443" lon="86.712717">
        <ele>2615.4</ele>
        <time>2022-10-30T05:03:12.000Z</time>
      </trkpt>
      <trkpt lat="27.733427" lon="86.712736">
        <ele>2615.2</ele>
        <time>2022-10-30T05:03:14.000Z</time>
      </trkpt>
      <trkpt lat="27.733411" lon="86.712749">
        <ele>2615</ele>
        <time>2022-10-30T05:03:16.000Z</time>
      </trkpt>
      <trkpt lat="27.733386" lon="86.712755">
        <ele>2614.8</ele>
        <time>2022-10-30T05:03:18.000Z</time>
      </trkpt>
      <trkpt lat="27.73337" lon="86.712781">
        <ele>2613.6</ele>
        <time>2022-10-30T05:03:21.000Z</time>
      </trkpt>
      <trkpt lat="27.733363" lon="86.7128">
        <ele>2613.4</ele>
        <time>2022-10-30T05:03:22.000Z</time>
      </trkpt>
      <trkpt lat="27.733344" lon="86.712819">
        <ele>2613.2</ele>
        <time>2022-10-30T05:03:24.000Z</time>
      </trkpt>
      <trkpt lat="27.733334" lon="86.712838">
        <ele>2613.2</ele>
        <time>2022-10-30T05:03:25.000Z</time>
      </trkpt>
      <trkpt lat="27.733312" lon="86.712851">
        <ele>2612.4</ele>
        <time>2022-10-30T05:03:28.000Z</time>
      </trkpt>
      <trkpt lat="27.733286" lon="86.712858">
        <ele>2612.6</ele>
        <time>2022-10-30T05:03:31.000Z</time>
      </trkpt>
      <trkpt lat="27.733277" lon="86.71289">
        <ele>2612</ele>
        <time>2022-10-30T05:03:34.000Z</time>
      </trkpt>
      <trkpt lat="27.733264" lon="86.712915">
        <ele>2612.2</ele>
        <time>2022-10-30T05:03:36.000Z</time>
      </trkpt>
      <trkpt lat="27.733245" lon="86.712922">
        <ele>2612.2</ele>
        <time>2022-10-30T05:03:38.000Z</time>
      </trkpt>
      <trkpt lat="27.733222" lon="86.712934">
        <ele>2611</ele>
        <time>2022-10-30T05:03:41.000Z</time>
      </trkpt>
      <trkpt lat="27.7332" lon="86.712954">
        <ele>2610.8</ele>
        <time>2022-10-30T05:03:43.000Z</time>
      </trkpt>
      <trkpt lat="27.733174" lon="86.712954">
        <ele>2610.8</ele>
        <time>2022-10-30T05:03:45.000Z</time>
      </trkpt>
      <trkpt lat="27.733162" lon="86.712973">
        <ele>2609.8</ele>
        <time>2022-10-30T05:03:48.000Z</time>
      </trkpt>
      <trkpt lat="27.733139" lon="86.712992">
        <ele>2609.2</ele>
        <time>2022-10-30T05:03:50.000Z</time>
      </trkpt>
      <trkpt lat="27.733117" lon="86.713005">
        <ele>2608.6</ele>
        <time>2022-10-30T05:03:53.000Z</time>
      </trkpt>
      <trkpt lat="27.733098" lon="86.713011">
        <ele>2607.8</ele>
        <time>2022-10-30T05:03:55.000Z</time>
      </trkpt>
      <trkpt lat="27.733078" lon="86.713005">
        <ele>2607.2</ele>
        <time>2022-10-30T05:03:57.000Z</time>
      </trkpt>
      <trkpt lat="27.733056" lon="86.713018">
        <ele>2606.6</ele>
        <time>2022-10-30T05:04:00.000Z</time>
      </trkpt>
      <trkpt lat="27.73305" lon="86.713037">
        <ele>2606</ele>
        <time>2022-10-30T05:04:02.000Z</time>
      </trkpt>
      <trkpt lat="27.733027" lon="86.713069">
        <ele>2605.2</ele>
        <time>2022-10-30T05:04:08.000Z</time>
      </trkpt>
      <trkpt lat="27.733005" lon="86.713088">
        <ele>2605.6</ele>
        <time>2022-10-30T05:04:10.000Z</time>
      </trkpt>
      <trkpt lat="27.732986" lon="86.713088">
        <ele>2605.6</ele>
        <time>2022-10-30T05:04:12.000Z</time>
      </trkpt>
      <trkpt lat="27.732957" lon="86.713088">
        <ele>2605.4</ele>
        <time>2022-10-30T05:04:15.000Z</time>
      </trkpt>
      <trkpt lat="27.732931" lon="86.713094">
        <ele>2605.8</ele>
        <time>2022-10-30T05:04:18.000Z</time>
      </trkpt>
      <trkpt lat="27.732906" lon="86.713107">
        <ele>2606.4</ele>
        <time>2022-10-30T05:04:22.000Z</time>
      </trkpt>
      <trkpt lat="27.732886" lon="86.713094">
        <ele>2607</ele>
        <time>2022-10-30T05:04:25.000Z</time>
      </trkpt>
      <trkpt lat="27.732864" lon="86.713094">
        <ele>2607</ele>
        <time>2022-10-30T05:04:28.000Z</time>
      </trkpt>
      <trkpt lat="27.732845" lon="86.713088">
        <ele>2606.6</ele>
        <time>2022-10-30T05:04:31.000Z</time>
      </trkpt>
      <trkpt lat="27.732826" lon="86.713082">
        <ele>2606</ele>
        <time>2022-10-30T05:04:33.000Z</time>
      </trkpt>
      <trkpt lat="27.732806" lon="86.713082">
        <ele>2605.8</ele>
        <time>2022-10-30T05:04:35.000Z</time>
      </trkpt>
      <trkpt lat="27.732781" lon="86.713075">
        <ele>2605</ele>
        <time>2022-10-30T05:04:38.000Z</time>
      </trkpt>
      <trkpt lat="27.732758" lon="86.713069">
        <ele>2604.4</ele>
        <time>2022-10-30T05:04:41.000Z</time>
      </trkpt>
      <trkpt lat="27.732736" lon="86.71305">
        <ele>2604</ele>
        <time>2022-10-30T05:04:44.000Z</time>
      </trkpt>
      <trkpt lat="27.732717" lon="86.71305">
        <ele>2603.2</ele>
        <time>2022-10-30T05:04:47.000Z</time>
      </trkpt>
      <trkpt lat="27.732698" lon="86.713043">
        <ele>2602.8</ele>
        <time>2022-10-30T05:04:49.000Z</time>
      </trkpt>
      <trkpt lat="27.732678" lon="86.713037">
        <ele>2602.2</ele>
        <time>2022-10-30T05:04:52.000Z</time>
      </trkpt>
      <trkpt lat="27.732659" lon="86.71303">
        <ele>2602.2</ele>
        <time>2022-10-30T05:04:55.000Z</time>
      </trkpt>
      <trkpt lat="27.732634" lon="86.713043">
        <ele>2601.6</ele>
        <time>2022-10-30T05:04:59.000Z</time>
      </trkpt>
      <trkpt lat="27.732608" lon="86.713043">
        <ele>2601.4</ele>
        <time>2022-10-30T05:05:02.000Z</time>
      </trkpt>
      <trkpt lat="27.732589" lon="86.713037">
        <ele>2601.2</ele>
        <time>2022-10-30T05:05:04.000Z</time>
      </trkpt>
      <trkpt lat="27.73257" lon="86.713056">
        <ele>2601</ele>
        <time>2022-10-30T05:05:06.000Z</time>
      </trkpt>
      <trkpt lat="27.73255" lon="86.713056">
        <ele>2601</ele>
        <time>2022-10-30T05:05:08.000Z</time>
      </trkpt>
      <trkpt lat="27.732531" lon="86.713069">
        <ele>2601.2</ele>
        <time>2022-10-30T05:05:11.000Z</time>
      </trkpt>
      <trkpt lat="27.732512" lon="86.713075">
        <ele>2601.4</ele>
        <time>2022-10-30T05:05:14.000Z</time>
      </trkpt>
      <trkpt lat="27.732493" lon="86.713082">
        <ele>2601.4</ele>
        <time>2022-10-30T05:05:16.000Z</time>
      </trkpt>
      <trkpt lat="27.732474" lon="86.713082">
        <ele>2601.4</ele>
        <time>2022-10-30T05:05:18.000Z</time>
      </trkpt>
      <trkpt lat="27.732451" lon="86.713082">
        <ele>2601.2</ele>
        <time>2022-10-30T05:05:20.000Z</time>
      </trkpt>
      <trkpt lat="27.732432" lon="86.713094">
        <ele>2601.2</ele>
        <time>2022-10-30T05:05:23.000Z</time>
      </trkpt>
      <trkpt lat="27.732422" lon="86.713114">
        <ele>2600.8</ele>
        <time>2022-10-30T05:05:28.000Z</time>
      </trkpt>
      <trkpt lat="27.732413" lon="86.713094">
        <ele>2601.8</ele>
        <time>2022-10-30T05:05:43.000Z</time>
      </trkpt>
      <trkpt lat="27.732394" lon="86.713107">
        <ele>2601.8</ele>
        <time>2022-10-30T05:06:05.000Z</time>
      </trkpt>
      <trkpt lat="27.732371" lon="86.71312">
        <ele>2601.8</ele>
        <time>2022-10-30T05:06:08.000Z</time>
      </trkpt>
      <trkpt lat="27.732349" lon="86.713126">
        <ele>2601.6</ele>
        <time>2022-10-30T05:06:11.000Z</time>
      </trkpt>
      <trkpt lat="27.732326" lon="86.713139">
        <ele>2601.2</ele>
        <time>2022-10-30T05:06:13.000Z</time>
      </trkpt>
      <trkpt lat="27.732317" lon="86.713158">
        <ele>2601</ele>
        <time>2022-10-30T05:06:15.000Z</time>
      </trkpt>
      <trkpt lat="27.732298" lon="86.713171">
        <ele>2600.6</ele>
        <time>2022-10-30T05:06:18.000Z</time>
      </trkpt>
      <trkpt lat="27.732282" lon="86.71319">
        <ele>2600</ele>
        <time>2022-10-30T05:06:20.000Z</time>
      </trkpt>
      <trkpt lat="27.732266" lon="86.713203">
        <ele>2599.8</ele>
        <time>2022-10-30T05:06:23.000Z</time>
      </trkpt>
      <trkpt lat="27.732234" lon="86.71319">
        <ele>2599.6</ele>
        <time>2022-10-30T05:06:27.000Z</time>
      </trkpt>
      <trkpt lat="27.732211" lon="86.71321">
        <ele>2599.4</ele>
        <time>2022-10-30T05:06:32.000Z</time>
      </trkpt>
      <trkpt lat="27.732198" lon="86.713229">
        <ele>2599.6</ele>
        <time>2022-10-30T05:06:38.000Z</time>
      </trkpt>
      <trkpt lat="27.732182" lon="86.713242">
        <ele>2599.8</ele>
        <time>2022-10-30T05:06:42.000Z</time>
      </trkpt>
      <trkpt lat="27.73216" lon="86.713248">
        <ele>2599.8</ele>
        <time>2022-10-30T05:06:45.000Z</time>
      </trkpt>
      <trkpt lat="27.732141" lon="86.713267">
        <ele>2599.8</ele>
        <time>2022-10-30T05:06:48.000Z</time>
      </trkpt>
      <trkpt lat="27.732122" lon="86.713267">
        <ele>2600</ele>
        <time>2022-10-30T05:06:51.000Z</time>
      </trkpt>
      <trkpt lat="27.732099" lon="86.713254">
        <ele>2600</ele>
        <time>2022-10-30T05:06:54.000Z</time>
      </trkpt>
      <trkpt lat="27.732083" lon="86.713267">
        <ele>2600</ele>
        <time>2022-10-30T05:06:56.000Z</time>
      </trkpt>
      <trkpt lat="27.732064" lon="86.713254">
        <ele>2601</ele>
        <time>2022-10-30T05:06:59.000Z</time>
      </trkpt>
      <trkpt lat="27.732045" lon="86.713267">
        <ele>2601</ele>
        <time>2022-10-30T05:07:02.000Z</time>
      </trkpt>
      <trkpt lat="27.732029" lon="86.71328">
        <ele>2601.4</ele>
        <time>2022-10-30T05:07:05.000Z</time>
      </trkpt>
      <trkpt lat="27.732013" lon="86.713293">
        <ele>2602</ele>
        <time>2022-10-30T05:07:08.000Z</time>
      </trkpt>
      <trkpt lat="27.731997" lon="86.713306">
        <ele>2602.2</ele>
        <time>2022-10-30T05:07:10.000Z</time>
      </trkpt>
      <trkpt lat="27.731981" lon="86.713318">
        <ele>2602.4</ele>
        <time>2022-10-30T05:07:13.000Z</time>
      </trkpt>
      <trkpt lat="27.731958" lon="86.713318">
        <ele>2602.8</ele>
        <time>2022-10-30T05:07:16.000Z</time>
      </trkpt>
      <trkpt lat="27.731939" lon="86.713318">
        <ele>2602.8</ele>
        <time>2022-10-30T05:07:18.000Z</time>
      </trkpt>
      <trkpt lat="27.731917" lon="86.713312">
        <ele>2602.8</ele>
        <time>2022-10-30T05:07:20.000Z</time>
      </trkpt>
      <trkpt lat="27.731891" lon="86.713331">
        <ele>2602.4</ele>
        <time>2022-10-30T05:07:23.000Z</time>
      </trkpt>
      <trkpt lat="27.731872" lon="86.713325">
        <ele>2602</ele>
        <time>2022-10-30T05:07:25.000Z</time>
      </trkpt>
      <trkpt lat="27.731853" lon="86.713331">
        <ele>2601.8</ele>
        <time>2022-10-30T05:07:27.000Z</time>
      </trkpt>
      <trkpt lat="27.731843" lon="86.71335">
        <ele>2601.8</ele>
        <time>2022-10-30T05:07:28.000Z</time>
      </trkpt>
      <trkpt lat="27.731834" lon="86.71337">
        <ele>2601.6</ele>
        <time>2022-10-30T05:07:29.000Z</time>
      </trkpt>
      <trkpt lat="27.731811" lon="86.713376">
        <ele>2601.6</ele>
        <time>2022-10-30T05:07:31.000Z</time>
      </trkpt>
      <trkpt lat="27.731792" lon="86.713395">
        <ele>2601.4</ele>
        <time>2022-10-30T05:07:33.000Z</time>
      </trkpt>
      <trkpt lat="27.731773" lon="86.713402">
        <ele>2601.4</ele>
        <time>2022-10-30T05:07:34.000Z</time>
      </trkpt>
      <trkpt lat="27.731747" lon="86.713395">
        <ele>2601.4</ele>
        <time>2022-10-30T05:07:36.000Z</time>
      </trkpt>
      <trkpt lat="27.731728" lon="86.713402">
        <ele>2601.6</ele>
        <time>2022-10-30T05:07:39.000Z</time>
      </trkpt>
      <trkpt lat="27.731709" lon="86.713402">
        <ele>2601.8</ele>
        <time>2022-10-30T05:07:41.000Z</time>
      </trkpt>
      <trkpt lat="27.731686" lon="86.713408">
        <ele>2601.6</ele>
        <time>2022-10-30T05:07:43.000Z</time>
      </trkpt>
      <trkpt lat="27.731674" lon="86.713434">
        <ele>2601.6</ele>
        <time>2022-10-30T05:07:45.000Z</time>
      </trkpt>
      <trkpt lat="27.731658" lon="86.713446">
        <ele>2601.6</ele>
        <time>2022-10-30T05:07:47.000Z</time>
      </trkpt>
      <trkpt lat="27.731635" lon="86.713453">
        <ele>2601.8</ele>
        <time>2022-10-30T05:07:49.000Z</time>
      </trkpt>
      <trkpt lat="27.731616" lon="86.713446">
        <ele>2601.8</ele>
        <time>2022-10-30T05:07:51.000Z</time>
      </trkpt>
      <trkpt lat="27.731597" lon="86.71344">
        <ele>2601.8</ele>
        <time>2022-10-30T05:07:52.000Z</time>
      </trkpt>
      <trkpt lat="27.731568" lon="86.713466">
        <ele>2601.8</ele>
        <time>2022-10-30T05:07:54.000Z</time>
      </trkpt>
      <trkpt lat="27.731542" lon="86.713466">
        <ele>2601.6</ele>
        <time>2022-10-30T05:07:56.000Z</time>
      </trkpt>
      <trkpt lat="27.731517" lon="86.713472">
        <ele>2601.6</ele>
        <time>2022-10-30T05:07:58.000Z</time>
      </trkpt>
      <trkpt lat="27.731498" lon="86.713478">
        <ele>2601.8</ele>
        <time>2022-10-30T05:08:00.000Z</time>
      </trkpt>
      <trkpt lat="27.731478" lon="86.713485">
        <ele>2601.8</ele>
        <time>2022-10-30T05:08:02.000Z</time>
      </trkpt>
      <trkpt lat="27.731453" lon="86.71351">
        <ele>2601.6</ele>
        <time>2022-10-30T05:08:05.000Z</time>
      </trkpt>
      <trkpt lat="27.73143" lon="86.71351">
        <ele>2601.6</ele>
        <time>2022-10-30T05:08:07.000Z</time>
      </trkpt>
      <trkpt lat="27.731408" lon="86.713517">
        <ele>2601.2</ele>
        <time>2022-10-30T05:08:09.000Z</time>
      </trkpt>
      <trkpt lat="27.731389" lon="86.713517">
        <ele>2601.2</ele>
        <time>2022-10-30T05:08:11.000Z</time>
      </trkpt>
      <trkpt lat="27.731373" lon="86.71353">
        <ele>2601.2</ele>
        <time>2022-10-30T05:08:13.000Z</time>
      </trkpt>
      <trkpt lat="27.731354" lon="86.713536">
        <ele>2601</ele>
        <time>2022-10-30T05:08:15.000Z</time>
      </trkpt>
      <trkpt lat="27.731331" lon="86.713536">
        <ele>2600.6</ele>
        <time>2022-10-30T05:08:17.000Z</time>
      </trkpt>
      <trkpt lat="27.731306" lon="86.713549">
        <ele>2600.2</ele>
        <time>2022-10-30T05:08:19.000Z</time>
      </trkpt>
      <trkpt lat="27.731286" lon="86.713555">
        <ele>2600</ele>
        <time>2022-10-30T05:08:21.000Z</time>
      </trkpt>
      <trkpt lat="27.731264" lon="86.713555">
        <ele>2599.8</ele>
        <time>2022-10-30T05:08:23.000Z</time>
      </trkpt>
      <trkpt lat="27.731242" lon="86.713562">
        <ele>2599.8</ele>
        <time>2022-10-30T05:08:25.000Z</time>
      </trkpt>
      <trkpt lat="27.731219" lon="86.713562">
        <ele>2599.8</ele>
        <time>2022-10-30T05:08:27.000Z</time>
      </trkpt>
      <trkpt lat="27.731197" lon="86.713562">
        <ele>2600</ele>
        <time>2022-10-30T05:08:29.000Z</time>
      </trkpt>
      <trkpt lat="27.731171" lon="86.713574">
        <ele>2600</ele>
        <time>2022-10-30T05:08:32.000Z</time>
      </trkpt>
      <trkpt lat="27.731152" lon="86.713587">
        <ele>2600</ele>
        <time>2022-10-30T05:08:34.000Z</time>
      </trkpt>
      <trkpt lat="27.731126" lon="86.7136">
        <ele>2600</ele>
        <time>2022-10-30T05:08:37.000Z</time>
      </trkpt>
      <trkpt lat="27.731107" lon="86.713613">
        <ele>2600</ele>
        <time>2022-10-30T05:08:39.000Z</time>
      </trkpt>
      <trkpt lat="27.731082" lon="86.713626">
        <ele>2600</ele>
        <time>2022-10-30T05:08:41.000Z</time>
      </trkpt>
      <trkpt lat="27.731062" lon="86.713632">
        <ele>2600</ele>
        <time>2022-10-30T05:08:43.000Z</time>
      </trkpt>
      <trkpt lat="27.73103" lon="86.713638">
        <ele>2600</ele>
        <time>2022-10-30T05:08:45.000Z</time>
      </trkpt>
      <trkpt lat="27.731008" lon="86.713645">
        <ele>2600</ele>
        <time>2022-10-30T05:08:47.000Z</time>
      </trkpt>
      <trkpt lat="27.730982" lon="86.713645">
        <ele>2600</ele>
        <time>2022-10-30T05:08:49.000Z</time>
      </trkpt>
      <trkpt lat="27.730963" lon="86.713645">
        <ele>2600</ele>
        <time>2022-10-30T05:08:51.000Z</time>
      </trkpt>
      <trkpt lat="27.730941" lon="86.713638">
        <ele>2600.2</ele>
        <time>2022-10-30T05:08:53.000Z</time>
      </trkpt>
      <trkpt lat="27.730922" lon="86.713638">
        <ele>2600.2</ele>
        <time>2022-10-30T05:08:55.000Z</time>
      </trkpt>
      <trkpt lat="27.730899" lon="86.713638">
        <ele>2600.4</ele>
        <time>2022-10-30T05:08:57.000Z</time>
      </trkpt>
      <trkpt lat="27.73088" lon="86.713651">
        <ele>2600.6</ele>
        <time>2022-10-30T05:08:59.000Z</time>
      </trkpt>
      <trkpt lat="27.730861" lon="86.713664">
        <ele>2601</ele>
        <time>2022-10-30T05:09:01.000Z</time>
      </trkpt>
      <trkpt lat="27.730842" lon="86.71367">
        <ele>2601.4</ele>
        <time>2022-10-30T05:09:04.000Z</time>
      </trkpt>
      <trkpt lat="27.730816" lon="86.713677">
        <ele>2602.2</ele>
        <time>2022-10-30T05:09:08.000Z</time>
      </trkpt>
      <trkpt lat="27.730794" lon="86.71369">
        <ele>2602.6</ele>
        <time>2022-10-30T05:09:10.000Z</time>
      </trkpt>
      <trkpt lat="27.730774" lon="86.713702">
        <ele>2602.6</ele>
        <time>2022-10-30T05:09:12.000Z</time>
      </trkpt>
      <trkpt lat="27.730749" lon="86.713709">
        <ele>2602.8</ele>
        <time>2022-10-30T05:09:15.000Z</time>
      </trkpt>
      <trkpt lat="27.730726" lon="86.713709">
        <ele>2603.2</ele>
        <time>2022-10-30T05:09:17.000Z</time>
      </trkpt>
      <trkpt lat="27.730707" lon="86.713702">
        <ele>2603.6</ele>
        <time>2022-10-30T05:09:19.000Z</time>
      </trkpt>
      <trkpt lat="27.730685" lon="86.713702">
        <ele>2603.6</ele>
        <time>2022-10-30T05:09:21.000Z</time>
      </trkpt>
      <trkpt lat="27.730662" lon="86.713722">
        <ele>2603.4</ele>
        <time>2022-10-30T05:09:23.000Z</time>
      </trkpt>
      <trkpt lat="27.730643" lon="86.713734">
        <ele>2603.4</ele>
        <time>2022-10-30T05:09:25.000Z</time>
      </trkpt>
      <trkpt lat="27.73064" lon="86.71376">
        <ele>2602.2</ele>
        <time>2022-10-30T05:09:28.000Z</time>
      </trkpt>
      <trkpt lat="27.730621" lon="86.71376">
        <ele>2602.2</ele>
        <time>2022-10-30T05:09:30.000Z</time>
      </trkpt>
      <trkpt lat="27.730602" lon="86.71376">
        <ele>2602.2</ele>
        <time>2022-10-30T05:09:32.000Z</time>
      </trkpt>
      <trkpt lat="27.730573" lon="86.713754">
        <ele>2602.4</ele>
        <time>2022-10-30T05:09:34.000Z</time>
      </trkpt>
      <trkpt lat="27.730541" lon="86.713754">
        <ele>2602.8</ele>
        <time>2022-10-30T05:09:36.000Z</time>
      </trkpt>
      <trkpt lat="27.730515" lon="86.713754">
        <ele>2602.2</ele>
        <time>2022-10-30T05:09:38.000Z</time>
      </trkpt>
      <trkpt lat="27.730493" lon="86.713754">
        <ele>2602.2</ele>
        <time>2022-10-30T05:09:40.000Z</time>
      </trkpt>
      <trkpt lat="27.730467" lon="86.713754">
        <ele>2602</ele>
        <time>2022-10-30T05:09:42.000Z</time>
      </trkpt>
      <trkpt lat="27.730445" lon="86.713747">
        <ele>2601.8</ele>
        <time>2022-10-30T05:09:45.000Z</time>
      </trkpt>
      <trkpt lat="27.730422" lon="86.713747">
        <ele>2601.8</ele>
        <time>2022-10-30T05:09:47.000Z</time>
      </trkpt>
      <trkpt lat="27.730394" lon="86.71376">
        <ele>2601.4</ele>
        <time>2022-10-30T05:09:50.000Z</time>
      </trkpt>
      <trkpt lat="27.730374" lon="86.713766">
        <ele>2601.4</ele>
        <time>2022-10-30T05:09:52.000Z</time>
      </trkpt>
      <trkpt lat="27.730355" lon="86.713766">
        <ele>2601</ele>
        <time>2022-10-30T05:09:54.000Z</time>
      </trkpt>
      <trkpt lat="27.730336" lon="86.713766">
        <ele>2601</ele>
        <time>2022-10-30T05:09:56.000Z</time>
      </trkpt>
      <trkpt lat="27.730317" lon="86.713773">
        <ele>2600.8</ele>
        <time>2022-10-30T05:09:58.000Z</time>
      </trkpt>
      <trkpt lat="27.730294" lon="86.713786">
        <ele>2600.6</ele>
        <time>2022-10-30T05:10:00.000Z</time>
      </trkpt>
      <trkpt lat="27.730278" lon="86.713773">
        <ele>2600.4</ele>
        <time>2022-10-30T05:10:02.000Z</time>
      </trkpt>
      <trkpt lat="27.730253" lon="86.713773">
        <ele>2600</ele>
        <time>2022-10-30T05:10:05.000Z</time>
      </trkpt>
      <trkpt lat="27.730237" lon="86.713786">
        <ele>2600.4</ele>
        <time>2022-10-30T05:10:06.000Z</time>
      </trkpt>
      <trkpt lat="27.730211" lon="86.713773">
        <ele>2600.4</ele>
        <time>2022-10-30T05:10:08.000Z</time>
      </trkpt>
      <trkpt lat="27.730192" lon="86.713773">
        <ele>2600</ele>
        <time>2022-10-30T05:10:10.000Z</time>
      </trkpt>
      <trkpt lat="27.730166" lon="86.713766">
        <ele>2599.6</ele>
        <time>2022-10-30T05:10:13.000Z</time>
      </trkpt>
      <trkpt lat="27.730141" lon="86.71376">
        <ele>2599.6</ele>
        <time>2022-10-30T05:10:15.000Z</time>
      </trkpt>
      <trkpt lat="27.730115" lon="86.71376">
        <ele>2599.2</ele>
        <time>2022-10-30T05:10:17.000Z</time>
      </trkpt>
      <trkpt lat="27.730096" lon="86.713766">
        <ele>2599</ele>
        <time>2022-10-30T05:10:19.000Z</time>
      </trkpt>
      <trkpt lat="27.730077" lon="86.713766">
        <ele>2598.8</ele>
        <time>2022-10-30T05:10:21.000Z</time>
      </trkpt>
      <trkpt lat="27.730054" lon="86.713773">
        <ele>2598.4</ele>
        <time>2022-10-30T05:10:23.000Z</time>
      </trkpt>
      <trkpt lat="27.730035" lon="86.713766">
        <ele>2598.4</ele>
        <time>2022-10-30T05:10:24.000Z</time>
      </trkpt>
      <trkpt lat="27.73001" lon="86.713766">
        <ele>2597.6</ele>
        <time>2022-10-30T05:10:26.000Z</time>
      </trkpt>
      <trkpt lat="27.729987" lon="86.713773">
        <ele>2597.6</ele>
        <time>2022-10-30T05:10:28.000Z</time>
      </trkpt>
      <trkpt lat="27.729962" lon="86.713786">
        <ele>2597.4</ele>
        <time>2022-10-30T05:10:30.000Z</time>
      </trkpt>
      <trkpt lat="27.729933" lon="86.713786">
        <ele>2596.8</ele>
        <time>2022-10-30T05:10:32.000Z</time>
      </trkpt>
      <trkpt lat="27.72991" lon="86.713773">
        <ele>2596.8</ele>
        <time>2022-10-30T05:10:34.000Z</time>
      </trkpt>
      <trkpt lat="27.729891" lon="86.713786">
        <ele>2596.8</ele>
        <time>2022-10-30T05:10:36.000Z</time>
      </trkpt>
      <trkpt lat="27.729866" lon="86.713786">
        <ele>2596.6</ele>
        <time>2022-10-30T05:10:38.000Z</time>
      </trkpt>
      <trkpt lat="27.729837" lon="86.713786">
        <ele>2596.6</ele>
        <time>2022-10-30T05:10:40.000Z</time>
      </trkpt>
      <trkpt lat="27.729808" lon="86.713786">
        <ele>2596.4</ele>
        <time>2022-10-30T05:10:42.000Z</time>
      </trkpt>
      <trkpt lat="27.729776" lon="86.713786">
        <ele>2596.2</ele>
        <time>2022-10-30T05:10:45.000Z</time>
      </trkpt>
      <trkpt lat="27.72976" lon="86.713773">
        <ele>2596.2</ele>
        <time>2022-10-30T05:10:46.000Z</time>
      </trkpt>
      <trkpt lat="27.729738" lon="86.71376">
        <ele>2596.4</ele>
        <time>2022-10-30T05:10:48.000Z</time>
      </trkpt>
      <trkpt lat="27.729712" lon="86.713754">
        <ele>2596.4</ele>
        <time>2022-10-30T05:10:50.000Z</time>
      </trkpt>
      <trkpt lat="27.729686" lon="86.713747">
        <ele>2596.2</ele>
        <time>2022-10-30T05:10:52.000Z</time>
      </trkpt>
      <trkpt lat="27.729664" lon="86.713728">
        <ele>2596</ele>
        <time>2022-10-30T05:10:54.000Z</time>
      </trkpt>
      <trkpt lat="27.729645" lon="86.713715">
        <ele>2596</ele>
        <time>2022-10-30T05:10:56.000Z</time>
      </trkpt>
      <trkpt lat="27.729626" lon="86.713709">
        <ele>2595.6</ele>
        <time>2022-10-30T05:10:58.000Z</time>
      </trkpt>
      <trkpt lat="27.729603" lon="86.71369">
        <ele>2595.8</ele>
        <time>2022-10-30T05:11:00.000Z</time>
      </trkpt>
      <trkpt lat="27.729578" lon="86.71369">
        <ele>2595.8</ele>
        <time>2022-10-30T05:11:02.000Z</time>
      </trkpt>
      <trkpt lat="27.729552" lon="86.713683">
        <ele>2595.8</ele>
        <time>2022-10-30T05:11:04.000Z</time>
      </trkpt>
      <trkpt lat="27.729533" lon="86.71367">
        <ele>2595.8</ele>
        <time>2022-10-30T05:11:06.000Z</time>
      </trkpt>
      <trkpt lat="27.72951" lon="86.713651">
        <ele>2596</ele>
        <time>2022-10-30T05:11:08.000Z</time>
      </trkpt>
      <trkpt lat="27.729494" lon="86.713638">
        <ele>2596</ele>
        <time>2022-10-30T05:11:10.000Z</time>
      </trkpt>
      <trkpt lat="27.729472" lon="86.713626">
        <ele>2596.2</ele>
        <time>2022-10-30T05:11:13.000Z</time>
      </trkpt>
      <trkpt lat="27.729453" lon="86.713613">
        <ele>2596</ele>
        <time>2022-10-30T05:11:15.000Z</time>
      </trkpt>
      <trkpt lat="27.72944" lon="86.713594">
        <ele>2596</ele>
        <time>2022-10-30T05:11:17.000Z</time>
      </trkpt>
      <trkpt lat="27.729418" lon="86.713574">
        <ele>2596</ele>
        <time>2022-10-30T05:11:19.000Z</time>
      </trkpt>
      <trkpt lat="27.729398" lon="86.713555">
        <ele>2596</ele>
        <time>2022-10-30T05:11:21.000Z</time>
      </trkpt>
      <trkpt lat="27.729382" lon="86.71353">
        <ele>2596</ele>
        <time>2022-10-30T05:11:23.000Z</time>
      </trkpt>
      <trkpt lat="27.729366" lon="86.713517">
        <ele>2596</ele>
        <time>2022-10-30T05:11:25.000Z</time>
      </trkpt>
      <trkpt lat="27.729344" lon="86.71351">
        <ele>2595.8</ele>
        <time>2022-10-30T05:11:28.000Z</time>
      </trkpt>
      <trkpt lat="27.729331" lon="86.713491">
        <ele>2596</ele>
        <time>2022-10-30T05:11:30.000Z</time>
      </trkpt>
      <trkpt lat="27.729312" lon="86.713491">
        <ele>2596.8</ele>
        <time>2022-10-30T05:11:33.000Z</time>
      </trkpt>
      <trkpt lat="27.72929" lon="86.713485">
        <ele>2596.8</ele>
        <time>2022-10-30T05:11:36.000Z</time>
      </trkpt>
      <trkpt lat="27.72927" lon="86.713491">
        <ele>2597.4</ele>
        <time>2022-10-30T05:11:42.000Z</time>
      </trkpt>
      <trkpt lat="27.729248" lon="86.713491">
        <ele>2598.2</ele>
        <time>2022-10-30T05:11:45.000Z</time>
      </trkpt>
      <trkpt lat="27.729229" lon="86.713485">
        <ele>2598.4</ele>
        <time>2022-10-30T05:11:48.000Z</time>
      </trkpt>
      <trkpt lat="27.72921" lon="86.713472">
        <ele>2598.6</ele>
        <time>2022-10-30T05:11:52.000Z</time>
      </trkpt>
      <trkpt lat="27.729187" lon="86.713478">
        <ele>2599</ele>
        <time>2022-10-30T05:11:55.000Z</time>
      </trkpt>
      <trkpt lat="27.729165" lon="86.713478">
        <ele>2599.4</ele>
        <time>2022-10-30T05:11:58.000Z</time>
      </trkpt>
      <trkpt lat="27.729146" lon="86.713485">
        <ele>2599.4</ele>
        <time>2022-10-30T05:12:00.000Z</time>
      </trkpt>
      <trkpt lat="27.729126" lon="86.713491">
        <ele>2599.4</ele>
        <time>2022-10-30T05:12:04.000Z</time>
      </trkpt>
      <trkpt lat="27.72911" lon="86.713504">
        <ele>2600.4</ele>
        <time>2022-10-30T05:12:08.000Z</time>
      </trkpt>
      <trkpt lat="27.729101" lon="86.713485">
        <ele>2601.2</ele>
        <time>2022-10-30T05:12:48.000Z</time>
      </trkpt>
      <trkpt lat="27.729101" lon="86.713517">
        <ele>2600.8</ele>
        <time>2022-10-30T05:14:01.000Z</time>
      </trkpt>
      <trkpt lat="27.729091" lon="86.713472">
        <ele>2602.2</ele>
        <time>2022-10-30T05:15:55.000Z</time>
      </trkpt>
      <trkpt lat="27.729062" lon="86.713472">
        <ele>2602.6</ele>
        <time>2022-10-30T05:15:57.000Z</time>
      </trkpt>
      <trkpt lat="27.729014" lon="86.713466">
        <ele>2603</ele>
        <time>2022-10-30T05:16:01.000Z</time>
      </trkpt>
      <trkpt lat="27.728986" lon="86.713453">
        <ele>2603.4</ele>
        <time>2022-10-30T05:16:03.000Z</time>
      </trkpt>
      <trkpt lat="27.72897" lon="86.713466">
        <ele>2603.4</ele>
        <time>2022-10-30T05:16:04.000Z</time>
      </trkpt>
      <trkpt lat="27.728954" lon="86.713478">
        <ele>2604</ele>
        <time>2022-10-30T05:16:09.000Z</time>
      </trkpt>
      <trkpt lat="27.728938" lon="86.713491">
        <ele>2604.4</ele>
        <time>2022-10-30T05:16:12.000Z</time>
      </trkpt>
      <trkpt lat="27.728925" lon="86.71351">
        <ele>2604.6</ele>
        <time>2022-10-30T05:16:16.000Z</time>
      </trkpt>
      <trkpt lat="27.728915" lon="86.71353">
        <ele>2605.8</ele>
        <time>2022-10-30T05:16:21.000Z</time>
      </trkpt>
      <trkpt lat="27.728915" lon="86.713555">
        <ele>2606.8</ele>
        <time>2022-10-30T05:16:26.000Z</time>
      </trkpt>
      <trkpt lat="27.728902" lon="86.713574">
        <ele>2607</ele>
        <time>2022-10-30T05:16:31.000Z</time>
      </trkpt>
      <trkpt lat="27.72889" lon="86.713594">
        <ele>2607.2</ele>
        <time>2022-10-30T05:16:34.000Z</time>
      </trkpt>
      <trkpt lat="27.728874" lon="86.713613">
        <ele>2608.6</ele>
        <time>2022-10-30T05:16:39.000Z</time>
      </trkpt>
      <trkpt lat="27.728867" lon="86.713632">
        <ele>2609</ele>
        <time>2022-10-30T05:16:42.000Z</time>
      </trkpt>
      <trkpt lat="27.728861" lon="86.713651">
        <ele>2610</ele>
        <time>2022-10-30T05:16:48.000Z</time>
      </trkpt>
      <trkpt lat="27.728848" lon="86.71367">
        <ele>2610.8</ele>
        <time>2022-10-30T05:16:53.000Z</time>
      </trkpt>
      <trkpt lat="27.728829" lon="86.71367">
        <ele>2611.2</ele>
        <time>2022-10-30T05:16:56.000Z</time>
      </trkpt>
      <trkpt lat="27.728806" lon="86.713664">
        <ele>2611</ele>
        <time>2022-10-30T05:16:59.000Z</time>
      </trkpt>
      <trkpt lat="27.728794" lon="86.713645">
        <ele>2611.4</ele>
        <time>2022-10-30T05:17:01.000Z</time>
      </trkpt>
      <trkpt lat="27.728768" lon="86.713638">
        <ele>2611.8</ele>
        <time>2022-10-30T05:17:05.000Z</time>
      </trkpt>
      <trkpt lat="27.728749" lon="86.713638">
        <ele>2612</ele>
        <time>2022-10-30T05:17:08.000Z</time>
      </trkpt>
      <trkpt lat="27.728733" lon="86.713651">
        <ele>2612</ele>
        <time>2022-10-30T05:17:12.000Z</time>
      </trkpt>
      <trkpt lat="27.728717" lon="86.713664">
        <ele>2612.4</ele>
        <time>2022-10-30T05:17:16.000Z</time>
      </trkpt>
      <trkpt lat="27.728694" lon="86.713664">
        <ele>2612.8</ele>
        <time>2022-10-30T05:17:20.000Z</time>
      </trkpt>
      <trkpt lat="27.728675" lon="86.713651">
        <ele>2613.4</ele>
        <time>2022-10-30T05:17:24.000Z</time>
      </trkpt>
      <trkpt lat="27.728666" lon="86.713632">
        <ele>2613.8</ele>
        <time>2022-10-30T05:17:27.000Z</time>
      </trkpt>
      <trkpt lat="27.728637" lon="86.713645">
        <ele>2614.2</ele>
        <time>2022-10-30T05:17:31.000Z</time>
      </trkpt>
      <trkpt lat="27.728618" lon="86.713664">
        <ele>2614.4</ele>
        <time>2022-10-30T05:17:33.000Z</time>
      </trkpt>
      <trkpt lat="27.728595" lon="86.71367">
        <ele>2614.4</ele>
        <time>2022-10-30T05:17:36.000Z</time>
      </trkpt>
      <trkpt lat="27.72857" lon="86.713677">
        <ele>2615.4</ele>
        <time>2022-10-30T05:17:41.000Z</time>
      </trkpt>
      <trkpt lat="27.72855" lon="86.71367">
        <ele>2616.2</ele>
        <time>2022-10-30T05:17:46.000Z</time>
      </trkpt>
      <trkpt lat="27.728538" lon="86.71369">
        <ele>2617.4</ele>
        <time>2022-10-30T05:17:49.000Z</time>
      </trkpt>
      <trkpt lat="27.728518" lon="86.713702">
        <ele>2617.8</ele>
        <time>2022-10-30T05:17:52.000Z</time>
      </trkpt>
      <trkpt lat="27.728499" lon="86.713709">
        <ele>2618.6</ele>
        <time>2022-10-30T05:18:00.000Z</time>
      </trkpt>
      <trkpt lat="27.72848" lon="86.713715">
        <ele>2619</ele>
        <time>2022-10-30T05:18:07.000Z</time>
      </trkpt>
      <trkpt lat="27.72847" lon="86.713734">
        <ele>2620.4</ele>
        <time>2022-10-30T05:18:14.000Z</time>
      </trkpt>
      <trkpt lat="27.728464" lon="86.713754">
        <ele>2620.4</ele>
        <time>2022-10-30T05:18:17.000Z</time>
      </trkpt>
      <trkpt lat="27.728445" lon="86.71376">
        <ele>2621.2</ele>
        <time>2022-10-30T05:18:23.000Z</time>
      </trkpt>
      <trkpt lat="27.728432" lon="86.713786">
        <ele>2621.2</ele>
        <time>2022-10-30T05:18:26.000Z</time>
      </trkpt>
      <trkpt lat="27.728413" lon="86.713786">
        <ele>2621.4</ele>
        <time>2022-10-30T05:18:29.000Z</time>
      </trkpt>
      <trkpt lat="27.728387" lon="86.713798">
        <ele>2622</ele>
        <time>2022-10-30T05:18:33.000Z</time>
      </trkpt>
      <trkpt lat="27.728365" lon="86.713792">
        <ele>2622.6</ele>
        <time>2022-10-30T05:18:36.000Z</time>
      </trkpt>
      <trkpt lat="27.728339" lon="86.713792">
        <ele>2622.8</ele>
        <time>2022-10-30T05:18:39.000Z</time>
      </trkpt>
      <trkpt lat="27.72832" lon="86.713786">
        <ele>2623</ele>
        <time>2022-10-30T05:18:42.000Z</time>
      </trkpt>
      <trkpt lat="27.728307" lon="86.713766">
        <ele>2623.2</ele>
        <time>2022-10-30T05:18:44.000Z</time>
      </trkpt>
      <trkpt lat="27.728282" lon="86.713773">
        <ele>2623.6</ele>
        <time>2022-10-30T05:18:47.000Z</time>
      </trkpt>
      <trkpt lat="27.728259" lon="86.713786">
        <ele>2623.8</ele>
        <time>2022-10-30T05:18:50.000Z</time>
      </trkpt>
      <trkpt lat="27.728243" lon="86.713798">
        <ele>2623.8</ele>
        <time>2022-10-30T05:18:54.000Z</time>
      </trkpt>
      <trkpt lat="27.728224" lon="86.713811">
        <ele>2624.6</ele>
        <time>2022-10-30T05:19:00.000Z</time>
      </trkpt>
      <trkpt lat="27.728205" lon="86.713824">
        <ele>2625.2</ele>
        <time>2022-10-30T05:19:03.000Z</time>
      </trkpt>
      <trkpt lat="27.728189" lon="86.713837">
        <ele>2625.6</ele>
        <time>2022-10-30T05:19:07.000Z</time>
      </trkpt>
      <trkpt lat="27.728163" lon="86.71383">
        <ele>2626.6</ele>
        <time>2022-10-30T05:19:12.000Z</time>
      </trkpt>
      <trkpt lat="27.728141" lon="86.71383">
        <ele>2627.2</ele>
        <time>2022-10-30T05:19:15.000Z</time>
      </trkpt>
      <trkpt lat="27.728131" lon="86.713811">
        <ele>2627.6</ele>
        <time>2022-10-30T05:19:17.000Z</time>
      </trkpt>
      <trkpt lat="27.728109" lon="86.713805">
        <ele>2628.2</ele>
        <time>2022-10-30T05:19:21.000Z</time>
      </trkpt>
      <trkpt lat="27.728093" lon="86.713792">
        <ele>2628.2</ele>
        <time>2022-10-30T05:19:24.000Z</time>
      </trkpt>
      <trkpt lat="27.728074" lon="86.713786">
        <ele>2628.2</ele>
        <time>2022-10-30T05:19:27.000Z</time>
      </trkpt>
      <trkpt lat="27.728054" lon="86.713792">
        <ele>2627.8</ele>
        <time>2022-10-30T05:19:30.000Z</time>
      </trkpt>
      <trkpt lat="27.728038" lon="86.713805">
        <ele>2627.8</ele>
        <time>2022-10-30T05:19:33.000Z</time>
      </trkpt>
      <trkpt lat="27.728022" lon="86.713824">
        <ele>2627.8</ele>
        <time>2022-10-30T05:19:36.000Z</time>
      </trkpt>
      <trkpt lat="27.728013" lon="86.713843">
        <ele>2628.4</ele>
        <time>2022-10-30T05:19:40.000Z</time>
      </trkpt>
      <trkpt lat="27.728006" lon="86.713862">
        <ele>2628.6</ele>
        <time>2022-10-30T05:19:42.000Z</time>
      </trkpt>
      <trkpt lat="27.728" lon="86.713888">
        <ele>2629.2</ele>
        <time>2022-10-30T05:19:46.000Z</time>
      </trkpt>
      <trkpt lat="27.72799" lon="86.713907">
        <ele>2629.6</ele>
        <time>2022-10-30T05:19:48.000Z</time>
      </trkpt>
      <trkpt lat="27.727981" lon="86.713926">
        <ele>2629.6</ele>
        <time>2022-10-30T05:19:51.000Z</time>
      </trkpt>
      <trkpt lat="27.727965" lon="86.713946">
        <ele>2629.8</ele>
        <time>2022-10-30T05:19:54.000Z</time>
      </trkpt>
      <trkpt lat="27.727946" lon="86.713958">
        <ele>2630</ele>
        <time>2022-10-30T05:19:57.000Z</time>
      </trkpt>
      <trkpt lat="27.727926" lon="86.713958">
        <ele>2629.6</ele>
        <time>2022-10-30T05:20:00.000Z</time>
      </trkpt>
      <trkpt lat="27.727901" lon="86.713965">
        <ele>2630</ele>
        <time>2022-10-30T05:20:04.000Z</time>
      </trkpt>
      <trkpt lat="27.727882" lon="86.713971">
        <ele>2630.2</ele>
        <time>2022-10-30T05:20:07.000Z</time>
      </trkpt>
      <trkpt lat="27.727872" lon="86.71399">
        <ele>2630</ele>
        <time>2022-10-30T05:20:09.000Z</time>
      </trkpt>
      <trkpt lat="27.72785" lon="86.71399">
        <ele>2630.4</ele>
        <time>2022-10-30T05:20:12.000Z</time>
      </trkpt>
      <trkpt lat="27.72783" lon="86.713997">
        <ele>2631.2</ele>
        <time>2022-10-30T05:20:16.000Z</time>
      </trkpt>
      <trkpt lat="27.727814" lon="86.71401">
        <ele>2631</ele>
        <time>2022-10-30T05:20:18.000Z</time>
      </trkpt>
      <trkpt lat="27.727798" lon="86.714022">
        <ele>2631.6</ele>
        <time>2022-10-30T05:20:21.000Z</time>
      </trkpt>
      <trkpt lat="27.727782" lon="86.714035">
        <ele>2632</ele>
        <time>2022-10-30T05:20:23.000Z</time>
      </trkpt>
      <trkpt lat="27.727766" lon="86.714048">
        <ele>2632.2</ele>
        <time>2022-10-30T05:20:25.000Z</time>
      </trkpt>
      <trkpt lat="27.727744" lon="86.714067">
        <ele>2632.2</ele>
        <time>2022-10-30T05:20:28.000Z</time>
      </trkpt>
      <trkpt lat="27.727722" lon="86.714067">
        <ele>2632.4</ele>
        <time>2022-10-30T05:20:30.000Z</time>
      </trkpt>
      <trkpt lat="27.727702" lon="86.714061">
        <ele>2632.6</ele>
        <time>2022-10-30T05:20:33.000Z</time>
      </trkpt>
      <trkpt lat="27.727683" lon="86.714048">
        <ele>2632.6</ele>
        <time>2022-10-30T05:20:36.000Z</time>
      </trkpt>
      <trkpt lat="27.727667" lon="86.714035">
        <ele>2632.2</ele>
        <time>2022-10-30T05:20:39.000Z</time>
      </trkpt>
      <trkpt lat="27.727661" lon="86.71401">
        <ele>2631.8</ele>
        <time>2022-10-30T05:20:41.000Z</time>
      </trkpt>
      <trkpt lat="27.727654" lon="86.71399">
        <ele>2631.6</ele>
        <time>2022-10-30T05:20:43.000Z</time>
      </trkpt>
      <trkpt lat="27.727632" lon="86.71399">
        <ele>2631.4</ele>
        <time>2022-10-30T05:20:45.000Z</time>
      </trkpt>
      <trkpt lat="27.72761" lon="86.713971">
        <ele>2631.2</ele>
        <time>2022-10-30T05:20:48.000Z</time>
      </trkpt>
      <trkpt lat="27.727578" lon="86.713971">
        <ele>2631</ele>
        <time>2022-10-30T05:20:50.000Z</time>
      </trkpt>
      <trkpt lat="27.727558" lon="86.713971">
        <ele>2630.6</ele>
        <time>2022-10-30T05:20:52.000Z</time>
      </trkpt>
      <trkpt lat="27.727539" lon="86.713971">
        <ele>2630.4</ele>
        <time>2022-10-30T05:20:54.000Z</time>
      </trkpt>
      <trkpt lat="27.72752" lon="86.713958">
        <ele>2630.4</ele>
        <time>2022-10-30T05:20:56.000Z</time>
      </trkpt>
      <trkpt lat="27.727494" lon="86.713952">
        <ele>2630.2</ele>
        <time>2022-10-30T05:20:58.000Z</time>
      </trkpt>
      <trkpt lat="27.727469" lon="86.713965">
        <ele>2630</ele>
        <time>2022-10-30T05:21:00.000Z</time>
      </trkpt>
      <trkpt lat="27.727446" lon="86.713965">
        <ele>2630.2</ele>
        <time>2022-10-30T05:21:03.000Z</time>
      </trkpt>
      <trkpt lat="27.727414" lon="86.713965">
        <ele>2630.2</ele>
        <time>2022-10-30T05:21:06.000Z</time>
      </trkpt>
      <trkpt lat="27.727392" lon="86.713965">
        <ele>2629.8</ele>
        <time>2022-10-30T05:21:08.000Z</time>
      </trkpt>
      <trkpt lat="27.727373" lon="86.713965">
        <ele>2630.4</ele>
        <time>2022-10-30T05:21:10.000Z</time>
      </trkpt>
      <trkpt lat="27.727344" lon="86.713965">
        <ele>2630.6</ele>
        <time>2022-10-30T05:21:13.000Z</time>
      </trkpt>
      <trkpt lat="27.727325" lon="86.713958">
        <ele>2630</ele>
        <time>2022-10-30T05:21:17.000Z</time>
      </trkpt>
      <trkpt lat="27.727299" lon="86.713958">
        <ele>2628.6</ele>
        <time>2022-10-30T05:21:20.000Z</time>
      </trkpt>
      <trkpt lat="27.727277" lon="86.713971">
        <ele>2627.4</ele>
        <time>2022-10-30T05:21:25.000Z</time>
      </trkpt>
      <trkpt lat="27.727258" lon="86.71399">
        <ele>2626.8</ele>
        <time>2022-10-30T05:21:28.000Z</time>
      </trkpt>
      <trkpt lat="27.727238" lon="86.714003">
        <ele>2625.8</ele>
        <time>2022-10-30T05:21:30.000Z</time>
      </trkpt>
      <trkpt lat="27.727216" lon="86.71401">
        <ele>2625.8</ele>
        <time>2022-10-30T05:21:33.000Z</time>
      </trkpt>
      <trkpt lat="27.7272" lon="86.714029">
        <ele>2626</ele>
        <time>2022-10-30T05:21:36.000Z</time>
      </trkpt>
      <trkpt lat="27.727184" lon="86.714048">
        <ele>2625.8</ele>
        <time>2022-10-30T05:21:39.000Z</time>
      </trkpt>
      <trkpt lat="27.727168" lon="86.714061">
        <ele>2625</ele>
        <time>2022-10-30T05:21:41.000Z</time>
      </trkpt>
      <trkpt lat="27.727149" lon="86.71408">
        <ele>2623.6</ele>
        <time>2022-10-30T05:21:45.000Z</time>
      </trkpt>
      <trkpt lat="27.72713" lon="86.714086">
        <ele>2623</ele>
        <time>2022-10-30T05:21:48.000Z</time>
      </trkpt>
      <trkpt lat="27.727123" lon="86.714106">
        <ele>2622.6</ele>
        <time>2022-10-30T05:21:49.000Z</time>
      </trkpt>
      <trkpt lat="27.727101" lon="86.714112">
        <ele>2622.4</ele>
        <time>2022-10-30T05:21:52.000Z</time>
      </trkpt>
      <trkpt lat="27.727085" lon="86.714125">
        <ele>2621</ele>
        <time>2022-10-30T05:21:55.000Z</time>
      </trkpt>
      <trkpt lat="27.727069" lon="86.714144">
        <ele>2620.8</ele>
        <time>2022-10-30T05:21:57.000Z</time>
      </trkpt>
      <trkpt lat="27.72705" lon="86.714163">
        <ele>2620.8</ele>
        <time>2022-10-30T05:21:59.000Z</time>
      </trkpt>
      <trkpt lat="27.72704" lon="86.714182">
        <ele>2620.8</ele>
        <time>2022-10-30T05:22:00.000Z</time>
      </trkpt>
      <trkpt lat="27.727024" lon="86.714202">
        <ele>2620.6</ele>
        <time>2022-10-30T05:22:03.000Z</time>
      </trkpt>
      <trkpt lat="27.727008" lon="86.714221">
        <ele>2620</ele>
        <time>2022-10-30T05:22:05.000Z</time>
      </trkpt>
      <trkpt lat="27.726992" lon="86.714234">
        <ele>2620.2</ele>
        <time>2022-10-30T05:22:07.000Z</time>
      </trkpt>
      <trkpt lat="27.72697" lon="86.71424">
        <ele>2619.6</ele>
        <time>2022-10-30T05:22:09.000Z</time>
      </trkpt>
      <trkpt lat="27.726947" lon="86.714246">
        <ele>2619.4</ele>
        <time>2022-10-30T05:22:11.000Z</time>
      </trkpt>
      <trkpt lat="27.726922" lon="86.714246">
        <ele>2619.2</ele>
        <time>2022-10-30T05:22:13.000Z</time>
      </trkpt>
      <trkpt lat="27.726902" lon="86.714259">
        <ele>2619.2</ele>
        <time>2022-10-30T05:22:15.000Z</time>
      </trkpt>
      <trkpt lat="27.72689" lon="86.714285">
        <ele>2618.8</ele>
        <time>2022-10-30T05:22:18.000Z</time>
      </trkpt>
      <trkpt lat="27.72688" lon="86.714304">
        <ele>2619</ele>
        <time>2022-10-30T05:22:20.000Z</time>
      </trkpt>
      <trkpt lat="27.726861" lon="86.71431">
        <ele>2619.2</ele>
        <time>2022-10-30T05:22:22.000Z</time>
      </trkpt>
      <trkpt lat="27.726838" lon="86.714323">
        <ele>2619</ele>
        <time>2022-10-30T05:22:24.000Z</time>
      </trkpt>
      <trkpt lat="27.726822" lon="86.714342">
        <ele>2618.6</ele>
        <time>2022-10-30T05:22:26.000Z</time>
      </trkpt>
      <trkpt lat="27.7268" lon="86.714349">
        <ele>2618</ele>
        <time>2022-10-30T05:22:28.000Z</time>
      </trkpt>
      <trkpt lat="27.726787" lon="86.71433">
        <ele>2618.2</ele>
        <time>2022-10-30T05:22:31.000Z</time>
      </trkpt>
      <trkpt lat="27.726771" lon="86.714355">
        <ele>2619.4</ele>
        <time>2022-10-30T05:23:16.000Z</time>
      </trkpt>
      <trkpt lat="27.726752" lon="86.714381">
        <ele>2619.4</ele>
        <time>2022-10-30T05:23:18.000Z</time>
      </trkpt>
      <trkpt lat="27.726736" lon="86.714394">
        <ele>2619.2</ele>
        <time>2022-10-30T05:23:20.000Z</time>
      </trkpt>
      <trkpt lat="27.72672" lon="86.714406">
        <ele>2619.2</ele>
        <time>2022-10-30T05:23:22.000Z</time>
      </trkpt>
      <trkpt lat="27.726704" lon="86.714419">
        <ele>2619.2</ele>
        <time>2022-10-30T05:23:23.000Z</time>
      </trkpt>
      <trkpt lat="27.726678" lon="86.714419">
        <ele>2619.4</ele>
        <time>2022-10-30T05:23:25.000Z</time>
      </trkpt>
      <trkpt lat="27.726653" lon="86.714426">
        <ele>2619.4</ele>
        <time>2022-10-30T05:23:27.000Z</time>
      </trkpt>
      <trkpt lat="27.726624" lon="86.714432">
        <ele>2619.2</ele>
        <time>2022-10-30T05:23:29.000Z</time>
      </trkpt>
      <trkpt lat="27.726602" lon="86.714432">
        <ele>2618.8</ele>
        <time>2022-10-30T05:23:31.000Z</time>
      </trkpt>
      <trkpt lat="27.726582" lon="86.714426">
        <ele>2618.6</ele>
        <time>2022-10-30T05:23:33.000Z</time>
      </trkpt>
      <trkpt lat="27.726592" lon="86.714406">
        <ele>2618.2</ele>
        <time>2022-10-30T05:23:35.000Z</time>
      </trkpt>
      <trkpt lat="27.726589" lon="86.714381">
        <ele>2618.2</ele>
        <time>2022-10-30T05:23:38.000Z</time>
      </trkpt>
      <trkpt lat="27.726582" lon="86.714362">
        <ele>2617.8</ele>
        <time>2022-10-30T05:23:39.000Z</time>
      </trkpt>
      <trkpt lat="27.72657" lon="86.714342">
        <ele>2617.6</ele>
        <time>2022-10-30T05:23:41.000Z</time>
      </trkpt>
      <trkpt lat="27.726557" lon="86.714323">
        <ele>2617.6</ele>
        <time>2022-10-30T05:23:42.000Z</time>
      </trkpt>
      <trkpt lat="27.726525" lon="86.71431">
        <ele>2617.6</ele>
        <time>2022-10-30T05:23:44.000Z</time>
      </trkpt>
      <trkpt lat="27.72649" lon="86.71431">
        <ele>2617.6</ele>
        <time>2022-10-30T05:23:46.000Z</time>
      </trkpt>
      <trkpt lat="27.726458" lon="86.714317">
        <ele>2617.6</ele>
        <time>2022-10-30T05:23:48.000Z</time>
      </trkpt>
      <trkpt lat="27.726435" lon="86.714342">
        <ele>2617.6</ele>
        <time>2022-10-30T05:23:50.000Z</time>
      </trkpt>
      <trkpt lat="27.726416" lon="86.714362">
        <ele>2618</ele>
        <time>2022-10-30T05:23:52.000Z</time>
      </trkpt>
      <trkpt lat="27.72641" lon="86.714381">
        <ele>2618</ele>
        <time>2022-10-30T05:23:53.000Z</time>
      </trkpt>
      <trkpt lat="27.72639" lon="86.714394">
        <ele>2618</ele>
        <time>2022-10-30T05:23:55.000Z</time>
      </trkpt>
      <trkpt lat="27.726365" lon="86.7144">
        <ele>2618.8</ele>
        <time>2022-10-30T05:23:58.000Z</time>
      </trkpt>
      <trkpt lat="27.726339" lon="86.714406">
        <ele>2618.4</ele>
        <time>2022-10-30T05:24:00.000Z</time>
      </trkpt>
      <trkpt lat="27.726317" lon="86.714394">
        <ele>2617</ele>
        <time>2022-10-30T05:24:12.000Z</time>
      </trkpt>
      <trkpt lat="27.726301" lon="86.714406">
        <ele>2615</ele>
        <time>2022-10-30T05:24:20.000Z</time>
      </trkpt>
      <trkpt lat="27.726298" lon="86.714432">
        <ele>2614.8</ele>
        <time>2022-10-30T05:24:23.000Z</time>
      </trkpt>
      <trkpt lat="27.726285" lon="86.714458">
        <ele>2614.4</ele>
        <time>2022-10-30T05:24:31.000Z</time>
      </trkpt>
      <trkpt lat="27.726256" lon="86.714438">
        <ele>2612.2</ele>
        <time>2022-10-30T05:24:57.000Z</time>
      </trkpt>
      <trkpt lat="27.726234" lon="86.714438">
        <ele>2611.8</ele>
        <time>2022-10-30T05:24:58.000Z</time>
      </trkpt>
      <trkpt lat="27.726182" lon="86.714445">
        <ele>2610.6</ele>
        <time>2022-10-30T05:25:02.000Z</time>
      </trkpt>
      <trkpt lat="27.726154" lon="86.714445">
        <ele>2610</ele>
        <time>2022-10-30T05:25:04.000Z</time>
      </trkpt>
      <trkpt lat="27.726131" lon="86.714445">
        <ele>2610.2</ele>
        <time>2022-10-30T05:25:06.000Z</time>
      </trkpt>
      <trkpt lat="27.726112" lon="86.714445">
        <ele>2610.2</ele>
        <time>2022-10-30T05:25:08.000Z</time>
      </trkpt>
      <trkpt lat="27.726093" lon="86.714464">
        <ele>2609</ele>
        <time>2022-10-30T05:25:11.000Z</time>
      </trkpt>
      <trkpt lat="27.726074" lon="86.714464">
        <ele>2608.8</ele>
        <time>2022-10-30T05:25:14.000Z</time>
      </trkpt>
      <trkpt lat="27.726054" lon="86.71447">
        <ele>2608.8</ele>
        <time>2022-10-30T05:25:16.000Z</time>
      </trkpt>
      <trkpt lat="27.726035" lon="86.71447">
        <ele>2608.2</ele>
        <time>2022-10-30T05:25:18.000Z</time>
      </trkpt>
      <trkpt lat="27.72601" lon="86.714483">
        <ele>2607.2</ele>
        <time>2022-10-30T05:25:21.000Z</time>
      </trkpt>
      <trkpt lat="27.725984" lon="86.714483">
        <ele>2607.2</ele>
        <time>2022-10-30T05:25:23.000Z</time>
      </trkpt>
      <trkpt lat="27.725965" lon="86.714483">
        <ele>2607.2</ele>
        <time>2022-10-30T05:25:25.000Z</time>
      </trkpt>
      <trkpt lat="27.725939" lon="86.714483">
        <ele>2607</ele>
        <time>2022-10-30T05:25:28.000Z</time>
      </trkpt>
      <trkpt lat="27.72592" lon="86.714477">
        <ele>2607</ele>
        <time>2022-10-30T05:25:33.000Z</time>
      </trkpt>
      <trkpt lat="27.725898" lon="86.714477">
        <ele>2606</ele>
        <time>2022-10-30T05:25:36.000Z</time>
      </trkpt>
      <trkpt lat="27.725875" lon="86.714477">
        <ele>2606</ele>
        <time>2022-10-30T05:25:38.000Z</time>
      </trkpt>
      <trkpt lat="27.725853" lon="86.71447">
        <ele>2605.4</ele>
        <time>2022-10-30T05:25:40.000Z</time>
      </trkpt>
      <trkpt lat="27.725834" lon="86.714477">
        <ele>2605.4</ele>
        <time>2022-10-30T05:25:42.000Z</time>
      </trkpt>
      <trkpt lat="27.725814" lon="86.714483">
        <ele>2605</ele>
        <time>2022-10-30T05:25:45.000Z</time>
      </trkpt>
      <trkpt lat="27.725795" lon="86.714483">
        <ele>2604.2</ele>
        <time>2022-10-30T05:25:48.000Z</time>
      </trkpt>
      <trkpt lat="27.725776" lon="86.71449">
        <ele>2603.6</ele>
        <time>2022-10-30T05:25:52.000Z</time>
      </trkpt>
      <trkpt lat="27.725763" lon="86.714509">
        <ele>2603</ele>
        <time>2022-10-30T05:25:54.000Z</time>
      </trkpt>
      <trkpt lat="27.72575" lon="86.71449">
        <ele>2603</ele>
        <time>2022-10-30T05:25:56.000Z</time>
      </trkpt>
      <trkpt lat="27.725744" lon="86.71447">
        <ele>2602.4</ele>
        <time>2022-10-30T05:25:58.000Z</time>
      </trkpt>
      <trkpt lat="27.725715" lon="86.714477">
        <ele>2599.6</ele>
        <time>2022-10-30T05:26:34.000Z</time>
      </trkpt>
      <trkpt lat="27.725683" lon="86.71449">
        <ele>2600.4</ele>
        <time>2022-10-30T05:26:36.000Z</time>
      </trkpt>
      <trkpt lat="27.725667" lon="86.714502">
        <ele>2600.4</ele>
        <time>2022-10-30T05:26:37.000Z</time>
      </trkpt>
      <trkpt lat="27.725648" lon="86.714502">
        <ele>2600</ele>
        <time>2022-10-30T05:26:38.000Z</time>
      </trkpt>
      <trkpt lat="27.725619" lon="86.714509">
        <ele>2599</ele>
        <time>2022-10-30T05:26:40.000Z</time>
      </trkpt>
      <trkpt lat="27.725587" lon="86.714522">
        <ele>2598.8</ele>
        <time>2022-10-30T05:26:42.000Z</time>
      </trkpt>
      <trkpt lat="27.725562" lon="86.714541">
        <ele>2598</ele>
        <time>2022-10-30T05:26:45.000Z</time>
      </trkpt>
      <trkpt lat="27.725542" lon="86.714541">
        <ele>2597.4</ele>
        <time>2022-10-30T05:26:47.000Z</time>
      </trkpt>
      <trkpt lat="27.725514" lon="86.71456">
        <ele>2597.2</ele>
        <time>2022-10-30T05:26:50.000Z</time>
      </trkpt>
      <trkpt lat="27.725482" lon="86.714579">
        <ele>2596.2</ele>
        <time>2022-10-30T05:26:53.000Z</time>
      </trkpt>
      <trkpt lat="27.725462" lon="86.714579">
        <ele>2595.8</ele>
        <time>2022-10-30T05:26:55.000Z</time>
      </trkpt>
      <trkpt lat="27.72544" lon="86.714579">
        <ele>2595.4</ele>
        <time>2022-10-30T05:26:58.000Z</time>
      </trkpt>
      <trkpt lat="27.725421" lon="86.714586">
        <ele>2594.8</ele>
        <time>2022-10-30T05:27:00.000Z</time>
      </trkpt>
      <trkpt lat="27.725398" lon="86.714586">
        <ele>2594.4</ele>
        <time>2022-10-30T05:27:02.000Z</time>
      </trkpt>
      <trkpt lat="27.725379" lon="86.714586">
        <ele>2593.8</ele>
        <time>2022-10-30T05:27:04.000Z</time>
      </trkpt>
      <trkpt lat="27.72536" lon="86.714586">
        <ele>2593.4</ele>
        <time>2022-10-30T05:27:06.000Z</time>
      </trkpt>
      <trkpt lat="27.725338" lon="86.714586">
        <ele>2593.4</ele>
        <time>2022-10-30T05:27:08.000Z</time>
      </trkpt>
      <trkpt lat="27.725309" lon="86.714579">
        <ele>2593.4</ele>
        <time>2022-10-30T05:27:11.000Z</time>
      </trkpt>
      <trkpt lat="27.72529" lon="86.714579">
        <ele>2592.8</ele>
        <time>2022-10-30T05:27:13.000Z</time>
      </trkpt>
      <trkpt lat="27.725274" lon="86.71456">
        <ele>2592.6</ele>
        <time>2022-10-30T05:27:15.000Z</time>
      </trkpt>
      <trkpt lat="27.725251" lon="86.714554">
        <ele>2592.6</ele>
        <time>2022-10-30T05:27:17.000Z</time>
      </trkpt>
      <trkpt lat="27.725232" lon="86.714554">
        <ele>2591.8</ele>
        <time>2022-10-30T05:27:19.000Z</time>
      </trkpt>
      <trkpt lat="27.725213" lon="86.714547">
        <ele>2591.4</ele>
        <time>2022-10-30T05:27:21.000Z</time>
      </trkpt>
      <trkpt lat="27.72519" lon="86.714554">
        <ele>2590.8</ele>
        <time>2022-10-30T05:27:23.000Z</time>
      </trkpt>
      <trkpt lat="27.725168" lon="86.714547">
        <ele>2590.6</ele>
        <time>2022-10-30T05:27:25.000Z</time>
      </trkpt>
      <trkpt lat="27.725136" lon="86.71456">
        <ele>2590.6</ele>
        <time>2022-10-30T05:27:27.000Z</time>
      </trkpt>
      <trkpt lat="27.72511" lon="86.714579">
        <ele>2590</ele>
        <time>2022-10-30T05:27:29.000Z</time>
      </trkpt>
      <trkpt lat="27.725082" lon="86.714579">
        <ele>2589.6</ele>
        <time>2022-10-30T05:27:32.000Z</time>
      </trkpt>
      <trkpt lat="27.725056" lon="86.714592">
        <ele>2589.6</ele>
        <time>2022-10-30T05:27:34.000Z</time>
      </trkpt>
      <trkpt lat="27.725034" lon="86.714592">
        <ele>2588.8</ele>
        <time>2022-10-30T05:27:36.000Z</time>
      </trkpt>
      <trkpt lat="27.725005" lon="86.714598">
        <ele>2589</ele>
        <time>2022-10-30T05:27:39.000Z</time>
      </trkpt>
      <trkpt lat="27.724976" lon="86.714598">
        <ele>2588.4</ele>
        <time>2022-10-30T05:27:41.000Z</time>
      </trkpt>
      <trkpt lat="27.724957" lon="86.714598">
        <ele>2588</ele>
        <time>2022-10-30T05:27:43.000Z</time>
      </trkpt>
      <trkpt lat="27.724934" lon="86.714618">
        <ele>2588.4</ele>
        <time>2022-10-30T05:27:45.000Z</time>
      </trkpt>
      <trkpt lat="27.724909" lon="86.714624">
        <ele>2588.2</ele>
        <time>2022-10-30T05:27:47.000Z</time>
      </trkpt>
      <trkpt lat="27.724883" lon="86.714637">
        <ele>2587.8</ele>
        <time>2022-10-30T05:27:50.000Z</time>
      </trkpt>
      <trkpt lat="27.724854" lon="86.714637">
        <ele>2587.2</ele>
        <time>2022-10-30T05:27:53.000Z</time>
      </trkpt>
      <trkpt lat="27.724835" lon="86.714643">
        <ele>2587.2</ele>
        <time>2022-10-30T05:27:54.000Z</time>
      </trkpt>
      <trkpt lat="27.724816" lon="86.714662">
        <ele>2586.4</ele>
        <time>2022-10-30T05:27:56.000Z</time>
      </trkpt>
      <trkpt lat="27.724794" lon="86.714662">
        <ele>2586.2</ele>
        <time>2022-10-30T05:27:58.000Z</time>
      </trkpt>
      <trkpt lat="27.724771" lon="86.714662">
        <ele>2586.2</ele>
        <time>2022-10-30T05:28:00.000Z</time>
      </trkpt>
      <trkpt lat="27.724746" lon="86.714662">
        <ele>2586.8</ele>
        <time>2022-10-30T05:28:02.000Z</time>
      </trkpt>
      <trkpt lat="27.724717" lon="86.714669">
        <ele>2586.2</ele>
        <time>2022-10-30T05:28:04.000Z</time>
      </trkpt>
      <trkpt lat="27.724694" lon="86.714675">
        <ele>2586</ele>
        <time>2022-10-30T05:28:06.000Z</time>
      </trkpt>
      <trkpt lat="27.724666" lon="86.714682">
        <ele>2586.2</ele>
        <time>2022-10-30T05:28:08.000Z</time>
      </trkpt>
      <trkpt lat="27.724646" lon="86.714669">
        <ele>2586.2</ele>
        <time>2022-10-30T05:28:10.000Z</time>
      </trkpt>
      <trkpt lat="27.724627" lon="86.714662">
        <ele>2585.8</ele>
        <time>2022-10-30T05:28:12.000Z</time>
      </trkpt>
      <trkpt lat="27.724608" lon="86.714662">
        <ele>2585</ele>
        <time>2022-10-30T05:28:14.000Z</time>
      </trkpt>
      <trkpt lat="27.724582" lon="86.714662">
        <ele>2584.8</ele>
        <time>2022-10-30T05:28:16.000Z</time>
      </trkpt>
      <trkpt lat="27.724557" lon="86.714662">
        <ele>2585.2</ele>
        <time>2022-10-30T05:28:19.000Z</time>
      </trkpt>
      <trkpt lat="27.724538" lon="86.714675">
        <ele>2584</ele>
        <time>2022-10-30T05:28:22.000Z</time>
      </trkpt>
      <trkpt lat="27.724518" lon="86.714682">
        <ele>2583.2</ele>
        <time>2022-10-30T05:28:24.000Z</time>
      </trkpt>
      <trkpt lat="27.724496" lon="86.714688">
        <ele>2583.2</ele>
        <time>2022-10-30T05:28:26.000Z</time>
      </trkpt>
      <trkpt lat="27.724474" lon="86.714688">
        <ele>2583</ele>
        <time>2022-10-30T05:28:28.000Z</time>
      </trkpt>
      <trkpt lat="27.724448" lon="86.714688">
        <ele>2582.6</ele>
        <time>2022-10-30T05:28:30.000Z</time>
      </trkpt>
      <trkpt lat="27.724419" lon="86.714701">
        <ele>2582.6</ele>
        <time>2022-10-30T05:28:32.000Z</time>
      </trkpt>
      <trkpt lat="27.724394" lon="86.714701">
        <ele>2582.6</ele>
        <time>2022-10-30T05:28:34.000Z</time>
      </trkpt>
      <trkpt lat="27.724368" lon="86.714707">
        <ele>2582.2</ele>
        <time>2022-10-30T05:28:36.000Z</time>
      </trkpt>
      <trkpt lat="27.724349" lon="86.71472">
        <ele>2582</ele>
        <time>2022-10-30T05:28:38.000Z</time>
      </trkpt>
      <trkpt lat="27.72433" lon="86.714726">
        <ele>2581.8</ele>
        <time>2022-10-30T05:28:40.000Z</time>
      </trkpt>
      <trkpt lat="27.724301" lon="86.714746">
        <ele>2581.8</ele>
        <time>2022-10-30T05:28:43.000Z</time>
      </trkpt>
      <trkpt lat="27.724269" lon="86.714752">
        <ele>2581.4</ele>
        <time>2022-10-30T05:28:45.000Z</time>
      </trkpt>
      <trkpt lat="27.724246" lon="86.714752">
        <ele>2581.2</ele>
        <time>2022-10-30T05:28:47.000Z</time>
      </trkpt>
      <trkpt lat="27.724221" lon="86.714746">
        <ele>2581</ele>
        <time>2022-10-30T05:28:49.000Z</time>
      </trkpt>
      <trkpt lat="27.724192" lon="86.714726">
        <ele>2580.6</ele>
        <time>2022-10-30T05:28:51.000Z</time>
      </trkpt>
      <trkpt lat="27.724179" lon="86.714707">
        <ele>2580</ele>
        <time>2022-10-30T05:28:54.000Z</time>
      </trkpt>
      <trkpt lat="27.724154" lon="86.714688">
        <ele>2579.8</ele>
        <time>2022-10-30T05:28:56.000Z</time>
      </trkpt>
      <trkpt lat="27.724131" lon="86.714688">
        <ele>2579.4</ele>
        <time>2022-10-30T05:28:58.000Z</time>
      </trkpt>
      <trkpt lat="27.724109" lon="86.714688">
        <ele>2579.2</ele>
        <time>2022-10-30T05:29:00.000Z</time>
      </trkpt>
      <trkpt lat="27.72408" lon="86.714701">
        <ele>2578.8</ele>
        <time>2022-10-30T05:29:02.000Z</time>
      </trkpt>
      <trkpt lat="27.724051" lon="86.714701">
        <ele>2578.8</ele>
        <time>2022-10-30T05:29:04.000Z</time>
      </trkpt>
      <trkpt lat="27.724029" lon="86.714701">
        <ele>2578.6</ele>
        <time>2022-10-30T05:29:06.000Z</time>
      </trkpt>
      <trkpt lat="27.724006" lon="86.714688">
        <ele>2578.4</ele>
        <time>2022-10-30T05:29:08.000Z</time>
      </trkpt>
      <trkpt lat="27.723981" lon="86.714688">
        <ele>2578</ele>
        <time>2022-10-30T05:29:10.000Z</time>
      </trkpt>
      <trkpt lat="27.723962" lon="86.714675">
        <ele>2577.6</ele>
        <time>2022-10-30T05:29:12.000Z</time>
      </trkpt>
      <trkpt lat="27.723942" lon="86.714662">
        <ele>2577</ele>
        <time>2022-10-30T05:29:14.000Z</time>
      </trkpt>
      <trkpt lat="27.723917" lon="86.714669">
        <ele>2577</ele>
        <time>2022-10-30T05:29:16.000Z</time>
      </trkpt>
      <trkpt lat="27.723898" lon="86.714662">
        <ele>2577.2</ele>
        <time>2022-10-30T05:29:18.000Z</time>
      </trkpt>
      <trkpt lat="27.723898" lon="86.714637">
        <ele>2576.8</ele>
        <time>2022-10-30T05:29:37.000Z</time>
      </trkpt>
      <trkpt lat="27.723875" lon="86.71463">
        <ele>2576.8</ele>
        <time>2022-10-30T05:29:39.000Z</time>
      </trkpt>
      <trkpt lat="27.723853" lon="86.71463">
        <ele>2576.2</ele>
        <time>2022-10-30T05:29:41.000Z</time>
      </trkpt>
      <trkpt lat="27.72383" lon="86.714624">
        <ele>2576</ele>
        <time>2022-10-30T05:29:43.000Z</time>
      </trkpt>
      <trkpt lat="27.723805" lon="86.71463">
        <ele>2575.6</ele>
        <time>2022-10-30T05:29:45.000Z</time>
      </trkpt>
      <trkpt lat="27.723782" lon="86.71463">
        <ele>2575.2</ele>
        <time>2022-10-30T05:29:47.000Z</time>
      </trkpt>
      <trkpt lat="27.72376" lon="86.71463">
        <ele>2575.4</ele>
        <time>2022-10-30T05:29:49.000Z</time>
      </trkpt>
      <trkpt lat="27.723734" lon="86.714624">
        <ele>2575.6</ele>
        <time>2022-10-30T05:29:51.000Z</time>
      </trkpt>
      <trkpt lat="27.723715" lon="86.71463">
        <ele>2575.2</ele>
        <time>2022-10-30T05:29:53.000Z</time>
      </trkpt>
      <trkpt lat="27.72369" lon="86.714637">
        <ele>2575.4</ele>
        <time>2022-10-30T05:29:55.000Z</time>
      </trkpt>
      <trkpt lat="27.723667" lon="86.71463">
        <ele>2575.2</ele>
        <time>2022-10-30T05:29:57.000Z</time>
      </trkpt>
      <trkpt lat="27.723645" lon="86.71463">
        <ele>2574.8</ele>
        <time>2022-10-30T05:29:59.000Z</time>
      </trkpt>
      <trkpt lat="27.723616" lon="86.714624">
        <ele>2573.6</ele>
        <time>2022-10-30T05:30:01.000Z</time>
      </trkpt>
      <trkpt lat="27.72359" lon="86.714618">
        <ele>2573.2</ele>
        <time>2022-10-30T05:30:03.000Z</time>
      </trkpt>
      <trkpt lat="27.723574" lon="86.714605">
        <ele>2573.2</ele>
        <time>2022-10-30T05:30:04.000Z</time>
      </trkpt>
      <trkpt lat="27.723549" lon="86.714598">
        <ele>2573.8</ele>
        <time>2022-10-30T05:30:06.000Z</time>
      </trkpt>
      <trkpt lat="27.723523" lon="86.714586">
        <ele>2574.4</ele>
        <time>2022-10-30T05:30:08.000Z</time>
      </trkpt>
      <trkpt lat="27.723501" lon="86.714566">
        <ele>2574.4</ele>
        <time>2022-10-30T05:30:10.000Z</time>
      </trkpt>
      <trkpt lat="27.723472" lon="86.714566">
        <ele>2574.4</ele>
        <time>2022-10-30T05:30:12.000Z</time>
      </trkpt>
      <trkpt lat="27.723446" lon="86.714566">
        <ele>2574.4</ele>
        <time>2022-10-30T05:30:14.000Z</time>
      </trkpt>
      <trkpt lat="27.723424" lon="86.71456">
        <ele>2574.4</ele>
        <time>2022-10-30T05:30:16.000Z</time>
      </trkpt>
      <trkpt lat="27.723405" lon="86.714554">
        <ele>2574.2</ele>
        <time>2022-10-30T05:30:18.000Z</time>
      </trkpt>
      <trkpt lat="27.723382" lon="86.714554">
        <ele>2574.2</ele>
        <time>2022-10-30T05:30:20.000Z</time>
      </trkpt>
      <trkpt lat="27.723357" lon="86.714547">
        <ele>2574.2</ele>
        <time>2022-10-30T05:30:22.000Z</time>
      </trkpt>
      <trkpt lat="27.723347" lon="86.714528">
        <ele>2574.2</ele>
        <time>2022-10-30T05:30:24.000Z</time>
      </trkpt>
      <trkpt lat="27.723328" lon="86.714502">
        <ele>2574.2</ele>
        <time>2022-10-30T05:30:26.000Z</time>
      </trkpt>
      <trkpt lat="27.723309" lon="86.71449">
        <ele>2574.2</ele>
        <time>2022-10-30T05:30:27.000Z</time>
      </trkpt>
      <trkpt lat="27.72329" lon="86.71449">
        <ele>2574</ele>
        <time>2022-10-30T05:30:28.000Z</time>
      </trkpt>
      <trkpt lat="27.723267" lon="86.714477">
        <ele>2573.6</ele>
        <time>2022-10-30T05:30:30.000Z</time>
      </trkpt>
      <trkpt lat="27.723245" lon="86.71447">
        <ele>2574</ele>
        <time>2022-10-30T05:30:32.000Z</time>
      </trkpt>
      <trkpt lat="27.723222" lon="86.714445">
        <ele>2573.6</ele>
        <time>2022-10-30T05:30:34.000Z</time>
      </trkpt>
      <trkpt lat="27.723203" lon="86.714432">
        <ele>2573.4</ele>
        <time>2022-10-30T05:30:36.000Z</time>
      </trkpt>
      <trkpt lat="27.723178" lon="86.714419">
        <ele>2574.2</ele>
        <time>2022-10-30T05:30:38.000Z</time>
      </trkpt>
      <trkpt lat="27.723162" lon="86.7144">
        <ele>2574.4</ele>
        <time>2022-10-30T05:30:39.000Z</time>
      </trkpt>
      <trkpt lat="27.723136" lon="86.714387">
        <ele>2574.6</ele>
        <time>2022-10-30T05:30:41.000Z</time>
      </trkpt>
      <trkpt lat="27.723117" lon="86.714368">
        <ele>2574.2</ele>
        <time>2022-10-30T05:30:43.000Z</time>
      </trkpt>
      <trkpt lat="27.723098" lon="86.714355">
        <ele>2573.8</ele>
        <time>2022-10-30T05:30:45.000Z</time>
      </trkpt>
      <trkpt lat="27.723075" lon="86.714342">
        <ele>2573.6</ele>
        <time>2022-10-30T05:30:47.000Z</time>
      </trkpt>
      <trkpt lat="27.723059" lon="86.71433">
        <ele>2573.6</ele>
        <time>2022-10-30T05:30:48.000Z</time>
      </trkpt>
      <trkpt lat="27.723037" lon="86.714323">
        <ele>2573.8</ele>
        <time>2022-10-30T05:30:50.000Z</time>
      </trkpt>
      <trkpt lat="27.723014" lon="86.714323">
        <ele>2574</ele>
        <time>2022-10-30T05:30:52.000Z</time>
      </trkpt>
      <trkpt lat="27.722995" lon="86.71431">
        <ele>2574.2</ele>
        <time>2022-10-30T05:30:54.000Z</time>
      </trkpt>
      <trkpt lat="27.722966" lon="86.714304">
        <ele>2574.2</ele>
        <time>2022-10-30T05:30:56.000Z</time>
      </trkpt>
      <trkpt lat="27.722941" lon="86.714298">
        <ele>2574.2</ele>
        <time>2022-10-30T05:30:58.000Z</time>
      </trkpt>
      <trkpt lat="27.722922" lon="86.714298">
        <ele>2574.2</ele>
        <time>2022-10-30T05:31:00.000Z</time>
      </trkpt>
      <trkpt lat="27.722899" lon="86.714285">
        <ele>2573.8</ele>
        <time>2022-10-30T05:31:02.000Z</time>
      </trkpt>
      <trkpt lat="27.722874" lon="86.714298">
        <ele>2573.8</ele>
        <time>2022-10-30T05:31:04.000Z</time>
      </trkpt>
      <trkpt lat="27.722851" lon="86.714285">
        <ele>2573.4</ele>
        <time>2022-10-30T05:31:06.000Z</time>
      </trkpt>
      <trkpt lat="27.722829" lon="86.714285">
        <ele>2573.6</ele>
        <time>2022-10-30T05:31:08.000Z</time>
      </trkpt>
      <trkpt lat="27.722806" lon="86.714285">
        <ele>2573.8</ele>
        <time>2022-10-30T05:31:10.000Z</time>
      </trkpt>
      <trkpt lat="27.722784" lon="86.714285">
        <ele>2574</ele>
        <time>2022-10-30T05:31:12.000Z</time>
      </trkpt>
      <trkpt lat="27.722758" lon="86.714278">
        <ele>2574</ele>
        <time>2022-10-30T05:31:14.000Z</time>
      </trkpt>
      <trkpt lat="27.722736" lon="86.714278">
        <ele>2574</ele>
        <time>2022-10-30T05:31:17.000Z</time>
      </trkpt>
      <trkpt lat="27.722717" lon="86.714304">
        <ele>2573.6</ele>
        <time>2022-10-30T05:31:19.000Z</time>
      </trkpt>
      <trkpt lat="27.722701" lon="86.714317">
        <ele>2574.2</ele>
        <time>2022-10-30T05:31:25.000Z</time>
      </trkpt>
      <trkpt lat="27.722678" lon="86.71433">
        <ele>2574.6</ele>
        <time>2022-10-30T05:31:29.000Z</time>
      </trkpt>
      <trkpt lat="27.722659" lon="86.714342">
        <ele>2575.6</ele>
        <time>2022-10-30T05:31:33.000Z</time>
      </trkpt>
      <trkpt lat="27.72264" lon="86.714342">
        <ele>2576</ele>
        <time>2022-10-30T05:31:36.000Z</time>
      </trkpt>
      <trkpt lat="27.722621" lon="86.714342">
        <ele>2577</ele>
        <time>2022-10-30T05:31:40.000Z</time>
      </trkpt>
      <trkpt lat="27.722598" lon="86.714349">
        <ele>2577.4</ele>
        <time>2022-10-30T05:31:44.000Z</time>
      </trkpt>
      <trkpt lat="27.722582" lon="86.71433">
        <ele>2578.4</ele>
        <time>2022-10-30T05:31:49.000Z</time>
      </trkpt>
      <trkpt lat="27.722573" lon="86.714349">
        <ele>2579.2</ele>
        <time>2022-10-30T05:31:52.000Z</time>
      </trkpt>
      <trkpt lat="27.722554" lon="86.714349">
        <ele>2580</ele>
        <time>2022-10-30T05:31:56.000Z</time>
      </trkpt>
      <trkpt lat="27.722531" lon="86.714355">
        <ele>2580.4</ele>
        <time>2022-10-30T05:31:59.000Z</time>
      </trkpt>
      <trkpt lat="27.722509" lon="86.714362">
        <ele>2580.4</ele>
        <time>2022-10-30T05:32:02.000Z</time>
      </trkpt>
      <trkpt lat="27.72249" lon="86.714362">
        <ele>2580.8</ele>
        <time>2022-10-30T05:32:05.000Z</time>
      </trkpt>
      <trkpt lat="27.72247" lon="86.714355">
        <ele>2581</ele>
        <time>2022-10-30T05:32:09.000Z</time>
      </trkpt>
      <trkpt lat="27.722445" lon="86.714349">
        <ele>2581.2</ele>
        <time>2022-10-30T05:32:12.000Z</time>
      </trkpt>
      <trkpt lat="27.722422" lon="86.714362">
        <ele>2582</ele>
        <time>2022-10-30T05:32:15.000Z</time>
      </trkpt>
      <trkpt lat="27.722397" lon="86.714368">
        <ele>2581.8</ele>
        <time>2022-10-30T05:32:17.000Z</time>
      </trkpt>
      <trkpt lat="27.722374" lon="86.714381">
        <ele>2582.6</ele>
        <time>2022-10-30T05:32:26.000Z</time>
      </trkpt>
      <trkpt lat="27.722355" lon="86.714381">
        <ele>2583</ele>
        <time>2022-10-30T05:32:29.000Z</time>
      </trkpt>
      <trkpt lat="27.72233" lon="86.714387">
        <ele>2583</ele>
        <time>2022-10-30T05:32:33.000Z</time>
      </trkpt>
      <trkpt lat="27.722323" lon="86.714362">
        <ele>2583.8</ele>
        <time>2022-10-30T05:33:06.000Z</time>
      </trkpt>
      <trkpt lat="27.722304" lon="86.714368">
        <ele>2584.2</ele>
        <time>2022-10-30T05:33:08.000Z</time>
      </trkpt>
      <trkpt lat="27.722275" lon="86.714368">
        <ele>2584.2</ele>
        <time>2022-10-30T05:33:10.000Z</time>
      </trkpt>
      <trkpt lat="27.722253" lon="86.714381">
        <ele>2584.4</ele>
        <time>2022-10-30T05:33:12.000Z</time>
      </trkpt>
      <trkpt lat="27.72223" lon="86.714368">
        <ele>2584.6</ele>
        <time>2022-10-30T05:33:14.000Z</time>
      </trkpt>
      <trkpt lat="27.722205" lon="86.714362">
        <ele>2585</ele>
        <time>2022-10-30T05:33:16.000Z</time>
      </trkpt>
      <trkpt lat="27.722182" lon="86.714362">
        <ele>2585.4</ele>
        <time>2022-10-30T05:33:18.000Z</time>
      </trkpt>
      <trkpt lat="27.722163" lon="86.714355">
        <ele>2585.2</ele>
        <time>2022-10-30T05:33:20.000Z</time>
      </trkpt>
      <trkpt lat="27.722144" lon="86.714342">
        <ele>2585</ele>
        <time>2022-10-30T05:33:22.000Z</time>
      </trkpt>
      <trkpt lat="27.722118" lon="86.714323">
        <ele>2585.2</ele>
        <time>2022-10-30T05:33:25.000Z</time>
      </trkpt>
      <trkpt lat="27.722096" lon="86.714323">
        <ele>2585.2</ele>
        <time>2022-10-30T05:33:28.000Z</time>
      </trkpt>
      <trkpt lat="27.722077" lon="86.714323">
        <ele>2585.6</ele>
        <time>2022-10-30T05:33:31.000Z</time>
      </trkpt>
      <trkpt lat="27.722054" lon="86.71433">
        <ele>2586.2</ele>
        <time>2022-10-30T05:33:36.000Z</time>
      </trkpt>
      <trkpt lat="27.722032" lon="86.714342">
        <ele>2586.2</ele>
        <time>2022-10-30T05:33:38.000Z</time>
      </trkpt>
      <trkpt lat="27.722006" lon="86.714349">
        <ele>2586.4</ele>
        <time>2022-10-30T05:33:40.000Z</time>
      </trkpt>
      <trkpt lat="27.721978" lon="86.714349">
        <ele>2587.2</ele>
        <time>2022-10-30T05:33:43.000Z</time>
      </trkpt>
      <trkpt lat="27.721952" lon="86.714349">
        <ele>2587.4</ele>
        <time>2022-10-30T05:33:45.000Z</time>
      </trkpt>
      <trkpt lat="27.721926" lon="86.714355">
        <ele>2587.2</ele>
        <time>2022-10-30T05:33:47.000Z</time>
      </trkpt>
      <trkpt lat="27.721901" lon="86.714349">
        <ele>2586.4</ele>
        <time>2022-10-30T05:33:49.000Z</time>
      </trkpt>
      <trkpt lat="27.721875" lon="86.714355">
        <ele>2586.4</ele>
        <time>2022-10-30T05:33:51.000Z</time>
      </trkpt>
      <trkpt lat="27.721856" lon="86.714349">
        <ele>2586.4</ele>
        <time>2022-10-30T05:33:53.000Z</time>
      </trkpt>
      <trkpt lat="27.721834" lon="86.714349">
        <ele>2586.4</ele>
        <time>2022-10-30T05:33:55.000Z</time>
      </trkpt>
      <trkpt lat="27.721808" lon="86.714355">
        <ele>2586.2</ele>
        <time>2022-10-30T05:33:57.000Z</time>
      </trkpt>
      <trkpt lat="27.721786" lon="86.714362">
        <ele>2586.2</ele>
        <time>2022-10-30T05:34:00.000Z</time>
      </trkpt>
      <trkpt lat="27.721763" lon="86.714368">
        <ele>2586.2</ele>
        <time>2022-10-30T05:34:03.000Z</time>
      </trkpt>
      <trkpt lat="27.721734" lon="86.714381">
        <ele>2585.6</ele>
        <time>2022-10-30T05:34:05.000Z</time>
      </trkpt>
      <trkpt lat="27.721718" lon="86.714362">
        <ele>2585.4</ele>
        <time>2022-10-30T05:34:07.000Z</time>
      </trkpt>
      <trkpt lat="27.721699" lon="86.714368">
        <ele>2585.2</ele>
        <time>2022-10-30T05:34:09.000Z</time>
      </trkpt>
      <trkpt lat="27.721674" lon="86.714387">
        <ele>2585.4</ele>
        <time>2022-10-30T05:34:12.000Z</time>
      </trkpt>
      <trkpt lat="27.721658" lon="86.7144">
        <ele>2585.2</ele>
        <time>2022-10-30T05:34:13.000Z</time>
      </trkpt>
      <trkpt lat="27.721632" lon="86.714419">
        <ele>2585</ele>
        <time>2022-10-30T05:34:15.000Z</time>
      </trkpt>
      <trkpt lat="27.721616" lon="86.714406">
        <ele>2584.6</ele>
        <time>2022-10-30T05:34:17.000Z</time>
      </trkpt>
      <trkpt lat="27.721594" lon="86.714406">
        <ele>2584.6</ele>
        <time>2022-10-30T05:34:19.000Z</time>
      </trkpt>
      <trkpt lat="27.721574" lon="86.714419">
        <ele>2585</ele>
        <time>2022-10-30T05:34:21.000Z</time>
      </trkpt>
      <trkpt lat="27.721555" lon="86.714406">
        <ele>2585.2</ele>
        <time>2022-10-30T05:34:24.000Z</time>
      </trkpt>
      <trkpt lat="27.721536" lon="86.714419">
        <ele>2585.2</ele>
        <time>2022-10-30T05:34:26.000Z</time>
      </trkpt>
      <trkpt lat="27.721517" lon="86.714406">
        <ele>2585</ele>
        <time>2022-10-30T05:34:28.000Z</time>
      </trkpt>
      <trkpt lat="27.721498" lon="86.7144">
        <ele>2585</ele>
        <time>2022-10-30T05:34:30.000Z</time>
      </trkpt>
      <trkpt lat="27.721469" lon="86.714406">
        <ele>2585</ele>
        <time>2022-10-30T05:34:32.000Z</time>
      </trkpt>
      <trkpt lat="27.721453" lon="86.714419">
        <ele>2585</ele>
        <time>2022-10-30T05:34:34.000Z</time>
      </trkpt>
      <trkpt lat="27.721427" lon="86.714426">
        <ele>2584.8</ele>
        <time>2022-10-30T05:34:37.000Z</time>
      </trkpt>
      <trkpt lat="27.721408" lon="86.714426">
        <ele>2585.4</ele>
        <time>2022-10-30T05:34:41.000Z</time>
      </trkpt>
      <trkpt lat="27.721386" lon="86.714426">
        <ele>2585.8</ele>
        <time>2022-10-30T05:34:45.000Z</time>
      </trkpt>
      <trkpt lat="27.721366" lon="86.714426">
        <ele>2586.4</ele>
        <time>2022-10-30T05:34:48.000Z</time>
      </trkpt>
      <trkpt lat="27.72135" lon="86.714438">
        <ele>2587.2</ele>
        <time>2022-10-30T05:34:51.000Z</time>
      </trkpt>
      <trkpt lat="27.721331" lon="86.714438">
        <ele>2587.6</ele>
        <time>2022-10-30T05:34:54.000Z</time>
      </trkpt>
      <trkpt lat="27.721309" lon="86.714432">
        <ele>2588</ele>
        <time>2022-10-30T05:34:57.000Z</time>
      </trkpt>
      <trkpt lat="27.72127" lon="86.714438">
        <ele>2589.2</ele>
        <time>2022-10-30T05:35:04.000Z</time>
      </trkpt>
      <trkpt lat="27.721251" lon="86.714438">
        <ele>2589.4</ele>
        <time>2022-10-30T05:35:07.000Z</time>
      </trkpt>
      <trkpt lat="27.721229" lon="86.714438">
        <ele>2589.6</ele>
        <time>2022-10-30T05:35:10.000Z</time>
      </trkpt>
      <trkpt lat="27.721203" lon="86.714438">
        <ele>2590.2</ele>
        <time>2022-10-30T05:35:14.000Z</time>
      </trkpt>
      <trkpt lat="27.721184" lon="86.714438">
        <ele>2590.8</ele>
        <time>2022-10-30T05:35:17.000Z</time>
      </trkpt>
      <trkpt lat="27.721162" lon="86.714458">
        <ele>2591</ele>
        <time>2022-10-30T05:35:20.000Z</time>
      </trkpt>
      <trkpt lat="27.721123" lon="86.714464">
        <ele>2591.8</ele>
        <time>2022-10-30T05:35:26.000Z</time>
      </trkpt>
      <trkpt lat="27.721107" lon="86.714477">
        <ele>2592.4</ele>
        <time>2022-10-30T05:35:31.000Z</time>
      </trkpt>
      <trkpt lat="27.721088" lon="86.714483">
        <ele>2592.4</ele>
        <time>2022-10-30T05:35:34.000Z</time>
      </trkpt>
      <trkpt lat="27.721069" lon="86.714477">
        <ele>2593.2</ele>
        <time>2022-10-30T05:35:38.000Z</time>
      </trkpt>
      <trkpt lat="27.72105" lon="86.71447">
        <ele>2594</ele>
        <time>2022-10-30T05:35:43.000Z</time>
      </trkpt>
      <trkpt lat="27.721034" lon="86.714483">
        <ele>2594.2</ele>
        <time>2022-10-30T05:35:47.000Z</time>
      </trkpt>
      <trkpt lat="27.721014" lon="86.71449">
        <ele>2594.6</ele>
        <time>2022-10-30T05:35:50.000Z</time>
      </trkpt>
      <trkpt lat="27.721002" lon="86.714509">
        <ele>2594.8</ele>
        <time>2022-10-30T05:35:53.000Z</time>
      </trkpt>
      <trkpt lat="27.720989" lon="86.71449">
        <ele>2594.8</ele>
        <time>2022-10-30T05:35:56.000Z</time>
      </trkpt>
      <trkpt lat="27.720963" lon="86.71449">
        <ele>2595.6</ele>
        <time>2022-10-30T05:36:00.000Z</time>
      </trkpt>
      <trkpt lat="27.720941" lon="86.71449">
        <ele>2595.8</ele>
        <time>2022-10-30T05:36:04.000Z</time>
      </trkpt>
      <trkpt lat="27.720925" lon="86.714502">
        <ele>2596.2</ele>
        <time>2022-10-30T05:36:06.000Z</time>
      </trkpt>
      <trkpt lat="27.720909" lon="86.714515">
        <ele>2596.8</ele>
        <time>2022-10-30T05:36:09.000Z</time>
      </trkpt>
      <trkpt lat="27.720899" lon="86.714541">
        <ele>2597</ele>
        <time>2022-10-30T05:36:11.000Z</time>
      </trkpt>
      <trkpt lat="27.72088" lon="86.714541">
        <ele>2598.2</ele>
        <time>2022-10-30T05:36:16.000Z</time>
      </trkpt>
      <trkpt lat="27.720858" lon="86.714554">
        <ele>2598.4</ele>
        <time>2022-10-30T05:36:19.000Z</time>
      </trkpt>
      <trkpt lat="27.720832" lon="86.71456">
        <ele>2598.8</ele>
        <time>2022-10-30T05:36:23.000Z</time>
      </trkpt>
      <trkpt lat="27.720803" lon="86.71456">
        <ele>2599.2</ele>
        <time>2022-10-30T05:36:26.000Z</time>
      </trkpt>
      <trkpt lat="27.720784" lon="86.714566">
        <ele>2599.6</ele>
        <time>2022-10-30T05:36:30.000Z</time>
      </trkpt>
      <trkpt lat="27.720758" lon="86.714579">
        <ele>2599.8</ele>
        <time>2022-10-30T05:36:33.000Z</time>
      </trkpt>
      <trkpt lat="27.720739" lon="86.714566">
        <ele>2599.8</ele>
        <time>2022-10-30T05:36:35.000Z</time>
      </trkpt>
      <trkpt lat="27.720717" lon="86.71456">
        <ele>2600.6</ele>
        <time>2022-10-30T05:36:38.000Z</time>
      </trkpt>
      <trkpt lat="27.720701" lon="86.714547">
        <ele>2600.8</ele>
        <time>2022-10-30T05:36:40.000Z</time>
      </trkpt>
      <trkpt lat="27.720675" lon="86.714547">
        <ele>2601.2</ele>
        <time>2022-10-30T05:36:42.000Z</time>
      </trkpt>
      <trkpt lat="27.72065" lon="86.714547">
        <ele>2602.2</ele>
        <time>2022-10-30T05:36:44.000Z</time>
      </trkpt>
      <trkpt lat="27.720621" lon="86.714541">
        <ele>2601.6</ele>
        <time>2022-10-30T05:36:48.000Z</time>
      </trkpt>
      <trkpt lat="27.720602" lon="86.714541">
        <ele>2601.4</ele>
        <time>2022-10-30T05:36:50.000Z</time>
      </trkpt>
      <trkpt lat="27.720582" lon="86.714547">
        <ele>2601.4</ele>
        <time>2022-10-30T05:36:52.000Z</time>
      </trkpt>
      <trkpt lat="27.720563" lon="86.714554">
        <ele>2601.4</ele>
        <time>2022-10-30T05:36:54.000Z</time>
      </trkpt>
      <trkpt lat="27.720538" lon="86.714554">
        <ele>2601.4</ele>
        <time>2022-10-30T05:36:56.000Z</time>
      </trkpt>
      <trkpt lat="27.720512" lon="86.714541">
        <ele>2601.6</ele>
        <time>2022-10-30T05:36:58.000Z</time>
      </trkpt>
      <trkpt lat="27.720499" lon="86.714522">
        <ele>2600.8</ele>
        <time>2022-10-30T05:37:01.000Z</time>
      </trkpt>
      <trkpt lat="27.720483" lon="86.714509">
        <ele>2601.2</ele>
        <time>2022-10-30T05:37:04.000Z</time>
      </trkpt>
      <trkpt lat="27.720461" lon="86.714509">
        <ele>2601.4</ele>
        <time>2022-10-30T05:37:09.000Z</time>
      </trkpt>
      <trkpt lat="27.720442" lon="86.714515">
        <ele>2601.8</ele>
        <time>2022-10-30T05:37:13.000Z</time>
      </trkpt>
      <trkpt lat="27.720422" lon="86.714515">
        <ele>2602</ele>
        <time>2022-10-30T05:37:16.000Z</time>
      </trkpt>
      <trkpt lat="27.720397" lon="86.714515">
        <ele>2602.4</ele>
        <time>2022-10-30T05:37:19.000Z</time>
      </trkpt>
      <trkpt lat="27.720378" lon="86.714522">
        <ele>2602.6</ele>
        <time>2022-10-30T05:37:21.000Z</time>
      </trkpt>
      <trkpt lat="27.720355" lon="86.714522">
        <ele>2603.2</ele>
        <time>2022-10-30T05:37:23.000Z</time>
      </trkpt>
      <trkpt lat="27.720333" lon="86.714522">
        <ele>2603.6</ele>
        <time>2022-10-30T05:37:26.000Z</time>
      </trkpt>
      <trkpt lat="27.720314" lon="86.714515">
        <ele>2604.2</ele>
        <time>2022-10-30T05:37:29.000Z</time>
      </trkpt>
      <trkpt lat="27.720294" lon="86.714509">
        <ele>2604.4</ele>
        <time>2022-10-30T05:37:33.000Z</time>
      </trkpt>
      <trkpt lat="27.720275" lon="86.714502">
        <ele>2604.6</ele>
        <time>2022-10-30T05:37:37.000Z</time>
      </trkpt>
      <trkpt lat="27.720256" lon="86.714502">
        <ele>2606</ele>
        <time>2022-10-30T05:38:12.000Z</time>
      </trkpt>
      <trkpt lat="27.720234" lon="86.714509">
        <ele>2606.2</ele>
        <time>2022-10-30T05:38:14.000Z</time>
      </trkpt>
      <trkpt lat="27.720214" lon="86.714509">
        <ele>2606.2</ele>
        <time>2022-10-30T05:38:16.000Z</time>
      </trkpt>
      <trkpt lat="27.720195" lon="86.714515">
        <ele>2606</ele>
        <time>2022-10-30T05:38:17.000Z</time>
      </trkpt>
      <trkpt lat="27.720176" lon="86.714515">
        <ele>2606</ele>
        <time>2022-10-30T05:38:18.000Z</time>
      </trkpt>
      <trkpt lat="27.720154" lon="86.714509">
        <ele>2606</ele>
        <time>2022-10-30T05:38:19.000Z</time>
      </trkpt>
      <trkpt lat="27.720131" lon="86.714509">
        <ele>2606.4</ele>
        <time>2022-10-30T05:38:20.000Z</time>
      </trkpt>
      <trkpt lat="27.720106" lon="86.714502">
        <ele>2606.4</ele>
        <time>2022-10-30T05:38:22.000Z</time>
      </trkpt>
      <trkpt lat="27.720077" lon="86.714483">
        <ele>2606.4</ele>
        <time>2022-10-30T05:38:24.000Z</time>
      </trkpt>
      <trkpt lat="27.720067" lon="86.714464">
        <ele>2606.4</ele>
        <time>2022-10-30T05:38:25.000Z</time>
      </trkpt>
      <trkpt lat="27.720051" lon="86.714438">
        <ele>2606.4</ele>
        <time>2022-10-30T05:38:27.000Z</time>
      </trkpt>
      <trkpt lat="27.720029" lon="86.714426">
        <ele>2606.4</ele>
        <time>2022-10-30T05:38:29.000Z</time>
      </trkpt>
      <trkpt lat="27.72001" lon="86.7144">
        <ele>2606</ele>
        <time>2022-10-30T05:38:31.000Z</time>
      </trkpt>
      <trkpt lat="27.719987" lon="86.714387">
        <ele>2606</ele>
        <time>2022-10-30T05:38:33.000Z</time>
      </trkpt>
      <trkpt lat="27.719962" lon="86.714368">
        <ele>2606</ele>
        <time>2022-10-30T05:38:35.000Z</time>
      </trkpt>
      <trkpt lat="27.719942" lon="86.714355">
        <ele>2606</ele>
        <time>2022-10-30T05:38:37.000Z</time>
      </trkpt>
      <trkpt lat="27.71991" lon="86.714349">
        <ele>2606.2</ele>
        <time>2022-10-30T05:38:39.000Z</time>
      </trkpt>
      <trkpt lat="27.719888" lon="86.714355">
        <ele>2605.6</ele>
        <time>2022-10-30T05:38:41.000Z</time>
      </trkpt>
      <trkpt lat="27.719862" lon="86.714349">
        <ele>2605.6</ele>
        <time>2022-10-30T05:38:43.000Z</time>
      </trkpt>
      <trkpt lat="27.71984" lon="86.714342">
        <ele>2605.6</ele>
        <time>2022-10-30T05:38:45.000Z</time>
      </trkpt>
      <trkpt lat="27.719821" lon="86.71433">
        <ele>2605.6</ele>
        <time>2022-10-30T05:38:47.000Z</time>
      </trkpt>
      <trkpt lat="27.719798" lon="86.714323">
        <ele>2605.4</ele>
        <time>2022-10-30T05:38:49.000Z</time>
      </trkpt>
      <trkpt lat="27.719773" lon="86.71431">
        <ele>2605.8</ele>
        <time>2022-10-30T05:38:51.000Z</time>
      </trkpt>
      <trkpt lat="27.71975" lon="86.714285">
        <ele>2605.8</ele>
        <time>2022-10-30T05:38:54.000Z</time>
      </trkpt>
      <trkpt lat="27.719731" lon="86.714278">
        <ele>2605.8</ele>
        <time>2022-10-30T05:38:56.000Z</time>
      </trkpt>
      <trkpt lat="27.719712" lon="86.714272">
        <ele>2605.8</ele>
        <time>2022-10-30T05:38:58.000Z</time>
      </trkpt>
      <trkpt lat="27.719693" lon="86.714272">
        <ele>2606.2</ele>
        <time>2022-10-30T05:39:00.000Z</time>
      </trkpt>
      <trkpt lat="27.71967" lon="86.714266">
        <ele>2606.4</ele>
        <time>2022-10-30T05:39:02.000Z</time>
      </trkpt>
      <trkpt lat="27.719648" lon="86.714266">
        <ele>2606.8</ele>
        <time>2022-10-30T05:39:05.000Z</time>
      </trkpt>
      <trkpt lat="27.719626" lon="86.714259">
        <ele>2607.4</ele>
        <time>2022-10-30T05:39:08.000Z</time>
      </trkpt>
      <trkpt lat="27.719603" lon="86.714259">
        <ele>2607.6</ele>
        <time>2022-10-30T05:39:10.000Z</time>
      </trkpt>
      <trkpt lat="27.719578" lon="86.714259">
        <ele>2607.8</ele>
        <time>2022-10-30T05:39:13.000Z</time>
      </trkpt>
      <trkpt lat="27.719562" lon="86.714246">
        <ele>2607.8</ele>
        <time>2022-10-30T05:39:14.000Z</time>
      </trkpt>
      <trkpt lat="27.719539" lon="86.714246">
        <ele>2607.4</ele>
        <time>2022-10-30T05:39:17.000Z</time>
      </trkpt>
      <trkpt lat="27.71951" lon="86.71424">
        <ele>2607.4</ele>
        <time>2022-10-30T05:39:19.000Z</time>
      </trkpt>
      <trkpt lat="27.719491" lon="86.714234">
        <ele>2607.6</ele>
        <time>2022-10-30T05:39:21.000Z</time>
      </trkpt>
      <trkpt lat="27.719472" lon="86.714208">
        <ele>2607.2</ele>
        <time>2022-10-30T05:39:23.000Z</time>
      </trkpt>
      <trkpt lat="27.71945" lon="86.714202">
        <ele>2607.6</ele>
        <time>2022-10-30T05:39:26.000Z</time>
      </trkpt>
      <trkpt lat="27.719424" lon="86.714195">
        <ele>2607</ele>
        <time>2022-10-30T05:39:29.000Z</time>
      </trkpt>
      <trkpt lat="27.719405" lon="86.714189">
        <ele>2607.2</ele>
        <time>2022-10-30T05:39:31.000Z</time>
      </trkpt>
      <trkpt lat="27.719376" lon="86.714189">
        <ele>2607.2</ele>
        <time>2022-10-30T05:39:33.000Z</time>
      </trkpt>
      <trkpt lat="27.71935" lon="86.714195">
        <ele>2607.2</ele>
        <time>2022-10-30T05:39:35.000Z</time>
      </trkpt>
      <trkpt lat="27.719325" lon="86.714182">
        <ele>2606.6</ele>
        <time>2022-10-30T05:39:38.000Z</time>
      </trkpt>
      <trkpt lat="27.719302" lon="86.714182">
        <ele>2606.2</ele>
        <time>2022-10-30T05:39:40.000Z</time>
      </trkpt>
      <trkpt lat="27.719277" lon="86.71417">
        <ele>2606.2</ele>
        <time>2022-10-30T05:39:42.000Z</time>
      </trkpt>
      <trkpt lat="27.719258" lon="86.714163">
        <ele>2605.6</ele>
        <time>2022-10-30T05:39:44.000Z</time>
      </trkpt>
      <trkpt lat="27.719235" lon="86.714163">
        <ele>2605.2</ele>
        <time>2022-10-30T05:39:46.000Z</time>
      </trkpt>
      <trkpt lat="27.719213" lon="86.71415">
        <ele>2604.2</ele>
        <time>2022-10-30T05:39:48.000Z</time>
      </trkpt>
      <trkpt lat="27.719194" lon="86.714144">
        <ele>2604.4</ele>
        <time>2022-10-30T05:39:51.000Z</time>
      </trkpt>
      <trkpt lat="27.719165" lon="86.714144">
        <ele>2604.2</ele>
        <time>2022-10-30T05:39:54.000Z</time>
      </trkpt>
      <trkpt lat="27.719142" lon="86.71415">
        <ele>2603.8</ele>
        <time>2022-10-30T05:39:56.000Z</time>
      </trkpt>
      <trkpt lat="27.719123" lon="86.714157">
        <ele>2604.2</ele>
        <time>2022-10-30T05:39:58.000Z</time>
      </trkpt>
      <trkpt lat="27.719098" lon="86.714144">
        <ele>2604.2</ele>
        <time>2022-10-30T05:40:01.000Z</time>
      </trkpt>
      <trkpt lat="27.719075" lon="86.714131">
        <ele>2603.6</ele>
        <time>2022-10-30T05:40:03.000Z</time>
      </trkpt>
      <trkpt lat="27.719056" lon="86.714131">
        <ele>2603</ele>
        <time>2022-10-30T05:40:05.000Z</time>
      </trkpt>
      <trkpt lat="27.719037" lon="86.714118">
        <ele>2602.6</ele>
        <time>2022-10-30T05:40:07.000Z</time>
      </trkpt>
      <trkpt lat="27.719018" lon="86.714106">
        <ele>2602.8</ele>
        <time>2022-10-30T05:40:09.000Z</time>
      </trkpt>
      <trkpt lat="27.719008" lon="86.714086">
        <ele>2602.8</ele>
        <time>2022-10-30T05:40:10.000Z</time>
      </trkpt>
      <trkpt lat="27.718982" lon="86.714074">
        <ele>2603.4</ele>
        <time>2022-10-30T05:40:12.000Z</time>
      </trkpt>
      <trkpt lat="27.71896" lon="86.714048">
        <ele>2603.2</ele>
        <time>2022-10-30T05:40:14.000Z</time>
      </trkpt>
      <trkpt lat="27.718941" lon="86.714035">
        <ele>2603.2</ele>
        <time>2022-10-30T05:40:16.000Z</time>
      </trkpt>
      <trkpt lat="27.718918" lon="86.71401">
        <ele>2602.8</ele>
        <time>2022-10-30T05:40:19.000Z</time>
      </trkpt>
      <trkpt lat="27.718896" lon="86.713997">
        <ele>2602.8</ele>
        <time>2022-10-30T05:40:22.000Z</time>
      </trkpt>
      <trkpt lat="27.71888" lon="86.713984">
        <ele>2603</ele>
        <time>2022-10-30T05:40:24.000Z</time>
      </trkpt>
      <trkpt lat="27.718861" lon="86.713965">
        <ele>2603.2</ele>
        <time>2022-10-30T05:40:26.000Z</time>
      </trkpt>
      <trkpt lat="27.718838" lon="86.713965">
        <ele>2602.6</ele>
        <time>2022-10-30T05:40:28.000Z</time>
      </trkpt>
      <trkpt lat="27.718819" lon="86.713965">
        <ele>2602.6</ele>
        <time>2022-10-30T05:40:30.000Z</time>
      </trkpt>
      <trkpt lat="27.7188" lon="86.713952">
        <ele>2602.4</ele>
        <time>2022-10-30T05:40:33.000Z</time>
      </trkpt>
      <trkpt lat="27.71879" lon="86.713933">
        <ele>2602.6</ele>
        <time>2022-10-30T05:40:35.000Z</time>
      </trkpt>
      <trkpt lat="27.718774" lon="86.71392">
        <ele>2602.4</ele>
        <time>2022-10-30T05:40:40.000Z</time>
      </trkpt>
      <trkpt lat="27.718755" lon="86.713914">
        <ele>2602.6</ele>
        <time>2022-10-30T05:40:43.000Z</time>
      </trkpt>
      <trkpt lat="27.718733" lon="86.713901">
        <ele>2602</ele>
        <time>2022-10-30T05:40:46.000Z</time>
      </trkpt>
      <trkpt lat="27.71872" lon="86.713882">
        <ele>2602</ele>
        <time>2022-10-30T05:40:48.000Z</time>
      </trkpt>
      <trkpt lat="27.718701" lon="86.713862">
        <ele>2600.8</ele>
        <time>2022-10-30T05:41:18.000Z</time>
      </trkpt>
      <trkpt lat="27.718669" lon="86.71385">
        <ele>2600</ele>
        <time>2022-10-30T05:41:20.000Z</time>
      </trkpt>
      <trkpt lat="27.71864" lon="86.713843">
        <ele>2600.2</ele>
        <time>2022-10-30T05:41:22.000Z</time>
      </trkpt>
      <trkpt lat="27.718618" lon="86.713843">
        <ele>2600.4</ele>
        <time>2022-10-30T05:41:24.000Z</time>
      </trkpt>
      <trkpt lat="27.718589" lon="86.713843">
        <ele>2600.4</ele>
        <time>2022-10-30T05:41:26.000Z</time>
      </trkpt>
      <trkpt lat="27.71857" lon="86.713843">
        <ele>2600.4</ele>
        <time>2022-10-30T05:41:30.000Z</time>
      </trkpt>
      <trkpt lat="27.718547" lon="86.71385">
        <ele>2600</ele>
        <time>2022-10-30T05:41:33.000Z</time>
      </trkpt>
      <trkpt lat="27.718541" lon="86.713869">
        <ele>2600.8</ele>
        <time>2022-10-30T05:42:12.000Z</time>
      </trkpt>
      <trkpt lat="27.718566" lon="86.713875">
        <ele>2600.8</ele>
        <time>2022-10-30T05:42:14.000Z</time>
      </trkpt>
      <trkpt lat="27.718595" lon="86.713882">
        <ele>2601</ele>
        <time>2022-10-30T05:42:16.000Z</time>
      </trkpt>
      <trkpt lat="27.718621" lon="86.713888">
        <ele>2600.8</ele>
        <time>2022-10-30T05:42:18.000Z</time>
      </trkpt>
      <trkpt lat="27.718637" lon="86.713901">
        <ele>2600.8</ele>
        <time>2022-10-30T05:42:19.000Z</time>
      </trkpt>
      <trkpt lat="27.718656" lon="86.713914">
        <ele>2601</ele>
        <time>2022-10-30T05:42:21.000Z</time>
      </trkpt>
      <trkpt lat="27.718669" lon="86.713933">
        <ele>2601.6</ele>
        <time>2022-10-30T05:42:29.000Z</time>
      </trkpt>
      <trkpt lat="27.718675" lon="86.713914">
        <ele>2589.6</ele>
        <time>2022-10-30T06:32:26.000Z</time>
      </trkpt>
      <trkpt lat="27.718646" lon="86.713907">
        <ele>2591.6</ele>
        <time>2022-10-30T06:37:25.000Z</time>
      </trkpt>
      <trkpt lat="27.718621" lon="86.713907">
        <ele>2591.2</ele>
        <time>2022-10-30T06:37:27.000Z</time>
      </trkpt>
      <trkpt lat="27.718602" lon="86.713901">
        <ele>2590.8</ele>
        <time>2022-10-30T06:37:29.000Z</time>
      </trkpt>
      <trkpt lat="27.718582" lon="86.713907">
        <ele>2591</ele>
        <time>2022-10-30T06:37:32.000Z</time>
      </trkpt>
      <trkpt lat="27.718563" lon="86.713907">
        <ele>2591</ele>
        <time>2022-10-30T06:37:36.000Z</time>
      </trkpt>
      <trkpt lat="27.718541" lon="86.713907">
        <ele>2590.2</ele>
        <time>2022-10-30T06:37:42.000Z</time>
      </trkpt>
      <trkpt lat="27.718531" lon="86.713926">
        <ele>2590</ele>
        <time>2022-10-30T06:37:46.000Z</time>
      </trkpt>
      <trkpt lat="27.718512" lon="86.713952">
        <ele>2589.4</ele>
        <time>2022-10-30T06:37:49.000Z</time>
      </trkpt>
      <trkpt lat="27.718506" lon="86.713971">
        <ele>2589.4</ele>
        <time>2022-10-30T06:37:51.000Z</time>
      </trkpt>
      <trkpt lat="27.718502" lon="86.713997">
        <ele>2589.4</ele>
        <time>2022-10-30T06:37:53.000Z</time>
      </trkpt>
      <trkpt lat="27.718496" lon="86.714029">
        <ele>2589.2</ele>
        <time>2022-10-30T06:37:55.000Z</time>
      </trkpt>
      <trkpt lat="27.71849" lon="86.714048">
        <ele>2588.2</ele>
        <time>2022-10-30T06:37:58.000Z</time>
      </trkpt>
      <trkpt lat="27.718486" lon="86.714074">
        <ele>2588.2</ele>
        <time>2022-10-30T06:38:00.000Z</time>
      </trkpt>
      <trkpt lat="27.718483" lon="86.714099">
        <ele>2588</ele>
        <time>2022-10-30T06:38:02.000Z</time>
      </trkpt>
      <trkpt lat="27.718474" lon="86.714118">
        <ele>2588</ele>
        <time>2022-10-30T06:38:04.000Z</time>
      </trkpt>
      <trkpt lat="27.718467" lon="86.71415">
        <ele>2587</ele>
        <time>2022-10-30T06:38:07.000Z</time>
      </trkpt>
      <trkpt lat="27.718464" lon="86.714189">
        <ele>2586.6</ele>
        <time>2022-10-30T06:38:10.000Z</time>
      </trkpt>
      <trkpt lat="27.718451" lon="86.714221">
        <ele>2586</ele>
        <time>2022-10-30T06:38:14.000Z</time>
      </trkpt>
      <trkpt lat="27.718448" lon="86.714246">
        <ele>2584.8</ele>
        <time>2022-10-30T06:38:18.000Z</time>
      </trkpt>
      <trkpt lat="27.718422" lon="86.714246">
        <ele>2584.4</ele>
        <time>2022-10-30T06:38:21.000Z</time>
      </trkpt>
      <trkpt lat="27.718403" lon="86.71424">
        <ele>2584</ele>
        <time>2022-10-30T06:38:23.000Z</time>
      </trkpt>
      <trkpt lat="27.718387" lon="86.714259">
        <ele>2584</ele>
        <time>2022-10-30T06:38:26.000Z</time>
      </trkpt>
      <trkpt lat="27.718374" lon="86.714278">
        <ele>2584</ele>
        <time>2022-10-30T06:38:28.000Z</time>
      </trkpt>
      <trkpt lat="27.718368" lon="86.714298">
        <ele>2584.2</ele>
        <time>2022-10-30T06:38:30.000Z</time>
      </trkpt>
      <trkpt lat="27.718352" lon="86.714317">
        <ele>2583.6</ele>
        <time>2022-10-30T06:38:33.000Z</time>
      </trkpt>
      <trkpt lat="27.718342" lon="86.714342">
        <ele>2582</ele>
        <time>2022-10-30T06:39:06.000Z</time>
      </trkpt>
      <trkpt lat="27.718336" lon="86.714368">
        <ele>2582.4</ele>
        <time>2022-10-30T06:39:08.000Z</time>
      </trkpt>
      <trkpt lat="27.71833" lon="86.7144">
        <ele>2582.2</ele>
        <time>2022-10-30T06:39:10.000Z</time>
      </trkpt>
      <trkpt lat="27.71832" lon="86.714426">
        <ele>2582.2</ele>
        <time>2022-10-30T06:39:12.000Z</time>
      </trkpt>
      <trkpt lat="27.718314" lon="86.714458">
        <ele>2582</ele>
        <time>2022-10-30T06:39:14.000Z</time>
      </trkpt>
      <trkpt lat="27.718307" lon="86.714477">
        <ele>2581.4</ele>
        <time>2022-10-30T06:39:18.000Z</time>
      </trkpt>
      <trkpt lat="27.718307" lon="86.714502">
        <ele>2581</ele>
        <time>2022-10-30T06:39:22.000Z</time>
      </trkpt>
      <trkpt lat="27.718307" lon="86.714528">
        <ele>2579.8</ele>
        <time>2022-10-30T06:39:27.000Z</time>
      </trkpt>
      <trkpt lat="27.71832" lon="86.714554">
        <ele>2578.8</ele>
        <time>2022-10-30T06:39:30.000Z</time>
      </trkpt>
      <trkpt lat="27.718342" lon="86.71456">
        <ele>2578.2</ele>
        <time>2022-10-30T06:39:34.000Z</time>
      </trkpt>
      <trkpt lat="27.718355" lon="86.714579">
        <ele>2578.2</ele>
        <time>2022-10-30T06:39:35.000Z</time>
      </trkpt>
      <trkpt lat="27.718371" lon="86.714592">
        <ele>2577.6</ele>
        <time>2022-10-30T06:39:37.000Z</time>
      </trkpt>
      <trkpt lat="27.718378" lon="86.714618">
        <ele>2577.6</ele>
        <time>2022-10-30T06:39:41.000Z</time>
      </trkpt>
      <trkpt lat="27.7184" lon="86.714643">
        <ele>2576.8</ele>
        <time>2022-10-30T06:39:45.000Z</time>
      </trkpt>
      <trkpt lat="27.718413" lon="86.714662">
        <ele>2576</ele>
        <time>2022-10-30T06:39:48.000Z</time>
      </trkpt>
      <trkpt lat="27.718438" lon="86.714675">
        <ele>2575.8</ele>
        <time>2022-10-30T06:39:52.000Z</time>
      </trkpt>
      <trkpt lat="27.718451" lon="86.714701">
        <ele>2574.4</ele>
        <time>2022-10-30T06:39:57.000Z</time>
      </trkpt>
      <trkpt lat="27.718458" lon="86.71472">
        <ele>2573.6</ele>
        <time>2022-10-30T06:40:01.000Z</time>
      </trkpt>
      <trkpt lat="27.718467" lon="86.714746">
        <ele>2572.4</ele>
        <time>2022-10-30T06:40:05.000Z</time>
      </trkpt>
      <trkpt lat="27.718477" lon="86.714778">
        <ele>2571.6</ele>
        <time>2022-10-30T06:40:08.000Z</time>
      </trkpt>
      <trkpt lat="27.718486" lon="86.714816">
        <ele>2570.4</ele>
        <time>2022-10-30T06:40:12.000Z</time>
      </trkpt>
      <trkpt lat="27.718496" lon="86.714835">
        <ele>2569.8</ele>
        <time>2022-10-30T06:40:15.000Z</time>
      </trkpt>
      <trkpt lat="27.718506" lon="86.714854">
        <ele>2569.6</ele>
        <time>2022-10-30T06:40:17.000Z</time>
      </trkpt>
      <trkpt lat="27.718515" lon="86.714874">
        <ele>2569</ele>
        <time>2022-10-30T06:40:20.000Z</time>
      </trkpt>
      <trkpt lat="27.718518" lon="86.714899">
        <ele>2568.6</ele>
        <time>2022-10-30T06:40:23.000Z</time>
      </trkpt>
      <trkpt lat="27.718522" lon="86.714925">
        <ele>2568</ele>
        <time>2022-10-30T06:40:26.000Z</time>
      </trkpt>
      <trkpt lat="27.718525" lon="86.714957">
        <ele>2566.8</ele>
        <time>2022-10-30T06:40:30.000Z</time>
      </trkpt>
      <trkpt lat="27.718522" lon="86.714982">
        <ele>2566</ele>
        <time>2022-10-30T06:40:40.000Z</time>
      </trkpt>
      <trkpt lat="27.718515" lon="86.714957">
        <ele>2566.4</ele>
        <time>2022-10-30T06:41:11.000Z</time>
      </trkpt>
      <trkpt lat="27.718525" lon="86.714976">
        <ele>2566</ele>
        <time>2022-10-30T06:41:13.000Z</time>
      </trkpt>
      <trkpt lat="27.718528" lon="86.715014">
        <ele>2565.2</ele>
        <time>2022-10-30T06:41:16.000Z</time>
      </trkpt>
      <trkpt lat="27.718522" lon="86.715034">
        <ele>2564.4</ele>
        <time>2022-10-30T06:41:19.000Z</time>
      </trkpt>
      <trkpt lat="27.718522" lon="86.715059">
        <ele>2564</ele>
        <time>2022-10-30T06:41:22.000Z</time>
      </trkpt>
      <trkpt lat="27.718528" lon="86.715098">
        <ele>2563.2</ele>
        <time>2022-10-30T06:41:26.000Z</time>
      </trkpt>
      <trkpt lat="27.718541" lon="86.715117">
        <ele>2562.4</ele>
        <time>2022-10-30T06:41:28.000Z</time>
      </trkpt>
      <trkpt lat="27.71855" lon="86.715142">
        <ele>2562</ele>
        <time>2022-10-30T06:41:30.000Z</time>
      </trkpt>
      <trkpt lat="27.71856" lon="86.715162">
        <ele>2562</ele>
        <time>2022-10-30T06:41:32.000Z</time>
      </trkpt>
      <trkpt lat="27.718566" lon="86.715181">
        <ele>2561.8</ele>
        <time>2022-10-30T06:41:33.000Z</time>
      </trkpt>
      <trkpt lat="27.718576" lon="86.7152">
        <ele>2560.6</ele>
        <time>2022-10-30T06:41:36.000Z</time>
      </trkpt>
      <trkpt lat="27.718579" lon="86.715226">
        <ele>2560.4</ele>
        <time>2022-10-30T06:41:38.000Z</time>
      </trkpt>
      <trkpt lat="27.718576" lon="86.715251">
        <ele>2560.4</ele>
        <time>2022-10-30T06:41:40.000Z</time>
      </trkpt>
      <trkpt lat="27.71857" lon="86.715277">
        <ele>2560.4</ele>
        <time>2022-10-30T06:41:42.000Z</time>
      </trkpt>
      <trkpt lat="27.718573" lon="86.715302">
        <ele>2559.8</ele>
        <time>2022-10-30T06:41:44.000Z</time>
      </trkpt>
      <trkpt lat="27.718579" lon="86.715334">
        <ele>2559.8</ele>
        <time>2022-10-30T06:41:46.000Z</time>
      </trkpt>
      <trkpt lat="27.718586" lon="86.71536">
        <ele>2559.8</ele>
        <time>2022-10-30T06:41:49.000Z</time>
      </trkpt>
      <trkpt lat="27.718592" lon="86.715379">
        <ele>2560</ele>
        <time>2022-10-30T06:41:52.000Z</time>
      </trkpt>
      <trkpt lat="27.718598" lon="86.715411">
        <ele>2558</ele>
        <time>2022-10-30T06:41:58.000Z</time>
      </trkpt>
      <trkpt lat="27.718598" lon="86.715437">
        <ele>2557.4</ele>
        <time>2022-10-30T06:42:00.000Z</time>
      </trkpt>
      <trkpt lat="27.718598" lon="86.715462">
        <ele>2557</ele>
        <time>2022-10-30T06:42:02.000Z</time>
      </trkpt>
      <trkpt lat="27.718598" lon="86.715501">
        <ele>2556.8</ele>
        <time>2022-10-30T06:42:05.000Z</time>
      </trkpt>
      <trkpt lat="27.718598" lon="86.715533">
        <ele>2556.8</ele>
        <time>2022-10-30T06:42:07.000Z</time>
      </trkpt>
      <trkpt lat="27.718602" lon="86.715571">
        <ele>2556.6</ele>
        <time>2022-10-30T06:42:10.000Z</time>
      </trkpt>
      <trkpt lat="27.718608" lon="86.71559">
        <ele>2556.6</ele>
        <time>2022-10-30T06:42:16.000Z</time>
      </trkpt>
      <trkpt lat="27.718605" lon="86.715616">
        <ele>2556.6</ele>
        <time>2022-10-30T06:42:19.000Z</time>
      </trkpt>
      <trkpt lat="27.718608" lon="86.715648">
        <ele>2556</ele>
        <time>2022-10-30T06:42:23.000Z</time>
      </trkpt>
      <trkpt lat="27.718611" lon="86.715674">
        <ele>2555</ele>
        <time>2022-10-30T06:42:27.000Z</time>
      </trkpt>
      <trkpt lat="27.718608" lon="86.715699">
        <ele>2554.6</ele>
        <time>2022-10-30T06:42:29.000Z</time>
      </trkpt>
      <trkpt lat="27.718605" lon="86.715738">
        <ele>2553.8</ele>
        <time>2022-10-30T06:42:32.000Z</time>
      </trkpt>
      <trkpt lat="27.718598" lon="86.715757">
        <ele>2553.4</ele>
        <time>2022-10-30T06:42:34.000Z</time>
      </trkpt>
      <trkpt lat="27.718589" lon="86.715782">
        <ele>2552.8</ele>
        <time>2022-10-30T06:42:36.000Z</time>
      </trkpt>
      <trkpt lat="27.718582" lon="86.715808">
        <ele>2552.8</ele>
        <time>2022-10-30T06:42:38.000Z</time>
      </trkpt>
      <trkpt lat="27.718566" lon="86.715827">
        <ele>2552.2</ele>
        <time>2022-10-30T06:42:40.000Z</time>
      </trkpt>
      <trkpt lat="27.71855" lon="86.715846">
        <ele>2552.4</ele>
        <time>2022-10-30T06:42:42.000Z</time>
      </trkpt>
      <trkpt lat="27.718531" lon="86.715846">
        <ele>2552.6</ele>
        <time>2022-10-30T06:42:49.000Z</time>
      </trkpt>
      <trkpt lat="27.718509" lon="86.715872">
        <ele>2552.2</ele>
        <time>2022-10-30T06:42:58.000Z</time>
      </trkpt>
      <trkpt lat="27.718499" lon="86.715891">
        <ele>2552.2</ele>
        <time>2022-10-30T06:43:00.000Z</time>
      </trkpt>
      <trkpt lat="27.71848" lon="86.715904">
        <ele>2552.4</ele>
        <time>2022-10-30T06:43:08.000Z</time>
      </trkpt>
      <trkpt lat="27.718467" lon="86.71593">
        <ele>2552.2</ele>
        <time>2022-10-30T06:43:11.000Z</time>
      </trkpt>
      <trkpt lat="27.718454" lon="86.715949">
        <ele>2552.2</ele>
        <time>2022-10-30T06:43:14.000Z</time>
      </trkpt>
      <trkpt lat="27.718448" lon="86.715974">
        <ele>2552</ele>
        <time>2022-10-30T06:43:16.000Z</time>
      </trkpt>
      <trkpt lat="27.718432" lon="86.715994">
        <ele>2552</ele>
        <time>2022-10-30T06:43:18.000Z</time>
      </trkpt>
      <trkpt lat="27.718422" lon="86.716013">
        <ele>2552.2</ele>
        <time>2022-10-30T06:43:20.000Z</time>
      </trkpt>
      <trkpt lat="27.718403" lon="86.716019">
        <ele>2552.2</ele>
        <time>2022-10-30T06:43:22.000Z</time>
      </trkpt>
      <trkpt lat="27.718387" lon="86.716032">
        <ele>2551.8</ele>
        <time>2022-10-30T06:43:25.000Z</time>
      </trkpt>
      <trkpt lat="27.718371" lon="86.716051">
        <ele>2551.6</ele>
        <time>2022-10-30T06:43:28.000Z</time>
      </trkpt>
      <trkpt lat="27.718352" lon="86.716051">
        <ele>2551</ele>
        <time>2022-10-30T06:43:57.000Z</time>
      </trkpt>
      <trkpt lat="27.718339" lon="86.716032">
        <ele>2550.6</ele>
        <time>2022-10-30T06:43:59.000Z</time>
      </trkpt>
      <trkpt lat="27.718326" lon="86.716013">
        <ele>2550.6</ele>
        <time>2022-10-30T06:44:01.000Z</time>
      </trkpt>
      <trkpt lat="27.718304" lon="86.716013">
        <ele>2550.2</ele>
        <time>2022-10-30T06:44:03.000Z</time>
      </trkpt>
      <trkpt lat="27.718282" lon="86.716013">
        <ele>2550.4</ele>
        <time>2022-10-30T06:44:06.000Z</time>
      </trkpt>
      <trkpt lat="27.718262" lon="86.716006">
        <ele>2550.2</ele>
        <time>2022-10-30T06:44:08.000Z</time>
      </trkpt>
      <trkpt lat="27.718243" lon="86.715994">
        <ele>2550.6</ele>
        <time>2022-10-30T06:44:10.000Z</time>
      </trkpt>
      <trkpt lat="27.718221" lon="86.715987">
        <ele>2550.6</ele>
        <time>2022-10-30T06:44:12.000Z</time>
      </trkpt>
      <trkpt lat="27.718202" lon="86.715987">
        <ele>2549.6</ele>
        <time>2022-10-30T06:44:15.000Z</time>
      </trkpt>
      <trkpt lat="27.718179" lon="86.715987">
        <ele>2550</ele>
        <time>2022-10-30T06:44:18.000Z</time>
      </trkpt>
      <trkpt lat="27.71816" lon="86.715974">
        <ele>2550</ele>
        <time>2022-10-30T06:44:21.000Z</time>
      </trkpt>
      <trkpt lat="27.718134" lon="86.715974">
        <ele>2550.2</ele>
        <time>2022-10-30T06:44:24.000Z</time>
      </trkpt>
      <trkpt lat="27.718115" lon="86.715968">
        <ele>2550.2</ele>
        <time>2022-10-30T06:44:26.000Z</time>
      </trkpt>
      <trkpt lat="27.718096" lon="86.715968">
        <ele>2550.6</ele>
        <time>2022-10-30T06:44:28.000Z</time>
      </trkpt>
      <trkpt lat="27.718074" lon="86.715968">
        <ele>2551</ele>
        <time>2022-10-30T06:44:31.000Z</time>
      </trkpt>
      <trkpt lat="27.718054" lon="86.715955">
        <ele>2551.6</ele>
        <time>2022-10-30T06:44:33.000Z</time>
      </trkpt>
      <trkpt lat="27.718032" lon="86.715955">
        <ele>2551.8</ele>
        <time>2022-10-30T06:44:36.000Z</time>
      </trkpt>
      <trkpt lat="27.71801" lon="86.715949">
        <ele>2551.8</ele>
        <time>2022-10-30T06:44:39.000Z</time>
      </trkpt>
      <trkpt lat="27.71799" lon="86.715942">
        <ele>2551.8</ele>
        <time>2022-10-30T06:44:42.000Z</time>
      </trkpt>
      <trkpt lat="27.717971" lon="86.715936">
        <ele>2552</ele>
        <time>2022-10-30T06:44:45.000Z</time>
      </trkpt>
      <trkpt lat="27.717952" lon="86.71593">
        <ele>2552.4</ele>
        <time>2022-10-30T06:44:48.000Z</time>
      </trkpt>
      <trkpt lat="27.717936" lon="86.71591">
        <ele>2552.6</ele>
        <time>2022-10-30T06:44:51.000Z</time>
      </trkpt>
      <trkpt lat="27.717914" lon="86.715904">
        <ele>2553.8</ele>
        <time>2022-10-30T06:44:54.000Z</time>
      </trkpt>
      <trkpt lat="27.717891" lon="86.715898">
        <ele>2554.8</ele>
        <time>2022-10-30T06:44:59.000Z</time>
      </trkpt>
      <trkpt lat="27.717853" lon="86.715872">
        <ele>2555.2</ele>
        <time>2022-10-30T06:45:05.000Z</time>
      </trkpt>
      <trkpt lat="27.71783" lon="86.715866">
        <ele>2555.4</ele>
        <time>2022-10-30T06:45:08.000Z</time>
      </trkpt>
      <trkpt lat="27.717811" lon="86.715872">
        <ele>2557.4</ele>
        <time>2022-10-30T06:45:15.000Z</time>
      </trkpt>
      <trkpt lat="27.717792" lon="86.715866">
        <ele>2557.6</ele>
        <time>2022-10-30T06:45:19.000Z</time>
      </trkpt>
      <trkpt lat="27.71777" lon="86.715866">
        <ele>2559</ele>
        <time>2022-10-30T06:45:25.000Z</time>
      </trkpt>
      <trkpt lat="27.71775" lon="86.715878">
        <ele>2560</ele>
        <time>2022-10-30T06:45:32.000Z</time>
      </trkpt>
      <trkpt lat="27.717731" lon="86.715878">
        <ele>2560.6</ele>
        <time>2022-10-30T06:45:37.000Z</time>
      </trkpt>
      <trkpt lat="27.717712" lon="86.715878">
        <ele>2561.2</ele>
        <time>2022-10-30T06:45:43.000Z</time>
      </trkpt>
      <trkpt lat="27.717693" lon="86.715878">
        <ele>2562</ele>
        <time>2022-10-30T06:45:48.000Z</time>
      </trkpt>
      <trkpt lat="27.717674" lon="86.715872">
        <ele>2562.8</ele>
        <time>2022-10-30T06:45:53.000Z</time>
      </trkpt>
      <trkpt lat="27.717638" lon="86.715846">
        <ele>2564.6</ele>
        <time>2022-10-30T06:46:03.000Z</time>
      </trkpt>
      <trkpt lat="27.717622" lon="86.715834">
        <ele>2564.8</ele>
        <time>2022-10-30T06:46:06.000Z</time>
      </trkpt>
      <trkpt lat="27.717606" lon="86.715821">
        <ele>2565.8</ele>
        <time>2022-10-30T06:46:09.000Z</time>
      </trkpt>
      <trkpt lat="27.717587" lon="86.715808">
        <ele>2566.8</ele>
        <time>2022-10-30T06:46:14.000Z</time>
      </trkpt>
      <trkpt lat="27.717568" lon="86.715795">
        <ele>2566.8</ele>
        <time>2022-10-30T06:46:17.000Z</time>
      </trkpt>
      <trkpt lat="27.717549" lon="86.715782">
        <ele>2567</ele>
        <time>2022-10-30T06:46:21.000Z</time>
      </trkpt>
      <trkpt lat="27.71753" lon="86.71577">
        <ele>2567.4</ele>
        <time>2022-10-30T06:46:24.000Z</time>
      </trkpt>
      <trkpt lat="27.71752" lon="86.71575">
        <ele>2568</ele>
        <time>2022-10-30T06:46:26.000Z</time>
      </trkpt>
      <trkpt lat="27.717504" lon="86.715738">
        <ele>2568.2</ele>
        <time>2022-10-30T06:46:29.000Z</time>
      </trkpt>
      <trkpt lat="27.717488" lon="86.715718">
        <ele>2568</ele>
        <time>2022-10-30T06:46:32.000Z</time>
      </trkpt>
      <trkpt lat="27.717469" lon="86.715699">
        <ele>2568.4</ele>
        <time>2022-10-30T06:46:35.000Z</time>
      </trkpt>
      <trkpt lat="27.717453" lon="86.71568">
        <ele>2568.6</ele>
        <time>2022-10-30T06:46:37.000Z</time>
      </trkpt>
      <trkpt lat="27.717437" lon="86.715667">
        <ele>2569.2</ele>
        <time>2022-10-30T06:46:42.000Z</time>
      </trkpt>
      <trkpt lat="27.717421" lon="86.715648">
        <ele>2569.4</ele>
        <time>2022-10-30T06:46:46.000Z</time>
      </trkpt>
      <trkpt lat="27.717408" lon="86.715629">
        <ele>2569.6</ele>
        <time>2022-10-30T06:46:48.000Z</time>
      </trkpt>
      <trkpt lat="27.717392" lon="86.715616">
        <ele>2569.8</ele>
        <time>2022-10-30T06:46:50.000Z</time>
      </trkpt>
      <trkpt lat="27.717376" lon="86.715597">
        <ele>2570.2</ele>
        <time>2022-10-30T06:46:53.000Z</time>
      </trkpt>
      <trkpt lat="27.717366" lon="86.715578">
        <ele>2571</ele>
        <time>2022-10-30T06:46:56.000Z</time>
      </trkpt>
      <trkpt lat="27.71736" lon="86.715558">
        <ele>2571.4</ele>
        <time>2022-10-30T06:46:58.000Z</time>
      </trkpt>
      <trkpt lat="27.717354" lon="86.715539">
        <ele>2572.2</ele>
        <time>2022-10-30T06:47:04.000Z</time>
      </trkpt>
      <trkpt lat="27.717341" lon="86.71552">
        <ele>2573.2</ele>
        <time>2022-10-30T06:47:07.000Z</time>
      </trkpt>
      <trkpt lat="27.717331" lon="86.715501">
        <ele>2573.6</ele>
        <time>2022-10-30T06:47:13.000Z</time>
      </trkpt>
      <trkpt lat="27.717325" lon="86.715482">
        <ele>2574.4</ele>
        <time>2022-10-30T06:47:16.000Z</time>
      </trkpt>
      <trkpt lat="27.717306" lon="86.71545">
        <ele>2575.4</ele>
        <time>2022-10-30T06:47:42.000Z</time>
      </trkpt>
      <trkpt lat="27.717296" lon="86.71543">
        <ele>2575.2</ele>
        <time>2022-10-30T06:47:43.000Z</time>
      </trkpt>
      <trkpt lat="27.71727" lon="86.715398">
        <ele>2575.4</ele>
        <time>2022-10-30T06:47:45.000Z</time>
      </trkpt>
      <trkpt lat="27.717251" lon="86.715373">
        <ele>2575.4</ele>
        <time>2022-10-30T06:47:47.000Z</time>
      </trkpt>
      <trkpt lat="27.717242" lon="86.715354">
        <ele>2575.6</ele>
        <time>2022-10-30T06:47:48.000Z</time>
      </trkpt>
      <trkpt lat="27.717232" lon="86.715334">
        <ele>2575.6</ele>
        <time>2022-10-30T06:47:49.000Z</time>
      </trkpt>
      <trkpt lat="27.717226" lon="86.715315">
        <ele>2576.2</ele>
        <time>2022-10-30T06:47:50.000Z</time>
      </trkpt>
      <trkpt lat="27.717206" lon="86.715302">
        <ele>2576.2</ele>
        <time>2022-10-30T06:47:52.000Z</time>
      </trkpt>
      <trkpt lat="27.717194" lon="86.715283">
        <ele>2575.6</ele>
        <time>2022-10-30T06:47:54.000Z</time>
      </trkpt>
      <trkpt lat="27.717178" lon="86.71527">
        <ele>2575.8</ele>
        <time>2022-10-30T06:47:57.000Z</time>
      </trkpt>
      <trkpt lat="27.717162" lon="86.715258">
        <ele>2575.8</ele>
        <time>2022-10-30T06:47:59.000Z</time>
      </trkpt>
      <trkpt lat="27.717136" lon="86.715251">
        <ele>2575.8</ele>
        <time>2022-10-30T06:48:02.000Z</time>
      </trkpt>
      <trkpt lat="27.71712" lon="86.715238">
        <ele>2576.2</ele>
        <time>2022-10-30T06:48:04.000Z</time>
      </trkpt>
      <trkpt lat="27.717101" lon="86.715238">
        <ele>2577.2</ele>
        <time>2022-10-30T06:48:09.000Z</time>
      </trkpt>
      <trkpt lat="27.717082" lon="86.715232">
        <ele>2577.8</ele>
        <time>2022-10-30T06:48:12.000Z</time>
      </trkpt>
      <trkpt lat="27.717066" lon="86.715219">
        <ele>2578.6</ele>
        <time>2022-10-30T06:48:15.000Z</time>
      </trkpt>
      <trkpt lat="27.717053" lon="86.7152">
        <ele>2578.4</ele>
        <time>2022-10-30T06:48:17.000Z</time>
      </trkpt>
      <trkpt lat="27.71703" lon="86.715187">
        <ele>2578.2</ele>
        <time>2022-10-30T06:48:20.000Z</time>
      </trkpt>
      <trkpt lat="27.717021" lon="86.715155">
        <ele>2578.2</ele>
        <time>2022-10-30T06:48:23.000Z</time>
      </trkpt>
      <trkpt lat="27.717002" lon="86.715142">
        <ele>2578.8</ele>
        <time>2022-10-30T06:48:27.000Z</time>
      </trkpt>
      <trkpt lat="27.716982" lon="86.715136">
        <ele>2579.2</ele>
        <time>2022-10-30T06:48:30.000Z</time>
      </trkpt>
      <trkpt lat="27.71696" lon="86.715117">
        <ele>2579.8</ele>
        <time>2022-10-30T06:48:33.000Z</time>
      </trkpt>
      <trkpt lat="27.716944" lon="86.715098">
        <ele>2580.6</ele>
        <time>2022-10-30T06:48:35.000Z</time>
      </trkpt>
      <trkpt lat="27.716931" lon="86.715072">
        <ele>2581</ele>
        <time>2022-10-30T06:48:37.000Z</time>
      </trkpt>
      <trkpt lat="27.716912" lon="86.715053">
        <ele>2580.4</ele>
        <time>2022-10-30T06:48:39.000Z</time>
      </trkpt>
      <trkpt lat="27.716899" lon="86.715034">
        <ele>2580</ele>
        <time>2022-10-30T06:48:41.000Z</time>
      </trkpt>
      <trkpt lat="27.716886" lon="86.715014">
        <ele>2580</ele>
        <time>2022-10-30T06:48:43.000Z</time>
      </trkpt>
      <trkpt lat="27.716883" lon="86.714989">
        <ele>2580</ele>
        <time>2022-10-30T06:48:49.000Z</time>
      </trkpt>
      <trkpt lat="27.71688" lon="86.714957">
        <ele>2579.2</ele>
        <time>2022-10-30T06:48:52.000Z</time>
      </trkpt>
      <trkpt lat="27.71687" lon="86.714938">
        <ele>2578.8</ele>
        <time>2022-10-30T06:48:54.000Z</time>
      </trkpt>
      <trkpt lat="27.716864" lon="86.714918">
        <ele>2578.8</ele>
        <time>2022-10-30T06:48:55.000Z</time>
      </trkpt>
      <trkpt lat="27.716851" lon="86.714899">
        <ele>2578.2</ele>
        <time>2022-10-30T06:48:57.000Z</time>
      </trkpt>
      <trkpt lat="27.716835" lon="86.714886">
        <ele>2577.8</ele>
        <time>2022-10-30T06:48:59.000Z</time>
      </trkpt>
      <trkpt lat="27.716816" lon="86.714867">
        <ele>2577.6</ele>
        <time>2022-10-30T06:49:03.000Z</time>
      </trkpt>
      <trkpt lat="27.7168" lon="86.714854">
        <ele>2577.6</ele>
        <time>2022-10-30T06:49:04.000Z</time>
      </trkpt>
      <trkpt lat="27.716774" lon="86.714854">
        <ele>2577.6</ele>
        <time>2022-10-30T06:49:06.000Z</time>
      </trkpt>
      <trkpt lat="27.716755" lon="86.714842">
        <ele>2577.8</ele>
        <time>2022-10-30T06:49:08.000Z</time>
      </trkpt>
      <trkpt lat="27.716736" lon="86.714822">
        <ele>2577.8</ele>
        <time>2022-10-30T06:49:10.000Z</time>
      </trkpt>
      <trkpt lat="27.71671" lon="86.714829">
        <ele>2578</ele>
        <time>2022-10-30T06:49:13.000Z</time>
      </trkpt>
      <trkpt lat="27.716685" lon="86.714842">
        <ele>2578.4</ele>
        <time>2022-10-30T06:49:16.000Z</time>
      </trkpt>
      <trkpt lat="27.716662" lon="86.714842">
        <ele>2578.6</ele>
        <time>2022-10-30T06:49:19.000Z</time>
      </trkpt>
      <trkpt lat="27.71664" lon="86.714835">
        <ele>2578.8</ele>
        <time>2022-10-30T06:49:22.000Z</time>
      </trkpt>
      <trkpt lat="27.716618" lon="86.714829">
        <ele>2579</ele>
        <time>2022-10-30T06:49:25.000Z</time>
      </trkpt>
      <trkpt lat="27.716592" lon="86.714822">
        <ele>2579.8</ele>
        <time>2022-10-30T06:49:28.000Z</time>
      </trkpt>
      <trkpt lat="27.716573" lon="86.714816">
        <ele>2579.8</ele>
        <time>2022-10-30T06:49:30.000Z</time>
      </trkpt>
      <trkpt lat="27.71656" lon="86.714797">
        <ele>2579.8</ele>
        <time>2022-10-30T06:49:32.000Z</time>
      </trkpt>
      <trkpt lat="27.716534" lon="86.71479">
        <ele>2579.2</ele>
        <time>2022-10-30T06:49:35.000Z</time>
      </trkpt>
      <trkpt lat="27.716512" lon="86.714784">
        <ele>2579</ele>
        <time>2022-10-30T06:49:37.000Z</time>
      </trkpt>
      <trkpt lat="27.716493" lon="86.71479">
        <ele>2578.6</ele>
        <time>2022-10-30T06:49:40.000Z</time>
      </trkpt>
      <trkpt lat="27.71647" lon="86.71479">
        <ele>2578.6</ele>
        <time>2022-10-30T06:49:42.000Z</time>
      </trkpt>
      <trkpt lat="27.716451" lon="86.714778">
        <ele>2579</ele>
        <time>2022-10-30T06:49:44.000Z</time>
      </trkpt>
      <trkpt lat="27.716432" lon="86.714758">
        <ele>2579</ele>
        <time>2022-10-30T06:49:46.000Z</time>
      </trkpt>
      <trkpt lat="27.716413" lon="86.714746">
        <ele>2578.6</ele>
        <time>2022-10-30T06:49:48.000Z</time>
      </trkpt>
      <trkpt lat="27.716394" lon="86.714739">
        <ele>2578.6</ele>
        <time>2022-10-30T06:49:50.000Z</time>
      </trkpt>
      <trkpt lat="27.716378" lon="86.71472">
        <ele>2578.6</ele>
        <time>2022-10-30T06:49:52.000Z</time>
      </trkpt>
      <trkpt lat="27.716365" lon="86.714701">
        <ele>2578.8</ele>
        <time>2022-10-30T06:49:54.000Z</time>
      </trkpt>
      <trkpt lat="27.716355" lon="86.714682">
        <ele>2579</ele>
        <time>2022-10-30T06:49:56.000Z</time>
      </trkpt>
      <trkpt lat="27.716339" lon="86.714656">
        <ele>2578.8</ele>
        <time>2022-10-30T06:49:59.000Z</time>
      </trkpt>
      <trkpt lat="27.716317" lon="86.714643">
        <ele>2578.6</ele>
        <time>2022-10-30T06:50:01.000Z</time>
      </trkpt>
      <trkpt lat="27.716301" lon="86.714624">
        <ele>2578.6</ele>
        <time>2022-10-30T06:50:03.000Z</time>
      </trkpt>
      <trkpt lat="27.716282" lon="86.714605">
        <ele>2578.8</ele>
        <time>2022-10-30T06:50:05.000Z</time>
      </trkpt>
      <trkpt lat="27.716262" lon="86.714592">
        <ele>2578.8</ele>
        <time>2022-10-30T06:50:07.000Z</time>
      </trkpt>
      <trkpt lat="27.716243" lon="86.714586">
        <ele>2579.4</ele>
        <time>2022-10-30T06:50:12.000Z</time>
      </trkpt>
      <trkpt lat="27.716224" lon="86.714586">
        <ele>2579.6</ele>
        <time>2022-10-30T06:50:14.000Z</time>
      </trkpt>
      <trkpt lat="27.716195" lon="86.714566">
        <ele>2579.6</ele>
        <time>2022-10-30T06:50:17.000Z</time>
      </trkpt>
      <trkpt lat="27.716166" lon="86.714566">
        <ele>2580</ele>
        <time>2022-10-30T06:50:21.000Z</time>
      </trkpt>
      <trkpt lat="27.716141" lon="86.71456">
        <ele>2580</ele>
        <time>2022-10-30T06:50:23.000Z</time>
      </trkpt>
      <trkpt lat="27.716122" lon="86.71456">
        <ele>2580</ele>
        <time>2022-10-30T06:50:25.000Z</time>
      </trkpt>
      <trkpt lat="27.716102" lon="86.71456">
        <ele>2580.2</ele>
        <time>2022-10-30T06:50:27.000Z</time>
      </trkpt>
      <trkpt lat="27.716083" lon="86.714547">
        <ele>2580.6</ele>
        <time>2022-10-30T06:50:30.000Z</time>
      </trkpt>
      <trkpt lat="27.716064" lon="86.714541">
        <ele>2580.8</ele>
        <time>2022-10-30T06:50:32.000Z</time>
      </trkpt>
      <trkpt lat="27.716038" lon="86.714541">
        <ele>2581</ele>
        <time>2022-10-30T06:50:35.000Z</time>
      </trkpt>
      <trkpt lat="27.716019" lon="86.714541">
        <ele>2581</ele>
        <time>2022-10-30T06:50:37.000Z</time>
      </trkpt>
      <trkpt lat="27.715997" lon="86.714528">
        <ele>2581</ele>
        <time>2022-10-30T06:50:40.000Z</time>
      </trkpt>
      <trkpt lat="27.715974" lon="86.714522">
        <ele>2581</ele>
        <time>2022-10-30T06:50:42.000Z</time>
      </trkpt>
      <trkpt lat="27.715949" lon="86.714515">
        <ele>2581</ele>
        <time>2022-10-30T06:50:44.000Z</time>
      </trkpt>
      <trkpt lat="27.715926" lon="86.714509">
        <ele>2580.8</ele>
        <time>2022-10-30T06:50:46.000Z</time>
      </trkpt>
      <trkpt lat="27.715901" lon="86.714502">
        <ele>2580.6</ele>
        <time>2022-10-30T06:50:49.000Z</time>
      </trkpt>
      <trkpt lat="27.715878" lon="86.714502">
        <ele>2580.4</ele>
        <time>2022-10-30T06:50:51.000Z</time>
      </trkpt>
      <trkpt lat="27.715859" lon="86.71449">
        <ele>2580.6</ele>
        <time>2022-10-30T06:50:53.000Z</time>
      </trkpt>
      <trkpt lat="27.715837" lon="86.714483">
        <ele>2580.4</ele>
        <time>2022-10-30T06:50:56.000Z</time>
      </trkpt>
      <trkpt lat="27.715821" lon="86.71447">
        <ele>2580.2</ele>
        <time>2022-10-30T06:50:58.000Z</time>
      </trkpt>
      <trkpt lat="27.715798" lon="86.714445">
        <ele>2580.4</ele>
        <time>2022-10-30T06:51:00.000Z</time>
      </trkpt>
      <trkpt lat="27.715779" lon="86.714426">
        <ele>2580.8</ele>
        <time>2022-10-30T06:51:04.000Z</time>
      </trkpt>
      <trkpt lat="27.71577" lon="86.714406">
        <ele>2581</ele>
        <time>2022-10-30T06:51:06.000Z</time>
      </trkpt>
      <trkpt lat="27.71575" lon="86.714394">
        <ele>2582</ele>
        <time>2022-10-30T06:51:11.000Z</time>
      </trkpt>
      <trkpt lat="27.715741" lon="86.714362">
        <ele>2582.2</ele>
        <time>2022-10-30T06:51:14.000Z</time>
      </trkpt>
      <trkpt lat="27.715728" lon="86.714342">
        <ele>2582.6</ele>
        <time>2022-10-30T06:51:18.000Z</time>
      </trkpt>
      <trkpt lat="27.715718" lon="86.714323">
        <ele>2583.2</ele>
        <time>2022-10-30T06:51:20.000Z</time>
      </trkpt>
      <trkpt lat="27.715712" lon="86.714304">
        <ele>2583.4</ele>
        <time>2022-10-30T06:51:24.000Z</time>
      </trkpt>
      <trkpt lat="27.71569" lon="86.714298">
        <ele>2583.6</ele>
        <time>2022-10-30T06:51:27.000Z</time>
      </trkpt>
      <trkpt lat="27.71568" lon="86.714278">
        <ele>2584.4</ele>
        <time>2022-10-30T06:51:31.000Z</time>
      </trkpt>
      <trkpt lat="27.715686" lon="86.714246">
        <ele>2584.4</ele>
        <time>2022-10-30T06:51:33.000Z</time>
      </trkpt>
      <trkpt lat="27.71567" lon="86.714227">
        <ele>2584.2</ele>
        <time>2022-10-30T06:51:35.000Z</time>
      </trkpt>
      <trkpt lat="27.715648" lon="86.714221">
        <ele>2584.2</ele>
        <time>2022-10-30T06:51:37.000Z</time>
      </trkpt>
      <trkpt lat="27.715622" lon="86.714202">
        <ele>2584.2</ele>
        <time>2022-10-30T06:51:39.000Z</time>
      </trkpt>
      <trkpt lat="27.7156" lon="86.714195">
        <ele>2584.2</ele>
        <time>2022-10-30T06:51:42.000Z</time>
      </trkpt>
      <trkpt lat="27.715581" lon="86.714189">
        <ele>2584.4</ele>
        <time>2022-10-30T06:51:45.000Z</time>
      </trkpt>
      <trkpt lat="27.715558" lon="86.714182">
        <ele>2585.6</ele>
        <time>2022-10-30T06:51:48.000Z</time>
      </trkpt>
      <trkpt lat="27.715536" lon="86.714182">
        <ele>2586.2</ele>
        <time>2022-10-30T06:51:51.000Z</time>
      </trkpt>
      <trkpt lat="27.715514" lon="86.714189">
        <ele>2585.8</ele>
        <time>2022-10-30T06:51:54.000Z</time>
      </trkpt>
      <trkpt lat="27.715494" lon="86.714189">
        <ele>2585.4</ele>
        <time>2022-10-30T06:51:57.000Z</time>
      </trkpt>
      <trkpt lat="27.715475" lon="86.714195">
        <ele>2585.8</ele>
        <time>2022-10-30T06:52:00.000Z</time>
      </trkpt>
      <trkpt lat="27.715453" lon="86.714202">
        <ele>2586</ele>
        <time>2022-10-30T06:52:03.000Z</time>
      </trkpt>
      <trkpt lat="27.71543" lon="86.714208">
        <ele>2586.2</ele>
        <time>2022-10-30T06:52:06.000Z</time>
      </trkpt>
      <trkpt lat="27.715411" lon="86.714221">
        <ele>2587</ele>
        <time>2022-10-30T06:52:09.000Z</time>
      </trkpt>
      <trkpt lat="27.715386" lon="86.714221">
        <ele>2587</ele>
        <time>2022-10-30T06:52:12.000Z</time>
      </trkpt>
      <trkpt lat="27.715363" lon="86.714227">
        <ele>2587.4</ele>
        <time>2022-10-30T06:52:15.000Z</time>
      </trkpt>
      <trkpt lat="27.715344" lon="86.714227">
        <ele>2587.6</ele>
        <time>2022-10-30T06:52:17.000Z</time>
      </trkpt>
      <trkpt lat="27.715325" lon="86.714234">
        <ele>2587.6</ele>
        <time>2022-10-30T06:52:20.000Z</time>
      </trkpt>
      <trkpt lat="27.715309" lon="86.714246">
        <ele>2587.6</ele>
        <time>2022-10-30T06:52:23.000Z</time>
      </trkpt>
      <trkpt lat="27.715283" lon="86.714259">
        <ele>2587.8</ele>
        <time>2022-10-30T06:52:26.000Z</time>
      </trkpt>
      <trkpt lat="27.715258" lon="86.714266">
        <ele>2588</ele>
        <time>2022-10-30T06:52:29.000Z</time>
      </trkpt>
      <trkpt lat="27.715232" lon="86.714259">
        <ele>2588.2</ele>
        <time>2022-10-30T06:52:32.000Z</time>
      </trkpt>
      <trkpt lat="27.715213" lon="86.714259">
        <ele>2588.2</ele>
        <time>2022-10-30T06:52:34.000Z</time>
      </trkpt>
      <trkpt lat="27.715194" lon="86.714266">
        <ele>2588.2</ele>
        <time>2022-10-30T06:52:36.000Z</time>
      </trkpt>
      <trkpt lat="27.715168" lon="86.714272">
        <ele>2588.4</ele>
        <time>2022-10-30T06:52:39.000Z</time>
      </trkpt>
      <trkpt lat="27.715149" lon="86.714272">
        <ele>2588.4</ele>
        <time>2022-10-30T06:52:41.000Z</time>
      </trkpt>
      <trkpt lat="27.715123" lon="86.714266">
        <ele>2588.8</ele>
        <time>2022-10-30T06:52:44.000Z</time>
      </trkpt>
      <trkpt lat="27.715098" lon="86.714272">
        <ele>2589</ele>
        <time>2022-10-30T06:52:47.000Z</time>
      </trkpt>
      <trkpt lat="27.715072" lon="86.714272">
        <ele>2589</ele>
        <time>2022-10-30T06:52:51.000Z</time>
      </trkpt>
      <trkpt lat="27.715046" lon="86.714272">
        <ele>2589.2</ele>
        <time>2022-10-30T06:52:54.000Z</time>
      </trkpt>
      <trkpt lat="27.715021" lon="86.714278">
        <ele>2589.6</ele>
        <time>2022-10-30T06:52:57.000Z</time>
      </trkpt>
      <trkpt lat="27.715002" lon="86.714285">
        <ele>2589.8</ele>
        <time>2022-10-30T06:53:00.000Z</time>
      </trkpt>
      <trkpt lat="27.714982" lon="86.714298">
        <ele>2590.2</ele>
        <time>2022-10-30T06:53:03.000Z</time>
      </trkpt>
      <trkpt lat="27.714963" lon="86.714298">
        <ele>2590.6</ele>
        <time>2022-10-30T06:53:06.000Z</time>
      </trkpt>
      <trkpt lat="27.714944" lon="86.714304">
        <ele>2590.6</ele>
        <time>2022-10-30T06:53:08.000Z</time>
      </trkpt>
      <trkpt lat="27.714925" lon="86.714285">
        <ele>2590.8</ele>
        <time>2022-10-30T06:53:11.000Z</time>
      </trkpt>
      <trkpt lat="27.714899" lon="86.714285">
        <ele>2591</ele>
        <time>2022-10-30T06:53:14.000Z</time>
      </trkpt>
      <trkpt lat="27.714877" lon="86.714304">
        <ele>2591.6</ele>
        <time>2022-10-30T06:53:18.000Z</time>
      </trkpt>
      <trkpt lat="27.714858" lon="86.714304">
        <ele>2592</ele>
        <time>2022-10-30T06:53:22.000Z</time>
      </trkpt>
      <trkpt lat="27.714835" lon="86.714304">
        <ele>2592.6</ele>
        <time>2022-10-30T06:53:27.000Z</time>
      </trkpt>
      <trkpt lat="27.714816" lon="86.714304">
        <ele>2592.8</ele>
        <time>2022-10-30T06:53:31.000Z</time>
      </trkpt>
      <trkpt lat="27.714794" lon="86.71431">
        <ele>2593.4</ele>
        <time>2022-10-30T06:53:36.000Z</time>
      </trkpt>
      <trkpt lat="27.714774" lon="86.71431">
        <ele>2594.2</ele>
        <time>2022-10-30T06:53:41.000Z</time>
      </trkpt>
      <trkpt lat="27.714758" lon="86.714323">
        <ele>2594.6</ele>
        <time>2022-10-30T06:53:45.000Z</time>
      </trkpt>
      <trkpt lat="27.714739" lon="86.71433">
        <ele>2595.6</ele>
        <time>2022-10-30T06:53:52.000Z</time>
      </trkpt>
      <trkpt lat="27.714723" lon="86.714342">
        <ele>2596.2</ele>
        <time>2022-10-30T06:53:56.000Z</time>
      </trkpt>
      <trkpt lat="27.714704" lon="86.714342">
        <ele>2596.6</ele>
        <time>2022-10-30T06:53:59.000Z</time>
      </trkpt>
      <trkpt lat="27.714688" lon="86.714355">
        <ele>2597.2</ele>
        <time>2022-10-30T06:54:04.000Z</time>
      </trkpt>
      <trkpt lat="27.714666" lon="86.714349">
        <ele>2598.2</ele>
        <time>2022-10-30T06:54:09.000Z</time>
      </trkpt>
      <trkpt lat="27.71465" lon="86.714362">
        <ele>2598.6</ele>
        <time>2022-10-30T06:54:15.000Z</time>
      </trkpt>
      <trkpt lat="27.714646" lon="86.714387">
        <ele>2599.8</ele>
        <time>2022-10-30T06:54:22.000Z</time>
      </trkpt>
      <trkpt lat="27.714666" lon="86.7144">
        <ele>2600.8</ele>
        <time>2022-10-30T06:54:29.000Z</time>
      </trkpt>
      <trkpt lat="27.714685" lon="86.7144">
        <ele>2601</ele>
        <time>2022-10-30T06:54:33.000Z</time>
      </trkpt>
      <trkpt lat="27.714701" lon="86.714419">
        <ele>2601.8</ele>
        <time>2022-10-30T06:54:37.000Z</time>
      </trkpt>
      <trkpt lat="27.714714" lon="86.714438">
        <ele>2602.8</ele>
        <time>2022-10-30T06:54:46.000Z</time>
      </trkpt>
      <trkpt lat="27.714707" lon="86.714458">
        <ele>2603.2</ele>
        <time>2022-10-30T06:54:48.000Z</time>
      </trkpt>
      <trkpt lat="27.714685" lon="86.714438">
        <ele>2603.8</ele>
        <time>2022-10-30T06:57:30.000Z</time>
      </trkpt>
      <trkpt lat="27.714659" lon="86.714438">
        <ele>2604</ele>
        <time>2022-10-30T06:57:33.000Z</time>
      </trkpt>
      <trkpt lat="27.714637" lon="86.714438">
        <ele>2603.6</ele>
        <time>2022-10-30T06:57:35.000Z</time>
      </trkpt>
      <trkpt lat="27.714608" lon="86.714438">
        <ele>2603.6</ele>
        <time>2022-10-30T06:57:38.000Z</time>
      </trkpt>
      <trkpt lat="27.714589" lon="86.714432">
        <ele>2603.4</ele>
        <time>2022-10-30T06:57:40.000Z</time>
      </trkpt>
      <trkpt lat="27.71457" lon="86.714432">
        <ele>2603.2</ele>
        <time>2022-10-30T06:57:42.000Z</time>
      </trkpt>
      <trkpt lat="27.714547" lon="86.714426">
        <ele>2603.2</ele>
        <time>2022-10-30T06:57:44.000Z</time>
      </trkpt>
      <trkpt lat="27.714528" lon="86.714419">
        <ele>2603.4</ele>
        <time>2022-10-30T06:57:46.000Z</time>
      </trkpt>
      <trkpt lat="27.714509" lon="86.714419">
        <ele>2603.4</ele>
        <time>2022-10-30T06:57:48.000Z</time>
      </trkpt>
      <trkpt lat="27.714477" lon="86.714419">
        <ele>2603.2</ele>
        <time>2022-10-30T06:58:22.000Z</time>
      </trkpt>
      <trkpt lat="27.714454" lon="86.714406">
        <ele>2603.2</ele>
        <time>2022-10-30T06:58:23.000Z</time>
      </trkpt>
      <trkpt lat="27.714435" lon="86.7144">
        <ele>2603.2</ele>
        <time>2022-10-30T06:58:24.000Z</time>
      </trkpt>
      <trkpt lat="27.714416" lon="86.7144">
        <ele>2603.2</ele>
        <time>2022-10-30T06:58:25.000Z</time>
      </trkpt>
      <trkpt lat="27.714397" lon="86.714394">
        <ele>2603.2</ele>
        <time>2022-10-30T06:58:26.000Z</time>
      </trkpt>
      <trkpt lat="27.714378" lon="86.714387">
        <ele>2603.2</ele>
        <time>2022-10-30T06:58:27.000Z</time>
      </trkpt>
      <trkpt lat="27.714358" lon="86.714368">
        <ele>2603.6</ele>
        <time>2022-10-30T06:58:28.000Z</time>
      </trkpt>
      <trkpt lat="27.714336" lon="86.714362">
        <ele>2603.8</ele>
        <time>2022-10-30T06:58:29.000Z</time>
      </trkpt>
      <trkpt lat="27.714307" lon="86.714349">
        <ele>2604</ele>
        <time>2022-10-30T06:58:31.000Z</time>
      </trkpt>
      <trkpt lat="27.714288" lon="86.714342">
        <ele>2604.2</ele>
        <time>2022-10-30T06:58:33.000Z</time>
      </trkpt>
      <trkpt lat="27.714272" lon="86.71433">
        <ele>2604.6</ele>
        <time>2022-10-30T06:58:42.000Z</time>
      </trkpt>
      <trkpt lat="27.71425" lon="86.714323">
        <ele>2604.8</ele>
        <time>2022-10-30T06:58:44.000Z</time>
      </trkpt>
      <trkpt lat="27.714227" lon="86.714317">
        <ele>2604.6</ele>
        <time>2022-10-30T06:58:46.000Z</time>
      </trkpt>
      <trkpt lat="27.714205" lon="86.71431">
        <ele>2605</ele>
        <time>2022-10-30T06:58:48.000Z</time>
      </trkpt>
      <trkpt lat="27.714179" lon="86.714304">
        <ele>2605.6</ele>
        <time>2022-10-30T06:58:53.000Z</time>
      </trkpt>
      <trkpt lat="27.71416" lon="86.714298">
        <ele>2605.8</ele>
        <time>2022-10-30T06:58:55.000Z</time>
      </trkpt>
      <trkpt lat="27.714141" lon="86.714285">
        <ele>2606</ele>
        <time>2022-10-30T06:59:00.000Z</time>
      </trkpt>
      <trkpt lat="27.714122" lon="86.714278">
        <ele>2606</ele>
        <time>2022-10-30T06:59:02.000Z</time>
      </trkpt>
      <trkpt lat="27.714099" lon="86.714272">
        <ele>2607</ele>
        <time>2022-10-30T06:59:12.000Z</time>
      </trkpt>
      <trkpt lat="27.714077" lon="86.714259">
        <ele>2607.4</ele>
        <time>2022-10-30T06:59:14.000Z</time>
      </trkpt>
      <trkpt lat="27.714058" lon="86.714246">
        <ele>2607.8</ele>
        <time>2022-10-30T06:59:17.000Z</time>
      </trkpt>
      <trkpt lat="27.714038" lon="86.714246">
        <ele>2607.8</ele>
        <time>2022-10-30T06:59:20.000Z</time>
      </trkpt>
      <trkpt lat="27.714016" lon="86.714234">
        <ele>2607.8</ele>
        <time>2022-10-30T06:59:23.000Z</time>
      </trkpt>
      <trkpt lat="27.713997" lon="86.714221">
        <ele>2608.6</ele>
        <time>2022-10-30T06:59:26.000Z</time>
      </trkpt>
      <trkpt lat="27.713974" lon="86.714202">
        <ele>2609</ele>
        <time>2022-10-30T06:59:31.000Z</time>
      </trkpt>
      <trkpt lat="27.713952" lon="86.714189">
        <ele>2609.8</ele>
        <time>2022-10-30T06:59:37.000Z</time>
      </trkpt>
      <trkpt lat="27.713933" lon="86.714182">
        <ele>2610.6</ele>
        <time>2022-10-30T06:59:42.000Z</time>
      </trkpt>
      <trkpt lat="27.713914" lon="86.71417">
        <ele>2610.8</ele>
        <time>2022-10-30T06:59:45.000Z</time>
      </trkpt>
      <trkpt lat="27.713898" lon="86.714157">
        <ele>2611.4</ele>
        <time>2022-10-30T06:59:49.000Z</time>
      </trkpt>
      <trkpt lat="27.713878" lon="86.714163">
        <ele>2612</ele>
        <time>2022-10-30T06:59:53.000Z</time>
      </trkpt>
      <trkpt lat="27.713856" lon="86.714163">
        <ele>2612.6</ele>
        <time>2022-10-30T06:59:55.000Z</time>
      </trkpt>
      <trkpt lat="27.71383" lon="86.71417">
        <ele>2612.8</ele>
        <time>2022-10-30T06:59:57.000Z</time>
      </trkpt>
      <trkpt lat="27.713811" lon="86.714182">
        <ele>2614</ele>
        <time>2022-10-30T07:00:02.000Z</time>
      </trkpt>
      <trkpt lat="27.713789" lon="86.714195">
        <ele>2614.2</ele>
        <time>2022-10-30T07:00:04.000Z</time>
      </trkpt>
      <trkpt lat="27.713763" lon="86.714202">
        <ele>2614.4</ele>
        <time>2022-10-30T07:00:07.000Z</time>
      </trkpt>
      <trkpt lat="27.713744" lon="86.714208">
        <ele>2615</ele>
        <time>2022-10-30T07:00:11.000Z</time>
      </trkpt>
      <trkpt lat="27.713725" lon="86.714221">
        <ele>2615.4</ele>
        <time>2022-10-30T07:00:15.000Z</time>
      </trkpt>
      <trkpt lat="27.713706" lon="86.714208">
        <ele>2615.8</ele>
        <time>2022-10-30T07:00:20.000Z</time>
      </trkpt>
      <trkpt lat="27.713683" lon="86.714208">
        <ele>2616.8</ele>
        <time>2022-10-30T07:00:25.000Z</time>
      </trkpt>
      <trkpt lat="27.713664" lon="86.714208">
        <ele>2617.2</ele>
        <time>2022-10-30T07:00:27.000Z</time>
      </trkpt>
      <trkpt lat="27.713642" lon="86.714221">
        <ele>2617.4</ele>
        <time>2022-10-30T07:00:30.000Z</time>
      </trkpt>
      <trkpt lat="27.713619" lon="86.714208">
        <ele>2617.6</ele>
        <time>2022-10-30T07:00:32.000Z</time>
      </trkpt>
      <trkpt lat="27.713594" lon="86.714202">
        <ele>2617.8</ele>
        <time>2022-10-30T07:00:36.000Z</time>
      </trkpt>
      <trkpt lat="27.713574" lon="86.714202">
        <ele>2618</ele>
        <time>2022-10-30T07:00:38.000Z</time>
      </trkpt>
      <trkpt lat="27.713552" lon="86.714189">
        <ele>2618</ele>
        <time>2022-10-30T07:00:40.000Z</time>
      </trkpt>
      <trkpt lat="27.713526" lon="86.714182">
        <ele>2618.2</ele>
        <time>2022-10-30T07:00:43.000Z</time>
      </trkpt>
      <trkpt lat="27.71351" lon="86.714163">
        <ele>2618.8</ele>
        <time>2022-10-30T07:00:45.000Z</time>
      </trkpt>
      <trkpt lat="27.713504" lon="86.714144">
        <ele>2618.6</ele>
        <time>2022-10-30T07:00:48.000Z</time>
      </trkpt>
      <trkpt lat="27.713498" lon="86.714125">
        <ele>2619</ele>
        <time>2022-10-30T07:00:52.000Z</time>
      </trkpt>
      <trkpt lat="27.713478" lon="86.714112">
        <ele>2619.2</ele>
        <time>2022-10-30T07:00:54.000Z</time>
      </trkpt>
      <trkpt lat="27.713456" lon="86.714125">
        <ele>2619.2</ele>
        <time>2022-10-30T07:00:55.000Z</time>
      </trkpt>
      <trkpt lat="27.713434" lon="86.714106">
        <ele>2619.6</ele>
        <time>2022-10-30T07:01:00.000Z</time>
      </trkpt>
      <trkpt lat="27.713408" lon="86.714112">
        <ele>2620</ele>
        <time>2022-10-30T07:01:02.000Z</time>
      </trkpt>
      <trkpt lat="27.713382" lon="86.714112">
        <ele>2620.2</ele>
        <time>2022-10-30T07:01:04.000Z</time>
      </trkpt>
      <trkpt lat="27.713363" lon="86.714112">
        <ele>2620.6</ele>
        <time>2022-10-30T07:01:08.000Z</time>
      </trkpt>
      <trkpt lat="27.713344" lon="86.714086">
        <ele>2621</ele>
        <time>2022-10-30T07:01:13.000Z</time>
      </trkpt>
      <trkpt lat="27.713325" lon="86.714086">
        <ele>2622</ele>
        <time>2022-10-30T07:01:15.000Z</time>
      </trkpt>
      <trkpt lat="27.713299" lon="86.714099">
        <ele>2622.6</ele>
        <time>2022-10-30T07:01:19.000Z</time>
      </trkpt>
      <trkpt lat="27.71328" lon="86.714086">
        <ele>2623</ele>
        <time>2022-10-30T07:01:22.000Z</time>
      </trkpt>
      <trkpt lat="27.713258" lon="86.71408">
        <ele>2623.8</ele>
        <time>2022-10-30T07:01:26.000Z</time>
      </trkpt>
      <trkpt lat="27.713248" lon="86.714061">
        <ele>2624.2</ele>
        <time>2022-10-30T07:01:29.000Z</time>
      </trkpt>
      <trkpt lat="27.713229" lon="86.714048">
        <ele>2625</ele>
        <time>2022-10-30T07:01:33.000Z</time>
      </trkpt>
      <trkpt lat="27.71321" lon="86.714042">
        <ele>2625.4</ele>
        <time>2022-10-30T07:01:36.000Z</time>
      </trkpt>
      <trkpt lat="27.713197" lon="86.714022">
        <ele>2626</ele>
        <time>2022-10-30T07:01:41.000Z</time>
      </trkpt>
      <trkpt lat="27.713184" lon="86.714003">
        <ele>2626.4</ele>
        <time>2022-10-30T07:01:44.000Z</time>
      </trkpt>
      <trkpt lat="27.713165" lon="86.713997">
        <ele>2626.8</ele>
        <time>2022-10-30T07:01:48.000Z</time>
      </trkpt>
      <trkpt lat="27.713146" lon="86.713997">
        <ele>2627.2</ele>
        <time>2022-10-30T07:01:50.000Z</time>
      </trkpt>
      <trkpt lat="27.713126" lon="86.714003">
        <ele>2627.4</ele>
        <time>2022-10-30T07:01:52.000Z</time>
      </trkpt>
      <trkpt lat="27.713107" lon="86.713997">
        <ele>2627.8</ele>
        <time>2022-10-30T07:01:55.000Z</time>
      </trkpt>
      <trkpt lat="27.713094" lon="86.713971">
        <ele>2627.8</ele>
        <time>2022-10-30T07:01:57.000Z</time>
      </trkpt>
      <trkpt lat="27.713094" lon="86.713933">
        <ele>2628.4</ele>
        <time>2022-10-30T07:02:00.000Z</time>
      </trkpt>
      <trkpt lat="27.713098" lon="86.713907">
        <ele>2628.6</ele>
        <time>2022-10-30T07:02:02.000Z</time>
      </trkpt>
      <trkpt lat="27.713098" lon="86.713875">
        <ele>2628.6</ele>
        <time>2022-10-30T07:02:04.000Z</time>
      </trkpt>
      <trkpt lat="27.713078" lon="86.71385">
        <ele>2628.4</ele>
        <time>2022-10-30T07:02:06.000Z</time>
      </trkpt>
      <trkpt lat="27.713059" lon="86.713837">
        <ele>2628.2</ele>
        <time>2022-10-30T07:02:09.000Z</time>
      </trkpt>
      <trkpt lat="27.713037" lon="86.713837">
        <ele>2628.2</ele>
        <time>2022-10-30T07:02:11.000Z</time>
      </trkpt>
      <trkpt lat="27.713011" lon="86.71383">
        <ele>2628.2</ele>
        <time>2022-10-30T07:02:14.000Z</time>
      </trkpt>
      <trkpt lat="27.712998" lon="86.713805">
        <ele>2627.8</ele>
        <time>2022-10-30T07:02:16.000Z</time>
      </trkpt>
      <trkpt lat="27.71297" lon="86.713798">
        <ele>2628</ele>
        <time>2022-10-30T07:02:19.000Z</time>
      </trkpt>
      <trkpt lat="27.712957" lon="86.713773">
        <ele>2628</ele>
        <time>2022-10-30T07:02:22.000Z</time>
      </trkpt>
      <trkpt lat="27.712931" lon="86.713766">
        <ele>2627.8</ele>
        <time>2022-10-30T07:02:24.000Z</time>
      </trkpt>
      <trkpt lat="27.712912" lon="86.71376">
        <ele>2628.4</ele>
        <time>2022-10-30T07:02:28.000Z</time>
      </trkpt>
      <trkpt lat="27.712893" lon="86.71376">
        <ele>2628.8</ele>
        <time>2022-10-30T07:02:32.000Z</time>
      </trkpt>
      <trkpt lat="27.712867" lon="86.713754">
        <ele>2629.6</ele>
        <time>2022-10-30T07:02:37.000Z</time>
      </trkpt>
      <trkpt lat="27.712854" lon="86.713734">
        <ele>2629.8</ele>
        <time>2022-10-30T07:02:40.000Z</time>
      </trkpt>
      <trkpt lat="27.712829" lon="86.713722">
        <ele>2630.6</ele>
        <time>2022-10-30T07:02:43.000Z</time>
      </trkpt>
      <trkpt lat="27.712813" lon="86.713709">
        <ele>2630.6</ele>
        <time>2022-10-30T07:02:46.000Z</time>
      </trkpt>
      <trkpt lat="27.712794" lon="86.713709">
        <ele>2631.2</ele>
        <time>2022-10-30T07:02:49.000Z</time>
      </trkpt>
      <trkpt lat="27.712787" lon="86.71369">
        <ele>2631.4</ele>
        <time>2022-10-30T07:02:51.000Z</time>
      </trkpt>
      <trkpt lat="27.712781" lon="86.71367">
        <ele>2631.6</ele>
        <time>2022-10-30T07:02:53.000Z</time>
      </trkpt>
      <trkpt lat="27.712778" lon="86.713638">
        <ele>2631.8</ele>
        <time>2022-10-30T07:02:56.000Z</time>
      </trkpt>
      <trkpt lat="27.712758" lon="86.713632">
        <ele>2632</ele>
        <time>2022-10-30T07:02:59.000Z</time>
      </trkpt>
      <trkpt lat="27.712733" lon="86.713638">
        <ele>2632.6</ele>
        <time>2022-10-30T07:03:01.000Z</time>
      </trkpt>
      <trkpt lat="27.712707" lon="86.713632">
        <ele>2632.8</ele>
        <time>2022-10-30T07:03:04.000Z</time>
      </trkpt>
      <trkpt lat="27.712682" lon="86.713626">
        <ele>2633</ele>
        <time>2022-10-30T07:03:06.000Z</time>
      </trkpt>
      <trkpt lat="27.712682" lon="86.7136">
        <ele>2633.2</ele>
        <time>2022-10-30T07:03:08.000Z</time>
      </trkpt>
      <trkpt lat="27.712666" lon="86.713587">
        <ele>2634.2</ele>
        <time>2022-10-30T07:03:14.000Z</time>
      </trkpt>
      <trkpt lat="27.71265" lon="86.713574">
        <ele>2635.4</ele>
        <time>2022-10-30T07:03:20.000Z</time>
      </trkpt>
      <trkpt lat="27.712634" lon="86.713587">
        <ele>2636</ele>
        <time>2022-10-30T07:03:23.000Z</time>
      </trkpt>
      <trkpt lat="27.712614" lon="86.7136">
        <ele>2636.2</ele>
        <time>2022-10-30T07:03:29.000Z</time>
      </trkpt>
      <trkpt lat="27.712595" lon="86.713613">
        <ele>2637.2</ele>
        <time>2022-10-30T07:03:35.000Z</time>
      </trkpt>
      <trkpt lat="27.712579" lon="86.713632">
        <ele>2637.8</ele>
        <time>2022-10-30T07:03:39.000Z</time>
      </trkpt>
      <trkpt lat="27.712563" lon="86.713645">
        <ele>2638</ele>
        <time>2022-10-30T07:03:43.000Z</time>
      </trkpt>
      <trkpt lat="27.712544" lon="86.713651">
        <ele>2639</ele>
        <time>2022-10-30T07:03:47.000Z</time>
      </trkpt>
      <trkpt lat="27.712528" lon="86.713664">
        <ele>2639.2</ele>
        <time>2022-10-30T07:03:51.000Z</time>
      </trkpt>
      <trkpt lat="27.712512" lon="86.713677">
        <ele>2640.2</ele>
        <time>2022-10-30T07:03:55.000Z</time>
      </trkpt>
      <trkpt lat="27.712496" lon="86.713702">
        <ele>2640.8</ele>
        <time>2022-10-30T07:03:59.000Z</time>
      </trkpt>
      <trkpt lat="27.712483" lon="86.713722">
        <ele>2640.8</ele>
        <time>2022-10-30T07:04:03.000Z</time>
      </trkpt>
      <trkpt lat="27.712461" lon="86.713728">
        <ele>2641.2</ele>
        <time>2022-10-30T07:04:08.000Z</time>
      </trkpt>
      <trkpt lat="27.712448" lon="86.713747">
        <ele>2641.4</ele>
        <time>2022-10-30T07:04:10.000Z</time>
      </trkpt>
      <trkpt lat="27.712429" lon="86.713747">
        <ele>2642.2</ele>
        <time>2022-10-30T07:04:13.000Z</time>
      </trkpt>
      <trkpt lat="27.71241" lon="86.71376">
        <ele>2642.2</ele>
        <time>2022-10-30T07:04:17.000Z</time>
      </trkpt>
      <trkpt lat="27.71239" lon="86.713766">
        <ele>2643.2</ele>
        <time>2022-10-30T07:04:20.000Z</time>
      </trkpt>
      <trkpt lat="27.712371" lon="86.713773">
        <ele>2644</ele>
        <time>2022-10-30T07:04:23.000Z</time>
      </trkpt>
      <trkpt lat="27.712355" lon="86.713786">
        <ele>2644.6</ele>
        <time>2022-10-30T07:04:26.000Z</time>
      </trkpt>
      <trkpt lat="27.712336" lon="86.713798">
        <ele>2644.8</ele>
        <time>2022-10-30T07:04:29.000Z</time>
      </trkpt>
      <trkpt lat="27.712314" lon="86.713805">
        <ele>2645.2</ele>
        <time>2022-10-30T07:04:33.000Z</time>
      </trkpt>
      <trkpt lat="27.712291" lon="86.713824">
        <ele>2645.6</ele>
        <time>2022-10-30T07:04:37.000Z</time>
      </trkpt>
      <trkpt lat="27.712272" lon="86.71383">
        <ele>2646</ele>
        <time>2022-10-30T07:04:40.000Z</time>
      </trkpt>
      <trkpt lat="27.712246" lon="86.713843">
        <ele>2646.2</ele>
        <time>2022-10-30T07:04:44.000Z</time>
      </trkpt>
      <trkpt lat="27.712224" lon="86.71385">
        <ele>2646.6</ele>
        <time>2022-10-30T07:04:49.000Z</time>
      </trkpt>
      <trkpt lat="27.712205" lon="86.713869">
        <ele>2647</ele>
        <time>2022-10-30T07:04:53.000Z</time>
      </trkpt>
      <trkpt lat="27.712182" lon="86.713869">
        <ele>2647.4</ele>
        <time>2022-10-30T07:04:56.000Z</time>
      </trkpt>
      <trkpt lat="27.712163" lon="86.713882">
        <ele>2647.8</ele>
        <time>2022-10-30T07:04:59.000Z</time>
      </trkpt>
      <trkpt lat="27.712154" lon="86.713907">
        <ele>2648.4</ele>
        <time>2022-10-30T07:05:02.000Z</time>
      </trkpt>
      <trkpt lat="27.712134" lon="86.71392">
        <ele>2648.6</ele>
        <time>2022-10-30T07:05:05.000Z</time>
      </trkpt>
      <trkpt lat="27.712112" lon="86.713933">
        <ele>2649.2</ele>
        <time>2022-10-30T07:05:08.000Z</time>
      </trkpt>
      <trkpt lat="27.712093" lon="86.713946">
        <ele>2649.4</ele>
        <time>2022-10-30T07:05:12.000Z</time>
      </trkpt>
      <trkpt lat="27.712058" lon="86.713958">
        <ele>2651.2</ele>
        <time>2022-10-30T07:05:22.000Z</time>
      </trkpt>
      <trkpt lat="27.712035" lon="86.713965">
        <ele>2651.2</ele>
        <time>2022-10-30T07:05:25.000Z</time>
      </trkpt>
      <trkpt lat="27.712016" lon="86.713965">
        <ele>2651.6</ele>
        <time>2022-10-30T07:05:29.000Z</time>
      </trkpt>
      <trkpt lat="27.711997" lon="86.713971">
        <ele>2652.2</ele>
        <time>2022-10-30T07:05:33.000Z</time>
      </trkpt>
      <trkpt lat="27.711987" lon="86.71399">
        <ele>2653</ele>
        <time>2022-10-30T07:05:36.000Z</time>
      </trkpt>
      <trkpt lat="27.711968" lon="86.713997">
        <ele>2653.4</ele>
        <time>2022-10-30T07:05:39.000Z</time>
      </trkpt>
      <trkpt lat="27.711946" lon="86.713997">
        <ele>2653.8</ele>
        <time>2022-10-30T07:05:44.000Z</time>
      </trkpt>
      <trkpt lat="27.711939" lon="86.713901">
        <ele>2657.2</ele>
        <time>2022-10-30T07:09:54.000Z</time>
      </trkpt>
      <trkpt lat="27.711917" lon="86.713888">
        <ele>2657.2</ele>
        <time>2022-10-30T07:09:59.000Z</time>
      </trkpt>
      <trkpt lat="27.711894" lon="86.713882">
        <ele>2657.6</ele>
        <time>2022-10-30T07:10:02.000Z</time>
      </trkpt>
      <trkpt lat="27.711885" lon="86.713907">
        <ele>2658</ele>
        <time>2022-10-30T07:10:05.000Z</time>
      </trkpt>
      <trkpt lat="27.711862" lon="86.71392">
        <ele>2658.6</ele>
        <time>2022-10-30T07:10:08.000Z</time>
      </trkpt>
      <trkpt lat="27.711846" lon="86.713933">
        <ele>2659.4</ele>
        <time>2022-10-30T07:10:10.000Z</time>
      </trkpt>
      <trkpt lat="27.71183" lon="86.713952">
        <ele>2659.2</ele>
        <time>2022-10-30T07:10:13.000Z</time>
      </trkpt>
      <trkpt lat="27.711808" lon="86.713971">
        <ele>2659.2</ele>
        <time>2022-10-30T07:10:16.000Z</time>
      </trkpt>
      <trkpt lat="27.711792" lon="86.71399">
        <ele>2659.2</ele>
        <time>2022-10-30T07:10:19.000Z</time>
      </trkpt>
      <trkpt lat="27.71177" lon="86.714003">
        <ele>2659.4</ele>
        <time>2022-10-30T07:10:22.000Z</time>
      </trkpt>
      <trkpt lat="27.71175" lon="86.714022">
        <ele>2659.6</ele>
        <time>2022-10-30T07:10:24.000Z</time>
      </trkpt>
      <trkpt lat="27.711734" lon="86.714035">
        <ele>2660</ele>
        <time>2022-10-30T07:10:27.000Z</time>
      </trkpt>
      <trkpt lat="27.711718" lon="86.714048">
        <ele>2660.2</ele>
        <time>2022-10-30T07:10:29.000Z</time>
      </trkpt>
      <trkpt lat="27.711709" lon="86.714074">
        <ele>2660.2</ele>
        <time>2022-10-30T07:10:31.000Z</time>
      </trkpt>
      <trkpt lat="27.71169" lon="86.714086">
        <ele>2660.6</ele>
        <time>2022-10-30T07:10:35.000Z</time>
      </trkpt>
      <trkpt lat="27.71168" lon="86.714106">
        <ele>2660.6</ele>
        <time>2022-10-30T07:10:37.000Z</time>
      </trkpt>
      <trkpt lat="27.71167" lon="86.714125">
        <ele>2661</ele>
        <time>2022-10-30T07:10:40.000Z</time>
      </trkpt>
      <trkpt lat="27.711664" lon="86.714144">
        <ele>2661.2</ele>
        <time>2022-10-30T07:10:43.000Z</time>
      </trkpt>
      <trkpt lat="27.711645" lon="86.714157">
        <ele>2661.6</ele>
        <time>2022-10-30T07:10:48.000Z</time>
      </trkpt>
      <trkpt lat="27.711632" lon="86.714182">
        <ele>2661.8</ele>
        <time>2022-10-30T07:10:51.000Z</time>
      </trkpt>
      <trkpt lat="27.71161" lon="86.714195">
        <ele>2662</ele>
        <time>2022-10-30T07:10:54.000Z</time>
      </trkpt>
      <trkpt lat="27.71159" lon="86.714208">
        <ele>2662.6</ele>
        <time>2022-10-30T07:10:59.000Z</time>
      </trkpt>
      <trkpt lat="27.711574" lon="86.714221">
        <ele>2662.6</ele>
        <time>2022-10-30T07:11:02.000Z</time>
      </trkpt>
      <trkpt lat="27.711558" lon="86.71424">
        <ele>2663.6</ele>
        <time>2022-10-30T07:11:06.000Z</time>
      </trkpt>
      <trkpt lat="27.711539" lon="86.714246">
        <ele>2664.2</ele>
        <time>2022-10-30T07:11:11.000Z</time>
      </trkpt>
      <trkpt lat="27.711523" lon="86.714259">
        <ele>2664.8</ele>
        <time>2022-10-30T07:11:16.000Z</time>
      </trkpt>
      <trkpt lat="27.711504" lon="86.714259">
        <ele>2665.4</ele>
        <time>2022-10-30T07:11:20.000Z</time>
      </trkpt>
      <trkpt lat="27.711485" lon="86.714278">
        <ele>2666</ele>
        <time>2022-10-30T07:11:24.000Z</time>
      </trkpt>
      <trkpt lat="27.711475" lon="86.714298">
        <ele>2666</ele>
        <time>2022-10-30T07:11:26.000Z</time>
      </trkpt>
      <trkpt lat="27.711453" lon="86.714304">
        <ele>2665.8</ele>
        <time>2022-10-30T07:11:29.000Z</time>
      </trkpt>
      <trkpt lat="27.711427" lon="86.714317">
        <ele>2666.4</ele>
        <time>2022-10-30T07:11:34.000Z</time>
      </trkpt>
      <trkpt lat="27.711405" lon="86.714323">
        <ele>2667</ele>
        <time>2022-10-30T07:11:38.000Z</time>
      </trkpt>
      <trkpt lat="27.711382" lon="86.71433">
        <ele>2667.8</ele>
        <time>2022-10-30T07:11:42.000Z</time>
      </trkpt>
      <trkpt lat="27.711363" lon="86.714349">
        <ele>2667.8</ele>
        <time>2022-10-30T07:11:46.000Z</time>
      </trkpt>
      <trkpt lat="27.711347" lon="86.714362">
        <ele>2668.6</ele>
        <time>2022-10-30T07:11:51.000Z</time>
      </trkpt>
      <trkpt lat="27.711325" lon="86.714368">
        <ele>2669.8</ele>
        <time>2022-10-30T07:11:56.000Z</time>
      </trkpt>
      <trkpt lat="27.711309" lon="86.714381">
        <ele>2670</ele>
        <time>2022-10-30T07:11:59.000Z</time>
      </trkpt>
      <trkpt lat="27.71129" lon="86.714394">
        <ele>2670.2</ele>
        <time>2022-10-30T07:12:02.000Z</time>
      </trkpt>
      <trkpt lat="27.711264" lon="86.714406">
        <ele>2670.4</ele>
        <time>2022-10-30T07:12:05.000Z</time>
      </trkpt>
      <trkpt lat="27.711245" lon="86.714426">
        <ele>2670.6</ele>
        <time>2022-10-30T07:12:08.000Z</time>
      </trkpt>
      <trkpt lat="27.711219" lon="86.714432">
        <ele>2670.6</ele>
        <time>2022-10-30T07:12:11.000Z</time>
      </trkpt>
      <trkpt lat="27.7112" lon="86.714432">
        <ele>2670.8</ele>
        <time>2022-10-30T07:12:13.000Z</time>
      </trkpt>
      <trkpt lat="27.711181" lon="86.714438">
        <ele>2670.8</ele>
        <time>2022-10-30T07:12:15.000Z</time>
      </trkpt>
      <trkpt lat="27.711162" lon="86.714445">
        <ele>2671.2</ele>
        <time>2022-10-30T07:12:19.000Z</time>
      </trkpt>
      <trkpt lat="27.711139" lon="86.714438">
        <ele>2672</ele>
        <time>2022-10-30T07:12:24.000Z</time>
      </trkpt>
      <trkpt lat="27.711117" lon="86.714445">
        <ele>2672</ele>
        <time>2022-10-30T07:12:27.000Z</time>
      </trkpt>
      <trkpt lat="27.711091" lon="86.714445">
        <ele>2672</ele>
        <time>2022-10-30T07:12:30.000Z</time>
      </trkpt>
      <trkpt lat="27.711072" lon="86.714458">
        <ele>2672</ele>
        <time>2022-10-30T07:12:32.000Z</time>
      </trkpt>
      <trkpt lat="27.71105" lon="86.714458">
        <ele>2672</ele>
        <time>2022-10-30T07:12:35.000Z</time>
      </trkpt>
      <trkpt lat="27.71103" lon="86.714464">
        <ele>2672.4</ele>
        <time>2022-10-30T07:12:39.000Z</time>
      </trkpt>
      <trkpt lat="27.711008" lon="86.714464">
        <ele>2673.2</ele>
        <time>2022-10-30T07:12:43.000Z</time>
      </trkpt>
      <trkpt lat="27.710989" lon="86.71447">
        <ele>2673.6</ele>
        <time>2022-10-30T07:12:47.000Z</time>
      </trkpt>
      <trkpt lat="27.710963" lon="86.714483">
        <ele>2674</ele>
        <time>2022-10-30T07:12:50.000Z</time>
      </trkpt>
      <trkpt lat="27.710944" lon="86.71449">
        <ele>2674</ele>
        <time>2022-10-30T07:12:53.000Z</time>
      </trkpt>
      <trkpt lat="27.710925" lon="86.714502">
        <ele>2674.2</ele>
        <time>2022-10-30T07:12:56.000Z</time>
      </trkpt>
      <trkpt lat="27.710902" lon="86.714509">
        <ele>2675.6</ele>
        <time>2022-10-30T07:13:02.000Z</time>
      </trkpt>
      <trkpt lat="27.710883" lon="86.714522">
        <ele>2676</ele>
        <time>2022-10-30T07:13:08.000Z</time>
      </trkpt>
      <trkpt lat="27.710864" lon="86.714528">
        <ele>2676.6</ele>
        <time>2022-10-30T07:13:12.000Z</time>
      </trkpt>
      <trkpt lat="27.710845" lon="86.714547">
        <ele>2677.2</ele>
        <time>2022-10-30T07:13:17.000Z</time>
      </trkpt>
      <trkpt lat="27.710826" lon="86.714547">
        <ele>2678</ele>
        <time>2022-10-30T07:13:22.000Z</time>
      </trkpt>
      <trkpt lat="27.710806" lon="86.714547">
        <ele>2678.6</ele>
        <time>2022-10-30T07:13:25.000Z</time>
      </trkpt>
      <trkpt lat="27.710784" lon="86.714547">
        <ele>2678.6</ele>
        <time>2022-10-30T07:13:28.000Z</time>
      </trkpt>
      <trkpt lat="27.710765" lon="86.714547">
        <ele>2678.8</ele>
        <time>2022-10-30T07:13:31.000Z</time>
      </trkpt>
      <trkpt lat="27.710742" lon="86.714547">
        <ele>2678.8</ele>
        <time>2022-10-30T07:13:34.000Z</time>
      </trkpt>
      <trkpt lat="27.710723" lon="86.71456">
        <ele>2679</ele>
        <time>2022-10-30T07:13:38.000Z</time>
      </trkpt>
      <trkpt lat="27.710717" lon="86.714579">
        <ele>2679.8</ele>
        <time>2022-10-30T07:13:43.000Z</time>
      </trkpt>
      <trkpt lat="27.710698" lon="86.714579">
        <ele>2680.4</ele>
        <time>2022-10-30T07:13:48.000Z</time>
      </trkpt>
      <trkpt lat="27.710672" lon="86.714586">
        <ele>2680.6</ele>
        <time>2022-10-30T07:13:53.000Z</time>
      </trkpt>
      <trkpt lat="27.710646" lon="86.714592">
        <ele>2680.8</ele>
        <time>2022-10-30T07:13:56.000Z</time>
      </trkpt>
      <trkpt lat="27.710624" lon="86.714592">
        <ele>2681.2</ele>
        <time>2022-10-30T07:13:59.000Z</time>
      </trkpt>
      <trkpt lat="27.710602" lon="86.714592">
        <ele>2681.4</ele>
        <time>2022-10-30T07:14:03.000Z</time>
      </trkpt>
      <trkpt lat="27.710582" lon="86.714598">
        <ele>2682.6</ele>
        <time>2022-10-30T07:14:09.000Z</time>
      </trkpt>
      <trkpt lat="27.710563" lon="86.714605">
        <ele>2683</ele>
        <time>2022-10-30T07:14:13.000Z</time>
      </trkpt>
      <trkpt lat="27.710547" lon="86.714618">
        <ele>2683.4</ele>
        <time>2022-10-30T07:14:15.000Z</time>
      </trkpt>
      <trkpt lat="27.710528" lon="86.714618">
        <ele>2683.8</ele>
        <time>2022-10-30T07:14:18.000Z</time>
      </trkpt>
      <trkpt lat="27.710509" lon="86.714624">
        <ele>2684.4</ele>
        <time>2022-10-30T07:14:22.000Z</time>
      </trkpt>
      <trkpt lat="27.710486" lon="86.714618">
        <ele>2685.4</ele>
        <time>2022-10-30T07:14:26.000Z</time>
      </trkpt>
      <trkpt lat="27.71047" lon="86.714598">
        <ele>2685.6</ele>
        <time>2022-10-30T07:14:32.000Z</time>
      </trkpt>
      <trkpt lat="27.710454" lon="86.714579">
        <ele>2686.8</ele>
        <time>2022-10-30T07:14:38.000Z</time>
      </trkpt>
      <trkpt lat="27.710448" lon="86.71456">
        <ele>2686.8</ele>
        <time>2022-10-30T07:14:39.000Z</time>
      </trkpt>
      <trkpt lat="27.710429" lon="86.714541">
        <ele>2686.8</ele>
        <time>2022-10-30T07:14:43.000Z</time>
      </trkpt>
      <trkpt lat="27.71041" lon="86.714541">
        <ele>2687.2</ele>
        <time>2022-10-30T07:14:47.000Z</time>
      </trkpt>
      <trkpt lat="27.710394" lon="86.714528">
        <ele>2688.2</ele>
        <time>2022-10-30T07:14:53.000Z</time>
      </trkpt>
      <trkpt lat="27.710374" lon="86.714522">
        <ele>2688.6</ele>
        <time>2022-10-30T07:14:57.000Z</time>
      </trkpt>
      <trkpt lat="27.710339" lon="86.714541">
        <ele>2690</ele>
        <time>2022-10-30T07:15:05.000Z</time>
      </trkpt>
      <trkpt lat="27.71032" lon="86.714541">
        <ele>2689.8</ele>
        <time>2022-10-30T07:15:10.000Z</time>
      </trkpt>
      <trkpt lat="27.710275" lon="86.714579">
        <ele>2690.6</ele>
        <time>2022-10-30T07:15:17.000Z</time>
      </trkpt>
      <trkpt lat="27.71025" lon="86.714579">
        <ele>2690.2</ele>
        <time>2022-10-30T07:15:20.000Z</time>
      </trkpt>
      <trkpt lat="27.71023" lon="86.714579">
        <ele>2690.8</ele>
        <time>2022-10-30T07:15:22.000Z</time>
      </trkpt>
      <trkpt lat="27.710211" lon="86.714586">
        <ele>2691.4</ele>
        <time>2022-10-30T07:15:25.000Z</time>
      </trkpt>
      <trkpt lat="27.710186" lon="86.714598">
        <ele>2691.2</ele>
        <time>2022-10-30T07:15:28.000Z</time>
      </trkpt>
      <trkpt lat="27.71017" lon="86.714618">
        <ele>2691.4</ele>
        <time>2022-10-30T07:15:30.000Z</time>
      </trkpt>
      <trkpt lat="27.71015" lon="86.714637">
        <ele>2690.8</ele>
        <time>2022-10-30T07:15:33.000Z</time>
      </trkpt>
      <trkpt lat="27.710131" lon="86.714656">
        <ele>2691</ele>
        <time>2022-10-30T07:15:36.000Z</time>
      </trkpt>
      <trkpt lat="27.710122" lon="86.714682">
        <ele>2691.8</ele>
        <time>2022-10-30T07:15:42.000Z</time>
      </trkpt>
      <trkpt lat="27.710099" lon="86.714701">
        <ele>2692.2</ele>
        <time>2022-10-30T07:15:45.000Z</time>
      </trkpt>
      <trkpt lat="27.710074" lon="86.714714">
        <ele>2692.2</ele>
        <time>2022-10-30T07:15:48.000Z</time>
      </trkpt>
      <trkpt lat="27.710051" lon="86.71472">
        <ele>2692.2</ele>
        <time>2022-10-30T07:15:50.000Z</time>
      </trkpt>
      <trkpt lat="27.710038" lon="86.714739">
        <ele>2692.6</ele>
        <time>2022-10-30T07:15:52.000Z</time>
      </trkpt>
      <trkpt lat="27.710019" lon="86.714746">
        <ele>2692.6</ele>
        <time>2022-10-30T07:15:54.000Z</time>
      </trkpt>
      <trkpt lat="27.71" lon="86.714758">
        <ele>2692.8</ele>
        <time>2022-10-30T07:15:56.000Z</time>
      </trkpt>
      <trkpt lat="27.709978" lon="86.714778">
        <ele>2692.8</ele>
        <time>2022-10-30T07:15:58.000Z</time>
      </trkpt>
      <trkpt lat="27.709955" lon="86.714778">
        <ele>2692.8</ele>
        <time>2022-10-30T07:16:00.000Z</time>
      </trkpt>
      <trkpt lat="27.709936" lon="86.714778">
        <ele>2692.6</ele>
        <time>2022-10-30T07:16:02.000Z</time>
      </trkpt>
      <trkpt lat="27.70991" lon="86.714778">
        <ele>2692.4</ele>
        <time>2022-10-30T07:16:05.000Z</time>
      </trkpt>
      <trkpt lat="27.709891" lon="86.714778">
        <ele>2692.4</ele>
        <time>2022-10-30T07:16:07.000Z</time>
      </trkpt>
      <trkpt lat="27.709872" lon="86.714778">
        <ele>2692.4</ele>
        <time>2022-10-30T07:16:09.000Z</time>
      </trkpt>
      <trkpt lat="27.709853" lon="86.714778">
        <ele>2692.8</ele>
        <time>2022-10-30T07:16:11.000Z</time>
      </trkpt>
      <trkpt lat="27.70983" lon="86.714778">
        <ele>2693.2</ele>
        <time>2022-10-30T07:16:13.000Z</time>
      </trkpt>
      <trkpt lat="27.709808" lon="86.714778">
        <ele>2693</ele>
        <time>2022-10-30T07:16:15.000Z</time>
      </trkpt>
      <trkpt lat="27.709789" lon="86.714758">
        <ele>2693</ele>
        <time>2022-10-30T07:16:17.000Z</time>
      </trkpt>
      <trkpt lat="27.709763" lon="86.714758">
        <ele>2693.2</ele>
        <time>2022-10-30T07:16:19.000Z</time>
      </trkpt>
      <trkpt lat="27.709744" lon="86.714758">
        <ele>2693.4</ele>
        <time>2022-10-30T07:16:21.000Z</time>
      </trkpt>
      <trkpt lat="27.709722" lon="86.714765">
        <ele>2693.2</ele>
        <time>2022-10-30T07:16:23.000Z</time>
      </trkpt>
      <trkpt lat="27.709702" lon="86.714765">
        <ele>2693</ele>
        <time>2022-10-30T07:16:25.000Z</time>
      </trkpt>
      <trkpt lat="27.709683" lon="86.714765">
        <ele>2693.2</ele>
        <time>2022-10-30T07:16:27.000Z</time>
      </trkpt>
      <trkpt lat="27.709664" lon="86.714765">
        <ele>2693.2</ele>
        <time>2022-10-30T07:16:29.000Z</time>
      </trkpt>
      <trkpt lat="27.709642" lon="86.714778">
        <ele>2693.6</ele>
        <time>2022-10-30T07:16:31.000Z</time>
      </trkpt>
      <trkpt lat="27.709616" lon="86.714778">
        <ele>2693.6</ele>
        <time>2022-10-30T07:16:34.000Z</time>
      </trkpt>
      <trkpt lat="27.709597" lon="86.714784">
        <ele>2693.6</ele>
        <time>2022-10-30T07:16:36.000Z</time>
      </trkpt>
      <trkpt lat="27.709578" lon="86.71479">
        <ele>2693.6</ele>
        <time>2022-10-30T07:16:38.000Z</time>
      </trkpt>
      <trkpt lat="27.709558" lon="86.714797">
        <ele>2694</ele>
        <time>2022-10-30T07:16:40.000Z</time>
      </trkpt>
      <trkpt lat="27.709539" lon="86.714803">
        <ele>2694</ele>
        <time>2022-10-30T07:16:42.000Z</time>
      </trkpt>
      <trkpt lat="27.709523" lon="86.714822">
        <ele>2694</ele>
        <time>2022-10-30T07:16:44.000Z</time>
      </trkpt>
      <trkpt lat="27.709501" lon="86.714835">
        <ele>2694.4</ele>
        <time>2022-10-30T07:16:47.000Z</time>
      </trkpt>
      <trkpt lat="27.709485" lon="86.714854">
        <ele>2694.4</ele>
        <time>2022-10-30T07:16:49.000Z</time>
      </trkpt>
      <trkpt lat="27.709466" lon="86.714874">
        <ele>2694.4</ele>
        <time>2022-10-30T07:16:52.000Z</time>
      </trkpt>
      <trkpt lat="27.709443" lon="86.714899">
        <ele>2694.4</ele>
        <time>2022-10-30T07:16:55.000Z</time>
      </trkpt>
      <trkpt lat="27.709421" lon="86.714912">
        <ele>2694.2</ele>
        <time>2022-10-30T07:16:58.000Z</time>
      </trkpt>
      <trkpt lat="27.709402" lon="86.714925">
        <ele>2694.4</ele>
        <time>2022-10-30T07:17:00.000Z</time>
      </trkpt>
      <trkpt lat="27.709386" lon="86.714944">
        <ele>2694.4</ele>
        <time>2022-10-30T07:17:02.000Z</time>
      </trkpt>
      <trkpt lat="27.709366" lon="86.714963">
        <ele>2694.2</ele>
        <time>2022-10-30T07:17:04.000Z</time>
      </trkpt>
      <trkpt lat="27.709347" lon="86.714982">
        <ele>2694.4</ele>
        <time>2022-10-30T07:17:07.000Z</time>
      </trkpt>
      <trkpt lat="27.709334" lon="86.715002">
        <ele>2694</ele>
        <time>2022-10-30T07:17:09.000Z</time>
      </trkpt>
      <trkpt lat="27.709315" lon="86.715014">
        <ele>2694</ele>
        <time>2022-10-30T07:17:11.000Z</time>
      </trkpt>
      <trkpt lat="27.709296" lon="86.715027">
        <ele>2694.2</ele>
        <time>2022-10-30T07:17:13.000Z</time>
      </trkpt>
      <trkpt lat="27.709277" lon="86.71504">
        <ele>2694.4</ele>
        <time>2022-10-30T07:17:15.000Z</time>
      </trkpt>
      <trkpt lat="27.709264" lon="86.715059">
        <ele>2694</ele>
        <time>2022-10-30T07:17:17.000Z</time>
      </trkpt>
      <trkpt lat="27.709248" lon="86.715072">
        <ele>2694</ele>
        <time>2022-10-30T07:17:19.000Z</time>
      </trkpt>
      <trkpt lat="27.709226" lon="86.715085">
        <ele>2694</ele>
        <time>2022-10-30T07:17:21.000Z</time>
      </trkpt>
      <trkpt lat="27.709216" lon="86.71511">
        <ele>2694</ele>
        <time>2022-10-30T07:17:23.000Z</time>
      </trkpt>
      <trkpt lat="27.709197" lon="86.715117">
        <ele>2694.2</ele>
        <time>2022-10-30T07:17:25.000Z</time>
      </trkpt>
      <trkpt lat="27.709187" lon="86.715136">
        <ele>2694.4</ele>
        <time>2022-10-30T07:17:27.000Z</time>
      </trkpt>
      <trkpt lat="27.709171" lon="86.715155">
        <ele>2694.4</ele>
        <time>2022-10-30T07:17:29.000Z</time>
      </trkpt>
      <trkpt lat="27.709158" lon="86.715174">
        <ele>2694.4</ele>
        <time>2022-10-30T07:17:31.000Z</time>
      </trkpt>
      <trkpt lat="27.709146" lon="86.715194">
        <ele>2694.2</ele>
        <time>2022-10-30T07:17:35.000Z</time>
      </trkpt>
      <trkpt lat="27.709146" lon="86.715219">
        <ele>2694.2</ele>
        <time>2022-10-30T07:17:38.000Z</time>
      </trkpt>
      <trkpt lat="27.709133" lon="86.715238">
        <ele>2694.2</ele>
        <time>2022-10-30T07:21:44.000Z</time>
      </trkpt>
      <trkpt lat="27.709114" lon="86.715258">
        <ele>2694.4</ele>
        <time>2022-10-30T07:21:46.000Z</time>
      </trkpt>
      <trkpt lat="27.709094" lon="86.715277">
        <ele>2694.8</ele>
        <time>2022-10-30T07:21:48.000Z</time>
      </trkpt>
      <trkpt lat="27.709075" lon="86.715302">
        <ele>2694.4</ele>
        <time>2022-10-30T07:21:50.000Z</time>
      </trkpt>
      <trkpt lat="27.709059" lon="86.715322">
        <ele>2694.2</ele>
        <time>2022-10-30T07:21:52.000Z</time>
      </trkpt>
      <trkpt lat="27.709046" lon="86.715341">
        <ele>2694</ele>
        <time>2022-10-30T07:21:54.000Z</time>
      </trkpt>
      <trkpt lat="27.709027" lon="86.71536">
        <ele>2693.6</ele>
        <time>2022-10-30T07:21:56.000Z</time>
      </trkpt>
      <trkpt lat="27.709014" lon="86.715379">
        <ele>2693.6</ele>
        <time>2022-10-30T07:21:58.000Z</time>
      </trkpt>
      <trkpt lat="27.708998" lon="86.715392">
        <ele>2694.2</ele>
        <time>2022-10-30T07:22:00.000Z</time>
      </trkpt>
      <trkpt lat="27.708986" lon="86.715418">
        <ele>2694.4</ele>
        <time>2022-10-30T07:22:02.000Z</time>
      </trkpt>
      <trkpt lat="27.70897" lon="86.71543">
        <ele>2695.4</ele>
        <time>2022-10-30T07:22:04.000Z</time>
      </trkpt>
      <trkpt lat="27.70895" lon="86.71545">
        <ele>2695.6</ele>
        <time>2022-10-30T07:22:06.000Z</time>
      </trkpt>
      <trkpt lat="27.708941" lon="86.715469">
        <ele>2694.8</ele>
        <time>2022-10-30T07:22:08.000Z</time>
      </trkpt>
      <trkpt lat="27.708925" lon="86.715482">
        <ele>2695.4</ele>
        <time>2022-10-30T07:22:11.000Z</time>
      </trkpt>
      <trkpt lat="27.708915" lon="86.715501">
        <ele>2695</ele>
        <time>2022-10-30T07:22:13.000Z</time>
      </trkpt>
      <trkpt lat="27.708899" lon="86.715514">
        <ele>2694.6</ele>
        <time>2022-10-30T07:22:17.000Z</time>
      </trkpt>
      <trkpt lat="27.708886" lon="86.715533">
        <ele>2694.6</ele>
        <time>2022-10-30T07:22:25.000Z</time>
      </trkpt>
      <trkpt lat="27.708864" lon="86.715546">
        <ele>2694.6</ele>
        <time>2022-10-30T07:22:27.000Z</time>
      </trkpt>
      <trkpt lat="27.708845" lon="86.715558">
        <ele>2694.6</ele>
        <time>2022-10-30T07:22:29.000Z</time>
      </trkpt>
      <trkpt lat="27.708826" lon="86.715578">
        <ele>2694.6</ele>
        <time>2022-10-30T07:22:31.000Z</time>
      </trkpt>
      <trkpt lat="27.70881" lon="86.71559">
        <ele>2694.6</ele>
        <time>2022-10-30T07:22:33.000Z</time>
      </trkpt>
      <trkpt lat="27.70879" lon="86.715597">
        <ele>2694.4</ele>
        <time>2022-10-30T07:22:35.000Z</time>
      </trkpt>
      <trkpt lat="27.708774" lon="86.71561">
        <ele>2694</ele>
        <time>2022-10-30T07:22:37.000Z</time>
      </trkpt>
      <trkpt lat="27.708749" lon="86.715622">
        <ele>2693.8</ele>
        <time>2022-10-30T07:22:40.000Z</time>
      </trkpt>
      <trkpt lat="27.70872" lon="86.715635">
        <ele>2693.8</ele>
        <time>2022-10-30T07:22:43.000Z</time>
      </trkpt>
      <trkpt lat="27.708701" lon="86.715648">
        <ele>2694</ele>
        <time>2022-10-30T07:22:45.000Z</time>
      </trkpt>
      <trkpt lat="27.708678" lon="86.715648">
        <ele>2694</ele>
        <time>2022-10-30T07:22:48.000Z</time>
      </trkpt>
      <trkpt lat="27.708659" lon="86.715654">
        <ele>2694</ele>
        <time>2022-10-30T07:22:50.000Z</time>
      </trkpt>
      <trkpt lat="27.70863" lon="86.715661">
        <ele>2694.6</ele>
        <time>2022-10-30T07:22:53.000Z</time>
      </trkpt>
      <trkpt lat="27.708605" lon="86.715674">
        <ele>2694.6</ele>
        <time>2022-10-30T07:22:56.000Z</time>
      </trkpt>
      <trkpt lat="27.708582" lon="86.715674">
        <ele>2694.8</ele>
        <time>2022-10-30T07:22:59.000Z</time>
      </trkpt>
      <trkpt lat="27.70856" lon="86.71568">
        <ele>2694.4</ele>
        <time>2022-10-30T07:23:01.000Z</time>
      </trkpt>
      <trkpt lat="27.708547" lon="86.715699">
        <ele>2694</ele>
        <time>2022-10-30T07:23:03.000Z</time>
      </trkpt>
      <trkpt lat="27.708531" lon="86.715712">
        <ele>2694</ele>
        <time>2022-10-30T07:23:05.000Z</time>
      </trkpt>
      <trkpt lat="27.708509" lon="86.715712">
        <ele>2694.6</ele>
        <time>2022-10-30T07:23:07.000Z</time>
      </trkpt>
      <trkpt lat="27.70849" lon="86.715731">
        <ele>2694.6</ele>
        <time>2022-10-30T07:23:09.000Z</time>
      </trkpt>
      <trkpt lat="27.708467" lon="86.715738">
        <ele>2694.4</ele>
        <time>2022-10-30T07:23:11.000Z</time>
      </trkpt>
      <trkpt lat="27.708448" lon="86.71575">
        <ele>2694.6</ele>
        <time>2022-10-30T07:23:13.000Z</time>
      </trkpt>
      <trkpt lat="27.708429" lon="86.715757">
        <ele>2694.8</ele>
        <time>2022-10-30T07:23:15.000Z</time>
      </trkpt>
      <trkpt lat="27.708413" lon="86.715776">
        <ele>2694.8</ele>
        <time>2022-10-30T07:23:17.000Z</time>
      </trkpt>
      <trkpt lat="27.708394" lon="86.715789">
        <ele>2695</ele>
        <time>2022-10-30T07:23:19.000Z</time>
      </trkpt>
      <trkpt lat="27.708371" lon="86.715808">
        <ele>2695</ele>
        <time>2022-10-30T07:23:21.000Z</time>
      </trkpt>
      <trkpt lat="27.708349" lon="86.715814">
        <ele>2695</ele>
        <time>2022-10-30T07:23:23.000Z</time>
      </trkpt>
      <trkpt lat="27.70833" lon="86.715821">
        <ele>2695.4</ele>
        <time>2022-10-30T07:23:25.000Z</time>
      </trkpt>
      <trkpt lat="27.708307" lon="86.715827">
        <ele>2695.8</ele>
        <time>2022-10-30T07:23:27.000Z</time>
      </trkpt>
      <trkpt lat="27.708282" lon="86.715834">
        <ele>2695.8</ele>
        <time>2022-10-30T07:23:29.000Z</time>
      </trkpt>
      <trkpt lat="27.708256" lon="86.715853">
        <ele>2696</ele>
        <time>2022-10-30T07:23:32.000Z</time>
      </trkpt>
      <trkpt lat="27.70824" lon="86.715866">
        <ele>2695.8</ele>
        <time>2022-10-30T07:23:34.000Z</time>
      </trkpt>
      <trkpt lat="27.708211" lon="86.715878">
        <ele>2696</ele>
        <time>2022-10-30T07:23:37.000Z</time>
      </trkpt>
      <trkpt lat="27.708189" lon="86.715904">
        <ele>2695.8</ele>
        <time>2022-10-30T07:23:40.000Z</time>
      </trkpt>
      <trkpt lat="27.708173" lon="86.715917">
        <ele>2695.6</ele>
        <time>2022-10-30T07:23:42.000Z</time>
      </trkpt>
      <trkpt lat="27.70816" lon="86.715936">
        <ele>2695</ele>
        <time>2022-10-30T07:23:44.000Z</time>
      </trkpt>
      <trkpt lat="27.708141" lon="86.715949">
        <ele>2695</ele>
        <time>2022-10-30T07:23:46.000Z</time>
      </trkpt>
      <trkpt lat="27.708122" lon="86.715942">
        <ele>2695.2</ele>
        <time>2022-10-30T07:23:48.000Z</time>
      </trkpt>
      <trkpt lat="27.708096" lon="86.715936">
        <ele>2695.4</ele>
        <time>2022-10-30T07:23:50.000Z</time>
      </trkpt>
      <trkpt lat="27.708083" lon="86.715917">
        <ele>2695.2</ele>
        <time>2022-10-30T07:23:52.000Z</time>
      </trkpt>
      <trkpt lat="27.708067" lon="86.715898">
        <ele>2695.6</ele>
        <time>2022-10-30T07:23:54.000Z</time>
      </trkpt>
      <trkpt lat="27.708054" lon="86.715878">
        <ele>2695.6</ele>
        <time>2022-10-30T07:23:56.000Z</time>
      </trkpt>
      <trkpt lat="27.708035" lon="86.715859">
        <ele>2695.8</ele>
        <time>2022-10-30T07:23:59.000Z</time>
      </trkpt>
      <trkpt lat="27.708016" lon="86.715859">
        <ele>2695.4</ele>
        <time>2022-10-30T07:24:01.000Z</time>
      </trkpt>
      <trkpt lat="27.707994" lon="86.715859">
        <ele>2695.4</ele>
        <time>2022-10-30T07:24:03.000Z</time>
      </trkpt>
      <trkpt lat="27.707968" lon="86.715872">
        <ele>2695.4</ele>
        <time>2022-10-30T07:24:06.000Z</time>
      </trkpt>
      <trkpt lat="27.707936" lon="86.715891">
        <ele>2695.2</ele>
        <time>2022-10-30T07:24:09.000Z</time>
      </trkpt>
      <trkpt lat="27.70791" lon="86.715891">
        <ele>2695</ele>
        <time>2022-10-30T07:24:11.000Z</time>
      </trkpt>
      <trkpt lat="27.707888" lon="86.715898">
        <ele>2695</ele>
        <time>2022-10-30T07:24:13.000Z</time>
      </trkpt>
      <trkpt lat="27.707869" lon="86.715898">
        <ele>2694.6</ele>
        <time>2022-10-30T07:24:15.000Z</time>
      </trkpt>
      <trkpt lat="27.707846" lon="86.715904">
        <ele>2694.6</ele>
        <time>2022-10-30T07:24:17.000Z</time>
      </trkpt>
      <trkpt lat="27.70783" lon="86.715917">
        <ele>2694.8</ele>
        <time>2022-10-30T07:24:19.000Z</time>
      </trkpt>
      <trkpt lat="27.707808" lon="86.715936">
        <ele>2694.8</ele>
        <time>2022-10-30T07:24:21.000Z</time>
      </trkpt>
      <trkpt lat="27.707789" lon="86.715955">
        <ele>2694.2</ele>
        <time>2022-10-30T07:24:25.000Z</time>
      </trkpt>
      <trkpt lat="27.707782" lon="86.715981">
        <ele>2695</ele>
        <time>2022-10-30T07:24:28.000Z</time>
      </trkpt>
      <trkpt lat="27.707779" lon="86.716006">
        <ele>2695</ele>
        <time>2022-10-30T07:24:30.000Z</time>
      </trkpt>
      <trkpt lat="27.70777" lon="86.716026">
        <ele>2694.4</ele>
        <time>2022-10-30T07:24:32.000Z</time>
      </trkpt>
      <trkpt lat="27.707757" lon="86.716051">
        <ele>2693.4</ele>
        <time>2022-10-30T07:24:35.000Z</time>
      </trkpt>
      <trkpt lat="27.707744" lon="86.716077">
        <ele>2692</ele>
        <time>2022-10-30T07:24:38.000Z</time>
      </trkpt>
      <trkpt lat="27.707728" lon="86.71609">
        <ele>2691.8</ele>
        <time>2022-10-30T07:24:40.000Z</time>
      </trkpt>
      <trkpt lat="27.707734" lon="86.716109">
        <ele>2691.6</ele>
        <time>2022-10-30T07:24:41.000Z</time>
      </trkpt>
      <trkpt lat="27.707722" lon="86.716128">
        <ele>2691.4</ele>
        <time>2022-10-30T07:24:43.000Z</time>
      </trkpt>
      <trkpt lat="27.707715" lon="86.716147">
        <ele>2691</ele>
        <time>2022-10-30T07:24:45.000Z</time>
      </trkpt>
      <trkpt lat="27.707709" lon="86.716173">
        <ele>2690.8</ele>
        <time>2022-10-30T07:24:47.000Z</time>
      </trkpt>
      <trkpt lat="27.707696" lon="86.716192">
        <ele>2690.8</ele>
        <time>2022-10-30T07:24:49.000Z</time>
      </trkpt>
      <trkpt lat="27.707696" lon="86.716224">
        <ele>2691</ele>
        <time>2022-10-30T07:24:52.000Z</time>
      </trkpt>
      <trkpt lat="27.707683" lon="86.71625">
        <ele>2690.6</ele>
        <time>2022-10-30T07:24:55.000Z</time>
      </trkpt>
      <trkpt lat="27.707674" lon="86.716275">
        <ele>2689.8</ele>
        <time>2022-10-30T07:24:58.000Z</time>
      </trkpt>
      <trkpt lat="27.707648" lon="86.716307">
        <ele>2689.4</ele>
        <time>2022-10-30T07:25:03.000Z</time>
      </trkpt>
      <trkpt lat="27.707629" lon="86.716314">
        <ele>2689</ele>
        <time>2022-10-30T07:25:05.000Z</time>
      </trkpt>
      <trkpt lat="27.70761" lon="86.716333">
        <ele>2688.6</ele>
        <time>2022-10-30T07:25:07.000Z</time>
      </trkpt>
      <trkpt lat="27.707594" lon="86.716346">
        <ele>2688.2</ele>
        <time>2022-10-30T07:25:10.000Z</time>
      </trkpt>
      <trkpt lat="27.707587" lon="86.716365">
        <ele>2687.6</ele>
        <time>2022-10-30T07:25:12.000Z</time>
      </trkpt>
      <trkpt lat="27.707578" lon="86.716384">
        <ele>2687</ele>
        <time>2022-10-30T07:25:15.000Z</time>
      </trkpt>
      <trkpt lat="27.707568" lon="86.716403">
        <ele>2686.4</ele>
        <time>2022-10-30T07:25:18.000Z</time>
      </trkpt>
      <trkpt lat="27.707562" lon="86.716422">
        <ele>2685.2</ele>
        <time>2022-10-30T07:25:22.000Z</time>
      </trkpt>
      <trkpt lat="27.707568" lon="86.716454">
        <ele>2684.6</ele>
        <time>2022-10-30T07:25:26.000Z</time>
      </trkpt>
      <trkpt lat="27.707562" lon="86.716493">
        <ele>2684</ele>
        <time>2022-10-30T07:25:29.000Z</time>
      </trkpt>
      <trkpt lat="27.707555" lon="86.716512">
        <ele>2684</ele>
        <time>2022-10-30T07:25:31.000Z</time>
      </trkpt>
      <trkpt lat="27.707517" lon="86.716563">
        <ele>2683.8</ele>
        <time>2022-10-30T07:25:40.000Z</time>
      </trkpt>
      <trkpt lat="27.707501" lon="86.716544">
        <ele>2684</ele>
        <time>2022-10-30T07:25:43.000Z</time>
      </trkpt>
      <trkpt lat="27.707478" lon="86.716512">
        <ele>2683.2</ele>
        <time>2022-10-30T07:26:29.000Z</time>
      </trkpt>
      <trkpt lat="27.707456" lon="86.716506">
        <ele>2683.6</ele>
        <time>2022-10-30T07:26:30.000Z</time>
      </trkpt>
      <trkpt lat="27.70743" lon="86.716499">
        <ele>2683.6</ele>
        <time>2022-10-30T07:26:32.000Z</time>
      </trkpt>
      <trkpt lat="27.707418" lon="86.716474">
        <ele>2683.2</ele>
        <time>2022-10-30T07:26:34.000Z</time>
      </trkpt>
      <trkpt lat="27.707411" lon="86.716454">
        <ele>2683.2</ele>
        <time>2022-10-30T07:26:36.000Z</time>
      </trkpt>
      <trkpt lat="27.707402" lon="86.716435">
        <ele>2683</ele>
        <time>2022-10-30T07:26:37.000Z</time>
      </trkpt>
      <trkpt lat="27.707376" lon="86.716429">
        <ele>2683</ele>
        <time>2022-10-30T07:26:39.000Z</time>
      </trkpt>
      <trkpt lat="27.70735" lon="86.716422">
        <ele>2683</ele>
        <time>2022-10-30T07:26:41.000Z</time>
      </trkpt>
      <trkpt lat="27.707331" lon="86.71641">
        <ele>2683.4</ele>
        <time>2022-10-30T07:26:44.000Z</time>
      </trkpt>
      <trkpt lat="27.707309" lon="86.716403">
        <ele>2683.4</ele>
        <time>2022-10-30T07:26:48.000Z</time>
      </trkpt>
      <trkpt lat="27.707286" lon="86.716403">
        <ele>2683.4</ele>
        <time>2022-10-30T07:26:52.000Z</time>
      </trkpt>
      <trkpt lat="27.707267" lon="86.716403">
        <ele>2683.8</ele>
        <time>2022-10-30T07:26:54.000Z</time>
      </trkpt>
      <trkpt lat="27.707251" lon="86.71639">
        <ele>2684</ele>
        <time>2022-10-30T07:26:59.000Z</time>
      </trkpt>
      <trkpt lat="27.707242" lon="86.716371">
        <ele>2684.2</ele>
        <time>2022-10-30T07:27:09.000Z</time>
      </trkpt>
      <trkpt lat="27.707219" lon="86.716371">
        <ele>2684.6</ele>
        <time>2022-10-30T07:27:12.000Z</time>
      </trkpt>
      <trkpt lat="27.7072" lon="86.716371">
        <ele>2684.8</ele>
        <time>2022-10-30T07:27:14.000Z</time>
      </trkpt>
      <trkpt lat="27.70719" lon="86.716352">
        <ele>2685.4</ele>
        <time>2022-10-30T07:27:16.000Z</time>
      </trkpt>
      <trkpt lat="27.707168" lon="86.716352">
        <ele>2685.4</ele>
        <time>2022-10-30T07:27:18.000Z</time>
      </trkpt>
      <trkpt lat="27.707149" lon="86.716365">
        <ele>2685.6</ele>
        <time>2022-10-30T07:27:20.000Z</time>
      </trkpt>
      <trkpt lat="27.707139" lon="86.716346">
        <ele>2686</ele>
        <time>2022-10-30T07:27:24.000Z</time>
      </trkpt>
      <trkpt lat="27.70712" lon="86.716339">
        <ele>2686.2</ele>
        <time>2022-10-30T07:27:28.000Z</time>
      </trkpt>
      <trkpt lat="27.707101" lon="86.716339">
        <ele>2686.4</ele>
        <time>2022-10-30T07:27:31.000Z</time>
      </trkpt>
      <trkpt lat="27.707078" lon="86.716339">
        <ele>2687</ele>
        <time>2022-10-30T07:27:34.000Z</time>
      </trkpt>
      <trkpt lat="27.707056" lon="86.716333">
        <ele>2687.4</ele>
        <time>2022-10-30T07:27:37.000Z</time>
      </trkpt>
      <trkpt lat="27.707037" lon="86.716326">
        <ele>2687.6</ele>
        <time>2022-10-30T07:27:40.000Z</time>
      </trkpt>
      <trkpt lat="27.707014" lon="86.716307">
        <ele>2687.6</ele>
        <time>2022-10-30T07:27:42.000Z</time>
      </trkpt>
      <trkpt lat="27.706995" lon="86.716301">
        <ele>2687.6</ele>
        <time>2022-10-30T07:27:44.000Z</time>
      </trkpt>
      <trkpt lat="27.706973" lon="86.716288">
        <ele>2687.4</ele>
        <time>2022-10-30T07:27:46.000Z</time>
      </trkpt>
      <trkpt lat="27.70695" lon="86.716275">
        <ele>2687.2</ele>
        <time>2022-10-30T07:27:48.000Z</time>
      </trkpt>
      <trkpt lat="27.706925" lon="86.716269">
        <ele>2687.4</ele>
        <time>2022-10-30T07:27:50.000Z</time>
      </trkpt>
      <trkpt lat="27.706902" lon="86.716275">
        <ele>2687.4</ele>
        <time>2022-10-30T07:27:52.000Z</time>
      </trkpt>
      <trkpt lat="27.706864" lon="86.716294">
        <ele>2687.4</ele>
        <time>2022-10-30T07:27:54.000Z</time>
      </trkpt>
      <trkpt lat="27.706842" lon="86.716301">
        <ele>2687.6</ele>
        <time>2022-10-30T07:27:57.000Z</time>
      </trkpt>
      <trkpt lat="27.706822" lon="86.716301">
        <ele>2687.8</ele>
        <time>2022-10-30T07:28:01.000Z</time>
      </trkpt>
      <trkpt lat="27.706803" lon="86.716307">
        <ele>2688.2</ele>
        <time>2022-10-30T07:28:05.000Z</time>
      </trkpt>
      <trkpt lat="27.706797" lon="86.716326">
        <ele>2688.2</ele>
        <time>2022-10-30T07:28:07.000Z</time>
      </trkpt>
      <trkpt lat="27.706784" lon="86.716346">
        <ele>2688.4</ele>
        <time>2022-10-30T07:28:13.000Z</time>
      </trkpt>
      <trkpt lat="27.706771" lon="86.716365">
        <ele>2688.4</ele>
        <time>2022-10-30T07:28:16.000Z</time>
      </trkpt>
      <trkpt lat="27.706749" lon="86.716371">
        <ele>2688.4</ele>
        <time>2022-10-30T07:28:19.000Z</time>
      </trkpt>
      <trkpt lat="27.706726" lon="86.716371">
        <ele>2688.6</ele>
        <time>2022-10-30T07:28:23.000Z</time>
      </trkpt>
      <trkpt lat="27.706707" lon="86.716378">
        <ele>2688.4</ele>
        <time>2022-10-30T07:28:28.000Z</time>
      </trkpt>
      <trkpt lat="27.706685" lon="86.716378">
        <ele>2688.4</ele>
        <time>2022-10-30T07:28:31.000Z</time>
      </trkpt>
      <trkpt lat="27.706659" lon="86.716352">
        <ele>2688.6</ele>
        <time>2022-10-30T07:28:36.000Z</time>
      </trkpt>
      <trkpt lat="27.706643" lon="86.716339">
        <ele>2689</ele>
        <time>2022-10-30T07:28:41.000Z</time>
      </trkpt>
      <trkpt lat="27.706621" lon="86.716339">
        <ele>2689.4</ele>
        <time>2022-10-30T07:28:43.000Z</time>
      </trkpt>
      <trkpt lat="27.706595" lon="86.716333">
        <ele>2689.4</ele>
        <time>2022-10-30T07:28:46.000Z</time>
      </trkpt>
      <trkpt lat="27.706576" lon="86.716326">
        <ele>2689.6</ele>
        <time>2022-10-30T07:28:49.000Z</time>
      </trkpt>
      <trkpt lat="27.70655" lon="86.716307">
        <ele>2690</ele>
        <time>2022-10-30T07:28:52.000Z</time>
      </trkpt>
      <trkpt lat="27.706522" lon="86.716307">
        <ele>2690.2</ele>
        <time>2022-10-30T07:28:55.000Z</time>
      </trkpt>
      <trkpt lat="27.706502" lon="86.716314">
        <ele>2690.4</ele>
        <time>2022-10-30T07:28:58.000Z</time>
      </trkpt>
      <trkpt lat="27.706483" lon="86.716326">
        <ele>2690.8</ele>
        <time>2022-10-30T07:29:00.000Z</time>
      </trkpt>
      <trkpt lat="27.706464" lon="86.716333">
        <ele>2691.4</ele>
        <time>2022-10-30T07:29:02.000Z</time>
      </trkpt>
      <trkpt lat="27.706438" lon="86.716339">
        <ele>2693.2</ele>
        <time>2022-10-30T07:29:40.000Z</time>
      </trkpt>
      <trkpt lat="27.706422" lon="86.716365">
        <ele>2693.6</ele>
        <time>2022-10-30T07:29:42.000Z</time>
      </trkpt>
      <trkpt lat="27.706406" lon="86.716384">
        <ele>2694.2</ele>
        <time>2022-10-30T07:29:44.000Z</time>
      </trkpt>
      <trkpt lat="27.70639" lon="86.71641">
        <ele>2694.6</ele>
        <time>2022-10-30T07:29:46.000Z</time>
      </trkpt>
      <trkpt lat="27.706365" lon="86.716435">
        <ele>2693.6</ele>
        <time>2022-10-30T07:29:48.000Z</time>
      </trkpt>
      <trkpt lat="27.706355" lon="86.716454">
        <ele>2693.6</ele>
        <time>2022-10-30T07:29:49.000Z</time>
      </trkpt>
      <trkpt lat="27.706336" lon="86.716461">
        <ele>2694</ele>
        <time>2022-10-30T07:29:51.000Z</time>
      </trkpt>
      <trkpt lat="27.706326" lon="86.716486">
        <ele>2694</ele>
        <time>2022-10-30T07:29:53.000Z</time>
      </trkpt>
      <trkpt lat="27.70631" lon="86.716506">
        <ele>2693.8</ele>
        <time>2022-10-30T07:29:56.000Z</time>
      </trkpt>
      <trkpt lat="27.706304" lon="86.716525">
        <ele>2693.6</ele>
        <time>2022-10-30T07:29:57.000Z</time>
      </trkpt>
      <trkpt lat="27.706298" lon="86.716544">
        <ele>2693.8</ele>
        <time>2022-10-30T07:29:59.000Z</time>
      </trkpt>
      <trkpt lat="27.706278" lon="86.716563">
        <ele>2694</ele>
        <time>2022-10-30T07:30:01.000Z</time>
      </trkpt>
      <trkpt lat="27.706262" lon="86.716582">
        <ele>2694</ele>
        <time>2022-10-30T07:30:03.000Z</time>
      </trkpt>
      <trkpt lat="27.706253" lon="86.716602">
        <ele>2693.8</ele>
        <time>2022-10-30T07:30:04.000Z</time>
      </trkpt>
      <trkpt lat="27.706234" lon="86.716627">
        <ele>2693.4</ele>
        <time>2022-10-30T07:30:07.000Z</time>
      </trkpt>
      <trkpt lat="27.706221" lon="86.716646">
        <ele>2693.4</ele>
        <time>2022-10-30T07:30:09.000Z</time>
      </trkpt>
      <trkpt lat="27.706208" lon="86.716666">
        <ele>2693.4</ele>
        <time>2022-10-30T07:30:11.000Z</time>
      </trkpt>
      <trkpt lat="27.706195" lon="86.716685">
        <ele>2693.2</ele>
        <time>2022-10-30T07:30:13.000Z</time>
      </trkpt>
      <trkpt lat="27.706173" lon="86.716704">
        <ele>2693</ele>
        <time>2022-10-30T07:30:16.000Z</time>
      </trkpt>
      <trkpt lat="27.706157" lon="86.716723">
        <ele>2692.8</ele>
        <time>2022-10-30T07:30:18.000Z</time>
      </trkpt>
      <trkpt lat="27.706138" lon="86.716736">
        <ele>2692.8</ele>
        <time>2022-10-30T07:30:20.000Z</time>
      </trkpt>
      <trkpt lat="27.706115" lon="86.716749">
        <ele>2692.6</ele>
        <time>2022-10-30T07:30:22.000Z</time>
      </trkpt>
      <trkpt lat="27.706096" lon="86.716768">
        <ele>2692.6</ele>
        <time>2022-10-30T07:30:24.000Z</time>
      </trkpt>
      <trkpt lat="27.706077" lon="86.716781">
        <ele>2692.4</ele>
        <time>2022-10-30T07:30:26.000Z</time>
      </trkpt>
      <trkpt lat="27.706058" lon="86.7168">
        <ele>2692.6</ele>
        <time>2022-10-30T07:30:28.000Z</time>
      </trkpt>
      <trkpt lat="27.706038" lon="86.716813">
        <ele>2693.4</ele>
        <time>2022-10-30T07:30:30.000Z</time>
      </trkpt>
      <trkpt lat="27.706016" lon="86.716826">
        <ele>2693</ele>
        <time>2022-10-30T07:30:32.000Z</time>
      </trkpt>
      <trkpt lat="27.705997" lon="86.716845">
        <ele>2693</ele>
        <time>2022-10-30T07:30:34.000Z</time>
      </trkpt>
      <trkpt lat="27.705981" lon="86.716858">
        <ele>2693.2</ele>
        <time>2022-10-30T07:30:36.000Z</time>
      </trkpt>
      <trkpt lat="27.705965" lon="86.71687">
        <ele>2693</ele>
        <time>2022-10-30T07:30:38.000Z</time>
      </trkpt>
      <trkpt lat="27.705946" lon="86.71689">
        <ele>2693.2</ele>
        <time>2022-10-30T07:30:40.000Z</time>
      </trkpt>
      <trkpt lat="27.705923" lon="86.716909">
        <ele>2693.2</ele>
        <time>2022-10-30T07:30:43.000Z</time>
      </trkpt>
      <trkpt lat="27.705907" lon="86.716928">
        <ele>2693.2</ele>
        <time>2022-10-30T07:30:45.000Z</time>
      </trkpt>
      <trkpt lat="27.705891" lon="86.716941">
        <ele>2693.6</ele>
        <time>2022-10-30T07:30:47.000Z</time>
      </trkpt>
      <trkpt lat="27.705875" lon="86.71696">
        <ele>2694.2</ele>
        <time>2022-10-30T07:30:49.000Z</time>
      </trkpt>
      <trkpt lat="27.70585" lon="86.716973">
        <ele>2694.2</ele>
        <time>2022-10-30T07:30:52.000Z</time>
      </trkpt>
      <trkpt lat="27.705834" lon="86.716986">
        <ele>2694</ele>
        <time>2022-10-30T07:30:54.000Z</time>
      </trkpt>
      <trkpt lat="27.705814" lon="86.717005">
        <ele>2693.8</ele>
        <time>2022-10-30T07:30:56.000Z</time>
      </trkpt>
      <trkpt lat="27.705798" lon="86.717018">
        <ele>2693.2</ele>
        <time>2022-10-30T07:30:58.000Z</time>
      </trkpt>
      <trkpt lat="27.705782" lon="86.71703">
        <ele>2693.2</ele>
        <time>2022-10-30T07:31:00.000Z</time>
      </trkpt>
      <trkpt lat="27.705773" lon="86.71705">
        <ele>2693.2</ele>
        <time>2022-10-30T07:31:01.000Z</time>
      </trkpt>
      <trkpt lat="27.70575" lon="86.717069">
        <ele>2693.2</ele>
        <time>2022-10-30T07:31:04.000Z</time>
      </trkpt>
      <trkpt lat="27.705734" lon="86.717088">
        <ele>2693</ele>
        <time>2022-10-30T07:31:06.000Z</time>
      </trkpt>
      <trkpt lat="27.705718" lon="86.717101">
        <ele>2692.8</ele>
        <time>2022-10-30T07:31:08.000Z</time>
      </trkpt>
      <trkpt lat="27.705699" lon="86.717126">
        <ele>2692.6</ele>
        <time>2022-10-30T07:31:10.000Z</time>
      </trkpt>
      <trkpt lat="27.70568" lon="86.717146">
        <ele>2692.6</ele>
        <time>2022-10-30T07:31:13.000Z</time>
      </trkpt>
      <trkpt lat="27.705664" lon="86.717165">
        <ele>2692.6</ele>
        <time>2022-10-30T07:31:15.000Z</time>
      </trkpt>
      <trkpt lat="27.705651" lon="86.717184">
        <ele>2692.8</ele>
        <time>2022-10-30T07:31:17.000Z</time>
      </trkpt>
      <trkpt lat="27.705635" lon="86.717203">
        <ele>2692.8</ele>
        <time>2022-10-30T07:31:19.000Z</time>
      </trkpt>
      <trkpt lat="27.705629" lon="86.717222">
        <ele>2692.8</ele>
        <time>2022-10-30T07:31:21.000Z</time>
      </trkpt>
      <trkpt lat="27.705619" lon="86.717248">
        <ele>2692.4</ele>
        <time>2022-10-30T07:31:23.000Z</time>
      </trkpt>
      <trkpt lat="27.7056" lon="86.717261">
        <ele>2692.4</ele>
        <time>2022-10-30T07:31:25.000Z</time>
      </trkpt>
      <trkpt lat="27.705594" lon="86.717286">
        <ele>2692.6</ele>
        <time>2022-10-30T07:31:27.000Z</time>
      </trkpt>
      <trkpt lat="27.705581" lon="86.717306">
        <ele>2692.8</ele>
        <time>2022-10-30T07:31:29.000Z</time>
      </trkpt>
      <trkpt lat="27.705571" lon="86.717325">
        <ele>2692.6</ele>
        <time>2022-10-30T07:31:31.000Z</time>
      </trkpt>
      <trkpt lat="27.705558" lon="86.717344">
        <ele>2692.4</ele>
        <time>2022-10-30T07:31:33.000Z</time>
      </trkpt>
      <trkpt lat="27.705542" lon="86.717363">
        <ele>2692.4</ele>
        <time>2022-10-30T07:31:35.000Z</time>
      </trkpt>
      <trkpt lat="27.705526" lon="86.717382">
        <ele>2692.6</ele>
        <time>2022-10-30T07:31:37.000Z</time>
      </trkpt>
      <trkpt lat="27.70552" lon="86.717402">
        <ele>2692.6</ele>
        <time>2022-10-30T07:31:38.000Z</time>
      </trkpt>
      <trkpt lat="27.70551" lon="86.717421">
        <ele>2692.8</ele>
        <time>2022-10-30T07:31:40.000Z</time>
      </trkpt>
      <trkpt lat="27.705501" lon="86.717446">
        <ele>2692.8</ele>
        <time>2022-10-30T07:31:42.000Z</time>
      </trkpt>
      <trkpt lat="27.705491" lon="86.717466">
        <ele>2693</ele>
        <time>2022-10-30T07:31:44.000Z</time>
      </trkpt>
      <trkpt lat="27.705485" lon="86.717485">
        <ele>2693</ele>
        <time>2022-10-30T07:31:45.000Z</time>
      </trkpt>
      <trkpt lat="27.705478" lon="86.717523">
        <ele>2692.6</ele>
        <time>2022-10-30T07:31:48.000Z</time>
      </trkpt>
      <trkpt lat="27.705472" lon="86.717562">
        <ele>2692.8</ele>
        <time>2022-10-30T07:31:51.000Z</time>
      </trkpt>
      <trkpt lat="27.705472" lon="86.717587">
        <ele>2692.8</ele>
        <time>2022-10-30T07:31:53.000Z</time>
      </trkpt>
      <trkpt lat="27.705469" lon="86.717613">
        <ele>2692.8</ele>
        <time>2022-10-30T07:31:56.000Z</time>
      </trkpt>
      <trkpt lat="27.705466" lon="86.717638">
        <ele>2692.6</ele>
        <time>2022-10-30T07:31:58.000Z</time>
      </trkpt>
      <trkpt lat="27.705446" lon="86.717658">
        <ele>2691.4</ele>
        <time>2022-10-30T07:34:08.000Z</time>
      </trkpt>
      <trkpt lat="27.705437" lon="86.717677">
        <ele>2691.4</ele>
        <time>2022-10-30T07:34:09.000Z</time>
      </trkpt>
      <trkpt lat="27.705418" lon="86.717696">
        <ele>2691.8</ele>
        <time>2022-10-30T07:34:11.000Z</time>
      </trkpt>
      <trkpt lat="27.705411" lon="86.717715">
        <ele>2691.8</ele>
        <time>2022-10-30T07:34:12.000Z</time>
      </trkpt>
      <trkpt lat="27.705395" lon="86.717734">
        <ele>2691.8</ele>
        <time>2022-10-30T07:34:14.000Z</time>
      </trkpt>
      <trkpt lat="27.705386" lon="86.71776">
        <ele>2692</ele>
        <time>2022-10-30T07:34:16.000Z</time>
      </trkpt>
      <trkpt lat="27.705379" lon="86.717779">
        <ele>2692</ele>
        <time>2022-10-30T07:34:18.000Z</time>
      </trkpt>
      <trkpt lat="27.705373" lon="86.717805">
        <ele>2691.6</ele>
        <time>2022-10-30T07:34:20.000Z</time>
      </trkpt>
      <trkpt lat="27.705363" lon="86.717837">
        <ele>2691.8</ele>
        <time>2022-10-30T07:34:23.000Z</time>
      </trkpt>
      <trkpt lat="27.705354" lon="86.717856">
        <ele>2691.8</ele>
        <time>2022-10-30T07:34:26.000Z</time>
      </trkpt>
      <trkpt lat="27.705347" lon="86.717882">
        <ele>2691.6</ele>
        <time>2022-10-30T07:34:28.000Z</time>
      </trkpt>
      <trkpt lat="27.705325" lon="86.717914">
        <ele>2692.2</ele>
        <time>2022-10-30T07:34:31.000Z</time>
      </trkpt>
      <trkpt lat="27.705312" lon="86.717933">
        <ele>2692.2</ele>
        <time>2022-10-30T07:34:34.000Z</time>
      </trkpt>
      <trkpt lat="27.705302" lon="86.717958">
        <ele>2692.4</ele>
        <time>2022-10-30T07:34:36.000Z</time>
      </trkpt>
      <trkpt lat="27.705283" lon="86.717978">
        <ele>2692.8</ele>
        <time>2022-10-30T07:34:39.000Z</time>
      </trkpt>
      <trkpt lat="27.70527" lon="86.717997">
        <ele>2693</ele>
        <time>2022-10-30T07:34:41.000Z</time>
      </trkpt>
      <trkpt lat="27.705261" lon="86.718016">
        <ele>2693</ele>
        <time>2022-10-30T07:34:43.000Z</time>
      </trkpt>
      <trkpt lat="27.705251" lon="86.718035">
        <ele>2693</ele>
        <time>2022-10-30T07:34:45.000Z</time>
      </trkpt>
      <trkpt lat="27.705235" lon="86.718048">
        <ele>2693</ele>
        <time>2022-10-30T07:34:47.000Z</time>
      </trkpt>
      <trkpt lat="27.705219" lon="86.718074">
        <ele>2693</ele>
        <time>2022-10-30T07:34:49.000Z</time>
      </trkpt>
      <trkpt lat="27.705203" lon="86.718099">
        <ele>2693.2</ele>
        <time>2022-10-30T07:34:52.000Z</time>
      </trkpt>
      <trkpt lat="27.705197" lon="86.718118">
        <ele>2693.2</ele>
        <time>2022-10-30T07:34:53.000Z</time>
      </trkpt>
      <trkpt lat="27.705187" lon="86.718138">
        <ele>2693</ele>
        <time>2022-10-30T07:34:55.000Z</time>
      </trkpt>
      <trkpt lat="27.705181" lon="86.718163">
        <ele>2693</ele>
        <time>2022-10-30T07:34:56.000Z</time>
      </trkpt>
      <trkpt lat="27.705162" lon="86.718195">
        <ele>2692.8</ele>
        <time>2022-10-30T07:34:58.000Z</time>
      </trkpt>
      <trkpt lat="27.705123" lon="86.718234">
        <ele>2692.2</ele>
        <time>2022-10-30T07:35:02.000Z</time>
      </trkpt>
      <trkpt lat="27.70511" lon="86.718253">
        <ele>2691.2</ele>
        <time>2022-10-30T07:35:04.000Z</time>
      </trkpt>
      <trkpt lat="27.705098" lon="86.718272">
        <ele>2690.2</ele>
        <time>2022-10-30T07:35:06.000Z</time>
      </trkpt>
      <trkpt lat="27.705085" lon="86.718291">
        <ele>2690</ele>
        <time>2022-10-30T07:35:08.000Z</time>
      </trkpt>
      <trkpt lat="27.705072" lon="86.718317">
        <ele>2689.4</ele>
        <time>2022-10-30T07:35:10.000Z</time>
      </trkpt>
      <trkpt lat="27.70505" lon="86.718336">
        <ele>2689.6</ele>
        <time>2022-10-30T07:35:13.000Z</time>
      </trkpt>
      <trkpt lat="27.70503" lon="86.718355">
        <ele>2689.6</ele>
        <time>2022-10-30T07:35:15.000Z</time>
      </trkpt>
      <trkpt lat="27.705011" lon="86.718368">
        <ele>2689.8</ele>
        <time>2022-10-30T07:35:17.000Z</time>
      </trkpt>
      <trkpt lat="27.704989" lon="86.718381">
        <ele>2690.2</ele>
        <time>2022-10-30T07:35:20.000Z</time>
      </trkpt>
      <trkpt lat="27.704966" lon="86.718394">
        <ele>2690.2</ele>
        <time>2022-10-30T07:35:22.000Z</time>
      </trkpt>
      <trkpt lat="27.704947" lon="86.718419">
        <ele>2690.4</ele>
        <time>2022-10-30T07:35:25.000Z</time>
      </trkpt>
      <trkpt lat="27.704931" lon="86.718432">
        <ele>2690.6</ele>
        <time>2022-10-30T07:35:27.000Z</time>
      </trkpt>
      <trkpt lat="27.704915" lon="86.718445">
        <ele>2690.8</ele>
        <time>2022-10-30T07:35:29.000Z</time>
      </trkpt>
      <trkpt lat="27.704893" lon="86.718458">
        <ele>2691.6</ele>
        <time>2022-10-30T07:35:32.000Z</time>
      </trkpt>
      <trkpt lat="27.704877" lon="86.718477">
        <ele>2691.2</ele>
        <time>2022-10-30T07:35:34.000Z</time>
      </trkpt>
      <trkpt lat="27.704861" lon="86.71849">
        <ele>2691.2</ele>
        <time>2022-10-30T07:35:36.000Z</time>
      </trkpt>
      <trkpt lat="27.704845" lon="86.718509">
        <ele>2691</ele>
        <time>2022-10-30T07:35:38.000Z</time>
      </trkpt>
      <trkpt lat="27.704826" lon="86.718522">
        <ele>2690.8</ele>
        <time>2022-10-30T07:35:40.000Z</time>
      </trkpt>
      <trkpt lat="27.70481" lon="86.718534">
        <ele>2690.6</ele>
        <time>2022-10-30T07:35:42.000Z</time>
      </trkpt>
      <trkpt lat="27.704797" lon="86.718554">
        <ele>2690.6</ele>
        <time>2022-10-30T07:35:44.000Z</time>
      </trkpt>
      <trkpt lat="27.704774" lon="86.718566">
        <ele>2691.2</ele>
        <time>2022-10-30T07:35:47.000Z</time>
      </trkpt>
      <trkpt lat="27.704755" lon="86.718579">
        <ele>2691.4</ele>
        <time>2022-10-30T07:35:49.000Z</time>
      </trkpt>
      <trkpt lat="27.70473" lon="86.718618">
        <ele>2691.6</ele>
        <time>2022-10-30T07:35:54.000Z</time>
      </trkpt>
      <trkpt lat="27.704704" lon="86.718637">
        <ele>2692</ele>
        <time>2022-10-30T07:35:57.000Z</time>
      </trkpt>
      <trkpt lat="27.704688" lon="86.71865">
        <ele>2691.4</ele>
        <time>2022-10-30T07:35:59.000Z</time>
      </trkpt>
      <trkpt lat="27.704666" lon="86.718669">
        <ele>2691.4</ele>
        <time>2022-10-30T07:36:02.000Z</time>
      </trkpt>
      <trkpt lat="27.70464" lon="86.718682">
        <ele>2691.2</ele>
        <time>2022-10-30T07:36:04.000Z</time>
      </trkpt>
      <trkpt lat="27.704621" lon="86.718707">
        <ele>2691.2</ele>
        <time>2022-10-30T07:36:06.000Z</time>
      </trkpt>
      <trkpt lat="27.704614" lon="86.718726">
        <ele>2691.2</ele>
        <time>2022-10-30T07:36:07.000Z</time>
      </trkpt>
      <trkpt lat="27.704589" lon="86.718739">
        <ele>2691</ele>
        <time>2022-10-30T07:36:10.000Z</time>
      </trkpt>
      <trkpt lat="27.70457" lon="86.718758">
        <ele>2691.4</ele>
        <time>2022-10-30T07:36:12.000Z</time>
      </trkpt>
      <trkpt lat="27.704547" lon="86.718778">
        <ele>2691.4</ele>
        <time>2022-10-30T07:36:15.000Z</time>
      </trkpt>
      <trkpt lat="27.704541" lon="86.718803">
        <ele>2691.6</ele>
        <time>2022-10-30T07:36:18.000Z</time>
      </trkpt>
      <trkpt lat="27.704528" lon="86.718829">
        <ele>2692.4</ele>
        <time>2022-10-30T07:36:21.000Z</time>
      </trkpt>
      <trkpt lat="27.704509" lon="86.718848">
        <ele>2692.4</ele>
        <time>2022-10-30T07:36:24.000Z</time>
      </trkpt>
      <trkpt lat="27.704493" lon="86.718867">
        <ele>2692.6</ele>
        <time>2022-10-30T07:36:26.000Z</time>
      </trkpt>
      <trkpt lat="27.704467" lon="86.718874">
        <ele>2693.4</ele>
        <time>2022-10-30T07:36:28.000Z</time>
      </trkpt>
      <trkpt lat="27.704442" lon="86.718886">
        <ele>2693</ele>
        <time>2022-10-30T07:36:30.000Z</time>
      </trkpt>
      <trkpt lat="27.704419" lon="86.718912">
        <ele>2692.8</ele>
        <time>2022-10-30T07:36:32.000Z</time>
      </trkpt>
      <trkpt lat="27.704403" lon="86.718931">
        <ele>2693</ele>
        <time>2022-10-30T07:36:35.000Z</time>
      </trkpt>
      <trkpt lat="27.70439" lon="86.71895">
        <ele>2693</ele>
        <time>2022-10-30T07:36:37.000Z</time>
      </trkpt>
      <trkpt lat="27.704384" lon="86.71897">
        <ele>2692.6</ele>
        <time>2022-10-30T07:36:39.000Z</time>
      </trkpt>
      <trkpt lat="27.704378" lon="86.718995">
        <ele>2692.4</ele>
        <time>2022-10-30T07:36:41.000Z</time>
      </trkpt>
      <trkpt lat="27.704358" lon="86.719008">
        <ele>2692.6</ele>
        <time>2022-10-30T07:36:44.000Z</time>
      </trkpt>
      <trkpt lat="27.704339" lon="86.719014">
        <ele>2692.8</ele>
        <time>2022-10-30T07:36:47.000Z</time>
      </trkpt>
      <trkpt lat="27.70432" lon="86.719002">
        <ele>2693.2</ele>
        <time>2022-10-30T07:36:50.000Z</time>
      </trkpt>
      <trkpt lat="27.704301" lon="86.718989">
        <ele>2693.8</ele>
        <time>2022-10-30T07:36:52.000Z</time>
      </trkpt>
      <trkpt lat="27.704291" lon="86.71897">
        <ele>2693.8</ele>
        <time>2022-10-30T07:36:53.000Z</time>
      </trkpt>
      <trkpt lat="27.704288" lon="86.718931">
        <ele>2693.2</ele>
        <time>2022-10-30T07:36:56.000Z</time>
      </trkpt>
      <trkpt lat="27.704282" lon="86.718893">
        <ele>2693.8</ele>
        <time>2022-10-30T07:36:59.000Z</time>
      </trkpt>
      <trkpt lat="27.704272" lon="86.718874">
        <ele>2693.8</ele>
        <time>2022-10-30T07:37:01.000Z</time>
      </trkpt>
      <trkpt lat="27.704278" lon="86.718848">
        <ele>2694</ele>
        <time>2022-10-30T07:37:03.000Z</time>
      </trkpt>
      <trkpt lat="27.704272" lon="86.718816">
        <ele>2693.8</ele>
        <time>2022-10-30T07:37:06.000Z</time>
      </trkpt>
      <trkpt lat="27.704269" lon="86.71879">
        <ele>2693.8</ele>
        <time>2022-10-30T07:37:08.000Z</time>
      </trkpt>
      <trkpt lat="27.704259" lon="86.718771">
        <ele>2693.2</ele>
        <time>2022-10-30T07:37:09.000Z</time>
      </trkpt>
      <trkpt lat="27.70425" lon="86.718752">
        <ele>2693.4</ele>
        <time>2022-10-30T07:37:11.000Z</time>
      </trkpt>
      <trkpt lat="27.704243" lon="86.718733">
        <ele>2693.4</ele>
        <time>2022-10-30T07:37:12.000Z</time>
      </trkpt>
      <trkpt lat="27.704243" lon="86.718707">
        <ele>2693.8</ele>
        <time>2022-10-30T07:37:15.000Z</time>
      </trkpt>
      <trkpt lat="27.704246" lon="86.718682">
        <ele>2694</ele>
        <time>2022-10-30T07:37:17.000Z</time>
      </trkpt>
      <trkpt lat="27.704237" lon="86.718656">
        <ele>2694.6</ele>
        <time>2022-10-30T07:37:20.000Z</time>
      </trkpt>
      <trkpt lat="27.70424" lon="86.718618">
        <ele>2694.8</ele>
        <time>2022-10-30T07:37:23.000Z</time>
      </trkpt>
      <trkpt lat="27.70425" lon="86.718598">
        <ele>2695</ele>
        <time>2022-10-30T07:37:25.000Z</time>
      </trkpt>
      <trkpt lat="27.704243" lon="86.718579">
        <ele>2695.2</ele>
        <time>2022-10-30T07:37:27.000Z</time>
      </trkpt>
      <trkpt lat="27.704237" lon="86.71856">
        <ele>2695.4</ele>
        <time>2022-10-30T07:37:29.000Z</time>
      </trkpt>
      <trkpt lat="27.704237" lon="86.718534">
        <ele>2695.8</ele>
        <time>2022-10-30T07:37:32.000Z</time>
      </trkpt>
      <trkpt lat="27.704227" lon="86.718515">
        <ele>2696.6</ele>
        <time>2022-10-30T07:37:36.000Z</time>
      </trkpt>
      <trkpt lat="27.704221" lon="86.71849">
        <ele>2697</ele>
        <time>2022-10-30T07:37:38.000Z</time>
      </trkpt>
      <trkpt lat="27.70423" lon="86.718458">
        <ele>2698</ele>
        <time>2022-10-30T07:37:42.000Z</time>
      </trkpt>
      <trkpt lat="27.704237" lon="86.718432">
        <ele>2698</ele>
        <time>2022-10-30T07:37:45.000Z</time>
      </trkpt>
      <trkpt lat="27.704227" lon="86.718406">
        <ele>2698.2</ele>
        <time>2022-10-30T07:37:47.000Z</time>
      </trkpt>
      <trkpt lat="27.704218" lon="86.718381">
        <ele>2698.4</ele>
        <time>2022-10-30T07:37:51.000Z</time>
      </trkpt>
      <trkpt lat="27.704198" lon="86.718368">
        <ele>2699.4</ele>
        <time>2022-10-30T07:37:56.000Z</time>
      </trkpt>
      <trkpt lat="27.704186" lon="86.718349">
        <ele>2699.6</ele>
        <time>2022-10-30T07:38:00.000Z</time>
      </trkpt>
      <trkpt lat="27.704179" lon="86.718323">
        <ele>2699.4</ele>
        <time>2022-10-30T07:38:03.000Z</time>
      </trkpt>
      <trkpt lat="27.704176" lon="86.718298">
        <ele>2699.2</ele>
        <time>2022-10-30T07:38:05.000Z</time>
      </trkpt>
      <trkpt lat="27.704163" lon="86.718259">
        <ele>2697.6</ele>
        <time>2022-10-30T07:38:08.000Z</time>
      </trkpt>
      <trkpt lat="27.704154" lon="86.71824">
        <ele>2697.6</ele>
        <time>2022-10-30T07:38:10.000Z</time>
      </trkpt>
      <trkpt lat="27.704147" lon="86.718214">
        <ele>2697.6</ele>
        <time>2022-10-30T07:38:12.000Z</time>
      </trkpt>
      <trkpt lat="27.704134" lon="86.718195">
        <ele>2697.6</ele>
        <time>2022-10-30T07:38:14.000Z</time>
      </trkpt>
      <trkpt lat="27.704122" lon="86.718176">
        <ele>2697.6</ele>
        <time>2022-10-30T07:38:16.000Z</time>
      </trkpt>
      <trkpt lat="27.704096" lon="86.718163">
        <ele>2697.4</ele>
        <time>2022-10-30T07:38:19.000Z</time>
      </trkpt>
      <trkpt lat="27.704077" lon="86.718157">
        <ele>2697.2</ele>
        <time>2022-10-30T07:38:21.000Z</time>
      </trkpt>
      <trkpt lat="27.704064" lon="86.718138">
        <ele>2697.2</ele>
        <time>2022-10-30T07:38:23.000Z</time>
      </trkpt>
      <trkpt lat="27.704045" lon="86.718125">
        <ele>2696.8</ele>
        <time>2022-10-30T07:38:29.000Z</time>
      </trkpt>
      <trkpt lat="27.704032" lon="86.718099">
        <ele>2696.8</ele>
        <time>2022-10-30T07:38:32.000Z</time>
      </trkpt>
      <trkpt lat="27.70401" lon="86.718086">
        <ele>2697</ele>
        <time>2022-10-30T07:38:35.000Z</time>
      </trkpt>
      <trkpt lat="27.704" lon="86.718061">
        <ele>2697.2</ele>
        <time>2022-10-30T07:38:37.000Z</time>
      </trkpt>
      <trkpt lat="27.703984" lon="86.718048">
        <ele>2697.4</ele>
        <time>2022-10-30T07:38:39.000Z</time>
      </trkpt>
      <trkpt lat="27.703965" lon="86.718035">
        <ele>2697.8</ele>
        <time>2022-10-30T07:38:42.000Z</time>
      </trkpt>
      <trkpt lat="27.703946" lon="86.718016">
        <ele>2698</ele>
        <time>2022-10-30T07:38:44.000Z</time>
      </trkpt>
      <trkpt lat="27.703936" lon="86.717984">
        <ele>2698.4</ele>
        <time>2022-10-30T07:38:47.000Z</time>
      </trkpt>
      <trkpt lat="27.703939" lon="86.717958">
        <ele>2698</ele>
        <time>2022-10-30T07:38:50.000Z</time>
      </trkpt>
      <trkpt lat="27.703933" lon="86.717933">
        <ele>2697.4</ele>
        <time>2022-10-30T07:38:52.000Z</time>
      </trkpt>
      <trkpt lat="27.703914" lon="86.717914">
        <ele>2696.8</ele>
        <time>2022-10-30T07:38:55.000Z</time>
      </trkpt>
      <trkpt lat="27.703901" lon="86.717894">
        <ele>2696.4</ele>
        <time>2022-10-30T07:38:57.000Z</time>
      </trkpt>
      <trkpt lat="27.703882" lon="86.717875">
        <ele>2696</ele>
        <time>2022-10-30T07:38:59.000Z</time>
      </trkpt>
      <trkpt lat="27.703866" lon="86.71785">
        <ele>2696.2</ele>
        <time>2022-10-30T07:39:01.000Z</time>
      </trkpt>
      <trkpt lat="27.703846" lon="86.717837">
        <ele>2696</ele>
        <time>2022-10-30T07:39:03.000Z</time>
      </trkpt>
      <trkpt lat="27.70384" lon="86.717818">
        <ele>2695.2</ele>
        <time>2022-10-30T07:39:05.000Z</time>
      </trkpt>
      <trkpt lat="27.703834" lon="86.717786">
        <ele>2695</ele>
        <time>2022-10-30T07:39:08.000Z</time>
      </trkpt>
      <trkpt lat="27.70383" lon="86.71776">
        <ele>2694.4</ele>
        <time>2022-10-30T07:39:10.000Z</time>
      </trkpt>
      <trkpt lat="27.703818" lon="86.717734">
        <ele>2694.6</ele>
        <time>2022-10-30T07:39:13.000Z</time>
      </trkpt>
      <trkpt lat="27.703821" lon="86.717702">
        <ele>2693.8</ele>
        <time>2022-10-30T07:39:15.000Z</time>
      </trkpt>
      <trkpt lat="27.703818" lon="86.717677">
        <ele>2694</ele>
        <time>2022-10-30T07:39:17.000Z</time>
      </trkpt>
      <trkpt lat="27.703802" lon="86.717651">
        <ele>2694</ele>
        <time>2022-10-30T07:39:19.000Z</time>
      </trkpt>
      <trkpt lat="27.703786" lon="86.717638">
        <ele>2693.8</ele>
        <time>2022-10-30T07:39:25.000Z</time>
      </trkpt>
      <trkpt lat="27.703773" lon="86.717613">
        <ele>2694.2</ele>
        <time>2022-10-30T07:39:28.000Z</time>
      </trkpt>
      <trkpt lat="27.703744" lon="86.7176">
        <ele>2694.6</ele>
        <time>2022-10-30T07:39:31.000Z</time>
      </trkpt>
      <trkpt lat="27.703725" lon="86.717581">
        <ele>2694.6</ele>
        <time>2022-10-30T07:39:33.000Z</time>
      </trkpt>
      <trkpt lat="27.703699" lon="86.717574">
        <ele>2694.8</ele>
        <time>2022-10-30T07:39:35.000Z</time>
      </trkpt>
      <trkpt lat="27.70368" lon="86.717574">
        <ele>2695.4</ele>
        <time>2022-10-30T07:39:37.000Z</time>
      </trkpt>
      <trkpt lat="27.703661" lon="86.717568">
        <ele>2695.2</ele>
        <time>2022-10-30T07:39:39.000Z</time>
      </trkpt>
      <trkpt lat="27.703632" lon="86.717562">
        <ele>2694.8</ele>
        <time>2022-10-30T07:39:41.000Z</time>
      </trkpt>
      <trkpt lat="27.703606" lon="86.717555">
        <ele>2694.8</ele>
        <time>2022-10-30T07:39:43.000Z</time>
      </trkpt>
      <trkpt lat="27.703587" lon="86.717542">
        <ele>2695</ele>
        <time>2022-10-30T07:39:45.000Z</time>
      </trkpt>
      <trkpt lat="27.703568" lon="86.717523">
        <ele>2696.6</ele>
        <time>2022-10-30T07:39:49.000Z</time>
      </trkpt>
      <trkpt lat="27.703558" lon="86.717498">
        <ele>2696</ele>
        <time>2022-10-30T07:39:52.000Z</time>
      </trkpt>
      <trkpt lat="27.703552" lon="86.717478">
        <ele>2696</ele>
        <time>2022-10-30T07:39:55.000Z</time>
      </trkpt>
      <trkpt lat="27.703546" lon="86.717459">
        <ele>2695.8</ele>
        <time>2022-10-30T07:39:57.000Z</time>
      </trkpt>
      <trkpt lat="27.703526" lon="86.717466">
        <ele>2694.4</ele>
        <time>2022-10-30T07:40:29.000Z</time>
      </trkpt>
      <trkpt lat="27.703498" lon="86.717478">
        <ele>2694.8</ele>
        <time>2022-10-30T07:40:31.000Z</time>
      </trkpt>
      <trkpt lat="27.703475" lon="86.717478">
        <ele>2695</ele>
        <time>2022-10-30T07:40:33.000Z</time>
      </trkpt>
      <trkpt lat="27.703456" lon="86.717466">
        <ele>2695</ele>
        <time>2022-10-30T07:40:35.000Z</time>
      </trkpt>
      <trkpt lat="27.703437" lon="86.717459">
        <ele>2695.2</ele>
        <time>2022-10-30T07:40:41.000Z</time>
      </trkpt>
      <trkpt lat="27.703408" lon="86.71744">
        <ele>2696.4</ele>
        <time>2022-10-30T07:41:06.000Z</time>
      </trkpt>
      <trkpt lat="27.703382" lon="86.717427">
        <ele>2696.4</ele>
        <time>2022-10-30T07:41:08.000Z</time>
      </trkpt>
      <trkpt lat="27.703363" lon="86.717427">
        <ele>2696.4</ele>
        <time>2022-10-30T07:41:09.000Z</time>
      </trkpt>
      <trkpt lat="27.703334" lon="86.717414">
        <ele>2696.4</ele>
        <time>2022-10-30T07:41:11.000Z</time>
      </trkpt>
      <trkpt lat="27.703309" lon="86.717408">
        <ele>2696.2</ele>
        <time>2022-10-30T07:41:13.000Z</time>
      </trkpt>
      <trkpt lat="27.70329" lon="86.717408">
        <ele>2696.2</ele>
        <time>2022-10-30T07:41:15.000Z</time>
      </trkpt>
      <trkpt lat="27.70327" lon="86.717402">
        <ele>2696.4</ele>
        <time>2022-10-30T07:41:17.000Z</time>
      </trkpt>
      <trkpt lat="27.703251" lon="86.717389">
        <ele>2696.4</ele>
        <time>2022-10-30T07:41:19.000Z</time>
      </trkpt>
      <trkpt lat="27.703226" lon="86.717376">
        <ele>2696.4</ele>
        <time>2022-10-30T07:41:22.000Z</time>
      </trkpt>
      <trkpt lat="27.703206" lon="86.71737">
        <ele>2695.8</ele>
        <time>2022-10-30T07:41:24.000Z</time>
      </trkpt>
      <trkpt lat="27.703184" lon="86.717363">
        <ele>2696</ele>
        <time>2022-10-30T07:41:27.000Z</time>
      </trkpt>
      <trkpt lat="27.703158" lon="86.717363">
        <ele>2696</ele>
        <time>2022-10-30T07:41:30.000Z</time>
      </trkpt>
      <trkpt lat="27.703136" lon="86.717357">
        <ele>2697</ele>
        <time>2022-10-30T07:41:33.000Z</time>
      </trkpt>
      <trkpt lat="27.703117" lon="86.717357">
        <ele>2697.2</ele>
        <time>2022-10-30T07:41:36.000Z</time>
      </trkpt>
      <trkpt lat="27.703094" lon="86.717363">
        <ele>2697.6</ele>
        <time>2022-10-30T07:41:39.000Z</time>
      </trkpt>
      <trkpt lat="27.703069" lon="86.717357">
        <ele>2698</ele>
        <time>2022-10-30T07:41:42.000Z</time>
      </trkpt>
      <trkpt lat="27.703043" lon="86.717338">
        <ele>2698.2</ele>
        <time>2022-10-30T07:41:45.000Z</time>
      </trkpt>
      <trkpt lat="27.703021" lon="86.717331">
        <ele>2698</ele>
        <time>2022-10-30T07:41:48.000Z</time>
      </trkpt>
      <trkpt lat="27.702995" lon="86.717331">
        <ele>2698.2</ele>
        <time>2022-10-30T07:41:51.000Z</time>
      </trkpt>
      <trkpt lat="27.702973" lon="86.717331">
        <ele>2698.4</ele>
        <time>2022-10-30T07:41:54.000Z</time>
      </trkpt>
      <trkpt lat="27.702954" lon="86.717331">
        <ele>2698.4</ele>
        <time>2022-10-30T07:41:56.000Z</time>
      </trkpt>
      <trkpt lat="27.702931" lon="86.717325">
        <ele>2698</ele>
        <time>2022-10-30T07:42:18.000Z</time>
      </trkpt>
      <trkpt lat="27.702902" lon="86.717306">
        <ele>2697.8</ele>
        <time>2022-10-30T07:42:20.000Z</time>
      </trkpt>
      <trkpt lat="27.702883" lon="86.717306">
        <ele>2697.8</ele>
        <time>2022-10-30T07:42:21.000Z</time>
      </trkpt>
      <trkpt lat="27.702861" lon="86.717293">
        <ele>2697.8</ele>
        <time>2022-10-30T07:42:23.000Z</time>
      </trkpt>
      <trkpt lat="27.702842" lon="86.71728">
        <ele>2697.8</ele>
        <time>2022-10-30T07:42:25.000Z</time>
      </trkpt>
      <trkpt lat="27.702822" lon="86.717267">
        <ele>2697.8</ele>
        <time>2022-10-30T07:42:27.000Z</time>
      </trkpt>
      <trkpt lat="27.702806" lon="86.717254">
        <ele>2699</ele>
        <time>2022-10-30T07:42:34.000Z</time>
      </trkpt>
      <trkpt lat="27.702784" lon="86.717254">
        <ele>2699.8</ele>
        <time>2022-10-30T07:42:40.000Z</time>
      </trkpt>
      <trkpt lat="27.702762" lon="86.717248">
        <ele>2701</ele>
        <time>2022-10-30T07:42:45.000Z</time>
      </trkpt>
      <trkpt lat="27.702739" lon="86.717229">
        <ele>2701</ele>
        <time>2022-10-30T07:42:48.000Z</time>
      </trkpt>
      <trkpt lat="27.702714" lon="86.717222">
        <ele>2701.4</ele>
        <time>2022-10-30T07:42:51.000Z</time>
      </trkpt>
      <trkpt lat="27.702691" lon="86.717216">
        <ele>2701.2</ele>
        <time>2022-10-30T07:42:53.000Z</time>
      </trkpt>
      <trkpt lat="27.702672" lon="86.717216">
        <ele>2701.2</ele>
        <time>2022-10-30T07:42:55.000Z</time>
      </trkpt>
      <trkpt lat="27.702653" lon="86.71721">
        <ele>2701.4</ele>
        <time>2022-10-30T07:42:58.000Z</time>
      </trkpt>
      <trkpt lat="27.702634" lon="86.717203">
        <ele>2701.6</ele>
        <time>2022-10-30T07:43:00.000Z</time>
      </trkpt>
      <trkpt lat="27.702605" lon="86.717197">
        <ele>2702</ele>
        <time>2022-10-30T07:43:03.000Z</time>
      </trkpt>
      <trkpt lat="27.702576" lon="86.717197">
        <ele>2702.8</ele>
        <time>2022-10-30T07:43:06.000Z</time>
      </trkpt>
      <trkpt lat="27.70255" lon="86.717197">
        <ele>2703.4</ele>
        <time>2022-10-30T07:43:09.000Z</time>
      </trkpt>
      <trkpt lat="27.702525" lon="86.717178">
        <ele>2703.4</ele>
        <time>2022-10-30T07:43:12.000Z</time>
      </trkpt>
      <trkpt lat="27.702499" lon="86.717178">
        <ele>2703.8</ele>
        <time>2022-10-30T07:43:15.000Z</time>
      </trkpt>
      <trkpt lat="27.702474" lon="86.717184">
        <ele>2703.8</ele>
        <time>2022-10-30T07:43:18.000Z</time>
      </trkpt>
      <trkpt lat="27.702451" lon="86.717197">
        <ele>2704</ele>
        <time>2022-10-30T07:43:20.000Z</time>
      </trkpt>
      <trkpt lat="27.702432" lon="86.717197">
        <ele>2704</ele>
        <time>2022-10-30T07:43:22.000Z</time>
      </trkpt>
      <trkpt lat="27.70241" lon="86.717203">
        <ele>2704.2</ele>
        <time>2022-10-30T07:43:24.000Z</time>
      </trkpt>
      <trkpt lat="27.702387" lon="86.71721">
        <ele>2704.2</ele>
        <time>2022-10-30T07:43:26.000Z</time>
      </trkpt>
      <trkpt lat="27.702365" lon="86.71721">
        <ele>2704.2</ele>
        <time>2022-10-30T07:43:28.000Z</time>
      </trkpt>
      <trkpt lat="27.702342" lon="86.717216">
        <ele>2704</ele>
        <time>2022-10-30T07:43:30.000Z</time>
      </trkpt>
      <trkpt lat="27.702323" lon="86.717222">
        <ele>2704</ele>
        <time>2022-10-30T07:43:35.000Z</time>
      </trkpt>
      <trkpt lat="27.70231" lon="86.717242">
        <ele>2703.8</ele>
        <time>2022-10-30T07:43:38.000Z</time>
      </trkpt>
      <trkpt lat="27.702291" lon="86.717248">
        <ele>2703.6</ele>
        <time>2022-10-30T07:43:41.000Z</time>
      </trkpt>
      <trkpt lat="27.702282" lon="86.717229">
        <ele>2704.2</ele>
        <time>2022-10-30T07:43:49.000Z</time>
      </trkpt>
      <trkpt lat="27.702272" lon="86.717248">
        <ele>2705</ele>
        <time>2022-10-30T07:44:03.000Z</time>
      </trkpt>
      <trkpt lat="27.702259" lon="86.71728">
        <ele>2704.8</ele>
        <time>2022-10-30T07:44:05.000Z</time>
      </trkpt>
      <trkpt lat="27.702246" lon="86.717299">
        <ele>2704.6</ele>
        <time>2022-10-30T07:44:07.000Z</time>
      </trkpt>
      <trkpt lat="27.702237" lon="86.717318">
        <ele>2704.6</ele>
        <time>2022-10-30T07:44:08.000Z</time>
      </trkpt>
      <trkpt lat="27.702224" lon="86.717338">
        <ele>2704.6</ele>
        <time>2022-10-30T07:44:10.000Z</time>
      </trkpt>
      <trkpt lat="27.702218" lon="86.717357">
        <ele>2704.6</ele>
        <time>2022-10-30T07:44:11.000Z</time>
      </trkpt>
      <trkpt lat="27.702202" lon="86.71737">
        <ele>2704.6</ele>
        <time>2022-10-30T07:44:13.000Z</time>
      </trkpt>
      <trkpt lat="27.702195" lon="86.717389">
        <ele>2704.6</ele>
        <time>2022-10-30T07:44:15.000Z</time>
      </trkpt>
      <trkpt lat="27.702195" lon="86.717414">
        <ele>2705</ele>
        <time>2022-10-30T07:44:17.000Z</time>
      </trkpt>
      <trkpt lat="27.702186" lon="86.71744">
        <ele>2704.8</ele>
        <time>2022-10-30T07:44:19.000Z</time>
      </trkpt>
      <trkpt lat="27.702176" lon="86.717478">
        <ele>2705</ele>
        <time>2022-10-30T07:44:22.000Z</time>
      </trkpt>
      <trkpt lat="27.702166" lon="86.717498">
        <ele>2705</ele>
        <time>2022-10-30T07:44:24.000Z</time>
      </trkpt>
      <trkpt lat="27.70216" lon="86.717517">
        <ele>2704.2</ele>
        <time>2022-10-30T07:44:25.000Z</time>
      </trkpt>
      <trkpt lat="27.702147" lon="86.717536">
        <ele>2703.6</ele>
        <time>2022-10-30T07:44:28.000Z</time>
      </trkpt>
      <trkpt lat="27.702134" lon="86.717562">
        <ele>2703.6</ele>
        <time>2022-10-30T07:44:30.000Z</time>
      </trkpt>
      <trkpt lat="27.702125" lon="86.717581">
        <ele>2703.4</ele>
        <time>2022-10-30T07:44:32.000Z</time>
      </trkpt>
      <trkpt lat="27.702118" lon="86.7176">
        <ele>2703.6</ele>
        <time>2022-10-30T07:44:33.000Z</time>
      </trkpt>
      <trkpt lat="27.702118" lon="86.717626">
        <ele>2703.2</ele>
        <time>2022-10-30T07:44:36.000Z</time>
      </trkpt>
      <trkpt lat="27.702115" lon="86.717651">
        <ele>2703.4</ele>
        <time>2022-10-30T07:44:38.000Z</time>
      </trkpt>
      <trkpt lat="27.702109" lon="86.717677">
        <ele>2703.4</ele>
        <time>2022-10-30T07:44:40.000Z</time>
      </trkpt>
      <trkpt lat="27.702109" lon="86.717702">
        <ele>2703.2</ele>
        <time>2022-10-30T07:44:42.000Z</time>
      </trkpt>
      <trkpt lat="27.702106" lon="86.717728">
        <ele>2702.8</ele>
        <time>2022-10-30T07:44:44.000Z</time>
      </trkpt>
      <trkpt lat="27.702106" lon="86.71776">
        <ele>2702.6</ele>
        <time>2022-10-30T07:44:47.000Z</time>
      </trkpt>
      <trkpt lat="27.702109" lon="86.717798">
        <ele>2702.6</ele>
        <time>2022-10-30T07:44:50.000Z</time>
      </trkpt>
      <trkpt lat="27.702112" lon="86.717837">
        <ele>2703</ele>
        <time>2022-10-30T07:44:53.000Z</time>
      </trkpt>
      <trkpt lat="27.702118" lon="86.717862">
        <ele>2702.6</ele>
        <time>2022-10-30T07:44:56.000Z</time>
      </trkpt>
      <trkpt lat="27.702118" lon="86.717888">
        <ele>2702.6</ele>
        <time>2022-10-30T07:44:58.000Z</time>
      </trkpt>
      <trkpt lat="27.702118" lon="86.717978">
        <ele>2703</ele>
        <time>2022-10-30T07:45:04.000Z</time>
      </trkpt>
      <trkpt lat="27.702118" lon="86.718003">
        <ele>2702.8</ele>
        <time>2022-10-30T07:45:06.000Z</time>
      </trkpt>
      <trkpt lat="27.702115" lon="86.718035">
        <ele>2703</ele>
        <time>2022-10-30T07:45:08.000Z</time>
      </trkpt>
      <trkpt lat="27.702102" lon="86.718054">
        <ele>2703</ele>
        <time>2022-10-30T07:45:10.000Z</time>
      </trkpt>
      <trkpt lat="27.702099" lon="86.71808">
        <ele>2703.2</ele>
        <time>2022-10-30T07:45:12.000Z</time>
      </trkpt>
      <trkpt lat="27.702102" lon="86.718112">
        <ele>2703.2</ele>
        <time>2022-10-30T07:45:15.000Z</time>
      </trkpt>
      <trkpt lat="27.702102" lon="86.71815">
        <ele>2703.8</ele>
        <time>2022-10-30T07:45:18.000Z</time>
      </trkpt>
      <trkpt lat="27.702099" lon="86.718176">
        <ele>2703.6</ele>
        <time>2022-10-30T07:45:20.000Z</time>
      </trkpt>
      <trkpt lat="27.702096" lon="86.718208">
        <ele>2703.6</ele>
        <time>2022-10-30T07:45:22.000Z</time>
      </trkpt>
      <trkpt lat="27.70209" lon="86.718253">
        <ele>2703.2</ele>
        <time>2022-10-30T07:45:42.000Z</time>
      </trkpt>
      <trkpt lat="27.702096" lon="86.718285">
        <ele>2703.8</ele>
        <time>2022-10-30T07:45:45.000Z</time>
      </trkpt>
      <trkpt lat="27.702093" lon="86.71831">
        <ele>2703.6</ele>
        <time>2022-10-30T07:45:47.000Z</time>
      </trkpt>
      <trkpt lat="27.702083" lon="86.71833">
        <ele>2702.8</ele>
        <time>2022-10-30T07:45:49.000Z</time>
      </trkpt>
      <trkpt lat="27.702074" lon="86.718349">
        <ele>2702.6</ele>
        <time>2022-10-30T07:45:51.000Z</time>
      </trkpt>
      <trkpt lat="27.702064" lon="86.718368">
        <ele>2702.6</ele>
        <time>2022-10-30T07:45:54.000Z</time>
      </trkpt>
      <trkpt lat="27.702064" lon="86.718394">
        <ele>2703.4</ele>
        <time>2022-10-30T07:45:56.000Z</time>
      </trkpt>
      <trkpt lat="27.702074" lon="86.718413">
        <ele>2703.8</ele>
        <time>2022-10-30T07:45:59.000Z</time>
      </trkpt>
      <trkpt lat="27.702067" lon="86.718438">
        <ele>2703.4</ele>
        <time>2022-10-30T07:46:02.000Z</time>
      </trkpt>
      <trkpt lat="27.702058" lon="86.718458">
        <ele>2703.6</ele>
        <time>2022-10-30T07:46:05.000Z</time>
      </trkpt>
      <trkpt lat="27.702048" lon="86.718477">
        <ele>2703.8</ele>
        <time>2022-10-30T07:46:07.000Z</time>
      </trkpt>
      <trkpt lat="27.702038" lon="86.718509">
        <ele>2704</ele>
        <time>2022-10-30T07:46:10.000Z</time>
      </trkpt>
      <trkpt lat="27.702045" lon="86.718534">
        <ele>2704.2</ele>
        <time>2022-10-30T07:46:13.000Z</time>
      </trkpt>
      <trkpt lat="27.702038" lon="86.71856">
        <ele>2704.2</ele>
        <time>2022-10-30T07:46:15.000Z</time>
      </trkpt>
      <trkpt lat="27.702032" lon="86.718579">
        <ele>2704.4</ele>
        <time>2022-10-30T07:46:17.000Z</time>
      </trkpt>
      <trkpt lat="27.702029" lon="86.718605">
        <ele>2704.6</ele>
        <time>2022-10-30T07:46:19.000Z</time>
      </trkpt>
      <trkpt lat="27.702029" lon="86.71863">
        <ele>2704.6</ele>
        <time>2022-10-30T07:46:21.000Z</time>
      </trkpt>
      <trkpt lat="27.702022" lon="86.71865">
        <ele>2704.8</ele>
        <time>2022-10-30T07:46:23.000Z</time>
      </trkpt>
      <trkpt lat="27.702019" lon="86.718675">
        <ele>2704.6</ele>
        <time>2022-10-30T07:46:25.000Z</time>
      </trkpt>
      <trkpt lat="27.702013" lon="86.718694">
        <ele>2705</ele>
        <time>2022-10-30T07:46:27.000Z</time>
      </trkpt>
      <trkpt lat="27.702006" lon="86.71872">
        <ele>2705</ele>
        <time>2022-10-30T07:46:29.000Z</time>
      </trkpt>
      <trkpt lat="27.701997" lon="86.718739">
        <ele>2705.4</ele>
        <time>2022-10-30T07:46:32.000Z</time>
      </trkpt>
      <trkpt lat="27.70199" lon="86.718758">
        <ele>2705.6</ele>
        <time>2022-10-30T07:46:33.000Z</time>
      </trkpt>
      <trkpt lat="27.701974" lon="86.718778">
        <ele>2705.6</ele>
        <time>2022-10-30T07:46:35.000Z</time>
      </trkpt>
      <trkpt lat="27.701968" lon="86.718803">
        <ele>2705.2</ele>
        <time>2022-10-30T07:46:37.000Z</time>
      </trkpt>
      <trkpt lat="27.701958" lon="86.718829">
        <ele>2704.8</ele>
        <time>2022-10-30T07:46:43.000Z</time>
      </trkpt>
      <trkpt lat="27.701942" lon="86.718842">
        <ele>2704.6</ele>
        <time>2022-10-30T07:46:45.000Z</time>
      </trkpt>
      <trkpt lat="27.70193" lon="86.718867">
        <ele>2704.8</ele>
        <time>2022-10-30T07:46:47.000Z</time>
      </trkpt>
      <trkpt lat="27.701914" lon="86.718893">
        <ele>2705.4</ele>
        <time>2022-10-30T07:47:19.000Z</time>
      </trkpt>
      <trkpt lat="27.701901" lon="86.718912">
        <ele>2705.6</ele>
        <time>2022-10-30T07:47:20.000Z</time>
      </trkpt>
      <trkpt lat="27.701878" lon="86.718938">
        <ele>2705.8</ele>
        <time>2022-10-30T07:47:22.000Z</time>
      </trkpt>
      <trkpt lat="27.701869" lon="86.718963">
        <ele>2705.6</ele>
        <time>2022-10-30T07:47:23.000Z</time>
      </trkpt>
      <trkpt lat="27.70185" lon="86.718995">
        <ele>2705.6</ele>
        <time>2022-10-30T07:47:25.000Z</time>
      </trkpt>
      <trkpt lat="27.701827" lon="86.719014">
        <ele>2705.4</ele>
        <time>2022-10-30T07:47:27.000Z</time>
      </trkpt>
      <trkpt lat="27.701814" lon="86.719034">
        <ele>2705.4</ele>
        <time>2022-10-30T07:47:29.000Z</time>
      </trkpt>
      <trkpt lat="27.701798" lon="86.719066">
        <ele>2705.4</ele>
        <time>2022-10-30T07:47:32.000Z</time>
      </trkpt>
      <trkpt lat="27.701779" lon="86.719085">
        <ele>2705.2</ele>
        <time>2022-10-30T07:47:35.000Z</time>
      </trkpt>
      <trkpt lat="27.70177" lon="86.71911">
        <ele>2705.2</ele>
        <time>2022-10-30T07:47:37.000Z</time>
      </trkpt>
      <trkpt lat="27.70175" lon="86.719123">
        <ele>2705.2</ele>
        <time>2022-10-30T07:47:39.000Z</time>
      </trkpt>
      <trkpt lat="27.701728" lon="86.719149">
        <ele>2705</ele>
        <time>2022-10-30T07:47:42.000Z</time>
      </trkpt>
      <trkpt lat="27.701712" lon="86.719162">
        <ele>2704.8</ele>
        <time>2022-10-30T07:47:44.000Z</time>
      </trkpt>
      <trkpt lat="27.701696" lon="86.719187">
        <ele>2704.8</ele>
        <time>2022-10-30T07:47:46.000Z</time>
      </trkpt>
      <trkpt lat="27.70168" lon="86.719213">
        <ele>2705.6</ele>
        <time>2022-10-30T07:47:49.000Z</time>
      </trkpt>
      <trkpt lat="27.701664" lon="86.719232">
        <ele>2705.8</ele>
        <time>2022-10-30T07:47:52.000Z</time>
      </trkpt>
      <trkpt lat="27.701645" lon="86.719251">
        <ele>2706</ele>
        <time>2022-10-30T07:47:55.000Z</time>
      </trkpt>
      <trkpt lat="27.701632" lon="86.71927">
        <ele>2706.2</ele>
        <time>2022-10-30T07:47:57.000Z</time>
      </trkpt>
      <trkpt lat="27.701613" lon="86.719283">
        <ele>2706.4</ele>
        <time>2022-10-30T07:48:00.000Z</time>
      </trkpt>
      <trkpt lat="27.70161" lon="86.719309">
        <ele>2707</ele>
        <time>2022-10-30T07:48:02.000Z</time>
      </trkpt>
      <trkpt lat="27.70159" lon="86.719328">
        <ele>2707.4</ele>
        <time>2022-10-30T07:48:06.000Z</time>
      </trkpt>
      <trkpt lat="27.701578" lon="86.719354">
        <ele>2707.4</ele>
        <time>2022-10-30T07:48:08.000Z</time>
      </trkpt>
      <trkpt lat="27.701558" lon="86.719354">
        <ele>2708</ele>
        <time>2022-10-30T07:48:10.000Z</time>
      </trkpt>
      <trkpt lat="27.701542" lon="86.719373">
        <ele>2708.2</ele>
        <time>2022-10-30T07:48:13.000Z</time>
      </trkpt>
      <trkpt lat="27.70153" lon="86.719392">
        <ele>2708.4</ele>
        <time>2022-10-30T07:48:15.000Z</time>
      </trkpt>
      <trkpt lat="27.701514" lon="86.719405">
        <ele>2708.4</ele>
        <time>2022-10-30T07:48:19.000Z</time>
      </trkpt>
      <trkpt lat="27.701504" lon="86.719424">
        <ele>2709.2</ele>
        <time>2022-10-30T07:48:22.000Z</time>
      </trkpt>
      <trkpt lat="27.701491" lon="86.719443">
        <ele>2709.2</ele>
        <time>2022-10-30T07:48:26.000Z</time>
      </trkpt>
      <trkpt lat="27.701469" lon="86.71945">
        <ele>2708.8</ele>
        <time>2022-10-30T07:48:29.000Z</time>
      </trkpt>
      <trkpt lat="27.701453" lon="86.719462">
        <ele>2709.6</ele>
        <time>2022-10-30T07:48:32.000Z</time>
      </trkpt>
      <trkpt lat="27.70144" lon="86.719482">
        <ele>2709.4</ele>
        <time>2022-10-30T07:48:36.000Z</time>
      </trkpt>
      <trkpt lat="27.701418" lon="86.719488">
        <ele>2709.8</ele>
        <time>2022-10-30T07:48:39.000Z</time>
      </trkpt>
      <trkpt lat="27.701408" lon="86.719507">
        <ele>2710</ele>
        <time>2022-10-30T07:48:41.000Z</time>
      </trkpt>
      <trkpt lat="27.701389" lon="86.71952">
        <ele>2710.6</ele>
        <time>2022-10-30T07:48:44.000Z</time>
      </trkpt>
      <trkpt lat="27.701373" lon="86.719533">
        <ele>2710.6</ele>
        <time>2022-10-30T07:48:46.000Z</time>
      </trkpt>
      <trkpt lat="27.70136" lon="86.719552">
        <ele>2710.6</ele>
        <time>2022-10-30T07:48:49.000Z</time>
      </trkpt>
      <trkpt lat="27.701334" lon="86.719565">
        <ele>2711.4</ele>
        <time>2022-10-30T07:48:52.000Z</time>
      </trkpt>
      <trkpt lat="27.701312" lon="86.719584">
        <ele>2711.4</ele>
        <time>2022-10-30T07:48:54.000Z</time>
      </trkpt>
      <trkpt lat="27.701299" lon="86.719603">
        <ele>2711.4</ele>
        <time>2022-10-30T07:48:56.000Z</time>
      </trkpt>
      <trkpt lat="27.701283" lon="86.719622">
        <ele>2711.6</ele>
        <time>2022-10-30T07:48:58.000Z</time>
      </trkpt>
      <trkpt lat="27.701261" lon="86.719635">
        <ele>2711.4</ele>
        <time>2022-10-30T07:49:01.000Z</time>
      </trkpt>
      <trkpt lat="27.701242" lon="86.719661">
        <ele>2712</ele>
        <time>2022-10-30T07:49:04.000Z</time>
      </trkpt>
      <trkpt lat="27.701222" lon="86.719674">
        <ele>2712</ele>
        <time>2022-10-30T07:49:06.000Z</time>
      </trkpt>
      <trkpt lat="27.7012" lon="86.719686">
        <ele>2712</ele>
        <time>2022-10-30T07:49:09.000Z</time>
      </trkpt>
      <trkpt lat="27.701181" lon="86.719706">
        <ele>2712.4</ele>
        <time>2022-10-30T07:49:11.000Z</time>
      </trkpt>
      <trkpt lat="27.701171" lon="86.719725">
        <ele>2712.4</ele>
        <time>2022-10-30T07:49:15.000Z</time>
      </trkpt>
      <trkpt lat="27.701152" lon="86.719731">
        <ele>2713</ele>
        <time>2022-10-30T07:49:19.000Z</time>
      </trkpt>
      <trkpt lat="27.701142" lon="86.71975">
        <ele>2713.2</ele>
        <time>2022-10-30T07:49:21.000Z</time>
      </trkpt>
      <trkpt lat="27.701123" lon="86.71977">
        <ele>2713.4</ele>
        <time>2022-10-30T07:49:24.000Z</time>
      </trkpt>
      <trkpt lat="27.701117" lon="86.719795">
        <ele>2713.6</ele>
        <time>2022-10-30T07:49:26.000Z</time>
      </trkpt>
      <trkpt lat="27.701101" lon="86.719808">
        <ele>2713.6</ele>
        <time>2022-10-30T07:49:29.000Z</time>
      </trkpt>
      <trkpt lat="27.701094" lon="86.719827">
        <ele>2714.4</ele>
        <time>2022-10-30T07:49:32.000Z</time>
      </trkpt>
      <trkpt lat="27.701075" lon="86.71984">
        <ele>2714.8</ele>
        <time>2022-10-30T07:49:34.000Z</time>
      </trkpt>
      <trkpt lat="27.701062" lon="86.719859">
        <ele>2714.8</ele>
        <time>2022-10-30T07:49:36.000Z</time>
      </trkpt>
      <trkpt lat="27.701046" lon="86.719872">
        <ele>2714.8</ele>
        <time>2022-10-30T07:49:38.000Z</time>
      </trkpt>
      <trkpt lat="27.70103" lon="86.719885">
        <ele>2714.6</ele>
        <time>2022-10-30T07:49:41.000Z</time>
      </trkpt>
      <trkpt lat="27.701014" lon="86.719898">
        <ele>2714.6</ele>
        <time>2022-10-30T07:49:44.000Z</time>
      </trkpt>
      <trkpt lat="27.700995" lon="86.719904">
        <ele>2716</ele>
        <time>2022-10-30T07:51:27.000Z</time>
      </trkpt>
      <trkpt lat="27.700976" lon="86.719923">
        <ele>2716.2</ele>
        <time>2022-10-30T07:51:29.000Z</time>
      </trkpt>
      <trkpt lat="27.700954" lon="86.719942">
        <ele>2716.2</ele>
        <time>2022-10-30T07:51:31.000Z</time>
      </trkpt>
      <trkpt lat="27.700925" lon="86.719955">
        <ele>2716.4</ele>
        <time>2022-10-30T07:51:33.000Z</time>
      </trkpt>
      <trkpt lat="27.700899" lon="86.719968">
        <ele>2716.4</ele>
        <time>2022-10-30T07:51:35.000Z</time>
      </trkpt>
      <trkpt lat="27.700883" lon="86.719987">
        <ele>2716.8</ele>
        <time>2022-10-30T07:51:37.000Z</time>
      </trkpt>
      <trkpt lat="27.700858" lon="86.72">
        <ele>2716.8</ele>
        <time>2022-10-30T07:51:40.000Z</time>
      </trkpt>
      <trkpt lat="27.700838" lon="86.720006">
        <ele>2716.8</ele>
        <time>2022-10-30T07:51:42.000Z</time>
      </trkpt>
      <trkpt lat="27.700826" lon="86.720026">
        <ele>2716.6</ele>
        <time>2022-10-30T07:51:44.000Z</time>
      </trkpt>
      <trkpt lat="27.700806" lon="86.720032">
        <ele>2716.8</ele>
        <time>2022-10-30T07:51:46.000Z</time>
      </trkpt>
      <trkpt lat="27.700787" lon="86.720045">
        <ele>2716.8</ele>
        <time>2022-10-30T07:51:48.000Z</time>
      </trkpt>
      <trkpt lat="27.700778" lon="86.72007">
        <ele>2717</ele>
        <time>2022-10-30T07:51:50.000Z</time>
      </trkpt>
      <trkpt lat="27.700755" lon="86.720083">
        <ele>2716.8</ele>
        <time>2022-10-30T07:51:53.000Z</time>
      </trkpt>
      <trkpt lat="27.700733" lon="86.720102">
        <ele>2717.4</ele>
        <time>2022-10-30T07:51:56.000Z</time>
      </trkpt>
      <trkpt lat="27.700714" lon="86.720122">
        <ele>2716.6</ele>
        <time>2022-10-30T07:51:59.000Z</time>
      </trkpt>
      <trkpt lat="27.700704" lon="86.720141">
        <ele>2716.6</ele>
        <time>2022-10-30T07:52:01.000Z</time>
      </trkpt>
      <trkpt lat="27.700688" lon="86.720154">
        <ele>2716.4</ele>
        <time>2022-10-30T07:52:03.000Z</time>
      </trkpt>
      <trkpt lat="27.700669" lon="86.720166">
        <ele>2716.4</ele>
        <time>2022-10-30T07:52:06.000Z</time>
      </trkpt>
      <trkpt lat="27.700656" lon="86.720186">
        <ele>2716.4</ele>
        <time>2022-10-30T07:52:09.000Z</time>
      </trkpt>
      <trkpt lat="27.700646" lon="86.720205">
        <ele>2716.6</ele>
        <time>2022-10-30T07:52:16.000Z</time>
      </trkpt>
      <trkpt lat="27.700637" lon="86.720224">
        <ele>2716.8</ele>
        <time>2022-10-30T07:52:18.000Z</time>
      </trkpt>
      <trkpt lat="27.700624" lon="86.720243">
        <ele>2716.4</ele>
        <time>2022-10-30T07:52:20.000Z</time>
      </trkpt>
      <trkpt lat="27.700605" lon="86.720262">
        <ele>2716</ele>
        <time>2022-10-30T07:52:23.000Z</time>
      </trkpt>
      <trkpt lat="27.700589" lon="86.720275">
        <ele>2716.4</ele>
        <time>2022-10-30T07:52:25.000Z</time>
      </trkpt>
      <trkpt lat="27.700579" lon="86.720307">
        <ele>2716</ele>
        <time>2022-10-30T07:52:28.000Z</time>
      </trkpt>
      <trkpt lat="27.700573" lon="86.720326">
        <ele>2716</ele>
        <time>2022-10-30T07:52:31.000Z</time>
      </trkpt>
      <trkpt lat="27.700566" lon="86.720352">
        <ele>2715.8</ele>
        <time>2022-10-30T07:52:33.000Z</time>
      </trkpt>
      <trkpt lat="27.700547" lon="86.720358">
        <ele>2716</ele>
        <time>2022-10-30T07:52:36.000Z</time>
      </trkpt>
      <trkpt lat="27.700528" lon="86.720378">
        <ele>2715.8</ele>
        <time>2022-10-30T07:52:38.000Z</time>
      </trkpt>
      <trkpt lat="27.700512" lon="86.72039">
        <ele>2715.6</ele>
        <time>2022-10-30T07:52:40.000Z</time>
      </trkpt>
      <trkpt lat="27.700493" lon="86.720416">
        <ele>2715.4</ele>
        <time>2022-10-30T07:52:42.000Z</time>
      </trkpt>
      <trkpt lat="27.70047" lon="86.720442">
        <ele>2715</ele>
        <time>2022-10-30T07:52:45.000Z</time>
      </trkpt>
      <trkpt lat="27.700458" lon="86.720461">
        <ele>2715.2</ele>
        <time>2022-10-30T07:52:47.000Z</time>
      </trkpt>
      <trkpt lat="27.700445" lon="86.72048">
        <ele>2715.2</ele>
        <time>2022-10-30T07:52:49.000Z</time>
      </trkpt>
      <trkpt lat="27.700432" lon="86.720499">
        <ele>2715.2</ele>
        <time>2022-10-30T07:52:51.000Z</time>
      </trkpt>
      <trkpt lat="27.700413" lon="86.720518">
        <ele>2714.8</ele>
        <time>2022-10-30T07:52:53.000Z</time>
      </trkpt>
      <trkpt lat="27.700403" lon="86.720538">
        <ele>2714.8</ele>
        <time>2022-10-30T07:52:54.000Z</time>
      </trkpt>
      <trkpt lat="27.700384" lon="86.72055">
        <ele>2714.6</ele>
        <time>2022-10-30T07:52:56.000Z</time>
      </trkpt>
      <trkpt lat="27.700365" lon="86.720563">
        <ele>2714.6</ele>
        <time>2022-10-30T07:52:58.000Z</time>
      </trkpt>
      <trkpt lat="27.700336" lon="86.720563">
        <ele>2714.6</ele>
        <time>2022-10-30T07:53:00.000Z</time>
      </trkpt>
      <trkpt lat="27.700323" lon="86.720582">
        <ele>2714.8</ele>
        <time>2022-10-30T07:53:02.000Z</time>
      </trkpt>
      <trkpt lat="27.700307" lon="86.720595">
        <ele>2715.2</ele>
        <time>2022-10-30T07:53:04.000Z</time>
      </trkpt>
      <trkpt lat="27.700301" lon="86.720614">
        <ele>2715.2</ele>
        <time>2022-10-30T07:53:05.000Z</time>
      </trkpt>
      <trkpt lat="27.700285" lon="86.720627">
        <ele>2715.2</ele>
        <time>2022-10-30T07:53:08.000Z</time>
      </trkpt>
      <trkpt lat="27.700269" lon="86.72064">
        <ele>2715.2</ele>
        <time>2022-10-30T07:53:10.000Z</time>
      </trkpt>
      <trkpt lat="27.700253" lon="86.720653">
        <ele>2715</ele>
        <time>2022-10-30T07:53:12.000Z</time>
      </trkpt>
      <trkpt lat="27.70023" lon="86.720666">
        <ele>2715</ele>
        <time>2022-10-30T07:53:14.000Z</time>
      </trkpt>
      <trkpt lat="27.700208" lon="86.720678">
        <ele>2715.4</ele>
        <time>2022-10-30T07:53:17.000Z</time>
      </trkpt>
      <trkpt lat="27.700192" lon="86.720698">
        <ele>2715</ele>
        <time>2022-10-30T07:53:19.000Z</time>
      </trkpt>
      <trkpt lat="27.700173" lon="86.720717">
        <ele>2714.8</ele>
        <time>2022-10-30T07:53:22.000Z</time>
      </trkpt>
      <trkpt lat="27.70015" lon="86.720736">
        <ele>2715</ele>
        <time>2022-10-30T07:53:25.000Z</time>
      </trkpt>
      <trkpt lat="27.700128" lon="86.720742">
        <ele>2715.2</ele>
        <time>2022-10-30T07:53:28.000Z</time>
      </trkpt>
      <trkpt lat="27.700109" lon="86.720755">
        <ele>2715.4</ele>
        <time>2022-10-30T07:53:30.000Z</time>
      </trkpt>
      <trkpt lat="27.700093" lon="86.720774">
        <ele>2715.4</ele>
        <time>2022-10-30T07:53:32.000Z</time>
      </trkpt>
      <trkpt lat="27.700074" lon="86.720794">
        <ele>2715.2</ele>
        <time>2022-10-30T07:53:35.000Z</time>
      </trkpt>
      <trkpt lat="27.700061" lon="86.720813">
        <ele>2715.4</ele>
        <time>2022-10-30T07:53:40.000Z</time>
      </trkpt>
      <trkpt lat="27.700048" lon="86.720832">
        <ele>2715.6</ele>
        <time>2022-10-30T07:53:44.000Z</time>
      </trkpt>
      <trkpt lat="27.700038" lon="86.720851">
        <ele>2716</ele>
        <time>2022-10-30T07:53:47.000Z</time>
      </trkpt>
      <trkpt lat="27.700026" lon="86.72087">
        <ele>2716.6</ele>
        <time>2022-10-30T07:53:52.000Z</time>
      </trkpt>
      <trkpt lat="27.70001" lon="86.720883">
        <ele>2716.8</ele>
        <time>2022-10-30T07:53:56.000Z</time>
      </trkpt>
      <trkpt lat="27.7" lon="86.720902">
        <ele>2716.8</ele>
        <time>2022-10-30T07:53:58.000Z</time>
      </trkpt>
      <trkpt lat="27.69999" lon="86.720922">
        <ele>2717.4</ele>
        <time>2022-10-30T07:54:02.000Z</time>
      </trkpt>
      <trkpt lat="27.699981" lon="86.720947">
        <ele>2717.2</ele>
        <time>2022-10-30T07:54:04.000Z</time>
      </trkpt>
      <trkpt lat="27.699958" lon="86.720954">
        <ele>2717.2</ele>
        <time>2022-10-30T07:54:06.000Z</time>
      </trkpt>
      <trkpt lat="27.699933" lon="86.720973">
        <ele>2717.6</ele>
        <time>2022-10-30T07:54:08.000Z</time>
      </trkpt>
      <trkpt lat="27.699914" lon="86.720986">
        <ele>2717.6</ele>
        <time>2022-10-30T07:54:10.000Z</time>
      </trkpt>
      <trkpt lat="27.699901" lon="86.721011">
        <ele>2717.6</ele>
        <time>2022-10-30T07:54:12.000Z</time>
      </trkpt>
      <trkpt lat="27.699875" lon="86.721011">
        <ele>2717.2</ele>
        <time>2022-10-30T07:54:14.000Z</time>
      </trkpt>
      <trkpt lat="27.699856" lon="86.721018">
        <ele>2717.2</ele>
        <time>2022-10-30T07:54:16.000Z</time>
      </trkpt>
      <trkpt lat="27.69984" lon="86.72103">
        <ele>2717.6</ele>
        <time>2022-10-30T07:54:18.000Z</time>
      </trkpt>
      <trkpt lat="27.699814" lon="86.721037">
        <ele>2717.8</ele>
        <time>2022-10-30T07:54:21.000Z</time>
      </trkpt>
      <trkpt lat="27.699795" lon="86.721056">
        <ele>2718</ele>
        <time>2022-10-30T07:54:24.000Z</time>
      </trkpt>
      <trkpt lat="27.699779" lon="86.721069">
        <ele>2718.2</ele>
        <time>2022-10-30T07:54:27.000Z</time>
      </trkpt>
      <trkpt lat="27.699754" lon="86.721082">
        <ele>2718.4</ele>
        <time>2022-10-30T07:54:30.000Z</time>
      </trkpt>
      <trkpt lat="27.699738" lon="86.721101">
        <ele>2718.4</ele>
        <time>2022-10-30T07:54:32.000Z</time>
      </trkpt>
      <trkpt lat="27.699734" lon="86.721133">
        <ele>2719.2</ele>
        <time>2022-10-30T07:54:36.000Z</time>
      </trkpt>
      <trkpt lat="27.699715" lon="86.721158">
        <ele>2718.8</ele>
        <time>2022-10-30T07:54:40.000Z</time>
      </trkpt>
      <trkpt lat="27.699696" lon="86.721178">
        <ele>2719</ele>
        <time>2022-10-30T07:54:43.000Z</time>
      </trkpt>
      <trkpt lat="27.699674" lon="86.721197">
        <ele>2719</ele>
        <time>2022-10-30T07:54:46.000Z</time>
      </trkpt>
      <trkpt lat="27.699658" lon="86.721216">
        <ele>2719.2</ele>
        <time>2022-10-30T07:54:48.000Z</time>
      </trkpt>
      <trkpt lat="27.699642" lon="86.721229">
        <ele>2719.4</ele>
        <time>2022-10-30T07:54:50.000Z</time>
      </trkpt>
      <trkpt lat="27.699619" lon="86.721235">
        <ele>2719.4</ele>
        <time>2022-10-30T07:54:52.000Z</time>
      </trkpt>
      <trkpt lat="27.699603" lon="86.721248">
        <ele>2719.4</ele>
        <time>2022-10-30T07:54:54.000Z</time>
      </trkpt>
      <trkpt lat="27.699587" lon="86.721261">
        <ele>2720</ele>
        <time>2022-10-30T07:54:57.000Z</time>
      </trkpt>
      <trkpt lat="27.699571" lon="86.721274">
        <ele>2719.8</ele>
        <time>2022-10-30T07:54:59.000Z</time>
      </trkpt>
      <trkpt lat="27.699552" lon="86.721299">
        <ele>2720.2</ele>
        <time>2022-10-30T07:55:02.000Z</time>
      </trkpt>
      <trkpt lat="27.699514" lon="86.721331">
        <ele>2720.2</ele>
        <time>2022-10-30T07:55:06.000Z</time>
      </trkpt>
      <trkpt lat="27.699494" lon="86.721338">
        <ele>2720.6</ele>
        <time>2022-10-30T07:55:08.000Z</time>
      </trkpt>
      <trkpt lat="27.699475" lon="86.72135">
        <ele>2720.8</ele>
        <time>2022-10-30T07:55:10.000Z</time>
      </trkpt>
      <trkpt lat="27.699466" lon="86.72137">
        <ele>2721</ele>
        <time>2022-10-30T07:55:11.000Z</time>
      </trkpt>
      <trkpt lat="27.699446" lon="86.721382">
        <ele>2721.4</ele>
        <time>2022-10-30T07:55:14.000Z</time>
      </trkpt>
      <trkpt lat="27.699424" lon="86.721408">
        <ele>2720.8</ele>
        <time>2022-10-30T07:55:17.000Z</time>
      </trkpt>
      <trkpt lat="27.699402" lon="86.721421">
        <ele>2721</ele>
        <time>2022-10-30T07:55:20.000Z</time>
      </trkpt>
      <trkpt lat="27.699386" lon="86.72144">
        <ele>2721</ele>
        <time>2022-10-30T07:55:23.000Z</time>
      </trkpt>
      <trkpt lat="27.699373" lon="86.721459">
        <ele>2720.4</ele>
        <time>2022-10-30T07:55:25.000Z</time>
      </trkpt>
      <trkpt lat="27.699357" lon="86.721478">
        <ele>2719.8</ele>
        <time>2022-10-30T07:55:27.000Z</time>
      </trkpt>
      <trkpt lat="27.699347" lon="86.721504">
        <ele>2720.2</ele>
        <time>2022-10-30T07:55:29.000Z</time>
      </trkpt>
      <trkpt lat="27.699338" lon="86.72153">
        <ele>2720.2</ele>
        <time>2022-10-30T07:55:31.000Z</time>
      </trkpt>
      <trkpt lat="27.699328" lon="86.721549">
        <ele>2719.6</ele>
        <time>2022-10-30T07:55:33.000Z</time>
      </trkpt>
      <trkpt lat="27.699325" lon="86.721574">
        <ele>2719.6</ele>
        <time>2022-10-30T07:55:35.000Z</time>
      </trkpt>
      <trkpt lat="27.699315" lon="86.721606">
        <ele>2719.6</ele>
        <time>2022-10-30T07:55:37.000Z</time>
      </trkpt>
      <trkpt lat="27.699306" lon="86.721626">
        <ele>2719.4</ele>
        <time>2022-10-30T07:55:39.000Z</time>
      </trkpt>
      <trkpt lat="27.699286" lon="86.721658">
        <ele>2719.4</ele>
        <time>2022-10-30T07:55:42.000Z</time>
      </trkpt>
      <trkpt lat="27.699277" lon="86.721677">
        <ele>2719.4</ele>
        <time>2022-10-30T07:55:44.000Z</time>
      </trkpt>
      <trkpt lat="27.699267" lon="86.721702">
        <ele>2719.4</ele>
        <time>2022-10-30T07:55:46.000Z</time>
      </trkpt>
      <trkpt lat="27.699248" lon="86.721734">
        <ele>2720</ele>
        <time>2022-10-30T07:55:49.000Z</time>
      </trkpt>
      <trkpt lat="27.699229" lon="86.721754">
        <ele>2720</ele>
        <time>2022-10-30T07:55:52.000Z</time>
      </trkpt>
      <trkpt lat="27.69921" lon="86.721779">
        <ele>2720.2</ele>
        <time>2022-10-30T07:55:54.000Z</time>
      </trkpt>
      <trkpt lat="27.699197" lon="86.721805">
        <ele>2719.8</ele>
        <time>2022-10-30T07:55:57.000Z</time>
      </trkpt>
      <trkpt lat="27.699174" lon="86.721818">
        <ele>2719.6</ele>
        <time>2022-10-30T07:56:00.000Z</time>
      </trkpt>
      <trkpt lat="27.699158" lon="86.72183">
        <ele>2718.8</ele>
        <time>2022-10-30T07:56:02.000Z</time>
      </trkpt>
      <trkpt lat="27.699142" lon="86.72185">
        <ele>2718</ele>
        <time>2022-10-30T07:56:04.000Z</time>
      </trkpt>
      <trkpt lat="27.699117" lon="86.721869">
        <ele>2717.4</ele>
        <time>2022-10-30T07:56:07.000Z</time>
      </trkpt>
      <trkpt lat="27.699104" lon="86.721894">
        <ele>2717.8</ele>
        <time>2022-10-30T07:56:09.000Z</time>
      </trkpt>
      <trkpt lat="27.699088" lon="86.721907">
        <ele>2717.8</ele>
        <time>2022-10-30T07:56:11.000Z</time>
      </trkpt>
      <trkpt lat="27.699075" lon="86.721926">
        <ele>2718</ele>
        <time>2022-10-30T07:56:13.000Z</time>
      </trkpt>
      <trkpt lat="27.699056" lon="86.721946">
        <ele>2718.2</ele>
        <time>2022-10-30T07:56:15.000Z</time>
      </trkpt>
      <trkpt lat="27.699043" lon="86.721965">
        <ele>2718.2</ele>
        <time>2022-10-30T07:56:17.000Z</time>
      </trkpt>
      <trkpt lat="27.699024" lon="86.721984">
        <ele>2718</ele>
        <time>2022-10-30T07:56:19.000Z</time>
      </trkpt>
      <trkpt lat="27.699005" lon="86.72199">
        <ele>2717.8</ele>
        <time>2022-10-30T07:56:21.000Z</time>
      </trkpt>
      <trkpt lat="27.698986" lon="86.722003">
        <ele>2717.8</ele>
        <time>2022-10-30T07:56:23.000Z</time>
      </trkpt>
      <trkpt lat="27.698963" lon="86.722016">
        <ele>2718</ele>
        <time>2022-10-30T07:56:25.000Z</time>
      </trkpt>
      <trkpt lat="27.698944" lon="86.722029">
        <ele>2718</ele>
        <time>2022-10-30T07:56:27.000Z</time>
      </trkpt>
      <trkpt lat="27.698931" lon="86.722054">
        <ele>2718</ele>
        <time>2022-10-30T07:56:29.000Z</time>
      </trkpt>
      <trkpt lat="27.698912" lon="86.722067">
        <ele>2718.4</ele>
        <time>2022-10-30T07:56:31.000Z</time>
      </trkpt>
      <trkpt lat="27.698906" lon="86.722086">
        <ele>2718.6</ele>
        <time>2022-10-30T07:56:32.000Z</time>
      </trkpt>
      <trkpt lat="27.698886" lon="86.722099">
        <ele>2719</ele>
        <time>2022-10-30T07:56:34.000Z</time>
      </trkpt>
      <trkpt lat="27.69887" lon="86.722112">
        <ele>2719</ele>
        <time>2022-10-30T07:56:36.000Z</time>
      </trkpt>
      <trkpt lat="27.698864" lon="86.722131">
        <ele>2718.8</ele>
        <time>2022-10-30T07:56:37.000Z</time>
      </trkpt>
      <trkpt lat="27.698848" lon="86.722144">
        <ele>2718.2</ele>
        <time>2022-10-30T07:56:39.000Z</time>
      </trkpt>
      <trkpt lat="27.698829" lon="86.72217">
        <ele>2718.2</ele>
        <time>2022-10-30T07:56:41.000Z</time>
      </trkpt>
      <trkpt lat="27.698822" lon="86.722189">
        <ele>2718.4</ele>
        <time>2022-10-30T07:56:43.000Z</time>
      </trkpt>
      <trkpt lat="27.69881" lon="86.722214">
        <ele>2718.4</ele>
        <time>2022-10-30T07:56:45.000Z</time>
      </trkpt>
      <trkpt lat="27.698794" lon="86.722234">
        <ele>2718.4</ele>
        <time>2022-10-30T07:56:48.000Z</time>
      </trkpt>
      <trkpt lat="27.698781" lon="86.722259">
        <ele>2718.2</ele>
        <time>2022-10-30T07:56:50.000Z</time>
      </trkpt>
      <trkpt lat="27.698765" lon="86.722291">
        <ele>2717.8</ele>
        <time>2022-10-30T07:56:53.000Z</time>
      </trkpt>
      <trkpt lat="27.698749" lon="86.722304">
        <ele>2717.8</ele>
        <time>2022-10-30T07:56:55.000Z</time>
      </trkpt>
      <trkpt lat="27.698742" lon="86.722323">
        <ele>2717.4</ele>
        <time>2022-10-30T07:57:03.000Z</time>
      </trkpt>
      <trkpt lat="27.69873" lon="86.722342">
        <ele>2717</ele>
        <time>2022-10-30T07:57:46.000Z</time>
      </trkpt>
      <trkpt lat="27.69871" lon="86.722368">
        <ele>2717.2</ele>
        <time>2022-10-30T07:57:48.000Z</time>
      </trkpt>
      <trkpt lat="27.698694" lon="86.7224">
        <ele>2717</ele>
        <time>2022-10-30T07:57:50.000Z</time>
      </trkpt>
      <trkpt lat="27.698669" lon="86.722419">
        <ele>2717</ele>
        <time>2022-10-30T07:57:52.000Z</time>
      </trkpt>
      <trkpt lat="27.698646" lon="86.722432">
        <ele>2717</ele>
        <time>2022-10-30T07:57:54.000Z</time>
      </trkpt>
      <trkpt lat="27.698627" lon="86.722451">
        <ele>2717.2</ele>
        <time>2022-10-30T07:57:56.000Z</time>
      </trkpt>
      <trkpt lat="27.698611" lon="86.72247">
        <ele>2717.2</ele>
        <time>2022-10-30T07:57:59.000Z</time>
      </trkpt>
      <trkpt lat="27.698605" lon="86.72249">
        <ele>2717.2</ele>
        <time>2022-10-30T07:58:00.000Z</time>
      </trkpt>
      <trkpt lat="27.698589" lon="86.722502">
        <ele>2717</ele>
        <time>2022-10-30T07:58:02.000Z</time>
      </trkpt>
      <trkpt lat="27.698563" lon="86.722509">
        <ele>2717</ele>
        <time>2022-10-30T07:58:04.000Z</time>
      </trkpt>
      <trkpt lat="27.698554" lon="86.722528">
        <ele>2717.2</ele>
        <time>2022-10-30T07:58:05.000Z</time>
      </trkpt>
      <trkpt lat="27.698534" lon="86.722547">
        <ele>2717.2</ele>
        <time>2022-10-30T07:58:08.000Z</time>
      </trkpt>
      <trkpt lat="27.698512" lon="86.722566">
        <ele>2717.2</ele>
        <time>2022-10-30T07:58:10.000Z</time>
      </trkpt>
      <trkpt lat="27.698483" lon="86.722579">
        <ele>2717.2</ele>
        <time>2022-10-30T07:58:12.000Z</time>
      </trkpt>
      <trkpt lat="27.698464" lon="86.722598">
        <ele>2717.2</ele>
        <time>2022-10-30T07:58:14.000Z</time>
      </trkpt>
      <trkpt lat="27.698445" lon="86.722605">
        <ele>2717.2</ele>
        <time>2022-10-30T07:58:16.000Z</time>
      </trkpt>
      <trkpt lat="27.698426" lon="86.722618">
        <ele>2717.8</ele>
        <time>2022-10-30T07:58:18.000Z</time>
      </trkpt>
      <trkpt lat="27.698403" lon="86.72263">
        <ele>2717.8</ele>
        <time>2022-10-30T07:58:21.000Z</time>
      </trkpt>
      <trkpt lat="27.69839" lon="86.72265">
        <ele>2717.8</ele>
        <time>2022-10-30T07:58:23.000Z</time>
      </trkpt>
      <trkpt lat="27.698374" lon="86.722669">
        <ele>2717.8</ele>
        <time>2022-10-30T07:58:26.000Z</time>
      </trkpt>
      <trkpt lat="27.698358" lon="86.722688">
        <ele>2718</ele>
        <time>2022-10-30T07:58:28.000Z</time>
      </trkpt>
      <trkpt lat="27.698342" lon="86.722707">
        <ele>2717.8</ele>
        <time>2022-10-30T07:58:30.000Z</time>
      </trkpt>
      <trkpt lat="27.698336" lon="86.722726">
        <ele>2717.8</ele>
        <time>2022-10-30T07:58:31.000Z</time>
      </trkpt>
      <trkpt lat="27.69832" lon="86.722746">
        <ele>2717.2</ele>
        <time>2022-10-30T07:58:34.000Z</time>
      </trkpt>
      <trkpt lat="27.69831" lon="86.722765">
        <ele>2717.2</ele>
        <time>2022-10-30T07:58:35.000Z</time>
      </trkpt>
      <trkpt lat="27.698294" lon="86.722778">
        <ele>2717.2</ele>
        <time>2022-10-30T07:58:37.000Z</time>
      </trkpt>
      <trkpt lat="27.698285" lon="86.722803">
        <ele>2717.2</ele>
        <time>2022-10-30T07:58:39.000Z</time>
      </trkpt>
      <trkpt lat="27.698282" lon="86.722829">
        <ele>2717.2</ele>
        <time>2022-10-30T07:58:41.000Z</time>
      </trkpt>
      <trkpt lat="27.698272" lon="86.722848">
        <ele>2717.4</ele>
        <time>2022-10-30T07:58:43.000Z</time>
      </trkpt>
      <trkpt lat="27.698256" lon="86.72288">
        <ele>2718</ele>
        <time>2022-10-30T07:58:47.000Z</time>
      </trkpt>
      <trkpt lat="27.698243" lon="86.722899">
        <ele>2718.2</ele>
        <time>2022-10-30T07:58:50.000Z</time>
      </trkpt>
      <trkpt lat="27.698234" lon="86.722925">
        <ele>2718.4</ele>
        <time>2022-10-30T07:58:52.000Z</time>
      </trkpt>
      <trkpt lat="27.698221" lon="86.722944">
        <ele>2719</ele>
        <time>2022-10-30T07:58:57.000Z</time>
      </trkpt>
      <trkpt lat="27.698198" lon="86.722957">
        <ele>2719.4</ele>
        <time>2022-10-30T07:59:02.000Z</time>
      </trkpt>
      <trkpt lat="27.698179" lon="86.722976">
        <ele>2719.4</ele>
        <time>2022-10-30T07:59:05.000Z</time>
      </trkpt>
      <trkpt lat="27.69815" lon="86.722989">
        <ele>2719.6</ele>
        <time>2022-10-30T07:59:08.000Z</time>
      </trkpt>
      <trkpt lat="27.698134" lon="86.723008">
        <ele>2720</ele>
        <time>2022-10-30T07:59:10.000Z</time>
      </trkpt>
      <trkpt lat="27.698112" lon="86.723021">
        <ele>2719.6</ele>
        <time>2022-10-30T07:59:12.000Z</time>
      </trkpt>
      <trkpt lat="27.698093" lon="86.723027">
        <ele>2719.6</ele>
        <time>2022-10-30T07:59:14.000Z</time>
      </trkpt>
      <trkpt lat="27.698086" lon="86.723046">
        <ele>2719.6</ele>
        <time>2022-10-30T07:59:15.000Z</time>
      </trkpt>
      <trkpt lat="27.698064" lon="86.723053">
        <ele>2719.4</ele>
        <time>2022-10-30T07:59:17.000Z</time>
      </trkpt>
      <trkpt lat="27.698048" lon="86.723066">
        <ele>2719.2</ele>
        <time>2022-10-30T07:59:19.000Z</time>
      </trkpt>
      <trkpt lat="27.698029" lon="86.723078">
        <ele>2719.2</ele>
        <time>2022-10-30T07:59:21.000Z</time>
      </trkpt>
      <trkpt lat="27.698003" lon="86.723085">
        <ele>2719</ele>
        <time>2022-10-30T07:59:23.000Z</time>
      </trkpt>
      <trkpt lat="27.697981" lon="86.723091">
        <ele>2719.2</ele>
        <time>2022-10-30T07:59:26.000Z</time>
      </trkpt>
      <trkpt lat="27.697962" lon="86.723091">
        <ele>2719</ele>
        <time>2022-10-30T07:59:28.000Z</time>
      </trkpt>
      <trkpt lat="27.697939" lon="86.723098">
        <ele>2719.2</ele>
        <time>2022-10-30T07:59:31.000Z</time>
      </trkpt>
      <trkpt lat="27.697914" lon="86.723098">
        <ele>2719.4</ele>
        <time>2022-10-30T07:59:35.000Z</time>
      </trkpt>
      <trkpt lat="27.697894" lon="86.723098">
        <ele>2719.6</ele>
        <time>2022-10-30T07:59:37.000Z</time>
      </trkpt>
      <trkpt lat="27.697872" lon="86.723098">
        <ele>2720.8</ele>
        <time>2022-10-30T07:59:41.000Z</time>
      </trkpt>
      <trkpt lat="27.69785" lon="86.723117">
        <ele>2721</ele>
        <time>2022-10-30T07:59:43.000Z</time>
      </trkpt>
      <trkpt lat="27.697827" lon="86.723136">
        <ele>2721</ele>
        <time>2022-10-30T07:59:46.000Z</time>
      </trkpt>
      <trkpt lat="27.697805" lon="86.723155">
        <ele>2722</ele>
        <time>2022-10-30T07:59:49.000Z</time>
      </trkpt>
      <trkpt lat="27.697786" lon="86.723162">
        <ele>2722</ele>
        <time>2022-10-30T07:59:51.000Z</time>
      </trkpt>
      <trkpt lat="27.697766" lon="86.723174">
        <ele>2722.6</ele>
        <time>2022-10-30T07:59:55.000Z</time>
      </trkpt>
      <trkpt lat="27.697744" lon="86.723181">
        <ele>2723.2</ele>
        <time>2022-10-30T07:59:59.000Z</time>
      </trkpt>
      <trkpt lat="27.697722" lon="86.7232">
        <ele>2723.4</ele>
        <time>2022-10-30T08:00:02.000Z</time>
      </trkpt>
      <trkpt lat="27.697702" lon="86.723219">
        <ele>2724.8</ele>
        <time>2022-10-30T08:00:07.000Z</time>
      </trkpt>
      <trkpt lat="27.69768" lon="86.723238">
        <ele>2724.2</ele>
        <time>2022-10-30T08:00:10.000Z</time>
      </trkpt>
      <trkpt lat="27.697661" lon="86.723245">
        <ele>2724.6</ele>
        <time>2022-10-30T08:00:13.000Z</time>
      </trkpt>
      <trkpt lat="27.697645" lon="86.723258">
        <ele>2724.6</ele>
        <time>2022-10-30T08:00:16.000Z</time>
      </trkpt>
      <trkpt lat="27.697638" lon="86.72329">
        <ele>2724.4</ele>
        <time>2022-10-30T08:00:19.000Z</time>
      </trkpt>
      <trkpt lat="27.697635" lon="86.723315">
        <ele>2724.2</ele>
        <time>2022-10-30T08:00:22.000Z</time>
      </trkpt>
      <trkpt lat="27.697638" lon="86.723341">
        <ele>2724.2</ele>
        <time>2022-10-30T08:00:24.000Z</time>
      </trkpt>
      <trkpt lat="27.697635" lon="86.723366">
        <ele>2724.4</ele>
        <time>2022-10-30T08:00:26.000Z</time>
      </trkpt>
      <trkpt lat="27.697629" lon="86.723386">
        <ele>2724.6</ele>
        <time>2022-10-30T08:00:28.000Z</time>
      </trkpt>
      <trkpt lat="27.697619" lon="86.723405">
        <ele>2724.6</ele>
        <time>2022-10-30T08:00:30.000Z</time>
      </trkpt>
      <trkpt lat="27.697603" lon="86.723418">
        <ele>2724.8</ele>
        <time>2022-10-30T08:00:32.000Z</time>
      </trkpt>
      <trkpt lat="27.697597" lon="86.723443">
        <ele>2724.4</ele>
        <time>2022-10-30T08:00:34.000Z</time>
      </trkpt>
      <trkpt lat="27.697581" lon="86.723462">
        <ele>2724.8</ele>
        <time>2022-10-30T08:00:37.000Z</time>
      </trkpt>
      <trkpt lat="27.697562" lon="86.723475">
        <ele>2725</ele>
        <time>2022-10-30T08:00:40.000Z</time>
      </trkpt>
      <trkpt lat="27.697546" lon="86.723488">
        <ele>2726</ele>
        <time>2022-10-30T08:00:45.000Z</time>
      </trkpt>
      <trkpt lat="27.69753" lon="86.723514">
        <ele>2727</ele>
        <time>2022-10-30T08:00:49.000Z</time>
      </trkpt>
      <trkpt lat="27.69752" lon="86.723533">
        <ele>2727.8</ele>
        <time>2022-10-30T08:00:53.000Z</time>
      </trkpt>
      <trkpt lat="27.697504" lon="86.723552">
        <ele>2728.4</ele>
        <time>2022-10-30T08:00:57.000Z</time>
      </trkpt>
      <trkpt lat="27.697494" lon="86.723578">
        <ele>2728.4</ele>
        <time>2022-10-30T08:01:00.000Z</time>
      </trkpt>
      <trkpt lat="27.697488" lon="86.723597">
        <ele>2728.8</ele>
        <time>2022-10-30T08:01:02.000Z</time>
      </trkpt>
      <trkpt lat="27.697472" lon="86.723616">
        <ele>2728.8</ele>
        <time>2022-10-30T08:01:06.000Z</time>
      </trkpt>
      <trkpt lat="27.697466" lon="86.723635">
        <ele>2728.8</ele>
        <time>2022-10-30T08:01:08.000Z</time>
      </trkpt>
      <trkpt lat="27.697459" lon="86.723661">
        <ele>2729</ele>
        <time>2022-10-30T08:01:13.000Z</time>
      </trkpt>
      <trkpt lat="27.697459" lon="86.723686">
        <ele>2729.2</ele>
        <time>2022-10-30T08:01:17.000Z</time>
      </trkpt>
      <trkpt lat="27.697459" lon="86.723712">
        <ele>2729.6</ele>
        <time>2022-10-30T08:01:20.000Z</time>
      </trkpt>
      <trkpt lat="27.697443" lon="86.723725">
        <ele>2730.4</ele>
        <time>2022-10-30T08:01:44.000Z</time>
      </trkpt>
      <trkpt lat="27.697427" lon="86.723757">
        <ele>2730.4</ele>
        <time>2022-10-30T08:01:46.000Z</time>
      </trkpt>
      <trkpt lat="27.697411" lon="86.723776">
        <ele>2730.4</ele>
        <time>2022-10-30T08:01:48.000Z</time>
      </trkpt>
      <trkpt lat="27.697398" lon="86.723795">
        <ele>2730.4</ele>
        <time>2022-10-30T08:01:49.000Z</time>
      </trkpt>
      <trkpt lat="27.697373" lon="86.723814">
        <ele>2730.4</ele>
        <time>2022-10-30T08:01:51.000Z</time>
      </trkpt>
      <trkpt lat="27.697366" lon="86.723834">
        <ele>2730.4</ele>
        <time>2022-10-30T08:01:52.000Z</time>
      </trkpt>
      <trkpt lat="27.697347" lon="86.723859">
        <ele>2730.6</ele>
        <time>2022-10-30T08:01:55.000Z</time>
      </trkpt>
      <trkpt lat="27.697338" lon="86.723878">
        <ele>2731.2</ele>
        <time>2022-10-30T08:01:58.000Z</time>
      </trkpt>
      <trkpt lat="27.697322" lon="86.723891">
        <ele>2731.2</ele>
        <time>2022-10-30T08:02:02.000Z</time>
      </trkpt>
      <trkpt lat="27.697302" lon="86.723898">
        <ele>2731.6</ele>
        <time>2022-10-30T08:02:04.000Z</time>
      </trkpt>
      <trkpt lat="27.697286" lon="86.72391">
        <ele>2731.8</ele>
        <time>2022-10-30T08:02:06.000Z</time>
      </trkpt>
      <trkpt lat="27.697283" lon="86.723936">
        <ele>2731</ele>
        <time>2022-10-30T08:02:08.000Z</time>
      </trkpt>
      <trkpt lat="27.697274" lon="86.723955">
        <ele>2731.2</ele>
        <time>2022-10-30T08:02:10.000Z</time>
      </trkpt>
      <trkpt lat="27.697254" lon="86.723968">
        <ele>2731.4</ele>
        <time>2022-10-30T08:02:13.000Z</time>
      </trkpt>
      <trkpt lat="27.697238" lon="86.723994">
        <ele>2731.6</ele>
        <time>2022-10-30T08:02:16.000Z</time>
      </trkpt>
      <trkpt lat="27.697222" lon="86.724006">
        <ele>2731.6</ele>
        <time>2022-10-30T08:02:19.000Z</time>
      </trkpt>
      <trkpt lat="27.697203" lon="86.724032">
        <ele>2731.6</ele>
        <time>2022-10-30T08:02:22.000Z</time>
      </trkpt>
      <trkpt lat="27.69719" lon="86.724051">
        <ele>2732</ele>
        <time>2022-10-30T08:02:25.000Z</time>
      </trkpt>
      <trkpt lat="27.697181" lon="86.72407">
        <ele>2732.2</ele>
        <time>2022-10-30T08:02:27.000Z</time>
      </trkpt>
      <trkpt lat="27.697165" lon="86.724083">
        <ele>2732.4</ele>
        <time>2022-10-30T08:02:35.000Z</time>
      </trkpt>
      <trkpt lat="27.697146" lon="86.724096">
        <ele>2733</ele>
        <time>2022-10-30T08:02:41.000Z</time>
      </trkpt>
      <trkpt lat="27.697139" lon="86.724115">
        <ele>2733.4</ele>
        <time>2022-10-30T08:02:44.000Z</time>
      </trkpt>
      <trkpt lat="27.69712" lon="86.724128">
        <ele>2734</ele>
        <time>2022-10-30T08:02:50.000Z</time>
      </trkpt>
      <trkpt lat="27.69711" lon="86.724154">
        <ele>2734</ele>
        <time>2022-10-30T08:02:52.000Z</time>
      </trkpt>
      <trkpt lat="27.697094" lon="86.724166">
        <ele>2735</ele>
        <time>2022-10-30T08:02:56.000Z</time>
      </trkpt>
      <trkpt lat="27.697072" lon="86.724179">
        <ele>2735.6</ele>
        <time>2022-10-30T08:03:01.000Z</time>
      </trkpt>
      <trkpt lat="27.697062" lon="86.724198">
        <ele>2736.2</ele>
        <time>2022-10-30T08:03:03.000Z</time>
      </trkpt>
      <trkpt lat="27.697043" lon="86.724218">
        <ele>2736.8</ele>
        <time>2022-10-30T08:03:08.000Z</time>
      </trkpt>
      <trkpt lat="27.69703" lon="86.724237">
        <ele>2737.2</ele>
        <time>2022-10-30T08:03:11.000Z</time>
      </trkpt>
      <trkpt lat="27.697021" lon="86.724256">
        <ele>2737.6</ele>
        <time>2022-10-30T08:03:14.000Z</time>
      </trkpt>
      <trkpt lat="27.697011" lon="86.724275">
        <ele>2738.2</ele>
        <time>2022-10-30T08:03:17.000Z</time>
      </trkpt>
      <trkpt lat="27.697005" lon="86.724294">
        <ele>2738.4</ele>
        <time>2022-10-30T08:03:20.000Z</time>
      </trkpt>
      <trkpt lat="27.696995" lon="86.72432">
        <ele>2739</ele>
        <time>2022-10-30T08:03:23.000Z</time>
      </trkpt>
      <trkpt lat="27.696976" lon="86.724339">
        <ele>2739</ele>
        <time>2022-10-30T08:03:26.000Z</time>
      </trkpt>
      <trkpt lat="27.69696" lon="86.724352">
        <ele>2739</ele>
        <time>2022-10-30T08:03:28.000Z</time>
      </trkpt>
      <trkpt lat="27.696941" lon="86.724365">
        <ele>2739.4</ele>
        <time>2022-10-30T08:03:31.000Z</time>
      </trkpt>
      <trkpt lat="27.696934" lon="86.72439">
        <ele>2739.6</ele>
        <time>2022-10-30T08:03:34.000Z</time>
      </trkpt>
      <trkpt lat="27.696931" lon="86.724416">
        <ele>2739.6</ele>
        <time>2022-10-30T08:03:37.000Z</time>
      </trkpt>
      <trkpt lat="27.696915" lon="86.724435">
        <ele>2739.8</ele>
        <time>2022-10-30T08:03:40.000Z</time>
      </trkpt>
      <trkpt lat="27.696902" lon="86.724454">
        <ele>2740.4</ele>
        <time>2022-10-30T08:03:43.000Z</time>
      </trkpt>
      <trkpt lat="27.696883" lon="86.724467">
        <ele>2740.8</ele>
        <time>2022-10-30T08:03:46.000Z</time>
      </trkpt>
      <trkpt lat="27.696867" lon="86.72448">
        <ele>2741.2</ele>
        <time>2022-10-30T08:03:49.000Z</time>
      </trkpt>
      <trkpt lat="27.696845" lon="86.724493">
        <ele>2741.4</ele>
        <time>2022-10-30T08:03:52.000Z</time>
      </trkpt>
      <trkpt lat="27.696832" lon="86.724512">
        <ele>2741.4</ele>
        <time>2022-10-30T08:03:56.000Z</time>
      </trkpt>
      <trkpt lat="27.696826" lon="86.724531">
        <ele>2742</ele>
        <time>2022-10-30T08:03:59.000Z</time>
      </trkpt>
      <trkpt lat="27.696816" lon="86.72455">
        <ele>2742</ele>
        <time>2022-10-30T08:04:01.000Z</time>
      </trkpt>
      <trkpt lat="27.696806" lon="86.72457">
        <ele>2742</ele>
        <time>2022-10-30T08:04:04.000Z</time>
      </trkpt>
      <trkpt lat="27.696803" lon="86.724595">
        <ele>2742.6</ele>
        <time>2022-10-30T08:04:07.000Z</time>
      </trkpt>
      <trkpt lat="27.696797" lon="86.724614">
        <ele>2742.2</ele>
        <time>2022-10-30T08:04:09.000Z</time>
      </trkpt>
      <trkpt lat="27.696787" lon="86.724634">
        <ele>2742.8</ele>
        <time>2022-10-30T08:04:11.000Z</time>
      </trkpt>
      <trkpt lat="27.696771" lon="86.724646">
        <ele>2743.2</ele>
        <time>2022-10-30T08:04:14.000Z</time>
      </trkpt>
      <trkpt lat="27.696762" lon="86.724666">
        <ele>2743.6</ele>
        <time>2022-10-30T08:04:17.000Z</time>
      </trkpt>
      <trkpt lat="27.696746" lon="86.724678">
        <ele>2743.6</ele>
        <time>2022-10-30T08:04:22.000Z</time>
      </trkpt>
      <trkpt lat="27.696733" lon="86.724704">
        <ele>2744</ele>
        <time>2022-10-30T08:04:25.000Z</time>
      </trkpt>
      <trkpt lat="27.696726" lon="86.724723">
        <ele>2744.2</ele>
        <time>2022-10-30T08:04:28.000Z</time>
      </trkpt>
      <trkpt lat="27.696714" lon="86.724749">
        <ele>2744.6</ele>
        <time>2022-10-30T08:04:31.000Z</time>
      </trkpt>
      <trkpt lat="27.696694" lon="86.724768">
        <ele>2744.8</ele>
        <time>2022-10-30T08:04:34.000Z</time>
      </trkpt>
      <trkpt lat="27.696682" lon="86.724794">
        <ele>2744.8</ele>
        <time>2022-10-30T08:04:37.000Z</time>
      </trkpt>
      <trkpt lat="27.696662" lon="86.724806">
        <ele>2745.6</ele>
        <time>2022-10-30T08:04:43.000Z</time>
      </trkpt>
      <trkpt lat="27.69665" lon="86.724826">
        <ele>2746</ele>
        <time>2022-10-30T08:04:45.000Z</time>
      </trkpt>
      <trkpt lat="27.696643" lon="86.724851">
        <ele>2746.2</ele>
        <time>2022-10-30T08:04:48.000Z</time>
      </trkpt>
      <trkpt lat="27.696637" lon="86.72487">
        <ele>2746.4</ele>
        <time>2022-10-30T08:04:50.000Z</time>
      </trkpt>
      <trkpt lat="27.696618" lon="86.724883">
        <ele>2746.8</ele>
        <time>2022-10-30T08:04:54.000Z</time>
      </trkpt>
      <trkpt lat="27.696608" lon="86.724902">
        <ele>2747.2</ele>
        <time>2022-10-30T08:04:57.000Z</time>
      </trkpt>
      <trkpt lat="27.696566" lon="86.724928">
        <ele>2748.8</ele>
        <time>2022-10-30T08:05:04.000Z</time>
      </trkpt>
      <trkpt lat="27.696554" lon="86.724947">
        <ele>2748.4</ele>
        <time>2022-10-30T08:05:06.000Z</time>
      </trkpt>
      <trkpt lat="27.696534" lon="86.72496">
        <ele>2748.6</ele>
        <time>2022-10-30T08:05:08.000Z</time>
      </trkpt>
      <trkpt lat="27.696515" lon="86.72496">
        <ele>2748.8</ele>
        <time>2022-10-30T08:05:10.000Z</time>
      </trkpt>
      <trkpt lat="27.696499" lon="86.724973">
        <ele>2749</ele>
        <time>2022-10-30T08:05:12.000Z</time>
      </trkpt>
      <trkpt lat="27.696477" lon="86.724986">
        <ele>2749.2</ele>
        <time>2022-10-30T08:05:15.000Z</time>
      </trkpt>
      <trkpt lat="27.696454" lon="86.724986">
        <ele>2748.8</ele>
        <time>2022-10-30T08:05:18.000Z</time>
      </trkpt>
      <trkpt lat="27.696435" lon="86.724992">
        <ele>2749</ele>
        <time>2022-10-30T08:05:22.000Z</time>
      </trkpt>
      <trkpt lat="27.696416" lon="86.724998">
        <ele>2750.4</ele>
        <time>2022-10-30T08:05:26.000Z</time>
      </trkpt>
      <trkpt lat="27.696394" lon="86.725005">
        <ele>2751.2</ele>
        <time>2022-10-30T08:05:30.000Z</time>
      </trkpt>
      <trkpt lat="27.696381" lon="86.725024">
        <ele>2751.4</ele>
        <time>2022-10-30T08:05:33.000Z</time>
      </trkpt>
      <trkpt lat="27.696365" lon="86.725037">
        <ele>2752</ele>
        <time>2022-10-30T08:05:36.000Z</time>
      </trkpt>
      <trkpt lat="27.696349" lon="86.72505">
        <ele>2752.6</ele>
        <time>2022-10-30T08:05:39.000Z</time>
      </trkpt>
      <trkpt lat="27.696326" lon="86.725069">
        <ele>2752.8</ele>
        <time>2022-10-30T08:05:42.000Z</time>
      </trkpt>
      <trkpt lat="27.696304" lon="86.725075">
        <ele>2753</ele>
        <time>2022-10-30T08:05:45.000Z</time>
      </trkpt>
      <trkpt lat="27.696288" lon="86.725088">
        <ele>2753.8</ele>
        <time>2022-10-30T08:05:47.000Z</time>
      </trkpt>
      <trkpt lat="27.696269" lon="86.725088">
        <ele>2753.8</ele>
        <time>2022-10-30T08:05:49.000Z</time>
      </trkpt>
      <trkpt lat="27.69625" lon="86.725101">
        <ele>2753.8</ele>
        <time>2022-10-30T08:05:52.000Z</time>
      </trkpt>
      <trkpt lat="27.696237" lon="86.72512">
        <ele>2753.6</ele>
        <time>2022-10-30T08:06:00.000Z</time>
      </trkpt>
      <trkpt lat="27.696246" lon="86.725146">
        <ele>2754.2</ele>
        <time>2022-10-30T08:06:10.000Z</time>
      </trkpt>
      <trkpt lat="27.696256" lon="86.725165">
        <ele>2755.4</ele>
        <time>2022-10-30T08:06:14.000Z</time>
      </trkpt>
      <trkpt lat="27.696275" lon="86.725184">
        <ele>2755.8</ele>
        <time>2022-10-30T08:06:19.000Z</time>
      </trkpt>
      <trkpt lat="27.696291" lon="86.725197">
        <ele>2757.2</ele>
        <time>2022-10-30T08:06:25.000Z</time>
      </trkpt>
      <trkpt lat="27.696314" lon="86.725197">
        <ele>2757</ele>
        <time>2022-10-30T08:06:29.000Z</time>
      </trkpt>
      <trkpt lat="27.696307" lon="86.725222">
        <ele>2758.2</ele>
        <time>2022-10-30T08:06:35.000Z</time>
      </trkpt>
      <trkpt lat="27.696288" lon="86.725242">
        <ele>2758.8</ele>
        <time>2022-10-30T08:06:39.000Z</time>
      </trkpt>
      <trkpt lat="27.696269" lon="86.725261">
        <ele>2759.2</ele>
        <time>2022-10-30T08:06:42.000Z</time>
      </trkpt>
      <trkpt lat="27.696253" lon="86.725274">
        <ele>2759.4</ele>
        <time>2022-10-30T08:06:45.000Z</time>
      </trkpt>
      <trkpt lat="27.696266" lon="86.725306">
        <ele>2761.4</ele>
        <time>2022-10-30T08:06:57.000Z</time>
      </trkpt>
      <trkpt lat="27.696269" lon="86.725344">
        <ele>2762.2</ele>
        <time>2022-10-30T08:07:03.000Z</time>
      </trkpt>
      <trkpt lat="27.696275" lon="86.72537">
        <ele>2762.4</ele>
        <time>2022-10-30T08:07:06.000Z</time>
      </trkpt>
      <trkpt lat="27.696269" lon="86.725395">
        <ele>2762.8</ele>
        <time>2022-10-30T08:07:08.000Z</time>
      </trkpt>
      <trkpt lat="27.696269" lon="86.725421">
        <ele>2762.8</ele>
        <time>2022-10-30T08:07:10.000Z</time>
      </trkpt>
      <trkpt lat="27.696266" lon="86.725446">
        <ele>2762.2</ele>
        <time>2022-10-30T08:07:12.000Z</time>
      </trkpt>
      <trkpt lat="27.696256" lon="86.725466">
        <ele>2762.4</ele>
        <time>2022-10-30T08:07:14.000Z</time>
      </trkpt>
      <trkpt lat="27.69625" lon="86.725485">
        <ele>2762.4</ele>
        <time>2022-10-30T08:07:15.000Z</time>
      </trkpt>
      <trkpt lat="27.696237" lon="86.725504">
        <ele>2762.4</ele>
        <time>2022-10-30T08:07:16.000Z</time>
      </trkpt>
      <trkpt lat="27.696227" lon="86.725523">
        <ele>2762.6</ele>
        <time>2022-10-30T08:07:19.000Z</time>
      </trkpt>
      <trkpt lat="27.696202" lon="86.72553">
        <ele>2762.4</ele>
        <time>2022-10-30T08:07:21.000Z</time>
      </trkpt>
      <trkpt lat="27.69617" lon="86.72553">
        <ele>2762</ele>
        <time>2022-10-30T08:07:23.000Z</time>
      </trkpt>
      <trkpt lat="27.696147" lon="86.72553">
        <ele>2761</ele>
        <time>2022-10-30T08:07:25.000Z</time>
      </trkpt>
      <trkpt lat="27.696131" lon="86.725542">
        <ele>2760.8</ele>
        <time>2022-10-30T08:07:26.000Z</time>
      </trkpt>
      <trkpt lat="27.696109" lon="86.725542">
        <ele>2760.8</ele>
        <time>2022-10-30T08:07:29.000Z</time>
      </trkpt>
      <trkpt lat="27.696086" lon="86.72553">
        <ele>2760.8</ele>
        <time>2022-10-30T08:07:31.000Z</time>
      </trkpt>
      <trkpt lat="27.696067" lon="86.725542">
        <ele>2761.2</ele>
        <time>2022-10-30T08:07:33.000Z</time>
      </trkpt>
      <trkpt lat="27.696048" lon="86.725542">
        <ele>2760.8</ele>
        <time>2022-10-30T08:07:35.000Z</time>
      </trkpt>
      <trkpt lat="27.696022" lon="86.725542">
        <ele>2761.2</ele>
        <time>2022-10-30T08:07:37.000Z</time>
      </trkpt>
      <trkpt lat="27.696" lon="86.725549">
        <ele>2761.2</ele>
        <time>2022-10-30T08:07:40.000Z</time>
      </trkpt>
      <trkpt lat="27.695981" lon="86.725555">
        <ele>2761.6</ele>
        <time>2022-10-30T08:07:44.000Z</time>
      </trkpt>
      <trkpt lat="27.695962" lon="86.725568">
        <ele>2762</ele>
        <time>2022-10-30T08:07:51.000Z</time>
      </trkpt>
      <trkpt lat="27.695952" lon="86.725587">
        <ele>2762.2</ele>
        <time>2022-10-30T08:07:54.000Z</time>
      </trkpt>
      <trkpt lat="27.695936" lon="86.7256">
        <ele>2762.2</ele>
        <time>2022-10-30T08:07:58.000Z</time>
      </trkpt>
      <trkpt lat="27.695901" lon="86.725626">
        <ele>2766</ele>
        <time>2022-10-30T08:10:16.000Z</time>
      </trkpt>
      <trkpt lat="27.695882" lon="86.725658">
        <ele>2766.4</ele>
        <time>2022-10-30T08:10:18.000Z</time>
      </trkpt>
      <trkpt lat="27.695862" lon="86.725683">
        <ele>2766.6</ele>
        <time>2022-10-30T08:10:20.000Z</time>
      </trkpt>
      <trkpt lat="27.695853" lon="86.725709">
        <ele>2766.6</ele>
        <time>2022-10-30T08:10:21.000Z</time>
      </trkpt>
      <trkpt lat="27.69584" lon="86.725728">
        <ele>2766.8</ele>
        <time>2022-10-30T08:10:23.000Z</time>
      </trkpt>
      <trkpt lat="27.69583" lon="86.725747">
        <ele>2767.2</ele>
        <time>2022-10-30T08:10:24.000Z</time>
      </trkpt>
      <trkpt lat="27.695811" lon="86.725779">
        <ele>2767.4</ele>
        <time>2022-10-30T08:10:27.000Z</time>
      </trkpt>
      <trkpt lat="27.695792" lon="86.725786">
        <ele>2767.8</ele>
        <time>2022-10-30T08:10:30.000Z</time>
      </trkpt>
      <trkpt lat="27.695779" lon="86.725805">
        <ele>2768.8</ele>
        <time>2022-10-30T08:10:33.000Z</time>
      </trkpt>
      <trkpt lat="27.695766" lon="86.725824">
        <ele>2769.2</ele>
        <time>2022-10-30T08:10:39.000Z</time>
      </trkpt>
      <trkpt lat="27.69576" lon="86.725843">
        <ele>2770.6</ele>
        <time>2022-10-30T08:10:47.000Z</time>
      </trkpt>
      <trkpt lat="27.695744" lon="86.725862">
        <ele>2771.4</ele>
        <time>2022-10-30T08:10:53.000Z</time>
      </trkpt>
      <trkpt lat="27.695734" lon="86.725882">
        <ele>2772.6</ele>
        <time>2022-10-30T08:10:58.000Z</time>
      </trkpt>
      <trkpt lat="27.695725" lon="86.725901">
        <ele>2772.8</ele>
        <time>2022-10-30T08:11:02.000Z</time>
      </trkpt>
      <trkpt lat="27.695706" lon="86.725914">
        <ele>2773.6</ele>
        <time>2022-10-30T08:11:08.000Z</time>
      </trkpt>
      <trkpt lat="27.695677" lon="86.725914">
        <ele>2773.8</ele>
        <time>2022-10-30T08:11:11.000Z</time>
      </trkpt>
      <trkpt lat="27.695658" lon="86.725914">
        <ele>2774.8</ele>
        <time>2022-10-30T08:11:15.000Z</time>
      </trkpt>
      <trkpt lat="27.695635" lon="86.725907">
        <ele>2775.2</ele>
        <time>2022-10-30T08:11:19.000Z</time>
      </trkpt>
      <trkpt lat="27.695616" lon="86.725907">
        <ele>2775.4</ele>
        <time>2022-10-30T08:11:24.000Z</time>
      </trkpt>
      <trkpt lat="27.6956" lon="86.72592">
        <ele>2775.8</ele>
        <time>2022-10-30T08:11:27.000Z</time>
      </trkpt>
      <trkpt lat="27.695581" lon="86.725926">
        <ele>2777.2</ele>
        <time>2022-10-30T08:11:32.000Z</time>
      </trkpt>
      <trkpt lat="27.695565" lon="86.725946">
        <ele>2777.4</ele>
        <time>2022-10-30T08:11:35.000Z</time>
      </trkpt>
      <trkpt lat="27.695539" lon="86.725952">
        <ele>2777.6</ele>
        <time>2022-10-30T08:11:39.000Z</time>
      </trkpt>
      <trkpt lat="27.69552" lon="86.725958">
        <ele>2778.2</ele>
        <time>2022-10-30T08:11:43.000Z</time>
      </trkpt>
      <trkpt lat="27.695507" lon="86.725978">
        <ele>2778.8</ele>
        <time>2022-10-30T08:11:46.000Z</time>
      </trkpt>
      <trkpt lat="27.695485" lon="86.725978">
        <ele>2779.2</ele>
        <time>2022-10-30T08:11:50.000Z</time>
      </trkpt>
      <trkpt lat="27.695466" lon="86.725984">
        <ele>2780.2</ele>
        <time>2022-10-30T08:11:54.000Z</time>
      </trkpt>
      <trkpt lat="27.695446" lon="86.72599">
        <ele>2780.8</ele>
        <time>2022-10-30T08:11:58.000Z</time>
      </trkpt>
      <trkpt lat="27.69543" lon="86.726003">
        <ele>2781.2</ele>
        <time>2022-10-30T08:12:01.000Z</time>
      </trkpt>
      <trkpt lat="27.695414" lon="86.726016">
        <ele>2781.6</ele>
        <time>2022-10-30T08:12:05.000Z</time>
      </trkpt>
      <trkpt lat="27.695395" lon="86.726016">
        <ele>2781.6</ele>
        <time>2022-10-30T08:12:08.000Z</time>
      </trkpt>
      <trkpt lat="27.695376" lon="86.726016">
        <ele>2782.2</ele>
        <time>2022-10-30T08:12:12.000Z</time>
      </trkpt>
      <trkpt lat="27.69536" lon="86.726003">
        <ele>2782.8</ele>
        <time>2022-10-30T08:12:15.000Z</time>
      </trkpt>
      <trkpt lat="27.695341" lon="86.726003">
        <ele>2783</ele>
        <time>2022-10-30T08:12:18.000Z</time>
      </trkpt>
      <trkpt lat="27.695325" lon="86.726016">
        <ele>2783.2</ele>
        <time>2022-10-30T08:12:20.000Z</time>
      </trkpt>
      <trkpt lat="27.695306" lon="86.726022">
        <ele>2783.8</ele>
        <time>2022-10-30T08:12:25.000Z</time>
      </trkpt>
      <trkpt lat="27.695293" lon="86.726042">
        <ele>2784.4</ele>
        <time>2022-10-30T08:12:28.000Z</time>
      </trkpt>
      <trkpt lat="27.695274" lon="86.726054">
        <ele>2785.4</ele>
        <time>2022-10-30T08:12:33.000Z</time>
      </trkpt>
      <trkpt lat="27.695258" lon="86.726067">
        <ele>2785.8</ele>
        <time>2022-10-30T08:12:37.000Z</time>
      </trkpt>
      <trkpt lat="27.695248" lon="86.726086">
        <ele>2786.8</ele>
        <time>2022-10-30T08:12:42.000Z</time>
      </trkpt>
      <trkpt lat="27.695242" lon="86.726106">
        <ele>2787.4</ele>
        <time>2022-10-30T08:12:47.000Z</time>
      </trkpt>
      <trkpt lat="27.695219" lon="86.726112">
        <ele>2787.6</ele>
        <time>2022-10-30T08:12:51.000Z</time>
      </trkpt>
      <trkpt lat="27.695197" lon="86.726125">
        <ele>2788.4</ele>
        <time>2022-10-30T08:12:54.000Z</time>
      </trkpt>
      <trkpt lat="27.695174" lon="86.726125">
        <ele>2788.8</ele>
        <time>2022-10-30T08:12:57.000Z</time>
      </trkpt>
      <trkpt lat="27.695155" lon="86.726125">
        <ele>2788.8</ele>
        <time>2022-10-30T08:13:00.000Z</time>
      </trkpt>
      <trkpt lat="27.695139" lon="86.726138">
        <ele>2790</ele>
        <time>2022-10-30T08:13:04.000Z</time>
      </trkpt>
      <trkpt lat="27.695123" lon="86.72615">
        <ele>2790.2</ele>
        <time>2022-10-30T08:13:07.000Z</time>
      </trkpt>
      <trkpt lat="27.695104" lon="86.726144">
        <ele>2790.8</ele>
        <time>2022-10-30T08:13:11.000Z</time>
      </trkpt>
      <trkpt lat="27.695094" lon="86.726163">
        <ele>2792</ele>
        <time>2022-10-30T08:13:18.000Z</time>
      </trkpt>
      <trkpt lat="27.695094" lon="86.726189">
        <ele>2792.6</ele>
        <time>2022-10-30T08:13:20.000Z</time>
      </trkpt>
      <trkpt lat="27.695088" lon="86.726214">
        <ele>2792.6</ele>
        <time>2022-10-30T08:13:22.000Z</time>
      </trkpt>
      <trkpt lat="27.695075" lon="86.726234">
        <ele>2792.8</ele>
        <time>2022-10-30T08:13:25.000Z</time>
      </trkpt>
      <trkpt lat="27.695069" lon="86.726253">
        <ele>2793.2</ele>
        <time>2022-10-30T08:13:27.000Z</time>
      </trkpt>
      <trkpt lat="27.695059" lon="86.726272">
        <ele>2793.4</ele>
        <time>2022-10-30T08:13:30.000Z</time>
      </trkpt>
      <trkpt lat="27.695053" lon="86.726298">
        <ele>2793.6</ele>
        <time>2022-10-30T08:13:34.000Z</time>
      </trkpt>
      <trkpt lat="27.69505" lon="86.726323">
        <ele>2794.2</ele>
        <time>2022-10-30T08:13:37.000Z</time>
      </trkpt>
      <trkpt lat="27.695037" lon="86.726349">
        <ele>2794.2</ele>
        <time>2022-10-30T08:13:41.000Z</time>
      </trkpt>
      <trkpt lat="27.69503" lon="86.726381">
        <ele>2794.2</ele>
        <time>2022-10-30T08:13:43.000Z</time>
      </trkpt>
      <trkpt lat="27.695027" lon="86.726413">
        <ele>2794.6</ele>
        <time>2022-10-30T08:13:45.000Z</time>
      </trkpt>
      <trkpt lat="27.694998" lon="86.726426">
        <ele>2794.8</ele>
        <time>2022-10-30T08:13:47.000Z</time>
      </trkpt>
      <trkpt lat="27.694979" lon="86.726438">
        <ele>2794.6</ele>
        <time>2022-10-30T08:13:50.000Z</time>
      </trkpt>
      <trkpt lat="27.69496" lon="86.726438">
        <ele>2795</ele>
        <time>2022-10-30T08:13:53.000Z</time>
      </trkpt>
      <trkpt lat="27.694944" lon="86.726451">
        <ele>2795.4</ele>
        <time>2022-10-30T08:13:56.000Z</time>
      </trkpt>
      <trkpt lat="27.694922" lon="86.726451">
        <ele>2795.8</ele>
        <time>2022-10-30T08:14:00.000Z</time>
      </trkpt>
      <trkpt lat="27.694902" lon="86.726458">
        <ele>2796.4</ele>
        <time>2022-10-30T08:14:03.000Z</time>
      </trkpt>
      <trkpt lat="27.694877" lon="86.72647">
        <ele>2796.6</ele>
        <time>2022-10-30T08:14:08.000Z</time>
      </trkpt>
      <trkpt lat="27.694854" lon="86.72647">
        <ele>2798</ele>
        <time>2022-10-30T08:14:13.000Z</time>
      </trkpt>
      <trkpt lat="27.694835" lon="86.726477">
        <ele>2798.2</ele>
        <time>2022-10-30T08:14:17.000Z</time>
      </trkpt>
      <trkpt lat="27.694816" lon="86.726477">
        <ele>2798.6</ele>
        <time>2022-10-30T08:14:20.000Z</time>
      </trkpt>
      <trkpt lat="27.694797" lon="86.726483">
        <ele>2799.4</ele>
        <time>2022-10-30T08:14:25.000Z</time>
      </trkpt>
      <trkpt lat="27.694778" lon="86.726496">
        <ele>2800.2</ele>
        <time>2022-10-30T08:14:30.000Z</time>
      </trkpt>
      <trkpt lat="27.694758" lon="86.726502">
        <ele>2800.6</ele>
        <time>2022-10-30T08:14:34.000Z</time>
      </trkpt>
      <trkpt lat="27.694742" lon="86.726515">
        <ele>2801.2</ele>
        <time>2022-10-30T08:14:37.000Z</time>
      </trkpt>
      <trkpt lat="27.694739" lon="86.726541">
        <ele>2801.6</ele>
        <time>2022-10-30T08:14:40.000Z</time>
      </trkpt>
      <trkpt lat="27.69473" lon="86.72656">
        <ele>2802.6</ele>
        <time>2022-10-30T08:14:44.000Z</time>
      </trkpt>
      <trkpt lat="27.694733" lon="86.726586">
        <ele>2802.8</ele>
        <time>2022-10-30T08:14:47.000Z</time>
      </trkpt>
      <trkpt lat="27.69473" lon="86.726611">
        <ele>2803.2</ele>
        <time>2022-10-30T08:14:49.000Z</time>
      </trkpt>
      <trkpt lat="27.69473" lon="86.726637">
        <ele>2803.6</ele>
        <time>2022-10-30T08:14:53.000Z</time>
      </trkpt>
      <trkpt lat="27.694726" lon="86.726662">
        <ele>2803.8</ele>
        <time>2022-10-30T08:14:56.000Z</time>
      </trkpt>
      <trkpt lat="27.694717" lon="86.726682">
        <ele>2804.2</ele>
        <time>2022-10-30T08:14:59.000Z</time>
      </trkpt>
      <trkpt lat="27.694707" lon="86.726733">
        <ele>2805.4</ele>
        <time>2022-10-30T08:15:04.000Z</time>
      </trkpt>
      <trkpt lat="27.694694" lon="86.726752">
        <ele>2805.4</ele>
        <time>2022-10-30T08:15:07.000Z</time>
      </trkpt>
      <trkpt lat="27.694688" lon="86.726771">
        <ele>2805.6</ele>
        <time>2022-10-30T08:15:09.000Z</time>
      </trkpt>
      <trkpt lat="27.694672" lon="86.726784">
        <ele>2805.6</ele>
        <time>2022-10-30T08:15:12.000Z</time>
      </trkpt>
      <trkpt lat="27.694656" lon="86.726797">
        <ele>2805.6</ele>
        <time>2022-10-30T08:15:15.000Z</time>
      </trkpt>
      <trkpt lat="27.694627" lon="86.726822">
        <ele>2806.6</ele>
        <time>2022-10-30T08:15:23.000Z</time>
      </trkpt>
      <trkpt lat="27.694541" lon="86.726797">
        <ele>2810</ele>
        <time>2022-10-30T08:17:10.000Z</time>
      </trkpt>
      <trkpt lat="27.694515" lon="86.726797">
        <ele>2810.4</ele>
        <time>2022-10-30T08:17:13.000Z</time>
      </trkpt>
      <trkpt lat="27.694493" lon="86.72679">
        <ele>2810.4</ele>
        <time>2022-10-30T08:17:15.000Z</time>
      </trkpt>
      <trkpt lat="27.69447" lon="86.72679">
        <ele>2811</ele>
        <time>2022-10-30T08:17:17.000Z</time>
      </trkpt>
      <trkpt lat="27.694448" lon="86.72679">
        <ele>2811</ele>
        <time>2022-10-30T08:17:19.000Z</time>
      </trkpt>
      <trkpt lat="27.694429" lon="86.72679">
        <ele>2811.6</ele>
        <time>2022-10-30T08:17:23.000Z</time>
      </trkpt>
      <trkpt lat="27.69441" lon="86.72679">
        <ele>2811.8</ele>
        <time>2022-10-30T08:17:26.000Z</time>
      </trkpt>
      <trkpt lat="27.6944" lon="86.72681">
        <ele>2812.6</ele>
        <time>2022-10-30T08:17:29.000Z</time>
      </trkpt>
      <trkpt lat="27.694381" lon="86.726829">
        <ele>2812.8</ele>
        <time>2022-10-30T08:17:33.000Z</time>
      </trkpt>
      <trkpt lat="27.694362" lon="86.726842">
        <ele>2813</ele>
        <time>2022-10-30T08:17:36.000Z</time>
      </trkpt>
      <trkpt lat="27.694355" lon="86.726861">
        <ele>2813.4</ele>
        <time>2022-10-30T08:17:38.000Z</time>
      </trkpt>
      <trkpt lat="27.694333" lon="86.726861">
        <ele>2813.4</ele>
        <time>2022-10-30T08:17:41.000Z</time>
      </trkpt>
      <trkpt lat="27.69431" lon="86.726874">
        <ele>2813.6</ele>
        <time>2022-10-30T08:17:44.000Z</time>
      </trkpt>
      <trkpt lat="27.694301" lon="86.726893">
        <ele>2814</ele>
        <time>2022-10-30T08:17:46.000Z</time>
      </trkpt>
      <trkpt lat="27.694282" lon="86.726899">
        <ele>2814.2</ele>
        <time>2022-10-30T08:17:49.000Z</time>
      </trkpt>
      <trkpt lat="27.694262" lon="86.726906">
        <ele>2814.2</ele>
        <time>2022-10-30T08:17:53.000Z</time>
      </trkpt>
      <trkpt lat="27.694243" lon="86.726918">
        <ele>2815.2</ele>
        <time>2022-10-30T08:17:56.000Z</time>
      </trkpt>
      <trkpt lat="27.694224" lon="86.726918">
        <ele>2815.6</ele>
        <time>2022-10-30T08:17:59.000Z</time>
      </trkpt>
      <trkpt lat="27.694205" lon="86.726938">
        <ele>2815.8</ele>
        <time>2022-10-30T08:18:02.000Z</time>
      </trkpt>
      <trkpt lat="27.694186" lon="86.72695">
        <ele>2816</ele>
        <time>2022-10-30T08:18:06.000Z</time>
      </trkpt>
      <trkpt lat="27.694163" lon="86.72697">
        <ele>2816.8</ele>
        <time>2022-10-30T08:18:09.000Z</time>
      </trkpt>
      <trkpt lat="27.69415" lon="86.726989">
        <ele>2817</ele>
        <time>2022-10-30T08:18:13.000Z</time>
      </trkpt>
      <trkpt lat="27.694134" lon="86.727008">
        <ele>2817.4</ele>
        <time>2022-10-30T08:18:16.000Z</time>
      </trkpt>
      <trkpt lat="27.694115" lon="86.727021">
        <ele>2817.6</ele>
        <time>2022-10-30T08:18:19.000Z</time>
      </trkpt>
      <trkpt lat="27.694096" lon="86.727034">
        <ele>2817.4</ele>
        <time>2022-10-30T08:18:22.000Z</time>
      </trkpt>
      <trkpt lat="27.69407" lon="86.727053">
        <ele>2817.6</ele>
        <time>2022-10-30T08:18:25.000Z</time>
      </trkpt>
      <trkpt lat="27.694051" lon="86.727072">
        <ele>2817.8</ele>
        <time>2022-10-30T08:18:28.000Z</time>
      </trkpt>
      <trkpt lat="27.694029" lon="86.727091">
        <ele>2817.8</ele>
        <time>2022-10-30T08:18:31.000Z</time>
      </trkpt>
      <trkpt lat="27.694013" lon="86.727104">
        <ele>2817.8</ele>
        <time>2022-10-30T08:18:34.000Z</time>
      </trkpt>
      <trkpt lat="27.69399" lon="86.727104">
        <ele>2818.2</ele>
        <time>2022-10-30T08:18:37.000Z</time>
      </trkpt>
      <trkpt lat="27.693974" lon="86.727117">
        <ele>2819</ele>
        <time>2022-10-30T08:18:40.000Z</time>
      </trkpt>
      <trkpt lat="27.693952" lon="86.72713">
        <ele>2819.2</ele>
        <time>2022-10-30T08:18:42.000Z</time>
      </trkpt>
      <trkpt lat="27.693933" lon="86.727142">
        <ele>2819.2</ele>
        <time>2022-10-30T08:18:44.000Z</time>
      </trkpt>
      <trkpt lat="27.693914" lon="86.727155">
        <ele>2819.2</ele>
        <time>2022-10-30T08:18:46.000Z</time>
      </trkpt>
      <trkpt lat="27.693898" lon="86.727168">
        <ele>2819.2</ele>
        <time>2022-10-30T08:18:48.000Z</time>
      </trkpt>
      <trkpt lat="27.693872" lon="86.727174">
        <ele>2819.4</ele>
        <time>2022-10-30T08:18:51.000Z</time>
      </trkpt>
      <trkpt lat="27.693846" lon="86.727181">
        <ele>2819.8</ele>
        <time>2022-10-30T08:18:54.000Z</time>
      </trkpt>
      <trkpt lat="27.693834" lon="86.727206">
        <ele>2819.4</ele>
        <time>2022-10-30T08:18:57.000Z</time>
      </trkpt>
      <trkpt lat="27.693814" lon="86.727213">
        <ele>2819.6</ele>
        <time>2022-10-30T08:19:00.000Z</time>
      </trkpt>
      <trkpt lat="27.693795" lon="86.727232">
        <ele>2819.6</ele>
        <time>2022-10-30T08:19:03.000Z</time>
      </trkpt>
      <trkpt lat="27.693782" lon="86.727251">
        <ele>2819.8</ele>
        <time>2022-10-30T08:19:05.000Z</time>
      </trkpt>
      <trkpt lat="27.693766" lon="86.727264">
        <ele>2820</ele>
        <time>2022-10-30T08:19:07.000Z</time>
      </trkpt>
      <trkpt lat="27.693754" lon="86.72729">
        <ele>2820.2</ele>
        <time>2022-10-30T08:19:10.000Z</time>
      </trkpt>
      <trkpt lat="27.693741" lon="86.727309">
        <ele>2820.8</ele>
        <time>2022-10-30T08:19:13.000Z</time>
      </trkpt>
      <trkpt lat="27.693734" lon="86.727334">
        <ele>2820.8</ele>
        <time>2022-10-30T08:19:15.000Z</time>
      </trkpt>
      <trkpt lat="27.693718" lon="86.727366">
        <ele>2821</ele>
        <time>2022-10-30T08:19:18.000Z</time>
      </trkpt>
      <trkpt lat="27.693709" lon="86.727386">
        <ele>2821.4</ele>
        <time>2022-10-30T08:19:20.000Z</time>
      </trkpt>
      <trkpt lat="27.693702" lon="86.727405">
        <ele>2822</ele>
        <time>2022-10-30T08:19:22.000Z</time>
      </trkpt>
      <trkpt lat="27.693696" lon="86.727424">
        <ele>2822.4</ele>
        <time>2022-10-30T08:19:24.000Z</time>
      </trkpt>
      <trkpt lat="27.693686" lon="86.72745">
        <ele>2822.4</ele>
        <time>2022-10-30T08:19:26.000Z</time>
      </trkpt>
      <trkpt lat="27.69367" lon="86.727475">
        <ele>2822.6</ele>
        <time>2022-10-30T08:19:29.000Z</time>
      </trkpt>
      <trkpt lat="27.693661" lon="86.727501">
        <ele>2822.6</ele>
        <time>2022-10-30T08:19:31.000Z</time>
      </trkpt>
      <trkpt lat="27.693658" lon="86.727526">
        <ele>2822.8</ele>
        <time>2022-10-30T08:19:33.000Z</time>
      </trkpt>
      <trkpt lat="27.693654" lon="86.727565">
        <ele>2823.2</ele>
        <time>2022-10-30T08:19:36.000Z</time>
      </trkpt>
      <trkpt lat="27.693648" lon="86.727584">
        <ele>2823</ele>
        <time>2022-10-30T08:19:38.000Z</time>
      </trkpt>
      <trkpt lat="27.693648" lon="86.72761">
        <ele>2823</ele>
        <time>2022-10-30T08:19:40.000Z</time>
      </trkpt>
      <trkpt lat="27.693642" lon="86.727635">
        <ele>2822.6</ele>
        <time>2022-10-30T08:19:42.000Z</time>
      </trkpt>
      <trkpt lat="27.693635" lon="86.727661">
        <ele>2822.4</ele>
        <time>2022-10-30T08:19:44.000Z</time>
      </trkpt>
      <trkpt lat="27.693616" lon="86.727693">
        <ele>2822.8</ele>
        <time>2022-10-30T08:19:47.000Z</time>
      </trkpt>
      <trkpt lat="27.693603" lon="86.727712">
        <ele>2823.4</ele>
        <time>2022-10-30T08:19:52.000Z</time>
      </trkpt>
      <trkpt lat="27.693597" lon="86.727731">
        <ele>2823.6</ele>
        <time>2022-10-30T08:19:55.000Z</time>
      </trkpt>
      <trkpt lat="27.693581" lon="86.727744">
        <ele>2823.4</ele>
        <time>2022-10-30T08:19:58.000Z</time>
      </trkpt>
      <trkpt lat="27.693571" lon="86.727763">
        <ele>2823.6</ele>
        <time>2022-10-30T08:20:00.000Z</time>
      </trkpt>
      <trkpt lat="27.693555" lon="86.727776">
        <ele>2823.2</ele>
        <time>2022-10-30T08:20:03.000Z</time>
      </trkpt>
      <trkpt lat="27.693552" lon="86.727802">
        <ele>2823.2</ele>
        <time>2022-10-30T08:20:05.000Z</time>
      </trkpt>
      <trkpt lat="27.693542" lon="86.727821">
        <ele>2823</ele>
        <time>2022-10-30T08:20:07.000Z</time>
      </trkpt>
      <trkpt lat="27.693536" lon="86.727846">
        <ele>2823</ele>
        <time>2022-10-30T08:20:09.000Z</time>
      </trkpt>
      <trkpt lat="27.69353" lon="86.727866">
        <ele>2823</ele>
        <time>2022-10-30T08:20:11.000Z</time>
      </trkpt>
      <trkpt lat="27.693536" lon="86.727891">
        <ele>2822.8</ele>
        <time>2022-10-30T08:20:13.000Z</time>
      </trkpt>
      <trkpt lat="27.693536" lon="86.727923">
        <ele>2823.4</ele>
        <time>2022-10-30T08:20:16.000Z</time>
      </trkpt>
      <trkpt lat="27.69353" lon="86.727942">
        <ele>2823.4</ele>
        <time>2022-10-30T08:20:18.000Z</time>
      </trkpt>
      <trkpt lat="27.693517" lon="86.727962">
        <ele>2823.6</ele>
        <time>2022-10-30T08:20:21.000Z</time>
      </trkpt>
      <trkpt lat="27.693504" lon="86.727987">
        <ele>2823.6</ele>
        <time>2022-10-30T08:20:24.000Z</time>
      </trkpt>
      <trkpt lat="27.693494" lon="86.728013">
        <ele>2823.8</ele>
        <time>2022-10-30T08:20:26.000Z</time>
      </trkpt>
      <trkpt lat="27.693485" lon="86.728032">
        <ele>2823.8</ele>
        <time>2022-10-30T08:20:30.000Z</time>
      </trkpt>
      <trkpt lat="27.693478" lon="86.728051">
        <ele>2824</ele>
        <time>2022-10-30T08:20:33.000Z</time>
      </trkpt>
      <trkpt lat="27.693466" lon="86.72807">
        <ele>2824</ele>
        <time>2022-10-30T08:20:36.000Z</time>
      </trkpt>
      <trkpt lat="27.693456" lon="86.72809">
        <ele>2824.2</ele>
        <time>2022-10-30T08:20:39.000Z</time>
      </trkpt>
      <trkpt lat="27.69345" lon="86.728109">
        <ele>2824</ele>
        <time>2022-10-30T08:20:42.000Z</time>
      </trkpt>
      <trkpt lat="27.69343" lon="86.728128">
        <ele>2823.8</ele>
        <time>2022-10-30T08:20:45.000Z</time>
      </trkpt>
      <trkpt lat="27.693418" lon="86.728147">
        <ele>2823.8</ele>
        <time>2022-10-30T08:20:48.000Z</time>
      </trkpt>
      <trkpt lat="27.693411" lon="86.728166">
        <ele>2824</ele>
        <time>2022-10-30T08:20:50.000Z</time>
      </trkpt>
      <trkpt lat="27.693389" lon="86.728186">
        <ele>2824.6</ele>
        <time>2022-10-30T08:20:54.000Z</time>
      </trkpt>
      <trkpt lat="27.69337" lon="86.728205">
        <ele>2825.4</ele>
        <time>2022-10-30T08:20:59.000Z</time>
      </trkpt>
      <trkpt lat="27.693354" lon="86.728224">
        <ele>2825.8</ele>
        <time>2022-10-30T08:21:02.000Z</time>
      </trkpt>
      <trkpt lat="27.693347" lon="86.728243">
        <ele>2826.2</ele>
        <time>2022-10-30T08:21:05.000Z</time>
      </trkpt>
      <trkpt lat="27.693331" lon="86.728256">
        <ele>2826.8</ele>
        <time>2022-10-30T08:21:09.000Z</time>
      </trkpt>
      <trkpt lat="27.693309" lon="86.728269">
        <ele>2827.6</ele>
        <time>2022-10-30T08:21:14.000Z</time>
      </trkpt>
      <trkpt lat="27.693296" lon="86.728288">
        <ele>2828.2</ele>
        <time>2022-10-30T08:21:18.000Z</time>
      </trkpt>
      <trkpt lat="27.69328" lon="86.728307">
        <ele>2828.6</ele>
        <time>2022-10-30T08:21:21.000Z</time>
      </trkpt>
      <trkpt lat="27.693261" lon="86.728307">
        <ele>2828.6</ele>
        <time>2022-10-30T08:21:24.000Z</time>
      </trkpt>
      <trkpt lat="27.693245" lon="86.72832">
        <ele>2829.8</ele>
        <time>2022-10-30T08:21:28.000Z</time>
      </trkpt>
      <trkpt lat="27.693226" lon="86.72832">
        <ele>2830</ele>
        <time>2022-10-30T08:21:30.000Z</time>
      </trkpt>
      <trkpt lat="27.69321" lon="86.728333">
        <ele>2830.4</ele>
        <time>2022-10-30T08:21:32.000Z</time>
      </trkpt>
      <trkpt lat="27.69319" lon="86.728333">
        <ele>2830.8</ele>
        <time>2022-10-30T08:21:34.000Z</time>
      </trkpt>
      <trkpt lat="27.693171" lon="86.728339">
        <ele>2830.8</ele>
        <time>2022-10-30T08:21:36.000Z</time>
      </trkpt>
      <trkpt lat="27.693162" lon="86.728365">
        <ele>2830.8</ele>
        <time>2022-10-30T08:21:39.000Z</time>
      </trkpt>
      <trkpt lat="27.693168" lon="86.728384">
        <ele>2830.6</ele>
        <time>2022-10-30T08:21:41.000Z</time>
      </trkpt>
      <trkpt lat="27.693168" lon="86.72841">
        <ele>2831</ele>
        <time>2022-10-30T08:21:45.000Z</time>
      </trkpt>
      <trkpt lat="27.693158" lon="86.728429">
        <ele>2831.6</ele>
        <time>2022-10-30T08:21:48.000Z</time>
      </trkpt>
      <trkpt lat="27.693155" lon="86.728384">
        <ele>2831.6</ele>
        <time>2022-10-30T08:21:54.000Z</time>
      </trkpt>
      <trkpt lat="27.693165" lon="86.728365">
        <ele>2831.8</ele>
        <time>2022-10-30T08:22:01.000Z</time>
      </trkpt>
      <trkpt lat="27.693142" lon="86.728346">
        <ele>2832</ele>
        <time>2022-10-30T08:22:03.000Z</time>
      </trkpt>
      <trkpt lat="27.693139" lon="86.72832">
        <ele>2832.4</ele>
        <time>2022-10-30T08:22:05.000Z</time>
      </trkpt>
      <trkpt lat="27.69312" lon="86.72832">
        <ele>2833</ele>
        <time>2022-10-30T08:22:08.000Z</time>
      </trkpt>
      <trkpt lat="27.69311" lon="86.728301">
        <ele>2833.2</ele>
        <time>2022-10-30T08:22:10.000Z</time>
      </trkpt>
      <trkpt lat="27.693107" lon="86.728269">
        <ele>2833.4</ele>
        <time>2022-10-30T08:22:12.000Z</time>
      </trkpt>
      <trkpt lat="27.693088" lon="86.728256">
        <ele>2833.8</ele>
        <time>2022-10-30T08:22:16.000Z</time>
      </trkpt>
      <trkpt lat="27.693082" lon="86.72823">
        <ele>2833.8</ele>
        <time>2022-10-30T08:22:19.000Z</time>
      </trkpt>
      <trkpt lat="27.693062" lon="86.728218">
        <ele>2834.8</ele>
        <time>2022-10-30T08:22:23.000Z</time>
      </trkpt>
      <trkpt lat="27.693043" lon="86.728218">
        <ele>2835.4</ele>
        <time>2022-10-30T08:22:26.000Z</time>
      </trkpt>
      <trkpt lat="27.693005" lon="86.72823">
        <ele>2835.8</ele>
        <time>2022-10-30T08:22:29.000Z</time>
      </trkpt>
      <trkpt lat="27.692979" lon="86.72825">
        <ele>2836</ele>
        <time>2022-10-30T08:22:30.000Z</time>
      </trkpt>
      <trkpt lat="27.692947" lon="86.72825">
        <ele>2836</ele>
        <time>2022-10-30T08:22:32.000Z</time>
      </trkpt>
      <trkpt lat="27.692918" lon="86.728262">
        <ele>2836.2</ele>
        <time>2022-10-30T08:22:34.000Z</time>
      </trkpt>
      <trkpt lat="27.692899" lon="86.728256">
        <ele>2836.2</ele>
        <time>2022-10-30T08:22:35.000Z</time>
      </trkpt>
      <trkpt lat="27.69288" lon="86.728256">
        <ele>2836.4</ele>
        <time>2022-10-30T08:22:36.000Z</time>
      </trkpt>
      <trkpt lat="27.692861" lon="86.72825">
        <ele>2836.4</ele>
        <time>2022-10-30T08:22:37.000Z</time>
      </trkpt>
      <trkpt lat="27.692838" lon="86.72825">
        <ele>2836.6</ele>
        <time>2022-10-30T08:22:40.000Z</time>
      </trkpt>
      <trkpt lat="27.692819" lon="86.728243">
        <ele>2836.6</ele>
        <time>2022-10-30T08:22:43.000Z</time>
      </trkpt>
      <trkpt lat="27.692816" lon="86.728211">
        <ele>2836.8</ele>
        <time>2022-10-30T08:22:45.000Z</time>
      </trkpt>
      <trkpt lat="27.692794" lon="86.728186">
        <ele>2836.6</ele>
        <time>2022-10-30T08:22:48.000Z</time>
      </trkpt>
      <trkpt lat="27.692781" lon="86.728166">
        <ele>2837.2</ele>
        <time>2022-10-30T08:22:50.000Z</time>
      </trkpt>
      <trkpt lat="27.692771" lon="86.728147">
        <ele>2836.8</ele>
        <time>2022-10-30T08:22:52.000Z</time>
      </trkpt>
      <trkpt lat="27.692762" lon="86.728128">
        <ele>2836.8</ele>
        <time>2022-10-30T08:22:54.000Z</time>
      </trkpt>
      <trkpt lat="27.692752" lon="86.728109">
        <ele>2837.2</ele>
        <time>2022-10-30T08:22:56.000Z</time>
      </trkpt>
      <trkpt lat="27.692746" lon="86.72809">
        <ele>2837.4</ele>
        <time>2022-10-30T08:23:01.000Z</time>
      </trkpt>
      <trkpt lat="27.692736" lon="86.72807">
        <ele>2837.6</ele>
        <time>2022-10-30T08:23:03.000Z</time>
      </trkpt>
      <trkpt lat="27.692752" lon="86.728051">
        <ele>2837.8</ele>
        <time>2022-10-30T08:23:06.000Z</time>
      </trkpt>
      <trkpt lat="27.692752" lon="86.728026">
        <ele>2839</ele>
        <time>2022-10-30T08:23:10.000Z</time>
      </trkpt>
      <trkpt lat="27.692736" lon="86.728006">
        <ele>2839.6</ele>
        <time>2022-10-30T08:23:14.000Z</time>
      </trkpt>
      <trkpt lat="27.692714" lon="86.728006">
        <ele>2839.8</ele>
        <time>2022-10-30T08:23:16.000Z</time>
      </trkpt>
      <trkpt lat="27.692691" lon="86.728">
        <ele>2840.2</ele>
        <time>2022-10-30T08:23:18.000Z</time>
      </trkpt>
      <trkpt lat="27.692669" lon="86.727987">
        <ele>2840.4</ele>
        <time>2022-10-30T08:23:20.000Z</time>
      </trkpt>
      <trkpt lat="27.69265" lon="86.727987">
        <ele>2841.2</ele>
        <time>2022-10-30T08:23:23.000Z</time>
      </trkpt>
      <trkpt lat="27.692627" lon="86.727987">
        <ele>2841.4</ele>
        <time>2022-10-30T08:23:26.000Z</time>
      </trkpt>
      <trkpt lat="27.692605" lon="86.727987">
        <ele>2841.6</ele>
        <time>2022-10-30T08:23:28.000Z</time>
      </trkpt>
      <trkpt lat="27.692589" lon="86.728">
        <ele>2841.8</ele>
        <time>2022-10-30T08:23:30.000Z</time>
      </trkpt>
      <trkpt lat="27.69257" lon="86.728013">
        <ele>2841.8</ele>
        <time>2022-10-30T08:23:32.000Z</time>
      </trkpt>
      <trkpt lat="27.692547" lon="86.728019">
        <ele>2841.8</ele>
        <time>2022-10-30T08:23:35.000Z</time>
      </trkpt>
      <trkpt lat="27.692525" lon="86.728019">
        <ele>2842</ele>
        <time>2022-10-30T08:23:38.000Z</time>
      </trkpt>
      <trkpt lat="27.692506" lon="86.728013">
        <ele>2842</ele>
        <time>2022-10-30T08:23:42.000Z</time>
      </trkpt>
      <trkpt lat="27.692483" lon="86.728013">
        <ele>2842.4</ele>
        <time>2022-10-30T08:23:57.000Z</time>
      </trkpt>
      <trkpt lat="27.692458" lon="86.728026">
        <ele>2842</ele>
        <time>2022-10-30T08:24:00.000Z</time>
      </trkpt>
      <trkpt lat="27.692445" lon="86.728045">
        <ele>2842</ele>
        <time>2022-10-30T08:24:03.000Z</time>
      </trkpt>
      <trkpt lat="27.692426" lon="86.728026">
        <ele>2842.4</ele>
        <time>2022-10-30T08:24:21.000Z</time>
      </trkpt>
      <trkpt lat="27.692403" lon="86.728032">
        <ele>2842.4</ele>
        <time>2022-10-30T08:24:24.000Z</time>
      </trkpt>
      <trkpt lat="27.692387" lon="86.728019">
        <ele>2842.6</ele>
        <time>2022-10-30T08:24:27.000Z</time>
      </trkpt>
      <trkpt lat="27.692368" lon="86.728019">
        <ele>2842.2</ele>
        <time>2022-10-30T08:24:32.000Z</time>
      </trkpt>
      <trkpt lat="27.692346" lon="86.728006">
        <ele>2842.4</ele>
        <time>2022-10-30T08:24:38.000Z</time>
      </trkpt>
      <trkpt lat="27.692336" lon="86.727987">
        <ele>2843.4</ele>
        <time>2022-10-30T08:24:41.000Z</time>
      </trkpt>
      <trkpt lat="27.692323" lon="86.727968">
        <ele>2843.8</ele>
        <time>2022-10-30T08:24:46.000Z</time>
      </trkpt>
      <trkpt lat="27.692314" lon="86.727949">
        <ele>2844.8</ele>
        <time>2022-10-30T08:24:50.000Z</time>
      </trkpt>
      <trkpt lat="27.692304" lon="86.72793">
        <ele>2845.4</ele>
        <time>2022-10-30T08:24:54.000Z</time>
      </trkpt>
      <trkpt lat="27.692288" lon="86.72791">
        <ele>2847.6</ele>
        <time>2022-10-30T08:25:06.000Z</time>
      </trkpt>
      <trkpt lat="27.692282" lon="86.72793">
        <ele>2848</ele>
        <time>2022-10-30T08:25:09.000Z</time>
      </trkpt>
      <trkpt lat="27.692262" lon="86.727936">
        <ele>2849</ele>
        <time>2022-10-30T08:25:12.000Z</time>
      </trkpt>
      <trkpt lat="27.692218" lon="86.727962">
        <ele>2850</ele>
        <time>2022-10-30T08:25:45.000Z</time>
      </trkpt>
      <trkpt lat="27.692198" lon="86.727968">
        <ele>2850.4</ele>
        <time>2022-10-30T08:25:49.000Z</time>
      </trkpt>
      <trkpt lat="27.692208" lon="86.727949">
        <ele>2850.4</ele>
        <time>2022-10-30T08:27:15.000Z</time>
      </trkpt>
      <trkpt lat="27.692224" lon="86.727936">
        <ele>2850.6</ele>
        <time>2022-10-30T08:27:18.000Z</time>
      </trkpt>
    </trkseg>
  </trk>
</gpx>
